<?xml version='1.0' encoding='UTF-8'?><gpx version="1.1" creator="JPX - https://github.com/jenetics/jpx" xmlns="http://www.topografix.com/GPX/1/1"><trk><trkseg><trkpt lat="44.40789792737392" lon="8.908326656723712"><ele>2.9999999999999996</ele><time>2026-05-01T07:32:19.999Z</time></trkpt><trkpt lat="44.4079199225091" lon="8.908243949422987"><ele>3.0</ele><time>2026-05-01T07:33:17.999Z</time></trkpt><trkpt lat="44.4079416427515" lon="8.908156106250093"><ele>3.0</ele><time>2026-05-01T07:33:19.999Z</time></trkpt><trkpt lat="44.4080002473644" lon="8.908087072633156"><ele>3.0</ele><time>2026-05-01T07:33:22.999Z</time></trkpt><trkpt lat="44.40808053620987" lon="8.908095803329843"><ele>3.0</ele><time>2026-05-01T07:33:25.999Z</time></trkpt><trkpt lat="44.40814413458217" lon="8.908137982529642"><ele>2.9999999999999996</ele><time>2026-05-01T07:33:28.999Z</time></trkpt><trkpt lat="44.40819097498401" lon="8.908201790219696"><ele>3.0</ele><time>2026-05-01T07:33:32.999Z</time></trkpt><trkpt lat="44.408224950293075" lon="8.908276720788788"><ele>2.8333333333333335</ele><time>2026-05-01T07:33:41.999Z</time></trkpt><trkpt lat="44.40825369649532" lon="8.908358514950208"><ele>2.6666666666666665</ele><time>2026-05-01T07:33:43.999Z</time></trkpt><trkpt lat="44.408286564411114" lon="8.908454408391979"><ele>2.5</ele><time>2026-05-01T07:33:45.999Z</time></trkpt><trkpt lat="44.40831134487018" lon="8.90856659839145"><ele>2.333333333333333</ele><time>2026-05-01T07:33:47.999Z</time></trkpt><trkpt lat="44.408316791250996" lon="8.90869438223037"><ele>2.1666666666666665</ele><time>2026-05-01T07:33:49.999Z</time></trkpt><trkpt lat="44.4083089874103" lon="8.90882959218503"><ele>2.0</ele><time>2026-05-01T07:33:51.999Z</time></trkpt><trkpt lat="44.408298773597224" lon="8.908934536551014"><ele>2.0</ele><time>2026-05-01T07:33:53.999Z</time></trkpt><trkpt lat="44.4082810367764" lon="8.909020029310705"><ele>1.9999999999999998</ele><time>2026-05-01T07:33:55.999Z</time></trkpt><trkpt lat="44.4082625384828" lon="8.909111095638291"><ele>2.0</ele><time>2026-05-01T07:33:57.999Z</time></trkpt><trkpt lat="44.4082472461652" lon="8.909212503694043"><ele>2.0</ele><time>2026-05-01T07:33:59.999Z</time></trkpt><trkpt lat="44.40822984223862" lon="8.909319152365326"><ele>1.9999999999999998</ele><time>2026-05-01T07:34:01.999Z</time></trkpt><trkpt lat="44.40821274222097" lon="8.909423249405013"><ele>2.0</ele><time>2026-05-01T07:34:03.999Z</time></trkpt><trkpt lat="44.40819622125352" lon="8.909511637642918"><ele>2.0</ele><time>2026-05-01T07:34:05.999Z</time></trkpt><trkpt lat="44.40817480577113" lon="8.909633097973842"><ele>1.857142857142857</ele><time>2026-05-01T07:34:08.999Z</time></trkpt><trkpt lat="44.40815552561547" lon="8.909722895249438"><ele>1.714285714285714</ele><time>2026-05-01T07:34:10.999Z</time></trkpt><trkpt lat="44.40813625784826" lon="8.909814001615306"><ele>1.5714285714285714</ele><time>2026-05-01T07:34:12.999Z</time></trkpt><trkpt lat="44.408130711730216" lon="8.90990798942366"><ele>1.4285714285714284</ele><time>2026-05-01T07:34:14.999Z</time></trkpt><trkpt lat="44.40813542167339" lon="8.909996672413431"><ele>1.2857142857142856</ele><time>2026-05-01T07:34:16.999Z</time></trkpt><trkpt lat="44.408118364316856" lon="8.910122707919864"><ele>1.1428571428571428</ele><time>2026-05-01T07:34:19.999Z</time></trkpt><trkpt lat="44.40817950026928" lon="8.910172071475907"><ele>1.0</ele><time>2026-05-01T07:34:23.999Z</time></trkpt><trkpt lat="44.40824258418625" lon="8.910123602281958"><ele>1.0</ele><time>2026-05-01T07:40:09Z</time></trkpt><trkpt lat="44.40837130918708" lon="8.910149349314173"><ele>1.0</ele><time>2026-05-01T07:40:11Z</time></trkpt><trkpt lat="44.40843825903334" lon="8.91013687482368"><ele>1.0</ele><time>2026-05-01T07:40:12Z</time></trkpt><trkpt lat="44.40851881266937" lon="8.910163082812835"><ele>1.0</ele><time>2026-05-01T07:40:14Z</time></trkpt><trkpt lat="44.40860893995347" lon="8.910185045791499"><ele>1.0</ele><time>2026-05-01T07:40:17Z</time></trkpt><trkpt lat="44.40867065076251" lon="8.910053447935224"><ele>0.9999999999999999</ele><time>2026-05-01T07:40:19Z</time></trkpt><trkpt lat="44.408697265780816" lon="8.90995963720703"><ele>1.0</ele><time>2026-05-01T07:40:20Z</time></trkpt><trkpt lat="44.40872044517051" lon="8.909853144673436"><ele>1.0</ele><time>2026-05-01T07:40:21Z</time></trkpt><trkpt lat="44.408741006057994" lon="8.909737520921249"><ele>1.0</ele><time>2026-05-01T07:40:22Z</time></trkpt><trkpt lat="44.40876549320354" lon="8.909616738127045"><ele>0.9999999999999999</ele><time>2026-05-01T07:40:23Z</time></trkpt><trkpt lat="44.40878454181029" lon="8.909495133791433"><ele>1.0</ele><time>2026-05-01T07:40:24Z</time></trkpt><trkpt lat="44.40880890152396" lon="8.909364776945695"><ele>1.4</ele><time>2026-05-01T07:40:25Z</time></trkpt><trkpt lat="44.40884280796145" lon="8.909233842343303"><ele>1.8</ele><time>2026-05-01T07:40:26Z</time></trkpt><trkpt lat="44.40888502267091" lon="8.909108525717242"><ele>2.1999999999999997</ele><time>2026-05-01T07:40:27Z</time></trkpt><trkpt lat="44.408939387020666" lon="8.908989402594202"><ele>2.6</ele><time>2026-05-01T07:40:28Z</time></trkpt><trkpt lat="44.40900498807775" lon="8.908887526985959"><ele>3.0</ele><time>2026-05-01T07:40:29Z</time></trkpt><trkpt lat="44.40908481738608" lon="8.908808530110495"><ele>3.0</ele><time>2026-05-01T07:40:30Z</time></trkpt><trkpt lat="44.409165291121866" lon="8.908731329967527"><ele>3.0</ele><time>2026-05-01T07:40:31Z</time></trkpt><trkpt lat="44.4092659691926" lon="8.908709294087785"><ele>3.0</ele><time>2026-05-01T07:40:32Z</time></trkpt><trkpt lat="44.40935642869127" lon="8.90875452842288"><ele>3.0</ele><time>2026-05-01T07:40:33Z</time></trkpt><trkpt lat="44.40943608666198" lon="8.908798140910136"><ele>3.0</ele><time>2026-05-01T07:40:34Z</time></trkpt><trkpt lat="44.40951279917288" lon="8.908869289209822"><ele>3.0</ele><time>2026-05-01T07:40:35Z</time></trkpt><trkpt lat="44.4095993515844" lon="8.90892483170271"><ele>3.0</ele><time>2026-05-01T07:40:36Z</time></trkpt><trkpt lat="44.409672191353295" lon="8.909002808078524"><ele>3.0</ele><time>2026-05-01T07:40:37Z</time></trkpt><trkpt lat="44.40973999216178" lon="8.909059073328002"><ele>3.0</ele><time>2026-05-01T07:40:38Z</time></trkpt><trkpt lat="44.409796058665655" lon="8.909101200535972"><ele>3.0</ele><time>2026-05-01T07:40:39Z</time></trkpt><trkpt lat="44.40986375351912" lon="8.909173458125172"><ele>3.0</ele><time>2026-05-01T07:40:41Z</time></trkpt><trkpt lat="44.40992804689414" lon="8.909221335761023"><ele>3.5999999999999996</ele><time>2026-05-01T07:40:46Z</time></trkpt><trkpt lat="44.40998606642408" lon="8.909269556801604"><ele>4.199999999999999</ele><time>2026-05-01T07:40:51Z</time></trkpt><trkpt lat="44.410052799934604" lon="8.909316487161062"><ele>4.8</ele><time>2026-05-01T07:40:53Z</time></trkpt><trkpt lat="44.41016348622251" lon="8.909425658933976"><ele>5.3999999999999995</ele><time>2026-05-01T07:40:55Z</time></trkpt><trkpt lat="44.41022270303736" lon="8.90947455608056"><ele>6.0</ele><time>2026-05-01T07:40:56Z</time></trkpt><trkpt lat="44.410335544262885" lon="8.909543658600706"><ele>6.0</ele><time>2026-05-01T07:40:58Z</time></trkpt><trkpt lat="44.410430421914455" lon="8.909633605596406"><ele>6.0</ele><time>2026-05-01T07:41:00Z</time></trkpt><trkpt lat="44.41051744505247" lon="8.909717574226175"><ele>6.0</ele><time>2026-05-01T07:41:02Z</time></trkpt><trkpt lat="44.410601968760766" lon="8.909790026952757"><ele>6.0</ele><time>2026-05-01T07:41:04Z</time></trkpt><trkpt lat="44.41066296857295" lon="8.909841976995699"><ele>6.0</ele><time>2026-05-01T07:41:05Z</time></trkpt><trkpt lat="44.41072937310703" lon="8.909891007778423"><ele>5.7142857142857135</ele><time>2026-05-01T07:41:06Z</time></trkpt><trkpt lat="44.410793735128216" lon="8.909945589246368"><ele>5.428571428571429</ele><time>2026-05-01T07:41:07Z</time></trkpt><trkpt lat="44.4108598921235" lon="8.91000006883253"><ele>5.142857142857142</ele><time>2026-05-01T07:41:08Z</time></trkpt><trkpt lat="44.41092700655723" lon="8.910054976101307"><ele>4.857142857142857</ele><time>2026-05-01T07:41:09Z</time></trkpt><trkpt lat="44.41099036962745" lon="8.910106951429146"><ele>4.571428571428571</ele><time>2026-05-01T07:41:10Z</time></trkpt><trkpt lat="44.41105509828047" lon="8.91015575895307"><ele>4.285714285714286</ele><time>2026-05-01T07:41:11Z</time></trkpt><trkpt lat="44.411117093375296" lon="8.91020418222709"><ele>4.0</ele><time>2026-05-01T07:41:12Z</time></trkpt><trkpt lat="44.411178928362794" lon="8.91024846599552"><ele>3.833333333333333</ele><time>2026-05-01T07:41:13Z</time></trkpt><trkpt lat="44.41123987229782" lon="8.910284608861978"><ele>3.6666666666666665</ele><time>2026-05-01T07:41:14Z</time></trkpt><trkpt lat="44.411300210421054" lon="8.910316299339632"><ele>3.5</ele><time>2026-05-01T07:41:15Z</time></trkpt><trkpt lat="44.41140139935674" lon="8.910392889305779"><ele>3.333333333333333</ele><time>2026-05-01T07:41:17Z</time></trkpt><trkpt lat="44.41148807529019" lon="8.910455896897298"><ele>3.1666666666666665</ele><time>2026-05-01T07:41:19Z</time></trkpt><trkpt lat="44.41156560960296" lon="8.910506741976802"><ele>3.0</ele><time>2026-05-01T07:41:21Z</time></trkpt><trkpt lat="44.411645240255005" lon="8.910543623936972"><ele>3.0</ele><time>2026-05-01T07:41:23Z</time></trkpt><trkpt lat="44.41171511009014" lon="8.910559300251164"><ele>3.0</ele><time>2026-05-01T07:41:25Z</time></trkpt><trkpt lat="44.41179012022621" lon="8.910605726386265"><ele>3.0</ele><time>2026-05-01T07:41:28Z</time></trkpt><trkpt lat="44.411810669022394" lon="8.91050556151074"><ele>3.0</ele><time>2026-05-01T07:41:29Z</time></trkpt><trkpt lat="44.41189234877803" lon="8.910432940373498"><ele>3.0</ele><time>2026-05-01T07:42:16Z</time></trkpt><trkpt lat="44.41196171526768" lon="8.910350955690298"><ele>3.0</ele><time>2026-05-01T07:42:18Z</time></trkpt><trkpt lat="44.41203160544086" lon="8.91028080318602"><ele>3.0</ele><time>2026-05-01T07:42:21Z</time></trkpt><trkpt lat="44.412061778203466" lon="8.9101885125761"><ele>3.0</ele><time>2026-05-01T07:42:24.001Z</time></trkpt><trkpt lat="44.41214383639973" lon="8.910105767952682"><ele>3.0</ele><time>2026-05-01T07:43:43Z</time></trkpt><trkpt lat="44.412152222764306" lon="8.909997189670758"><ele>3.0</ele><time>2026-05-01T07:43:47Z</time></trkpt><trkpt lat="44.41206808210587" lon="8.90985453576025"><ele>3.0</ele><time>2026-05-01T07:43:49Z</time></trkpt><trkpt lat="44.41200536557025" lon="8.909775705512336"><ele>3.0</ele><time>2026-05-01T07:43:50Z</time></trkpt><trkpt lat="44.41194908113344" lon="8.909680299639634"><ele>3.0</ele><time>2026-05-01T07:43:51Z</time></trkpt><trkpt lat="44.411883106331935" lon="8.909601652605662"><ele>3.0</ele><time>2026-05-01T07:43:52Z</time></trkpt><trkpt lat="44.41181057240435" lon="8.909517267748818"><ele>3.0</ele><time>2026-05-01T07:43:53Z</time></trkpt><trkpt lat="44.41172218820349" lon="8.90944813761075"><ele>3.0</ele><time>2026-05-01T07:43:54Z</time></trkpt><trkpt lat="44.411643244769735" lon="8.909358604867897"><ele>3.0</ele><time>2026-05-01T07:43:55Z</time></trkpt><trkpt lat="44.411562216567255" lon="8.909262428769964"><ele>3.0</ele><time>2026-05-01T07:43:56Z</time></trkpt><trkpt lat="44.41147840052397" lon="8.90916489200482"><ele>3.0</ele><time>2026-05-01T07:43:57Z</time></trkpt><trkpt lat="44.41140078649821" lon="8.909042622204272"><ele>3.0</ele><time>2026-05-01T07:43:58Z</time></trkpt><trkpt lat="44.411292888233405" lon="8.908974953582783"><ele>4.75</ele><time>2026-05-01T07:43:59Z</time></trkpt><trkpt lat="44.4111945374732" lon="8.90888692441755"><ele>6.5</ele><time>2026-05-01T07:44:00Z</time></trkpt><trkpt lat="44.41109567831885" lon="8.908802769914171"><ele>8.25</ele><time>2026-05-01T07:44:01Z</time></trkpt><trkpt lat="44.410993886788866" lon="8.908719253250604"><ele>10.0</ele><time>2026-05-01T07:44:02Z</time></trkpt><trkpt lat="44.41088790919884" lon="8.908637004069153"><ele>10.0</ele><time>2026-05-01T07:44:03Z</time></trkpt><trkpt lat="44.41078415080979" lon="8.908559434080546"><ele>10.0</ele><time>2026-05-01T07:44:04Z</time></trkpt><trkpt lat="44.41069370194209" lon="8.9084588552234"><ele>10.0</ele><time>2026-05-01T07:44:05Z</time></trkpt><trkpt lat="44.41060527074748" lon="8.908386749787875"><ele>10.0</ele><time>2026-05-01T07:44:06Z</time></trkpt><trkpt lat="44.41051863293221" lon="8.908316036946363"><ele>10.0</ele><time>2026-05-01T07:44:07Z</time></trkpt><trkpt lat="44.41043264542434" lon="8.908245518729009"><ele>10.2</ele><time>2026-05-01T07:44:08Z</time></trkpt><trkpt lat="44.41034974854924" lon="8.908177535135785"><ele>10.4</ele><time>2026-05-01T07:44:09Z</time></trkpt><trkpt lat="44.41026530198029" lon="8.908108280640823"><ele>10.600000000000001</ele><time>2026-05-01T07:44:10.068Z</time></trkpt><trkpt lat="44.41019445911559" lon="8.908050249417405"><ele>10.8</ele><time>2026-05-01T07:44:11Z</time></trkpt><trkpt lat="44.410107025753675" lon="8.907990541312277"><ele>11.0</ele><time>2026-05-01T07:44:12Z</time></trkpt><trkpt lat="44.40999759735976" lon="8.907912377098713"><ele>11.0</ele><time>2026-05-01T07:44:13Z</time></trkpt><trkpt lat="44.40989736886809" lon="8.907830342439668"><ele>11.0</ele><time>2026-05-01T07:44:14Z</time></trkpt><trkpt lat="44.40978935987138" lon="8.90774908738619"><ele>11.0</ele><time>2026-05-01T07:44:15Z</time></trkpt><trkpt lat="44.40968162676556" lon="8.907740759592148"><ele>11.0</ele><time>2026-05-01T07:44:16Z</time></trkpt><trkpt lat="44.40957874893278" lon="8.90772569647206"><ele>9.666666666666666</ele><time>2026-05-01T07:44:17Z</time></trkpt><trkpt lat="44.40948554612633" lon="8.907730530638956"><ele>8.333333333333334</ele><time>2026-05-01T07:44:18Z</time></trkpt><trkpt lat="44.409390803984394" lon="8.907717833487768"><ele>7.0</ele><time>2026-05-01T07:44:19Z</time></trkpt><trkpt lat="44.40924441888518" lon="8.907232654379216"><ele>7.0</ele><time>2026-05-01T07:44:21Z</time></trkpt><trkpt lat="44.40917740137245" lon="8.907130763823067"><ele>6.999999999999999</ele><time>2026-05-01T07:44:22Z</time></trkpt><trkpt lat="44.40910338557474" lon="8.907022106223497"><ele>6.999999999999999</ele><time>2026-05-01T07:44:23Z</time></trkpt><trkpt lat="44.40908013179737" lon="8.906929154531074"><ele>7.0</ele><time>2026-05-01T07:44:24Z</time></trkpt><trkpt lat="44.40897293438503" lon="8.906742048775625"><ele>7.0</ele><time>2026-05-01T07:44:25Z</time></trkpt><trkpt lat="44.408869714999746" lon="8.906539129942255"><ele>8.5</ele><time>2026-05-01T07:44:26.074Z</time></trkpt><trkpt lat="44.409265172180795" lon="8.906473587023527"><ele>10.0</ele><time>2026-05-01T07:44:28Z</time></trkpt><trkpt lat="44.40931389652528" lon="8.906293338625293"><ele>10.0</ele><time>2026-05-01T07:44:30Z</time></trkpt><trkpt lat="44.409343958474906" lon="8.906139944435301"><ele>10.0</ele><time>2026-05-01T07:44:31Z</time></trkpt><trkpt lat="44.40936912859343" lon="8.905972928431899"><ele>10.0</ele><time>2026-05-01T07:44:32Z</time></trkpt><trkpt lat="44.409379168911144" lon="8.905809570350412"><ele>10.0</ele><time>2026-05-01T07:44:33Z</time></trkpt><trkpt lat="44.40938986299625" lon="8.905652695172163"><ele>10.6</ele><time>2026-05-01T07:44:34Z</time></trkpt><trkpt lat="44.4093954613941" lon="8.905497203160534"><ele>11.2</ele><time>2026-05-01T07:44:35Z</time></trkpt><trkpt lat="44.40940525823726" lon="8.905335638630838"><ele>11.8</ele><time>2026-05-01T07:44:36Z</time></trkpt><trkpt lat="44.40940622267189" lon="8.90518548669617"><ele>12.4</ele><time>2026-05-01T07:44:37Z</time></trkpt><trkpt lat="44.40940740880053" lon="8.905038787757901"><ele>13.0</ele><time>2026-05-01T07:44:38Z</time></trkpt><trkpt lat="44.40940996877902" lon="8.904894218396366"><ele>13.499999999999998</ele><time>2026-05-01T07:44:39Z</time></trkpt><trkpt lat="44.40941305598007" lon="8.90475104747449"><ele>14.0</ele><time>2026-05-01T07:44:40Z</time></trkpt><trkpt lat="44.40941442682346" lon="8.904616769399064"><ele>14.5</ele><time>2026-05-01T07:44:41Z</time></trkpt><trkpt lat="44.40941287538223" lon="8.90449822533665"><ele>15.0</ele><time>2026-05-01T07:44:42Z</time></trkpt><trkpt lat="44.40940620748472" lon="8.904397905879105"><ele>15.499999999999998</ele><time>2026-05-01T07:44:43Z</time></trkpt><trkpt lat="44.40941075545088" lon="8.904276590262015"><ele>16.0</ele><time>2026-05-01T07:44:44Z</time></trkpt><trkpt lat="44.40939472693777" lon="8.90412595980019"><ele>16.5</ele><time>2026-05-01T07:44:46Z</time></trkpt><trkpt lat="44.40939074931273" lon="8.904032187566445"><ele>17.0</ele><time>2026-05-01T07:44:48Z</time></trkpt><trkpt lat="44.409379125262156" lon="8.903943902842473"><ele>17.5</ele><time>2026-05-01T07:45:06Z</time></trkpt><trkpt lat="44.40936659489172" lon="8.903827754539646"><ele>18.0</ele><time>2026-05-01T07:45:08Z</time></trkpt><trkpt lat="44.409357436693504" lon="8.90371786151606"><ele>18.5</ele><time>2026-05-01T07:45:10Z</time></trkpt><trkpt lat="44.40925667331369" lon="8.903689703874585"><ele>19.0</ele><time>2026-05-01T07:45:12Z</time></trkpt><trkpt lat="44.40917103980832" lon="8.903739215195468"><ele>19.0</ele><time>2026-05-01T07:45:14Z</time></trkpt><trkpt lat="44.40910676563742" lon="8.903815038852672"><ele>19.0</ele><time>2026-05-01T07:45:16Z</time></trkpt><trkpt lat="44.40902091050483" lon="8.903909102064238"><ele>19.0</ele><time>2026-05-01T07:45:18Z</time></trkpt><trkpt lat="44.40896485189131" lon="8.903949763117017"><ele>19.0</ele><time>2026-05-01T07:45:19Z</time></trkpt><trkpt lat="44.40890321724575" lon="8.90397765704654"><ele>19.0</ele><time>2026-05-01T07:45:20Z</time></trkpt><trkpt lat="44.40877486762688" lon="8.903988481948742"><ele>18.2</ele><time>2026-05-01T07:45:22Z</time></trkpt><trkpt lat="44.40871054311863" lon="8.903973235477908"><ele>17.4</ele><time>2026-05-01T07:45:23Z</time></trkpt><trkpt lat="44.40865568772363" lon="8.903910259494989"><ele>16.6</ele><time>2026-05-01T07:45:24Z</time></trkpt><trkpt lat="44.408597731486886" lon="8.903766206432476"><ele>15.8</ele><time>2026-05-01T07:45:26Z</time></trkpt><trkpt lat="44.40847846123836" lon="8.903604793409151"><ele>15.0</ele><time>2026-05-01T07:45:28Z</time></trkpt><trkpt lat="44.408417075137415" lon="8.903497829305062"><ele>15.2</ele><time>2026-05-01T07:45:29Z</time></trkpt><trkpt lat="44.408370779831685" lon="8.903398136593577"><ele>15.4</ele><time>2026-05-01T07:45:30Z</time></trkpt><trkpt lat="44.40832362545951" lon="8.903273613842517"><ele>15.600000000000001</ele><time>2026-05-01T07:45:31Z</time></trkpt><trkpt lat="44.408283550868326" lon="8.903142008519715"><ele>15.8</ele><time>2026-05-01T07:45:32Z</time></trkpt><trkpt lat="44.40826266118389" lon="8.902996398278688"><ele>16.0</ele><time>2026-05-01T07:45:33Z</time></trkpt><trkpt lat="44.40824662382968" lon="8.902849357128407"><ele>15.999999999999998</ele><time>2026-05-01T07:45:34Z</time></trkpt><trkpt lat="44.40823009049849" lon="8.902711031987554"><ele>16.0</ele><time>2026-05-01T07:45:35Z</time></trkpt><trkpt lat="44.40819719849672" lon="8.902592503867647"><ele>16.0</ele><time>2026-05-01T07:45:36Z</time></trkpt><trkpt lat="44.40816197762125" lon="8.902492498243856"><ele>16.0</ele><time>2026-05-01T07:45:37Z</time></trkpt><trkpt lat="44.408103030544844" lon="8.902375579880536"><ele>15.999999999999998</ele><time>2026-05-01T07:45:39Z</time></trkpt><trkpt lat="44.40809193452502" lon="8.902278197030505"><ele>16.0</ele><time>2026-05-01T07:45:41Z</time></trkpt><trkpt lat="44.4080370126067" lon="8.902179177469915"><ele>16.75</ele><time>2026-05-01T07:45:45Z</time></trkpt><trkpt lat="44.40822448206183" lon="8.901979602050067"><ele>17.5</ele><time>2026-05-01T07:45:52Z</time></trkpt><trkpt lat="44.40829952410249" lon="8.901968741361769"><ele>18.25</ele><time>2026-05-01T07:45:53Z</time></trkpt><trkpt lat="44.40841504225732" lon="8.90196842337638"><ele>19.0</ele><time>2026-05-01T07:45:54Z</time></trkpt><trkpt lat="44.40852018033336" lon="8.90196595907925"><ele>19.0</ele><time>2026-05-01T07:45:55Z</time></trkpt><trkpt lat="44.40862867029304" lon="8.901957229580017"><ele>19.0</ele><time>2026-05-01T07:45:56Z</time></trkpt><trkpt lat="44.40876810214918" lon="8.901957225996911"><ele>19.0</ele><time>2026-05-01T07:45:57Z</time></trkpt><trkpt lat="44.40884001977948" lon="8.901892518373163"><ele>19.0</ele><time>2026-05-01T07:45:59Z</time></trkpt><trkpt lat="44.40890555989127" lon="8.9019033616787"><ele>19.0</ele><time>2026-05-01T07:46:00Z</time></trkpt><trkpt lat="44.40897471466457" lon="8.901962573274119"><ele>18.166666666666664</ele><time>2026-05-01T07:46:02Z</time></trkpt><trkpt lat="44.40904611387136" lon="8.901999495327598"><ele>17.333333333333332</ele><time>2026-05-01T07:46:04Z</time></trkpt><trkpt lat="44.40906566362708" lon="8.901912818081698"><ele>16.5</ele><time>2026-05-01T07:46:08Z</time></trkpt><trkpt lat="44.40913461337783" lon="8.901818015879268"><ele>15.666666666666668</ele><time>2026-05-01T07:46:11Z</time></trkpt><trkpt lat="44.40920110143377" lon="8.901827440605619"><ele>14.833333333333334</ele><time>2026-05-01T07:46:13Z</time></trkpt><trkpt lat="44.40926222325587" lon="8.901977519067486"><ele>14.0</ele><time>2026-05-01T07:46:15Z</time></trkpt><trkpt lat="44.40927540530274" lon="8.902093727635064"><ele>14.000000000000002</ele><time>2026-05-01T07:46:16Z</time></trkpt><trkpt lat="44.4092979205572" lon="8.90220533338443"><ele>14.0</ele><time>2026-05-01T07:46:17Z</time></trkpt><trkpt lat="44.409325574996664" lon="8.902320912636124"><ele>14.0</ele><time>2026-05-01T07:46:18Z</time></trkpt><trkpt lat="44.409358056909305" lon="8.902433396642639"><ele>14.0</ele><time>2026-05-01T07:46:19Z</time></trkpt><trkpt lat="44.40938675284624" lon="8.902539010490704"><ele>14.000000000000002</ele><time>2026-05-01T07:46:20Z</time></trkpt><trkpt lat="44.409409721689265" lon="8.902628585212494"><ele>14.0</ele><time>2026-05-01T07:46:21Z</time></trkpt><trkpt lat="44.40943390682668" lon="8.902723221753188"><ele>14.500000000000002</ele><time>2026-05-01T07:46:22Z</time></trkpt><trkpt lat="44.409460643434976" lon="8.902820272477657"><ele>15.0</ele><time>2026-05-01T07:46:23Z</time></trkpt><trkpt lat="44.40949356274053" lon="8.902932692811008"><ele>15.5</ele><time>2026-05-01T07:46:24Z</time></trkpt><trkpt lat="44.4095277036988" lon="8.903051828786875"><ele>16.0</ele><time>2026-05-01T07:46:25Z</time></trkpt><trkpt lat="44.409556012039374" lon="8.903154337899373"><ele>16.5</ele><time>2026-05-01T07:46:26Z</time></trkpt><trkpt lat="44.40959212164512" lon="8.903306211530571"><ele>17.0</ele><time>2026-05-01T07:46:28Z</time></trkpt><trkpt lat="44.409594462632924" lon="8.90342564107109"><ele>17.0</ele><time>2026-05-01T07:46:30Z</time></trkpt><trkpt lat="44.40965626461603" lon="8.903407420276727"><ele>17.0</ele><time>2026-05-01T07:46:31Z</time></trkpt><trkpt lat="44.40958404438438" lon="8.903421502679198"><ele>17.0</ele><time>2026-05-01T07:46:32Z</time></trkpt><trkpt lat="44.40951578960924" lon="8.903497086208086"><ele>17.0</ele><time>2026-05-01T07:47:28Z</time></trkpt><trkpt lat="44.40945552799044" lon="8.9035368701671"><ele>17.0</ele><time>2026-05-01T07:47:30Z</time></trkpt><trkpt lat="44.40937185178952" lon="8.903596041965447"><ele>17.0</ele><time>2026-05-01T07:47:33Z</time></trkpt><trkpt lat="44.40929998100115" lon="8.903695247910042"><ele>16.8</ele><time>2026-05-01T07:47:35Z</time></trkpt><trkpt lat="44.40925758992467" lon="8.903778042975409"><ele>16.6</ele><time>2026-05-01T07:47:37Z</time></trkpt><trkpt lat="44.40929969953433" lon="8.903956890080238"><ele>16.400000000000002</ele><time>2026-05-01T07:47:39Z</time></trkpt><trkpt lat="44.40929862503222" lon="8.904106221617303"><ele>16.2</ele><time>2026-05-01T07:47:41Z</time></trkpt><trkpt lat="44.409315301533056" lon="8.904216650450298"><ele>16.0</ele><time>2026-05-01T07:47:43Z</time></trkpt><trkpt lat="44.40932238001907" lon="8.90431841455892"><ele>16.0</ele><time>2026-05-01T07:47:45Z</time></trkpt><trkpt lat="44.4093302023543" lon="8.90441965276862"><ele>16.0</ele><time>2026-05-01T07:47:47Z</time></trkpt><trkpt lat="44.409338324765194" lon="8.90453490093097"><ele>16.0</ele><time>2026-05-01T07:47:49Z</time></trkpt><trkpt lat="44.409344094489306" lon="8.904678683848537"><ele>16.0</ele><time>2026-05-01T07:47:51Z</time></trkpt><trkpt lat="44.409344111496004" lon="8.904819663147224"><ele>16.0</ele><time>2026-05-01T07:47:53Z</time></trkpt><trkpt lat="44.409326308524086" lon="8.904979841600658"><ele>15.999999999999998</ele><time>2026-05-01T07:47:55Z</time></trkpt><trkpt lat="44.40937353446707" lon="8.90507654962284"><ele>16.0</ele><time>2026-05-01T07:47:56Z</time></trkpt><trkpt lat="44.40936923199744" lon="8.905170952814995"><ele>16.0</ele><time>2026-05-01T07:47:57Z</time></trkpt><trkpt lat="44.409365090053676" lon="8.905272412411566"><ele>16.0</ele><time>2026-05-01T07:47:58Z</time></trkpt><trkpt lat="44.40936081343537" lon="8.905377170945624"><ele>15.999999999999998</ele><time>2026-05-01T07:47:59Z</time></trkpt><trkpt lat="44.409304870645244" lon="8.905483236069518"><ele>16.0</ele><time>2026-05-01T07:48:00Z</time></trkpt><trkpt lat="44.409301271107765" lon="8.905597575369999"><ele>15.499999999999998</ele><time>2026-05-01T07:48:01Z</time></trkpt><trkpt lat="44.409300768520566" lon="8.905713389554064"><ele>15.0</ele><time>2026-05-01T07:48:02Z</time></trkpt><trkpt lat="44.409302790958186" lon="8.905830134993527"><ele>14.5</ele><time>2026-05-01T07:48:03Z</time></trkpt><trkpt lat="44.40930308988273" lon="8.905947523205677"><ele>14.0</ele><time>2026-05-01T07:48:04Z</time></trkpt><trkpt lat="44.409302402749624" lon="8.906058012870535"><ele>13.499999999999998</ele><time>2026-05-01T07:48:05Z</time></trkpt><trkpt lat="44.40930047335559" lon="8.90615814776492"><ele>13.0</ele><time>2026-05-01T07:48:06Z</time></trkpt><trkpt lat="44.4092966986061" lon="8.906314940935843"><ele>12.499999999999998</ele><time>2026-05-01T07:48:08Z</time></trkpt><trkpt lat="44.40929078698593" lon="8.906417385546765"><ele>12.0</ele><time>2026-05-01T07:48:10Z</time></trkpt><trkpt lat="44.40928142734442" lon="8.906510992439975"><ele>11.5</ele><time>2026-05-01T07:48:13Z</time></trkpt><trkpt lat="44.409264849305615" lon="8.906596781579635"><ele>11.0</ele><time>2026-05-01T07:49:25Z</time></trkpt><trkpt lat="44.40924219411479" lon="8.906680643793957"><ele>10.5</ele><time>2026-05-01T07:49:27Z</time></trkpt><trkpt lat="44.40918235845876" lon="8.906749974180428"><ele>10.0</ele><time>2026-05-01T07:49:29Z</time></trkpt><trkpt lat="44.40903832450526" lon="8.90668775576777"><ele>10.0</ele><time>2026-05-01T07:49:32Z</time></trkpt><trkpt lat="44.40893285801291" lon="8.906611526579871"><ele>10.0</ele><time>2026-05-01T07:49:34Z</time></trkpt><trkpt lat="44.4088240808823" lon="8.906547252770112"><ele>10.0</ele><time>2026-05-01T07:49:36Z</time></trkpt><trkpt lat="44.40871274024371" lon="8.906505978532044"><ele>10.0</ele><time>2026-05-01T07:49:38Z</time></trkpt><trkpt lat="44.40859623561471" lon="8.906471353354478"><ele>10.0</ele><time>2026-05-01T07:49:40Z</time></trkpt><trkpt lat="44.40848696809133" lon="8.906448863798794"><ele>10.0</ele><time>2026-05-01T07:49:42Z</time></trkpt><trkpt lat="44.40836397138823" lon="8.906403600683957"><ele>10.0</ele><time>2026-05-01T07:49:44Z</time></trkpt><trkpt lat="44.40829712911476" lon="8.906381558036182"><ele>10.0</ele><time>2026-05-01T07:49:45Z</time></trkpt><trkpt lat="44.408235082059626" lon="8.906345135255771"><ele>10.0</ele><time>2026-05-01T07:49:46Z</time></trkpt><trkpt lat="44.40817037944696" lon="8.906326155908378"><ele>10.0</ele><time>2026-05-01T07:49:47Z</time></trkpt><trkpt lat="44.40810800157554" lon="8.906307332420324"><ele>10.0</ele><time>2026-05-01T07:49:48Z</time></trkpt><trkpt lat="44.40802121072802" lon="8.906474229016034"><ele>10.0</ele><time>2026-05-01T07:49:49Z</time></trkpt><trkpt lat="44.40795714384206" lon="8.906517071870926"><ele>10.0</ele><time>2026-05-01T07:49:50Z</time></trkpt><trkpt lat="44.40789191776673" lon="8.906556970050385"><ele>10.0</ele><time>2026-05-01T07:49:51Z</time></trkpt><trkpt lat="44.40779405806279" lon="8.906620303078645"><ele>10.0</ele><time>2026-05-01T07:49:53Z</time></trkpt><trkpt lat="44.40768729614835" lon="8.906718461361143"><ele>9.0</ele><time>2026-05-01T07:49:55Z</time></trkpt><trkpt lat="44.40763537142681" lon="8.906778193916216"><ele>8.0</ele><time>2026-05-01T07:49:56Z</time></trkpt><trkpt lat="44.40753100040309" lon="8.90684344240639"><ele>7.0</ele><time>2026-05-01T07:49:58Z</time></trkpt><trkpt lat="44.407438836486065" lon="8.906844778203704"><ele>6.0</ele><time>2026-05-01T07:50:00Z</time></trkpt><trkpt lat="44.407359361044634" lon="8.906845015364226"><ele>5.0</ele><time>2026-05-01T07:50:02Z</time></trkpt><trkpt lat="44.40727047436277" lon="8.906830100386168"><ele>4.0</ele><time>2026-05-01T07:50:04Z</time></trkpt><trkpt lat="44.407163595772445" lon="8.906801394255131"><ele>3.8571428571428568</ele><time>2026-05-01T07:50:06Z</time></trkpt><trkpt lat="44.40710165362222" lon="8.90677983883187"><ele>3.714285714285714</ele><time>2026-05-01T07:50:07.001Z</time></trkpt><trkpt lat="44.407037668932674" lon="8.906753648675348"><ele>3.571428571428571</ele><time>2026-05-01T07:50:08.001Z</time></trkpt><trkpt lat="44.40697331691413" lon="8.906719442016865"><ele>3.4285714285714284</ele><time>2026-05-01T07:50:09.001Z</time></trkpt><trkpt lat="44.406915232605776" lon="8.906681620033742"><ele>3.2857142857142856</ele><time>2026-05-01T07:50:10.001Z</time></trkpt><trkpt lat="44.406828354836975" lon="8.906602575642292"><ele>3.1428571428571423</ele><time>2026-05-01T07:50:12.001Z</time></trkpt><trkpt lat="44.40676411613477" lon="8.906546025764044"><ele>3.0</ele><time>2026-05-01T07:50:15.001Z</time></trkpt><trkpt lat="44.4068214164975" lon="8.90662555481322"><ele>3.0</ele><time>2026-05-01T07:50:20.001Z</time></trkpt><trkpt lat="44.40676025892687" lon="8.90685785242918"><ele>3.0</ele><time>2026-05-01T07:50:22.001Z</time></trkpt><trkpt lat="44.40682321913714" lon="8.906823467539526"><ele>3.0</ele><time>2026-05-01T07:56:50.001Z</time></trkpt><trkpt lat="44.40688602303579" lon="8.906781972054448"><ele>3.0</ele><time>2026-05-01T07:56:52.001Z</time></trkpt><trkpt lat="44.40695471631512" lon="8.906757234029595"><ele>3.0</ele><time>2026-05-01T07:56:59.001Z</time></trkpt><trkpt lat="44.40701401621943" lon="8.90679010108096"><ele>3.0</ele><time>2026-05-01T07:57:03.001Z</time></trkpt><trkpt lat="44.40694992834479" lon="8.906754238232287"><ele>4.666666666666666</ele><time>2026-05-01T08:00:06.001Z</time></trkpt><trkpt lat="44.40689271178641" lon="8.906713908467545"><ele>6.333333333333333</ele><time>2026-05-01T08:00:10.001Z</time></trkpt><trkpt lat="44.40682525401378" lon="8.906654771951784"><ele>8.0</ele><time>2026-05-01T08:00:13.001Z</time></trkpt><trkpt lat="44.406757611929564" lon="8.90659243566732"><ele>9.666666666666666</ele><time>2026-05-01T08:00:16.001Z</time></trkpt><trkpt lat="44.40668128419434" lon="8.906528034062845"><ele>11.333333333333332</ele><time>2026-05-01T08:00:19.001Z</time></trkpt><trkpt lat="44.406617731584944" lon="8.906472088143813"><ele>13.0</ele><time>2026-05-01T08:00:23.001Z</time></trkpt><trkpt lat="44.40695882196312" lon="8.905745837743673"><ele>13.4</ele><time>2026-05-01T08:00:31.001Z</time></trkpt><trkpt lat="44.407012685695484" lon="8.905653798502167"><ele>13.8</ele><time>2026-05-01T08:00:50.001Z</time></trkpt><trkpt lat="44.40703994084375" lon="8.90554355420509"><ele>14.2</ele><time>2026-05-01T08:00:52Z</time></trkpt><trkpt lat="44.407101034965144" lon="8.90542489744425"><ele>14.6</ele><time>2026-05-01T08:00:54Z</time></trkpt><trkpt lat="44.407157672720686" lon="8.905382824004988"><ele>15.0</ele><time>2026-05-01T08:00:55Z</time></trkpt><trkpt lat="44.40722725834757" lon="8.905248305425784"><ele>15.0</ele><time>2026-05-01T08:00:57Z</time></trkpt><trkpt lat="44.40729655686871" lon="8.905125729211148"><ele>15.0</ele><time>2026-05-01T08:00:59Z</time></trkpt><trkpt lat="44.40737205159509" lon="8.905019564940398"><ele>15.0</ele><time>2026-05-01T08:01:01Z</time></trkpt><trkpt lat="44.40740899406513" lon="8.904878814614316"><ele>15.0</ele><time>2026-05-01T08:01:03Z</time></trkpt><trkpt lat="44.40748141547753" lon="8.904774141076235"><ele>15.0</ele><time>2026-05-01T08:01:04Z</time></trkpt><trkpt lat="44.407598886776256" lon="8.904719278795799"><ele>15.0</ele><time>2026-05-01T08:01:06Z</time></trkpt><trkpt lat="44.40766689249965" lon="8.904683834649976"><ele>15.0</ele><time>2026-05-01T08:01:07Z</time></trkpt><trkpt lat="44.40774034321092" lon="8.904644440409212"><ele>15.0</ele><time>2026-05-01T08:01:08Z</time></trkpt><trkpt lat="44.40781069814979" lon="8.904605042467386"><ele>15.0</ele><time>2026-05-01T08:01:09Z</time></trkpt><trkpt lat="44.4078837040529" lon="8.904562839760803"><ele>15.0</ele><time>2026-05-01T08:01:10Z</time></trkpt><trkpt lat="44.40795721520938" lon="8.904518440198261"><ele>15.0</ele><time>2026-05-01T08:01:11Z</time></trkpt><trkpt lat="44.40803274697607" lon="8.904469543317148"><ele>15.0</ele><time>2026-05-01T08:01:12Z</time></trkpt><trkpt lat="44.40810740950208" lon="8.904418021831038"><ele>15.0</ele><time>2026-05-01T08:01:13Z</time></trkpt><trkpt lat="44.40817918501307" lon="8.904360011499119"><ele>15.0</ele><time>2026-05-01T08:01:14Z</time></trkpt><trkpt lat="44.40824564928848" lon="8.90429605778364"><ele>15.0</ele><time>2026-05-01T08:01:15Z</time></trkpt><trkpt lat="44.408314748413844" lon="8.904225953070883"><ele>15.0</ele><time>2026-05-01T08:01:16Z</time></trkpt><trkpt lat="44.40838376933201" lon="8.904152804874114"><ele>15.0</ele><time>2026-05-01T08:01:17Z</time></trkpt><trkpt lat="44.408449255934336" lon="8.904080430229843"><ele>15.0</ele><time>2026-05-01T08:01:18Z</time></trkpt><trkpt lat="44.40851158310199" lon="8.904009272821067"><ele>15.0</ele><time>2026-05-01T08:01:19Z</time></trkpt><trkpt lat="44.40856891691515" lon="8.903943085993667"><ele>15.0</ele><time>2026-05-01T08:01:20Z</time></trkpt><trkpt lat="44.40862407501859" lon="8.903879026283692"><ele>15.0</ele><time>2026-05-01T08:01:21Z</time></trkpt><trkpt lat="44.4086769727905" lon="8.903814671627748"><ele>15.0</ele><time>2026-05-01T08:01:22Z</time></trkpt><trkpt lat="44.40872908375685" lon="8.903751274185208"><ele>15.0</ele><time>2026-05-01T08:01:23Z</time></trkpt><trkpt lat="44.40880722434211" lon="8.903648342064429"><ele>15.8</ele><time>2026-05-01T08:01:25Z</time></trkpt><trkpt lat="44.408881934277886" lon="8.903547122155329"><ele>16.6</ele><time>2026-05-01T08:01:27Z</time></trkpt><trkpt lat="44.40899610479037" lon="8.903576167924676"><ele>17.4</ele><time>2026-05-01T08:01:28Z</time></trkpt><trkpt lat="44.409069042134995" lon="8.903533655403713"><ele>18.2</ele><time>2026-05-01T08:01:29Z</time></trkpt><trkpt lat="44.40914964109374" lon="8.903490779513913"><ele>19.0</ele><time>2026-05-01T08:01:30Z</time></trkpt><trkpt lat="44.4092357319979" lon="8.903443706924563"><ele>18.599999999999998</ele><time>2026-05-01T08:01:31Z</time></trkpt><trkpt lat="44.40932375451043" lon="8.90339765461748"><ele>18.2</ele><time>2026-05-01T08:01:32Z</time></trkpt><trkpt lat="44.409414453991964" lon="8.90335049709836"><ele>17.799999999999997</ele><time>2026-05-01T08:01:33Z</time></trkpt><trkpt lat="44.4095065823459" lon="8.903301407755409"><ele>17.4</ele><time>2026-05-01T08:01:34Z</time></trkpt><trkpt lat="44.40959704432382" lon="8.9032507249207"><ele>17.0</ele><time>2026-05-01T08:01:35Z</time></trkpt><trkpt lat="44.40968993709065" lon="8.903203077384005"><ele>19.2</ele><time>2026-05-01T08:01:36Z</time></trkpt><trkpt lat="44.4097828631135" lon="8.903156456761803"><ele>21.4</ele><time>2026-05-01T08:01:37Z</time></trkpt><trkpt lat="44.40987224458973" lon="8.903100629684193"><ele>23.599999999999998</ele><time>2026-05-01T08:01:38Z</time></trkpt><trkpt lat="44.40995478128558" lon="8.903025891331946"><ele>25.799999999999997</ele><time>2026-05-01T08:01:39Z</time></trkpt><trkpt lat="44.41002782538412" lon="8.902936058205823"><ele>28.0</ele><time>2026-05-01T08:01:40Z</time></trkpt><trkpt lat="44.41009077737251" lon="8.902832580854632"><ele>28.0</ele><time>2026-05-01T08:01:41Z</time></trkpt><trkpt lat="44.410143685436886" lon="8.902722438501137"><ele>27.999999999999996</ele><time>2026-05-01T08:01:42Z</time></trkpt><trkpt lat="44.41018349784614" lon="8.902606067954084"><ele>27.999999999999996</ele><time>2026-05-01T08:01:43Z</time></trkpt><trkpt lat="44.41021379803275" lon="8.902483742255884"><ele>28.0</ele><time>2026-05-01T08:01:44Z</time></trkpt><trkpt lat="44.410233905639565" lon="8.902359093801332"><ele>28.0</ele><time>2026-05-01T08:01:45Z</time></trkpt><trkpt lat="44.410237996826666" lon="8.902227697441244"><ele>26.599999999999998</ele><time>2026-05-01T08:01:46Z</time></trkpt><trkpt lat="44.410233851032444" lon="8.90209092267113"><ele>25.199999999999996</ele><time>2026-05-01T08:01:47Z</time></trkpt><trkpt lat="44.41022907088014" lon="8.90194842569549"><ele>23.8</ele><time>2026-05-01T08:01:48Z</time></trkpt><trkpt lat="44.410221655467836" lon="8.90180110381115"><ele>22.4</ele><time>2026-05-01T08:01:49Z</time></trkpt><trkpt lat="44.41021463106483" lon="8.9016565204714"><ele>21.0</ele><time>2026-05-01T08:01:50Z</time></trkpt><trkpt lat="44.41020489147168" lon="8.901509212944232"><ele>21.0</ele><time>2026-05-01T08:01:51Z</time></trkpt><trkpt lat="44.41019741547828" lon="8.9013590331079"><ele>21.0</ele><time>2026-05-01T08:01:52Z</time></trkpt><trkpt lat="44.410195485483975" lon="8.901206442248089"><ele>21.0</ele><time>2026-05-01T08:01:53Z</time></trkpt><trkpt lat="44.41021351826725" lon="8.901052582268322"><ele>21.0</ele><time>2026-05-01T08:01:54Z</time></trkpt><trkpt lat="44.41025290214012" lon="8.90090549493625"><ele>21.0</ele><time>2026-05-01T08:01:55.001Z</time></trkpt><trkpt lat="44.41030412804239" lon="8.900771754401505"><ele>21.5</ele><time>2026-05-01T08:01:56.001Z</time></trkpt><trkpt lat="44.41035972545221" lon="8.90065743376914"><ele>22.0</ele><time>2026-05-01T08:01:57.001Z</time></trkpt><trkpt lat="44.41041803774557" lon="8.900557572167854"><ele>22.5</ele><time>2026-05-01T08:01:58.001Z</time></trkpt><trkpt lat="44.41048182816437" lon="8.900479804593855"><ele>23.0</ele><time>2026-05-01T08:01:59.001Z</time></trkpt><trkpt lat="44.4105485181724" lon="8.900415026541333"><ele>23.5</ele><time>2026-05-01T08:02:00.001Z</time></trkpt><trkpt lat="44.410617532057785" lon="8.900367250989937"><ele>24.0</ele><time>2026-05-01T08:02:01.001Z</time></trkpt><trkpt lat="44.41068813033271" lon="8.900338805519658"><ele>23.999999999999996</ele><time>2026-05-01T08:02:02.001Z</time></trkpt><trkpt lat="44.41075698690107" lon="8.900325127619354"><ele>24.0</ele><time>2026-05-01T08:02:03.001Z</time></trkpt><trkpt lat="44.41082738706611" lon="8.900320687836093"><ele>24.0</ele><time>2026-05-01T08:02:04.001Z</time></trkpt><trkpt lat="44.41089806651501" lon="8.900327496957383"><ele>24.0</ele><time>2026-05-01T08:02:05.001Z</time></trkpt><trkpt lat="44.41096985935596" lon="8.900343923202916"><ele>24.0</ele><time>2026-05-01T08:02:06.001Z</time></trkpt><trkpt lat="44.41104170470519" lon="8.90036795296621"><ele>23.999999999999996</ele><time>2026-05-01T08:02:07.001Z</time></trkpt><trkpt lat="44.41111756860346" lon="8.90039667639215"><ele>24.0</ele><time>2026-05-01T08:02:08.001Z</time></trkpt><trkpt lat="44.411195335151845" lon="8.900423718408067"><ele>24.0</ele><time>2026-05-01T08:02:09.001Z</time></trkpt><trkpt lat="44.411274776018615" lon="8.900441289531912"><ele>24.0</ele><time>2026-05-01T08:02:10.001Z</time></trkpt><trkpt lat="44.41136044245705" lon="8.900446371523824"><ele>24.0</ele><time>2026-05-01T08:02:11.001Z</time></trkpt><trkpt lat="44.41145063695029" lon="8.900440183294748"><ele>24.0</ele><time>2026-05-01T08:02:12.001Z</time></trkpt><trkpt lat="44.41154353882613" lon="8.900425079169965"><ele>24.0</ele><time>2026-05-01T08:02:13.001Z</time></trkpt><trkpt lat="44.4116393953174" lon="8.900397748961549"><ele>24.0</ele><time>2026-05-01T08:02:14.001Z</time></trkpt><trkpt lat="44.41173537926907" lon="8.900362230653425"><ele>26.2</ele><time>2026-05-01T08:02:15.001Z</time></trkpt><trkpt lat="44.41183517925668" lon="8.900318674773963"><ele>28.4</ele><time>2026-05-01T08:02:16.001Z</time></trkpt><trkpt lat="44.411940158821885" lon="8.900271783671277"><ele>30.6</ele><time>2026-05-01T08:02:17.001Z</time></trkpt><trkpt lat="44.41204928509509" lon="8.900227069417177"><ele>32.8</ele><time>2026-05-01T08:02:18.001Z</time></trkpt><trkpt lat="44.41216300188178" lon="8.900184183581892"><ele>35.0</ele><time>2026-05-01T08:02:19.001Z</time></trkpt><trkpt lat="44.41227907730565" lon="8.900149789137908"><ele>36.5</ele><time>2026-05-01T08:02:20.001Z</time></trkpt><trkpt lat="44.412399075143426" lon="8.900118308416932"><ele>38.0</ele><time>2026-05-01T08:02:21.001Z</time></trkpt><trkpt lat="44.41252301179193" lon="8.900108186110424"><ele>39.5</ele><time>2026-05-01T08:02:22.001Z</time></trkpt><trkpt lat="44.4126515323859" lon="8.900115705897743"><ele>41.0</ele><time>2026-05-01T08:02:23.001Z</time></trkpt><trkpt lat="44.41278230804587" lon="8.900136815023089"><ele>41.0</ele><time>2026-05-01T08:02:24.001Z</time></trkpt><trkpt lat="44.4129241435808" lon="8.900183914270341"><ele>41.0</ele><time>2026-05-01T08:02:25Z</time></trkpt><trkpt lat="44.41308698464554" lon="8.900254824152226"><ele>41.0</ele><time>2026-05-01T08:02:26Z</time></trkpt><trkpt lat="44.41325618065275" lon="8.900346086512954"><ele>40.666666666666664</ele><time>2026-05-01T08:02:27Z</time></trkpt><trkpt lat="44.41343139342882" lon="8.900460509909047"><ele>40.333333333333336</ele><time>2026-05-01T08:02:28Z</time></trkpt><trkpt lat="44.413597817946744" lon="8.900567122122537"><ele>40.0</ele><time>2026-05-01T08:02:29Z</time></trkpt><trkpt lat="44.41374923562478" lon="8.90065187340642"><ele>40.25</ele><time>2026-05-01T08:02:30Z</time></trkpt><trkpt lat="44.41389418628759" lon="8.90073260565879"><ele>40.5</ele><time>2026-05-01T08:02:31Z</time></trkpt><trkpt lat="44.4140269044764" lon="8.900811909151434"><ele>40.75</ele><time>2026-05-01T08:02:32Z</time></trkpt><trkpt lat="44.41415211855652" lon="8.900909311329874"><ele>41.0</ele><time>2026-05-01T08:02:33Z</time></trkpt><trkpt lat="44.41427118488817" lon="8.901024461095675"><ele>41.0</ele><time>2026-05-01T08:02:34Z</time></trkpt><trkpt lat="44.41439630144396" lon="8.90116331564533"><ele>41.0</ele><time>2026-05-01T08:02:35Z</time></trkpt><trkpt lat="44.41451584239952" lon="8.90130435030648"><ele>41.0</ele><time>2026-05-01T08:02:36Z</time></trkpt><trkpt lat="44.41463816296497" lon="8.901449679989641"><ele>40.0</ele><time>2026-05-01T08:02:37Z</time></trkpt><trkpt lat="44.41476589365774" lon="8.901585823019207"><ele>39.0</ele><time>2026-05-01T08:02:38Z</time></trkpt><trkpt lat="44.41489581082657" lon="8.901708870417437"><ele>38.0</ele><time>2026-05-01T08:02:39Z</time></trkpt><trkpt lat="44.415024059610616" lon="8.90181040246799"><ele>38.0</ele><time>2026-05-01T08:02:40Z</time></trkpt><trkpt lat="44.41516084703001" lon="8.901906648677635"><ele>38.0</ele><time>2026-05-01T08:02:41Z</time></trkpt><trkpt lat="44.41530386640314" lon="8.901989170205068"><ele>38.0</ele><time>2026-05-01T08:02:42Z</time></trkpt><trkpt lat="44.41545211365561" lon="8.902052955029973"><ele>41.0</ele><time>2026-05-01T08:02:43Z</time></trkpt><trkpt lat="44.4156120575959" lon="8.902110561870227"><ele>44.0</ele><time>2026-05-01T08:02:44Z</time></trkpt><trkpt lat="44.415767184052264" lon="8.90217460094446"><ele>47.0</ele><time>2026-05-01T08:02:45Z</time></trkpt><trkpt lat="44.41592207924688" lon="8.902240837981772"><ele>47.0</ele><time>2026-05-01T08:02:46Z</time></trkpt><trkpt lat="44.41608058771887" lon="8.90230824438281"><ele>47.0</ele><time>2026-05-01T08:02:47Z</time></trkpt><trkpt lat="44.41623273215824" lon="8.902380547753356"><ele>47.0</ele><time>2026-05-01T08:02:48Z</time></trkpt><trkpt lat="44.41638487772269" lon="8.902500981489775"><ele>49.25</ele><time>2026-05-01T08:02:49Z</time></trkpt><trkpt lat="44.41651428091777" lon="8.902580683209036"><ele>51.5</ele><time>2026-05-01T08:02:50Z</time></trkpt><trkpt lat="44.41663261683361" lon="8.902650261567805"><ele>53.75</ele><time>2026-05-01T08:02:51Z</time></trkpt><trkpt lat="44.416754921174125" lon="8.902706531330319"><ele>56.0</ele><time>2026-05-01T08:02:52Z</time></trkpt><trkpt lat="44.41687625950488" lon="8.902753991141813"><ele>58.4</ele><time>2026-05-01T08:02:53Z</time></trkpt><trkpt lat="44.41699628848263" lon="8.902784587694367"><ele>60.8</ele><time>2026-05-01T08:02:54Z</time></trkpt><trkpt lat="44.4171103899543" lon="8.90280827587501"><ele>63.199999999999996</ele><time>2026-05-01T08:02:55Z</time></trkpt><trkpt lat="44.41721894620406" lon="8.90282726734423"><ele>65.6</ele><time>2026-05-01T08:02:56Z</time></trkpt><trkpt lat="44.41731252133841" lon="8.902843307318616"><ele>68.0</ele><time>2026-05-01T08:02:57Z</time></trkpt><trkpt lat="44.417398338790846" lon="8.90285317247172"><ele>69.33333333333334</ele><time>2026-05-01T08:02:58Z</time></trkpt><trkpt lat="44.41747724934128" lon="8.90285413414977"><ele>70.66666666666667</ele><time>2026-05-01T08:02:59Z</time></trkpt><trkpt lat="44.41755431823982" lon="8.902855738058493"><ele>72.0</ele><time>2026-05-01T08:03:00Z</time></trkpt><trkpt lat="44.417634459431056" lon="8.902862439822043"><ele>73.33333333333333</ele><time>2026-05-01T08:03:01Z</time></trkpt><trkpt lat="44.417705432355596" lon="8.902824454946197"><ele>74.66666666666666</ele><time>2026-05-01T08:03:02Z</time></trkpt><trkpt lat="44.41777184577797" lon="8.902784932696745"><ele>76.0</ele><time>2026-05-01T08:03:03Z</time></trkpt><trkpt lat="44.41784327813227" lon="8.902744207144764"><ele>76.0</ele><time>2026-05-01T08:03:04Z</time></trkpt><trkpt lat="44.41792147463226" lon="8.902699063557945"><ele>76.0</ele><time>2026-05-01T08:03:05Z</time></trkpt><trkpt lat="44.41799701340119" lon="8.902652404697918"><ele>76.0</ele><time>2026-05-01T08:03:06Z</time></trkpt><trkpt lat="44.41807381681957" lon="8.902598722489337"><ele>76.0</ele><time>2026-05-01T08:03:07Z</time></trkpt><trkpt lat="44.41815298111647" lon="8.902534198212624"><ele>76.0</ele><time>2026-05-01T08:03:08Z</time></trkpt><trkpt lat="44.41823584595743" lon="8.902478248198898"><ele>76.0</ele><time>2026-05-01T08:03:09Z</time></trkpt><trkpt lat="44.418297846949336" lon="8.90237279106025"><ele>74.8</ele><time>2026-05-01T08:03:10Z</time></trkpt><trkpt lat="44.4183612879375" lon="8.902268159820874"><ele>73.6</ele><time>2026-05-01T08:03:11Z</time></trkpt><trkpt lat="44.41843185648144" lon="8.90215907772059"><ele>72.4</ele><time>2026-05-01T08:03:12Z</time></trkpt><trkpt lat="44.418518401597844" lon="8.902061135467775"><ele>71.2</ele><time>2026-05-01T08:03:13Z</time></trkpt><trkpt lat="44.418612030068665" lon="8.901969440072484"><ele>70.0</ele><time>2026-05-01T08:03:14Z</time></trkpt><trkpt lat="44.41871692378626" lon="8.901887187723093"><ele>70.75</ele><time>2026-05-01T08:03:15Z</time></trkpt><trkpt lat="44.4188256801404" lon="8.901804571851523"><ele>71.5</ele><time>2026-05-01T08:03:16Z</time></trkpt><trkpt lat="44.41894144327757" lon="8.901709437150343"><ele>72.25</ele><time>2026-05-01T08:03:17Z</time></trkpt><trkpt lat="44.41906185442335" lon="8.901604774086904"><ele>73.0</ele><time>2026-05-01T08:03:18Z</time></trkpt><trkpt lat="44.41917738059191" lon="8.901490660978986"><ele>73.0</ele><time>2026-05-01T08:03:19Z</time></trkpt><trkpt lat="44.41929229765014" lon="8.901363436132055"><ele>73.0</ele><time>2026-05-01T08:03:20Z</time></trkpt><trkpt lat="44.41939999392438" lon="8.901218389385075"><ele>73.0</ele><time>2026-05-01T08:03:21Z</time></trkpt><trkpt lat="44.41950129192656" lon="8.901061689960887"><ele>73.0</ele><time>2026-05-01T08:03:22Z</time></trkpt><trkpt lat="44.419596169540114" lon="8.900896259643252"><ele>76.66666666666666</ele><time>2026-05-01T08:03:23Z</time></trkpt><trkpt lat="44.419682967404576" lon="8.900716544776353"><ele>80.33333333333333</ele><time>2026-05-01T08:03:24Z</time></trkpt><trkpt lat="44.419762741405755" lon="8.900525296093718"><ele>84.0</ele><time>2026-05-01T08:03:25Z</time></trkpt><trkpt lat="44.41984014156774" lon="8.90032819735645"><ele>84.0</ele><time>2026-05-01T08:03:26Z</time></trkpt><trkpt lat="44.41991932013366" lon="8.900127973537154"><ele>84.0</ele><time>2026-05-01T08:03:27Z</time></trkpt><trkpt lat="44.42000617090345" lon="8.899920465928654"><ele>84.0</ele><time>2026-05-01T08:03:28Z</time></trkpt><trkpt lat="44.420109459362436" lon="8.899675782362722"><ele>93.5</ele><time>2026-05-01T08:03:29Z</time></trkpt><trkpt lat="44.42024397302819" lon="8.899399145362107"><ele>103.0</ele><time>2026-05-01T08:03:30Z</time></trkpt><trkpt lat="44.42042244584682" lon="8.899074182439218"><ele>104.0</ele><time>2026-05-01T08:03:31.064Z</time></trkpt><trkpt lat="44.420602739323925" lon="8.898730002196235"><ele>105.0</ele><time>2026-05-01T08:03:32.038Z</time></trkpt><trkpt lat="44.42074747379711" lon="8.898390765659707"><ele>105.0</ele><time>2026-05-01T08:03:33.029Z</time></trkpt><trkpt lat="44.42088499555289" lon="8.898077207896906"><ele>105.0</ele><time>2026-05-01T08:03:34.029Z</time></trkpt><trkpt lat="44.42100920410549" lon="8.897789444196096"><ele>111.5</ele><time>2026-05-01T08:03:35.029Z</time></trkpt><trkpt lat="44.421133225346296" lon="8.897500528058313"><ele>118.0</ele><time>2026-05-01T08:03:36.03Z</time></trkpt><trkpt lat="44.422133703419966" lon="8.895043696706818"><ele>104.5</ele><time>2026-05-01T08:03:39.151Z</time></trkpt><trkpt lat="44.42225898668367" lon="8.89520820450314"><ele>91.0</ele><time>2026-05-01T08:03:46Z</time></trkpt><trkpt lat="44.422511041252825" lon="8.894784273126742"><ele>85.0</ele><time>2026-05-01T08:03:47Z</time></trkpt><trkpt lat="44.422538377692625" lon="8.894513097803806"><ele>79.0</ele><time>2026-05-01T08:03:48Z</time></trkpt><trkpt lat="44.422678536396084" lon="8.89441812127573"><ele>73.0</ele><time>2026-05-01T08:03:49Z</time></trkpt><trkpt lat="44.422837294604264" lon="8.894303428631023"><ele>71.33333333333333</ele><time>2026-05-01T08:03:50Z</time></trkpt><trkpt lat="44.42300173260692" lon="8.89421876170861"><ele>69.66666666666667</ele><time>2026-05-01T08:03:51Z</time></trkpt><trkpt lat="44.42316636312766" lon="8.894148033672344"><ele>68.0</ele><time>2026-05-01T08:03:52Z</time></trkpt><trkpt lat="44.4233435704841" lon="8.894088850771904"><ele>68.0</ele><time>2026-05-01T08:03:53Z</time></trkpt><trkpt lat="44.423524635784624" lon="8.894043473319698"><ele>68.0</ele><time>2026-05-01T08:03:54Z</time></trkpt><trkpt lat="44.42370773479789" lon="8.894016341446017"><ele>68.0</ele><time>2026-05-01T08:03:54.999Z</time></trkpt><trkpt lat="44.42388853679591" lon="8.8940089019428"><ele>69.33333333333334</ele><time>2026-05-01T08:03:55.999Z</time></trkpt><trkpt lat="44.42407101341487" lon="8.89401977386428"><ele>70.66666666666667</ele><time>2026-05-01T08:03:56.999Z</time></trkpt><trkpt lat="44.424254494109256" lon="8.894049369025865"><ele>72.0</ele><time>2026-05-01T08:03:57.999Z</time></trkpt><trkpt lat="44.424435862791306" lon="8.89409729137846"><ele>72.0</ele><time>2026-05-01T08:03:58.999Z</time></trkpt><trkpt lat="44.42461331187452" lon="8.894166691786362"><ele>72.0</ele><time>2026-05-01T08:03:59.999Z</time></trkpt><trkpt lat="44.42478316273712" lon="8.894259874552217"><ele>72.0</ele><time>2026-05-01T08:04:01.001Z</time></trkpt><trkpt lat="44.42494621982146" lon="8.8943779273081"><ele>78.33333333333333</ele><time>2026-05-01T08:04:02.001Z</time></trkpt><trkpt lat="44.42510581246214" lon="8.894509575011558"><ele>84.66666666666666</ele><time>2026-05-01T08:04:03.001Z</time></trkpt><trkpt lat="44.425265775760295" lon="8.894646211141009"><ele>91.0</ele><time>2026-05-01T08:04:04.001Z</time></trkpt><trkpt lat="44.42541894270478" lon="8.894785728706559"><ele>89.0</ele><time>2026-05-01T08:04:05.001Z</time></trkpt><trkpt lat="44.42556665783799" lon="8.894921932474054"><ele>87.0</ele><time>2026-05-01T08:04:06Z</time></trkpt><trkpt lat="44.425716612996496" lon="8.895057208657818"><ele>85.0</ele><time>2026-05-01T08:04:07Z</time></trkpt><trkpt lat="44.425869047177095" lon="8.895188179220586"><ele>85.0</ele><time>2026-05-01T08:04:08Z</time></trkpt><trkpt lat="44.42602226219076" lon="8.8953225843679"><ele>85.0</ele><time>2026-05-01T08:04:09Z</time></trkpt><trkpt lat="44.426171683156255" lon="8.895466264107975"><ele>85.0</ele><time>2026-05-01T08:04:10Z</time></trkpt><trkpt lat="44.426314320383824" lon="8.895625650292457"><ele>83.0</ele><time>2026-05-01T08:04:11Z</time></trkpt><trkpt lat="44.42644538556392" lon="8.895799908565012"><ele>81.0</ele><time>2026-05-01T08:04:12Z</time></trkpt><trkpt lat="44.426559819539854" lon="8.896000317151886"><ele>79.0</ele><time>2026-05-01T08:04:13Z</time></trkpt><trkpt lat="44.426657831377476" lon="8.896215484852357"><ele>79.0</ele><time>2026-05-01T08:04:14Z</time></trkpt><trkpt lat="44.426739164033556" lon="8.896445285461203"><ele>79.0</ele><time>2026-05-01T08:04:15Z</time></trkpt><trkpt lat="44.426802135351586" lon="8.896688011840855"><ele>79.0</ele><time>2026-05-01T08:04:16Z</time></trkpt><trkpt lat="44.42684888125374" lon="8.89693853967196"><ele>80.33333333333333</ele><time>2026-05-01T08:04:17Z</time></trkpt><trkpt lat="44.42688383946808" lon="8.897192637741847"><ele>81.66666666666667</ele><time>2026-05-01T08:04:18Z</time></trkpt><trkpt lat="44.42691535387647" lon="8.897449335016123"><ele>83.0</ele><time>2026-05-01T08:04:19Z</time></trkpt><trkpt lat="44.42696029442893" lon="8.897699364103643"><ele>82.66666666666667</ele><time>2026-05-01T08:04:20Z</time></trkpt><trkpt lat="44.42702428052097" lon="8.89793832197682"><ele>82.33333333333333</ele><time>2026-05-01T08:04:21Z</time></trkpt><trkpt lat="44.42710415459253" lon="8.898164454699"><ele>82.0</ele><time>2026-05-01T08:04:22Z</time></trkpt><trkpt lat="44.42719641841958" lon="8.898376796485577"><ele>89.33333333333333</ele><time>2026-05-01T08:04:23Z</time></trkpt><trkpt lat="44.427301427365045" lon="8.89857482215834"><ele>96.66666666666666</ele><time>2026-05-01T08:04:24Z</time></trkpt><trkpt lat="44.427414902485694" lon="8.898754637812083"><ele>104.0</ele><time>2026-05-01T08:04:25Z</time></trkpt><trkpt lat="44.42754023715929" lon="8.898922599410213"><ele>104.0</ele><time>2026-05-01T08:04:26Z</time></trkpt><trkpt lat="44.427667002805784" lon="8.899076580188353"><ele>104.0</ele><time>2026-05-01T08:04:27Z</time></trkpt><trkpt lat="44.42779860079767" lon="8.899211952699417"><ele>104.0</ele><time>2026-05-01T08:04:28Z</time></trkpt><trkpt lat="44.42793477818593" lon="8.899333235483864"><ele>119.0</ele><time>2026-05-01T08:04:29Z</time></trkpt><trkpt lat="44.42807608951013" lon="8.899439120036613"><ele>134.0</ele><time>2026-05-01T08:04:30Z</time></trkpt><trkpt lat="44.42823293776405" lon="8.899536664072812"><ele>149.0</ele><time>2026-05-01T08:04:31.069Z</time></trkpt><trkpt lat="44.42838394980535" lon="8.899610834109595"><ele>149.0</ele><time>2026-05-01T08:04:32.06Z</time></trkpt><trkpt lat="44.42853783184949" lon="8.899680631718207"><ele>149.0</ele><time>2026-05-01T08:04:33.062Z</time></trkpt><trkpt lat="44.43033981835564" lon="8.900096708526556"><ele>130.5</ele><time>2026-05-01T08:04:43.944Z</time></trkpt><trkpt lat="44.43072886987451" lon="8.900207813855483"><ele>112.0</ele><time>2026-05-01T08:04:46.183Z</time></trkpt><trkpt lat="44.43292356901559" lon="8.900267022307828"><ele>96.33333333333334</ele><time>2026-05-01T08:04:56Z</time></trkpt><trkpt lat="44.433077853683756" lon="8.900208152703861"><ele>80.66666666666667</ele><time>2026-05-01T08:04:57Z</time></trkpt><trkpt lat="44.43325184103719" lon="8.900228571535681"><ele>65.0</ele><time>2026-05-01T08:04:58Z</time></trkpt><trkpt lat="44.433444328154046" lon="8.900260270194918"><ele>65.0</ele><time>2026-05-01T08:04:59Z</time></trkpt><trkpt lat="44.43363680754252" lon="8.900274070227542"><ele>65.0</ele><time>2026-05-01T08:05:00Z</time></trkpt><trkpt lat="44.433817223869184" lon="8.900299334392322"><ele>65.0</ele><time>2026-05-01T08:05:01Z</time></trkpt><trkpt lat="44.434009456198154" lon="8.900320989906438"><ele>71.33333333333334</ele><time>2026-05-01T08:05:02Z</time></trkpt><trkpt lat="44.43419948413325" lon="8.90033545211999"><ele>77.66666666666667</ele><time>2026-05-01T08:05:03Z</time></trkpt><trkpt lat="44.434391675989446" lon="8.90035818412781"><ele>84.0</ele><time>2026-05-01T08:05:04Z</time></trkpt><trkpt lat="44.434583833351255" lon="8.900374039885582"><ele>88.66666666666666</ele><time>2026-05-01T08:05:05Z</time></trkpt><trkpt lat="44.43477062848455" lon="8.900374993907446"><ele>93.33333333333333</ele><time>2026-05-01T08:05:06Z</time></trkpt><trkpt lat="44.43496116996817" lon="8.90039555452868"><ele>98.0</ele><time>2026-05-01T08:05:07Z</time></trkpt><trkpt lat="44.435153419753654" lon="8.900420613251468"><ele>98.0</ele><time>2026-05-01T08:05:08Z</time></trkpt><trkpt lat="44.43534625305784" lon="8.900446941109637"><ele>98.0</ele><time>2026-05-01T08:05:09Z</time></trkpt><trkpt lat="44.43553951386111" lon="8.900480040425856"><ele>98.0</ele><time>2026-05-01T08:05:10Z</time></trkpt><trkpt lat="44.43573270865594" lon="8.900522909056507"><ele>98.66666666666666</ele><time>2026-05-01T08:05:11Z</time></trkpt><trkpt lat="44.43592559492478" lon="8.900574725243045"><ele>99.33333333333334</ele><time>2026-05-01T08:05:12Z</time></trkpt><trkpt lat="44.436117555390325" lon="8.900630484202345"><ele>100.0</ele><time>2026-05-01T08:05:13Z</time></trkpt><trkpt lat="44.43632056847006" lon="8.900693868755729"><ele>95.0</ele><time>2026-05-01T08:05:14.064Z</time></trkpt><trkpt lat="44.436509512548575" lon="8.90076061992606"><ele>90.0</ele><time>2026-05-01T08:05:15.061Z</time></trkpt><trkpt lat="44.43669621027502" lon="8.90083011788303"><ele>85.0</ele><time>2026-05-01T08:05:16.056Z</time></trkpt><trkpt lat="44.43703964478879" lon="8.900927297401818"><ele>77.33333333333333</ele><time>2026-05-01T08:05:18Z</time></trkpt><trkpt lat="44.43722541607427" lon="8.900998850798272"><ele>69.66666666666667</ele><time>2026-05-01T08:05:19Z</time></trkpt><trkpt lat="44.43740975193183" lon="8.901134124164757"><ele>62.0</ele><time>2026-05-01T08:05:20Z</time></trkpt><trkpt lat="44.43758877888843" lon="8.901226098207674"><ele>62.0</ele><time>2026-05-01T08:05:21Z</time></trkpt><trkpt lat="44.43776874764218" lon="8.901335556743119"><ele>62.0</ele><time>2026-05-01T08:05:22Z</time></trkpt><trkpt lat="44.437942706365455" lon="8.901436708127283"><ele>62.0</ele><time>2026-05-01T08:05:23Z</time></trkpt><trkpt lat="44.438119351416404" lon="8.901537596067623"><ele>65.33333333333334</ele><time>2026-05-01T08:05:24Z</time></trkpt><trkpt lat="44.43829152012811" lon="8.901650989844203"><ele>68.66666666666667</ele><time>2026-05-01T08:05:25Z</time></trkpt><trkpt lat="44.43846086373034" lon="8.901768135808664"><ele>72.0</ele><time>2026-05-01T08:05:26Z</time></trkpt><trkpt lat="44.43862680580263" lon="8.90188990288208"><ele>75.0</ele><time>2026-05-01T08:05:27Z</time></trkpt><trkpt lat="44.43879296201833" lon="8.902018317548475"><ele>78.0</ele><time>2026-05-01T08:05:28Z</time></trkpt><trkpt lat="44.43895731670861" lon="8.9021501393744"><ele>81.0</ele><time>2026-05-01T08:05:29Z</time></trkpt><trkpt lat="44.43911976979194" lon="8.902285749169184"><ele>81.0</ele><time>2026-05-01T08:05:30Z</time></trkpt><trkpt lat="44.4392823801867" lon="8.902426353987293"><ele>81.0</ele><time>2026-05-01T08:05:31Z</time></trkpt><trkpt lat="44.4394429111259" lon="8.902568676916239"><ele>81.0</ele><time>2026-05-01T08:05:32Z</time></trkpt><trkpt lat="44.43960478999526" lon="8.902713030526607"><ele>81.33333333333333</ele><time>2026-05-01T08:05:33Z</time></trkpt><trkpt lat="44.4397683224197" lon="8.902855369030972"><ele>81.66666666666666</ele><time>2026-05-01T08:05:34Z</time></trkpt><trkpt lat="44.43993157944807" lon="8.902993746452728"><ele>82.0</ele><time>2026-05-01T08:05:35Z</time></trkpt><trkpt lat="44.44009780832613" lon="8.903130752794624"><ele>82.0</ele><time>2026-05-01T08:05:36Z</time></trkpt><trkpt lat="44.44026609092151" lon="8.90326161201804"><ele>82.0</ele><time>2026-05-01T08:05:37Z</time></trkpt><trkpt lat="44.44043807981634" lon="8.90338187621503"><ele>82.0</ele><time>2026-05-01T08:05:37.999Z</time></trkpt><trkpt lat="44.440612045887335" lon="8.903492278241396"><ele>74.33333333333333</ele><time>2026-05-01T08:05:38.999Z</time></trkpt><trkpt lat="44.440790172380545" lon="8.903587824899954"><ele>66.66666666666667</ele><time>2026-05-01T08:05:39.999Z</time></trkpt><trkpt lat="44.44097185171909" lon="8.903679557915087"><ele>59.0</ele><time>2026-05-01T08:05:40.999Z</time></trkpt><trkpt lat="44.441155326047195" lon="8.903759286203863"><ele>55.0</ele><time>2026-05-01T08:05:41.999Z</time></trkpt><trkpt lat="44.44134087123978" lon="8.903826808795568"><ele>51.0</ele><time>2026-05-01T08:05:42.999Z</time></trkpt><trkpt lat="44.4415289835918" lon="8.903882516216102"><ele>47.0</ele><time>2026-05-01T08:05:43.999Z</time></trkpt><trkpt lat="44.44171741286754" lon="8.903924380282744"><ele>47.0</ele><time>2026-05-01T08:05:44.999Z</time></trkpt><trkpt lat="44.441907749563725" lon="8.903954307242394"><ele>47.0</ele><time>2026-05-01T08:05:45.999Z</time></trkpt><trkpt lat="44.44209959029524" lon="8.903974657503127"><ele>47.0</ele><time>2026-05-01T08:05:46.999Z</time></trkpt><trkpt lat="44.44229199098864" lon="8.903985097538074"><ele>45.33333333333333</ele><time>2026-05-01T08:05:47.999Z</time></trkpt><trkpt lat="44.44248115183423" lon="8.903985102599334"><ele>43.666666666666664</ele><time>2026-05-01T08:05:48.999Z</time></trkpt><trkpt lat="44.44267210330242" lon="8.90397986438219"><ele>42.0</ele><time>2026-05-01T08:05:49.999Z</time></trkpt><trkpt lat="44.44286400606302" lon="8.903975360656553"><ele>42.333333333333336</ele><time>2026-05-01T08:05:50.999Z</time></trkpt><trkpt lat="44.44305263996344" lon="8.903969040780492"><ele>42.66666666666667</ele><time>2026-05-01T08:05:51.999Z</time></trkpt><trkpt lat="44.44323596269547" lon="8.90396527536908"><ele>43.0</ele><time>2026-05-01T08:05:52.999Z</time></trkpt><trkpt lat="44.44341163454752" lon="8.903964513412916"><ele>43.0</ele><time>2026-05-01T08:05:53.999Z</time></trkpt><trkpt lat="44.44356847431575" lon="8.9039663532016"><ele>43.0</ele><time>2026-05-01T08:05:54.999Z</time></trkpt><trkpt lat="44.44371888084286" lon="8.903968746255243"><ele>43.0</ele><time>2026-05-01T08:05:55.999Z</time></trkpt><trkpt lat="44.44386212578415" lon="8.903970263973298"><ele>49.25</ele><time>2026-05-01T08:05:56.999Z</time></trkpt><trkpt lat="44.44399493271421" lon="8.903970640092687"><ele>55.5</ele><time>2026-05-01T08:05:57.999Z</time></trkpt><trkpt lat="44.44412136969125" lon="8.90397184297845"><ele>61.75</ele><time>2026-05-01T08:05:58.999Z</time></trkpt><trkpt lat="44.44424092367558" lon="8.903973467897393"><ele>68.0</ele><time>2026-05-01T08:05:59.999Z</time></trkpt><trkpt lat="44.44434685542904" lon="8.90397333070294"><ele>68.0</ele><time>2026-05-01T08:06:00.999Z</time></trkpt><trkpt lat="44.44444074443909" lon="8.903975359244706"><ele>68.0</ele><time>2026-05-01T08:06:01.999Z</time></trkpt><trkpt lat="44.444529288639195" lon="8.90398186818781"><ele>68.0</ele><time>2026-05-01T08:06:02.999Z</time></trkpt><trkpt lat="44.44461234815181" lon="8.903995860151333"><ele>68.0</ele><time>2026-05-01T08:06:03.999Z</time></trkpt><trkpt lat="44.44469238228099" lon="8.904029742516503"><ele>68.0</ele><time>2026-05-01T08:06:04.999Z</time></trkpt><trkpt lat="44.44476820864472" lon="8.904092408133232"><ele>68.0</ele><time>2026-05-01T08:06:06Z</time></trkpt><trkpt lat="44.44483697689817" lon="8.904178502304948"><ele>68.2</ele><time>2026-05-01T08:06:07Z</time></trkpt><trkpt lat="44.44490688685268" lon="8.90427976487847"><ele>68.4</ele><time>2026-05-01T08:06:08Z</time></trkpt><trkpt lat="44.44497172315763" lon="8.904398762116886"><ele>68.60000000000001</ele><time>2026-05-01T08:06:09Z</time></trkpt><trkpt lat="44.4450241569609" lon="8.904540821524085"><ele>68.8</ele><time>2026-05-01T08:06:10Z</time></trkpt><trkpt lat="44.4450679939123" lon="8.904695577424768"><ele>69.0</ele><time>2026-05-01T08:06:11Z</time></trkpt><trkpt lat="44.445106813994215" lon="8.904860108151631"><ele>69.0</ele><time>2026-05-01T08:06:12Z</time></trkpt><trkpt lat="44.44514221820281" lon="8.905031378626628"><ele>69.0</ele><time>2026-05-01T08:06:13Z</time></trkpt><trkpt lat="44.445175916200284" lon="8.905205646195393"><ele>69.0</ele><time>2026-05-01T08:06:14Z</time></trkpt><trkpt lat="44.44520629990652" lon="8.90537575946923"><ele>69.0</ele><time>2026-05-01T08:06:15Z</time></trkpt><trkpt lat="44.44523434077072" lon="8.905542496201983"><ele>66.75</ele><time>2026-05-01T08:06:16Z</time></trkpt><trkpt lat="44.44526362531717" lon="8.905705590306784"><ele>64.5</ele><time>2026-05-01T08:06:17Z</time></trkpt><trkpt lat="44.44529116165396" lon="8.905866520736817"><ele>62.25</ele><time>2026-05-01T08:06:18Z</time></trkpt><trkpt lat="44.44531773481183" lon="8.90602386726444"><ele>60.0</ele><time>2026-05-01T08:06:19Z</time></trkpt><trkpt lat="44.44534388461442" lon="8.906179132290156"><ele>59.0</ele><time>2026-05-01T08:06:20Z</time></trkpt><trkpt lat="44.445371185355306" lon="8.906340550766629"><ele>58.0</ele><time>2026-05-01T08:06:21Z</time></trkpt><trkpt lat="44.44540092135302" lon="8.90650611172033"><ele>57.0</ele><time>2026-05-01T08:06:22Z</time></trkpt><trkpt lat="44.44543135909889" lon="8.906674962519213"><ele>56.0</ele><time>2026-05-01T08:06:23Z</time></trkpt><trkpt lat="44.44546348903794" lon="8.906844092066542"><ele>62.75</ele><time>2026-05-01T08:06:24Z</time></trkpt><trkpt lat="44.44549850266024" lon="8.907018721235318"><ele>69.5</ele><time>2026-05-01T08:06:25Z</time></trkpt><trkpt lat="44.44552918982739" lon="8.907204373617121"><ele>76.25</ele><time>2026-05-01T08:06:26Z</time></trkpt><trkpt lat="44.44555371964291" lon="8.907395696794"><ele>83.0</ele><time>2026-05-01T08:06:27Z</time></trkpt><trkpt lat="44.44557537730982" lon="8.907592870967378"><ele>83.0</ele><time>2026-05-01T08:06:28Z</time></trkpt><trkpt lat="44.44559504298528" lon="8.907810615107872"><ele>83.0</ele><time>2026-05-01T08:06:29Z</time></trkpt><trkpt lat="44.44561482998106" lon="8.908054882141508"><ele>83.0</ele><time>2026-05-01T08:06:30Z</time></trkpt><trkpt lat="44.44563346139233" lon="8.908306054065132"><ele>81.0</ele><time>2026-05-01T08:06:31Z</time></trkpt><trkpt lat="44.44564918345044" lon="8.90855006341648"><ele>79.0</ele><time>2026-05-01T08:06:32Z</time></trkpt><trkpt lat="44.44567742973584" lon="8.908808070328863"><ele>77.0</ele><time>2026-05-01T08:06:33Z</time></trkpt><trkpt lat="44.445671276547614" lon="8.909071672299548"><ele>80.66666666666667</ele><time>2026-05-01T08:06:34Z</time></trkpt><trkpt lat="44.44566860844821" lon="8.909325984880864"><ele>84.33333333333333</ele><time>2026-05-01T08:06:35Z</time></trkpt><trkpt lat="44.445661463950216" lon="8.909570679695515"><ele>88.0</ele><time>2026-05-01T08:06:36Z</time></trkpt><trkpt lat="44.445650885497884" lon="8.909859614423315"><ele>89.5</ele><time>2026-05-01T08:06:37Z</time></trkpt><trkpt lat="44.445646172093234" lon="8.910178879271125"><ele>91.0</ele><time>2026-05-01T08:06:38Z</time></trkpt><trkpt lat="44.44563567250753" lon="8.910549043447334"><ele>93.0</ele><time>2026-05-01T08:06:39Z</time></trkpt><trkpt lat="44.44561748812198" lon="8.910914663074637"><ele>95.0</ele><time>2026-05-01T08:06:40Z</time></trkpt><trkpt lat="44.4455983579634" lon="8.911266480298256"><ele>95.0</ele><time>2026-05-01T08:06:41Z</time></trkpt><trkpt lat="44.445576857491545" lon="8.911611099739764"><ele>95.0</ele><time>2026-05-01T08:06:42Z</time></trkpt><trkpt lat="44.44555638893837" lon="8.91195359198218"><ele>96.0</ele><time>2026-05-01T08:06:43Z</time></trkpt><trkpt lat="44.44553684496906" lon="8.912290761450503"><ele>97.0</ele><time>2026-05-01T08:06:44Z</time></trkpt><trkpt lat="44.44551828254032" lon="8.91262302534547"><ele>101.0</ele><time>2026-05-01T08:06:45Z</time></trkpt><trkpt lat="44.44550465214879" lon="8.912942830071934"><ele>105.0</ele><time>2026-05-01T08:06:46Z</time></trkpt><trkpt lat="44.445495064330174" lon="8.913257987957035"><ele>106.5</ele><time>2026-05-01T08:06:47Z</time></trkpt><trkpt lat="44.44549086247638" lon="8.913583933519249"><ele>108.0</ele><time>2026-05-01T08:06:48Z</time></trkpt><trkpt lat="44.44549430989671" lon="8.913915656713424"><ele>105.0</ele><time>2026-05-01T08:06:49Z</time></trkpt><trkpt lat="44.44550487835705" lon="8.914251691850051"><ele>102.0</ele><time>2026-05-01T08:06:50Z</time></trkpt><trkpt lat="44.445522846915225" lon="8.914589289365827"><ele>102.0</ele><time>2026-05-01T08:06:51Z</time></trkpt><trkpt lat="44.44554823647906" lon="8.914924097987226"><ele>102.0</ele><time>2026-05-01T08:06:52Z</time></trkpt><trkpt lat="44.445585679678956" lon="8.915254775066057"><ele>103.5</ele><time>2026-05-01T08:06:53Z</time></trkpt><trkpt lat="44.445631627765664" lon="8.915584028352047"><ele>105.0</ele><time>2026-05-01T08:06:54Z</time></trkpt><trkpt lat="44.44568173254686" lon="8.915905914657033"><ele>107.0</ele><time>2026-05-01T08:06:55Z</time></trkpt><trkpt lat="44.44573784672246" lon="8.916218593537877"><ele>109.0</ele><time>2026-05-01T08:06:56Z</time></trkpt><trkpt lat="44.44579731798712" lon="8.916521489418894"><ele>108.66666666666667</ele><time>2026-05-01T08:06:57Z</time></trkpt><trkpt lat="44.44585818639994" lon="8.916821766535794"><ele>108.33333333333334</ele><time>2026-05-01T08:06:58Z</time></trkpt><trkpt lat="44.445914683997906" lon="8.917113670396418"><ele>108.0</ele><time>2026-05-01T08:06:59Z</time></trkpt><trkpt lat="44.44596826233825" lon="8.917408885129081"><ele>109.33333333333334</ele><time>2026-05-01T08:07:00Z</time></trkpt><trkpt lat="44.44602084784181" lon="8.917709959602316"><ele>110.66666666666667</ele><time>2026-05-01T08:07:01Z</time></trkpt><trkpt lat="44.44607512309555" lon="8.91801087443038"><ele>112.0</ele><time>2026-05-01T08:07:02Z</time></trkpt><trkpt lat="44.44612367979843" lon="8.918309856607863"><ele>112.33333333333334</ele><time>2026-05-01T08:07:03Z</time></trkpt><trkpt lat="44.44616154755822" lon="8.918610991975655"><ele>112.66666666666666</ele><time>2026-05-01T08:07:04Z</time></trkpt><trkpt lat="44.4461822964999" lon="8.918912639949848"><ele>113.0</ele><time>2026-05-01T08:07:05Z</time></trkpt><trkpt lat="44.44617798605879" lon="8.919223453358429"><ele>114.66666666666666</ele><time>2026-05-01T08:07:06Z</time></trkpt><trkpt lat="44.446151257116114" lon="8.919532924069694"><ele>116.33333333333334</ele><time>2026-05-01T08:07:07Z</time></trkpt><trkpt lat="44.446104516983624" lon="8.919832477383949"><ele>118.0</ele><time>2026-05-01T08:07:08Z</time></trkpt><trkpt lat="44.44604798456435" lon="8.920125955051828"><ele>121.33333333333334</ele><time>2026-05-01T08:07:09Z</time></trkpt><trkpt lat="44.44597720339615" lon="8.92041238861506"><ele>124.66666666666666</ele><time>2026-05-01T08:07:10Z</time></trkpt><trkpt lat="44.44593467043425" lon="8.920688806577513"><ele>128.0</ele><time>2026-05-01T08:07:11Z</time></trkpt><trkpt lat="44.44594186394047" lon="8.920955224099739"><ele>135.0</ele><time>2026-05-01T08:07:12Z</time></trkpt><trkpt lat="44.44594301043627" lon="8.92122003012617"><ele>142.0</ele><time>2026-05-01T08:07:13Z</time></trkpt><trkpt lat="44.44557512798841" lon="8.921527046480497"><ele>165.0</ele><time>2026-05-01T08:07:14Z</time></trkpt><trkpt lat="44.44546163970971" lon="8.921810284888497"><ele>188.0</ele><time>2026-05-01T08:07:15Z</time></trkpt><trkpt lat="44.44534163253648" lon="8.922090796719367"><ele>188.0</ele><time>2026-05-01T08:07:16Z</time></trkpt><trkpt lat="44.44522149036159" lon="8.922375258097022"><ele>188.0</ele><time>2026-05-01T08:07:17Z</time></trkpt><trkpt lat="44.44510442876717" lon="8.922666678893856"><ele>192.5</ele><time>2026-05-01T08:07:18Z</time></trkpt><trkpt lat="44.44498723349132" lon="8.922958568489683"><ele>197.0</ele><time>2026-05-01T08:07:19Z</time></trkpt><trkpt lat="44.43773745267143" lon="8.939699624793073"><ele>172.0</ele><time>2026-05-01T08:08:06.999Z</time></trkpt><trkpt lat="44.43761203214749" lon="8.939990822144306"><ele>147.0</ele><time>2026-05-01T08:08:07.999Z</time></trkpt><trkpt lat="44.43747712731999" lon="8.940340871565079"><ele>146.0</ele><time>2026-05-01T08:08:08.999Z</time></trkpt><trkpt lat="44.43737818836739" lon="8.94063042701847"><ele>145.0</ele><time>2026-05-01T08:08:09.999Z</time></trkpt><trkpt lat="44.43726827934526" lon="8.940922903431616"><ele>141.5</ele><time>2026-05-01T08:08:10.999Z</time></trkpt><trkpt lat="44.437171502472935" lon="8.941228331392791"><ele>138.0</ele><time>2026-05-01T08:08:11.999Z</time></trkpt><trkpt lat="44.43708597704662" lon="8.941540694922486"><ele>135.5</ele><time>2026-05-01T08:08:13Z</time></trkpt><trkpt lat="44.4370232384923" lon="8.941858268623157"><ele>133.0</ele><time>2026-05-01T08:08:14Z</time></trkpt><trkpt lat="44.436975980244576" lon="8.942184022125138"><ele>133.0</ele><time>2026-05-01T08:08:15Z</time></trkpt><trkpt lat="44.43694647854997" lon="8.942518025630967"><ele>133.0</ele><time>2026-05-01T08:08:16Z</time></trkpt><trkpt lat="44.43693506693549" lon="8.942850611235885"><ele>130.5</ele><time>2026-05-01T08:08:17Z</time></trkpt><trkpt lat="44.43693722873251" lon="8.943185391798382"><ele>128.0</ele><time>2026-05-01T08:08:18Z</time></trkpt><trkpt lat="44.43695161156949" lon="8.943523432994759"><ele>126.0</ele><time>2026-05-01T08:08:19Z</time></trkpt><trkpt lat="44.43696685896785" lon="8.943861564279235"><ele>124.0</ele><time>2026-05-01T08:08:20Z</time></trkpt><trkpt lat="44.43698376472739" lon="8.944200466351543"><ele>121.5</ele><time>2026-05-01T08:08:21Z</time></trkpt><trkpt lat="44.4369993579164" lon="8.944544164855706"><ele>119.0</ele><time>2026-05-01T08:08:22Z</time></trkpt><trkpt lat="44.43701282863683" lon="8.944887713868765"><ele>114.5</ele><time>2026-05-01T08:08:23Z</time></trkpt><trkpt lat="44.43702554605476" lon="8.94523076639029"><ele>110.0</ele><time>2026-05-01T08:08:24Z</time></trkpt><trkpt lat="44.43703918244183" lon="8.945574291450926"><ele>101.5</ele><time>2026-05-01T08:08:25Z</time></trkpt><trkpt lat="44.43705201478494" lon="8.945917319409379"><ele>93.0</ele><time>2026-05-01T08:08:26Z</time></trkpt><trkpt lat="44.437064413070544" lon="8.946259904388118"><ele>93.0</ele><time>2026-05-01T08:08:27Z</time></trkpt><trkpt lat="44.43707645686945" lon="8.94659946579325"><ele>93.0</ele><time>2026-05-01T08:08:28Z</time></trkpt><trkpt lat="44.437090675198235" lon="8.946941057703944"><ele>86.5</ele><time>2026-05-01T08:08:29Z</time></trkpt><trkpt lat="44.43710517033971" lon="8.947279032464085"><ele>80.0</ele><time>2026-05-01T08:08:30Z</time></trkpt><trkpt lat="44.43711946446999" lon="8.947616735363464"><ele>91.0</ele><time>2026-05-01T08:08:31Z</time></trkpt><trkpt lat="44.43713361995297" lon="8.947951915940253"><ele>102.0</ele><time>2026-05-01T08:08:32Z</time></trkpt><trkpt lat="44.43714562825413" lon="8.94828958402611"><ele>114.0</ele><time>2026-05-01T08:08:33Z</time></trkpt><trkpt lat="44.437150009503064" lon="8.948627124648352"><ele>126.0</ele><time>2026-05-01T08:08:34Z</time></trkpt><trkpt lat="44.437138739811225" lon="8.948963724872343"><ele>153.0</ele><time>2026-05-01T08:08:35Z</time></trkpt><trkpt lat="44.43710945827799" lon="8.949292454987654"><ele>180.0</ele><time>2026-05-01T08:08:36Z</time></trkpt><trkpt lat="44.437057479611916" lon="8.949620226495178"><ele>180.0</ele><time>2026-05-01T08:08:37Z</time></trkpt><trkpt lat="44.43699073691707" lon="8.949942574650633"><ele>180.0</ele><time>2026-05-01T08:08:38Z</time></trkpt><trkpt lat="44.4369084213881" lon="8.95025906675221"><ele>194.5</ele><time>2026-05-01T08:08:39Z</time></trkpt><trkpt lat="44.43681051110127" lon="8.950567946922531"><ele>209.0</ele><time>2026-05-01T08:08:40Z</time></trkpt><trkpt lat="44.436699493163" lon="8.950869551104592"><ele>223.5</ele><time>2026-05-01T08:08:41Z</time></trkpt><trkpt lat="44.43659146087231" lon="8.951176016479957"><ele>238.0</ele><time>2026-05-01T08:08:42Z</time></trkpt><trkpt lat="44.436480640392624" lon="8.951507079371384"><ele>239.5</ele><time>2026-05-01T08:08:43.061Z</time></trkpt><trkpt lat="44.436374806304464" lon="8.951818517271501"><ele>241.0</ele><time>2026-05-01T08:08:44.057Z</time></trkpt><trkpt lat="44.436265239063914" lon="8.952133411366209"><ele>231.5</ele><time>2026-05-01T08:08:45.059Z</time></trkpt><trkpt lat="44.43615566799313" lon="8.952447492310808"><ele>222.0</ele><time>2026-05-01T08:08:46.058Z</time></trkpt><trkpt lat="44.43480711954553" lon="8.95673779249997"><ele>154.5</ele><time>2026-05-01T08:09:00Z</time></trkpt><trkpt lat="44.4346914245732" lon="8.957045359217268"><ele>87.0</ele><time>2026-05-01T08:09:01Z</time></trkpt><trkpt lat="44.43458993242683" lon="8.957315685977095"><ele>70.0</ele><time>2026-05-01T08:09:02Z</time></trkpt><trkpt lat="44.43448044688799" lon="8.957596611613344"><ele>53.0</ele><time>2026-05-01T08:09:03Z</time></trkpt><trkpt lat="44.43428805439742" lon="8.957870946199833"><ele>53.0</ele><time>2026-05-01T08:09:04Z</time></trkpt><trkpt lat="44.434141371440816" lon="8.958123914934868"><ele>53.0</ele><time>2026-05-01T08:09:05Z</time></trkpt><trkpt lat="44.43399495637685" lon="8.958377401774792"><ele>48.5</ele><time>2026-05-01T08:09:06Z</time></trkpt><trkpt lat="44.433857965062444" lon="8.95862948334586"><ele>44.0</ele><time>2026-05-01T08:09:07Z</time></trkpt><trkpt lat="44.43371108323698" lon="8.958889767242443"><ele>44.0</ele><time>2026-05-01T08:09:08Z</time></trkpt><trkpt lat="44.43356382130991" lon="8.95915312562496"><ele>44.0</ele><time>2026-05-01T08:09:09Z</time></trkpt><trkpt lat="44.4334141217665" lon="8.959414267794624"><ele>39.5</ele><time>2026-05-01T08:09:10Z</time></trkpt><trkpt lat="44.43326836147133" lon="8.959677364900159"><ele>35.0</ele><time>2026-05-01T08:09:11Z</time></trkpt><trkpt lat="44.43312114349662" lon="8.959941114534034"><ele>34.0</ele><time>2026-05-01T08:09:12Z</time></trkpt><trkpt lat="44.43297642768668" lon="8.960209233984157"><ele>33.0</ele><time>2026-05-01T08:09:13Z</time></trkpt><trkpt lat="44.43283128901197" lon="8.960477947194006"><ele>33.0</ele><time>2026-05-01T08:09:14Z</time></trkpt><trkpt lat="44.43267821201905" lon="8.960744474864224"><ele>33.0</ele><time>2026-05-01T08:09:15Z</time></trkpt><trkpt lat="44.43253141015842" lon="8.961012245687037"><ele>38.5</ele><time>2026-05-01T08:09:16Z</time></trkpt><trkpt lat="44.43238461555941" lon="8.961282690387229"><ele>44.0</ele><time>2026-05-01T08:09:17Z</time></trkpt><trkpt lat="44.432238787045264" lon="8.961549296511766"><ele>65.5</ele><time>2026-05-01T08:09:18Z</time></trkpt><trkpt lat="44.43209071281171" lon="8.961817603729065"><ele>87.0</ele><time>2026-05-01T08:09:19Z</time></trkpt><trkpt lat="44.43193634821637" lon="8.962084636680304"><ele>87.0</ele><time>2026-05-01T08:09:20Z</time></trkpt><trkpt lat="44.43178585190284" lon="8.96235124931217"><ele>87.0</ele><time>2026-05-01T08:09:21Z</time></trkpt><trkpt lat="44.431631924924766" lon="8.962619873293368"><ele>96.0</ele><time>2026-05-01T08:09:22Z</time></trkpt><trkpt lat="44.43147867938441" lon="8.962882284311297"><ele>105.0</ele><time>2026-05-01T08:09:23Z</time></trkpt><trkpt lat="44.43132477580489" lon="8.96313690600588"><ele>132.0</ele><time>2026-05-01T08:09:24Z</time></trkpt><trkpt lat="44.43116740518985" lon="8.963381568246565"><ele>159.0</ele><time>2026-05-01T08:09:25Z</time></trkpt><trkpt lat="44.430995911554746" lon="8.96360482962618"><ele>159.0</ele><time>2026-05-01T08:09:26Z</time></trkpt><trkpt lat="44.43081122805097" lon="8.963828097050206"><ele>159.0</ele><time>2026-05-01T08:09:27Z</time></trkpt><trkpt lat="44.43066200207303" lon="8.964113210530199"><ele>169.5</ele><time>2026-05-01T08:09:28Z</time></trkpt><trkpt lat="44.43051168389395" lon="8.964381074579153"><ele>180.0</ele><time>2026-05-01T08:09:29Z</time></trkpt><trkpt lat="44.43036019819269" lon="8.964651019137765"><ele>191.5</ele><time>2026-05-01T08:09:30Z</time></trkpt><trkpt lat="44.4302092607683" lon="8.964919119764987"><ele>203.0</ele><time>2026-05-01T08:09:31Z</time></trkpt><trkpt lat="44.43004814174821" lon="8.965204368027576"><ele>210.0</ele><time>2026-05-01T08:09:32.069Z</time></trkpt><trkpt lat="44.42989925036391" lon="8.965467968143999"><ele>217.0</ele><time>2026-05-01T08:09:33.061Z</time></trkpt><trkpt lat="44.428701589868254" lon="8.967747714223432"><ele>98.0</ele><time>2026-05-01T08:09:36.144Z</time></trkpt><trkpt lat="44.42313243839696" lon="8.976401890527884"><ele>101.0</ele><time>2026-05-01T08:10:16.999Z</time></trkpt><trkpt lat="44.42289857704723" lon="8.976676363509142"><ele>104.0</ele><time>2026-05-01T08:10:17.999Z</time></trkpt><trkpt lat="44.42273041325745" lon="8.976929859864427"><ele>109.5</ele><time>2026-05-01T08:10:18.999Z</time></trkpt><trkpt lat="44.42254962514429" lon="8.977159565407936"><ele>115.0</ele><time>2026-05-01T08:10:19.999Z</time></trkpt><trkpt lat="44.42237088844111" lon="8.977414749417045"><ele>125.0</ele><time>2026-05-01T08:10:20.999Z</time></trkpt><trkpt lat="44.42219415103166" lon="8.977635794518319"><ele>135.0</ele><time>2026-05-01T08:10:22Z</time></trkpt><trkpt lat="44.42201104327889" lon="8.97785876251817"><ele>140.5</ele><time>2026-05-01T08:10:23Z</time></trkpt><trkpt lat="44.42182768226519" lon="8.978074540835111"><ele>146.0</ele><time>2026-05-01T08:10:24Z</time></trkpt><trkpt lat="44.4216413232587" lon="8.978286647751563"><ele>163.0</ele><time>2026-05-01T08:10:25Z</time></trkpt><trkpt lat="44.42144727568682" lon="8.978483448865822"><ele>180.0</ele><time>2026-05-01T08:10:26Z</time></trkpt><trkpt lat="44.4212490354406" lon="8.978680244762996"><ele>181.5</ele><time>2026-05-01T08:10:27Z</time></trkpt><trkpt lat="44.42106261901057" lon="8.978893094914834"><ele>183.0</ele><time>2026-05-01T08:10:28Z</time></trkpt><trkpt lat="44.42089246993659" lon="8.979128545254586"><ele>195.0</ele><time>2026-05-01T08:10:29Z</time></trkpt><trkpt lat="44.42072209210408" lon="8.979364046136222"><ele>207.0</ele><time>2026-05-01T08:10:30Z</time></trkpt><trkpt lat="44.42053944321335" lon="8.979614437191302"><ele>199.5</ele><time>2026-05-01T08:10:31.064Z</time></trkpt><trkpt lat="44.42037059175254" lon="8.979845896803884"><ele>192.0</ele><time>2026-05-01T08:10:32.054Z</time></trkpt><trkpt lat="44.418972946741185" lon="8.981905367059332"><ele>264.0</ele><time>2026-05-01T08:10:35.141Z</time></trkpt><trkpt lat="44.41826661000128" lon="8.982877851951631"><ele>279.0</ele><time>2026-05-01T08:10:36.143Z</time></trkpt><trkpt lat="44.417561731831796" lon="8.983847606055429"><ele>267.0</ele><time>2026-05-01T08:10:37.143Z</time></trkpt><trkpt lat="44.41685662112873" lon="8.984816989893792"><ele>220.0</ele><time>2026-05-01T08:10:38.143Z</time></trkpt><trkpt lat="44.41614772849217" lon="8.985780072290753"><ele>193.0</ele><time>2026-05-01T08:10:39.143Z</time></trkpt><trkpt lat="44.4154212953313" lon="8.986721436658726"><ele>217.0</ele><time>2026-05-01T08:10:40.144Z</time></trkpt><trkpt lat="44.41467650886527" lon="8.987629991478563"><ele>178.0</ele><time>2026-05-01T08:10:41.144Z</time></trkpt><trkpt lat="44.41392635216018" lon="8.98852382894037"><ele>111.0</ele><time>2026-05-01T08:10:42.14Z</time></trkpt><trkpt lat="44.41334722279961" lon="8.990795187056229"><ele>86.0</ele><time>2026-05-01T08:11:15Z</time></trkpt><trkpt lat="44.412672232104505" lon="8.990104748388848"><ele>86.0</ele><time>2026-05-01T08:11:16Z</time></trkpt><trkpt lat="44.412520096294564" lon="8.99033732558833"><ele>86.0</ele><time>2026-05-01T08:11:17Z</time></trkpt><trkpt lat="44.412354699256234" lon="8.990538167079572"><ele>86.0</ele><time>2026-05-01T08:11:18Z</time></trkpt><trkpt lat="44.412176045477146" lon="8.990752646177432"><ele>68.5</ele><time>2026-05-01T08:11:19Z</time></trkpt><trkpt lat="44.412005812507466" lon="8.990970094267926"><ele>51.0</ele><time>2026-05-01T08:11:20Z</time></trkpt><trkpt lat="44.41182556700569" lon="8.99118805635468"><ele>51.0</ele><time>2026-05-01T08:11:21Z</time></trkpt><trkpt lat="44.411645625683995" lon="8.99141271990109"><ele>51.0</ele><time>2026-05-01T08:11:22Z</time></trkpt><trkpt lat="44.41146455013544" lon="8.991631127740817"><ele>78.0</ele><time>2026-05-01T08:11:23Z</time></trkpt><trkpt lat="44.41127720394558" lon="8.991854526677548"><ele>105.0</ele><time>2026-05-01T08:11:24Z</time></trkpt><trkpt lat="44.411094158205046" lon="8.992067954386021"><ele>105.0</ele><time>2026-05-01T08:11:25Z</time></trkpt><trkpt lat="44.41090981927656" lon="8.99228234183015"><ele>105.0</ele><time>2026-05-01T08:11:26Z</time></trkpt><trkpt lat="44.41072634322875" lon="8.992491758004716"><ele>114.0</ele><time>2026-05-01T08:11:27Z</time></trkpt><trkpt lat="44.410533642226014" lon="8.992689816588596"><ele>123.0</ele><time>2026-05-01T08:11:28Z</time></trkpt><trkpt lat="44.41033455363083" lon="8.992885145142026"><ele>140.0</ele><time>2026-05-01T08:11:29Z</time></trkpt><trkpt lat="44.410156243125684" lon="8.993124178157686"><ele>157.0</ele><time>2026-05-01T08:11:30Z</time></trkpt><trkpt lat="44.409983494261404" lon="8.993353751613023"><ele>165.5</ele><time>2026-05-01T08:11:31Z</time></trkpt><trkpt lat="44.409816125134085" lon="8.993585073052147"><ele>174.0</ele><time>2026-05-01T08:11:32Z</time></trkpt><trkpt lat="44.409628064484124" lon="8.993783610732098"><ele>184.0</ele><time>2026-05-01T08:11:33Z</time></trkpt><trkpt lat="44.40944991191144" lon="8.993994818991645"><ele>194.0</ele><time>2026-05-01T08:11:34Z</time></trkpt><trkpt lat="44.409261736315436" lon="8.994219281703737"><ele>205.5</ele><time>2026-05-01T08:11:35.059Z</time></trkpt><trkpt lat="44.409085213773416" lon="8.994430363082571"><ele>217.0</ele><time>2026-05-01T08:11:36.059Z</time></trkpt><trkpt lat="44.40890869284964" lon="8.994639048407128"><ele>223.5</ele><time>2026-05-01T08:11:37.057Z</time></trkpt><trkpt lat="44.40873081244481" lon="8.994851669677274"><ele>230.0</ele><time>2026-05-01T08:11:38.052Z</time></trkpt><trkpt lat="44.40855572779608" lon="8.995061040335724"><ele>231.5</ele><time>2026-05-01T08:11:39.054Z</time></trkpt><trkpt lat="44.408380399464676" lon="8.995267367408864"><ele>233.0</ele><time>2026-05-01T08:11:40.037Z</time></trkpt><trkpt lat="44.40679588844858" lon="8.997037384745864"><ele>208.0</ele><time>2026-05-01T08:11:43.14Z</time></trkpt><trkpt lat="44.40604447759524" lon="8.997938145810656"><ele>174.0</ele><time>2026-05-01T08:11:44.141Z</time></trkpt><trkpt lat="44.405290786422235" lon="8.998836806004899"><ele>165.0</ele><time>2026-05-01T08:11:45.142Z</time></trkpt><trkpt lat="44.404540723277954" lon="8.999734842634288"><ele>155.0</ele><time>2026-05-01T08:11:46.141Z</time></trkpt><trkpt lat="44.40378760684072" lon="9.000633156176447"><ele>150.0</ele><time>2026-05-01T08:11:47.142Z</time></trkpt><trkpt lat="44.40301292836695" lon="9.001525964781212"><ele>131.0</ele><time>2026-05-01T08:12:09.999Z</time></trkpt><trkpt lat="44.40280015569448" lon="9.001738771964794"><ele>112.0</ele><time>2026-05-01T08:12:10.999Z</time></trkpt><trkpt lat="44.40264938636513" lon="9.001904533654466"><ele>112.0</ele><time>2026-05-01T08:12:11.999Z</time></trkpt><trkpt lat="44.40246334539825" lon="9.00207770027564"><ele>112.0</ele><time>2026-05-01T08:12:12.999Z</time></trkpt><trkpt lat="44.40229720163061" lon="9.002267840253971"><ele>112.0</ele><time>2026-05-01T08:12:13.999Z</time></trkpt><trkpt lat="44.40212279679624" lon="9.002446535031066"><ele>115.66666666666667</ele><time>2026-05-01T08:12:14.999Z</time></trkpt><trkpt lat="44.40194676614228" lon="9.002623037258608"><ele>119.33333333333334</ele><time>2026-05-01T08:12:15.999Z</time></trkpt><trkpt lat="44.40177410605574" lon="9.00279838117429"><ele>123.0</ele><time>2026-05-01T08:12:16.999Z</time></trkpt><trkpt lat="44.40160076160887" lon="9.00297400775405"><ele>123.0</ele><time>2026-05-01T08:12:17.999Z</time></trkpt><trkpt lat="44.4014254408445" lon="9.00315067941721"><ele>123.0</ele><time>2026-05-01T08:12:18.999Z</time></trkpt><trkpt lat="44.401249467273836" lon="9.003325936421886"><ele>123.0</ele><time>2026-05-01T08:12:19.999Z</time></trkpt><trkpt lat="44.40107183852139" lon="9.003510148623041"><ele>136.66666666666666</ele><time>2026-05-01T08:12:20.999Z</time></trkpt><trkpt lat="44.400893231186224" lon="9.003702986313776"><ele>150.33333333333331</ele><time>2026-05-01T08:12:21.999Z</time></trkpt><trkpt lat="44.40071928035585" lon="9.003897425553566"><ele>164.0</ele><time>2026-05-01T08:12:22.999Z</time></trkpt><trkpt lat="44.4005422538897" lon="9.004101771425194"><ele>177.0</ele><time>2026-05-01T08:12:23.999Z</time></trkpt><trkpt lat="44.400349519788534" lon="9.004334473277122"><ele>190.0</ele><time>2026-05-01T08:12:25.068Z</time></trkpt><trkpt lat="44.40014453953876" lon="9.004511956825102"><ele>190.0</ele><time>2026-05-01T08:12:26.063Z</time></trkpt><trkpt lat="44.39994085472188" lon="9.004712885987958"><ele>190.0</ele><time>2026-05-01T08:12:27.065Z</time></trkpt><trkpt lat="44.399737655893865" lon="9.004913335717756"><ele>167.5</ele><time>2026-05-01T08:12:28.065Z</time></trkpt><trkpt lat="44.39953607438241" lon="9.00511317405689"><ele>145.0</ele><time>2026-05-01T08:12:29.061Z</time></trkpt><trkpt lat="44.39933799091218" lon="9.005314976188618"><ele>145.0</ele><time>2026-05-01T08:12:30.059Z</time></trkpt><trkpt lat="44.39897563915565" lon="9.005636585293894"><ele>145.0</ele><time>2026-05-01T08:12:30.999Z</time></trkpt><trkpt lat="44.39871236571624" lon="9.005875933960265"><ele>121.5</ele><time>2026-05-01T08:12:31.999Z</time></trkpt><trkpt lat="44.3984905079752" lon="9.006090717991137"><ele>98.0</ele><time>2026-05-01T08:12:32.999Z</time></trkpt><trkpt lat="44.398264361120454" lon="9.00630885775833"><ele>98.0</ele><time>2026-05-01T08:12:34Z</time></trkpt><trkpt lat="44.39804700105728" lon="9.006524238754599"><ele>98.0</ele><time>2026-05-01T08:12:35Z</time></trkpt><trkpt lat="44.39783159050942" lon="9.00673912812719"><ele>95.5</ele><time>2026-05-01T08:12:36Z</time></trkpt><trkpt lat="44.397617715168714" lon="9.00694791824168"><ele>93.0</ele><time>2026-05-01T08:12:37Z</time></trkpt><trkpt lat="44.397407845804345" lon="9.007154261690559"><ele>93.0</ele><time>2026-05-01T08:12:38Z</time></trkpt><trkpt lat="44.39720686636988" lon="9.007356681825378"><ele>93.0</ele><time>2026-05-01T08:12:39Z</time></trkpt><trkpt lat="44.39701199367961" lon="9.007550183988815"><ele>110.0</ele><time>2026-05-01T08:12:40Z</time></trkpt><trkpt lat="44.39682683899531" lon="9.007742724166189"><ele>127.0</ele><time>2026-05-01T08:12:41Z</time></trkpt><trkpt lat="44.39664838194932" lon="9.007943877889161"><ele>127.0</ele><time>2026-05-01T08:12:42Z</time></trkpt><trkpt lat="44.39647609428155" lon="9.008151903394067"><ele>127.0</ele><time>2026-05-01T08:12:43Z</time></trkpt><trkpt lat="44.39631646445474" lon="9.008380374197763"><ele>128.5</ele><time>2026-05-01T08:12:44Z</time></trkpt><trkpt lat="44.396168620888716" lon="9.0086257255215"><ele>130.0</ele><time>2026-05-01T08:12:45Z</time></trkpt><trkpt lat="44.39602426182872" lon="9.008889831683321"><ele>130.0</ele><time>2026-05-01T08:12:46Z</time></trkpt><trkpt lat="44.39589241244159" lon="9.009155599973973"><ele>130.0</ele><time>2026-05-01T08:12:47Z</time></trkpt><trkpt lat="44.39577833935349" lon="9.009427109422491"><ele>132.0</ele><time>2026-05-01T08:12:48Z</time></trkpt><trkpt lat="44.395683255684695" lon="9.009706036974512"><ele>134.0</ele><time>2026-05-01T08:12:49Z</time></trkpt><trkpt lat="44.39561184436312" lon="9.009956032496058"><ele>136.0</ele><time>2026-05-01T08:12:50Z</time></trkpt><trkpt lat="44.39556452231691" lon="9.010133303082963"><ele>138.0</ele><time>2026-05-01T08:12:51Z</time></trkpt><trkpt lat="44.3955317457855" lon="9.010279961708235"><ele>140.0</ele><time>2026-05-01T08:12:52Z</time></trkpt><trkpt lat="44.395511611948436" lon="9.010393910221266"><ele>142.0</ele><time>2026-05-01T08:12:53Z</time></trkpt><trkpt lat="44.39549677412276" lon="9.010495022020002"><ele>144.0</ele><time>2026-05-01T08:12:54Z</time></trkpt><trkpt lat="44.39547157553891" lon="9.010645143949352"><ele>146.0</ele><time>2026-05-01T08:12:56Z</time></trkpt><trkpt lat="44.39545728169556" lon="9.010757397775205"><ele>141.33333333333331</ele><time>2026-05-01T08:12:58Z</time></trkpt><trkpt lat="44.39544099628971" lon="9.010885074654638"><ele>136.66666666666666</ele><time>2026-05-01T08:13:00Z</time></trkpt><trkpt lat="44.39542981322935" lon="9.010980754097027"><ele>132.0</ele><time>2026-05-01T08:13:01Z</time></trkpt><trkpt lat="44.39541701781685" lon="9.011084329877237"><ele>127.33333333333334</ele><time>2026-05-01T08:13:02Z</time></trkpt><trkpt lat="44.39540662696566" lon="9.011192464670009"><ele>122.66666666666667</ele><time>2026-05-01T08:13:03Z</time></trkpt><trkpt lat="44.39539977380049" lon="9.01130007007864"><ele>118.0</ele><time>2026-05-01T08:13:04Z</time></trkpt><trkpt lat="44.39539436747634" lon="9.011399468650204"><ele>118.00000000000001</ele><time>2026-05-01T08:13:05Z</time></trkpt><trkpt lat="44.395390314415664" lon="9.01149654537541"><ele>118.0</ele><time>2026-05-01T08:13:06Z</time></trkpt><trkpt lat="44.39538570921146" lon="9.011585502161271"><ele>118.0</ele><time>2026-05-01T08:13:07Z</time></trkpt><trkpt lat="44.395377475170676" lon="9.011743403585335"><ele>118.0</ele><time>2026-05-01T08:13:09Z</time></trkpt><trkpt lat="44.39537032130096" lon="9.011896772415623"><ele>118.00000000000001</ele><time>2026-05-01T08:13:11Z</time></trkpt><trkpt lat="44.39536601874949" lon="9.011989934750916"><ele>118.0</ele><time>2026-05-01T08:13:12Z</time></trkpt><trkpt lat="44.395363053866504" lon="9.012083523956788"><ele>116.33333333333334</ele><time>2026-05-01T08:13:13Z</time></trkpt><trkpt lat="44.39535774316313" lon="9.012183396216912"><ele>114.66666666666667</ele><time>2026-05-01T08:13:14Z</time></trkpt><trkpt lat="44.39535025773359" lon="9.012288131113117"><ele>113.0</ele><time>2026-05-01T08:13:15Z</time></trkpt><trkpt lat="44.395343921865475" lon="9.012394601311646"><ele>111.33333333333334</ele><time>2026-05-01T08:13:16Z</time></trkpt><trkpt lat="44.395338805953735" lon="9.012506625436611"><ele>109.66666666666667</ele><time>2026-05-01T08:13:17Z</time></trkpt><trkpt lat="44.395333657804635" lon="9.012626395276008"><ele>108.0</ele><time>2026-05-01T08:13:18Z</time></trkpt><trkpt lat="44.39532673891038" lon="9.01275060232041"><ele>104.80000000000001</ele><time>2026-05-01T08:13:19Z</time></trkpt><trkpt lat="44.39531899004194" lon="9.012877922514846"><ele>101.60000000000001</ele><time>2026-05-01T08:13:20Z</time></trkpt><trkpt lat="44.395312410174284" lon="9.013013774857253"><ele>98.4</ele><time>2026-05-01T08:13:21Z</time></trkpt><trkpt lat="44.39530450595099" lon="9.013165808530037"><ele>95.19999999999999</ele><time>2026-05-01T08:13:22Z</time></trkpt><trkpt lat="44.395298057060415" lon="9.01333037029208"><ele>92.0</ele><time>2026-05-01T08:13:23Z</time></trkpt><trkpt lat="44.39528875194106" lon="9.013506889397668"><ele>91.75</ele><time>2026-05-01T08:13:24Z</time></trkpt><trkpt lat="44.39527975640119" lon="9.013686043316248"><ele>91.5</ele><time>2026-05-01T08:13:25Z</time></trkpt><trkpt lat="44.39526973321001" lon="9.01387944559473"><ele>91.25</ele><time>2026-05-01T08:13:26Z</time></trkpt><trkpt lat="44.39525905789184" lon="9.014082850063135"><ele>91.0</ele><time>2026-05-01T08:13:27Z</time></trkpt><trkpt lat="44.395246588096924" lon="9.014289977129467"><ele>102.0</ele><time>2026-05-01T08:13:28Z</time></trkpt><trkpt lat="44.39523273906108" lon="9.014511336621254"><ele>113.0</ele><time>2026-05-01T08:13:29Z</time></trkpt><trkpt lat="44.3952158342785" lon="9.014737153919668"><ele>124.0</ele><time>2026-05-01T08:13:30Z</time></trkpt><trkpt lat="44.395195417631456" lon="9.014967307840312"><ele>134.66666666666669</ele><time>2026-05-01T08:13:31Z</time></trkpt><trkpt lat="44.39517563708011" lon="9.015196849113108"><ele>145.33333333333334</ele><time>2026-05-01T08:13:32Z</time></trkpt><trkpt lat="44.39515441793155" lon="9.015424426724051"><ele>156.0</ele><time>2026-05-01T08:13:33Z</time></trkpt><trkpt lat="44.395133684368304" lon="9.01565504419283"><ele>165.66666666666666</ele><time>2026-05-01T08:13:34Z</time></trkpt><trkpt lat="44.39511244908023" lon="9.015894056038189"><ele>175.33333333333331</ele><time>2026-05-01T08:13:35Z</time></trkpt><trkpt lat="44.395090084919104" lon="9.016140034638392"><ele>185.0</ele><time>2026-05-01T08:13:36Z</time></trkpt><trkpt lat="44.3950656752824" lon="9.016386375428114"><ele>185.0</ele><time>2026-05-01T08:13:37Z</time></trkpt><trkpt lat="44.39503822495301" lon="9.016634234006762"><ele>185.0</ele><time>2026-05-01T08:13:38Z</time></trkpt><trkpt lat="44.395006688414114" lon="9.01689845694838"><ele>185.0</ele><time>2026-05-01T08:13:39.067Z</time></trkpt><trkpt lat="44.39497463576353" lon="9.017149605963194"><ele>196.66666666666666</ele><time>2026-05-01T08:13:40.061Z</time></trkpt><trkpt lat="44.39493946667698" lon="9.01741018390806"><ele>208.33333333333331</ele><time>2026-05-01T08:13:41.061Z</time></trkpt><trkpt lat="44.39490141401637" lon="9.01767573134001"><ele>220.0</ele><time>2026-05-01T08:13:42.063Z</time></trkpt><trkpt lat="44.394861829832536" lon="9.017939576077946"><ele>143.0</ele><time>2026-05-01T08:13:43.057Z</time></trkpt><trkpt lat="44.394580158302894" lon="9.019841694681622"><ele>140.0</ele><time>2026-05-01T08:13:50.999Z</time></trkpt><trkpt lat="44.39453463515855" lon="9.020080295711338"><ele>137.0</ele><time>2026-05-01T08:13:51.999Z</time></trkpt><trkpt lat="44.39445362804823" lon="9.020283219386576"><ele>134.0</ele><time>2026-05-01T08:13:52.999Z</time></trkpt><trkpt lat="44.39440843356624" lon="9.020502710070136"><ele>134.0</ele><time>2026-05-01T08:13:53.999Z</time></trkpt><trkpt lat="44.39437493627616" lon="9.02072286050608"><ele>134.0</ele><time>2026-05-01T08:13:54.999Z</time></trkpt><trkpt lat="44.394345453163645" lon="9.020938337401804"><ele>134.0</ele><time>2026-05-01T08:13:55.999Z</time></trkpt><trkpt lat="44.3943016838275" lon="9.021147145493478"><ele>137.33333333333331</ele><time>2026-05-01T08:13:56.999Z</time></trkpt><trkpt lat="44.39426310810867" lon="9.021367736359839"><ele>140.66666666666666</ele><time>2026-05-01T08:13:57.999Z</time></trkpt><trkpt lat="44.394226583565114" lon="9.021580850579342"><ele>144.0</ele><time>2026-05-01T08:13:58.999Z</time></trkpt><trkpt lat="44.39418793340408" lon="9.021793387866696"><ele>150.66666666666666</ele><time>2026-05-01T08:13:59.999Z</time></trkpt><trkpt lat="44.39414915694339" lon="9.02200783988543"><ele>157.33333333333331</ele><time>2026-05-01T08:14:00.999Z</time></trkpt><trkpt lat="44.39411045998133" lon="9.022222875109074"><ele>164.0</ele><time>2026-05-01T08:14:01.999Z</time></trkpt><trkpt lat="44.39407198357367" lon="9.022437032738846"><ele>173.33333333333331</ele><time>2026-05-01T08:14:02.999Z</time></trkpt><trkpt lat="44.39403411770448" lon="9.022649580674726"><ele>182.66666666666666</ele><time>2026-05-01T08:14:03.999Z</time></trkpt><trkpt lat="44.39399530747525" lon="9.022864130415837"><ele>192.0</ele><time>2026-05-01T08:14:04.999Z</time></trkpt><trkpt lat="44.3939556574154" lon="9.02308145199777"><ele>204.0</ele><time>2026-05-01T08:14:05.999Z</time></trkpt><trkpt lat="44.39391205914244" lon="9.023317320158093"><ele>216.0</ele><time>2026-05-01T08:14:07.057Z</time></trkpt><trkpt lat="44.39386926869329" lon="9.023544251172892"><ele>228.0</ele><time>2026-05-01T08:14:08.063Z</time></trkpt><trkpt lat="44.39382433787487" lon="9.023774375803553"><ele>240.66666666666669</ele><time>2026-05-01T08:14:09.058Z</time></trkpt><trkpt lat="44.3937780980886" lon="9.024007478600408"><ele>253.33333333333334</ele><time>2026-05-01T08:14:10.057Z</time></trkpt><trkpt lat="44.39373143773978" lon="9.024241519600984"><ele>266.0</ele><time>2026-05-01T08:14:11.053Z</time></trkpt><trkpt lat="44.392993940044995" lon="9.028321202098564"><ele>332.0</ele><time>2026-05-01T08:14:15.139Z</time></trkpt><trkpt lat="44.39275065983196" lon="9.02966041080772"><ele>241.0</ele><time>2026-05-01T08:14:16.14Z</time></trkpt><trkpt lat="44.39250820909535" lon="9.030998942583594"><ele>227.0</ele><time>2026-05-01T08:14:17.14Z</time></trkpt><trkpt lat="44.392293773373204" lon="9.032345298036558"><ele>154.0</ele><time>2026-05-01T08:14:18.139Z</time></trkpt><trkpt lat="44.392231891447594" lon="9.034250127554763"><ele>154.0</ele><time>2026-05-01T08:14:44.999Z</time></trkpt><trkpt lat="44.39218393508001" lon="9.034541841592606"><ele>154.0</ele><time>2026-05-01T08:14:45.999Z</time></trkpt><trkpt lat="44.39215889798586" lon="9.03482755081714"><ele>154.0</ele><time>2026-05-01T08:14:46.999Z</time></trkpt><trkpt lat="44.392185204804335" lon="9.035151872975739"><ele>153.5</ele><time>2026-05-01T08:14:47.999Z</time></trkpt><trkpt lat="44.39219720092382" lon="9.03547779264913"><ele>153.0</ele><time>2026-05-01T08:14:48.999Z</time></trkpt><trkpt lat="44.39222075734642" lon="9.03578391368844"><ele>161.0</ele><time>2026-05-01T08:14:49.999Z</time></trkpt><trkpt lat="44.392235962660806" lon="9.036078269414086"><ele>169.0</ele><time>2026-05-01T08:14:51Z</time></trkpt><trkpt lat="44.39225085674669" lon="9.036377569644674"><ele>177.0</ele><time>2026-05-01T08:14:52Z</time></trkpt><trkpt lat="44.39226698136077" lon="9.036684535138786"><ele>181.33333333333334</ele><time>2026-05-01T08:14:53Z</time></trkpt><trkpt lat="44.392284477858375" lon="9.03699303480604"><ele>185.66666666666669</ele><time>2026-05-01T08:14:54Z</time></trkpt><trkpt lat="44.39229997704128" lon="9.03730266639284"><ele>190.0</ele><time>2026-05-01T08:14:55Z</time></trkpt><trkpt lat="44.39231136055685" lon="9.037612172812388"><ele>190.0</ele><time>2026-05-01T08:14:56Z</time></trkpt><trkpt lat="44.3923211708247" lon="9.037923966775292"><ele>190.0</ele><time>2026-05-01T08:14:57Z</time></trkpt><trkpt lat="44.392339416419574" lon="9.038266442529475"><ele>179.0</ele><time>2026-05-01T08:14:58Z</time></trkpt><trkpt lat="44.39235476643975" lon="9.038587055744422"><ele>168.0</ele><time>2026-05-01T08:14:59Z</time></trkpt><trkpt lat="44.39236527010443" lon="9.038889574856675"><ele>157.0</ele><time>2026-05-01T08:15:00Z</time></trkpt><trkpt lat="44.392377941679115" lon="9.039185192889981"><ele>152.0</ele><time>2026-05-01T08:15:01Z</time></trkpt><trkpt lat="44.39239083434437" lon="9.039475096530474"><ele>147.0</ele><time>2026-05-01T08:15:02Z</time></trkpt><trkpt lat="44.392402083867864" lon="9.039759695442273"><ele>142.0</ele><time>2026-05-01T08:15:03Z</time></trkpt><trkpt lat="44.3924147918732" lon="9.040035515088904"><ele>134.66666666666669</ele><time>2026-05-01T08:15:04Z</time></trkpt><trkpt lat="44.392426371808995" lon="9.040297407101749"><ele>127.33333333333334</ele><time>2026-05-01T08:15:05Z</time></trkpt><trkpt lat="44.39243830881629" lon="9.040546375617438"><ele>120.0</ele><time>2026-05-01T08:15:06Z</time></trkpt><trkpt lat="44.39245105385073" lon="9.040790530294997"><ele>103.66666666666667</ele><time>2026-05-01T08:15:07Z</time></trkpt><trkpt lat="44.39246516463371" lon="9.041033279947197"><ele>87.33333333333334</ele><time>2026-05-01T08:15:08Z</time></trkpt><trkpt lat="44.39248108425027" lon="9.041272479564597"><ele>71.0</ele><time>2026-05-01T08:15:09Z</time></trkpt><trkpt lat="44.392493858907606" lon="9.041512529597433"><ele>67.0</ele><time>2026-05-01T08:15:10Z</time></trkpt><trkpt lat="44.39250636276809" lon="9.041751514977705"><ele>63.0</ele><time>2026-05-01T08:15:11Z</time></trkpt><trkpt lat="44.39251898726368" lon="9.041988416159839"><ele>59.0</ele><time>2026-05-01T08:15:12Z</time></trkpt><trkpt lat="44.39253137388344" lon="9.042214885274626"><ele>59.0</ele><time>2026-05-01T08:15:13Z</time></trkpt><trkpt lat="44.39254265342666" lon="9.04244237681833"><ele>59.0</ele><time>2026-05-01T08:15:14Z</time></trkpt><trkpt lat="44.39255488083674" lon="9.042673032635216"><ele>59.0</ele><time>2026-05-01T08:15:15Z</time></trkpt><trkpt lat="44.39256585771433" lon="9.042904308663122"><ele>61.333333333333336</ele><time>2026-05-01T08:15:16Z</time></trkpt><trkpt lat="44.39257793380454" lon="9.043136981117186"><ele>63.66666666666667</ele><time>2026-05-01T08:15:17Z</time></trkpt><trkpt lat="44.392587959823224" lon="9.043366065262768"><ele>66.0</ele><time>2026-05-01T08:15:18Z</time></trkpt><trkpt lat="44.39259838852322" lon="9.043583141918857"><ele>71.25</ele><time>2026-05-01T08:15:19Z</time></trkpt><trkpt lat="44.39260868661175" lon="9.043794342614143"><ele>76.5</ele><time>2026-05-01T08:15:20Z</time></trkpt><trkpt lat="44.39261925340733" lon="9.044006041548487"><ele>81.75</ele><time>2026-05-01T08:15:21Z</time></trkpt><trkpt lat="44.39263034608449" lon="9.044203326488665"><ele>87.0</ele><time>2026-05-01T08:15:22Z</time></trkpt><trkpt lat="44.39264080203055" lon="9.044384579355503"><ele>93.6</ele><time>2026-05-01T08:15:23Z</time></trkpt><trkpt lat="44.39264970273318" lon="9.044548328252667"><ele>100.19999999999999</ele><time>2026-05-01T08:15:24Z</time></trkpt><trkpt lat="44.39265578471628" lon="9.044695953925856"><ele>106.8</ele><time>2026-05-01T08:15:25Z</time></trkpt><trkpt lat="44.39265772056943" lon="9.044826499412903"><ele>113.4</ele><time>2026-05-01T08:15:26Z</time></trkpt><trkpt lat="44.392653913159144" lon="9.044944944629831"><ele>120.0</ele><time>2026-05-01T08:15:27Z</time></trkpt><trkpt lat="44.392643853970576" lon="9.045049822149227"><ele>124.83333333333333</ele><time>2026-05-01T08:15:28Z</time></trkpt><trkpt lat="44.39263101280131" lon="9.045141883504623"><ele>129.66666666666666</ele><time>2026-05-01T08:15:29Z</time></trkpt><trkpt lat="44.39261319845488" lon="9.045234365464534"><ele>134.5</ele><time>2026-05-01T08:15:30Z</time></trkpt><trkpt lat="44.392591408836125" lon="9.045325465960481"><ele>139.33333333333331</ele><time>2026-05-01T08:15:31Z</time></trkpt><trkpt lat="44.392564460037306" lon="9.04541728010389"><ele>144.16666666666666</ele><time>2026-05-01T08:15:32Z</time></trkpt><trkpt lat="44.39253593617875" lon="9.045555094374329"><ele>149.0</ele><time>2026-05-01T08:15:34Z</time></trkpt><trkpt lat="44.39256090504213" lon="9.045650287396956"><ele>149.0</ele><time>2026-05-01T08:15:37Z</time></trkpt><trkpt lat="44.39259579102263" lon="9.045731182899546"><ele>149.0</ele><time>2026-05-01T08:17:01Z</time></trkpt><trkpt lat="44.39253060894547" lon="9.045775519536178"><ele>149.0</ele><time>2026-05-01T08:17:05Z</time></trkpt><trkpt lat="44.39245331431736" lon="9.045823648627438"><ele>149.0</ele><time>2026-05-01T08:17:07Z</time></trkpt><trkpt lat="44.392417121283344" lon="9.04574564116418"><ele>149.0</ele><time>2026-05-01T08:17:09Z</time></trkpt><trkpt lat="44.39242746857522" lon="9.045926507979502"><ele>149.0</ele><time>2026-05-01T08:17:11Z</time></trkpt><trkpt lat="44.39247894068096" lon="9.045989681782133"><ele>150.0</ele><time>2026-05-01T08:17:16Z</time></trkpt><trkpt lat="44.39236732818422" lon="9.04583356082758"><ele>151.0</ele><time>2026-05-01T08:20:31.999Z</time></trkpt><trkpt lat="44.39241526438476" lon="9.045900613118391"><ele>152.0</ele><time>2026-05-01T08:21:03.998Z</time></trkpt><trkpt lat="44.39245801873471" lon="9.04599134124112"><ele>153.0</ele><time>2026-05-01T08:21:07.999Z</time></trkpt><trkpt lat="44.392567895933" lon="9.04607562322462"><ele>154.0</ele><time>2026-05-01T08:21:10.999Z</time></trkpt><trkpt lat="44.39261612348623" lon="9.046134872780248"><ele>154.0</ele><time>2026-05-01T08:21:12.999Z</time></trkpt><trkpt lat="44.392685598427676" lon="9.046233618353055"><ele>154.0</ele><time>2026-05-01T08:21:14.999Z</time></trkpt><trkpt lat="44.392696109992926" lon="9.046324005817096"><ele>154.0</ele><time>2026-05-01T08:21:15.999Z</time></trkpt><trkpt lat="44.39270330465586" lon="9.046529616768566"><ele>154.0</ele><time>2026-05-01T08:21:17.999Z</time></trkpt><trkpt lat="44.392707277289965" lon="9.046697191293077"><ele>154.0</ele><time>2026-05-01T08:21:18.999Z</time></trkpt><trkpt lat="44.39271425654082" lon="9.046924649093693"><ele>157.33333333333334</ele><time>2026-05-01T08:21:19.999Z</time></trkpt><trkpt lat="44.39270668229783" lon="9.047189261434632"><ele>160.66666666666666</ele><time>2026-05-01T08:21:20.999Z</time></trkpt><trkpt lat="44.392695711776284" lon="9.047501627104358"><ele>164.0</ele><time>2026-05-01T08:21:21.999Z</time></trkpt><trkpt lat="44.39267448757321" lon="9.047833084490739"><ele>170.66666666666666</ele><time>2026-05-01T08:21:22.999Z</time></trkpt><trkpt lat="44.39264985154379" lon="9.048138887249852"><ele>177.33333333333334</ele><time>2026-05-01T08:21:23.999Z</time></trkpt><trkpt lat="44.39262216716967" lon="9.048424617945134"><ele>184.0</ele><time>2026-05-01T08:21:24.999Z</time></trkpt><trkpt lat="44.3925951274436" lon="9.048692643318917"><ele>189.66666666666669</ele><time>2026-05-01T08:21:25.999Z</time></trkpt><trkpt lat="44.39256397829398" lon="9.048956846473057"><ele>195.33333333333334</ele><time>2026-05-01T08:21:27.055Z</time></trkpt><trkpt lat="44.392529507314535" lon="9.049197126995304"><ele>201.0</ele><time>2026-05-01T08:21:28.047Z</time></trkpt><trkpt lat="44.391679834792804" lon="9.053224466530807"><ele>351.0</ele><time>2026-05-01T08:21:32.134Z</time></trkpt><trkpt lat="44.39139155555833" lon="9.054546123821952"><ele>409.0</ele><time>2026-05-01T08:21:33.135Z</time></trkpt><trkpt lat="44.39110685372853" lon="9.05586146223523"><ele>430.0</ele><time>2026-05-01T08:21:34.13Z</time></trkpt><trkpt lat="44.390819427800345" lon="9.057189463719514"><ele>464.0</ele><time>2026-05-01T08:21:35.135Z</time></trkpt><trkpt lat="44.3905319661623" lon="9.058509491361844"><ele>457.0</ele><time>2026-05-01T08:21:36.134Z</time></trkpt><trkpt lat="44.39024393794665" lon="9.05983133324596"><ele>390.0</ele><time>2026-05-01T08:21:37.135Z</time></trkpt><trkpt lat="44.38995656888267" lon="9.06115145892854"><ele>307.0</ele><time>2026-05-01T08:21:38.134Z</time></trkpt><trkpt lat="44.38966882310285" lon="9.06247334237058"><ele>301.0</ele><time>2026-05-01T08:21:39.135Z</time></trkpt><trkpt lat="44.38938272076003" lon="9.06378812574789"><ele>280.0</ele><time>2026-05-01T08:21:40.13Z</time></trkpt><trkpt lat="44.38909577365821" lon="9.065115192384427"><ele>228.0</ele><time>2026-05-01T08:21:41.134Z</time></trkpt><trkpt lat="44.388815842653365" lon="9.066436213792572"><ele>167.0</ele><time>2026-05-01T08:21:42.132Z</time></trkpt><trkpt lat="44.388716665286616" lon="9.067755891045442"><ele>167.0</ele><time>2026-05-01T08:22:28.999Z</time></trkpt><trkpt lat="44.38870623635044" lon="9.068144354758722"><ele>167.0</ele><time>2026-05-01T08:22:29.999Z</time></trkpt><trkpt lat="44.388650821372835" lon="9.068551615578711"><ele>158.5</ele><time>2026-05-01T08:22:30.999Z</time></trkpt><trkpt lat="44.388648595739255" lon="9.068928359694691"><ele>150.0</ele><time>2026-05-01T08:22:31.999Z</time></trkpt><trkpt lat="44.388676360737726" lon="9.069301536009917"><ele>144.0</ele><time>2026-05-01T08:22:32.999Z</time></trkpt><trkpt lat="44.38870024403202" lon="9.069681218489373"><ele>138.0</ele><time>2026-05-01T08:22:33.999Z</time></trkpt><trkpt lat="44.388721811025086" lon="9.070059353405197"><ele>138.0</ele><time>2026-05-01T08:22:34.999Z</time></trkpt><trkpt lat="44.38874398847575" lon="9.070439199608856"><ele>138.0</ele><time>2026-05-01T08:22:35.999Z</time></trkpt><trkpt lat="44.3887704025733" lon="9.070809638815819"><ele>154.5</ele><time>2026-05-01T08:22:36.999Z</time></trkpt><trkpt lat="44.38877932497218" lon="9.07117912565721"><ele>171.0</ele><time>2026-05-01T08:22:37.999Z</time></trkpt><trkpt lat="44.38898729404083" lon="9.075443329229829"><ele>218.0</ele><time>2026-05-01T08:22:45.134Z</time></trkpt><trkpt lat="44.38905278266833" lon="9.076820711113344"><ele>184.0</ele><time>2026-05-01T08:22:46.134Z</time></trkpt><trkpt lat="44.38910680487683" lon="9.078066275442945"><ele>172.5</ele><time>2026-05-01T08:22:57.999Z</time></trkpt><trkpt lat="44.38911578464895" lon="9.078464822358585"><ele>161.0</ele><time>2026-05-01T08:22:58.998Z</time></trkpt><trkpt lat="44.389162431345724" lon="9.078802107934331"><ele>157.5</ele><time>2026-05-01T08:22:59.998Z</time></trkpt><trkpt lat="44.38916550777275" lon="9.079191099417146"><ele>154.0</ele><time>2026-05-01T08:23:00.998Z</time></trkpt><trkpt lat="44.38918454301039" lon="9.079564364633356"><ele>154.0</ele><time>2026-05-01T08:23:01.998Z</time></trkpt><trkpt lat="44.38920433517001" lon="9.079930988438013"><ele>154.0</ele><time>2026-05-01T08:23:02.998Z</time></trkpt><trkpt lat="44.38922633197054" lon="9.080302025490848"><ele>150.0</ele><time>2026-05-01T08:23:03.998Z</time></trkpt><trkpt lat="44.3892446874935" lon="9.080666690997772"><ele>146.0</ele><time>2026-05-01T08:23:04.998Z</time></trkpt><trkpt lat="44.38926311261957" lon="9.081017898358398"><ele>143.0</ele><time>2026-05-01T08:23:05.998Z</time></trkpt><trkpt lat="44.38928017220626" lon="9.08135349727288"><ele>140.0</ele><time>2026-05-01T08:23:06.998Z</time></trkpt><trkpt lat="44.38929407611129" lon="9.081667329436323"><ele>140.0</ele><time>2026-05-01T08:23:07.998Z</time></trkpt><trkpt lat="44.38930935305008" lon="9.081976839694374"><ele>140.0</ele><time>2026-05-01T08:23:08.998Z</time></trkpt><trkpt lat="44.38932060927223" lon="9.082296270909573"><ele>153.5</ele><time>2026-05-01T08:23:09.998Z</time></trkpt><trkpt lat="44.3893233452388" lon="9.082613723471777"><ele>167.0</ele><time>2026-05-01T08:23:10.998Z</time></trkpt><trkpt lat="44.38931303634538" lon="9.082936994462045"><ele>186.0</ele><time>2026-05-01T08:23:11.998Z</time></trkpt><trkpt lat="44.38928620693594" lon="9.083270423654263"><ele>205.0</ele><time>2026-05-01T08:23:12.998Z</time></trkpt><trkpt lat="44.389247763536126" lon="9.083614193149712"><ele>205.0</ele><time>2026-05-01T08:23:13.999Z</time></trkpt><trkpt lat="44.389206763141615" lon="9.083958673253154"><ele>205.0</ele><time>2026-05-01T08:23:14.999Z</time></trkpt><trkpt lat="44.38917067040199" lon="9.084295810635663"><ele>223.0</ele><time>2026-05-01T08:23:15.999Z</time></trkpt><trkpt lat="44.38912745699608" lon="9.084643819360215"><ele>241.0</ele><time>2026-05-01T08:23:16.999Z</time></trkpt><trkpt lat="44.389088950763984" lon="9.084997378933343"><ele>259.0</ele><time>2026-05-01T08:23:18.065Z</time></trkpt><trkpt lat="44.38904882462262" lon="9.085327657033048"><ele>277.0</ele><time>2026-05-01T08:23:19.058Z</time></trkpt><trkpt lat="44.38900122784102" lon="9.085671733794182"><ele>297.0</ele><time>2026-05-01T08:23:20.056Z</time></trkpt><trkpt lat="44.388949558884136" lon="9.086025794910304"><ele>317.0</ele><time>2026-05-01T08:23:21.056Z</time></trkpt><trkpt lat="44.38890197236571" lon="9.086371426879449"><ele>438.0</ele><time>2026-05-01T08:23:22.051Z</time></trkpt><trkpt lat="44.388360460480406" lon="9.088571725110324"><ele>445.0</ele><time>2026-05-01T08:23:25.134Z</time></trkpt><trkpt lat="44.388193834983156" lon="9.089284477791871"><ele>415.0</ele><time>2026-05-01T08:23:26.13Z</time></trkpt><trkpt lat="44.38802649515213" lon="9.09000052088271"><ele>408.0</ele><time>2026-05-01T08:23:27.13Z</time></trkpt><trkpt lat="44.38785842818362" lon="9.090719829444305"><ele>367.0</ele><time>2026-05-01T08:23:28.134Z</time></trkpt><trkpt lat="44.387691921939634" lon="9.091432458272696"><ele>330.0</ele><time>2026-05-01T08:23:29.13Z</time></trkpt><trkpt lat="44.38752521342884" lon="9.092150606778487"><ele>291.0</ele><time>2026-05-01T08:23:30.132Z</time></trkpt><trkpt lat="44.38735896565304" lon="9.092866816123806"><ele>255.0</ele><time>2026-05-01T08:23:31.132Z</time></trkpt><trkpt lat="44.38719232495937" lon="9.09358471819227"><ele>270.0</ele><time>2026-05-01T08:23:32.134Z</time></trkpt><trkpt lat="44.387025444933315" lon="9.094300207428665"><ele>271.0</ele><time>2026-05-01T08:23:33.133Z</time></trkpt><trkpt lat="44.38685902909338" lon="9.095013418171236"><ele>271.0</ele><time>2026-05-01T08:23:34.129Z</time></trkpt><trkpt lat="44.386691159240634" lon="9.09573283435919"><ele>263.0</ele><time>2026-05-01T08:23:35.134Z</time></trkpt><trkpt lat="44.38652398496583" lon="9.09644873911029"><ele>241.0</ele><time>2026-05-01T08:23:36.134Z</time></trkpt><trkpt lat="44.386357105252756" lon="9.097164638564625"><ele>204.0</ele><time>2026-05-01T08:23:37.134Z</time></trkpt><trkpt lat="44.38617415044232" lon="9.097872351234153"><ele>138.0</ele><time>2026-05-01T08:23:38.133Z</time></trkpt><trkpt lat="44.385678535544585" lon="9.099290432988337"><ele>138.0</ele><time>2026-05-01T08:24:02.999Z</time></trkpt><trkpt lat="44.385518625165055" lon="9.099564834437572"><ele>138.0</ele><time>2026-05-01T08:24:03.999Z</time></trkpt><trkpt lat="44.385377151387495" lon="9.099822825601569"><ele>152.0</ele><time>2026-05-01T08:24:04.999Z</time></trkpt><trkpt lat="44.38520378158633" lon="9.100066000552669"><ele>166.0</ele><time>2026-05-01T08:24:05.999Z</time></trkpt><trkpt lat="44.38502989098016" lon="9.100317129119718"><ele>166.0</ele><time>2026-05-01T08:24:06.999Z</time></trkpt><trkpt lat="44.384866208273955" lon="9.100557109497862"><ele>166.0</ele><time>2026-05-01T08:24:07.999Z</time></trkpt><trkpt lat="44.38471878192722" lon="9.100793706979804"><ele>169.0</ele><time>2026-05-01T08:24:08.999Z</time></trkpt><trkpt lat="44.38456283610921" lon="9.101033460901625"><ele>172.0</ele><time>2026-05-01T08:24:09.999Z</time></trkpt><trkpt lat="44.38441138438544" lon="9.10127574996035"><ele>172.0</ele><time>2026-05-01T08:24:10.999Z</time></trkpt><trkpt lat="44.384254637661726" lon="9.101523336000826"><ele>172.0</ele><time>2026-05-01T08:24:11.999Z</time></trkpt><trkpt lat="44.38409156373661" lon="9.10178386946002"><ele>175.5</ele><time>2026-05-01T08:24:12.999Z</time></trkpt><trkpt lat="44.383920837238485" lon="9.10203929457767"><ele>179.0</ele><time>2026-05-01T08:24:13.999Z</time></trkpt><trkpt lat="44.38374917424674" lon="9.102279904148656"><ele>167.5</ele><time>2026-05-01T08:24:14.999Z</time></trkpt><trkpt lat="44.38356472826976" lon="9.10250252175906"><ele>156.0</ele><time>2026-05-01T08:24:15.999Z</time></trkpt><trkpt lat="44.38337713670662" lon="9.10270908759919"><ele>156.0</ele><time>2026-05-01T08:24:16.999Z</time></trkpt><trkpt lat="44.3831836425888" lon="9.102906732903742"><ele>156.0</ele><time>2026-05-01T08:24:17.999Z</time></trkpt><trkpt lat="44.38298557832872" lon="9.103094036640238"><ele>152.0</ele><time>2026-05-01T08:24:18.999Z</time></trkpt><trkpt lat="44.38278015060017" lon="9.103266882607521"><ele>148.0</ele><time>2026-05-01T08:24:19.999Z</time></trkpt><trkpt lat="44.382575206968234" lon="9.103428091751736"><ele>148.0</ele><time>2026-05-01T08:24:20.999Z</time></trkpt><trkpt lat="44.38237187219868" lon="9.103580990046892"><ele>148.0</ele><time>2026-05-01T08:24:21.999Z</time></trkpt><trkpt lat="44.38217169940503" lon="9.103735824272515"><ele>143.66666666666669</ele><time>2026-05-01T08:24:22.999Z</time></trkpt><trkpt lat="44.381979867139734" lon="9.103892349456855"><ele>139.33333333333334</ele><time>2026-05-01T08:24:23.999Z</time></trkpt><trkpt lat="44.38178847261838" lon="9.104057059701763"><ele>135.0</ele><time>2026-05-01T08:24:24.999Z</time></trkpt><trkpt lat="44.38160901657566" lon="9.1042305593091"><ele>135.0</ele><time>2026-05-01T08:24:25.999Z</time></trkpt><trkpt lat="44.38143561471823" lon="9.104424336382715"><ele>135.0</ele><time>2026-05-01T08:24:26.999Z</time></trkpt><trkpt lat="44.38126619798512" lon="9.10464796859379"><ele>138.5</ele><time>2026-05-01T08:24:27.999Z</time></trkpt><trkpt lat="44.38110769537736" lon="9.104885801470573"><ele>142.0</ele><time>2026-05-01T08:24:28.999Z</time></trkpt><trkpt lat="44.380968147896155" lon="9.105121951346108"><ele>142.0</ele><time>2026-05-01T08:24:29.999Z</time></trkpt><trkpt lat="44.38084048612275" lon="9.105361587347659"><ele>142.0</ele><time>2026-05-01T08:24:30.999Z</time></trkpt><trkpt lat="44.38072229708691" lon="9.105611580297197"><ele>142.0</ele><time>2026-05-01T08:24:31.999Z</time></trkpt><trkpt lat="44.38061897530079" lon="9.105864258402734"><ele>136.33333333333334</ele><time>2026-05-01T08:24:32.999Z</time></trkpt><trkpt lat="44.38052495790204" lon="9.106117962223484"><ele>130.66666666666666</ele><time>2026-05-01T08:24:33.999Z</time></trkpt><trkpt lat="44.380447931408874" lon="9.106372689007879"><ele>125.0</ele><time>2026-05-01T08:24:34.999Z</time></trkpt><trkpt lat="44.380381853149395" lon="9.106627395390262"><ele>117.33333333333333</ele><time>2026-05-01T08:24:35.999Z</time></trkpt><trkpt lat="44.380325207586516" lon="9.106888475702116"><ele>109.66666666666666</ele><time>2026-05-01T08:24:36.999Z</time></trkpt><trkpt lat="44.38027872482275" lon="9.107157278475004"><ele>102.0</ele><time>2026-05-01T08:24:37.999Z</time></trkpt><trkpt lat="44.38023686427649" lon="9.10744899364124"><ele>91.66666666666667</ele><time>2026-05-01T08:24:38.999Z</time></trkpt><trkpt lat="44.380204138043595" lon="9.107749293865561"><ele>81.33333333333334</ele><time>2026-05-01T08:24:39.999Z</time></trkpt><trkpt lat="44.38017809480974" lon="9.10804583901358"><ele>71.0</ele><time>2026-05-01T08:24:40.999Z</time></trkpt><trkpt lat="44.3801587010129" lon="9.108343524082324"><ele>61.66666666666667</ele><time>2026-05-01T08:24:41.999Z</time></trkpt><trkpt lat="44.38013581152571" lon="9.108643794087486"><ele>52.333333333333336</ele><time>2026-05-01T08:24:42.999Z</time></trkpt><trkpt lat="44.380109163335085" lon="9.108948307437808"><ele>43.0</ele><time>2026-05-01T08:24:43.999Z</time></trkpt><trkpt lat="44.38007915161409" lon="9.109259478463088"><ele>40.0</ele><time>2026-05-01T08:24:44.999Z</time></trkpt><trkpt lat="44.38005318397648" lon="9.109577672905804"><ele>37.0</ele><time>2026-05-01T08:24:45.999Z</time></trkpt><trkpt lat="44.38002492076892" lon="9.109899691872606"><ele>49.0</ele><time>2026-05-01T08:24:46.999Z</time></trkpt><trkpt lat="44.379998394888226" lon="9.110220873106075"><ele>61.0</ele><time>2026-05-01T08:24:47.999Z</time></trkpt><trkpt lat="44.37997119723973" lon="9.110552465587523"><ele>78.5</ele><time>2026-05-01T08:24:48.999Z</time></trkpt><trkpt lat="44.37994356613205" lon="9.110885720963129"><ele>96.0</ele><time>2026-05-01T08:24:49.999Z</time></trkpt><trkpt lat="44.379912240913214" lon="9.111234338393192"><ele>110.0</ele><time>2026-05-01T08:24:50.998Z</time></trkpt><trkpt lat="44.37988367873037" lon="9.111579112018788"><ele>124.0</ele><time>2026-05-01T08:24:51.998Z</time></trkpt><trkpt lat="44.37985205203643" lon="9.111927845181311"><ele>124.0</ele><time>2026-05-01T08:24:52.998Z</time></trkpt><trkpt lat="44.379821884657325" lon="9.112293881507608"><ele>124.0</ele><time>2026-05-01T08:24:53.998Z</time></trkpt><trkpt lat="44.37978970818478" lon="9.112667511969832"><ele>124.0</ele><time>2026-05-01T08:24:54.998Z</time></trkpt><trkpt lat="44.3797580818228" lon="9.113034020440145"><ele>124.0</ele><time>2026-05-01T08:24:55.998Z</time></trkpt><trkpt lat="44.37973040416354" lon="9.113392031090932"><ele>121.5</ele><time>2026-05-01T08:24:56.998Z</time></trkpt><trkpt lat="44.37969914273511" lon="9.113741756762566"><ele>119.0</ele><time>2026-05-01T08:24:57.998Z</time></trkpt><trkpt lat="44.37966803693128" lon="9.114088049529013"><ele>140.5</ele><time>2026-05-01T08:24:58.998Z</time></trkpt><trkpt lat="44.37963905325309" lon="9.114426133841222"><ele>162.0</ele><time>2026-05-01T08:24:59.998Z</time></trkpt><trkpt lat="44.37961234980628" lon="9.114753120563215"><ele>164.0</ele><time>2026-05-01T08:25:00.998Z</time></trkpt><trkpt lat="44.3795863865181" lon="9.11507061869508"><ele>166.0</ele><time>2026-05-01T08:25:01.998Z</time></trkpt><trkpt lat="44.37955918805151" lon="9.115383063096766"><ele>166.0</ele><time>2026-05-01T08:25:02.998Z</time></trkpt><trkpt lat="44.379532820081096" lon="9.115689146720324"><ele>166.0</ele><time>2026-05-01T08:25:03.998Z</time></trkpt><trkpt lat="44.379506975480645" lon="9.115986081474215"><ele>166.0</ele><time>2026-05-01T08:25:04.998Z</time></trkpt><trkpt lat="44.37947936453461" lon="9.116271943771512"><ele>164.33333333333334</ele><time>2026-05-01T08:25:05.998Z</time></trkpt><trkpt lat="44.379448282960766" lon="9.116550628145019"><ele>162.66666666666666</ele><time>2026-05-01T08:25:06.998Z</time></trkpt><trkpt lat="44.379411241401286" lon="9.116821962848743"><ele>161.0</ele><time>2026-05-01T08:25:07.998Z</time></trkpt><trkpt lat="44.37937687247929" lon="9.117093816794018"><ele>161.0</ele><time>2026-05-01T08:25:08.998Z</time></trkpt><trkpt lat="44.379344342952784" lon="9.117375831995568"><ele>161.0</ele><time>2026-05-01T08:25:09.998Z</time></trkpt><trkpt lat="44.37931588614803" lon="9.117661744779983"><ele>161.0</ele><time>2026-05-01T08:25:10.998Z</time></trkpt><trkpt lat="44.37929183417932" lon="9.11794427836902"><ele>162.0</ele><time>2026-05-01T08:25:11.998Z</time></trkpt><trkpt lat="44.379265843750524" lon="9.118229428538074"><ele>163.0</ele><time>2026-05-01T08:25:12.998Z</time></trkpt><trkpt lat="44.379243189199656" lon="9.118504840116145"><ele>164.0</ele><time>2026-05-01T08:25:13.998Z</time></trkpt><trkpt lat="44.379220692426365" lon="9.118795081173154"><ele>138.0</ele><time>2026-05-01T08:25:15.065Z</time></trkpt><trkpt lat="44.37716445893853" lon="9.142629336257091"><ele>138.0</ele><time>2026-05-01T08:26:22.998Z</time></trkpt><trkpt lat="44.37713607886711" lon="9.142969800281081"><ele>138.0</ele><time>2026-05-01T08:26:23.998Z</time></trkpt><trkpt lat="44.37707485585062" lon="9.143316504722748"><ele>130.5</ele><time>2026-05-01T08:26:24.998Z</time></trkpt><trkpt lat="44.37705343593963" lon="9.143659561132841"><ele>123.0</ele><time>2026-05-01T08:26:25.998Z</time></trkpt><trkpt lat="44.377009615643026" lon="9.144004479587906"><ele>120.5</ele><time>2026-05-01T08:26:26.998Z</time></trkpt><trkpt lat="44.37696000681811" lon="9.144346059384516"><ele>118.0</ele><time>2026-05-01T08:26:27.997Z</time></trkpt><trkpt lat="44.37687975891763" lon="9.144673597249032"><ele>115.0</ele><time>2026-05-01T08:26:28.999Z</time></trkpt><trkpt lat="44.376786299290764" lon="9.144996411184763"><ele>112.0</ele><time>2026-05-01T08:26:29.999Z</time></trkpt><trkpt lat="44.37667625601669" lon="9.145328015632225"><ele>112.0</ele><time>2026-05-01T08:26:30.999Z</time></trkpt><trkpt lat="44.37654055660688" lon="9.145652695477278"><ele>112.0</ele><time>2026-05-01T08:26:31.999Z</time></trkpt><trkpt lat="44.37638667576686" lon="9.145965309809776"><ele>105.5</ele><time>2026-05-01T08:26:32.999Z</time></trkpt><trkpt lat="44.37621398516803" lon="9.146263945698111"><ele>99.0</ele><time>2026-05-01T08:26:33.999Z</time></trkpt><trkpt lat="44.37602511271457" lon="9.146560214508845"><ele>99.0</ele><time>2026-05-01T08:26:34.999Z</time></trkpt><trkpt lat="44.375835982343794" lon="9.146856923868052"><ele>99.0</ele><time>2026-05-01T08:26:35.999Z</time></trkpt><trkpt lat="44.375646215419174" lon="9.147156916516984"><ele>104.5</ele><time>2026-05-01T08:26:36.999Z</time></trkpt><trkpt lat="44.37546251286428" lon="9.147473438809559"><ele>110.0</ele><time>2026-05-01T08:26:38Z</time></trkpt><trkpt lat="44.37527986462502" lon="9.147810572568536"><ele>110.0</ele><time>2026-05-01T08:26:39Z</time></trkpt><trkpt lat="44.375111925993785" lon="9.148156892929693"><ele>110.0</ele><time>2026-05-01T08:26:40Z</time></trkpt><trkpt lat="44.374950310769975" lon="9.148505963189665"><ele>100.5</ele><time>2026-05-01T08:26:41Z</time></trkpt><trkpt lat="44.37479381396742" lon="9.148854671579883"><ele>91.0</ele><time>2026-05-01T08:26:42Z</time></trkpt><trkpt lat="44.37465125010783" lon="9.149214152348302"><ele>71.5</ele><time>2026-05-01T08:26:43Z</time></trkpt><trkpt lat="44.37450530825107" lon="9.149566771952186"><ele>52.0</ele><time>2026-05-01T08:26:44Z</time></trkpt><trkpt lat="44.374357872845714" lon="9.149915165488705"><ele>42.0</ele><time>2026-05-01T08:26:45Z</time></trkpt><trkpt lat="44.37420732644984" lon="9.15024930230937"><ele>32.0</ele><time>2026-05-01T08:26:46Z</time></trkpt><trkpt lat="44.374045858097766" lon="9.150569272059506"><ele>28.5</ele><time>2026-05-01T08:26:47Z</time></trkpt><trkpt lat="44.373877748678176" lon="9.150881792194232"><ele>25.0</ele><time>2026-05-01T08:26:48Z</time></trkpt><trkpt lat="44.37369099112193" lon="9.151178075961043"><ele>25.0</ele><time>2026-05-01T08:26:49Z</time></trkpt><trkpt lat="44.373497139425425" lon="9.151460529732223"><ele>25.0</ele><time>2026-05-01T08:26:50Z</time></trkpt><trkpt lat="44.37329779497321" lon="9.15172586119637"><ele>27.0</ele><time>2026-05-01T08:26:51Z</time></trkpt><trkpt lat="44.373095547110076" lon="9.151969506775659"><ele>29.0</ele><time>2026-05-01T08:26:52Z</time></trkpt><trkpt lat="44.372902363523835" lon="9.152190208695155"><ele>43.5</ele><time>2026-05-01T08:26:53Z</time></trkpt><trkpt lat="44.372711786544656" lon="9.152390914815966"><ele>58.0</ele><time>2026-05-01T08:26:54Z</time></trkpt><trkpt lat="44.372526620232414" lon="9.152561047921234"><ele>58.0</ele><time>2026-05-01T08:26:55Z</time></trkpt><trkpt lat="44.3723395426199" lon="9.152733858832734"><ele>58.0</ele><time>2026-05-01T08:26:56Z</time></trkpt><trkpt lat="44.37213872531048" lon="9.152919104993849"><ele>52.5</ele><time>2026-05-01T08:26:57Z</time></trkpt><trkpt lat="44.37191671180538" lon="9.15310346437223"><ele>47.0</ele><time>2026-05-01T08:26:58Z</time></trkpt><trkpt lat="44.37167722306266" lon="9.153257353553562"><ele>63.5</ele><time>2026-05-01T08:26:59Z</time></trkpt><trkpt lat="44.37144184860153" lon="9.153409049902532"><ele>80.0</ele><time>2026-05-01T08:27:00Z</time></trkpt><trkpt lat="44.37122010153399" lon="9.15357093651865"><ele>80.0</ele><time>2026-05-01T08:27:01Z</time></trkpt><trkpt lat="44.371010667677915" lon="9.153749223333083"><ele>80.0</ele><time>2026-05-01T08:27:02Z</time></trkpt><trkpt lat="44.370804227166495" lon="9.153940351232672"><ele>87.0</ele><time>2026-05-01T08:27:03Z</time></trkpt><trkpt lat="44.3706016271363" lon="9.15415215979186"><ele>94.0</ele><time>2026-05-01T08:27:04Z</time></trkpt><trkpt lat="44.370411404456156" lon="9.154383061843381"><ele>94.0</ele><time>2026-05-01T08:27:05Z</time></trkpt><trkpt lat="44.37023102085236" lon="9.154635307483996"><ele>94.0</ele><time>2026-05-01T08:27:06Z</time></trkpt><trkpt lat="44.37006267338582" lon="9.1549055124589"><ele>100.5</ele><time>2026-05-01T08:27:07Z</time></trkpt><trkpt lat="44.36991557720654" lon="9.155202302713642"><ele>107.0</ele><time>2026-05-01T08:27:08Z</time></trkpt><trkpt lat="44.36978535526697" lon="9.15551340114278"><ele>91.0</ele><time>2026-05-01T08:27:09Z</time></trkpt><trkpt lat="44.36967157042516" lon="9.155831297205188"><ele>75.0</ele><time>2026-05-01T08:27:10Z</time></trkpt><trkpt lat="44.369569567063124" lon="9.156159354170814"><ele>75.0</ele><time>2026-05-01T08:27:11Z</time></trkpt><trkpt lat="44.36948049138237" lon="9.156495788316533"><ele>75.0</ele><time>2026-05-01T08:27:12Z</time></trkpt><trkpt lat="44.369407058646296" lon="9.156845523401213"><ele>80.0</ele><time>2026-05-01T08:27:13Z</time></trkpt><trkpt lat="44.369348093585536" lon="9.157205411540145"><ele>85.0</ele><time>2026-05-01T08:27:14Z</time></trkpt><trkpt lat="44.36930274324462" lon="9.15756477531967"><ele>94.0</ele><time>2026-05-01T08:27:14.999Z</time></trkpt><trkpt lat="44.36925721505441" lon="9.157917749472793"><ele>103.0</ele><time>2026-05-01T08:27:15.999Z</time></trkpt><trkpt lat="44.36921453841101" lon="9.158268714671047"><ele>109.0</ele><time>2026-05-01T08:27:16.999Z</time></trkpt><trkpt lat="44.369165937131854" lon="9.158611823003978"><ele>115.0</ele><time>2026-05-01T08:27:17.999Z</time></trkpt><trkpt lat="44.36910848571154" lon="9.158945565533243"><ele>116.66666666666667</ele><time>2026-05-01T08:27:18.999Z</time></trkpt><trkpt lat="44.36904715481487" lon="9.159246221164134"><ele>118.33333333333334</ele><time>2026-05-01T08:27:19.999Z</time></trkpt><trkpt lat="44.3689839899764" lon="9.159533911777915"><ele>120.0</ele><time>2026-05-01T08:27:20.999Z</time></trkpt><trkpt lat="44.36892331301597" lon="9.15981749627892"><ele>119.33333333333334</ele><time>2026-05-01T08:27:21.999Z</time></trkpt><trkpt lat="44.3688660032485" lon="9.160099745220652"><ele>118.66666666666667</ele><time>2026-05-01T08:27:22.999Z</time></trkpt><trkpt lat="44.368809882722225" lon="9.160375299209159"><ele>118.0</ele><time>2026-05-01T08:27:23.999Z</time></trkpt><trkpt lat="44.36875525068045" lon="9.160645337281522"><ele>121.66666666666667</ele><time>2026-05-01T08:27:24.999Z</time></trkpt><trkpt lat="44.36869943682701" lon="9.160918477414778"><ele>125.33333333333334</ele><time>2026-05-01T08:27:25.999Z</time></trkpt><trkpt lat="44.368642039481" lon="9.161197462626543"><ele>129.0</ele><time>2026-05-01T08:27:26.999Z</time></trkpt><trkpt lat="44.3685812170321" lon="9.16148535332291"><ele>134.33333333333334</ele><time>2026-05-01T08:27:27.999Z</time></trkpt><trkpt lat="44.368517232854316" lon="9.16178088645826"><ele>139.66666666666669</ele><time>2026-05-01T08:27:28.999Z</time></trkpt><trkpt lat="44.36845241270159" lon="9.162082748185025"><ele>145.0</ele><time>2026-05-01T08:27:29.999Z</time></trkpt><trkpt lat="44.368383663414946" lon="9.162382331032957"><ele>161.5</ele><time>2026-05-01T08:27:30.999Z</time></trkpt><trkpt lat="44.368318189950074" lon="9.162684181797113"><ele>178.0</ele><time>2026-05-01T08:27:31.999Z</time></trkpt><trkpt lat="44.36825179106732" lon="9.162990366868984"><ele>199.5</ele><time>2026-05-01T08:27:32.999Z</time></trkpt><trkpt lat="44.368180500059616" lon="9.163313017936787"><ele>221.0</ele><time>2026-05-01T08:27:34.058Z</time></trkpt><trkpt lat="44.3681121675349" lon="9.163622866414672"><ele>221.0</ele><time>2026-05-01T08:27:35.06Z</time></trkpt><trkpt lat="44.36804570275297" lon="9.163919725443312"><ele>221.0</ele><time>2026-05-01T08:27:36.058Z</time></trkpt><trkpt lat="44.36395748779053" lon="9.183609212997702"><ele>177.0</ele><time>2026-05-01T08:28:31.999Z</time></trkpt><trkpt lat="44.36386732024466" lon="9.183921384651969"><ele>133.0</ele><time>2026-05-01T08:28:32.999Z</time></trkpt><trkpt lat="44.36371958385387" lon="9.184202351296676"><ele>128.0</ele><time>2026-05-01T08:28:33.999Z</time></trkpt><trkpt lat="44.36358371124539" lon="9.184479694508944"><ele>123.0</ele><time>2026-05-01T08:28:34.999Z</time></trkpt><trkpt lat="44.363435050249805" lon="9.184763683377373"><ele>121.5</ele><time>2026-05-01T08:28:35.999Z</time></trkpt><trkpt lat="44.363283144450435" lon="9.185048983471926"><ele>120.0</ele><time>2026-05-01T08:28:36.999Z</time></trkpt><trkpt lat="44.363135647381874" lon="9.185329232356084"><ele>123.5</ele><time>2026-05-01T08:28:38Z</time></trkpt><trkpt lat="44.36300544799455" lon="9.185628003974289"><ele>127.0</ele><time>2026-05-01T08:28:39Z</time></trkpt><trkpt lat="44.36288563973536" lon="9.18594503853134"><ele>117.0</ele><time>2026-05-01T08:28:40Z</time></trkpt><trkpt lat="44.36278523361322" lon="9.186280874787444"><ele>107.0</ele><time>2026-05-01T08:28:41Z</time></trkpt><trkpt lat="44.36270011872497" lon="9.186630473773"><ele>105.0</ele><time>2026-05-01T08:28:42Z</time></trkpt><trkpt lat="44.36262541137087" lon="9.186985998101646"><ele>103.0</ele><time>2026-05-01T08:28:43Z</time></trkpt><trkpt lat="44.36256114721173" lon="9.187352504310171"><ele>103.0</ele><time>2026-05-01T08:28:44Z</time></trkpt><trkpt lat="44.36249698845108" lon="9.187714222492678"><ele>103.0</ele><time>2026-05-01T08:28:45Z</time></trkpt><trkpt lat="44.362428279973955" lon="9.188084213772385"><ele>104.0</ele><time>2026-05-01T08:28:46Z</time></trkpt><trkpt lat="44.362358327113064" lon="9.188456334574349"><ele>105.0</ele><time>2026-05-01T08:28:47Z</time></trkpt><trkpt lat="44.36228771920054" lon="9.188833688574194"><ele>109.0</ele><time>2026-05-01T08:28:48Z</time></trkpt><trkpt lat="44.362217434829226" lon="9.189217714412619"><ele>113.0</ele><time>2026-05-01T08:28:49Z</time></trkpt><trkpt lat="44.36214774262202" lon="9.189604481349553"><ele>94.0</ele><time>2026-05-01T08:28:50Z</time></trkpt><trkpt lat="44.36207716862565" lon="9.189990617363733"><ele>75.0</ele><time>2026-05-01T08:28:51Z</time></trkpt><trkpt lat="44.36200635588083" lon="9.1903779154463"><ele>76.0</ele><time>2026-05-01T08:28:52Z</time></trkpt><trkpt lat="44.361935460126624" lon="9.190768536890165"><ele>77.0</ele><time>2026-05-01T08:28:53Z</time></trkpt><trkpt lat="44.361863074430985" lon="9.191165168514242"><ele>74.5</ele><time>2026-05-01T08:28:54Z</time></trkpt><trkpt lat="44.36179222238504" lon="9.191556567340891"><ele>72.0</ele><time>2026-05-01T08:28:55Z</time></trkpt><trkpt lat="44.36172422723136" lon="9.19194375837499"><ele>72.0</ele><time>2026-05-01T08:28:56Z</time></trkpt><trkpt lat="44.36165789093693" lon="9.192330784695644"><ele>72.0</ele><time>2026-05-01T08:28:57Z</time></trkpt><trkpt lat="44.36159047092123" lon="9.192715856392564"><ele>76.0</ele><time>2026-05-01T08:28:58Z</time></trkpt><trkpt lat="44.361524924828736" lon="9.1930910678731"><ele>80.0</ele><time>2026-05-01T08:28:59Z</time></trkpt><trkpt lat="44.36146718354852" lon="9.193463597461733"><ele>92.5</ele><time>2026-05-01T08:29:00Z</time></trkpt><trkpt lat="44.361417730100065" lon="9.19383927935166"><ele>105.0</ele><time>2026-05-01T08:29:01Z</time></trkpt><trkpt lat="44.3613720934843" lon="9.194219345452135"><ele>99.5</ele><time>2026-05-01T08:29:02Z</time></trkpt><trkpt lat="44.36132756572372" lon="9.194603943131336"><ele>94.0</ele><time>2026-05-01T08:29:03Z</time></trkpt><trkpt lat="44.36128100820064" lon="9.194989950616048"><ele>88.5</ele><time>2026-05-01T08:29:04Z</time></trkpt><trkpt lat="44.361252305820194" lon="9.19538991316347"><ele>83.0</ele><time>2026-05-01T08:29:05Z</time></trkpt><trkpt lat="44.36124491222639" lon="9.195767167807668"><ele>75.0</ele><time>2026-05-01T08:29:06Z</time></trkpt><trkpt lat="44.3611903585596" lon="9.196163698744726"><ele>67.0</ele><time>2026-05-01T08:29:07Z</time></trkpt><trkpt lat="44.361127170600355" lon="9.19657310776433"><ele>66.0</ele><time>2026-05-01T08:29:08Z</time></trkpt><trkpt lat="44.36104838740734" lon="9.196986778244842"><ele>65.0</ele><time>2026-05-01T08:29:09Z</time></trkpt><trkpt lat="44.360948046158875" lon="9.197400737855657"><ele>67.0</ele><time>2026-05-01T08:29:10Z</time></trkpt><trkpt lat="44.36083538911909" lon="9.197801002662525"><ele>69.0</ele><time>2026-05-01T08:29:11Z</time></trkpt><trkpt lat="44.360742553517774" lon="9.198199598332826"><ele>73.0</ele><time>2026-05-01T08:29:12Z</time></trkpt><trkpt lat="44.36066246392342" lon="9.198586750603482"><ele>77.0</ele><time>2026-05-01T08:29:13Z</time></trkpt><trkpt lat="44.3605967910661" lon="9.198978734957956"><ele>80.0</ele><time>2026-05-01T08:29:14Z</time></trkpt><trkpt lat="44.36054770562884" lon="9.199379429294982"><ele>83.0</ele><time>2026-05-01T08:29:15Z</time></trkpt><trkpt lat="44.36051346518003" lon="9.199782523451805"><ele>67.5</ele><time>2026-05-01T08:29:16Z</time></trkpt><trkpt lat="44.3604907380511" lon="9.200190371588311"><ele>52.0</ele><time>2026-05-01T08:29:17Z</time></trkpt><trkpt lat="44.36046830731755" lon="9.200596061289172"><ele>49.0</ele><time>2026-05-01T08:29:18Z</time></trkpt><trkpt lat="44.3604462742268" lon="9.20100501487666"><ele>46.0</ele><time>2026-05-01T08:29:19Z</time></trkpt><trkpt lat="44.36042567270396" lon="9.201409112898354"><ele>48.5</ele><time>2026-05-01T08:29:20Z</time></trkpt><trkpt lat="44.360405015532756" lon="9.201807784905805"><ele>51.0</ele><time>2026-05-01T08:29:21Z</time></trkpt><trkpt lat="44.3603843979338" lon="9.202198800215927"><ele>50.0</ele><time>2026-05-01T08:29:22Z</time></trkpt><trkpt lat="44.360364034937625" lon="9.202591859816858"><ele>49.0</ele><time>2026-05-01T08:29:23Z</time></trkpt><trkpt lat="44.3603406802352" lon="9.202981440693652"><ele>47.5</ele><time>2026-05-01T08:29:24Z</time></trkpt><trkpt lat="44.36031487652501" lon="9.203366592142771"><ele>46.0</ele><time>2026-05-01T08:29:25Z</time></trkpt><trkpt lat="44.36028406392262" lon="9.203754296015912"><ele>46.0</ele><time>2026-05-01T08:29:26Z</time></trkpt><trkpt lat="44.36023742137073" lon="9.204149377015005"><ele>46.0</ele><time>2026-05-01T08:29:27Z</time></trkpt><trkpt lat="44.36017251063267" lon="9.204544483322454"><ele>47.5</ele><time>2026-05-01T08:29:28Z</time></trkpt><trkpt lat="44.36009252642405" lon="9.204939072389472"><ele>49.0</ele><time>2026-05-01T08:29:29Z</time></trkpt><trkpt lat="44.35999568571709" lon="9.205331613375149"><ele>46.5</ele><time>2026-05-01T08:29:30Z</time></trkpt><trkpt lat="44.35988701922591" lon="9.205725459423935"><ele>44.0</ele><time>2026-05-01T08:29:31Z</time></trkpt><trkpt lat="44.35976874406794" lon="9.206118755574638"><ele>40.5</ele><time>2026-05-01T08:29:32Z</time></trkpt><trkpt lat="44.35964911212494" lon="9.206508127438601"><ele>37.0</ele><time>2026-05-01T08:29:33Z</time></trkpt><trkpt lat="44.359531952534425" lon="9.206889162391816"><ele>37.0</ele><time>2026-05-01T08:29:34Z</time></trkpt><trkpt lat="44.35930579060239" lon="9.207189776604679"><ele>37.0</ele><time>2026-05-01T08:29:35Z</time></trkpt><trkpt lat="44.35920300611583" lon="9.207547087042077"><ele>37.0</ele><time>2026-05-01T08:29:36Z</time></trkpt><trkpt lat="44.35920846069456" lon="9.207953845351094"><ele>37.0</ele><time>2026-05-01T08:29:37Z</time></trkpt><trkpt lat="44.35910559489167" lon="9.208299286295036"><ele>33.5</ele><time>2026-05-01T08:29:38Z</time></trkpt><trkpt lat="44.359000646880375" lon="9.208648657513306"><ele>30.0</ele><time>2026-05-01T08:29:39Z</time></trkpt><trkpt lat="44.358894821563545" lon="9.209002028748797"><ele>27.0</ele><time>2026-05-01T08:29:40Z</time></trkpt><trkpt lat="44.35878930792162" lon="9.20935633587739"><ele>24.0</ele><time>2026-05-01T08:29:41Z</time></trkpt><trkpt lat="44.35868247184783" lon="9.209712278800172"><ele>23.0</ele><time>2026-05-01T08:29:42Z</time></trkpt><trkpt lat="44.35857611777458" lon="9.210070665454433"><ele>22.0</ele><time>2026-05-01T08:29:42.999Z</time></trkpt><trkpt lat="44.35847144811463" lon="9.210435425948102"><ele>25.0</ele><time>2026-05-01T08:29:43.999Z</time></trkpt><trkpt lat="44.3583685253529" lon="9.2108105657781"><ele>28.0</ele><time>2026-05-01T08:29:44.999Z</time></trkpt><trkpt lat="44.358271665741704" lon="9.211192531357652"><ele>25.0</ele><time>2026-05-01T08:29:45.999Z</time></trkpt><trkpt lat="44.35817907356358" lon="9.21158260793677"><ele>22.0</ele><time>2026-05-01T08:29:46.999Z</time></trkpt><trkpt lat="44.358089226491465" lon="9.211982026795088"><ele>17.5</ele><time>2026-05-01T08:29:47.999Z</time></trkpt><trkpt lat="44.35800215812993" lon="9.21239462301438"><ele>13.0</ele><time>2026-05-01T08:29:48.999Z</time></trkpt><trkpt lat="44.35792046633287" lon="9.212815169022376"><ele>12.5</ele><time>2026-05-01T08:29:49.999Z</time></trkpt><trkpt lat="44.35785027922797" lon="9.21323691477975"><ele>12.0</ele><time>2026-05-01T08:29:50.999Z</time></trkpt><trkpt lat="44.357791413338106" lon="9.213641524590516"><ele>16.0</ele><time>2026-05-01T08:29:51.999Z</time></trkpt><trkpt lat="44.357740267932854" lon="9.214027641665695"><ele>20.0</ele><time>2026-05-01T08:29:52.999Z</time></trkpt><trkpt lat="44.35769485003562" lon="9.21440911843092"><ele>20.0</ele><time>2026-05-01T08:29:53.999Z</time></trkpt><trkpt lat="44.35765780385047" lon="9.214778813363504"><ele>20.0</ele><time>2026-05-01T08:29:54.999Z</time></trkpt><trkpt lat="44.35762594628102" lon="9.215139101111825"><ele>32.5</ele><time>2026-05-01T08:29:55.999Z</time></trkpt><trkpt lat="44.35759304532387" lon="9.215487836941426"><ele>45.0</ele><time>2026-05-01T08:29:56.999Z</time></trkpt><trkpt lat="44.357562808222056" lon="9.215831879303892"><ele>51.5</ele><time>2026-05-01T08:29:57.999Z</time></trkpt><trkpt lat="44.3575351113299" lon="9.21617174603879"><ele>58.0</ele><time>2026-05-01T08:29:58.999Z</time></trkpt><trkpt lat="44.35750632900608" lon="9.216506077243764"><ele>58.0</ele><time>2026-05-01T08:29:59.999Z</time></trkpt><trkpt lat="44.35747401439155" lon="9.21683242825278"><ele>58.0</ele><time>2026-05-01T08:30:00.999Z</time></trkpt><trkpt lat="44.35744132959091" lon="9.217173732053354"><ele>40.0</ele><time>2026-05-01T08:30:02.062Z</time></trkpt><trkpt lat="44.35738895783013" lon="9.217800688842855"><ele>35.5</ele><time>2026-05-01T08:30:03.999Z</time></trkpt><trkpt lat="44.357353891797835" lon="9.218155783211317"><ele>31.0</ele><time>2026-05-01T08:30:04.999Z</time></trkpt><trkpt lat="44.35736977877087" lon="9.218505931910249"><ele>31.0</ele><time>2026-05-01T08:30:05.999Z</time></trkpt><trkpt lat="44.357379671442445" lon="9.21884841805026"><ele>31.0</ele><time>2026-05-01T08:30:06.999Z</time></trkpt><trkpt lat="44.3574015958978" lon="9.219184910605462"><ele>32.5</ele><time>2026-05-01T08:30:07.999Z</time></trkpt><trkpt lat="44.357437092699435" lon="9.219507607518677"><ele>34.0</ele><time>2026-05-01T08:30:08.999Z</time></trkpt><trkpt lat="44.35748133031204" lon="9.21983003952545"><ele>38.0</ele><time>2026-05-01T08:30:09.999Z</time></trkpt><trkpt lat="44.35753408267012" lon="9.220151363564892"><ele>42.0</ele><time>2026-05-01T08:30:10.999Z</time></trkpt><trkpt lat="44.357592144904935" lon="9.220474995739837"><ele>44.5</ele><time>2026-05-01T08:30:11.999Z</time></trkpt><trkpt lat="44.357644023467095" lon="9.220805680338982"><ele>47.0</ele><time>2026-05-01T08:30:12.999Z</time></trkpt><trkpt lat="44.357699057068174" lon="9.221131049662256"><ele>47.0</ele><time>2026-05-01T08:30:13.999Z</time></trkpt><trkpt lat="44.357755340652425" lon="9.22145889027046"><ele>47.0</ele><time>2026-05-01T08:30:14.999Z</time></trkpt><trkpt lat="44.357812631299716" lon="9.221780142515161"><ele>49.0</ele><time>2026-05-01T08:30:15.999Z</time></trkpt><trkpt lat="44.35786881611957" lon="9.222097089050822"><ele>51.0</ele><time>2026-05-01T08:30:16.999Z</time></trkpt><trkpt lat="44.35792628468387" lon="9.222421157682026"><ele>51.5</ele><time>2026-05-01T08:30:17.999Z</time></trkpt><trkpt lat="44.35798154848521" lon="9.22273993871208"><ele>52.0</ele><time>2026-05-01T08:30:18.999Z</time></trkpt><trkpt lat="44.35803822718555" lon="9.223057503529704"><ele>45.5</ele><time>2026-05-01T08:30:19.999Z</time></trkpt><trkpt lat="44.35809054556242" lon="9.22337381757282"><ele>39.0</ele><time>2026-05-01T08:30:20.999Z</time></trkpt><trkpt lat="44.3581410693377" lon="9.223691772255712"><ele>41.0</ele><time>2026-05-01T08:30:21.999Z</time></trkpt><trkpt lat="44.35819069130187" lon="9.224005606913716"><ele>43.0</ele><time>2026-05-01T08:30:22.999Z</time></trkpt><trkpt lat="44.35824059012025" lon="9.22431909772348"><ele>43.0</ele><time>2026-05-01T08:30:23.999Z</time></trkpt><trkpt lat="44.3582906257459" lon="9.224631890528727"><ele>43.0</ele><time>2026-05-01T08:30:24.999Z</time></trkpt><trkpt lat="44.35833929435387" lon="9.224946575644147"><ele>49.0</ele><time>2026-05-01T08:30:25.999Z</time></trkpt><trkpt lat="44.35838901269562" lon="9.2252661283811"><ele>55.0</ele><time>2026-05-01T08:30:26.999Z</time></trkpt><trkpt lat="44.35843462121057" lon="9.225595921749978"><ele>58.0</ele><time>2026-05-01T08:30:27.999Z</time></trkpt><trkpt lat="44.35848299570737" lon="9.22592846159088"><ele>61.0</ele><time>2026-05-01T08:30:28.999Z</time></trkpt><trkpt lat="44.35853100781013" lon="9.226260706733635"><ele>60.0</ele><time>2026-05-01T08:30:29.999Z</time></trkpt><trkpt lat="44.35857711690857" lon="9.226587844256839"><ele>59.0</ele><time>2026-05-01T08:30:30.999Z</time></trkpt><trkpt lat="44.35862351918019" lon="9.226921272510838"><ele>59.0</ele><time>2026-05-01T08:30:31.999Z</time></trkpt><trkpt lat="44.35867286395319" lon="9.227280832463787"><ele>59.0</ele><time>2026-05-01T08:30:33.063Z</time></trkpt><trkpt lat="44.358721324638424" lon="9.227619991068073"><ele>58.0</ele><time>2026-05-01T08:30:34.066Z</time></trkpt><trkpt lat="44.35876756961097" lon="9.22795736319519"><ele>57.0</ele><time>2026-05-01T08:30:35.055Z</time></trkpt><trkpt lat="44.35887139957417" lon="9.22861661289409"><ele>68.5</ele><time>2026-05-01T08:30:36.999Z</time></trkpt><trkpt lat="44.35896795244715" lon="9.228962556264454"><ele>80.0</ele><time>2026-05-01T08:30:37.999Z</time></trkpt><trkpt lat="44.35902131349414" lon="9.229340632635381"><ele>82.5</ele><time>2026-05-01T08:30:38.999Z</time></trkpt><trkpt lat="44.359079372526836" lon="9.22972798195995"><ele>85.0</ele><time>2026-05-01T08:30:39.999Z</time></trkpt><trkpt lat="44.359137914313216" lon="9.230119719967789"><ele>96.5</ele><time>2026-05-01T08:30:40.999Z</time></trkpt><trkpt lat="44.359197273399886" lon="9.230511066327221"><ele>108.0</ele><time>2026-05-01T08:30:41.999Z</time></trkpt><trkpt lat="44.35925418608084" lon="9.23089590139022"><ele>124.0</ele><time>2026-05-01T08:30:42.999Z</time></trkpt><trkpt lat="44.35930933867292" lon="9.231302211398763"><ele>140.0</ele><time>2026-05-01T08:30:44.054Z</time></trkpt><trkpt lat="44.359355483416344" lon="9.23168637142902"><ele>42.0</ele><time>2026-05-01T08:30:45.053Z</time></trkpt><trkpt lat="44.35924329039069" lon="9.234068389163294"><ele>42.0</ele><time>2026-05-01T08:30:51Z</time></trkpt><trkpt lat="44.359208833925" lon="9.23445762186853"><ele>42.0</ele><time>2026-05-01T08:30:52Z</time></trkpt><trkpt lat="44.35910932371533" lon="9.234850662025293"><ele>35.5</ele><time>2026-05-01T08:30:53Z</time></trkpt><trkpt lat="44.35901699647859" lon="9.23520484336189"><ele>29.0</ele><time>2026-05-01T08:30:54Z</time></trkpt><trkpt lat="44.3588906904613" lon="9.235534531912688"><ele>40.0</ele><time>2026-05-01T08:30:55Z</time></trkpt><trkpt lat="44.35875132076135" lon="9.23585053005975"><ele>51.0</ele><time>2026-05-01T08:30:56Z</time></trkpt><trkpt lat="44.35860422470893" lon="9.23612912626891"><ele>51.0</ele><time>2026-05-01T08:30:57Z</time></trkpt><trkpt lat="44.35844975138591" lon="9.236399262538667"><ele>51.0</ele><time>2026-05-01T08:30:58Z</time></trkpt><trkpt lat="44.35829129961422" lon="9.23666248804237"><ele>65.5</ele><time>2026-05-01T08:30:59Z</time></trkpt><trkpt lat="44.358123266923236" lon="9.236914815811422"><ele>80.0</ele><time>2026-05-01T08:31:00Z</time></trkpt><trkpt lat="44.35794667753434" lon="9.237159666371227"><ele>92.5</ele><time>2026-05-01T08:31:01Z</time></trkpt><trkpt lat="44.35776441891949" lon="9.237403290916756"><ele>105.0</ele><time>2026-05-01T08:31:02Z</time></trkpt><trkpt lat="44.35757949344764" lon="9.237649819374328"><ele>105.0</ele><time>2026-05-01T08:31:03Z</time></trkpt><trkpt lat="44.35739446612042" lon="9.237896025760014"><ele>105.0</ele><time>2026-05-01T08:31:04Z</time></trkpt><trkpt lat="44.35721090858296" lon="9.23813716786186"><ele>103.0</ele><time>2026-05-01T08:31:05Z</time></trkpt><trkpt lat="44.35702384098819" lon="9.238377303005878"><ele>101.0</ele><time>2026-05-01T08:31:06Z</time></trkpt><trkpt lat="44.35682193848339" lon="9.238635548069594"><ele>101.0</ele><time>2026-05-01T08:31:07.067Z</time></trkpt><trkpt lat="44.35663362406448" lon="9.238878924126386"><ele>101.0</ele><time>2026-05-01T08:31:08.059Z</time></trkpt><trkpt lat="44.35644503898564" lon="9.239128067983735"><ele>102.5</ele><time>2026-05-01T08:31:09.059Z</time></trkpt><trkpt lat="44.35625433878734" lon="9.239377915917425"><ele>104.0</ele><time>2026-05-01T08:31:10.061Z</time></trkpt><trkpt lat="44.356061059540835" lon="9.239628529310863"><ele>115.5</ele><time>2026-05-01T08:31:11.059Z</time></trkpt><trkpt lat="44.355873551643214" lon="9.239874444736895"><ele>127.0</ele><time>2026-05-01T08:31:12.034Z</time></trkpt><trkpt lat="44.35365515326497" lon="9.242764359487426"><ele>90.5</ele><time>2026-05-01T08:31:23Z</time></trkpt><trkpt lat="44.35345283505302" lon="9.243031548019983"><ele>54.0</ele><time>2026-05-01T08:31:24Z</time></trkpt><trkpt lat="44.35326460124862" lon="9.243284328122758"><ele>50.0</ele><time>2026-05-01T08:31:25Z</time></trkpt><trkpt lat="44.3530721941732" lon="9.24352199986239"><ele>46.0</ele><time>2026-05-01T08:31:26Z</time></trkpt><trkpt lat="44.35288510012747" lon="9.243764783380175"><ele>61.5</ele><time>2026-05-01T08:31:27Z</time></trkpt><trkpt lat="44.352703878711885" lon="9.244011280939075"><ele>77.0</ele><time>2026-05-01T08:31:28Z</time></trkpt><trkpt lat="44.35252627636635" lon="9.244253018532765"><ele>77.0</ele><time>2026-05-01T08:31:29Z</time></trkpt><trkpt lat="44.352347475240165" lon="9.244491257146054"><ele>77.0</ele><time>2026-05-01T08:31:30Z</time></trkpt><trkpt lat="44.3521734394719" lon="9.24472360116475"><ele>88.5</ele><time>2026-05-01T08:31:31Z</time></trkpt><trkpt lat="44.35200118226388" lon="9.244950131744249"><ele>100.0</ele><time>2026-05-01T08:31:32Z</time></trkpt><trkpt lat="44.351832590117276" lon="9.24517661006806"><ele>100.0</ele><time>2026-05-01T08:31:33Z</time></trkpt><trkpt lat="44.35166571519453" lon="9.245399824414841"><ele>100.0</ele><time>2026-05-01T08:31:34Z</time></trkpt><trkpt lat="44.35149358613498" lon="9.245622913372893"><ele>112.5</ele><time>2026-05-01T08:31:35Z</time></trkpt><trkpt lat="44.35131823095086" lon="9.245850118529646"><ele>125.0</ele><time>2026-05-01T08:31:36Z</time></trkpt><trkpt lat="44.3511378562793" lon="9.2460837389933"><ele>125.0</ele><time>2026-05-01T08:31:37Z</time></trkpt><trkpt lat="44.35095365358036" lon="9.246321217411444"><ele>125.0</ele><time>2026-05-01T08:31:38Z</time></trkpt><trkpt lat="44.35076458472557" lon="9.246567202340584"><ele>128.0</ele><time>2026-05-01T08:31:39Z</time></trkpt><trkpt lat="44.350564712211785" lon="9.246826930122651"><ele>131.0</ele><time>2026-05-01T08:31:40Z</time></trkpt><trkpt lat="44.3503548230303" lon="9.247100699377782"><ele>114.5</ele><time>2026-05-01T08:31:41Z</time></trkpt><trkpt lat="44.35015347863787" lon="9.247366262596257"><ele>98.0</ele><time>2026-05-01T08:31:42Z</time></trkpt><trkpt lat="44.34997186831004" lon="9.24760926067337"><ele>98.0</ele><time>2026-05-01T08:31:43Z</time></trkpt><trkpt lat="44.34977742633047" lon="9.247881326618495"><ele>98.0</ele><time>2026-05-01T08:31:44Z</time></trkpt><trkpt lat="44.34959592343242" lon="9.248164398565613"><ele>99.5</ele><time>2026-05-01T08:31:45Z</time></trkpt><trkpt lat="44.34943680199499" lon="9.24846998587195"><ele>101.0</ele><time>2026-05-01T08:31:46Z</time></trkpt><trkpt lat="44.34929401343946" lon="9.248796543903598"><ele>105.0</ele><time>2026-05-01T08:31:47Z</time></trkpt><trkpt lat="44.34916570078853" lon="9.249138554145802"><ele>109.0</ele><time>2026-05-01T08:31:48Z</time></trkpt><trkpt lat="44.34905586600364" lon="9.249490360338932"><ele>114.5</ele><time>2026-05-01T08:31:49Z</time></trkpt><trkpt lat="44.34897209256336" lon="9.249853462607216"><ele>120.0</ele><time>2026-05-01T08:31:50Z</time></trkpt><trkpt lat="44.34890227202361" lon="9.250222652181732"><ele>106.5</ele><time>2026-05-01T08:31:51Z</time></trkpt><trkpt lat="44.34885375557407" lon="9.250601327341899"><ele>93.0</ele><time>2026-05-01T08:31:52Z</time></trkpt><trkpt lat="44.348824099109564" lon="9.250979050054614"><ele>93.0</ele><time>2026-05-01T08:31:53Z</time></trkpt><trkpt lat="44.348801268154666" lon="9.251358752971766"><ele>93.0</ele><time>2026-05-01T08:31:54Z</time></trkpt><trkpt lat="44.348765576162535" lon="9.251744565399305"><ele>93.5</ele><time>2026-05-01T08:31:55Z</time></trkpt><trkpt lat="44.34872765436331" lon="9.252126651680099"><ele>94.0</ele><time>2026-05-01T08:31:56Z</time></trkpt><trkpt lat="44.3486834110379" lon="9.252502238135959"><ele>96.0</ele><time>2026-05-01T08:31:57Z</time></trkpt><trkpt lat="44.348629490363116" lon="9.252871909749043"><ele>98.0</ele><time>2026-05-01T08:31:58Z</time></trkpt><trkpt lat="44.34856272264922" lon="9.253231575304977"><ele>103.0</ele><time>2026-05-01T08:31:58.999Z</time></trkpt><trkpt lat="44.348488463719114" lon="9.253583263446801"><ele>108.0</ele><time>2026-05-01T08:31:59.999Z</time></trkpt><trkpt lat="44.34841409340344" lon="9.253928259380949"><ele>117.5</ele><time>2026-05-01T08:32:00.999Z</time></trkpt><trkpt lat="44.34834333074367" lon="9.25425931343749"><ele>127.0</ele><time>2026-05-01T08:32:01.999Z</time></trkpt><trkpt lat="44.3482718674492" lon="9.254579436465198"><ele>140.5</ele><time>2026-05-01T08:32:02.999Z</time></trkpt><trkpt lat="44.34820485174415" lon="9.254894281505308"><ele>154.0</ele><time>2026-05-01T08:32:03.999Z</time></trkpt><trkpt lat="44.34813870334251" lon="9.255208020192718"><ele>154.0</ele><time>2026-05-01T08:32:04.999Z</time></trkpt><trkpt lat="44.34807198361773" lon="9.255516353457642"><ele>154.0</ele><time>2026-05-01T08:32:05.999Z</time></trkpt><trkpt lat="44.34800409889292" lon="9.255826068889235"><ele>185.5</ele><time>2026-05-01T08:32:06.999Z</time></trkpt><trkpt lat="44.34793546921718" lon="9.256142101735389"><ele>217.0</ele><time>2026-05-01T08:32:07.999Z</time></trkpt><trkpt lat="44.34786198207777" lon="9.256481250518387"><ele>231.0</ele><time>2026-05-01T08:32:09.069Z</time></trkpt><trkpt lat="44.34779295603248" lon="9.256792837346032"><ele>245.0</ele><time>2026-05-01T08:32:10.06Z</time></trkpt><trkpt lat="44.34772199395474" lon="9.257112174002394"><ele>260.0</ele><time>2026-05-01T08:32:11.064Z</time></trkpt><trkpt lat="44.34765268424601" lon="9.25743418154726"><ele>275.0</ele><time>2026-05-01T08:32:12.058Z</time></trkpt><trkpt lat="44.34758219944265" lon="9.257761817067333"><ele>88.0</ele><time>2026-05-01T08:32:13.063Z</time></trkpt><trkpt lat="44.344435120889656" lon="9.272779296317202"><ele>77.5</ele><time>2026-05-01T08:32:52.999Z</time></trkpt><trkpt lat="44.344312150815455" lon="9.27312501985802"><ele>67.0</ele><time>2026-05-01T08:32:53.999Z</time></trkpt><trkpt lat="44.34408862792712" lon="9.273498870132121"><ele>67.0</ele><time>2026-05-01T08:32:54.999Z</time></trkpt><trkpt lat="44.34390321447512" lon="9.273767129132288"><ele>67.0</ele><time>2026-05-01T08:32:55.999Z</time></trkpt><trkpt lat="44.34372872861758" lon="9.27406660475316"><ele>85.0</ele><time>2026-05-01T08:32:56.999Z</time></trkpt><trkpt lat="44.34360865012358" lon="9.274395625174519"><ele>103.0</ele><time>2026-05-01T08:32:57.999Z</time></trkpt><trkpt lat="44.343485062003005" lon="9.274721458016241"><ele>115.0</ele><time>2026-05-01T08:32:59Z</time></trkpt><trkpt lat="44.34336199281662" lon="9.275049817377647"><ele>127.0</ele><time>2026-05-01T08:33:00Z</time></trkpt><trkpt lat="44.34323482751437" lon="9.27537268618274"><ele>133.5</ele><time>2026-05-01T08:33:01Z</time></trkpt><trkpt lat="44.34308792332999" lon="9.275682029846259"><ele>140.0</ele><time>2026-05-01T08:33:02Z</time></trkpt><trkpt lat="44.34293447516275" lon="9.275970742093811"><ele>140.0</ele><time>2026-05-01T08:33:03Z</time></trkpt><trkpt lat="44.342774301506715" lon="9.276256840686903"><ele>140.0</ele><time>2026-05-01T08:33:04Z</time></trkpt><trkpt lat="44.34261968218195" lon="9.276526395357605"><ele>147.5</ele><time>2026-05-01T08:33:05Z</time></trkpt><trkpt lat="44.34246202561953" lon="9.276816239353288"><ele>155.0</ele><time>2026-05-01T08:33:06Z</time></trkpt><trkpt lat="44.34230752876928" lon="9.27710182860493"><ele>189.0</ele><time>2026-05-01T08:33:07Z</time></trkpt><trkpt lat="44.342157708480386" lon="9.277385369550112"><ele>223.0</ele><time>2026-05-01T08:33:08Z</time></trkpt><trkpt lat="44.34201185617508" lon="9.277671643296578"><ele>223.0</ele><time>2026-05-01T08:33:09Z</time></trkpt><trkpt lat="44.34186598885311" lon="9.277953312091665"><ele>223.0</ele><time>2026-05-01T08:33:10Z</time></trkpt><trkpt lat="44.341721953430785" lon="9.27823646660184"><ele>241.5</ele><time>2026-05-01T08:33:11Z</time></trkpt><trkpt lat="44.341572715823254" lon="9.278540275232674"><ele>260.0</ele><time>2026-05-01T08:33:12.063Z</time></trkpt><trkpt lat="44.341434987330565" lon="9.278824386764112"><ele>297.5</ele><time>2026-05-01T08:33:13.051Z</time></trkpt><trkpt lat="44.34129761836596" lon="9.27910862002438"><ele>335.0</ele><time>2026-05-01T08:33:14.048Z</time></trkpt><trkpt lat="44.339795448107395" lon="9.28209619699504"><ele>157.0</ele><time>2026-05-01T08:33:27.287Z</time></trkpt><trkpt lat="44.33452877356169" lon="9.29144943232106"><ele>157.0</ele><time>2026-05-01T08:33:53Z</time></trkpt><trkpt lat="44.33431339935153" lon="9.291715671252708"><ele>157.0</ele><time>2026-05-01T08:33:54Z</time></trkpt><trkpt lat="44.3341452998015" lon="9.29197057709924"><ele>157.0</ele><time>2026-05-01T08:33:55Z</time></trkpt><trkpt lat="44.33393570677734" lon="9.292204580709422"><ele>157.0</ele><time>2026-05-01T08:33:56Z</time></trkpt><trkpt lat="44.33371678196956" lon="9.292430740686203"><ele>149.5</ele><time>2026-05-01T08:33:57Z</time></trkpt><trkpt lat="44.3334707813493" lon="9.292650138134125"><ele>142.0</ele><time>2026-05-01T08:33:58Z</time></trkpt><trkpt lat="44.3332173702933" lon="9.29288565631213"><ele>143.0</ele><time>2026-05-01T08:33:59Z</time></trkpt><trkpt lat="44.33297620550776" lon="9.293125236024084"><ele>144.0</ele><time>2026-05-01T08:34:00Z</time></trkpt><trkpt lat="44.33274781799064" lon="9.293393714810502"><ele>144.0</ele><time>2026-05-01T08:34:01Z</time></trkpt><trkpt lat="44.33252567846647" lon="9.293687976853933"><ele>144.0</ele><time>2026-05-01T08:34:02Z</time></trkpt><trkpt lat="44.33231903998369" lon="9.293993015870248"><ele>151.0</ele><time>2026-05-01T08:34:03Z</time></trkpt><trkpt lat="44.332136836101505" lon="9.294313201990509"><ele>158.0</ele><time>2026-05-01T08:34:04Z</time></trkpt><trkpt lat="44.33196860635917" lon="9.294656162934489"><ele>145.5</ele><time>2026-05-01T08:34:05Z</time></trkpt><trkpt lat="44.33181556101408" lon="9.295007751730449"><ele>133.0</ele><time>2026-05-01T08:34:06Z</time></trkpt><trkpt lat="44.33167918149956" lon="9.295366961754155"><ele>123.5</ele><time>2026-05-01T08:34:06.999Z</time></trkpt><trkpt lat="44.33155645216713" lon="9.29573347579243"><ele>114.0</ele><time>2026-05-01T08:34:07.999Z</time></trkpt><trkpt lat="44.331446291621745" lon="9.296099770537987"><ele>129.5</ele><time>2026-05-01T08:34:08.999Z</time></trkpt><trkpt lat="44.33134185107914" lon="9.296461923366513"><ele>145.0</ele><time>2026-05-01T08:34:09.999Z</time></trkpt><trkpt lat="44.33123836511709" lon="9.296824889571631"><ele>145.0</ele><time>2026-05-01T08:34:10.999Z</time></trkpt><trkpt lat="44.33113856996639" lon="9.297189439194407"><ele>145.0</ele><time>2026-05-01T08:34:11.999Z</time></trkpt><trkpt lat="44.331049092867055" lon="9.29755647327928"><ele>141.0</ele><time>2026-05-01T08:34:12.999Z</time></trkpt><trkpt lat="44.33097416804173" lon="9.297936815586791"><ele>137.0</ele><time>2026-05-01T08:34:13.999Z</time></trkpt><trkpt lat="44.330916201521944" lon="9.29832839391706"><ele>133.0</ele><time>2026-05-01T08:34:14.999Z</time></trkpt><trkpt lat="44.33087826801662" lon="9.298717879456454"><ele>129.0</ele><time>2026-05-01T08:34:15.999Z</time></trkpt><trkpt lat="44.330859763469675" lon="9.2991115842106"><ele>120.5</ele><time>2026-05-01T08:34:16.999Z</time></trkpt><trkpt lat="44.33085956964568" lon="9.299507501739164"><ele>112.0</ele><time>2026-05-01T08:34:17.999Z</time></trkpt><trkpt lat="44.330876780654805" lon="9.299904219015879"><ele>108.5</ele><time>2026-05-01T08:34:18.999Z</time></trkpt><trkpt lat="44.33090963256799" lon="9.300298185438848"><ele>105.0</ele><time>2026-05-01T08:34:19.999Z</time></trkpt><trkpt lat="44.330952603668315" lon="9.300690909779764"><ele>105.0</ele><time>2026-05-01T08:34:20.999Z</time></trkpt><trkpt lat="44.33099665477284" lon="9.301091311388632"><ele>105.0</ele><time>2026-05-01T08:34:21.999Z</time></trkpt><trkpt lat="44.33102997786084" lon="9.301496976414619"><ele>107.5</ele><time>2026-05-01T08:34:22.999Z</time></trkpt><trkpt lat="44.331043138225446" lon="9.301901420591989"><ele>110.0</ele><time>2026-05-01T08:34:23.999Z</time></trkpt><trkpt lat="44.33103542079105" lon="9.302305140548546"><ele>111.0</ele><time>2026-05-01T08:34:24.999Z</time></trkpt><trkpt lat="44.331009833732146" lon="9.302717552610247"><ele>112.0</ele><time>2026-05-01T08:34:25.999Z</time></trkpt><trkpt lat="44.33098039384384" lon="9.303142123356132"><ele>110.0</ele><time>2026-05-01T08:34:26.999Z</time></trkpt><trkpt lat="44.33095495584409" lon="9.303556177859619"><ele>108.0</ele><time>2026-05-01T08:34:27.999Z</time></trkpt><trkpt lat="44.330941104638995" lon="9.303969952874255"><ele>106.0</ele><time>2026-05-01T08:34:28.999Z</time></trkpt><trkpt lat="44.33094436290866" lon="9.304379046456198"><ele>104.0</ele><time>2026-05-01T08:34:29.999Z</time></trkpt><trkpt lat="44.33096834890212" lon="9.304780015232959"><ele>104.0</ele><time>2026-05-01T08:34:30.999Z</time></trkpt><trkpt lat="44.331006678414724" lon="9.305172469166804"><ele>104.0</ele><time>2026-05-01T08:34:31.999Z</time></trkpt><trkpt lat="44.33105498337086" lon="9.305543392382809"><ele>107.0</ele><time>2026-05-01T08:34:32.999Z</time></trkpt><trkpt lat="44.331101749790264" lon="9.305900290692275"><ele>110.0</ele><time>2026-05-01T08:34:33.999Z</time></trkpt><trkpt lat="44.331133048319636" lon="9.30625440259852"><ele>110.0</ele><time>2026-05-01T08:34:34.999Z</time></trkpt><trkpt lat="44.33116267448594" lon="9.306602547224976"><ele>110.0</ele><time>2026-05-01T08:34:35.999Z</time></trkpt><trkpt lat="44.33114701584041" lon="9.30702109695992"><ele>106.0</ele><time>2026-05-01T08:34:36.999Z</time></trkpt><trkpt lat="44.33113035517722" lon="9.307386315258958"><ele>102.0</ele><time>2026-05-01T08:34:37.999Z</time></trkpt><trkpt lat="44.331095220872726" lon="9.307750139437406"><ele>97.5</ele><time>2026-05-01T08:34:38.999Z</time></trkpt><trkpt lat="44.33103981906493" lon="9.308123088378006"><ele>93.0</ele><time>2026-05-01T08:34:39.999Z</time></trkpt><trkpt lat="44.33096882094618" lon="9.308486587641552"><ele>93.0</ele><time>2026-05-01T08:34:40.999Z</time></trkpt><trkpt lat="44.33087888689242" lon="9.308862896488723"><ele>93.0</ele><time>2026-05-01T08:34:41.999Z</time></trkpt><trkpt lat="44.33079507066117" lon="9.309237252194123"><ele>83.5</ele><time>2026-05-01T08:34:42.999Z</time></trkpt><trkpt lat="44.33071697929849" lon="9.309612124873324"><ele>74.0</ele><time>2026-05-01T08:34:43.999Z</time></trkpt><trkpt lat="44.33063207586293" lon="9.309990648129737"><ele>76.0</ele><time>2026-05-01T08:34:44.999Z</time></trkpt><trkpt lat="44.33055513155199" lon="9.31036236750221"><ele>78.0</ele><time>2026-05-01T08:34:45.999Z</time></trkpt><trkpt lat="44.33048405940652" lon="9.310733637254849"><ele>78.0</ele><time>2026-05-01T08:34:46.999Z</time></trkpt><trkpt lat="44.330404356051666" lon="9.311106487925619"><ele>78.0</ele><time>2026-05-01T08:34:47.999Z</time></trkpt><trkpt lat="44.330317848209106" lon="9.311471133350933"><ele>78.5</ele><time>2026-05-01T08:34:48.999Z</time></trkpt><trkpt lat="44.33023569400248" lon="9.311825320409538"><ele>79.0</ele><time>2026-05-01T08:34:49.999Z</time></trkpt><trkpt lat="44.33014557656929" lon="9.312170129697162"><ele>72.5</ele><time>2026-05-01T08:34:50.999Z</time></trkpt><trkpt lat="44.330052731512346" lon="9.312514889991832"><ele>66.0</ele><time>2026-05-01T08:34:51.999Z</time></trkpt><trkpt lat="44.32995856560606" lon="9.312862748860338"><ele>56.5</ele><time>2026-05-01T08:34:52.999Z</time></trkpt><trkpt lat="44.32985996364489" lon="9.313203115240077"><ele>47.0</ele><time>2026-05-01T08:34:53.999Z</time></trkpt><trkpt lat="44.329759424082276" lon="9.313538943920985"><ele>61.5</ele><time>2026-05-01T08:34:54.999Z</time></trkpt><trkpt lat="44.329656755263066" lon="9.31387316621016"><ele>76.0</ele><time>2026-05-01T08:34:55.999Z</time></trkpt><trkpt lat="44.32954953509583" lon="9.314203653276364"><ele>76.0</ele><time>2026-05-01T08:34:56.999Z</time></trkpt><trkpt lat="44.3294413862263" lon="9.314540635859125"><ele>76.0</ele><time>2026-05-01T08:34:57.999Z</time></trkpt><trkpt lat="44.32933065826015" lon="9.314879862241376"><ele>77.0</ele><time>2026-05-01T08:34:58.999Z</time></trkpt><trkpt lat="44.32920904266483" lon="9.315227150217163"><ele>78.0</ele><time>2026-05-01T08:34:59.999Z</time></trkpt><trkpt lat="44.329084957879935" lon="9.315585432638178"><ele>78.0</ele><time>2026-05-01T08:35:00.999Z</time></trkpt><trkpt lat="44.32896755347334" lon="9.315948517846772"><ele>78.0</ele><time>2026-05-01T08:35:01.999Z</time></trkpt><trkpt lat="44.328848830907894" lon="9.316303668623085"><ele>80.0</ele><time>2026-05-01T08:35:02.999Z</time></trkpt><trkpt lat="44.32872961089573" lon="9.31666021236986"><ele>82.0</ele><time>2026-05-01T08:35:04Z</time></trkpt><trkpt lat="44.32861056665357" lon="9.317016292245722"><ele>69.5</ele><time>2026-05-01T08:35:05Z</time></trkpt><trkpt lat="44.3284837889381" lon="9.317395427980596"><ele>57.0</ele><time>2026-05-01T08:35:06.065Z</time></trkpt><trkpt lat="44.32828163424095" lon="9.318043477083037"><ele>48.0</ele><time>2026-05-01T08:35:08Z</time></trkpt><trkpt lat="44.32813483954262" lon="9.318428087394258"><ele>39.0</ele><time>2026-05-01T08:35:09Z</time></trkpt><trkpt lat="44.328030790546514" lon="9.318787803289641"><ele>29.5</ele><time>2026-05-01T08:35:10Z</time></trkpt><trkpt lat="44.327886833050414" lon="9.319122401296008"><ele>20.0</ele><time>2026-05-01T08:35:11Z</time></trkpt><trkpt lat="44.32773685694886" lon="9.319443830787213"><ele>18.0</ele><time>2026-05-01T08:35:12Z</time></trkpt><trkpt lat="44.32758956717798" lon="9.319770519759823"><ele>16.0</ele><time>2026-05-01T08:35:13Z</time></trkpt><trkpt lat="44.327442113648445" lon="9.32008756646483"><ele>16.0</ele><time>2026-05-01T08:35:14Z</time></trkpt><trkpt lat="44.32729898570107" lon="9.320401052132182"><ele>16.0</ele><time>2026-05-01T08:35:15Z</time></trkpt><trkpt lat="44.327162267192485" lon="9.320717120040076"><ele>12.0</ele><time>2026-05-01T08:35:16Z</time></trkpt><trkpt lat="44.32702893505713" lon="9.321039936857238"><ele>8.0</ele><time>2026-05-01T08:35:17Z</time></trkpt><trkpt lat="44.326905581593564" lon="9.321375156499927"><ele>12.0</ele><time>2026-05-01T08:35:18Z</time></trkpt><trkpt lat="44.326796498005876" lon="9.321722976350754"><ele>16.0</ele><time>2026-05-01T08:35:19Z</time></trkpt><trkpt lat="44.32669546761996" lon="9.322081710950018"><ele>22.0</ele><time>2026-05-01T08:35:20Z</time></trkpt><trkpt lat="44.32660392633812" lon="9.322446416914843"><ele>28.0</ele><time>2026-05-01T08:35:21Z</time></trkpt><trkpt lat="44.32652543269452" lon="9.322819467347891"><ele>32.5</ele><time>2026-05-01T08:35:22Z</time></trkpt><trkpt lat="44.32645275134765" lon="9.323187754309934"><ele>37.0</ele><time>2026-05-01T08:35:23Z</time></trkpt><trkpt lat="44.32638783423374" lon="9.323564212014672"><ele>37.0</ele><time>2026-05-01T08:35:24Z</time></trkpt><trkpt lat="44.32632258447697" lon="9.323928468686335"><ele>37.0</ele><time>2026-05-01T08:35:25Z</time></trkpt><trkpt lat="44.3262593792771" lon="9.324287409153488"><ele>37.0</ele><time>2026-05-01T08:35:26Z</time></trkpt><trkpt lat="44.32619756285338" lon="9.324641761774334"><ele>37.0</ele><time>2026-05-01T08:35:27Z</time></trkpt><trkpt lat="44.32613555303411" lon="9.324996607952787"><ele>40.5</ele><time>2026-05-01T08:35:28Z</time></trkpt><trkpt lat="44.32607287593684" lon="9.325354804244924"><ele>44.0</ele><time>2026-05-01T08:35:29Z</time></trkpt><trkpt lat="44.32600873971396" lon="9.325714310515194"><ele>44.0</ele><time>2026-05-01T08:35:30Z</time></trkpt><trkpt lat="44.32594259137096" lon="9.326075782687496"><ele>44.0</ele><time>2026-05-01T08:35:31Z</time></trkpt><trkpt lat="44.3258765734939" lon="9.32644199588301"><ele>41.0</ele><time>2026-05-01T08:35:32Z</time></trkpt><trkpt lat="44.32581013255624" lon="9.326807744279444"><ele>38.0</ele><time>2026-05-01T08:35:33Z</time></trkpt><trkpt lat="44.32573982401582" lon="9.327176809566462"><ele>37.5</ele><time>2026-05-01T08:35:34Z</time></trkpt><trkpt lat="44.32566398156078" lon="9.327544127331167"><ele>37.0</ele><time>2026-05-01T08:35:35Z</time></trkpt><trkpt lat="44.32558365955188" lon="9.327912812678324"><ele>42.0</ele><time>2026-05-01T08:35:36Z</time></trkpt><trkpt lat="44.325500436607065" lon="9.328280068827295"><ele>47.0</ele><time>2026-05-01T08:35:37Z</time></trkpt><trkpt lat="44.32541159506285" lon="9.328647788791551"><ele>60.0</ele><time>2026-05-01T08:35:38Z</time></trkpt><trkpt lat="44.32532528546056" lon="9.32900469974097"><ele>73.0</ele><time>2026-05-01T08:35:39Z</time></trkpt><trkpt lat="44.32524308661032" lon="9.329331224727463"><ele>73.0</ele><time>2026-05-01T08:35:40Z</time></trkpt><trkpt lat="44.325161226565214" lon="9.3296419429085"><ele>73.0</ele><time>2026-05-01T08:35:41Z</time></trkpt><trkpt lat="44.32507978022039" lon="9.329948181081265"><ele>84.0</ele><time>2026-05-01T08:35:42Z</time></trkpt><trkpt lat="44.32500302439744" lon="9.330256252438767"><ele>95.0</ele><time>2026-05-01T08:35:43Z</time></trkpt><trkpt lat="44.32492683514595" lon="9.330566374638584"><ele>103.0</ele><time>2026-05-01T08:35:44Z</time></trkpt><trkpt lat="44.324855473689304" lon="9.330876904234021"><ele>111.0</ele><time>2026-05-01T08:35:45.065Z</time></trkpt><trkpt lat="44.32478749633084" lon="9.331165601590609"><ele>47.0</ele><time>2026-05-01T08:35:46.065Z</time></trkpt><trkpt lat="44.32343068732293" lon="9.334726278710018"><ele>47.0</ele><time>2026-05-01T08:35:54Z</time></trkpt><trkpt lat="44.32327840573461" lon="9.335097549401679"><ele>47.0</ele><time>2026-05-01T08:35:55Z</time></trkpt><trkpt lat="44.32311888473315" lon="9.335420393808572"><ele>43.0</ele><time>2026-05-01T08:35:56Z</time></trkpt><trkpt lat="44.32295529263304" lon="9.33575832851148"><ele>39.0</ele><time>2026-05-01T08:35:57Z</time></trkpt><trkpt lat="44.32279859127634" lon="9.336091806995807"><ele>48.0</ele><time>2026-05-01T08:35:58Z</time></trkpt><trkpt lat="44.32265274671211" lon="9.336427052683248"><ele>57.0</ele><time>2026-05-01T08:35:59Z</time></trkpt><trkpt lat="44.32250527203907" lon="9.336776518816675"><ele>57.0</ele><time>2026-05-01T08:36:00Z</time></trkpt><trkpt lat="44.32235699374203" lon="9.337130225274507"><ele>57.0</ele><time>2026-05-01T08:36:01Z</time></trkpt><trkpt lat="44.32172480818083" lon="9.338619451962007"><ele>52.0</ele><time>2026-05-01T08:36:04.999Z</time></trkpt><trkpt lat="44.32162696817495" lon="9.338870299640346"><ele>47.0</ele><time>2026-05-01T08:36:05.999Z</time></trkpt><trkpt lat="44.321585400972346" lon="9.339312031904779"><ele>45.0</ele><time>2026-05-01T08:36:06.999Z</time></trkpt><trkpt lat="44.32147071420074" lon="9.339670464914251"><ele>43.0</ele><time>2026-05-01T08:36:07.999Z</time></trkpt><trkpt lat="44.32134262647789" lon="9.340021790371923"><ele>35.0</ele><time>2026-05-01T08:36:08.999Z</time></trkpt><trkpt lat="44.321217561188924" lon="9.340376483964453"><ele>27.0</ele><time>2026-05-01T08:36:09.999Z</time></trkpt><trkpt lat="44.32109208758256" lon="9.340729439181043"><ele>23.5</ele><time>2026-05-01T08:36:10.999Z</time></trkpt><trkpt lat="44.32096055144437" lon="9.341085263975154"><ele>20.0</ele><time>2026-05-01T08:36:11.999Z</time></trkpt><trkpt lat="44.32082708435656" lon="9.341447748244663"><ele>15.0</ele><time>2026-05-01T08:36:12.999Z</time></trkpt><trkpt lat="44.32069472014981" lon="9.341809124937344"><ele>10.0</ele><time>2026-05-01T08:36:13.999Z</time></trkpt><trkpt lat="44.32056100916108" lon="9.342168228594215"><ele>9.0</ele><time>2026-05-01T08:36:14.999Z</time></trkpt><trkpt lat="44.32043178445975" lon="9.342520857047308"><ele>8.0</ele><time>2026-05-01T08:36:15.999Z</time></trkpt><trkpt lat="44.320305298802865" lon="9.342869685321242"><ele>9.0</ele><time>2026-05-01T08:36:16.999Z</time></trkpt><trkpt lat="44.32018013400063" lon="9.343215785084835"><ele>10.0</ele><time>2026-05-01T08:36:17.999Z</time></trkpt><trkpt lat="44.32005271378419" lon="9.343556215364364"><ele>9.0</ele><time>2026-05-01T08:36:18.999Z</time></trkpt><trkpt lat="44.319928844866915" lon="9.34389390748534"><ele>8.0</ele><time>2026-05-01T08:36:19.999Z</time></trkpt><trkpt lat="44.31980560065537" lon="9.34422817302207"><ele>7.5</ele><time>2026-05-01T08:36:20.999Z</time></trkpt><trkpt lat="44.31968358442314" lon="9.344565068822833"><ele>7.0</ele><time>2026-05-01T08:36:21.999Z</time></trkpt><trkpt lat="44.31956114454329" lon="9.34490410032014"><ele>7.0</ele><time>2026-05-01T08:36:22.999Z</time></trkpt><trkpt lat="44.319440795750126" lon="9.34523983636009"><ele>7.0</ele><time>2026-05-01T08:36:23.999Z</time></trkpt><trkpt lat="44.31931830652664" lon="9.34557415278161"><ele>7.0</ele><time>2026-05-01T08:36:24.999Z</time></trkpt><trkpt lat="44.31919504995512" lon="9.345907321888884"><ele>7.0</ele><time>2026-05-01T08:36:25.999Z</time></trkpt><trkpt lat="44.31907275944137" lon="9.346244752383708"><ele>7.0</ele><time>2026-05-01T08:36:26.999Z</time></trkpt><trkpt lat="44.31895113775005" lon="9.346574707149808"><ele>7.0</ele><time>2026-05-01T08:36:27.999Z</time></trkpt><trkpt lat="44.31882873306621" lon="9.346915098555142"><ele>17.0</ele><time>2026-05-01T08:36:28.999Z</time></trkpt><trkpt lat="44.31871096384576" lon="9.34724791302084"><ele>27.0</ele><time>2026-05-01T08:36:29.999Z</time></trkpt><trkpt lat="44.318589808671064" lon="9.34757775475561"><ele>27.0</ele><time>2026-05-01T08:36:30.999Z</time></trkpt><trkpt lat="44.31847442655706" lon="9.347895594171305"><ele>27.0</ele><time>2026-05-01T08:36:31.999Z</time></trkpt><trkpt lat="44.31835658861734" lon="9.348203592441443"><ele>31.0</ele><time>2026-05-01T08:36:32.999Z</time></trkpt><trkpt lat="44.31824037040895" lon="9.348504126427823"><ele>35.0</ele><time>2026-05-01T08:36:33.999Z</time></trkpt><trkpt lat="44.31812889659441" lon="9.348796838883636"><ele>39.5</ele><time>2026-05-01T08:36:34.999Z</time></trkpt><trkpt lat="44.318009529134024" lon="9.349097336209788"><ele>44.0</ele><time>2026-05-01T08:36:35.999Z</time></trkpt><trkpt lat="44.31788126950888" lon="9.349402697187523"><ele>44.0</ele><time>2026-05-01T08:36:36.999Z</time></trkpt><trkpt lat="44.31774821436004" lon="9.349707605177196"><ele>44.0</ele><time>2026-05-01T08:36:37.999Z</time></trkpt><trkpt lat="44.31761020628054" lon="9.35001841557334"><ele>44.0</ele><time>2026-05-01T08:36:38.999Z</time></trkpt><trkpt lat="44.317467142574344" lon="9.35033249549247"><ele>44.0</ele><time>2026-05-01T08:36:39.999Z</time></trkpt><trkpt lat="44.31732545799172" lon="9.35065832418608"><ele>36.5</ele><time>2026-05-01T08:36:40.999Z</time></trkpt><trkpt lat="44.31717897629953" lon="9.350982838174458"><ele>29.0</ele><time>2026-05-01T08:36:41.999Z</time></trkpt><trkpt lat="44.317034071331264" lon="9.35130985432926"><ele>30.5</ele><time>2026-05-01T08:36:42.999Z</time></trkpt><trkpt lat="44.31688610497412" lon="9.351636517527945"><ele>32.0</ele><time>2026-05-01T08:36:43.999Z</time></trkpt><trkpt lat="44.316742436848116" lon="9.351958969075946"><ele>34.0</ele><time>2026-05-01T08:36:44.999Z</time></trkpt><trkpt lat="44.31659968599295" lon="9.352273955200532"><ele>36.0</ele><time>2026-05-01T08:36:45.999Z</time></trkpt><trkpt lat="44.3164614082139" lon="9.352566656191046"><ele>33.5</ele><time>2026-05-01T08:36:46.999Z</time></trkpt><trkpt lat="44.31632110174829" lon="9.352843657676624"><ele>31.0</ele><time>2026-05-01T08:36:47.999Z</time></trkpt><trkpt lat="44.31617204521214" lon="9.353115507024839"><ele>31.0</ele><time>2026-05-01T08:36:48.999Z</time></trkpt><trkpt lat="44.316004099683674" lon="9.353397133753893"><ele>31.0</ele><time>2026-05-01T08:36:49.999Z</time></trkpt><trkpt lat="44.31582297836726" lon="9.353683258568884"><ele>31.0</ele><time>2026-05-01T08:36:50.999Z</time></trkpt><trkpt lat="44.31562757771678" lon="9.35397036598716"><ele>31.0</ele><time>2026-05-01T08:36:51.999Z</time></trkpt><trkpt lat="44.31542267813399" lon="9.354269136229544"><ele>34.0</ele><time>2026-05-01T08:36:52.999Z</time></trkpt><trkpt lat="44.315216238680634" lon="9.354557111150369"><ele>37.0</ele><time>2026-05-01T08:36:53.999Z</time></trkpt><trkpt lat="44.315012778745846" lon="9.354847527259171"><ele>37.5</ele><time>2026-05-01T08:36:54.999Z</time></trkpt><trkpt lat="44.31480952302475" lon="9.355136190729214"><ele>38.0</ele><time>2026-05-01T08:36:55.999Z</time></trkpt><trkpt lat="44.31461089662201" lon="9.35542043837335"><ele>47.5</ele><time>2026-05-01T08:36:56.999Z</time></trkpt><trkpt lat="44.31441286293799" lon="9.355706896996338"><ele>57.0</ele><time>2026-05-01T08:36:57.999Z</time></trkpt><trkpt lat="44.31421006806564" lon="9.355983718292505"><ele>57.0</ele><time>2026-05-01T08:36:58.999Z</time></trkpt><trkpt lat="44.314003453804304" lon="9.35625785525375"><ele>57.0</ele><time>2026-05-01T08:36:59.999Z</time></trkpt><trkpt lat="44.31378379665137" lon="9.356534508245092"><ele>57.0</ele><time>2026-05-01T08:37:00.999Z</time></trkpt><trkpt lat="44.31356814521172" lon="9.356810092114568"><ele>57.0</ele><time>2026-05-01T08:37:01.999Z</time></trkpt><trkpt lat="44.313355141887016" lon="9.357090564563856"><ele>58.0</ele><time>2026-05-01T08:37:02.999Z</time></trkpt><trkpt lat="44.31314114003125" lon="9.357365163899042"><ele>59.0</ele><time>2026-05-01T08:37:03.999Z</time></trkpt><trkpt lat="44.31292807855078" lon="9.357637452127651"><ele>48.0</ele><time>2026-05-01T08:37:04.999Z</time></trkpt><trkpt lat="44.31278504304708" lon="9.357864325615544"><ele>37.0</ele><time>2026-05-01T08:37:05.999Z</time></trkpt><trkpt lat="44.31267935476506" lon="9.358168100889111"><ele>37.0</ele><time>2026-05-01T08:37:06.999Z</time></trkpt><trkpt lat="44.31250528882949" lon="9.35843703022034"><ele>37.0</ele><time>2026-05-01T08:37:07.999Z</time></trkpt><trkpt lat="44.312323606105245" lon="9.358692552402633"><ele>39.5</ele><time>2026-05-01T08:37:08.999Z</time></trkpt><trkpt lat="44.31214514944525" lon="9.358955335944794"><ele>42.0</ele><time>2026-05-01T08:37:10Z</time></trkpt><trkpt lat="44.311961416484834" lon="9.359223905264406"><ele>42.0</ele><time>2026-05-01T08:37:11Z</time></trkpt><trkpt lat="44.311770245278346" lon="9.359498409040519"><ele>42.0</ele><time>2026-05-01T08:37:12Z</time></trkpt><trkpt lat="44.3115830824709" lon="9.359769521945264"><ele>55.5</ele><time>2026-05-01T08:37:13Z</time></trkpt><trkpt lat="44.31139334759152" lon="9.360044618462133"><ele>69.0</ele><time>2026-05-01T08:37:14Z</time></trkpt><trkpt lat="44.31120213094911" lon="9.360319538667328"><ele>63.5</ele><time>2026-05-01T08:37:15Z</time></trkpt><trkpt lat="44.31101064468668" lon="9.360590063563127"><ele>58.0</ele><time>2026-05-01T08:37:16Z</time></trkpt><trkpt lat="44.31082207943996" lon="9.360854753265182"><ele>58.0</ele><time>2026-05-01T08:37:17Z</time></trkpt><trkpt lat="44.31063430870753" lon="9.361117199395276"><ele>58.0</ele><time>2026-05-01T08:37:18Z</time></trkpt><trkpt lat="44.31045079688328" lon="9.361376730873976"><ele>56.0</ele><time>2026-05-01T08:37:19Z</time></trkpt><trkpt lat="44.31026445199654" lon="9.361637138042719"><ele>54.0</ele><time>2026-05-01T08:37:20Z</time></trkpt><trkpt lat="44.310080012276615" lon="9.361898059678007"><ele>54.0</ele><time>2026-05-01T08:37:21Z</time></trkpt><trkpt lat="44.309894750060046" lon="9.362163637289376"><ele>54.0</ele><time>2026-05-01T08:37:22Z</time></trkpt><trkpt lat="44.30970529776219" lon="9.362432410491738"><ele>53.0</ele><time>2026-05-01T08:37:23Z</time></trkpt><trkpt lat="44.30951125407443" lon="9.362708395575826"><ele>52.0</ele><time>2026-05-01T08:37:24Z</time></trkpt><trkpt lat="44.30931553601593" lon="9.362984726250051"><ele>56.5</ele><time>2026-05-01T08:37:25Z</time></trkpt><trkpt lat="44.30912306036176" lon="9.36325976778683"><ele>61.0</ele><time>2026-05-01T08:37:26Z</time></trkpt><trkpt lat="44.30893264773916" lon="9.36353435371859"><ele>65.5</ele><time>2026-05-01T08:37:27Z</time></trkpt><trkpt lat="44.308742839552316" lon="9.36381326138042"><ele>70.0</ele><time>2026-05-01T08:37:28Z</time></trkpt><trkpt lat="44.308555618880476" lon="9.364098381732205"><ele>70.0</ele><time>2026-05-01T08:37:29Z</time></trkpt><trkpt lat="44.30837320969157" lon="9.364392410630995"><ele>70.0</ele><time>2026-05-01T08:37:30Z</time></trkpt><trkpt lat="44.30819547531844" lon="9.364689395688464"><ele>81.5</ele><time>2026-05-01T08:37:31Z</time></trkpt><trkpt lat="44.30802064656792" lon="9.36499063506995"><ele>93.0</ele><time>2026-05-01T08:37:32Z</time></trkpt><trkpt lat="44.30784802242468" lon="9.365290178091412"><ele>88.0</ele><time>2026-05-01T08:37:33Z</time></trkpt><trkpt lat="44.30768020046384" lon="9.365579739070066"><ele>83.0</ele><time>2026-05-01T08:37:34Z</time></trkpt><trkpt lat="44.30751806144465" lon="9.365862058288519"><ele>83.0</ele><time>2026-05-01T08:37:35Z</time></trkpt><trkpt lat="44.30735728496038" lon="9.366139216499931"><ele>83.0</ele><time>2026-05-01T08:37:36Z</time></trkpt><trkpt lat="44.307201144940436" lon="9.366411830810863"><ele>93.5</ele><time>2026-05-01T08:37:37Z</time></trkpt><trkpt lat="44.307046352444424" lon="9.366680861285566"><ele>104.0</ele><time>2026-05-01T08:37:38Z</time></trkpt><trkpt lat="44.30689263000491" lon="9.36694848668192"><ele>102.0</ele><time>2026-05-01T08:37:39Z</time></trkpt><trkpt lat="44.3067417998805" lon="9.367215052433728"><ele>100.0</ele><time>2026-05-01T08:37:40Z</time></trkpt><trkpt lat="44.30659456651416" lon="9.367485610493528"><ele>100.0</ele><time>2026-05-01T08:37:41Z</time></trkpt><trkpt lat="44.306448638434254" lon="9.367762056610871"><ele>100.0</ele><time>2026-05-01T08:37:42Z</time></trkpt><trkpt lat="44.30630240849309" lon="9.368042130314269"><ele>110.0</ele><time>2026-05-01T08:37:43Z</time></trkpt><trkpt lat="44.30616022147899" lon="9.36833371622707"><ele>120.0</ele><time>2026-05-01T08:37:44Z</time></trkpt><trkpt lat="44.30602595911104" lon="9.368636263616384"><ele>126.5</ele><time>2026-05-01T08:37:45Z</time></trkpt><trkpt lat="44.30589915890501" lon="9.368952937060495"><ele>133.0</ele><time>2026-05-01T08:37:46Z</time></trkpt><trkpt lat="44.305779437344924" lon="9.369280254025643"><ele>133.0</ele><time>2026-05-01T08:37:47Z</time></trkpt><trkpt lat="44.30566049785646" lon="9.369636205721033"><ele>133.0</ele><time>2026-05-01T08:37:48.064Z</time></trkpt><trkpt lat="44.30555869671738" lon="9.369978811586511"><ele>141.5</ele><time>2026-05-01T08:37:49.061Z</time></trkpt><trkpt lat="44.30545990512743" lon="9.370324211120675"><ele>150.0</ele><time>2026-05-01T08:37:50.062Z</time></trkpt><trkpt lat="44.30536401974575" lon="9.370670576414174"><ele>161.0</ele><time>2026-05-01T08:37:51.06Z</time></trkpt><trkpt lat="44.30527032926848" lon="9.371021905852635"><ele>172.0</ele><time>2026-05-01T08:37:52.059Z</time></trkpt><trkpt lat="44.305175898437525" lon="9.371371852875033"><ele>298.0</ele><time>2026-05-01T08:37:53.048Z</time></trkpt><trkpt lat="44.30422863961667" lon="9.374725370355726"><ele>110.0</ele><time>2026-05-01T08:38:04.359Z</time></trkpt><trkpt lat="44.302465253581886" lon="9.381990318652383"><ele>107.5</ele><time>2026-05-01T08:38:22.999Z</time></trkpt><trkpt lat="44.302344989783805" lon="9.382334425901282"><ele>105.0</ele><time>2026-05-01T08:38:23.999Z</time></trkpt><trkpt lat="44.302156404043494" lon="9.382611727729275"><ele>105.5</ele><time>2026-05-01T08:38:24.999Z</time></trkpt><trkpt lat="44.301964333362164" lon="9.38286304852427"><ele>106.0</ele><time>2026-05-01T08:38:25.999Z</time></trkpt><trkpt lat="44.30174543864041" lon="9.38310345129512"><ele>106.0</ele><time>2026-05-01T08:38:26.999Z</time></trkpt><trkpt lat="44.3015162267082" lon="9.383317953934279"><ele>106.0</ele><time>2026-05-01T08:38:27.999Z</time></trkpt><trkpt lat="44.30127354934782" lon="9.383505496317513"><ele>96.5</ele><time>2026-05-01T08:38:28.999Z</time></trkpt><trkpt lat="44.301030111455866" lon="9.3836737165977"><ele>87.0</ele><time>2026-05-01T08:38:29.999Z</time></trkpt><trkpt lat="44.30076795322593" lon="9.38380564967289"><ele>95.5</ele><time>2026-05-01T08:38:30.999Z</time></trkpt><trkpt lat="44.30050086227681" lon="9.383907616369964"><ele>104.0</ele><time>2026-05-01T08:38:31.999Z</time></trkpt><trkpt lat="44.30023908641726" lon="9.383988828331038"><ele>104.0</ele><time>2026-05-01T08:38:32.999Z</time></trkpt><trkpt lat="44.29998131828825" lon="9.384040516979173"><ele>104.0</ele><time>2026-05-01T08:38:33.999Z</time></trkpt><trkpt lat="44.299731422379516" lon="9.384069389160624"><ele>104.5</ele><time>2026-05-01T08:38:34.999Z</time></trkpt><trkpt lat="44.29948163458223" lon="9.384077788526032"><ele>105.0</ele><time>2026-05-01T08:38:35.999Z</time></trkpt><trkpt lat="44.29923104550509" lon="9.384064414251533"><ele>105.0</ele><time>2026-05-01T08:38:36.999Z</time></trkpt><trkpt lat="44.29898212352639" lon="9.384034057167698"><ele>105.0</ele><time>2026-05-01T08:38:37.999Z</time></trkpt><trkpt lat="44.29872653279708" lon="9.38399448848963"><ele>107.5</ele><time>2026-05-01T08:38:38.999Z</time></trkpt><trkpt lat="44.29846998717204" lon="9.38395829306411"><ele>110.0</ele><time>2026-05-01T08:38:39.999Z</time></trkpt><trkpt lat="44.298214919497966" lon="9.383924084524429"><ele>106.5</ele><time>2026-05-01T08:38:40.999Z</time></trkpt><trkpt lat="44.297961684422724" lon="9.383886533180023"><ele>103.0</ele><time>2026-05-01T08:38:41.999Z</time></trkpt><trkpt lat="44.29770912208425" lon="9.383849675938034"><ele>90.5</ele><time>2026-05-01T08:38:42.999Z</time></trkpt><trkpt lat="44.29745718568143" lon="9.383813756734726"><ele>78.0</ele><time>2026-05-01T08:38:43.999Z</time></trkpt><trkpt lat="44.29720654759993" lon="9.383779266287476"><ele>72.5</ele><time>2026-05-01T08:38:44.999Z</time></trkpt><trkpt lat="44.29695716552929" lon="9.383745950096998"><ele>67.0</ele><time>2026-05-01T08:38:45.999Z</time></trkpt><trkpt lat="44.29670592480262" lon="9.383721358053561"><ele>67.0</ele><time>2026-05-01T08:38:46.999Z</time></trkpt><trkpt lat="44.29645506064742" lon="9.383717366187527"><ele>67.0</ele><time>2026-05-01T08:38:47.999Z</time></trkpt><trkpt lat="44.2962018150144" lon="9.383727971257839"><ele>67.5</ele><time>2026-05-01T08:38:48.999Z</time></trkpt><trkpt lat="44.29594849289794" lon="9.383759098234746"><ele>68.0</ele><time>2026-05-01T08:38:49.999Z</time></trkpt><trkpt lat="44.295698504263" lon="9.383800879750192"><ele>81.0</ele><time>2026-05-01T08:38:50.999Z</time></trkpt><trkpt lat="44.29545188164461" lon="9.383857275484687"><ele>94.0</ele><time>2026-05-01T08:38:51.999Z</time></trkpt><trkpt lat="44.295208824567815" lon="9.383931334316589"><ele>94.0</ele><time>2026-05-01T08:38:52.999Z</time></trkpt><trkpt lat="44.29497035785599" lon="9.384020643389864"><ele>94.0</ele><time>2026-05-01T08:38:53.999Z</time></trkpt><trkpt lat="44.294729897245084" lon="9.384124715763562"><ele>97.0</ele><time>2026-05-01T08:38:54.999Z</time></trkpt><trkpt lat="44.29449091760602" lon="9.38424545435863"><ele>100.0</ele><time>2026-05-01T08:38:55.999Z</time></trkpt><trkpt lat="44.294261189072294" lon="9.38437864349051"><ele>100.0</ele><time>2026-05-01T08:38:56.999Z</time></trkpt><trkpt lat="44.29403331428711" lon="9.384527156746369"><ele>100.0</ele><time>2026-05-01T08:38:57.999Z</time></trkpt><trkpt lat="44.29380588048829" lon="9.384693681492069"><ele>100.0</ele><time>2026-05-01T08:38:58.999Z</time></trkpt><trkpt lat="44.2935808721503" lon="9.384877757592932"><ele>100.0</ele><time>2026-05-01T08:38:59.999Z</time></trkpt><trkpt lat="44.29336273033511" lon="9.385078916999472"><ele>100.0</ele><time>2026-05-01T08:39:00.999Z</time></trkpt><trkpt lat="44.29315320239255" lon="9.385293921402926"><ele>100.0</ele><time>2026-05-01T08:39:01.999Z</time></trkpt><trkpt lat="44.29295271797498" lon="9.38552039141078"><ele>96.5</ele><time>2026-05-01T08:39:02.999Z</time></trkpt><trkpt lat="44.29276047522899" lon="9.385751859484854"><ele>93.0</ele><time>2026-05-01T08:39:03.999Z</time></trkpt><trkpt lat="44.292568839731366" lon="9.385981063701662"><ele>93.0</ele><time>2026-05-01T08:39:04.999Z</time></trkpt><trkpt lat="44.292375909104855" lon="9.386208092030495"><ele>93.0</ele><time>2026-05-01T08:39:05.999Z</time></trkpt><trkpt lat="44.29218555400107" lon="9.386432275016489"><ele>98.5</ele><time>2026-05-01T08:39:06.999Z</time></trkpt><trkpt lat="44.29199539851846" lon="9.38665955804539"><ele>104.0</ele><time>2026-05-01T08:39:07.999Z</time></trkpt><trkpt lat="44.291808310157116" lon="9.386892490354416"><ele>104.0</ele><time>2026-05-01T08:39:08.999Z</time></trkpt><trkpt lat="44.29162725770609" lon="9.387133838603598"><ele>104.0</ele><time>2026-05-01T08:39:09.999Z</time></trkpt><trkpt lat="44.29144789040902" lon="9.387383791418175"><ele>126.0</ele><time>2026-05-01T08:39:10.999Z</time></trkpt><trkpt lat="44.29127079904349" lon="9.387635885007612"><ele>148.0</ele><time>2026-05-01T08:39:11.999Z</time></trkpt><trkpt lat="44.29108837505276" lon="9.387896141671654"><ele>153.0</ele><time>2026-05-01T08:39:12.999Z</time></trkpt><trkpt lat="44.29090445095013" lon="9.388160443419721"><ele>158.0</ele><time>2026-05-01T08:39:13.999Z</time></trkpt><trkpt lat="44.29072037830065" lon="9.388426610699765"><ele>171.5</ele><time>2026-05-01T08:39:14.999Z</time></trkpt><trkpt lat="44.29053508115653" lon="9.388695046917134"><ele>185.0</ele><time>2026-05-01T08:39:16Z</time></trkpt><trkpt lat="44.29035025387042" lon="9.388965106319715"><ele>193.0</ele><time>2026-05-01T08:39:17Z</time></trkpt><trkpt lat="44.29015531494481" lon="9.389251022721941"><ele>201.0</ele><time>2026-05-01T08:39:18.062Z</time></trkpt><trkpt lat="44.28997195405953" lon="9.389519284258421"><ele>208.0</ele><time>2026-05-01T08:39:19.064Z</time></trkpt><trkpt lat="44.28978800564083" lon="9.389784065201168"><ele>215.0</ele><time>2026-05-01T08:39:20.065Z</time></trkpt><trkpt lat="44.28960372243149" lon="9.390046968971962"><ele>218.0</ele><time>2026-05-01T08:39:21.065Z</time></trkpt><trkpt lat="44.28769836158978" lon="9.392723324750303"><ele>156.0</ele><time>2026-05-01T08:39:26.124Z</time></trkpt><trkpt lat="44.28700987795523" lon="9.393713386110623"><ele>102.0</ele><time>2026-05-01T08:39:27.124Z</time></trkpt><trkpt lat="44.286321893286654" lon="9.394703277469059"><ele>109.0</ele><time>2026-05-01T08:39:28.123Z</time></trkpt><trkpt lat="44.285650211376925" lon="9.395715184523583"><ele>142.0</ele><time>2026-05-01T08:39:29.124Z</time></trkpt><trkpt lat="44.285159101653605" lon="9.396904729526284"><ele>110.0</ele><time>2026-05-01T08:39:30.123Z</time></trkpt><trkpt lat="44.28491480145919" lon="9.398230424027497"><ele>127.0</ele><time>2026-05-01T08:39:31.119Z</time></trkpt><trkpt lat="44.28559101266974" lon="9.395835010378915"><ele>127.0</ele><time>2026-05-01T08:39:42Z</time></trkpt><trkpt lat="44.28544645443462" lon="9.39611524114779"><ele>127.0</ele><time>2026-05-01T08:39:43Z</time></trkpt><trkpt lat="44.28473194104081" lon="9.39905381660435"><ele>107.5</ele><time>2026-05-01T08:39:50.999Z</time></trkpt><trkpt lat="44.28471327867563" lon="9.399484042298875"><ele>88.0</ele><time>2026-05-01T08:39:51.999Z</time></trkpt><trkpt lat="44.28474608056686" lon="9.399944816504128"><ele>85.5</ele><time>2026-05-01T08:39:52.999Z</time></trkpt><trkpt lat="44.28469873404062" lon="9.400312824191843"><ele>83.0</ele><time>2026-05-01T08:39:53.999Z</time></trkpt><trkpt lat="44.28467071115978" lon="9.400714130797999"><ele>79.5</ele><time>2026-05-01T08:39:54.999Z</time></trkpt><trkpt lat="44.28462426629088" lon="9.401114101833906"><ele>76.0</ele><time>2026-05-01T08:39:55.999Z</time></trkpt><trkpt lat="44.28457741972793" lon="9.401544945849047"><ele>74.5</ele><time>2026-05-01T08:39:56.999Z</time></trkpt><trkpt lat="44.28453134472655" lon="9.401994792082945"><ele>73.0</ele><time>2026-05-01T08:39:57.999Z</time></trkpt><trkpt lat="44.284485129559734" lon="9.402453921143964"><ele>73.0</ele><time>2026-05-01T08:39:58.999Z</time></trkpt><trkpt lat="44.28443679390378" lon="9.402908253224284"><ele>73.0</ele><time>2026-05-01T08:39:59.999Z</time></trkpt><trkpt lat="44.284387603059" lon="9.403351951068366"><ele>75.0</ele><time>2026-05-01T08:40:00.999Z</time></trkpt><trkpt lat="44.284341004449" lon="9.40379293256231"><ele>77.0</ele><time>2026-05-01T08:40:01.999Z</time></trkpt><trkpt lat="44.284292517686865" lon="9.404227228251894"><ele>70.5</ele><time>2026-05-01T08:40:02.999Z</time></trkpt><trkpt lat="44.28424457273423" lon="9.404649337278107"><ele>64.0</ele><time>2026-05-01T08:40:03.999Z</time></trkpt><trkpt lat="44.28419843083127" lon="9.405054562111612"><ele>64.0</ele><time>2026-05-01T08:40:04.999Z</time></trkpt><trkpt lat="44.284154010975996" lon="9.405437504146137"><ele>64.0</ele><time>2026-05-01T08:40:05.999Z</time></trkpt><trkpt lat="44.28411371388823" lon="9.40580440014068"><ele>70.0</ele><time>2026-05-01T08:40:06.999Z</time></trkpt><trkpt lat="44.28407263164828" lon="9.40616548781601"><ele>76.0</ele><time>2026-05-01T08:40:07.999Z</time></trkpt><trkpt lat="44.28402304462136" lon="9.406526546383956"><ele>78.0</ele><time>2026-05-01T08:40:08.999Z</time></trkpt><trkpt lat="44.28395700419385" lon="9.406878514832508"><ele>80.0</ele><time>2026-05-01T08:40:09.999Z</time></trkpt><trkpt lat="44.28387480979282" lon="9.407219901564515"><ele>68.0</ele><time>2026-05-01T08:40:10.999Z</time></trkpt><trkpt lat="44.283778810115365" lon="9.40755520850091"><ele>56.0</ele><time>2026-05-01T08:40:11.999Z</time></trkpt><trkpt lat="44.2836594168359" lon="9.407877908327842"><ele>57.5</ele><time>2026-05-01T08:40:12.999Z</time></trkpt><trkpt lat="44.28352111056519" lon="9.408190510909229"><ele>59.0</ele><time>2026-05-01T08:40:13.999Z</time></trkpt><trkpt lat="44.28336736592023" lon="9.408491073146129"><ele>59.0</ele><time>2026-05-01T08:40:14.999Z</time></trkpt><trkpt lat="44.28319529662354" lon="9.40877293846047"><ele>59.0</ele><time>2026-05-01T08:40:15.999Z</time></trkpt><trkpt lat="44.28301085709789" lon="9.409038176023302"><ele>52.5</ele><time>2026-05-01T08:40:16.999Z</time></trkpt><trkpt lat="44.28281377941043" lon="9.409285179926524"><ele>46.0</ele><time>2026-05-01T08:40:17.999Z</time></trkpt><trkpt lat="44.28261110800741" lon="9.409519086510656"><ele>45.0</ele><time>2026-05-01T08:40:18.999Z</time></trkpt><trkpt lat="44.28240045261524" lon="9.409748783060692"><ele>44.0</ele><time>2026-05-01T08:40:19.999Z</time></trkpt><trkpt lat="44.282192755980276" lon="9.409977972092003"><ele>44.0</ele><time>2026-05-01T08:40:20.999Z</time></trkpt><trkpt lat="44.28198331528769" lon="9.41021539326799"><ele>44.0</ele><time>2026-05-01T08:40:21.999Z</time></trkpt><trkpt lat="44.2817759248567" lon="9.410451809310521"><ele>49.0</ele><time>2026-05-01T08:40:22.999Z</time></trkpt><trkpt lat="44.28157037929699" lon="9.410689591585236"><ele>54.0</ele><time>2026-05-01T08:40:23.999Z</time></trkpt><trkpt lat="44.28136325588203" lon="9.410933581254683"><ele>47.0</ele><time>2026-05-01T08:40:24.999Z</time></trkpt><trkpt lat="44.28116959679009" lon="9.411198628645566"><ele>40.0</ele><time>2026-05-01T08:40:25.999Z</time></trkpt><trkpt lat="44.280990266797865" lon="9.411498558542993"><ele>40.0</ele><time>2026-05-01T08:40:26.999Z</time></trkpt><trkpt lat="44.280823780730394" lon="9.411819328814458"><ele>40.0</ele><time>2026-05-01T08:40:27.999Z</time></trkpt><trkpt lat="44.280660400216775" lon="9.412159976600458"><ele>29.5</ele><time>2026-05-01T08:40:28.999Z</time></trkpt><trkpt lat="44.28049040926832" lon="9.412533385297024"><ele>19.0</ele><time>2026-05-01T08:40:29.999Z</time></trkpt><trkpt lat="44.28033174623504" lon="9.41289597826879"><ele>23.0</ele><time>2026-05-01T08:40:30.999Z</time></trkpt><trkpt lat="44.28018087015868" lon="9.413247486930757"><ele>27.0</ele><time>2026-05-01T08:40:31.999Z</time></trkpt><trkpt lat="44.28003742757825" lon="9.41358885747027"><ele>36.0</ele><time>2026-05-01T08:40:32.999Z</time></trkpt><trkpt lat="44.279897704702066" lon="9.413927167184076"><ele>45.0</ele><time>2026-05-01T08:40:33.999Z</time></trkpt><trkpt lat="44.27975923698794" lon="9.41426024565001"><ele>50.0</ele><time>2026-05-01T08:40:34.999Z</time></trkpt><trkpt lat="44.27962556324751" lon="9.414572408192708"><ele>55.0</ele><time>2026-05-01T08:40:35.999Z</time></trkpt><trkpt lat="44.27949506773961" lon="9.414872730196224"><ele>55.0</ele><time>2026-05-01T08:40:36.999Z</time></trkpt><trkpt lat="44.27936615353083" lon="9.415160089713197"><ele>55.0</ele><time>2026-05-01T08:40:37.999Z</time></trkpt><trkpt lat="44.27924168941716" lon="9.415435187058943"><ele>45.0</ele><time>2026-05-01T08:40:38.999Z</time></trkpt><trkpt lat="44.27911118750044" lon="9.41569078092202"><ele>35.0</ele><time>2026-05-01T08:40:39.999Z</time></trkpt><trkpt lat="44.27896251181229" lon="9.415945650429556"><ele>33.666666666666664</ele><time>2026-05-01T08:40:40.999Z</time></trkpt><trkpt lat="44.27880675433387" lon="9.416156558841443"><ele>32.333333333333336</ele><time>2026-05-01T08:40:41.999Z</time></trkpt><trkpt lat="44.278667792452296" lon="9.416363856032895"><ele>31.0</ele><time>2026-05-01T08:40:42.999Z</time></trkpt><trkpt lat="44.27852041438195" lon="9.416547519887951"><ele>31.0</ele><time>2026-05-01T08:40:43.999Z</time></trkpt><trkpt lat="44.2783711119107" lon="9.416722358582891"><ele>31.0</ele><time>2026-05-01T08:40:44.999Z</time></trkpt><trkpt lat="44.27822366000666" lon="9.416891941861493"><ele>31.0</ele><time>2026-05-01T08:40:45.999Z</time></trkpt><trkpt lat="44.27807181971433" lon="9.417069815489745"><ele>26.333333333333336</ele><time>2026-05-01T08:40:46.999Z</time></trkpt><trkpt lat="44.277912268611665" lon="9.417256886507689"><ele>21.666666666666668</ele><time>2026-05-01T08:40:47.999Z</time></trkpt><trkpt lat="44.27775433346507" lon="9.417441524657146"><ele>17.0</ele><time>2026-05-01T08:40:48.999Z</time></trkpt><trkpt lat="44.27758415590982" lon="9.417641099171169"><ele>17.0</ele><time>2026-05-01T08:40:49.999Z</time></trkpt><trkpt lat="44.277403273424135" lon="9.417847403283242"><ele>17.0</ele><time>2026-05-01T08:40:50.999Z</time></trkpt><trkpt lat="44.27723583907923" lon="9.418036361571588"><ele>17.0</ele><time>2026-05-01T08:40:51.999Z</time></trkpt><trkpt lat="44.277066543224876" lon="9.418225553524577"><ele>15.666666666666668</ele><time>2026-05-01T08:40:52.999Z</time></trkpt><trkpt lat="44.276905641298974" lon="9.418403956011907"><ele>14.333333333333332</ele><time>2026-05-01T08:40:53.999Z</time></trkpt><trkpt lat="44.27676362617612" lon="9.418563657250264"><ele>13.0</ele><time>2026-05-01T08:40:54.999Z</time></trkpt><trkpt lat="44.276640044411046" lon="9.418696740770002"><ele>13.0</ele><time>2026-05-01T08:40:55.999Z</time></trkpt><trkpt lat="44.2765217271275" lon="9.418815447628651"><ele>13.0</ele><time>2026-05-01T08:40:56.999Z</time></trkpt><trkpt lat="44.27640375944739" lon="9.418915273768851"><ele>13.0</ele><time>2026-05-01T08:40:57.999Z</time></trkpt><trkpt lat="44.27628906152646" lon="9.418993424520133"><ele>13.0</ele><time>2026-05-01T08:40:58.999Z</time></trkpt><trkpt lat="44.276178744949135" lon="9.41905506767299"><ele>13.499999999999998</ele><time>2026-05-01T08:40:59.999Z</time></trkpt><trkpt lat="44.27607405414765" lon="9.419100433035004"><ele>14.0</ele><time>2026-05-01T08:41:00.999Z</time></trkpt><trkpt lat="44.275975869983604" lon="9.41914868437809"><ele>14.5</ele><time>2026-05-01T08:41:01.999Z</time></trkpt><trkpt lat="44.275901001960015" lon="9.419210511698617"><ele>15.0</ele><time>2026-05-01T08:41:02.999Z</time></trkpt><trkpt lat="44.27584998007919" lon="9.41928427667537"><ele>15.499999999999998</ele><time>2026-05-01T08:41:03.999Z</time></trkpt><trkpt lat="44.27580589444283" lon="9.419354102927866"><ele>16.0</ele><time>2026-05-01T08:41:04.999Z</time></trkpt><trkpt lat="44.27575923083767" lon="9.419422078784931"><ele>16.0</ele><time>2026-05-01T08:41:05.999Z</time></trkpt><trkpt lat="44.27565373591394" lon="9.419496696164483"><ele>16.0</ele><time>2026-05-01T08:41:07.999Z</time></trkpt><trkpt lat="44.27557719048345" lon="9.419523696839926"><ele>16.0</ele><time>2026-05-01T08:41:09.999Z</time></trkpt><trkpt lat="44.275490729461374" lon="9.41954089741938"><ele>16.0</ele><time>2026-05-01T08:41:11.999Z</time></trkpt><trkpt lat="44.27540647431264" lon="9.419582947217963"><ele>16.0</ele><time>2026-05-01T08:41:13.999Z</time></trkpt><trkpt lat="44.275339000413105" lon="9.419639240630111"><ele>16.166666666666664</ele><time>2026-05-01T08:41:15.998Z</time></trkpt><trkpt lat="44.275272997910314" lon="9.419705440879925"><ele>16.333333333333332</ele><time>2026-05-01T08:41:17.998Z</time></trkpt><trkpt lat="44.27521967212946" lon="9.419774435457718"><ele>16.5</ele><time>2026-05-01T08:41:19.998Z</time></trkpt><trkpt lat="44.275151574088525" lon="9.41984673883671"><ele>16.666666666666668</ele><time>2026-05-01T08:41:23Z</time></trkpt><trkpt lat="44.2750984093838" lon="9.419897167119359"><ele>16.833333333333336</ele><time>2026-05-01T08:41:28Z</time></trkpt><trkpt lat="44.27505479695288" lon="9.419974978008181"><ele>17.0</ele><time>2026-05-01T09:01:57.998Z</time></trkpt><trkpt lat="44.275012192371626" lon="9.42006368408424"><ele>17.0</ele><time>2026-05-01T09:01:59.998Z</time></trkpt><trkpt lat="44.27496060890169" lon="9.420163940474838"><ele>17.0</ele><time>2026-05-01T09:02:01.998Z</time></trkpt><trkpt lat="44.27495852202961" lon="9.420323650358005"><ele>17.0</ele><time>2026-05-01T09:02:03.998Z</time></trkpt><trkpt lat="44.27495277818802" lon="9.420428676859894"><ele>17.0</ele><time>2026-05-01T09:02:07.998Z</time></trkpt><trkpt lat="44.2749237435128" lon="9.420564586999632"><ele>17.0</ele><time>2026-05-01T09:02:10.998Z</time></trkpt><trkpt lat="44.27491412015224" lon="9.420672154932033"><ele>17.0</ele><time>2026-05-01T09:02:13.998Z</time></trkpt><trkpt lat="44.27486982539746" lon="9.4207575373381"><ele>17.0</ele><time>2026-05-01T09:02:15.998Z</time></trkpt><trkpt lat="44.27477354695427" lon="9.420879104240557"><ele>17.0</ele><time>2026-05-01T09:02:17.998Z</time></trkpt><trkpt lat="44.27469930700508" lon="9.420973345918377"><ele>17.0</ele><time>2026-05-01T09:02:18.998Z</time></trkpt><trkpt lat="44.27462033802065" lon="9.421076236135736"><ele>17.0</ele><time>2026-05-01T09:02:19.998Z</time></trkpt><trkpt lat="44.274535543985024" lon="9.421173941638699"><ele>17.0</ele><time>2026-05-01T09:02:20.999Z</time></trkpt><trkpt lat="44.27444333822206" lon="9.421285297554553"><ele>17.0</ele><time>2026-05-01T09:02:21.999Z</time></trkpt><trkpt lat="44.274337986163935" lon="9.42141898554974"><ele>17.0</ele><time>2026-05-01T09:02:22.999Z</time></trkpt><trkpt lat="44.27422861830651" lon="9.42154730342585"><ele>17.0</ele><time>2026-05-01T09:02:23.999Z</time></trkpt><trkpt lat="44.274117991268454" lon="9.421680048538954"><ele>17.0</ele><time>2026-05-01T09:02:24.999Z</time></trkpt><trkpt lat="44.27400207351499" lon="9.421817870014056"><ele>17.0</ele><time>2026-05-01T09:02:25.999Z</time></trkpt><trkpt lat="44.273880111721766" lon="9.421965303151527"><ele>17.0</ele><time>2026-05-01T09:02:26.999Z</time></trkpt><trkpt lat="44.2737486675335" lon="9.422129233829866"><ele>20.0</ele><time>2026-05-01T09:02:27.999Z</time></trkpt><trkpt lat="44.27360325974867" lon="9.422305385468036"><ele>23.0</ele><time>2026-05-01T09:02:28.999Z</time></trkpt><trkpt lat="44.27345776618764" lon="9.42248343583367"><ele>26.0</ele><time>2026-05-01T09:02:29.999Z</time></trkpt><trkpt lat="44.273308949069616" lon="9.42266153957606"><ele>26.0</ele><time>2026-05-01T09:02:30.999Z</time></trkpt><trkpt lat="44.27316060743713" lon="9.422842611560192"><ele>26.0</ele><time>2026-05-01T09:02:31.999Z</time></trkpt><trkpt lat="44.2730066142116" lon="9.423027900266286"><ele>26.0</ele><time>2026-05-01T09:02:32.999Z</time></trkpt><trkpt lat="44.27284943413659" lon="9.423222250894748"><ele>25.333333333333332</ele><time>2026-05-01T09:02:33.999Z</time></trkpt><trkpt lat="44.27269169087321" lon="9.42341896694748"><ele>24.666666666666664</ele><time>2026-05-01T09:02:34.999Z</time></trkpt><trkpt lat="44.27252813419772" lon="9.423622139369915"><ele>24.0</ele><time>2026-05-01T09:02:35.999Z</time></trkpt><trkpt lat="44.27235175783664" lon="9.423828725362972"><ele>20.5</ele><time>2026-05-01T09:02:36.999Z</time></trkpt><trkpt lat="44.27217748984875" lon="9.424045541950905"><ele>17.0</ele><time>2026-05-01T09:02:37.999Z</time></trkpt><trkpt lat="44.271997257699404" lon="9.42424913604463"><ele>17.0</ele><time>2026-05-01T09:02:38.999Z</time></trkpt><trkpt lat="44.27181247415386" lon="9.424458528037746"><ele>17.0</ele><time>2026-05-01T09:02:39.999Z</time></trkpt><trkpt lat="44.271624659043724" lon="9.424668012271235"><ele>16.5</ele><time>2026-05-01T09:02:40.999Z</time></trkpt><trkpt lat="44.271431610243276" lon="9.424883764683116"><ele>16.0</ele><time>2026-05-01T09:02:41.999Z</time></trkpt><trkpt lat="44.2712360764397" lon="9.425099818321103"><ele>16.0</ele><time>2026-05-01T09:02:42.999Z</time></trkpt><trkpt lat="44.27103271439052" lon="9.425318419226759"><ele>16.0</ele><time>2026-05-01T09:02:43.999Z</time></trkpt><trkpt lat="44.27082952435175" lon="9.425537931059278"><ele>17.0</ele><time>2026-05-01T09:02:44.999Z</time></trkpt><trkpt lat="44.27061905223218" lon="9.425757148973128"><ele>18.0</ele><time>2026-05-01T09:02:45.999Z</time></trkpt><trkpt lat="44.27040678676724" lon="9.425978902637539"><ele>16.0</ele><time>2026-05-01T09:02:46.999Z</time></trkpt><trkpt lat="44.270190636739216" lon="9.426202786109206"><ele>14.0</ele><time>2026-05-01T09:02:47.999Z</time></trkpt><trkpt lat="44.26997415771919" lon="9.426435174088423"><ele>13.0</ele><time>2026-05-01T09:02:48.999Z</time></trkpt><trkpt lat="44.26975662497021" lon="9.426672146933278"><ele>12.0</ele><time>2026-05-01T09:02:49.999Z</time></trkpt><trkpt lat="44.2695322494601" lon="9.426930898039187"><ele>12.5</ele><time>2026-05-01T09:02:50.999Z</time></trkpt><trkpt lat="44.26931264578148" lon="9.427187402095376"><ele>13.0</ele><time>2026-05-01T09:02:51.999Z</time></trkpt><trkpt lat="44.269112961596804" lon="9.42748136328051"><ele>13.5</ele><time>2026-05-01T09:02:52.999Z</time></trkpt><trkpt lat="44.26891752764203" lon="9.4277946459605"><ele>14.0</ele><time>2026-05-01T09:02:53.999Z</time></trkpt><trkpt lat="44.26873681395093" lon="9.428123018621879"><ele>14.0</ele><time>2026-05-01T09:02:54.999Z</time></trkpt><trkpt lat="44.26857168292301" lon="9.428466917499685"><ele>14.0</ele><time>2026-05-01T09:02:55.999Z</time></trkpt><trkpt lat="44.2684154503421" lon="9.428821152369395"><ele>16.0</ele><time>2026-05-01T09:02:56.999Z</time></trkpt><trkpt lat="44.268274608637604" lon="9.429186381516452"><ele>18.0</ele><time>2026-05-01T09:02:57.999Z</time></trkpt><trkpt lat="44.26815090412086" lon="9.429560556500466"><ele>27.0</ele><time>2026-05-01T09:02:58.999Z</time></trkpt><trkpt lat="44.268043719464806" lon="9.429945913865241"><ele>36.0</ele><time>2026-05-01T09:02:59.999Z</time></trkpt><trkpt lat="44.26795238109107" lon="9.43033657625131"><ele>40.5</ele><time>2026-05-01T09:03:00.999Z</time></trkpt><trkpt lat="44.2678715049468" lon="9.430733257986793"><ele>45.0</ele><time>2026-05-01T09:03:01.999Z</time></trkpt><trkpt lat="44.26780571336227" lon="9.431135827847651"><ele>45.0</ele><time>2026-05-01T09:03:02.999Z</time></trkpt><trkpt lat="44.2677577559513" lon="9.431545694376648"><ele>45.0</ele><time>2026-05-01T09:03:03.999Z</time></trkpt><trkpt lat="44.26772260321858" lon="9.43196245033264"><ele>44.5</ele><time>2026-05-01T09:03:04.999Z</time></trkpt><trkpt lat="44.267704470910694" lon="9.432384936503023"><ele>44.0</ele><time>2026-05-01T09:03:05.999Z</time></trkpt><trkpt lat="44.267707432369455" lon="9.432808873777736"><ele>45.0</ele><time>2026-05-01T09:03:06.999Z</time></trkpt><trkpt lat="44.26772879769553" lon="9.433230793665158"><ele>46.0</ele><time>2026-05-01T09:03:07.999Z</time></trkpt><trkpt lat="44.26776323446927" lon="9.43365689587143"><ele>47.5</ele><time>2026-05-01T09:03:08.999Z</time></trkpt><trkpt lat="44.267811823925655" lon="9.434082490842279"><ele>49.0</ele><time>2026-05-01T09:03:09.999Z</time></trkpt><trkpt lat="44.267872469450516" lon="9.434505734002174"><ele>49.0</ele><time>2026-05-01T09:03:10.999Z</time></trkpt><trkpt lat="44.26793752904832" lon="9.43493377679525"><ele>49.0</ele><time>2026-05-01T09:03:11.999Z</time></trkpt><trkpt lat="44.26799898977067" lon="9.435359689541063"><ele>49.5</ele><time>2026-05-01T09:03:12.999Z</time></trkpt><trkpt lat="44.268060727810266" lon="9.43578328412231"><ele>50.0</ele><time>2026-05-01T09:03:13.999Z</time></trkpt><trkpt lat="44.26811654395162" lon="9.436204335811007"><ele>45.0</ele><time>2026-05-01T09:03:14.999Z</time></trkpt><trkpt lat="44.26817804723373" lon="9.436630116146157"><ele>40.0</ele><time>2026-05-01T09:03:15.999Z</time></trkpt><trkpt lat="44.26823586022114" lon="9.437058329701687"><ele>43.5</ele><time>2026-05-01T09:03:16.999Z</time></trkpt><trkpt lat="44.26830022650497" lon="9.437492570641107"><ele>47.0</ele><time>2026-05-01T09:03:17.999Z</time></trkpt><trkpt lat="44.26836511460129" lon="9.437928372429898"><ele>50.5</ele><time>2026-05-01T09:03:18.999Z</time></trkpt><trkpt lat="44.268425381743064" lon="9.438366185547517"><ele>54.0</ele><time>2026-05-01T09:03:19.999Z</time></trkpt><trkpt lat="44.26848523567719" lon="9.438803873220142"><ele>55.5</ele><time>2026-05-01T09:03:20.999Z</time></trkpt><trkpt lat="44.26854687656839" lon="9.439238744108831"><ele>57.0</ele><time>2026-05-01T09:03:21.999Z</time></trkpt><trkpt lat="44.268609481217176" lon="9.439674456516206"><ele>57.0</ele><time>2026-05-01T09:03:22.999Z</time></trkpt><trkpt lat="44.268672148446505" lon="9.440114258542733"><ele>57.0</ele><time>2026-05-01T09:03:23.999Z</time></trkpt><trkpt lat="44.2687237621566" lon="9.440556860502188"><ele>48.5</ele><time>2026-05-01T09:03:24.999Z</time></trkpt><trkpt lat="44.2687646339824" lon="9.441002091214804"><ele>40.0</ele><time>2026-05-01T09:03:25.999Z</time></trkpt><trkpt lat="44.268793262090725" lon="9.441446983738913"><ele>40.0</ele><time>2026-05-01T09:03:26.999Z</time></trkpt><trkpt lat="44.268810628715194" lon="9.441890488639977"><ele>40.0</ele><time>2026-05-01T09:03:27.999Z</time></trkpt><trkpt lat="44.26880974588948" lon="9.44233288000099"><ele>55.0</ele><time>2026-05-01T09:03:28.999Z</time></trkpt><trkpt lat="44.26879158737692" lon="9.442777866187598"><ele>70.0</ele><time>2026-05-01T09:03:29.999Z</time></trkpt><trkpt lat="44.268759791140994" lon="9.443215155076736"><ele>74.5</ele><time>2026-05-01T09:03:30.999Z</time></trkpt><trkpt lat="44.268715027853105" lon="9.44365360415163"><ele>79.0</ele><time>2026-05-01T09:03:31.999Z</time></trkpt><trkpt lat="44.26865577568448" lon="9.444091324178563"><ele>79.0</ele><time>2026-05-01T09:03:32.999Z</time></trkpt><trkpt lat="44.26858331510656" lon="9.444532478129618"><ele>79.0</ele><time>2026-05-01T09:03:33.999Z</time></trkpt><trkpt lat="44.26850137665549" lon="9.444969024039445"><ele>77.5</ele><time>2026-05-01T09:03:34.999Z</time></trkpt><trkpt lat="44.26841113208022" lon="9.445402774365354"><ele>76.0</ele><time>2026-05-01T09:03:35.999Z</time></trkpt><trkpt lat="44.268321316614376" lon="9.445836982572803"><ele>69.5</ele><time>2026-05-01T09:03:36.999Z</time></trkpt><trkpt lat="44.26823541518211" lon="9.446270113236018"><ele>63.0</ele><time>2026-05-01T09:03:37.999Z</time></trkpt><trkpt lat="44.268163476952374" lon="9.446705685572818"><ele>70.0</ele><time>2026-05-01T09:03:38.999Z</time></trkpt><trkpt lat="44.268110446662675" lon="9.447148326589762"><ele>77.0</ele><time>2026-05-01T09:03:39.999Z</time></trkpt><trkpt lat="44.268074338922304" lon="9.447596795098328"><ele>67.5</ele><time>2026-05-01T09:03:40.999Z</time></trkpt><trkpt lat="44.26805029346305" lon="9.44804792108949"><ele>58.0</ele><time>2026-05-01T09:03:41.999Z</time></trkpt><trkpt lat="44.268040103888616" lon="9.448504080139635"><ele>49.0</ele><time>2026-05-01T09:03:42.999Z</time></trkpt><trkpt lat="44.26804714958919" lon="9.4489613296963"><ele>40.0</ele><time>2026-05-01T09:03:43.999Z</time></trkpt><trkpt lat="44.26807198430184" lon="9.449416861482428"><ele>43.5</ele><time>2026-05-01T09:03:44.999Z</time></trkpt><trkpt lat="44.26811376581157" lon="9.449870016097728"><ele>47.0</ele><time>2026-05-01T09:03:45.999Z</time></trkpt><trkpt lat="44.26817098313589" lon="9.450320223315245"><ele>57.5</ele><time>2026-05-01T09:03:46.999Z</time></trkpt><trkpt lat="44.268243584774766" lon="9.450770582987394"><ele>68.0</ele><time>2026-05-01T09:03:47.999Z</time></trkpt><trkpt lat="44.2683301740713" lon="9.451218133865723"><ele>77.0</ele><time>2026-05-01T09:03:48.999Z</time></trkpt><trkpt lat="44.26842167882845" lon="9.451662134728956"><ele>86.0</ele><time>2026-05-01T09:03:49.999Z</time></trkpt><trkpt lat="44.26850779762003" lon="9.452113933552072"><ele>96.5</ele><time>2026-05-01T09:03:50.998Z</time></trkpt><trkpt lat="44.26858917402711" lon="9.452570303491271"><ele>107.0</ele><time>2026-05-01T09:03:51.998Z</time></trkpt><trkpt lat="44.26866693719295" lon="9.453031358619011"><ele>111.0</ele><time>2026-05-01T09:03:52.998Z</time></trkpt><trkpt lat="44.268744381999575" lon="9.453493815085091"><ele>115.0</ele><time>2026-05-01T09:03:53.998Z</time></trkpt><trkpt lat="44.26881686022334" lon="9.453953438262653"><ele>115.0</ele><time>2026-05-01T09:03:54.998Z</time></trkpt><trkpt lat="44.268908399923724" lon="9.45441920281543"><ele>115.0</ele><time>2026-05-01T09:03:55.998Z</time></trkpt><trkpt lat="44.26903079711613" lon="9.454871451185094"><ele>102.5</ele><time>2026-05-01T09:03:56.998Z</time></trkpt><trkpt lat="44.26912720604211" lon="9.45526255935312"><ele>90.0</ele><time>2026-05-01T09:03:57.998Z</time></trkpt><trkpt lat="44.26922838441598" lon="9.455673309374594"><ele>90.0</ele><time>2026-05-01T09:03:58.998Z</time></trkpt><trkpt lat="44.269319871298386" lon="9.456094271840996"><ele>90.0</ele><time>2026-05-01T09:03:59.998Z</time></trkpt><trkpt lat="44.26940460854224" lon="9.456519349429406"><ele>92.0</ele><time>2026-05-01T09:04:00.998Z</time></trkpt><trkpt lat="44.269479730546976" lon="9.456948711009227"><ele>94.0</ele><time>2026-05-01T09:04:01.998Z</time></trkpt><trkpt lat="44.26955099699775" lon="9.457381952500374"><ele>88.0</ele><time>2026-05-01T09:04:02.998Z</time></trkpt><trkpt lat="44.26961818816646" lon="9.457823340546486"><ele>82.0</ele><time>2026-05-01T09:04:03.998Z</time></trkpt><trkpt lat="44.26968674886209" lon="9.458262141707184"><ele>72.0</ele><time>2026-05-01T09:04:04.998Z</time></trkpt><trkpt lat="44.26975262794017" lon="9.458699151466435"><ele>62.0</ele><time>2026-05-01T09:04:05.998Z</time></trkpt><trkpt lat="44.26982030868322" lon="9.459136315017027"><ele>60.5</ele><time>2026-05-01T09:04:06.998Z</time></trkpt><trkpt lat="44.26988879180085" lon="9.459574227985481"><ele>59.0</ele><time>2026-05-01T09:04:07.998Z</time></trkpt><trkpt lat="44.26995941152742" lon="9.46001260437454"><ele>64.5</ele><time>2026-05-01T09:04:08.998Z</time></trkpt><trkpt lat="44.27003150361371" lon="9.460452377180893"><ele>70.0</ele><time>2026-05-01T09:04:09.998Z</time></trkpt><trkpt lat="44.27010359752722" lon="9.460893248656301"><ele>77.0</ele><time>2026-05-01T09:04:10.998Z</time></trkpt><trkpt lat="44.27017258977891" lon="9.461334568139295"><ele>84.0</ele><time>2026-05-01T09:04:11.998Z</time></trkpt><trkpt lat="44.27024442467007" lon="9.461777234566286"><ele>93.5</ele><time>2026-05-01T09:04:12.998Z</time></trkpt><trkpt lat="44.270315751575865" lon="9.462224117703464"><ele>103.0</ele><time>2026-05-01T09:04:13.998Z</time></trkpt><trkpt lat="44.27038736731372" lon="9.462670796164494"><ele>115.0</ele><time>2026-05-01T09:04:14.998Z</time></trkpt><trkpt lat="44.27045682487352" lon="9.463113245667905"><ele>127.0</ele><time>2026-05-01T09:04:15.998Z</time></trkpt><trkpt lat="44.27052489482136" lon="9.463554952550728"><ele>124.0</ele><time>2026-05-01T09:04:16.998Z</time></trkpt><trkpt lat="44.270594163273195" lon="9.463991771961483"><ele>121.0</ele><time>2026-05-01T09:04:17.998Z</time></trkpt><trkpt lat="44.27066451899695" lon="9.464429512011693"><ele>116.0</ele><time>2026-05-01T09:04:18.998Z</time></trkpt><trkpt lat="44.270736139920864" lon="9.464861989420939"><ele>111.0</ele><time>2026-05-01T09:04:19.998Z</time></trkpt><trkpt lat="44.27080620802958" lon="9.465293192528803"><ele>109.5</ele><time>2026-05-01T09:04:20.998Z</time></trkpt><trkpt lat="44.27087223434368" lon="9.465730633685752"><ele>108.0</ele><time>2026-05-01T09:04:21.998Z</time></trkpt><trkpt lat="44.27093330509579" lon="9.466166772369444"><ele>108.5</ele><time>2026-05-01T09:04:22.998Z</time></trkpt><trkpt lat="44.270991984048116" lon="9.466610506660738"><ele>109.0</ele><time>2026-05-01T09:04:23.998Z</time></trkpt><trkpt lat="44.27103924831847" lon="9.46705714145972"><ele>113.5</ele><time>2026-05-01T09:04:24.998Z</time></trkpt><trkpt lat="44.271074073847586" lon="9.467508933643346"><ele>118.0</ele><time>2026-05-01T09:04:25.998Z</time></trkpt><trkpt lat="44.271086536885534" lon="9.467963714287274"><ele>121.0</ele><time>2026-05-01T09:04:26.999Z</time></trkpt><trkpt lat="44.271077650016586" lon="9.468413035007096"><ele>124.0</ele><time>2026-05-01T09:04:27.999Z</time></trkpt><trkpt lat="44.27105924933913" lon="9.46886462048158"><ele>124.0</ele><time>2026-05-01T09:04:28.999Z</time></trkpt><trkpt lat="44.27102892995244" lon="9.469315750145848"><ele>124.0</ele><time>2026-05-01T09:04:29.999Z</time></trkpt><trkpt lat="44.27098170939231" lon="9.46976681197866"><ele>113.5</ele><time>2026-05-01T09:04:30.999Z</time></trkpt><trkpt lat="44.27091992283156" lon="9.470215653823766"><ele>103.0</ele><time>2026-05-01T09:04:31.999Z</time></trkpt><trkpt lat="44.27084355639751" lon="9.47066027272481"><ele>102.5</ele><time>2026-05-01T09:04:32.999Z</time></trkpt><trkpt lat="44.27074800539225" lon="9.471096739138481"><ele>102.0</ele><time>2026-05-01T09:04:33.999Z</time></trkpt><trkpt lat="44.270645836661714" lon="9.471522907664237"><ele>121.5</ele><time>2026-05-01T09:04:34.999Z</time></trkpt><trkpt lat="44.27052893617061" lon="9.471947346163887"><ele>141.0</ele><time>2026-05-01T09:04:35.999Z</time></trkpt><trkpt lat="44.27039804241369" lon="9.47236439770096"><ele>158.0</ele><time>2026-05-01T09:04:36.999Z</time></trkpt><trkpt lat="44.27025342891762" lon="9.472772076074245"><ele>175.0</ele><time>2026-05-01T09:04:37.999Z</time></trkpt><trkpt lat="44.270097474671694" lon="9.473169812203404"><ele>186.5</ele><time>2026-05-01T09:04:38.999Z</time></trkpt><trkpt lat="44.26993176468659" lon="9.473559855843869"><ele>198.0</ele><time>2026-05-01T09:04:39.999Z</time></trkpt><trkpt lat="44.26975999360647" lon="9.473951057579328"><ele>203.5</ele><time>2026-05-01T09:04:40.999Z</time></trkpt><trkpt lat="44.26957857449409" lon="9.474366325583487"><ele>209.0</ele><time>2026-05-01T09:04:42.063Z</time></trkpt><trkpt lat="44.26940732796187" lon="9.4747629942207"><ele>209.0</ele><time>2026-05-01T09:04:43.063Z</time></trkpt><trkpt lat="44.269240446767434" lon="9.475162512246952"><ele>209.0</ele><time>2026-05-01T09:04:44.06Z</time></trkpt><trkpt lat="44.26907612781461" lon="9.475561357163519"><ele>211.0</ele><time>2026-05-01T09:04:45.059Z</time></trkpt><trkpt lat="44.26891654661947" lon="9.475957041731322"><ele>213.0</ele><time>2026-05-01T09:04:46.06Z</time></trkpt><trkpt lat="44.26876808882887" lon="9.47634200775806"><ele>133.0</ele><time>2026-05-01T09:04:47.034Z</time></trkpt><trkpt lat="44.26766988833508" lon="9.47881012890178"><ele>133.0</ele><time>2026-05-01T09:04:52.999Z</time></trkpt><trkpt lat="44.267464173637656" lon="9.479159655390326"><ele>133.0</ele><time>2026-05-01T09:04:53.999Z</time></trkpt><trkpt lat="44.2671120409257" lon="9.479346614605106"><ele>140.0</ele><time>2026-05-01T09:04:54.999Z</time></trkpt><trkpt lat="44.26688553325481" lon="9.479680558733847"><ele>147.0</ele><time>2026-05-01T09:04:55.999Z</time></trkpt><trkpt lat="44.26665878238109" lon="9.479986832068507"><ele>147.5</ele><time>2026-05-01T09:04:56.999Z</time></trkpt><trkpt lat="44.26642416989225" lon="9.480298311944338"><ele>148.0</ele><time>2026-05-01T09:04:57.999Z</time></trkpt><trkpt lat="44.26618995923535" lon="9.48060784284819"><ele>148.0</ele><time>2026-05-01T09:04:58.999Z</time></trkpt><trkpt lat="44.26594548371484" lon="9.480908598658464"><ele>148.0</ele><time>2026-05-01T09:04:59.999Z</time></trkpt><trkpt lat="44.26569560427582" lon="9.481199460377749"><ele>138.5</ele><time>2026-05-01T09:05:00.999Z</time></trkpt><trkpt lat="44.265444489941444" lon="9.481485364765167"><ele>129.0</ele><time>2026-05-01T09:05:01.999Z</time></trkpt><trkpt lat="44.26518402728628" lon="9.48176999929236"><ele>129.0</ele><time>2026-05-01T09:05:02.999Z</time></trkpt><trkpt lat="44.264922936673436" lon="9.482045784567253"><ele>129.0</ele><time>2026-05-01T09:05:03.999Z</time></trkpt><trkpt lat="44.26465675636064" lon="9.482328490924017"><ele>138.5</ele><time>2026-05-01T09:05:04.999Z</time></trkpt><trkpt lat="44.26439572559075" lon="9.48260942570422"><ele>148.0</ele><time>2026-05-01T09:05:05.999Z</time></trkpt><trkpt lat="44.26412097922572" lon="9.482855058487848"><ele>159.0</ele><time>2026-05-01T09:05:06.999Z</time></trkpt><trkpt lat="44.263849393807625" lon="9.483093999778259"><ele>170.0</ele><time>2026-05-01T09:05:07.999Z</time></trkpt><trkpt lat="44.26356864521855" lon="9.483303135363425"><ele>170.0</ele><time>2026-05-01T09:05:08.999Z</time></trkpt><trkpt lat="44.263277798258535" lon="9.483481144998951"><ele>170.0</ele><time>2026-05-01T09:05:09.999Z</time></trkpt><trkpt lat="44.26298177226351" lon="9.483635077661164"><ele>168.0</ele><time>2026-05-01T09:05:10.999Z</time></trkpt><trkpt lat="44.26268053993602" lon="9.483761674626294"><ele>166.0</ele><time>2026-05-01T09:05:11.999Z</time></trkpt><trkpt lat="44.2623742291191" lon="9.483858207801127"><ele>170.0</ele><time>2026-05-01T09:05:12.999Z</time></trkpt><trkpt lat="44.26206309508919" lon="9.48392915885417"><ele>174.0</ele><time>2026-05-01T09:05:13.999Z</time></trkpt><trkpt lat="44.26174920960188" lon="9.483977842011184"><ele>193.0</ele><time>2026-05-01T09:05:14.999Z</time></trkpt><trkpt lat="44.26143186958084" lon="9.484013579642316"><ele>212.0</ele><time>2026-05-01T09:05:15.999Z</time></trkpt><trkpt lat="44.2611105214048" lon="9.484048624573859"><ele>212.0</ele><time>2026-05-01T09:05:16.999Z</time></trkpt><trkpt lat="44.26078574859129" lon="9.484085919610115"><ele>212.0</ele><time>2026-05-01T09:05:17.999Z</time></trkpt><trkpt lat="44.260462733445465" lon="9.484119946408525"><ele>234.5</ele><time>2026-05-01T09:05:18.999Z</time></trkpt><trkpt lat="44.26013960106394" lon="9.484156338258913"><ele>257.0</ele><time>2026-05-01T09:05:19.999Z</time></trkpt><trkpt lat="44.25981794075972" lon="9.484200659374785"><ele>267.5</ele><time>2026-05-01T09:05:20.999Z</time></trkpt><trkpt lat="44.259500969536354" lon="9.484258849457262"><ele>278.0</ele><time>2026-05-01T09:05:21.999Z</time></trkpt><trkpt lat="44.25916808787656" lon="9.484342408347489"><ele>277.0</ele><time>2026-05-01T09:05:23.066Z</time></trkpt><trkpt lat="44.258863450123656" lon="9.484449581002586"><ele>276.0</ele><time>2026-05-01T09:05:24.062Z</time></trkpt><trkpt lat="44.25856467231984" lon="9.484583074148972"><ele>282.5</ele><time>2026-05-01T09:05:25.06Z</time></trkpt><trkpt lat="44.258272046058785" lon="9.484737614340792"><ele>289.0</ele><time>2026-05-01T09:05:26.062Z</time></trkpt><trkpt lat="44.257988005629926" lon="9.484913423327242"><ele>289.0</ele><time>2026-05-01T09:05:27.06Z</time></trkpt><trkpt lat="44.257711863504014" lon="9.485098011393294"><ele>289.0</ele><time>2026-05-01T09:05:28.046Z</time></trkpt><trkpt lat="44.25495387281571" lon="9.489506081237757"><ele>240.0</ele><time>2026-05-01T09:05:40.999Z</time></trkpt><trkpt lat="44.25483803395058" lon="9.489864756875702"><ele>191.0</ele><time>2026-05-01T09:05:41.999Z</time></trkpt><trkpt lat="44.25476240907702" lon="9.490310910595747"><ele>176.0</ele><time>2026-05-01T09:05:42.999Z</time></trkpt><trkpt lat="44.2547111390511" lon="9.490733086800564"><ele>161.0</ele><time>2026-05-01T09:05:43.999Z</time></trkpt><trkpt lat="44.254656962676776" lon="9.491131727951062"><ele>163.0</ele><time>2026-05-01T09:05:44.999Z</time></trkpt><trkpt lat="44.25462621306803" lon="9.491520568396044"><ele>165.0</ele><time>2026-05-01T09:05:45.999Z</time></trkpt><trkpt lat="44.25461674293669" lon="9.49190251012014"><ele>173.0</ele><time>2026-05-01T09:05:46.999Z</time></trkpt><trkpt lat="44.25461705919758" lon="9.492266969144453"><ele>181.0</ele><time>2026-05-01T09:05:47.999Z</time></trkpt><trkpt lat="44.254626512070786" lon="9.492613245418902"><ele>191.5</ele><time>2026-05-01T09:05:48.998Z</time></trkpt><trkpt lat="44.25464107656935" lon="9.49296027982649"><ele>202.0</ele><time>2026-05-01T09:05:49.998Z</time></trkpt><trkpt lat="44.254653259521774" lon="9.493309220100137"><ele>202.0</ele><time>2026-05-01T09:05:50.998Z</time></trkpt><trkpt lat="44.25466525056465" lon="9.493663952473026"><ele>202.0</ele><time>2026-05-01T09:05:51.998Z</time></trkpt><trkpt lat="44.25467878402076" lon="9.494021903276513"><ele>199.0</ele><time>2026-05-01T09:05:52.998Z</time></trkpt><trkpt lat="44.254692854472815" lon="9.49437810499962"><ele>196.0</ele><time>2026-05-01T09:05:53.998Z</time></trkpt><trkpt lat="44.25470910490761" lon="9.494741433366316"><ele>183.0</ele><time>2026-05-01T09:05:54.998Z</time></trkpt><trkpt lat="44.254707845512335" lon="9.495103015209416"><ele>170.0</ele><time>2026-05-01T09:05:55.998Z</time></trkpt><trkpt lat="44.25471477280633" lon="9.49548296125128"><ele>167.5</ele><time>2026-05-01T09:05:56.998Z</time></trkpt><trkpt lat="44.25472531506196" lon="9.495871285730649"><ele>165.0</ele><time>2026-05-01T09:05:57.998Z</time></trkpt><trkpt lat="44.25473784834043" lon="9.496267477515364"><ele>171.0</ele><time>2026-05-01T09:05:58.998Z</time></trkpt><trkpt lat="44.25474838394261" lon="9.496669995016939"><ele>177.0</ele><time>2026-05-01T09:05:59.998Z</time></trkpt><trkpt lat="44.25476125194071" lon="9.497079155959382"><ele>184.5</ele><time>2026-05-01T09:06:00.998Z</time></trkpt><trkpt lat="44.25477197172535" lon="9.497495351677776"><ele>192.0</ele><time>2026-05-01T09:06:01.998Z</time></trkpt><trkpt lat="44.25478221128302" lon="9.497916934726213"><ele>210.5</ele><time>2026-05-01T09:06:02.998Z</time></trkpt><trkpt lat="44.254791854276526" lon="9.498340069141552"><ele>229.0</ele><time>2026-05-01T09:06:03.998Z</time></trkpt><trkpt lat="44.25480002144288" lon="9.49877028504381"><ele>242.5</ele><time>2026-05-01T09:06:04.998Z</time></trkpt><trkpt lat="44.25480741297027" lon="9.499199901328463"><ele>256.0</ele><time>2026-05-01T09:06:05.998Z</time></trkpt><trkpt lat="44.25481315744002" lon="9.499631826808498"><ele>267.5</ele><time>2026-05-01T09:06:06.998Z</time></trkpt><trkpt lat="44.25481755192732" lon="9.500068009663378"><ele>279.0</ele><time>2026-05-01T09:06:07.998Z</time></trkpt><trkpt lat="44.25481949103364" lon="9.500507601651307"><ele>289.5</ele><time>2026-05-01T09:06:08.998Z</time></trkpt><trkpt lat="44.254819299092" lon="9.500977791562898"><ele>300.0</ele><time>2026-05-01T09:06:10.062Z</time></trkpt><trkpt lat="44.254817445907264" lon="9.501422475541206"><ele>303.5</ele><time>2026-05-01T09:06:11.062Z</time></trkpt><trkpt lat="44.25481348386052" lon="9.501868434977895"><ele>307.0</ele><time>2026-05-01T09:06:12.064Z</time></trkpt><trkpt lat="44.25480618097452" lon="9.502310717929223"><ele>295.0</ele><time>2026-05-01T09:06:13.062Z</time></trkpt><trkpt lat="44.25479677555125" lon="9.502753086531161"><ele>283.0</ele><time>2026-05-01T09:06:14.061Z</time></trkpt><trkpt lat="44.25456902808375" lon="9.505138429286031"><ele>252.0</ele><time>2026-05-01T09:06:18.998Z</time></trkpt><trkpt lat="44.25451785445319" lon="9.50559353248939"><ele>221.0</ele><time>2026-05-01T09:06:19.998Z</time></trkpt><trkpt lat="44.25446414495023" lon="9.50603767837274"><ele>225.5</ele><time>2026-05-01T09:06:20.998Z</time></trkpt><trkpt lat="44.25439720896042" lon="9.50647743399038"><ele>230.0</ele><time>2026-05-01T09:06:21.998Z</time></trkpt><trkpt lat="44.254332820202094" lon="9.506913896580299"><ele>228.0</ele><time>2026-05-01T09:06:22.998Z</time></trkpt><trkpt lat="44.25426458352842" lon="9.50735311974289"><ele>226.0</ele><time>2026-05-01T09:06:23.998Z</time></trkpt><trkpt lat="44.25419480294253" lon="9.507791539399685"><ele>231.0</ele><time>2026-05-01T09:06:24.998Z</time></trkpt><trkpt lat="44.254117027057745" lon="9.508228949141996"><ele>236.0</ele><time>2026-05-01T09:06:25.998Z</time></trkpt><trkpt lat="44.254031357748964" lon="9.508667239142047"><ele>242.5</ele><time>2026-05-01T09:06:26.998Z</time></trkpt><trkpt lat="44.25393670792112" lon="9.509101111974472"><ele>249.0</ele><time>2026-05-01T09:06:27.998Z</time></trkpt><trkpt lat="44.25383658398186" lon="9.509534588428586"><ele>260.5</ele><time>2026-05-01T09:06:28.998Z</time></trkpt><trkpt lat="44.25373179204886" lon="9.509973627609154"><ele>272.0</ele><time>2026-05-01T09:06:29.998Z</time></trkpt><trkpt lat="44.253622441421236" lon="9.510410474769207"><ele>278.5</ele><time>2026-05-01T09:06:30.998Z</time></trkpt><trkpt lat="44.25350838804824" lon="9.51084422783395"><ele>285.0</ele><time>2026-05-01T09:06:31.998Z</time></trkpt><trkpt lat="44.253390021127395" lon="9.511273095166787"><ele>285.0</ele><time>2026-05-01T09:06:32.999Z</time></trkpt><trkpt lat="44.25326086305481" lon="9.511722237939804"><ele>285.0</ele><time>2026-05-01T09:06:34.056Z</time></trkpt><trkpt lat="44.25313448540903" lon="9.512143520439794"><ele>266.5</ele><time>2026-05-01T09:06:35.057Z</time></trkpt><trkpt lat="44.25300488963342" lon="9.512556085650074"><ele>248.0</ele><time>2026-05-01T09:06:36.054Z</time></trkpt><trkpt lat="44.252872279175214" lon="9.512961660659569"><ele>245.0</ele><time>2026-05-01T09:06:37.053Z</time></trkpt><trkpt lat="44.25249397674292" lon="9.514180934610403"><ele>249.0</ele><time>2026-05-01T09:06:39.999Z</time></trkpt><trkpt lat="44.25234138173059" lon="9.514572550892307"><ele>253.0</ele><time>2026-05-01T09:06:40.999Z</time></trkpt><trkpt lat="44.25215775486505" lon="9.514933097659382"><ele>245.0</ele><time>2026-05-01T09:06:41.999Z</time></trkpt><trkpt lat="44.25198302732952" lon="9.515299566192429"><ele>237.0</ele><time>2026-05-01T09:06:42.999Z</time></trkpt><trkpt lat="44.25181326570913" lon="9.515679984033929"><ele>237.0</ele><time>2026-05-01T09:06:43.999Z</time></trkpt><trkpt lat="44.25163823913538" lon="9.51606188373713"><ele>237.0</ele><time>2026-05-01T09:06:44.999Z</time></trkpt><trkpt lat="44.25145163683015" lon="9.516436021519294"><ele>236.0</ele><time>2026-05-01T09:06:45.999Z</time></trkpt><trkpt lat="44.25126445856835" lon="9.516803592512028"><ele>235.0</ele><time>2026-05-01T09:06:46.999Z</time></trkpt><trkpt lat="44.25107332538425" lon="9.517171846541435"><ele>242.0</ele><time>2026-05-01T09:06:47.999Z</time></trkpt><trkpt lat="44.25087783385797" lon="9.51754226216622"><ele>249.0</ele><time>2026-05-01T09:06:48.999Z</time></trkpt><trkpt lat="44.25067281216064" lon="9.517899561995183"><ele>251.0</ele><time>2026-05-01T09:06:49.999Z</time></trkpt><trkpt lat="44.25045789867746" lon="9.518241011369023"><ele>253.0</ele><time>2026-05-01T09:06:50.999Z</time></trkpt><trkpt lat="44.250247184546154" lon="9.518593193574599"><ele>260.0</ele><time>2026-05-01T09:06:51.999Z</time></trkpt><trkpt lat="44.25003247489559" lon="9.518941446445732"><ele>267.0</ele><time>2026-05-01T09:06:52.999Z</time></trkpt><trkpt lat="44.24981718194446" lon="9.51929308418814"><ele>267.5</ele><time>2026-05-01T09:06:53.999Z</time></trkpt><trkpt lat="44.24960002609384" lon="9.5196402279548"><ele>268.0</ele><time>2026-05-01T09:06:54.999Z</time></trkpt><trkpt lat="44.24938314806117" lon="9.519987252817064"><ele>268.0</ele><time>2026-05-01T09:06:55.999Z</time></trkpt><trkpt lat="44.24917196645855" lon="9.520339168423593"><ele>268.0</ele><time>2026-05-01T09:06:56.999Z</time></trkpt><trkpt lat="44.248972545283635" lon="9.520701401368221"><ele>298.5</ele><time>2026-05-01T09:06:57.999Z</time></trkpt><trkpt lat="44.24878182579508" lon="9.521081110559368"><ele>329.0</ele><time>2026-05-01T09:06:58.999Z</time></trkpt><trkpt lat="44.24859832952658" lon="9.52147135167844"><ele>340.0</ele><time>2026-05-01T09:06:59.999Z</time></trkpt><trkpt lat="44.248424610620624" lon="9.521871133282554"><ele>351.0</ele><time>2026-05-01T09:07:00.999Z</time></trkpt><trkpt lat="44.24826244369006" lon="9.522281700196082"><ele>358.5</ele><time>2026-05-01T09:07:01.999Z</time></trkpt><trkpt lat="44.248111582966985" lon="9.522703456093517"><ele>366.0</ele><time>2026-05-01T09:07:02.999Z</time></trkpt><trkpt lat="44.247975114936935" lon="9.523135033994901"><ele>369.5</ele><time>2026-05-01T09:07:03.999Z</time></trkpt><trkpt lat="44.247844996610134" lon="9.523599877049051"><ele>373.0</ele><time>2026-05-01T09:07:05.057Z</time></trkpt><trkpt lat="44.247731621359335" lon="9.524038105429446"><ele>282.0</ele><time>2026-05-01T09:07:06.053Z</time></trkpt><trkpt lat="44.245435837324244" lon="9.539365751429798"><ele>285.5</ele><time>2026-05-01T09:07:38.999Z</time></trkpt><trkpt lat="44.24537404037521" lon="9.539787984606793"><ele>289.0</ele><time>2026-05-01T09:07:39.999Z</time></trkpt><trkpt lat="44.24531444199202" lon="9.54023815674826"><ele>288.5</ele><time>2026-05-01T09:07:40.999Z</time></trkpt><trkpt lat="44.24523850973622" lon="9.540698451958878"><ele>288.0</ele><time>2026-05-01T09:07:41.999Z</time></trkpt><trkpt lat="44.245163807312586" lon="9.541146367796582"><ele>279.5</ele><time>2026-05-01T09:07:42.999Z</time></trkpt><trkpt lat="44.245087577123776" lon="9.541591277669257"><ele>271.0</ele><time>2026-05-01T09:07:43.999Z</time></trkpt><trkpt lat="44.24499875702039" lon="9.542029725676715"><ele>271.0</ele><time>2026-05-01T09:07:44.999Z</time></trkpt><trkpt lat="44.244895334502985" lon="9.542463497065729"><ele>271.0</ele><time>2026-05-01T09:07:45.999Z</time></trkpt><trkpt lat="44.24477765993904" lon="9.542889555119798"><ele>263.5</ele><time>2026-05-01T09:07:46.999Z</time></trkpt><trkpt lat="44.244647739139175" lon="9.543303327789962"><ele>256.0</ele><time>2026-05-01T09:07:47.999Z</time></trkpt><trkpt lat="44.244503891827684" lon="9.543707790744072"><ele>268.5</ele><time>2026-05-01T09:07:48.999Z</time></trkpt><trkpt lat="44.24435150231615" lon="9.544109169051358"><ele>281.0</ele><time>2026-05-01T09:07:49.999Z</time></trkpt><trkpt lat="44.244187673765325" lon="9.544503011354431"><ele>289.5</ele><time>2026-05-01T09:07:50.999Z</time></trkpt><trkpt lat="44.24401592923941" lon="9.544895044554934"><ele>298.0</ele><time>2026-05-01T09:07:51.999Z</time></trkpt><trkpt lat="44.24383830633162" lon="9.545288724100665"><ele>302.5</ele><time>2026-05-01T09:07:52.999Z</time></trkpt><trkpt lat="44.24366080478468" lon="9.545685414789244"><ele>307.0</ele><time>2026-05-01T09:07:53.999Z</time></trkpt><trkpt lat="44.24348468944183" lon="9.546083027717968"><ele>312.0</ele><time>2026-05-01T09:07:54.998Z</time></trkpt><trkpt lat="44.243309758634496" lon="9.546479781735291"><ele>317.0</ele><time>2026-05-01T09:07:55.998Z</time></trkpt><trkpt lat="44.24313631542231" lon="9.546871478007265"><ele>309.0</ele><time>2026-05-01T09:07:56.998Z</time></trkpt><trkpt lat="44.24296574226566" lon="9.547265308166283"><ele>301.0</ele><time>2026-05-01T09:07:57.998Z</time></trkpt><trkpt lat="44.24280670312697" lon="9.547659719775615"><ele>306.5</ele><time>2026-05-01T09:07:58.998Z</time></trkpt><trkpt lat="44.24265738753606" lon="9.548062970893337"><ele>312.0</ele><time>2026-05-01T09:07:59.998Z</time></trkpt><trkpt lat="44.242518492096735" lon="9.548468998616936"><ele>321.5</ele><time>2026-05-01T09:08:00.998Z</time></trkpt><trkpt lat="44.24239362734099" lon="9.548883065672346"><ele>331.0</ele><time>2026-05-01T09:08:01.998Z</time></trkpt><trkpt lat="44.242281992986904" lon="9.549310108584846"><ele>345.5</ele><time>2026-05-01T09:08:02.998Z</time></trkpt><trkpt lat="44.24217825552081" lon="9.549742424450944"><ele>360.0</ele><time>2026-05-01T09:08:03.998Z</time></trkpt><trkpt lat="44.24208847826595" lon="9.550179150422522"><ele>361.0</ele><time>2026-05-01T09:08:04.998Z</time></trkpt><trkpt lat="44.24201542011425" lon="9.550621173287555"><ele>362.0</ele><time>2026-05-01T09:08:05.998Z</time></trkpt><trkpt lat="44.24195955116478" lon="9.551065829443537"><ele>364.0</ele><time>2026-05-01T09:08:06.998Z</time></trkpt><trkpt lat="44.24191704185376" lon="9.551542933482962"><ele>366.0</ele><time>2026-05-01T09:08:08.066Z</time></trkpt><trkpt lat="44.24189226617431" lon="9.551991535701063"><ele>375.0</ele><time>2026-05-01T09:08:09.063Z</time></trkpt><trkpt lat="44.24187815961211" lon="9.552442498275285"><ele>384.0</ele><time>2026-05-01T09:08:10.061Z</time></trkpt><trkpt lat="44.24187175424344" lon="9.552895403926383"><ele>347.0</ele><time>2026-05-01T09:08:11.061Z</time></trkpt><trkpt lat="44.24223069583548" lon="9.556919021866705"><ele>295.0</ele><time>2026-05-01T09:08:15.101Z</time></trkpt><trkpt lat="44.242402837991726" lon="9.558457700945969"><ele>283.0</ele><time>2026-05-01T09:08:22.998Z</time></trkpt><trkpt lat="44.24248512407534" lon="9.55894744452355"><ele>271.0</ele><time>2026-05-01T09:08:23.998Z</time></trkpt><trkpt lat="44.242550685955976" lon="9.559409645923878"><ele>273.5</ele><time>2026-05-01T09:08:24.998Z</time></trkpt><trkpt lat="44.242603563586826" lon="9.559855784009864"><ele>276.0</ele><time>2026-05-01T09:08:25.998Z</time></trkpt><trkpt lat="44.24265779772133" lon="9.560301470404443"><ele>286.5</ele><time>2026-05-01T09:08:26.998Z</time></trkpt><trkpt lat="44.242702182005814" lon="9.560748975265371"><ele>297.0</ele><time>2026-05-01T09:08:27.998Z</time></trkpt><trkpt lat="44.24273945104272" lon="9.561195808015908"><ele>312.0</ele><time>2026-05-01T09:08:28.998Z</time></trkpt><trkpt lat="44.242763007309875" lon="9.561637948072043"><ele>327.0</ele><time>2026-05-01T09:08:29.998Z</time></trkpt><trkpt lat="44.242768005027074" lon="9.562084922112344"><ele>343.5</ele><time>2026-05-01T09:08:30.998Z</time></trkpt><trkpt lat="44.2427500244019" lon="9.562535497099507"><ele>360.0</ele><time>2026-05-01T09:08:31.998Z</time></trkpt><trkpt lat="44.2427143830197" lon="9.562987488162523"><ele>382.0</ele><time>2026-05-01T09:08:32.998Z</time></trkpt><trkpt lat="44.24266236041626" lon="9.563439954294232"><ele>404.0</ele><time>2026-05-01T09:08:33.998Z</time></trkpt><trkpt lat="44.24259332439144" lon="9.563891402953711"><ele>427.5</ele><time>2026-05-01T09:08:34.998Z</time></trkpt><trkpt lat="44.24250412056997" lon="9.564337289903927"><ele>451.0</ele><time>2026-05-01T09:08:35.998Z</time></trkpt><trkpt lat="44.24238730305346" lon="9.564801307294504"><ele>448.0</ele><time>2026-05-01T09:08:37.052Z</time></trkpt><trkpt lat="44.24226579720029" lon="9.565234513636383"><ele>445.0</ele><time>2026-05-01T09:08:38.048Z</time></trkpt><trkpt lat="44.24083898014127" lon="9.568874551411678"><ele>312.0</ele><time>2026-05-01T09:08:46.998Z</time></trkpt><trkpt lat="44.24040103282182" lon="9.569080458125208"><ele>312.0</ele><time>2026-05-01T09:08:47.998Z</time></trkpt><trkpt lat="44.24023746186289" lon="9.569499579376517"><ele>312.0</ele><time>2026-05-01T09:08:48.999Z</time></trkpt><trkpt lat="44.24004616116484" lon="9.569890949773999"><ele>316.5</ele><time>2026-05-01T09:08:49.999Z</time></trkpt><trkpt lat="44.23986851312426" lon="9.570273861405765"><ele>321.0</ele><time>2026-05-01T09:08:50.999Z</time></trkpt><trkpt lat="44.2396956161969" lon="9.570665260275428"><ele>321.5</ele><time>2026-05-01T09:08:51.999Z</time></trkpt><trkpt lat="44.239530016798305" lon="9.571064811047664"><ele>322.0</ele><time>2026-05-01T09:08:52.999Z</time></trkpt><trkpt lat="44.23937552682937" lon="9.5714713346155"><ele>332.0</ele><time>2026-05-01T09:08:53.999Z</time></trkpt><trkpt lat="44.239229195385086" lon="9.571888067418875"><ele>342.0</ele><time>2026-05-01T09:08:54.999Z</time></trkpt><trkpt lat="44.23909065134423" lon="9.57231590269883"><ele>359.5</ele><time>2026-05-01T09:08:55.999Z</time></trkpt><trkpt lat="44.23895922614501" lon="9.57275534660366"><ele>377.0</ele><time>2026-05-01T09:08:56.999Z</time></trkpt><trkpt lat="44.23883673719649" lon="9.573200674563275"><ele>394.5</ele><time>2026-05-01T09:08:57.999Z</time></trkpt><trkpt lat="44.238725789109935" lon="9.573650510583603"><ele>412.0</ele><time>2026-05-01T09:08:58.999Z</time></trkpt><trkpt lat="44.23861922929712" lon="9.57413543145846"><ele>437.5</ele><time>2026-05-01T09:09:00.063Z</time></trkpt><trkpt lat="44.23852922756873" lon="9.57459581836853"><ele>463.0</ele><time>2026-05-01T09:09:01.054Z</time></trkpt><trkpt lat="44.23844109684488" lon="9.575063023605438"><ele>598.0</ele><time>2026-05-01T09:09:02.058Z</time></trkpt><trkpt lat="44.238209850465175" lon="9.580792919030312"><ele>366.0</ele><time>2026-05-01T09:09:17.967Z</time></trkpt><trkpt lat="44.2389433110023" lon="9.593616810642796"><ele>356.5</ele><time>2026-05-01T09:09:41.999Z</time></trkpt><trkpt lat="44.23910372609238" lon="9.594135718239746"><ele>347.0</ele><time>2026-05-01T09:09:42.999Z</time></trkpt><trkpt lat="44.239052043524495" lon="9.594563549156469"><ele>348.5</ele><time>2026-05-01T09:09:43.999Z</time></trkpt><trkpt lat="44.23895529571557" lon="9.59500551150324"><ele>350.0</ele><time>2026-05-01T09:09:44.999Z</time></trkpt><trkpt lat="44.23884373930556" lon="9.595447051667353"><ele>345.0</ele><time>2026-05-01T09:09:45.999Z</time></trkpt><trkpt lat="44.23869351455737" lon="9.595874624690143"><ele>340.0</ele><time>2026-05-01T09:09:46.999Z</time></trkpt><trkpt lat="44.23854172375912" lon="9.59629171202151"><ele>338.5</ele><time>2026-05-01T09:09:47.999Z</time></trkpt><trkpt lat="44.238379624070284" lon="9.59670695224865"><ele>337.0</ele><time>2026-05-01T09:09:48.999Z</time></trkpt><trkpt lat="44.23820356732055" lon="9.597106562883774"><ele>337.5</ele><time>2026-05-01T09:09:49.999Z</time></trkpt><trkpt lat="44.2380146232176" lon="9.597494224511248"><ele>338.0</ele><time>2026-05-01T09:09:50.999Z</time></trkpt><trkpt lat="44.23781117902775" lon="9.597869036075895"><ele>338.5</ele><time>2026-05-01T09:09:51.999Z</time></trkpt><trkpt lat="44.237596894555544" lon="9.59823206763309"><ele>339.0</ele><time>2026-05-01T09:09:52.999Z</time></trkpt><trkpt lat="44.237370244828185" lon="9.598582354449798"><ele>346.0</ele><time>2026-05-01T09:09:53.999Z</time></trkpt><trkpt lat="44.237130672126895" lon="9.59891770161263"><ele>353.0</ele><time>2026-05-01T09:09:54.999Z</time></trkpt><trkpt lat="44.23687936039958" lon="9.599230182248554"><ele>352.0</ele><time>2026-05-01T09:09:55.999Z</time></trkpt><trkpt lat="44.23661490431917" lon="9.599520388443276"><ele>351.0</ele><time>2026-05-01T09:09:56.999Z</time></trkpt><trkpt lat="44.236341254621216" lon="9.59979041006571"><ele>351.0</ele><time>2026-05-01T09:09:57.999Z</time></trkpt><trkpt lat="44.236059480680794" lon="9.600047908710593"><ele>351.0</ele><time>2026-05-01T09:09:58.999Z</time></trkpt><trkpt lat="44.23577427379796" lon="9.600300225478236"><ele>378.0</ele><time>2026-05-01T09:09:59.999Z</time></trkpt><trkpt lat="44.23548608048105" lon="9.600549411498292"><ele>405.0</ele><time>2026-05-01T09:10:00.999Z</time></trkpt><trkpt lat="44.23519832635186" lon="9.600794707883482"><ele>405.0</ele><time>2026-05-01T09:10:01.999Z</time></trkpt><trkpt lat="44.234910402535114" lon="9.60103869905416"><ele>405.0</ele><time>2026-05-01T09:10:02.999Z</time></trkpt><trkpt lat="44.234624600294474" lon="9.601281688704537"><ele>402.5</ele><time>2026-05-01T09:10:03.999Z</time></trkpt><trkpt lat="44.234339682864174" lon="9.601524384731041"><ele>400.0</ele><time>2026-05-01T09:10:04.999Z</time></trkpt><trkpt lat="44.234055819880254" lon="9.601769876206657"><ele>380.5</ele><time>2026-05-01T09:10:05.999Z</time></trkpt><trkpt lat="44.23377294990631" lon="9.602022678641122"><ele>361.0</ele><time>2026-05-01T09:10:06.999Z</time></trkpt><trkpt lat="44.233472406322235" lon="9.602297217584702"><ele>361.0</ele><time>2026-05-01T09:10:08.064Z</time></trkpt><trkpt lat="44.233189498465094" lon="9.60264799036227"><ele>361.0</ele><time>2026-05-01T09:10:08.999Z</time></trkpt><trkpt lat="44.23291203258541" lon="9.602939195893239"><ele>355.5</ele><time>2026-05-01T09:10:09.999Z</time></trkpt><trkpt lat="44.23263784386383" lon="9.603213778122516"><ele>350.0</ele><time>2026-05-01T09:10:10.999Z</time></trkpt><trkpt lat="44.232376433087936" lon="9.603536134703281"><ele>353.5</ele><time>2026-05-01T09:10:11.999Z</time></trkpt><trkpt lat="44.232142798352534" lon="9.603855760716295"><ele>357.0</ele><time>2026-05-01T09:10:12.999Z</time></trkpt><trkpt lat="44.23190879667815" lon="9.604203455353947"><ele>345.0</ele><time>2026-05-01T09:10:13.999Z</time></trkpt><trkpt lat="44.2317144311538" lon="9.604547713553231"><ele>333.0</ele><time>2026-05-01T09:10:14.999Z</time></trkpt><trkpt lat="44.231494968332164" lon="9.604910248369265"><ele>329.0</ele><time>2026-05-01T09:10:15.999Z</time></trkpt><trkpt lat="44.23127351514309" lon="9.605274873055015"><ele>325.0</ele><time>2026-05-01T09:10:16.999Z</time></trkpt><trkpt lat="44.231053837911624" lon="9.605635135706377"><ele>323.0</ele><time>2026-05-01T09:10:17.999Z</time></trkpt><trkpt lat="44.23083350930913" lon="9.605999915323913"><ele>321.0</ele><time>2026-05-01T09:10:18.999Z</time></trkpt><trkpt lat="44.23061350504452" lon="9.60636626469959"><ele>321.0</ele><time>2026-05-01T09:10:19.999Z</time></trkpt><trkpt lat="44.2303978472343" lon="9.606735293593104"><ele>321.0</ele><time>2026-05-01T09:10:20.999Z</time></trkpt><trkpt lat="44.230181179780054" lon="9.60710538757583"><ele>323.5</ele><time>2026-05-01T09:10:21.999Z</time></trkpt><trkpt lat="44.22996488040756" lon="9.60747372410829"><ele>326.0</ele><time>2026-05-01T09:10:22.999Z</time></trkpt><trkpt lat="44.22974939995215" lon="9.607839503955963"><ele>326.0</ele><time>2026-05-01T09:10:23.999Z</time></trkpt><trkpt lat="44.229534234373666" lon="9.608206394007402"><ele>326.0</ele><time>2026-05-01T09:10:24.998Z</time></trkpt><trkpt lat="44.229319545626694" lon="9.608573646025299"><ele>319.5</ele><time>2026-05-01T09:10:25.998Z</time></trkpt><trkpt lat="44.22910404669628" lon="9.608941048871149"><ele>313.0</ele><time>2026-05-01T09:10:26.998Z</time></trkpt><trkpt lat="44.22888906108418" lon="9.60931415433619"><ele>323.0</ele><time>2026-05-01T09:10:27.998Z</time></trkpt><trkpt lat="44.228681049451595" lon="9.609697945029033"><ele>333.0</ele><time>2026-05-01T09:10:28.998Z</time></trkpt><trkpt lat="44.22848570725946" lon="9.610095426735109"><ele>351.0</ele><time>2026-05-01T09:10:29.998Z</time></trkpt><trkpt lat="44.22830351639171" lon="9.610509047264891"><ele>369.0</ele><time>2026-05-01T09:10:30.998Z</time></trkpt><trkpt lat="44.228136812912034" lon="9.610939321846276"><ele>396.5</ele><time>2026-05-01T09:10:31.998Z</time></trkpt><trkpt lat="44.22799181638279" lon="9.61137688534783"><ele>424.0</ele><time>2026-05-01T09:10:32.998Z</time></trkpt><trkpt lat="44.22786824650295" lon="9.611820072362296"><ele>421.5</ele><time>2026-05-01T09:10:33.998Z</time></trkpt><trkpt lat="44.22776990642957" lon="9.612278873092876"><ele>419.0</ele><time>2026-05-01T09:10:34.998Z</time></trkpt><trkpt lat="44.2276926179995" lon="9.612746604351488"><ele>408.5</ele><time>2026-05-01T09:10:35.998Z</time></trkpt><trkpt lat="44.22762727534856" lon="9.613253461021866"><ele>398.0</ele><time>2026-05-01T09:10:37.064Z</time></trkpt><trkpt lat="44.227574160153786" lon="9.613729801114676"><ele>375.0</ele><time>2026-05-01T09:10:38.063Z</time></trkpt><trkpt lat="44.22718639852463" lon="9.618517013340963"><ele>389.0</ele><time>2026-05-01T09:10:48.998Z</time></trkpt><trkpt lat="44.22717174467132" lon="9.618918066708746"><ele>403.0</ele><time>2026-05-01T09:10:49.998Z</time></trkpt><trkpt lat="44.22832692696849" lon="9.619504792032672"><ele>370.5</ele><time>2026-05-01T09:10:50.998Z</time></trkpt><trkpt lat="44.228564236619334" lon="9.619938816638689"><ele>338.0</ele><time>2026-05-01T09:10:51.998Z</time></trkpt><trkpt lat="44.22873176830759" lon="9.620351143509804"><ele>338.0</ele><time>2026-05-01T09:10:52.998Z</time></trkpt><trkpt lat="44.22886565176435" lon="9.620776597624953"><ele>338.0</ele><time>2026-05-01T09:10:53.998Z</time></trkpt><trkpt lat="44.22899421163759" lon="9.621210526875455"><ele>319.0</ele><time>2026-05-01T09:10:55Z</time></trkpt><trkpt lat="44.22910641722694" lon="9.621645394565729"><ele>300.0</ele><time>2026-05-01T09:10:56Z</time></trkpt><trkpt lat="44.22917996927059" lon="9.622088090427551"><ele>300.0</ele><time>2026-05-01T09:10:57Z</time></trkpt><trkpt lat="44.22924062602374" lon="9.622536718107064"><ele>300.0</ele><time>2026-05-01T09:10:58Z</time></trkpt><trkpt lat="44.229293337402986" lon="9.622990174220773"><ele>295.0</ele><time>2026-05-01T09:10:59Z</time></trkpt><trkpt lat="44.229328551320314" lon="9.623455913656557"><ele>290.0</ele><time>2026-05-01T09:11:00Z</time></trkpt><trkpt lat="44.2293516517317" lon="9.623920572672658"><ele>290.0</ele><time>2026-05-01T09:11:01Z</time></trkpt><trkpt lat="44.229368519023495" lon="9.624383778466939"><ele>290.0</ele><time>2026-05-01T09:11:02Z</time></trkpt><trkpt lat="44.22938072426884" lon="9.624842502795236"><ele>298.5</ele><time>2026-05-01T09:11:03Z</time></trkpt><trkpt lat="44.22939819927016" lon="9.625305473524623"><ele>307.0</ele><time>2026-05-01T09:11:04Z</time></trkpt><trkpt lat="44.22942050978314" lon="9.625761026449602"><ele>312.5</ele><time>2026-05-01T09:11:05Z</time></trkpt><trkpt lat="44.22945994972821" lon="9.626222928670321"><ele>318.0</ele><time>2026-05-01T09:11:06Z</time></trkpt><trkpt lat="44.229516203961765" lon="9.626674581026963"><ele>322.0</ele><time>2026-05-01T09:11:06.999Z</time></trkpt><trkpt lat="44.22960053554885" lon="9.627122571308155"><ele>326.0</ele><time>2026-05-01T09:11:07.999Z</time></trkpt><trkpt lat="44.229686448311" lon="9.627576979869488"><ele>326.0</ele><time>2026-05-01T09:11:08.999Z</time></trkpt><trkpt lat="44.229795586566574" lon="9.628010496812628"><ele>326.0</ele><time>2026-05-01T09:11:09.999Z</time></trkpt><trkpt lat="44.229918194463906" lon="9.628443750493124"><ele>308.5</ele><time>2026-05-01T09:11:10.999Z</time></trkpt><trkpt lat="44.230052960674584" lon="9.628870860190574"><ele>291.0</ele><time>2026-05-01T09:11:11.999Z</time></trkpt><trkpt lat="44.230208083809565" lon="9.629288054335673"><ele>298.0</ele><time>2026-05-01T09:11:12.999Z</time></trkpt><trkpt lat="44.23036422914985" lon="9.629692025910725"><ele>305.0</ele><time>2026-05-01T09:11:13.999Z</time></trkpt><trkpt lat="44.230531455460344" lon="9.630100726958473"><ele>292.5</ele><time>2026-05-01T09:11:14.999Z</time></trkpt><trkpt lat="44.23069478754833" lon="9.63050510521145"><ele>280.0</ele><time>2026-05-01T09:11:15.999Z</time></trkpt><trkpt lat="44.2308583026352" lon="9.630910968889717"><ele>290.5</ele><time>2026-05-01T09:11:16.999Z</time></trkpt><trkpt lat="44.23102200449543" lon="9.631319704395256"><ele>301.0</ele><time>2026-05-01T09:11:17.999Z</time></trkpt><trkpt lat="44.23118680551263" lon="9.63173401633444"><ele>308.5</ele><time>2026-05-01T09:11:18.999Z</time></trkpt><trkpt lat="44.231349719263555" lon="9.63214916758224"><ele>316.0</ele><time>2026-05-01T09:11:19.999Z</time></trkpt><trkpt lat="44.231510814599254" lon="9.632560341458465"><ele>296.5</ele><time>2026-05-01T09:11:20.999Z</time></trkpt><trkpt lat="44.23166558331076" lon="9.632965585508737"><ele>277.0</ele><time>2026-05-01T09:11:21.999Z</time></trkpt><trkpt lat="44.231805540812175" lon="9.633373028347814"><ele>280.5</ele><time>2026-05-01T09:11:22.999Z</time></trkpt><trkpt lat="44.23193592791824" lon="9.633787331713435"><ele>284.0</ele><time>2026-05-01T09:11:23.999Z</time></trkpt><trkpt lat="44.232064049042556" lon="9.634206811708813"><ele>286.0</ele><time>2026-05-01T09:11:24.999Z</time></trkpt><trkpt lat="44.23218796979506" lon="9.63462759727678"><ele>288.0</ele><time>2026-05-01T09:11:25.999Z</time></trkpt><trkpt lat="44.23230500551415" lon="9.63505719979741"><ele>277.0</ele><time>2026-05-01T09:11:26.999Z</time></trkpt><trkpt lat="44.2324150873989" lon="9.635493026183125"><ele>266.0</ele><time>2026-05-01T09:11:27.999Z</time></trkpt><trkpt lat="44.23251916740437" lon="9.635937123850038"><ele>266.0</ele><time>2026-05-01T09:11:28.999Z</time></trkpt><trkpt lat="44.23261964677311" lon="9.636381746600712"><ele>266.0</ele><time>2026-05-01T09:11:29.999Z</time></trkpt><trkpt lat="44.232717133143716" lon="9.636826471666991"><ele>262.0</ele><time>2026-05-01T09:11:30.999Z</time></trkpt><trkpt lat="44.23280970062857" lon="9.637272922259342"><ele>258.0</ele><time>2026-05-01T09:11:31.999Z</time></trkpt><trkpt lat="44.23289717020973" lon="9.6377182188093"><ele>249.0</ele><time>2026-05-01T09:11:32.999Z</time></trkpt><trkpt lat="44.23298307340397" lon="9.638165368106721"><ele>240.0</ele><time>2026-05-01T09:11:33.999Z</time></trkpt><trkpt lat="44.233068428064065" lon="9.638608081200697"><ele>230.0</ele><time>2026-05-01T09:11:34.999Z</time></trkpt><trkpt lat="44.233153107046874" lon="9.639044265753036"><ele>220.0</ele><time>2026-05-01T09:11:35.999Z</time></trkpt><trkpt lat="44.23324028451758" lon="9.63947485127843"><ele>214.0</ele><time>2026-05-01T09:11:36.999Z</time></trkpt><trkpt lat="44.23333013459472" lon="9.63990677019321"><ele>208.0</ele><time>2026-05-01T09:11:37.999Z</time></trkpt><trkpt lat="44.23342402299229" lon="9.640340204590288"><ele>206.5</ele><time>2026-05-01T09:11:38.999Z</time></trkpt><trkpt lat="44.23352874203337" lon="9.640772420059003"><ele>205.0</ele><time>2026-05-01T09:11:39.999Z</time></trkpt><trkpt lat="44.233639615935125" lon="9.641207040660372"><ele>213.0</ele><time>2026-05-01T09:11:40.999Z</time></trkpt><trkpt lat="44.233753675708925" lon="9.641641409648734"><ele>221.0</ele><time>2026-05-01T09:11:41.999Z</time></trkpt><trkpt lat="44.233873629937484" lon="9.642073383835339"><ele>224.0</ele><time>2026-05-01T09:11:42.999Z</time></trkpt><trkpt lat="44.2339973844703" lon="9.64250552491233"><ele>227.0</ele><time>2026-05-01T09:11:43.999Z</time></trkpt><trkpt lat="44.23413476503934" lon="9.642933384375949"><ele>237.0</ele><time>2026-05-01T09:11:45Z</time></trkpt><trkpt lat="44.23427676555318" lon="9.643360898356518"><ele>247.0</ele><time>2026-05-01T09:11:46Z</time></trkpt><trkpt lat="44.234426433564984" lon="9.643786451470984"><ele>266.5</ele><time>2026-05-01T09:11:47Z</time></trkpt><trkpt lat="44.23457865341946" lon="9.64420749092333"><ele>286.0</ele><time>2026-05-01T09:11:48Z</time></trkpt><trkpt lat="44.23473398031931" lon="9.644623399991108"><ele>300.5</ele><time>2026-05-01T09:11:49Z</time></trkpt><trkpt lat="44.234889635665674" lon="9.645040041195651"><ele>315.0</ele><time>2026-05-01T09:11:50Z</time></trkpt><trkpt lat="44.235045070102274" lon="9.645459432127682"><ele>321.0</ele><time>2026-05-01T09:11:51Z</time></trkpt><trkpt lat="44.23520047542523" lon="9.645875430679567"><ele>327.0</ele><time>2026-05-01T09:11:52Z</time></trkpt><trkpt lat="44.23536905457535" lon="9.64632040449299"><ele>312.5</ele><time>2026-05-01T09:11:53.067Z</time></trkpt><trkpt lat="44.23553252293664" lon="9.646734205620856"><ele>298.0</ele><time>2026-05-01T09:11:54.062Z</time></trkpt><trkpt lat="44.23578546818035" lon="9.647511531069819"><ele>268.0</ele><time>2026-05-01T09:11:56Z</time></trkpt><trkpt lat="44.23586432957437" lon="9.647931173414694"><ele>238.0</ele><time>2026-05-01T09:11:57Z</time></trkpt><trkpt lat="44.235951658187645" lon="9.648376171130352"><ele>238.5</ele><time>2026-05-01T09:11:58Z</time></trkpt><trkpt lat="44.236013445280925" lon="9.648835266431046"><ele>239.0</ele><time>2026-05-01T09:11:59Z</time></trkpt><trkpt lat="44.236046596374486" lon="9.649303552397885"><ele>238.0</ele><time>2026-05-01T09:12:00Z</time></trkpt><trkpt lat="44.23606056403963" lon="9.649778349344112"><ele>237.0</ele><time>2026-05-01T09:12:01Z</time></trkpt><trkpt lat="44.23604615128313" lon="9.650247695499752"><ele>231.0</ele><time>2026-05-01T09:12:02Z</time></trkpt><trkpt lat="44.236006696703924" lon="9.650709917674593"><ele>225.0</ele><time>2026-05-01T09:12:03Z</time></trkpt><trkpt lat="44.2359521413777" lon="9.651169303098103"><ele>222.5</ele><time>2026-05-01T09:12:04Z</time></trkpt><trkpt lat="44.23589077809956" lon="9.651624369170618"><ele>220.0</ele><time>2026-05-01T09:12:05Z</time></trkpt><trkpt lat="44.23582350166798" lon="9.652079240300152"><ele>217.0</ele><time>2026-05-01T09:12:06Z</time></trkpt><trkpt lat="44.23575050500554" lon="9.65253213456498"><ele>214.0</ele><time>2026-05-01T09:12:07Z</time></trkpt><trkpt lat="44.23567588434219" lon="9.652985629592953"><ele>225.5</ele><time>2026-05-01T09:12:08Z</time></trkpt><trkpt lat="44.235601985618295" lon="9.653436280603115"><ele>237.0</ele><time>2026-05-01T09:12:09Z</time></trkpt><trkpt lat="44.23553038222633" lon="9.653882227669296"><ele>237.0</ele><time>2026-05-01T09:12:10Z</time></trkpt><trkpt lat="44.23546975684906" lon="9.654320592383856"><ele>237.0</ele><time>2026-05-01T09:12:11Z</time></trkpt><trkpt lat="44.23542147559787" lon="9.654754413574372"><ele>238.5</ele><time>2026-05-01T09:12:12Z</time></trkpt><trkpt lat="44.235390974780614" lon="9.655187182386955"><ele>240.0</ele><time>2026-05-01T09:12:13Z</time></trkpt><trkpt lat="44.235368736739716" lon="9.655608775207686"><ele>251.5</ele><time>2026-05-01T09:12:14Z</time></trkpt><trkpt lat="44.235353007199016" lon="9.65601776195082"><ele>263.0</ele><time>2026-05-01T09:12:15Z</time></trkpt><trkpt lat="44.23533530096002" lon="9.656416534819844"><ele>271.5</ele><time>2026-05-01T09:12:16Z</time></trkpt><trkpt lat="44.23531557817113" lon="9.656820227963978"><ele>280.0</ele><time>2026-05-01T09:12:17Z</time></trkpt><trkpt lat="44.235310668098904" lon="9.657225337672182"><ele>280.0</ele><time>2026-05-01T09:12:18Z</time></trkpt><trkpt lat="44.23534218739106" lon="9.657652258450089"><ele>280.0</ele><time>2026-05-01T09:12:19.066Z</time></trkpt><trkpt lat="44.23538207229272" lon="9.658045471630016"><ele>280.0</ele><time>2026-05-01T09:12:20.064Z</time></trkpt><trkpt lat="44.23542996700901" lon="9.658429400447721"><ele>280.0</ele><time>2026-05-01T09:12:21.064Z</time></trkpt><trkpt lat="44.235486790756816" lon="9.658797902280549"><ele>271.0</ele><time>2026-05-01T09:12:22.061Z</time></trkpt><trkpt lat="44.23554957153943" lon="9.659156392859106"><ele>262.0</ele><time>2026-05-01T09:12:23.061Z</time></trkpt><trkpt lat="44.2364230585943" lon="9.661866002841078"><ele>230.5</ele><time>2026-05-01T09:12:30Z</time></trkpt><trkpt lat="44.23655228000663" lon="9.662201490806734"><ele>199.0</ele><time>2026-05-01T09:12:31Z</time></trkpt><trkpt lat="44.23673498830333" lon="9.662564835218207"><ele>198.0</ele><time>2026-05-01T09:12:32Z</time></trkpt><trkpt lat="44.23686581220683" lon="9.662890307238902"><ele>197.0</ele><time>2026-05-01T09:12:33Z</time></trkpt><trkpt lat="44.23699835305796" lon="9.663238041619833"><ele>197.0</ele><time>2026-05-01T09:12:34Z</time></trkpt><trkpt lat="44.23714721792165" lon="9.663580593936757"><ele>197.0</ele><time>2026-05-01T09:12:35Z</time></trkpt><trkpt lat="44.23728888379476" lon="9.66392693329323"><ele>198.0</ele><time>2026-05-01T09:12:36Z</time></trkpt><trkpt lat="44.23742415600753" lon="9.664256534469413"><ele>199.0</ele><time>2026-05-01T09:12:36.999Z</time></trkpt><trkpt lat="44.23754874045305" lon="9.664577333410548"><ele>206.5</ele><time>2026-05-01T09:12:37.999Z</time></trkpt><trkpt lat="44.23767786389793" lon="9.664903502437081"><ele>214.0</ele><time>2026-05-01T09:12:38.999Z</time></trkpt><trkpt lat="44.23780097343922" lon="9.665244300080946"><ele>220.5</ele><time>2026-05-01T09:12:39.999Z</time></trkpt><trkpt lat="44.237906051444014" lon="9.665581853605108"><ele>227.0</ele><time>2026-05-01T09:12:40.999Z</time></trkpt><trkpt lat="44.237998961134" lon="9.665925246638015"><ele>219.0</ele><time>2026-05-01T09:12:41.999Z</time></trkpt><trkpt lat="44.2380767595986" lon="9.666277058818698"><ele>211.0</ele><time>2026-05-01T09:12:42.999Z</time></trkpt><trkpt lat="44.23815559581004" lon="9.66663285429964"><ele>215.5</ele><time>2026-05-01T09:12:43.999Z</time></trkpt><trkpt lat="44.23822860273719" lon="9.666992190476073"><ele>220.0</ele><time>2026-05-01T09:12:44.999Z</time></trkpt><trkpt lat="44.23829160182344" lon="9.667352688691789"><ele>220.0</ele><time>2026-05-01T09:12:45.999Z</time></trkpt><trkpt lat="44.23833994344331" lon="9.667714808803746"><ele>220.0</ele><time>2026-05-01T09:12:46.999Z</time></trkpt><trkpt lat="44.23837371671057" lon="9.66808233676386"><ele>229.5</ele><time>2026-05-01T09:12:47.999Z</time></trkpt><trkpt lat="44.23841398030402" lon="9.668447686004471"><ele>239.0</ele><time>2026-05-01T09:12:48.999Z</time></trkpt><trkpt lat="44.238473608080085" lon="9.669162242968417"><ele>273.0</ele><time>2026-05-01T09:12:50.999Z</time></trkpt><trkpt lat="44.238473631734294" lon="9.669526242177511"><ele>307.0</ele><time>2026-05-01T09:12:51.999Z</time></trkpt><trkpt lat="44.23846370407598" lon="9.669910602860163"><ele>311.0</ele><time>2026-05-01T09:12:52.999Z</time></trkpt><trkpt lat="44.23844608997676" lon="9.670296340776455"><ele>315.0</ele><time>2026-05-01T09:12:54.062Z</time></trkpt><trkpt lat="44.23842746184201" lon="9.67062579980307"><ele>315.0</ele><time>2026-05-01T09:12:55.057Z</time></trkpt><trkpt lat="44.23840537381718" lon="9.670990783104779"><ele>315.0</ele><time>2026-05-01T09:12:56.055Z</time></trkpt><trkpt lat="44.23838349501562" lon="9.671356419701473"><ele>305.5</ele><time>2026-05-01T09:12:57.051Z</time></trkpt><trkpt lat="44.23836781649072" lon="9.671730114900425"><ele>296.0</ele><time>2026-05-01T09:12:58.051Z</time></trkpt><trkpt lat="44.23844620743908" lon="9.674530092074493"><ele>282.0</ele><time>2026-05-01T09:13:01.095Z</time></trkpt><trkpt lat="44.23866757396528" lon="9.6757491839671"><ele>243.0</ele><time>2026-05-01T09:13:02.1Z</time></trkpt><trkpt lat="44.23898492031607" lon="9.67691861376385"><ele>249.0</ele><time>2026-05-01T09:13:03.099Z</time></trkpt><trkpt lat="44.23952752485668" lon="9.678704059579514"><ele>249.0</ele><time>2026-05-01T09:13:15.999Z</time></trkpt><trkpt lat="44.239777601831136" lon="9.679244449869277"><ele>231.5</ele><time>2026-05-01T09:13:16.999Z</time></trkpt><trkpt lat="44.239924830198376" lon="9.679648857708493"><ele>214.0</ele><time>2026-05-01T09:13:17.999Z</time></trkpt><trkpt lat="44.24003299993136" lon="9.680050152995626"><ele>215.5</ele><time>2026-05-01T09:13:18.999Z</time></trkpt><trkpt lat="44.240141095628545" lon="9.680438639531928"><ele>217.0</ele><time>2026-05-01T09:13:19.999Z</time></trkpt><trkpt lat="44.24023625064141" lon="9.680832002200297"><ele>217.0</ele><time>2026-05-01T09:13:20.999Z</time></trkpt><trkpt lat="44.24033045479451" lon="9.681223725158635"><ele>217.0</ele><time>2026-05-01T09:13:22.001Z</time></trkpt><trkpt lat="44.240411991746264" lon="9.681624145918573"><ele>219.5</ele><time>2026-05-01T09:13:23.001Z</time></trkpt><trkpt lat="44.24048993993038" lon="9.682035201535092"><ele>222.0</ele><time>2026-05-01T09:13:24.001Z</time></trkpt><trkpt lat="44.24056519639111" lon="9.682455208628397"><ele>209.5</ele><time>2026-05-01T09:13:25.001Z</time></trkpt><trkpt lat="44.240640283769494" lon="9.682879612509069"><ele>197.0</ele><time>2026-05-01T09:13:26.001Z</time></trkpt><trkpt lat="44.240714204861945" lon="9.683291886614798"><ele>198.5</ele><time>2026-05-01T09:13:27.001Z</time></trkpt><trkpt lat="44.24079372407761" lon="9.683694147688458"><ele>200.0</ele><time>2026-05-01T09:13:28.001Z</time></trkpt><trkpt lat="44.24085896714009" lon="9.684095354017993"><ele>201.0</ele><time>2026-05-01T09:13:29.001Z</time></trkpt><trkpt lat="44.240925530136636" lon="9.684502043677726"><ele>202.0</ele><time>2026-05-01T09:13:30.001Z</time></trkpt><trkpt lat="44.24097774260497" lon="9.684912520856393"><ele>211.5</ele><time>2026-05-01T09:13:31.001Z</time></trkpt><trkpt lat="44.24101125430599" lon="9.685313274771897"><ele>221.0</ele><time>2026-05-01T09:13:32.001Z</time></trkpt><trkpt lat="44.2410301076101" lon="9.685706446363906"><ele>221.0</ele><time>2026-05-01T09:13:33.001Z</time></trkpt><trkpt lat="44.2410222434006" lon="9.686078806608617"><ele>221.0</ele><time>2026-05-01T09:13:34.001Z</time></trkpt><trkpt lat="44.24100047338015" lon="9.686444923668544"><ele>233.5</ele><time>2026-05-01T09:13:35.001Z</time></trkpt><trkpt lat="44.24096968579008" lon="9.686792286999337"><ele>246.0</ele><time>2026-05-01T09:13:36.001Z</time></trkpt><trkpt lat="44.24093716855512" lon="9.687137753343778"><ele>257.5</ele><time>2026-05-01T09:13:37.001Z</time></trkpt><trkpt lat="44.24091305487123" lon="9.687484139272794"><ele>269.0</ele><time>2026-05-01T09:13:38.001Z</time></trkpt><trkpt lat="44.240839678211685" lon="9.687828996038647"><ele>274.0</ele><time>2026-05-01T09:13:39.066Z</time></trkpt><trkpt lat="44.24075808949171" lon="9.688127909364246"><ele>279.0</ele><time>2026-05-01T09:13:40.06Z</time></trkpt><trkpt lat="44.240667960420744" lon="9.688425046126778"><ele>274.6666666666667</ele><time>2026-05-01T09:13:41.059Z</time></trkpt><trkpt lat="44.2405720239766" lon="9.688701764393683"><ele>270.33333333333337</ele><time>2026-05-01T09:13:42.062Z</time></trkpt><trkpt lat="44.24046919072455" lon="9.688961325493587"><ele>266.0</ele><time>2026-05-01T09:13:43.061Z</time></trkpt><trkpt lat="44.240360140696936" lon="9.68921730001938"><ele>255.5</ele><time>2026-05-01T09:13:44.053Z</time></trkpt><trkpt lat="44.240253828325855" lon="9.68944546099371"><ele>245.0</ele><time>2026-05-01T09:13:45.032Z</time></trkpt><trkpt lat="44.239033908902414" lon="9.69169942496519"><ele>186.0</ele><time>2026-05-01T09:13:48.097Z</time></trkpt><trkpt lat="44.23821119501396" lon="9.693441697175485"><ele>191.5</ele><time>2026-05-01T09:13:57Z</time></trkpt><trkpt lat="44.23801224794999" lon="9.693727622641315"><ele>197.0</ele><time>2026-05-01T09:13:58Z</time></trkpt><trkpt lat="44.23785489653752" lon="9.694061208951242"><ele>197.0</ele><time>2026-05-01T09:13:59Z</time></trkpt><trkpt lat="44.23772052595825" lon="9.694381357878289"><ele>197.0</ele><time>2026-05-01T09:14:00Z</time></trkpt><trkpt lat="44.23759193315934" lon="9.6947549048909"><ele>189.0</ele><time>2026-05-01T09:14:01Z</time></trkpt><trkpt lat="44.237476785552545" lon="9.695127865521927"><ele>181.0</ele><time>2026-05-01T09:14:02Z</time></trkpt><trkpt lat="44.23737975496033" lon="9.695521476250315"><ele>178.5</ele><time>2026-05-01T09:14:03Z</time></trkpt><trkpt lat="44.23730408780598" lon="9.695921202911093"><ele>176.0</ele><time>2026-05-01T09:14:04Z</time></trkpt><trkpt lat="44.23724892225313" lon="9.69633144210205"><ele>195.5</ele><time>2026-05-01T09:14:05Z</time></trkpt><trkpt lat="44.23721192632837" lon="9.696751333845395"><ele>215.0</ele><time>2026-05-01T09:14:06Z</time></trkpt><trkpt lat="44.23718764950264" lon="9.697170200281334"><ele>215.0</ele><time>2026-05-01T09:14:07Z</time></trkpt><trkpt lat="44.23719227136985" lon="9.697592933563962"><ele>215.0</ele><time>2026-05-01T09:14:08Z</time></trkpt><trkpt lat="44.237208257763115" lon="9.698019077580925"><ele>213.5</ele><time>2026-05-01T09:14:09Z</time></trkpt><trkpt lat="44.23723716855565" lon="9.698444581315773"><ele>212.0</ele><time>2026-05-01T09:14:10Z</time></trkpt><trkpt lat="44.237280229984975" lon="9.698869553334037"><ele>212.0</ele><time>2026-05-01T09:14:11Z</time></trkpt><trkpt lat="44.237325763142564" lon="9.699304553523069"><ele>212.0</ele><time>2026-05-01T09:14:12Z</time></trkpt><trkpt lat="44.237375310813114" lon="9.699742482184357"><ele>212.0</ele><time>2026-05-01T09:14:13Z</time></trkpt><trkpt lat="44.2374259658066" lon="9.700180654083924"><ele>212.0</ele><time>2026-05-01T09:14:14Z</time></trkpt><trkpt lat="44.237474239873805" lon="9.700619776595426"><ele>246.5</ele><time>2026-05-01T09:14:15Z</time></trkpt><trkpt lat="44.2375335112195" lon="9.701094404275956"><ele>281.0</ele><time>2026-05-01T09:14:16.07Z</time></trkpt><trkpt lat="44.23756271155989" lon="9.70153414848234"><ele>179.0</ele><time>2026-05-01T09:14:17.055Z</time></trkpt><trkpt lat="44.23722995873149" lon="9.705558353481017"><ele>144.0</ele><time>2026-05-01T09:14:21.095Z</time></trkpt><trkpt lat="44.23695914680998" lon="9.70742008627935"><ele>139.5</ele><time>2026-05-01T09:14:32Z</time></trkpt><trkpt lat="44.236818758822196" lon="9.707995286081792"><ele>135.0</ele><time>2026-05-01T09:14:33Z</time></trkpt><trkpt lat="44.236738791303615" lon="9.708400575273567"><ele>128.5</ele><time>2026-05-01T09:14:34Z</time></trkpt><trkpt lat="44.23663869419066" lon="9.708811541876441"><ele>122.0</ele><time>2026-05-01T09:14:35Z</time></trkpt><trkpt lat="44.23652277822242" lon="9.70923730386197"><ele>118.0</ele><time>2026-05-01T09:14:36Z</time></trkpt><trkpt lat="44.23652983407075" lon="9.709628843923886"><ele>114.0</ele><time>2026-05-01T09:14:37Z</time></trkpt><trkpt lat="44.236466833945684" lon="9.710039173646162"><ele>109.5</ele><time>2026-05-01T09:14:38Z</time></trkpt><trkpt lat="44.236396142941075" lon="9.710449093999086"><ele>105.0</ele><time>2026-05-01T09:14:39Z</time></trkpt><trkpt lat="44.23632511917247" lon="9.710862219406975"><ele>107.0</ele><time>2026-05-01T09:14:40Z</time></trkpt><trkpt lat="44.23624988730678" lon="9.71128165221871"><ele>109.0</ele><time>2026-05-01T09:14:41Z</time></trkpt><trkpt lat="44.23616720478532" lon="9.711711658451936"><ele>112.5</ele><time>2026-05-01T09:14:42Z</time></trkpt><trkpt lat="44.236074669102926" lon="9.712146375644421"><ele>116.0</ele><time>2026-05-01T09:14:43Z</time></trkpt><trkpt lat="44.23596822280376" lon="9.712582080085989"><ele>121.5</ele><time>2026-05-01T09:14:44Z</time></trkpt><trkpt lat="44.23584373378801" lon="9.713022493778364"><ele>127.0</ele><time>2026-05-01T09:14:45Z</time></trkpt><trkpt lat="44.23570571346806" lon="9.713464204298962"><ele>123.5</ele><time>2026-05-01T09:14:46Z</time></trkpt><trkpt lat="44.23556621336487" lon="9.71389842644666"><ele>120.0</ele><time>2026-05-01T09:14:47Z</time></trkpt><trkpt lat="44.23541494907673" lon="9.714325049424582"><ele>120.0</ele><time>2026-05-01T09:14:48Z</time></trkpt><trkpt lat="44.23525256391558" lon="9.71474216000348"><ele>120.0</ele><time>2026-05-01T09:14:49Z</time></trkpt><trkpt lat="44.23508003144578" lon="9.715152191768384"><ele>118.5</ele><time>2026-05-01T09:14:50Z</time></trkpt><trkpt lat="44.23489744061888" lon="9.715556393154754"><ele>117.0</ele><time>2026-05-01T09:14:51Z</time></trkpt><trkpt lat="44.234709062224404" lon="9.715945611564365"><ele>113.0</ele><time>2026-05-01T09:14:52Z</time></trkpt><trkpt lat="44.23451364530541" lon="9.716317955965813"><ele>109.0</ele><time>2026-05-01T09:14:53Z</time></trkpt><trkpt lat="44.234310771000054" lon="9.716680739218678"><ele>109.0</ele><time>2026-05-01T09:14:54Z</time></trkpt><trkpt lat="44.234109462830546" lon="9.717033145708083"><ele>109.0</ele><time>2026-05-01T09:14:55Z</time></trkpt><trkpt lat="44.23390767605115" lon="9.717377157152544"><ele>108.5</ele><time>2026-05-01T09:14:56Z</time></trkpt><trkpt lat="44.2337055342569" lon="9.717721968756797"><ele>108.0</ele><time>2026-05-01T09:14:57Z</time></trkpt><trkpt lat="44.23350483694174" lon="9.71807222043548"><ele>108.0</ele><time>2026-05-01T09:14:58Z</time></trkpt><trkpt lat="44.23330346259436" lon="9.718439362783988"><ele>108.0</ele><time>2026-05-01T09:14:59Z</time></trkpt><trkpt lat="44.2330975567443" lon="9.718811847899618"><ele>106.5</ele><time>2026-05-01T09:15:00Z</time></trkpt><trkpt lat="44.232888427420015" lon="9.719183485377192"><ele>105.0</ele><time>2026-05-01T09:15:01Z</time></trkpt><trkpt lat="44.23267625019748" lon="9.7195524718758"><ele>104.5</ele><time>2026-05-01T09:15:02Z</time></trkpt><trkpt lat="44.232467152442574" lon="9.719920718784884"><ele>104.0</ele><time>2026-05-01T09:15:03Z</time></trkpt><trkpt lat="44.2322575372919" lon="9.720289391075141"><ele>103.0</ele><time>2026-05-01T09:15:04Z</time></trkpt><trkpt lat="44.232049888157334" lon="9.720654155591397"><ele>102.0</ele><time>2026-05-01T09:15:05Z</time></trkpt><trkpt lat="44.23184428873574" lon="9.721020872592316"><ele>102.0</ele><time>2026-05-01T09:15:05.999Z</time></trkpt><trkpt lat="44.231634234407615" lon="9.721390129310551"><ele>102.0</ele><time>2026-05-01T09:15:06.999Z</time></trkpt><trkpt lat="44.231429852902664" lon="9.721751070669526"><ele>101.5</ele><time>2026-05-01T09:15:07.999Z</time></trkpt><trkpt lat="44.2312289963773" lon="9.722104488324643"><ele>101.0</ele><time>2026-05-01T09:15:08.999Z</time></trkpt><trkpt lat="44.23102993732277" lon="9.722450479808955"><ele>101.5</ele><time>2026-05-01T09:15:09.999Z</time></trkpt><trkpt lat="44.23083003154771" lon="9.722796267667995"><ele>102.0</ele><time>2026-05-01T09:15:10.999Z</time></trkpt><trkpt lat="44.23063460045991" lon="9.723141411882237"><ele>102.0</ele><time>2026-05-01T09:15:11.999Z</time></trkpt><trkpt lat="44.23044229026232" lon="9.723481366293605"><ele>102.0</ele><time>2026-05-01T09:15:12.999Z</time></trkpt><trkpt lat="44.23025153772913" lon="9.72381889069255"><ele>102.0</ele><time>2026-05-01T09:15:13.999Z</time></trkpt><trkpt lat="44.23006002745941" lon="9.724154382986809"><ele>102.0</ele><time>2026-05-01T09:15:14.999Z</time></trkpt><trkpt lat="44.22986838851003" lon="9.724489856854934"><ele>102.0</ele><time>2026-05-01T09:15:15.999Z</time></trkpt><trkpt lat="44.229672234566586" lon="9.724829789293715"><ele>102.0</ele><time>2026-05-01T09:15:16.999Z</time></trkpt><trkpt lat="44.22947484358138" lon="9.72517010119167"><ele>102.0</ele><time>2026-05-01T09:15:17.999Z</time></trkpt><trkpt lat="44.22928134406959" lon="9.725506555533576"><ele>102.0</ele><time>2026-05-01T09:15:18.999Z</time></trkpt><trkpt lat="44.22908816081914" lon="9.725846421161595"><ele>102.5</ele><time>2026-05-01T09:15:19.999Z</time></trkpt><trkpt lat="44.228895234509395" lon="9.72618828164504"><ele>103.0</ele><time>2026-05-01T09:15:20.999Z</time></trkpt><trkpt lat="44.22870392048843" lon="9.726528108127749"><ele>103.0</ele><time>2026-05-01T09:15:21.999Z</time></trkpt><trkpt lat="44.22850834039074" lon="9.726876258874475"><ele>103.0</ele><time>2026-05-01T09:15:22.999Z</time></trkpt><trkpt lat="44.22830717783673" lon="9.727231304004775"><ele>102.5</ele><time>2026-05-01T09:15:23.999Z</time></trkpt><trkpt lat="44.228104239914934" lon="9.72758791864531"><ele>102.0</ele><time>2026-05-01T09:15:24.999Z</time></trkpt><trkpt lat="44.227898047819515" lon="9.72794898296786"><ele>102.0</ele><time>2026-05-01T09:15:25.999Z</time></trkpt><trkpt lat="44.22768980006327" lon="9.728315473548486"><ele>102.0</ele><time>2026-05-01T09:15:27.001Z</time></trkpt><trkpt lat="44.22748013307939" lon="9.728683056903904"><ele>103.0</ele><time>2026-05-01T09:15:28.001Z</time></trkpt><trkpt lat="44.22726943407127" lon="9.729052045104655"><ele>104.0</ele><time>2026-05-01T09:15:29.001Z</time></trkpt><trkpt lat="44.227059005839784" lon="9.729421057151404"><ele>105.5</ele><time>2026-05-01T09:15:30.001Z</time></trkpt><trkpt lat="44.22684818039353" lon="9.729789936405535"><ele>107.0</ele><time>2026-05-01T09:15:31.001Z</time></trkpt><trkpt lat="44.22663665322966" lon="9.730160161747614"><ele>105.5</ele><time>2026-05-01T09:15:32.001Z</time></trkpt><trkpt lat="44.22642345248449" lon="9.730530728484144"><ele>104.0</ele><time>2026-05-01T09:15:33.001Z</time></trkpt><trkpt lat="44.226209156946226" lon="9.730902873504002"><ele>103.5</ele><time>2026-05-01T09:15:34.001Z</time></trkpt><trkpt lat="44.22599393213303" lon="9.731275813892314"><ele>103.0</ele><time>2026-05-01T09:15:35.001Z</time></trkpt><trkpt lat="44.22577909362112" lon="9.731648185569668"><ele>101.5</ele><time>2026-05-01T09:15:36.001Z</time></trkpt><trkpt lat="44.225566699049715" lon="9.732021212343396"><ele>100.0</ele><time>2026-05-01T09:15:37.001Z</time></trkpt><trkpt lat="44.225353929377995" lon="9.732394246405674"><ele>101.0</ele><time>2026-05-01T09:15:38.001Z</time></trkpt><trkpt lat="44.225142012614036" lon="9.73276463396856"><ele>102.0</ele><time>2026-05-01T09:15:39.001Z</time></trkpt><trkpt lat="44.22493328105227" lon="9.73313592476024"><ele>100.0</ele><time>2026-05-01T09:15:40.001Z</time></trkpt><trkpt lat="44.22473089829745" lon="9.73351420528681"><ele>98.0</ele><time>2026-05-01T09:15:41.001Z</time></trkpt><trkpt lat="44.22454535839837" lon="9.733908711567341"><ele>98.0</ele><time>2026-05-01T09:15:42.001Z</time></trkpt><trkpt lat="44.22437864809874" lon="9.73432139421779"><ele>98.0</ele><time>2026-05-01T09:15:43.001Z</time></trkpt><trkpt lat="44.224232882349526" lon="9.734753946501584"><ele>99.0</ele><time>2026-05-01T09:15:44Z</time></trkpt><trkpt lat="44.22411241437757" lon="9.735197224829546"><ele>100.0</ele><time>2026-05-01T09:15:45Z</time></trkpt><trkpt lat="44.22401490555721" lon="9.735649072814057"><ele>95.5</ele><time>2026-05-01T09:15:46Z</time></trkpt><trkpt lat="44.223942207738304" lon="9.736104306048434"><ele>91.0</ele><time>2026-05-01T09:15:47Z</time></trkpt><trkpt lat="44.223896505114496" lon="9.73656211062981"><ele>90.5</ele><time>2026-05-01T09:15:48Z</time></trkpt><trkpt lat="44.22387356772222" lon="9.737026313569004"><ele>90.0</ele><time>2026-05-01T09:15:49Z</time></trkpt><trkpt lat="44.223872435933835" lon="9.73749733464241"><ele>89.0</ele><time>2026-05-01T09:15:50Z</time></trkpt><trkpt lat="44.22389305242121" lon="9.737974003467844"><ele>88.0</ele><time>2026-05-01T09:15:51Z</time></trkpt><trkpt lat="44.22393517733415" lon="9.73844724987948"><ele>89.5</ele><time>2026-05-01T09:15:52Z</time></trkpt><trkpt lat="44.224001482501976" lon="9.73891410733931"><ele>91.0</ele><time>2026-05-01T09:15:53Z</time></trkpt><trkpt lat="44.22409584838564" lon="9.73937069844663"><ele>91.0</ele><time>2026-05-01T09:15:54Z</time></trkpt><trkpt lat="44.224204958084464" lon="9.739819203247812"><ele>91.0</ele><time>2026-05-01T09:15:55Z</time></trkpt><trkpt lat="44.224316340688446" lon="9.740265668168949"><ele>90.5</ele><time>2026-05-01T09:15:56Z</time></trkpt><trkpt lat="44.22442417948668" lon="9.740717092571563"><ele>90.0</ele><time>2026-05-01T09:15:57Z</time></trkpt><trkpt lat="44.22453306397103" lon="9.741163526978243"><ele>89.5</ele><time>2026-05-01T09:15:58Z</time></trkpt><trkpt lat="44.22464116830166" lon="9.74160651136423"><ele>89.0</ele><time>2026-05-01T09:15:59Z</time></trkpt><trkpt lat="44.22474521447776" lon="9.742043879260414"><ele>88.5</ele><time>2026-05-01T09:16:00Z</time></trkpt><trkpt lat="44.22484346895899" lon="9.742474555532244"><ele>88.0</ele><time>2026-05-01T09:16:01Z</time></trkpt><trkpt lat="44.22492897830288" lon="9.742898409230682"><ele>88.0</ele><time>2026-05-01T09:16:02Z</time></trkpt><trkpt lat="44.22499242790984" lon="9.743322284409231"><ele>88.0</ele><time>2026-05-01T09:16:03Z</time></trkpt><trkpt lat="44.22503236857761" lon="9.743752360489053"><ele>88.5</ele><time>2026-05-01T09:16:04Z</time></trkpt><trkpt lat="44.22505340104787" lon="9.744188804494799"><ele>89.0</ele><time>2026-05-01T09:16:05Z</time></trkpt><trkpt lat="44.22505713163305" lon="9.744631471717854"><ele>89.0</ele><time>2026-05-01T09:16:06Z</time></trkpt><trkpt lat="44.225033791778564" lon="9.745076565995769"><ele>89.0</ele><time>2026-05-01T09:16:07Z</time></trkpt><trkpt lat="44.22499356440286" lon="9.745525875694502"><ele>89.0</ele><time>2026-05-01T09:16:08Z</time></trkpt><trkpt lat="44.22493241956313" lon="9.745977356684307"><ele>89.0</ele><time>2026-05-01T09:16:09Z</time></trkpt><trkpt lat="44.2248513753164" lon="9.746423754723336"><ele>89.0</ele><time>2026-05-01T09:16:10Z</time></trkpt><trkpt lat="44.224768682224195" lon="9.746868861095084"><ele>89.0</ele><time>2026-05-01T09:16:11Z</time></trkpt><trkpt lat="44.22468996814267" lon="9.747311779021672"><ele>89.0</ele><time>2026-05-01T09:16:12Z</time></trkpt><trkpt lat="44.22461268265624" lon="9.747748175259597"><ele>89.0</ele><time>2026-05-01T09:16:13Z</time></trkpt><trkpt lat="44.22453504425267" lon="9.748180108834807"><ele>89.0</ele><time>2026-05-01T09:16:14Z</time></trkpt><trkpt lat="44.224454216727" lon="9.748610335052334"><ele>89.0</ele><time>2026-05-01T09:16:15Z</time></trkpt><trkpt lat="44.22437342890207" lon="9.749038841920068"><ele>89.5</ele><time>2026-05-01T09:16:16Z</time></trkpt><trkpt lat="44.22429485914071" lon="9.74946224780216"><ele>90.0</ele><time>2026-05-01T09:16:17Z</time></trkpt><trkpt lat="44.22421661910798" lon="9.749878094529938"><ele>88.5</ele><time>2026-05-01T09:16:18Z</time></trkpt><trkpt lat="44.224129764024845" lon="9.750286540508666"><ele>87.0</ele><time>2026-05-01T09:16:19Z</time></trkpt><trkpt lat="44.22403017592064" lon="9.750686912374496"><ele>96.0</ele><time>2026-05-01T09:16:20Z</time></trkpt><trkpt lat="44.22391052734636" lon="9.751078191599806"><ele>105.0</ele><time>2026-05-01T09:16:21Z</time></trkpt><trkpt lat="44.223781738712276" lon="9.75146442493624"><ele>105.0</ele><time>2026-05-01T09:16:22Z</time></trkpt><trkpt lat="44.223633906301565" lon="9.751847936127842"><ele>105.0</ele><time>2026-05-01T09:16:23Z</time></trkpt><trkpt lat="44.22347082753319" lon="9.752222488307385"><ele>105.0</ele><time>2026-05-01T09:16:24Z</time></trkpt><trkpt lat="44.22328984079506" lon="9.752580662885816"><ele>105.0</ele><time>2026-05-01T09:16:25Z</time></trkpt><trkpt lat="44.22308710025841" lon="9.75292676846376"><ele>105.0</ele><time>2026-05-01T09:16:26Z</time></trkpt><trkpt lat="44.22286945964706" lon="9.753262744578407"><ele>105.0</ele><time>2026-05-01T09:16:27Z</time></trkpt><trkpt lat="44.22263401764392" lon="9.753582538688711"><ele>97.5</ele><time>2026-05-01T09:16:28Z</time></trkpt><trkpt lat="44.22238988817095" lon="9.753889218797191"><ele>90.0</ele><time>2026-05-01T09:16:29Z</time></trkpt><trkpt lat="44.222137823739146" lon="9.754180173711221"><ele>86.5</ele><time>2026-05-01T09:16:30Z</time></trkpt><trkpt lat="44.22188691407167" lon="9.754461383317633"><ele>83.0</ele><time>2026-05-01T09:16:31Z</time></trkpt><trkpt lat="44.221632794688034" lon="9.754742760113166"><ele>82.5</ele><time>2026-05-01T09:16:32Z</time></trkpt><trkpt lat="44.221380413281544" lon="9.755026539642824"><ele>82.0</ele><time>2026-05-01T09:16:33Z</time></trkpt><trkpt lat="44.22112657889964" lon="9.755311783912257"><ele>85.5</ele><time>2026-05-01T09:16:34Z</time></trkpt><trkpt lat="44.220871804663744" lon="9.755597380311055"><ele>89.0</ele><time>2026-05-01T09:16:35Z</time></trkpt><trkpt lat="44.2206169880014" lon="9.75588594508024"><ele>91.5</ele><time>2026-05-01T09:16:36Z</time></trkpt><trkpt lat="44.22036218079566" lon="9.756173602381317"><ele>94.0</ele><time>2026-05-01T09:16:37Z</time></trkpt><trkpt lat="44.220106943121344" lon="9.756461838716412"><ele>94.0</ele><time>2026-05-01T09:16:38Z</time></trkpt><trkpt lat="44.21985317333634" lon="9.756756694351585"><ele>94.0</ele><time>2026-05-01T09:16:39Z</time></trkpt><trkpt lat="44.219610554492796" lon="9.757062322177864"><ele>99.5</ele><time>2026-05-01T09:16:40Z</time></trkpt><trkpt lat="44.21937794125123" lon="9.757383952906874"><ele>105.0</ele><time>2026-05-01T09:16:41Z</time></trkpt><trkpt lat="44.21914835797935" lon="9.757717176516186"><ele>134.0</ele><time>2026-05-01T09:16:42Z</time></trkpt><trkpt lat="44.21891725185781" lon="9.758064751720054"><ele>163.0</ele><time>2026-05-01T09:16:43Z</time></trkpt><trkpt lat="44.21868107360424" lon="9.758418596228434"><ele>177.0</ele><time>2026-05-01T09:16:44Z</time></trkpt><trkpt lat="44.218442238508366" lon="9.758776171887067"><ele>191.0</ele><time>2026-05-01T09:16:45Z</time></trkpt><trkpt lat="44.21820636147511" lon="9.75913142158151"><ele>209.5</ele><time>2026-05-01T09:16:46Z</time></trkpt><trkpt lat="44.217970902710874" lon="9.759489507711168"><ele>228.0</ele><time>2026-05-01T09:16:47Z</time></trkpt><trkpt lat="44.21773558008053" lon="9.75984782109016"><ele>233.0</ele><time>2026-05-01T09:16:48Z</time></trkpt><trkpt lat="44.21748576596962" lon="9.760227907744877"><ele>238.0</ele><time>2026-05-01T09:16:49.067Z</time></trkpt><trkpt lat="44.2152264329198" lon="9.763726580604793"><ele>169.0</ele><time>2026-05-01T09:16:59Z</time></trkpt><trkpt lat="44.21494994036925" lon="9.764118918821575"><ele>100.0</ele><time>2026-05-01T09:17:00Z</time></trkpt><trkpt lat="44.21472436990325" lon="9.764437393024908"><ele>96.0</ele><time>2026-05-01T09:17:01Z</time></trkpt><trkpt lat="44.21448332775642" lon="9.764790834751894"><ele>92.0</ele><time>2026-05-01T09:17:02Z</time></trkpt><trkpt lat="44.214248621359374" lon="9.765135458622265"><ele>90.5</ele><time>2026-05-01T09:17:03Z</time></trkpt><trkpt lat="44.21401804499396" lon="9.765485713506353"><ele>89.0</ele><time>2026-05-01T09:17:04Z</time></trkpt><trkpt lat="44.21379083207461" lon="9.765832853012512"><ele>100.0</ele><time>2026-05-01T09:17:05Z</time></trkpt><trkpt lat="44.213568020172445" lon="9.76617341066068"><ele>111.0</ele><time>2026-05-01T09:17:06Z</time></trkpt><trkpt lat="44.21334682106158" lon="9.766509130362795"><ele>110.5</ele><time>2026-05-01T09:17:07Z</time></trkpt><trkpt lat="44.21313529341296" lon="9.766829411583863"><ele>110.0</ele><time>2026-05-01T09:17:08Z</time></trkpt><trkpt lat="44.21293080153936" lon="9.76714112097509"><ele>130.5</ele><time>2026-05-01T09:17:08.999Z</time></trkpt><trkpt lat="44.212725272800306" lon="9.767453644197396"><ele>151.0</ele><time>2026-05-01T09:17:09.999Z</time></trkpt><trkpt lat="44.21251424719652" lon="9.767773474567399"><ele>163.0</ele><time>2026-05-01T09:17:10.999Z</time></trkpt><trkpt lat="44.21230405906329" lon="9.768093890674635"><ele>175.0</ele><time>2026-05-01T09:17:11.999Z</time></trkpt><trkpt lat="44.21209703847233" lon="9.76841127220564"><ele>193.5</ele><time>2026-05-01T09:17:12.999Z</time></trkpt><trkpt lat="44.2118939744047" lon="9.768725927886969"><ele>212.0</ele><time>2026-05-01T09:17:13.999Z</time></trkpt><trkpt lat="44.21169234336154" lon="9.76904174228826"><ele>225.5</ele><time>2026-05-01T09:17:14.999Z</time></trkpt><trkpt lat="44.21147232290198" lon="9.769387015397982"><ele>239.0</ele><time>2026-05-01T09:17:16.071Z</time></trkpt><trkpt lat="44.21126396038223" lon="9.769714768680457"><ele>239.0</ele><time>2026-05-01T09:17:17.063Z</time></trkpt><trkpt lat="44.211051596528904" lon="9.770050156979213"><ele>239.0</ele><time>2026-05-01T09:17:18.061Z</time></trkpt><trkpt lat="44.205829919941095" lon="9.782994319739796"><ele>160.5</ele><time>2026-05-01T09:17:49.999Z</time></trkpt><trkpt lat="44.20574831975575" lon="9.783438592890596"><ele>82.0</ele><time>2026-05-01T09:17:50.999Z</time></trkpt><trkpt lat="44.20573157957034" lon="9.783891651312024"><ele>78.5</ele><time>2026-05-01T09:17:51.999Z</time></trkpt><trkpt lat="44.205730209777165" lon="9.784370113907823"><ele>75.0</ele><time>2026-05-01T09:17:52.999Z</time></trkpt><trkpt lat="44.205716569812836" lon="9.784844375978254"><ele>73.5</ele><time>2026-05-01T09:17:53.999Z</time></trkpt><trkpt lat="44.20570535207968" lon="9.785321759597156"><ele>72.0</ele><time>2026-05-01T09:17:55Z</time></trkpt><trkpt lat="44.205688413533245" lon="9.785790849262373"><ele>71.5</ele><time>2026-05-01T09:17:56Z</time></trkpt><trkpt lat="44.20567134820896" lon="9.78626129504102"><ele>71.0</ele><time>2026-05-01T09:17:57Z</time></trkpt><trkpt lat="44.205656803835204" lon="9.78673132605759"><ele>67.5</ele><time>2026-05-01T09:17:58Z</time></trkpt><trkpt lat="44.205638539819326" lon="9.787201349381293"><ele>64.0</ele><time>2026-05-01T09:17:59Z</time></trkpt><trkpt lat="44.20561893369097" lon="9.787672658876609"><ele>64.5</ele><time>2026-05-01T09:18:00Z</time></trkpt><trkpt lat="44.20560192348638" lon="9.788142764991983"><ele>65.0</ele><time>2026-05-01T09:18:01Z</time></trkpt><trkpt lat="44.20558519497655" lon="9.788611794893045"><ele>64.5</ele><time>2026-05-01T09:18:02Z</time></trkpt><trkpt lat="44.20556668769981" lon="9.789081495586133"><ele>64.0</ele><time>2026-05-01T09:18:03Z</time></trkpt><trkpt lat="44.2055525848613" lon="9.789550282853227"><ele>64.0</ele><time>2026-05-01T09:18:04Z</time></trkpt><trkpt lat="44.20553562267208" lon="9.79002126180655"><ele>64.0</ele><time>2026-05-01T09:18:05Z</time></trkpt><trkpt lat="44.205516721888955" lon="9.790492608058958"><ele>62.5</ele><time>2026-05-01T09:18:06Z</time></trkpt><trkpt lat="44.205494175973726" lon="9.790967997151089"><ele>61.0</ele><time>2026-05-01T09:18:07Z</time></trkpt><trkpt lat="44.2054758413395" lon="9.791442126614971"><ele>59.5</ele><time>2026-05-01T09:18:08Z</time></trkpt><trkpt lat="44.20545721395737" lon="9.791918903844754"><ele>58.0</ele><time>2026-05-01T09:18:09Z</time></trkpt><trkpt lat="44.205438007083664" lon="9.792396984776277"><ele>57.0</ele><time>2026-05-01T09:18:10Z</time></trkpt><trkpt lat="44.20542355300435" lon="9.792872219429304"><ele>56.0</ele><time>2026-05-01T09:18:11Z</time></trkpt><trkpt lat="44.20540616632596" lon="9.793350068035288"><ele>56.0</ele><time>2026-05-01T09:18:12Z</time></trkpt><trkpt lat="44.205388248308466" lon="9.79382550528016"><ele>56.0</ele><time>2026-05-01T09:18:13Z</time></trkpt><trkpt lat="44.20536904415614" lon="9.794300375255728"><ele>56.0</ele><time>2026-05-01T09:18:14Z</time></trkpt><trkpt lat="44.205354479299245" lon="9.794773785541162"><ele>56.0</ele><time>2026-05-01T09:18:15Z</time></trkpt><trkpt lat="44.20533692216942" lon="9.795248015147093"><ele>56.5</ele><time>2026-05-01T09:18:16Z</time></trkpt><trkpt lat="44.20532141418527" lon="9.795714051219468"><ele>57.0</ele><time>2026-05-01T09:18:17Z</time></trkpt><trkpt lat="44.20530350892802" lon="9.796176375950072"><ele>57.0</ele><time>2026-05-01T09:18:18Z</time></trkpt><trkpt lat="44.205271831653505" lon="9.796632682371088"><ele>57.0</ele><time>2026-05-01T09:18:19Z</time></trkpt><trkpt lat="44.20522084157924" lon="9.797091963070068"><ele>56.5</ele><time>2026-05-01T09:18:20Z</time></trkpt><trkpt lat="44.205141188207946" lon="9.797546565795182"><ele>56.0</ele><time>2026-05-01T09:18:21Z</time></trkpt><trkpt lat="44.205038079153745" lon="9.797993787774114"><ele>56.0</ele><time>2026-05-01T09:18:22Z</time></trkpt><trkpt lat="44.20491633335297" lon="9.798419766935714"><ele>56.0</ele><time>2026-05-01T09:18:23Z</time></trkpt><trkpt lat="44.20477311200502" lon="9.798829795417598"><ele>55.0</ele><time>2026-05-01T09:18:24Z</time></trkpt><trkpt lat="44.20461058511233" lon="9.79922626531953"><ele>54.0</ele><time>2026-05-01T09:18:25Z</time></trkpt><trkpt lat="44.204432747821755" lon="9.799609885788097"><ele>53.5</ele><time>2026-05-01T09:18:26Z</time></trkpt><trkpt lat="44.20424982577247" lon="9.799990462625093"><ele>53.0</ele><time>2026-05-01T09:18:27Z</time></trkpt><trkpt lat="44.20406446909095" lon="9.800367948591157"><ele>52.5</ele><time>2026-05-01T09:18:28Z</time></trkpt><trkpt lat="44.20388673509321" lon="9.800734413258947"><ele>52.0</ele><time>2026-05-01T09:18:29Z</time></trkpt><trkpt lat="44.203714214583314" lon="9.80108551464556"><ele>53.0</ele><time>2026-05-01T09:18:30Z</time></trkpt><trkpt lat="44.203547584319864" lon="9.801425190106317"><ele>54.0</ele><time>2026-05-01T09:18:31Z</time></trkpt><trkpt lat="44.20338385925931" lon="9.801758504264832"><ele>53.5</ele><time>2026-05-01T09:18:32Z</time></trkpt><trkpt lat="44.20322147455704" lon="9.802089573372488"><ele>53.0</ele><time>2026-05-01T09:18:33Z</time></trkpt><trkpt lat="44.20305785347239" lon="9.802420229585927"><ele>54.5</ele><time>2026-05-01T09:18:34Z</time></trkpt><trkpt lat="44.202893792828256" lon="9.802749898664755"><ele>56.0</ele><time>2026-05-01T09:18:35Z</time></trkpt><trkpt lat="44.20273194116988" lon="9.803078861207325"><ele>56.0</ele><time>2026-05-01T09:18:36Z</time></trkpt><trkpt lat="44.202570252916324" lon="9.803414474841867"><ele>56.0</ele><time>2026-05-01T09:18:37Z</time></trkpt><trkpt lat="44.20240267799253" lon="9.803758639239406"><ele>57.0</ele><time>2026-05-01T09:18:38Z</time></trkpt><trkpt lat="44.202230009743545" lon="9.80410217595411"><ele>58.0</ele><time>2026-05-01T09:18:39Z</time></trkpt><trkpt lat="44.20205876266576" lon="9.804446132043875"><ele>58.0</ele><time>2026-05-01T09:18:40Z</time></trkpt><trkpt lat="44.20188705919518" lon="9.804792186897563"><ele>58.0</ele><time>2026-05-01T09:18:41Z</time></trkpt><trkpt lat="44.20171560593054" lon="9.805140459734528"><ele>57.0</ele><time>2026-05-01T09:18:42Z</time></trkpt><trkpt lat="44.20154249723495" lon="9.805492075052074"><ele>56.0</ele><time>2026-05-01T09:18:43Z</time></trkpt><trkpt lat="44.20136734554585" lon="9.8058447019249"><ele>57.0</ele><time>2026-05-01T09:18:44Z</time></trkpt><trkpt lat="44.20118969116614" lon="9.806198379422057"><ele>58.0</ele><time>2026-05-01T09:18:45Z</time></trkpt><trkpt lat="44.20101456454983" lon="9.80654380980936"><ele>61.5</ele><time>2026-05-01T09:18:46Z</time></trkpt><trkpt lat="44.20084210236719" lon="9.806888534503928"><ele>65.0</ele><time>2026-05-01T09:18:47Z</time></trkpt><trkpt lat="44.20067316610418" lon="9.807230469584614"><ele>61.0</ele><time>2026-05-01T09:18:48Z</time></trkpt><trkpt lat="44.20050557066335" lon="9.807569442577298"><ele>57.0</ele><time>2026-05-01T09:18:49Z</time></trkpt><trkpt lat="44.2003385992617" lon="9.807904973883069"><ele>57.0</ele><time>2026-05-01T09:18:50Z</time></trkpt><trkpt lat="44.20017223777268" lon="9.808240509144476"><ele>57.0</ele><time>2026-05-01T09:18:51Z</time></trkpt><trkpt lat="44.200009250513226" lon="9.808567672998551"><ele>56.5</ele><time>2026-05-01T09:18:52Z</time></trkpt><trkpt lat="44.199848067077895" lon="9.808889788614781"><ele>56.0</ele><time>2026-05-01T09:18:53Z</time></trkpt><trkpt lat="44.19969037422093" lon="9.809204558190212"><ele>57.0</ele><time>2026-05-01T09:18:54Z</time></trkpt><trkpt lat="44.1995380850516" lon="9.809515527495245"><ele>58.0</ele><time>2026-05-01T09:18:55Z</time></trkpt><trkpt lat="44.19938326651893" lon="9.809831930724004"><ele>58.0</ele><time>2026-05-01T09:18:56Z</time></trkpt><trkpt lat="44.19922583138278" lon="9.81015316347174"><ele>58.0</ele><time>2026-05-01T09:18:57Z</time></trkpt><trkpt lat="44.199066472323516" lon="9.810476399807579"><ele>56.0</ele><time>2026-05-01T09:18:58Z</time></trkpt><trkpt lat="44.198911097405755" lon="9.810803927515195"><ele>54.0</ele><time>2026-05-01T09:18:59Z</time></trkpt><trkpt lat="44.19876845444588" lon="9.811132936845759"><ele>54.0</ele><time>2026-05-01T09:19:00Z</time></trkpt><trkpt lat="44.19863878013394" lon="9.81146686199837"><ele>54.0</ele><time>2026-05-01T09:19:01Z</time></trkpt><trkpt lat="44.198524421598556" lon="9.811809996543927"><ele>54.0</ele><time>2026-05-01T09:19:02Z</time></trkpt><trkpt lat="44.19842769433819" lon="9.812163037875926"><ele>54.0</ele><time>2026-05-01T09:19:03Z</time></trkpt><trkpt lat="44.19834209373623" lon="9.812524196241403"><ele>53.0</ele><time>2026-05-01T09:19:04Z</time></trkpt><trkpt lat="44.198276386029754" lon="9.81289457077955"><ele>52.0</ele><time>2026-05-01T09:19:05Z</time></trkpt><trkpt lat="44.19822498669689" lon="9.813271576318257"><ele>51.5</ele><time>2026-05-01T09:19:06Z</time></trkpt><trkpt lat="44.19818818137868" lon="9.813652489584115"><ele>51.0</ele><time>2026-05-01T09:19:07Z</time></trkpt><trkpt lat="44.19816878948792" lon="9.81404021976668"><ele>51.0</ele><time>2026-05-01T09:19:08Z</time></trkpt><trkpt lat="44.198166224084176" lon="9.814435475308935"><ele>51.0</ele><time>2026-05-01T09:19:09Z</time></trkpt><trkpt lat="44.19817896645404" lon="9.814835900498952"><ele>51.5</ele><time>2026-05-01T09:19:10Z</time></trkpt><trkpt lat="44.19820549316259" lon="9.815241777102626"><ele>52.0</ele><time>2026-05-01T09:19:11Z</time></trkpt><trkpt lat="44.198231650809944" lon="9.81565226953046"><ele>52.5</ele><time>2026-05-01T09:19:12Z</time></trkpt><trkpt lat="44.19825772593821" lon="9.816067325390824"><ele>53.0</ele><time>2026-05-01T09:19:13Z</time></trkpt><trkpt lat="44.19828513801602" lon="9.81648907629361"><ele>52.0</ele><time>2026-05-01T09:19:14Z</time></trkpt><trkpt lat="44.19831144355718" lon="9.816914396438339"><ele>51.0</ele><time>2026-05-01T09:19:15Z</time></trkpt><trkpt lat="44.19833764839429" lon="9.8173382966138"><ele>52.5</ele><time>2026-05-01T09:19:16Z</time></trkpt><trkpt lat="44.19836522839364" lon="9.817767263789262"><ele>54.0</ele><time>2026-05-01T09:19:17Z</time></trkpt><trkpt lat="44.19839349237495" lon="9.818195995655271"><ele>56.0</ele><time>2026-05-01T09:19:18Z</time></trkpt><trkpt lat="44.19841962388774" lon="9.818619273722334"><ele>58.0</ele><time>2026-05-01T09:19:19Z</time></trkpt><trkpt lat="44.19844559026719" lon="9.819043228481787"><ele>56.5</ele><time>2026-05-01T09:19:20Z</time></trkpt><trkpt lat="44.198470470706944" lon="9.819470550485867"><ele>55.0</ele><time>2026-05-01T09:19:21Z</time></trkpt><trkpt lat="44.19849794565689" lon="9.819895475348444"><ele>53.5</ele><time>2026-05-01T09:19:22Z</time></trkpt><trkpt lat="44.198523358162234" lon="9.820323431940727"><ele>52.0</ele><time>2026-05-01T09:19:23Z</time></trkpt><trkpt lat="44.19854852962375" lon="9.820750487624169"><ele>51.5</ele><time>2026-05-01T09:19:24Z</time></trkpt><trkpt lat="44.19857712452569" lon="9.821178769177182"><ele>51.0</ele><time>2026-05-01T09:19:25Z</time></trkpt><trkpt lat="44.19860696925396" lon="9.821608617580136"><ele>51.5</ele><time>2026-05-01T09:19:26Z</time></trkpt><trkpt lat="44.198634810388356" lon="9.822045021732926"><ele>52.0</ele><time>2026-05-01T09:19:27Z</time></trkpt><trkpt lat="44.19865954586458" lon="9.822480134691057"><ele>51.0</ele><time>2026-05-01T09:19:28Z</time></trkpt><trkpt lat="44.19868568644938" lon="9.822914674432976"><ele>50.0</ele><time>2026-05-01T09:19:29Z</time></trkpt><trkpt lat="44.1987119815561" lon="9.823345734931278"><ele>50.0</ele><time>2026-05-01T09:19:30Z</time></trkpt><trkpt lat="44.198740625555196" lon="9.823770052858203"><ele>50.0</ele><time>2026-05-01T09:19:30.999Z</time></trkpt><trkpt lat="44.19876715915363" lon="9.824197066109333"><ele>50.5</ele><time>2026-05-01T09:19:31.999Z</time></trkpt><trkpt lat="44.19879278465905" lon="9.824626801802205"><ele>51.0</ele><time>2026-05-01T09:19:32.999Z</time></trkpt><trkpt lat="44.19881893275827" lon="9.825059215212328"><ele>51.0</ele><time>2026-05-01T09:19:33.999Z</time></trkpt><trkpt lat="44.19884603578562" lon="9.82548585362557"><ele>51.0</ele><time>2026-05-01T09:19:34.999Z</time></trkpt><trkpt lat="44.19887311541489" lon="9.825910862771215"><ele>52.0</ele><time>2026-05-01T09:19:35.999Z</time></trkpt><trkpt lat="44.19890154469547" lon="9.826337392422575"><ele>53.0</ele><time>2026-05-01T09:19:36.999Z</time></trkpt><trkpt lat="44.198930513326154" lon="9.826773779446047"><ele>51.5</ele><time>2026-05-01T09:19:37.999Z</time></trkpt><trkpt lat="44.19895867213926" lon="9.827218944859991"><ele>50.0</ele><time>2026-05-01T09:19:38.999Z</time></trkpt><trkpt lat="44.19898685939016" lon="9.827668272028836"><ele>52.0</ele><time>2026-05-01T09:19:39.999Z</time></trkpt><trkpt lat="44.199016746461844" lon="9.828113600647493"><ele>54.0</ele><time>2026-05-01T09:19:40.999Z</time></trkpt><trkpt lat="44.19904560553499" lon="9.828559141356129"><ele>54.0</ele><time>2026-05-01T09:19:41.999Z</time></trkpt><trkpt lat="44.19907284483455" lon="9.829009161855122"><ele>54.0</ele><time>2026-05-01T09:19:42.999Z</time></trkpt><trkpt lat="44.199099039914216" lon="9.829454611006142"><ele>54.0</ele><time>2026-05-01T09:19:43.999Z</time></trkpt><trkpt lat="44.19912624037288" lon="9.829895840256391"><ele>54.0</ele><time>2026-05-01T09:19:44.999Z</time></trkpt><trkpt lat="44.199154688827846" lon="9.830337814737726"><ele>54.0</ele><time>2026-05-01T09:19:45.999Z</time></trkpt><trkpt lat="44.19918408840232" lon="9.830781693196734"><ele>54.0</ele><time>2026-05-01T09:19:46.999Z</time></trkpt><trkpt lat="44.19921287098505" lon="9.831233974154843"><ele>53.5</ele><time>2026-05-01T09:19:47.999Z</time></trkpt><trkpt lat="44.199242912823586" lon="9.831683960240628"><ele>53.0</ele><time>2026-05-01T09:19:48.999Z</time></trkpt><trkpt lat="44.19927222511616" lon="9.832128856589156"><ele>51.5</ele><time>2026-05-01T09:19:49.999Z</time></trkpt><trkpt lat="44.19929955374298" lon="9.832572011185505"><ele>50.0</ele><time>2026-05-01T09:19:50.999Z</time></trkpt><trkpt lat="44.19932735794169" lon="9.833019427121469"><ele>49.0</ele><time>2026-05-01T09:19:51.999Z</time></trkpt><trkpt lat="44.19935468129176" lon="9.833471120522626"><ele>48.0</ele><time>2026-05-01T09:19:52.999Z</time></trkpt><trkpt lat="44.19938375598179" lon="9.83391920772362"><ele>46.5</ele><time>2026-05-01T09:19:53.999Z</time></trkpt><trkpt lat="44.19941109809179" lon="9.83436618678292"><ele>45.0</ele><time>2026-05-01T09:19:54.999Z</time></trkpt><trkpt lat="44.199438713718656" lon="9.834817556141202"><ele>44.5</ele><time>2026-05-01T09:19:55.999Z</time></trkpt><trkpt lat="44.199467242837656" lon="9.835272516792445"><ele>44.0</ele><time>2026-05-01T09:19:56.999Z</time></trkpt><trkpt lat="44.19949794697538" lon="9.835729748603903"><ele>44.5</ele><time>2026-05-01T09:19:57.999Z</time></trkpt><trkpt lat="44.199526614444544" lon="9.836189298447765"><ele>45.0</ele><time>2026-05-01T09:19:58.999Z</time></trkpt><trkpt lat="44.19955444647753" lon="9.836649140797658"><ele>45.0</ele><time>2026-05-01T09:20:00Z</time></trkpt><trkpt lat="44.199581926508344" lon="9.837111364814941"><ele>45.0</ele><time>2026-05-01T09:20:01Z</time></trkpt><trkpt lat="44.19961203566308" lon="9.837574986928724"><ele>44.5</ele><time>2026-05-01T09:20:02Z</time></trkpt><trkpt lat="44.1996432680318" lon="9.83803801629864"><ele>44.0</ele><time>2026-05-01T09:20:03Z</time></trkpt><trkpt lat="44.199671747687745" lon="9.838502305523647"><ele>44.0</ele><time>2026-05-01T09:20:04Z</time></trkpt><trkpt lat="44.19969537174568" lon="9.838967314681263"><ele>44.0</ele><time>2026-05-01T09:20:05Z</time></trkpt><trkpt lat="44.199716515942505" lon="9.839432230528768"><ele>44.0</ele><time>2026-05-01T09:20:06Z</time></trkpt><trkpt lat="44.199724247128316" lon="9.839899946316073"><ele>44.0</ele><time>2026-05-01T09:20:07Z</time></trkpt><trkpt lat="44.19972071441903" lon="9.840367039704542"><ele>44.0</ele><time>2026-05-01T09:20:08Z</time></trkpt><trkpt lat="44.19971042733772" lon="9.840836131887874"><ele>44.0</ele><time>2026-05-01T09:20:09Z</time></trkpt><trkpt lat="44.19969322035947" lon="9.841302889067817"><ele>44.0</ele><time>2026-05-01T09:20:10Z</time></trkpt><trkpt lat="44.19966733061993" lon="9.841767398628528"><ele>44.0</ele><time>2026-05-01T09:20:11Z</time></trkpt><trkpt lat="44.19963296377841" lon="9.842232896777046"><ele>43.5</ele><time>2026-05-01T09:20:12Z</time></trkpt><trkpt lat="44.19959101466179" lon="9.842702907485355"><ele>43.0</ele><time>2026-05-01T09:20:13Z</time></trkpt><trkpt lat="44.19954279743115" lon="9.84317060164131"><ele>44.0</ele><time>2026-05-01T09:20:14Z</time></trkpt><trkpt lat="44.19949023539051" lon="9.843637394605087"><ele>45.0</ele><time>2026-05-01T09:20:15Z</time></trkpt><trkpt lat="44.19943525334848" lon="9.844103795745154"><ele>44.5</ele><time>2026-05-01T09:20:16Z</time></trkpt><trkpt lat="44.199378840531224" lon="9.844566974687012"><ele>44.0</ele><time>2026-05-01T09:20:17Z</time></trkpt><trkpt lat="44.19932529910944" lon="9.845028775280825"><ele>44.5</ele><time>2026-05-01T09:20:18Z</time></trkpt><trkpt lat="44.199273345103656" lon="9.845493832786506"><ele>45.0</ele><time>2026-05-01T09:20:19Z</time></trkpt><trkpt lat="44.199217564881025" lon="9.845963074082835"><ele>45.5</ele><time>2026-05-01T09:20:20Z</time></trkpt><trkpt lat="44.19915903267727" lon="9.846435816644016"><ele>46.0</ele><time>2026-05-01T09:20:21Z</time></trkpt><trkpt lat="44.199100969059174" lon="9.846907365153788"><ele>47.5</ele><time>2026-05-01T09:20:22Z</time></trkpt><trkpt lat="44.19904447124841" lon="9.847374945084457"><ele>49.0</ele><time>2026-05-01T09:20:23Z</time></trkpt><trkpt lat="44.198988862942336" lon="9.847828089463617"><ele>44.5</ele><time>2026-05-01T09:20:24Z</time></trkpt><trkpt lat="44.19893588911129" lon="9.848274970161672"><ele>40.0</ele><time>2026-05-01T09:20:25Z</time></trkpt><trkpt lat="44.19888388448521" lon="9.848728590157686"><ele>39.0</ele><time>2026-05-01T09:20:26Z</time></trkpt><trkpt lat="44.19882891996192" lon="9.849189760324975"><ele>38.0</ele><time>2026-05-01T09:20:27Z</time></trkpt><trkpt lat="44.19877169061477" lon="9.849654369286807"><ele>38.0</ele><time>2026-05-01T09:20:28Z</time></trkpt><trkpt lat="44.198717809239945" lon="9.850114597204318"><ele>38.0</ele><time>2026-05-01T09:20:29Z</time></trkpt><trkpt lat="44.19866738163831" lon="9.850556381253691"><ele>39.0</ele><time>2026-05-01T09:20:30Z</time></trkpt><trkpt lat="44.19861527120076" lon="9.851003543446792"><ele>40.0</ele><time>2026-05-01T09:20:31Z</time></trkpt><trkpt lat="44.198563005681166" lon="9.851449400960973"><ele>41.0</ele><time>2026-05-01T09:20:32Z</time></trkpt><trkpt lat="44.19851203346786" lon="9.851887130798687"><ele>42.0</ele><time>2026-05-01T09:20:33Z</time></trkpt><trkpt lat="44.19845985367315" lon="9.852316181848762"><ele>42.5</ele><time>2026-05-01T09:20:34Z</time></trkpt><trkpt lat="44.198406186890125" lon="9.852737270779112"><ele>43.0</ele><time>2026-05-01T09:20:35Z</time></trkpt><trkpt lat="44.19834609110489" lon="9.853157037104115"><ele>42.0</ele><time>2026-05-01T09:20:36Z</time></trkpt><trkpt lat="44.198263859176855" lon="9.853575878143689"><ele>41.0</ele><time>2026-05-01T09:20:37Z</time></trkpt><trkpt lat="44.198160073297935" lon="9.853993240158507"><ele>42.0</ele><time>2026-05-01T09:20:38Z</time></trkpt><trkpt lat="44.19803167213402" lon="9.854407616867475"><ele>43.0</ele><time>2026-05-01T09:20:39Z</time></trkpt><trkpt lat="44.19787554652066" lon="9.854811977681509"><ele>43.0</ele><time>2026-05-01T09:20:40Z</time></trkpt><trkpt lat="44.197702264654616" lon="9.855201811491074"><ele>43.0</ele><time>2026-05-01T09:20:41Z</time></trkpt><trkpt lat="44.197511762896376" lon="9.85557579375908"><ele>42.5</ele><time>2026-05-01T09:20:42Z</time></trkpt><trkpt lat="44.1973021734634" lon="9.855930895317837"><ele>42.0</ele><time>2026-05-01T09:20:43Z</time></trkpt><trkpt lat="44.197073836084456" lon="9.856262210931048"><ele>42.0</ele><time>2026-05-01T09:20:44Z</time></trkpt><trkpt lat="44.19683005013816" lon="9.856569218494483"><ele>42.0</ele><time>2026-05-01T09:20:45Z</time></trkpt><trkpt lat="44.196578201945854" lon="9.856846720768191"><ele>43.0</ele><time>2026-05-01T09:20:46Z</time></trkpt><trkpt lat="44.19631888527975" lon="9.857095800216221"><ele>44.0</ele><time>2026-05-01T09:20:47Z</time></trkpt><trkpt lat="44.19605666896069" lon="9.857311689973427"><ele>44.0</ele><time>2026-05-01T09:20:48Z</time></trkpt><trkpt lat="44.195790326566836" lon="9.857499958708694"><ele>44.0</ele><time>2026-05-01T09:20:49Z</time></trkpt><trkpt lat="44.195521288401274" lon="9.857663637514978"><ele>43.0</ele><time>2026-05-01T09:20:50Z</time></trkpt><trkpt lat="44.19525355364337" lon="9.857809246080627"><ele>42.0</ele><time>2026-05-01T09:20:51Z</time></trkpt><trkpt lat="44.194984934573455" lon="9.857932339678557"><ele>43.0</ele><time>2026-05-01T09:20:52Z</time></trkpt><trkpt lat="44.19472153973404" lon="9.858041657188677"><ele>44.0</ele><time>2026-05-01T09:20:53Z</time></trkpt><trkpt lat="44.194460718570454" lon="9.858154249971857"><ele>44.0</ele><time>2026-05-01T09:20:54Z</time></trkpt><trkpt lat="44.19420463978547" lon="9.858272191396468"><ele>44.0</ele><time>2026-05-01T09:20:55Z</time></trkpt><trkpt lat="44.19395308784381" lon="9.85838778373497"><ele>43.5</ele><time>2026-05-01T09:20:56Z</time></trkpt><trkpt lat="44.19369979737968" lon="9.858499340250743"><ele>43.0</ele><time>2026-05-01T09:20:57Z</time></trkpt><trkpt lat="44.19344199791307" lon="9.858612585037093"><ele>43.0</ele><time>2026-05-01T09:20:58Z</time></trkpt><trkpt lat="44.193181400514945" lon="9.858728814706009"><ele>43.0</ele><time>2026-05-01T09:20:59Z</time></trkpt><trkpt lat="44.192917443340775" lon="9.858845640930106"><ele>41.0</ele><time>2026-05-01T09:21:00Z</time></trkpt><trkpt lat="44.19265381845405" lon="9.858961756124167"><ele>39.0</ele><time>2026-05-01T09:21:01Z</time></trkpt><trkpt lat="44.192390649566306" lon="9.859080131531622"><ele>39.0</ele><time>2026-05-01T09:21:02Z</time></trkpt><trkpt lat="44.192126571095834" lon="9.859201775090867"><ele>39.0</ele><time>2026-05-01T09:21:03Z</time></trkpt><trkpt lat="44.191856669049415" lon="9.859324650408825"><ele>39.0</ele><time>2026-05-01T09:21:04Z</time></trkpt><trkpt lat="44.19158331040167" lon="9.859446770449674"><ele>39.0</ele><time>2026-05-01T09:21:05Z</time></trkpt><trkpt lat="44.19131042651111" lon="9.85956875717244"><ele>38.5</ele><time>2026-05-01T09:21:06Z</time></trkpt><trkpt lat="44.19103384900837" lon="9.859690953592802"><ele>38.0</ele><time>2026-05-01T09:21:07Z</time></trkpt><trkpt lat="44.19075350421536" lon="9.859816349016981"><ele>37.0</ele><time>2026-05-01T09:21:08Z</time></trkpt><trkpt lat="44.19046367474924" lon="9.859945485697846"><ele>36.0</ele><time>2026-05-01T09:21:09Z</time></trkpt><trkpt lat="44.1901691802321" lon="9.860076172892107"><ele>35.5</ele><time>2026-05-01T09:21:10Z</time></trkpt><trkpt lat="44.18986932403623" lon="9.860210289598598"><ele>35.0</ele><time>2026-05-01T09:21:11Z</time></trkpt><trkpt lat="44.18956720919011" lon="9.860346878063329"><ele>35.0</ele><time>2026-05-01T09:21:12Z</time></trkpt><trkpt lat="44.18925910264606" lon="9.86048471829407"><ele>35.0</ele><time>2026-05-01T09:21:13Z</time></trkpt><trkpt lat="44.188948573357514" lon="9.860622198554529"><ele>36.0</ele><time>2026-05-01T09:21:14Z</time></trkpt><trkpt lat="44.18863262044659" lon="9.860762684110206"><ele>37.0</ele><time>2026-05-01T09:21:15Z</time></trkpt><trkpt lat="44.1883143098015" lon="9.860904688656095"><ele>36.0</ele><time>2026-05-01T09:21:16Z</time></trkpt><trkpt lat="44.18799493614599" lon="9.861046229888231"><ele>35.0</ele><time>2026-05-01T09:21:17Z</time></trkpt><trkpt lat="44.18767335171871" lon="9.861187085034075"><ele>35.0</ele><time>2026-05-01T09:21:18Z</time></trkpt><trkpt lat="44.18734692183149" lon="9.861328334514937"><ele>35.0</ele><time>2026-05-01T09:21:19Z</time></trkpt><trkpt lat="44.18701910601849" lon="9.861471946282778"><ele>35.0</ele><time>2026-05-01T09:21:20Z</time></trkpt><trkpt lat="44.18668789026969" lon="9.861615751998174"><ele>35.0</ele><time>2026-05-01T09:21:21Z</time></trkpt><trkpt lat="44.18635501410381" lon="9.861760612482346"><ele>35.0</ele><time>2026-05-01T09:21:22Z</time></trkpt><trkpt lat="44.186023008014196" lon="9.861906286663958"><ele>35.0</ele><time>2026-05-01T09:21:23Z</time></trkpt><trkpt lat="44.185691439920056" lon="9.862054238151922"><ele>34.5</ele><time>2026-05-01T09:21:24Z</time></trkpt><trkpt lat="44.18535836809955" lon="9.862203072058513"><ele>34.0</ele><time>2026-05-01T09:21:25Z</time></trkpt><trkpt lat="44.18502441846483" lon="9.862351497378924"><ele>34.5</ele><time>2026-05-01T09:21:26Z</time></trkpt><trkpt lat="44.18468926360975" lon="9.862500878583157"><ele>35.0</ele><time>2026-05-01T09:21:27Z</time></trkpt><trkpt lat="44.1843534160741" lon="9.862650159946938"><ele>40.5</ele><time>2026-05-01T09:21:28Z</time></trkpt><trkpt lat="44.18401756678077" lon="9.862801602987092"><ele>46.0</ele><time>2026-05-01T09:21:29Z</time></trkpt><trkpt lat="44.18368374672346" lon="9.862953893597089"><ele>46.0</ele><time>2026-05-01T09:21:30Z</time></trkpt><trkpt lat="44.18335267722296" lon="9.863111497945475"><ele>46.0</ele><time>2026-05-01T09:21:31Z</time></trkpt><trkpt lat="44.18302347934911" lon="9.863275353078231"><ele>43.5</ele><time>2026-05-01T09:21:31.999Z</time></trkpt><trkpt lat="44.18269951795175" lon="9.863455176843177"><ele>41.0</ele><time>2026-05-01T09:21:32.999Z</time></trkpt><trkpt lat="44.182376409912656" lon="9.863641518263716"><ele>38.5</ele><time>2026-05-01T09:21:33.999Z</time></trkpt><trkpt lat="44.18205626893698" lon="9.863836835310565"><ele>36.0</ele><time>2026-05-01T09:21:34.999Z</time></trkpt><trkpt lat="44.181739904217004" lon="9.864036979024522"><ele>37.0</ele><time>2026-05-01T09:21:35.999Z</time></trkpt><trkpt lat="44.181426520651584" lon="9.864244766545095"><ele>38.0</ele><time>2026-05-01T09:21:36.999Z</time></trkpt><trkpt lat="44.18111764244531" lon="9.864459832697472"><ele>38.0</ele><time>2026-05-01T09:21:37.999Z</time></trkpt><trkpt lat="44.18080890217067" lon="9.864682006859368"><ele>38.0</ele><time>2026-05-01T09:21:38.999Z</time></trkpt><trkpt lat="44.180499207088154" lon="9.864901550882395"><ele>35.5</ele><time>2026-05-01T09:21:39.999Z</time></trkpt><trkpt lat="44.18018788940081" lon="9.865119747760682"><ele>33.0</ele><time>2026-05-01T09:21:40.999Z</time></trkpt><trkpt lat="44.179877826268495" lon="9.865338449242673"><ele>34.0</ele><time>2026-05-01T09:21:41.999Z</time></trkpt><trkpt lat="44.17957003613315" lon="9.865557127969444"><ele>35.0</ele><time>2026-05-01T09:21:42.999Z</time></trkpt><trkpt lat="44.17926304372882" lon="9.865776514035467"><ele>33.0</ele><time>2026-05-01T09:21:43.999Z</time></trkpt><trkpt lat="44.17895788731524" lon="9.865994156975157"><ele>31.0</ele><time>2026-05-01T09:21:44.999Z</time></trkpt><trkpt lat="44.178657693705105" lon="9.866208416992277"><ele>31.0</ele><time>2026-05-01T09:21:45.999Z</time></trkpt><trkpt lat="44.1783602079776" lon="9.866420352085637"><ele>31.0</ele><time>2026-05-01T09:21:46.999Z</time></trkpt><trkpt lat="44.17806291086161" lon="9.866629771809174"><ele>30.5</ele><time>2026-05-01T09:21:47.999Z</time></trkpt><trkpt lat="44.17776513183342" lon="9.866841256285076"><ele>30.0</ele><time>2026-05-01T09:21:48.999Z</time></trkpt><trkpt lat="44.177468022121914" lon="9.86705302795966"><ele>29.5</ele><time>2026-05-01T09:21:49.999Z</time></trkpt><trkpt lat="44.177173614957454" lon="9.867264318629271"><ele>29.0</ele><time>2026-05-01T09:21:50.999Z</time></trkpt><trkpt lat="44.17688053613121" lon="9.86747333131486"><ele>29.0</ele><time>2026-05-01T09:21:51.999Z</time></trkpt><trkpt lat="44.17658959279228" lon="9.867680638620545"><ele>29.0</ele><time>2026-05-01T09:21:52.999Z</time></trkpt><trkpt lat="44.17630724416174" lon="9.867881579561887"><ele>29.0</ele><time>2026-05-01T09:21:53.999Z</time></trkpt><trkpt lat="44.176028788969646" lon="9.868079894248185"><ele>29.0</ele><time>2026-05-01T09:21:54.999Z</time></trkpt><trkpt lat="44.17574679389052" lon="9.86828145591884"><ele>29.0</ele><time>2026-05-01T09:21:55.999Z</time></trkpt><trkpt lat="44.175462871735554" lon="9.868485169117491"><ele>29.0</ele><time>2026-05-01T09:21:56.999Z</time></trkpt><trkpt lat="44.17517975131994" lon="9.868690441139236"><ele>29.0</ele><time>2026-05-01T09:21:57.999Z</time></trkpt><trkpt lat="44.174896821721404" lon="9.868892528000492"><ele>29.0</ele><time>2026-05-01T09:21:58.999Z</time></trkpt><trkpt lat="44.17461654447364" lon="9.869095786908709"><ele>28.0</ele><time>2026-05-01T09:21:59.999Z</time></trkpt><trkpt lat="44.17433775137797" lon="9.869297567891234"><ele>27.0</ele><time>2026-05-01T09:22:00.999Z</time></trkpt><trkpt lat="44.17405481139197" lon="9.86949710396159"><ele>26.5</ele><time>2026-05-01T09:22:01.999Z</time></trkpt><trkpt lat="44.173769864736954" lon="9.869697698739937"><ele>26.0</ele><time>2026-05-01T09:22:02.999Z</time></trkpt><trkpt lat="44.17348353650162" lon="9.869897899020145"><ele>26.0</ele><time>2026-05-01T09:22:03.999Z</time></trkpt><trkpt lat="44.17320274069091" lon="9.87009966764174"><ele>26.0</ele><time>2026-05-01T09:22:04.999Z</time></trkpt><trkpt lat="44.172923206114454" lon="9.870302686204043"><ele>26.0</ele><time>2026-05-01T09:22:06Z</time></trkpt><trkpt lat="44.17264403123801" lon="9.87050312984031"><ele>26.0</ele><time>2026-05-01T09:22:07Z</time></trkpt><trkpt lat="44.17236320629904" lon="9.87070503900224"><ele>26.0</ele><time>2026-05-01T09:22:08Z</time></trkpt><trkpt lat="44.17208598841864" lon="9.870910469832252"><ele>26.0</ele><time>2026-05-01T09:22:09Z</time></trkpt><trkpt lat="44.17181418508323" lon="9.871123220965634"><ele>26.0</ele><time>2026-05-01T09:22:10Z</time></trkpt><trkpt lat="44.17154211306034" lon="9.871338814110697"><ele>26.0</ele><time>2026-05-01T09:22:11Z</time></trkpt><trkpt lat="44.171267324576604" lon="9.87156007799175"><ele>26.0</ele><time>2026-05-01T09:22:12Z</time></trkpt><trkpt lat="44.17099246537068" lon="9.871787121655634"><ele>26.0</ele><time>2026-05-01T09:22:13Z</time></trkpt><trkpt lat="44.170719377728204" lon="9.87202052679619"><ele>26.0</ele><time>2026-05-01T09:22:14Z</time></trkpt><trkpt lat="44.170452687103726" lon="9.872253520773343"><ele>26.0</ele><time>2026-05-01T09:22:15Z</time></trkpt><trkpt lat="44.17018872195571" lon="9.872492123750733"><ele>26.0</ele><time>2026-05-01T09:22:16Z</time></trkpt><trkpt lat="44.169921849016085" lon="9.87273777273028"><ele>26.0</ele><time>2026-05-01T09:22:17Z</time></trkpt><trkpt lat="44.169656483293075" lon="9.872986198693598"><ele>26.0</ele><time>2026-05-01T09:22:18Z</time></trkpt><trkpt lat="44.16939254172844" lon="9.87323930701681"><ele>26.0</ele><time>2026-05-01T09:22:19Z</time></trkpt><trkpt lat="44.16912869965593" lon="9.873500235196367"><ele>26.0</ele><time>2026-05-01T09:22:20Z</time></trkpt><trkpt lat="44.16886499575126" lon="9.873765198871853"><ele>26.0</ele><time>2026-05-01T09:22:21Z</time></trkpt><trkpt lat="44.16860206127655" lon="9.87403785762611"><ele>26.5</ele><time>2026-05-01T09:22:22Z</time></trkpt><trkpt lat="44.16833807167811" lon="9.874319819331873"><ele>27.0</ele><time>2026-05-01T09:22:23Z</time></trkpt><trkpt lat="44.1680741827256" lon="9.874608978425933"><ele>25.5</ele><time>2026-05-01T09:22:24Z</time></trkpt><trkpt lat="44.16780770559487" lon="9.874906201226517"><ele>24.0</ele><time>2026-05-01T09:22:25Z</time></trkpt><trkpt lat="44.16754204213223" lon="9.87521115350545"><ele>23.5</ele><time>2026-05-01T09:22:26Z</time></trkpt><trkpt lat="44.16727935649916" lon="9.875521341643163"><ele>23.0</ele><time>2026-05-01T09:22:27Z</time></trkpt><trkpt lat="44.16702059866479" lon="9.875839071955113"><ele>23.0</ele><time>2026-05-01T09:22:28Z</time></trkpt><trkpt lat="44.1667656214833" lon="9.876160095329325"><ele>23.0</ele><time>2026-05-01T09:22:29Z</time></trkpt><trkpt lat="44.166513898709105" lon="9.876487016421878"><ele>24.0</ele><time>2026-05-01T09:22:30Z</time></trkpt><trkpt lat="44.16626174280703" lon="9.87682048286649"><ele>25.0</ele><time>2026-05-01T09:22:31Z</time></trkpt><trkpt lat="44.1660128729641" lon="9.877158096344138"><ele>25.0</ele><time>2026-05-01T09:22:32Z</time></trkpt><trkpt lat="44.16576613537714" lon="9.877502285060332"><ele>25.0</ele><time>2026-05-01T09:22:33Z</time></trkpt><trkpt lat="44.165524652591344" lon="9.877844673273454"><ele>24.0</ele><time>2026-05-01T09:22:34Z</time></trkpt><trkpt lat="44.165289102686984" lon="9.878188643902018"><ele>23.0</ele><time>2026-05-01T09:22:35Z</time></trkpt><trkpt lat="44.16505771231572" lon="9.87853940198888"><ele>23.0</ele><time>2026-05-01T09:22:36Z</time></trkpt><trkpt lat="44.16483167032387" lon="9.87889354686056"><ele>23.0</ele><time>2026-05-01T09:22:37Z</time></trkpt><trkpt lat="44.164608226749884" lon="9.879250452888071"><ele>23.0</ele><time>2026-05-01T09:22:38Z</time></trkpt><trkpt lat="44.164387489456225" lon="9.8796090683814"><ele>23.0</ele><time>2026-05-01T09:22:39Z</time></trkpt><trkpt lat="44.164169926093365" lon="9.879970657670984"><ele>22.5</ele><time>2026-05-01T09:22:40Z</time></trkpt><trkpt lat="44.16395515006488" lon="9.88033372112922"><ele>22.0</ele><time>2026-05-01T09:22:41Z</time></trkpt><trkpt lat="44.16374363080754" lon="9.880702915316508"><ele>22.5</ele><time>2026-05-01T09:22:42Z</time></trkpt><trkpt lat="44.16353428697062" lon="9.881075780730432"><ele>23.0</ele><time>2026-05-01T09:22:43Z</time></trkpt><trkpt lat="44.16332634044998" lon="9.881455087295759"><ele>23.0</ele><time>2026-05-01T09:22:44Z</time></trkpt><trkpt lat="44.16312397008063" lon="9.881836427215934"><ele>23.0</ele><time>2026-05-01T09:22:45Z</time></trkpt><trkpt lat="44.162923560308776" lon="9.882224060501294"><ele>22.0</ele><time>2026-05-01T09:22:46Z</time></trkpt><trkpt lat="44.16272477035748" lon="9.882616630056239"><ele>21.0</ele><time>2026-05-01T09:22:47Z</time></trkpt><trkpt lat="44.162530519238864" lon="9.883011167511723"><ele>21.0</ele><time>2026-05-01T09:22:48Z</time></trkpt><trkpt lat="44.16234185649188" lon="9.883408301637234"><ele>21.0</ele><time>2026-05-01T09:22:49Z</time></trkpt><trkpt lat="44.162155955147696" lon="9.883810349518036"><ele>21.0</ele><time>2026-05-01T09:22:50Z</time></trkpt><trkpt lat="44.16197548700871" lon="9.88421229567223"><ele>21.0</ele><time>2026-05-01T09:22:51Z</time></trkpt><trkpt lat="44.16179923089252" lon="9.884616503638457"><ele>21.0</ele><time>2026-05-01T09:22:52Z</time></trkpt><trkpt lat="44.161626973053515" lon="9.88501973324765"><ele>21.0</ele><time>2026-05-01T09:22:53Z</time></trkpt><trkpt lat="44.16146188325251" lon="9.885418803505644"><ele>21.0</ele><time>2026-05-01T09:22:54Z</time></trkpt><trkpt lat="44.16130541051788" lon="9.885812174366626"><ele>21.0</ele><time>2026-05-01T09:22:55Z</time></trkpt><trkpt lat="44.161153769967854" lon="9.886204494723575"><ele>21.0</ele><time>2026-05-01T09:22:56Z</time></trkpt><trkpt lat="44.161005286937254" lon="9.886595457630252"><ele>21.0</ele><time>2026-05-01T09:22:57Z</time></trkpt><trkpt lat="44.16085576788101" lon="9.886986929510426"><ele>21.5</ele><time>2026-05-01T09:22:58Z</time></trkpt><trkpt lat="44.160708209116386" lon="9.887370373639065"><ele>22.0</ele><time>2026-05-01T09:22:59Z</time></trkpt><trkpt lat="44.160562505709706" lon="9.887747789072604"><ele>22.5</ele><time>2026-05-01T09:23:00Z</time></trkpt><trkpt lat="44.160418985343014" lon="9.888116512008246"><ele>23.0</ele><time>2026-05-01T09:23:01Z</time></trkpt><trkpt lat="44.16027630979489" lon="9.888485685379086"><ele>23.0</ele><time>2026-05-01T09:23:02Z</time></trkpt><trkpt lat="44.16013676904197" lon="9.888855750333297"><ele>23.0</ele><time>2026-05-01T09:23:03Z</time></trkpt><trkpt lat="44.159994975527624" lon="9.889227618052463"><ele>22.5</ele><time>2026-05-01T09:23:04Z</time></trkpt><trkpt lat="44.159852629740996" lon="9.889597867180226"><ele>22.0</ele><time>2026-05-01T09:23:05Z</time></trkpt><trkpt lat="44.15971024131492" lon="9.889962930546915"><ele>21.5</ele><time>2026-05-01T09:23:06Z</time></trkpt><trkpt lat="44.159567388709135" lon="9.890329529126229"><ele>21.0</ele><time>2026-05-01T09:23:07Z</time></trkpt><trkpt lat="44.1594239007592" lon="9.8906968194535"><ele>21.5</ele><time>2026-05-01T09:23:08Z</time></trkpt><trkpt lat="44.15928311515059" lon="9.89106593733126"><ele>22.0</ele><time>2026-05-01T09:23:09Z</time></trkpt><trkpt lat="44.15914173894416" lon="9.891437297506977"><ele>21.0</ele><time>2026-05-01T09:23:10Z</time></trkpt><trkpt lat="44.15899777113771" lon="9.891808761598478"><ele>20.0</ele><time>2026-05-01T09:23:11Z</time></trkpt><trkpt lat="44.158850484412675" lon="9.892185697372403"><ele>20.0</ele><time>2026-05-01T09:23:12Z</time></trkpt><trkpt lat="44.15870278425148" lon="9.892566046861685"><ele>20.0</ele><time>2026-05-01T09:23:13Z</time></trkpt><trkpt lat="44.158554746518085" lon="9.892949998723227"><ele>20.5</ele><time>2026-05-01T09:23:14Z</time></trkpt><trkpt lat="44.15840708735101" lon="9.893336929819872"><ele>21.0</ele><time>2026-05-01T09:23:15Z</time></trkpt><trkpt lat="44.15825905225501" lon="9.893725211667444"><ele>20.5</ele><time>2026-05-01T09:23:16Z</time></trkpt><trkpt lat="44.15811223170184" lon="9.894111595811879"><ele>20.0</ele><time>2026-05-01T09:23:17Z</time></trkpt><trkpt lat="44.15796422434547" lon="9.894495778748858"><ele>21.5</ele><time>2026-05-01T09:23:18Z</time></trkpt><trkpt lat="44.15781675312565" lon="9.894879855652393"><ele>23.0</ele><time>2026-05-01T09:23:19Z</time></trkpt><trkpt lat="44.15766724940941" lon="9.895266887108546"><ele>23.5</ele><time>2026-05-01T09:23:20Z</time></trkpt><trkpt lat="44.15751450721805" lon="9.895658937993707"><ele>24.0</ele><time>2026-05-01T09:23:21Z</time></trkpt><trkpt lat="44.1573572596571" lon="9.896058129319423"><ele>23.5</ele><time>2026-05-01T09:23:22Z</time></trkpt><trkpt lat="44.15719757529419" lon="9.896457833348707"><ele>23.0</ele><time>2026-05-01T09:23:23Z</time></trkpt><trkpt lat="44.157036014798166" lon="9.896854564205082"><ele>23.0</ele><time>2026-05-01T09:23:24Z</time></trkpt><trkpt lat="44.15686970166883" lon="9.897243089226755"><ele>23.0</ele><time>2026-05-01T09:23:25Z</time></trkpt><trkpt lat="44.15669629097954" lon="9.897618277965512"><ele>22.0</ele><time>2026-05-01T09:23:26Z</time></trkpt><trkpt lat="44.15651850209185" lon="9.89798859122421"><ele>21.0</ele><time>2026-05-01T09:23:27Z</time></trkpt><trkpt lat="44.15633295924329" lon="9.898353980645975"><ele>21.5</ele><time>2026-05-01T09:23:28Z</time></trkpt><trkpt lat="44.15613947423727" lon="9.898719223754679"><ele>22.0</ele><time>2026-05-01T09:23:29Z</time></trkpt><trkpt lat="44.155941965878355" lon="9.899079142632232"><ele>22.0</ele><time>2026-05-01T09:23:30Z</time></trkpt><trkpt lat="44.15573740025729" lon="9.899432477298205"><ele>22.0</ele><time>2026-05-01T09:23:30.999Z</time></trkpt><trkpt lat="44.15552552557017" lon="9.899778600730441"><ele>23.5</ele><time>2026-05-01T09:23:31.999Z</time></trkpt><trkpt lat="44.15530751366108" lon="9.900116313365986"><ele>25.0</ele><time>2026-05-01T09:23:32.999Z</time></trkpt><trkpt lat="44.15508933400635" lon="9.900444067118846"><ele>24.5</ele><time>2026-05-01T09:23:33.999Z</time></trkpt><trkpt lat="44.15486647663598" lon="9.900762675243813"><ele>24.0</ele><time>2026-05-01T09:23:34.999Z</time></trkpt><trkpt lat="44.15463890034666" lon="9.901073286681855"><ele>24.0</ele><time>2026-05-01T09:23:35.999Z</time></trkpt><trkpt lat="44.15441147619926" lon="9.901368107218502"><ele>24.0</ele><time>2026-05-01T09:23:36.999Z</time></trkpt><trkpt lat="44.1541833928677" lon="9.901649636682668"><ele>23.0</ele><time>2026-05-01T09:23:37.999Z</time></trkpt><trkpt lat="44.15395322932176" lon="9.901924536571853"><ele>22.0</ele><time>2026-05-01T09:23:38.999Z</time></trkpt><trkpt lat="44.15372964240209" lon="9.902187430496161"><ele>22.0</ele><time>2026-05-01T09:23:39.999Z</time></trkpt><trkpt lat="44.15350090233399" lon="9.902449587461627"><ele>22.0</ele><time>2026-05-01T09:23:40.999Z</time></trkpt><trkpt lat="44.153265992361696" lon="9.902706053071856"><ele>21.0</ele><time>2026-05-01T09:23:41.999Z</time></trkpt><trkpt lat="44.15302524715616" lon="9.902950399301785"><ele>20.0</ele><time>2026-05-01T09:23:42.999Z</time></trkpt><trkpt lat="44.15278215443354" lon="9.903183196806316"><ele>19.5</ele><time>2026-05-01T09:23:43.999Z</time></trkpt><trkpt lat="44.15253073379006" lon="9.903413939704556"><ele>19.0</ele><time>2026-05-01T09:23:44.999Z</time></trkpt><trkpt lat="44.15227948832904" lon="9.903640981825784"><ele>21.5</ele><time>2026-05-01T09:23:45.999Z</time></trkpt><trkpt lat="44.15203633434729" lon="9.903849661599038"><ele>24.0</ele><time>2026-05-01T09:23:46.999Z</time></trkpt><trkpt lat="44.15180049637175" lon="9.904041352274271"><ele>24.0</ele><time>2026-05-01T09:23:47.999Z</time></trkpt><trkpt lat="44.15156443685549" lon="9.904229953466578"><ele>24.0</ele><time>2026-05-01T09:23:48.999Z</time></trkpt><trkpt lat="44.151328060292826" lon="9.904410682108685"><ele>21.0</ele><time>2026-05-01T09:23:49.999Z</time></trkpt><trkpt lat="44.15109442425083" lon="9.904585213087767"><ele>18.0</ele><time>2026-05-01T09:23:50.999Z</time></trkpt><trkpt lat="44.15086801135211" lon="9.904754382203585"><ele>18.5</ele><time>2026-05-01T09:23:51.999Z</time></trkpt><trkpt lat="44.15065405283281" lon="9.904911734442043"><ele>19.0</ele><time>2026-05-01T09:23:52.999Z</time></trkpt><trkpt lat="44.15045024030257" lon="9.905061684864354"><ele>18.333333333333332</ele><time>2026-05-01T09:23:53.999Z</time></trkpt><trkpt lat="44.15026398656239" lon="9.90519920461426"><ele>17.666666666666668</ele><time>2026-05-01T09:23:54.999Z</time></trkpt><trkpt lat="44.15011217131918" lon="9.905315972163955"><ele>17.0</ele><time>2026-05-01T09:23:55.999Z</time></trkpt><trkpt lat="44.14997611354441" lon="9.90542206144062"><ele>16.6</ele><time>2026-05-01T09:23:56.999Z</time></trkpt><trkpt lat="44.14985027815882" lon="9.905523130372535"><ele>16.2</ele><time>2026-05-01T09:23:57.999Z</time></trkpt><trkpt lat="44.14974682885024" lon="9.905605972400958"><ele>15.8</ele><time>2026-05-01T09:23:58.999Z</time></trkpt><trkpt lat="44.149662650610786" lon="9.90566854309026"><ele>15.4</ele><time>2026-05-01T09:23:59.999Z</time></trkpt><trkpt lat="44.149589227621554" lon="9.905715158964519"><ele>15.0</ele><time>2026-05-01T09:24:00.999Z</time></trkpt><trkpt lat="44.1495275120366" lon="9.905744899820215"><ele>15.0</ele><time>2026-05-01T09:24:01.999Z</time></trkpt><trkpt lat="44.14940074054064" lon="9.905810228375321"><ele>15.0</ele><time>2026-05-01T09:24:03.999Z</time></trkpt><trkpt lat="44.14932091236707" lon="9.905868254285814"><ele>15.0</ele><time>2026-05-01T09:24:04.999Z</time></trkpt><trkpt lat="44.1492326362826" lon="9.90593438207173"><ele>15.0</ele><time>2026-05-01T09:24:05.999Z</time></trkpt><trkpt lat="44.1491444053733" lon="9.905999908960085"><ele>15.0</ele><time>2026-05-01T09:24:06.999Z</time></trkpt><trkpt lat="44.14905850116854" lon="9.906068800923595"><ele>15.0</ele><time>2026-05-01T09:24:07.999Z</time></trkpt><trkpt lat="44.14896788531735" lon="9.906146479948337"><ele>15.0</ele><time>2026-05-01T09:24:08.999Z</time></trkpt><trkpt lat="44.148888859221124" lon="9.906212266445712"><ele>15.0</ele><time>2026-05-01T09:24:09.999Z</time></trkpt><trkpt lat="44.148822468684806" lon="9.906264957577616"><ele>15.0</ele><time>2026-05-01T09:24:10.999Z</time></trkpt><trkpt lat="44.148757860371816" lon="9.906312581882913"><ele>15.0</ele><time>2026-05-01T09:24:12Z</time></trkpt><trkpt lat="44.14869194890618" lon="9.906361334513393"><ele>15.0</ele><time>2026-05-01T09:24:13Z</time></trkpt><trkpt lat="44.148625488165564" lon="9.906412293805136"><ele>15.0</ele><time>2026-05-01T09:24:14Z</time></trkpt><trkpt lat="44.14855531225857" lon="9.90646835608281"><ele>15.0</ele><time>2026-05-01T09:24:15Z</time></trkpt><trkpt lat="44.14848231683904" lon="9.906520611726863"><ele>15.0</ele><time>2026-05-01T09:24:16Z</time></trkpt><trkpt lat="44.14840880093684" lon="9.906567982275622"><ele>15.0</ele><time>2026-05-01T09:24:17Z</time></trkpt><trkpt lat="44.148332340968125" lon="9.906612107671984"><ele>15.0</ele><time>2026-05-01T09:24:18Z</time></trkpt><trkpt lat="44.14824916967881" lon="9.906662135724305"><ele>15.0</ele><time>2026-05-01T09:24:19Z</time></trkpt><trkpt lat="44.14816178944272" lon="9.90672335134501"><ele>15.0</ele><time>2026-05-01T09:24:20Z</time></trkpt><trkpt lat="44.148074581161815" lon="9.9067968659231"><ele>15.0</ele><time>2026-05-01T09:24:21Z</time></trkpt><trkpt lat="44.14798664590374" lon="9.906865961513521"><ele>15.0</ele><time>2026-05-01T09:24:22Z</time></trkpt><trkpt lat="44.14789905553047" lon="9.90693600072705"><ele>15.0</ele><time>2026-05-01T09:24:23Z</time></trkpt><trkpt lat="44.14781136194173" lon="9.907006079163132"><ele>15.0</ele><time>2026-05-01T09:24:24Z</time></trkpt><trkpt lat="44.14771802179705" lon="9.90707655379672"><ele>15.0</ele><time>2026-05-01T09:24:25Z</time></trkpt><trkpt lat="44.14762187976492" lon="9.907150945995294"><ele>15.0</ele><time>2026-05-01T09:24:26Z</time></trkpt><trkpt lat="44.14752433493895" lon="9.907231804086747"><ele>15.0</ele><time>2026-05-01T09:24:27Z</time></trkpt><trkpt lat="44.14742238710529" lon="9.907314694248496"><ele>15.0</ele><time>2026-05-01T09:24:28Z</time></trkpt><trkpt lat="44.14731747591168" lon="9.90739833871101"><ele>15.0</ele><time>2026-05-01T09:24:29Z</time></trkpt><trkpt lat="44.14721494880179" lon="9.907481050864238"><ele>15.0</ele><time>2026-05-01T09:24:30Z</time></trkpt><trkpt lat="44.1471155106911" lon="9.907562211791367"><ele>15.0</ele><time>2026-05-01T09:24:31Z</time></trkpt><trkpt lat="44.147021020712046" lon="9.907637187873998"><ele>15.0</ele><time>2026-05-01T09:24:32Z</time></trkpt><trkpt lat="44.146935868230074" lon="9.90770539163699"><ele>15.0</ele><time>2026-05-01T09:24:33Z</time></trkpt><trkpt lat="44.146864238726735" lon="9.907761122037734"><ele>14.8</ele><time>2026-05-01T09:24:34Z</time></trkpt><trkpt lat="44.1467903853396" lon="9.907818896537274"><ele>14.6</ele><time>2026-05-01T09:24:35Z</time></trkpt><trkpt lat="44.14671546336834" lon="9.907880738317946"><ele>14.399999999999999</ele><time>2026-05-01T09:24:36Z</time></trkpt><trkpt lat="44.146635821575664" lon="9.907951711892455"><ele>14.2</ele><time>2026-05-01T09:24:37Z</time></trkpt><trkpt lat="44.14654293559835" lon="9.908027645954768"><ele>14.0</ele><time>2026-05-01T09:24:38Z</time></trkpt><trkpt lat="44.14644001969015" lon="9.908112253928733"><ele>13.75</ele><time>2026-05-01T09:24:39Z</time></trkpt><trkpt lat="44.1463311079885" lon="9.908199615334249"><ele>13.5</ele><time>2026-05-01T09:24:40Z</time></trkpt><trkpt lat="44.146211872304775" lon="9.908292963398038"><ele>13.25</ele><time>2026-05-01T09:24:41Z</time></trkpt><trkpt lat="44.14608524291409" lon="9.908392603632372"><ele>13.0</ele><time>2026-05-01T09:24:42Z</time></trkpt><trkpt lat="44.1459566452003" lon="9.908496360408767"><ele>12.666666666666666</ele><time>2026-05-01T09:24:43Z</time></trkpt><trkpt lat="44.14582086998764" lon="9.90860540637721"><ele>12.333333333333332</ele><time>2026-05-01T09:24:44Z</time></trkpt><trkpt lat="44.14568278894529" lon="9.908715304630062"><ele>12.0</ele><time>2026-05-01T09:24:45Z</time></trkpt><trkpt lat="44.14554138715528" lon="9.908823053553652"><ele>13.0</ele><time>2026-05-01T09:24:46Z</time></trkpt><trkpt lat="44.145397585949695" lon="9.908931259377553"><ele>14.0</ele><time>2026-05-01T09:24:47Z</time></trkpt><trkpt lat="44.14524610592531" lon="9.909047184627118"><ele>15.0</ele><time>2026-05-01T09:24:48Z</time></trkpt><trkpt lat="44.145086956548376" lon="9.909169913204233"><ele>15.0</ele><time>2026-05-01T09:24:49Z</time></trkpt><trkpt lat="44.14491975538657" lon="9.909297331485508"><ele>15.0</ele><time>2026-05-01T09:24:50Z</time></trkpt><trkpt lat="44.14474849034691" lon="9.909431092238439"><ele>15.0</ele><time>2026-05-01T09:24:51Z</time></trkpt><trkpt lat="44.144577869405765" lon="9.909565233614838"><ele>15.333333333333332</ele><time>2026-05-01T09:24:52Z</time></trkpt><trkpt lat="44.14440658177675" lon="9.909700400836485"><ele>15.666666666666666</ele><time>2026-05-01T09:24:53Z</time></trkpt><trkpt lat="44.14423491382556" lon="9.909837664612864"><ele>16.0</ele><time>2026-05-01T09:24:54Z</time></trkpt><trkpt lat="44.144062852277116" lon="9.909973826427189"><ele>17.333333333333332</ele><time>2026-05-01T09:24:55Z</time></trkpt><trkpt lat="44.1438913028591" lon="9.91011082689462"><ele>18.666666666666668</ele><time>2026-05-01T09:24:56Z</time></trkpt><trkpt lat="44.143717609773" lon="9.910247316787293"><ele>20.0</ele><time>2026-05-01T09:24:57Z</time></trkpt><trkpt lat="44.14354349565498" lon="9.91038114246986"><ele>20.0</ele><time>2026-05-01T09:24:58Z</time></trkpt><trkpt lat="44.14336856143163" lon="9.91051739180134"><ele>20.0</ele><time>2026-05-01T09:24:59Z</time></trkpt><trkpt lat="44.14319163857509" lon="9.910656998246186"><ele>20.0</ele><time>2026-05-01T09:25:00Z</time></trkpt><trkpt lat="44.14300866473836" lon="9.910799789611115"><ele>19.333333333333336</ele><time>2026-05-01T09:25:01Z</time></trkpt><trkpt lat="44.142822034578344" lon="9.910945900654301"><ele>18.666666666666668</ele><time>2026-05-01T09:25:02Z</time></trkpt><trkpt lat="44.14263462393119" lon="9.911092989423516"><ele>18.0</ele><time>2026-05-01T09:25:03Z</time></trkpt><trkpt lat="44.14244827143318" lon="9.911238034075796"><ele>17.333333333333332</ele><time>2026-05-01T09:25:04Z</time></trkpt><trkpt lat="44.142268243228884" lon="9.911382906475044"><ele>16.666666666666664</ele><time>2026-05-01T09:25:05Z</time></trkpt><trkpt lat="44.142096468848735" lon="9.911523301041763"><ele>16.0</ele><time>2026-05-01T09:25:06Z</time></trkpt><trkpt lat="44.14193223220522" lon="9.911657883101999"><ele>15.666666666666666</ele><time>2026-05-01T09:25:07Z</time></trkpt><trkpt lat="44.141779893461106" lon="9.911786727749028"><ele>15.333333333333332</ele><time>2026-05-01T09:25:08Z</time></trkpt><trkpt lat="44.14163513562956" lon="9.911912662761624"><ele>15.0</ele><time>2026-05-01T09:25:09Z</time></trkpt><trkpt lat="44.141490729767156" lon="9.91203755958736"><ele>15.0</ele><time>2026-05-01T09:25:10Z</time></trkpt><trkpt lat="44.141343007490136" lon="9.912166003796397"><ele>15.0</ele><time>2026-05-01T09:25:11Z</time></trkpt><trkpt lat="44.14119344513115" lon="9.912298648903114"><ele>15.0</ele><time>2026-05-01T09:25:12Z</time></trkpt><trkpt lat="44.141045524602546" lon="9.912434310991818"><ele>15.0</ele><time>2026-05-01T09:25:13Z</time></trkpt><trkpt lat="44.14089747212584" lon="9.912571611654725"><ele>15.0</ele><time>2026-05-01T09:25:14Z</time></trkpt><trkpt lat="44.14074581591807" lon="9.912710315163771"><ele>15.0</ele><time>2026-05-01T09:25:15Z</time></trkpt><trkpt lat="44.14059319771638" lon="9.912851379367009"><ele>15.333333333333332</ele><time>2026-05-01T09:25:16Z</time></trkpt><trkpt lat="44.14044278389582" lon="9.912996492219536"><ele>15.666666666666666</ele><time>2026-05-01T09:25:17Z</time></trkpt><trkpt lat="44.14029551972911" lon="9.913138979328401"><ele>16.0</ele><time>2026-05-01T09:25:18Z</time></trkpt><trkpt lat="44.140154173633235" lon="9.913285509045773"><ele>15.666666666666666</ele><time>2026-05-01T09:25:19Z</time></trkpt><trkpt lat="44.140009214703156" lon="9.913436213639528"><ele>15.333333333333332</ele><time>2026-05-01T09:25:20Z</time></trkpt><trkpt lat="44.13986102359255" lon="9.91359187712798"><ele>15.0</ele><time>2026-05-01T09:25:21Z</time></trkpt><trkpt lat="44.13970673884401" lon="9.913758966457506"><ele>14.666666666666668</ele><time>2026-05-01T09:25:22Z</time></trkpt><trkpt lat="44.13954845493825" lon="9.913931628753557"><ele>14.333333333333334</ele><time>2026-05-01T09:25:23Z</time></trkpt><trkpt lat="44.13939011702153" lon="9.914112843097783"><ele>14.0</ele><time>2026-05-01T09:25:24Z</time></trkpt><trkpt lat="44.13922995887048" lon="9.914300560675535"><ele>14.0</ele><time>2026-05-01T09:25:25Z</time></trkpt><trkpt lat="44.13906472062786" lon="9.914496221462729"><ele>14.0</ele><time>2026-05-01T09:25:26Z</time></trkpt><trkpt lat="44.13889839230084" lon="9.914698818431626"><ele>14.0</ele><time>2026-05-01T09:25:27Z</time></trkpt><trkpt lat="44.13873398399184" lon="9.914906627209623"><ele>14.0</ele><time>2026-05-01T09:25:28Z</time></trkpt><trkpt lat="44.138572229916534" lon="9.915113779031886"><ele>14.0</ele><time>2026-05-01T09:25:29Z</time></trkpt><trkpt lat="44.13841420594546" lon="9.915321425093673"><ele>14.0</ele><time>2026-05-01T09:25:30Z</time></trkpt><trkpt lat="44.13826020569817" lon="9.915522108907886"><ele>14.0</ele><time>2026-05-01T09:25:31Z</time></trkpt><trkpt lat="44.1381105706375" lon="9.915717095775587"><ele>14.0</ele><time>2026-05-01T09:25:32Z</time></trkpt><trkpt lat="44.13796300087406" lon="9.91590874276663"><ele>14.0</ele><time>2026-05-01T09:25:33Z</time></trkpt><trkpt lat="44.13781491715395" lon="9.916102012984709"><ele>14.0</ele><time>2026-05-01T09:25:34Z</time></trkpt><trkpt lat="44.13766422182181" lon="9.916293466767433"><ele>14.0</ele><time>2026-05-01T09:25:34.999Z</time></trkpt><trkpt lat="44.137515052814" lon="9.916485905890113"><ele>14.0</ele><time>2026-05-01T09:25:35.999Z</time></trkpt><trkpt lat="44.137363636180424" lon="9.916677583734105"><ele>13.666666666666668</ele><time>2026-05-01T09:25:36.999Z</time></trkpt><trkpt lat="44.13721630653174" lon="9.916872367169471"><ele>13.333333333333332</ele><time>2026-05-01T09:25:37.999Z</time></trkpt><trkpt lat="44.137065965834616" lon="9.917065808168061"><ele>13.0</ele><time>2026-05-01T09:25:38.999Z</time></trkpt><trkpt lat="44.13691708721231" lon="9.91725465408812"><ele>13.0</ele><time>2026-05-01T09:25:39.999Z</time></trkpt><trkpt lat="44.13677624757642" lon="9.917435923520259"><ele>13.0</ele><time>2026-05-01T09:25:40.999Z</time></trkpt><trkpt lat="44.13663958135991" lon="9.917611212415151"><ele>13.0</ele><time>2026-05-01T09:25:41.999Z</time></trkpt><trkpt lat="44.1365055661075" lon="9.917781682647666"><ele>12.333333333333332</ele><time>2026-05-01T09:25:42.999Z</time></trkpt><trkpt lat="44.13637252370812" lon="9.917952348177877"><ele>11.666666666666666</ele><time>2026-05-01T09:25:43.999Z</time></trkpt><trkpt lat="44.136242950159854" lon="9.918117566629343"><ele>11.0</ele><time>2026-05-01T09:25:44.999Z</time></trkpt><trkpt lat="44.13611620756731" lon="9.918277435941816"><ele>10.333333333333332</ele><time>2026-05-01T09:25:45.999Z</time></trkpt><trkpt lat="44.13599038286016" lon="9.918433440869242"><ele>9.666666666666666</ele><time>2026-05-01T09:25:46.999Z</time></trkpt><trkpt lat="44.13586554753406" lon="9.918591040149687"><ele>9.0</ele><time>2026-05-01T09:25:47.999Z</time></trkpt><trkpt lat="44.13573893180892" lon="9.918751700367576"><ele>10.666666666666668</ele><time>2026-05-01T09:25:48.999Z</time></trkpt><trkpt lat="44.1356118116397" lon="9.918910597320384"><ele>12.333333333333334</ele><time>2026-05-01T09:25:49.999Z</time></trkpt><trkpt lat="44.135486581035764" lon="9.919068582776712"><ele>14.0</ele><time>2026-05-01T09:25:50.999Z</time></trkpt><trkpt lat="44.13536289122488" lon="9.91922578444474"><ele>14.0</ele><time>2026-05-01T09:25:51.999Z</time></trkpt><trkpt lat="44.13524050631891" lon="9.919382208209976"><ele>14.0</ele><time>2026-05-01T09:25:52.999Z</time></trkpt><trkpt lat="44.13511886420811" lon="9.919538935405216"><ele>14.0</ele><time>2026-05-01T09:25:53.999Z</time></trkpt><trkpt lat="44.134995965919316" lon="9.919693905928343"><ele>13.333333333333334</ele><time>2026-05-01T09:25:54.999Z</time></trkpt><trkpt lat="44.13487397971784" lon="9.919852021283287"><ele>12.666666666666668</ele><time>2026-05-01T09:25:55.999Z</time></trkpt><trkpt lat="44.13474862508497" lon="9.920012136635194"><ele>12.0</ele><time>2026-05-01T09:25:56.999Z</time></trkpt><trkpt lat="44.13462320119542" lon="9.920175982056586"><ele>11.0</ele><time>2026-05-01T09:25:57.999Z</time></trkpt><trkpt lat="44.134493901331055" lon="9.920342435941476"><ele>10.0</ele><time>2026-05-01T09:25:58.999Z</time></trkpt><trkpt lat="44.1343628225489" lon="9.920513129696179"><ele>9.0</ele><time>2026-05-01T09:25:59.999Z</time></trkpt><trkpt lat="44.134228913667265" lon="9.920683986671389"><ele>9.0</ele><time>2026-05-01T09:26:00.999Z</time></trkpt><trkpt lat="44.13409445942929" lon="9.920857949046882"><ele>9.0</ele><time>2026-05-01T09:26:01.999Z</time></trkpt><trkpt lat="44.13395782171514" lon="9.921037444377339"><ele>9.0</ele><time>2026-05-01T09:26:02.999Z</time></trkpt><trkpt lat="44.13381971566922" lon="9.921220791854102"><ele>9.333333333333334</ele><time>2026-05-01T09:26:03.999Z</time></trkpt><trkpt lat="44.133680546731185" lon="9.921403605690298"><ele>9.666666666666668</ele><time>2026-05-01T09:26:04.999Z</time></trkpt><trkpt lat="44.13354362566324" lon="9.921584039099365"><ele>10.0</ele><time>2026-05-01T09:26:05.999Z</time></trkpt><trkpt lat="44.13340782971708" lon="9.92176426324929"><ele>10.333333333333334</ele><time>2026-05-01T09:26:06.999Z</time></trkpt><trkpt lat="44.13327207800692" lon="9.921941177418933"><ele>10.666666666666666</ele><time>2026-05-01T09:26:07.999Z</time></trkpt><trkpt lat="44.133140527380085" lon="9.922112343139267"><ele>11.0</ele><time>2026-05-01T09:26:08.999Z</time></trkpt><trkpt lat="44.133015233643334" lon="9.922270763891188"><ele>11.333333333333332</ele><time>2026-05-01T09:26:09.999Z</time></trkpt><trkpt lat="44.132895915135926" lon="9.922416618453088"><ele>11.666666666666666</ele><time>2026-05-01T09:26:10.999Z</time></trkpt><trkpt lat="44.132783637235306" lon="9.922556887633501"><ele>12.0</ele><time>2026-05-01T09:26:11.999Z</time></trkpt><trkpt lat="44.132677357159956" lon="9.922688735943238"><ele>12.0</ele><time>2026-05-01T09:26:12.999Z</time></trkpt><trkpt lat="44.132577474620255" lon="9.922816404722779"><ele>12.0</ele><time>2026-05-01T09:26:13.999Z</time></trkpt><trkpt lat="44.1324824531461" lon="9.922934063364215"><ele>12.0</ele><time>2026-05-01T09:26:14.999Z</time></trkpt><trkpt lat="44.13239038369779" lon="9.923049833122626"><ele>12.0</ele><time>2026-05-01T09:26:15.999Z</time></trkpt><trkpt lat="44.132299445501886" lon="9.923164407113967"><ele>12.0</ele><time>2026-05-01T09:26:16.999Z</time></trkpt><trkpt lat="44.13220571295093" lon="9.923284783792901"><ele>12.0</ele><time>2026-05-01T09:26:18Z</time></trkpt><trkpt lat="44.13210772432289" lon="9.923408183799102"><ele>12.0</ele><time>2026-05-01T09:26:19Z</time></trkpt><trkpt lat="44.13201056311971" lon="9.9235327545421"><ele>12.0</ele><time>2026-05-01T09:26:20Z</time></trkpt><trkpt lat="44.131910252346636" lon="9.92365880028161"><ele>12.0</ele><time>2026-05-01T09:26:21Z</time></trkpt><trkpt lat="44.13180979101475" lon="9.923786003878682"><ele>12.0</ele><time>2026-05-01T09:26:22Z</time></trkpt><trkpt lat="44.13170812910807" lon="9.92390949054548"><ele>12.0</ele><time>2026-05-01T09:26:23Z</time></trkpt><trkpt lat="44.131607174242" lon="9.924031413564588"><ele>12.0</ele><time>2026-05-01T09:26:24Z</time></trkpt><trkpt lat="44.131507949715356" lon="9.924149891506248"><ele>12.0</ele><time>2026-05-01T09:26:25Z</time></trkpt><trkpt lat="44.131413102243386" lon="9.924273727726767"><ele>12.0</ele><time>2026-05-01T09:26:26Z</time></trkpt><trkpt lat="44.13132151515498" lon="9.92440063454196"><ele>12.0</ele><time>2026-05-01T09:26:27Z</time></trkpt><trkpt lat="44.13122558352755" lon="9.924525347001484"><ele>12.0</ele><time>2026-05-01T09:26:28Z</time></trkpt><trkpt lat="44.13113234425073" lon="9.924646550922432"><ele>12.0</ele><time>2026-05-01T09:26:29Z</time></trkpt><trkpt lat="44.13104234956006" lon="9.92476812658978"><ele>12.0</ele><time>2026-05-01T09:26:30Z</time></trkpt><trkpt lat="44.130955965629454" lon="9.924884371123666"><ele>12.0</ele><time>2026-05-01T09:26:31Z</time></trkpt><trkpt lat="44.130870525606746" lon="9.924996462245979"><ele>12.0</ele><time>2026-05-01T09:26:32Z</time></trkpt><trkpt lat="44.130783390561945" lon="9.92510832110487"><ele>11.75</ele><time>2026-05-01T09:26:33Z</time></trkpt><trkpt lat="44.13069447318144" lon="9.92521869364429"><ele>11.5</ele><time>2026-05-01T09:26:34Z</time></trkpt><trkpt lat="44.13060125929714" lon="9.925332765888365"><ele>11.25</ele><time>2026-05-01T09:26:35Z</time></trkpt><trkpt lat="44.13050550087081" lon="9.925451589687325"><ele>11.0</ele><time>2026-05-01T09:26:36Z</time></trkpt><trkpt lat="44.13040965558988" lon="9.925576522087171"><ele>11.0</ele><time>2026-05-01T09:26:37Z</time></trkpt><trkpt lat="44.13030941405279" lon="9.925705255230055"><ele>11.0</ele><time>2026-05-01T09:26:38Z</time></trkpt><trkpt lat="44.13020459785048" lon="9.925840507342201"><ele>11.0</ele><time>2026-05-01T09:26:39Z</time></trkpt><trkpt lat="44.130098695730055" lon="9.92598149860311"><ele>11.0</ele><time>2026-05-01T09:26:40Z</time></trkpt><trkpt lat="44.12998972893443" lon="9.926124669786443"><ele>10.666666666666666</ele><time>2026-05-01T09:26:41Z</time></trkpt><trkpt lat="44.12988070410146" lon="9.926270724328742"><ele>10.333333333333334</ele><time>2026-05-01T09:26:42Z</time></trkpt><trkpt lat="44.129767704276404" lon="9.92641681123804"><ele>10.0</ele><time>2026-05-01T09:26:43Z</time></trkpt><trkpt lat="44.12965704832934" lon="9.926558838841038"><ele>10.0</ele><time>2026-05-01T09:26:44Z</time></trkpt><trkpt lat="44.12954778910026" lon="9.92670188125718"><ele>10.0</ele><time>2026-05-01T09:26:45Z</time></trkpt><trkpt lat="44.129437608947015" lon="9.926843741545538"><ele>10.0</ele><time>2026-05-01T09:26:46Z</time></trkpt><trkpt lat="44.12932800473396" lon="9.926987098016605"><ele>10.333333333333334</ele><time>2026-05-01T09:26:47Z</time></trkpt><trkpt lat="44.12921500810239" lon="9.92713337362693"><ele>10.666666666666666</ele><time>2026-05-01T09:26:48Z</time></trkpt><trkpt lat="44.129100534094256" lon="9.927281507768717"><ele>11.0</ele><time>2026-05-01T09:26:49Z</time></trkpt><trkpt lat="44.12898444304282" lon="9.92743188835042"><ele>11.333333333333332</ele><time>2026-05-01T09:26:50Z</time></trkpt><trkpt lat="44.1288660933628" lon="9.927582976697737"><ele>11.666666666666666</ele><time>2026-05-01T09:26:51Z</time></trkpt><trkpt lat="44.12874447639084" lon="9.927738407963135"><ele>12.0</ele><time>2026-05-01T09:26:52Z</time></trkpt><trkpt lat="44.12861862944825" lon="9.927898952800671"><ele>12.0</ele><time>2026-05-01T09:26:53Z</time></trkpt><trkpt lat="44.12848728957702" lon="9.928064876727193"><ele>12.0</ele><time>2026-05-01T09:26:54Z</time></trkpt><trkpt lat="44.12835269387195" lon="9.928238483696255"><ele>12.0</ele><time>2026-05-01T09:26:55Z</time></trkpt><trkpt lat="44.12821864736674" lon="9.928411613020959"><ele>11.0</ele><time>2026-05-01T09:26:56Z</time></trkpt><trkpt lat="44.1280873672975" lon="9.928585218252175"><ele>10.0</ele><time>2026-05-01T09:26:57Z</time></trkpt><trkpt lat="44.127955585724905" lon="9.928753029553581"><ele>9.0</ele><time>2026-05-01T09:26:58Z</time></trkpt><trkpt lat="44.127822245963856" lon="9.928921164258483"><ele>9.0</ele><time>2026-05-01T09:26:59Z</time></trkpt><trkpt lat="44.12768779736212" lon="9.929096511305206"><ele>9.0</ele><time>2026-05-01T09:27:00Z</time></trkpt><trkpt lat="44.127542204012364" lon="9.929283041453573"><ele>9.0</ele><time>2026-05-01T09:27:01Z</time></trkpt><trkpt lat="44.127396488143155" lon="9.929470101842405"><ele>9.666666666666666</ele><time>2026-05-01T09:27:02Z</time></trkpt><trkpt lat="44.12725089073936" lon="9.929655137449004"><ele>10.333333333333332</ele><time>2026-05-01T09:27:03Z</time></trkpt><trkpt lat="44.12710789525795" lon="9.92983819567227"><ele>11.0</ele><time>2026-05-01T09:27:04Z</time></trkpt><trkpt lat="44.12696231785645" lon="9.930025096012313"><ele>11.0</ele><time>2026-05-01T09:27:05Z</time></trkpt><trkpt lat="44.126816549650265" lon="9.930213555843286"><ele>11.0</ele><time>2026-05-01T09:27:06Z</time></trkpt><trkpt lat="44.126666052339345" lon="9.930411261781831"><ele>11.0</ele><time>2026-05-01T09:27:07Z</time></trkpt><trkpt lat="44.126509310511665" lon="9.930616394977799"><ele>11.0</ele><time>2026-05-01T09:27:08Z</time></trkpt><trkpt lat="44.126352000654286" lon="9.930822591800485"><ele>11.0</ele><time>2026-05-01T09:27:09Z</time></trkpt><trkpt lat="44.12619369406084" lon="9.931031993246245"><ele>11.0</ele><time>2026-05-01T09:27:10Z</time></trkpt><trkpt lat="44.12603551754732" lon="9.931245332834136"><ele>11.5</ele><time>2026-05-01T09:27:11Z</time></trkpt><trkpt lat="44.12587022968464" lon="9.931462888594208"><ele>12.0</ele><time>2026-05-01T09:27:12Z</time></trkpt><trkpt lat="44.12570481823786" lon="9.931678984795035"><ele>10.5</ele><time>2026-05-01T09:27:13Z</time></trkpt><trkpt lat="44.125534974441656" lon="9.931899442193918"><ele>9.0</ele><time>2026-05-01T09:27:14Z</time></trkpt><trkpt lat="44.12536197114216" lon="9.932121947134153"><ele>9.0</ele><time>2026-05-01T09:27:15Z</time></trkpt><trkpt lat="44.125188735309735" lon="9.932344220947346"><ele>9.0</ele><time>2026-05-01T09:27:16Z</time></trkpt><trkpt lat="44.12501590054687" lon="9.932567526175658"><ele>10.0</ele><time>2026-05-01T09:27:17Z</time></trkpt><trkpt lat="44.124842136269535" lon="9.932793417034723"><ele>11.0</ele><time>2026-05-01T09:27:18Z</time></trkpt><trkpt lat="44.124667407399755" lon="9.93301875871561"><ele>11.0</ele><time>2026-05-01T09:27:19Z</time></trkpt><trkpt lat="44.124490594754654" lon="9.933242758680604"><ele>11.0</ele><time>2026-05-01T09:27:20Z</time></trkpt><trkpt lat="44.12430868122726" lon="9.933462363861645"><ele>11.0</ele><time>2026-05-01T09:27:21Z</time></trkpt><trkpt lat="44.124123049896625" lon="9.933684537761724"><ele>11.0</ele><time>2026-05-01T09:27:22Z</time></trkpt><trkpt lat="44.123931923853874" lon="9.93390609752883"><ele>10.5</ele><time>2026-05-01T09:27:23Z</time></trkpt><trkpt lat="44.123733541999535" lon="9.934128622916036"><ele>10.0</ele><time>2026-05-01T09:27:24Z</time></trkpt><trkpt lat="44.123525890548244" lon="9.934356057993215"><ele>10.0</ele><time>2026-05-01T09:27:25Z</time></trkpt><trkpt lat="44.123312835088505" lon="9.934581910591792"><ele>10.0</ele><time>2026-05-01T09:27:26Z</time></trkpt><trkpt lat="44.12308950127012" lon="9.934808347672812"><ele>9.5</ele><time>2026-05-01T09:27:27Z</time></trkpt><trkpt lat="44.12286422550824" lon="9.93503021532483"><ele>9.0</ele><time>2026-05-01T09:27:28Z</time></trkpt><trkpt lat="44.122630792643065" lon="9.935257231792855"><ele>8.0</ele><time>2026-05-01T09:27:29Z</time></trkpt><trkpt lat="44.12238469643226" lon="9.935492574043781"><ele>7.0</ele><time>2026-05-01T09:27:30Z</time></trkpt><trkpt lat="44.12213563799147" lon="9.935713288955181"><ele>8.0</ele><time>2026-05-01T09:27:31Z</time></trkpt><trkpt lat="44.121888426119384" lon="9.9359208712675"><ele>9.0</ele><time>2026-05-01T09:27:32Z</time></trkpt><trkpt lat="44.1216468844812" lon="9.936117089679742"><ele>8.5</ele><time>2026-05-01T09:27:33Z</time></trkpt><trkpt lat="44.1214097411135" lon="9.936308377230938"><ele>8.0</ele><time>2026-05-01T09:27:34Z</time></trkpt><trkpt lat="44.121174763071934" lon="9.936495772200779"><ele>8.0</ele><time>2026-05-01T09:27:35Z</time></trkpt><trkpt lat="44.12093753527683" lon="9.93667676836001"><ele>8.0</ele><time>2026-05-01T09:27:36Z</time></trkpt><trkpt lat="44.12069547428193" lon="9.936854694106847"><ele>8.5</ele><time>2026-05-01T09:27:37Z</time></trkpt><trkpt lat="44.120445696948956" lon="9.937025847829792"><ele>9.0</ele><time>2026-05-01T09:27:37.999Z</time></trkpt><trkpt lat="44.12019506820637" lon="9.937192002202696"><ele>9.0</ele><time>2026-05-01T09:27:38.999Z</time></trkpt><trkpt lat="44.11994827350839" lon="9.9373517481151"><ele>9.0</ele><time>2026-05-01T09:27:39.999Z</time></trkpt><trkpt lat="44.1197012518337" lon="9.937504763185675"><ele>10.0</ele><time>2026-05-01T09:27:40.999Z</time></trkpt><trkpt lat="44.11945298517426" lon="9.937652559888095"><ele>11.0</ele><time>2026-05-01T09:27:41.999Z</time></trkpt><trkpt lat="44.11920459640902" lon="9.937798067644154"><ele>10.5</ele><time>2026-05-01T09:27:42.999Z</time></trkpt><trkpt lat="44.118956967046095" lon="9.937941678202623"><ele>10.0</ele><time>2026-05-01T09:27:43.999Z</time></trkpt><trkpt lat="44.118713461519114" lon="9.938086311605534"><ele>10.0</ele><time>2026-05-01T09:27:44.999Z</time></trkpt><trkpt lat="44.11847425700713" lon="9.938229053292783"><ele>10.0</ele><time>2026-05-01T09:27:45.999Z</time></trkpt><trkpt lat="44.11823654439546" lon="9.938371228367162"><ele>10.0</ele><time>2026-05-01T09:27:46.999Z</time></trkpt><trkpt lat="44.11799472068536" lon="9.938514525169426"><ele>10.0</ele><time>2026-05-01T09:27:47.999Z</time></trkpt><trkpt lat="44.117753942760096" lon="9.938656164072603"><ele>10.0</ele><time>2026-05-01T09:27:48.999Z</time></trkpt><trkpt lat="44.11751680454628" lon="9.9387976844539"><ele>10.0</ele><time>2026-05-01T09:27:49.999Z</time></trkpt><trkpt lat="44.117277630313545" lon="9.93893626325027"><ele>9.5</ele><time>2026-05-01T09:27:50.999Z</time></trkpt><trkpt lat="44.117035595150625" lon="9.939074564839759"><ele>9.0</ele><time>2026-05-01T09:27:51.999Z</time></trkpt><trkpt lat="44.116797732405345" lon="9.93921467083528"><ele>9.0</ele><time>2026-05-01T09:27:52.999Z</time></trkpt><trkpt lat="44.11655626258428" lon="9.939353609324316"><ele>9.0</ele><time>2026-05-01T09:27:53.999Z</time></trkpt><trkpt lat="44.11631205083542" lon="9.939496948886772"><ele>9.0</ele><time>2026-05-01T09:27:54.999Z</time></trkpt><trkpt lat="44.11606242929988" lon="9.939641271143776"><ele>9.0</ele><time>2026-05-01T09:27:55.999Z</time></trkpt><trkpt lat="44.11581776698236" lon="9.939784747718049"><ele>8.5</ele><time>2026-05-01T09:27:56.999Z</time></trkpt><trkpt lat="44.11557689719544" lon="9.939927324630077"><ele>8.0</ele><time>2026-05-01T09:27:57.999Z</time></trkpt><trkpt lat="44.11533445716487" lon="9.940071719795114"><ele>7.5</ele><time>2026-05-01T09:27:58.999Z</time></trkpt><trkpt lat="44.11508641354889" lon="9.940216144429986"><ele>7.0</ele><time>2026-05-01T09:27:59.999Z</time></trkpt><trkpt lat="44.11482931538661" lon="9.940368347143874"><ele>6.5</ele><time>2026-05-01T09:28:00.999Z</time></trkpt><trkpt lat="44.11456474427122" lon="9.940524652454341"><ele>6.0</ele><time>2026-05-01T09:28:01.999Z</time></trkpt><trkpt lat="44.11429501898166" lon="9.940682172513442"><ele>6.5</ele><time>2026-05-01T09:28:02.999Z</time></trkpt><trkpt lat="44.114022529644025" lon="9.94084206168897"><ele>7.0</ele><time>2026-05-01T09:28:03.999Z</time></trkpt><trkpt lat="44.11375012454756" lon="9.941001125769503"><ele>7.5</ele><time>2026-05-01T09:28:04.999Z</time></trkpt><trkpt lat="44.11347909940708" lon="9.941159478744858"><ele>8.0</ele><time>2026-05-01T09:28:05.999Z</time></trkpt><trkpt lat="44.11321269548546" lon="9.941314408967306"><ele>8.0</ele><time>2026-05-01T09:28:06.999Z</time></trkpt><trkpt lat="44.112950982791155" lon="9.941469345162975"><ele>8.0</ele><time>2026-05-01T09:28:07.999Z</time></trkpt><trkpt lat="44.112693716283474" lon="9.941622074759643"><ele>8.0</ele><time>2026-05-01T09:28:08.999Z</time></trkpt><trkpt lat="44.11244039883177" lon="9.94176995450219"><ele>8.0</ele><time>2026-05-01T09:28:09.999Z</time></trkpt><trkpt lat="44.1121881846997" lon="9.941917913930126"><ele>9.0</ele><time>2026-05-01T09:28:10.999Z</time></trkpt><trkpt lat="44.11192988122581" lon="9.942066854199208"><ele>10.0</ele><time>2026-05-01T09:28:11.999Z</time></trkpt><trkpt lat="44.111674021460225" lon="9.942217647494871"><ele>10.0</ele><time>2026-05-01T09:28:12.999Z</time></trkpt><trkpt lat="44.1114179969719" lon="9.94236769166111"><ele>10.0</ele><time>2026-05-01T09:28:13.999Z</time></trkpt><trkpt lat="44.1111622869832" lon="9.942519725011694"><ele>10.0</ele><time>2026-05-01T09:28:14.999Z</time></trkpt><trkpt lat="44.110904291788245" lon="9.942672063225052"><ele>10.0</ele><time>2026-05-01T09:28:15.999Z</time></trkpt><trkpt lat="44.110650482648424" lon="9.942818831271067"><ele>11.0</ele><time>2026-05-01T09:28:16.999Z</time></trkpt><trkpt lat="44.1104008610956" lon="9.942964066808107"><ele>12.0</ele><time>2026-05-01T09:28:17.999Z</time></trkpt><trkpt lat="44.11015621093542" lon="9.943108592695529"><ele>12.0</ele><time>2026-05-01T09:28:18.999Z</time></trkpt><trkpt lat="44.109915879077896" lon="9.94325011888741"><ele>12.0</ele><time>2026-05-01T09:28:19.999Z</time></trkpt><trkpt lat="44.10967952119854" lon="9.943390157136834"><ele>11.0</ele><time>2026-05-01T09:28:20.999Z</time></trkpt><trkpt lat="44.109445113825494" lon="9.94352679704149"><ele>10.0</ele><time>2026-05-01T09:28:21.999Z</time></trkpt><trkpt lat="44.10920929646677" lon="9.943661907583023"><ele>9.5</ele><time>2026-05-01T09:28:22.999Z</time></trkpt><trkpt lat="44.10896723840433" lon="9.943803342838883"><ele>9.0</ele><time>2026-05-01T09:28:24Z</time></trkpt><trkpt lat="44.10872200524775" lon="9.943948056928097"><ele>9.0</ele><time>2026-05-01T09:28:25Z</time></trkpt><trkpt lat="44.10847212909873" lon="9.944091239652929"><ele>9.0</ele><time>2026-05-01T09:28:26Z</time></trkpt><trkpt lat="44.10822736103837" lon="9.944235760293395"><ele>8.5</ele><time>2026-05-01T09:28:27Z</time></trkpt><trkpt lat="44.10798227207609" lon="9.944383175081377"><ele>8.0</ele><time>2026-05-01T09:28:28Z</time></trkpt><trkpt lat="44.107735202147424" lon="9.944532897720391"><ele>8.0</ele><time>2026-05-01T09:28:29Z</time></trkpt><trkpt lat="44.10748834477385" lon="9.944680027889142"><ele>8.0</ele><time>2026-05-01T09:28:30Z</time></trkpt><trkpt lat="44.10724123760117" lon="9.944829573554394"><ele>7.5</ele><time>2026-05-01T09:28:31Z</time></trkpt><trkpt lat="44.10699605933691" lon="9.944993160313432"><ele>7.0</ele><time>2026-05-01T09:28:32Z</time></trkpt><trkpt lat="44.10674809698958" lon="9.945167929679359"><ele>7.0</ele><time>2026-05-01T09:28:33Z</time></trkpt><trkpt lat="44.10650314047373" lon="9.945345123363898"><ele>7.0</ele><time>2026-05-01T09:28:34Z</time></trkpt><trkpt lat="44.10625611908375" lon="9.945528799686812"><ele>7.0</ele><time>2026-05-01T09:28:35Z</time></trkpt><trkpt lat="44.10600416908205" lon="9.945726167345702"><ele>7.0</ele><time>2026-05-01T09:28:36Z</time></trkpt><trkpt lat="44.105752350068656" lon="9.945936758748179"><ele>8.0</ele><time>2026-05-01T09:28:37Z</time></trkpt><trkpt lat="44.105494247754095" lon="9.946161441581971"><ele>9.0</ele><time>2026-05-01T09:28:38Z</time></trkpt><trkpt lat="44.10522894954435" lon="9.946402949451022"><ele>9.0</ele><time>2026-05-01T09:28:39Z</time></trkpt><trkpt lat="44.10497771126351" lon="9.946648500979835"><ele>9.0</ele><time>2026-05-01T09:28:40Z</time></trkpt><trkpt lat="44.10473222488542" lon="9.946892699513278"><ele>9.5</ele><time>2026-05-01T09:28:41Z</time></trkpt><trkpt lat="44.10449631601123" lon="9.947146959832782"><ele>10.0</ele><time>2026-05-01T09:28:42Z</time></trkpt><trkpt lat="44.104263602844476" lon="9.947410481771946"><ele>9.0</ele><time>2026-05-01T09:28:43Z</time></trkpt><trkpt lat="44.10403682184413" lon="9.947680036331517"><ele>8.0</ele><time>2026-05-01T09:28:44Z</time></trkpt><trkpt lat="44.10381968966741" lon="9.947946552027634"><ele>8.0</ele><time>2026-05-01T09:28:45Z</time></trkpt><trkpt lat="44.10361039564119" lon="9.948211692444433"><ele>8.0</ele><time>2026-05-01T09:28:46Z</time></trkpt><trkpt lat="44.10341159776901" lon="9.948477254817151"><ele>6.5</ele><time>2026-05-01T09:28:47Z</time></trkpt><trkpt lat="44.10321585494568" lon="9.948750334808501"><ele>5.0</ele><time>2026-05-01T09:28:48Z</time></trkpt><trkpt lat="44.103025329012" lon="9.949028805746197"><ele>5.5</ele><time>2026-05-01T09:28:49Z</time></trkpt><trkpt lat="44.10283936675928" lon="9.949310895744897"><ele>6.0</ele><time>2026-05-01T09:28:50Z</time></trkpt><trkpt lat="44.102655085221976" lon="9.949598709418652"><ele>6.0</ele><time>2026-05-01T09:28:51Z</time></trkpt><trkpt lat="44.102472429105916" lon="9.949895847490707"><ele>6.0</ele><time>2026-05-01T09:28:52Z</time></trkpt><trkpt lat="44.1022922977747" lon="9.95019979447279"><ele>7.5</ele><time>2026-05-01T09:28:53Z</time></trkpt><trkpt lat="44.10211437119291" lon="9.950512197632515"><ele>9.0</ele><time>2026-05-01T09:28:54Z</time></trkpt><trkpt lat="44.101941490901076" lon="9.950833650971155"><ele>9.0</ele><time>2026-05-01T09:28:55Z</time></trkpt><trkpt lat="44.101768783090876" lon="9.951169778934895"><ele>9.0</ele><time>2026-05-01T09:28:56Z</time></trkpt><trkpt lat="44.10159604745529" lon="9.951520369271082"><ele>9.5</ele><time>2026-05-01T09:28:57Z</time></trkpt><trkpt lat="44.10142552203851" lon="9.951869221705728"><ele>10.0</ele><time>2026-05-01T09:28:58Z</time></trkpt><trkpt lat="44.10125932393679" lon="9.952206934516541"><ele>10.0</ele><time>2026-05-01T09:28:59Z</time></trkpt><trkpt lat="44.1011019527472" lon="9.952531127478816"><ele>10.0</ele><time>2026-05-01T09:29:00Z</time></trkpt><trkpt lat="44.10095293470014" lon="9.952842943017684"><ele>8.5</ele><time>2026-05-01T09:29:01Z</time></trkpt><trkpt lat="44.10080489061766" lon="9.95314242431506"><ele>7.0</ele><time>2026-05-01T09:29:02Z</time></trkpt><trkpt lat="44.10066018635485" lon="9.953431900541505"><ele>6.0</ele><time>2026-05-01T09:29:03Z</time></trkpt><trkpt lat="44.10052174416556" lon="9.953713643145392"><ele>5.0</ele><time>2026-05-01T09:29:04Z</time></trkpt><trkpt lat="44.10038486360668" lon="9.95399324618904"><ele>4.5</ele><time>2026-05-01T09:29:05Z</time></trkpt><trkpt lat="44.100249204047856" lon="9.954269087980096"><ele>4.0</ele><time>2026-05-01T09:29:06Z</time></trkpt><trkpt lat="44.100116113715615" lon="9.954539692239448"><ele>4.0</ele><time>2026-05-01T09:29:07Z</time></trkpt><trkpt lat="44.09998517908163" lon="9.954805963467741"><ele>4.0</ele><time>2026-05-01T09:29:08Z</time></trkpt><trkpt lat="44.09985528748603" lon="9.955068997427315"><ele>4.5</ele><time>2026-05-01T09:29:09Z</time></trkpt><trkpt lat="44.099726601015156" lon="9.955328299774015"><ele>5.0</ele><time>2026-05-01T09:29:10Z</time></trkpt><trkpt lat="44.09959962390845" lon="9.955590291063116"><ele>5.0</ele><time>2026-05-01T09:29:11Z</time></trkpt><trkpt lat="44.099470614897186" lon="9.95585288330233"><ele>5.0</ele><time>2026-05-01T09:29:12Z</time></trkpt><trkpt lat="44.09934154106574" lon="9.956114298783884"><ele>4.5</ele><time>2026-05-01T09:29:13Z</time></trkpt><trkpt lat="44.09921402729927" lon="9.956374699447426"><ele>4.0</ele><time>2026-05-01T09:29:14Z</time></trkpt><trkpt lat="44.09908265883546" lon="9.95664364668963"><ele>4.0</ele><time>2026-05-01T09:29:15Z</time></trkpt><trkpt lat="44.098950850481245" lon="9.956912755297912"><ele>4.0</ele><time>2026-05-01T09:29:16Z</time></trkpt><trkpt lat="44.09881648663367" lon="9.95718877315363"><ele>4.0</ele><time>2026-05-01T09:29:17Z</time></trkpt><trkpt lat="44.0986778909574" lon="9.95746967730852"><ele>4.0</ele><time>2026-05-01T09:29:18Z</time></trkpt><trkpt lat="44.098539345004696" lon="9.957749725283419"><ele>4.5</ele><time>2026-05-01T09:29:19Z</time></trkpt><trkpt lat="44.09840050637835" lon="9.958031872488315"><ele>5.0</ele><time>2026-05-01T09:29:20Z</time></trkpt><trkpt lat="44.09826154098439" lon="9.958312491907119"><ele>4.0</ele><time>2026-05-01T09:29:21Z</time></trkpt><trkpt lat="44.09812232137538" lon="9.958595151831517"><ele>3.0</ele><time>2026-05-01T09:29:22Z</time></trkpt><trkpt lat="44.09798174013678" lon="9.958881402617317"><ele>3.0</ele><time>2026-05-01T09:29:23Z</time></trkpt><trkpt lat="44.09784282204171" lon="9.95916865901247"><ele>3.0</ele><time>2026-05-01T09:29:24Z</time></trkpt><trkpt lat="44.097704005763624" lon="9.95945558410172"><ele>3.5</ele><time>2026-05-01T09:29:25Z</time></trkpt><trkpt lat="44.097560460375185" lon="9.959746295701455"><ele>4.0</ele><time>2026-05-01T09:29:26Z</time></trkpt><trkpt lat="44.097417030982584" lon="9.960038386538344"><ele>4.0</ele><time>2026-05-01T09:29:27Z</time></trkpt><trkpt lat="44.097273983008854" lon="9.960330645251458"><ele>4.0</ele><time>2026-05-01T09:29:28Z</time></trkpt><trkpt lat="44.09712994694733" lon="9.960622175680621"><ele>4.5</ele><time>2026-05-01T09:29:29Z</time></trkpt><trkpt lat="44.09698271055885" lon="9.960914428048754"><ele>5.0</ele><time>2026-05-01T09:29:30Z</time></trkpt><trkpt lat="44.09683500451915" lon="9.961209943858588"><ele>5.0</ele><time>2026-05-01T09:29:31Z</time></trkpt><trkpt lat="44.096683510863876" lon="9.961506115326527"><ele>5.0</ele><time>2026-05-01T09:29:32Z</time></trkpt><trkpt lat="44.096526711498015" lon="9.961797802253573"><ele>5.5</ele><time>2026-05-01T09:29:33Z</time></trkpt><trkpt lat="44.096369744103896" lon="9.96209738482992"><ele>6.0</ele><time>2026-05-01T09:29:34Z</time></trkpt><trkpt lat="44.09620999091557" lon="9.962394261496845"><ele>5.5</ele><time>2026-05-01T09:29:35Z</time></trkpt><trkpt lat="44.096046536188005" lon="9.962691689141032"><ele>5.0</ele><time>2026-05-01T09:29:36Z</time></trkpt><trkpt lat="44.095880761244956" lon="9.96298642182474"><ele>5.0</ele><time>2026-05-01T09:29:37Z</time></trkpt><trkpt lat="44.09571184754374" lon="9.963276478299253"><ele>5.0</ele><time>2026-05-01T09:29:38Z</time></trkpt><trkpt lat="44.09554084224234" lon="9.963557507090435"><ele>5.0</ele><time>2026-05-01T09:29:39Z</time></trkpt><trkpt lat="44.095368554292875" lon="9.963841411094247"><ele>5.0</ele><time>2026-05-01T09:29:40Z</time></trkpt><trkpt lat="44.095194902958994" lon="9.964121242861394"><ele>4.5</ele><time>2026-05-01T09:29:41Z</time></trkpt><trkpt lat="44.09502108135437" lon="9.964399611853988"><ele>4.0</ele><time>2026-05-01T09:29:41.999Z</time></trkpt><trkpt lat="44.094847697645754" lon="9.964674801745435"><ele>4.5</ele><time>2026-05-01T09:29:42.999Z</time></trkpt><trkpt lat="44.09467244580815" lon="9.964942254520885"><ele>5.0</ele><time>2026-05-01T09:29:43.999Z</time></trkpt><trkpt lat="44.09449730809062" lon="9.96520090321005"><ele>5.0</ele><time>2026-05-01T09:29:44.999Z</time></trkpt><trkpt lat="44.094325042075205" lon="9.965452736605704"><ele>5.0</ele><time>2026-05-01T09:29:45.999Z</time></trkpt><trkpt lat="44.09415411999626" lon="9.965700364608121"><ele>5.0</ele><time>2026-05-01T09:29:46.999Z</time></trkpt><trkpt lat="44.093981610503704" lon="9.965943140004171"><ele>5.0</ele><time>2026-05-01T09:29:47.999Z</time></trkpt><trkpt lat="44.09380938282083" lon="9.966183408446492"><ele>5.0</ele><time>2026-05-01T09:29:48.999Z</time></trkpt><trkpt lat="44.09363351552016" lon="9.966423321649714"><ele>5.0</ele><time>2026-05-01T09:29:49.999Z</time></trkpt><trkpt lat="44.09345010578164" lon="9.966664616676264"><ele>4.5</ele><time>2026-05-01T09:29:50.999Z</time></trkpt><trkpt lat="44.0932641839079" lon="9.966909883368853"><ele>4.0</ele><time>2026-05-01T09:29:51.999Z</time></trkpt><trkpt lat="44.093078628720974" lon="9.967154644475015"><ele>3.5</ele><time>2026-05-01T09:29:52.999Z</time></trkpt><trkpt lat="44.092889471359584" lon="9.967392597571628"><ele>3.0</ele><time>2026-05-01T09:29:53.999Z</time></trkpt><trkpt lat="44.092698576122096" lon="9.96762462938009"><ele>3.0</ele><time>2026-05-01T09:29:54.999Z</time></trkpt><trkpt lat="44.092511779403594" lon="9.96785463248573"><ele>3.0</ele><time>2026-05-01T09:29:55.999Z</time></trkpt><trkpt lat="44.092327145346566" lon="9.968082344588577"><ele>3.0</ele><time>2026-05-01T09:29:56.999Z</time></trkpt><trkpt lat="44.09213893837709" lon="9.968306422409185"><ele>3.0</ele><time>2026-05-01T09:29:57.999Z</time></trkpt><trkpt lat="44.0919494164612" lon="9.968528464542667"><ele>3.0</ele><time>2026-05-01T09:29:58.999Z</time></trkpt><trkpt lat="44.091753139183226" lon="9.968746776617582"><ele>3.0</ele><time>2026-05-01T09:29:59.999Z</time></trkpt><trkpt lat="44.09155337280207" lon="9.968967177776353"><ele>3.0</ele><time>2026-05-01T09:30:00.999Z</time></trkpt><trkpt lat="44.09135451945987" lon="9.969186958899025"><ele>3.0</ele><time>2026-05-01T09:30:01.999Z</time></trkpt><trkpt lat="44.09115260683084" lon="9.969403912437265"><ele>3.5</ele><time>2026-05-01T09:30:02.999Z</time></trkpt><trkpt lat="44.0909476635821" lon="9.969620473099477"><ele>4.0</ele><time>2026-05-01T09:30:03.999Z</time></trkpt><trkpt lat="44.090739246839725" lon="9.969832982878762"><ele>5.0</ele><time>2026-05-01T09:30:04.999Z</time></trkpt><trkpt lat="44.09052841892043" lon="9.970046763105978"><ele>6.0</ele><time>2026-05-01T09:30:05.999Z</time></trkpt><trkpt lat="44.09031530519644" lon="9.970256859724428"><ele>6.0</ele><time>2026-05-01T09:30:06.999Z</time></trkpt><trkpt lat="44.090104555094655" lon="9.970462030035186"><ele>6.0</ele><time>2026-05-01T09:30:07.999Z</time></trkpt><trkpt lat="44.08989406217728" lon="9.970661499684834"><ele>6.0</ele><time>2026-05-01T09:30:08.999Z</time></trkpt><trkpt lat="44.08968374157237" lon="9.97086091697411"><ele>6.0</ele><time>2026-05-01T09:30:09.999Z</time></trkpt><trkpt lat="44.08947002262186" lon="9.971053086756472"><ele>6.0</ele><time>2026-05-01T09:30:10.999Z</time></trkpt><trkpt lat="44.089252900882485" lon="9.97124278040431"><ele>6.0</ele><time>2026-05-01T09:30:11.999Z</time></trkpt><trkpt lat="44.08903640810928" lon="9.971433537108242"><ele>6.0</ele><time>2026-05-01T09:30:12.999Z</time></trkpt><trkpt lat="44.088815760521456" lon="9.971623276111485"><ele>6.0</ele><time>2026-05-01T09:30:13.999Z</time></trkpt><trkpt lat="44.088592868379486" lon="9.971811331024306"><ele>6.0</ele><time>2026-05-01T09:30:14.999Z</time></trkpt><trkpt lat="44.08836765690985" lon="9.97199631450032"><ele>6.0</ele><time>2026-05-01T09:30:15.999Z</time></trkpt><trkpt lat="44.08813976876936" lon="9.972173005995453"><ele>5.5</ele><time>2026-05-01T09:30:16.999Z</time></trkpt><trkpt lat="44.087911468574184" lon="9.972354070242169"><ele>5.0</ele><time>2026-05-01T09:30:17.999Z</time></trkpt><trkpt lat="44.08768480619737" lon="9.972535328659815"><ele>5.0</ele><time>2026-05-01T09:30:18.999Z</time></trkpt><trkpt lat="44.087453735768854" lon="9.972717017480564"><ele>5.0</ele><time>2026-05-01T09:30:19.999Z</time></trkpt><trkpt lat="44.08721855450734" lon="9.972894917230782"><ele>4.5</ele><time>2026-05-01T09:30:20.999Z</time></trkpt><trkpt lat="44.08698097166236" lon="9.973083534279539"><ele>4.0</ele><time>2026-05-01T09:30:21.999Z</time></trkpt><trkpt lat="44.08674142935796" lon="9.97327720535196"><ele>2.5</ele><time>2026-05-01T09:30:22.999Z</time></trkpt><trkpt lat="44.086501588996256" lon="9.973472462927752"><ele>1.0</ele><time>2026-05-01T09:30:23.999Z</time></trkpt><trkpt lat="44.086259398863774" lon="9.973663915671235"><ele>1.0</ele><time>2026-05-01T09:30:24.999Z</time></trkpt><trkpt lat="44.08601740048652" lon="9.97385113860584"><ele>1.0</ele><time>2026-05-01T09:30:25.999Z</time></trkpt><trkpt lat="44.08577489522687" lon="9.9740400931815"><ele>2.0</ele><time>2026-05-01T09:30:26.999Z</time></trkpt><trkpt lat="44.085533554804876" lon="9.97422969795663"><ele>3.0</ele><time>2026-05-01T09:30:27.999Z</time></trkpt><trkpt lat="44.08529373009968" lon="9.974418942676136"><ele>3.0</ele><time>2026-05-01T09:30:28.999Z</time></trkpt><trkpt lat="44.08505573342149" lon="9.974607178026003"><ele>3.0</ele><time>2026-05-01T09:30:30Z</time></trkpt><trkpt lat="44.08481752104064" lon="9.97479214263454"><ele>3.0</ele><time>2026-05-01T09:30:31Z</time></trkpt><trkpt lat="44.08458229752951" lon="9.974975074909615"><ele>3.0</ele><time>2026-05-01T09:30:32Z</time></trkpt><trkpt lat="44.08435491858025" lon="9.975153707347822"><ele>3.5</ele><time>2026-05-01T09:30:33Z</time></trkpt><trkpt lat="44.08413722707935" lon="9.975324013671337"><ele>4.0</ele><time>2026-05-01T09:30:34Z</time></trkpt><trkpt lat="44.08392940026303" lon="9.975489019874665"><ele>4.0</ele><time>2026-05-01T09:30:35Z</time></trkpt><trkpt lat="44.0837263982184" lon="9.975652218784688"><ele>4.0</ele><time>2026-05-01T09:30:36Z</time></trkpt><trkpt lat="44.08352261744996" lon="9.975813336885862"><ele>3.5</ele><time>2026-05-01T09:30:37Z</time></trkpt><trkpt lat="44.08331745850105" lon="9.975974781393113"><ele>3.0</ele><time>2026-05-01T09:30:38Z</time></trkpt><trkpt lat="44.08311151922753" lon="9.9761382917847"><ele>3.0</ele><time>2026-05-01T09:30:39Z</time></trkpt><trkpt lat="44.08290238775569" lon="9.976302365017379"><ele>3.0</ele><time>2026-05-01T09:30:40Z</time></trkpt><trkpt lat="44.08269264285345" lon="9.97646801130675"><ele>3.0</ele><time>2026-05-01T09:30:41Z</time></trkpt><trkpt lat="44.08248169171231" lon="9.976635265020093"><ele>3.0</ele><time>2026-05-01T09:30:42Z</time></trkpt><trkpt lat="44.082269409815005" lon="9.976804851363594"><ele>2.5</ele><time>2026-05-01T09:30:43Z</time></trkpt><trkpt lat="44.0820579990896" lon="9.97697331130541"><ele>2.0</ele><time>2026-05-01T09:30:44Z</time></trkpt><trkpt lat="44.08184515415873" lon="9.977139151944547"><ele>2.0</ele><time>2026-05-01T09:30:45Z</time></trkpt><trkpt lat="44.08163499158262" lon="9.9773030542201"><ele>2.0</ele><time>2026-05-01T09:30:46Z</time></trkpt><trkpt lat="44.08142997164843" lon="9.977464526203518"><ele>2.5</ele><time>2026-05-01T09:30:47Z</time></trkpt><trkpt lat="44.08122554080225" lon="9.97762408100766"><ele>3.0</ele><time>2026-05-01T09:30:48Z</time></trkpt><trkpt lat="44.08102386732772" lon="9.97778341901321"><ele>3.0</ele><time>2026-05-01T09:30:49Z</time></trkpt><trkpt lat="44.080822360158415" lon="9.977943991408232"><ele>3.0</ele><time>2026-05-01T09:30:50Z</time></trkpt><trkpt lat="44.080621499576935" lon="9.978106777407355"><ele>3.0</ele><time>2026-05-01T09:30:51Z</time></trkpt><trkpt lat="44.08042210583372" lon="9.978267721554158"><ele>3.0</ele><time>2026-05-01T09:30:52Z</time></trkpt><trkpt lat="44.08022070482937" lon="9.978428146929858"><ele>3.0</ele><time>2026-05-01T09:30:53Z</time></trkpt><trkpt lat="44.080017544062365" lon="9.978590818620608"><ele>3.0</ele><time>2026-05-01T09:30:54Z</time></trkpt><trkpt lat="44.079814917758945" lon="9.978758386203282"><ele>2.5</ele><time>2026-05-01T09:30:55Z</time></trkpt><trkpt lat="44.07961416723752" lon="9.978928586174735"><ele>2.0</ele><time>2026-05-01T09:30:56Z</time></trkpt><trkpt lat="44.07941265151956" lon="9.97910572160015"><ele>1.5</ele><time>2026-05-01T09:30:57Z</time></trkpt><trkpt lat="44.07921085465624" lon="9.979284983437687"><ele>1.0</ele><time>2026-05-01T09:30:58Z</time></trkpt><trkpt lat="44.07900780572497" lon="9.979471330153038"><ele>1.0</ele><time>2026-05-01T09:30:59Z</time></trkpt><trkpt lat="44.07880592741861" lon="9.979666049640556"><ele>1.0</ele><time>2026-05-01T09:31:00Z</time></trkpt><trkpt lat="44.07860324380675" lon="9.979865988303535"><ele>1.5</ele><time>2026-05-01T09:31:01Z</time></trkpt><trkpt lat="44.07840122719776" lon="9.980068500289756"><ele>2.0</ele><time>2026-05-01T09:31:02Z</time></trkpt><trkpt lat="44.07819702653987" lon="9.980270416675664"><ele>2.5</ele><time>2026-05-01T09:31:03Z</time></trkpt><trkpt lat="44.07799422710722" lon="9.980480102889667"><ele>3.0</ele><time>2026-05-01T09:31:04Z</time></trkpt><trkpt lat="44.07779699530645" lon="9.980697446034888"><ele>3.0</ele><time>2026-05-01T09:31:05Z</time></trkpt><trkpt lat="44.07760667499544" lon="9.980919961550091"><ele>3.0</ele><time>2026-05-01T09:31:06Z</time></trkpt><trkpt lat="44.07741470308033" lon="9.981140568184015"><ele>3.5</ele><time>2026-05-01T09:31:07Z</time></trkpt><trkpt lat="44.0772274120774" lon="9.981367909351684"><ele>4.0</ele><time>2026-05-01T09:31:08Z</time></trkpt><trkpt lat="44.07704360546294" lon="9.98159583936671"><ele>3.5</ele><time>2026-05-01T09:31:09Z</time></trkpt><trkpt lat="44.07686215830279" lon="9.981825910870416"><ele>3.0</ele><time>2026-05-01T09:31:10Z</time></trkpt><trkpt lat="44.07668308963183" lon="9.98206133235768"><ele>3.0</ele><time>2026-05-01T09:31:11Z</time></trkpt><trkpt lat="44.07650464534605" lon="9.98229817897322"><ele>3.0</ele><time>2026-05-01T09:31:12Z</time></trkpt><trkpt lat="44.07632955774674" lon="9.982543251902396"><ele>3.0</ele><time>2026-05-01T09:31:13Z</time></trkpt><trkpt lat="44.07615906031649" lon="9.982792162801564"><ele>3.0</ele><time>2026-05-01T09:31:14Z</time></trkpt><trkpt lat="44.075990304405344" lon="9.983039100920898"><ele>3.0</ele><time>2026-05-01T09:31:15Z</time></trkpt><trkpt lat="44.075824032632426" lon="9.98328156370684"><ele>3.0</ele><time>2026-05-01T09:31:16Z</time></trkpt><trkpt lat="44.07566062369149" lon="9.983532309373324"><ele>3.0</ele><time>2026-05-01T09:31:17Z</time></trkpt><trkpt lat="44.07550044556357" lon="9.983791244533343"><ele>3.0</ele><time>2026-05-01T09:31:18Z</time></trkpt><trkpt lat="44.07534136569033" lon="9.98404857971572"><ele>2.5</ele><time>2026-05-01T09:31:19Z</time></trkpt><trkpt lat="44.075184552480096" lon="9.984308146664352"><ele>2.0</ele><time>2026-05-01T09:31:20Z</time></trkpt><trkpt lat="44.0750309235499" lon="9.984565177037643"><ele>2.5</ele><time>2026-05-01T09:31:21Z</time></trkpt><trkpt lat="44.07487455455463" lon="9.984819831294782"><ele>3.0</ele><time>2026-05-01T09:31:22Z</time></trkpt><trkpt lat="44.074720411082396" lon="9.985076223509548"><ele>3.0</ele><time>2026-05-01T09:31:23Z</time></trkpt><trkpt lat="44.07456594524058" lon="9.985330237325245"><ele>3.0</ele><time>2026-05-01T09:31:24Z</time></trkpt><trkpt lat="44.07441058449428" lon="9.985587178998612"><ele>3.0</ele><time>2026-05-01T09:31:25Z</time></trkpt><trkpt lat="44.07425534732597" lon="9.9858445839753"><ele>3.0</ele><time>2026-05-01T09:31:26Z</time></trkpt><trkpt lat="44.07410053414412" lon="9.986099197887958"><ele>2.5</ele><time>2026-05-01T09:31:27Z</time></trkpt><trkpt lat="44.07394402440611" lon="9.986357585026802"><ele>2.0</ele><time>2026-05-01T09:31:28Z</time></trkpt><trkpt lat="44.07378582475636" lon="9.986616396366443"><ele>2.0</ele><time>2026-05-01T09:31:29Z</time></trkpt><trkpt lat="44.073625232365586" lon="9.986875222499666"><ele>2.0</ele><time>2026-05-01T09:31:30Z</time></trkpt><trkpt lat="44.07346738555225" lon="9.987136389447826"><ele>2.0</ele><time>2026-05-01T09:31:31Z</time></trkpt><trkpt lat="44.07330989387614" lon="9.987397363273887"><ele>2.0</ele><time>2026-05-01T09:31:32Z</time></trkpt><trkpt lat="44.073155720711874" lon="9.987661755253793"><ele>2.5</ele><time>2026-05-01T09:31:33Z</time></trkpt><trkpt lat="44.07299634215444" lon="9.98792169225772"><ele>3.0</ele><time>2026-05-01T09:31:34Z</time></trkpt><trkpt lat="44.07283804418211" lon="9.98817989720095"><ele>1.5</ele><time>2026-05-01T09:31:35Z</time></trkpt><trkpt lat="44.07268022218533" lon="9.988444167062601"><ele>0.0</ele><time>2026-05-01T09:31:36Z</time></trkpt><trkpt lat="44.07251458669578" lon="9.988707587156332"><ele>0.5</ele><time>2026-05-01T09:31:37Z</time></trkpt><trkpt lat="44.07234971265359" lon="9.98897957865291"><ele>1.0</ele><time>2026-05-01T09:31:38Z</time></trkpt><trkpt lat="44.07218987119205" lon="9.989247427658452"><ele>1.0</ele><time>2026-05-01T09:31:39Z</time></trkpt><trkpt lat="44.072029012061634" lon="9.989508840730634"><ele>1.0</ele><time>2026-05-01T09:31:40Z</time></trkpt><trkpt lat="44.07186787899474" lon="9.989771869869294"><ele>1.5</ele><time>2026-05-01T09:31:41Z</time></trkpt><trkpt lat="44.07170730830927" lon="9.990042005690041"><ele>2.0</ele><time>2026-05-01T09:31:42Z</time></trkpt><trkpt lat="44.07154477843277" lon="9.990312765289401"><ele>2.0</ele><time>2026-05-01T09:31:43Z</time></trkpt><trkpt lat="44.07138542493111" lon="9.990588283038656"><ele>2.0</ele><time>2026-05-01T09:31:44Z</time></trkpt><trkpt lat="44.071223439045895" lon="9.990855036535232"><ele>2.0</ele><time>2026-05-01T09:31:45Z</time></trkpt><trkpt lat="44.07106057722419" lon="9.991123241382963"><ele>2.0</ele><time>2026-05-01T09:31:46Z</time></trkpt><trkpt lat="44.07089807384161" lon="9.991391839025264"><ele>2.0</ele><time>2026-05-01T09:31:47Z</time></trkpt><trkpt lat="44.0707335297315" lon="9.991660460914868"><ele>2.0</ele><time>2026-05-01T09:31:48Z</time></trkpt><trkpt lat="44.07056609534342" lon="9.991933453453154"><ele>2.0</ele><time>2026-05-01T09:31:49Z</time></trkpt><trkpt lat="44.07039387151083" lon="9.992208241898556"><ele>2.0</ele><time>2026-05-01T09:31:50Z</time></trkpt><trkpt lat="44.070223934533786" lon="9.992482245137953"><ele>2.0</ele><time>2026-05-01T09:31:51Z</time></trkpt><trkpt lat="44.070058279468306" lon="9.99275600092845"><ele>2.0</ele><time>2026-05-01T09:31:51.999Z</time></trkpt><trkpt lat="44.06989762244811" lon="9.993028090099541"><ele>2.0</ele><time>2026-05-01T09:31:52.999Z</time></trkpt><trkpt lat="44.06973512310584" lon="9.993293566314684"><ele>2.0</ele><time>2026-05-01T09:31:53.999Z</time></trkpt><trkpt lat="44.0695713931017" lon="9.993565201075928"><ele>2.0</ele><time>2026-05-01T09:31:54.999Z</time></trkpt><trkpt lat="44.06940796679631" lon="9.993829867395371"><ele>2.0</ele><time>2026-05-01T09:31:55.999Z</time></trkpt><trkpt lat="44.069251756217895" lon="9.994087687219865"><ele>1.0</ele><time>2026-05-01T09:31:56.999Z</time></trkpt><trkpt lat="44.06909730422903" lon="9.994341588455764"><ele>0.0</ele><time>2026-05-01T09:31:57.999Z</time></trkpt><trkpt lat="44.068941391782765" lon="9.994598956124984"><ele>0.0</ele><time>2026-05-01T09:31:58.999Z</time></trkpt><trkpt lat="44.06878300300245" lon="9.994857267302242"><ele>0.0</ele><time>2026-05-01T09:31:59.999Z</time></trkpt><trkpt lat="44.06862657898649" lon="9.995120010831839"><ele>1.5</ele><time>2026-05-01T09:32:00.999Z</time></trkpt><trkpt lat="44.068467095485644" lon="9.995384849281924"><ele>3.0</ele><time>2026-05-01T09:32:01.999Z</time></trkpt><trkpt lat="44.06830810361937" lon="9.995648436516117"><ele>2.0</ele><time>2026-05-01T09:32:02.999Z</time></trkpt><trkpt lat="44.06814635307882" lon="9.995914069243664"><ele>1.0</ele><time>2026-05-01T09:32:03.999Z</time></trkpt><trkpt lat="44.067986958157455" lon="9.996179341381064"><ele>1.0</ele><time>2026-05-01T09:32:04.999Z</time></trkpt><trkpt lat="44.067828668321276" lon="9.996437088325251"><ele>1.0</ele><time>2026-05-01T09:32:05.999Z</time></trkpt><trkpt lat="44.0676738955379" lon="9.996690367941602"><ele>1.0</ele><time>2026-05-01T09:32:06.999Z</time></trkpt><trkpt lat="44.067518759436496" lon="9.996948724418793"><ele>1.0</ele><time>2026-05-01T09:32:07.999Z</time></trkpt><trkpt lat="44.067359784712515" lon="9.997206439415558"><ele>1.0</ele><time>2026-05-01T09:32:08.999Z</time></trkpt><trkpt lat="44.06720117010243" lon="9.99746813866068"><ele>1.0</ele><time>2026-05-01T09:32:09.999Z</time></trkpt><trkpt lat="44.06704543911278" lon="9.99772622869698"><ele>2.5</ele><time>2026-05-01T09:32:10.999Z</time></trkpt><trkpt lat="44.06689032623052" lon="9.997981911695668"><ele>4.0</ele><time>2026-05-01T09:32:11.999Z</time></trkpt><trkpt lat="44.06673058727771" lon="9.998243051342067"><ele>3.0</ele><time>2026-05-01T09:32:12.999Z</time></trkpt><trkpt lat="44.066565778179694" lon="9.99851249888872"><ele>2.0</ele><time>2026-05-01T09:32:13.999Z</time></trkpt><trkpt lat="44.066400555055495" lon="9.998789068700763"><ele>2.0</ele><time>2026-05-01T09:32:14.999Z</time></trkpt><trkpt lat="44.06623663066641" lon="9.999061357452895"><ele>2.0</ele><time>2026-05-01T09:32:15.999Z</time></trkpt><trkpt lat="44.06607069194918" lon="9.999332121534893"><ele>2.5</ele><time>2026-05-01T09:32:16.999Z</time></trkpt><trkpt lat="44.065905135657204" lon="9.999605618948992"><ele>3.0</ele><time>2026-05-01T09:32:17.999Z</time></trkpt><trkpt lat="44.06573775166492" lon="9.999880803602963"><ele>1.5</ele><time>2026-05-01T09:32:18.999Z</time></trkpt><trkpt lat="44.06557049048419" lon="10.000157015373269"><ele>0.0</ele><time>2026-05-01T09:32:19.999Z</time></trkpt><trkpt lat="44.06540132434498" lon="10.000430099741362"><ele>0.0</ele><time>2026-05-01T09:32:20.999Z</time></trkpt><trkpt lat="44.06523435450434" lon="10.000705531971034"><ele>0.0</ele><time>2026-05-01T09:32:21.999Z</time></trkpt><trkpt lat="44.06506570232721" lon="10.000981066491953"><ele>-0.5</ele><time>2026-05-01T09:32:22.999Z</time></trkpt><trkpt lat="44.06488866633502" lon="10.001269787492422"><ele>-1.0</ele><time>2026-05-01T09:32:23.999Z</time></trkpt><trkpt lat="44.06471122439165" lon="10.001561580442349"><ele>0.0</ele><time>2026-05-01T09:32:24.999Z</time></trkpt><trkpt lat="44.064538005042" lon="10.001850465255535"><ele>1.0</ele><time>2026-05-01T09:32:25.999Z</time></trkpt><trkpt lat="44.06437008803688" lon="10.00213583798166"><ele>1.0</ele><time>2026-05-01T09:32:26.999Z</time></trkpt><trkpt lat="44.064197342683784" lon="10.002414783583248"><ele>1.0</ele><time>2026-05-01T09:32:27.999Z</time></trkpt><trkpt lat="44.06402748202475" lon="10.00269526269693"><ele>0.0</ele><time>2026-05-01T09:32:28.999Z</time></trkpt><trkpt lat="44.06385746055476" lon="10.00297822381676"><ele>-1.0</ele><time>2026-05-01T09:32:29.999Z</time></trkpt><trkpt lat="44.06368050235629" lon="10.00326480102714"><ele>-0.5</ele><time>2026-05-01T09:32:30.999Z</time></trkpt><trkpt lat="44.06350136399412" lon="10.003564378763652"><ele>0.0</ele><time>2026-05-01T09:32:31.999Z</time></trkpt><trkpt lat="44.06331529857942" lon="10.003850936218628"><ele>0.5</ele><time>2026-05-01T09:32:32.999Z</time></trkpt><trkpt lat="44.06310137656411" lon="10.004172571477227"><ele>1.0</ele><time>2026-05-01T09:32:33.999Z</time></trkpt><trkpt lat="44.06289684891391" lon="10.004500528055651"><ele>1.0</ele><time>2026-05-01T09:32:34.999Z</time></trkpt><trkpt lat="44.06269345493059" lon="10.004838870520688"><ele>1.0</ele><time>2026-05-01T09:32:36Z</time></trkpt><trkpt lat="44.062495659440906" lon="10.005176027424776"><ele>2.5</ele><time>2026-05-01T09:32:37Z</time></trkpt><trkpt lat="44.062301626652584" lon="10.00550511622365"><ele>4.0</ele><time>2026-05-01T09:32:38Z</time></trkpt><trkpt lat="44.06210963111264" lon="10.005822366396044"><ele>3.5</ele><time>2026-05-01T09:32:39Z</time></trkpt><trkpt lat="44.06191952461015" lon="10.006135022845138"><ele>3.0</ele><time>2026-05-01T09:32:40Z</time></trkpt><trkpt lat="44.06173086188062" lon="10.006442271422365"><ele>3.5</ele><time>2026-05-01T09:32:41Z</time></trkpt><trkpt lat="44.0615465615821" lon="10.00674777596974"><ele>4.0</ele><time>2026-05-01T09:32:42Z</time></trkpt><trkpt lat="44.06136681871954" lon="10.007051664279103"><ele>4.0</ele><time>2026-05-01T09:32:43Z</time></trkpt><trkpt lat="44.06118617004181" lon="10.007357890640616"><ele>4.0</ele><time>2026-05-01T09:32:44Z</time></trkpt><trkpt lat="44.06100789893473" lon="10.007666359285723"><ele>4.0</ele><time>2026-05-01T09:32:45Z</time></trkpt><trkpt lat="44.060829658270265" lon="10.007977308762662"><ele>4.0</ele><time>2026-05-01T09:32:46Z</time></trkpt><trkpt lat="44.06065377050925" lon="10.008290304979676"><ele>4.0</ele><time>2026-05-01T09:32:47Z</time></trkpt><trkpt lat="44.0604879594242" lon="10.008606219910474"><ele>4.0</ele><time>2026-05-01T09:32:48Z</time></trkpt><trkpt lat="44.06032948783906" lon="10.008924676419506"><ele>3.0</ele><time>2026-05-01T09:32:49Z</time></trkpt><trkpt lat="44.0601758163588" lon="10.009241878861399"><ele>2.0</ele><time>2026-05-01T09:32:50Z</time></trkpt><trkpt lat="44.060024117891636" lon="10.009560826537822"><ele>3.0</ele><time>2026-05-01T09:32:51Z</time></trkpt><trkpt lat="44.05987616020842" lon="10.009881526498358"><ele>4.0</ele><time>2026-05-01T09:32:52Z</time></trkpt><trkpt lat="44.059732036460076" lon="10.010209383988041"><ele>4.0</ele><time>2026-05-01T09:32:53Z</time></trkpt><trkpt lat="44.0595898371103" lon="10.010544152217546"><ele>4.0</ele><time>2026-05-01T09:32:54Z</time></trkpt><trkpt lat="44.05944851624575" lon="10.010883186360795"><ele>4.0</ele><time>2026-05-01T09:32:55Z</time></trkpt><trkpt lat="44.05931127167289" lon="10.01122684192744"><ele>4.0</ele><time>2026-05-01T09:32:56Z</time></trkpt><trkpt lat="44.05917680448127" lon="10.011572060027252"><ele>2.0</ele><time>2026-05-01T09:32:57Z</time></trkpt><trkpt lat="44.05904565939623" lon="10.011920558659686"><ele>0.0</ele><time>2026-05-01T09:32:58Z</time></trkpt><trkpt lat="44.05891817012317" lon="10.012275995930867"><ele>-0.5</ele><time>2026-05-01T09:32:59Z</time></trkpt><trkpt lat="44.05879355600842" lon="10.012636051092931"><ele>-1.0</ele><time>2026-05-01T09:33:00Z</time></trkpt><trkpt lat="44.05867649879743" lon="10.01300239557898"><ele>0.5</ele><time>2026-05-01T09:33:01Z</time></trkpt><trkpt lat="44.05856391356496" lon="10.013374078409104"><ele>2.0</ele><time>2026-05-01T09:33:02Z</time></trkpt><trkpt lat="44.05845062593174" lon="10.013751454764028"><ele>2.0</ele><time>2026-05-01T09:33:03Z</time></trkpt><trkpt lat="44.058338980750925" lon="10.014129489734866"><ele>2.0</ele><time>2026-05-01T09:33:04Z</time></trkpt><trkpt lat="44.05823374950657" lon="10.014477020009263"><ele>1.5</ele><time>2026-05-01T09:33:05Z</time></trkpt><trkpt lat="44.05813733121156" lon="10.014792138469156"><ele>1.0</ele><time>2026-05-01T09:33:06Z</time></trkpt><trkpt lat="44.058049983809006" lon="10.01507968766028"><ele>1.0</ele><time>2026-05-01T09:33:07Z</time></trkpt><trkpt lat="44.05796947642344" lon="10.015336066591251"><ele>1.0</ele><time>2026-05-01T09:33:08Z</time></trkpt><trkpt lat="44.057898128521416" lon="10.015567894218892"><ele>1.0</ele><time>2026-05-01T09:33:09Z</time></trkpt><trkpt lat="44.05783512032788" lon="10.015783938331973"><ele>1.3333333333333333</ele><time>2026-05-01T09:33:10Z</time></trkpt><trkpt lat="44.05777544952552" lon="10.015988711344002"><ele>1.6666666666666665</ele><time>2026-05-01T09:33:11Z</time></trkpt><trkpt lat="44.05771291163587" lon="10.016197145203185"><ele>2.0</ele><time>2026-05-01T09:33:12Z</time></trkpt><trkpt lat="44.057649524115654" lon="10.016409346293877"><ele>2.0</ele><time>2026-05-01T09:33:13Z</time></trkpt><trkpt lat="44.05758432463078" lon="10.016624019898336"><ele>2.0</ele><time>2026-05-01T09:33:14Z</time></trkpt><trkpt lat="44.057518032176745" lon="10.016848031327688"><ele>2.0</ele><time>2026-05-01T09:33:15Z</time></trkpt><trkpt lat="44.05744575167839" lon="10.017078876609462"><ele>1.6666666666666665</ele><time>2026-05-01T09:33:16Z</time></trkpt><trkpt lat="44.05737164676246" lon="10.017315583759657"><ele>1.3333333333333333</ele><time>2026-05-01T09:33:17Z</time></trkpt><trkpt lat="44.05729833086578" lon="10.017552724625281"><ele>1.0</ele><time>2026-05-01T09:33:18Z</time></trkpt><trkpt lat="44.057225416071795" lon="10.017790099627758"><ele>1.0</ele><time>2026-05-01T09:33:19Z</time></trkpt><trkpt lat="44.057156664469744" lon="10.018021200489063"><ele>1.0</ele><time>2026-05-01T09:33:20Z</time></trkpt><trkpt lat="44.05708848814333" lon="10.018249469348989"><ele>1.0</ele><time>2026-05-01T09:33:21Z</time></trkpt><trkpt lat="44.05702263612431" lon="10.018476559843943"><ele>1.0</ele><time>2026-05-01T09:33:22Z</time></trkpt><trkpt lat="44.056958147388784" lon="10.018702383637276"><ele>1.0</ele><time>2026-05-01T09:33:23Z</time></trkpt><trkpt lat="44.05689337490464" lon="10.018930972657568"><ele>1.0</ele><time>2026-05-01T09:33:24Z</time></trkpt><trkpt lat="44.05682679133965" lon="10.019159791319083"><ele>1.0</ele><time>2026-05-01T09:33:25Z</time></trkpt><trkpt lat="44.05675850957195" lon="10.019388475096731"><ele>1.0</ele><time>2026-05-01T09:33:26Z</time></trkpt><trkpt lat="44.05669057769891" lon="10.01961603376179"><ele>1.0</ele><time>2026-05-01T09:33:27Z</time></trkpt><trkpt lat="44.05662467271672" lon="10.019843306546628"><ele>1.0</ele><time>2026-05-01T09:33:28Z</time></trkpt><trkpt lat="44.05655939226656" lon="10.020066876078921"><ele>1.0</ele><time>2026-05-01T09:33:29Z</time></trkpt><trkpt lat="44.05649488521268" lon="10.02029006481901"><ele>1.0</ele><time>2026-05-01T09:33:30Z</time></trkpt><trkpt lat="44.05643107422233" lon="10.020512372861182"><ele>1.0</ele><time>2026-05-01T09:33:31Z</time></trkpt><trkpt lat="44.05636508180795" lon="10.02074168849157"><ele>1.0</ele><time>2026-05-01T09:33:32Z</time></trkpt><trkpt lat="44.05629826881412" lon="10.020968575504003"><ele>1.0</ele><time>2026-05-01T09:33:33Z</time></trkpt><trkpt lat="44.05623187758976" lon="10.02119750323727"><ele>1.0</ele><time>2026-05-01T09:33:34Z</time></trkpt><trkpt lat="44.05616602143969" lon="10.021425357657433"><ele>1.0</ele><time>2026-05-01T09:33:35Z</time></trkpt><trkpt lat="44.05610048732959" lon="10.021653881549497"><ele>1.0</ele><time>2026-05-01T09:33:36Z</time></trkpt><trkpt lat="44.056035304860515" lon="10.021879560259812"><ele>1.0</ele><time>2026-05-01T09:33:37Z</time></trkpt><trkpt lat="44.05597198855525" lon="10.022097208174989"><ele>1.0</ele><time>2026-05-01T09:33:38Z</time></trkpt><trkpt lat="44.05590749145304" lon="10.022315070736404"><ele>1.0</ele><time>2026-05-01T09:33:39Z</time></trkpt><trkpt lat="44.05584339651217" lon="10.022535978596167"><ele>1.0</ele><time>2026-05-01T09:33:40Z</time></trkpt><trkpt lat="44.055778847695606" lon="10.022757678825247"><ele>1.0</ele><time>2026-05-01T09:33:41Z</time></trkpt><trkpt lat="44.05571435913025" lon="10.022978292050391"><ele>1.0</ele><time>2026-05-01T09:33:42Z</time></trkpt><trkpt lat="44.05565052276562" lon="10.023203177988918"><ele>1.0</ele><time>2026-05-01T09:33:43Z</time></trkpt><trkpt lat="44.05558416331465" lon="10.023432805102448"><ele>1.0</ele><time>2026-05-01T09:33:44Z</time></trkpt><trkpt lat="44.05551568119378" lon="10.023671238036934"><ele>1.0</ele><time>2026-05-01T09:33:45Z</time></trkpt><trkpt lat="44.05544626644859" lon="10.0239081401272"><ele>1.0</ele><time>2026-05-01T09:33:46Z</time></trkpt><trkpt lat="44.05537764472593" lon="10.024146340103076"><ele>1.0</ele><time>2026-05-01T09:33:47Z</time></trkpt><trkpt lat="44.05530886502681" lon="10.024382327590752"><ele>1.0</ele><time>2026-05-01T09:33:48Z</time></trkpt><trkpt lat="44.055238906193026" lon="10.024626082029469"><ele>1.6666666666666665</ele><time>2026-05-01T09:33:49Z</time></trkpt><trkpt lat="44.055166961573484" lon="10.024875384579138"><ele>2.3333333333333335</ele><time>2026-05-01T09:33:50Z</time></trkpt><trkpt lat="44.055094409309156" lon="10.025125704423958"><ele>3.0</ele><time>2026-05-01T09:33:51Z</time></trkpt><trkpt lat="44.0550224859689" lon="10.025377012703677"><ele>3.0</ele><time>2026-05-01T09:33:52Z</time></trkpt><trkpt lat="44.054949276661056" lon="10.025626857675487"><ele>3.0</ele><time>2026-05-01T09:33:53Z</time></trkpt><trkpt lat="44.0548750689754" lon="10.025877728038642"><ele>3.0</ele><time>2026-05-01T09:33:54Z</time></trkpt><trkpt lat="44.05480093906431" lon="10.026136679710572"><ele>3.0</ele><time>2026-05-01T09:33:55Z</time></trkpt><trkpt lat="44.05472496051307" lon="10.026397600922929"><ele>3.0</ele><time>2026-05-01T09:33:56Z</time></trkpt><trkpt lat="44.05464787234877" lon="10.026659834788338"><ele>3.0</ele><time>2026-05-01T09:33:57Z</time></trkpt><trkpt lat="44.05456900400569" lon="10.02692425736462"><ele>2.6666666666666665</ele><time>2026-05-01T09:33:58Z</time></trkpt><trkpt lat="44.05449097304324" lon="10.027197842058728"><ele>2.333333333333333</ele><time>2026-05-01T09:33:59Z</time></trkpt><trkpt lat="44.05441130381793" lon="10.027475558461141"><ele>2.0</ele><time>2026-05-01T09:33:59.999Z</time></trkpt><trkpt lat="44.05433848379928" lon="10.027763138386076"><ele>2.0</ele><time>2026-05-01T09:34:00.999Z</time></trkpt><trkpt lat="44.05426264895856" lon="10.02805808459003"><ele>2.0</ele><time>2026-05-01T09:34:01.999Z</time></trkpt><trkpt lat="44.054185493365544" lon="10.028364404397651"><ele>2.5</ele><time>2026-05-01T09:34:02.999Z</time></trkpt><trkpt lat="44.054109272602126" lon="10.028658668136613"><ele>3.0</ele><time>2026-05-01T09:34:03.999Z</time></trkpt><trkpt lat="44.05402341706923" lon="10.028950324971479"><ele>3.0</ele><time>2026-05-01T09:34:04.999Z</time></trkpt><trkpt lat="44.05393745297398" lon="10.029245772819904"><ele>3.0</ele><time>2026-05-01T09:34:05.999Z</time></trkpt><trkpt lat="44.05385210850069" lon="10.029551378255771"><ele>3.0</ele><time>2026-05-01T09:34:06.999Z</time></trkpt><trkpt lat="44.053767081650136" lon="10.029868344603278"><ele>3.0</ele><time>2026-05-01T09:34:07.999Z</time></trkpt><trkpt lat="44.053674465100805" lon="10.0302031586151"><ele>3.0</ele><time>2026-05-01T09:34:08.999Z</time></trkpt><trkpt lat="44.053577790622285" lon="10.030547749927404"><ele>3.0</ele><time>2026-05-01T09:34:09.999Z</time></trkpt><trkpt lat="44.053478190878536" lon="10.030899114947156"><ele>3.0</ele><time>2026-05-01T09:34:10.999Z</time></trkpt><trkpt lat="44.053373658205786" lon="10.031257928823917"><ele>3.0</ele><time>2026-05-01T09:34:11.999Z</time></trkpt><trkpt lat="44.05326859164998" lon="10.031617840439491"><ele>3.0</ele><time>2026-05-01T09:34:12.999Z</time></trkpt><trkpt lat="44.05316158585932" lon="10.031982107551107"><ele>3.0</ele><time>2026-05-01T09:34:13.999Z</time></trkpt><trkpt lat="44.05305189944748" lon="10.032344541354536"><ele>4.0</ele><time>2026-05-01T09:34:14.999Z</time></trkpt><trkpt lat="44.052938538253535" lon="10.032703989819817"><ele>5.0</ele><time>2026-05-01T09:34:15.999Z</time></trkpt><trkpt lat="44.05281888686284" lon="10.033065803911882"><ele>3.5</ele><time>2026-05-01T09:34:16.999Z</time></trkpt><trkpt lat="44.052693488436304" lon="10.033428429183719"><ele>2.0</ele><time>2026-05-01T09:34:17.999Z</time></trkpt><trkpt lat="44.05256272756046" lon="10.033793340090439"><ele>1.5</ele><time>2026-05-01T09:34:18.999Z</time></trkpt><trkpt lat="44.05242599316441" lon="10.034154851686957"><ele>1.0</ele><time>2026-05-01T09:34:19.999Z</time></trkpt><trkpt lat="44.052285699619496" lon="10.034512555721802"><ele>1.0</ele><time>2026-05-01T09:34:20.999Z</time></trkpt><trkpt lat="44.052143369028414" lon="10.034864843560612"><ele>1.0</ele><time>2026-05-01T09:34:21.999Z</time></trkpt><trkpt lat="44.05199702663575" lon="10.035216079537888"><ele>0.5</ele><time>2026-05-01T09:34:22.999Z</time></trkpt><trkpt lat="44.05184566822654" lon="10.03556485278609"><ele>0.0</ele><time>2026-05-01T09:34:23.999Z</time></trkpt><trkpt lat="44.051687036317134" lon="10.035912206878658"><ele>1.0</ele><time>2026-05-01T09:34:24.999Z</time></trkpt><trkpt lat="44.051524688473954" lon="10.036254486530614"><ele>2.0</ele><time>2026-05-01T09:34:26Z</time></trkpt><trkpt lat="44.0513618595361" lon="10.036588058537928"><ele>2.0</ele><time>2026-05-01T09:34:26.999Z</time></trkpt><trkpt lat="44.05119613519251" lon="10.036919888675694"><ele>2.0</ele><time>2026-05-01T09:34:27.999Z</time></trkpt><trkpt lat="44.0510272014212" lon="10.03724529309582"><ele>2.0</ele><time>2026-05-01T09:34:28.999Z</time></trkpt><trkpt lat="44.050854357400496" lon="10.037569974836563"><ele>2.0</ele><time>2026-05-01T09:34:29.999Z</time></trkpt><trkpt lat="44.050680143624604" lon="10.037894489097757"><ele>2.0</ele><time>2026-05-01T09:34:30.999Z</time></trkpt><trkpt lat="44.05050892057805" lon="10.038209411188436"><ele>2.0</ele><time>2026-05-01T09:34:31.999Z</time></trkpt><trkpt lat="44.050341300562835" lon="10.038518661206416"><ele>2.0</ele><time>2026-05-01T09:34:32.999Z</time></trkpt><trkpt lat="44.0501760128313" lon="10.038821908140736"><ele>2.0</ele><time>2026-05-01T09:34:33.999Z</time></trkpt><trkpt lat="44.050014041608634" lon="10.039124692890189"><ele>1.5</ele><time>2026-05-01T09:34:34.999Z</time></trkpt><trkpt lat="44.04985383410899" lon="10.039422874446435"><ele>1.0</ele><time>2026-05-01T09:34:35.999Z</time></trkpt><trkpt lat="44.04969251972829" lon="10.039722279568894"><ele>1.0</ele><time>2026-05-01T09:34:36.999Z</time></trkpt><trkpt lat="44.04952812027961" lon="10.040021112875323"><ele>1.0</ele><time>2026-05-01T09:34:37.999Z</time></trkpt><trkpt lat="44.049364744364" lon="10.040326047003237"><ele>1.0</ele><time>2026-05-01T09:34:38.999Z</time></trkpt><trkpt lat="44.049198847658765" lon="10.040632894186082"><ele>1.0</ele><time>2026-05-01T09:34:39.999Z</time></trkpt><trkpt lat="44.04903194032076" lon="10.040946168622984"><ele>2.0</ele><time>2026-05-01T09:34:41Z</time></trkpt><trkpt lat="44.04886479907974" lon="10.041255897438544"><ele>3.0</ele><time>2026-05-01T09:34:42Z</time></trkpt><trkpt lat="44.04869957924423" lon="10.041567877813618"><ele>3.5</ele><time>2026-05-01T09:34:43Z</time></trkpt><trkpt lat="44.04853616717291" lon="10.041881482065094"><ele>4.0</ele><time>2026-05-01T09:34:44Z</time></trkpt><trkpt lat="44.04837059745633" lon="10.042194015612754"><ele>5.0</ele><time>2026-05-01T09:34:45Z</time></trkpt><trkpt lat="44.048205149895466" lon="10.042509213738182"><ele>6.0</ele><time>2026-05-01T09:34:46Z</time></trkpt><trkpt lat="44.048037862813736" lon="10.042825909672406"><ele>6.0</ele><time>2026-05-01T09:34:47Z</time></trkpt><trkpt lat="44.04786603330082" lon="10.043148165348239"><ele>6.0</ele><time>2026-05-01T09:34:48Z</time></trkpt><trkpt lat="44.04769234663101" lon="10.043472057693652"><ele>5.5</ele><time>2026-05-01T09:34:49Z</time></trkpt><trkpt lat="44.04752305540958" lon="10.043789864795357"><ele>5.0</ele><time>2026-05-01T09:34:50Z</time></trkpt><trkpt lat="44.047354413748415" lon="10.044106846442935"><ele>4.0</ele><time>2026-05-01T09:34:51Z</time></trkpt><trkpt lat="44.047187848055444" lon="10.04442223924373"><ele>3.0</ele><time>2026-05-01T09:34:52Z</time></trkpt><trkpt lat="44.047018283430475" lon="10.044738305791407"><ele>4.0</ele><time>2026-05-01T09:34:53Z</time></trkpt><trkpt lat="44.0468515752025" lon="10.045054284606692"><ele>5.0</ele><time>2026-05-01T09:34:54Z</time></trkpt><trkpt lat="44.04668390788756" lon="10.045370530779994"><ele>4.5</ele><time>2026-05-01T09:34:55Z</time></trkpt><trkpt lat="44.046514936402836" lon="10.04568527440974"><ele>4.0</ele><time>2026-05-01T09:34:56Z</time></trkpt><trkpt lat="44.04634651939495" lon="10.045999104690333"><ele>4.0</ele><time>2026-05-01T09:34:57Z</time></trkpt><trkpt lat="44.04617954872935" lon="10.046315532417381"><ele>4.0</ele><time>2026-05-01T09:34:58Z</time></trkpt><trkpt lat="44.046009863927466" lon="10.046631279440403"><ele>4.0</ele><time>2026-05-01T09:34:59Z</time></trkpt><trkpt lat="44.04584104883995" lon="10.046945204496172"><ele>4.0</ele><time>2026-05-01T09:35:00Z</time></trkpt><trkpt lat="44.045677156037044" lon="10.047253333712476"><ele>4.5</ele><time>2026-05-01T09:35:01Z</time></trkpt><trkpt lat="44.04551847727413" lon="10.047559349767836"><ele>5.0</ele><time>2026-05-01T09:35:02Z</time></trkpt><trkpt lat="44.045360207262256" lon="10.047863259103789"><ele>5.0</ele><time>2026-05-01T09:35:03Z</time></trkpt><trkpt lat="44.04520110799958" lon="10.04816485074661"><ele>5.0</ele><time>2026-05-01T09:35:04Z</time></trkpt><trkpt lat="44.04504319088303" lon="10.048468521510141"><ele>4.5</ele><time>2026-05-01T09:35:05Z</time></trkpt><trkpt lat="44.0448847519167" lon="10.048772617450638"><ele>4.0</ele><time>2026-05-01T09:35:06Z</time></trkpt><trkpt lat="44.04472447080961" lon="10.049078897343144"><ele>4.0</ele><time>2026-05-01T09:35:07Z</time></trkpt><trkpt lat="44.044562996508176" lon="10.04938635385255"><ele>4.0</ele><time>2026-05-01T09:35:08Z</time></trkpt><trkpt lat="44.044401228958996" lon="10.049698585096138"><ele>4.5</ele><time>2026-05-01T09:35:09Z</time></trkpt><trkpt lat="44.04423253085445" lon="10.050018947859083"><ele>5.0</ele><time>2026-05-01T09:35:10Z</time></trkpt><trkpt lat="44.044063267589145" lon="10.050343667457998"><ele>5.0</ele><time>2026-05-01T09:35:11Z</time></trkpt><trkpt lat="44.043889726639726" lon="10.050673376544973"><ele>5.0</ele><time>2026-05-01T09:35:12Z</time></trkpt><trkpt lat="44.04371412893199" lon="10.051008856647114"><ele>5.0</ele><time>2026-05-01T09:35:13Z</time></trkpt><trkpt lat="44.04353747166395" lon="10.051348146060521"><ele>5.0</ele><time>2026-05-01T09:35:14Z</time></trkpt><trkpt lat="44.04335937398671" lon="10.051689806934185"><ele>6.0</ele><time>2026-05-01T09:35:15Z</time></trkpt><trkpt lat="44.04318466252786" lon="10.052039629332345"><ele>7.0</ele><time>2026-05-01T09:35:16Z</time></trkpt><trkpt lat="44.04301322019985" lon="10.052396895908798"><ele>6.5</ele><time>2026-05-01T09:35:17Z</time></trkpt><trkpt lat="44.04283804775082" lon="10.052757468755052"><ele>6.0</ele><time>2026-05-01T09:35:18Z</time></trkpt><trkpt lat="44.04267308151338" lon="10.05312935713081"><ele>5.0</ele><time>2026-05-01T09:35:19Z</time></trkpt><trkpt lat="44.042507504638614" lon="10.05350893163183"><ele>4.0</ele><time>2026-05-01T09:35:20Z</time></trkpt><trkpt lat="44.04233898906619" lon="10.053891962474061"><ele>3.5</ele><time>2026-05-01T09:35:21Z</time></trkpt><trkpt lat="44.04216600263716" lon="10.054276616967757"><ele>3.0</ele><time>2026-05-01T09:35:22Z</time></trkpt><trkpt lat="44.04199365039564" lon="10.054665535968258"><ele>2.0</ele><time>2026-05-01T09:35:23Z</time></trkpt><trkpt lat="44.04182124890694" lon="10.055048752124266"><ele>1.0</ele><time>2026-05-01T09:35:24Z</time></trkpt><trkpt lat="44.041654584165016" lon="10.055424358755838"><ele>2.0</ele><time>2026-05-01T09:35:25Z</time></trkpt><trkpt lat="44.041491844503035" lon="10.055799880749552"><ele>3.0</ele><time>2026-05-01T09:35:26Z</time></trkpt><trkpt lat="44.041327176614246" lon="10.056173696995623"><ele>3.0</ele><time>2026-05-01T09:35:27Z</time></trkpt><trkpt lat="44.041167669027246" lon="10.05653980577058"><ele>3.0</ele><time>2026-05-01T09:35:28Z</time></trkpt><trkpt lat="44.041006758451566" lon="10.056904321497107"><ele>3.0</ele><time>2026-05-01T09:35:29Z</time></trkpt><trkpt lat="44.040849985729345" lon="10.057265196514352"><ele>3.0</ele><time>2026-05-01T09:35:30Z</time></trkpt><trkpt lat="44.04069019279462" lon="10.057619517549488"><ele>3.0</ele><time>2026-05-01T09:35:31Z</time></trkpt><trkpt lat="44.04053048047199" lon="10.05797047856269"><ele>3.0</ele><time>2026-05-01T09:35:32Z</time></trkpt><trkpt lat="44.04035491054548" lon="10.058363421978166"><ele>4.0</ele><time>2026-05-01T09:35:33Z</time></trkpt><trkpt lat="44.040176958680135" lon="10.058755994494485"><ele>5.0</ele><time>2026-05-01T09:35:34Z</time></trkpt><trkpt lat="44.039988183811815" lon="10.05916180106752"><ele>5.0</ele><time>2026-05-01T09:35:35Z</time></trkpt><trkpt lat="44.03980368677552" lon="10.059566617327208"><ele>5.0</ele><time>2026-05-01T09:35:36Z</time></trkpt><trkpt lat="44.0396263205533" lon="10.059971713218157"><ele>5.0</ele><time>2026-05-01T09:35:37Z</time></trkpt><trkpt lat="44.03945230033058" lon="10.060385181175839"><ele>5.0</ele><time>2026-05-01T09:35:38Z</time></trkpt><trkpt lat="44.039281399318526" lon="10.060796971205349"><ele>4.5</ele><time>2026-05-01T09:35:39Z</time></trkpt><trkpt lat="44.03910989737438" lon="10.061201557472492"><ele>4.0</ele><time>2026-05-01T09:35:40Z</time></trkpt><trkpt lat="44.03894001106958" lon="10.061588491681713"><ele>4.0</ele><time>2026-05-01T09:35:41Z</time></trkpt><trkpt lat="44.03877354303147" lon="10.061963631683096"><ele>4.0</ele><time>2026-05-01T09:35:42Z</time></trkpt><trkpt lat="44.03861273635058" lon="10.062330911190234"><ele>4.0</ele><time>2026-05-01T09:35:43Z</time></trkpt><trkpt lat="44.03845057306262" lon="10.062701241179774"><ele>4.0</ele><time>2026-05-01T09:35:44Z</time></trkpt><trkpt lat="44.038283941327" lon="10.063073685668522"><ele>3.5</ele><time>2026-05-01T09:35:45Z</time></trkpt><trkpt lat="44.038105862638254" lon="10.063467932751024"><ele>3.0</ele><time>2026-05-01T09:35:46Z</time></trkpt><trkpt lat="44.03791596061475" lon="10.06387947652276"><ele>3.0</ele><time>2026-05-01T09:35:47Z</time></trkpt><trkpt lat="44.03772460283887" lon="10.06429603076508"><ele>3.0</ele><time>2026-05-01T09:35:48Z</time></trkpt><trkpt lat="44.03753707479221" lon="10.064716664907564"><ele>3.5</ele><time>2026-05-01T09:35:49Z</time></trkpt><trkpt lat="44.03735701030419" lon="10.065129689509735"><ele>4.0</ele><time>2026-05-01T09:35:50Z</time></trkpt><trkpt lat="44.03718337831852" lon="10.065534455966725"><ele>3.5</ele><time>2026-05-01T09:35:51Z</time></trkpt><trkpt lat="44.037017166814756" lon="10.065920919956476"><ele>3.0</ele><time>2026-05-01T09:35:52Z</time></trkpt><trkpt lat="44.03685988747593" lon="10.066285292980343"><ele>2.5</ele><time>2026-05-01T09:35:53Z</time></trkpt><trkpt lat="44.03670773400358" lon="10.066633451379767"><ele>2.0</ele><time>2026-05-01T09:35:54Z</time></trkpt><trkpt lat="44.036557465270405" lon="10.066974594376129"><ele>3.5</ele><time>2026-05-01T09:35:55Z</time></trkpt><trkpt lat="44.03640816302731" lon="10.067315112225184"><ele>5.0</ele><time>2026-05-01T09:35:56Z</time></trkpt><trkpt lat="44.036258022357195" lon="10.067655204711144"><ele>5.0</ele><time>2026-05-01T09:35:57Z</time></trkpt><trkpt lat="44.03610834769178" lon="10.067997223139441"><ele>5.0</ele><time>2026-05-01T09:35:57.999Z</time></trkpt><trkpt lat="44.035957885927445" lon="10.068339390658569"><ele>4.0</ele><time>2026-05-01T09:35:58.999Z</time></trkpt><trkpt lat="44.03580626652848" lon="10.06868512153814"><ele>3.0</ele><time>2026-05-01T09:35:59.999Z</time></trkpt><trkpt lat="44.035656227770446" lon="10.069031240881975"><ele>3.0</ele><time>2026-05-01T09:36:00.999Z</time></trkpt><trkpt lat="44.03550731056638" lon="10.06937608575654"><ele>3.0</ele><time>2026-05-01T09:36:01.999Z</time></trkpt><trkpt lat="44.035359848195945" lon="10.0697179615177"><ele>3.5</ele><time>2026-05-01T09:36:02.999Z</time></trkpt><trkpt lat="44.03521808986664" lon="10.070061621709822"><ele>4.0</ele><time>2026-05-01T09:36:03.999Z</time></trkpt><trkpt lat="44.03508371595065" lon="10.070407079076407"><ele>3.5</ele><time>2026-05-01T09:36:04.999Z</time></trkpt><trkpt lat="44.03495464673619" lon="10.070752365608659"><ele>3.0</ele><time>2026-05-01T09:36:05.999Z</time></trkpt><trkpt lat="44.03483024572059" lon="10.071101984581613"><ele>3.0</ele><time>2026-05-01T09:36:06.999Z</time></trkpt><trkpt lat="44.03471157134887" lon="10.07145598423091"><ele>3.0</ele><time>2026-05-01T09:36:07.999Z</time></trkpt><trkpt lat="44.03459985974776" lon="10.071814638206376"><ele>3.0</ele><time>2026-05-01T09:36:08.999Z</time></trkpt><trkpt lat="44.03449174527926" lon="10.072185159115664"><ele>3.0</ele><time>2026-05-01T09:36:09.999Z</time></trkpt><trkpt lat="44.03438899918842" lon="10.072560697887223"><ele>2.5</ele><time>2026-05-01T09:36:10.999Z</time></trkpt><trkpt lat="44.03429112040021" lon="10.072938264307593"><ele>2.0</ele><time>2026-05-01T09:36:11.999Z</time></trkpt><trkpt lat="44.034200371452634" lon="10.073320477467071"><ele>2.0</ele><time>2026-05-01T09:36:12.999Z</time></trkpt><trkpt lat="44.03411564135896" lon="10.073700590535125"><ele>2.0</ele><time>2026-05-01T09:36:13.999Z</time></trkpt><trkpt lat="44.03403395825476" lon="10.074081711084323"><ele>2.0</ele><time>2026-05-01T09:36:14.999Z</time></trkpt><trkpt lat="44.03396128845103" lon="10.074473058626436"><ele>2.0</ele><time>2026-05-01T09:36:15.999Z</time></trkpt><trkpt lat="44.03389066667312" lon="10.074863767052694"><ele>2.5</ele><time>2026-05-01T09:36:16.999Z</time></trkpt><trkpt lat="44.03382570652755" lon="10.075258624984714"><ele>3.0</ele><time>2026-05-01T09:36:17.999Z</time></trkpt><trkpt lat="44.033765519024854" lon="10.075660679653577"><ele>3.0</ele><time>2026-05-01T09:36:18.999Z</time></trkpt><trkpt lat="44.0337094837625" lon="10.07606850301776"><ele>3.0</ele><time>2026-05-01T09:36:19.999Z</time></trkpt><trkpt lat="44.033649346745435" lon="10.076453993180571"><ele>3.0</ele><time>2026-05-01T09:36:20.999Z</time></trkpt><trkpt lat="44.033599549433305" lon="10.076806893271277"><ele>3.0</ele><time>2026-05-01T09:36:21.999Z</time></trkpt><trkpt lat="44.03355283190522" lon="10.077157620577305"><ele>2.5</ele><time>2026-05-01T09:36:22.999Z</time></trkpt><trkpt lat="44.033504282442365" lon="10.077513827409017"><ele>2.0</ele><time>2026-05-01T09:36:23.999Z</time></trkpt><trkpt lat="44.033453115180876" lon="10.077880954406188"><ele>2.0</ele><time>2026-05-01T09:36:24.999Z</time></trkpt><trkpt lat="44.033399459530564" lon="10.078257623428389"><ele>2.0</ele><time>2026-05-01T09:36:25.999Z</time></trkpt><trkpt lat="44.03334608973925" lon="10.078638106650287"><ele>2.0</ele><time>2026-05-01T09:36:26.999Z</time></trkpt><trkpt lat="44.03329434654706" lon="10.079017261490403"><ele>2.0</ele><time>2026-05-01T09:36:27.999Z</time></trkpt><trkpt lat="44.033242292321425" lon="10.079401432542678"><ele>2.0</ele><time>2026-05-01T09:36:28.999Z</time></trkpt><trkpt lat="44.03318895799607" lon="10.079785037332172"><ele>2.0</ele><time>2026-05-01T09:36:29.999Z</time></trkpt><trkpt lat="44.033137524938454" lon="10.080152259183919"><ele>2.0</ele><time>2026-05-01T09:36:30.999Z</time></trkpt><trkpt lat="44.033089126072205" lon="10.080493095721268"><ele>2.0</ele><time>2026-05-01T09:36:31.999Z</time></trkpt><trkpt lat="44.03303986019668" lon="10.080818306287595"><ele>2.0</ele><time>2026-05-01T09:36:32.999Z</time></trkpt><trkpt lat="44.03298754520583" lon="10.081133939752661"><ele>2.0</ele><time>2026-05-01T09:36:33.999Z</time></trkpt><trkpt lat="44.03293065786475" lon="10.081445448538991"><ele>2.6666666666666665</ele><time>2026-05-01T09:36:34.999Z</time></trkpt><trkpt lat="44.03287010271898" lon="10.081746939386804"><ele>3.333333333333333</ele><time>2026-05-01T09:36:35.999Z</time></trkpt><trkpt lat="44.03280985680456" lon="10.08204377599677"><ele>4.0</ele><time>2026-05-01T09:36:36.999Z</time></trkpt><trkpt lat="44.032746266116824" lon="10.082341993785846"><ele>4.333333333333333</ele><time>2026-05-01T09:36:37.999Z</time></trkpt><trkpt lat="44.03268024760141" lon="10.08263570461663"><ele>4.666666666666667</ele><time>2026-05-01T09:36:38.999Z</time></trkpt><trkpt lat="44.032609131887135" lon="10.082923304146876"><ele>5.0</ele><time>2026-05-01T09:36:39.999Z</time></trkpt><trkpt lat="44.03253336385665" lon="10.083210068677491"><ele>4.0</ele><time>2026-05-01T09:36:40.999Z</time></trkpt><trkpt lat="44.03245367044375" lon="10.083498627816285"><ele>3.0</ele><time>2026-05-01T09:36:41.999Z</time></trkpt><trkpt lat="44.03237026851538" lon="10.083787701091525"><ele>2.0</ele><time>2026-05-01T09:36:42.999Z</time></trkpt><trkpt lat="44.03228566557454" lon="10.084065032150006"><ele>2.333333333333333</ele><time>2026-05-01T09:36:43.999Z</time></trkpt><trkpt lat="44.032198730900774" lon="10.084336679452571"><ele>2.6666666666666665</ele><time>2026-05-01T09:36:44.999Z</time></trkpt><trkpt lat="44.032108991334546" lon="10.084610162572892"><ele>3.0</ele><time>2026-05-01T09:36:45.999Z</time></trkpt><trkpt lat="44.03201282201831" lon="10.084888306779751"><ele>4.0</ele><time>2026-05-01T09:36:47Z</time></trkpt><trkpt lat="44.031912133298114" lon="10.0851675118305"><ele>5.0</ele><time>2026-05-01T09:36:48Z</time></trkpt><trkpt lat="44.03180694082968" lon="10.085448939126525"><ele>5.0</ele><time>2026-05-01T09:36:49Z</time></trkpt><trkpt lat="44.0316991009761" lon="10.085724584244916"><ele>5.0</ele><time>2026-05-01T09:36:50Z</time></trkpt><trkpt lat="44.031587826777674" lon="10.085997268845068"><ele>3.5</ele><time>2026-05-01T09:36:51Z</time></trkpt><trkpt lat="44.03147036730561" lon="10.086269978075405"><ele>2.0</ele><time>2026-05-01T09:36:52Z</time></trkpt><trkpt lat="44.031350017698465" lon="10.086538601249957"><ele>2.333333333333333</ele><time>2026-05-01T09:36:53Z</time></trkpt><trkpt lat="44.03122984786829" lon="10.086802256303955"><ele>2.6666666666666665</ele><time>2026-05-01T09:36:54Z</time></trkpt><trkpt lat="44.03110904884113" lon="10.087060283533003"><ele>3.0</ele><time>2026-05-01T09:36:55Z</time></trkpt><trkpt lat="44.030985940682655" lon="10.08731269069215"><ele>2.3333333333333335</ele><time>2026-05-01T09:36:56Z</time></trkpt><trkpt lat="44.03086196079723" lon="10.087559107472313"><ele>1.6666666666666665</ele><time>2026-05-01T09:36:57Z</time></trkpt><trkpt lat="44.03073752901172" lon="10.087795427837385"><ele>1.0</ele><time>2026-05-01T09:36:58Z</time></trkpt><trkpt lat="44.03061344560101" lon="10.08802258417163"><ele>1.0</ele><time>2026-05-01T09:36:59Z</time></trkpt><trkpt lat="44.030488844690154" lon="10.088244546755739"><ele>1.0</ele><time>2026-05-01T09:37:00Z</time></trkpt><trkpt lat="44.03036382757485" lon="10.08846296312631"><ele>1.0</ele><time>2026-05-01T09:37:01Z</time></trkpt><trkpt lat="44.030234471014325" lon="10.088680454145404"><ele>1.3333333333333333</ele><time>2026-05-01T09:37:02Z</time></trkpt><trkpt lat="44.03010175279764" lon="10.088896209541902"><ele>1.6666666666666665</ele><time>2026-05-01T09:37:03Z</time></trkpt><trkpt lat="44.02996342726246" lon="10.089113148650716"><ele>2.0</ele><time>2026-05-01T09:37:04Z</time></trkpt><trkpt lat="44.02982005466794" lon="10.089336805916693"><ele>2.6666666666666665</ele><time>2026-05-01T09:37:05Z</time></trkpt><trkpt lat="44.02967477209944" lon="10.089562983027731"><ele>3.333333333333333</ele><time>2026-05-01T09:37:06Z</time></trkpt><trkpt lat="44.02952608259451" lon="10.089792362974073"><ele>4.0</ele><time>2026-05-01T09:37:07Z</time></trkpt><trkpt lat="44.02937554359595" lon="10.090023578188427"><ele>4.5</ele><time>2026-05-01T09:37:08Z</time></trkpt><trkpt lat="44.02922277885618" lon="10.090257344846437"><ele>5.0</ele><time>2026-05-01T09:37:09Z</time></trkpt><trkpt lat="44.02907196109633" lon="10.090488641600665"><ele>5.0</ele><time>2026-05-01T09:37:10Z</time></trkpt><trkpt lat="44.02892215737976" lon="10.090717347313177"><ele>5.0</ele><time>2026-05-01T09:37:11Z</time></trkpt><trkpt lat="44.028772202910936" lon="10.090948246057188"><ele>5.0</ele><time>2026-05-01T09:37:12Z</time></trkpt><trkpt lat="44.02861888728792" lon="10.091184543687497"><ele>5.0</ele><time>2026-05-01T09:37:13Z</time></trkpt><trkpt lat="44.02846207219783" lon="10.091427852621923"><ele>5.0</ele><time>2026-05-01T09:37:14Z</time></trkpt><trkpt lat="44.02830335658542" lon="10.091674178879115"><ele>5.0</ele><time>2026-05-01T09:37:15Z</time></trkpt><trkpt lat="44.028141757220254" lon="10.091922517722402"><ele>5.0</ele><time>2026-05-01T09:37:16Z</time></trkpt><trkpt lat="44.02798089984039" lon="10.092168801768121"><ele>5.0</ele><time>2026-05-01T09:37:17Z</time></trkpt><trkpt lat="44.02782075981027" lon="10.092413995832779"><ele>5.0</ele><time>2026-05-01T09:37:18Z</time></trkpt><trkpt lat="44.027661386529346" lon="10.092658101530946"><ele>5.5</ele><time>2026-05-01T09:37:19Z</time></trkpt><trkpt lat="44.027502227273295" lon="10.09290368219472"><ele>6.0</ele><time>2026-05-01T09:37:20Z</time></trkpt><trkpt lat="44.02734174262868" lon="10.093150507592949"><ele>4.5</ele><time>2026-05-01T09:37:21Z</time></trkpt><trkpt lat="44.027179141280726" lon="10.093400439819948"><ele>3.0</ele><time>2026-05-01T09:37:22Z</time></trkpt><trkpt lat="44.02701375726797" lon="10.093653153414033"><ele>3.0</ele><time>2026-05-01T09:37:23Z</time></trkpt><trkpt lat="44.02684968641743" lon="10.093907547355515"><ele>3.0</ele><time>2026-05-01T09:37:24Z</time></trkpt><trkpt lat="44.02668365203785" lon="10.094163803553405"><ele>3.0</ele><time>2026-05-01T09:37:25Z</time></trkpt><trkpt lat="44.02651675440186" lon="10.09441891111577"><ele>3.0</ele><time>2026-05-01T09:37:26Z</time></trkpt><trkpt lat="44.02634812364408" lon="10.09467640030796"><ele>3.5</ele><time>2026-05-01T09:37:27Z</time></trkpt><trkpt lat="44.02617891886316" lon="10.094936793260866"><ele>4.0</ele><time>2026-05-01T09:37:28Z</time></trkpt><trkpt lat="44.02600737331513" lon="10.095199133343161"><ele>4.0</ele><time>2026-05-01T09:37:29Z</time></trkpt><trkpt lat="44.02583379723369" lon="10.095462602065988"><ele>4.0</ele><time>2026-05-01T09:37:30Z</time></trkpt><trkpt lat="44.02565961358913" lon="10.095724620457279"><ele>3.0</ele><time>2026-05-01T09:37:31Z</time></trkpt><trkpt lat="44.02549208309397" lon="10.095976050769186"><ele>2.0</ele><time>2026-05-01T09:37:32Z</time></trkpt><trkpt lat="44.02533115155785" lon="10.096221670279613"><ele>2.0</ele><time>2026-05-01T09:37:33Z</time></trkpt><trkpt lat="44.025175968339035" lon="10.096459337908776"><ele>2.0</ele><time>2026-05-01T09:37:34Z</time></trkpt><trkpt lat="44.025024392317476" lon="10.096688083970493"><ele>2.0</ele><time>2026-05-01T09:37:35Z</time></trkpt><trkpt lat="44.024874664722425" lon="10.096918363414362"><ele>2.0</ele><time>2026-05-01T09:37:36Z</time></trkpt><trkpt lat="44.02472638074543" lon="10.097147184103132"><ele>2.0</ele><time>2026-05-01T09:37:37Z</time></trkpt><trkpt lat="44.02457867504544" lon="10.097372626108474"><ele>2.0</ele><time>2026-05-01T09:37:38Z</time></trkpt><trkpt lat="44.024429511754164" lon="10.097603198605096"><ele>2.0</ele><time>2026-05-01T09:37:39Z</time></trkpt><trkpt lat="44.02428011947536" lon="10.097839930910332"><ele>2.0</ele><time>2026-05-01T09:37:40Z</time></trkpt><trkpt lat="44.0241289435785" lon="10.098082306143091"><ele>3.0</ele><time>2026-05-01T09:37:41Z</time></trkpt><trkpt lat="44.02397813910148" lon="10.098328948135672"><ele>4.0</ele><time>2026-05-01T09:37:42Z</time></trkpt><trkpt lat="44.02382960968385" lon="10.098582922567589"><ele>4.0</ele><time>2026-05-01T09:37:43Z</time></trkpt><trkpt lat="44.02368460402685" lon="10.098844756842329"><ele>4.0</ele><time>2026-05-01T09:37:44Z</time></trkpt><trkpt lat="44.02354263019851" lon="10.099106454025911"><ele>4.0</ele><time>2026-05-01T09:37:45Z</time></trkpt><trkpt lat="44.02340395376296" lon="10.099370917688375"><ele>4.0</ele><time>2026-05-01T09:37:46Z</time></trkpt><trkpt lat="44.023270100268114" lon="10.099642142362384"><ele>3.0</ele><time>2026-05-01T09:37:47Z</time></trkpt><trkpt lat="44.02313445554814" lon="10.099923540987799"><ele>2.0</ele><time>2026-05-01T09:37:48Z</time></trkpt><trkpt lat="44.02300251014362" lon="10.100207482797542"><ele>2.0</ele><time>2026-05-01T09:37:49Z</time></trkpt><trkpt lat="44.022874766931515" lon="10.100497654317396"><ele>2.0</ele><time>2026-05-01T09:37:50Z</time></trkpt><trkpt lat="44.022749114888576" lon="10.10078930198768"><ele>2.0</ele><time>2026-05-01T09:37:51Z</time></trkpt><trkpt lat="44.02262643884076" lon="10.101084221430538"><ele>2.0</ele><time>2026-05-01T09:37:52Z</time></trkpt><trkpt lat="44.02250827150927" lon="10.101380773045598"><ele>2.5</ele><time>2026-05-01T09:37:53Z</time></trkpt><trkpt lat="44.02239603457526" lon="10.101678662475617"><ele>3.0</ele><time>2026-05-01T09:37:54Z</time></trkpt><trkpt lat="44.02228905466933" lon="10.101971160347148"><ele>3.0</ele><time>2026-05-01T09:37:55Z</time></trkpt><trkpt lat="44.02218549112812" lon="10.102267123393105"><ele>3.0</ele><time>2026-05-01T09:37:56Z</time></trkpt><trkpt lat="44.02208668884308" lon="10.102567648619647"><ele>2.5</ele><time>2026-05-01T09:37:57Z</time></trkpt><trkpt lat="44.02199056581895" lon="10.102867150167508"><ele>2.0</ele><time>2026-05-01T09:37:58Z</time></trkpt><trkpt lat="44.021895941033115" lon="10.103172929662666"><ele>2.5</ele><time>2026-05-01T09:37:59Z</time></trkpt><trkpt lat="44.021801387346684" lon="10.103491859842144"><ele>3.0</ele><time>2026-05-01T09:38:00Z</time></trkpt><trkpt lat="44.021705512730954" lon="10.10382130294101"><ele>2.5</ele><time>2026-05-01T09:38:01Z</time></trkpt><trkpt lat="44.02161353395083" lon="10.10415954693145"><ele>2.0</ele><time>2026-05-01T09:38:02Z</time></trkpt><trkpt lat="44.021529916669344" lon="10.104504472071637"><ele>2.0</ele><time>2026-05-01T09:38:03Z</time></trkpt><trkpt lat="44.02145538208677" lon="10.104847118720766"><ele>2.0</ele><time>2026-05-01T09:38:04Z</time></trkpt><trkpt lat="44.021380425447404" lon="10.105191825217103"><ele>3.0</ele><time>2026-05-01T09:38:05Z</time></trkpt><trkpt lat="44.021304003834814" lon="10.105540314758336"><ele>4.0</ele><time>2026-05-01T09:38:06Z</time></trkpt><trkpt lat="44.02122411653394" lon="10.105892317609694"><ele>4.0</ele><time>2026-05-01T09:38:07Z</time></trkpt><trkpt lat="44.02114362558254" lon="10.106242709300366"><ele>4.0</ele><time>2026-05-01T09:38:08Z</time></trkpt><trkpt lat="44.02106617412412" lon="10.1065906551515"><ele>4.0</ele><time>2026-05-01T09:38:09Z</time></trkpt><trkpt lat="44.020984843290165" lon="10.106948264070176"><ele>4.0</ele><time>2026-05-01T09:38:10Z</time></trkpt><trkpt lat="44.020903460091255" lon="10.107315655010433"><ele>4.0</ele><time>2026-05-01T09:38:11Z</time></trkpt><trkpt lat="44.020824647291384" lon="10.107686074204167"><ele>4.0</ele><time>2026-05-01T09:38:11.999Z</time></trkpt><trkpt lat="44.02074837345758" lon="10.108051398918397"><ele>4.0</ele><time>2026-05-01T09:38:12.999Z</time></trkpt><trkpt lat="44.020675038053355" lon="10.108412364655672"><ele>4.0</ele><time>2026-05-01T09:38:13.999Z</time></trkpt><trkpt lat="44.02060312033309" lon="10.108766439074893"><ele>4.0</ele><time>2026-05-01T09:38:14.999Z</time></trkpt><trkpt lat="44.02053023948922" lon="10.10911003318557"><ele>4.0</ele><time>2026-05-01T09:38:15.999Z</time></trkpt><trkpt lat="44.0204559551352" lon="10.109447117462755"><ele>4.0</ele><time>2026-05-01T09:38:16.999Z</time></trkpt><trkpt lat="44.02038363245813" lon="10.10977480623286"><ele>4.0</ele><time>2026-05-01T09:38:17.999Z</time></trkpt><trkpt lat="44.02031292021545" lon="10.1100955611403"><ele>3.5</ele><time>2026-05-01T09:38:18.999Z</time></trkpt><trkpt lat="44.02023947421425" lon="10.110420542779778"><ele>3.0</ele><time>2026-05-01T09:38:19.999Z</time></trkpt><trkpt lat="44.02016476785096" lon="10.110750273713741"><ele>3.0</ele><time>2026-05-01T09:38:20.999Z</time></trkpt><trkpt lat="44.02008936398259" lon="10.111079873574917"><ele>3.0</ele><time>2026-05-01T09:38:21.999Z</time></trkpt><trkpt lat="44.02000811312182" lon="10.111410890011532"><ele>3.0</ele><time>2026-05-01T09:38:22.999Z</time></trkpt><trkpt lat="44.01991642416107" lon="10.1117501448664"><ele>3.0</ele><time>2026-05-01T09:38:23.999Z</time></trkpt><trkpt lat="44.01980822146746" lon="10.112112269127538"><ele>4.0</ele><time>2026-05-01T09:38:24.999Z</time></trkpt><trkpt lat="44.01969022526243" lon="10.11248673831166"><ele>5.0</ele><time>2026-05-01T09:38:25.999Z</time></trkpt><trkpt lat="44.01956438696939" lon="10.112882290878426"><ele>5.5</ele><time>2026-05-01T09:38:26.999Z</time></trkpt><trkpt lat="44.01944005215957" lon="10.113272986084688"><ele>6.0</ele><time>2026-05-01T09:38:27.999Z</time></trkpt><trkpt lat="44.01931193459881" lon="10.113651840103405"><ele>6.0</ele><time>2026-05-01T09:38:28.999Z</time></trkpt><trkpt lat="44.01917913047146" lon="10.114017006119838"><ele>6.0</ele><time>2026-05-01T09:38:29.999Z</time></trkpt><trkpt lat="44.01904127816451" lon="10.11436739528404"><ele>6.0</ele><time>2026-05-01T09:38:30.999Z</time></trkpt><trkpt lat="44.01890252676847" lon="10.1147061429565"><ele>6.0</ele><time>2026-05-01T09:38:31.999Z</time></trkpt><trkpt lat="44.01876290604014" lon="10.115029309980116"><ele>6.0</ele><time>2026-05-01T09:38:32.999Z</time></trkpt><trkpt lat="44.018621400422155" lon="10.115339118439229"><ele>6.0</ele><time>2026-05-01T09:38:33.999Z</time></trkpt><trkpt lat="44.01847830045942" lon="10.115637175830223"><ele>6.5</ele><time>2026-05-01T09:38:34.999Z</time></trkpt><trkpt lat="44.018335310424554" lon="10.115928402630761"><ele>7.0</ele><time>2026-05-01T09:38:35.999Z</time></trkpt><trkpt lat="44.01819033256774" lon="10.116219258992812"><ele>7.0</ele><time>2026-05-01T09:38:36.999Z</time></trkpt><trkpt lat="44.01804466213443" lon="10.116507635746428"><ele>7.0</ele><time>2026-05-01T09:38:37.999Z</time></trkpt><trkpt lat="44.01790002727977" lon="10.116795207292139"><ele>7.0</ele><time>2026-05-01T09:38:38.999Z</time></trkpt><trkpt lat="44.01775484695185" lon="10.117083315857426"><ele>7.0</ele><time>2026-05-01T09:38:39.999Z</time></trkpt><trkpt lat="44.017607842157" lon="10.117372096258514"><ele>7.0</ele><time>2026-05-01T09:38:40.999Z</time></trkpt><trkpt lat="44.01745766411339" lon="10.1176656214665"><ele>7.0</ele><time>2026-05-01T09:38:41.999Z</time></trkpt><trkpt lat="44.017306274479054" lon="10.117965743273928"><ele>6.5</ele><time>2026-05-01T09:38:42.999Z</time></trkpt><trkpt lat="44.01715540745659" lon="10.11826892206261"><ele>6.0</ele><time>2026-05-01T09:38:43.999Z</time></trkpt><trkpt lat="44.01700660826395" lon="10.118564446609554"><ele>6.0</ele><time>2026-05-01T09:38:44.999Z</time></trkpt><trkpt lat="44.01685950087812" lon="10.118857365366214"><ele>6.0</ele><time>2026-05-01T09:38:45.999Z</time></trkpt><trkpt lat="44.01671119607698" lon="10.119151539333313"><ele>7.5</ele><time>2026-05-01T09:38:46.999Z</time></trkpt><trkpt lat="44.016561585606894" lon="10.119452221266522"><ele>9.0</ele><time>2026-05-01T09:38:47.999Z</time></trkpt><trkpt lat="44.01641062385906" lon="10.119756323371119"><ele>8.0</ele><time>2026-05-01T09:38:48.999Z</time></trkpt><trkpt lat="44.016255671472074" lon="10.120063770318602"><ele>7.0</ele><time>2026-05-01T09:38:49.999Z</time></trkpt><trkpt lat="44.01609858075021" lon="10.120372743273123"><ele>7.0</ele><time>2026-05-01T09:38:50.999Z</time></trkpt><trkpt lat="44.01593821193615" lon="10.120690128630244"><ele>7.0</ele><time>2026-05-01T09:38:51.999Z</time></trkpt><trkpt lat="44.01577498869386" lon="10.121017117134757"><ele>5.0</ele><time>2026-05-01T09:38:53Z</time></trkpt><trkpt lat="44.01560965105019" lon="10.121348313608166"><ele>3.0</ele><time>2026-05-01T09:38:54Z</time></trkpt><trkpt lat="44.015440200303765" lon="10.121687392043338"><ele>3.0</ele><time>2026-05-01T09:38:55Z</time></trkpt><trkpt lat="44.01526715421298" lon="10.122034088277914"><ele>3.0</ele><time>2026-05-01T09:38:56Z</time></trkpt><trkpt lat="44.0150920651474" lon="10.122382004962548"><ele>2.5</ele><time>2026-05-01T09:38:57Z</time></trkpt><trkpt lat="44.01491840236161" lon="10.122725750384317"><ele>2.0</ele><time>2026-05-01T09:38:58Z</time></trkpt><trkpt lat="44.01474236152804" lon="10.12307606030805"><ele>2.5</ele><time>2026-05-01T09:38:59Z</time></trkpt><trkpt lat="44.0145661504321" lon="10.123425536797201"><ele>3.0</ele><time>2026-05-01T09:39:00Z</time></trkpt><trkpt lat="44.01438825834575" lon="10.123776865697398"><ele>3.5</ele><time>2026-05-01T09:39:01Z</time></trkpt><trkpt lat="44.01420877709701" lon="10.12412997103448"><ele>4.0</ele><time>2026-05-01T09:39:02Z</time></trkpt><trkpt lat="44.01403120706633" lon="10.124480130117883"><ele>3.0</ele><time>2026-05-01T09:39:03Z</time></trkpt><trkpt lat="44.01385599298646" lon="10.124829749671495"><ele>2.0</ele><time>2026-05-01T09:39:04Z</time></trkpt><trkpt lat="44.01367906216479" lon="10.125181741880192"><ele>2.0</ele><time>2026-05-01T09:39:05Z</time></trkpt><trkpt lat="44.0135013169184" lon="10.125534848649536"><ele>2.0</ele><time>2026-05-01T09:39:06Z</time></trkpt><trkpt lat="44.013326581009494" lon="10.12588232894995"><ele>2.0</ele><time>2026-05-01T09:39:07Z</time></trkpt><trkpt lat="44.01315558918358" lon="10.126222927444866"><ele>2.0</ele><time>2026-05-01T09:39:08Z</time></trkpt><trkpt lat="44.012988439685664" lon="10.126552164793932"><ele>2.5</ele><time>2026-05-01T09:39:09Z</time></trkpt><trkpt lat="44.01282576510778" lon="10.126869642224325"><ele>3.0</ele><time>2026-05-01T09:39:10Z</time></trkpt><trkpt lat="44.01266661744913" lon="10.127177669976513"><ele>2.0</ele><time>2026-05-01T09:39:11Z</time></trkpt><trkpt lat="44.01250223489768" lon="10.127487373374628"><ele>1.0</ele><time>2026-05-01T09:39:12Z</time></trkpt><trkpt lat="44.012328771717236" lon="10.127798539043788"><ele>1.0</ele><time>2026-05-01T09:39:13Z</time></trkpt><trkpt lat="44.01214695483545" lon="10.1281111688628"><ele>1.0</ele><time>2026-05-01T09:39:14Z</time></trkpt><trkpt lat="44.01196500187166" lon="10.128418529793"><ele>2.0</ele><time>2026-05-01T09:39:15Z</time></trkpt><trkpt lat="44.01177836576503" lon="10.128722298621398"><ele>3.0</ele><time>2026-05-01T09:39:16Z</time></trkpt><trkpt lat="44.01159077286286" lon="10.12901410203699"><ele>3.5</ele><time>2026-05-01T09:39:17Z</time></trkpt><trkpt lat="44.011403099288344" lon="10.12929846532182"><ele>4.0</ele><time>2026-05-01T09:39:18Z</time></trkpt><trkpt lat="44.01121463689747" lon="10.129581935839315"><ele>4.0</ele><time>2026-05-01T09:39:19Z</time></trkpt><trkpt lat="44.01102196302679" lon="10.129864529417356"><ele>4.0</ele><time>2026-05-01T09:39:20Z</time></trkpt><trkpt lat="44.010828254655856" lon="10.130145604193093"><ele>3.5</ele><time>2026-05-01T09:39:21Z</time></trkpt><trkpt lat="44.01063451438137" lon="10.130425663141633"><ele>3.0</ele><time>2026-05-01T09:39:22Z</time></trkpt><trkpt lat="44.010437818489216" lon="10.130710246306991"><ele>3.5</ele><time>2026-05-01T09:39:23Z</time></trkpt><trkpt lat="44.01023866682476" lon="10.13099786933884"><ele>4.0</ele><time>2026-05-01T09:39:24Z</time></trkpt><trkpt lat="44.01003700502395" lon="10.131287570828633"><ele>3.0</ele><time>2026-05-01T09:39:25Z</time></trkpt><trkpt lat="44.00983609438177" lon="10.131578378614563"><ele>2.0</ele><time>2026-05-01T09:39:26Z</time></trkpt><trkpt lat="44.009633132577804" lon="10.131871792494655"><ele>2.0</ele><time>2026-05-01T09:39:27Z</time></trkpt><trkpt lat="44.00943281263271" lon="10.132162922252693"><ele>2.0</ele><time>2026-05-01T09:39:28Z</time></trkpt><trkpt lat="44.00923238421028" lon="10.132449020367392"><ele>2.0</ele><time>2026-05-01T09:39:29Z</time></trkpt><trkpt lat="44.00903056163158" lon="10.132738298094537"><ele>2.0</ele><time>2026-05-01T09:39:30Z</time></trkpt><trkpt lat="44.00882660305349" lon="10.133031313458869"><ele>2.0</ele><time>2026-05-01T09:39:31Z</time></trkpt><trkpt lat="44.00862338465523" lon="10.133327731058861"><ele>2.0</ele><time>2026-05-01T09:39:32Z</time></trkpt><trkpt lat="44.00841415426722" lon="10.133627637164759"><ele>2.0</ele><time>2026-05-01T09:39:33Z</time></trkpt><trkpt lat="44.00820368777486" lon="10.133930812963545"><ele>2.0</ele><time>2026-05-01T09:39:34Z</time></trkpt><trkpt lat="44.007991341309975" lon="10.134238207267781"><ele>2.5</ele><time>2026-05-01T09:39:35Z</time></trkpt><trkpt lat="44.007776144971274" lon="10.134548391604792"><ele>3.0</ele><time>2026-05-01T09:39:36Z</time></trkpt><trkpt lat="44.007559906082825" lon="10.13486263536627"><ele>2.5</ele><time>2026-05-01T09:39:37Z</time></trkpt><trkpt lat="44.007341454019695" lon="10.13517829440208"><ele>2.0</ele><time>2026-05-01T09:39:38Z</time></trkpt><trkpt lat="44.007118270462506" lon="10.135498586183939"><ele>2.0</ele><time>2026-05-01T09:39:39Z</time></trkpt><trkpt lat="44.006893304959654" lon="10.135820931096134"><ele>2.0</ele><time>2026-05-01T09:39:40Z</time></trkpt><trkpt lat="44.006666931633724" lon="10.136148041075401"><ele>1.5</ele><time>2026-05-01T09:39:41Z</time></trkpt><trkpt lat="44.006439314957184" lon="10.136478072143307"><ele>1.0</ele><time>2026-05-01T09:39:42Z</time></trkpt><trkpt lat="44.006210139647926" lon="10.136807567676213"><ele>2.0</ele><time>2026-05-01T09:39:43Z</time></trkpt><trkpt lat="44.00597841324521" lon="10.137140567031734"><ele>3.0</ele><time>2026-05-01T09:39:44Z</time></trkpt><trkpt lat="44.00574677840357" lon="10.137474296256196"><ele>3.0</ele><time>2026-05-01T09:39:45Z</time></trkpt><trkpt lat="44.00551573118245" lon="10.137808462708366"><ele>3.0</ele><time>2026-05-01T09:39:46Z</time></trkpt><trkpt lat="44.005286066050324" lon="10.138143474475303"><ele>3.0</ele><time>2026-05-01T09:39:47Z</time></trkpt><trkpt lat="44.005054015092135" lon="10.138479223921749"><ele>3.0</ele><time>2026-05-01T09:39:48Z</time></trkpt><trkpt lat="44.00482353593377" lon="10.138814021357991"><ele>1.5</ele><time>2026-05-01T09:39:49Z</time></trkpt><trkpt lat="44.004593468786894" lon="10.139147483796325"><ele>0.0</ele><time>2026-05-01T09:39:50Z</time></trkpt><trkpt lat="44.00436504134113" lon="10.139480004391569"><ele>0.0</ele><time>2026-05-01T09:39:51Z</time></trkpt><trkpt lat="44.0041329738592" lon="10.139815622236641"><ele>0.0</ele><time>2026-05-01T09:39:52Z</time></trkpt><trkpt lat="44.00390159889303" lon="10.140151540829917"><ele>1.5</ele><time>2026-05-01T09:39:53Z</time></trkpt><trkpt lat="44.00366823321813" lon="10.140490052493874"><ele>3.0</ele><time>2026-05-01T09:39:54Z</time></trkpt><trkpt lat="44.00343426049858" lon="10.14083026196048"><ele>2.5</ele><time>2026-05-01T09:39:55Z</time></trkpt><trkpt lat="44.0031986339699" lon="10.141171144985021"><ele>2.0</ele><time>2026-05-01T09:39:56Z</time></trkpt><trkpt lat="44.00296466862356" lon="10.141513463923788"><ele>2.0</ele><time>2026-05-01T09:39:57Z</time></trkpt><trkpt lat="44.00272874521809" lon="10.141857208724893"><ele>2.0</ele><time>2026-05-01T09:39:58Z</time></trkpt><trkpt lat="44.00248931225832" lon="10.142201554319364"><ele>1.5</ele><time>2026-05-01T09:39:59Z</time></trkpt><trkpt lat="44.00224826862144" lon="10.142543436350028"><ele>1.0</ele><time>2026-05-01T09:40:00Z</time></trkpt><trkpt lat="44.00200493378553" lon="10.142882514478515"><ele>1.5</ele><time>2026-05-01T09:40:01Z</time></trkpt><trkpt lat="44.001756180322865" lon="10.143217630094812"><ele>2.0</ele><time>2026-05-01T09:40:02Z</time></trkpt><trkpt lat="44.00149835814793" lon="10.143538832693643"><ele>2.0</ele><time>2026-05-01T09:40:03Z</time></trkpt><trkpt lat="44.001237756735684" lon="10.143845698657163"><ele>2.0</ele><time>2026-05-01T09:40:04Z</time></trkpt><trkpt lat="44.00097334315921" lon="10.144143615742014"><ele>2.0</ele><time>2026-05-01T09:40:05Z</time></trkpt><trkpt lat="44.00070688110556" lon="10.144432921559204"><ele>2.0</ele><time>2026-05-01T09:40:06Z</time></trkpt><trkpt lat="44.000431941430485" lon="10.144714973956003"><ele>2.5</ele><time>2026-05-01T09:40:07Z</time></trkpt><trkpt lat="44.00015233773724" lon="10.144985341890859"><ele>3.0</ele><time>2026-05-01T09:40:08Z</time></trkpt><trkpt lat="43.99986891008934" lon="10.14524978355764"><ele>3.0</ele><time>2026-05-01T09:40:09Z</time></trkpt><trkpt lat="43.999577970556956" lon="10.145503212485757"><ele>3.0</ele><time>2026-05-01T09:40:10Z</time></trkpt><trkpt lat="43.99928316692489" lon="10.145745781311613"><ele>3.0</ele><time>2026-05-01T09:40:11Z</time></trkpt><trkpt lat="43.998982310013986" lon="10.145978590556759"><ele>3.0</ele><time>2026-05-01T09:40:12Z</time></trkpt><trkpt lat="43.9986743952495" lon="10.146201524082732"><ele>3.0</ele><time>2026-05-01T09:40:13Z</time></trkpt><trkpt lat="43.998361645993775" lon="10.146413212164944"><ele>3.0</ele><time>2026-05-01T09:40:14Z</time></trkpt><trkpt lat="43.99804374723321" lon="10.146618641921581"><ele>3.0</ele><time>2026-05-01T09:40:15Z</time></trkpt><trkpt lat="43.99771776003575" lon="10.146822968997107"><ele>3.0</ele><time>2026-05-01T09:40:16Z</time></trkpt><trkpt lat="43.997378363283836" lon="10.147030259472245"><ele>3.0</ele><time>2026-05-01T09:40:17Z</time></trkpt><trkpt lat="43.99702209969359" lon="10.147241284962634"><ele>3.0</ele><time>2026-05-01T09:40:18Z</time></trkpt><trkpt lat="43.99666248329133" lon="10.147462093424574"><ele>3.0</ele><time>2026-05-01T09:40:19Z</time></trkpt><trkpt lat="43.996303343624966" lon="10.147699566523363"><ele>3.0</ele><time>2026-05-01T09:40:20Z</time></trkpt><trkpt lat="43.995951374720555" lon="10.147942536857332"><ele>3.0</ele><time>2026-05-01T09:40:20.999Z</time></trkpt><trkpt lat="43.9956023467904" lon="10.148177571628374"><ele>3.0</ele><time>2026-05-01T09:40:21.999Z</time></trkpt><trkpt lat="43.99525965934547" lon="10.148401371851422"><ele>3.5</ele><time>2026-05-01T09:40:22.999Z</time></trkpt><trkpt lat="43.99492083044137" lon="10.148623259247433"><ele>4.0</ele><time>2026-05-01T09:40:23.999Z</time></trkpt><trkpt lat="43.9945827239133" lon="10.148844610109931"><ele>4.0</ele><time>2026-05-01T09:40:24.999Z</time></trkpt><trkpt lat="43.99424976558397" lon="10.149060331360994"><ele>4.0</ele><time>2026-05-01T09:40:25.999Z</time></trkpt><trkpt lat="43.9939264727119" lon="10.149274891905511"><ele>4.5</ele><time>2026-05-01T09:40:26.999Z</time></trkpt><trkpt lat="43.99360816745639" lon="10.149498159679784"><ele>5.0</ele><time>2026-05-01T09:40:27.999Z</time></trkpt><trkpt lat="43.99329227004887" lon="10.149743597139405"><ele>4.5</ele><time>2026-05-01T09:40:28.999Z</time></trkpt><trkpt lat="43.99297240503907" lon="10.150005953946849"><ele>4.0</ele><time>2026-05-01T09:40:29.999Z</time></trkpt><trkpt lat="43.992649805461376" lon="10.15028255060503"><ele>4.0</ele><time>2026-05-01T09:40:30.999Z</time></trkpt><trkpt lat="43.99232731254975" lon="10.150575678004378"><ele>4.0</ele><time>2026-05-01T09:40:31.999Z</time></trkpt><trkpt lat="43.99201256089792" lon="10.150879833893933"><ele>4.0</ele><time>2026-05-01T09:40:32.999Z</time></trkpt><trkpt lat="43.991707327276586" lon="10.151195556019292"><ele>4.0</ele><time>2026-05-01T09:40:33.999Z</time></trkpt><trkpt lat="43.991414232923255" lon="10.15151865911633"><ele>4.0</ele><time>2026-05-01T09:40:34.999Z</time></trkpt><trkpt lat="43.99113475044948" lon="10.15184227121784"><ele>4.0</ele><time>2026-05-01T09:40:35.999Z</time></trkpt><trkpt lat="43.990868573947466" lon="10.152165504207968"><ele>4.0</ele><time>2026-05-01T09:40:36.999Z</time></trkpt><trkpt lat="43.990613889646056" lon="10.152490496698965"><ele>4.0</ele><time>2026-05-01T09:40:37.999Z</time></trkpt><trkpt lat="43.9903729315291" lon="10.152814309632943"><ele>4.0</ele><time>2026-05-01T09:40:38.999Z</time></trkpt><trkpt lat="43.99014229005558" lon="10.153140700085553"><ele>4.0</ele><time>2026-05-01T09:40:39.999Z</time></trkpt><trkpt lat="43.98991680852697" lon="10.153469301053642"><ele>3.0</ele><time>2026-05-01T09:40:40.999Z</time></trkpt><trkpt lat="43.98969928217161" lon="10.153783374627631"><ele>2.0</ele><time>2026-05-01T09:40:41.999Z</time></trkpt><trkpt lat="43.9894865415616" lon="10.154090087211804"><ele>2.0</ele><time>2026-05-01T09:40:42.999Z</time></trkpt><trkpt lat="43.98927445109774" lon="10.154395757736092"><ele>2.0</ele><time>2026-05-01T09:40:43.999Z</time></trkpt><trkpt lat="43.98905977237514" lon="10.154704547286512"><ele>1.5</ele><time>2026-05-01T09:40:44.999Z</time></trkpt><trkpt lat="43.98884132585546" lon="10.155018535147736"><ele>1.0</ele><time>2026-05-01T09:40:45.999Z</time></trkpt><trkpt lat="43.9886236904869" lon="10.155334065974582"><ele>1.0</ele><time>2026-05-01T09:40:46.999Z</time></trkpt><trkpt lat="43.98840857204696" lon="10.155643474183675"><ele>1.0</ele><time>2026-05-01T09:40:47.999Z</time></trkpt><trkpt lat="43.98819222576571" lon="10.155954954721864"><ele>1.0</ele><time>2026-05-01T09:40:48.999Z</time></trkpt><trkpt lat="43.98797777851736" lon="10.156265283532099"><ele>1.0</ele><time>2026-05-01T09:40:49.999Z</time></trkpt><trkpt lat="43.987765961478175" lon="10.156570943288152"><ele>1.0</ele><time>2026-05-01T09:40:50.999Z</time></trkpt><trkpt lat="43.987555774842555" lon="10.156876112432679"><ele>1.0</ele><time>2026-05-01T09:40:51.999Z</time></trkpt><trkpt lat="43.98734622558261" lon="10.157180675099044"><ele>0.5</ele><time>2026-05-01T09:40:52.999Z</time></trkpt><trkpt lat="43.98713647210999" lon="10.157484035157605"><ele>0.0</ele><time>2026-05-01T09:40:53.999Z</time></trkpt><trkpt lat="43.98692682439531" lon="10.157785663703631"><ele>0.0</ele><time>2026-05-01T09:40:54.999Z</time></trkpt><trkpt lat="43.98671639160503" lon="10.158088894547806"><ele>0.0</ele><time>2026-05-01T09:40:55.999Z</time></trkpt><trkpt lat="43.986508057199956" lon="10.158394761788971"><ele>0.5</ele><time>2026-05-01T09:40:56.999Z</time></trkpt><trkpt lat="43.98629870049392" lon="10.158698359687856"><ele>1.0</ele><time>2026-05-01T09:40:57.999Z</time></trkpt><trkpt lat="43.986088989816146" lon="10.158998760482952"><ele>1.0</ele><time>2026-05-01T09:40:59Z</time></trkpt><trkpt lat="43.985877249105336" lon="10.159299871878487"><ele>1.0</ele><time>2026-05-01T09:41:00Z</time></trkpt><trkpt lat="43.98566328416375" lon="10.159606225016221"><ele>0.5</ele><time>2026-05-01T09:41:01Z</time></trkpt><trkpt lat="43.985448584903374" lon="10.159912759490373"><ele>0.0</ele><time>2026-05-01T09:41:02Z</time></trkpt><trkpt lat="43.9852349450348" lon="10.160221065753205"><ele>0.0</ele><time>2026-05-01T09:41:03Z</time></trkpt><trkpt lat="43.985019278417845" lon="10.160530618733366"><ele>0.0</ele><time>2026-05-01T09:41:04Z</time></trkpt><trkpt lat="43.98480328900653" lon="10.160841872460512"><ele>0.0</ele><time>2026-05-01T09:41:05Z</time></trkpt><trkpt lat="43.98458786310984" lon="10.16115326220172"><ele>0.0</ele><time>2026-05-01T09:41:06Z</time></trkpt><trkpt lat="43.984371560505586" lon="10.161466026290046"><ele>1.0</ele><time>2026-05-01T09:41:07Z</time></trkpt><trkpt lat="43.98415510091298" lon="10.161780018077616"><ele>2.0</ele><time>2026-05-01T09:41:08Z</time></trkpt><trkpt lat="43.983937681765816" lon="10.162097112943288"><ele>2.0</ele><time>2026-05-01T09:41:09Z</time></trkpt><trkpt lat="43.983721006082156" lon="10.162416251147157"><ele>2.0</ele><time>2026-05-01T09:41:10Z</time></trkpt><trkpt lat="43.983504474651035" lon="10.162731356268509"><ele>2.0</ele><time>2026-05-01T09:41:11Z</time></trkpt><trkpt lat="43.9832856987894" lon="10.163048559204537"><ele>2.0</ele><time>2026-05-01T09:41:12Z</time></trkpt><trkpt lat="43.98306534892839" lon="10.163365027923897"><ele>2.0</ele><time>2026-05-01T09:41:13Z</time></trkpt><trkpt lat="43.98284326410558" lon="10.163683566132335"><ele>2.0</ele><time>2026-05-01T09:41:14Z</time></trkpt><trkpt lat="43.98262364313125" lon="10.163999207296525"><ele>3.5</ele><time>2026-05-01T09:41:15Z</time></trkpt><trkpt lat="43.982408174195726" lon="10.164313115283017"><ele>5.0</ele><time>2026-05-01T09:41:16Z</time></trkpt><trkpt lat="43.982193024825726" lon="10.164626815315541"><ele>4.0</ele><time>2026-05-01T09:41:17Z</time></trkpt><trkpt lat="43.98197491880876" lon="10.164943330986283"><ele>3.0</ele><time>2026-05-01T09:41:18Z</time></trkpt><trkpt lat="43.98175640596603" lon="10.165257612742751"><ele>3.5</ele><time>2026-05-01T09:41:19Z</time></trkpt><trkpt lat="43.98153383378221" lon="10.165575790353184"><ele>4.0</ele><time>2026-05-01T09:41:20Z</time></trkpt><trkpt lat="43.981312543236484" lon="10.165895301989531"><ele>4.0</ele><time>2026-05-01T09:41:21Z</time></trkpt><trkpt lat="43.981094260790044" lon="10.166207525139168"><ele>4.0</ele><time>2026-05-01T09:41:22Z</time></trkpt><trkpt lat="43.980880316891536" lon="10.166513899628184"><ele>3.5</ele><time>2026-05-01T09:41:23Z</time></trkpt><trkpt lat="43.98067101399258" lon="10.16681876641427"><ele>3.0</ele><time>2026-05-01T09:41:24Z</time></trkpt><trkpt lat="43.98046020595924" lon="10.167126276499166"><ele>4.0</ele><time>2026-05-01T09:41:25Z</time></trkpt><trkpt lat="43.980247486502655" lon="10.167431436498044"><ele>5.0</ele><time>2026-05-01T09:41:26Z</time></trkpt><trkpt lat="43.98003571265802" lon="10.167736389171498"><ele>3.5</ele><time>2026-05-01T09:41:27Z</time></trkpt><trkpt lat="43.97982127094511" lon="10.168044605185914"><ele>2.0</ele><time>2026-05-01T09:41:28Z</time></trkpt><trkpt lat="43.9796052533255" lon="10.168354439664634"><ele>2.0</ele><time>2026-05-01T09:41:29Z</time></trkpt><trkpt lat="43.97939084221806" lon="10.168663387212472"><ele>2.0</ele><time>2026-05-01T09:41:30Z</time></trkpt><trkpt lat="43.979173418407925" lon="10.168974935075646"><ele>2.5</ele><time>2026-05-01T09:41:31Z</time></trkpt><trkpt lat="43.97895541226424" lon="10.169288638477514"><ele>3.0</ele><time>2026-05-01T09:41:32Z</time></trkpt><trkpt lat="43.97873644013368" lon="10.169602738857755"><ele>3.5</ele><time>2026-05-01T09:41:33Z</time></trkpt><trkpt lat="43.9785165356443" lon="10.169918328862309"><ele>4.0</ele><time>2026-05-01T09:41:34Z</time></trkpt><trkpt lat="43.97829456733582" lon="10.170238502513056"><ele>4.0</ele><time>2026-05-01T09:41:35Z</time></trkpt><trkpt lat="43.9780691969641" lon="10.170563954051756"><ele>4.0</ele><time>2026-05-01T09:41:36Z</time></trkpt><trkpt lat="43.97783965851672" lon="10.170894362340205"><ele>3.0</ele><time>2026-05-01T09:41:37Z</time></trkpt><trkpt lat="43.97760876701196" lon="10.171224608219127"><ele>2.0</ele><time>2026-05-01T09:41:38Z</time></trkpt><trkpt lat="43.97738002806574" lon="10.17155622405282"><ele>2.0</ele><time>2026-05-01T09:41:39Z</time></trkpt><trkpt lat="43.977149210543026" lon="10.17188933937717"><ele>2.0</ele><time>2026-05-01T09:41:40Z</time></trkpt><trkpt lat="43.97691672490277" lon="10.172224572705602"><ele>1.5</ele><time>2026-05-01T09:41:41Z</time></trkpt><trkpt lat="43.97668628017852" lon="10.172558342990149"><ele>1.0</ele><time>2026-05-01T09:41:42Z</time></trkpt><trkpt lat="43.976456063707815" lon="10.172893152813957"><ele>1.0</ele><time>2026-05-01T09:41:43Z</time></trkpt><trkpt lat="43.97622920654982" lon="10.173225926836226"><ele>1.0</ele><time>2026-05-01T09:41:44Z</time></trkpt><trkpt lat="43.97600496192949" lon="10.173559007411711"><ele>1.5</ele><time>2026-05-01T09:41:45Z</time></trkpt><trkpt lat="43.97578417509561" lon="10.17388909208521"><ele>2.0</ele><time>2026-05-01T09:41:46Z</time></trkpt><trkpt lat="43.9755712574708" lon="10.17421170651986"><ele>2.5</ele><time>2026-05-01T09:41:47Z</time></trkpt><trkpt lat="43.9753653419957" lon="10.174527944184254"><ele>3.0</ele><time>2026-05-01T09:41:48Z</time></trkpt><trkpt lat="43.97516981407854" lon="10.174837984977186"><ele>1.5</ele><time>2026-05-01T09:41:49Z</time></trkpt><trkpt lat="43.97497985978623" lon="10.17514210328404"><ele>0.0</ele><time>2026-05-01T09:41:50Z</time></trkpt><trkpt lat="43.97479274173595" lon="10.175446227528573"><ele>1.0</ele><time>2026-05-01T09:41:51Z</time></trkpt><trkpt lat="43.974606834884426" lon="10.175751334264497"><ele>2.0</ele><time>2026-05-01T09:41:52Z</time></trkpt><trkpt lat="43.974419849896016" lon="10.176066100869917"><ele>2.0</ele><time>2026-05-01T09:41:53Z</time></trkpt><trkpt lat="43.97423290539133" lon="10.17638342538753"><ele>2.0</ele><time>2026-05-01T09:41:54Z</time></trkpt><trkpt lat="43.97404363049081" lon="10.176703019663014"><ele>2.0</ele><time>2026-05-01T09:41:55Z</time></trkpt><trkpt lat="43.97385586052703" lon="10.177024879082255"><ele>2.0</ele><time>2026-05-01T09:41:56Z</time></trkpt><trkpt lat="43.97366964412261" lon="10.177346806412382"><ele>2.5</ele><time>2026-05-01T09:41:57Z</time></trkpt><trkpt lat="43.973482610239834" lon="10.177675910513491"><ele>3.0</ele><time>2026-05-01T09:41:58Z</time></trkpt><trkpt lat="43.97329459347808" lon="10.178005938684436"><ele>3.5</ele><time>2026-05-01T09:41:59Z</time></trkpt><trkpt lat="43.973106536988766" lon="10.178336928275462"><ele>4.0</ele><time>2026-05-01T09:42:00Z</time></trkpt><trkpt lat="43.97291881780988" lon="10.178666525529565"><ele>4.0</ele><time>2026-05-01T09:42:01Z</time></trkpt><trkpt lat="43.97273133345067" lon="10.178997715471715"><ele>4.0</ele><time>2026-05-01T09:42:02Z</time></trkpt><trkpt lat="43.97254125765656" lon="10.179331781375174"><ele>3.5</ele><time>2026-05-01T09:42:03Z</time></trkpt><trkpt lat="43.972352486518375" lon="10.179665941080387"><ele>3.0</ele><time>2026-05-01T09:42:04Z</time></trkpt><trkpt lat="43.97216378974913" lon="10.180003367825154"><ele>4.0</ele><time>2026-05-01T09:42:05Z</time></trkpt><trkpt lat="43.97197564289397" lon="10.180339059174518"><ele>5.0</ele><time>2026-05-01T09:42:06Z</time></trkpt><trkpt lat="43.971784294836766" lon="10.180678640149901"><ele>4.0</ele><time>2026-05-01T09:42:07Z</time></trkpt><trkpt lat="43.971588734134606" lon="10.181022113621605"><ele>3.0</ele><time>2026-05-01T09:42:08Z</time></trkpt><trkpt lat="43.9713938452711" lon="10.181365544422402"><ele>3.5</ele><time>2026-05-01T09:42:09Z</time></trkpt><trkpt lat="43.971199873149196" lon="10.181705718355975"><ele>4.0</ele><time>2026-05-01T09:42:10Z</time></trkpt><trkpt lat="43.9710098615869" lon="10.182039317817287"><ele>5.0</ele><time>2026-05-01T09:42:11Z</time></trkpt><trkpt lat="43.970817964129395" lon="10.182375167705487"><ele>6.0</ele><time>2026-05-01T09:42:12Z</time></trkpt><trkpt lat="43.97062988239068" lon="10.182708637970983"><ele>6.0</ele><time>2026-05-01T09:42:13Z</time></trkpt><trkpt lat="43.97044304504577" lon="10.183033768427338"><ele>6.0</ele><time>2026-05-01T09:42:14Z</time></trkpt><trkpt lat="43.97025896761092" lon="10.183350339135751"><ele>5.5</ele><time>2026-05-01T09:42:15Z</time></trkpt><trkpt lat="43.97008267958229" lon="10.183640966803257"><ele>5.0</ele><time>2026-05-01T09:42:16Z</time></trkpt><trkpt lat="43.96990959025493" lon="10.18391686447552"><ele>5.5</ele><time>2026-05-01T09:42:17Z</time></trkpt><trkpt lat="43.96974436058474" lon="10.18416944202227"><ele>6.0</ele><time>2026-05-01T09:42:18Z</time></trkpt><trkpt lat="43.96958845817374" lon="10.184398738353176"><ele>6.0</ele><time>2026-05-01T09:42:19Z</time></trkpt><trkpt lat="43.96943956797389" lon="10.184611761467794"><ele>6.0</ele><time>2026-05-01T09:42:20Z</time></trkpt><trkpt lat="43.969299755366144" lon="10.184815258609754"><ele>6.0</ele><time>2026-05-01T09:42:21Z</time></trkpt><trkpt lat="43.96916710852963" lon="10.185007445513088"><ele>5.666666666666667</ele><time>2026-05-01T09:42:22Z</time></trkpt><trkpt lat="43.969040409214756" lon="10.18518430004208"><ele>5.333333333333334</ele><time>2026-05-01T09:42:23Z</time></trkpt><trkpt lat="43.96891847600422" lon="10.18535202198024"><ele>5.0</ele><time>2026-05-01T09:42:24Z</time></trkpt><trkpt lat="43.96879904199199" lon="10.185514688061884"><ele>5.0</ele><time>2026-05-01T09:42:25Z</time></trkpt><trkpt lat="43.968682854632156" lon="10.185674981664501"><ele>5.0</ele><time>2026-05-01T09:42:25.999Z</time></trkpt><trkpt lat="43.96857331558965" lon="10.185825629715264"><ele>5.0</ele><time>2026-05-01T09:42:26.999Z</time></trkpt><trkpt lat="43.968472084221695" lon="10.185965082216402"><ele>5.0</ele><time>2026-05-01T09:42:27.999Z</time></trkpt><trkpt lat="43.9683761998129" lon="10.186090631809884"><ele>5.0</ele><time>2026-05-01T09:42:28.999Z</time></trkpt><trkpt lat="43.9682803139777" lon="10.186210110019166"><ele>5.0</ele><time>2026-05-01T09:42:29.999Z</time></trkpt><trkpt lat="43.968182834233886" lon="10.186327263794093"><ele>5.0</ele><time>2026-05-01T09:42:30.999Z</time></trkpt><trkpt lat="43.96807941207849" lon="10.18645103708205"><ele>5.333333333333334</ele><time>2026-05-01T09:42:31.999Z</time></trkpt><trkpt lat="43.967969741039376" lon="10.186582513618319"><ele>5.666666666666667</ele><time>2026-05-01T09:42:32.999Z</time></trkpt><trkpt lat="43.96784893903914" lon="10.18672104375998"><ele>6.0</ele><time>2026-05-01T09:42:33.999Z</time></trkpt><trkpt lat="43.96771908995778" lon="10.186866015984226"><ele>6.0</ele><time>2026-05-01T09:42:34.999Z</time></trkpt><trkpt lat="43.967581353564306" lon="10.187021612026763"><ele>6.0</ele><time>2026-05-01T09:42:35.999Z</time></trkpt><trkpt lat="43.96743617606378" lon="10.187183379899441"><ele>6.0</ele><time>2026-05-01T09:42:36.999Z</time></trkpt><trkpt lat="43.96728241382777" lon="10.187351047490653"><ele>5.333333333333333</ele><time>2026-05-01T09:42:37.999Z</time></trkpt><trkpt lat="43.96712626879768" lon="10.187520029125748"><ele>4.666666666666666</ele><time>2026-05-01T09:42:38.999Z</time></trkpt><trkpt lat="43.96696806561565" lon="10.187694879248543"><ele>4.0</ele><time>2026-05-01T09:42:39.999Z</time></trkpt><trkpt lat="43.966806935476086" lon="10.187873964071152"><ele>3.6666666666666665</ele><time>2026-05-01T09:42:40.999Z</time></trkpt><trkpt lat="43.96664172418234" lon="10.18805490781514"><ele>3.333333333333333</ele><time>2026-05-01T09:42:41.999Z</time></trkpt><trkpt lat="43.96647660379206" lon="10.18823730405924"><ele>3.0</ele><time>2026-05-01T09:42:42.999Z</time></trkpt><trkpt lat="43.966310622992346" lon="10.188422586573079"><ele>3.0</ele><time>2026-05-01T09:42:43.999Z</time></trkpt><trkpt lat="43.96614426111609" lon="10.188611176622109"><ele>3.0</ele><time>2026-05-01T09:42:44.999Z</time></trkpt><trkpt lat="43.965976108448395" lon="10.188801018247313"><ele>3.0</ele><time>2026-05-01T09:42:45.999Z</time></trkpt><trkpt lat="43.965806999171306" lon="10.188990475586492"><ele>2.3333333333333335</ele><time>2026-05-01T09:42:46.999Z</time></trkpt><trkpt lat="43.96563649394347" lon="10.189181122652073"><ele>1.6666666666666665</ele><time>2026-05-01T09:42:47.999Z</time></trkpt><trkpt lat="43.96546666088348" lon="10.189371761564805"><ele>1.0</ele><time>2026-05-01T09:42:48.999Z</time></trkpt><trkpt lat="43.96529525347623" lon="10.189565282470994"><ele>1.0</ele><time>2026-05-01T09:42:49.999Z</time></trkpt><trkpt lat="43.96512273479807" lon="10.189757264346856"><ele>1.0</ele><time>2026-05-01T09:42:50.999Z</time></trkpt><trkpt lat="43.964949016453836" lon="10.189950951743231"><ele>1.0</ele><time>2026-05-01T09:42:51.999Z</time></trkpt><trkpt lat="43.96477371335461" lon="10.190146916657687"><ele>0.6666666666666666</ele><time>2026-05-01T09:42:52.999Z</time></trkpt><trkpt lat="43.964597287243635" lon="10.190343748321398"><ele>0.3333333333333333</ele><time>2026-05-01T09:42:53.999Z</time></trkpt><trkpt lat="43.96442341187344" lon="10.190538091624862"><ele>0.0</ele><time>2026-05-01T09:42:54.999Z</time></trkpt><trkpt lat="43.96425149946944" lon="10.190728631679658"><ele>0.6666666666666666</ele><time>2026-05-01T09:42:55.999Z</time></trkpt><trkpt lat="43.96408102168419" lon="10.190920303657323"><ele>1.3333333333333333</ele><time>2026-05-01T09:42:56.999Z</time></trkpt><trkpt lat="43.96390981348828" lon="10.191112916060868"><ele>2.0</ele><time>2026-05-01T09:42:57.999Z</time></trkpt><trkpt lat="43.96374533236473" lon="10.19129631786819"><ele>2.0</ele><time>2026-05-01T09:42:58.999Z</time></trkpt><trkpt lat="43.96358576071543" lon="10.191474027029498"><ele>2.0</ele><time>2026-05-01T09:42:59.999Z</time></trkpt><trkpt lat="43.96342674160083" lon="10.191654108405855"><ele>2.0</ele><time>2026-05-01T09:43:00.999Z</time></trkpt><trkpt lat="43.963266679838846" lon="10.191833492952654"><ele>2.0</ele><time>2026-05-01T09:43:01.999Z</time></trkpt><trkpt lat="43.96310549774378" lon="10.192012316974981"><ele>2.0</ele><time>2026-05-01T09:43:02.999Z</time></trkpt><trkpt lat="43.962946317130566" lon="10.192191801804427"><ele>2.0</ele><time>2026-05-01T09:43:03.999Z</time></trkpt><trkpt lat="43.96278718144407" lon="10.192370426116426"><ele>2.0</ele><time>2026-05-01T09:43:05Z</time></trkpt><trkpt lat="43.962633932614644" lon="10.192540833106541"><ele>2.0</ele><time>2026-05-01T09:43:06Z</time></trkpt><trkpt lat="43.962483318188234" lon="10.192705912904678"><ele>2.0</ele><time>2026-05-01T09:43:07Z</time></trkpt><trkpt lat="43.96233314131194" lon="10.192873702377762"><ele>2.0</ele><time>2026-05-01T09:43:08Z</time></trkpt><trkpt lat="43.962181769610325" lon="10.193045736734216"><ele>2.0</ele><time>2026-05-01T09:43:09Z</time></trkpt><trkpt lat="43.96202639222626" lon="10.193221213129888"><ele>2.0</ele><time>2026-05-01T09:43:10Z</time></trkpt><trkpt lat="43.961868547549074" lon="10.193395660755865"><ele>2.0</ele><time>2026-05-01T09:43:11Z</time></trkpt><trkpt lat="43.9617100169544" lon="10.193570541832592"><ele>2.0</ele><time>2026-05-01T09:43:12Z</time></trkpt><trkpt lat="43.96154968725131" lon="10.193750242600155"><ele>2.0</ele><time>2026-05-01T09:43:13Z</time></trkpt><trkpt lat="43.961386735710676" lon="10.193936365763001"><ele>2.0</ele><time>2026-05-01T09:43:14Z</time></trkpt><trkpt lat="43.9612213424707" lon="10.194122052730831"><ele>2.0</ele><time>2026-05-01T09:43:15Z</time></trkpt><trkpt lat="43.961052339399856" lon="10.1943053977567"><ele>2.0</ele><time>2026-05-01T09:43:16Z</time></trkpt><trkpt lat="43.960883584996466" lon="10.194488150100627"><ele>2.0</ele><time>2026-05-01T09:43:17Z</time></trkpt><trkpt lat="43.96071505127321" lon="10.194678425396956"><ele>2.0</ele><time>2026-05-01T09:43:18Z</time></trkpt><trkpt lat="43.960546342264045" lon="10.194873096123441"><ele>2.0</ele><time>2026-05-01T09:43:19Z</time></trkpt><trkpt lat="43.96037358314406" lon="10.195065032081192"><ele>2.0</ele><time>2026-05-01T09:43:20Z</time></trkpt><trkpt lat="43.9601993701739" lon="10.19525928474811"><ele>2.0</ele><time>2026-05-01T09:43:21Z</time></trkpt><trkpt lat="43.96002606748057" lon="10.195454361640623"><ele>2.0</ele><time>2026-05-01T09:43:22Z</time></trkpt><trkpt lat="43.959852033641816" lon="10.195650399002322"><ele>2.5</ele><time>2026-05-01T09:43:23Z</time></trkpt><trkpt lat="43.95967666438627" lon="10.195846369265912"><ele>3.0</ele><time>2026-05-01T09:43:24Z</time></trkpt><trkpt lat="43.95949861910881" lon="10.196045231930048"><ele>3.0</ele><time>2026-05-01T09:43:25Z</time></trkpt><trkpt lat="43.959320342134966" lon="10.19624422690673"><ele>3.0</ele><time>2026-05-01T09:43:26Z</time></trkpt><trkpt lat="43.95914250214484" lon="10.196441057554965"><ele>3.5</ele><time>2026-05-01T09:43:27Z</time></trkpt><trkpt lat="43.95896639992402" lon="10.1966402091275"><ele>4.0</ele><time>2026-05-01T09:43:28Z</time></trkpt><trkpt lat="43.95878890785732" lon="10.196840859874069"><ele>4.0</ele><time>2026-05-01T09:43:29Z</time></trkpt><trkpt lat="43.95860737774476" lon="10.197044650635467"><ele>4.0</ele><time>2026-05-01T09:43:30Z</time></trkpt><trkpt lat="43.95842399950053" lon="10.197249868761341"><ele>3.5</ele><time>2026-05-01T09:43:31Z</time></trkpt><trkpt lat="43.9582397206663" lon="10.197456310705268"><ele>3.0</ele><time>2026-05-01T09:43:32Z</time></trkpt><trkpt lat="43.958053743223815" lon="10.197663859873263"><ele>3.0</ele><time>2026-05-01T09:43:33Z</time></trkpt><trkpt lat="43.95786544400262" lon="10.197872705244642"><ele>3.0</ele><time>2026-05-01T09:43:34Z</time></trkpt><trkpt lat="43.95767860296133" lon="10.198081042383311"><ele>1.5</ele><time>2026-05-01T09:43:35Z</time></trkpt><trkpt lat="43.95749258399018" lon="10.19829029419804"><ele>0.0</ele><time>2026-05-01T09:43:36Z</time></trkpt><trkpt lat="43.95731004680812" lon="10.198500345804636"><ele>0.0</ele><time>2026-05-01T09:43:37Z</time></trkpt><trkpt lat="43.95713232643713" lon="10.19870643265738"><ele>0.0</ele><time>2026-05-01T09:43:38Z</time></trkpt><trkpt lat="43.956960752163276" lon="10.198903025109429"><ele>1.0</ele><time>2026-05-01T09:43:39Z</time></trkpt><trkpt lat="43.95678275448084" lon="10.199097843894485"><ele>2.0</ele><time>2026-05-01T09:43:40Z</time></trkpt><trkpt lat="43.95659404857495" lon="10.199302040337729"><ele>2.5</ele><time>2026-05-01T09:43:41Z</time></trkpt><trkpt lat="43.9564003897993" lon="10.199515437170277"><ele>3.0</ele><time>2026-05-01T09:43:42Z</time></trkpt><trkpt lat="43.95620711533865" lon="10.199735691013077"><ele>2.5</ele><time>2026-05-01T09:43:43Z</time></trkpt><trkpt lat="43.95601177644814" lon="10.19996309810854"><ele>2.0</ele><time>2026-05-01T09:43:44Z</time></trkpt><trkpt lat="43.955812520518414" lon="10.200191826158719"><ele>3.0</ele><time>2026-05-01T09:43:45Z</time></trkpt><trkpt lat="43.95561016910762" lon="10.200423481839652"><ele>4.0</ele><time>2026-05-01T09:43:46Z</time></trkpt><trkpt lat="43.95540135822733" lon="10.200662348659161"><ele>3.5</ele><time>2026-05-01T09:43:47Z</time></trkpt><trkpt lat="43.95518937803769" lon="10.20090113835156"><ele>3.0</ele><time>2026-05-01T09:43:48Z</time></trkpt><trkpt lat="43.95497540590614" lon="10.201140763623762"><ele>3.0</ele><time>2026-05-01T09:43:49Z</time></trkpt><trkpt lat="43.95476053090984" lon="10.201381795152331"><ele>3.0</ele><time>2026-05-01T09:43:50Z</time></trkpt><trkpt lat="43.95454482639909" lon="10.201624008331843"><ele>3.5</ele><time>2026-05-01T09:43:51Z</time></trkpt><trkpt lat="43.954327063411505" lon="10.201866935490067"><ele>4.0</ele><time>2026-05-01T09:43:52Z</time></trkpt><trkpt lat="43.954108138495776" lon="10.202111103013367"><ele>3.5</ele><time>2026-05-01T09:43:53Z</time></trkpt><trkpt lat="43.95388947343607" lon="10.202353872928667"><ele>3.0</ele><time>2026-05-01T09:43:54Z</time></trkpt><trkpt lat="43.953674348720675" lon="10.202598023023972"><ele>3.0</ele><time>2026-05-01T09:43:55Z</time></trkpt><trkpt lat="43.953460121926604" lon="10.202839422859102"><ele>3.0</ele><time>2026-05-01T09:43:56Z</time></trkpt><trkpt lat="43.95324619323806" lon="10.203079743892665"><ele>2.5</ele><time>2026-05-01T09:43:57Z</time></trkpt><trkpt lat="43.95303061464064" lon="10.203321082338608"><ele>2.0</ele><time>2026-05-01T09:43:58Z</time></trkpt><trkpt lat="43.952814793300064" lon="10.203565227060935"><ele>2.0</ele><time>2026-05-01T09:43:59Z</time></trkpt><trkpt lat="43.9526001660865" lon="10.203809513943742"><ele>2.0</ele><time>2026-05-01T09:44:00Z</time></trkpt><trkpt lat="43.95238406380218" lon="10.204053307712853"><ele>3.0</ele><time>2026-05-01T09:44:01Z</time></trkpt><trkpt lat="43.952167451783744" lon="10.204298208747058"><ele>4.0</ele><time>2026-05-01T09:44:02Z</time></trkpt><trkpt lat="43.951945288935505" lon="10.20454674343391"><ele>4.0</ele><time>2026-05-01T09:44:03Z</time></trkpt><trkpt lat="43.95172237015409" lon="10.204797924295274"><ele>4.0</ele><time>2026-05-01T09:44:04Z</time></trkpt><trkpt lat="43.951500941405904" lon="10.205047747994584"><ele>3.0</ele><time>2026-05-01T09:44:05Z</time></trkpt><trkpt lat="43.95128200136997" lon="10.205295552287248"><ele>2.0</ele><time>2026-05-01T09:44:06Z</time></trkpt><trkpt lat="43.95106645027007" lon="10.205539484042701"><ele>2.0</ele><time>2026-05-01T09:44:07Z</time></trkpt><trkpt lat="43.950852980061434" lon="10.205784159609939"><ele>2.0</ele><time>2026-05-01T09:44:08Z</time></trkpt><trkpt lat="43.9506413501813" lon="10.206028803125985"><ele>2.0</ele><time>2026-05-01T09:44:09Z</time></trkpt><trkpt lat="43.950426781796764" lon="10.206276895496233"><ele>2.0</ele><time>2026-05-01T09:44:10Z</time></trkpt><trkpt lat="43.950211606947924" lon="10.206521686424292"><ele>2.0</ele><time>2026-05-01T09:44:11Z</time></trkpt><trkpt lat="43.950003007667476" lon="10.20675437601912"><ele>2.0</ele><time>2026-05-01T09:44:12Z</time></trkpt><trkpt lat="43.94979771447406" lon="10.206980639487231"><ele>2.0</ele><time>2026-05-01T09:44:13Z</time></trkpt><trkpt lat="43.949598072489" lon="10.207202644581276"><ele>2.0</ele><time>2026-05-01T09:44:14Z</time></trkpt><trkpt lat="43.94940213881914" lon="10.207421526552563"><ele>2.5</ele><time>2026-05-01T09:44:15Z</time></trkpt><trkpt lat="43.949206006991496" lon="10.20764128446348"><ele>3.0</ele><time>2026-05-01T09:44:16Z</time></trkpt><trkpt lat="43.94901280983943" lon="10.207858120841369"><ele>3.0</ele><time>2026-05-01T09:44:17Z</time></trkpt><trkpt lat="43.94882048509279" lon="10.208072589526767"><ele>3.0</ele><time>2026-05-01T09:44:18Z</time></trkpt><trkpt lat="43.94862544866117" lon="10.208292161886472"><ele>2.5</ele><time>2026-05-01T09:44:19Z</time></trkpt><trkpt lat="43.948426428042936" lon="10.208516770797743"><ele>2.0</ele><time>2026-05-01T09:44:20Z</time></trkpt><trkpt lat="43.94822561527657" lon="10.20874160168066"><ele>3.0</ele><time>2026-05-01T09:44:21Z</time></trkpt><trkpt lat="43.94802502493562" lon="10.20896568284941"><ele>4.0</ele><time>2026-05-01T09:44:22Z</time></trkpt><trkpt lat="43.94782563144027" lon="10.209189018381442"><ele>4.0</ele><time>2026-05-01T09:44:23Z</time></trkpt><trkpt lat="43.947627757868375" lon="10.209410367206585"><ele>4.0</ele><time>2026-05-01T09:44:24Z</time></trkpt><trkpt lat="43.947430390884215" lon="10.20962993191485"><ele>4.5</ele><time>2026-05-01T09:44:25Z</time></trkpt><trkpt lat="43.94723256951548" lon="10.209849136444598"><ele>5.0</ele><time>2026-05-01T09:44:26Z</time></trkpt><trkpt lat="43.94703839524177" lon="10.210065550898879"><ele>5.0</ele><time>2026-05-01T09:44:27Z</time></trkpt><trkpt lat="43.94684236124271" lon="10.210279046611342"><ele>5.0</ele><time>2026-05-01T09:44:28Z</time></trkpt><trkpt lat="43.94664410959433" lon="10.210490225737233"><ele>5.0</ele><time>2026-05-01T09:44:28.999Z</time></trkpt><trkpt lat="43.94644089059645" lon="10.210695717397776"><ele>5.0</ele><time>2026-05-01T09:44:29.999Z</time></trkpt><trkpt lat="43.94623879616296" lon="10.210893459867101"><ele>5.0</ele><time>2026-05-01T09:44:30.999Z</time></trkpt><trkpt lat="43.946037101966645" lon="10.211087521066514"><ele>5.0</ele><time>2026-05-01T09:44:31.999Z</time></trkpt><trkpt lat="43.94583292619531" lon="10.211284891798819"><ele>5.0</ele><time>2026-05-01T09:44:32.999Z</time></trkpt><trkpt lat="43.94561911567021" lon="10.211484400042117"><ele>5.0</ele><time>2026-05-01T09:44:33.999Z</time></trkpt><trkpt lat="43.945402110895" lon="10.211677918248848"><ele>5.0</ele><time>2026-05-01T09:44:34.999Z</time></trkpt><trkpt lat="43.94518437978662" lon="10.211865045432514"><ele>5.0</ele><time>2026-05-01T09:44:35.999Z</time></trkpt><trkpt lat="43.944964238193364" lon="10.212046669576312"><ele>4.0</ele><time>2026-05-01T09:44:36.999Z</time></trkpt><trkpt lat="43.944740179351406" lon="10.212226264574179"><ele>3.0</ele><time>2026-05-01T09:44:37.999Z</time></trkpt><trkpt lat="43.94450750788343" lon="10.21240547111223"><ele>3.0</ele><time>2026-05-01T09:44:38.999Z</time></trkpt><trkpt lat="43.94427436002417" lon="10.212579824490469"><ele>3.0</ele><time>2026-05-01T09:44:39.999Z</time></trkpt><trkpt lat="43.944037098178036" lon="10.212752232592946"><ele>2.0</ele><time>2026-05-01T09:44:40.999Z</time></trkpt><trkpt lat="43.94379520116708" lon="10.21292382913264"><ele>1.0</ele><time>2026-05-01T09:44:41.999Z</time></trkpt><trkpt lat="43.94355387606102" lon="10.213093096487444"><ele>3.0</ele><time>2026-05-01T09:44:42.999Z</time></trkpt><trkpt lat="43.94331278912155" lon="10.213262524160527"><ele>5.0</ele><time>2026-05-01T09:44:43.999Z</time></trkpt><trkpt lat="43.9430725112879" lon="10.213429103346154"><ele>5.0</ele><time>2026-05-01T09:44:44.999Z</time></trkpt><trkpt lat="43.94283629347727" lon="10.213594220241509"><ele>5.0</ele><time>2026-05-01T09:44:45.999Z</time></trkpt><trkpt lat="43.942602073501234" lon="10.21375868068343"><ele>5.0</ele><time>2026-05-01T09:44:46.999Z</time></trkpt><trkpt lat="43.94236941688007" lon="10.213922386947688"><ele>5.0</ele><time>2026-05-01T09:44:47.999Z</time></trkpt><trkpt lat="43.94213551009285" lon="10.214084941328547"><ele>4.5</ele><time>2026-05-01T09:44:48.999Z</time></trkpt><trkpt lat="43.941900864433684" lon="10.21424701242756"><ele>4.0</ele><time>2026-05-01T09:44:49.999Z</time></trkpt><trkpt lat="43.94166362513675" lon="10.214410704822875"><ele>3.5</ele><time>2026-05-01T09:44:50.999Z</time></trkpt><trkpt lat="43.9414273943691" lon="10.214573670469036"><ele>3.0</ele><time>2026-05-01T09:44:51.999Z</time></trkpt><trkpt lat="43.94119281368401" lon="10.214735925903504"><ele>2.5</ele><time>2026-05-01T09:44:52.999Z</time></trkpt><trkpt lat="43.94095533258642" lon="10.214901056332296"><ele>2.0</ele><time>2026-05-01T09:44:53.999Z</time></trkpt><trkpt lat="43.94070603731701" lon="10.215073482508956"><ele>1.5</ele><time>2026-05-01T09:44:54.999Z</time></trkpt><trkpt lat="43.940453495408974" lon="10.21525093975268"><ele>1.0</ele><time>2026-05-01T09:44:55.999Z</time></trkpt><trkpt lat="43.94019726656997" lon="10.215434564378384"><ele>0.5</ele><time>2026-05-01T09:44:56.999Z</time></trkpt><trkpt lat="43.9399247883903" lon="10.215630782979716"><ele>0.0</ele><time>2026-05-01T09:44:57.999Z</time></trkpt><trkpt lat="43.939634872076546" lon="10.21583763740988"><ele>1.0</ele><time>2026-05-01T09:44:58.999Z</time></trkpt><trkpt lat="43.93933460662397" lon="10.216049255371585"><ele>2.0</ele><time>2026-05-01T09:44:59.999Z</time></trkpt><trkpt lat="43.93902195672489" lon="10.216268481931309"><ele>1.0</ele><time>2026-05-01T09:45:00.999Z</time></trkpt><trkpt lat="43.93870255617502" lon="10.216491309047347"><ele>0.0</ele><time>2026-05-01T09:45:01.999Z</time></trkpt><trkpt lat="43.938388128759215" lon="10.216709946098682"><ele>0.5</ele><time>2026-05-01T09:45:02.999Z</time></trkpt><trkpt lat="43.93807866074183" lon="10.216923300552484"><ele>1.0</ele><time>2026-05-01T09:45:03.999Z</time></trkpt><trkpt lat="43.937782332411" lon="10.21712803611114"><ele>0.5</ele><time>2026-05-01T09:45:04.999Z</time></trkpt><trkpt lat="43.93750356948846" lon="10.217319349687722"><ele>0.0</ele><time>2026-05-01T09:45:05.999Z</time></trkpt><trkpt lat="43.937236609605186" lon="10.217505850781627"><ele>0.0</ele><time>2026-05-01T09:45:06.999Z</time></trkpt><trkpt lat="43.93697430668495" lon="10.217688796056127"><ele>0.0</ele><time>2026-05-01T09:45:07.999Z</time></trkpt><trkpt lat="43.9367184080003" lon="10.217866743298245"><ele>0.0</ele><time>2026-05-01T09:45:08.999Z</time></trkpt><trkpt lat="43.93646253131164" lon="10.21804418656007"><ele>0.0</ele><time>2026-05-01T09:45:09.999Z</time></trkpt><trkpt lat="43.936205013649875" lon="10.218223986824954"><ele>0.0</ele><time>2026-05-01T09:45:11Z</time></trkpt><trkpt lat="43.93594385662646" lon="10.21840314729802"><ele>0.0</ele><time>2026-05-01T09:45:12Z</time></trkpt><trkpt lat="43.93568518825942" lon="10.218582421715091"><ele>0.5</ele><time>2026-05-01T09:45:13Z</time></trkpt><trkpt lat="43.93542297565317" lon="10.218762966831646"><ele>1.0</ele><time>2026-05-01T09:45:14Z</time></trkpt><trkpt lat="43.93516045851857" lon="10.218941759040783"><ele>0.0</ele><time>2026-05-01T09:45:15Z</time></trkpt><trkpt lat="43.934901905885624" lon="10.219116263780089"><ele>-1.0</ele><time>2026-05-01T09:45:16Z</time></trkpt><trkpt lat="43.934650043474356" lon="10.219288856222692"><ele>-1.0</ele><time>2026-05-01T09:45:17Z</time></trkpt><trkpt lat="43.934399704241905" lon="10.219460742711433"><ele>-1.0</ele><time>2026-05-01T09:45:18Z</time></trkpt><trkpt lat="43.93416253876784" lon="10.219626727640447"><ele>-1.0</ele><time>2026-05-01T09:45:19Z</time></trkpt><trkpt lat="43.93393764559096" lon="10.219782034105881"><ele>-1.0</ele><time>2026-05-01T09:45:20Z</time></trkpt><trkpt lat="43.933720389020515" lon="10.219929574131852"><ele>0.0</ele><time>2026-05-01T09:45:21Z</time></trkpt><trkpt lat="43.933506373778684" lon="10.220075039651277"><ele>1.0</ele><time>2026-05-01T09:45:22Z</time></trkpt><trkpt lat="43.93329102742286" lon="10.22022301648784"><ele>1.0</ele><time>2026-05-01T09:45:23Z</time></trkpt><trkpt lat="43.93307430491297" lon="10.220374349175"><ele>1.0</ele><time>2026-05-01T09:45:24Z</time></trkpt><trkpt lat="43.93285784508814" lon="10.220522711293397"><ele>1.0</ele><time>2026-05-01T09:45:25Z</time></trkpt><trkpt lat="43.93264316075143" lon="10.220673633571653"><ele>1.0</ele><time>2026-05-01T09:45:26Z</time></trkpt><trkpt lat="43.93242654750843" lon="10.220822609544848"><ele>1.0</ele><time>2026-05-01T09:45:27Z</time></trkpt><trkpt lat="43.93221005120641" lon="10.220973602084051"><ele>1.0</ele><time>2026-05-01T09:45:28Z</time></trkpt><trkpt lat="43.93199204044332" lon="10.221124103834452"><ele>1.0</ele><time>2026-05-01T09:45:29Z</time></trkpt><trkpt lat="43.931773883924805" lon="10.221273880777662"><ele>1.0</ele><time>2026-05-01T09:45:30Z</time></trkpt><trkpt lat="43.93155719276516" lon="10.221421824420288"><ele>1.5</ele><time>2026-05-01T09:45:31Z</time></trkpt><trkpt lat="43.93134044156751" lon="10.22156661230353"><ele>2.0</ele><time>2026-05-01T09:45:32Z</time></trkpt><trkpt lat="43.931126619439695" lon="10.221711665454386"><ele>2.0</ele><time>2026-05-01T09:45:33Z</time></trkpt><trkpt lat="43.93091290525969" lon="10.221857140626007"><ele>2.0</ele><time>2026-05-01T09:45:34Z</time></trkpt><trkpt lat="43.93070341986089" lon="10.222002139737475"><ele>2.0</ele><time>2026-05-01T09:45:35Z</time></trkpt><trkpt lat="43.93050625059004" lon="10.222139514404681"><ele>2.0</ele><time>2026-05-01T09:45:36Z</time></trkpt><trkpt lat="43.93032251320778" lon="10.222269779770391"><ele>2.0</ele><time>2026-05-01T09:45:37Z</time></trkpt><trkpt lat="43.93014412423786" lon="10.22239177923197"><ele>2.0</ele><time>2026-05-01T09:45:38Z</time></trkpt><trkpt lat="43.929950898876235" lon="10.222517374116805"><ele>2.0</ele><time>2026-05-01T09:45:39Z</time></trkpt><trkpt lat="43.92979574991405" lon="10.222587322825339"><ele>2.0</ele><time>2026-05-01T09:45:40Z</time></trkpt><trkpt lat="43.92964492713494" lon="10.22262330249346"><ele>2.0</ele><time>2026-05-01T09:45:41Z</time></trkpt><trkpt lat="43.92950015488526" lon="10.222628415369082"><ele>2.0</ele><time>2026-05-01T09:45:42Z</time></trkpt><trkpt lat="43.92936435331158" lon="10.222645026397906"><ele>2.0</ele><time>2026-05-01T09:45:43Z</time></trkpt><trkpt lat="43.929236306604594" lon="10.222698508544674"><ele>2.0</ele><time>2026-05-01T09:45:44Z</time></trkpt><trkpt lat="43.92911372155158" lon="10.222792272404053"><ele>2.2</ele><time>2026-05-01T09:45:45Z</time></trkpt><trkpt lat="43.92899909263402" lon="10.222905947915859"><ele>2.4000000000000004</ele><time>2026-05-01T09:45:46Z</time></trkpt><trkpt lat="43.92889400380132" lon="10.2229941720489"><ele>2.5999999999999996</ele><time>2026-05-01T09:45:47Z</time></trkpt><trkpt lat="43.92880462511495" lon="10.223049847856997"><ele>2.8</ele><time>2026-05-01T09:45:48Z</time></trkpt><trkpt lat="43.92872892257203" lon="10.223077185343978"><ele>3.0</ele><time>2026-05-01T09:45:49Z</time></trkpt><trkpt lat="43.92862875952051" lon="10.223024814068594"><ele>2.9999999999999996</ele><time>2026-05-01T09:45:51Z</time></trkpt><trkpt lat="43.928540726287444" lon="10.22297315308605"><ele>3.0</ele><time>2026-05-01T09:45:53Z</time></trkpt><trkpt lat="43.92846657576545" lon="10.22298878747634"><ele>3.0</ele><time>2026-05-01T09:45:55Z</time></trkpt><trkpt lat="43.928401886851084" lon="10.223002140923075"><ele>3.0</ele><time>2026-05-01T09:45:57Z</time></trkpt><trkpt lat="43.92833595320225" lon="10.223028357009095"><ele>3.0</ele><time>2026-05-01T09:45:59Z</time></trkpt><trkpt lat="43.92828065193221" lon="10.223085978166205"><ele>2.9999999999999996</ele><time>2026-05-01T09:46:02Z</time></trkpt><trkpt lat="43.92822223558815" lon="10.223125870756403"><ele>3.0</ele><time>2026-05-01T09:46:18Z</time></trkpt><trkpt lat="43.92815980897758" lon="10.223171308028894"><ele>3.0</ele><time>2026-05-01T09:46:20Z</time></trkpt><trkpt lat="43.92807848474448" lon="10.22323692644187"><ele>3.0</ele><time>2026-05-01T09:46:22Z</time></trkpt><trkpt lat="43.9280098074993" lon="10.223302359739055"><ele>3.0</ele><time>2026-05-01T09:46:24Z</time></trkpt><trkpt lat="43.92795649767053" lon="10.223366321678336"><ele>3.0</ele><time>2026-05-01T09:46:36.999Z</time></trkpt><trkpt lat="43.92792036843756" lon="10.22350254896389"><ele>3.0</ele><time>2026-05-01T09:46:38.999Z</time></trkpt><trkpt lat="43.92788002409323" lon="10.223611459565685"><ele>3.0</ele><time>2026-05-01T09:46:39.999Z</time></trkpt><trkpt lat="43.92780939097303" lon="10.223717144568003"><ele>3.0</ele><time>2026-05-01T09:46:40.999Z</time></trkpt><trkpt lat="43.92773631688766" lon="10.22382368856842"><ele>3.0</ele><time>2026-05-01T09:46:41.999Z</time></trkpt><trkpt lat="43.92765400692232" lon="10.223944822003077"><ele>3.0</ele><time>2026-05-01T09:46:42.999Z</time></trkpt><trkpt lat="43.92756708846692" lon="10.224082263398948"><ele>3.0</ele><time>2026-05-01T09:46:43.999Z</time></trkpt><trkpt lat="43.927468243653685" lon="10.224220756227469"><ele>2.3333333333333335</ele><time>2026-05-01T09:46:44.999Z</time></trkpt><trkpt lat="43.92735303710559" lon="10.2243323674914"><ele>1.6666666666666665</ele><time>2026-05-01T09:46:45.999Z</time></trkpt><trkpt lat="43.92722057424296" lon="10.224428422575327"><ele>1.0</ele><time>2026-05-01T09:46:46.999Z</time></trkpt><trkpt lat="43.92707756723523" lon="10.224534656596566"><ele>1.0</ele><time>2026-05-01T09:46:47.999Z</time></trkpt><trkpt lat="43.92692373932559" lon="10.224655827171997"><ele>1.0</ele><time>2026-05-01T09:46:48.999Z</time></trkpt><trkpt lat="43.926755940367585" lon="10.224788214147724"><ele>1.0</ele><time>2026-05-01T09:46:49.999Z</time></trkpt><trkpt lat="43.92656973614653" lon="10.224933756134966"><ele>2.0</ele><time>2026-05-01T09:46:50.999Z</time></trkpt><trkpt lat="43.9263713675649" lon="10.225091109424055"><ele>3.0</ele><time>2026-05-01T09:46:51.999Z</time></trkpt><trkpt lat="43.92616935280038" lon="10.225255949500319"><ele>3.0</ele><time>2026-05-01T09:46:52.999Z</time></trkpt><trkpt lat="43.92596232032021" lon="10.225425855539548"><ele>3.0</ele><time>2026-05-01T09:46:53.999Z</time></trkpt><trkpt lat="43.92574981765494" lon="10.225598838134188"><ele>2.5</ele><time>2026-05-01T09:46:54.999Z</time></trkpt><trkpt lat="43.92552801370454" lon="10.225777909203378"><ele>2.0</ele><time>2026-05-01T09:46:55.999Z</time></trkpt><trkpt lat="43.925298680295036" lon="10.225964761613518"><ele>2.0</ele><time>2026-05-01T09:46:56.999Z</time></trkpt><trkpt lat="43.92506357371995" lon="10.226161429407865"><ele>2.0</ele><time>2026-05-01T09:46:57.999Z</time></trkpt><trkpt lat="43.92482246310881" lon="10.22636657770372"><ele>2.5</ele><time>2026-05-01T09:46:58.999Z</time></trkpt><trkpt lat="43.924575540958635" lon="10.226579388628315"><ele>3.0</ele><time>2026-05-01T09:46:59.999Z</time></trkpt><trkpt lat="43.92432265276284" lon="10.226795536881076"><ele>3.5</ele><time>2026-05-01T09:47:00.999Z</time></trkpt><trkpt lat="43.924068018996664" lon="10.227017525062807"><ele>4.0</ele><time>2026-05-01T09:47:01.999Z</time></trkpt><trkpt lat="43.9238117288266" lon="10.227246804530715"><ele>2.5</ele><time>2026-05-01T09:47:02.999Z</time></trkpt><trkpt lat="43.92355433500832" lon="10.227482567204788"><ele>1.0</ele><time>2026-05-01T09:47:03.999Z</time></trkpt><trkpt lat="43.92329708137105" lon="10.227723768714434"><ele>0.5</ele><time>2026-05-01T09:47:04.999Z</time></trkpt><trkpt lat="43.92304529563723" lon="10.227968507359254"><ele>0.0</ele><time>2026-05-01T09:47:05.999Z</time></trkpt><trkpt lat="43.92279233917386" lon="10.22821480176958"><ele>0.5</ele><time>2026-05-01T09:47:06.999Z</time></trkpt><trkpt lat="43.92254098968564" lon="10.228460058708198"><ele>1.0</ele><time>2026-05-01T09:47:07.999Z</time></trkpt><trkpt lat="43.92229070883491" lon="10.228704053468824"><ele>1.0</ele><time>2026-05-01T09:47:08.999Z</time></trkpt><trkpt lat="43.922042405682156" lon="10.228949848675557"><ele>1.0</ele><time>2026-05-01T09:47:09.999Z</time></trkpt><trkpt lat="43.92179591338603" lon="10.229194897413413"><ele>0.5</ele><time>2026-05-01T09:47:10.999Z</time></trkpt><trkpt lat="43.92154972424433" lon="10.229434521799257"><ele>0.0</ele><time>2026-05-01T09:47:11.999Z</time></trkpt><trkpt lat="43.92130279596878" lon="10.229672241431814"><ele>0.5</ele><time>2026-05-01T09:47:12.999Z</time></trkpt><trkpt lat="43.92105792544656" lon="10.22991027523019"><ele>1.0</ele><time>2026-05-01T09:47:13.999Z</time></trkpt><trkpt lat="43.92081836118247" lon="10.230145158403381"><ele>1.0</ele><time>2026-05-01T09:47:14.999Z</time></trkpt><trkpt lat="43.920582104835226" lon="10.23037603002098"><ele>1.0</ele><time>2026-05-01T09:47:15.999Z</time></trkpt><trkpt lat="43.92034115346613" lon="10.230609837418235"><ele>0.5</ele><time>2026-05-01T09:47:17Z</time></trkpt><trkpt lat="43.92009939528616" lon="10.230845439784419"><ele>0.0</ele><time>2026-05-01T09:47:18Z</time></trkpt><trkpt lat="43.91986664718811" lon="10.231072151728128"><ele>0.0</ele><time>2026-05-01T09:47:19Z</time></trkpt><trkpt lat="43.919637132564354" lon="10.231294109139231"><ele>0.0</ele><time>2026-05-01T09:47:20Z</time></trkpt><trkpt lat="43.919406164896515" lon="10.231516868151099"><ele>0.5</ele><time>2026-05-01T09:47:21Z</time></trkpt><trkpt lat="43.91917380713401" lon="10.231743333697496"><ele>1.0</ele><time>2026-05-01T09:47:22Z</time></trkpt><trkpt lat="43.91893993367683" lon="10.231972631344739"><ele>1.0</ele><time>2026-05-01T09:47:23Z</time></trkpt><trkpt lat="43.918702021452724" lon="10.232204837219085"><ele>1.0</ele><time>2026-05-01T09:47:24Z</time></trkpt><trkpt lat="43.91846217433913" lon="10.232436480478365"><ele>0.5</ele><time>2026-05-01T09:47:25Z</time></trkpt><trkpt lat="43.918219997064774" lon="10.232670602281855"><ele>0.0</ele><time>2026-05-01T09:47:26Z</time></trkpt><trkpt lat="43.917978795002306" lon="10.232905227862323"><ele>0.0</ele><time>2026-05-01T09:47:27Z</time></trkpt><trkpt lat="43.91774051560048" lon="10.233136839675064"><ele>0.0</ele><time>2026-05-01T09:47:28Z</time></trkpt><trkpt lat="43.917499009779625" lon="10.233373675904813"><ele>-0.5</ele><time>2026-05-01T09:47:29Z</time></trkpt><trkpt lat="43.917259420959454" lon="10.233606152841615"><ele>-1.0</ele><time>2026-05-01T09:47:30Z</time></trkpt><trkpt lat="43.9170280407868" lon="10.233829681503984"><ele>-1.0</ele><time>2026-05-01T09:47:31Z</time></trkpt><trkpt lat="43.91680622416784" lon="10.234046600079903"><ele>-1.0</ele><time>2026-05-01T09:47:32Z</time></trkpt><trkpt lat="43.91658574207024" lon="10.234263239164662"><ele>-1.0</ele><time>2026-05-01T09:47:33Z</time></trkpt><trkpt lat="43.91636230948635" lon="10.234482297473846"><ele>-1.0</ele><time>2026-05-01T09:47:34Z</time></trkpt><trkpt lat="43.91613364167413" lon="10.234705646648832"><ele>-0.5</ele><time>2026-05-01T09:47:35Z</time></trkpt><trkpt lat="43.91590272891866" lon="10.234927844236141"><ele>0.0</ele><time>2026-05-01T09:47:36Z</time></trkpt><trkpt lat="43.915675235473195" lon="10.235148534207225"><ele>0.0</ele><time>2026-05-01T09:47:37Z</time></trkpt><trkpt lat="43.91544990879431" lon="10.235368914896071"><ele>0.0</ele><time>2026-05-01T09:47:38Z</time></trkpt><trkpt lat="43.91522510816217" lon="10.235587332108969"><ele>0.5</ele><time>2026-05-01T09:47:39Z</time></trkpt><trkpt lat="43.91500058680931" lon="10.235803888608062"><ele>1.0</ele><time>2026-05-01T09:47:40Z</time></trkpt><trkpt lat="43.914774448548" lon="10.236023419743754"><ele>1.0</ele><time>2026-05-01T09:47:41Z</time></trkpt><trkpt lat="43.91454995608183" lon="10.236240638896922"><ele>1.0</ele><time>2026-05-01T09:47:42Z</time></trkpt><trkpt lat="43.91432459315492" lon="10.236460162007365"><ele>1.0</ele><time>2026-05-01T09:47:43Z</time></trkpt><trkpt lat="43.91409668990329" lon="10.236682422955386"><ele>1.0</ele><time>2026-05-01T09:47:44Z</time></trkpt><trkpt lat="43.91386757463975" lon="10.236905008717972"><ele>1.0</ele><time>2026-05-01T09:47:45Z</time></trkpt><trkpt lat="43.91363989048343" lon="10.237126508103447"><ele>1.0</ele><time>2026-05-01T09:47:46Z</time></trkpt><trkpt lat="43.91341507638684" lon="10.237346706180249"><ele>1.5</ele><time>2026-05-01T09:47:47Z</time></trkpt><trkpt lat="43.913196155546586" lon="10.237562685018721"><ele>2.0</ele><time>2026-05-01T09:47:48Z</time></trkpt><trkpt lat="43.91297789573405" lon="10.237776247886933"><ele>2.0</ele><time>2026-05-01T09:47:49Z</time></trkpt><trkpt lat="43.91276037541341" lon="10.237989431235974"><ele>2.0</ele><time>2026-05-01T09:47:50Z</time></trkpt><trkpt lat="43.91254354617033" lon="10.23820194311845"><ele>1.0</ele><time>2026-05-01T09:47:51Z</time></trkpt><trkpt lat="43.912327583521254" lon="10.238411715703581"><ele>0.0</ele><time>2026-05-01T09:47:52Z</time></trkpt><trkpt lat="43.91211182688338" lon="10.238621404526395"><ele>0.0</ele><time>2026-05-01T09:47:53Z</time></trkpt><trkpt lat="43.91189559626876" lon="10.238831372208784"><ele>0.0</ele><time>2026-05-01T09:47:54Z</time></trkpt><trkpt lat="43.911680535083825" lon="10.239040676718588"><ele>1.0</ele><time>2026-05-01T09:47:55Z</time></trkpt><trkpt lat="43.911464433186445" lon="10.239250242789826"><ele>2.0</ele><time>2026-05-01T09:47:56Z</time></trkpt><trkpt lat="43.91124578898944" lon="10.239460334773408"><ele>2.0</ele><time>2026-05-01T09:47:57Z</time></trkpt><trkpt lat="43.911027479610766" lon="10.239671802998755"><ele>2.0</ele><time>2026-05-01T09:47:58Z</time></trkpt><trkpt lat="43.91081876419063" lon="10.239875495087043"><ele>1.5</ele><time>2026-05-01T09:47:59Z</time></trkpt><trkpt lat="43.910615513005276" lon="10.240071154703056"><ele>1.0</ele><time>2026-05-01T09:48:00Z</time></trkpt><trkpt lat="43.91041716815042" lon="10.240262842253001"><ele>1.0</ele><time>2026-05-01T09:48:01Z</time></trkpt><trkpt lat="43.91022805987555" lon="10.24044735209016"><ele>1.0</ele><time>2026-05-01T09:48:02Z</time></trkpt><trkpt lat="43.91004011879164" lon="10.240631927461722"><ele>0.5</ele><time>2026-05-01T09:48:03Z</time></trkpt><trkpt lat="43.90984898101586" lon="10.240818964077997"><ele>0.0</ele><time>2026-05-01T09:48:04Z</time></trkpt><trkpt lat="43.909653138925584" lon="10.241009774471141"><ele>0.0</ele><time>2026-05-01T09:48:05Z</time></trkpt><trkpt lat="43.909453942190666" lon="10.241204710979773"><ele>0.0</ele><time>2026-05-01T09:48:06Z</time></trkpt><trkpt lat="43.909252485307476" lon="10.241401313028692"><ele>1.0</ele><time>2026-05-01T09:48:07Z</time></trkpt><trkpt lat="43.90905136321211" lon="10.241599365064273"><ele>2.0</ele><time>2026-05-01T09:48:08Z</time></trkpt><trkpt lat="43.90885004970512" lon="10.241800829897992"><ele>2.0</ele><time>2026-05-01T09:48:09Z</time></trkpt><trkpt lat="43.908646040522214" lon="10.242008775279805"><ele>2.0</ele><time>2026-05-01T09:48:10Z</time></trkpt><trkpt lat="43.90844127710634" lon="10.242222211799975"><ele>2.0</ele><time>2026-05-01T09:48:11Z</time></trkpt><trkpt lat="43.908235214013956" lon="10.242439296394306"><ele>2.0</ele><time>2026-05-01T09:48:12Z</time></trkpt><trkpt lat="43.908030141881206" lon="10.242662268171545"><ele>2.0</ele><time>2026-05-01T09:48:13Z</time></trkpt><trkpt lat="43.90782581289619" lon="10.242890203967068"><ele>2.0</ele><time>2026-05-01T09:48:14Z</time></trkpt><trkpt lat="43.90762246774116" lon="10.243119978203676"><ele>2.0</ele><time>2026-05-01T09:48:15Z</time></trkpt><trkpt lat="43.90741936712878" lon="10.243350033646237"><ele>2.0</ele><time>2026-05-01T09:48:16Z</time></trkpt><trkpt lat="43.90721581080655" lon="10.243578632585589"><ele>2.0</ele><time>2026-05-01T09:48:17Z</time></trkpt><trkpt lat="43.907013417679536" lon="10.243806534020154"><ele>2.0</ele><time>2026-05-01T09:48:18Z</time></trkpt><trkpt lat="43.90680685586974" lon="10.244037606037239"><ele>1.5</ele><time>2026-05-01T09:48:18.999Z</time></trkpt><trkpt lat="43.906599439876096" lon="10.244272785596788"><ele>1.0</ele><time>2026-05-01T09:48:19.999Z</time></trkpt><trkpt lat="43.906393635331135" lon="10.24450764494447"><ele>1.0</ele><time>2026-05-01T09:48:20.999Z</time></trkpt><trkpt lat="43.906185953971864" lon="10.24474432017105"><ele>1.0</ele><time>2026-05-01T09:48:21.999Z</time></trkpt><trkpt lat="43.90597337430614" lon="10.244984752165127"><ele>1.0</ele><time>2026-05-01T09:48:22.999Z</time></trkpt><trkpt lat="43.905759808905685" lon="10.245225937561111"><ele>1.0</ele><time>2026-05-01T09:48:23.999Z</time></trkpt><trkpt lat="43.905541796667436" lon="10.2454712687919"><ele>0.0</ele><time>2026-05-01T09:48:24.999Z</time></trkpt><trkpt lat="43.905324386591545" lon="10.245716504253457"><ele>-1.0</ele><time>2026-05-01T09:48:25.999Z</time></trkpt><trkpt lat="43.905104894149595" lon="10.245967290403208"><ele>0.0</ele><time>2026-05-01T09:48:26.999Z</time></trkpt><trkpt lat="43.90488482360974" lon="10.246218561716846"><ele>1.0</ele><time>2026-05-01T09:48:27.999Z</time></trkpt><trkpt lat="43.904664327202866" lon="10.246468874795728"><ele>1.0</ele><time>2026-05-01T09:48:28.999Z</time></trkpt><trkpt lat="43.904445310424734" lon="10.246717230099435"><ele>1.0</ele><time>2026-05-01T09:48:29.999Z</time></trkpt><trkpt lat="43.90423101413052" lon="10.246961481060536"><ele>1.0</ele><time>2026-05-01T09:48:30.999Z</time></trkpt><trkpt lat="43.90402171645236" lon="10.247197978761088"><ele>1.0</ele><time>2026-05-01T09:48:31.999Z</time></trkpt><trkpt lat="43.90382175014914" lon="10.247425698734336"><ele>1.0</ele><time>2026-05-01T09:48:32.999Z</time></trkpt><trkpt lat="43.90363070967856" lon="10.247644344072802"><ele>1.0</ele><time>2026-05-01T09:48:33.999Z</time></trkpt><trkpt lat="43.903441091189684" lon="10.247858989111354"><ele>1.5</ele><time>2026-05-01T09:48:34.999Z</time></trkpt><trkpt lat="43.90325330423576" lon="10.248071357576674"><ele>2.0</ele><time>2026-05-01T09:48:35.999Z</time></trkpt><trkpt lat="43.90306766540591" lon="10.248282270672805"><ele>2.5</ele><time>2026-05-01T09:48:36.999Z</time></trkpt><trkpt lat="43.90288214005451" lon="10.248493214193525"><ele>3.0</ele><time>2026-05-01T09:48:37.999Z</time></trkpt><trkpt lat="43.90269475669294" lon="10.24870569120512"><ele>3.0</ele><time>2026-05-01T09:48:38.999Z</time></trkpt><trkpt lat="43.902505213280136" lon="10.248919440585746"><ele>3.0</ele><time>2026-05-01T09:48:39.999Z</time></trkpt><trkpt lat="43.90231715249874" lon="10.249133607775354"><ele>3.0</ele><time>2026-05-01T09:48:40.999Z</time></trkpt><trkpt lat="43.90212677567613" lon="10.249350603781417"><ele>3.0</ele><time>2026-05-01T09:48:41.999Z</time></trkpt><trkpt lat="43.90193425875112" lon="10.24956874228814"><ele>3.0</ele><time>2026-05-01T09:48:42.999Z</time></trkpt><trkpt lat="43.90173822371699" lon="10.249788163657074"><ele>3.0</ele><time>2026-05-01T09:48:43.999Z</time></trkpt><trkpt lat="43.901540423167795" lon="10.250012907153012"><ele>3.0</ele><time>2026-05-01T09:48:44.999Z</time></trkpt><trkpt lat="43.90134183196265" lon="10.250240453576042"><ele>3.0</ele><time>2026-05-01T09:48:45.999Z</time></trkpt><trkpt lat="43.9011411345626" lon="10.250469569313548"><ele>3.0</ele><time>2026-05-01T09:48:46.999Z</time></trkpt><trkpt lat="43.9009389297238" lon="10.250700686371848"><ele>3.0</ele><time>2026-05-01T09:48:47.999Z</time></trkpt><trkpt lat="43.90073558792084" lon="10.25092927742218"><ele>3.5</ele><time>2026-05-01T09:48:48.999Z</time></trkpt><trkpt lat="43.90053242554764" lon="10.251157937682075"><ele>4.0</ele><time>2026-05-01T09:48:49.999Z</time></trkpt><trkpt lat="43.90032856202513" lon="10.251388429512792"><ele>3.5</ele><time>2026-05-01T09:48:50.999Z</time></trkpt><trkpt lat="43.90012421136133" lon="10.251619450208878"><ele>3.0</ele><time>2026-05-01T09:48:51.999Z</time></trkpt><trkpt lat="43.899919216824145" lon="10.251853477998857"><ele>3.0</ele><time>2026-05-01T09:48:52.999Z</time></trkpt><trkpt lat="43.89971339273678" lon="10.252086551955868"><ele>3.0</ele><time>2026-05-01T09:48:53.999Z</time></trkpt><trkpt lat="43.899507653860724" lon="10.252318284557607"><ele>3.0</ele><time>2026-05-01T09:48:54.999Z</time></trkpt><trkpt lat="43.89930479768989" lon="10.252550447293848"><ele>3.0</ele><time>2026-05-01T09:48:55.999Z</time></trkpt><trkpt lat="43.89909997836269" lon="10.252783865308809"><ele>3.0</ele><time>2026-05-01T09:48:56.999Z</time></trkpt><trkpt lat="43.8988936130176" lon="10.25301843685589"><ele>3.0</ele><time>2026-05-01T09:48:57.999Z</time></trkpt><trkpt lat="43.898686830247364" lon="10.253253534136514"><ele>3.0</ele><time>2026-05-01T09:48:58.999Z</time></trkpt><trkpt lat="43.898478600170854" lon="10.25349000811483"><ele>3.0</ele><time>2026-05-01T09:48:59.999Z</time></trkpt><trkpt lat="43.8982708887823" lon="10.253722958637159"><ele>1.0</ele><time>2026-05-01T09:49:00.999Z</time></trkpt><trkpt lat="43.898066741442605" lon="10.2539552615022"><ele>-1.0</ele><time>2026-05-01T09:49:01.999Z</time></trkpt><trkpt lat="43.89786356599786" lon="10.254185436585207"><ele>-1.0</ele><time>2026-05-01T09:49:02.999Z</time></trkpt><trkpt lat="43.89765739625985" lon="10.254419998467563"><ele>-1.0</ele><time>2026-05-01T09:49:03.999Z</time></trkpt><trkpt lat="43.897449153214275" lon="10.254657735248355"><ele>-0.5</ele><time>2026-05-01T09:49:04.999Z</time></trkpt><trkpt lat="43.89723629671108" lon="10.254897319070732"><ele>0.0</ele><time>2026-05-01T09:49:05.999Z</time></trkpt><trkpt lat="43.89702030039395" lon="10.255138124515861"><ele>0.0</ele><time>2026-05-01T09:49:06.999Z</time></trkpt><trkpt lat="43.89680288354003" lon="10.255380491289715"><ele>0.0</ele><time>2026-05-01T09:49:07.999Z</time></trkpt><trkpt lat="43.89658072747691" lon="10.255629824750264"><ele>1.0</ele><time>2026-05-01T09:49:08.999Z</time></trkpt><trkpt lat="43.89635616180346" lon="10.255881251182723"><ele>2.0</ele><time>2026-05-01T09:49:09.999Z</time></trkpt><trkpt lat="43.89613267105995" lon="10.256136272685762"><ele>1.0</ele><time>2026-05-01T09:49:10.999Z</time></trkpt><trkpt lat="43.89590729331631" lon="10.2563847933424"><ele>0.0</ele><time>2026-05-01T09:49:11.999Z</time></trkpt><trkpt lat="43.89568126060504" lon="10.256631936039657"><ele>-0.5</ele><time>2026-05-01T09:49:12.999Z</time></trkpt><trkpt lat="43.89545268615821" lon="10.256884608932904"><ele>-1.0</ele><time>2026-05-01T09:49:13.999Z</time></trkpt><trkpt lat="43.89521715164962" lon="10.257136793327266"><ele>-0.5</ele><time>2026-05-01T09:49:14.999Z</time></trkpt><trkpt lat="43.89497022771279" lon="10.257376230203572"><ele>0.0</ele><time>2026-05-01T09:49:15.999Z</time></trkpt><trkpt lat="43.89472117416519" lon="10.25760856882715"><ele>0.0</ele><time>2026-05-01T09:49:16.999Z</time></trkpt><trkpt lat="43.894467982652365" lon="10.257836479264231"><ele>0.0</ele><time>2026-05-01T09:49:17.999Z</time></trkpt><trkpt lat="43.89421297528723" lon="10.258060799726227"><ele>0.0</ele><time>2026-05-01T09:49:18.999Z</time></trkpt><trkpt lat="43.893961426360676" lon="10.258278717674434"><ele>0.0</ele><time>2026-05-01T09:49:19.999Z</time></trkpt><trkpt lat="43.89370988104867" lon="10.25848933569993"><ele>0.0</ele><time>2026-05-01T09:49:20.999Z</time></trkpt><trkpt lat="43.89345601891086" lon="10.258689578522569"><ele>0.0</ele><time>2026-05-01T09:49:21.999Z</time></trkpt><trkpt lat="43.89319699342073" lon="10.258885682699924"><ele>0.5</ele><time>2026-05-01T09:49:23Z</time></trkpt><trkpt lat="43.89293854467687" lon="10.25907979071454"><ele>1.0</ele><time>2026-05-01T09:49:24Z</time></trkpt><trkpt lat="43.89268172124738" lon="10.25926720540909"><ele>0.5</ele><time>2026-05-01T09:49:25Z</time></trkpt><trkpt lat="43.89242775965488" lon="10.259450576085928"><ele>0.0</ele><time>2026-05-01T09:49:26Z</time></trkpt><trkpt lat="43.892182137645655" lon="10.259626034211996"><ele>0.0</ele><time>2026-05-01T09:49:27Z</time></trkpt><trkpt lat="43.89195038917021" lon="10.259795702124228"><ele>0.0</ele><time>2026-05-01T09:49:28Z</time></trkpt><trkpt lat="43.89172677540491" lon="10.25995694099854"><ele>-0.5</ele><time>2026-05-01T09:49:29Z</time></trkpt><trkpt lat="43.89151291245849" lon="10.26010647580945"><ele>-1.0</ele><time>2026-05-01T09:49:30Z</time></trkpt><trkpt lat="43.891306204998294" lon="10.26025062620275"><ele>-1.0</ele><time>2026-05-01T09:49:31Z</time></trkpt><trkpt lat="43.89110903228783" lon="10.260386428970463"><ele>-1.0</ele><time>2026-05-01T09:49:32Z</time></trkpt><trkpt lat="43.89091976393673" lon="10.26051947120684"><ele>-1.0</ele><time>2026-05-01T09:49:33Z</time></trkpt><trkpt lat="43.890729278160826" lon="10.260649068731281"><ele>-0.3333333333333333</ele><time>2026-05-01T09:49:34Z</time></trkpt><trkpt lat="43.8905346615315" lon="10.260778977073164"><ele>0.3333333333333333</ele><time>2026-05-01T09:49:35Z</time></trkpt><trkpt lat="43.89033510197247" lon="10.260913060915614"><ele>1.0</ele><time>2026-05-01T09:49:36Z</time></trkpt><trkpt lat="43.89012950248174" lon="10.261054979430797"><ele>0.0</ele><time>2026-05-01T09:49:37Z</time></trkpt><trkpt lat="43.88991704546672" lon="10.261203122974614"><ele>-1.0</ele><time>2026-05-01T09:49:38Z</time></trkpt><trkpt lat="43.88970165492892" lon="10.261351325244389"><ele>-0.5</ele><time>2026-05-01T09:49:39Z</time></trkpt><trkpt lat="43.88949113279013" lon="10.261499762934898"><ele>0.0</ele><time>2026-05-01T09:49:40Z</time></trkpt><trkpt lat="43.88928401853061" lon="10.261645248414885"><ele>-0.5</ele><time>2026-05-01T09:49:41Z</time></trkpt><trkpt lat="43.88907968673529" lon="10.261788475104403"><ele>-1.0</ele><time>2026-05-01T09:49:42Z</time></trkpt><trkpt lat="43.88888075210962" lon="10.261930959308199"><ele>-1.0</ele><time>2026-05-01T09:49:43Z</time></trkpt><trkpt lat="43.88868573495608" lon="10.262071841001243"><ele>-1.0</ele><time>2026-05-01T09:49:44Z</time></trkpt><trkpt lat="43.88849376942379" lon="10.2622065270223"><ele>-1.0</ele><time>2026-05-01T09:49:45Z</time></trkpt><trkpt lat="43.88830560406835" lon="10.262339209269836"><ele>-1.0</ele><time>2026-05-01T09:49:46Z</time></trkpt><trkpt lat="43.88811992065705" lon="10.262470705206535"><ele>-1.0</ele><time>2026-05-01T09:49:47Z</time></trkpt><trkpt lat="43.88794109063935" lon="10.262596882324964"><ele>-1.0</ele><time>2026-05-01T09:49:48Z</time></trkpt><trkpt lat="43.88777070754074" lon="10.262713550081813"><ele>-1.0</ele><time>2026-05-01T09:49:49Z</time></trkpt><trkpt lat="43.887607870500325" lon="10.262810402402094"><ele>-1.0</ele><time>2026-05-01T09:49:50Z</time></trkpt><trkpt lat="43.88744224325723" lon="10.262886507187897"><ele>-1.0</ele><time>2026-05-01T09:49:51Z</time></trkpt><trkpt lat="43.88727541877591" lon="10.262942532735664"><ele>-0.6666666666666666</ele><time>2026-05-01T09:49:52Z</time></trkpt><trkpt lat="43.88710759022806" lon="10.262964587514022"><ele>-0.3333333333333333</ele><time>2026-05-01T09:49:53Z</time></trkpt><trkpt lat="43.88694138367865" lon="10.262951851241192"><ele>0.0</ele><time>2026-05-01T09:49:54Z</time></trkpt><trkpt lat="43.886777801574006" lon="10.262907586094839"><ele>-0.5</ele><time>2026-05-01T09:49:55Z</time></trkpt><trkpt lat="43.88663656445044" lon="10.262831721715413"><ele>-1.0</ele><time>2026-05-01T09:49:56Z</time></trkpt><trkpt lat="43.88652165928299" lon="10.2627308408255"><ele>-1.5</ele><time>2026-05-01T09:49:57Z</time></trkpt><trkpt lat="43.88643234596318" lon="10.262609872561194"><ele>-2.0</ele><time>2026-05-01T09:49:58Z</time></trkpt><trkpt lat="43.88635894832765" lon="10.262457446326973"><ele>-2.0</ele><time>2026-05-01T09:49:59Z</time></trkpt><trkpt lat="43.88630092409344" lon="10.2622870682036"><ele>-2.0</ele><time>2026-05-01T09:50:00Z</time></trkpt><trkpt lat="43.88626283487021" lon="10.26210100604495"><ele>-2.0</ele><time>2026-05-01T09:50:01Z</time></trkpt><trkpt lat="43.88625136417922" lon="10.261917548832184"><ele>-2.0</ele><time>2026-05-01T09:50:02Z</time></trkpt><trkpt lat="43.886267501901294" lon="10.26172887081285"><ele>-2.0</ele><time>2026-05-01T09:50:03Z</time></trkpt><trkpt lat="43.886310529852324" lon="10.26154407293476"><ele>-2.0</ele><time>2026-05-01T09:50:04Z</time></trkpt><trkpt lat="43.88638056701291" lon="10.261374975992178"><ele>-2.0</ele><time>2026-05-01T09:50:05Z</time></trkpt><trkpt lat="43.88647337103269" lon="10.2612276374998"><ele>-2.0</ele><time>2026-05-01T09:50:06Z</time></trkpt><trkpt lat="43.88658055468283" lon="10.261103619941597"><ele>-1.5</ele><time>2026-05-01T09:50:07Z</time></trkpt><trkpt lat="43.88670527055063" lon="10.261013573263247"><ele>-1.0</ele><time>2026-05-01T09:50:08Z</time></trkpt><trkpt lat="43.8868437024654" lon="10.26095990918591"><ele>-0.5</ele><time>2026-05-01T09:50:09Z</time></trkpt><trkpt lat="43.88698716774362" lon="10.260945814033317"><ele>0.0</ele><time>2026-05-01T09:50:10Z</time></trkpt><trkpt lat="43.887131612568254" lon="10.260969582983511"><ele>0.25</ele><time>2026-05-01T09:50:11Z</time></trkpt><trkpt lat="43.88727183303811" lon="10.261031621370135"><ele>0.5</ele><time>2026-05-01T09:50:12Z</time></trkpt><trkpt lat="43.88739992970593" lon="10.261138380378025"><ele>0.75</ele><time>2026-05-01T09:50:13Z</time></trkpt><trkpt lat="43.887510783459554" lon="10.261283022411417"><ele>1.0</ele><time>2026-05-01T09:50:14Z</time></trkpt><trkpt lat="43.887610739709196" lon="10.261448929676002"><ele>1.0</ele><time>2026-05-01T09:50:15Z</time></trkpt><trkpt lat="43.88769964856405" lon="10.261635089252122"><ele>1.0</ele><time>2026-05-01T09:50:16Z</time></trkpt><trkpt lat="43.88778216909181" lon="10.261837504350979"><ele>1.0</ele><time>2026-05-01T09:50:17Z</time></trkpt><trkpt lat="43.88785985062551" lon="10.26204945303659"><ele>1.0</ele><time>2026-05-01T09:50:18Z</time></trkpt><trkpt lat="43.887937467791915" lon="10.262266336119762"><ele>1.0</ele><time>2026-05-01T09:50:19Z</time></trkpt><trkpt lat="43.888018952783874" lon="10.262481973293713"><ele>1.0</ele><time>2026-05-01T09:50:20Z</time></trkpt><trkpt lat="43.888104512077966" lon="10.262701901448578"><ele>1.0</ele><time>2026-05-01T09:50:21Z</time></trkpt><trkpt lat="43.888193238407986" lon="10.262934667583686"><ele>1.0</ele><time>2026-05-01T09:50:22Z</time></trkpt><trkpt lat="43.88828684100657" lon="10.263186430746618"><ele>1.0</ele><time>2026-05-01T09:50:23Z</time></trkpt><trkpt lat="43.8883808676978" lon="10.26344140583114"><ele>0.6666666666666666</ele><time>2026-05-01T09:50:24Z</time></trkpt><trkpt lat="43.88848049975288" lon="10.263706102186305"><ele>0.3333333333333333</ele><time>2026-05-01T09:50:25Z</time></trkpt><trkpt lat="43.88858620536701" lon="10.263981651229948"><ele>0.0</ele><time>2026-05-01T09:50:26Z</time></trkpt><trkpt lat="43.88869596868032" lon="10.264265134538045"><ele>0.0</ele><time>2026-05-01T09:50:27Z</time></trkpt><trkpt lat="43.888804800104225" lon="10.264558781186363"><ele>0.0</ele><time>2026-05-01T09:50:27.999Z</time></trkpt><trkpt lat="43.88891564393279" lon="10.264861236275097"><ele>0.0</ele><time>2026-05-01T09:50:28.999Z</time></trkpt><trkpt lat="43.88902982918824" lon="10.265167483793688"><ele>0.0</ele><time>2026-05-01T09:50:29.999Z</time></trkpt><trkpt lat="43.88914502870112" lon="10.265471957871515"><ele>0.0</ele><time>2026-05-01T09:50:30.999Z</time></trkpt><trkpt lat="43.88926345468164" lon="10.265787267098563"><ele>0.0</ele><time>2026-05-01T09:50:31.999Z</time></trkpt><trkpt lat="43.8893854631041" lon="10.266111286351277"><ele>0.0</ele><time>2026-05-01T09:50:32.999Z</time></trkpt><trkpt lat="43.88950922936273" lon="10.26644162022928"><ele>0.0</ele><time>2026-05-01T09:50:33.999Z</time></trkpt><trkpt lat="43.88963373510557" lon="10.266776334164128"><ele>0.0</ele><time>2026-05-01T09:50:34.999Z</time></trkpt><trkpt lat="43.889760765419894" lon="10.267115043162237"><ele>0.0</ele><time>2026-05-01T09:50:35.999Z</time></trkpt><trkpt lat="43.889887654061994" lon="10.267454337004496"><ele>0.5</ele><time>2026-05-01T09:50:36.999Z</time></trkpt><trkpt lat="43.89001699902835" lon="10.267804176497904"><ele>1.0</ele><time>2026-05-01T09:50:37.999Z</time></trkpt><trkpt lat="43.890152255898734" lon="10.268167184729377"><ele>-0.5</ele><time>2026-05-01T09:50:38.999Z</time></trkpt><trkpt lat="43.89029657948603" lon="10.268546905025294"><ele>-2.0</ele><time>2026-05-01T09:50:39.999Z</time></trkpt><trkpt lat="43.89044185847618" lon="10.268933455315041"><ele>-1.5</ele><time>2026-05-01T09:50:40.999Z</time></trkpt><trkpt lat="43.89058795953234" lon="10.26932389780766"><ele>-1.0</ele><time>2026-05-01T09:50:41.999Z</time></trkpt><trkpt lat="43.89073501190512" lon="10.269719759837143"><ele>-2.0</ele><time>2026-05-01T09:50:42.999Z</time></trkpt><trkpt lat="43.89088153445434" lon="10.270119744731764"><ele>-3.0</ele><time>2026-05-01T09:50:43.999Z</time></trkpt><trkpt lat="43.89103022917066" lon="10.270523215834176"><ele>-3.0</ele><time>2026-05-01T09:50:44.999Z</time></trkpt><trkpt lat="43.89117850992804" lon="10.270927793689713"><ele>-3.0</ele><time>2026-05-01T09:50:45.999Z</time></trkpt><trkpt lat="43.89132967740232" lon="10.271330494086785"><ele>-3.0</ele><time>2026-05-01T09:50:46.999Z</time></trkpt><trkpt lat="43.891481557360265" lon="10.271731973136736"><ele>-3.0</ele><time>2026-05-01T09:50:47.999Z</time></trkpt><trkpt lat="43.891633661431676" lon="10.272133862001724"><ele>-3.0</ele><time>2026-05-01T09:50:48.999Z</time></trkpt><trkpt lat="43.891783600432014" lon="10.27253784074572"><ele>-3.0</ele><time>2026-05-01T09:50:49.999Z</time></trkpt><trkpt lat="43.891925055481735" lon="10.272955118767882"><ele>-2.5</ele><time>2026-05-01T09:50:50.999Z</time></trkpt><trkpt lat="43.89205383834928" lon="10.27338246196288"><ele>-2.0</ele><time>2026-05-01T09:50:51.999Z</time></trkpt><trkpt lat="43.89217189924205" lon="10.273820795665584"><ele>-2.0</ele><time>2026-05-01T09:50:52.999Z</time></trkpt><trkpt lat="43.89227580108398" lon="10.274270056729444"><ele>-2.0</ele><time>2026-05-01T09:50:53.999Z</time></trkpt><trkpt lat="43.89236417317453" lon="10.274726492675953"><ele>-2.0</ele><time>2026-05-01T09:50:54.999Z</time></trkpt><trkpt lat="43.89243780416962" lon="10.275185998519884"><ele>-2.0</ele><time>2026-05-01T09:50:55.999Z</time></trkpt><trkpt lat="43.89249563808001" lon="10.275648583939574"><ele>-2.0</ele><time>2026-05-01T09:50:56.999Z</time></trkpt><trkpt lat="43.892533730173184" lon="10.27611328431307"><ele>-2.0</ele><time>2026-05-01T09:50:57.999Z</time></trkpt><trkpt lat="43.89255071571843" lon="10.276580475581458"><ele>-2.5</ele><time>2026-05-01T09:50:58.999Z</time></trkpt><trkpt lat="43.89255475073165" lon="10.277046047286408"><ele>-3.0</ele><time>2026-05-01T09:50:59.999Z</time></trkpt><trkpt lat="43.89254541617926" lon="10.27750929180921"><ele>-3.0</ele><time>2026-05-01T09:51:00.999Z</time></trkpt><trkpt lat="43.89252247348302" lon="10.277973419892504"><ele>-3.0</ele><time>2026-05-01T09:51:01.999Z</time></trkpt><trkpt lat="43.89248437466518" lon="10.278438600944126"><ele>-2.0</ele><time>2026-05-01T09:51:02.999Z</time></trkpt><trkpt lat="43.892426069669604" lon="10.278899502366608"><ele>-1.0</ele><time>2026-05-01T09:51:03.999Z</time></trkpt><trkpt lat="43.89235435315021" lon="10.279356189653136"><ele>0.0</ele><time>2026-05-01T09:51:04.999Z</time></trkpt><trkpt lat="43.892265406105466" lon="10.279806873592838"><ele>1.0</ele><time>2026-05-01T09:51:05.999Z</time></trkpt><trkpt lat="43.89215949114853" lon="10.280253011447584"><ele>0.5</ele><time>2026-05-01T09:51:06.999Z</time></trkpt><trkpt lat="43.892040575105604" lon="10.280695552821243"><ele>0.0</ele><time>2026-05-01T09:51:07.999Z</time></trkpt><trkpt lat="43.89190883597152" lon="10.28113197705689"><ele>-1.0</ele><time>2026-05-01T09:51:08.999Z</time></trkpt><trkpt lat="43.891769685190816" lon="10.281565263218537"><ele>-2.0</ele><time>2026-05-01T09:51:09.999Z</time></trkpt><trkpt lat="43.89162599426435" lon="10.281999151166081"><ele>-1.5</ele><time>2026-05-01T09:51:10.999Z</time></trkpt><trkpt lat="43.891478120466545" lon="10.282431353858845"><ele>-1.0</ele><time>2026-05-01T09:51:11.999Z</time></trkpt><trkpt lat="43.891329730500274" lon="10.282861566408855"><ele>-1.0</ele><time>2026-05-01T09:51:12.999Z</time></trkpt><trkpt lat="43.891181350608385" lon="10.2832908813762"><ele>-1.0</ele><time>2026-05-01T09:51:13.999Z</time></trkpt><trkpt lat="43.891034166488495" lon="10.283719024419607"><ele>-1.0</ele><time>2026-05-01T09:51:14.999Z</time></trkpt><trkpt lat="43.89088750029526" lon="10.284145178543659"><ele>-1.0</ele><time>2026-05-01T09:51:15.999Z</time></trkpt><trkpt lat="43.89074108306551" lon="10.284571966321769"><ele>-1.0</ele><time>2026-05-01T09:51:16.999Z</time></trkpt><trkpt lat="43.890596641014994" lon="10.284995725305219"><ele>-1.0</ele><time>2026-05-01T09:51:17.999Z</time></trkpt><trkpt lat="43.8904529383688" lon="10.285420065374776"><ele>-1.5</ele><time>2026-05-01T09:51:18.999Z</time></trkpt><trkpt lat="43.890309135327286" lon="10.285841549065136"><ele>-2.0</ele><time>2026-05-01T09:51:19.999Z</time></trkpt><trkpt lat="43.890166282760035" lon="10.286259370258373"><ele>-1.5</ele><time>2026-05-01T09:51:20.999Z</time></trkpt><trkpt lat="43.890024872299094" lon="10.286677315949582"><ele>-1.0</ele><time>2026-05-01T09:51:21.999Z</time></trkpt><trkpt lat="43.88988418756196" lon="10.287094863818423"><ele>-0.5</ele><time>2026-05-01T09:51:22.999Z</time></trkpt><trkpt lat="43.88974294735802" lon="10.287513852042146"><ele>0.0</ele><time>2026-05-01T09:51:23.999Z</time></trkpt><trkpt lat="43.88960080847171" lon="10.287937233310938"><ele>0.0</ele><time>2026-05-01T09:51:24.999Z</time></trkpt><trkpt lat="43.889458601932816" lon="10.288363387050618"><ele>0.0</ele><time>2026-05-01T09:51:25.999Z</time></trkpt><trkpt lat="43.88931567133224" lon="10.2887917507567"><ele>-1.0</ele><time>2026-05-01T09:51:26.999Z</time></trkpt><trkpt lat="43.889172090085005" lon="10.289220481567742"><ele>-2.0</ele><time>2026-05-01T09:51:27.999Z</time></trkpt><trkpt lat="43.88902620548536" lon="10.289649820568748"><ele>-1.5</ele><time>2026-05-01T09:51:29Z</time></trkpt><trkpt lat="43.88888029023019" lon="10.29007751436292"><ele>-1.0</ele><time>2026-05-01T09:51:30Z</time></trkpt><trkpt lat="43.8887349855233" lon="10.290505874802498"><ele>-1.0</ele><time>2026-05-01T09:51:31Z</time></trkpt><trkpt lat="43.88858961894287" lon="10.290935041150563"><ele>-1.0</ele><time>2026-05-01T09:51:32Z</time></trkpt><trkpt lat="43.888445810662944" lon="10.291362817423716"><ele>0.0</ele><time>2026-05-01T09:51:33Z</time></trkpt><trkpt lat="43.888304622628795" lon="10.291787864851178"><ele>1.0</ele><time>2026-05-01T09:51:34Z</time></trkpt><trkpt lat="43.88816203039711" lon="10.292210867482483"><ele>1.0</ele><time>2026-05-01T09:51:35Z</time></trkpt><trkpt lat="43.8880190452999" lon="10.2926344029111"><ele>1.0</ele><time>2026-05-01T09:51:36Z</time></trkpt><trkpt lat="43.88787662964774" lon="10.29305822583187"><ele>0.5</ele><time>2026-05-01T09:51:37Z</time></trkpt><trkpt lat="43.887733833459684" lon="10.293483101631299"><ele>0.0</ele><time>2026-05-01T09:51:38Z</time></trkpt><trkpt lat="43.88759291273873" lon="10.293904868252863"><ele>0.5</ele><time>2026-05-01T09:51:39Z</time></trkpt><trkpt lat="43.88745313146664" lon="10.294326246603072"><ele>1.0</ele><time>2026-05-01T09:51:40Z</time></trkpt><trkpt lat="43.88731238546782" lon="10.294748056648176"><ele>1.0</ele><time>2026-05-01T09:51:41Z</time></trkpt><trkpt lat="43.88717185959873" lon="10.295168960416605"><ele>1.0</ele><time>2026-05-01T09:51:42Z</time></trkpt><trkpt lat="43.88702962495452" lon="10.295592006607725"><ele>1.0</ele><time>2026-05-01T09:51:43Z</time></trkpt><trkpt lat="43.886885970638986" lon="10.296017700331472"><ele>1.0</ele><time>2026-05-01T09:51:44Z</time></trkpt><trkpt lat="43.88674170862113" lon="10.296446272680676"><ele>0.5</ele><time>2026-05-01T09:51:45Z</time></trkpt><trkpt lat="43.88659767250848" lon="10.29687778047671"><ele>0.0</ele><time>2026-05-01T09:51:46Z</time></trkpt><trkpt lat="43.88645247294543" lon="10.297310650202746"><ele>0.0</ele><time>2026-05-01T09:51:47Z</time></trkpt><trkpt lat="43.88630664018258" lon="10.29774308569066"><ele>0.0</ele><time>2026-05-01T09:51:48Z</time></trkpt><trkpt lat="43.88616042398347" lon="10.29817405599843"><ele>0.5</ele><time>2026-05-01T09:51:49Z</time></trkpt><trkpt lat="43.886015702175136" lon="10.298607091526945"><ele>1.0</ele><time>2026-05-01T09:51:50Z</time></trkpt><trkpt lat="43.885875915071665" lon="10.29904361551007"><ele>1.0</ele><time>2026-05-01T09:51:51Z</time></trkpt><trkpt lat="43.88574635339386" lon="10.299489178330134"><ele>1.0</ele><time>2026-05-01T09:51:52Z</time></trkpt><trkpt lat="43.885626443480284" lon="10.299934948310785"><ele>2.5</ele><time>2026-05-01T09:51:53Z</time></trkpt><trkpt lat="43.885523011875115" lon="10.300386558361346"><ele>4.0</ele><time>2026-05-01T09:51:54Z</time></trkpt><trkpt lat="43.885425494529464" lon="10.300836627943102"><ele>7.0</ele><time>2026-05-01T09:51:55Z</time></trkpt><trkpt lat="43.885327123220456" lon="10.301290107785563"><ele>10.0</ele><time>2026-05-01T09:51:56Z</time></trkpt><trkpt lat="43.88522590320108" lon="10.301744619036468"><ele>13.0</ele><time>2026-05-01T09:51:57Z</time></trkpt><trkpt lat="43.88512712270366" lon="10.302198031294507"><ele>16.0</ele><time>2026-05-01T09:51:58Z</time></trkpt><trkpt lat="43.885029910525475" lon="10.302654365933764"><ele>17.5</ele><time>2026-05-01T09:51:59Z</time></trkpt><trkpt lat="43.884931677086904" lon="10.303112602756864"><ele>19.0</ele><time>2026-05-01T09:52:00Z</time></trkpt><trkpt lat="43.8848299511713" lon="10.303570674924096"><ele>22.5</ele><time>2026-05-01T09:52:01Z</time></trkpt><trkpt lat="43.88472532329626" lon="10.304027351312733"><ele>26.0</ele><time>2026-05-01T09:52:02Z</time></trkpt><trkpt lat="43.88462318324231" lon="10.304483932967699"><ele>27.0</ele><time>2026-05-01T09:52:03Z</time></trkpt><trkpt lat="43.884524540590306" lon="10.30494398128578"><ele>28.0</ele><time>2026-05-01T09:52:04Z</time></trkpt><trkpt lat="43.884429715274685" lon="10.30540165316222"><ele>32.0</ele><time>2026-05-01T09:52:05Z</time></trkpt><trkpt lat="43.88433335877802" lon="10.305861944588706"><ele>36.0</ele><time>2026-05-01T09:52:06Z</time></trkpt><trkpt lat="43.884233963006125" lon="10.30632101605972"><ele>28.5</ele><time>2026-05-01T09:52:07Z</time></trkpt><trkpt lat="43.88413202999481" lon="10.306777435218004"><ele>21.0</ele><time>2026-05-01T09:52:08Z</time></trkpt><trkpt lat="43.884030712535136" lon="10.307230953185961"><ele>24.5</ele><time>2026-05-01T09:52:09Z</time></trkpt><trkpt lat="43.88393471260691" lon="10.307684639448345"><ele>28.0</ele><time>2026-05-01T09:52:10Z</time></trkpt><trkpt lat="43.883850037999345" lon="10.308142938326473"><ele>32.0</ele><time>2026-05-01T09:52:11Z</time></trkpt><trkpt lat="43.88378383931745" lon="10.308603394758462"><ele>36.0</ele><time>2026-05-01T09:52:12Z</time></trkpt><trkpt lat="43.883741240638855" lon="10.309069254649367"><ele>36.0</ele><time>2026-05-01T09:52:13Z</time></trkpt><trkpt lat="43.883724088457384" lon="10.309538895795093"><ele>36.0</ele><time>2026-05-01T09:52:13.999Z</time></trkpt><trkpt lat="43.883728112809216" lon="10.310009144661992"><ele>27.0</ele><time>2026-05-01T09:52:14.999Z</time></trkpt><trkpt lat="43.8837520215301" lon="10.31047886944403"><ele>18.0</ele><time>2026-05-01T09:52:15.999Z</time></trkpt><trkpt lat="43.8837906137377" lon="10.310944691113104"><ele>11.5</ele><time>2026-05-01T09:52:16.999Z</time></trkpt><trkpt lat="43.88384130586204" lon="10.311407047144769"><ele>5.0</ele><time>2026-05-01T09:52:17.999Z</time></trkpt><trkpt lat="43.88389585868946" lon="10.311866987378751"><ele>5.5</ele><time>2026-05-01T09:52:18.999Z</time></trkpt><trkpt lat="43.883951917158114" lon="10.312325792431706"><ele>6.0</ele><time>2026-05-01T09:52:19.999Z</time></trkpt><trkpt lat="43.88400678289282" lon="10.312787007448668"><ele>6.5</ele><time>2026-05-01T09:52:20.999Z</time></trkpt><trkpt lat="43.884058343883446" lon="10.313247606137221"><ele>7.0</ele><time>2026-05-01T09:52:21.999Z</time></trkpt><trkpt lat="43.88410547585924" lon="10.313706952527033"><ele>8.5</ele><time>2026-05-01T09:52:22.999Z</time></trkpt><trkpt lat="43.884148109356126" lon="10.314164291122077"><ele>10.0</ele><time>2026-05-01T09:52:23.999Z</time></trkpt><trkpt lat="43.88418224953743" lon="10.314621269204101"><ele>15.0</ele><time>2026-05-01T09:52:24.999Z</time></trkpt><trkpt lat="43.884198318478425" lon="10.315081364192494"><ele>20.0</ele><time>2026-05-01T09:52:25.999Z</time></trkpt><trkpt lat="43.884192999600906" lon="10.315547667574316"><ele>26.0</ele><time>2026-05-01T09:52:26.999Z</time></trkpt><trkpt lat="43.884168786679886" lon="10.316021455167435"><ele>32.0</ele><time>2026-05-01T09:52:27.999Z</time></trkpt><trkpt lat="43.884133692462484" lon="10.31649425746944"><ele>37.0</ele><time>2026-05-01T09:52:28.999Z</time></trkpt><trkpt lat="43.88409302746292" lon="10.316964520199766"><ele>42.0</ele><time>2026-05-01T09:52:29.999Z</time></trkpt><trkpt lat="43.884053983449554" lon="10.317430465808176"><ele>40.5</ele><time>2026-05-01T09:52:30.999Z</time></trkpt><trkpt lat="43.884015085060454" lon="10.31789568964648"><ele>39.0</ele><time>2026-05-01T09:52:31.999Z</time></trkpt><trkpt lat="43.88397517299143" lon="10.318357673136607"><ele>39.0</ele><time>2026-05-01T09:52:32.999Z</time></trkpt><trkpt lat="43.88393586866124" lon="10.318813546366158"><ele>39.0</ele><time>2026-05-01T09:52:33.999Z</time></trkpt><trkpt lat="43.88389597826746" lon="10.319271897924098"><ele>35.5</ele><time>2026-05-01T09:52:34.999Z</time></trkpt><trkpt lat="43.88385504412073" lon="10.319724852624713"><ele>32.0</ele><time>2026-05-01T09:52:35.999Z</time></trkpt><trkpt lat="43.883812464009665" lon="10.320173851819904"><ele>43.5</ele><time>2026-05-01T09:52:36.999Z</time></trkpt><trkpt lat="43.88376673729549" lon="10.320616976781386"><ele>55.0</ele><time>2026-05-01T09:52:37.999Z</time></trkpt><trkpt lat="43.88371182124041" lon="10.321040817383045"><ele>54.0</ele><time>2026-05-01T09:52:38.999Z</time></trkpt><trkpt lat="43.88364220304828" lon="10.321449370380417"><ele>53.0</ele><time>2026-05-01T09:52:39.999Z</time></trkpt><trkpt lat="43.88355846119538" lon="10.32184288118204"><ele>53.0</ele><time>2026-05-01T09:52:40.999Z</time></trkpt><trkpt lat="43.883467565902116" lon="10.322212075990915"><ele>53.0</ele><time>2026-05-01T09:52:41.999Z</time></trkpt><trkpt lat="43.88336519308931" lon="10.322573518996949"><ele>48.5</ele><time>2026-05-01T09:52:42.999Z</time></trkpt><trkpt lat="43.883252351078134" lon="10.322955552639163"><ele>44.0</ele><time>2026-05-01T09:52:43.999Z</time></trkpt><trkpt lat="43.88313577906295" lon="10.323355211519088"><ele>44.0</ele><time>2026-05-01T09:52:44.999Z</time></trkpt><trkpt lat="43.88301550806404" lon="10.323765809164403"><ele>44.0</ele><time>2026-05-01T09:52:45.999Z</time></trkpt><trkpt lat="43.8828897791601" lon="10.324186365420015"><ele>44.0</ele><time>2026-05-01T09:52:46.999Z</time></trkpt><trkpt lat="43.88276206520316" lon="10.324611868416493"><ele>44.0</ele><time>2026-05-01T09:52:47.999Z</time></trkpt><trkpt lat="43.8826338838031" lon="10.325041741182641"><ele>45.0</ele><time>2026-05-01T09:52:48.999Z</time></trkpt><trkpt lat="43.88250675521129" lon="10.325471003693435"><ele>46.0</ele><time>2026-05-01T09:52:49.999Z</time></trkpt><trkpt lat="43.882380645267965" lon="10.325900320257881"><ele>52.0</ele><time>2026-05-01T09:52:50.999Z</time></trkpt><trkpt lat="43.88225337833988" lon="10.326331432333836"><ele>58.0</ele><time>2026-05-01T09:52:51.999Z</time></trkpt><trkpt lat="43.8821237340482" lon="10.326763226574702"><ele>59.5</ele><time>2026-05-01T09:52:52.999Z</time></trkpt><trkpt lat="43.88199506875189" lon="10.327192232820545"><ele>61.0</ele><time>2026-05-01T09:52:53.999Z</time></trkpt><trkpt lat="43.88186890609774" lon="10.327620078777677"><ele>51.0</ele><time>2026-05-01T09:52:54.999Z</time></trkpt><trkpt lat="43.881744247741835" lon="10.328046355054218"><ele>41.0</ele><time>2026-05-01T09:52:55.999Z</time></trkpt><trkpt lat="43.88161972097178" lon="10.32847134735669"><ele>32.5</ele><time>2026-05-01T09:52:56.999Z</time></trkpt><trkpt lat="43.88149371314324" lon="10.32889857134656"><ele>24.0</ele><time>2026-05-01T09:52:57.999Z</time></trkpt><trkpt lat="43.881367285671125" lon="10.32932650832093"><ele>28.5</ele><time>2026-05-01T09:52:58.999Z</time></trkpt><trkpt lat="43.88123948416956" lon="10.32975336310543"><ele>33.0</ele><time>2026-05-01T09:52:59.999Z</time></trkpt><trkpt lat="43.88110930143136" lon="10.330185741685655"><ele>38.0</ele><time>2026-05-01T09:53:00.999Z</time></trkpt><trkpt lat="43.88098327845246" lon="10.33061878273601"><ele>43.0</ele><time>2026-05-01T09:53:01.999Z</time></trkpt><trkpt lat="43.880868272644484" lon="10.33105423216771"><ele>48.5</ele><time>2026-05-01T09:53:02.999Z</time></trkpt><trkpt lat="43.88076583289813" lon="10.33149571081073"><ele>54.0</ele><time>2026-05-01T09:53:03.999Z</time></trkpt><trkpt lat="43.880674759098305" lon="10.33194194511053"><ele>59.5</ele><time>2026-05-01T09:53:04.999Z</time></trkpt><trkpt lat="43.88059519130192" lon="10.332396767175215"><ele>65.0</ele><time>2026-05-01T09:53:05.999Z</time></trkpt><trkpt lat="43.88052589002347" lon="10.33284776011892"><ele>63.5</ele><time>2026-05-01T09:53:06.999Z</time></trkpt><trkpt lat="43.880466370599414" lon="10.333298378709634"><ele>62.0</ele><time>2026-05-01T09:53:07.999Z</time></trkpt><trkpt lat="43.88041043493414" lon="10.33375199456931"><ele>59.5</ele><time>2026-05-01T09:53:08.999Z</time></trkpt><trkpt lat="43.8803532744517" lon="10.33420713098178"><ele>57.0</ele><time>2026-05-01T09:53:09.999Z</time></trkpt><trkpt lat="43.880294283732475" lon="10.334658953661998"><ele>59.0</ele><time>2026-05-01T09:53:10.999Z</time></trkpt><trkpt lat="43.88023457731485" lon="10.335111846916092"><ele>61.0</ele><time>2026-05-01T09:53:11.999Z</time></trkpt><trkpt lat="43.88017829109825" lon="10.33556399732331"><ele>59.5</ele><time>2026-05-01T09:53:12.999Z</time></trkpt><trkpt lat="43.88012323293011" lon="10.336010879418929"><ele>58.0</ele><time>2026-05-01T09:53:13.999Z</time></trkpt><trkpt lat="43.88006927311218" lon="10.336448197049949"><ele>58.0</ele><time>2026-05-01T09:53:14.999Z</time></trkpt><trkpt lat="43.88001485401683" lon="10.336879847555544"><ele>58.0</ele><time>2026-05-01T09:53:15.999Z</time></trkpt><trkpt lat="43.87996066415444" lon="10.337300310051692"><ele>60.0</ele><time>2026-05-01T09:53:16.999Z</time></trkpt><trkpt lat="43.87990941955942" lon="10.33770562621011"><ele>62.0</ele><time>2026-05-01T09:53:17.999Z</time></trkpt><trkpt lat="43.87985920711795" lon="10.338107495882303"><ele>62.0</ele><time>2026-05-01T09:53:18.999Z</time></trkpt><trkpt lat="43.879807887087445" lon="10.338498214369764"><ele>62.0</ele><time>2026-05-01T09:53:19.999Z</time></trkpt><trkpt lat="43.87975026659713" lon="10.338878494715699"><ele>64.5</ele><time>2026-05-01T09:53:20.999Z</time></trkpt><trkpt lat="43.879679787568065" lon="10.339244449607397"><ele>67.0</ele><time>2026-05-01T09:53:21.999Z</time></trkpt><trkpt lat="43.87960002975672" lon="10.339599868740528"><ele>71.5</ele><time>2026-05-01T09:53:22.999Z</time></trkpt><trkpt lat="43.879508329320764" lon="10.339947568125089"><ele>76.0</ele><time>2026-05-01T09:53:23.999Z</time></trkpt><trkpt lat="43.879403103614706" lon="10.340295392125263"><ele>75.5</ele><time>2026-05-01T09:53:24.999Z</time></trkpt><trkpt lat="43.8792803796393" lon="10.34064779419259"><ele>75.0</ele><time>2026-05-01T09:53:25.999Z</time></trkpt><trkpt lat="43.879136626399784" lon="10.341003312199936"><ele>67.0</ele><time>2026-05-01T09:53:26.999Z</time></trkpt><trkpt lat="43.87897482205362" lon="10.341351621408965"><ele>59.0</ele><time>2026-05-01T09:53:27.999Z</time></trkpt><trkpt lat="43.87879874522427" lon="10.341694165853337"><ele>55.0</ele><time>2026-05-01T09:53:28.999Z</time></trkpt><trkpt lat="43.87860487354307" lon="10.342025426898026"><ele>51.0</ele><time>2026-05-01T09:53:29.999Z</time></trkpt><trkpt lat="43.87839892088311" lon="10.342344123150992"><ele>47.5</ele><time>2026-05-01T09:53:30.999Z</time></trkpt><trkpt lat="43.87817703581156" lon="10.34264615642499"><ele>44.0</ele><time>2026-05-01T09:53:31.999Z</time></trkpt><trkpt lat="43.87794468568487" lon="10.342932292636206"><ele>41.5</ele><time>2026-05-01T09:53:32.999Z</time></trkpt><trkpt lat="43.87770756910279" lon="10.34320088606197"><ele>39.0</ele><time>2026-05-01T09:53:33.999Z</time></trkpt><trkpt lat="43.87746679710703" lon="10.343456776073372"><ele>39.0</ele><time>2026-05-01T09:53:35Z</time></trkpt><trkpt lat="43.877226990618496" lon="10.343713826114287"><ele>39.0</ele><time>2026-05-01T09:53:36Z</time></trkpt><trkpt lat="43.87698899539675" lon="10.34397322581796"><ele>40.5</ele><time>2026-05-01T09:53:37Z</time></trkpt><trkpt lat="43.87675108193896" lon="10.344230287331147"><ele>42.0</ele><time>2026-05-01T09:53:38Z</time></trkpt><trkpt lat="43.87651554147049" lon="10.344484356034313"><ele>45.0</ele><time>2026-05-01T09:53:39Z</time></trkpt><trkpt lat="43.87628575670128" lon="10.344735500717608"><ele>48.0</ele><time>2026-05-01T09:53:40Z</time></trkpt><trkpt lat="43.87606287291686" lon="10.344984629708131"><ele>44.0</ele><time>2026-05-01T09:53:41Z</time></trkpt><trkpt lat="43.875840255811895" lon="10.345234135146017"><ele>40.0</ele><time>2026-05-01T09:53:42Z</time></trkpt><trkpt lat="43.87561837597107" lon="10.345482316396403"><ele>41.5</ele><time>2026-05-01T09:53:43Z</time></trkpt><trkpt lat="43.87539904531701" lon="10.345728375472538"><ele>43.0</ele><time>2026-05-01T09:53:44Z</time></trkpt><trkpt lat="43.87517947117187" lon="10.345972477018412"><ele>43.5</ele><time>2026-05-01T09:53:45Z</time></trkpt><trkpt lat="43.87496135757235" lon="10.346217694665553"><ele>44.0</ele><time>2026-05-01T09:53:46Z</time></trkpt><trkpt lat="43.874745722521574" lon="10.346461940567266"><ele>51.0</ele><time>2026-05-01T09:53:47Z</time></trkpt><trkpt lat="43.874532211957195" lon="10.346705214865807"><ele>58.0</ele><time>2026-05-01T09:53:48Z</time></trkpt><trkpt lat="43.87431920790102" lon="10.346944044724781"><ele>62.0</ele><time>2026-05-01T09:53:49Z</time></trkpt><trkpt lat="43.87410957080572" lon="10.347180359706616"><ele>66.0</ele><time>2026-05-01T09:53:50Z</time></trkpt><trkpt lat="43.87390202313301" lon="10.347414839343193"><ele>72.0</ele><time>2026-05-01T09:53:51Z</time></trkpt><trkpt lat="43.87369767914835" lon="10.347645239018924"><ele>78.0</ele><time>2026-05-01T09:53:52Z</time></trkpt><trkpt lat="43.8735008935321" lon="10.347866301140149"><ele>92.5</ele><time>2026-05-01T09:53:53Z</time></trkpt><trkpt lat="43.873305620135895" lon="10.348087535513791"><ele>107.0</ele><time>2026-05-01T09:53:54Z</time></trkpt><trkpt lat="43.87311089817714" lon="10.348312632454569"><ele>107.0</ele><time>2026-05-01T09:53:55Z</time></trkpt><trkpt lat="43.87291709464694" lon="10.34853551669384"><ele>107.0</ele><time>2026-05-01T09:53:56Z</time></trkpt><trkpt lat="43.872723577251186" lon="10.348755964490861"><ele>99.0</ele><time>2026-05-01T09:53:57Z</time></trkpt><trkpt lat="43.872529689724615" lon="10.348976855237124"><ele>91.0</ele><time>2026-05-01T09:53:58Z</time></trkpt><trkpt lat="43.872338557219585" lon="10.349202537297764"><ele>91.0</ele><time>2026-05-01T09:53:59Z</time></trkpt><trkpt lat="43.87213722913261" lon="10.349447212894695"><ele>91.0</ele><time>2026-05-01T09:54:00Z</time></trkpt><trkpt lat="43.87195101659423" lon="10.349687059394874"><ele>94.0</ele><time>2026-05-01T09:54:01Z</time></trkpt><trkpt lat="43.87178395414553" lon="10.3499553017511"><ele>97.0</ele><time>2026-05-01T09:54:02Z</time></trkpt><trkpt lat="43.87162862691101" lon="10.35023471520691"><ele>94.0</ele><time>2026-05-01T09:54:03Z</time></trkpt><trkpt lat="43.87148449709354" lon="10.350520993229523"><ele>91.0</ele><time>2026-05-01T09:54:04Z</time></trkpt><trkpt lat="43.87134452281329" lon="10.350811697103225"><ele>91.0</ele><time>2026-05-01T09:54:05Z</time></trkpt><trkpt lat="43.87122286535722" lon="10.351114867949713"><ele>91.0</ele><time>2026-05-01T09:54:06Z</time></trkpt><trkpt lat="43.87111993265531" lon="10.351431998608204"><ele>93.0</ele><time>2026-05-01T09:54:07Z</time></trkpt><trkpt lat="43.87102948571886" lon="10.351753707753339"><ele>95.0</ele><time>2026-05-01T09:54:08Z</time></trkpt><trkpt lat="43.87094523217912" lon="10.352077089948553"><ele>106.5</ele><time>2026-05-01T09:54:09Z</time></trkpt><trkpt lat="43.87086662455355" lon="10.352416856750285"><ele>118.0</ele><time>2026-05-01T09:54:10Z</time></trkpt><trkpt lat="43.870804278008386" lon="10.352762958393281"><ele>130.0</ele><time>2026-05-01T09:54:11Z</time></trkpt><trkpt lat="43.87075809154154" lon="10.353107147713745"><ele>142.0</ele><time>2026-05-01T09:54:12Z</time></trkpt><trkpt lat="43.870726040032004" lon="10.35344874893062"><ele>142.0</ele><time>2026-05-01T09:54:13Z</time></trkpt><trkpt lat="43.87070369992888" lon="10.353801158324046"><ele>142.0</ele><time>2026-05-01T09:54:14Z</time></trkpt><trkpt lat="43.87068729636283" lon="10.354170047498787"><ele>140.5</ele><time>2026-05-01T09:54:15Z</time></trkpt><trkpt lat="43.87067151195722" lon="10.354542768285942"><ele>139.0</ele><time>2026-05-01T09:54:16Z</time></trkpt><trkpt lat="43.87065856891742" lon="10.354922240609131"><ele>128.0</ele><time>2026-05-01T09:54:17Z</time></trkpt><trkpt lat="43.870660546934076" lon="10.35530613302925"><ele>117.0</ele><time>2026-05-01T09:54:18Z</time></trkpt><trkpt lat="43.87066145691904" lon="10.355698908158024"><ele>113.0</ele><time>2026-05-01T09:54:19Z</time></trkpt><trkpt lat="43.8706620852654" lon="10.356086591880377"><ele>109.0</ele><time>2026-05-01T09:54:20Z</time></trkpt><trkpt lat="43.87070665083847" lon="10.356257361928499"><ele>105.0</ele><time>2026-05-01T09:54:21Z</time></trkpt><trkpt lat="43.87070392513478" lon="10.356576726162743"><ele>100.5</ele><time>2026-05-01T09:54:22Z</time></trkpt><trkpt lat="43.870710556886515" lon="10.35690709554763"><ele>96.0</ele><time>2026-05-01T09:54:23Z</time></trkpt><trkpt lat="43.8707138463733" lon="10.357239474335897"><ele>89.0</ele><time>2026-05-01T09:54:24Z</time></trkpt><trkpt lat="43.87072201824393" lon="10.357567164534355"><ele>82.0</ele><time>2026-05-01T09:54:25Z</time></trkpt><trkpt lat="43.870719500360636" lon="10.357908030351782"><ele>84.0</ele><time>2026-05-01T09:54:26Z</time></trkpt><trkpt lat="43.87071803693659" lon="10.35825261281358"><ele>86.0</ele><time>2026-05-01T09:54:27Z</time></trkpt><trkpt lat="43.87071754374077" lon="10.358601963307137"><ele>83.5</ele><time>2026-05-01T09:54:28Z</time></trkpt><trkpt lat="43.87071464328726" lon="10.358951520110834"><ele>81.0</ele><time>2026-05-01T09:54:29Z</time></trkpt><trkpt lat="43.87070347956759" lon="10.359303680565487"><ele>81.0</ele><time>2026-05-01T09:54:30Z</time></trkpt><trkpt lat="43.870679568514234" lon="10.35965464289124"><ele>81.0</ele><time>2026-05-01T09:54:31Z</time></trkpt><trkpt lat="43.87064068617928" lon="10.360005671994182"><ele>74.5</ele><time>2026-05-01T09:54:32Z</time></trkpt><trkpt lat="43.870589333204116" lon="10.360357043155195"><ele>68.0</ele><time>2026-05-01T09:54:33Z</time></trkpt><trkpt lat="43.87052561582602" lon="10.360706176085845"><ele>61.5</ele><time>2026-05-01T09:54:34Z</time></trkpt><trkpt lat="43.8704500974531" lon="10.361046116972497"><ele>55.0</ele><time>2026-05-01T09:54:35Z</time></trkpt><trkpt lat="43.87036367809762" lon="10.361378894313354"><ele>53.0</ele><time>2026-05-01T09:54:35.999Z</time></trkpt><trkpt lat="43.87026828252816" lon="10.361706515491251"><ele>51.0</ele><time>2026-05-01T09:54:36.999Z</time></trkpt><trkpt lat="43.8701628480244" lon="10.362030178838921"><ele>62.5</ele><time>2026-05-01T09:54:37.999Z</time></trkpt><trkpt lat="43.8700408924812" lon="10.362345323695099"><ele>74.0</ele><time>2026-05-01T09:54:38.999Z</time></trkpt><trkpt lat="43.86990771763688" lon="10.362654868197259"><ele>74.0</ele><time>2026-05-01T09:54:39.999Z</time></trkpt><trkpt lat="43.86976299549814" lon="10.362953396985695"><ele>74.0</ele><time>2026-05-01T09:54:40.999Z</time></trkpt><trkpt lat="43.86960997688153" lon="10.363244749866993"><ele>83.0</ele><time>2026-05-01T09:54:41.999Z</time></trkpt><trkpt lat="43.86944724558133" lon="10.363526029379086"><ele>92.0</ele><time>2026-05-01T09:54:42.999Z</time></trkpt><trkpt lat="43.86927525103187" lon="10.363792838940268"><ele>103.0</ele><time>2026-05-01T09:54:43.999Z</time></trkpt><trkpt lat="43.86909165471027" lon="10.36404907147106"><ele>114.0</ele><time>2026-05-01T09:54:44.999Z</time></trkpt><trkpt lat="43.86889997032254" lon="10.364294625106615"><ele>114.0</ele><time>2026-05-01T09:54:45.999Z</time></trkpt><trkpt lat="43.86869626629173" lon="10.364532828108612"><ele>114.0</ele><time>2026-05-01T09:54:46.999Z</time></trkpt><trkpt lat="43.868473719386806" lon="10.36476157775376"><ele>102.5</ele><time>2026-05-01T09:54:47.999Z</time></trkpt><trkpt lat="43.86823686523225" lon="10.364979704779765"><ele>91.0</ele><time>2026-05-01T09:54:48.999Z</time></trkpt><trkpt lat="43.867986434840276" lon="10.365183166664673"><ele>91.0</ele><time>2026-05-01T09:54:49.999Z</time></trkpt><trkpt lat="43.867725450301045" lon="10.365370820170762"><ele>91.0</ele><time>2026-05-01T09:54:50.999Z</time></trkpt><trkpt lat="43.86745519627502" lon="10.365541722388349"><ele>83.5</ele><time>2026-05-01T09:54:51.999Z</time></trkpt><trkpt lat="43.86717596454113" lon="10.36569508663039"><ele>76.0</ele><time>2026-05-01T09:54:52.999Z</time></trkpt><trkpt lat="43.866887569232865" lon="10.36582977990278"><ele>76.0</ele><time>2026-05-01T09:54:53.999Z</time></trkpt><trkpt lat="43.86658775208529" lon="10.365945064597948"><ele>76.0</ele><time>2026-05-01T09:54:54.999Z</time></trkpt><trkpt lat="43.86627825731371" lon="10.366038832664753"><ele>76.0</ele><time>2026-05-01T09:54:55.999Z</time></trkpt><trkpt lat="43.86596259546672" lon="10.366121109528024"><ele>76.0</ele><time>2026-05-01T09:54:56.999Z</time></trkpt><trkpt lat="43.86563917802505" lon="10.36618936005107"><ele>73.0</ele><time>2026-05-01T09:54:57.999Z</time></trkpt><trkpt lat="43.86531148744309" lon="10.366260833713618"><ele>70.0</ele><time>2026-05-01T09:54:58.999Z</time></trkpt><trkpt lat="43.86498242716877" lon="10.366337872938812"><ele>83.0</ele><time>2026-05-01T09:54:59.999Z</time></trkpt><trkpt lat="43.86465138673314" lon="10.366416694726057"><ele>96.0</ele><time>2026-05-01T09:55:00.999Z</time></trkpt><trkpt lat="43.864318267867354" lon="10.36649625836872"><ele>110.0</ele><time>2026-05-01T09:55:01.999Z</time></trkpt><trkpt lat="43.863984432535666" lon="10.366578016925207"><ele>124.0</ele><time>2026-05-01T09:55:02.999Z</time></trkpt><trkpt lat="43.863649565994656" lon="10.366660527591323"><ele>124.0</ele><time>2026-05-01T09:55:03.999Z</time></trkpt><trkpt lat="43.86331284844101" lon="10.366741184600212"><ele>124.0</ele><time>2026-05-01T09:55:04.999Z</time></trkpt><trkpt lat="43.86297565498092" lon="10.366821987603233"><ele>124.0</ele><time>2026-05-01T09:55:05.999Z</time></trkpt><trkpt lat="43.86263857831199" lon="10.366902804216569"><ele>124.0</ele><time>2026-05-01T09:55:06.999Z</time></trkpt><trkpt lat="43.86230167045274" lon="10.36698496806618"><ele>125.5</ele><time>2026-05-01T09:55:07.999Z</time></trkpt><trkpt lat="43.86196951740351" lon="10.367066508386879"><ele>127.0</ele><time>2026-05-01T09:55:08.999Z</time></trkpt><trkpt lat="43.86164715192627" lon="10.367147770041477"><ele>141.5</ele><time>2026-05-01T09:55:09.999Z</time></trkpt><trkpt lat="43.86132366667991" lon="10.367230487447834"><ele>156.0</ele><time>2026-05-01T09:55:10.999Z</time></trkpt><trkpt lat="43.86100029933618" lon="10.367313269199354"><ele>147.5</ele><time>2026-05-01T09:55:11.999Z</time></trkpt><trkpt lat="43.86067395037808" lon="10.36740279725857"><ele>139.0</ele><time>2026-05-01T09:55:12.999Z</time></trkpt><trkpt lat="43.86034900330012" lon="10.367511206601115"><ele>134.5</ele><time>2026-05-01T09:55:13.999Z</time></trkpt><trkpt lat="43.860031875171686" lon="10.367657167894864"><ele>130.0</ele><time>2026-05-01T09:55:14.999Z</time></trkpt><trkpt lat="43.8597221665209" lon="10.36782955584426"><ele>140.0</ele><time>2026-05-01T09:55:15.999Z</time></trkpt><trkpt lat="43.85942192105004" lon="10.36803343342733"><ele>150.0</ele><time>2026-05-01T09:55:16.999Z</time></trkpt><trkpt lat="43.85912965007481" lon="10.368259437571439"><ele>150.0</ele><time>2026-05-01T09:55:17.999Z</time></trkpt><trkpt lat="43.85884992510771" lon="10.368514810183202"><ele>150.0</ele><time>2026-05-01T09:55:18.999Z</time></trkpt><trkpt lat="43.858574901279596" lon="10.368787083504769"><ele>140.0</ele><time>2026-05-01T09:55:19.999Z</time></trkpt><trkpt lat="43.85830319826817" lon="10.369063041975563"><ele>130.0</ele><time>2026-05-01T09:55:20.999Z</time></trkpt><trkpt lat="43.858030450454976" lon="10.369335814896887"><ele>130.0</ele><time>2026-05-01T09:55:21.999Z</time></trkpt><trkpt lat="43.85775711674868" lon="10.369605858118252"><ele>130.0</ele><time>2026-05-01T09:55:22.999Z</time></trkpt><trkpt lat="43.857481691857146" lon="10.369875169119707"><ele>123.5</ele><time>2026-05-01T09:55:23.999Z</time></trkpt><trkpt lat="43.8572083727102" lon="10.370145423314908"><ele>117.0</ele><time>2026-05-01T09:55:24.999Z</time></trkpt><trkpt lat="43.85693540472895" lon="10.370415487240908"><ele>127.5</ele><time>2026-05-01T09:55:25.999Z</time></trkpt><trkpt lat="43.85665934958976" lon="10.370684056756371"><ele>138.0</ele><time>2026-05-01T09:55:26.999Z</time></trkpt><trkpt lat="43.85637931981474" lon="10.370954972082103"><ele>138.0</ele><time>2026-05-01T09:55:27.999Z</time></trkpt><trkpt lat="43.85609761778533" lon="10.37122657481552"><ele>138.0</ele><time>2026-05-01T09:55:28.999Z</time></trkpt><trkpt lat="43.85581605433176" lon="10.371500444366744"><ele>145.5</ele><time>2026-05-01T09:55:29.999Z</time></trkpt><trkpt lat="43.855533198762664" lon="10.371774818199734"><ele>153.0</ele><time>2026-05-01T09:55:30.999Z</time></trkpt><trkpt lat="43.85524906554053" lon="10.372053949407547"><ele>155.5</ele><time>2026-05-01T09:55:31.999Z</time></trkpt><trkpt lat="43.85496453184591" lon="10.372334990856382"><ele>158.0</ele><time>2026-05-01T09:55:32.999Z</time></trkpt><trkpt lat="43.8546821755709" lon="10.372615265469333"><ele>158.0</ele><time>2026-05-01T09:55:33.999Z</time></trkpt><trkpt lat="43.85440491543579" lon="10.372900829444372"><ele>158.0</ele><time>2026-05-01T09:55:34.999Z</time></trkpt><trkpt lat="43.85414460360871" lon="10.373201263869598"><ele>163.5</ele><time>2026-05-01T09:55:35.999Z</time></trkpt><trkpt lat="43.8539020582447" lon="10.373527548988202"><ele>169.0</ele><time>2026-05-01T09:55:36.999Z</time></trkpt><trkpt lat="43.853673945877084" lon="10.373873832192633"><ele>169.0</ele><time>2026-05-01T09:55:37.999Z</time></trkpt><trkpt lat="43.853467786423266" lon="10.374241436925526"><ele>169.0</ele><time>2026-05-01T09:55:38.999Z</time></trkpt><trkpt lat="43.85328835192345" lon="10.37463076065335"><ele>165.5</ele><time>2026-05-01T09:55:40Z</time></trkpt><trkpt lat="43.85312764499096" lon="10.375038646675304"><ele>162.0</ele><time>2026-05-01T09:55:41Z</time></trkpt><trkpt lat="43.85298020357637" lon="10.375465492424375"><ele>175.0</ele><time>2026-05-01T09:55:42Z</time></trkpt><trkpt lat="43.85286087708962" lon="10.37591066971995"><ele>188.0</ele><time>2026-05-01T09:55:43Z</time></trkpt><trkpt lat="43.85276562034814" lon="10.37636633879464"><ele>189.0</ele><time>2026-05-01T09:55:44Z</time></trkpt><trkpt lat="43.8526948425518" lon="10.37682648496823"><ele>190.0</ele><time>2026-05-01T09:55:45Z</time></trkpt><trkpt lat="43.85264441548644" lon="10.377299898883718"><ele>181.0</ele><time>2026-05-01T09:55:46Z</time></trkpt><trkpt lat="43.85260853736352" lon="10.377781473174062"><ele>172.0</ele><time>2026-05-01T09:55:47Z</time></trkpt><trkpt lat="43.85257419680876" lon="10.37826687482537"><ele>172.0</ele><time>2026-05-01T09:55:48Z</time></trkpt><trkpt lat="43.85253729960987" lon="10.37875218839504"><ele>172.0</ele><time>2026-05-01T09:55:49Z</time></trkpt><trkpt lat="43.852500982210564" lon="10.37923515307501"><ele>175.0</ele><time>2026-05-01T09:55:50Z</time></trkpt><trkpt lat="43.85246582394729" lon="10.379717468418542"><ele>178.0</ele><time>2026-05-01T09:55:51Z</time></trkpt><trkpt lat="43.852429497048774" lon="10.380201765183886"><ele>174.5</ele><time>2026-05-01T09:55:52Z</time></trkpt><trkpt lat="43.85245286636397" lon="10.380628519284638"><ele>171.0</ele><time>2026-05-01T09:55:53Z</time></trkpt><trkpt lat="43.85242294063567" lon="10.381100891838644"><ele>168.0</ele><time>2026-05-01T09:55:54Z</time></trkpt><trkpt lat="43.85241232570667" lon="10.381574575517762"><ele>165.0</ele><time>2026-05-01T09:55:55Z</time></trkpt><trkpt lat="43.85240030845783" lon="10.382053418423222"><ele>166.5</ele><time>2026-05-01T09:55:56Z</time></trkpt><trkpt lat="43.852397901231804" lon="10.38253108147325"><ele>168.0</ele><time>2026-05-01T09:55:57Z</time></trkpt><trkpt lat="43.85238672759403" lon="10.383008926639585"><ele>167.5</ele><time>2026-05-01T09:55:58Z</time></trkpt><trkpt lat="43.85238807111464" lon="10.383487879853396"><ele>167.0</ele><time>2026-05-01T09:55:59Z</time></trkpt><trkpt lat="43.8524080457376" lon="10.3839480958508"><ele>168.0</ele><time>2026-05-01T09:56:00Z</time></trkpt><trkpt lat="43.852447506209316" lon="10.384362745824838"><ele>169.0</ele><time>2026-05-01T09:56:01Z</time></trkpt><trkpt lat="43.85247869214157" lon="10.38480096632594"><ele>169.0</ele><time>2026-05-01T09:56:02Z</time></trkpt><trkpt lat="43.85252255877835" lon="10.3852354747471"><ele>169.0</ele><time>2026-05-01T09:56:03Z</time></trkpt><trkpt lat="43.8525741357541" lon="10.385665223110736"><ele>185.5</ele><time>2026-05-01T09:56:04Z</time></trkpt><trkpt lat="43.85263148695594" lon="10.386088601061518"><ele>202.0</ele><time>2026-05-01T09:56:05Z</time></trkpt><trkpt lat="43.85268879138006" lon="10.386537934261227"><ele>202.0</ele><time>2026-05-01T09:56:06Z</time></trkpt><trkpt lat="43.852747692880264" lon="10.386998251918953"><ele>202.0</ele><time>2026-05-01T09:56:07Z</time></trkpt><trkpt lat="43.852823106753796" lon="10.3874312107558"><ele>194.0</ele><time>2026-05-01T09:56:08Z</time></trkpt><trkpt lat="43.85290162235511" lon="10.387865075173178"><ele>186.0</ele><time>2026-05-01T09:56:09Z</time></trkpt><trkpt lat="43.852986122267644" lon="10.388278209958075"><ele>179.0</ele><time>2026-05-01T09:56:10Z</time></trkpt><trkpt lat="43.85306813236559" lon="10.388703753482586"><ele>172.0</ele><time>2026-05-01T09:56:11Z</time></trkpt><trkpt lat="43.853079678968825" lon="10.389584303469466"><ele>154.5</ele><time>2026-05-01T09:56:12Z</time></trkpt><trkpt lat="43.8531082247056" lon="10.390179369268042"><ele>137.0</ele><time>2026-05-01T09:56:13Z</time></trkpt><trkpt lat="43.85318520669766" lon="10.390631339960951"><ele>131.0</ele><time>2026-05-01T09:56:14Z</time></trkpt><trkpt lat="43.85326010227551" lon="10.391070486136275"><ele>125.0</ele><time>2026-05-01T09:56:15Z</time></trkpt><trkpt lat="43.85332991462295" lon="10.39150689946335"><ele>124.5</ele><time>2026-05-01T09:56:16Z</time></trkpt><trkpt lat="43.85339356268866" lon="10.391950426402552"><ele>124.0</ele><time>2026-05-01T09:56:17Z</time></trkpt><trkpt lat="43.853459226574735" lon="10.392395488980222"><ele>119.0</ele><time>2026-05-01T09:56:18Z</time></trkpt><trkpt lat="43.85351575807415" lon="10.392847166379898"><ele>114.0</ele><time>2026-05-01T09:56:19Z</time></trkpt><trkpt lat="43.85356671255146" lon="10.393301475719214"><ele>109.5</ele><time>2026-05-01T09:56:20Z</time></trkpt><trkpt lat="43.85361319424664" lon="10.393763361420117"><ele>105.0</ele><time>2026-05-01T09:56:21Z</time></trkpt><trkpt lat="43.85364070878466" lon="10.394232089215727"><ele>100.5</ele><time>2026-05-01T09:56:22Z</time></trkpt><trkpt lat="43.85366460858296" lon="10.394702284098267"><ele>96.0</ele><time>2026-05-01T09:56:23Z</time></trkpt><trkpt lat="43.85370413378748" lon="10.395163514975795"><ele>97.0</ele><time>2026-05-01T09:56:24Z</time></trkpt><trkpt lat="43.85370959456946" lon="10.3956409611765"><ele>98.0</ele><time>2026-05-01T09:56:25Z</time></trkpt><trkpt lat="43.85369546295083" lon="10.396117585566722"><ele>95.5</ele><time>2026-05-01T09:56:26Z</time></trkpt><trkpt lat="43.85367619184999" lon="10.396588278434251"><ele>93.0</ele><time>2026-05-01T09:56:27Z</time></trkpt><trkpt lat="43.853671222505355" lon="10.397060389322325"><ele>90.0</ele><time>2026-05-01T09:56:28Z</time></trkpt><trkpt lat="43.85366452733508" lon="10.397529986316068"><ele>87.0</ele><time>2026-05-01T09:56:29Z</time></trkpt><trkpt lat="43.85365699168694" lon="10.397997578334882"><ele>85.5</ele><time>2026-05-01T09:56:30Z</time></trkpt><trkpt lat="43.85365205935523" lon="10.39846529787888"><ele>84.0</ele><time>2026-05-01T09:56:31Z</time></trkpt><trkpt lat="43.85364954031522" lon="10.39893299446439"><ele>82.5</ele><time>2026-05-01T09:56:32Z</time></trkpt><trkpt lat="43.85364495894424" lon="10.399398279874456"><ele>81.0</ele><time>2026-05-01T09:56:33Z</time></trkpt><trkpt lat="43.85364130633118" lon="10.399861175668667"><ele>78.5</ele><time>2026-05-01T09:56:34Z</time></trkpt><trkpt lat="43.85363534203722" lon="10.400325148510872"><ele>76.0</ele><time>2026-05-01T09:56:35Z</time></trkpt><trkpt lat="43.85362553351489" lon="10.400793495538347"><ele>74.5</ele><time>2026-05-01T09:56:36Z</time></trkpt><trkpt lat="43.85361720523375" lon="10.401265095545694"><ele>73.0</ele><time>2026-05-01T09:56:37Z</time></trkpt><trkpt lat="43.853609916966846" lon="10.401738585329827"><ele>70.0</ele><time>2026-05-01T09:56:38Z</time></trkpt><trkpt lat="43.85360239996412" lon="10.40221470169117"><ele>67.0</ele><time>2026-05-01T09:56:39Z</time></trkpt><trkpt lat="43.853595308658754" lon="10.402691472725147"><ele>68.0</ele><time>2026-05-01T09:56:40Z</time></trkpt><trkpt lat="43.85358678705866" lon="10.403169874495035"><ele>69.0</ele><time>2026-05-01T09:56:41Z</time></trkpt><trkpt lat="43.85358049262059" lon="10.403648531357115"><ele>69.5</ele><time>2026-05-01T09:56:42Z</time></trkpt><trkpt lat="43.85357259123094" lon="10.404125916719744"><ele>70.0</ele><time>2026-05-01T09:56:43Z</time></trkpt><trkpt lat="43.853564550788306" lon="10.404597754544367"><ele>68.0</ele><time>2026-05-01T09:56:44Z</time></trkpt><trkpt lat="43.85355468830797" lon="10.405064974918561"><ele>66.0</ele><time>2026-05-01T09:56:45Z</time></trkpt><trkpt lat="43.853542602271936" lon="10.405532981586289"><ele>63.5</ele><time>2026-05-01T09:56:46Z</time></trkpt><trkpt lat="43.85352889055833" lon="10.405999846743455"><ele>61.0</ele><time>2026-05-01T09:56:47Z</time></trkpt><trkpt lat="43.85351528425819" lon="10.40646758579577"><ele>60.5</ele><time>2026-05-01T09:56:48Z</time></trkpt><trkpt lat="43.85350374618805" lon="10.406936224425278"><ele>60.0</ele><time>2026-05-01T09:56:49Z</time></trkpt><trkpt lat="43.85349277917004" lon="10.407406899222206"><ele>59.5</ele><time>2026-05-01T09:56:50Z</time></trkpt><trkpt lat="43.85347987592573" lon="10.407875874054737"><ele>59.0</ele><time>2026-05-01T09:56:50.999Z</time></trkpt><trkpt lat="43.85346671499521" lon="10.408344914025788"><ele>60.0</ele><time>2026-05-01T09:56:51.999Z</time></trkpt><trkpt lat="43.85345509745475" lon="10.408813127130086"><ele>61.0</ele><time>2026-05-01T09:56:52.999Z</time></trkpt><trkpt lat="43.85344266053648" lon="10.409285373686968"><ele>57.0</ele><time>2026-05-01T09:56:53.999Z</time></trkpt><trkpt lat="43.853429841701434" lon="10.409759550523756"><ele>53.0</ele><time>2026-05-01T09:56:54.999Z</time></trkpt><trkpt lat="43.85341680018424" lon="10.410234249726535"><ele>50.0</ele><time>2026-05-01T09:56:55.999Z</time></trkpt><trkpt lat="43.853402605600216" lon="10.410718363107202"><ele>47.0</ele><time>2026-05-01T09:56:56.999Z</time></trkpt><trkpt lat="43.853390126801045" lon="10.411201039032584"><ele>46.0</ele><time>2026-05-01T09:56:57.999Z</time></trkpt><trkpt lat="43.85337856532825" lon="10.411688025425764"><ele>45.0</ele><time>2026-05-01T09:56:58.999Z</time></trkpt><trkpt lat="43.85336579634814" lon="10.41217331121758"><ele>43.0</ele><time>2026-05-01T09:56:59.999Z</time></trkpt><trkpt lat="43.85335290019649" lon="10.412661144283858"><ele>41.0</ele><time>2026-05-01T09:57:00.999Z</time></trkpt><trkpt lat="43.853338433385495" lon="10.413148040711247"><ele>40.0</ele><time>2026-05-01T09:57:01.999Z</time></trkpt><trkpt lat="43.85332724158872" lon="10.413634199190856"><ele>39.0</ele><time>2026-05-01T09:57:02.999Z</time></trkpt><trkpt lat="43.8533146192417" lon="10.414119468879392"><ele>38.0</ele><time>2026-05-01T09:57:03.999Z</time></trkpt><trkpt lat="43.85330246515288" lon="10.414607982730086"><ele>37.0</ele><time>2026-05-01T09:57:04.999Z</time></trkpt><trkpt lat="43.853290151827515" lon="10.415097967598898"><ele>34.0</ele><time>2026-05-01T09:57:05.999Z</time></trkpt><trkpt lat="43.853279371218605" lon="10.415584905380848"><ele>31.0</ele><time>2026-05-01T09:57:06.999Z</time></trkpt><trkpt lat="43.85326620809512" lon="10.416071286356324"><ele>30.5</ele><time>2026-05-01T09:57:07.999Z</time></trkpt><trkpt lat="43.85325417287554" lon="10.41655123625076"><ele>30.0</ele><time>2026-05-01T09:57:08.999Z</time></trkpt><trkpt lat="43.85324362338081" lon="10.417025643402539"><ele>29.0</ele><time>2026-05-01T09:57:09.999Z</time></trkpt><trkpt lat="43.85323278448509" lon="10.417496751997435"><ele>28.0</ele><time>2026-05-01T09:57:10.999Z</time></trkpt><trkpt lat="43.853221225175304" lon="10.417968207058756"><ele>26.5</ele><time>2026-05-01T09:57:11.999Z</time></trkpt><trkpt lat="43.85320712061216" lon="10.418435395818074"><ele>25.0</ele><time>2026-05-01T09:57:12.999Z</time></trkpt><trkpt lat="43.85319511116528" lon="10.418905171959786"><ele>24.0</ele><time>2026-05-01T09:57:13.999Z</time></trkpt><trkpt lat="43.85318260253003" lon="10.419376110669653"><ele>23.0</ele><time>2026-05-01T09:57:14.999Z</time></trkpt><trkpt lat="43.853170922091344" lon="10.4198460056116"><ele>23.0</ele><time>2026-05-01T09:57:15.999Z</time></trkpt><trkpt lat="43.85315913911029" lon="10.420321366814552"><ele>23.0</ele><time>2026-05-01T09:57:16.999Z</time></trkpt><trkpt lat="43.85314660949928" lon="10.420797734201455"><ele>22.0</ele><time>2026-05-01T09:57:17.999Z</time></trkpt><trkpt lat="43.8531343785871" lon="10.421267898918295"><ele>21.0</ele><time>2026-05-01T09:57:18.999Z</time></trkpt><trkpt lat="43.853125731004845" lon="10.42173611677593"><ele>20.5</ele><time>2026-05-01T09:57:19.999Z</time></trkpt><trkpt lat="43.853117289646946" lon="10.422202715650162"><ele>20.0</ele><time>2026-05-01T09:57:20.999Z</time></trkpt><trkpt lat="43.853113266138486" lon="10.422664240031887"><ele>19.0</ele><time>2026-05-01T09:57:21.999Z</time></trkpt><trkpt lat="43.85310643673095" lon="10.423124420769046"><ele>18.0</ele><time>2026-05-01T09:57:22.999Z</time></trkpt><trkpt lat="43.853097587887206" lon="10.423579483894043"><ele>18.0</ele><time>2026-05-01T09:57:23.999Z</time></trkpt><trkpt lat="43.85308497093334" lon="10.424025769859222"><ele>18.0</ele><time>2026-05-01T09:57:24.999Z</time></trkpt><trkpt lat="43.853072554661644" lon="10.42447008760395"><ele>18.0</ele><time>2026-05-01T09:57:25.999Z</time></trkpt><trkpt lat="43.85306027791817" lon="10.424903704777297"><ele>18.0</ele><time>2026-05-01T09:57:26.999Z</time></trkpt><trkpt lat="43.85305012879794" lon="10.425326352364733"><ele>17.5</ele><time>2026-05-01T09:57:27.999Z</time></trkpt><trkpt lat="43.85303810316405" lon="10.425743055018122"><ele>17.0</ele><time>2026-05-01T09:57:28.999Z</time></trkpt><trkpt lat="43.85302794987412" lon="10.42614973470104"><ele>16.5</ele><time>2026-05-01T09:57:29.999Z</time></trkpt><trkpt lat="43.85301556519997" lon="10.426542679901635"><ele>16.0</ele><time>2026-05-01T09:57:30.999Z</time></trkpt><trkpt lat="43.85300235203042" lon="10.426930365461864"><ele>16.0</ele><time>2026-05-01T09:57:31.999Z</time></trkpt><trkpt lat="43.85299063811674" lon="10.427315914683037"><ele>16.0</ele><time>2026-05-01T09:57:32.999Z</time></trkpt><trkpt lat="43.85298441405038" lon="10.427712966227533"><ele>16.5</ele><time>2026-05-01T09:57:33.999Z</time></trkpt><trkpt lat="43.85297956605158" lon="10.42812180778299"><ele>17.0</ele><time>2026-05-01T09:57:34.999Z</time></trkpt><trkpt lat="43.85296919136575" lon="10.428545545990598"><ele>17.0</ele><time>2026-05-01T09:57:35.999Z</time></trkpt><trkpt lat="43.85295536017798" lon="10.428979203265529"><ele>17.0</ele><time>2026-05-01T09:57:36.999Z</time></trkpt><trkpt lat="43.85294046579724" lon="10.429419552834736"><ele>17.0</ele><time>2026-05-01T09:57:37.999Z</time></trkpt><trkpt lat="43.85292115779492" lon="10.429868097159357"><ele>17.0</ele><time>2026-05-01T09:57:38.999Z</time></trkpt><trkpt lat="43.852892500333574" lon="10.430324525945107"><ele>16.5</ele><time>2026-05-01T09:57:39.999Z</time></trkpt><trkpt lat="43.852853430291866" lon="10.430786372318858"><ele>16.0</ele><time>2026-05-01T09:57:40.999Z</time></trkpt><trkpt lat="43.85280525356486" lon="10.431251225988412"><ele>16.0</ele><time>2026-05-01T09:57:41.999Z</time></trkpt><trkpt lat="43.85275378906523" lon="10.431715898513245"><ele>16.0</ele><time>2026-05-01T09:57:42.999Z</time></trkpt><trkpt lat="43.85269586095262" lon="10.432187977179504"><ele>15.5</ele><time>2026-05-01T09:57:43.999Z</time></trkpt><trkpt lat="43.85263446812654" lon="10.432656436192577"><ele>15.0</ele><time>2026-05-01T09:57:44.999Z</time></trkpt><trkpt lat="43.85256939106184" lon="10.43312431988556"><ele>15.0</ele><time>2026-05-01T09:57:46Z</time></trkpt><trkpt lat="43.85249846049447" lon="10.43359131377173"><ele>15.0</ele><time>2026-05-01T09:57:47Z</time></trkpt><trkpt lat="43.85242320919468" lon="10.43405758569486"><ele>14.0</ele><time>2026-05-01T09:57:48Z</time></trkpt><trkpt lat="43.85234185585735" lon="10.434517029499464"><ele>13.0</ele><time>2026-05-01T09:57:49Z</time></trkpt><trkpt lat="43.852250360720554" lon="10.434968278801518"><ele>13.0</ele><time>2026-05-01T09:57:50Z</time></trkpt><trkpt lat="43.85215291389487" lon="10.435419107514985"><ele>13.0</ele><time>2026-05-01T09:57:51Z</time></trkpt><trkpt lat="43.852048535198165" lon="10.43586929223747"><ele>13.5</ele><time>2026-05-01T09:57:52Z</time></trkpt><trkpt lat="43.851931511178876" lon="10.43631458799363"><ele>14.0</ele><time>2026-05-01T09:57:53Z</time></trkpt><trkpt lat="43.85180767363201" lon="10.436759881168351"><ele>15.0</ele><time>2026-05-01T09:57:54Z</time></trkpt><trkpt lat="43.85167768099936" lon="10.437201635961063"><ele>16.0</ele><time>2026-05-01T09:57:55Z</time></trkpt><trkpt lat="43.85154041564471" lon="10.437637822757981"><ele>15.5</ele><time>2026-05-01T09:57:56Z</time></trkpt><trkpt lat="43.85139961235728" lon="10.43807090471782"><ele>15.0</ele><time>2026-05-01T09:57:57Z</time></trkpt><trkpt lat="43.851254122539885" lon="10.43849786690566"><ele>14.0</ele><time>2026-05-01T09:57:58Z</time></trkpt><trkpt lat="43.85110510820106" lon="10.438919565828446"><ele>13.0</ele><time>2026-05-01T09:57:59Z</time></trkpt><trkpt lat="43.85095085994946" lon="10.439333728097562"><ele>13.5</ele><time>2026-05-01T09:58:00Z</time></trkpt><trkpt lat="43.850794610681966" lon="10.43974520062529"><ele>14.0</ele><time>2026-05-01T09:58:01Z</time></trkpt><trkpt lat="43.85063558664311" lon="10.440151741208599"><ele>14.0</ele><time>2026-05-01T09:58:02Z</time></trkpt><trkpt lat="43.85046924304278" lon="10.440553704198347"><ele>14.0</ele><time>2026-05-01T09:58:03Z</time></trkpt><trkpt lat="43.85030163996924" lon="10.440948177889648"><ele>14.0</ele><time>2026-05-01T09:58:04Z</time></trkpt><trkpt lat="43.85012577711517" lon="10.441344357418213"><ele>14.0</ele><time>2026-05-01T09:58:05Z</time></trkpt><trkpt lat="43.849941854277326" lon="10.441738891924908"><ele>13.5</ele><time>2026-05-01T09:58:06Z</time></trkpt><trkpt lat="43.84975275330662" lon="10.442125908129269"><ele>13.0</ele><time>2026-05-01T09:58:07Z</time></trkpt><trkpt lat="43.84955012113398" lon="10.442516090306674"><ele>13.0</ele><time>2026-05-01T09:58:08Z</time></trkpt><trkpt lat="43.849351544051586" lon="10.442901937160219"><ele>13.0</ele><time>2026-05-01T09:58:09Z</time></trkpt><trkpt lat="43.84915174880423" lon="10.443287138586491"><ele>13.0</ele><time>2026-05-01T09:58:10Z</time></trkpt><trkpt lat="43.84895054945459" lon="10.443674198464446"><ele>13.0</ele><time>2026-05-01T09:58:11Z</time></trkpt><trkpt lat="43.84874966763744" lon="10.444059826935032"><ele>13.5</ele><time>2026-05-01T09:58:12Z</time></trkpt><trkpt lat="43.84854852595187" lon="10.444447051984264"><ele>14.0</ele><time>2026-05-01T09:58:13Z</time></trkpt><trkpt lat="43.848347806490224" lon="10.444833865213205"><ele>14.5</ele><time>2026-05-01T09:58:14Z</time></trkpt><trkpt lat="43.84814969001871" lon="10.44521683918844"><ele>15.0</ele><time>2026-05-01T09:58:15Z</time></trkpt><trkpt lat="43.8479515085797" lon="10.44560201945361"><ele>15.5</ele><time>2026-05-01T09:58:16Z</time></trkpt><trkpt lat="43.8477510410792" lon="10.445990391450866"><ele>16.0</ele><time>2026-05-01T09:58:17Z</time></trkpt><trkpt lat="43.847553139585614" lon="10.446370847844019"><ele>15.5</ele><time>2026-05-01T09:58:18Z</time></trkpt><trkpt lat="43.84735220852911" lon="10.44675694681515"><ele>15.0</ele><time>2026-05-01T09:58:19Z</time></trkpt><trkpt lat="43.847152227466985" lon="10.447143796911252"><ele>15.0</ele><time>2026-05-01T09:58:20Z</time></trkpt><trkpt lat="43.84695198405298" lon="10.44752821245159"><ele>15.0</ele><time>2026-05-01T09:58:21Z</time></trkpt><trkpt lat="43.84675073433197" lon="10.447913415832158"><ele>17.0</ele><time>2026-05-01T09:58:22Z</time></trkpt><trkpt lat="43.846547763174314" lon="10.448301248985613"><ele>19.0</ele><time>2026-05-01T09:58:23Z</time></trkpt><trkpt lat="43.846351264823795" lon="10.448686409241104"><ele>17.5</ele><time>2026-05-01T09:58:24Z</time></trkpt><trkpt lat="43.84614966734956" lon="10.449069892683593"><ele>16.0</ele><time>2026-05-01T09:58:25Z</time></trkpt><trkpt lat="43.84594690951689" lon="10.449455661643684"><ele>15.5</ele><time>2026-05-01T09:58:26Z</time></trkpt><trkpt lat="43.8457462892092" lon="10.449844608450181"><ele>15.0</ele><time>2026-05-01T09:58:27Z</time></trkpt><trkpt lat="43.8455445586401" lon="10.450234404698707"><ele>15.0</ele><time>2026-05-01T09:58:28Z</time></trkpt><trkpt lat="43.8453422694435" lon="10.450624003270988"><ele>15.0</ele><time>2026-05-01T09:58:29Z</time></trkpt><trkpt lat="43.845141421225534" lon="10.451014774064756"><ele>14.5</ele><time>2026-05-01T09:58:30Z</time></trkpt><trkpt lat="43.844938032211225" lon="10.451403291593888"><ele>14.0</ele><time>2026-05-01T09:58:31Z</time></trkpt><trkpt lat="43.84474154046727" lon="10.451781835148378"><ele>13.0</ele><time>2026-05-01T09:58:32Z</time></trkpt><trkpt lat="43.84454296473704" lon="10.452162593983692"><ele>12.0</ele><time>2026-05-01T09:58:33Z</time></trkpt><trkpt lat="43.84434813665412" lon="10.452542096280462"><ele>12.0</ele><time>2026-05-01T09:58:34Z</time></trkpt><trkpt lat="43.84415456184391" lon="10.4529208063227"><ele>12.0</ele><time>2026-05-01T09:58:35Z</time></trkpt><trkpt lat="43.843954557869225" lon="10.45330039565097"><ele>12.0</ele><time>2026-05-01T09:58:36Z</time></trkpt><trkpt lat="43.84375972427766" lon="10.453679955171788"><ele>12.0</ele><time>2026-05-01T09:58:37Z</time></trkpt><trkpt lat="43.84356075477922" lon="10.454065853347288"><ele>12.0</ele><time>2026-05-01T09:58:38Z</time></trkpt><trkpt lat="43.843362916247514" lon="10.454448135428326"><ele>12.0</ele><time>2026-05-01T09:58:39Z</time></trkpt><trkpt lat="43.843163166293195" lon="10.454833417975857"><ele>12.0</ele><time>2026-05-01T09:58:40Z</time></trkpt><trkpt lat="43.84296534060474" lon="10.455214234804895"><ele>12.0</ele><time>2026-05-01T09:58:41Z</time></trkpt><trkpt lat="43.84276767738199" lon="10.455600912096495"><ele>11.5</ele><time>2026-05-01T09:58:42Z</time></trkpt><trkpt lat="43.84257245539388" lon="10.455989153782387"><ele>11.0</ele><time>2026-05-01T09:58:43Z</time></trkpt><trkpt lat="43.84237897331959" lon="10.456377472852276"><ele>10.5</ele><time>2026-05-01T09:58:44Z</time></trkpt><trkpt lat="43.84218514507061" lon="10.456767909021014"><ele>10.0</ele><time>2026-05-01T09:58:45Z</time></trkpt><trkpt lat="43.8419906716867" lon="10.457154631764068"><ele>10.5</ele><time>2026-05-01T09:58:46Z</time></trkpt><trkpt lat="43.84179045765679" lon="10.457541168247499"><ele>11.0</ele><time>2026-05-01T09:58:47Z</time></trkpt><trkpt lat="43.84158680996246" lon="10.457928672468666"><ele>11.0</ele><time>2026-05-01T09:58:48Z</time></trkpt><trkpt lat="43.84138664970863" lon="10.458313311023943"><ele>11.0</ele><time>2026-05-01T09:58:49Z</time></trkpt><trkpt lat="43.8411889503673" lon="10.458694613546275"><ele>11.0</ele><time>2026-05-01T09:58:50Z</time></trkpt><trkpt lat="43.840990629380684" lon="10.459079326897992"><ele>11.0</ele><time>2026-05-01T09:58:51Z</time></trkpt><trkpt lat="43.84079279232181" lon="10.459462013694964"><ele>12.0</ele><time>2026-05-01T09:58:52Z</time></trkpt><trkpt lat="43.84059559899999" lon="10.459840981018491"><ele>13.0</ele><time>2026-05-01T09:58:53Z</time></trkpt><trkpt lat="43.84039776633633" lon="10.460217055517127"><ele>13.0</ele><time>2026-05-01T09:58:54Z</time></trkpt><trkpt lat="43.84020036508684" lon="10.460596457438456"><ele>13.0</ele><time>2026-05-01T09:58:54.999Z</time></trkpt><trkpt lat="43.84000292195587" lon="10.460974557682842"><ele>12.5</ele><time>2026-05-01T09:58:55.999Z</time></trkpt><trkpt lat="43.839805813072715" lon="10.461355609345555"><ele>12.0</ele><time>2026-05-01T09:58:56.999Z</time></trkpt><trkpt lat="43.839611064245794" lon="10.461732790733189"><ele>12.0</ele><time>2026-05-01T09:58:57.999Z</time></trkpt><trkpt lat="43.839421826049566" lon="10.462101175940994"><ele>12.0</ele><time>2026-05-01T09:58:58.999Z</time></trkpt><trkpt lat="43.83923746029003" lon="10.462457655284599"><ele>12.5</ele><time>2026-05-01T09:58:59.999Z</time></trkpt><trkpt lat="43.83905741325433" lon="10.462803156014346"><ele>13.0</ele><time>2026-05-01T09:59:00.999Z</time></trkpt><trkpt lat="43.83889343504193" lon="10.463111655928687"><ele>13.0</ele><time>2026-05-01T09:59:01.999Z</time></trkpt><trkpt lat="43.838748404367216" lon="10.463385923205175"><ele>13.0</ele><time>2026-05-01T09:59:02.999Z</time></trkpt><trkpt lat="43.83860447472086" lon="10.463668559875387"><ele>13.5</ele><time>2026-05-01T09:59:03.999Z</time></trkpt><trkpt lat="43.83844868025357" lon="10.463969773044813"><ele>14.0</ele><time>2026-05-01T09:59:04.999Z</time></trkpt><trkpt lat="43.838289269287735" lon="10.464282615923942"><ele>14.0</ele><time>2026-05-01T09:59:05.999Z</time></trkpt><trkpt lat="43.83812997899345" lon="10.46460514951719"><ele>14.0</ele><time>2026-05-01T09:59:06.999Z</time></trkpt><trkpt lat="43.837978890850984" lon="10.464926661566729"><ele>14.0</ele><time>2026-05-01T09:59:07.999Z</time></trkpt><trkpt lat="43.83783906246146" lon="10.465254725631741"><ele>14.0</ele><time>2026-05-01T09:59:08.999Z</time></trkpt><trkpt lat="43.8377080576153" lon="10.46558706713139"><ele>14.0</ele><time>2026-05-01T09:59:09.999Z</time></trkpt><trkpt lat="43.83758255504503" lon="10.465915352750093"><ele>14.0</ele><time>2026-05-01T09:59:10.999Z</time></trkpt><trkpt lat="43.837466581105396" lon="10.466245997215799"><ele>14.0</ele><time>2026-05-01T09:59:11.999Z</time></trkpt><trkpt lat="43.83735968813166" lon="10.46658275639256"><ele>14.0</ele><time>2026-05-01T09:59:12.999Z</time></trkpt><trkpt lat="43.837259577395514" lon="10.466923005672577"><ele>13.5</ele><time>2026-05-01T09:59:13.999Z</time></trkpt><trkpt lat="43.83716576503732" lon="10.467270642942191"><ele>13.0</ele><time>2026-05-01T09:59:14.999Z</time></trkpt><trkpt lat="43.837076239399984" lon="10.467619313785173"><ele>12.5</ele><time>2026-05-01T09:59:15.999Z</time></trkpt><trkpt lat="43.83699069441105" lon="10.46796307123831"><ele>12.0</ele><time>2026-05-01T09:59:16.999Z</time></trkpt><trkpt lat="43.83690960331873" lon="10.468294054743334"><ele>12.0</ele><time>2026-05-01T09:59:17.999Z</time></trkpt><trkpt lat="43.83683268303202" lon="10.468599659870964"><ele>12.0</ele><time>2026-05-01T09:59:18.999Z</time></trkpt><trkpt lat="43.836761217090235" lon="10.468889532973975"><ele>12.333333333333332</ele><time>2026-05-01T09:59:19.999Z</time></trkpt><trkpt lat="43.836692584069795" lon="10.469165875336946"><ele>12.666666666666666</ele><time>2026-05-01T09:59:20.999Z</time></trkpt><trkpt lat="43.83662219783809" lon="10.469434762323171"><ele>13.0</ele><time>2026-05-01T09:59:21.999Z</time></trkpt><trkpt lat="43.83655579336638" lon="10.469700967549787"><ele>13.0</ele><time>2026-05-01T09:59:22.999Z</time></trkpt><trkpt lat="43.836492734775874" lon="10.469950782023176"><ele>13.0</ele><time>2026-05-01T09:59:23.999Z</time></trkpt><trkpt lat="43.836437247642145" lon="10.470176497251073"><ele>13.0</ele><time>2026-05-01T09:59:24.999Z</time></trkpt><trkpt lat="43.8363850119367" lon="10.470394098519192"><ele>13.0</ele><time>2026-05-01T09:59:25.999Z</time></trkpt><trkpt lat="43.836333004001624" lon="10.47060848024059"><ele>13.0</ele><time>2026-05-01T09:59:26.999Z</time></trkpt><trkpt lat="43.83628363947265" lon="10.470814869575399"><ele>13.0</ele><time>2026-05-01T09:59:27.999Z</time></trkpt><trkpt lat="43.83623365669672" lon="10.471014869537791"><ele>13.0</ele><time>2026-05-01T09:59:28.999Z</time></trkpt><trkpt lat="43.83618223197385" lon="10.471219750901653"><ele>13.0</ele><time>2026-05-01T09:59:29.999Z</time></trkpt><trkpt lat="43.8361250494948" lon="10.471445375989578"><ele>13.0</ele><time>2026-05-01T09:59:30.999Z</time></trkpt><trkpt lat="43.83606294296741" lon="10.47168298715945"><ele>12.333333333333332</ele><time>2026-05-01T09:59:31.999Z</time></trkpt><trkpt lat="43.83600198906781" lon="10.471916954259008"><ele>11.666666666666666</ele><time>2026-05-01T09:59:32.999Z</time></trkpt><trkpt lat="43.835936169456104" lon="10.472162896795854"><ele>11.0</ele><time>2026-05-01T09:59:33.999Z</time></trkpt><trkpt lat="43.835857674078134" lon="10.472426170113646"><ele>10.666666666666666</ele><time>2026-05-01T09:59:34.999Z</time></trkpt><trkpt lat="43.835765328709584" lon="10.472674970158598"><ele>10.333333333333334</ele><time>2026-05-01T09:59:35.999Z</time></trkpt><trkpt lat="43.83565216208811" lon="10.472903854595796"><ele>10.0</ele><time>2026-05-01T09:59:36.999Z</time></trkpt><trkpt lat="43.835522036467495" lon="10.473116944736717"><ele>10.666666666666668</ele><time>2026-05-01T09:59:37.999Z</time></trkpt><trkpt lat="43.83537388184687" lon="10.473310906651646"><ele>11.333333333333334</ele><time>2026-05-01T09:59:38.999Z</time></trkpt><trkpt lat="43.835206165957985" lon="10.473480231431983"><ele>12.0</ele><time>2026-05-01T09:59:39.999Z</time></trkpt><trkpt lat="43.83503637848859" lon="10.473611359492779"><ele>12.0</ele><time>2026-05-01T09:59:40.999Z</time></trkpt><trkpt lat="43.83487172463093" lon="10.473713981429714"><ele>12.0</ele><time>2026-05-01T09:59:41.999Z</time></trkpt><trkpt lat="43.83471303851313" lon="10.47378001430415"><ele>12.0</ele><time>2026-05-01T09:59:42.999Z</time></trkpt><trkpt lat="43.83454769546107" lon="10.473825791759817"><ele>12.0</ele><time>2026-05-01T09:59:43.999Z</time></trkpt><trkpt lat="43.83436684252116" lon="10.473866032637543"><ele>12.0</ele><time>2026-05-01T09:59:44.999Z</time></trkpt><trkpt lat="43.83417783686836" lon="10.473891978855391"><ele>12.0</ele><time>2026-05-01T09:59:45.999Z</time></trkpt><trkpt lat="43.83398676425871" lon="10.473904263721936"><ele>12.0</ele><time>2026-05-01T09:59:46.999Z</time></trkpt><trkpt lat="43.83379341350938" lon="10.47392345137598"><ele>12.0</ele><time>2026-05-01T09:59:47.999Z</time></trkpt><trkpt lat="43.83359802335517" lon="10.47396147270407"><ele>12.0</ele><time>2026-05-01T09:59:48.999Z</time></trkpt><trkpt lat="43.833398409293515" lon="10.474022769914713"><ele>12.0</ele><time>2026-05-01T09:59:49.999Z</time></trkpt><trkpt lat="43.83319454217819" lon="10.474111983981134"><ele>12.0</ele><time>2026-05-01T09:59:51Z</time></trkpt><trkpt lat="43.83299230626821" lon="10.474227627615656"><ele>12.0</ele><time>2026-05-01T09:59:52Z</time></trkpt><trkpt lat="43.83279505479549" lon="10.474374331743814"><ele>12.0</ele><time>2026-05-01T09:59:53Z</time></trkpt><trkpt lat="43.83260056522363" lon="10.474544415150174"><ele>12.0</ele><time>2026-05-01T09:59:54Z</time></trkpt><trkpt lat="43.832411721145284" lon="10.474721116682085"><ele>12.0</ele><time>2026-05-01T09:59:55Z</time></trkpt><trkpt lat="43.83223771922884" lon="10.474902939886919"><ele>12.0</ele><time>2026-05-01T09:59:56Z</time></trkpt><trkpt lat="43.832094933224056" lon="10.475090713039927"><ele>12.0</ele><time>2026-05-01T09:59:57Z</time></trkpt><trkpt lat="43.831990784974685" lon="10.475298401702947"><ele>11.666666666666666</ele><time>2026-05-01T09:59:58Z</time></trkpt><trkpt lat="43.83192025266365" lon="10.475530032401114"><ele>11.333333333333332</ele><time>2026-05-01T09:59:59Z</time></trkpt><trkpt lat="43.83188728043817" lon="10.475787291892571"><ele>11.0</ele><time>2026-05-01T10:00:00Z</time></trkpt><trkpt lat="43.83189496166761" lon="10.476054788903548"><ele>11.0</ele><time>2026-05-01T10:00:01Z</time></trkpt><trkpt lat="43.83194405206843" lon="10.47632603316548"><ele>11.0</ele><time>2026-05-01T10:00:02Z</time></trkpt><trkpt lat="43.83202517790649" lon="10.476599542845115"><ele>11.0</ele><time>2026-05-01T10:00:03Z</time></trkpt><trkpt lat="43.83211524116183" lon="10.476875507293474"><ele>11.333333333333332</ele><time>2026-05-01T10:00:04Z</time></trkpt><trkpt lat="43.83220025639041" lon="10.477163095717346"><ele>11.666666666666666</ele><time>2026-05-01T10:00:05Z</time></trkpt><trkpt lat="43.832274066234866" lon="10.477452916238096"><ele>12.0</ele><time>2026-05-01T10:00:06Z</time></trkpt><trkpt lat="43.83232504944462" lon="10.477751738956474"><ele>13.0</ele><time>2026-05-01T10:00:07Z</time></trkpt><trkpt lat="43.832357265769225" lon="10.478056734805543"><ele>14.0</ele><time>2026-05-01T10:00:08Z</time></trkpt><trkpt lat="43.83236423331755" lon="10.478380592460024"><ele>14.0</ele><time>2026-05-01T10:00:09Z</time></trkpt><trkpt lat="43.832337814310364" lon="10.478719007719153"><ele>14.0</ele><time>2026-05-01T10:00:10Z</time></trkpt><trkpt lat="43.832296949942" lon="10.47906438536544"><ele>13.0</ele><time>2026-05-01T10:00:11Z</time></trkpt><trkpt lat="43.83224370193276" lon="10.479424690098575"><ele>12.0</ele><time>2026-05-01T10:00:12Z</time></trkpt><trkpt lat="43.832193079222044" lon="10.479788330336865"><ele>12.0</ele><time>2026-05-01T10:00:13Z</time></trkpt><trkpt lat="43.83214833253498" lon="10.48015911214808"><ele>12.0</ele><time>2026-05-01T10:00:14Z</time></trkpt><trkpt lat="43.832101284221395" lon="10.480521460178826"><ele>11.5</ele><time>2026-05-01T10:00:15Z</time></trkpt><trkpt lat="43.83205521602639" lon="10.48087546342392"><ele>11.0</ele><time>2026-05-01T10:00:16Z</time></trkpt><trkpt lat="43.83200577693851" lon="10.481232175594597"><ele>11.0</ele><time>2026-05-01T10:00:17Z</time></trkpt><trkpt lat="43.83195539959105" lon="10.481592488575695"><ele>11.0</ele><time>2026-05-01T10:00:18Z</time></trkpt><trkpt lat="43.83190502575437" lon="10.481953133093457"><ele>11.0</ele><time>2026-05-01T10:00:19Z</time></trkpt><trkpt lat="43.831853095166956" lon="10.48231959765294"><ele>11.0</ele><time>2026-05-01T10:00:20Z</time></trkpt><trkpt lat="43.831800957118446" lon="10.482699180095793"><ele>11.5</ele><time>2026-05-01T10:00:21Z</time></trkpt><trkpt lat="43.83174668972362" lon="10.483094014758157"><ele>12.0</ele><time>2026-05-01T10:00:22Z</time></trkpt><trkpt lat="43.83169043258137" lon="10.483498995638778"><ele>11.5</ele><time>2026-05-01T10:00:23Z</time></trkpt><trkpt lat="43.8316335283878" lon="10.483909174485413"><ele>11.0</ele><time>2026-05-01T10:00:24Z</time></trkpt><trkpt lat="43.83157272406287" lon="10.484325530757722"><ele>11.0</ele><time>2026-05-01T10:00:25Z</time></trkpt><trkpt lat="43.83150737610593" lon="10.484751353408694"><ele>11.0</ele><time>2026-05-01T10:00:26Z</time></trkpt><trkpt lat="43.831439653173675" lon="10.485182091673822"><ele>11.0</ele><time>2026-05-01T10:00:27Z</time></trkpt><trkpt lat="43.83137467206619" lon="10.485614397387929"><ele>11.0</ele><time>2026-05-01T10:00:28Z</time></trkpt><trkpt lat="43.83130758256197" lon="10.486055168399831"><ele>11.0</ele><time>2026-05-01T10:00:29Z</time></trkpt><trkpt lat="43.83124104024197" lon="10.486494823425984"><ele>11.0</ele><time>2026-05-01T10:00:30Z</time></trkpt><trkpt lat="43.83117338401433" lon="10.486933903771606"><ele>11.5</ele><time>2026-05-01T10:00:31Z</time></trkpt><trkpt lat="43.83110578654845" lon="10.487371566612579"><ele>12.0</ele><time>2026-05-01T10:00:32Z</time></trkpt><trkpt lat="43.83103766334395" lon="10.487809598638732"><ele>12.0</ele><time>2026-05-01T10:00:33Z</time></trkpt><trkpt lat="43.83096769619623" lon="10.488251536080956"><ele>12.0</ele><time>2026-05-01T10:00:34Z</time></trkpt><trkpt lat="43.830898755354795" lon="10.488697242633322"><ele>11.5</ele><time>2026-05-01T10:00:35Z</time></trkpt><trkpt lat="43.83082895251688" lon="10.489149890406562"><ele>11.0</ele><time>2026-05-01T10:00:36Z</time></trkpt><trkpt lat="43.83075837535527" lon="10.489609311932245"><ele>11.5</ele><time>2026-05-01T10:00:37Z</time></trkpt><trkpt lat="43.830687252473695" lon="10.490067990572015"><ele>12.0</ele><time>2026-05-01T10:00:38Z</time></trkpt><trkpt lat="43.83061388170116" lon="10.490524225472754"><ele>12.0</ele><time>2026-05-01T10:00:39Z</time></trkpt><trkpt lat="43.830540454251704" lon="10.490981435828466"><ele>12.0</ele><time>2026-05-01T10:00:40Z</time></trkpt><trkpt lat="43.83046925631533" lon="10.491437937786687"><ele>12.0</ele><time>2026-05-01T10:00:41Z</time></trkpt><trkpt lat="43.83039914704196" lon="10.491895094042478"><ele>12.0</ele><time>2026-05-01T10:00:42Z</time></trkpt><trkpt lat="43.830328941256774" lon="10.492352098095742"><ele>12.0</ele><time>2026-05-01T10:00:43Z</time></trkpt><trkpt lat="43.83025771746134" lon="10.492806974436702"><ele>12.0</ele><time>2026-05-01T10:00:44Z</time></trkpt><trkpt lat="43.83018570243816" lon="10.493263269425585"><ele>12.0</ele><time>2026-05-01T10:00:45Z</time></trkpt><trkpt lat="43.83011422057723" lon="10.493718959792337"><ele>12.0</ele><time>2026-05-01T10:00:46Z</time></trkpt><trkpt lat="43.830043617874004" lon="10.49418138318588"><ele>12.5</ele><time>2026-05-01T10:00:46.999Z</time></trkpt><trkpt lat="43.82997405678227" lon="10.49464266237031"><ele>13.0</ele><time>2026-05-01T10:00:47.999Z</time></trkpt><trkpt lat="43.829903323166576" lon="10.495101366421126"><ele>13.0</ele><time>2026-05-01T10:00:48.999Z</time></trkpt><trkpt lat="43.82983265511914" lon="10.495557752465013"><ele>13.0</ele><time>2026-05-01T10:00:49.999Z</time></trkpt><trkpt lat="43.82975979459623" lon="10.49601697017284"><ele>13.0</ele><time>2026-05-01T10:00:50.999Z</time></trkpt><trkpt lat="43.82968450428121" lon="10.496479941711893"><ele>13.0</ele><time>2026-05-01T10:00:51.999Z</time></trkpt><trkpt lat="43.82960985057015" lon="10.496945378688391"><ele>13.0</ele><time>2026-05-01T10:00:52.999Z</time></trkpt><trkpt lat="43.829535398885454" lon="10.497410092387906"><ele>13.0</ele><time>2026-05-01T10:00:53.999Z</time></trkpt><trkpt lat="43.82945993419785" lon="10.497874361584481"><ele>12.5</ele><time>2026-05-01T10:00:54.999Z</time></trkpt><trkpt lat="43.829385043249275" lon="10.498340215816766"><ele>12.0</ele><time>2026-05-01T10:00:55.999Z</time></trkpt><trkpt lat="43.82931131435319" lon="10.498805689640262"><ele>12.0</ele><time>2026-05-01T10:00:56.999Z</time></trkpt><trkpt lat="43.82923914804953" lon="10.499267369712479"><ele>12.0</ele><time>2026-05-01T10:00:57.999Z</time></trkpt><trkpt lat="43.82916586427408" lon="10.49972788560347"><ele>12.0</ele><time>2026-05-01T10:00:58.999Z</time></trkpt><trkpt lat="43.8290924965902" lon="10.500186164406518"><ele>12.0</ele><time>2026-05-01T10:00:59.999Z</time></trkpt><trkpt lat="43.829019780326554" lon="10.500643495918093"><ele>12.0</ele><time>2026-05-01T10:01:00.999Z</time></trkpt><trkpt lat="43.82894788703514" lon="10.5011006320938"><ele>12.0</ele><time>2026-05-01T10:01:01.999Z</time></trkpt><trkpt lat="43.828881246218614" lon="10.501560482294435"><ele>12.0</ele><time>2026-05-01T10:01:02.999Z</time></trkpt><trkpt lat="43.82882163744551" lon="10.502021979368351"><ele>12.0</ele><time>2026-05-01T10:01:03.999Z</time></trkpt><trkpt lat="43.828770375675354" lon="10.502492397470515"><ele>12.5</ele><time>2026-05-01T10:01:04.999Z</time></trkpt><trkpt lat="43.828725939792285" lon="10.502967201343592"><ele>13.0</ele><time>2026-05-01T10:01:05.999Z</time></trkpt><trkpt lat="43.828687538810975" lon="10.503441325743236"><ele>13.0</ele><time>2026-05-01T10:01:06.999Z</time></trkpt><trkpt lat="43.82865357140869" lon="10.50391306294252"><ele>13.0</ele><time>2026-05-01T10:01:07.999Z</time></trkpt><trkpt lat="43.828625301305365" lon="10.50438293038701"><ele>12.5</ele><time>2026-05-01T10:01:08.999Z</time></trkpt><trkpt lat="43.82860391023996" lon="10.504855962061182"><ele>12.0</ele><time>2026-05-01T10:01:09.999Z</time></trkpt><trkpt lat="43.82858866161785" lon="10.505332167901477"><ele>12.0</ele><time>2026-05-01T10:01:10.999Z</time></trkpt><trkpt lat="43.82857625539234" lon="10.505810680364187"><ele>12.0</ele><time>2026-05-01T10:01:11.999Z</time></trkpt><trkpt lat="43.82856453721119" lon="10.506288898459289"><ele>12.0</ele><time>2026-05-01T10:01:12.999Z</time></trkpt><trkpt lat="43.82855429056765" lon="10.506768405013977"><ele>12.0</ele><time>2026-05-01T10:01:13.999Z</time></trkpt><trkpt lat="43.82854507455684" lon="10.50725077107395"><ele>11.0</ele><time>2026-05-01T10:01:14.999Z</time></trkpt><trkpt lat="43.82853706977806" lon="10.507734681409854"><ele>10.0</ele><time>2026-05-01T10:01:15.999Z</time></trkpt><trkpt lat="43.82852997137771" lon="10.508208567821814"><ele>9.5</ele><time>2026-05-01T10:01:16.999Z</time></trkpt><trkpt lat="43.82852202371242" lon="10.508681369121584"><ele>9.0</ele><time>2026-05-01T10:01:17.999Z</time></trkpt><trkpt lat="43.82851328921101" lon="10.509152813744251"><ele>10.5</ele><time>2026-05-01T10:01:18.999Z</time></trkpt><trkpt lat="43.82850362252343" lon="10.509625963546213"><ele>12.0</ele><time>2026-05-01T10:01:19.999Z</time></trkpt><trkpt lat="43.828492767072106" lon="10.510097766647585"><ele>13.0</ele><time>2026-05-01T10:01:20.999Z</time></trkpt><trkpt lat="43.82848192753129" lon="10.510567506697214"><ele>14.0</ele><time>2026-05-01T10:01:21.999Z</time></trkpt><trkpt lat="43.82847067196965" lon="10.5110383102437"><ele>14.0</ele><time>2026-05-01T10:01:22.999Z</time></trkpt><trkpt lat="43.828458768687334" lon="10.51150937149757"><ele>14.0</ele><time>2026-05-01T10:01:23.999Z</time></trkpt><trkpt lat="43.82844740402025" lon="10.51197743592918"><ele>14.0</ele><time>2026-05-01T10:01:24.999Z</time></trkpt><trkpt lat="43.82843529796795" lon="10.512444476937281"><ele>14.0</ele><time>2026-05-01T10:01:25.999Z</time></trkpt><trkpt lat="43.82842437584179" lon="10.512917196934076"><ele>12.5</ele><time>2026-05-01T10:01:26.999Z</time></trkpt><trkpt lat="43.82841415974726" lon="10.513393531389418"><ele>11.0</ele><time>2026-05-01T10:01:27.999Z</time></trkpt><trkpt lat="43.828404609426805" lon="10.513872046486783"><ele>11.0</ele><time>2026-05-01T10:01:28.999Z</time></trkpt><trkpt lat="43.82839599815711" lon="10.51434925892922"><ele>11.0</ele><time>2026-05-01T10:01:29.999Z</time></trkpt><trkpt lat="43.828387736344304" lon="10.514824121433387"><ele>11.5</ele><time>2026-05-01T10:01:30.999Z</time></trkpt><trkpt lat="43.8283784730006" lon="10.51528710740171"><ele>12.0</ele><time>2026-05-01T10:01:31.999Z</time></trkpt><trkpt lat="43.82836786322635" lon="10.515745721713273"><ele>12.0</ele><time>2026-05-01T10:01:32.999Z</time></trkpt><trkpt lat="43.82835768349544" lon="10.516204020504668"><ele>12.0</ele><time>2026-05-01T10:01:33.999Z</time></trkpt><trkpt lat="43.828349020844755" lon="10.516666715790684"><ele>12.5</ele><time>2026-05-01T10:01:34.999Z</time></trkpt><trkpt lat="43.82833970933956" lon="10.517134090298553"><ele>13.0</ele><time>2026-05-01T10:01:35.999Z</time></trkpt><trkpt lat="43.82832991841555" lon="10.517602882403555"><ele>13.0</ele><time>2026-05-01T10:01:36.999Z</time></trkpt><trkpt lat="43.82831953695807" lon="10.51807152043565"><ele>13.0</ele><time>2026-05-01T10:01:37.999Z</time></trkpt><trkpt lat="43.82831031034433" lon="10.518543701206651"><ele>12.5</ele><time>2026-05-01T10:01:38.999Z</time></trkpt><trkpt lat="43.828301197477394" lon="10.519018415024357"><ele>12.0</ele><time>2026-05-01T10:01:39.999Z</time></trkpt><trkpt lat="43.828291097491544" lon="10.519499554115534"><ele>12.0</ele><time>2026-05-01T10:01:40.999Z</time></trkpt><trkpt lat="43.82827958994792" lon="10.519983569577615"><ele>12.0</ele><time>2026-05-01T10:01:41.999Z</time></trkpt><trkpt lat="43.8282679889859" lon="10.520464200061346"><ele>12.0</ele><time>2026-05-01T10:01:42.999Z</time></trkpt><trkpt lat="43.828257165762636" lon="10.520935064903004"><ele>12.0</ele><time>2026-05-01T10:01:43.999Z</time></trkpt><trkpt lat="43.82824572530058" lon="10.521403766995867"><ele>12.0</ele><time>2026-05-01T10:01:44.999Z</time></trkpt><trkpt lat="43.828235413679906" lon="10.52187198416498"><ele>12.0</ele><time>2026-05-01T10:01:45.999Z</time></trkpt><trkpt lat="43.82822587867164" lon="10.522342769566178"><ele>11.5</ele><time>2026-05-01T10:01:46.999Z</time></trkpt><trkpt lat="43.82821501532463" lon="10.522811480281241"><ele>11.0</ele><time>2026-05-01T10:01:47.999Z</time></trkpt><trkpt lat="43.828204786636164" lon="10.52328462514601"><ele>11.5</ele><time>2026-05-01T10:01:48.999Z</time></trkpt><trkpt lat="43.828195397257595" lon="10.523753991320405"><ele>12.0</ele><time>2026-05-01T10:01:49.999Z</time></trkpt><trkpt lat="43.8281870921959" lon="10.524228777830599"><ele>11.0</ele><time>2026-05-01T10:01:50.999Z</time></trkpt><trkpt lat="43.828177105825915" lon="10.524699545635228"><ele>10.0</ele><time>2026-05-01T10:01:51.999Z</time></trkpt><trkpt lat="43.82816754953963" lon="10.52516420257408"><ele>9.5</ele><time>2026-05-01T10:01:52.999Z</time></trkpt><trkpt lat="43.828159357101306" lon="10.525632065486738"><ele>9.0</ele><time>2026-05-01T10:01:53.999Z</time></trkpt><trkpt lat="43.8281503270477" lon="10.526102447217133"><ele>10.5</ele><time>2026-05-01T10:01:54.999Z</time></trkpt><trkpt lat="43.82814144501684" lon="10.526574924890687"><ele>12.0</ele><time>2026-05-01T10:01:55.999Z</time></trkpt><trkpt lat="43.828132650422575" lon="10.527045765951833"><ele>12.0</ele><time>2026-05-01T10:01:57Z</time></trkpt><trkpt lat="43.8281232355258" lon="10.527518472159182"><ele>12.0</ele><time>2026-05-01T10:01:58Z</time></trkpt><trkpt lat="43.82811441837148" lon="10.527995715596473"><ele>12.0</ele><time>2026-05-01T10:01:59Z</time></trkpt><trkpt lat="43.82810518877426" lon="10.52847961609206"><ele>12.0</ele><time>2026-05-01T10:02:00Z</time></trkpt><trkpt lat="43.82809448563461" lon="10.528966522660186"><ele>13.0</ele><time>2026-05-01T10:02:01Z</time></trkpt><trkpt lat="43.82808260092764" lon="10.529448040718725"><ele>14.0</ele><time>2026-05-01T10:02:02Z</time></trkpt><trkpt lat="43.828070175045156" lon="10.529922312773902"><ele>13.0</ele><time>2026-05-01T10:02:03Z</time></trkpt><trkpt lat="43.82805856789567" lon="10.530398907684381"><ele>12.0</ele><time>2026-05-01T10:02:04Z</time></trkpt><trkpt lat="43.82804751260732" lon="10.530872425992822"><ele>13.0</ele><time>2026-05-01T10:02:05Z</time></trkpt><trkpt lat="43.828036316908" lon="10.53134407276046"><ele>14.0</ele><time>2026-05-01T10:02:06Z</time></trkpt><trkpt lat="43.8280264062473" lon="10.531814924173243"><ele>14.0</ele><time>2026-05-01T10:02:07Z</time></trkpt><trkpt lat="43.82801767266906" lon="10.532281018300118"><ele>14.0</ele><time>2026-05-01T10:02:08Z</time></trkpt><trkpt lat="43.82800651414312" lon="10.532750348411694"><ele>14.5</ele><time>2026-05-01T10:02:09Z</time></trkpt><trkpt lat="43.82799536956355" lon="10.53321617987734"><ele>15.0</ele><time>2026-05-01T10:02:10Z</time></trkpt><trkpt lat="43.82798283450005" lon="10.533684706402376"><ele>14.5</ele><time>2026-05-01T10:02:11Z</time></trkpt><trkpt lat="43.827973403333914" lon="10.534153994480183"><ele>14.0</ele><time>2026-05-01T10:02:12Z</time></trkpt><trkpt lat="43.82796514942785" lon="10.534626696257313"><ele>14.5</ele><time>2026-05-01T10:02:13Z</time></trkpt><trkpt lat="43.82795635579045" lon="10.535099424591666"><ele>15.0</ele><time>2026-05-01T10:02:14Z</time></trkpt><trkpt lat="43.82794825551125" lon="10.535569049075923"><ele>15.0</ele><time>2026-05-01T10:02:15Z</time></trkpt><trkpt lat="43.82794024574556" lon="10.536036873143795"><ele>15.0</ele><time>2026-05-01T10:02:16Z</time></trkpt><trkpt lat="43.827930923290516" lon="10.536509270896003"><ele>15.0</ele><time>2026-05-01T10:02:17Z</time></trkpt><trkpt lat="43.827920360856204" lon="10.536978774193988"><ele>15.0</ele><time>2026-05-01T10:02:18Z</time></trkpt><trkpt lat="43.82790665460281" lon="10.537449878037338"><ele>14.0</ele><time>2026-05-01T10:02:19Z</time></trkpt><trkpt lat="43.827895074146085" lon="10.537917995777686"><ele>13.0</ele><time>2026-05-01T10:02:20Z</time></trkpt><trkpt lat="43.82788361295944" lon="10.53837845898235"><ele>13.0</ele><time>2026-05-01T10:02:21Z</time></trkpt><trkpt lat="43.82787280219903" lon="10.538830485368525"><ele>13.0</ele><time>2026-05-01T10:02:22Z</time></trkpt><trkpt lat="43.827857820585066" lon="10.539286779633263"><ele>13.5</ele><time>2026-05-01T10:02:23Z</time></trkpt><trkpt lat="43.82783711605433" lon="10.539747160900154"><ele>14.0</ele><time>2026-05-01T10:02:24Z</time></trkpt><trkpt lat="43.82781675284303" lon="10.540205427233872"><ele>14.5</ele><time>2026-05-01T10:02:25Z</time></trkpt><trkpt lat="43.827806074237834" lon="10.540664872427417"><ele>15.0</ele><time>2026-05-01T10:02:26Z</time></trkpt><trkpt lat="43.82779886549339" lon="10.541125033496778"><ele>15.0</ele><time>2026-05-01T10:02:27Z</time></trkpt><trkpt lat="43.8277924560717" lon="10.541593363877292"><ele>15.0</ele><time>2026-05-01T10:02:28Z</time></trkpt><trkpt lat="43.82778533805406" lon="10.54206281234074"><ele>15.0</ele><time>2026-05-01T10:02:29Z</time></trkpt><trkpt lat="43.827778006171606" lon="10.542530551375974"><ele>15.0</ele><time>2026-05-01T10:02:30Z</time></trkpt><trkpt lat="43.827771344808596" lon="10.543001055001946"><ele>14.5</ele><time>2026-05-01T10:02:31Z</time></trkpt><trkpt lat="43.82776433661215" lon="10.543471760464334"><ele>14.0</ele><time>2026-05-01T10:02:32Z</time></trkpt><trkpt lat="43.82775723408852" lon="10.54394410461869"><ele>14.0</ele><time>2026-05-01T10:02:33Z</time></trkpt><trkpt lat="43.827750973017395" lon="10.544417809711346"><ele>14.0</ele><time>2026-05-01T10:02:34Z</time></trkpt><trkpt lat="43.827745655473215" lon="10.544890675322636"><ele>13.5</ele><time>2026-05-01T10:02:35Z</time></trkpt><trkpt lat="43.8277386094576" lon="10.54536094325817"><ele>13.0</ele><time>2026-05-01T10:02:36Z</time></trkpt><trkpt lat="43.827730682848056" lon="10.545828921379279"><ele>13.5</ele><time>2026-05-01T10:02:37Z</time></trkpt><trkpt lat="43.8277225788237" lon="10.546297192677109"><ele>14.0</ele><time>2026-05-01T10:02:38Z</time></trkpt><trkpt lat="43.82771260083929" lon="10.546766300504412"><ele>13.5</ele><time>2026-05-01T10:02:39Z</time></trkpt><trkpt lat="43.82770246415773" lon="10.547235951166687"><ele>13.0</ele><time>2026-05-01T10:02:40Z</time></trkpt><trkpt lat="43.82769095821378" lon="10.547708057528729"><ele>12.0</ele><time>2026-05-01T10:02:41Z</time></trkpt><trkpt lat="43.82768005100753" lon="10.548181827906472"><ele>11.0</ele><time>2026-05-01T10:02:42Z</time></trkpt><trkpt lat="43.82767013681309" lon="10.548656686179699"><ele>11.0</ele><time>2026-05-01T10:02:43Z</time></trkpt><trkpt lat="43.82766182416006" lon="10.549133669862472"><ele>11.0</ele><time>2026-05-01T10:02:43.999Z</time></trkpt><trkpt lat="43.82765146193478" lon="10.549609028634968"><ele>11.5</ele><time>2026-05-01T10:02:44.999Z</time></trkpt><trkpt lat="43.827641511091485" lon="10.550079305077023"><ele>12.0</ele><time>2026-05-01T10:02:45.999Z</time></trkpt><trkpt lat="43.82762985739132" lon="10.550549863940526"><ele>12.5</ele><time>2026-05-01T10:02:46.999Z</time></trkpt><trkpt lat="43.8276164875833" lon="10.551023222856527"><ele>13.0</ele><time>2026-05-01T10:02:47.999Z</time></trkpt><trkpt lat="43.82760069710097" lon="10.551494137880349"><ele>13.0</ele><time>2026-05-01T10:02:48.999Z</time></trkpt><trkpt lat="43.827580356312076" lon="10.551966799555935"><ele>13.0</ele><time>2026-05-01T10:02:49.999Z</time></trkpt><trkpt lat="43.82755637897052" lon="10.552439090425786"><ele>12.0</ele><time>2026-05-01T10:02:50.999Z</time></trkpt><trkpt lat="43.8275280171928" lon="10.552911365720773"><ele>11.0</ele><time>2026-05-01T10:02:51.999Z</time></trkpt><trkpt lat="43.82749492026548" lon="10.553381588727012"><ele>11.5</ele><time>2026-05-01T10:02:52.999Z</time></trkpt><trkpt lat="43.82745665974023" lon="10.55385183805579"><ele>12.0</ele><time>2026-05-01T10:02:53.999Z</time></trkpt><trkpt lat="43.82741568671643" lon="10.554319879904938"><ele>12.5</ele><time>2026-05-01T10:02:54.999Z</time></trkpt><trkpt lat="43.8273705051775" lon="10.554788476858139"><ele>13.0</ele><time>2026-05-01T10:02:55.999Z</time></trkpt><trkpt lat="43.82732247197067" lon="10.555256511602451"><ele>13.5</ele><time>2026-05-01T10:02:56.999Z</time></trkpt><trkpt lat="43.82727117585259" lon="10.555722762197012"><ele>14.0</ele><time>2026-05-01T10:02:57.999Z</time></trkpt><trkpt lat="43.827221411478725" lon="10.556187182298633"><ele>14.0</ele><time>2026-05-01T10:02:58.999Z</time></trkpt><trkpt lat="43.82717006755743" lon="10.556648392107913"><ele>14.0</ele><time>2026-05-01T10:02:59.999Z</time></trkpt><trkpt lat="43.82711754743784" lon="10.557112415383683"><ele>14.5</ele><time>2026-05-01T10:03:00.999Z</time></trkpt><trkpt lat="43.82706315316168" lon="10.557575779735394"><ele>15.0</ele><time>2026-05-01T10:03:01.999Z</time></trkpt><trkpt lat="43.827008770133475" lon="10.558041512320159"><ele>14.0</ele><time>2026-05-01T10:03:02.999Z</time></trkpt><trkpt lat="43.82695322961826" lon="10.558508790384863"><ele>13.0</ele><time>2026-05-01T10:03:03.999Z</time></trkpt><trkpt lat="43.82689620200221" lon="10.55897900984108"><ele>12.5</ele><time>2026-05-01T10:03:04.999Z</time></trkpt><trkpt lat="43.826839189642826" lon="10.559450522038738"><ele>12.0</ele><time>2026-05-01T10:03:05.999Z</time></trkpt><trkpt lat="43.826782875848316" lon="10.55992345215662"><ele>12.0</ele><time>2026-05-01T10:03:06.999Z</time></trkpt><trkpt lat="43.8267275367875" lon="10.56039875746004"><ele>12.0</ele><time>2026-05-01T10:03:07.999Z</time></trkpt><trkpt lat="43.826672286476345" lon="10.560872728361668"><ele>12.0</ele><time>2026-05-01T10:03:08.999Z</time></trkpt><trkpt lat="43.826617487053305" lon="10.561342908704374"><ele>12.0</ele><time>2026-05-01T10:03:09.999Z</time></trkpt><trkpt lat="43.826564558885266" lon="10.561810461714899"><ele>12.0</ele><time>2026-05-01T10:03:10.999Z</time></trkpt><trkpt lat="43.82651179782025" lon="10.562278899992446"><ele>12.0</ele><time>2026-05-01T10:03:11.999Z</time></trkpt><trkpt lat="43.826459533253306" lon="10.562747552877447"><ele>12.0</ele><time>2026-05-01T10:03:12.999Z</time></trkpt><trkpt lat="43.82640747075867" lon="10.563212250252334"><ele>12.0</ele><time>2026-05-01T10:03:13.999Z</time></trkpt><trkpt lat="43.826356657436406" lon="10.563676373702256"><ele>12.0</ele><time>2026-05-01T10:03:14.999Z</time></trkpt><trkpt lat="43.8263045651042" lon="10.564143002937262"><ele>12.0</ele><time>2026-05-01T10:03:15.999Z</time></trkpt><trkpt lat="43.82625309076173" lon="10.564608861911658"><ele>12.0</ele><time>2026-05-01T10:03:16.999Z</time></trkpt><trkpt lat="43.8262014887753" lon="10.56506776234489"><ele>12.0</ele><time>2026-05-01T10:03:17.999Z</time></trkpt><trkpt lat="43.82615050669545" lon="10.565520909774285"><ele>11.5</ele><time>2026-05-01T10:03:18.999Z</time></trkpt><trkpt lat="43.82609941105908" lon="10.565973497387052"><ele>11.0</ele><time>2026-05-01T10:03:19.999Z</time></trkpt><trkpt lat="43.82604677762318" lon="10.566431075455771"><ele>11.0</ele><time>2026-05-01T10:03:20.999Z</time></trkpt><trkpt lat="43.825993378290185" lon="10.566887771922353"><ele>11.0</ele><time>2026-05-01T10:03:21.999Z</time></trkpt><trkpt lat="43.82594025614466" lon="10.567340008129934"><ele>11.5</ele><time>2026-05-01T10:03:22.999Z</time></trkpt><trkpt lat="43.82588833181103" lon="10.567788732114247"><ele>12.0</ele><time>2026-05-01T10:03:23.999Z</time></trkpt><trkpt lat="43.82583613921989" lon="10.56824136791709"><ele>12.0</ele><time>2026-05-01T10:03:24.999Z</time></trkpt><trkpt lat="43.825783062058875" lon="10.568698067125139"><ele>12.0</ele><time>2026-05-01T10:03:25.999Z</time></trkpt><trkpt lat="43.825729943129524" lon="10.56915740195879"><ele>11.5</ele><time>2026-05-01T10:03:26.999Z</time></trkpt><trkpt lat="43.825678165023504" lon="10.569613577372923"><ele>11.0</ele><time>2026-05-01T10:03:27.999Z</time></trkpt><trkpt lat="43.825628770274" lon="10.570066538783545"><ele>11.0</ele><time>2026-05-01T10:03:28.999Z</time></trkpt><trkpt lat="43.825578032752865" lon="10.570520850308908"><ele>11.0</ele><time>2026-05-01T10:03:29.999Z</time></trkpt><trkpt lat="43.82552767681691" lon="10.570974423137137"><ele>11.5</ele><time>2026-05-01T10:03:30.999Z</time></trkpt><trkpt lat="43.82547652264006" lon="10.571418671852317"><ele>12.0</ele><time>2026-05-01T10:03:31.999Z</time></trkpt><trkpt lat="43.82542453764519" lon="10.571858249873827"><ele>11.5</ele><time>2026-05-01T10:03:32.999Z</time></trkpt><trkpt lat="43.82537250667695" lon="10.572295957640426"><ele>11.0</ele><time>2026-05-01T10:03:33.999Z</time></trkpt><trkpt lat="43.825323370818644" lon="10.572731697528514"><ele>11.0</ele><time>2026-05-01T10:03:34.999Z</time></trkpt><trkpt lat="43.82527544786804" lon="10.573167235145373"><ele>11.0</ele><time>2026-05-01T10:03:35.999Z</time></trkpt><trkpt lat="43.82522652556658" lon="10.573604071921924"><ele>10.5</ele><time>2026-05-01T10:03:36.999Z</time></trkpt><trkpt lat="43.82517441288998" lon="10.574054104758982"><ele>10.0</ele><time>2026-05-01T10:03:37.999Z</time></trkpt><trkpt lat="43.82511904759943" lon="10.574517822067742"><ele>9.5</ele><time>2026-05-01T10:03:38.999Z</time></trkpt><trkpt lat="43.82506610507132" lon="10.574972051423837"><ele>9.0</ele><time>2026-05-01T10:03:39.999Z</time></trkpt><trkpt lat="43.82501531393732" lon="10.575413793608451"><ele>10.0</ele><time>2026-05-01T10:03:40.999Z</time></trkpt><trkpt lat="43.82496465126028" lon="10.575843494348945"><ele>11.0</ele><time>2026-05-01T10:03:41.999Z</time></trkpt><trkpt lat="43.824915342886584" lon="10.57626397800827"><ele>11.5</ele><time>2026-05-01T10:03:42.999Z</time></trkpt><trkpt lat="43.82486637150326" lon="10.576681486347164"><ele>12.0</ele><time>2026-05-01T10:03:43.999Z</time></trkpt><trkpt lat="43.82481666973201" lon="10.577099267260284"><ele>12.0</ele><time>2026-05-01T10:03:44.999Z</time></trkpt><trkpt lat="43.82476446842633" lon="10.577517382310416"><ele>12.0</ele><time>2026-05-01T10:03:45.999Z</time></trkpt><trkpt lat="43.82471484891634" lon="10.577938175997929"><ele>11.0</ele><time>2026-05-01T10:03:46.999Z</time></trkpt><trkpt lat="43.82466813226604" lon="10.57836262247569"><ele>10.0</ele><time>2026-05-01T10:03:47.999Z</time></trkpt><trkpt lat="43.824621093887984" lon="10.578793702384061"><ele>9.5</ele><time>2026-05-01T10:03:48.999Z</time></trkpt><trkpt lat="43.82457245815638" lon="10.579228992833544"><ele>9.0</ele><time>2026-05-01T10:03:49.999Z</time></trkpt><trkpt lat="43.82452316638242" lon="10.57966523367955"><ele>9.0</ele><time>2026-05-01T10:03:50.999Z</time></trkpt><trkpt lat="43.824473850013305" lon="10.580103608361556"><ele>9.0</ele><time>2026-05-01T10:03:51.999Z</time></trkpt><trkpt lat="43.82442435000719" lon="10.580541827680474"><ele>10.0</ele><time>2026-05-01T10:03:52.999Z</time></trkpt><trkpt lat="43.82437421045584" lon="10.580979243704459"><ele>11.0</ele><time>2026-05-01T10:03:53.999Z</time></trkpt><trkpt lat="43.82432371375648" lon="10.581416549660629"><ele>12.0</ele><time>2026-05-01T10:03:54.999Z</time></trkpt><trkpt lat="43.8242735111763" lon="10.581850775796088"><ele>13.0</ele><time>2026-05-01T10:03:55.999Z</time></trkpt><trkpt lat="43.82422447103236" lon="10.582282329753165"><ele>12.0</ele><time>2026-05-01T10:03:56.999Z</time></trkpt><trkpt lat="43.824175455665696" lon="10.582716293696151"><ele>11.0</ele><time>2026-05-01T10:03:57.999Z</time></trkpt><trkpt lat="43.82412678787092" lon="10.583146637201361"><ele>11.0</ele><time>2026-05-01T10:03:58.999Z</time></trkpt><trkpt lat="43.82407840782156" lon="10.583577495647349"><ele>11.0</ele><time>2026-05-01T10:03:59.999Z</time></trkpt><trkpt lat="43.82402857750993" lon="10.584012807589247"><ele>11.0</ele><time>2026-05-01T10:04:00.999Z</time></trkpt><trkpt lat="43.82397779073309" lon="10.58445695338472"><ele>11.0</ele><time>2026-05-01T10:04:01.999Z</time></trkpt><trkpt lat="43.82392743771645" lon="10.584901797011684"><ele>12.5</ele><time>2026-05-01T10:04:03Z</time></trkpt><trkpt lat="43.82387757236287" lon="10.58534613947777"><ele>14.0</ele><time>2026-05-01T10:04:04Z</time></trkpt><trkpt lat="43.82382772960225" lon="10.585789505421765"><ele>14.0</ele><time>2026-05-01T10:04:05Z</time></trkpt><trkpt lat="43.82377675914477" lon="10.586231475108484"><ele>14.0</ele><time>2026-05-01T10:04:06Z</time></trkpt><trkpt lat="43.82372616841361" lon="10.586667650111337"><ele>12.5</ele><time>2026-05-01T10:04:07Z</time></trkpt><trkpt lat="43.82367707818063" lon="10.587106352254953"><ele>11.0</ele><time>2026-05-01T10:04:08Z</time></trkpt><trkpt lat="43.82362797707358" lon="10.587544239703613"><ele>10.0</ele><time>2026-05-01T10:04:09Z</time></trkpt><trkpt lat="43.82357850174231" lon="10.587983944202296"><ele>9.0</ele><time>2026-05-01T10:04:10Z</time></trkpt><trkpt lat="43.823527868920884" lon="10.58842873884289"><ele>9.0</ele><time>2026-05-01T10:04:11Z</time></trkpt><trkpt lat="43.82347594047867" lon="10.588875058763026"><ele>9.0</ele><time>2026-05-01T10:04:12Z</time></trkpt><trkpt lat="43.82342456539832" lon="10.589320576296313"><ele>8.5</ele><time>2026-05-01T10:04:13Z</time></trkpt><trkpt lat="43.82337319207579" lon="10.589768200065414"><ele>8.0</ele><time>2026-05-01T10:04:14Z</time></trkpt><trkpt lat="43.82332180987829" lon="10.590217263795148"><ele>8.5</ele><time>2026-05-01T10:04:15Z</time></trkpt><trkpt lat="43.82327126378456" lon="10.590667254447117"><ele>9.0</ele><time>2026-05-01T10:04:16Z</time></trkpt><trkpt lat="43.82322084819472" lon="10.591113922163863"><ele>9.5</ele><time>2026-05-01T10:04:17Z</time></trkpt><trkpt lat="43.82317010088068" lon="10.59156244468992"><ele>10.0</ele><time>2026-05-01T10:04:18Z</time></trkpt><trkpt lat="43.82311910513423" lon="10.592010331488808"><ele>9.0</ele><time>2026-05-01T10:04:19Z</time></trkpt><trkpt lat="43.82306664228387" lon="10.592457514403446"><ele>8.0</ele><time>2026-05-01T10:04:20Z</time></trkpt><trkpt lat="43.82301405726386" lon="10.592908780347972"><ele>8.0</ele><time>2026-05-01T10:04:21Z</time></trkpt><trkpt lat="43.822961789687675" lon="10.593358153718727"><ele>8.0</ele><time>2026-05-01T10:04:22Z</time></trkpt><trkpt lat="43.82290878988534" lon="10.593807433185004"><ele>8.0</ele><time>2026-05-01T10:04:23Z</time></trkpt><trkpt lat="43.82285502824419" lon="10.594255906432824"><ele>8.0</ele><time>2026-05-01T10:04:24Z</time></trkpt><trkpt lat="43.82280197495528" lon="10.594702888869605"><ele>8.0</ele><time>2026-05-01T10:04:25Z</time></trkpt><trkpt lat="43.822751040801684" lon="10.59514688586313"><ele>8.0</ele><time>2026-05-01T10:04:26Z</time></trkpt><trkpt lat="43.82270024562617" lon="10.5955937988551"><ele>8.0</ele><time>2026-05-01T10:04:27Z</time></trkpt><trkpt lat="43.82264900500316" lon="10.596043345079691"><ele>8.0</ele><time>2026-05-01T10:04:28Z</time></trkpt><trkpt lat="43.82259617175716" lon="10.596495425400505"><ele>8.0</ele><time>2026-05-01T10:04:29Z</time></trkpt><trkpt lat="43.82254619821406" lon="10.596946268602638"><ele>8.0</ele><time>2026-05-01T10:04:30Z</time></trkpt><trkpt lat="43.82249358790215" lon="10.597401315788941"><ele>9.5</ele><time>2026-05-01T10:04:31Z</time></trkpt><trkpt lat="43.82244375445027" lon="10.597855426484122"><ele>11.0</ele><time>2026-05-01T10:04:32Z</time></trkpt><trkpt lat="43.82239329262388" lon="10.598310345088946"><ele>11.0</ele><time>2026-05-01T10:04:33Z</time></trkpt><trkpt lat="43.82234059908559" lon="10.598765112753254"><ele>11.0</ele><time>2026-05-01T10:04:34Z</time></trkpt><trkpt lat="43.822288171303" lon="10.599219949761688"><ele>11.0</ele><time>2026-05-01T10:04:35Z</time></trkpt><trkpt lat="43.82223695810021" lon="10.599668690841856"><ele>11.0</ele><time>2026-05-01T10:04:36Z</time></trkpt><trkpt lat="43.82218520283485" lon="10.600111406019808"><ele>11.0</ele><time>2026-05-01T10:04:37Z</time></trkpt><trkpt lat="43.82213373582756" lon="10.600553654913364"><ele>11.0</ele><time>2026-05-01T10:04:38Z</time></trkpt><trkpt lat="43.82208351234759" lon="10.600994503792077"><ele>11.0</ele><time>2026-05-01T10:04:39Z</time></trkpt><trkpt lat="43.82203319456417" lon="10.601437203580968"><ele>11.0</ele><time>2026-05-01T10:04:40Z</time></trkpt><trkpt lat="43.821981553173586" lon="10.601881185063196"><ele>10.0</ele><time>2026-05-01T10:04:40.999Z</time></trkpt><trkpt lat="43.82193153471782" lon="10.602320573951461"><ele>9.0</ele><time>2026-05-01T10:04:41.999Z</time></trkpt><trkpt lat="43.821880793546974" lon="10.602759961300123"><ele>9.0</ele><time>2026-05-01T10:04:42.999Z</time></trkpt><trkpt lat="43.82183163002236" lon="10.603193028826455"><ele>9.0</ele><time>2026-05-01T10:04:43.999Z</time></trkpt><trkpt lat="43.82178350224934" lon="10.60362739273493"><ele>10.5</ele><time>2026-05-01T10:04:44.999Z</time></trkpt><trkpt lat="43.821735654294685" lon="10.604062187458547"><ele>12.0</ele><time>2026-05-01T10:04:45.999Z</time></trkpt><trkpt lat="43.82168566703989" lon="10.60449963887154"><ele>12.5</ele><time>2026-05-01T10:04:46.999Z</time></trkpt><trkpt lat="43.8216349116952" lon="10.60493766636781"><ele>13.0</ele><time>2026-05-01T10:04:47.999Z</time></trkpt><trkpt lat="43.82158414863473" lon="10.60537565450597"><ele>11.5</ele><time>2026-05-01T10:04:48.999Z</time></trkpt><trkpt lat="43.82153582110519" lon="10.60580507859804"><ele>10.0</ele><time>2026-05-01T10:04:49.999Z</time></trkpt><trkpt lat="43.82148816869546" lon="10.60623310710935"><ele>10.0</ele><time>2026-05-01T10:04:50.999Z</time></trkpt><trkpt lat="43.82143993028428" lon="10.606668758168118"><ele>10.0</ele><time>2026-05-01T10:04:51.999Z</time></trkpt><trkpt lat="43.82139129433588" lon="10.607111046927724"><ele>10.0</ele><time>2026-05-01T10:04:52.999Z</time></trkpt><trkpt lat="43.82133922188876" lon="10.607558523261144"><ele>10.0</ele><time>2026-05-01T10:04:53.999Z</time></trkpt><trkpt lat="43.82128573544254" lon="10.608007510907735"><ele>9.5</ele><time>2026-05-01T10:04:54.999Z</time></trkpt><trkpt lat="43.82123150080241" lon="10.608458599601555"><ele>9.0</ele><time>2026-05-01T10:04:55.999Z</time></trkpt><trkpt lat="43.8211767035348" lon="10.608910639461412"><ele>9.0</ele><time>2026-05-01T10:04:56.999Z</time></trkpt><trkpt lat="43.821122619510085" lon="10.609361949598698"><ele>9.0</ele><time>2026-05-01T10:04:57.999Z</time></trkpt><trkpt lat="43.82106965754638" lon="10.609813858421598"><ele>9.5</ele><time>2026-05-01T10:04:58.999Z</time></trkpt><trkpt lat="43.82101587961837" lon="10.610266716489381"><ele>10.0</ele><time>2026-05-01T10:04:59.999Z</time></trkpt><trkpt lat="43.82096022696087" lon="10.61072058199808"><ele>11.0</ele><time>2026-05-01T10:05:00.999Z</time></trkpt><trkpt lat="43.820903193944524" lon="10.611174025854089"><ele>12.0</ele><time>2026-05-01T10:05:01.999Z</time></trkpt><trkpt lat="43.82084593493293" lon="10.611627971200162"><ele>11.5</ele><time>2026-05-01T10:05:02.999Z</time></trkpt><trkpt lat="43.820790087472275" lon="10.612081177118549"><ele>11.0</ele><time>2026-05-01T10:05:03.999Z</time></trkpt><trkpt lat="43.82073480133745" lon="10.612534381088876"><ele>11.5</ele><time>2026-05-01T10:05:04.999Z</time></trkpt><trkpt lat="43.82068023968148" lon="10.612990033445326"><ele>12.0</ele><time>2026-05-01T10:05:05.999Z</time></trkpt><trkpt lat="43.82062666295166" lon="10.613445181094757"><ele>11.5</ele><time>2026-05-01T10:05:06.999Z</time></trkpt><trkpt lat="43.820572643459656" lon="10.613900901479855"><ele>11.0</ele><time>2026-05-01T10:05:07.999Z</time></trkpt><trkpt lat="43.820519155088526" lon="10.614356004926718"><ele>11.0</ele><time>2026-05-01T10:05:08.999Z</time></trkpt><trkpt lat="43.82046456230664" lon="10.61481467081662"><ele>11.0</ele><time>2026-05-01T10:05:09.999Z</time></trkpt><trkpt lat="43.820409714715176" lon="10.61527163049642"><ele>12.0</ele><time>2026-05-01T10:05:10.999Z</time></trkpt><trkpt lat="43.82035596041296" lon="10.615729200832153"><ele>13.0</ele><time>2026-05-01T10:05:11.999Z</time></trkpt><trkpt lat="43.82030346623213" lon="10.616185760705164"><ele>13.0</ele><time>2026-05-01T10:05:12.999Z</time></trkpt><trkpt lat="43.82025007583024" lon="10.616643518138764"><ele>13.0</ele><time>2026-05-01T10:05:13.999Z</time></trkpt><trkpt lat="43.820197230799046" lon="10.617102044775287"><ele>12.5</ele><time>2026-05-01T10:05:14.999Z</time></trkpt><trkpt lat="43.82014491696692" lon="10.617555125753189"><ele>12.0</ele><time>2026-05-01T10:05:15.999Z</time></trkpt><trkpt lat="43.8200942174004" lon="10.618008105000493"><ele>11.5</ele><time>2026-05-01T10:05:16.999Z</time></trkpt><trkpt lat="43.82004373308566" lon="10.618461419949275"><ele>11.0</ele><time>2026-05-01T10:05:17.999Z</time></trkpt><trkpt lat="43.81999243404023" lon="10.618916687726434"><ele>11.0</ele><time>2026-05-01T10:05:18.999Z</time></trkpt><trkpt lat="43.81994083743826" lon="10.619372677269377"><ele>11.0</ele><time>2026-05-01T10:05:19.999Z</time></trkpt><trkpt lat="43.81988878943966" lon="10.619827966194066"><ele>11.0</ele><time>2026-05-01T10:05:20.999Z</time></trkpt><trkpt lat="43.81983511739876" lon="10.6202857336571"><ele>11.0</ele><time>2026-05-01T10:05:21.999Z</time></trkpt><trkpt lat="43.81978089501717" lon="10.620746250065162"><ele>10.5</ele><time>2026-05-01T10:05:22.999Z</time></trkpt><trkpt lat="43.81972745501291" lon="10.621205189094796"><ele>10.0</ele><time>2026-05-01T10:05:23.999Z</time></trkpt><trkpt lat="43.819674939388705" lon="10.62166725618916"><ele>10.5</ele><time>2026-05-01T10:05:24.999Z</time></trkpt><trkpt lat="43.8196225068163" lon="10.622131674560626"><ele>11.0</ele><time>2026-05-01T10:05:25.999Z</time></trkpt><trkpt lat="43.81957012465407" lon="10.622593694882324"><ele>11.0</ele><time>2026-05-01T10:05:26.999Z</time></trkpt><trkpt lat="43.8195186615683" lon="10.623055742217646"><ele>11.0</ele><time>2026-05-01T10:05:27.999Z</time></trkpt><trkpt lat="43.819466961494385" lon="10.623521932160516"><ele>11.0</ele><time>2026-05-01T10:05:28.999Z</time></trkpt><trkpt lat="43.819414286481525" lon="10.623991735735993"><ele>11.0</ele><time>2026-05-01T10:05:29.999Z</time></trkpt><trkpt lat="43.81936192245612" lon="10.624458601792306"><ele>11.0</ele><time>2026-05-01T10:05:30.999Z</time></trkpt><trkpt lat="43.81930893830004" lon="10.624925596830934"><ele>11.0</ele><time>2026-05-01T10:05:31.999Z</time></trkpt><trkpt lat="43.81925422042871" lon="10.625391707755727"><ele>11.0</ele><time>2026-05-01T10:05:32.999Z</time></trkpt><trkpt lat="43.819198134542006" lon="10.625861204082668"><ele>11.0</ele><time>2026-05-01T10:05:33.999Z</time></trkpt><trkpt lat="43.819143899948926" lon="10.626327734706484"><ele>10.5</ele><time>2026-05-01T10:05:34.999Z</time></trkpt><trkpt lat="43.81908974029291" lon="10.626796058948171"><ele>10.0</ele><time>2026-05-01T10:05:35.999Z</time></trkpt><trkpt lat="43.81903724007298" lon="10.627262644849347"><ele>10.0</ele><time>2026-05-01T10:05:36.999Z</time></trkpt><trkpt lat="43.81898472480137" lon="10.627726396057124"><ele>10.0</ele><time>2026-05-01T10:05:37.999Z</time></trkpt><trkpt lat="43.81893434305418" lon="10.628184782912372"><ele>10.0</ele><time>2026-05-01T10:05:38.999Z</time></trkpt><trkpt lat="43.81888322658256" lon="10.628640696206787"><ele>10.0</ele><time>2026-05-01T10:05:39.999Z</time></trkpt><trkpt lat="43.81883238832097" lon="10.629095352828518"><ele>9.5</ele><time>2026-05-01T10:05:40.999Z</time></trkpt><trkpt lat="43.81878216211841" lon="10.629550374564005"><ele>9.0</ele><time>2026-05-01T10:05:41.999Z</time></trkpt><trkpt lat="43.81873177593426" lon="10.630005122196913"><ele>8.0</ele><time>2026-05-01T10:05:42.999Z</time></trkpt><trkpt lat="43.81868227366067" lon="10.630462370302853"><ele>7.0</ele><time>2026-05-01T10:05:43.999Z</time></trkpt><trkpt lat="43.81863338961565" lon="10.630922075711418"><ele>7.5</ele><time>2026-05-01T10:05:44.999Z</time></trkpt><trkpt lat="43.81858314811401" lon="10.631385943130718"><ele>8.0</ele><time>2026-05-01T10:05:45.999Z</time></trkpt><trkpt lat="43.81853172481831" lon="10.631850623787374"><ele>7.5</ele><time>2026-05-01T10:05:46.999Z</time></trkpt><trkpt lat="43.81847876576281" lon="10.632312739457253"><ele>7.0</ele><time>2026-05-01T10:05:47.999Z</time></trkpt><trkpt lat="43.81842601290576" lon="10.632777174302511"><ele>7.0</ele><time>2026-05-01T10:05:48.999Z</time></trkpt><trkpt lat="43.81837323292715" lon="10.633241885883173"><ele>7.0</ele><time>2026-05-01T10:05:49.999Z</time></trkpt><trkpt lat="43.81832060479284" lon="10.633706053339177"><ele>7.0</ele><time>2026-05-01T10:05:50.999Z</time></trkpt><trkpt lat="43.818266953806884" lon="10.634171457990227"><ele>7.0</ele><time>2026-05-01T10:05:51.999Z</time></trkpt><trkpt lat="43.81821352483176" lon="10.634634930719411"><ele>7.0</ele><time>2026-05-01T10:05:52.999Z</time></trkpt><trkpt lat="43.818159675242775" lon="10.635098393817358"><ele>7.0</ele><time>2026-05-01T10:05:53.999Z</time></trkpt><trkpt lat="43.81810615076117" lon="10.635563773286869"><ele>7.0</ele><time>2026-05-01T10:05:54.999Z</time></trkpt><trkpt lat="43.81805307597577" lon="10.636028928911273"><ele>7.0</ele><time>2026-05-01T10:05:55.999Z</time></trkpt><trkpt lat="43.81800033125811" lon="10.636494789619853"><ele>7.0</ele><time>2026-05-01T10:05:56.999Z</time></trkpt><trkpt lat="43.81794768021347" lon="10.636963337414238"><ele>7.0</ele><time>2026-05-01T10:05:57.999Z</time></trkpt><trkpt lat="43.81789578912817" lon="10.63743204658441"><ele>7.0</ele><time>2026-05-01T10:05:58.999Z</time></trkpt><trkpt lat="43.81784280223715" lon="10.637895673032613"><ele>7.0</ele><time>2026-05-01T10:05:59.999Z</time></trkpt><trkpt lat="43.817786555725284" lon="10.638356740371163"><ele>7.5</ele><time>2026-05-01T10:06:00.999Z</time></trkpt><trkpt lat="43.81772853149189" lon="10.638814024755554"><ele>8.0</ele><time>2026-05-01T10:06:01.999Z</time></trkpt><trkpt lat="43.81767479897821" lon="10.639274709692263"><ele>7.5</ele><time>2026-05-01T10:06:02.999Z</time></trkpt><trkpt lat="43.81762226629862" lon="10.639738327527702"><ele>7.0</ele><time>2026-05-01T10:06:03.999Z</time></trkpt><trkpt lat="43.81756890641194" lon="10.64020560281122"><ele>7.0</ele><time>2026-05-01T10:06:04.999Z</time></trkpt><trkpt lat="43.817512395622465" lon="10.640675110873147"><ele>7.0</ele><time>2026-05-01T10:06:05.999Z</time></trkpt><trkpt lat="43.817464246230266" lon="10.641144701295906"><ele>7.0</ele><time>2026-05-01T10:06:06.999Z</time></trkpt><trkpt lat="43.817410686917476" lon="10.64161304400137"><ele>7.0</ele><time>2026-05-01T10:06:07.998Z</time></trkpt><trkpt lat="43.81735760606575" lon="10.642083343205588"><ele>7.0</ele><time>2026-05-01T10:06:09Z</time></trkpt><trkpt lat="43.817304527023474" lon="10.642551434741112"><ele>7.0</ele><time>2026-05-01T10:06:10Z</time></trkpt><trkpt lat="43.81725263997395" lon="10.64301454119302"><ele>7.0</ele><time>2026-05-01T10:06:11Z</time></trkpt><trkpt lat="43.81719878388855" lon="10.643478091953734"><ele>7.0</ele><time>2026-05-01T10:06:12Z</time></trkpt><trkpt lat="43.817145294270986" lon="10.643942055610223"><ele>7.0</ele><time>2026-05-01T10:06:13Z</time></trkpt><trkpt lat="43.817092011676955" lon="10.644407615248767"><ele>7.0</ele><time>2026-05-01T10:06:14Z</time></trkpt><trkpt lat="43.817037962197475" lon="10.644873959263217"><ele>7.5</ele><time>2026-05-01T10:06:15Z</time></trkpt><trkpt lat="43.816983206546" lon="10.645345399981235"><ele>8.0</ele><time>2026-05-01T10:06:16Z</time></trkpt><trkpt lat="43.8169303683059" lon="10.645815777533494"><ele>9.5</ele><time>2026-05-01T10:06:17Z</time></trkpt><trkpt lat="43.81687822016472" lon="10.646285356977263"><ele>11.0</ele><time>2026-05-01T10:06:18Z</time></trkpt><trkpt lat="43.816824695899726" lon="10.646759279279276"><ele>10.5</ele><time>2026-05-01T10:06:19Z</time></trkpt><trkpt lat="43.8167699625193" lon="10.647232457268403"><ele>10.0</ele><time>2026-05-01T10:06:20Z</time></trkpt><trkpt lat="43.8167153256466" lon="10.647706348500073"><ele>11.0</ele><time>2026-05-01T10:06:21Z</time></trkpt><trkpt lat="43.816660451915894" lon="10.648180639770013"><ele>12.0</ele><time>2026-05-01T10:06:22Z</time></trkpt><trkpt lat="43.81660432917755" lon="10.648655200180471"><ele>12.5</ele><time>2026-05-01T10:06:23Z</time></trkpt><trkpt lat="43.81654953628451" lon="10.64912940458105"><ele>13.0</ele><time>2026-05-01T10:06:24Z</time></trkpt><trkpt lat="43.81649684789833" lon="10.649600787674995"><ele>13.0</ele><time>2026-05-01T10:06:25Z</time></trkpt><trkpt lat="43.81644555159798" lon="10.650068842544819"><ele>13.0</ele><time>2026-05-01T10:06:26Z</time></trkpt><trkpt lat="43.8163936203129" lon="10.650535270559914"><ele>13.0</ele><time>2026-05-01T10:06:27Z</time></trkpt><trkpt lat="43.81634106526301" lon="10.65099766754006"><ele>13.0</ele><time>2026-05-01T10:06:28Z</time></trkpt><trkpt lat="43.816286580086064" lon="10.651457646783108"><ele>13.0</ele><time>2026-05-01T10:06:29Z</time></trkpt><trkpt lat="43.81623188586911" lon="10.65191863437957"><ele>13.0</ele><time>2026-05-01T10:06:30Z</time></trkpt><trkpt lat="43.81617750904759" lon="10.652380295786244"><ele>12.5</ele><time>2026-05-01T10:06:31Z</time></trkpt><trkpt lat="43.81612432757943" lon="10.652840431415138"><ele>12.0</ele><time>2026-05-01T10:06:32Z</time></trkpt><trkpt lat="43.816072401720376" lon="10.653305623942968"><ele>13.5</ele><time>2026-05-01T10:06:33Z</time></trkpt><trkpt lat="43.8160201177553" lon="10.653773928890356"><ele>15.0</ele><time>2026-05-01T10:06:34Z</time></trkpt><trkpt lat="43.81596789120561" lon="10.654244334701533"><ele>17.0</ele><time>2026-05-01T10:06:35Z</time></trkpt><trkpt lat="43.8159155208874" lon="10.654714571092258"><ele>19.0</ele><time>2026-05-01T10:06:36Z</time></trkpt><trkpt lat="43.81586020561789" lon="10.655183442561453"><ele>18.0</ele><time>2026-05-01T10:06:37Z</time></trkpt><trkpt lat="43.81580380631679" lon="10.65565118762697"><ele>17.0</ele><time>2026-05-01T10:06:38Z</time></trkpt><trkpt lat="43.81574870996799" lon="10.656114139323028"><ele>17.0</ele><time>2026-05-01T10:06:39Z</time></trkpt><trkpt lat="43.815694072355335" lon="10.656575338048354"><ele>17.0</ele><time>2026-05-01T10:06:40Z</time></trkpt><trkpt lat="43.81564031253569" lon="10.657035928617393"><ele>17.0</ele><time>2026-05-01T10:06:41Z</time></trkpt><trkpt lat="43.8155863512739" lon="10.657496559652413"><ele>17.0</ele><time>2026-05-01T10:06:42Z</time></trkpt><trkpt lat="43.81553321425322" lon="10.657959413844257"><ele>17.0</ele><time>2026-05-01T10:06:43Z</time></trkpt><trkpt lat="43.81547917895438" lon="10.65842219020967"><ele>17.0</ele><time>2026-05-01T10:06:44Z</time></trkpt><trkpt lat="43.81542624583274" lon="10.65888550701258"><ele>17.0</ele><time>2026-05-01T10:06:45Z</time></trkpt><trkpt lat="43.81537298728937" lon="10.659348683143294"><ele>17.0</ele><time>2026-05-01T10:06:46Z</time></trkpt><trkpt lat="43.8153201992523" lon="10.659811180879501"><ele>17.0</ele><time>2026-05-01T10:06:47Z</time></trkpt><trkpt lat="43.81526703139523" lon="10.660274138855872"><ele>17.0</ele><time>2026-05-01T10:06:47.999Z</time></trkpt><trkpt lat="43.81521359490493" lon="10.66074045340796"><ele>16.5</ele><time>2026-05-01T10:06:48.999Z</time></trkpt><trkpt lat="43.815161659761756" lon="10.661207152116564"><ele>16.0</ele><time>2026-05-01T10:06:49.999Z</time></trkpt><trkpt lat="43.81510823928282" lon="10.661673162792628"><ele>15.0</ele><time>2026-05-01T10:06:50.999Z</time></trkpt><trkpt lat="43.81505425932922" lon="10.662140346028716"><ele>14.0</ele><time>2026-05-01T10:06:51.999Z</time></trkpt><trkpt lat="43.81500072303695" lon="10.662604556779357"><ele>13.5</ele><time>2026-05-01T10:06:52.999Z</time></trkpt><trkpt lat="43.81494907900451" lon="10.663051658646113"><ele>13.0</ele><time>2026-05-01T10:06:53.999Z</time></trkpt><trkpt lat="43.814899226474346" lon="10.663462117524691"><ele>14.0</ele><time>2026-05-01T10:06:54.999Z</time></trkpt><trkpt lat="43.81485162725872" lon="10.663853572846277"><ele>15.0</ele><time>2026-05-01T10:06:55.999Z</time></trkpt><trkpt lat="43.81480494122454" lon="10.66426882075868"><ele>16.0</ele><time>2026-05-01T10:06:56.999Z</time></trkpt><trkpt lat="43.814758428732056" lon="10.664701343514793"><ele>17.0</ele><time>2026-05-01T10:06:57.999Z</time></trkpt><trkpt lat="43.814711590485665" lon="10.665137447840694"><ele>17.0</ele><time>2026-05-01T10:06:58.999Z</time></trkpt><trkpt lat="43.81466613168263" lon="10.665576698846612"><ele>17.0</ele><time>2026-05-01T10:06:59.999Z</time></trkpt><trkpt lat="43.81463003823205" lon="10.666018533627504"><ele>16.0</ele><time>2026-05-01T10:07:00.999Z</time></trkpt><trkpt lat="43.81461426064247" lon="10.66645414025095"><ele>15.0</ele><time>2026-05-01T10:07:01.999Z</time></trkpt><trkpt lat="43.814616909079014" lon="10.666882953610305"><ele>14.0</ele><time>2026-05-01T10:07:02.999Z</time></trkpt><trkpt lat="43.814630623080554" lon="10.66731814512366"><ele>13.0</ele><time>2026-05-01T10:07:03.999Z</time></trkpt><trkpt lat="43.81465964445227" lon="10.667758307738005"><ele>12.0</ele><time>2026-05-01T10:07:04.999Z</time></trkpt><trkpt lat="43.8147065290364" lon="10.668202545681103"><ele>11.0</ele><time>2026-05-01T10:07:05.999Z</time></trkpt><trkpt lat="43.814773915941835" lon="10.668650911195272"><ele>11.0</ele><time>2026-05-01T10:07:06.999Z</time></trkpt><trkpt lat="43.814858516713976" lon="10.669103596012206"><ele>11.0</ele><time>2026-05-01T10:07:07.999Z</time></trkpt><trkpt lat="43.814961112624374" lon="10.669551671012023"><ele>11.0</ele><time>2026-05-01T10:07:08.999Z</time></trkpt><trkpt lat="43.81508140007836" lon="10.669992801588867"><ele>11.0</ele><time>2026-05-01T10:07:09.999Z</time></trkpt><trkpt lat="43.81521498032249" lon="10.670427095058153"><ele>11.0</ele><time>2026-05-01T10:07:10.999Z</time></trkpt><trkpt lat="43.81536350942902" lon="10.670852538057437"><ele>11.0</ele><time>2026-05-01T10:07:11.999Z</time></trkpt><trkpt lat="43.81551603238206" lon="10.67127583578605"><ele>11.5</ele><time>2026-05-01T10:07:12.999Z</time></trkpt><trkpt lat="43.815671649766905" lon="10.671700618338745"><ele>12.0</ele><time>2026-05-01T10:07:13.999Z</time></trkpt><trkpt lat="43.81582784041296" lon="10.672127125690443"><ele>12.0</ele><time>2026-05-01T10:07:14.999Z</time></trkpt><trkpt lat="43.815984116304925" lon="10.67255367855568"><ele>12.0</ele><time>2026-05-01T10:07:15.999Z</time></trkpt><trkpt lat="43.81613931535923" lon="10.672981227951711"><ele>12.5</ele><time>2026-05-01T10:07:16.999Z</time></trkpt><trkpt lat="43.816294362835926" lon="10.673409729153363"><ele>13.0</ele><time>2026-05-01T10:07:17.999Z</time></trkpt><trkpt lat="43.8164489012482" lon="10.673837349719909"><ele>13.0</ele><time>2026-05-01T10:07:18.999Z</time></trkpt><trkpt lat="43.81660301906211" lon="10.674264830130802"><ele>13.0</ele><time>2026-05-01T10:07:19.999Z</time></trkpt><trkpt lat="43.816754122970245" lon="10.674693657483964"><ele>13.5</ele><time>2026-05-01T10:07:20.999Z</time></trkpt><trkpt lat="43.816904486021414" lon="10.675123158770017"><ele>14.0</ele><time>2026-05-01T10:07:21.999Z</time></trkpt><trkpt lat="43.81705517274276" lon="10.675552425999529"><ele>15.0</ele><time>2026-05-01T10:07:22.999Z</time></trkpt><trkpt lat="43.817206955382346" lon="10.675978161107796"><ele>16.0</ele><time>2026-05-01T10:07:23.999Z</time></trkpt><trkpt lat="43.817358665729294" lon="10.67640060489041"><ele>16.0</ele><time>2026-05-01T10:07:24.999Z</time></trkpt><trkpt lat="43.8175115316344" lon="10.676822246602239"><ele>16.0</ele><time>2026-05-01T10:07:25.999Z</time></trkpt><trkpt lat="43.81766238717387" lon="10.677244400512144"><ele>16.5</ele><time>2026-05-01T10:07:26.999Z</time></trkpt><trkpt lat="43.81781226639796" lon="10.677667467172167"><ele>17.0</ele><time>2026-05-01T10:07:27.999Z</time></trkpt><trkpt lat="43.81796249274128" lon="10.67809195978741"><ele>16.0</ele><time>2026-05-01T10:07:28.999Z</time></trkpt><trkpt lat="43.81811435638985" lon="10.678517693366528"><ele>15.0</ele><time>2026-05-01T10:07:29.999Z</time></trkpt><trkpt lat="43.81826687306739" lon="10.678943156733384"><ele>15.0</ele><time>2026-05-01T10:07:30.999Z</time></trkpt><trkpt lat="43.81841858863889" lon="10.679369223255085"><ele>15.0</ele><time>2026-05-01T10:07:31.999Z</time></trkpt><trkpt lat="43.8185719239507" lon="10.679794415272255"><ele>16.5</ele><time>2026-05-01T10:07:32.999Z</time></trkpt><trkpt lat="43.818724744490396" lon="10.680216438607298"><ele>18.0</ele><time>2026-05-01T10:07:33.999Z</time></trkpt><trkpt lat="43.81887512220645" lon="10.680636686132146"><ele>18.5</ele><time>2026-05-01T10:07:34.999Z</time></trkpt><trkpt lat="43.81902377908754" lon="10.681055543606908"><ele>19.0</ele><time>2026-05-01T10:07:35.999Z</time></trkpt><trkpt lat="43.819174155385774" lon="10.681475114994866"><ele>19.5</ele><time>2026-05-01T10:07:36.999Z</time></trkpt><trkpt lat="43.819326317516456" lon="10.681892338901951"><ele>20.0</ele><time>2026-05-01T10:07:37.999Z</time></trkpt><trkpt lat="43.81948121093212" lon="10.68230309485744"><ele>20.0</ele><time>2026-05-01T10:07:38.999Z</time></trkpt><trkpt lat="43.81964277935702" lon="10.682709608296271"><ele>20.0</ele><time>2026-05-01T10:07:39.999Z</time></trkpt><trkpt lat="43.81981414270705" lon="10.683109104167723"><ele>20.0</ele><time>2026-05-01T10:07:40.999Z</time></trkpt><trkpt lat="43.81999325503409" lon="10.683502235117256"><ele>20.0</ele><time>2026-05-01T10:07:41.999Z</time></trkpt><trkpt lat="43.82017996277752" lon="10.683895749991231"><ele>20.0</ele><time>2026-05-01T10:07:42.999Z</time></trkpt><trkpt lat="43.82037550023349" lon="10.684285870561148"><ele>20.0</ele><time>2026-05-01T10:07:43.999Z</time></trkpt><trkpt lat="43.82057867487418" lon="10.684669650350482"><ele>20.0</ele><time>2026-05-01T10:07:44.999Z</time></trkpt><trkpt lat="43.820789272370895" lon="10.685046466060864"><ele>20.0</ele><time>2026-05-01T10:07:45.999Z</time></trkpt><trkpt lat="43.8210085954009" lon="10.685417520139017"><ele>19.5</ele><time>2026-05-01T10:07:46.999Z</time></trkpt><trkpt lat="43.82123384608387" lon="10.68578330259646"><ele>19.0</ele><time>2026-05-01T10:07:47.999Z</time></trkpt><trkpt lat="43.82146190493519" lon="10.686143081104792"><ele>19.0</ele><time>2026-05-01T10:07:48.999Z</time></trkpt><trkpt lat="43.82168636637568" lon="10.686494986492907"><ele>19.0</ele><time>2026-05-01T10:07:49.999Z</time></trkpt><trkpt lat="43.8219107054672" lon="10.686845403647244"><ele>21.0</ele><time>2026-05-01T10:07:50.999Z</time></trkpt><trkpt lat="43.82213619206118" lon="10.687197272442887"><ele>23.0</ele><time>2026-05-01T10:07:51.999Z</time></trkpt><trkpt lat="43.82235689137489" lon="10.687544784333529"><ele>23.5</ele><time>2026-05-01T10:07:52.999Z</time></trkpt><trkpt lat="43.82257432410155" lon="10.687884823924398"><ele>24.0</ele><time>2026-05-01T10:07:53.999Z</time></trkpt><trkpt lat="43.822791842026135" lon="10.688225505726336"><ele>24.0</ele><time>2026-05-01T10:07:54.999Z</time></trkpt><trkpt lat="43.82301199532173" lon="10.688569149792741"><ele>24.0</ele><time>2026-05-01T10:07:55.999Z</time></trkpt><trkpt lat="43.823233363981515" lon="10.688914441924146"><ele>23.0</ele><time>2026-05-01T10:07:56.999Z</time></trkpt><trkpt lat="43.8234553225533" lon="10.689259055383925"><ele>22.0</ele><time>2026-05-01T10:07:57.999Z</time></trkpt><trkpt lat="43.82367858705547" lon="10.68960684575755"><ele>22.0</ele><time>2026-05-01T10:07:58.999Z</time></trkpt><trkpt lat="43.82390241430841" lon="10.68995834830432"><ele>22.0</ele><time>2026-05-01T10:07:59.999Z</time></trkpt><trkpt lat="43.82412494687957" lon="10.69031055080774"><ele>21.5</ele><time>2026-05-01T10:08:00.999Z</time></trkpt><trkpt lat="43.824349113095636" lon="10.69066384792194"><ele>21.0</ele><time>2026-05-01T10:08:01.999Z</time></trkpt><trkpt lat="43.824571925686755" lon="10.691015238324814"><ele>22.0</ele><time>2026-05-01T10:08:02.999Z</time></trkpt><trkpt lat="43.8247923480943" lon="10.691362258969527"><ele>23.0</ele><time>2026-05-01T10:08:03.999Z</time></trkpt><trkpt lat="43.82501201992619" lon="10.691706270597841"><ele>22.0</ele><time>2026-05-01T10:08:04.999Z</time></trkpt><trkpt lat="43.82523154676652" lon="10.692049867428812"><ele>21.0</ele><time>2026-05-01T10:08:05.999Z</time></trkpt><trkpt lat="43.82545077474876" lon="10.692394535299693"><ele>21.0</ele><time>2026-05-01T10:08:06.999Z</time></trkpt><trkpt lat="43.82566912800378" lon="10.692740650035168"><ele>21.0</ele><time>2026-05-01T10:08:07.999Z</time></trkpt><trkpt lat="43.82588658804549" lon="10.693083710151958"><ele>20.5</ele><time>2026-05-01T10:08:08.999Z</time></trkpt><trkpt lat="43.82610345552255" lon="10.69342140645907"><ele>20.0</ele><time>2026-05-01T10:08:09.999Z</time></trkpt><trkpt lat="43.826322788876105" lon="10.693763119508379"><ele>20.0</ele><time>2026-05-01T10:08:10.999Z</time></trkpt><trkpt lat="43.82654324930028" lon="10.694109526878945"><ele>20.0</ele><time>2026-05-01T10:08:11.999Z</time></trkpt><trkpt lat="43.82676469297036" lon="10.694456571097826"><ele>18.5</ele><time>2026-05-01T10:08:12.999Z</time></trkpt><trkpt lat="43.826985207871964" lon="10.694801479163207"><ele>17.0</ele><time>2026-05-01T10:08:13.999Z</time></trkpt><trkpt lat="43.82720588884074" lon="10.695146727563822"><ele>17.5</ele><time>2026-05-01T10:08:15Z</time></trkpt><trkpt lat="43.82742489940314" lon="10.69549071906381"><ele>18.0</ele><time>2026-05-01T10:08:16Z</time></trkpt><trkpt lat="43.82764332597373" lon="10.695832453105357"><ele>17.0</ele><time>2026-05-01T10:08:17Z</time></trkpt><trkpt lat="43.82785796916586" lon="10.696168962851717"><ele>16.0</ele><time>2026-05-01T10:08:18Z</time></trkpt><trkpt lat="43.8280746488643" lon="10.696508041197589"><ele>16.0</ele><time>2026-05-01T10:08:19Z</time></trkpt><trkpt lat="43.8282967383193" lon="10.696853485954035"><ele>16.0</ele><time>2026-05-01T10:08:20Z</time></trkpt><trkpt lat="43.82852186678236" lon="10.697196706607247"><ele>16.5</ele><time>2026-05-01T10:08:21Z</time></trkpt><trkpt lat="43.82874561324634" lon="10.697540558944633"><ele>17.0</ele><time>2026-05-01T10:08:22Z</time></trkpt><trkpt lat="43.82896827191618" lon="10.697889694127717"><ele>17.0</ele><time>2026-05-01T10:08:23Z</time></trkpt><trkpt lat="43.82919077888869" lon="10.698241145378855"><ele>17.0</ele><time>2026-05-01T10:08:24Z</time></trkpt><trkpt lat="43.8294138098978" lon="10.698595519108276"><ele>19.0</ele><time>2026-05-01T10:08:25Z</time></trkpt><trkpt lat="43.829638164912694" lon="10.698949564273946"><ele>21.0</ele><time>2026-05-01T10:08:26Z</time></trkpt><trkpt lat="43.82986257454067" lon="10.699307336929321"><ele>21.0</ele><time>2026-05-01T10:08:27Z</time></trkpt><trkpt lat="43.830088369588346" lon="10.699669533603343"><ele>21.0</ele><time>2026-05-01T10:08:28Z</time></trkpt><trkpt lat="43.83031781468638" lon="10.700024328271473"><ele>22.0</ele><time>2026-05-01T10:08:29Z</time></trkpt><trkpt lat="43.8305408558614" lon="10.700383424901773"><ele>23.0</ele><time>2026-05-01T10:08:30Z</time></trkpt><trkpt lat="43.83077115451492" lon="10.700738530629392"><ele>24.0</ele><time>2026-05-01T10:08:31Z</time></trkpt><trkpt lat="43.83100219145715" lon="10.701097732712306"><ele>25.0</ele><time>2026-05-01T10:08:32Z</time></trkpt><trkpt lat="43.83123305377399" lon="10.701462788013943"><ele>25.0</ele><time>2026-05-01T10:08:33Z</time></trkpt><trkpt lat="43.831463916396295" lon="10.70182859980187"><ele>25.0</ele><time>2026-05-01T10:08:34Z</time></trkpt><trkpt lat="43.83169656539765" lon="10.702194567021763"><ele>23.0</ele><time>2026-05-01T10:08:35Z</time></trkpt><trkpt lat="43.831928385507524" lon="10.70256096657472"><ele>21.0</ele><time>2026-05-01T10:08:36Z</time></trkpt><trkpt lat="43.832160764740664" lon="10.702924423717814"><ele>20.5</ele><time>2026-05-01T10:08:37Z</time></trkpt><trkpt lat="43.83239494513092" lon="10.703286574679272"><ele>20.0</ele><time>2026-05-01T10:08:38Z</time></trkpt><trkpt lat="43.832628131977465" lon="10.70365057494167"><ele>20.5</ele><time>2026-05-01T10:08:39Z</time></trkpt><trkpt lat="43.83285902389767" lon="10.704014431247474"><ele>21.0</ele><time>2026-05-01T10:08:40Z</time></trkpt><trkpt lat="43.83309259535817" lon="10.704375366276208"><ele>20.5</ele><time>2026-05-01T10:08:41Z</time></trkpt><trkpt lat="43.83332225970777" lon="10.704741604038377"><ele>20.0</ele><time>2026-05-01T10:08:42Z</time></trkpt><trkpt lat="43.8335514061122" lon="10.7051054926791"><ele>19.0</ele><time>2026-05-01T10:08:43Z</time></trkpt><trkpt lat="43.83378050228956" lon="10.705463906574185"><ele>18.0</ele><time>2026-05-01T10:08:44Z</time></trkpt><trkpt lat="43.83401039000233" lon="10.705824647100004"><ele>18.5</ele><time>2026-05-01T10:08:45Z</time></trkpt><trkpt lat="43.834240934810396" lon="10.706184385031714"><ele>19.0</ele><time>2026-05-01T10:08:46Z</time></trkpt><trkpt lat="43.83446924005317" lon="10.706546993434966"><ele>19.0</ele><time>2026-05-01T10:08:47Z</time></trkpt><trkpt lat="43.83469917933227" lon="10.706907739700517"><ele>19.0</ele><time>2026-05-01T10:08:48Z</time></trkpt><trkpt lat="43.83492998510126" lon="10.707264472616703"><ele>19.0</ele><time>2026-05-01T10:08:49Z</time></trkpt><trkpt lat="43.835157730805115" lon="10.707629624641632"><ele>19.0</ele><time>2026-05-01T10:08:50Z</time></trkpt><trkpt lat="43.83538738896481" lon="10.707990670890512"><ele>19.0</ele><time>2026-05-01T10:08:51Z</time></trkpt><trkpt lat="43.83561703072568" lon="10.70835277700542"><ele>19.0</ele><time>2026-05-01T10:08:52Z</time></trkpt><trkpt lat="43.83584315490905" lon="10.708715131712257"><ele>18.5</ele><time>2026-05-01T10:08:52.999Z</time></trkpt><trkpt lat="43.8360704736618" lon="10.709073394463184"><ele>18.0</ele><time>2026-05-01T10:08:53.999Z</time></trkpt><trkpt lat="43.83629603650106" lon="10.709433776462621"><ele>19.0</ele><time>2026-05-01T10:08:54.999Z</time></trkpt><trkpt lat="43.8365237500613" lon="10.70978978205196"><ele>20.0</ele><time>2026-05-01T10:08:55.999Z</time></trkpt><trkpt lat="43.83675412178602" lon="10.710145270275278"><ele>19.5</ele><time>2026-05-01T10:08:56.999Z</time></trkpt><trkpt lat="43.83698524029115" lon="10.710499167916483"><ele>19.0</ele><time>2026-05-01T10:08:57.999Z</time></trkpt><trkpt lat="43.837217376971935" lon="10.710848767107903"><ele>19.0</ele><time>2026-05-01T10:08:58.999Z</time></trkpt><trkpt lat="43.83744482008586" lon="10.711207829221635"><ele>19.0</ele><time>2026-05-01T10:08:59.999Z</time></trkpt><trkpt lat="43.837677285408034" lon="10.711561168556607"><ele>19.0</ele><time>2026-05-01T10:09:00.999Z</time></trkpt><trkpt lat="43.837911313256605" lon="10.71191788160436"><ele>19.0</ele><time>2026-05-01T10:09:01.999Z</time></trkpt><trkpt lat="43.8381399444201" lon="10.712283497089846"><ele>19.0</ele><time>2026-05-01T10:09:02.999Z</time></trkpt><trkpt lat="43.83837443850824" lon="10.712643811466856"><ele>19.0</ele><time>2026-05-01T10:09:03.999Z</time></trkpt><trkpt lat="43.83860147842703" lon="10.713016575336868"><ele>18.5</ele><time>2026-05-01T10:09:04.999Z</time></trkpt><trkpt lat="43.83883448416118" lon="10.713381753120256"><ele>18.0</ele><time>2026-05-01T10:09:05.999Z</time></trkpt><trkpt lat="43.839066824429395" lon="10.713748994919111"><ele>18.0</ele><time>2026-05-01T10:09:06.999Z</time></trkpt><trkpt lat="43.83929903698153" lon="10.714111246764599"><ele>18.0</ele><time>2026-05-01T10:09:07.999Z</time></trkpt><trkpt lat="43.839515830026684" lon="10.7144775201481"><ele>18.5</ele><time>2026-05-01T10:09:08.999Z</time></trkpt><trkpt lat="43.83973009215962" lon="10.714828047836466"><ele>19.0</ele><time>2026-05-01T10:09:09.999Z</time></trkpt><trkpt lat="43.83994336321149" lon="10.715173181010265"><ele>20.5</ele><time>2026-05-01T10:09:10.999Z</time></trkpt><trkpt lat="43.84016714736777" lon="10.715514524174292"><ele>22.0</ele><time>2026-05-01T10:09:11.999Z</time></trkpt><trkpt lat="43.84038641359047" lon="10.715865488038816"><ele>21.0</ele><time>2026-05-01T10:09:12.999Z</time></trkpt><trkpt lat="43.840604877101555" lon="10.716214335029834"><ele>20.0</ele><time>2026-05-01T10:09:13.999Z</time></trkpt><trkpt lat="43.8408265507342" lon="10.716555017706336"><ele>20.5</ele><time>2026-05-01T10:09:14.999Z</time></trkpt><trkpt lat="43.841047127887265" lon="10.716902663366298"><ele>21.0</ele><time>2026-05-01T10:09:15.999Z</time></trkpt><trkpt lat="43.84127155385193" lon="10.717252491559913"><ele>21.0</ele><time>2026-05-01T10:09:16.999Z</time></trkpt><trkpt lat="43.84149556358774" lon="10.717606999252128"><ele>21.0</ele><time>2026-05-01T10:09:17.999Z</time></trkpt><trkpt lat="43.8417222323199" lon="10.717955564004217"><ele>21.0</ele><time>2026-05-01T10:09:18.999Z</time></trkpt><trkpt lat="43.841942028741464" lon="10.718306280779817"><ele>21.0</ele><time>2026-05-01T10:09:19.999Z</time></trkpt><trkpt lat="43.84216335557993" lon="10.718656593141493"><ele>21.0</ele><time>2026-05-01T10:09:20.999Z</time></trkpt><trkpt lat="43.842385783535356" lon="10.71900797824947"><ele>21.0</ele><time>2026-05-01T10:09:21.999Z</time></trkpt><trkpt lat="43.84260388800834" lon="10.71935592650895"><ele>22.0</ele><time>2026-05-01T10:09:22.999Z</time></trkpt><trkpt lat="43.842824274557856" lon="10.7197033845749"><ele>23.0</ele><time>2026-05-01T10:09:23.999Z</time></trkpt><trkpt lat="43.843047246804204" lon="10.720054169682317"><ele>22.5</ele><time>2026-05-01T10:09:24.999Z</time></trkpt><trkpt lat="43.843270399396864" lon="10.72039955823407"><ele>22.0</ele><time>2026-05-01T10:09:25.999Z</time></trkpt><trkpt lat="43.843485296731146" lon="10.720737064171868"><ele>21.0</ele><time>2026-05-01T10:09:26.999Z</time></trkpt><trkpt lat="43.8437028132546" lon="10.721071338877517"><ele>20.0</ele><time>2026-05-01T10:09:27.999Z</time></trkpt><trkpt lat="43.84392169790251" lon="10.72141277619607"><ele>20.0</ele><time>2026-05-01T10:09:28.999Z</time></trkpt><trkpt lat="43.84413923217607" lon="10.721761837434425"><ele>20.0</ele><time>2026-05-01T10:09:29.999Z</time></trkpt><trkpt lat="43.84435911126272" lon="10.72210780452227"><ele>20.0</ele><time>2026-05-01T10:09:30.999Z</time></trkpt><trkpt lat="43.84457803007942" lon="10.722459962829776"><ele>20.0</ele><time>2026-05-01T10:09:31.999Z</time></trkpt><trkpt lat="43.84480134819784" lon="10.722809835942742"><ele>20.0</ele><time>2026-05-01T10:09:32.999Z</time></trkpt><trkpt lat="43.845029617021865" lon="10.723159448880924"><ele>20.0</ele><time>2026-05-01T10:09:33.999Z</time></trkpt><trkpt lat="43.845257184257626" lon="10.723515627488753"><ele>20.5</ele><time>2026-05-01T10:09:34.999Z</time></trkpt><trkpt lat="43.84548281035895" lon="10.72387330923084"><ele>21.0</ele><time>2026-05-01T10:09:35.999Z</time></trkpt><trkpt lat="43.84570520110669" lon="10.724226195812523"><ele>21.0</ele><time>2026-05-01T10:09:36.999Z</time></trkpt><trkpt lat="43.84592745632048" lon="10.724578971393347"><ele>21.0</ele><time>2026-05-01T10:09:37.999Z</time></trkpt><trkpt lat="43.8461507990372" lon="10.724928866315508"><ele>20.0</ele><time>2026-05-01T10:09:38.999Z</time></trkpt><trkpt lat="43.846372841961944" lon="10.725276595392497"><ele>19.0</ele><time>2026-05-01T10:09:39.999Z</time></trkpt><trkpt lat="43.84659508284712" lon="10.72561988979626"><ele>19.5</ele><time>2026-05-01T10:09:40.999Z</time></trkpt><trkpt lat="43.8468107550872" lon="10.725966302917847"><ele>20.0</ele><time>2026-05-01T10:09:41.999Z</time></trkpt><trkpt lat="43.84702844690554" lon="10.726308137496872"><ele>20.0</ele><time>2026-05-01T10:09:42.999Z</time></trkpt><trkpt lat="43.84724668572962" lon="10.726652891605669"><ele>20.0</ele><time>2026-05-01T10:09:43.999Z</time></trkpt><trkpt lat="43.84746415116099" lon="10.726998972311838"><ele>20.5</ele><time>2026-05-01T10:09:44.999Z</time></trkpt><trkpt lat="43.84768356366397" lon="10.727340164843094"><ele>21.0</ele><time>2026-05-01T10:09:45.999Z</time></trkpt><trkpt lat="43.847903739579024" lon="10.727682882281881"><ele>21.5</ele><time>2026-05-01T10:09:46.999Z</time></trkpt><trkpt lat="43.848119062831856" lon="10.728028537796026"><ele>22.0</ele><time>2026-05-01T10:09:47.999Z</time></trkpt><trkpt lat="43.8483366706044" lon="10.728369220418037"><ele>21.5</ele><time>2026-05-01T10:09:48.999Z</time></trkpt><trkpt lat="43.8485550735391" lon="10.728711990307923"><ele>21.0</ele><time>2026-05-01T10:09:49.999Z</time></trkpt><trkpt lat="43.84877249757589" lon="10.729052052846548"><ele>21.0</ele><time>2026-05-01T10:09:50.999Z</time></trkpt><trkpt lat="43.84898997418082" lon="10.729390530543654"><ele>21.0</ele><time>2026-05-01T10:09:51.999Z</time></trkpt><trkpt lat="43.8492062927119" lon="10.729727995954603"><ele>20.5</ele><time>2026-05-01T10:09:52.999Z</time></trkpt><trkpt lat="43.84942191073939" lon="10.730067380324376"><ele>20.0</ele><time>2026-05-01T10:09:53.999Z</time></trkpt><trkpt lat="43.84963544952735" lon="10.730403465970884"><ele>19.0</ele><time>2026-05-01T10:09:54.999Z</time></trkpt><trkpt lat="43.84984929771472" lon="10.730733828329425"><ele>18.0</ele><time>2026-05-01T10:09:55.999Z</time></trkpt><trkpt lat="43.85005879114329" lon="10.7310647189808"><ele>18.0</ele><time>2026-05-01T10:09:56.999Z</time></trkpt><trkpt lat="43.85026549358059" lon="10.731392723077771"><ele>18.0</ele><time>2026-05-01T10:09:57.999Z</time></trkpt><trkpt lat="43.850472752595145" lon="10.731718866917488"><ele>18.5</ele><time>2026-05-01T10:09:58.999Z</time></trkpt><trkpt lat="43.85068058750502" lon="10.732044953472863"><ele>19.0</ele><time>2026-05-01T10:09:59.999Z</time></trkpt><trkpt lat="43.85088422569784" lon="10.732369726167702"><ele>18.0</ele><time>2026-05-01T10:10:00.999Z</time></trkpt><trkpt lat="43.85108930063632" lon="10.732692008373647"><ele>17.0</ele><time>2026-05-01T10:10:01.999Z</time></trkpt><trkpt lat="43.85129560964334" lon="10.733016596414025"><ele>17.0</ele><time>2026-05-01T10:10:02.999Z</time></trkpt><trkpt lat="43.85150056036801" lon="10.733340477870907"><ele>17.0</ele><time>2026-05-01T10:10:03.999Z</time></trkpt><trkpt lat="43.851701986874296" lon="10.73366122521983"><ele>17.0</ele><time>2026-05-01T10:10:04.999Z</time></trkpt><trkpt lat="43.851902150101864" lon="10.733976707917222"><ele>17.0</ele><time>2026-05-01T10:10:05.999Z</time></trkpt><trkpt lat="43.852103591882404" lon="10.73428891311687"><ele>16.5</ele><time>2026-05-01T10:10:06.999Z</time></trkpt><trkpt lat="43.8523032471445" lon="10.73459875924483"><ele>16.0</ele><time>2026-05-01T10:10:07.999Z</time></trkpt><trkpt lat="43.85249979857537" lon="10.734911141515427"><ele>15.5</ele><time>2026-05-01T10:10:08.999Z</time></trkpt><trkpt lat="43.852696318304865" lon="10.735222663308798"><ele>15.0</ele><time>2026-05-01T10:10:09.999Z</time></trkpt><trkpt lat="43.85289157865138" lon="10.7355303004648"><ele>15.0</ele><time>2026-05-01T10:10:10.999Z</time></trkpt><trkpt lat="43.85308509165406" lon="10.735837705503053"><ele>15.0</ele><time>2026-05-01T10:10:11.999Z</time></trkpt><trkpt lat="43.85327810689427" lon="10.736139846862587"><ele>16.0</ele><time>2026-05-01T10:10:12.999Z</time></trkpt><trkpt lat="43.853470193274134" lon="10.73643865843599"><ele>17.0</ele><time>2026-05-01T10:10:13.999Z</time></trkpt><trkpt lat="43.85365706584478" lon="10.736739268307588"><ele>18.5</ele><time>2026-05-01T10:10:14.999Z</time></trkpt><trkpt lat="43.853848894237444" lon="10.737038584392197"><ele>20.0</ele><time>2026-05-01T10:10:15.999Z</time></trkpt><trkpt lat="43.85403904127032" lon="10.737338952997842"><ele>20.0</ele><time>2026-05-01T10:10:16.999Z</time></trkpt><trkpt lat="43.85422920014819" lon="10.737636972527529"><ele>20.0</ele><time>2026-05-01T10:10:17.999Z</time></trkpt><trkpt lat="43.8544201429559" lon="10.737939626029496"><ele>18.5</ele><time>2026-05-01T10:10:18.999Z</time></trkpt><trkpt lat="43.85460959932152" lon="10.738245270181446"><ele>17.0</ele><time>2026-05-01T10:10:20Z</time></trkpt><trkpt lat="43.85480081213132" lon="10.738542926456363"><ele>16.5</ele><time>2026-05-01T10:10:21Z</time></trkpt><trkpt lat="43.854994213960545" lon="10.738836578158013"><ele>16.0</ele><time>2026-05-01T10:10:22Z</time></trkpt><trkpt lat="43.85518518451119" lon="10.73913685126157"><ele>16.5</ele><time>2026-05-01T10:10:23Z</time></trkpt><trkpt lat="43.855376543923555" lon="10.739440237383382"><ele>17.0</ele><time>2026-05-01T10:10:24Z</time></trkpt><trkpt lat="43.855571257000335" lon="10.739743694722733"><ele>17.0</ele><time>2026-05-01T10:10:25Z</time></trkpt><trkpt lat="43.85576167713501" lon="10.740050711102464"><ele>17.0</ele><time>2026-05-01T10:10:26Z</time></trkpt><trkpt lat="43.855954255990824" lon="10.740354881023226"><ele>17.0</ele><time>2026-05-01T10:10:27Z</time></trkpt><trkpt lat="43.85614704811201" lon="10.740662733711256"><ele>17.0</ele><time>2026-05-01T10:10:28Z</time></trkpt><trkpt lat="43.85634167768006" lon="10.740966073777578"><ele>17.0</ele><time>2026-05-01T10:10:29Z</time></trkpt><trkpt lat="43.85653812575833" lon="10.741272008386174"><ele>17.0</ele><time>2026-05-01T10:10:30Z</time></trkpt><trkpt lat="43.856734874405326" lon="10.74158211370951"><ele>17.5</ele><time>2026-05-01T10:10:31Z</time></trkpt><trkpt lat="43.85693438765507" lon="10.741892777382654"><ele>18.0</ele><time>2026-05-01T10:10:32Z</time></trkpt><trkpt lat="43.85713280272553" lon="10.742199992982888"><ele>18.0</ele><time>2026-05-01T10:10:33Z</time></trkpt><trkpt lat="43.85732754036293" lon="10.742511672774313"><ele>18.0</ele><time>2026-05-01T10:10:34Z</time></trkpt><trkpt lat="43.85752446643514" lon="10.742826126644436"><ele>18.0</ele><time>2026-05-01T10:10:35Z</time></trkpt><trkpt lat="43.857723462407435" lon="10.74313809022918"><ele>18.0</ele><time>2026-05-01T10:10:36Z</time></trkpt><trkpt lat="43.85792497862548" lon="10.74345304603435"><ele>19.0</ele><time>2026-05-01T10:10:37Z</time></trkpt><trkpt lat="43.85812891394758" lon="10.743772768797323"><ele>20.0</ele><time>2026-05-01T10:10:38Z</time></trkpt><trkpt lat="43.85832932136488" lon="10.744094941529765"><ele>19.0</ele><time>2026-05-01T10:10:39Z</time></trkpt><trkpt lat="43.85852791617765" lon="10.744411630884825"><ele>18.0</ele><time>2026-05-01T10:10:40Z</time></trkpt><trkpt lat="43.85873253547981" lon="10.744727705614036"><ele>18.0</ele><time>2026-05-01T10:10:41Z</time></trkpt><trkpt lat="43.85893701170427" lon="10.745051481982243"><ele>18.0</ele><time>2026-05-01T10:10:42Z</time></trkpt><trkpt lat="43.859140063465816" lon="10.745371802090238"><ele>18.5</ele><time>2026-05-01T10:10:43Z</time></trkpt><trkpt lat="43.85934420959104" lon="10.745691516363088"><ele>19.0</ele><time>2026-05-01T10:10:44Z</time></trkpt><trkpt lat="43.85954701939979" lon="10.746015694574087"><ele>19.5</ele><time>2026-05-01T10:10:45Z</time></trkpt><trkpt lat="43.8597542594061" lon="10.746339301883035"><ele>20.0</ele><time>2026-05-01T10:10:46Z</time></trkpt><trkpt lat="43.85996397159482" lon="10.74666555843185"><ele>18.5</ele><time>2026-05-01T10:10:47Z</time></trkpt><trkpt lat="43.860173876548174" lon="10.746993560098726"><ele>17.0</ele><time>2026-05-01T10:10:48Z</time></trkpt><trkpt lat="43.860382826275334" lon="10.747324999324123"><ele>17.0</ele><time>2026-05-01T10:10:49Z</time></trkpt><trkpt lat="43.86059392442372" lon="10.747662287631808"><ele>17.0</ele><time>2026-05-01T10:10:50Z</time></trkpt><trkpt lat="43.860812665624316" lon="10.748005644566017"><ele>17.0</ele><time>2026-05-01T10:10:51Z</time></trkpt><trkpt lat="43.86104311754621" lon="10.7483588980877"><ele>17.0</ele><time>2026-05-01T10:10:52Z</time></trkpt><trkpt lat="43.86127470820972" lon="10.748718154579894"><ele>18.0</ele><time>2026-05-01T10:10:53Z</time></trkpt><trkpt lat="43.861504771499554" lon="10.74908016615815"><ele>19.0</ele><time>2026-05-01T10:10:54Z</time></trkpt><trkpt lat="43.86173503248732" lon="10.749440061540323"><ele>19.0</ele><time>2026-05-01T10:10:55Z</time></trkpt><trkpt lat="43.861967276930535" lon="10.749802216936786"><ele>19.0</ele><time>2026-05-01T10:10:56Z</time></trkpt><trkpt lat="43.862201385885214" lon="10.750166323450706"><ele>18.5</ele><time>2026-05-01T10:10:57Z</time></trkpt><trkpt lat="43.862435237038405" lon="10.75053155836192"><ele>18.0</ele><time>2026-05-01T10:10:57.999Z</time></trkpt><trkpt lat="43.862667908884" lon="10.750898175251534"><ele>17.5</ele><time>2026-05-01T10:10:58.999Z</time></trkpt><trkpt lat="43.86289979679481" lon="10.751266879809275"><ele>17.0</ele><time>2026-05-01T10:10:59.999Z</time></trkpt><trkpt lat="43.863128521130406" lon="10.751630021506287"><ele>17.0</ele><time>2026-05-01T10:11:00.999Z</time></trkpt><trkpt lat="43.86335257420423" lon="10.751993421120316"><ele>17.0</ele><time>2026-05-01T10:11:01.999Z</time></trkpt><trkpt lat="43.863576951673906" lon="10.752351992535594"><ele>16.5</ele><time>2026-05-01T10:11:02.999Z</time></trkpt><trkpt lat="43.86380502977642" lon="10.752706040846268"><ele>16.0</ele><time>2026-05-01T10:11:03.999Z</time></trkpt><trkpt lat="43.86403257492959" lon="10.753058997503203"><ele>16.0</ele><time>2026-05-01T10:11:04.999Z</time></trkpt><trkpt lat="43.8642585286943" lon="10.75341101986987"><ele>16.0</ele><time>2026-05-01T10:11:05.999Z</time></trkpt><trkpt lat="43.864486490987225" lon="10.753761912989026"><ele>16.0</ele><time>2026-05-01T10:11:06.999Z</time></trkpt><trkpt lat="43.86471266367036" lon="10.754119994264894"><ele>16.0</ele><time>2026-05-01T10:11:07.999Z</time></trkpt><trkpt lat="43.86493591101027" lon="10.754477584198197"><ele>16.5</ele><time>2026-05-01T10:11:08.999Z</time></trkpt><trkpt lat="43.86516237498045" lon="10.754826468456848"><ele>17.0</ele><time>2026-05-01T10:11:09.999Z</time></trkpt><trkpt lat="43.86538905471906" lon="10.755184290637718"><ele>16.0</ele><time>2026-05-01T10:11:10.999Z</time></trkpt><trkpt lat="43.86561474405201" lon="10.755540577792756"><ele>15.0</ele><time>2026-05-01T10:11:11.999Z</time></trkpt><trkpt lat="43.86584237000774" lon="10.75589518329425"><ele>15.5</ele><time>2026-05-01T10:11:12.999Z</time></trkpt><trkpt lat="43.86606855797619" lon="10.756249808827505"><ele>16.0</ele><time>2026-05-01T10:11:13.999Z</time></trkpt><trkpt lat="43.86629295583356" lon="10.756605202235153"><ele>17.5</ele><time>2026-05-01T10:11:14.999Z</time></trkpt><trkpt lat="43.86652008259325" lon="10.756958790214382"><ele>19.0</ele><time>2026-05-01T10:11:15.999Z</time></trkpt><trkpt lat="43.86674663626054" lon="10.757316688946782"><ele>18.5</ele><time>2026-05-01T10:11:16.999Z</time></trkpt><trkpt lat="43.86697347409921" lon="10.757678740916196"><ele>18.0</ele><time>2026-05-01T10:11:17.999Z</time></trkpt><trkpt lat="43.86720029430303" lon="10.758040722665877"><ele>18.0</ele><time>2026-05-01T10:11:18.999Z</time></trkpt><trkpt lat="43.86742798814437" lon="10.758400278865233"><ele>18.0</ele><time>2026-05-01T10:11:19.999Z</time></trkpt><trkpt lat="43.86765476632474" lon="10.758759555122793"><ele>17.5</ele><time>2026-05-01T10:11:20.999Z</time></trkpt><trkpt lat="43.867883692681595" lon="10.759117488336544"><ele>17.0</ele><time>2026-05-01T10:11:21.999Z</time></trkpt><trkpt lat="43.868112220652634" lon="10.759478185713107"><ele>17.0</ele><time>2026-05-01T10:11:22.999Z</time></trkpt><trkpt lat="43.86834008474832" lon="10.759836360600934"><ele>17.0</ele><time>2026-05-01T10:11:23.999Z</time></trkpt><trkpt lat="43.86856617215845" lon="10.760194072638242"><ele>18.0</ele><time>2026-05-01T10:11:24.999Z</time></trkpt><trkpt lat="43.8687926296799" lon="10.760550209581256"><ele>19.0</ele><time>2026-05-01T10:11:25.999Z</time></trkpt><trkpt lat="43.869011715567346" lon="10.76090083976918"><ele>19.5</ele><time>2026-05-01T10:11:26.999Z</time></trkpt><trkpt lat="43.869233800715634" lon="10.761275251700784"><ele>20.0</ele><time>2026-05-01T10:11:27.999Z</time></trkpt><trkpt lat="43.869434250543456" lon="10.761655945600584"><ele>18.5</ele><time>2026-05-01T10:11:28.999Z</time></trkpt><trkpt lat="43.86962416207253" lon="10.762048025870506"><ele>17.0</ele><time>2026-05-01T10:11:29.999Z</time></trkpt><trkpt lat="43.869802225764786" lon="10.762451009834594"><ele>17.5</ele><time>2026-05-01T10:11:30.999Z</time></trkpt><trkpt lat="43.869971709177754" lon="10.762862821213302"><ele>18.0</ele><time>2026-05-01T10:11:31.999Z</time></trkpt><trkpt lat="43.87013048411315" lon="10.763283985985646"><ele>17.0</ele><time>2026-05-01T10:11:32.999Z</time></trkpt><trkpt lat="43.87027825785919" lon="10.763713193874134"><ele>16.0</ele><time>2026-05-01T10:11:33.999Z</time></trkpt><trkpt lat="43.870417682645446" lon="10.76414540463924"><ele>17.5</ele><time>2026-05-01T10:11:34.999Z</time></trkpt><trkpt lat="43.870551664171245" lon="10.76457915634321"><ele>19.0</ele><time>2026-05-01T10:11:35.999Z</time></trkpt><trkpt lat="43.870685802919525" lon="10.76501318575017"><ele>19.0</ele><time>2026-05-01T10:11:36.999Z</time></trkpt><trkpt lat="43.87081919076851" lon="10.765442961413788"><ele>19.0</ele><time>2026-05-01T10:11:37.999Z</time></trkpt><trkpt lat="43.87095257378487" lon="10.765873733280317"><ele>19.5</ele><time>2026-05-01T10:11:38.999Z</time></trkpt><trkpt lat="43.87108599462512" lon="10.766303511871962"><ele>20.0</ele><time>2026-05-01T10:11:39.999Z</time></trkpt><trkpt lat="43.87121954724503" lon="10.766733205082533"><ele>20.0</ele><time>2026-05-01T10:11:40.999Z</time></trkpt><trkpt lat="43.871353814810405" lon="10.76716365596628"><ele>20.0</ele><time>2026-05-01T10:11:41.999Z</time></trkpt><trkpt lat="43.871489040225036" lon="10.767593203168627"><ele>19.0</ele><time>2026-05-01T10:11:42.999Z</time></trkpt><trkpt lat="43.87162611402565" lon="10.768022530761861"><ele>18.0</ele><time>2026-05-01T10:11:43.999Z</time></trkpt><trkpt lat="43.87176066287621" lon="10.768452644812456"><ele>19.0</ele><time>2026-05-01T10:11:44.999Z</time></trkpt><trkpt lat="43.87189423248575" lon="10.768882818827642"><ele>20.0</ele><time>2026-05-01T10:11:45.999Z</time></trkpt><trkpt lat="43.87202894162629" lon="10.769315236972355"><ele>19.5</ele><time>2026-05-01T10:11:46.999Z</time></trkpt><trkpt lat="43.87216370815803" lon="10.7697486221103"><ele>19.0</ele><time>2026-05-01T10:11:47.999Z</time></trkpt><trkpt lat="43.872299533654854" lon="10.770184349499603"><ele>19.0</ele><time>2026-05-01T10:11:48.999Z</time></trkpt><trkpt lat="43.872436219335185" lon="10.770621888062024"><ele>19.0</ele><time>2026-05-01T10:11:49.999Z</time></trkpt><trkpt lat="43.872572584004175" lon="10.771056965215982"><ele>19.0</ele><time>2026-05-01T10:11:50.999Z</time></trkpt><trkpt lat="43.87270653335228" lon="10.771488946270335"><ele>19.0</ele><time>2026-05-01T10:11:51.999Z</time></trkpt><trkpt lat="43.87284001581238" lon="10.771918318155624"><ele>19.5</ele><time>2026-05-01T10:11:52.999Z</time></trkpt><trkpt lat="43.87297233442411" lon="10.77234686406412"><ele>20.0</ele><time>2026-05-01T10:11:53.999Z</time></trkpt><trkpt lat="43.87310397375117" lon="10.772777867764843"><ele>20.0</ele><time>2026-05-01T10:11:54.999Z</time></trkpt><trkpt lat="43.87323733497564" lon="10.773207609486954"><ele>20.0</ele><time>2026-05-01T10:11:55.999Z</time></trkpt><trkpt lat="43.87337245185786" lon="10.773639426246877"><ele>19.5</ele><time>2026-05-01T10:11:56.999Z</time></trkpt><trkpt lat="43.873507455862125" lon="10.774069732242271"><ele>19.0</ele><time>2026-05-01T10:11:57.999Z</time></trkpt><trkpt lat="43.87364244441416" lon="10.774502037632336"><ele>19.0</ele><time>2026-05-01T10:11:58.999Z</time></trkpt><trkpt lat="43.87377586820287" lon="10.774938266606823"><ele>19.0</ele><time>2026-05-01T10:11:59.999Z</time></trkpt><trkpt lat="43.873905592563275" lon="10.775372138654525"><ele>19.0</ele><time>2026-05-01T10:12:00.999Z</time></trkpt><trkpt lat="43.87403268263439" lon="10.775795169666816"><ele>19.0</ele><time>2026-05-01T10:12:01.999Z</time></trkpt><trkpt lat="43.874155176908786" lon="10.776205106068236"><ele>19.0</ele><time>2026-05-01T10:12:02.999Z</time></trkpt><trkpt lat="43.874274531977306" lon="10.776602291672866"><ele>19.0</ele><time>2026-05-01T10:12:03.999Z</time></trkpt><trkpt lat="43.874393743829216" lon="10.776996410961617"><ele>19.0</ele><time>2026-05-01T10:12:04.999Z</time></trkpt><trkpt lat="43.87451698644004" lon="10.777402667462116"><ele>19.0</ele><time>2026-05-01T10:12:05.999Z</time></trkpt><trkpt lat="43.874645296393936" lon="10.77781428285684"><ele>19.0</ele><time>2026-05-01T10:12:06.999Z</time></trkpt><trkpt lat="43.874775834491324" lon="10.778228832234356"><ele>19.0</ele><time>2026-05-01T10:12:07.999Z</time></trkpt><trkpt lat="43.87490907186355" lon="10.778650523598545"><ele>19.0</ele><time>2026-05-01T10:12:08.999Z</time></trkpt><trkpt lat="43.87504561979781" lon="10.779076359083643"><ele>19.0</ele><time>2026-05-01T10:12:09.999Z</time></trkpt><trkpt lat="43.87518035387577" lon="10.779504569325203"><ele>20.0</ele><time>2026-05-01T10:12:10.999Z</time></trkpt><trkpt lat="43.875314235313944" lon="10.779936956614948"><ele>21.0</ele><time>2026-05-01T10:12:11.999Z</time></trkpt><trkpt lat="43.8754480972262" lon="10.780370290635448"><ele>21.0</ele><time>2026-05-01T10:12:12.999Z</time></trkpt><trkpt lat="43.87558490637282" lon="10.780805513212917"><ele>21.0</ele><time>2026-05-01T10:12:13.999Z</time></trkpt><trkpt lat="43.87572142715214" lon="10.78123931634628"><ele>21.0</ele><time>2026-05-01T10:12:14.999Z</time></trkpt><trkpt lat="43.87585814799009" lon="10.78167367606202"><ele>21.0</ele><time>2026-05-01T10:12:15.999Z</time></trkpt><trkpt lat="43.875994398207524" lon="10.782111793440125"><ele>21.0</ele><time>2026-05-01T10:12:16.999Z</time></trkpt><trkpt lat="43.87612955041973" lon="10.782550981788404"><ele>21.0</ele><time>2026-05-01T10:12:17.999Z</time></trkpt><trkpt lat="43.87626767441311" lon="10.782988444321"><ele>21.5</ele><time>2026-05-01T10:12:18.999Z</time></trkpt><trkpt lat="43.876396988847155" lon="10.783425819886274"><ele>22.0</ele><time>2026-05-01T10:12:19.999Z</time></trkpt><trkpt lat="43.876522914538555" lon="10.783866361960698"><ele>22.0</ele><time>2026-05-01T10:12:20.999Z</time></trkpt><trkpt lat="43.87663708300705" lon="10.784297227013958"><ele>22.0</ele><time>2026-05-01T10:12:21.999Z</time></trkpt><trkpt lat="43.87673267885988" lon="10.784732543729637"><ele>22.0</ele><time>2026-05-01T10:12:22.999Z</time></trkpt><trkpt lat="43.87680447981871" lon="10.785174961202829"><ele>22.0</ele><time>2026-05-01T10:12:23.999Z</time></trkpt><trkpt lat="43.87685527594898" lon="10.78562785536748"><ele>21.5</ele><time>2026-05-01T10:12:24.999Z</time></trkpt><trkpt lat="43.87688679616323" lon="10.786088764297137"><ele>21.0</ele><time>2026-05-01T10:12:26Z</time></trkpt><trkpt lat="43.87689833521698" lon="10.78655158582641"><ele>22.0</ele><time>2026-05-01T10:12:27Z</time></trkpt><trkpt lat="43.876892068701814" lon="10.787018307561286"><ele>23.0</ele><time>2026-05-01T10:12:28Z</time></trkpt><trkpt lat="43.87688297094248" lon="10.787491893293645"><ele>23.0</ele><time>2026-05-01T10:12:29Z</time></trkpt><trkpt lat="43.87686710126405" lon="10.787967985425984"><ele>23.0</ele><time>2026-05-01T10:12:30Z</time></trkpt><trkpt lat="43.87685117605941" lon="10.788445838398403"><ele>22.5</ele><time>2026-05-01T10:12:31Z</time></trkpt><trkpt lat="43.8768357952652" lon="10.788912767429595"><ele>22.0</ele><time>2026-05-01T10:12:32Z</time></trkpt><trkpt lat="43.876819849773696" lon="10.789341556143286"><ele>22.5</ele><time>2026-05-01T10:12:33Z</time></trkpt><trkpt lat="43.87680171805649" lon="10.789767299014747"><ele>23.0</ele><time>2026-05-01T10:12:34Z</time></trkpt><trkpt lat="43.87678332412116" lon="10.790198689312666"><ele>22.5</ele><time>2026-05-01T10:12:35Z</time></trkpt><trkpt lat="43.87676506691658" lon="10.790641073966942"><ele>22.0</ele><time>2026-05-01T10:12:36Z</time></trkpt><trkpt lat="43.87674636251712" lon="10.791091417897055"><ele>21.5</ele><time>2026-05-01T10:12:37Z</time></trkpt><trkpt lat="43.876726861797714" lon="10.791551739661195"><ele>21.0</ele><time>2026-05-01T10:12:38Z</time></trkpt><trkpt lat="43.87670625328528" lon="10.792015386091977"><ele>21.0</ele><time>2026-05-01T10:12:39Z</time></trkpt><trkpt lat="43.876685713417736" lon="10.792482289102404"><ele>21.0</ele><time>2026-05-01T10:12:40Z</time></trkpt><trkpt lat="43.87666682548791" lon="10.792947916092862"><ele>21.0</ele><time>2026-05-01T10:12:41Z</time></trkpt><trkpt lat="43.876647716927096" lon="10.79341446978382"><ele>21.0</ele><time>2026-05-01T10:12:42Z</time></trkpt><trkpt lat="43.87662757676295" lon="10.793880719844987"><ele>22.5</ele><time>2026-05-01T10:12:43Z</time></trkpt><trkpt lat="43.87660795655981" lon="10.794349266020822"><ele>24.0</ele><time>2026-05-01T10:12:44Z</time></trkpt><trkpt lat="43.87658727549594" lon="10.794819610868684"><ele>24.0</ele><time>2026-05-01T10:12:45Z</time></trkpt><trkpt lat="43.87656624409226" lon="10.795288140580489"><ele>24.0</ele><time>2026-05-01T10:12:46Z</time></trkpt><trkpt lat="43.8765456621713" lon="10.795755471756761"><ele>23.5</ele><time>2026-05-01T10:12:47Z</time></trkpt><trkpt lat="43.87652532946961" lon="10.796226018166424"><ele>23.0</ele><time>2026-05-01T10:12:48Z</time></trkpt><trkpt lat="43.87650689936477" lon="10.796696401652138"><ele>23.0</ele><time>2026-05-01T10:12:49Z</time></trkpt><trkpt lat="43.87648908533918" lon="10.797169002841668"><ele>23.0</ele><time>2026-05-01T10:12:50Z</time></trkpt><trkpt lat="43.87647246960706" lon="10.797643379406708"><ele>22.5</ele><time>2026-05-01T10:12:51Z</time></trkpt><trkpt lat="43.87645448415538" lon="10.798117522744825"><ele>22.0</ele><time>2026-05-01T10:12:52Z</time></trkpt><trkpt lat="43.876432690077735" lon="10.798589691434643"><ele>22.0</ele><time>2026-05-01T10:12:53Z</time></trkpt><trkpt lat="43.87641319545029" lon="10.799061679189695"><ele>22.0</ele><time>2026-05-01T10:12:54Z</time></trkpt><trkpt lat="43.87639547557598" lon="10.799533997321147"><ele>22.0</ele><time>2026-05-01T10:12:55Z</time></trkpt><trkpt lat="43.87637581416679" lon="10.800003667230198"><ele>22.0</ele><time>2026-05-01T10:12:56Z</time></trkpt><trkpt lat="43.876356035134414" lon="10.8004709522681"><ele>22.0</ele><time>2026-05-01T10:12:56.999Z</time></trkpt><trkpt lat="43.87633538306953" lon="10.800940305105259"><ele>22.0</ele><time>2026-05-01T10:12:57.999Z</time></trkpt><trkpt lat="43.87631492188377" lon="10.80140517402726"><ele>22.5</ele><time>2026-05-01T10:12:58.999Z</time></trkpt><trkpt lat="43.87629380615506" lon="10.801868414842001"><ele>23.0</ele><time>2026-05-01T10:12:59.999Z</time></trkpt><trkpt lat="43.87627331286946" lon="10.802330626303995"><ele>23.0</ele><time>2026-05-01T10:13:00.999Z</time></trkpt><trkpt lat="43.876253760906536" lon="10.802796268732113"><ele>23.0</ele><time>2026-05-01T10:13:01.999Z</time></trkpt><trkpt lat="43.876231240401204" lon="10.803263753301241"><ele>23.0</ele><time>2026-05-01T10:13:02.999Z</time></trkpt><trkpt lat="43.87620700185117" lon="10.803727037736898"><ele>23.0</ele><time>2026-05-01T10:13:03.999Z</time></trkpt><trkpt lat="43.87618210166764" lon="10.804186934011932"><ele>22.0</ele><time>2026-05-01T10:13:04.999Z</time></trkpt><trkpt lat="43.87615589512217" lon="10.804643092582987"><ele>21.0</ele><time>2026-05-01T10:13:05.999Z</time></trkpt><trkpt lat="43.87613159629892" lon="10.805094144620295"><ele>21.0</ele><time>2026-05-01T10:13:06.999Z</time></trkpt><trkpt lat="43.87610743618949" lon="10.805535030396868"><ele>21.0</ele><time>2026-05-01T10:13:07.999Z</time></trkpt><trkpt lat="43.876094215876776" lon="10.805969600992173"><ele>21.0</ele><time>2026-05-01T10:13:08.999Z</time></trkpt><trkpt lat="43.87609892505657" lon="10.806403389502686"><ele>21.0</ele><time>2026-05-01T10:13:09.999Z</time></trkpt><trkpt lat="43.87612958136231" lon="10.806835255500099"><ele>21.5</ele><time>2026-05-01T10:13:10.999Z</time></trkpt><trkpt lat="43.87618637395114" lon="10.807265609951065"><ele>22.0</ele><time>2026-05-01T10:13:11.999Z</time></trkpt><trkpt lat="43.87626877155515" lon="10.807689564316044"><ele>22.5</ele><time>2026-05-01T10:13:12.999Z</time></trkpt><trkpt lat="43.87638202894838" lon="10.808105822141524"><ele>23.0</ele><time>2026-05-01T10:13:13.999Z</time></trkpt><trkpt lat="43.876522786595544" lon="10.808509137820842"><ele>23.5</ele><time>2026-05-01T10:13:14.999Z</time></trkpt><trkpt lat="43.87668552540717" lon="10.808898803956124"><ele>24.0</ele><time>2026-05-01T10:13:15.999Z</time></trkpt><trkpt lat="43.87687201911169" lon="10.809267980317122"><ele>22.5</ele><time>2026-05-01T10:13:16.999Z</time></trkpt><trkpt lat="43.8770842042201" lon="10.809610908574195"><ele>21.0</ele><time>2026-05-01T10:13:17.999Z</time></trkpt><trkpt lat="43.87731447703925" lon="10.809933954609171"><ele>22.0</ele><time>2026-05-01T10:13:18.999Z</time></trkpt><trkpt lat="43.87756610361963" lon="10.810227988920037"><ele>23.0</ele><time>2026-05-01T10:13:19.999Z</time></trkpt><trkpt lat="43.87782864778663" lon="10.810501700439092"><ele>23.0</ele><time>2026-05-01T10:13:20.999Z</time></trkpt><trkpt lat="43.87809473787444" lon="10.810767565868572"><ele>23.0</ele><time>2026-05-01T10:13:21.999Z</time></trkpt><trkpt lat="43.87836112873968" lon="10.811038241400086"><ele>24.0</ele><time>2026-05-01T10:13:22.999Z</time></trkpt><trkpt lat="43.87862738980087" lon="10.811310182627697"><ele>25.0</ele><time>2026-05-01T10:13:23.999Z</time></trkpt><trkpt lat="43.878894089286625" lon="10.811583493912961"><ele>25.0</ele><time>2026-05-01T10:13:24.999Z</time></trkpt><trkpt lat="43.879160755052084" lon="10.811856295379744"><ele>25.0</ele><time>2026-05-01T10:13:25.999Z</time></trkpt><trkpt lat="43.879427488911205" lon="10.812127244609405"><ele>26.0</ele><time>2026-05-01T10:13:26.999Z</time></trkpt><trkpt lat="43.87969873968885" lon="10.812399815226485"><ele>27.0</ele><time>2026-05-01T10:13:27.999Z</time></trkpt><trkpt lat="43.879973838781176" lon="10.812673008042823"><ele>26.5</ele><time>2026-05-01T10:13:28.999Z</time></trkpt><trkpt lat="43.88024598272273" lon="10.812947073920986"><ele>26.0</ele><time>2026-05-01T10:13:29.999Z</time></trkpt><trkpt lat="43.880518201613185" lon="10.813222601152555"><ele>25.5</ele><time>2026-05-01T10:13:30.999Z</time></trkpt><trkpt lat="43.88079147049303" lon="10.813500533601996"><ele>25.0</ele><time>2026-05-01T10:13:31.999Z</time></trkpt><trkpt lat="43.88106679205577" lon="10.81378247308746"><ele>25.0</ele><time>2026-05-01T10:13:32.999Z</time></trkpt><trkpt lat="43.881339702820306" lon="10.814063305704677"><ele>25.0</ele><time>2026-05-01T10:13:33.999Z</time></trkpt><trkpt lat="43.88161137579335" lon="10.81434252489672"><ele>24.5</ele><time>2026-05-01T10:13:34.999Z</time></trkpt><trkpt lat="43.881883219791895" lon="10.814623748997677"><ele>24.0</ele><time>2026-05-01T10:13:35.999Z</time></trkpt><trkpt lat="43.88215306860606" lon="10.81490456411888"><ele>25.5</ele><time>2026-05-01T10:13:36.999Z</time></trkpt><trkpt lat="43.88242318553359" lon="10.815186555546319"><ele>27.0</ele><time>2026-05-01T10:13:37.999Z</time></trkpt><trkpt lat="43.88269094919933" lon="10.815477643603247"><ele>27.0</ele><time>2026-05-01T10:13:38.999Z</time></trkpt><trkpt lat="43.88295627780424" lon="10.81576742904229"><ele>27.0</ele><time>2026-05-01T10:13:39.999Z</time></trkpt><trkpt lat="43.883222664865514" lon="10.81605524852801"><ele>30.5</ele><time>2026-05-01T10:13:40.999Z</time></trkpt><trkpt lat="43.88349097147866" lon="10.816340333244472"><ele>34.0</ele><time>2026-05-01T10:13:41.999Z</time></trkpt><trkpt lat="43.883760843068615" lon="10.816624142117803"><ele>33.5</ele><time>2026-05-01T10:13:42.999Z</time></trkpt><trkpt lat="43.88403098102076" lon="10.816905997198237"><ele>33.0</ele><time>2026-05-01T10:13:43.999Z</time></trkpt><trkpt lat="43.88430280438902" lon="10.817189508572456"><ele>35.5</ele><time>2026-05-01T10:13:44.999Z</time></trkpt><trkpt lat="43.88457344060691" lon="10.817470608732721"><ele>38.0</ele><time>2026-05-01T10:13:45.999Z</time></trkpt><trkpt lat="43.88484075276106" lon="10.817749000188625"><ele>39.0</ele><time>2026-05-01T10:13:46.999Z</time></trkpt><trkpt lat="43.88510712465983" lon="10.818024304618074"><ele>40.0</ele><time>2026-05-01T10:13:47.999Z</time></trkpt><trkpt lat="43.88536892063873" lon="10.818298190366223"><ele>39.5</ele><time>2026-05-01T10:13:48.999Z</time></trkpt><trkpt lat="43.885630634892834" lon="10.818570895304292"><ele>39.0</ele><time>2026-05-01T10:13:49.999Z</time></trkpt><trkpt lat="43.88589179110603" lon="10.818843654015913"><ele>38.0</ele><time>2026-05-01T10:13:50.999Z</time></trkpt><trkpt lat="43.886149606803876" lon="10.819111998924921"><ele>37.0</ele><time>2026-05-01T10:13:51.999Z</time></trkpt><trkpt lat="43.886402991365955" lon="10.819374100363273"><ele>37.0</ele><time>2026-05-01T10:13:52.999Z</time></trkpt><trkpt lat="43.88665535495136" lon="10.819635420061305"><ele>37.0</ele><time>2026-05-01T10:13:53.999Z</time></trkpt><trkpt lat="43.88690305176007" lon="10.819893794219128"><ele>36.5</ele><time>2026-05-01T10:13:54.999Z</time></trkpt><trkpt lat="43.88714484044119" lon="10.820147627038143"><ele>36.0</ele><time>2026-05-01T10:13:55.999Z</time></trkpt><trkpt lat="43.88738367032225" lon="10.820399385706972"><ele>36.5</ele><time>2026-05-01T10:13:56.999Z</time></trkpt><trkpt lat="43.887619274590286" lon="10.82064755547166"><ele>37.0</ele><time>2026-05-01T10:13:57.999Z</time></trkpt><trkpt lat="43.8878487278005" lon="10.820888826072451"><ele>37.5</ele><time>2026-05-01T10:13:58.999Z</time></trkpt><trkpt lat="43.88807169027031" lon="10.82112079144844"><ele>38.0</ele><time>2026-05-01T10:13:59.999Z</time></trkpt><trkpt lat="43.8882887923889" lon="10.821348201999912"><ele>37.0</ele><time>2026-05-01T10:14:00.999Z</time></trkpt><trkpt lat="43.888498402400884" lon="10.821569570785318"><ele>36.0</ele><time>2026-05-01T10:14:01.999Z</time></trkpt><trkpt lat="43.888698632276096" lon="10.821782206868683"><ele>40.5</ele><time>2026-05-01T10:14:02.999Z</time></trkpt><trkpt lat="43.88888729239561" lon="10.821984628786215"><ele>45.0</ele><time>2026-05-01T10:14:03.999Z</time></trkpt><trkpt lat="43.88906711354356" lon="10.82217893603316"><ele>45.0</ele><time>2026-05-01T10:14:04.999Z</time></trkpt><trkpt lat="43.88923788698583" lon="10.822365025173358"><ele>45.0</ele><time>2026-05-01T10:14:05.999Z</time></trkpt><trkpt lat="43.88940347523172" lon="10.822554802563987"><ele>45.0</ele><time>2026-05-01T10:14:06.999Z</time></trkpt><trkpt lat="43.88955803784297" lon="10.822743061541427"><ele>45.666666666666664</ele><time>2026-05-01T10:14:07.999Z</time></trkpt><trkpt lat="43.88970233649975" lon="10.822932956274531"><ele>46.33333333333333</ele><time>2026-05-01T10:14:08.999Z</time></trkpt><trkpt lat="43.88983467951626" lon="10.823130947746899"><ele>47.0</ele><time>2026-05-01T10:14:09.999Z</time></trkpt><trkpt lat="43.88995019734703" lon="10.823332503475918"><ele>49.33333333333333</ele><time>2026-05-01T10:14:10.999Z</time></trkpt><trkpt lat="43.89007094248051" lon="10.823563065058197"><ele>51.666666666666664</ele><time>2026-05-01T10:14:11.999Z</time></trkpt><trkpt lat="43.89016552421962" lon="10.823723875699098"><ele>54.0</ele><time>2026-05-01T10:14:12.999Z</time></trkpt><trkpt lat="43.89027199635911" lon="10.823902812678021"><ele>54.0</ele><time>2026-05-01T10:14:13.999Z</time></trkpt><trkpt lat="43.890366070366476" lon="10.824066500283367"><ele>54.0</ele><time>2026-05-01T10:14:14.999Z</time></trkpt><trkpt lat="43.89044962211243" lon="10.824212773053707"><ele>54.0</ele><time>2026-05-01T10:14:15.999Z</time></trkpt><trkpt lat="43.8905252229869" lon="10.824344856426675"><ele>54.0</ele><time>2026-05-01T10:14:16.999Z</time></trkpt><trkpt lat="43.890588426141136" lon="10.824454342620383"><ele>54.833333333333336</ele><time>2026-05-01T10:14:17.999Z</time></trkpt><trkpt lat="43.890644874215674" lon="10.824557548510542"><ele>55.66666666666667</ele><time>2026-05-01T10:14:18.999Z</time></trkpt><trkpt lat="43.8906924706165" lon="10.824663517702005"><ele>56.5</ele><time>2026-05-01T10:14:19.999Z</time></trkpt><trkpt lat="43.89073392929547" lon="10.824776113194918"><ele>57.333333333333336</ele><time>2026-05-01T10:14:20.999Z</time></trkpt><trkpt lat="43.89077336349373" lon="10.82488567177055"><ele>58.16666666666667</ele><time>2026-05-01T10:14:21.999Z</time></trkpt><trkpt lat="43.89081188194196" lon="10.824990937368725"><ele>59.0</ele><time>2026-05-01T10:14:22.999Z</time></trkpt><trkpt lat="43.89085088641537" lon="10.825092369617744"><ele>58.333333333333336</ele><time>2026-05-01T10:14:23.999Z</time></trkpt><trkpt lat="43.89088994523053" lon="10.825187589163244"><ele>57.66666666666667</ele><time>2026-05-01T10:14:24.999Z</time></trkpt><trkpt lat="43.89092401887968" lon="10.825267992518151"><ele>57.0</ele><time>2026-05-01T10:14:25.999Z</time></trkpt><trkpt lat="43.890957288135404" lon="10.825342731191586"><ele>56.33333333333333</ele><time>2026-05-01T10:14:26.999Z</time></trkpt><trkpt lat="43.89098949210999" lon="10.825418514567858"><ele>55.666666666666664</ele><time>2026-05-01T10:14:27.999Z</time></trkpt><trkpt lat="43.89104516654057" lon="10.825555655802368"><ele>55.0</ele><time>2026-05-01T10:14:29.998Z</time></trkpt><trkpt lat="43.89108948853389" lon="10.825645354645703"><ele>54.99999999999999</ele><time>2026-05-01T10:14:32Z</time></trkpt><trkpt lat="43.89112552519651" lon="10.82572417178612"><ele>55.0</ele><time>2026-05-01T10:17:19.999Z</time></trkpt><trkpt lat="43.891064939697614" lon="10.825792628093414"><ele>55.0</ele><time>2026-05-01T10:17:27.999Z</time></trkpt><trkpt lat="43.8910429951957" lon="10.825893057554689"><ele>55.0</ele><time>2026-05-01T10:17:33.999Z</time></trkpt><trkpt lat="43.890982437806606" lon="10.82584667318531"><ele>55.0</ele><time>2026-05-01T10:17:40.999Z</time></trkpt><trkpt lat="43.891054668704456" lon="10.825829524180259"><ele>54.99999999999999</ele><time>2026-05-01T10:17:50.999Z</time></trkpt><trkpt lat="43.89104130892308" lon="10.825930503041175"><ele>55.0</ele><time>2026-05-01T10:17:52.999Z</time></trkpt><trkpt lat="43.891008405310274" lon="10.826063519690809"><ele>55.4</ele><time>2026-05-01T10:17:55.999Z</time></trkpt><trkpt lat="43.89097639311577" lon="10.82620884671305"><ele>55.8</ele><time>2026-05-01T10:17:57.999Z</time></trkpt><trkpt lat="43.89100817432869" lon="10.826299246801291"><ele>56.2</ele><time>2026-05-01T10:17:59.999Z</time></trkpt><trkpt lat="43.89095715595639" lon="10.826452011991176"><ele>56.6</ele><time>2026-05-01T10:18:02.999Z</time></trkpt><trkpt lat="43.89094231656631" lon="10.826553597549962"><ele>57.0</ele><time>2026-05-01T10:18:04.999Z</time></trkpt><trkpt lat="43.8909552319092" lon="10.826343624080408"><ele>57.0</ele><time>2026-05-01T10:18:07.999Z</time></trkpt><trkpt lat="43.89100313669718" lon="10.826259585533721"><ele>57.0</ele><time>2026-05-01T10:18:10.999Z</time></trkpt><trkpt lat="43.89106355471562" lon="10.826145241225733"><ele>57.0</ele><time>2026-05-01T10:18:12.999Z</time></trkpt><trkpt lat="43.891006610114" lon="10.826225773021658"><ele>57.0</ele><time>2026-05-01T10:18:19.999Z</time></trkpt><trkpt lat="43.89096106659883" lon="10.826345942664098"><ele>57.0</ele><time>2026-05-01T10:18:21.999Z</time></trkpt><trkpt lat="43.89114399924271" lon="10.825830267959201"><ele>57.0</ele><time>2026-05-01T10:18:25.999Z</time></trkpt><trkpt lat="43.891223624804226" lon="10.825879558986648"><ele>57.0</ele><time>2026-05-01T10:29:33.999Z</time></trkpt><trkpt lat="43.89131030306018" lon="10.825913532817543"><ele>57.0</ele><time>2026-05-01T10:29:35.999Z</time></trkpt><trkpt lat="43.8914210410298" lon="10.825956743786938"><ele>57.0</ele><time>2026-05-01T10:29:37.999Z</time></trkpt><trkpt lat="43.891516092063995" lon="10.825990093164943"><ele>57.0</ele><time>2026-05-01T10:29:38.999Z</time></trkpt><trkpt lat="43.89160853320002" lon="10.826023740035856"><ele>57.0</ele><time>2026-05-01T10:29:39.999Z</time></trkpt><trkpt lat="43.89169061627198" lon="10.826060417466536"><ele>57.0</ele><time>2026-05-01T10:29:40.999Z</time></trkpt><trkpt lat="43.89178402606553" lon="10.826102427838888"><ele>57.0</ele><time>2026-05-01T10:29:41.999Z</time></trkpt><trkpt lat="43.89188156885005" lon="10.826144047231407"><ele>57.0</ele><time>2026-05-01T10:29:42.999Z</time></trkpt><trkpt lat="43.89198213207471" lon="10.826190958129148"><ele>57.0</ele><time>2026-05-01T10:29:43.999Z</time></trkpt><trkpt lat="43.892088599983936" lon="10.826243137473737"><ele>58.0</ele><time>2026-05-01T10:29:44.999Z</time></trkpt><trkpt lat="43.892199379322086" lon="10.826301309633509"><ele>59.0</ele><time>2026-05-01T10:29:45.999Z</time></trkpt><trkpt lat="43.8923095139718" lon="10.826358734824192"><ele>60.0</ele><time>2026-05-01T10:29:46.999Z</time></trkpt><trkpt lat="43.89242045993913" lon="10.82641266389637"><ele>61.0</ele><time>2026-05-01T10:29:47.999Z</time></trkpt><trkpt lat="43.892540363166546" lon="10.826463512513381"><ele>62.75</ele><time>2026-05-01T10:29:48.999Z</time></trkpt><trkpt lat="43.892674759254525" lon="10.826515749660036"><ele>64.5</ele><time>2026-05-01T10:29:49.999Z</time></trkpt><trkpt lat="43.892820881145866" lon="10.826561830281117"><ele>66.25</ele><time>2026-05-01T10:29:50.999Z</time></trkpt><trkpt lat="43.89296350808939" lon="10.826594877854065"><ele>68.0</ele><time>2026-05-01T10:29:51.999Z</time></trkpt><trkpt lat="43.89311926026817" lon="10.826619094168363"><ele>68.0</ele><time>2026-05-01T10:29:52.999Z</time></trkpt><trkpt lat="43.893286296214676" lon="10.826638463123302"><ele>68.0</ele><time>2026-05-01T10:29:53.999Z</time></trkpt><trkpt lat="43.89346059120731" lon="10.82665048931832"><ele>68.0</ele><time>2026-05-01T10:29:54.999Z</time></trkpt><trkpt lat="43.89363064509456" lon="10.826655031690823"><ele>69.33333333333334</ele><time>2026-05-01T10:29:55.999Z</time></trkpt><trkpt lat="43.893796264012614" lon="10.826666219640176"><ele>70.66666666666667</ele><time>2026-05-01T10:29:56.999Z</time></trkpt><trkpt lat="43.89395801918645" lon="10.826677433178569"><ele>72.0</ele><time>2026-05-01T10:29:57.999Z</time></trkpt><trkpt lat="43.89412005734074" lon="10.826686359736614"><ele>73.0</ele><time>2026-05-01T10:29:58.999Z</time></trkpt><trkpt lat="43.89428320781254" lon="10.826692640729666"><ele>74.0</ele><time>2026-05-01T10:29:59.999Z</time></trkpt><trkpt lat="43.89444890124158" lon="10.82669864598313"><ele>75.0</ele><time>2026-05-01T10:30:00.999Z</time></trkpt><trkpt lat="43.894618949374646" lon="10.826704821443574"><ele>75.0</ele><time>2026-05-01T10:30:01.999Z</time></trkpt><trkpt lat="43.894792240303836" lon="10.826715321011932"><ele>75.0</ele><time>2026-05-01T10:30:02.999Z</time></trkpt><trkpt lat="43.894972747430074" lon="10.826728973863421"><ele>75.0</ele><time>2026-05-01T10:30:03.999Z</time></trkpt><trkpt lat="43.895156184294265" lon="10.826747358281681"><ele>77.33333333333333</ele><time>2026-05-01T10:30:04.999Z</time></trkpt><trkpt lat="43.89534882102997" lon="10.826773155840472"><ele>79.66666666666666</ele><time>2026-05-01T10:30:05.999Z</time></trkpt><trkpt lat="43.89555080923433" lon="10.826802625723838"><ele>82.0</ele><time>2026-05-01T10:30:06.999Z</time></trkpt><trkpt lat="43.89577850843834" lon="10.826836583140114"><ele>88.5</ele><time>2026-05-01T10:30:07.999Z</time></trkpt><trkpt lat="43.89603766601494" lon="10.826888018538556"><ele>95.0</ele><time>2026-05-01T10:30:08.999Z</time></trkpt><trkpt lat="43.896317931579404" lon="10.826955190423384"><ele>95.0</ele><time>2026-05-01T10:30:09.999Z</time></trkpt><trkpt lat="43.896614638013254" lon="10.827032712308215"><ele>95.0</ele><time>2026-05-01T10:30:10.999Z</time></trkpt><trkpt lat="43.896915716105966" lon="10.827109719311041"><ele>99.5</ele><time>2026-05-01T10:30:11.999Z</time></trkpt><trkpt lat="43.89722014605832" lon="10.827181784031271"><ele>104.0</ele><time>2026-05-01T10:30:12.999Z</time></trkpt><trkpt lat="43.897527729540634" lon="10.827254483915901"><ele>101.0</ele><time>2026-05-01T10:30:13.999Z</time></trkpt><trkpt lat="43.89783707969168" lon="10.827329620013312"><ele>98.0</ele><time>2026-05-01T10:30:14.999Z</time></trkpt><trkpt lat="43.89814580267114" lon="10.82740344416112"><ele>100.0</ele><time>2026-05-01T10:30:15.999Z</time></trkpt><trkpt lat="43.898441480767765" lon="10.827471291582379"><ele>102.0</ele><time>2026-05-01T10:30:16.999Z</time></trkpt><trkpt lat="43.89873618022758" lon="10.827541323390468"><ele>102.0</ele><time>2026-05-01T10:30:17.999Z</time></trkpt><trkpt lat="43.8990310557294" lon="10.82761227555099"><ele>102.0</ele><time>2026-05-01T10:30:18.999Z</time></trkpt><trkpt lat="43.899325184936416" lon="10.82768624267553"><ele>110.5</ele><time>2026-05-01T10:30:19.999Z</time></trkpt><trkpt lat="43.8996203704519" lon="10.827767926067477"><ele>119.0</ele><time>2026-05-01T10:30:20.999Z</time></trkpt><trkpt lat="43.89991623220971" lon="10.827860552847401"><ele>118.0</ele><time>2026-05-01T10:30:21.999Z</time></trkpt><trkpt lat="43.90020858930436" lon="10.82798123001627"><ele>117.0</ele><time>2026-05-01T10:30:22.999Z</time></trkpt><trkpt lat="43.90048900324973" lon="10.828140784372525"><ele>117.0</ele><time>2026-05-01T10:30:23.999Z</time></trkpt><trkpt lat="43.90075608766077" lon="10.828333443525082"><ele>117.0</ele><time>2026-05-01T10:30:24.999Z</time></trkpt><trkpt lat="43.90101686977439" lon="10.82855084539324"><ele>116.0</ele><time>2026-05-01T10:30:25.999Z</time></trkpt><trkpt lat="43.90126817350801" lon="10.82879269909952"><ele>115.0</ele><time>2026-05-01T10:30:26.999Z</time></trkpt><trkpt lat="43.901513119330026" lon="10.829059894097997"><ele>112.0</ele><time>2026-05-01T10:30:27.999Z</time></trkpt><trkpt lat="43.9017374602064" lon="10.829358771587776"><ele>109.0</ele><time>2026-05-01T10:30:28.999Z</time></trkpt><trkpt lat="43.90192766845393" lon="10.829693994449627"><ele>109.0</ele><time>2026-05-01T10:30:29.999Z</time></trkpt><trkpt lat="43.902093909384035" lon="10.830051231486172"><ele>109.0</ele><time>2026-05-01T10:30:30.999Z</time></trkpt><trkpt lat="43.90225180550016" lon="10.83041962921535"><ele>109.5</ele><time>2026-05-01T10:30:31.999Z</time></trkpt><trkpt lat="43.90241430512729" lon="10.830790085646862"><ele>110.0</ele><time>2026-05-01T10:30:32.999Z</time></trkpt><trkpt lat="43.902576872646094" lon="10.831145022822062"><ele>113.5</ele><time>2026-05-01T10:30:33.999Z</time></trkpt><trkpt lat="43.90273808373784" lon="10.83149609917736"><ele>117.0</ele><time>2026-05-01T10:30:34.999Z</time></trkpt><trkpt lat="43.90289881477671" lon="10.8318469733403"><ele>118.5</ele><time>2026-05-01T10:30:35.999Z</time></trkpt><trkpt lat="43.90306269054415" lon="10.832206597401914"><ele>120.0</ele><time>2026-05-01T10:30:36.999Z</time></trkpt><trkpt lat="43.9032298235072" lon="10.83257240263082"><ele>123.0</ele><time>2026-05-01T10:30:37.999Z</time></trkpt><trkpt lat="43.90339286484104" lon="10.832941748999115"><ele>126.0</ele><time>2026-05-01T10:30:38.999Z</time></trkpt><trkpt lat="43.9035569093033" lon="10.833311971925852"><ele>131.5</ele><time>2026-05-01T10:30:39.999Z</time></trkpt><trkpt lat="43.903727027468186" lon="10.833686907404928"><ele>137.0</ele><time>2026-05-01T10:30:40.999Z</time></trkpt><trkpt lat="43.90389150719209" lon="10.834051722014465"><ele>137.0</ele><time>2026-05-01T10:30:41.998Z</time></trkpt><trkpt lat="43.904048845350395" lon="10.834400370496457"><ele>137.0</ele><time>2026-05-01T10:30:42.998Z</time></trkpt><trkpt lat="43.90421094825692" lon="10.834762196817639"><ele>137.0</ele><time>2026-05-01T10:30:43.998Z</time></trkpt><trkpt lat="43.904374921689765" lon="10.835128133482515"><ele>137.0</ele><time>2026-05-01T10:30:44.998Z</time></trkpt><trkpt lat="43.904543627199324" lon="10.835500539830965"><ele>137.0</ele><time>2026-05-01T10:30:45.998Z</time></trkpt><trkpt lat="43.90471593401375" lon="10.83587389303743"><ele>137.0</ele><time>2026-05-01T10:30:46.998Z</time></trkpt><trkpt lat="43.904902677065934" lon="10.836276389206438"><ele>132.5</ele><time>2026-05-01T10:30:48.067Z</time></trkpt><trkpt lat="43.905077385411786" lon="10.836654556468172"><ele>128.0</ele><time>2026-05-01T10:30:49.063Z</time></trkpt><trkpt lat="43.90542262414005" lon="10.837361480505757"><ele>117.0</ele><time>2026-05-01T10:30:50.998Z</time></trkpt><trkpt lat="43.9055782414513" lon="10.837823096732686"><ele>106.0</ele><time>2026-05-01T10:30:51.998Z</time></trkpt><trkpt lat="43.90574087080872" lon="10.838199365177266"><ele>106.0</ele><time>2026-05-01T10:30:52.998Z</time></trkpt><trkpt lat="43.90590558977972" lon="10.838563109796565"><ele>106.0</ele><time>2026-05-01T10:30:53.998Z</time></trkpt><trkpt lat="43.90606769615908" lon="10.838925137116957"><ele>102.0</ele><time>2026-05-01T10:30:54.998Z</time></trkpt><trkpt lat="43.90622737313255" lon="10.839285450885999"><ele>98.0</ele><time>2026-05-01T10:30:55.998Z</time></trkpt><trkpt lat="43.906374898329815" lon="10.83964968344111"><ele>98.0</ele><time>2026-05-01T10:30:56.998Z</time></trkpt><trkpt lat="43.90651521623628" lon="10.840013962806884"><ele>98.0</ele><time>2026-05-01T10:30:57.998Z</time></trkpt><trkpt lat="43.906649416169486" lon="10.84038340875161"><ele>92.5</ele><time>2026-05-01T10:30:58.998Z</time></trkpt><trkpt lat="43.90677063336959" lon="10.840763116002675"><ele>87.0</ele><time>2026-05-01T10:30:59.998Z</time></trkpt><trkpt lat="43.90687322122455" lon="10.841154046497133"><ele>86.5</ele><time>2026-05-01T10:31:00.998Z</time></trkpt><trkpt lat="43.90695623777423" lon="10.841556450745355"><ele>86.0</ele><time>2026-05-01T10:31:01.998Z</time></trkpt><trkpt lat="43.90702135197454" lon="10.841966388260891"><ele>85.0</ele><time>2026-05-01T10:31:02.998Z</time></trkpt><trkpt lat="43.9070707204839" lon="10.842379973103355"><ele>84.0</ele><time>2026-05-01T10:31:03.998Z</time></trkpt><trkpt lat="43.90710415496599" lon="10.84279795514999"><ele>83.5</ele><time>2026-05-01T10:31:04.998Z</time></trkpt><trkpt lat="43.90712582792463" lon="10.843218414473961"><ele>83.0</ele><time>2026-05-01T10:31:05.998Z</time></trkpt><trkpt lat="43.90713237506685" lon="10.843643372361674"><ele>83.0</ele><time>2026-05-01T10:31:06.998Z</time></trkpt><trkpt lat="43.90712629586267" lon="10.84406943603883"><ele>83.0</ele><time>2026-05-01T10:31:07.998Z</time></trkpt><trkpt lat="43.907111466338904" lon="10.844494907118952"><ele>83.5</ele><time>2026-05-01T10:31:08.998Z</time></trkpt><trkpt lat="43.9070943210104" lon="10.844920547688693"><ele>84.0</ele><time>2026-05-01T10:31:09.998Z</time></trkpt><trkpt lat="43.907076645109136" lon="10.845343960341026"><ele>84.0</ele><time>2026-05-01T10:31:10.998Z</time></trkpt><trkpt lat="43.90705408959461" lon="10.845772672501086"><ele>84.0</ele><time>2026-05-01T10:31:11.998Z</time></trkpt><trkpt lat="43.90703034422947" lon="10.846211521497976"><ele>85.0</ele><time>2026-05-01T10:31:12.998Z</time></trkpt><trkpt lat="43.90700961381026" lon="10.846651887512264"><ele>86.0</ele><time>2026-05-01T10:31:13.998Z</time></trkpt><trkpt lat="43.90698619606159" lon="10.847093222682277"><ele>86.0</ele><time>2026-05-01T10:31:14.998Z</time></trkpt><trkpt lat="43.90696276869678" lon="10.847528451882573"><ele>86.0</ele><time>2026-05-01T10:31:15.999Z</time></trkpt><trkpt lat="43.90694136107759" lon="10.847958561910714"><ele>86.5</ele><time>2026-05-01T10:31:16.999Z</time></trkpt><trkpt lat="43.906920492742096" lon="10.848389881834967"><ele>87.0</ele><time>2026-05-01T10:31:17.999Z</time></trkpt><trkpt lat="43.90690052231254" lon="10.848818034945605"><ele>87.0</ele><time>2026-05-01T10:31:18.999Z</time></trkpt><trkpt lat="43.90688453144402" lon="10.849244294615154"><ele>87.0</ele><time>2026-05-01T10:31:19.999Z</time></trkpt><trkpt lat="43.90687599166708" lon="10.849673382596084"><ele>84.0</ele><time>2026-05-01T10:31:20.999Z</time></trkpt><trkpt lat="43.90687972920586" lon="10.850105662868836"><ele>81.0</ele><time>2026-05-01T10:31:21.999Z</time></trkpt><trkpt lat="43.90689930588023" lon="10.85053978344173"><ele>80.5</ele><time>2026-05-01T10:31:22.999Z</time></trkpt><trkpt lat="43.90693258909741" lon="10.850974271852971"><ele>80.0</ele><time>2026-05-01T10:31:23.999Z</time></trkpt><trkpt lat="43.90697338321276" lon="10.85140695238268"><ele>80.0</ele><time>2026-05-01T10:31:24.999Z</time></trkpt><trkpt lat="43.907027531409774" lon="10.851840998379297"><ele>80.0</ele><time>2026-05-01T10:31:25.999Z</time></trkpt><trkpt lat="43.90709875631757" lon="10.852266957916267"><ele>84.0</ele><time>2026-05-01T10:31:26.999Z</time></trkpt><trkpt lat="43.907183158838514" lon="10.85269035290748"><ele>88.0</ele><time>2026-05-01T10:31:27.999Z</time></trkpt><trkpt lat="43.907277632884856" lon="10.853105007752946"><ele>93.0</ele><time>2026-05-01T10:31:28.999Z</time></trkpt><trkpt lat="43.907385931604594" lon="10.853513472112018"><ele>98.0</ele><time>2026-05-01T10:31:29.999Z</time></trkpt><trkpt lat="43.907506338813626" lon="10.853914147429627"><ele>92.0</ele><time>2026-05-01T10:31:30.999Z</time></trkpt><trkpt lat="43.90763386809112" lon="10.854298924983446"><ele>86.0</ele><time>2026-05-01T10:31:31.999Z</time></trkpt><trkpt lat="43.907773340102544" lon="10.85467602368512"><ele>86.0</ele><time>2026-05-01T10:31:33Z</time></trkpt><trkpt lat="43.90792664454189" lon="10.855038334490265"><ele>86.0</ele><time>2026-05-01T10:31:34Z</time></trkpt><trkpt lat="43.90809326717663" lon="10.855396560191277"><ele>83.0</ele><time>2026-05-01T10:31:35Z</time></trkpt><trkpt lat="43.908268068961014" lon="10.855753194675065"><ele>80.0</ele><time>2026-05-01T10:31:36Z</time></trkpt><trkpt lat="43.908449248369806" lon="10.856107788614333"><ele>76.5</ele><time>2026-05-01T10:31:37Z</time></trkpt><trkpt lat="43.908631033126206" lon="10.856461823038758"><ele>73.0</ele><time>2026-05-01T10:31:38Z</time></trkpt><trkpt lat="43.90881430588856" lon="10.856817658662528"><ele>73.0</ele><time>2026-05-01T10:31:39Z</time></trkpt><trkpt lat="43.90899502304007" lon="10.857172599965281"><ele>73.0</ele><time>2026-05-01T10:31:40Z</time></trkpt><trkpt lat="43.9091768239208" lon="10.857530026747536"><ele>74.5</ele><time>2026-05-01T10:31:41Z</time></trkpt><trkpt lat="43.90935836746393" lon="10.857889472971221"><ele>76.0</ele><time>2026-05-01T10:31:42Z</time></trkpt><trkpt lat="43.909540478861295" lon="10.858247942355211"><ele>77.5</ele><time>2026-05-01T10:31:43Z</time></trkpt><trkpt lat="43.9097244416792" lon="10.858603913365524"><ele>79.0</ele><time>2026-05-01T10:31:44Z</time></trkpt><trkpt lat="43.9099072799427" lon="10.858958432863876"><ele>74.5</ele><time>2026-05-01T10:31:45Z</time></trkpt><trkpt lat="43.910087691378" lon="10.859312180881291"><ele>70.0</ele><time>2026-05-01T10:31:46Z</time></trkpt><trkpt lat="43.9102613743736" lon="10.859667619626155"><ele>70.0</ele><time>2026-05-01T10:31:47Z</time></trkpt><trkpt lat="43.91042584954579" lon="10.860027912415346"><ele>70.0</ele><time>2026-05-01T10:31:48Z</time></trkpt><trkpt lat="43.91057881151556" lon="10.860399638117704"><ele>70.0</ele><time>2026-05-01T10:31:49Z</time></trkpt><trkpt lat="43.91071701160959" lon="10.86078250195374"><ele>70.0</ele><time>2026-05-01T10:31:50Z</time></trkpt><trkpt lat="43.910841117422756" lon="10.861174221595649"><ele>70.0</ele><time>2026-05-01T10:31:51Z</time></trkpt><trkpt lat="43.91095216698349" lon="10.861574048234743"><ele>70.0</ele><time>2026-05-01T10:31:52Z</time></trkpt><trkpt lat="43.91105013940758" lon="10.861980506935698"><ele>69.5</ele><time>2026-05-01T10:31:53Z</time></trkpt><trkpt lat="43.91113339760811" lon="10.862394326094044"><ele>69.0</ele><time>2026-05-01T10:31:54Z</time></trkpt><trkpt lat="43.911195832852414" lon="10.862806249056812"><ele>68.5</ele><time>2026-05-01T10:31:55Z</time></trkpt><trkpt lat="43.911242211076605" lon="10.863215406389758"><ele>68.0</ele><time>2026-05-01T10:31:56Z</time></trkpt><trkpt lat="43.91127761795438" lon="10.86362226028063"><ele>68.0</ele><time>2026-05-01T10:31:57Z</time></trkpt><trkpt lat="43.91131177849249" lon="10.86402317679586"><ele>68.0</ele><time>2026-05-01T10:31:58Z</time></trkpt><trkpt lat="43.91134997393305" lon="10.864424751676175"><ele>66.0</ele><time>2026-05-01T10:31:59Z</time></trkpt><trkpt lat="43.9113891511479" lon="10.864831254020348"><ele>64.0</ele><time>2026-05-01T10:32:00Z</time></trkpt><trkpt lat="43.911426506988136" lon="10.865238063894184"><ele>64.0</ele><time>2026-05-01T10:32:01Z</time></trkpt><trkpt lat="43.91146253425181" lon="10.865645280507252"><ele>64.0</ele><time>2026-05-01T10:32:02Z</time></trkpt><trkpt lat="43.911498879944446" lon="10.866053522507968"><ele>64.0</ele><time>2026-05-01T10:32:03Z</time></trkpt><trkpt lat="43.91153420882785" lon="10.866469908590316"><ele>64.0</ele><time>2026-05-01T10:32:04Z</time></trkpt><trkpt lat="43.91156893386675" lon="10.866889214273602"><ele>64.0</ele><time>2026-05-01T10:32:05Z</time></trkpt><trkpt lat="43.91160288271026" lon="10.867311774603264"><ele>64.0</ele><time>2026-05-01T10:32:06Z</time></trkpt><trkpt lat="43.91163652586179" lon="10.867736884938378"><ele>64.0</ele><time>2026-05-01T10:32:07Z</time></trkpt><trkpt lat="43.91166996864282" lon="10.868166520850021"><ele>64.0</ele><time>2026-05-01T10:32:08Z</time></trkpt><trkpt lat="43.911703333542896" lon="10.868594039739705"><ele>64.0</ele><time>2026-05-01T10:32:09Z</time></trkpt><trkpt lat="43.911737278150035" lon="10.869019772085938"><ele>64.0</ele><time>2026-05-01T10:32:10Z</time></trkpt><trkpt lat="43.911772369724964" lon="10.869442960109472"><ele>62.5</ele><time>2026-05-01T10:32:11Z</time></trkpt><trkpt lat="43.91180651134334" lon="10.869866959087682"><ele>61.0</ele><time>2026-05-01T10:32:12Z</time></trkpt><trkpt lat="43.91184145896833" lon="10.870286584088202"><ele>61.0</ele><time>2026-05-01T10:32:13Z</time></trkpt><trkpt lat="43.91187576252743" lon="10.87070491885161"><ele>61.0</ele><time>2026-05-01T10:32:14Z</time></trkpt><trkpt lat="43.911911782770915" lon="10.871123564517456"><ele>62.0</ele><time>2026-05-01T10:32:15Z</time></trkpt><trkpt lat="43.911946938869754" lon="10.871543175410421"><ele>63.0</ele><time>2026-05-01T10:32:16Z</time></trkpt><trkpt lat="43.91198163104046" lon="10.871966542640232"><ele>63.0</ele><time>2026-05-01T10:32:17Z</time></trkpt><trkpt lat="43.91201517517797" lon="10.872389432353728"><ele>63.0</ele><time>2026-05-01T10:32:18Z</time></trkpt><trkpt lat="43.91204762677357" lon="10.872808882357011"><ele>63.5</ele><time>2026-05-01T10:32:19Z</time></trkpt><trkpt lat="43.9120797936707" lon="10.873225818313976"><ele>64.0</ele><time>2026-05-01T10:32:20Z</time></trkpt><trkpt lat="43.91211254484531" lon="10.8736431459472"><ele>63.0</ele><time>2026-05-01T10:32:21Z</time></trkpt><trkpt lat="43.91214656662778" lon="10.87405913617417"><ele>62.0</ele><time>2026-05-01T10:32:22Z</time></trkpt><trkpt lat="43.91218225418994" lon="10.874478052621443"><ele>61.5</ele><time>2026-05-01T10:32:23Z</time></trkpt><trkpt lat="43.91221612432155" lon="10.874895582827817"><ele>61.0</ele><time>2026-05-01T10:32:24Z</time></trkpt><trkpt lat="43.91225079315372" lon="10.875310362693753"><ele>61.0</ele><time>2026-05-01T10:32:25Z</time></trkpt><trkpt lat="43.91228420274887" lon="10.875719555384554"><ele>61.0</ele><time>2026-05-01T10:32:26Z</time></trkpt><trkpt lat="43.9123184641659" lon="10.87612581408695"><ele>61.0</ele><time>2026-05-01T10:32:27Z</time></trkpt><trkpt lat="43.912352943926955" lon="10.876532130449654"><ele>61.0</ele><time>2026-05-01T10:32:28Z</time></trkpt><trkpt lat="43.91238754280588" lon="10.876942791018848"><ele>61.0</ele><time>2026-05-01T10:32:29Z</time></trkpt><trkpt lat="43.912422025398115" lon="10.877353342478063"><ele>61.0</ele><time>2026-05-01T10:32:30Z</time></trkpt><trkpt lat="43.9124568684433" lon="10.877763126343554"><ele>61.0</ele><time>2026-05-01T10:32:31Z</time></trkpt><trkpt lat="43.91248846688428" lon="10.878164991076625"><ele>61.0</ele><time>2026-05-01T10:32:32Z</time></trkpt><trkpt lat="43.91251885739287" lon="10.878565732735282"><ele>61.0</ele><time>2026-05-01T10:32:33Z</time></trkpt><trkpt lat="43.91255245325935" lon="10.878964212378182"><ele>61.0</ele><time>2026-05-01T10:32:34Z</time></trkpt><trkpt lat="43.91258706370074" lon="10.879367790150939"><ele>61.5</ele><time>2026-05-01T10:32:35Z</time></trkpt><trkpt lat="43.912620109405445" lon="10.879778598544553"><ele>62.0</ele><time>2026-05-01T10:32:36Z</time></trkpt><trkpt lat="43.912652713318955" lon="10.880191004308609"><ele>62.0</ele><time>2026-05-01T10:32:37Z</time></trkpt><trkpt lat="43.91268632903879" lon="10.880611427622428"><ele>62.0</ele><time>2026-05-01T10:32:38Z</time></trkpt><trkpt lat="43.91271781714448" lon="10.881038778920155"><ele>61.0</ele><time>2026-05-01T10:32:39Z</time></trkpt><trkpt lat="43.912747142057846" lon="10.881459436880887"><ele>60.0</ele><time>2026-05-01T10:32:40Z</time></trkpt><trkpt lat="43.9127683378166" lon="10.88190248654524"><ele>59.0</ele><time>2026-05-01T10:32:41Z</time></trkpt><trkpt lat="43.912788836061075" lon="10.882359947716061"><ele>58.0</ele><time>2026-05-01T10:32:42Z</time></trkpt><trkpt lat="43.912824657167086" lon="10.882836941712503"><ele>58.0</ele><time>2026-05-01T10:32:43Z</time></trkpt><trkpt lat="43.91288119446738" lon="10.88332562780949"><ele>58.0</ele><time>2026-05-01T10:32:44Z</time></trkpt><trkpt lat="43.91293869587706" lon="10.88382080217936"><ele>58.0</ele><time>2026-05-01T10:32:45Z</time></trkpt><trkpt lat="43.91298397504193" lon="10.884308721057474"><ele>58.0</ele><time>2026-05-01T10:32:46Z</time></trkpt><trkpt lat="43.91302428586796" lon="10.884789965167851"><ele>57.5</ele><time>2026-05-01T10:32:47Z</time></trkpt><trkpt lat="43.91306198357536" lon="10.885263055070137"><ele>57.0</ele><time>2026-05-01T10:32:48Z</time></trkpt><trkpt lat="43.91310025340833" lon="10.885718285121479"><ele>57.5</ele><time>2026-05-01T10:32:49Z</time></trkpt><trkpt lat="43.91313796447896" lon="10.886160699658518"><ele>58.0</ele><time>2026-05-01T10:32:50Z</time></trkpt><trkpt lat="43.913173138292805" lon="10.886589073470313"><ele>58.0</ele><time>2026-05-01T10:32:51Z</time></trkpt><trkpt lat="43.91320850866476" lon="10.887008681800777"><ele>58.0</ele><time>2026-05-01T10:32:52Z</time></trkpt><trkpt lat="43.913243490776054" lon="10.887422113163787"><ele>58.0</ele><time>2026-05-01T10:32:53Z</time></trkpt><trkpt lat="43.91327529585154" lon="10.887830197449027"><ele>58.0</ele><time>2026-05-01T10:32:54Z</time></trkpt><trkpt lat="43.91330746383843" lon="10.888228974460324"><ele>58.5</ele><time>2026-05-01T10:32:54.999Z</time></trkpt><trkpt lat="43.913340467606105" lon="10.888618678797398"><ele>59.0</ele><time>2026-05-01T10:32:55.999Z</time></trkpt><trkpt lat="43.91337161591977" lon="10.889005278291995"><ele>59.0</ele><time>2026-05-01T10:32:56.999Z</time></trkpt><trkpt lat="43.91340135819038" lon="10.889388965436849"><ele>59.0</ele><time>2026-05-01T10:32:57.999Z</time></trkpt><trkpt lat="43.913432875554314" lon="10.889774758335484"><ele>59.0</ele><time>2026-05-01T10:32:58.999Z</time></trkpt><trkpt lat="43.913464753466414" lon="10.890161631268626"><ele>59.0</ele><time>2026-05-01T10:32:59.999Z</time></trkpt><trkpt lat="43.91349627670862" lon="10.89055348484902"><ele>59.0</ele><time>2026-05-01T10:33:00.999Z</time></trkpt><trkpt lat="43.91352875714643" lon="10.890953955536109"><ele>59.0</ele><time>2026-05-01T10:33:01.999Z</time></trkpt><trkpt lat="43.91356073548633" lon="10.891364588229823"><ele>59.0</ele><time>2026-05-01T10:33:02.999Z</time></trkpt><trkpt lat="43.91359435715133" lon="10.891781782924534"><ele>59.0</ele><time>2026-05-01T10:33:03.999Z</time></trkpt><trkpt lat="43.91362996167652" lon="10.89220294024671"><ele>58.5</ele><time>2026-05-01T10:33:04.999Z</time></trkpt><trkpt lat="43.91366543976168" lon="10.892628283829744"><ele>58.0</ele><time>2026-05-01T10:33:05.999Z</time></trkpt><trkpt lat="43.91370064491888" lon="10.893059775035582"><ele>58.0</ele><time>2026-05-01T10:33:06.999Z</time></trkpt><trkpt lat="43.91373605147936" lon="10.893495111268365"><ele>58.0</ele><time>2026-05-01T10:33:07.999Z</time></trkpt><trkpt lat="43.91377099330295" lon="10.893932383458516"><ele>58.0</ele><time>2026-05-01T10:33:08.999Z</time></trkpt><trkpt lat="43.91380707375648" lon="10.894373086614664"><ele>58.0</ele><time>2026-05-01T10:33:09.999Z</time></trkpt><trkpt lat="43.91384529258298" lon="10.894815501180487"><ele>58.0</ele><time>2026-05-01T10:33:10.999Z</time></trkpt><trkpt lat="43.91388248571541" lon="10.895254167630736"><ele>58.0</ele><time>2026-05-01T10:33:11.999Z</time></trkpt><trkpt lat="43.913918373059666" lon="10.89569291342671"><ele>58.0</ele><time>2026-05-01T10:33:12.999Z</time></trkpt><trkpt lat="43.91395285759668" lon="10.89612928858569"><ele>58.0</ele><time>2026-05-01T10:33:13.999Z</time></trkpt><trkpt lat="43.91398856163641" lon="10.8965660259187"><ele>58.0</ele><time>2026-05-01T10:33:14.999Z</time></trkpt><trkpt lat="43.9140246747387" lon="10.896999459156373"><ele>58.0</ele><time>2026-05-01T10:33:15.999Z</time></trkpt><trkpt lat="43.91405941492653" lon="10.897434205561996"><ele>58.0</ele><time>2026-05-01T10:33:16.999Z</time></trkpt><trkpt lat="43.914093566458085" lon="10.897871547336054"><ele>58.0</ele><time>2026-05-01T10:33:17.999Z</time></trkpt><trkpt lat="43.91412891562765" lon="10.898312330238598"><ele>57.5</ele><time>2026-05-01T10:33:18.999Z</time></trkpt><trkpt lat="43.91416605614477" lon="10.898756023353457"><ele>57.0</ele><time>2026-05-01T10:33:19.999Z</time></trkpt><trkpt lat="43.91420333011976" lon="10.899201888552124"><ele>58.0</ele><time>2026-05-01T10:33:20.999Z</time></trkpt><trkpt lat="43.914238767503946" lon="10.899645103120116"><ele>59.0</ele><time>2026-05-01T10:33:22.001Z</time></trkpt><trkpt lat="43.91427223121514" lon="10.900085172358999"><ele>60.0</ele><time>2026-05-01T10:33:23.001Z</time></trkpt><trkpt lat="43.91430723428862" lon="10.90052185824658"><ele>61.0</ele><time>2026-05-01T10:33:24.001Z</time></trkpt><trkpt lat="43.914343632841025" lon="10.900957327576487"><ele>61.0</ele><time>2026-05-01T10:33:25.001Z</time></trkpt><trkpt lat="43.91437885301559" lon="10.901391434973373"><ele>61.0</ele><time>2026-05-01T10:33:26.001Z</time></trkpt><trkpt lat="43.914413674464555" lon="10.901827564596049"><ele>60.0</ele><time>2026-05-01T10:33:27.001Z</time></trkpt><trkpt lat="43.914447944681555" lon="10.902267535919117"><ele>59.0</ele><time>2026-05-01T10:33:28.001Z</time></trkpt><trkpt lat="43.91448460626694" lon="10.902707791767826"><ele>59.0</ele><time>2026-05-01T10:33:29.001Z</time></trkpt><trkpt lat="43.9145212483844" lon="10.90314720638373"><ele>59.0</ele><time>2026-05-01T10:33:30.001Z</time></trkpt><trkpt lat="43.91455765540497" lon="10.903587283723736"><ele>59.0</ele><time>2026-05-01T10:33:31.001Z</time></trkpt><trkpt lat="43.9145945475346" lon="10.904023793773373"><ele>59.0</ele><time>2026-05-01T10:33:32.001Z</time></trkpt><trkpt lat="43.91463057251173" lon="10.904459997937751"><ele>59.0</ele><time>2026-05-01T10:33:33.001Z</time></trkpt><trkpt lat="43.91466811248646" lon="10.904902238597161"><ele>59.0</ele><time>2026-05-01T10:33:34.001Z</time></trkpt><trkpt lat="43.914703358903736" lon="10.905347467304075"><ele>59.0</ele><time>2026-05-01T10:33:35.001Z</time></trkpt><trkpt lat="43.914736669486096" lon="10.905787026397974"><ele>59.0</ele><time>2026-05-01T10:33:36.001Z</time></trkpt><trkpt lat="43.91477032013019" lon="10.906221649524323"><ele>59.5</ele><time>2026-05-01T10:33:37.001Z</time></trkpt><trkpt lat="43.91480419572716" lon="10.906649532344852"><ele>60.0</ele><time>2026-05-01T10:33:38.001Z</time></trkpt><trkpt lat="43.91483657164946" lon="10.907073637420071"><ele>59.0</ele><time>2026-05-01T10:33:39.001Z</time></trkpt><trkpt lat="43.91486404503869" lon="10.907496151347507"><ele>58.0</ele><time>2026-05-01T10:33:40.001Z</time></trkpt><trkpt lat="43.914884065436624" lon="10.907918034721709"><ele>57.5</ele><time>2026-05-01T10:33:41.001Z</time></trkpt><trkpt lat="43.9148957833639" lon="10.908337871611105"><ele>57.0</ele><time>2026-05-01T10:33:42Z</time></trkpt><trkpt lat="43.91490082924517" lon="10.90875944055959"><ele>56.0</ele><time>2026-05-01T10:33:43Z</time></trkpt><trkpt lat="43.91490056275161" lon="10.909180584195047"><ele>55.0</ele><time>2026-05-01T10:33:44Z</time></trkpt><trkpt lat="43.91489520740469" lon="10.90960635427317"><ele>55.0</ele><time>2026-05-01T10:33:45Z</time></trkpt><trkpt lat="43.91488127101454" lon="10.910041100373704"><ele>55.0</ele><time>2026-05-01T10:33:46Z</time></trkpt><trkpt lat="43.914858921732844" lon="10.910479341702949"><ele>57.0</ele><time>2026-05-01T10:33:47Z</time></trkpt><trkpt lat="43.91483055919932" lon="10.910918537348477"><ele>59.0</ele><time>2026-05-01T10:33:48Z</time></trkpt><trkpt lat="43.91479294774996" lon="10.911356562296568"><ele>57.5</ele><time>2026-05-01T10:33:49Z</time></trkpt><trkpt lat="43.91474683549812" lon="10.911795535767492"><ele>56.0</ele><time>2026-05-01T10:33:50Z</time></trkpt><trkpt lat="43.91469373286814" lon="10.912229888533812"><ele>56.0</ele><time>2026-05-01T10:33:51Z</time></trkpt><trkpt lat="43.91463870669054" lon="10.912660527441048"><ele>56.0</ele><time>2026-05-01T10:33:52Z</time></trkpt><trkpt lat="43.91458368251776" lon="10.91308847095702"><ele>54.5</ele><time>2026-05-01T10:33:53Z</time></trkpt><trkpt lat="43.91452718498551" lon="10.913517642776867"><ele>53.0</ele><time>2026-05-01T10:33:54Z</time></trkpt><trkpt lat="43.91447057417727" lon="10.91394996903708"><ele>53.0</ele><time>2026-05-01T10:33:55Z</time></trkpt><trkpt lat="43.91441587216483" lon="10.91438390102462"><ele>53.0</ele><time>2026-05-01T10:33:56Z</time></trkpt><trkpt lat="43.914361770567936" lon="10.914818328572656"><ele>53.5</ele><time>2026-05-01T10:33:57Z</time></trkpt><trkpt lat="43.91430759003668" lon="10.915254619700708"><ele>54.0</ele><time>2026-05-01T10:33:58Z</time></trkpt><trkpt lat="43.91424887753712" lon="10.915692628079956"><ele>54.5</ele><time>2026-05-01T10:33:59Z</time></trkpt><trkpt lat="43.91418627246829" lon="10.916125398394568"><ele>55.0</ele><time>2026-05-01T10:34:00Z</time></trkpt><trkpt lat="43.91412203827258" lon="10.916559414210452"><ele>55.0</ele><time>2026-05-01T10:34:01Z</time></trkpt><trkpt lat="43.9140606310313" lon="10.916993590790726"><ele>55.0</ele><time>2026-05-01T10:34:02Z</time></trkpt><trkpt lat="43.91400166933829" lon="10.917434624036973"><ele>54.5</ele><time>2026-05-01T10:34:03Z</time></trkpt><trkpt lat="43.91394343591038" lon="10.91787736379074"><ele>54.0</ele><time>2026-05-01T10:34:04Z</time></trkpt><trkpt lat="43.91388495342111" lon="10.918322854822927"><ele>53.0</ele><time>2026-05-01T10:34:05Z</time></trkpt><trkpt lat="43.913826671238965" lon="10.918761166426687"><ele>52.0</ele><time>2026-05-01T10:34:06Z</time></trkpt><trkpt lat="43.91376980107832" lon="10.919194682973265"><ele>52.0</ele><time>2026-05-01T10:34:07Z</time></trkpt><trkpt lat="43.91371389392172" lon="10.91963055481229"><ele>52.0</ele><time>2026-05-01T10:34:08Z</time></trkpt><trkpt lat="43.913658105888" lon="10.920066185911017"><ele>52.5</ele><time>2026-05-01T10:34:09Z</time></trkpt><trkpt lat="43.91360213100932" lon="10.920503125987159"><ele>53.0</ele><time>2026-05-01T10:34:10Z</time></trkpt><trkpt lat="43.9135476546633" lon="10.920940495454046"><ele>53.0</ele><time>2026-05-01T10:34:11Z</time></trkpt><trkpt lat="43.913492449818456" lon="10.921380005742442"><ele>53.0</ele><time>2026-05-01T10:34:12Z</time></trkpt><trkpt lat="43.91343520057299" lon="10.921818634997459"><ele>52.0</ele><time>2026-05-01T10:34:13Z</time></trkpt><trkpt lat="43.91337756591186" lon="10.922253549832309"><ele>51.0</ele><time>2026-05-01T10:34:14Z</time></trkpt><trkpt lat="43.913320980543965" lon="10.922687458874567"><ele>51.0</ele><time>2026-05-01T10:34:15Z</time></trkpt><trkpt lat="43.913265747942006" lon="10.92312238212575"><ele>51.0</ele><time>2026-05-01T10:34:16Z</time></trkpt><trkpt lat="43.913212162377675" lon="10.923556856254436"><ele>51.0</ele><time>2026-05-01T10:34:17Z</time></trkpt><trkpt lat="43.91315955651578" lon="10.923990702881511"><ele>51.0</ele><time>2026-05-01T10:34:18Z</time></trkpt><trkpt lat="43.91310570476553" lon="10.92442463828298"><ele>51.0</ele><time>2026-05-01T10:34:19Z</time></trkpt><trkpt lat="43.91305242961125" lon="10.924856968335243"><ele>51.0</ele><time>2026-05-01T10:34:20Z</time></trkpt><trkpt lat="43.91299869180236" lon="10.925289532952903"><ele>51.0</ele><time>2026-05-01T10:34:21Z</time></trkpt><trkpt lat="43.912942819370166" lon="10.925726845841075"><ele>51.0</ele><time>2026-05-01T10:34:22Z</time></trkpt><trkpt lat="43.91288857143214" lon="10.926163793290524"><ele>51.5</ele><time>2026-05-01T10:34:23Z</time></trkpt><trkpt lat="43.91283360335526" lon="10.926599239084785"><ele>52.0</ele><time>2026-05-01T10:34:24Z</time></trkpt><trkpt lat="43.91277827142438" lon="10.927036628384853"><ele>51.5</ele><time>2026-05-01T10:34:25Z</time></trkpt><trkpt lat="43.912721948961234" lon="10.927476751597345"><ele>51.0</ele><time>2026-05-01T10:34:26Z</time></trkpt><trkpt lat="43.91267063562839" lon="10.927916601991196"><ele>51.0</ele><time>2026-05-01T10:34:27Z</time></trkpt><trkpt lat="43.91262280977703" lon="10.928353296504548"><ele>51.0</ele><time>2026-05-01T10:34:28Z</time></trkpt><trkpt lat="43.91257466457201" lon="10.928793058703105"><ele>50.5</ele><time>2026-05-01T10:34:29Z</time></trkpt><trkpt lat="43.91252536212612" lon="10.929233156156275"><ele>50.0</ele><time>2026-05-01T10:34:30Z</time></trkpt><trkpt lat="43.912472161340304" lon="10.929674052339609"><ele>50.0</ele><time>2026-05-01T10:34:31Z</time></trkpt><trkpt lat="43.91241495137614" lon="10.930112426084152"><ele>50.0</ele><time>2026-05-01T10:34:32Z</time></trkpt><trkpt lat="43.912354901874615" lon="10.93054737368786"><ele>49.5</ele><time>2026-05-01T10:34:33Z</time></trkpt><trkpt lat="43.91229118635502" lon="10.930980473010882"><ele>49.0</ele><time>2026-05-01T10:34:34Z</time></trkpt><trkpt lat="43.91222737045375" lon="10.931411297085027"><ele>49.5</ele><time>2026-05-01T10:34:35Z</time></trkpt><trkpt lat="43.91216512063423" lon="10.93184220502126"><ele>50.0</ele><time>2026-05-01T10:34:36Z</time></trkpt><trkpt lat="43.91210772957134" lon="10.932272149914606"><ele>49.5</ele><time>2026-05-01T10:34:37Z</time></trkpt><trkpt lat="43.91205084175244" lon="10.932705729426075"><ele>49.0</ele><time>2026-05-01T10:34:38Z</time></trkpt><trkpt lat="43.911994936094615" lon="10.933138993875216"><ele>48.5</ele><time>2026-05-01T10:34:39Z</time></trkpt><trkpt lat="43.911939114408945" lon="10.933574263813124"><ele>48.0</ele><time>2026-05-01T10:34:40Z</time></trkpt><trkpt lat="43.91188165606669" lon="10.934012338627161"><ele>49.0</ele><time>2026-05-01T10:34:41Z</time></trkpt><trkpt lat="43.91182440630018" lon="10.93445202170733"><ele>50.0</ele><time>2026-05-01T10:34:42Z</time></trkpt><trkpt lat="43.91176773921903" lon="10.934890145806826"><ele>49.0</ele><time>2026-05-01T10:34:43Z</time></trkpt><trkpt lat="43.911710967735246" lon="10.935327594553906"><ele>48.0</ele><time>2026-05-01T10:34:44Z</time></trkpt><trkpt lat="43.91165570949738" lon="10.935761962177732"><ele>48.0</ele><time>2026-05-01T10:34:45Z</time></trkpt><trkpt lat="43.9116006221541" lon="10.936192358719321"><ele>48.0</ele><time>2026-05-01T10:34:46Z</time></trkpt><trkpt lat="43.91154726554769" lon="10.936620497861036"><ele>49.0</ele><time>2026-05-01T10:34:47Z</time></trkpt><trkpt lat="43.91149530531921" lon="10.937050650334225"><ele>50.0</ele><time>2026-05-01T10:34:48Z</time></trkpt><trkpt lat="43.911441546843434" lon="10.937479208806103"><ele>50.0</ele><time>2026-05-01T10:34:49Z</time></trkpt><trkpt lat="43.91138553576097" lon="10.937906165221968"><ele>50.0</ele><time>2026-05-01T10:34:50Z</time></trkpt><trkpt lat="43.91132998803791" lon="10.938333811860353"><ele>50.5</ele><time>2026-05-01T10:34:51Z</time></trkpt><trkpt lat="43.91127403948248" lon="10.938767307789137"><ele>51.0</ele><time>2026-05-01T10:34:52Z</time></trkpt><trkpt lat="43.911217622865735" lon="10.9392078778472"><ele>50.5</ele><time>2026-05-01T10:34:53Z</time></trkpt><trkpt lat="43.91116189669781" lon="10.939650665865015"><ele>50.0</ele><time>2026-05-01T10:34:54Z</time></trkpt><trkpt lat="43.911105290805544" lon="10.940097999454311"><ele>50.0</ele><time>2026-05-01T10:34:55Z</time></trkpt><trkpt lat="43.91104763184332" lon="10.94054469469683"><ele>50.0</ele><time>2026-05-01T10:34:56Z</time></trkpt><trkpt lat="43.91098801325052" lon="10.940990942239347"><ele>49.0</ele><time>2026-05-01T10:34:57Z</time></trkpt><trkpt lat="43.9109287857595" lon="10.941434034228482"><ele>48.0</ele><time>2026-05-01T10:34:58Z</time></trkpt><trkpt lat="43.910865752438944" lon="10.941872251818136"><ele>48.0</ele><time>2026-05-01T10:34:59Z</time></trkpt><trkpt lat="43.91079628924701" lon="10.942309455667779"><ele>48.0</ele><time>2026-05-01T10:35:00Z</time></trkpt><trkpt lat="43.91071797957442" lon="10.94274379163436"><ele>48.0</ele><time>2026-05-01T10:35:01Z</time></trkpt><trkpt lat="43.91062992179281" lon="10.943175899761945"><ele>48.0</ele><time>2026-05-01T10:35:02Z</time></trkpt><trkpt lat="43.91053347394833" lon="10.943605535041648"><ele>48.0</ele><time>2026-05-01T10:35:03Z</time></trkpt><trkpt lat="43.910427035924535" lon="10.944029467402194"><ele>48.0</ele><time>2026-05-01T10:35:04Z</time></trkpt><trkpt lat="43.91031049786859" lon="10.944451546654388"><ele>48.0</ele><time>2026-05-01T10:35:05Z</time></trkpt><trkpt lat="43.91018637351765" lon="10.944870395101642"><ele>48.0</ele><time>2026-05-01T10:35:06Z</time></trkpt><trkpt lat="43.910057645900636" lon="10.945287784155418"><ele>47.0</ele><time>2026-05-01T10:35:07Z</time></trkpt><trkpt lat="43.9099298422518" lon="10.945703407947258"><ele>46.0</ele><time>2026-05-01T10:35:08Z</time></trkpt><trkpt lat="43.90980145482211" lon="10.946123519052568"><ele>46.0</ele><time>2026-05-01T10:35:09Z</time></trkpt><trkpt lat="43.909673300103194" lon="10.946541671769639"><ele>46.0</ele><time>2026-05-01T10:35:10Z</time></trkpt><trkpt lat="43.90954537163577" lon="10.946960750682779"><ele>46.0</ele><time>2026-05-01T10:35:11Z</time></trkpt><trkpt lat="43.90941451635325" lon="10.947381684441103"><ele>46.0</ele><time>2026-05-01T10:35:12Z</time></trkpt><trkpt lat="43.9092834595969" lon="10.947803588842325"><ele>46.0</ele><time>2026-05-01T10:35:13Z</time></trkpt><trkpt lat="43.90915561049216" lon="10.948228373257406"><ele>46.0</ele><time>2026-05-01T10:35:14Z</time></trkpt><trkpt lat="43.90903002176202" lon="10.948651980775074"><ele>46.0</ele><time>2026-05-01T10:35:15Z</time></trkpt><trkpt lat="43.90890373006248" lon="10.949074090188475"><ele>46.0</ele><time>2026-05-01T10:35:16Z</time></trkpt><trkpt lat="43.908776320106426" lon="10.949496630312273"><ele>45.5</ele><time>2026-05-01T10:35:17Z</time></trkpt><trkpt lat="43.908648574543314" lon="10.94991886673569"><ele>45.0</ele><time>2026-05-01T10:35:18Z</time></trkpt><trkpt lat="43.9085204417321" lon="10.950341653284182"><ele>45.0</ele><time>2026-05-01T10:35:18.999Z</time></trkpt><trkpt lat="43.9083923983668" lon="10.950763950505538"><ele>45.0</ele><time>2026-05-01T10:35:19.999Z</time></trkpt><trkpt lat="43.90826527027022" lon="10.951180778977237"><ele>45.0</ele><time>2026-05-01T10:35:20.999Z</time></trkpt><trkpt lat="43.908141931604824" lon="10.951590790132611"><ele>45.0</ele><time>2026-05-01T10:35:21.999Z</time></trkpt><trkpt lat="43.90802096020536" lon="10.951998681620278"><ele>45.5</ele><time>2026-05-01T10:35:22.999Z</time></trkpt><trkpt lat="43.90789816716106" lon="10.95241024028159"><ele>46.0</ele><time>2026-05-01T10:35:23.999Z</time></trkpt><trkpt lat="43.90777420785947" lon="10.95282438623485"><ele>46.0</ele><time>2026-05-01T10:35:24.999Z</time></trkpt><trkpt lat="43.907652284709954" lon="10.953238009070118"><ele>46.0</ele><time>2026-05-01T10:35:25.999Z</time></trkpt><trkpt lat="43.90753089677247" lon="10.953652920103892"><ele>45.5</ele><time>2026-05-01T10:35:27.001Z</time></trkpt><trkpt lat="43.90741229741548" lon="10.954065256665944"><ele>45.0</ele><time>2026-05-01T10:35:28.001Z</time></trkpt><trkpt lat="43.90729402455394" lon="10.95447457856075"><ele>45.0</ele><time>2026-05-01T10:35:29.001Z</time></trkpt><trkpt lat="43.907173851200575" lon="10.954880920986218"><ele>45.0</ele><time>2026-05-01T10:35:30.001Z</time></trkpt><trkpt lat="43.90705312181753" lon="10.955285429632985"><ele>45.0</ele><time>2026-05-01T10:35:31.001Z</time></trkpt><trkpt lat="43.90693160474778" lon="10.955690911122332"><ele>45.0</ele><time>2026-05-01T10:35:32.001Z</time></trkpt><trkpt lat="43.906809250451154" lon="10.956099879706173"><ele>45.0</ele><time>2026-05-01T10:35:33.001Z</time></trkpt><trkpt lat="43.90668616909731" lon="10.956510552914906"><ele>45.0</ele><time>2026-05-01T10:35:34.001Z</time></trkpt><trkpt lat="43.906560888256124" lon="10.956919646340296"><ele>45.0</ele><time>2026-05-01T10:35:35.001Z</time></trkpt><trkpt lat="43.906432627473954" lon="10.957329293650035"><ele>45.0</ele><time>2026-05-01T10:35:36.001Z</time></trkpt><trkpt lat="43.906308736283606" lon="10.957735942878788"><ele>45.0</ele><time>2026-05-01T10:35:37.001Z</time></trkpt><trkpt lat="43.9061861078996" lon="10.958145839597478"><ele>45.0</ele><time>2026-05-01T10:35:38.001Z</time></trkpt><trkpt lat="43.906063397841116" lon="10.95855617116384"><ele>45.0</ele><time>2026-05-01T10:35:39.001Z</time></trkpt><trkpt lat="43.90594036680252" lon="10.958965871301771"><ele>45.0</ele><time>2026-05-01T10:35:40.001Z</time></trkpt><trkpt lat="43.90581575709696" lon="10.959378190926039"><ele>45.0</ele><time>2026-05-01T10:35:41.001Z</time></trkpt><trkpt lat="43.90569229318724" lon="10.959790464290096"><ele>45.0</ele><time>2026-05-01T10:35:42.001Z</time></trkpt><trkpt lat="43.90556799369699" lon="10.960201680611728"><ele>45.0</ele><time>2026-05-01T10:35:43.001Z</time></trkpt><trkpt lat="43.905442003524584" lon="10.96061222764325"><ele>45.0</ele><time>2026-05-01T10:35:44.001Z</time></trkpt><trkpt lat="43.90531775669728" lon="10.961026406664919"><ele>44.0</ele><time>2026-05-01T10:35:45.001Z</time></trkpt><trkpt lat="43.90519186558646" lon="10.961438115430424"><ele>43.0</ele><time>2026-05-01T10:35:46.001Z</time></trkpt><trkpt lat="43.90506452478377" lon="10.96184937451007"><ele>43.0</ele><time>2026-05-01T10:35:47.001Z</time></trkpt><trkpt lat="43.904938404199825" lon="10.962258085993847"><ele>43.0</ele><time>2026-05-01T10:35:48.001Z</time></trkpt><trkpt lat="43.904814026104056" lon="10.962658262017342"><ele>43.0</ele><time>2026-05-01T10:35:49.001Z</time></trkpt><trkpt lat="43.90468827917581" lon="10.96305671685977"><ele>43.0</ele><time>2026-05-01T10:35:50.001Z</time></trkpt><trkpt lat="43.90456005409534" lon="10.963458437398584"><ele>42.5</ele><time>2026-05-01T10:35:51.001Z</time></trkpt><trkpt lat="43.90443329541029" lon="10.963859544921618"><ele>42.0</ele><time>2026-05-01T10:35:52.001Z</time></trkpt><trkpt lat="43.90430595069287" lon="10.964260696675913"><ele>42.5</ele><time>2026-05-01T10:35:53.001Z</time></trkpt><trkpt lat="43.90417859159198" lon="10.964664291125684"><ele>43.0</ele><time>2026-05-01T10:35:54.001Z</time></trkpt><trkpt lat="43.904054188808814" lon="10.96506872977965"><ele>43.0</ele><time>2026-05-01T10:35:55.001Z</time></trkpt><trkpt lat="43.90393032585203" lon="10.96547529390307"><ele>43.0</ele><time>2026-05-01T10:35:56Z</time></trkpt><trkpt lat="43.903807915905226" lon="10.965881416192772"><ele>42.5</ele><time>2026-05-01T10:35:57Z</time></trkpt><trkpt lat="43.903683906908455" lon="10.966290896147793"><ele>42.0</ele><time>2026-05-01T10:35:58Z</time></trkpt><trkpt lat="43.90356083155503" lon="10.96669842919346"><ele>42.0</ele><time>2026-05-01T10:35:59Z</time></trkpt><trkpt lat="43.90343761759054" lon="10.967102546035992"><ele>42.0</ele><time>2026-05-01T10:36:00Z</time></trkpt><trkpt lat="43.903311881438874" lon="10.967509087552887"><ele>42.0</ele><time>2026-05-01T10:36:01Z</time></trkpt><trkpt lat="43.90318911325172" lon="10.967915498349347"><ele>42.0</ele><time>2026-05-01T10:36:02Z</time></trkpt><trkpt lat="43.90306262592731" lon="10.968324048698978"><ele>42.0</ele><time>2026-05-01T10:36:03Z</time></trkpt><trkpt lat="43.90293833824957" lon="10.968731411553524"><ele>42.0</ele><time>2026-05-01T10:36:04Z</time></trkpt><trkpt lat="43.90281423492286" lon="10.969141507235085"><ele>42.0</ele><time>2026-05-01T10:36:05Z</time></trkpt><trkpt lat="43.90269154846282" lon="10.969550663462938"><ele>42.0</ele><time>2026-05-01T10:36:06Z</time></trkpt><trkpt lat="43.902566286291986" lon="10.969960362899629"><ele>42.5</ele><time>2026-05-01T10:36:07Z</time></trkpt><trkpt lat="43.90244417352156" lon="10.970369914606433"><ele>43.0</ele><time>2026-05-01T10:36:08Z</time></trkpt><trkpt lat="43.90232124048416" lon="10.970778451506849"><ele>42.5</ele><time>2026-05-01T10:36:09Z</time></trkpt><trkpt lat="43.902194477449285" lon="10.971183311054254"><ele>42.0</ele><time>2026-05-01T10:36:10Z</time></trkpt><trkpt lat="43.90206707753617" lon="10.971587514530155"><ele>41.5</ele><time>2026-05-01T10:36:11Z</time></trkpt><trkpt lat="43.90194586915317" lon="10.971997153065681"><ele>41.0</ele><time>2026-05-01T10:36:12Z</time></trkpt><trkpt lat="43.901825224112" lon="10.972404108491105"><ele>41.0</ele><time>2026-05-01T10:36:13Z</time></trkpt><trkpt lat="43.90170339023236" lon="10.972808925253274"><ele>41.0</ele><time>2026-05-01T10:36:14Z</time></trkpt><trkpt lat="43.901580465307035" lon="10.973216769518293"><ele>41.0</ele><time>2026-05-01T10:36:15Z</time></trkpt><trkpt lat="43.901456797940654" lon="10.973625998796953"><ele>41.0</ele><time>2026-05-01T10:36:16Z</time></trkpt><trkpt lat="43.901333163421825" lon="10.974033718633725"><ele>41.0</ele><time>2026-05-01T10:36:17Z</time></trkpt><trkpt lat="43.9012107174296" lon="10.974437313707705"><ele>41.0</ele><time>2026-05-01T10:36:18Z</time></trkpt><trkpt lat="43.901084736893786" lon="10.974843909351913"><ele>41.0</ele><time>2026-05-01T10:36:19Z</time></trkpt><trkpt lat="43.90096076143761" lon="10.975251701478642"><ele>41.0</ele><time>2026-05-01T10:36:20Z</time></trkpt><trkpt lat="43.90083649470516" lon="10.975663509054712"><ele>41.0</ele><time>2026-05-01T10:36:21Z</time></trkpt><trkpt lat="43.900712891937616" lon="10.976080500413836"><ele>41.0</ele><time>2026-05-01T10:36:22Z</time></trkpt><trkpt lat="43.90058881160658" lon="10.976495060709924"><ele>41.0</ele><time>2026-05-01T10:36:23Z</time></trkpt><trkpt lat="43.90046607651277" lon="10.976909948296283"><ele>41.0</ele><time>2026-05-01T10:36:24Z</time></trkpt><trkpt lat="43.90034398833969" lon="10.977317646231272"><ele>41.0</ele><time>2026-05-01T10:36:25Z</time></trkpt><trkpt lat="43.90022113287814" lon="10.977723037560205"><ele>41.0</ele><time>2026-05-01T10:36:26Z</time></trkpt><trkpt lat="43.90009685867617" lon="10.97812673149398"><ele>41.0</ele><time>2026-05-01T10:36:27Z</time></trkpt><trkpt lat="43.89997501472368" lon="10.978526374274683"><ele>41.0</ele><time>2026-05-01T10:36:28Z</time></trkpt><trkpt lat="43.89985166998445" lon="10.978928918166075"><ele>41.5</ele><time>2026-05-01T10:36:29Z</time></trkpt><trkpt lat="43.89972823978594" lon="10.979332448565396"><ele>42.0</ele><time>2026-05-01T10:36:30Z</time></trkpt><trkpt lat="43.899603969077994" lon="10.9797406730479"><ele>41.5</ele><time>2026-05-01T10:36:31Z</time></trkpt><trkpt lat="43.89948167824291" lon="10.980148679211505"><ele>41.0</ele><time>2026-05-01T10:36:32Z</time></trkpt><trkpt lat="43.8993611285593" lon="10.980554441594643"><ele>41.0</ele><time>2026-05-01T10:36:33Z</time></trkpt><trkpt lat="43.899238063927456" lon="10.980963776989965"><ele>41.0</ele><time>2026-05-01T10:36:34Z</time></trkpt><trkpt lat="43.89911537268936" lon="10.981369547525386"><ele>41.0</ele><time>2026-05-01T10:36:35Z</time></trkpt><trkpt lat="43.898992539984114" lon="10.981773842710956"><ele>41.0</ele><time>2026-05-01T10:36:36Z</time></trkpt><trkpt lat="43.89886832631439" lon="10.982181721689534"><ele>42.0</ele><time>2026-05-01T10:36:37Z</time></trkpt><trkpt lat="43.89874673227793" lon="10.982588668556543"><ele>43.0</ele><time>2026-05-01T10:36:38Z</time></trkpt><trkpt lat="43.89862375109306" lon="10.982993356711068"><ele>42.5</ele><time>2026-05-01T10:36:39Z</time></trkpt><trkpt lat="43.89850266097987" lon="10.983398498184297"><ele>42.0</ele><time>2026-05-01T10:36:40Z</time></trkpt><trkpt lat="43.89838138684108" lon="10.983804837418631"><ele>42.0</ele><time>2026-05-01T10:36:41Z</time></trkpt><trkpt lat="43.89826010642392" lon="10.984212903810507"><ele>42.0</ele><time>2026-05-01T10:36:42Z</time></trkpt><trkpt lat="43.8981410942706" lon="10.984621189126965"><ele>41.0</ele><time>2026-05-01T10:36:43Z</time></trkpt><trkpt lat="43.89802259128185" lon="10.985030386120522"><ele>40.0</ele><time>2026-05-01T10:36:44Z</time></trkpt><trkpt lat="43.897902777539514" lon="10.985440813501004"><ele>40.5</ele><time>2026-05-01T10:36:45Z</time></trkpt><trkpt lat="43.89777960521614" lon="10.985851464230871"><ele>41.0</ele><time>2026-05-01T10:36:46Z</time></trkpt><trkpt lat="43.89765762190727" lon="10.98625874974556"><ele>40.5</ele><time>2026-05-01T10:36:47Z</time></trkpt><trkpt lat="43.89753453795902" lon="10.986666661906913"><ele>40.0</ele><time>2026-05-01T10:36:48Z</time></trkpt><trkpt lat="43.897411418349705" lon="10.987074153614223"><ele>40.0</ele><time>2026-05-01T10:36:49Z</time></trkpt><trkpt lat="43.89728811493186" lon="10.987479708353021"><ele>40.0</ele><time>2026-05-01T10:36:50Z</time></trkpt><trkpt lat="43.89716412718508" lon="10.987888988745176"><ele>40.0</ele><time>2026-05-01T10:36:51Z</time></trkpt><trkpt lat="43.897039984211595" lon="10.988297390734164"><ele>40.0</ele><time>2026-05-01T10:36:52Z</time></trkpt><trkpt lat="43.89691628147581" lon="10.98870566834632"><ele>40.5</ele><time>2026-05-01T10:36:53Z</time></trkpt><trkpt lat="43.89679213219133" lon="10.989112415349368"><ele>41.0</ele><time>2026-05-01T10:36:54Z</time></trkpt><trkpt lat="43.89666809286777" lon="10.989515842775734"><ele>41.0</ele><time>2026-05-01T10:36:55Z</time></trkpt><trkpt lat="43.89654369519491" lon="10.989920663144314"><ele>41.0</ele><time>2026-05-01T10:36:56Z</time></trkpt><trkpt lat="43.89641954695577" lon="10.990326974544251"><ele>41.0</ele><time>2026-05-01T10:36:57Z</time></trkpt><trkpt lat="43.89629571012555" lon="10.990738040419105"><ele>41.0</ele><time>2026-05-01T10:36:58Z</time></trkpt><trkpt lat="43.89617145140771" lon="10.991151774513304"><ele>41.0</ele><time>2026-05-01T10:36:59Z</time></trkpt><trkpt lat="43.8960462176676" lon="10.991567690952795"><ele>41.0</ele><time>2026-05-01T10:37:00Z</time></trkpt><trkpt lat="43.89591964799881" lon="10.991986058703684"><ele>41.0</ele><time>2026-05-01T10:37:01Z</time></trkpt><trkpt lat="43.89579212794647" lon="10.99240444253733"><ele>41.0</ele><time>2026-05-01T10:37:02Z</time></trkpt><trkpt lat="43.895664981975884" lon="10.992821789168804"><ele>41.5</ele><time>2026-05-01T10:37:03Z</time></trkpt><trkpt lat="43.895536793566606" lon="10.993238721910208"><ele>42.0</ele><time>2026-05-01T10:37:04Z</time></trkpt><trkpt lat="43.895410554181275" lon="10.99365369444663"><ele>42.0</ele><time>2026-05-01T10:37:05Z</time></trkpt><trkpt lat="43.89528336555232" lon="10.994069533689865"><ele>42.0</ele><time>2026-05-01T10:37:06Z</time></trkpt><trkpt lat="43.895153441538234" lon="10.99448492124738"><ele>41.5</ele><time>2026-05-01T10:37:07Z</time></trkpt><trkpt lat="43.89502697509587" lon="10.994897151391287"><ele>41.0</ele><time>2026-05-01T10:37:08Z</time></trkpt><trkpt lat="43.89490221659698" lon="10.995309362735732"><ele>41.0</ele><time>2026-05-01T10:37:09Z</time></trkpt><trkpt lat="43.89477680270095" lon="10.995723844769147"><ele>41.0</ele><time>2026-05-01T10:37:10Z</time></trkpt><trkpt lat="43.89465080856387" lon="10.996137179797865"><ele>40.5</ele><time>2026-05-01T10:37:11Z</time></trkpt><trkpt lat="43.89452492812541" lon="10.996548627164119"><ele>40.0</ele><time>2026-05-01T10:37:12Z</time></trkpt><trkpt lat="43.894399133558586" lon="10.996957850062504"><ele>40.0</ele><time>2026-05-01T10:37:13Z</time></trkpt><trkpt lat="43.8942737209768" lon="10.997368123791075"><ele>40.0</ele><time>2026-05-01T10:37:14Z</time></trkpt><trkpt lat="43.89415004982716" lon="10.997776964999678"><ele>40.0</ele><time>2026-05-01T10:37:15Z</time></trkpt><trkpt lat="43.89402525976662" lon="10.99818880785678"><ele>40.0</ele><time>2026-05-01T10:37:16Z</time></trkpt><trkpt lat="43.89390108959082" lon="10.99860249200519"><ele>40.0</ele><time>2026-05-01T10:37:17Z</time></trkpt><trkpt lat="43.89377730830357" lon="10.999018107063709"><ele>40.0</ele><time>2026-05-01T10:37:18Z</time></trkpt><trkpt lat="43.8936527681845" lon="10.999434997122096"><ele>39.5</ele><time>2026-05-01T10:37:19Z</time></trkpt><trkpt lat="43.89352681649584" lon="10.999851222665978"><ele>39.0</ele><time>2026-05-01T10:37:20Z</time></trkpt><trkpt lat="43.893399115324684" lon="11.000266596162339"><ele>39.0</ele><time>2026-05-01T10:37:21Z</time></trkpt><trkpt lat="43.893273693610695" lon="11.000678076802595"><ele>39.0</ele><time>2026-05-01T10:37:22Z</time></trkpt><trkpt lat="43.8931499398984" lon="11.001090823448905"><ele>39.5</ele><time>2026-05-01T10:37:23Z</time></trkpt><trkpt lat="43.89302605348417" lon="11.001503396337839"><ele>40.0</ele><time>2026-05-01T10:37:24Z</time></trkpt><trkpt lat="43.8928998356329" lon="11.00191526184416"><ele>39.0</ele><time>2026-05-01T10:37:24.999Z</time></trkpt><trkpt lat="43.892774278612784" lon="11.002327184155366"><ele>38.0</ele><time>2026-05-01T10:37:25.999Z</time></trkpt><trkpt lat="43.892650838954665" lon="11.002736976179373"><ele>38.0</ele><time>2026-05-01T10:37:26.999Z</time></trkpt><trkpt lat="43.89252608961556" lon="11.003146874286589"><ele>38.0</ele><time>2026-05-01T10:37:27.999Z</time></trkpt><trkpt lat="43.89240117575256" lon="11.003556969481547"><ele>38.5</ele><time>2026-05-01T10:37:28.999Z</time></trkpt><trkpt lat="43.892276774351245" lon="11.003968163161128"><ele>39.0</ele><time>2026-05-01T10:37:29.999Z</time></trkpt><trkpt lat="43.892152524655984" lon="11.00437896468524"><ele>39.0</ele><time>2026-05-01T10:37:30.999Z</time></trkpt><trkpt lat="43.89202825668069" lon="11.004791522176282"><ele>39.0</ele><time>2026-05-01T10:37:32.001Z</time></trkpt><trkpt lat="43.891904029604135" lon="11.005203280336406"><ele>39.0</ele><time>2026-05-01T10:37:33.001Z</time></trkpt><trkpt lat="43.89177899964018" lon="11.005614968042407"><ele>39.0</ele><time>2026-05-01T10:37:34.001Z</time></trkpt><trkpt lat="43.89165640337571" lon="11.00602561896198"><ele>39.0</ele><time>2026-05-01T10:37:35.001Z</time></trkpt><trkpt lat="43.8915314428862" lon="11.00643541772367"><ele>39.0</ele><time>2026-05-01T10:37:36.001Z</time></trkpt><trkpt lat="43.89140717758455" lon="11.006844263019158"><ele>39.0</ele><time>2026-05-01T10:37:37.001Z</time></trkpt><trkpt lat="43.891284076731196" lon="11.00725415278351"><ele>39.0</ele><time>2026-05-01T10:37:38.001Z</time></trkpt><trkpt lat="43.8911622507651" lon="11.007665262616007"><ele>40.5</ele><time>2026-05-01T10:37:39.001Z</time></trkpt><trkpt lat="43.89104119562716" lon="11.008078338078507"><ele>42.0</ele><time>2026-05-01T10:37:40.001Z</time></trkpt><trkpt lat="43.8909228212974" lon="11.008488771675992"><ele>42.0</ele><time>2026-05-01T10:37:41.001Z</time></trkpt><trkpt lat="43.89080866399365" lon="11.008902529604928"><ele>42.0</ele><time>2026-05-01T10:37:42.001Z</time></trkpt><trkpt lat="43.89070047297122" lon="11.009318800724833"><ele>41.0</ele><time>2026-05-01T10:37:43.001Z</time></trkpt><trkpt lat="43.89060309198641" lon="11.009736684346011"><ele>40.0</ele><time>2026-05-01T10:37:44.001Z</time></trkpt><trkpt lat="43.89051150424719" lon="11.01015798774862"><ele>40.0</ele><time>2026-05-01T10:37:45.001Z</time></trkpt><trkpt lat="43.890421121980054" lon="11.010577037323296"><ele>40.0</ele><time>2026-05-01T10:37:46.001Z</time></trkpt><trkpt lat="43.89033047829038" lon="11.0109956132384"><ele>40.0</ele><time>2026-05-01T10:37:47.001Z</time></trkpt><trkpt lat="43.89024015565247" lon="11.011412571296649"><ele>40.0</ele><time>2026-05-01T10:37:48.001Z</time></trkpt><trkpt lat="43.8901510569959" lon="11.011827570893848"><ele>40.0</ele><time>2026-05-01T10:37:49.001Z</time></trkpt><trkpt lat="43.89006159847507" lon="11.012242165895454"><ele>40.0</ele><time>2026-05-01T10:37:50.001Z</time></trkpt><trkpt lat="43.88997165079602" lon="11.012654266230294"><ele>40.5</ele><time>2026-05-01T10:37:51.001Z</time></trkpt><trkpt lat="43.88988100025295" lon="11.013067185414931"><ele>41.0</ele><time>2026-05-01T10:37:52.001Z</time></trkpt><trkpt lat="43.889788475669036" lon="11.013484521476654"><ele>41.0</ele><time>2026-05-01T10:37:53.001Z</time></trkpt><trkpt lat="43.88969583116142" lon="11.013903697575605"><ele>41.0</ele><time>2026-05-01T10:37:54.001Z</time></trkpt><trkpt lat="43.88960330996724" lon="11.014325415596259"><ele>40.0</ele><time>2026-05-01T10:37:55.001Z</time></trkpt><trkpt lat="43.889510662855635" lon="11.01474943493443"><ele>39.0</ele><time>2026-05-01T10:37:56.001Z</time></trkpt><trkpt lat="43.88941822915203" lon="11.015171856248816"><ele>39.0</ele><time>2026-05-01T10:37:57.001Z</time></trkpt><trkpt lat="43.8893264601245" lon="11.015593626734322"><ele>39.0</ele><time>2026-05-01T10:37:58.001Z</time></trkpt><trkpt lat="43.88923489820044" lon="11.016017842511024"><ele>39.0</ele><time>2026-05-01T10:37:59Z</time></trkpt><trkpt lat="43.88914283606196" lon="11.016443663899016"><ele>39.0</ele><time>2026-05-01T10:38:00Z</time></trkpt><trkpt lat="43.88904982731915" lon="11.01687078280804"><ele>39.0</ele><time>2026-05-01T10:38:01Z</time></trkpt><trkpt lat="43.888957394544065" lon="11.017300682074126"><ele>39.0</ele><time>2026-05-01T10:38:02Z</time></trkpt><trkpt lat="43.88886331810234" lon="11.017730027788582"><ele>39.5</ele><time>2026-05-01T10:38:03Z</time></trkpt><trkpt lat="43.88876941853899" lon="11.018156282095545"><ele>40.0</ele><time>2026-05-01T10:38:04Z</time></trkpt><trkpt lat="43.88867623264908" lon="11.01858387497193"><ele>40.5</ele><time>2026-05-01T10:38:05Z</time></trkpt><trkpt lat="43.88858271523094" lon="11.019012425497792"><ele>41.0</ele><time>2026-05-01T10:38:06Z</time></trkpt><trkpt lat="43.8884889769798" lon="11.019440535566911"><ele>41.0</ele><time>2026-05-01T10:38:07Z</time></trkpt><trkpt lat="43.888392626061346" lon="11.01986931132748"><ele>41.0</ele><time>2026-05-01T10:38:08Z</time></trkpt><trkpt lat="43.88828993484911" lon="11.020296492085146"><ele>41.5</ele><time>2026-05-01T10:38:09Z</time></trkpt><trkpt lat="43.88818013094608" lon="11.020719725913159"><ele>42.0</ele><time>2026-05-01T10:38:10Z</time></trkpt><trkpt lat="43.888061884870716" lon="11.02114006724688"><ele>42.5</ele><time>2026-05-01T10:38:11Z</time></trkpt><trkpt lat="43.88793455081784" lon="11.021557095685301"><ele>43.0</ele><time>2026-05-01T10:38:12Z</time></trkpt><trkpt lat="43.88779767972989" lon="11.021969508183679"><ele>43.0</ele><time>2026-05-01T10:38:13Z</time></trkpt><trkpt lat="43.887651417252485" lon="11.022379257896723"><ele>43.0</ele><time>2026-05-01T10:38:14Z</time></trkpt><trkpt lat="43.88749613837123" lon="11.022786562117417"><ele>42.0</ele><time>2026-05-01T10:38:15Z</time></trkpt><trkpt lat="43.88733379475291" lon="11.0231867132337"><ele>41.0</ele><time>2026-05-01T10:38:16Z</time></trkpt><trkpt lat="43.88716231734679" lon="11.023584378109417"><ele>40.5</ele><time>2026-05-01T10:38:17Z</time></trkpt><trkpt lat="43.886984757972975" lon="11.023974035012536"><ele>40.0</ele><time>2026-05-01T10:38:18Z</time></trkpt><trkpt lat="43.886797629919734" lon="11.024358009269902"><ele>40.0</ele><time>2026-05-01T10:38:19Z</time></trkpt><trkpt lat="43.88660138889078" lon="11.024733796430278"><ele>40.0</ele><time>2026-05-01T10:38:20Z</time></trkpt><trkpt lat="43.88639544007242" lon="11.025100648300437"><ele>40.5</ele><time>2026-05-01T10:38:21Z</time></trkpt><trkpt lat="43.88617753249552" lon="11.025454450091903"><ele>41.0</ele><time>2026-05-01T10:38:22Z</time></trkpt><trkpt lat="43.885950548434884" lon="11.025798218722375"><ele>40.0</ele><time>2026-05-01T10:38:23Z</time></trkpt><trkpt lat="43.8857159127658" lon="11.026130033044376"><ele>39.0</ele><time>2026-05-01T10:38:24Z</time></trkpt><trkpt lat="43.885471887486155" lon="11.026452780415754"><ele>39.5</ele><time>2026-05-01T10:38:25Z</time></trkpt><trkpt lat="43.885220166088445" lon="11.026762766625943"><ele>40.0</ele><time>2026-05-01T10:38:26Z</time></trkpt><trkpt lat="43.88495904709886" lon="11.02706184729109"><ele>40.0</ele><time>2026-05-01T10:38:27Z</time></trkpt><trkpt lat="43.88469359950741" lon="11.027349503095712"><ele>40.0</ele><time>2026-05-01T10:38:28Z</time></trkpt><trkpt lat="43.884421304607194" lon="11.027628598317218"><ele>39.0</ele><time>2026-05-01T10:38:29Z</time></trkpt><trkpt lat="43.8841445102024" lon="11.02789718280445"><ele>38.0</ele><time>2026-05-01T10:38:30Z</time></trkpt><trkpt lat="43.88386367164378" lon="11.028159062970976"><ele>38.0</ele><time>2026-05-01T10:38:31Z</time></trkpt><trkpt lat="43.88358054776601" lon="11.028414763677269"><ele>38.0</ele><time>2026-05-01T10:38:32Z</time></trkpt><trkpt lat="43.88329670167821" lon="11.028666589522482"><ele>38.5</ele><time>2026-05-01T10:38:33Z</time></trkpt><trkpt lat="43.883009643407" lon="11.028918038479267"><ele>39.0</ele><time>2026-05-01T10:38:34Z</time></trkpt><trkpt lat="43.88272265549392" lon="11.029169206195872"><ele>39.0</ele><time>2026-05-01T10:38:35Z</time></trkpt><trkpt lat="43.882434965201696" lon="11.029423498005755"><ele>39.0</ele><time>2026-05-01T10:38:36Z</time></trkpt><trkpt lat="43.882146700912585" lon="11.02967797861754"><ele>39.0</ele><time>2026-05-01T10:38:37Z</time></trkpt><trkpt lat="43.88185956607045" lon="11.029933283559329"><ele>39.0</ele><time>2026-05-01T10:38:38Z</time></trkpt><trkpt lat="43.88157155054268" lon="11.030189126518122"><ele>38.5</ele><time>2026-05-01T10:38:39Z</time></trkpt><trkpt lat="43.88128419397742" lon="11.03044371048717"><ele>38.0</ele><time>2026-05-01T10:38:40Z</time></trkpt><trkpt lat="43.88099523889468" lon="11.030698749918344"><ele>38.0</ele><time>2026-05-01T10:38:41Z</time></trkpt><trkpt lat="43.88070786358153" lon="11.030954008629303"><ele>38.0</ele><time>2026-05-01T10:38:42Z</time></trkpt><trkpt lat="43.88042015216879" lon="11.03120951495801"><ele>38.0</ele><time>2026-05-01T10:38:43Z</time></trkpt><trkpt lat="43.88013555801059" lon="11.03146487078246"><ele>38.0</ele><time>2026-05-01T10:38:44Z</time></trkpt><trkpt lat="43.87985446546919" lon="11.031716553662026"><ele>38.5</ele><time>2026-05-01T10:38:45Z</time></trkpt><trkpt lat="43.87957441765527" lon="11.031965677934902"><ele>39.0</ele><time>2026-05-01T10:38:46Z</time></trkpt><trkpt lat="43.87929200925938" lon="11.032216552873106"><ele>38.5</ele><time>2026-05-01T10:38:47Z</time></trkpt><trkpt lat="43.879009989116994" lon="11.032466222644894"><ele>38.0</ele><time>2026-05-01T10:38:48Z</time></trkpt><trkpt lat="43.87872765321417" lon="11.03271550654679"><ele>38.0</ele><time>2026-05-01T10:38:49Z</time></trkpt><trkpt lat="43.87844571868033" lon="11.032962616812714"><ele>38.0</ele><time>2026-05-01T10:38:50Z</time></trkpt><trkpt lat="43.878164104598945" lon="11.033212506335586"><ele>38.5</ele><time>2026-05-01T10:38:51Z</time></trkpt><trkpt lat="43.87788013970922" lon="11.033461491540562"><ele>39.0</ele><time>2026-05-01T10:38:52Z</time></trkpt><trkpt lat="43.877595812736445" lon="11.033709414887278"><ele>39.0</ele><time>2026-05-01T10:38:53Z</time></trkpt><trkpt lat="43.87731027355317" lon="11.033959206378608"><ele>39.0</ele><time>2026-05-01T10:38:54Z</time></trkpt><trkpt lat="43.87702447651488" lon="11.03421209344427"><ele>39.0</ele><time>2026-05-01T10:38:55Z</time></trkpt><trkpt lat="43.8767383596454" lon="11.034465298207627"><ele>39.0</ele><time>2026-05-01T10:38:56Z</time></trkpt><trkpt lat="43.876452975915235" lon="11.034719014900611"><ele>39.0</ele><time>2026-05-01T10:38:57Z</time></trkpt><trkpt lat="43.87616953026439" lon="11.034971661936257"><ele>39.0</ele><time>2026-05-01T10:38:58Z</time></trkpt><trkpt lat="43.87588711236421" lon="11.035227607551832"><ele>39.5</ele><time>2026-05-01T10:38:59Z</time></trkpt><trkpt lat="43.87560963011012" lon="11.035491578897902"><ele>40.0</ele><time>2026-05-01T10:39:00Z</time></trkpt><trkpt lat="43.875336625212334" lon="11.035761855187362"><ele>38.0</ele><time>2026-05-01T10:39:01Z</time></trkpt><trkpt lat="43.875065902476244" lon="11.036040165694995"><ele>36.0</ele><time>2026-05-01T10:39:02Z</time></trkpt><trkpt lat="43.87479549472844" lon="11.03632456845909"><ele>36.0</ele><time>2026-05-01T10:39:03Z</time></trkpt><trkpt lat="43.87452765576955" lon="11.036613261011231"><ele>36.0</ele><time>2026-05-01T10:39:04Z</time></trkpt><trkpt lat="43.87426163800313" lon="11.036907223878071"><ele>37.0</ele><time>2026-05-01T10:39:05Z</time></trkpt><trkpt lat="43.87400171323344" lon="11.037208191779051"><ele>38.0</ele><time>2026-05-01T10:39:06Z</time></trkpt><trkpt lat="43.87374867108659" lon="11.037520413560271"><ele>38.0</ele><time>2026-05-01T10:39:07Z</time></trkpt><trkpt lat="43.87350419562143" lon="11.037839999490407"><ele>38.0</ele><time>2026-05-01T10:39:08Z</time></trkpt><trkpt lat="43.8732633865116" lon="11.038164905632744"><ele>39.5</ele><time>2026-05-01T10:39:09Z</time></trkpt><trkpt lat="43.87302576391758" lon="11.038495634363663"><ele>41.0</ele><time>2026-05-01T10:39:10Z</time></trkpt><trkpt lat="43.872793813256514" lon="11.03883382078332"><ele>40.0</ele><time>2026-05-01T10:39:11Z</time></trkpt><trkpt lat="43.87256692326972" lon="11.039178891852389"><ele>39.0</ele><time>2026-05-01T10:39:12Z</time></trkpt><trkpt lat="43.87234498618387" lon="11.039528998386865"><ele>39.0</ele><time>2026-05-01T10:39:13Z</time></trkpt><trkpt lat="43.872126566404226" lon="11.039884572553076"><ele>39.0</ele><time>2026-05-01T10:39:14Z</time></trkpt><trkpt lat="43.87191039322603" lon="11.040246602809589"><ele>40.0</ele><time>2026-05-01T10:39:15Z</time></trkpt><trkpt lat="43.871697913670566" lon="11.040612890101778"><ele>41.0</ele><time>2026-05-01T10:39:16Z</time></trkpt><trkpt lat="43.87148950185328" lon="11.040984145056184"><ele>42.5</ele><time>2026-05-01T10:39:17Z</time></trkpt><trkpt lat="43.871287624787996" lon="11.041359237147297"><ele>44.0</ele><time>2026-05-01T10:39:18Z</time></trkpt><trkpt lat="43.871096054717825" lon="11.041739822874085"><ele>42.5</ele><time>2026-05-01T10:39:19Z</time></trkpt><trkpt lat="43.87091355026769" lon="11.04211951996391"><ele>41.0</ele><time>2026-05-01T10:39:20Z</time></trkpt><trkpt lat="43.870740317151125" lon="11.042499139536735"><ele>41.0</ele><time>2026-05-01T10:39:21Z</time></trkpt><trkpt lat="43.87057120968799" lon="11.042885209225563"><ele>41.0</ele><time>2026-05-01T10:39:22Z</time></trkpt><trkpt lat="43.87040460227703" lon="11.043276385441242"><ele>40.5</ele><time>2026-05-01T10:39:23Z</time></trkpt><trkpt lat="43.87024034230242" lon="11.043666247815915"><ele>40.0</ele><time>2026-05-01T10:39:24Z</time></trkpt><trkpt lat="43.87007674490741" lon="11.04405205478933"><ele>40.5</ele><time>2026-05-01T10:39:24.999Z</time></trkpt><trkpt lat="43.86991200422141" lon="11.04443868807929"><ele>41.0</ele><time>2026-05-01T10:39:25.999Z</time></trkpt><trkpt lat="43.86974537609374" lon="11.044829294509638"><ele>41.5</ele><time>2026-05-01T10:39:26.999Z</time></trkpt><trkpt lat="43.86957796582156" lon="11.045218437207264"><ele>42.0</ele><time>2026-05-01T10:39:27.999Z</time></trkpt><trkpt lat="43.86940962013627" lon="11.045609133089297"><ele>42.5</ele><time>2026-05-01T10:39:28.999Z</time></trkpt><trkpt lat="43.869240730941264" lon="11.045998238638258"><ele>43.0</ele><time>2026-05-01T10:39:29.999Z</time></trkpt><trkpt lat="43.8690699853523" lon="11.04638658885159"><ele>42.5</ele><time>2026-05-01T10:39:30.999Z</time></trkpt><trkpt lat="43.86889986239453" lon="11.046772003472794"><ele>42.0</ele><time>2026-05-01T10:39:31.999Z</time></trkpt><trkpt lat="43.868732568364706" lon="11.047157082495206"><ele>41.5</ele><time>2026-05-01T10:39:32.999Z</time></trkpt><trkpt lat="43.86856535984247" lon="11.047539194222525"><ele>41.0</ele><time>2026-05-01T10:39:33.999Z</time></trkpt><trkpt lat="43.86839789560115" lon="11.047921450006841"><ele>41.0</ele><time>2026-05-01T10:39:34.999Z</time></trkpt><trkpt lat="43.86823044572305" lon="11.048303092396152"><ele>41.0</ele><time>2026-05-01T10:39:35.999Z</time></trkpt><trkpt lat="43.86806285478597" lon="11.04868402767534"><ele>41.0</ele><time>2026-05-01T10:39:36.999Z</time></trkpt><trkpt lat="43.86789288471982" lon="11.049065353076465"><ele>41.0</ele><time>2026-05-01T10:39:38.001Z</time></trkpt><trkpt lat="43.86772255259147" lon="11.049448059795429"><ele>42.0</ele><time>2026-05-01T10:39:39.001Z</time></trkpt><trkpt lat="43.86755399868812" lon="11.049832111942568"><ele>43.0</ele><time>2026-05-01T10:39:40.001Z</time></trkpt><trkpt lat="43.8673848747094" lon="11.05021825844957"><ele>43.0</ele><time>2026-05-01T10:39:41.001Z</time></trkpt><trkpt lat="43.86721576701721" lon="11.050603615989626"><ele>43.0</ele><time>2026-05-01T10:39:42.001Z</time></trkpt><trkpt lat="43.86704774371831" lon="11.050987997997797"><ele>43.0</ele><time>2026-05-01T10:39:43.001Z</time></trkpt><trkpt lat="43.866879082034124" lon="11.051373103541323"><ele>43.0</ele><time>2026-05-01T10:39:44.001Z</time></trkpt><trkpt lat="43.86670828347526" lon="11.051757119137516"><ele>43.0</ele><time>2026-05-01T10:39:45.001Z</time></trkpt><trkpt lat="43.86653927807219" lon="11.052138664319585"><ele>43.0</ele><time>2026-05-01T10:39:46.001Z</time></trkpt><trkpt lat="43.86637045643073" lon="11.052521060575614"><ele>43.0</ele><time>2026-05-01T10:39:47.001Z</time></trkpt><trkpt lat="43.8662022033664" lon="11.052904414545683"><ele>43.0</ele><time>2026-05-01T10:39:48.001Z</time></trkpt><trkpt lat="43.86603419671348" lon="11.053288880261492"><ele>42.5</ele><time>2026-05-01T10:39:49.001Z</time></trkpt><trkpt lat="43.865862304824" lon="11.053676585258719"><ele>42.0</ele><time>2026-05-01T10:39:50.001Z</time></trkpt><trkpt lat="43.865691122483334" lon="11.054064311058719"><ele>43.5</ele><time>2026-05-01T10:39:51.001Z</time></trkpt><trkpt lat="43.86552264814901" lon="11.054446765147588"><ele>45.0</ele><time>2026-05-01T10:39:52.001Z</time></trkpt><trkpt lat="43.865352530734526" lon="11.054829052246422"><ele>44.5</ele><time>2026-05-01T10:39:53.001Z</time></trkpt><trkpt lat="43.865183064736684" lon="11.055206419086076"><ele>44.0</ele><time>2026-05-01T10:39:54.001Z</time></trkpt><trkpt lat="43.86501227901625" lon="11.055583198629714"><ele>44.0</ele><time>2026-05-01T10:39:55.001Z</time></trkpt><trkpt lat="43.86484407137801" lon="11.055960277237713"><ele>44.0</ele><time>2026-05-01T10:39:56.001Z</time></trkpt><trkpt lat="43.864678508051995" lon="11.056339545596696"><ele>43.0</ele><time>2026-05-01T10:39:57.001Z</time></trkpt><trkpt lat="43.864512970570466" lon="11.056723302668573"><ele>42.0</ele><time>2026-05-01T10:39:58.001Z</time></trkpt><trkpt lat="43.86434576246694" lon="11.057110530429187"><ele>42.0</ele><time>2026-05-01T10:39:59.001Z</time></trkpt><trkpt lat="43.864175671208194" lon="11.057496919956613"><ele>42.0</ele><time>2026-05-01T10:40:00.001Z</time></trkpt><trkpt lat="43.864004151561545" lon="11.05788369642409"><ele>42.0</ele><time>2026-05-01T10:40:01.001Z</time></trkpt><trkpt lat="43.86383168359638" lon="11.058277518244788"><ele>42.0</ele><time>2026-05-01T10:40:02.001Z</time></trkpt><trkpt lat="43.86366030920739" lon="11.058677394789214"><ele>42.0</ele><time>2026-05-01T10:40:03.001Z</time></trkpt><trkpt lat="43.86349041176355" lon="11.059072616874394"><ele>42.0</ele><time>2026-05-01T10:40:04.001Z</time></trkpt><trkpt lat="43.86332396488857" lon="11.059469030523298"><ele>42.0</ele><time>2026-05-01T10:40:05Z</time></trkpt><trkpt lat="43.86315602303539" lon="11.059864873649444"><ele>42.0</ele><time>2026-05-01T10:40:06Z</time></trkpt><trkpt lat="43.862986351864784" lon="11.060260108046016"><ele>40.5</ele><time>2026-05-01T10:40:07Z</time></trkpt><trkpt lat="43.862815776443135" lon="11.060653808000097"><ele>39.0</ele><time>2026-05-01T10:40:08Z</time></trkpt><trkpt lat="43.862643623923645" lon="11.061048049711697"><ele>40.0</ele><time>2026-05-01T10:40:09Z</time></trkpt><trkpt lat="43.862467925336986" lon="11.061445157923552"><ele>41.0</ele><time>2026-05-01T10:40:10Z</time></trkpt><trkpt lat="43.86229363415307" lon="11.061839096840773"><ele>41.0</ele><time>2026-05-01T10:40:11Z</time></trkpt><trkpt lat="43.862119651300475" lon="11.062231373587831"><ele>41.0</ele><time>2026-05-01T10:40:12Z</time></trkpt><trkpt lat="43.86194570409202" lon="11.062622609326189"><ele>41.0</ele><time>2026-05-01T10:40:13Z</time></trkpt><trkpt lat="43.8617708275653" lon="11.063015490343352"><ele>41.0</ele><time>2026-05-01T10:40:14Z</time></trkpt><trkpt lat="43.86159761529772" lon="11.063409013445444"><ele>41.5</ele><time>2026-05-01T10:40:15Z</time></trkpt><trkpt lat="43.86142364601066" lon="11.063805174190147"><ele>42.0</ele><time>2026-05-01T10:40:16Z</time></trkpt><trkpt lat="43.86125102427501" lon="11.06420101997618"><ele>42.5</ele><time>2026-05-01T10:40:17Z</time></trkpt><trkpt lat="43.86107952901734" lon="11.064592666889938"><ele>43.0</ele><time>2026-05-01T10:40:18Z</time></trkpt><trkpt lat="43.860907580130466" lon="11.064977283332606"><ele>43.0</ele><time>2026-05-01T10:40:19Z</time></trkpt><trkpt lat="43.86073520905485" lon="11.065357814819237"><ele>43.0</ele><time>2026-05-01T10:40:20Z</time></trkpt><trkpt lat="43.86056471078925" lon="11.065732836855455"><ele>44.5</ele><time>2026-05-01T10:40:21Z</time></trkpt><trkpt lat="43.86039079178311" lon="11.06611309431468"><ele>46.0</ele><time>2026-05-01T10:40:22Z</time></trkpt><trkpt lat="43.86021944145324" lon="11.066496234910865"><ele>46.0</ele><time>2026-05-01T10:40:23Z</time></trkpt><trkpt lat="43.860048475248895" lon="11.066882198410358"><ele>46.0</ele><time>2026-05-01T10:40:24Z</time></trkpt><trkpt lat="43.85987581362405" lon="11.06726602225233"><ele>46.0</ele><time>2026-05-01T10:40:25Z</time></trkpt><trkpt lat="43.85970381211287" lon="11.067650875413321"><ele>46.0</ele><time>2026-05-01T10:40:26Z</time></trkpt><trkpt lat="43.85953146353799" lon="11.06804198593171"><ele>45.0</ele><time>2026-05-01T10:40:27Z</time></trkpt><trkpt lat="43.85936128756632" lon="11.0684318500344"><ele>44.0</ele><time>2026-05-01T10:40:28Z</time></trkpt><trkpt lat="43.859189748395934" lon="11.0688249197167"><ele>45.0</ele><time>2026-05-01T10:40:29Z</time></trkpt><trkpt lat="43.85901782724779" lon="11.069220006725962"><ele>46.0</ele><time>2026-05-01T10:40:30Z</time></trkpt><trkpt lat="43.85884455243517" lon="11.069616555168968"><ele>45.0</ele><time>2026-05-01T10:40:31Z</time></trkpt><trkpt lat="43.858670599565826" lon="11.070013351929202"><ele>44.0</ele><time>2026-05-01T10:40:32Z</time></trkpt><trkpt lat="43.85849677575087" lon="11.070408219964705"><ele>42.5</ele><time>2026-05-01T10:40:33Z</time></trkpt><trkpt lat="43.858320781511104" lon="11.070804677632717"><ele>41.0</ele><time>2026-05-01T10:40:34Z</time></trkpt><trkpt lat="43.858148715901216" lon="11.071202422161969"><ele>41.0</ele><time>2026-05-01T10:40:35Z</time></trkpt><trkpt lat="43.85797963594038" lon="11.071604143120663"><ele>41.0</ele><time>2026-05-01T10:40:36Z</time></trkpt><trkpt lat="43.85782102667417" lon="11.072012306569606"><ele>41.0</ele><time>2026-05-01T10:40:37Z</time></trkpt><trkpt lat="43.85766728475031" lon="11.07242556002853"><ele>41.0</ele><time>2026-05-01T10:40:38Z</time></trkpt><trkpt lat="43.85751702313479" lon="11.072839848439882"><ele>41.5</ele><time>2026-05-01T10:40:39Z</time></trkpt><trkpt lat="43.857373062263036" lon="11.073254734003527"><ele>42.0</ele><time>2026-05-01T10:40:40Z</time></trkpt><trkpt lat="43.8572350696544" lon="11.073674094394518"><ele>42.5</ele><time>2026-05-01T10:40:41Z</time></trkpt><trkpt lat="43.85710031416088" lon="11.074095070235074"><ele>43.0</ele><time>2026-05-01T10:40:42Z</time></trkpt><trkpt lat="43.856968048700274" lon="11.07451779895658"><ele>43.0</ele><time>2026-05-01T10:40:43Z</time></trkpt><trkpt lat="43.85683917719344" lon="11.074943891000519"><ele>43.0</ele><time>2026-05-01T10:40:44Z</time></trkpt><trkpt lat="43.856720332290344" lon="11.075376421904867"><ele>43.0</ele><time>2026-05-01T10:40:45Z</time></trkpt><trkpt lat="43.85660665496302" lon="11.075810483609992"><ele>43.0</ele><time>2026-05-01T10:40:46Z</time></trkpt><trkpt lat="43.85649579113251" lon="11.076245462918884"><ele>41.5</ele><time>2026-05-01T10:40:47Z</time></trkpt><trkpt lat="43.856389655642076" lon="11.076679058694827"><ele>40.0</ele><time>2026-05-01T10:40:48Z</time></trkpt><trkpt lat="43.856287328447486" lon="11.07711331538522"><ele>40.5</ele><time>2026-05-01T10:40:49Z</time></trkpt><trkpt lat="43.85618651955825" lon="11.077547689990157"><ele>41.0</ele><time>2026-05-01T10:40:50Z</time></trkpt><trkpt lat="43.85609160071746" lon="11.07798535941477"><ele>41.5</ele><time>2026-05-01T10:40:51Z</time></trkpt><trkpt lat="43.856001625632416" lon="11.078423090425098"><ele>42.0</ele><time>2026-05-01T10:40:52Z</time></trkpt><trkpt lat="43.85591432558823" lon="11.078866385883318"><ele>42.5</ele><time>2026-05-01T10:40:53Z</time></trkpt><trkpt lat="43.85582997161059" lon="11.079314811374552"><ele>43.0</ele><time>2026-05-01T10:40:54Z</time></trkpt><trkpt lat="43.855751391641796" lon="11.079764495227643"><ele>42.5</ele><time>2026-05-01T10:40:55Z</time></trkpt><trkpt lat="43.855677976381095" lon="11.080212647422174"><ele>42.0</ele><time>2026-05-01T10:40:56Z</time></trkpt><trkpt lat="43.85560952363206" lon="11.08066486135836"><ele>42.5</ele><time>2026-05-01T10:40:57Z</time></trkpt><trkpt lat="43.85554682194644" lon="11.081107296790297"><ele>43.0</ele><time>2026-05-01T10:40:58Z</time></trkpt><trkpt lat="43.855486655081435" lon="11.081552208814717"><ele>43.0</ele><time>2026-05-01T10:40:59Z</time></trkpt><trkpt lat="43.85543126290861" lon="11.081998006457685"><ele>43.0</ele><time>2026-05-01T10:41:00Z</time></trkpt><trkpt lat="43.85538171168327" lon="11.082443933914304"><ele>43.5</ele><time>2026-05-01T10:41:01Z</time></trkpt><trkpt lat="43.85533619074781" lon="11.082894035827797"><ele>44.0</ele><time>2026-05-01T10:41:02Z</time></trkpt><trkpt lat="43.85529528565599" lon="11.083344861342926"><ele>45.5</ele><time>2026-05-01T10:41:03Z</time></trkpt><trkpt lat="43.85526029399632" lon="11.083801779022906"><ele>47.0</ele><time>2026-05-01T10:41:04Z</time></trkpt><trkpt lat="43.855231807443786" lon="11.08425928981496"><ele>47.5</ele><time>2026-05-01T10:41:05Z</time></trkpt><trkpt lat="43.85520930110529" lon="11.0847209798315"><ele>48.0</ele><time>2026-05-01T10:41:06Z</time></trkpt><trkpt lat="43.85519061099717" lon="11.08518448219945"><ele>46.5</ele><time>2026-05-01T10:41:07Z</time></trkpt><trkpt lat="43.855175719320535" lon="11.085647866538928"><ele>45.0</ele><time>2026-05-01T10:41:08Z</time></trkpt><trkpt lat="43.85516691231127" lon="11.086110736504466"><ele>45.0</ele><time>2026-05-01T10:41:09Z</time></trkpt><trkpt lat="43.8551623125009" lon="11.086574805776559"><ele>45.0</ele><time>2026-05-01T10:41:10Z</time></trkpt><trkpt lat="43.855161065344554" lon="11.08703946286012"><ele>43.5</ele><time>2026-05-01T10:41:11Z</time></trkpt><trkpt lat="43.85515997108149" lon="11.087501585912587"><ele>42.0</ele><time>2026-05-01T10:41:12Z</time></trkpt><trkpt lat="43.8551594470198" lon="11.087964382055949"><ele>42.5</ele><time>2026-05-01T10:41:13Z</time></trkpt><trkpt lat="43.855158613337146" lon="11.088427238633704"><ele>43.0</ele><time>2026-05-01T10:41:14Z</time></trkpt><trkpt lat="43.85515921224612" lon="11.0888916729907"><ele>44.0</ele><time>2026-05-01T10:41:15Z</time></trkpt><trkpt lat="43.85516148675333" lon="11.089354864925024"><ele>45.0</ele><time>2026-05-01T10:41:16Z</time></trkpt><trkpt lat="43.855165322978294" lon="11.089815992449967"><ele>44.0</ele><time>2026-05-01T10:41:17Z</time></trkpt><trkpt lat="43.85516856314997" lon="11.090277486963101"><ele>43.0</ele><time>2026-05-01T10:41:18Z</time></trkpt><trkpt lat="43.85516962984937" lon="11.090736875590375"><ele>42.5</ele><time>2026-05-01T10:41:19Z</time></trkpt><trkpt lat="43.85516913858261" lon="11.091194389506832"><ele>42.0</ele><time>2026-05-01T10:41:20Z</time></trkpt><trkpt lat="43.855168269128754" lon="11.091649998016848"><ele>43.5</ele><time>2026-05-01T10:41:21Z</time></trkpt><trkpt lat="43.85516683055419" lon="11.092104623623376"><ele>45.0</ele><time>2026-05-01T10:41:22Z</time></trkpt><trkpt lat="43.85516362104217" lon="11.092561162256827"><ele>45.0</ele><time>2026-05-01T10:41:23Z</time></trkpt><trkpt lat="43.85515980453149" lon="11.093019048900327"><ele>45.0</ele><time>2026-05-01T10:41:24Z</time></trkpt><trkpt lat="43.85515564703144" lon="11.093478813489698"><ele>45.0</ele><time>2026-05-01T10:41:25Z</time></trkpt><trkpt lat="43.85515337339251" lon="11.093937335996337"><ele>45.0</ele><time>2026-05-01T10:41:26Z</time></trkpt><trkpt lat="43.855149725864365" lon="11.094396795752552"><ele>45.0</ele><time>2026-05-01T10:41:27Z</time></trkpt><trkpt lat="43.85514623828669" lon="11.094855267108816"><ele>45.0</ele><time>2026-05-01T10:41:28Z</time></trkpt><trkpt lat="43.85514144924596" lon="11.095316170793623"><ele>45.5</ele><time>2026-05-01T10:41:29Z</time></trkpt><trkpt lat="43.85513672585713" lon="11.095778333332209"><ele>46.0</ele><time>2026-05-01T10:41:30Z</time></trkpt><trkpt lat="43.85513066744688" lon="11.0962437689"><ele>45.0</ele><time>2026-05-01T10:41:30.999Z</time></trkpt><trkpt lat="43.85512506828123" lon="11.096708825305528"><ele>44.0</ele><time>2026-05-01T10:41:31.999Z</time></trkpt><trkpt lat="43.85511983072594" lon="11.09717252454137"><ele>43.0</ele><time>2026-05-01T10:41:32.999Z</time></trkpt><trkpt lat="43.855116317920924" lon="11.097635538491756"><ele>42.0</ele><time>2026-05-01T10:41:33.999Z</time></trkpt><trkpt lat="43.85511291287287" lon="11.098097360801905"><ele>43.5</ele><time>2026-05-01T10:41:34.999Z</time></trkpt><trkpt lat="43.85510980201311" lon="11.098558993950952"><ele>45.0</ele><time>2026-05-01T10:41:35.999Z</time></trkpt><trkpt lat="43.85510766830041" lon="11.099016804126443"><ele>45.0</ele><time>2026-05-01T10:41:36.999Z</time></trkpt><trkpt lat="43.85510427596964" lon="11.099476220455214"><ele>45.0</ele><time>2026-05-01T10:41:37.999Z</time></trkpt><trkpt lat="43.85510098613854" lon="11.099934504245565"><ele>44.5</ele><time>2026-05-01T10:41:38.999Z</time></trkpt><trkpt lat="43.85509726197655" lon="11.100392862662678"><ele>44.0</ele><time>2026-05-01T10:41:39.999Z</time></trkpt><trkpt lat="43.855095309737955" lon="11.100850418797418"><ele>44.5</ele><time>2026-05-01T10:41:40.999Z</time></trkpt><trkpt lat="43.855094860689974" lon="11.101306798825421"><ele>45.0</ele><time>2026-05-01T10:41:41.999Z</time></trkpt><trkpt lat="43.85509496830841" lon="11.101761343395715"><ele>45.0</ele><time>2026-05-01T10:41:43.001Z</time></trkpt><trkpt lat="43.85509399928022" lon="11.102214080217356"><ele>45.0</ele><time>2026-05-01T10:41:44.001Z</time></trkpt><trkpt lat="43.85509285247091" lon="11.102667431699015"><ele>44.0</ele><time>2026-05-01T10:41:45.001Z</time></trkpt><trkpt lat="43.855091027392014" lon="11.103123071640889"><ele>43.0</ele><time>2026-05-01T10:41:46.001Z</time></trkpt><trkpt lat="43.85508975895686" lon="11.103576825521685"><ele>43.0</ele><time>2026-05-01T10:41:47.001Z</time></trkpt><trkpt lat="43.8550885902692" lon="11.104029366335661"><ele>43.0</ele><time>2026-05-01T10:41:48.001Z</time></trkpt><trkpt lat="43.85508654615535" lon="11.104481686366551"><ele>43.5</ele><time>2026-05-01T10:41:49.001Z</time></trkpt><trkpt lat="43.8550830829871" lon="11.104932343761382"><ele>44.0</ele><time>2026-05-01T10:41:50.001Z</time></trkpt><trkpt lat="43.85507909645989" lon="11.105384513538644"><ele>45.5</ele><time>2026-05-01T10:41:51.001Z</time></trkpt><trkpt lat="43.85507804158005" lon="11.105836724413068"><ele>47.0</ele><time>2026-05-01T10:41:52.001Z</time></trkpt><trkpt lat="43.85507802927448" lon="11.106285605199862"><ele>46.5</ele><time>2026-05-01T10:41:53.001Z</time></trkpt><trkpt lat="43.85507660041483" lon="11.106735425144008"><ele>46.0</ele><time>2026-05-01T10:41:54.001Z</time></trkpt><trkpt lat="43.85507339878581" lon="11.107185364088904"><ele>45.5</ele><time>2026-05-01T10:41:55.001Z</time></trkpt><trkpt lat="43.8550712498276" lon="11.107633939856283"><ele>45.0</ele><time>2026-05-01T10:41:56.001Z</time></trkpt><trkpt lat="43.85506859353475" lon="11.10808129580601"><ele>45.5</ele><time>2026-05-01T10:41:57.001Z</time></trkpt><trkpt lat="43.85506624178059" lon="11.10852884540319"><ele>46.0</ele><time>2026-05-01T10:41:58.001Z</time></trkpt><trkpt lat="43.85506408476208" lon="11.10897777720551"><ele>44.5</ele><time>2026-05-01T10:41:59.001Z</time></trkpt><trkpt lat="43.85506193063168" lon="11.109427195835485"><ele>43.0</ele><time>2026-05-01T10:42:00.001Z</time></trkpt><trkpt lat="43.85505707736317" lon="11.109876812245053"><ele>43.0</ele><time>2026-05-01T10:42:01.001Z</time></trkpt><trkpt lat="43.855046015450796" lon="11.110325620738541"><ele>43.0</ele><time>2026-05-01T10:42:02.001Z</time></trkpt><trkpt lat="43.85502738100074" lon="11.110774193503895"><ele>43.0</ele><time>2026-05-01T10:42:03.001Z</time></trkpt><trkpt lat="43.854998629905815" lon="11.111226009704083"><ele>43.0</ele><time>2026-05-01T10:42:04.001Z</time></trkpt><trkpt lat="43.85496048922741" lon="11.111677645256739"><ele>43.5</ele><time>2026-05-01T10:42:05.001Z</time></trkpt><trkpt lat="43.854914519097974" lon="11.1121254183496"><ele>44.0</ele><time>2026-05-01T10:42:06.001Z</time></trkpt><trkpt lat="43.854855254241635" lon="11.112567005633638"><ele>44.0</ele><time>2026-05-01T10:42:07Z</time></trkpt><trkpt lat="43.85478404545693" lon="11.113007233226728"><ele>44.0</ele><time>2026-05-01T10:42:08Z</time></trkpt><trkpt lat="43.85470283708803" lon="11.11344397504164"><ele>44.0</ele><time>2026-05-01T10:42:09Z</time></trkpt><trkpt lat="43.854611090638834" lon="11.113874159477204"><ele>44.0</ele><time>2026-05-01T10:42:10Z</time></trkpt><trkpt lat="43.85450399158031" lon="11.114298394644514"><ele>44.0</ele><time>2026-05-01T10:42:11Z</time></trkpt><trkpt lat="43.854386084174905" lon="11.114721637558626"><ele>44.0</ele><time>2026-05-01T10:42:12Z</time></trkpt><trkpt lat="43.85426118782724" lon="11.115144189622965"><ele>45.0</ele><time>2026-05-01T10:42:13Z</time></trkpt><trkpt lat="43.8541341821391" lon="11.115563838451742"><ele>46.0</ele><time>2026-05-01T10:42:14Z</time></trkpt><trkpt lat="43.85400619797098" lon="11.115985234945915"><ele>46.0</ele><time>2026-05-01T10:42:15Z</time></trkpt><trkpt lat="43.853879816065344" lon="11.116409804292735"><ele>46.0</ele><time>2026-05-01T10:42:16Z</time></trkpt><trkpt lat="43.8537559283288" lon="11.11683546255358"><ele>46.0</ele><time>2026-05-01T10:42:17Z</time></trkpt><trkpt lat="43.85363347522525" lon="11.117263775566983"><ele>46.0</ele><time>2026-05-01T10:42:18Z</time></trkpt><trkpt lat="43.85351297381659" lon="11.117692562536478"><ele>46.5</ele><time>2026-05-01T10:42:19Z</time></trkpt><trkpt lat="43.85339209481621" lon="11.118121250501854"><ele>47.0</ele><time>2026-05-01T10:42:20Z</time></trkpt><trkpt lat="43.85327080036134" lon="11.11854590390032"><ele>47.0</ele><time>2026-05-01T10:42:21Z</time></trkpt><trkpt lat="43.85314997595659" lon="11.118962561126581"><ele>47.0</ele><time>2026-05-01T10:42:22Z</time></trkpt><trkpt lat="43.8530287142698" lon="11.119369975204801"><ele>47.0</ele><time>2026-05-01T10:42:23Z</time></trkpt><trkpt lat="43.852901907710084" lon="11.119779554829053"><ele>47.0</ele><time>2026-05-01T10:42:24Z</time></trkpt><trkpt lat="43.852764608077415" lon="11.12018548460089"><ele>47.0</ele><time>2026-05-01T10:42:25Z</time></trkpt><trkpt lat="43.85261449807476" lon="11.120585286415714"><ele>47.0</ele><time>2026-05-01T10:42:26Z</time></trkpt><trkpt lat="43.85245116602275" lon="11.120976280907591"><ele>46.5</ele><time>2026-05-01T10:42:27Z</time></trkpt><trkpt lat="43.8522695288042" lon="11.12135259488094"><ele>46.0</ele><time>2026-05-01T10:42:28Z</time></trkpt><trkpt lat="43.852071035167036" lon="11.121717775755377"><ele>46.0</ele><time>2026-05-01T10:42:29Z</time></trkpt><trkpt lat="43.85186029780549" lon="11.122075830868972"><ele>46.0</ele><time>2026-05-01T10:42:30Z</time></trkpt><trkpt lat="43.85163934372321" lon="11.12242515346806"><ele>46.0</ele><time>2026-05-01T10:42:31Z</time></trkpt><trkpt lat="43.851412169612786" lon="11.122767894354903"><ele>46.0</ele><time>2026-05-01T10:42:32Z</time></trkpt><trkpt lat="43.85118270470832" lon="11.123109037599995"><ele>45.0</ele><time>2026-05-01T10:42:33Z</time></trkpt><trkpt lat="43.850957020691936" lon="11.123453292881175"><ele>44.0</ele><time>2026-05-01T10:42:34Z</time></trkpt><trkpt lat="43.85073371084487" lon="11.123801314242531"><ele>45.0</ele><time>2026-05-01T10:42:35Z</time></trkpt><trkpt lat="43.85050818621578" lon="11.124153879313393"><ele>46.0</ele><time>2026-05-01T10:42:36Z</time></trkpt><trkpt lat="43.85027977345427" lon="11.124506785463616"><ele>46.0</ele><time>2026-05-01T10:42:37Z</time></trkpt><trkpt lat="43.850049962625626" lon="11.124859923833363"><ele>46.0</ele><time>2026-05-01T10:42:38Z</time></trkpt><trkpt lat="43.84981963186244" lon="11.125213128830408"><ele>46.0</ele><time>2026-05-01T10:42:39Z</time></trkpt><trkpt lat="43.849589847390156" lon="11.12556642770327"><ele>46.0</ele><time>2026-05-01T10:42:40Z</time></trkpt><trkpt lat="43.84936103686892" lon="11.125923190558623"><ele>45.5</ele><time>2026-05-01T10:42:41Z</time></trkpt><trkpt lat="43.84913366093965" lon="11.126281693570299"><ele>45.0</ele><time>2026-05-01T10:42:42Z</time></trkpt><trkpt lat="43.848906842450305" lon="11.126638671394876"><ele>45.5</ele><time>2026-05-01T10:42:43Z</time></trkpt><trkpt lat="43.848679097035095" lon="11.1269968683423"><ele>46.0</ele><time>2026-05-01T10:42:44Z</time></trkpt><trkpt lat="43.84845585608746" lon="11.12735099158587"><ele>46.5</ele><time>2026-05-01T10:42:45Z</time></trkpt><trkpt lat="43.848228541293125" lon="11.127707306928805"><ele>47.0</ele><time>2026-05-01T10:42:46Z</time></trkpt><trkpt lat="43.84800050847567" lon="11.128061277329802"><ele>47.0</ele><time>2026-05-01T10:42:47Z</time></trkpt><trkpt lat="43.84777416738947" lon="11.128410412925957"><ele>47.0</ele><time>2026-05-01T10:42:48Z</time></trkpt><trkpt lat="43.847548892289296" lon="11.128755475562146"><ele>46.5</ele><time>2026-05-01T10:42:49Z</time></trkpt><trkpt lat="43.84732316123858" lon="11.129100918355348"><ele>46.0</ele><time>2026-05-01T10:42:50Z</time></trkpt><trkpt lat="43.84710087921217" lon="11.129443095423825"><ele>46.0</ele><time>2026-05-01T10:42:51Z</time></trkpt><trkpt lat="43.846875874050525" lon="11.129786782384018"><ele>46.0</ele><time>2026-05-01T10:42:52Z</time></trkpt><trkpt lat="43.846652588239806" lon="11.130130437482235"><ele>46.0</ele><time>2026-05-01T10:42:53Z</time></trkpt><trkpt lat="43.846432849639484" lon="11.13047428249915"><ele>46.0</ele><time>2026-05-01T10:42:54Z</time></trkpt><trkpt lat="43.84621403936118" lon="11.130817627686003"><ele>46.0</ele><time>2026-05-01T10:42:55Z</time></trkpt><trkpt lat="43.84599655614965" lon="11.131159509074319"><ele>46.0</ele><time>2026-05-01T10:42:56Z</time></trkpt><trkpt lat="43.84578015070269" lon="11.131499629065162"><ele>46.5</ele><time>2026-05-01T10:42:57Z</time></trkpt><trkpt lat="43.845562044104454" lon="11.13184018128518"><ele>47.0</ele><time>2026-05-01T10:42:58Z</time></trkpt><trkpt lat="43.84534244420693" lon="11.132181775149311"><ele>46.0</ele><time>2026-05-01T10:42:59Z</time></trkpt><trkpt lat="43.845123019717605" lon="11.132523311971566"><ele>45.0</ele><time>2026-05-01T10:43:00Z</time></trkpt><trkpt lat="43.84490341568547" lon="11.132863859999985"><ele>45.0</ele><time>2026-05-01T10:43:01Z</time></trkpt><trkpt lat="43.84468318931431" lon="11.133202137687887"><ele>45.0</ele><time>2026-05-01T10:43:02Z</time></trkpt><trkpt lat="43.8444620589463" lon="11.133540136525042"><ele>44.5</ele><time>2026-05-01T10:43:03Z</time></trkpt><trkpt lat="43.84424494568808" lon="11.133873425004763"><ele>44.0</ele><time>2026-05-01T10:43:04Z</time></trkpt><trkpt lat="43.84403125349691" lon="11.134202741140077"><ele>45.0</ele><time>2026-05-01T10:43:05Z</time></trkpt><trkpt lat="43.84382008418207" lon="11.13453057545422"><ele>46.0</ele><time>2026-05-01T10:43:06Z</time></trkpt><trkpt lat="43.84361235505616" lon="11.134858291853694"><ele>45.5</ele><time>2026-05-01T10:43:07Z</time></trkpt><trkpt lat="43.84340661601482" lon="11.135182673595965"><ele>45.0</ele><time>2026-05-01T10:43:08Z</time></trkpt><trkpt lat="43.843197995158725" lon="11.135509577256146"><ele>44.5</ele><time>2026-05-01T10:43:09Z</time></trkpt><trkpt lat="43.842985847261325" lon="11.135838187108053"><ele>44.0</ele><time>2026-05-01T10:43:10Z</time></trkpt><trkpt lat="43.842772224400484" lon="11.136170604354032"><ele>44.5</ele><time>2026-05-01T10:43:11Z</time></trkpt><trkpt lat="43.84255709099187" lon="11.136500382967416"><ele>45.0</ele><time>2026-05-01T10:43:12Z</time></trkpt><trkpt lat="43.842343647470976" lon="11.136826652979982"><ele>44.0</ele><time>2026-05-01T10:43:13Z</time></trkpt><trkpt lat="43.84212734000795" lon="11.137152028710215"><ele>43.0</ele><time>2026-05-01T10:43:14Z</time></trkpt><trkpt lat="43.841910550179534" lon="11.137478457598199"><ele>44.0</ele><time>2026-05-01T10:43:15Z</time></trkpt><trkpt lat="43.84169361407095" lon="11.137807344044347"><ele>45.0</ele><time>2026-05-01T10:43:16Z</time></trkpt><trkpt lat="43.84147414330671" lon="11.138137172932595"><ele>45.0</ele><time>2026-05-01T10:43:17Z</time></trkpt><trkpt lat="43.841255864426394" lon="11.13846835058169"><ele>45.0</ele><time>2026-05-01T10:43:18Z</time></trkpt><trkpt lat="43.841034812425654" lon="11.138803467185738"><ele>43.5</ele><time>2026-05-01T10:43:19Z</time></trkpt><trkpt lat="43.840814183568206" lon="11.13914182210883"><ele>42.0</ele><time>2026-05-01T10:43:20Z</time></trkpt><trkpt lat="43.840592913258256" lon="11.139480291560306"><ele>42.0</ele><time>2026-05-01T10:43:21Z</time></trkpt><trkpt lat="43.840373823620176" lon="11.139818738188177"><ele>42.0</ele><time>2026-05-01T10:43:22Z</time></trkpt><trkpt lat="43.84015318420166" lon="11.140157104572637"><ele>41.5</ele><time>2026-05-01T10:43:22.999Z</time></trkpt><trkpt lat="43.8399309227903" lon="11.140497965503144"><ele>41.0</ele><time>2026-05-01T10:43:23.999Z</time></trkpt><trkpt lat="43.83970962622091" lon="11.140840075881655"><ele>41.0</ele><time>2026-05-01T10:43:24.999Z</time></trkpt><trkpt lat="43.83948930253508" lon="11.141180071823815"><ele>41.0</ele><time>2026-05-01T10:43:25.999Z</time></trkpt><trkpt lat="43.839267949380975" lon="11.141520642674385"><ele>41.0</ele><time>2026-05-01T10:43:26.999Z</time></trkpt><trkpt lat="43.83904765431484" lon="11.141859666715906"><ele>41.0</ele><time>2026-05-01T10:43:27.999Z</time></trkpt><trkpt lat="43.83882800458299" lon="11.14220119547487"><ele>41.0</ele><time>2026-05-01T10:43:28.999Z</time></trkpt><trkpt lat="43.83860927528182" lon="11.142543041283343"><ele>41.0</ele><time>2026-05-01T10:43:29.999Z</time></trkpt><trkpt lat="43.838388914990105" lon="11.142885347021414"><ele>41.5</ele><time>2026-05-01T10:43:30.999Z</time></trkpt><trkpt lat="43.83816850425288" lon="11.1432268555623"><ele>42.0</ele><time>2026-05-01T10:43:31.999Z</time></trkpt><trkpt lat="43.83794754302842" lon="11.143568139122465"><ele>42.0</ele><time>2026-05-01T10:43:32.999Z</time></trkpt><trkpt lat="43.837727748567296" lon="11.1439066029406"><ele>42.0</ele><time>2026-05-01T10:43:33.999Z</time></trkpt><trkpt lat="43.83750701990982" lon="11.14424381264751"><ele>41.5</ele><time>2026-05-01T10:43:34.999Z</time></trkpt><trkpt lat="43.837289323414865" lon="11.144580565350822"><ele>41.0</ele><time>2026-05-01T10:43:35.999Z</time></trkpt><trkpt lat="43.83707273501242" lon="11.144916336157214"><ele>41.0</ele><time>2026-05-01T10:43:36.999Z</time></trkpt><trkpt lat="43.83685780310795" lon="11.145249026032316"><ele>41.0</ele><time>2026-05-01T10:43:37.999Z</time></trkpt><trkpt lat="43.836645314096266" lon="11.14557698068859"><ele>42.0</ele><time>2026-05-01T10:43:38.999Z</time></trkpt><trkpt lat="43.836432977074026" lon="11.145902858718967"><ele>43.0</ele><time>2026-05-01T10:43:39.999Z</time></trkpt><trkpt lat="43.836219296337866" lon="11.146232759261109"><ele>42.5</ele><time>2026-05-01T10:43:40.999Z</time></trkpt><trkpt lat="43.836002986226255" lon="11.14656768163397"><ele>42.0</ele><time>2026-05-01T10:43:41.999Z</time></trkpt><trkpt lat="43.835784760809" lon="11.14690621815431"><ele>42.0</ele><time>2026-05-01T10:43:42.999Z</time></trkpt><trkpt lat="43.83556691470327" lon="11.147245659038143"><ele>42.0</ele><time>2026-05-01T10:43:43.999Z</time></trkpt><trkpt lat="43.835351346786" lon="11.147580800219965"><ele>42.0</ele><time>2026-05-01T10:43:44.999Z</time></trkpt><trkpt lat="43.83513881090532" lon="11.147908443443937"><ele>42.0</ele><time>2026-05-01T10:43:45.999Z</time></trkpt><trkpt lat="43.834929199614145" lon="11.148227902311664"><ele>42.0</ele><time>2026-05-01T10:43:46.999Z</time></trkpt><trkpt lat="43.834718130129076" lon="11.14854651935944"><ele>42.0</ele><time>2026-05-01T10:43:48.001Z</time></trkpt><trkpt lat="43.834508401829964" lon="11.148859160122646"><ele>42.0</ele><time>2026-05-01T10:43:49.001Z</time></trkpt><trkpt lat="43.83430754493146" lon="11.149158887317219"><ele>42.0</ele><time>2026-05-01T10:43:50.001Z</time></trkpt><trkpt lat="43.834116572286526" lon="11.14944099519374"><ele>42.0</ele><time>2026-05-01T10:43:51.001Z</time></trkpt><trkpt lat="43.83393725162251" lon="11.149707811938793"><ele>42.0</ele><time>2026-05-01T10:43:52.001Z</time></trkpt><trkpt lat="43.833759076304126" lon="11.149969551601396"><ele>41.0</ele><time>2026-05-01T10:43:53.001Z</time></trkpt><trkpt lat="43.83357587852182" lon="11.15023457189204"><ele>40.0</ele><time>2026-05-01T10:43:54.001Z</time></trkpt><trkpt lat="43.833388209305554" lon="11.15050228621928"><ele>40.5</ele><time>2026-05-01T10:43:55.001Z</time></trkpt><trkpt lat="43.83320176661778" lon="11.150766889543885"><ele>41.0</ele><time>2026-05-01T10:43:56.001Z</time></trkpt><trkpt lat="43.833012546448884" lon="11.151028779535062"><ele>41.0</ele><time>2026-05-01T10:43:57.001Z</time></trkpt><trkpt lat="43.83282769473491" lon="11.151274741232497"><ele>41.0</ele><time>2026-05-01T10:43:58.001Z</time></trkpt><trkpt lat="43.83264756824953" lon="11.151506757211003"><ele>41.0</ele><time>2026-05-01T10:43:59.001Z</time></trkpt><trkpt lat="43.832475863719615" lon="11.151725486585425"><ele>41.0</ele><time>2026-05-01T10:44:00Z</time></trkpt><trkpt lat="43.8323039971514" lon="11.151950100640187"><ele>41.0</ele><time>2026-05-01T10:44:01Z</time></trkpt><trkpt lat="43.832137274378724" lon="11.152177577068738"><ele>41.0</ele><time>2026-05-01T10:44:02Z</time></trkpt><trkpt lat="43.83197038680114" lon="11.152415608997307"><ele>40.5</ele><time>2026-05-01T10:44:03Z</time></trkpt><trkpt lat="43.83181066201045" lon="11.152652621942101"><ele>40.0</ele><time>2026-05-01T10:44:04Z</time></trkpt><trkpt lat="43.83166157003007" lon="11.152891434560212"><ele>39.5</ele><time>2026-05-01T10:44:05Z</time></trkpt><trkpt lat="43.8315165334803" lon="11.153134244309019"><ele>39.0</ele><time>2026-05-01T10:44:06Z</time></trkpt><trkpt lat="43.831376361495224" lon="11.153385390164463"><ele>39.0</ele><time>2026-05-01T10:44:07Z</time></trkpt><trkpt lat="43.83123811451763" lon="11.153642309102477"><ele>39.0</ele><time>2026-05-01T10:44:08Z</time></trkpt><trkpt lat="43.83110097924917" lon="11.153897091644774"><ele>38.333333333333336</ele><time>2026-05-01T10:44:09Z</time></trkpt><trkpt lat="43.83096459279437" lon="11.154145525433638"><ele>37.66666666666667</ele><time>2026-05-01T10:44:10Z</time></trkpt><trkpt lat="43.83083030340038" lon="11.154378937139011"><ele>37.0</ele><time>2026-05-01T10:44:11Z</time></trkpt><trkpt lat="43.83070008334393" lon="11.154596460189866"><ele>37.0</ele><time>2026-05-01T10:44:12Z</time></trkpt><trkpt lat="43.83057344757917" lon="11.154798486844744"><ele>37.0</ele><time>2026-05-01T10:44:13Z</time></trkpt><trkpt lat="43.83045289699406" lon="11.154988705748643"><ele>37.0</ele><time>2026-05-01T10:44:14Z</time></trkpt><trkpt lat="43.83033888590903" lon="11.15516967068876"><ele>37.66666666666667</ele><time>2026-05-01T10:44:15Z</time></trkpt><trkpt lat="43.83022899505807" lon="11.155340800152223"><ele>38.333333333333336</ele><time>2026-05-01T10:44:16Z</time></trkpt><trkpt lat="43.830125738933795" lon="11.155504344825156"><ele>39.0</ele><time>2026-05-01T10:44:17Z</time></trkpt><trkpt lat="43.83001796586695" lon="11.155661660992589"><ele>39.333333333333336</ele><time>2026-05-01T10:44:18Z</time></trkpt><trkpt lat="43.829898850036564" lon="11.155816818763842"><ele>39.66666666666667</ele><time>2026-05-01T10:44:19Z</time></trkpt><trkpt lat="43.82977104533798" lon="11.15595661570588"><ele>40.0</ele><time>2026-05-01T10:44:20Z</time></trkpt><trkpt lat="43.82963433434682" lon="11.156074624864427"><ele>40.0</ele><time>2026-05-01T10:44:21Z</time></trkpt><trkpt lat="43.82949821797698" lon="11.156167813984665"><ele>40.0</ele><time>2026-05-01T10:44:22Z</time></trkpt><trkpt lat="43.82935690186905" lon="11.156220948183288"><ele>40.0</ele><time>2026-05-01T10:44:23Z</time></trkpt><trkpt lat="43.82921711725583" lon="11.156237702603871"><ele>40.0</ele><time>2026-05-01T10:44:24Z</time></trkpt><trkpt lat="43.82908015913578" lon="11.15621614655885"><ele>39.75</ele><time>2026-05-01T10:44:25Z</time></trkpt><trkpt lat="43.82894676354569" lon="11.15615992713134"><ele>39.5</ele><time>2026-05-01T10:44:26Z</time></trkpt><trkpt lat="43.828819918652705" lon="11.156066564685668"><ele>39.25</ele><time>2026-05-01T10:44:27Z</time></trkpt><trkpt lat="43.82871413366626" lon="11.155939171462917"><ele>39.0</ele><time>2026-05-01T10:44:28Z</time></trkpt><trkpt lat="43.82863942863333" lon="11.155784831617611"><ele>39.5</ele><time>2026-05-01T10:44:29Z</time></trkpt><trkpt lat="43.82858848084692" lon="11.155613579641882"><ele>40.0</ele><time>2026-05-01T10:44:30Z</time></trkpt><trkpt lat="43.828563787559894" lon="11.155432727446811"><ele>40.5</ele><time>2026-05-01T10:44:31Z</time></trkpt><trkpt lat="43.82855931107774" lon="11.155249467735946"><ele>41.0</ele><time>2026-05-01T10:44:32Z</time></trkpt><trkpt lat="43.828579206369845" lon="11.15506852281658"><ele>41.0</ele><time>2026-05-01T10:44:33Z</time></trkpt><trkpt lat="43.82862739218019" lon="11.154897181543388"><ele>41.0</ele><time>2026-05-01T10:44:34Z</time></trkpt><trkpt lat="43.828702148609935" lon="11.154748471932367"><ele>41.0</ele><time>2026-05-01T10:44:35Z</time></trkpt><trkpt lat="43.828798378079284" lon="11.154624109616437"><ele>41.0</ele><time>2026-05-01T10:44:36Z</time></trkpt><trkpt lat="43.82890930129567" lon="11.154519075201515"><ele>41.0</ele><time>2026-05-01T10:44:37Z</time></trkpt><trkpt lat="43.82904057809502" lon="11.154443848693079"><ele>41.0</ele><time>2026-05-01T10:44:38Z</time></trkpt><trkpt lat="43.82918630539966" lon="11.154409871466804"><ele>41.0</ele><time>2026-05-01T10:44:39Z</time></trkpt><trkpt lat="43.829334361247305" lon="11.1544125865561"><ele>41.0</ele><time>2026-05-01T10:44:40Z</time></trkpt><trkpt lat="43.82948139762681" lon="11.154444522887731"><ele>40.33333333333333</ele><time>2026-05-01T10:44:41Z</time></trkpt><trkpt lat="43.82962800217508" lon="11.154503360415205"><ele>39.666666666666664</ele><time>2026-05-01T10:44:42Z</time></trkpt><trkpt lat="43.829770628906175" lon="11.154589924459945"><ele>39.0</ele><time>2026-05-01T10:44:43Z</time></trkpt><trkpt lat="43.829918476145856" lon="11.154695890473004"><ele>39.0</ele><time>2026-05-01T10:44:44Z</time></trkpt><trkpt lat="43.83007071057784" lon="11.154816188571184"><ele>39.0</ele><time>2026-05-01T10:44:45Z</time></trkpt><trkpt lat="43.830226282082705" lon="11.15494420511595"><ele>39.0</ele><time>2026-05-01T10:44:46Z</time></trkpt><trkpt lat="43.83039068951187" lon="11.155070193687548"><ele>39.0</ele><time>2026-05-01T10:44:47Z</time></trkpt><trkpt lat="43.830569857406935" lon="11.155205614720058"><ele>39.0</ele><time>2026-05-01T10:44:48Z</time></trkpt><trkpt lat="43.83076105577384" lon="11.155357275663478"><ele>39.0</ele><time>2026-05-01T10:44:49Z</time></trkpt><trkpt lat="43.83096353139357" lon="11.15552180406775"><ele>38.0</ele><time>2026-05-01T10:44:50Z</time></trkpt><trkpt lat="43.83117553288436" lon="11.155697231685311"><ele>37.0</ele><time>2026-05-01T10:44:51Z</time></trkpt><trkpt lat="43.831396521764816" lon="11.155883121514385"><ele>38.5</ele><time>2026-05-01T10:44:52Z</time></trkpt><trkpt lat="43.83162505779369" lon="11.156076682410848"><ele>40.0</ele><time>2026-05-01T10:44:53Z</time></trkpt><trkpt lat="43.83185954455158" lon="11.156276643468535"><ele>40.0</ele><time>2026-05-01T10:44:54Z</time></trkpt><trkpt lat="43.8320972913674" lon="11.156482673820692"><ele>40.0</ele><time>2026-05-01T10:44:55Z</time></trkpt><trkpt lat="43.83233548233276" lon="11.156691100671022"><ele>40.5</ele><time>2026-05-01T10:44:56Z</time></trkpt><trkpt lat="43.832571917124824" lon="11.156898808091892"><ele>41.0</ele><time>2026-05-01T10:44:57Z</time></trkpt><trkpt lat="43.83280487440291" lon="11.15710077879292"><ele>40.0</ele><time>2026-05-01T10:44:58Z</time></trkpt><trkpt lat="43.83303535699675" lon="11.157297440695592"><ele>39.0</ele><time>2026-05-01T10:44:59Z</time></trkpt><trkpt lat="43.83326297163238" lon="11.157491615867057"><ele>39.0</ele><time>2026-05-01T10:45:00Z</time></trkpt><trkpt lat="43.83348837178497" lon="11.157683740984263"><ele>39.0</ele><time>2026-05-01T10:45:01Z</time></trkpt><trkpt lat="43.83371084459728" lon="11.157875240451501"><ele>39.0</ele><time>2026-05-01T10:45:02Z</time></trkpt><trkpt lat="43.83393263261398" lon="11.158066372463923"><ele>39.0</ele><time>2026-05-01T10:45:03Z</time></trkpt><trkpt lat="43.83416273589864" lon="11.158262621101258"><ele>38.0</ele><time>2026-05-01T10:45:04Z</time></trkpt><trkpt lat="43.83439991890502" lon="11.158463357236064"><ele>37.0</ele><time>2026-05-01T10:45:05Z</time></trkpt><trkpt lat="43.83464146049074" lon="11.15867065415826"><ele>37.0</ele><time>2026-05-01T10:45:06Z</time></trkpt><trkpt lat="43.834885017447384" lon="11.158882047842411"><ele>37.0</ele><time>2026-05-01T10:45:07Z</time></trkpt><trkpt lat="43.835131040403255" lon="11.159096036576743"><ele>37.0</ele><time>2026-05-01T10:45:08Z</time></trkpt><trkpt lat="43.835378246853146" lon="11.159311399873726"><ele>37.0</ele><time>2026-05-01T10:45:08.999Z</time></trkpt><trkpt lat="43.83563001788361" lon="11.15952776078984"><ele>37.0</ele><time>2026-05-01T10:45:09.999Z</time></trkpt><trkpt lat="43.835882901864956" lon="11.15974700111269"><ele>37.0</ele><time>2026-05-01T10:45:10.999Z</time></trkpt><trkpt lat="43.83613869612302" lon="11.159969434190375"><ele>39.0</ele><time>2026-05-01T10:45:11.999Z</time></trkpt><trkpt lat="43.836394913839705" lon="11.160193592774151"><ele>41.0</ele><time>2026-05-01T10:45:12.999Z</time></trkpt><trkpt lat="43.83665252105896" lon="11.160418170174198"><ele>41.0</ele><time>2026-05-01T10:45:13.999Z</time></trkpt><trkpt lat="43.836913424440525" lon="11.160641782656322"><ele>41.0</ele><time>2026-05-01T10:45:14.999Z</time></trkpt><trkpt lat="43.83717524051374" lon="11.160863866799836"><ele>41.5</ele><time>2026-05-01T10:45:15.999Z</time></trkpt><trkpt lat="43.83743595569583" lon="11.161082827173113"><ele>42.0</ele><time>2026-05-01T10:45:16.999Z</time></trkpt><trkpt lat="43.837696743954226" lon="11.161301217899705"><ele>42.0</ele><time>2026-05-01T10:45:17.999Z</time></trkpt><trkpt lat="43.837959077612325" lon="11.161520545887509"><ele>42.0</ele><time>2026-05-01T10:45:18.999Z</time></trkpt><trkpt lat="43.83822308670495" lon="11.1617404092923"><ele>42.0</ele><time>2026-05-01T10:45:19.999Z</time></trkpt><trkpt lat="43.83848607159669" lon="11.161958530107023"><ele>42.0</ele><time>2026-05-01T10:45:20.999Z</time></trkpt><trkpt lat="43.83874886614949" lon="11.16217959752072"><ele>41.5</ele><time>2026-05-01T10:45:21.999Z</time></trkpt><trkpt lat="43.8390122286328" lon="11.162400636426296"><ele>41.0</ele><time>2026-05-01T10:45:22.999Z</time></trkpt><trkpt lat="43.83927946627001" lon="11.16262522100526"><ele>41.0</ele><time>2026-05-01T10:45:23.999Z</time></trkpt><trkpt lat="43.839548329515914" lon="11.162854877143365"><ele>41.0</ele><time>2026-05-01T10:45:24.999Z</time></trkpt><trkpt lat="43.83981794182952" lon="11.163087372422677"><ele>41.0</ele><time>2026-05-01T10:45:25.999Z</time></trkpt><trkpt lat="43.84009059566969" lon="11.163323540385445"><ele>41.0</ele><time>2026-05-01T10:45:26.999Z</time></trkpt><trkpt lat="43.84036472104389" lon="11.16356026410468"><ele>41.0</ele><time>2026-05-01T10:45:27.999Z</time></trkpt><trkpt lat="43.84063790273184" lon="11.163794377897664"><ele>41.0</ele><time>2026-05-01T10:45:28.999Z</time></trkpt><trkpt lat="43.84091133484543" lon="11.164026749842453"><ele>43.0</ele><time>2026-05-01T10:45:29.999Z</time></trkpt><trkpt lat="43.84118633066576" lon="11.164259135739677"><ele>45.0</ele><time>2026-05-01T10:45:30.999Z</time></trkpt><trkpt lat="43.841460176928834" lon="11.16449271295128"><ele>45.0</ele><time>2026-05-01T10:45:31.999Z</time></trkpt><trkpt lat="43.84173587407259" lon="11.164728676889588"><ele>45.0</ele><time>2026-05-01T10:45:32.999Z</time></trkpt><trkpt lat="43.842011946925766" lon="11.164966464744744"><ele>45.0</ele><time>2026-05-01T10:45:33.999Z</time></trkpt><trkpt lat="43.84228941429128" lon="11.165207234243384"><ele>45.0</ele><time>2026-05-01T10:45:34.999Z</time></trkpt><trkpt lat="43.84256785281499" lon="11.165450183220551"><ele>45.5</ele><time>2026-05-01T10:45:35.999Z</time></trkpt><trkpt lat="43.84284757754073" lon="11.165692503439832"><ele>46.0</ele><time>2026-05-01T10:45:36.999Z</time></trkpt><trkpt lat="43.84312887545156" lon="11.165934970725042"><ele>47.0</ele><time>2026-05-01T10:45:37.999Z</time></trkpt><trkpt lat="43.8434102961418" lon="11.166176307431067"><ele>48.0</ele><time>2026-05-01T10:45:38.999Z</time></trkpt><trkpt lat="43.84369049268197" lon="11.166416426626565"><ele>48.5</ele><time>2026-05-01T10:45:39.999Z</time></trkpt><trkpt lat="43.84397438070126" lon="11.166658819921144"><ele>49.0</ele><time>2026-05-01T10:45:40.999Z</time></trkpt><trkpt lat="43.84425814970065" lon="11.166901132628976"><ele>49.5</ele><time>2026-05-01T10:45:41.999Z</time></trkpt><trkpt lat="43.84454266639053" lon="11.167144027088485"><ele>50.0</ele><time>2026-05-01T10:45:42.999Z</time></trkpt><trkpt lat="43.844826563472445" lon="11.16738798408213"><ele>50.5</ele><time>2026-05-01T10:45:43.999Z</time></trkpt><trkpt lat="43.84510977707379" lon="11.167632602023179"><ele>51.0</ele><time>2026-05-01T10:45:44.999Z</time></trkpt><trkpt lat="43.8453917188817" lon="11.167878415108696"><ele>51.0</ele><time>2026-05-01T10:45:45.999Z</time></trkpt><trkpt lat="43.84567252116819" lon="11.168124223079285"><ele>51.0</ele><time>2026-05-01T10:45:46.999Z</time></trkpt><trkpt lat="43.845952070035416" lon="11.168367691580071"><ele>51.5</ele><time>2026-05-01T10:45:47.999Z</time></trkpt><trkpt lat="43.84623136487132" lon="11.168611051167948"><ele>52.0</ele><time>2026-05-01T10:45:48.999Z</time></trkpt><trkpt lat="43.84651094363088" lon="11.16885266479067"><ele>53.0</ele><time>2026-05-01T10:45:49.999Z</time></trkpt><trkpt lat="43.84679201966538" lon="11.169092663914533"><ele>54.0</ele><time>2026-05-01T10:45:50.999Z</time></trkpt><trkpt lat="43.84707235495637" lon="11.169331506246921"><ele>54.0</ele><time>2026-05-01T10:45:51.999Z</time></trkpt><trkpt lat="43.84735279609363" lon="11.16957289114163"><ele>54.0</ele><time>2026-05-01T10:45:52.999Z</time></trkpt><trkpt lat="43.847635187409246" lon="11.169816850844729"><ele>56.0</ele><time>2026-05-01T10:45:54Z</time></trkpt><trkpt lat="43.84791538748985" lon="11.170059581999688"><ele>58.0</ele><time>2026-05-01T10:45:55Z</time></trkpt><trkpt lat="43.84819422213104" lon="11.170298637461855"><ele>58.5</ele><time>2026-05-01T10:45:56Z</time></trkpt><trkpt lat="43.84847489964366" lon="11.1705380833314"><ele>59.0</ele><time>2026-05-01T10:45:57Z</time></trkpt><trkpt lat="43.848756897349475" lon="11.170778447301881"><ele>58.0</ele><time>2026-05-01T10:45:58Z</time></trkpt><trkpt lat="43.849038005955826" lon="11.171017920817743"><ele>57.0</ele><time>2026-05-01T10:45:59Z</time></trkpt><trkpt lat="43.84931715034212" lon="11.171254390340318"><ele>57.0</ele><time>2026-05-01T10:46:00Z</time></trkpt><trkpt lat="43.84959344875828" lon="11.171489484664361"><ele>57.0</ele><time>2026-05-01T10:46:01Z</time></trkpt><trkpt lat="43.84987093324206" lon="11.171728390608461"><ele>57.5</ele><time>2026-05-01T10:46:02Z</time></trkpt><trkpt lat="43.85014653165535" lon="11.17196483225036"><ele>58.0</ele><time>2026-05-01T10:46:03Z</time></trkpt><trkpt lat="43.850418804317236" lon="11.172198119642621"><ele>58.0</ele><time>2026-05-01T10:46:04Z</time></trkpt><trkpt lat="43.85069029648658" lon="11.172428098974475"><ele>58.0</ele><time>2026-05-01T10:46:05Z</time></trkpt><trkpt lat="43.85096233221395" lon="11.172657568019083"><ele>59.0</ele><time>2026-05-01T10:46:06Z</time></trkpt><trkpt lat="43.85123497119461" lon="11.172887091904505"><ele>60.0</ele><time>2026-05-01T10:46:07Z</time></trkpt><trkpt lat="43.85151142578497" lon="11.173121726291262"><ele>60.0</ele><time>2026-05-01T10:46:08Z</time></trkpt><trkpt lat="43.85178869658958" lon="11.173357965966995"><ele>60.0</ele><time>2026-05-01T10:46:09Z</time></trkpt><trkpt lat="43.8520663569812" lon="11.1735968297471"><ele>61.5</ele><time>2026-05-01T10:46:10Z</time></trkpt><trkpt lat="43.85234478392791" lon="11.173836813940227"><ele>63.0</ele><time>2026-05-01T10:46:11Z</time></trkpt><trkpt lat="43.85262310348368" lon="11.174076588757337"><ele>63.0</ele><time>2026-05-01T10:46:12Z</time></trkpt><trkpt lat="43.85290159479524" lon="11.17431431361679"><ele>63.0</ele><time>2026-05-01T10:46:13Z</time></trkpt><trkpt lat="43.85318213078621" lon="11.174553612828898"><ele>63.5</ele><time>2026-05-01T10:46:14Z</time></trkpt><trkpt lat="43.85346268722672" lon="11.174792288443063"><ele>64.0</ele><time>2026-05-01T10:46:15Z</time></trkpt><trkpt lat="43.853744462845164" lon="11.175033267249452"><ele>64.5</ele><time>2026-05-01T10:46:16Z</time></trkpt><trkpt lat="43.854025017755376" lon="11.175274051522488"><ele>65.0</ele><time>2026-05-01T10:46:17Z</time></trkpt><trkpt lat="43.854304689409076" lon="11.175516385984073"><ele>67.0</ele><time>2026-05-01T10:46:18Z</time></trkpt><trkpt lat="43.854584247085604" lon="11.175754953311914"><ele>69.0</ele><time>2026-05-01T10:46:19Z</time></trkpt><trkpt lat="43.854865264884324" lon="11.175989966050324"><ele>69.5</ele><time>2026-05-01T10:46:20Z</time></trkpt><trkpt lat="43.85514768862792" lon="11.176218773372883"><ele>70.0</ele><time>2026-05-01T10:46:21Z</time></trkpt><trkpt lat="43.85543183411376" lon="11.176440057841312"><ele>70.5</ele><time>2026-05-01T10:46:22Z</time></trkpt><trkpt lat="43.85572109297927" lon="11.176640999374994"><ele>71.0</ele><time>2026-05-01T10:46:23Z</time></trkpt><trkpt lat="43.85601667473476" lon="11.176825458805393"><ele>71.5</ele><time>2026-05-01T10:46:24Z</time></trkpt><trkpt lat="43.85631601778606" lon="11.176994073473098"><ele>72.0</ele><time>2026-05-01T10:46:25Z</time></trkpt><trkpt lat="43.85662083482902" lon="11.177149742035938"><ele>73.0</ele><time>2026-05-01T10:46:26Z</time></trkpt><trkpt lat="43.85692889891162" lon="11.177291917780053"><ele>74.0</ele><time>2026-05-01T10:46:27Z</time></trkpt><trkpt lat="43.85723787599806" lon="11.1774164290054"><ele>74.0</ele><time>2026-05-01T10:46:28Z</time></trkpt><trkpt lat="43.85754970313507" lon="11.177522299621288"><ele>74.0</ele><time>2026-05-01T10:46:29Z</time></trkpt><trkpt lat="43.857863261929545" lon="11.177609791832861"><ele>75.5</ele><time>2026-05-01T10:46:30Z</time></trkpt><trkpt lat="43.85817936935683" lon="11.177682103506982"><ele>77.0</ele><time>2026-05-01T10:46:31Z</time></trkpt><trkpt lat="43.85849902179039" lon="11.177738845440597"><ele>77.0</ele><time>2026-05-01T10:46:32Z</time></trkpt><trkpt lat="43.85881909551775" lon="11.177777747728802"><ele>77.0</ele><time>2026-05-01T10:46:33Z</time></trkpt><trkpt lat="43.859139372160634" lon="11.177798682907037"><ele>77.5</ele><time>2026-05-01T10:46:34Z</time></trkpt><trkpt lat="43.85946235711909" lon="11.177803607742442"><ele>78.0</ele><time>2026-05-01T10:46:35Z</time></trkpt><trkpt lat="43.85978317609116" lon="11.177792058732663"><ele>78.0</ele><time>2026-05-01T10:46:36Z</time></trkpt><trkpt lat="43.86010262313147" lon="11.17776375674217"><ele>78.0</ele><time>2026-05-01T10:46:37Z</time></trkpt><trkpt lat="43.8604220651216" lon="11.177717637520498"><ele>79.0</ele><time>2026-05-01T10:46:38Z</time></trkpt><trkpt lat="43.86074148140963" lon="11.177656359898338"><ele>80.0</ele><time>2026-05-01T10:46:39Z</time></trkpt><trkpt lat="43.86105788040436" lon="11.17758080828635"><ele>81.0</ele><time>2026-05-01T10:46:40Z</time></trkpt><trkpt lat="43.86137303129632" lon="11.177494452335827"><ele>82.0</ele><time>2026-05-01T10:46:41Z</time></trkpt><trkpt lat="43.861687658197404" lon="11.177399685663422"><ele>80.0</ele><time>2026-05-01T10:46:42Z</time></trkpt><trkpt lat="43.862003614219475" lon="11.177296901949841"><ele>78.0</ele><time>2026-05-01T10:46:43Z</time></trkpt><trkpt lat="43.86232061145645" lon="11.177185279540923"><ele>78.5</ele><time>2026-05-01T10:46:44Z</time></trkpt><trkpt lat="43.862635241087744" lon="11.177068903261368"><ele>79.0</ele><time>2026-05-01T10:46:45Z</time></trkpt><trkpt lat="43.862948934155774" lon="11.17694625485996"><ele>79.0</ele><time>2026-05-01T10:46:46Z</time></trkpt><trkpt lat="43.86326288551236" lon="11.1768178168799"><ele>79.0</ele><time>2026-05-01T10:46:47Z</time></trkpt><trkpt lat="43.86357954227637" lon="11.176688405345486"><ele>80.5</ele><time>2026-05-01T10:46:48Z</time></trkpt><trkpt lat="43.863896542309526" lon="11.176558516212461"><ele>82.0</ele><time>2026-05-01T10:46:49Z</time></trkpt><trkpt lat="43.86421458249576" lon="11.176427025061006"><ele>83.5</ele><time>2026-05-01T10:46:50Z</time></trkpt><trkpt lat="43.86453240834946" lon="11.176297514395683"><ele>85.0</ele><time>2026-05-01T10:46:51Z</time></trkpt><trkpt lat="43.86484942981381" lon="11.176169890983509"><ele>87.5</ele><time>2026-05-01T10:46:52Z</time></trkpt><trkpt lat="43.8651641739256" lon="11.176043396154105"><ele>90.0</ele><time>2026-05-01T10:46:53Z</time></trkpt><trkpt lat="43.86548022395883" lon="11.175914790292104"><ele>90.0</ele><time>2026-05-01T10:46:54Z</time></trkpt><trkpt lat="43.86579947466412" lon="11.175784110390374"><ele>90.0</ele><time>2026-05-01T10:46:55Z</time></trkpt><trkpt lat="43.86611950344139" lon="11.175654069037643"><ele>90.5</ele><time>2026-05-01T10:46:56Z</time></trkpt><trkpt lat="43.86643905141867" lon="11.175525039474373"><ele>91.0</ele><time>2026-05-01T10:46:57Z</time></trkpt><trkpt lat="43.86675694319044" lon="11.17539749154785"><ele>95.0</ele><time>2026-05-01T10:46:58Z</time></trkpt><trkpt lat="43.867071963320804" lon="11.175271042100869"><ele>99.0</ele><time>2026-05-01T10:46:59Z</time></trkpt><trkpt lat="43.86738350052158" lon="11.175145540988513"><ele>104.0</ele><time>2026-05-01T10:47:00Z</time></trkpt><trkpt lat="43.86768373234824" lon="11.175025180048168"><ele>109.0</ele><time>2026-05-01T10:47:01Z</time></trkpt><trkpt lat="43.867983885431435" lon="11.17490438596631"><ele>115.5</ele><time>2026-05-01T10:47:02Z</time></trkpt><trkpt lat="43.8682878389206" lon="11.17478360792326"><ele>122.0</ele><time>2026-05-01T10:47:03Z</time></trkpt><trkpt lat="43.86859127647878" lon="11.174661593634422"><ele>122.0</ele><time>2026-05-01T10:47:04Z</time></trkpt><trkpt lat="43.868897693150274" lon="11.174538157994544"><ele>122.0</ele><time>2026-05-01T10:47:05Z</time></trkpt><trkpt lat="43.869202898357024" lon="11.174413353677073"><ele>117.5</ele><time>2026-05-01T10:47:06Z</time></trkpt><trkpt lat="43.86950595061042" lon="11.174286880602057"><ele>113.0</ele><time>2026-05-01T10:47:07Z</time></trkpt><trkpt lat="43.86980732913676" lon="11.174159538507967"><ele>113.0</ele><time>2026-05-01T10:47:08Z</time></trkpt><trkpt lat="43.8701058848936" lon="11.174036597346092"><ele>113.0</ele><time>2026-05-01T10:47:09Z</time></trkpt><trkpt lat="43.870407615049764" lon="11.173900451993912"><ele>109.5</ele><time>2026-05-01T10:47:10Z</time></trkpt><trkpt lat="43.870712333922654" lon="11.173795026634021"><ele>106.0</ele><time>2026-05-01T10:47:11Z</time></trkpt><trkpt lat="43.87099853583737" lon="11.173676683441785"><ele>106.0</ele><time>2026-05-01T10:47:12Z</time></trkpt><trkpt lat="43.871276351461034" lon="11.173565431471395"><ele>106.0</ele><time>2026-05-01T10:47:13Z</time></trkpt><trkpt lat="43.871550539190785" lon="11.173466426530096"><ele>109.0</ele><time>2026-05-01T10:47:14Z</time></trkpt><trkpt lat="43.87182786284874" lon="11.173394035994828"><ele>112.0</ele><time>2026-05-01T10:47:15Z</time></trkpt><trkpt lat="43.872100298483836" lon="11.173354067325423"><ele>112.0</ele><time>2026-05-01T10:47:16Z</time></trkpt><trkpt lat="43.87236907906793" lon="11.173338307874461"><ele>112.0</ele><time>2026-05-01T10:47:17Z</time></trkpt><trkpt lat="43.872636372349376" lon="11.173348066329043"><ele>108.5</ele><time>2026-05-01T10:47:18Z</time></trkpt><trkpt lat="43.87290369828787" lon="11.173389136143939"><ele>105.0</ele><time>2026-05-01T10:47:18.999Z</time></trkpt><trkpt lat="43.87316985672564" lon="11.173464210475274"><ele>105.0</ele><time>2026-05-01T10:47:19.999Z</time></trkpt><trkpt lat="43.87343577601867" lon="11.173568660274341"><ele>105.0</ele><time>2026-05-01T10:47:20.999Z</time></trkpt><trkpt lat="43.873694770759656" lon="11.173705387821736"><ele>109.0</ele><time>2026-05-01T10:47:21.999Z</time></trkpt><trkpt lat="43.87395166036966" lon="11.173868042033444"><ele>113.0</ele><time>2026-05-01T10:47:22.999Z</time></trkpt><trkpt lat="43.87420333743476" lon="11.174060224951118"><ele>106.0</ele><time>2026-05-01T10:47:23.999Z</time></trkpt><trkpt lat="43.87444725135234" lon="11.174279222294839"><ele>99.0</ele><time>2026-05-01T10:47:24.999Z</time></trkpt><trkpt lat="43.874692071818856" lon="11.174512224712148"><ele>99.0</ele><time>2026-05-01T10:47:25.999Z</time></trkpt><trkpt lat="43.874940434252586" lon="11.174741177114491"><ele>99.0</ele><time>2026-05-01T10:47:26.999Z</time></trkpt><trkpt lat="43.87519251799502" lon="11.174973172473543"><ele>98.5</ele><time>2026-05-01T10:47:27.999Z</time></trkpt><trkpt lat="43.87544539789617" lon="11.175208503841818"><ele>98.0</ele><time>2026-05-01T10:47:28.999Z</time></trkpt><trkpt lat="43.8757007110224" lon="11.175448605883531"><ele>99.5</ele><time>2026-05-01T10:47:29.999Z</time></trkpt><trkpt lat="43.875958621078894" lon="11.17568998437941"><ele>101.0</ele><time>2026-05-01T10:47:30.999Z</time></trkpt><trkpt lat="43.87621691717602" lon="11.175925899296688"><ele>101.0</ele><time>2026-05-01T10:47:31.999Z</time></trkpt><trkpt lat="43.87647545160627" lon="11.176163159188818"><ele>101.0</ele><time>2026-05-01T10:47:32.999Z</time></trkpt><trkpt lat="43.87673155586255" lon="11.176399288758558"><ele>99.0</ele><time>2026-05-01T10:47:33.999Z</time></trkpt><trkpt lat="43.87698602579878" lon="11.176635454986952"><ele>97.0</ele><time>2026-05-01T10:47:34.999Z</time></trkpt><trkpt lat="43.877235230325226" lon="11.176872890501775"><ele>97.0</ele><time>2026-05-01T10:47:35.999Z</time></trkpt><trkpt lat="43.877479357050966" lon="11.17711710621887"><ele>97.0</ele><time>2026-05-01T10:47:36.999Z</time></trkpt><trkpt lat="43.87771671626159" lon="11.177377263867918"><ele>98.0</ele><time>2026-05-01T10:47:37.999Z</time></trkpt><trkpt lat="43.877947402483144" lon="11.177657300607654"><ele>99.0</ele><time>2026-05-01T10:47:38.999Z</time></trkpt><trkpt lat="43.878170457606394" lon="11.177953458224511"><ele>99.0</ele><time>2026-05-01T10:47:39.999Z</time></trkpt><trkpt lat="43.878386901363584" lon="11.178267354944348"><ele>99.0</ele><time>2026-05-01T10:47:40.999Z</time></trkpt><trkpt lat="43.87859635031599" lon="11.178592794645946"><ele>99.0</ele><time>2026-05-01T10:47:41.999Z</time></trkpt><trkpt lat="43.87879900006019" lon="11.178930140476817"><ele>99.0</ele><time>2026-05-01T10:47:42.999Z</time></trkpt><trkpt lat="43.878992856283624" lon="11.179281468693567"><ele>98.0</ele><time>2026-05-01T10:47:43.999Z</time></trkpt><trkpt lat="43.879176596886225" lon="11.17964049518954"><ele>97.0</ele><time>2026-05-01T10:47:44.999Z</time></trkpt><trkpt lat="43.879357453948145" lon="11.18000409811919"><ele>97.0</ele><time>2026-05-01T10:47:45.999Z</time></trkpt><trkpt lat="43.87953826596" lon="11.180364126803036"><ele>97.0</ele><time>2026-05-01T10:47:46.999Z</time></trkpt><trkpt lat="43.87971957758167" lon="11.18071641242448"><ele>103.0</ele><time>2026-05-01T10:47:47.999Z</time></trkpt><trkpt lat="43.87990297413136" lon="11.181058427704942"><ele>109.0</ele><time>2026-05-01T10:47:48.999Z</time></trkpt><trkpt lat="43.88008877838403" lon="11.181380004955587"><ele>106.0</ele><time>2026-05-01T10:47:49.999Z</time></trkpt><trkpt lat="43.88028563819243" lon="11.181688583507832"><ele>103.0</ele><time>2026-05-01T10:47:50.999Z</time></trkpt><trkpt lat="43.88049793577154" lon="11.181994179661945"><ele>103.0</ele><time>2026-05-01T10:47:51.999Z</time></trkpt><trkpt lat="43.88072123794047" lon="11.182285849816735"><ele>103.0</ele><time>2026-05-01T10:47:52.999Z</time></trkpt><trkpt lat="43.880956634198526" lon="11.182566038829144"><ele>109.0</ele><time>2026-05-01T10:47:53.999Z</time></trkpt><trkpt lat="43.881200425705295" lon="11.18283365670829"><ele>115.0</ele><time>2026-05-01T10:47:54.999Z</time></trkpt><trkpt lat="43.88144954799207" lon="11.18309765773362"><ele>113.5</ele><time>2026-05-01T10:47:55.999Z</time></trkpt><trkpt lat="43.8816992925899" lon="11.183364746366523"><ele>112.0</ele><time>2026-05-01T10:47:56.999Z</time></trkpt><trkpt lat="43.881945579378076" lon="11.183627117968292"><ele>112.0</ele><time>2026-05-01T10:47:57.999Z</time></trkpt><trkpt lat="43.882185714097595" lon="11.18387065175157"><ele>112.0</ele><time>2026-05-01T10:47:58.999Z</time></trkpt><trkpt lat="43.88242273359413" lon="11.18409204233065"><ele>107.0</ele><time>2026-05-01T10:48:00Z</time></trkpt><trkpt lat="43.8826731877157" lon="11.184296854486195"><ele>102.0</ele><time>2026-05-01T10:48:01Z</time></trkpt><trkpt lat="43.882934686903646" lon="11.184476882691893"><ele>102.0</ele><time>2026-05-01T10:48:02Z</time></trkpt><trkpt lat="43.883201795672946" lon="11.184632261192029"><ele>102.0</ele><time>2026-05-01T10:48:03Z</time></trkpt><trkpt lat="43.883472481891424" lon="11.184767441190221"><ele>102.0</ele><time>2026-05-01T10:48:04Z</time></trkpt><trkpt lat="43.88374977453876" lon="11.184881345424888"><ele>102.0</ele><time>2026-05-01T10:48:05Z</time></trkpt><trkpt lat="43.884033092537045" lon="11.184967997913198"><ele>99.5</ele><time>2026-05-01T10:48:06Z</time></trkpt><trkpt lat="43.884312413203915" lon="11.185021031613813"><ele>97.0</ele><time>2026-05-01T10:48:07Z</time></trkpt><trkpt lat="43.8845948437903" lon="11.185046422161303"><ele>97.0</ele><time>2026-05-01T10:48:08Z</time></trkpt><trkpt lat="43.884877065813896" lon="11.185042622989233"><ele>97.0</ele><time>2026-05-01T10:48:09Z</time></trkpt><trkpt lat="43.88516205272063" lon="11.1850178265414"><ele>98.0</ele><time>2026-05-01T10:48:10Z</time></trkpt><trkpt lat="43.88544894138549" lon="11.184976347469005"><ele>99.0</ele><time>2026-05-01T10:48:11Z</time></trkpt><trkpt lat="43.885735712327566" lon="11.184913195057268"><ele>108.5</ele><time>2026-05-01T10:48:12Z</time></trkpt><trkpt lat="43.88601500351603" lon="11.184825917485947"><ele>118.0</ele><time>2026-05-01T10:48:13Z</time></trkpt><trkpt lat="43.88628993525351" lon="11.184727215149552"><ele>118.0</ele><time>2026-05-01T10:48:14Z</time></trkpt><trkpt lat="43.8865638475221" lon="11.184630525105058"><ele>118.0</ele><time>2026-05-01T10:48:15Z</time></trkpt><trkpt lat="43.886839352563356" lon="11.184541405361722"><ele>122.5</ele><time>2026-05-01T10:48:16Z</time></trkpt><trkpt lat="43.88711602906932" lon="11.184455121840214"><ele>127.0</ele><time>2026-05-01T10:48:17Z</time></trkpt><trkpt lat="43.887390503197146" lon="11.184374867804696"><ele>129.5</ele><time>2026-05-01T10:48:18Z</time></trkpt><trkpt lat="43.88766577638504" lon="11.184311712719387"><ele>132.0</ele><time>2026-05-01T10:48:19Z</time></trkpt><trkpt lat="43.887943028287616" lon="11.184269228290821"><ele>132.0</ele><time>2026-05-01T10:48:20Z</time></trkpt><trkpt lat="43.8882248467625" lon="11.184251308280077"><ele>132.0</ele><time>2026-05-01T10:48:21Z</time></trkpt><trkpt lat="43.8885134295272" lon="11.184251046286027"><ele>132.5</ele><time>2026-05-01T10:48:22Z</time></trkpt><trkpt lat="43.88880409240961" lon="11.184267167674147"><ele>133.0</ele><time>2026-05-01T10:48:23Z</time></trkpt><trkpt lat="43.88909559950539" lon="11.18430021658622"><ele>130.0</ele><time>2026-05-01T10:48:24Z</time></trkpt><trkpt lat="43.88938791303242" lon="11.18435328569674"><ele>127.0</ele><time>2026-05-01T10:48:25Z</time></trkpt><trkpt lat="43.88968027415899" lon="11.18443024610424"><ele>127.0</ele><time>2026-05-01T10:48:26Z</time></trkpt><trkpt lat="43.88996950389611" lon="11.184527010051237"><ele>127.0</ele><time>2026-05-01T10:48:27Z</time></trkpt><trkpt lat="43.89025182827609" lon="11.18464459750432"><ele>128.5</ele><time>2026-05-01T10:48:28Z</time></trkpt><trkpt lat="43.89052493727383" lon="11.184780589016883"><ele>130.0</ele><time>2026-05-01T10:48:29Z</time></trkpt><trkpt lat="43.890792048846464" lon="11.18493221983357"><ele>135.5</ele><time>2026-05-01T10:48:30Z</time></trkpt><trkpt lat="43.89105758971337" lon="11.185105711436744"><ele>141.0</ele><time>2026-05-01T10:48:31Z</time></trkpt><trkpt lat="43.89131492538984" lon="11.185296636818702"><ele>141.0</ele><time>2026-05-01T10:48:32Z</time></trkpt><trkpt lat="43.89156482031559" lon="11.185505349080737"><ele>141.0</ele><time>2026-05-01T10:48:33Z</time></trkpt><trkpt lat="43.89180839718745" lon="11.185732532633658"><ele>145.0</ele><time>2026-05-01T10:48:34Z</time></trkpt><trkpt lat="43.8920464561111" lon="11.185977815282975"><ele>149.0</ele><time>2026-05-01T10:48:35Z</time></trkpt><trkpt lat="43.89228093216551" lon="11.186231406382747"><ele>149.0</ele><time>2026-05-01T10:48:36Z</time></trkpt><trkpt lat="43.892512585601935" lon="11.186489240545372"><ele>149.0</ele><time>2026-05-01T10:48:37Z</time></trkpt><trkpt lat="43.89274312984116" lon="11.186747134269252"><ele>147.0</ele><time>2026-05-01T10:48:38Z</time></trkpt><trkpt lat="43.892976175956505" lon="11.187002194887803"><ele>145.0</ele><time>2026-05-01T10:48:39Z</time></trkpt><trkpt lat="43.89320973487446" lon="11.187257494898544"><ele>147.5</ele><time>2026-05-01T10:48:40Z</time></trkpt><trkpt lat="43.89344488097496" lon="11.187514710922523"><ele>150.0</ele><time>2026-05-01T10:48:41Z</time></trkpt><trkpt lat="43.89368240614463" lon="11.187774554407202"><ele>150.0</ele><time>2026-05-01T10:48:42Z</time></trkpt><trkpt lat="43.89392175123222" lon="11.188036633250693"><ele>150.0</ele><time>2026-05-01T10:48:43Z</time></trkpt><trkpt lat="43.89416411682256" lon="11.188301631733072"><ele>152.0</ele><time>2026-05-01T10:48:44Z</time></trkpt><trkpt lat="43.89441361308512" lon="11.188573809180987"><ele>154.0</ele><time>2026-05-01T10:48:45Z</time></trkpt><trkpt lat="43.89467074129885" lon="11.188857667738851"><ele>155.0</ele><time>2026-05-01T10:48:46Z</time></trkpt><trkpt lat="43.89493099656002" lon="11.189144726469351"><ele>156.0</ele><time>2026-05-01T10:48:47Z</time></trkpt><trkpt lat="43.89518462215336" lon="11.189426009753914"><ele>156.0</ele><time>2026-05-01T10:48:48Z</time></trkpt><trkpt lat="43.89543070143309" lon="11.189699218661106"><ele>156.0</ele><time>2026-05-01T10:48:49Z</time></trkpt><trkpt lat="43.895671153984644" lon="11.189964950443143"><ele>161.5</ele><time>2026-05-01T10:48:50Z</time></trkpt><trkpt lat="43.895908354957655" lon="11.190224701009761"><ele>167.0</ele><time>2026-05-01T10:48:51Z</time></trkpt><trkpt lat="43.89614477386718" lon="11.190475060770728"><ele>176.0</ele><time>2026-05-01T10:48:52Z</time></trkpt><trkpt lat="43.896379398560505" lon="11.190716309279013"><ele>185.0</ele><time>2026-05-01T10:48:53Z</time></trkpt><trkpt lat="43.89661306087631" lon="11.190950066974086"><ele>186.0</ele><time>2026-05-01T10:48:54Z</time></trkpt><trkpt lat="43.89685246051055" lon="11.191174673795414"><ele>187.0</ele><time>2026-05-01T10:48:55Z</time></trkpt><trkpt lat="43.89709938347881" lon="11.19138050233723"><ele>189.0</ele><time>2026-05-01T10:48:56Z</time></trkpt><trkpt lat="43.89735155889285" lon="11.19156636526579"><ele>191.0</ele><time>2026-05-01T10:48:57Z</time></trkpt><trkpt lat="43.897609749147456" lon="11.191735486284932"><ele>182.0</ele><time>2026-05-01T10:48:58Z</time></trkpt><trkpt lat="43.897877077508255" lon="11.1918943196338"><ele>173.0</ele><time>2026-05-01T10:48:59Z</time></trkpt><trkpt lat="43.89815285578984" lon="11.192056011357636"><ele>173.0</ele><time>2026-05-01T10:49:00Z</time></trkpt><trkpt lat="43.89840861124945" lon="11.192174860142483"><ele>173.0</ele><time>2026-05-01T10:49:01Z</time></trkpt><trkpt lat="43.89866790052285" lon="11.192307437393602"><ele>184.5</ele><time>2026-05-01T10:49:02Z</time></trkpt><trkpt lat="43.898930958924275" lon="11.192447683354873"><ele>196.0</ele><time>2026-05-01T10:49:03Z</time></trkpt><trkpt lat="43.89919263413747" lon="11.192582439382468"><ele>184.5</ele><time>2026-05-01T10:49:04Z</time></trkpt><trkpt lat="43.89945354482793" lon="11.1927118405759"><ele>173.0</ele><time>2026-05-01T10:49:05Z</time></trkpt><trkpt lat="43.899716897438985" lon="11.1928332896298"><ele>173.0</ele><time>2026-05-01T10:49:06Z</time></trkpt><trkpt lat="43.89998716370916" lon="11.19294259034139"><ele>173.0</ele><time>2026-05-01T10:49:07Z</time></trkpt><trkpt lat="43.90025349035258" lon="11.19305485869752"><ele>170.5</ele><time>2026-05-01T10:49:08Z</time></trkpt><trkpt lat="43.90052242610364" lon="11.193157339994634"><ele>168.0</ele><time>2026-05-01T10:49:09Z</time></trkpt><trkpt lat="43.90079555213873" lon="11.193256380545417"><ele>174.5</ele><time>2026-05-01T10:49:10Z</time></trkpt><trkpt lat="43.90106735072581" lon="11.193354479411028"><ele>181.0</ele><time>2026-05-01T10:49:11Z</time></trkpt><trkpt lat="43.90133925076139" lon="11.193456312086289"><ele>181.0</ele><time>2026-05-01T10:49:12Z</time></trkpt><trkpt lat="43.901616878773595" lon="11.193559465232118"><ele>181.0</ele><time>2026-05-01T10:49:13Z</time></trkpt><trkpt lat="43.90190109340549" lon="11.193663115603586"><ele>185.0</ele><time>2026-05-01T10:49:14Z</time></trkpt><trkpt lat="43.902187937288716" lon="11.193766441998994"><ele>189.0</ele><time>2026-05-01T10:49:15Z</time></trkpt><trkpt lat="43.902477327216445" lon="11.193872507416879"><ele>185.5</ele><time>2026-05-01T10:49:16Z</time></trkpt><trkpt lat="43.90276568751892" lon="11.193978903967844"><ele>182.0</ele><time>2026-05-01T10:49:17Z</time></trkpt><trkpt lat="43.90305343270859" lon="11.19408410344578"><ele>188.0</ele><time>2026-05-01T10:49:18Z</time></trkpt><trkpt lat="43.903338836423785" lon="11.194185485077558"><ele>194.0</ele><time>2026-05-01T10:49:19Z</time></trkpt><trkpt lat="43.90362159841532" lon="11.19428099682604"><ele>194.0</ele><time>2026-05-01T10:49:19.999Z</time></trkpt><trkpt lat="43.903903722643335" lon="11.194369579781613"><ele>194.0</ele><time>2026-05-01T10:49:20.999Z</time></trkpt><trkpt lat="43.90419025768468" lon="11.194452359771754"><ele>190.0</ele><time>2026-05-01T10:49:21.999Z</time></trkpt><trkpt lat="43.90448491017171" lon="11.194528874462002"><ele>186.0</ele><time>2026-05-01T10:49:22.999Z</time></trkpt><trkpt lat="43.90478951507839" lon="11.19459636658392"><ele>187.0</ele><time>2026-05-01T10:49:23.999Z</time></trkpt><trkpt lat="43.90509891373192" lon="11.194652465809805"><ele>188.0</ele><time>2026-05-01T10:49:24.999Z</time></trkpt><trkpt lat="43.905410777651625" lon="11.194695858591654"><ele>188.0</ele><time>2026-05-01T10:49:25.999Z</time></trkpt><trkpt lat="43.90572566519339" lon="11.194732703822966"><ele>188.0</ele><time>2026-05-01T10:49:26.999Z</time></trkpt><trkpt lat="43.90604215482184" lon="11.194761649202063"><ele>192.0</ele><time>2026-05-01T10:49:27.999Z</time></trkpt><trkpt lat="43.906360611048974" lon="11.194780851362205"><ele>196.0</ele><time>2026-05-01T10:49:28.999Z</time></trkpt><trkpt lat="43.90668106759724" lon="11.194792001283444"><ele>189.0</ele><time>2026-05-01T10:49:29.999Z</time></trkpt><trkpt lat="43.90700123112605" lon="11.194794707904089"><ele>182.0</ele><time>2026-05-01T10:49:30.999Z</time></trkpt><trkpt lat="43.90732038998846" lon="11.19478915761009"><ele>186.5</ele><time>2026-05-01T10:49:31.999Z</time></trkpt><trkpt lat="43.9076376032026" lon="11.194774761060119"><ele>191.0</ele><time>2026-05-01T10:49:32.999Z</time></trkpt><trkpt lat="43.90795125130972" lon="11.194763093585681"><ele>191.0</ele><time>2026-05-01T10:49:33.999Z</time></trkpt><trkpt lat="43.908261856214736" lon="11.194754097100418"><ele>191.0</ele><time>2026-05-01T10:49:34.999Z</time></trkpt><trkpt lat="43.90856901084676" lon="11.194746587995665"><ele>196.5</ele><time>2026-05-01T10:49:35.999Z</time></trkpt><trkpt lat="43.90886729968175" lon="11.194738890437156"><ele>202.0</ele><time>2026-05-01T10:49:36.999Z</time></trkpt><trkpt lat="43.90916120771932" lon="11.194737842515815"><ele>202.0</ele><time>2026-05-01T10:49:37.999Z</time></trkpt><trkpt lat="43.90945523591057" lon="11.194754660466431"><ele>202.0</ele><time>2026-05-01T10:49:38.999Z</time></trkpt><trkpt lat="43.90974341978296" lon="11.194795051028995"><ele>209.5</ele><time>2026-05-01T10:49:39.999Z</time></trkpt><trkpt lat="43.91002850045256" lon="11.194864362471701"><ele>217.0</ele><time>2026-05-01T10:49:40.999Z</time></trkpt><trkpt lat="43.91031113063539" lon="11.194957332373166"><ele>217.0</ele><time>2026-05-01T10:49:41.999Z</time></trkpt><trkpt lat="43.91059115544154" lon="11.195077538391038"><ele>217.0</ele><time>2026-05-01T10:49:42.999Z</time></trkpt><trkpt lat="43.91086364449817" lon="11.195223736402141"><ele>206.5</ele><time>2026-05-01T10:49:43.999Z</time></trkpt><trkpt lat="43.91112332890333" lon="11.195390376089017"><ele>196.0</ele><time>2026-05-01T10:49:44.999Z</time></trkpt><trkpt lat="43.911370445078575" lon="11.195576572866946"><ele>195.5</ele><time>2026-05-01T10:49:45.999Z</time></trkpt><trkpt lat="43.911606850916584" lon="11.195780433737417"><ele>195.0</ele><time>2026-05-01T10:49:46.999Z</time></trkpt><trkpt lat="43.91182768040496" lon="11.196001732905401"><ele>195.0</ele><time>2026-05-01T10:49:47.999Z</time></trkpt><trkpt lat="43.91203638835397" lon="11.19623419507148"><ele>195.0</ele><time>2026-05-01T10:49:48.999Z</time></trkpt><trkpt lat="43.91223568400617" lon="11.196468213453924"><ele>198.5</ele><time>2026-05-01T10:49:49.999Z</time></trkpt><trkpt lat="43.912431714754554" lon="11.196698101410425"><ele>202.0</ele><time>2026-05-01T10:49:50.999Z</time></trkpt><trkpt lat="43.91263143839225" lon="11.19692954910049"><ele>202.0</ele><time>2026-05-01T10:49:51.999Z</time></trkpt><trkpt lat="43.91283004671717" lon="11.197162350748291"><ele>202.0</ele><time>2026-05-01T10:49:52.999Z</time></trkpt><trkpt lat="43.91302959559973" lon="11.197389424692723"><ele>202.0</ele><time>2026-05-01T10:49:53.999Z</time></trkpt><trkpt lat="43.91322931090721" lon="11.197607290791629"><ele>202.0</ele><time>2026-05-01T10:49:54.999Z</time></trkpt><trkpt lat="43.91343222789149" lon="11.197823744625524"><ele>202.0</ele><time>2026-05-01T10:49:55.999Z</time></trkpt><trkpt lat="43.9136474138247" lon="11.198035352478096"><ele>202.0</ele><time>2026-05-01T10:49:56.999Z</time></trkpt><trkpt lat="43.9138696084162" lon="11.198235423344544"><ele>201.0</ele><time>2026-05-01T10:49:57.999Z</time></trkpt><trkpt lat="43.91410224391736" lon="11.198427749228749"><ele>200.0</ele><time>2026-05-01T10:49:58.999Z</time></trkpt><trkpt lat="43.91434118811054" lon="11.198607435869153"><ele>200.0</ele><time>2026-05-01T10:49:59.999Z</time></trkpt><trkpt lat="43.914578769439466" lon="11.198772435259496"><ele>200.0</ele><time>2026-05-01T10:50:00.999Z</time></trkpt><trkpt lat="43.914819165717425" lon="11.19892141661547"><ele>213.5</ele><time>2026-05-01T10:50:01.999Z</time></trkpt><trkpt lat="43.91506499580673" lon="11.199059554267492"><ele>227.0</ele><time>2026-05-01T10:50:02.999Z</time></trkpt><trkpt lat="43.91531919540478" lon="11.199193514668465"><ele>230.0</ele><time>2026-05-01T10:50:03.999Z</time></trkpt><trkpt lat="43.91558395131777" lon="11.199329024733037"><ele>233.0</ele><time>2026-05-01T10:50:04.999Z</time></trkpt><trkpt lat="43.91585675865205" lon="11.19946936717553"><ele>228.5</ele><time>2026-05-01T10:50:06Z</time></trkpt><trkpt lat="43.91613077922194" lon="11.199613567695332"><ele>224.0</ele><time>2026-05-01T10:50:07Z</time></trkpt><trkpt lat="43.91640415750676" lon="11.199770715764163"><ele>231.0</ele><time>2026-05-01T10:50:08Z</time></trkpt><trkpt lat="43.91667177929128" lon="11.199955103956132"><ele>238.0</ele><time>2026-05-01T10:50:09Z</time></trkpt><trkpt lat="43.916932137110656" lon="11.200170435830552"><ele>238.0</ele><time>2026-05-01T10:50:10Z</time></trkpt><trkpt lat="43.917184799496454" lon="11.200413474775628"><ele>238.0</ele><time>2026-05-01T10:50:11Z</time></trkpt><trkpt lat="43.91742704196685" lon="11.200680406542027"><ele>235.0</ele><time>2026-05-01T10:50:12Z</time></trkpt><trkpt lat="43.91765521091891" lon="11.20097315162264"><ele>232.0</ele><time>2026-05-01T10:50:13Z</time></trkpt><trkpt lat="43.91787005599588" lon="11.20129104111062"><ele>240.0</ele><time>2026-05-01T10:50:14Z</time></trkpt><trkpt lat="43.91806879155969" lon="11.20162706827049"><ele>248.0</ele><time>2026-05-01T10:50:15Z</time></trkpt><trkpt lat="43.91825273919251" lon="11.201980657732575"><ele>241.0</ele><time>2026-05-01T10:50:16Z</time></trkpt><trkpt lat="43.918415543995316" lon="11.202352600700603"><ele>234.0</ele><time>2026-05-01T10:50:17Z</time></trkpt><trkpt lat="43.918558455726476" lon="11.20273666877788"><ele>234.0</ele><time>2026-05-01T10:50:18Z</time></trkpt><trkpt lat="43.91868029031083" lon="11.20313019872523"><ele>234.0</ele><time>2026-05-01T10:50:19Z</time></trkpt><trkpt lat="43.91877915207082" lon="11.203533931770655"><ele>239.5</ele><time>2026-05-01T10:50:20Z</time></trkpt><trkpt lat="43.91886095802324" lon="11.203948230337511"><ele>245.0</ele><time>2026-05-01T10:50:21Z</time></trkpt><trkpt lat="43.91893537415216" lon="11.204364657011295"><ele>250.0</ele><time>2026-05-01T10:50:22Z</time></trkpt><trkpt lat="43.9190048881926" lon="11.204785555386644"><ele>255.0</ele><time>2026-05-01T10:50:23Z</time></trkpt><trkpt lat="43.91907236491954" lon="11.205203455655633"><ele>259.0</ele><time>2026-05-01T10:50:24Z</time></trkpt><trkpt lat="43.91914312674936" lon="11.205618303987498"><ele>263.0</ele><time>2026-05-01T10:50:25Z</time></trkpt><trkpt lat="43.919212283014616" lon="11.206029210950291"><ele>258.0</ele><time>2026-05-01T10:50:26Z</time></trkpt><trkpt lat="43.91928255001236" lon="11.206439801016794"><ele>253.0</ele><time>2026-05-01T10:50:27Z</time></trkpt><trkpt lat="43.919352227117336" lon="11.206857014541914"><ele>253.0</ele><time>2026-05-01T10:50:28Z</time></trkpt><trkpt lat="43.91942127573542" lon="11.207270942751888"><ele>253.0</ele><time>2026-05-01T10:50:29Z</time></trkpt><trkpt lat="43.91949517308709" lon="11.207686389269806"><ele>256.0</ele><time>2026-05-01T10:50:30Z</time></trkpt><trkpt lat="43.91957955435249" lon="11.208101297664223"><ele>259.0</ele><time>2026-05-01T10:50:31Z</time></trkpt><trkpt lat="43.91967781436833" lon="11.20851081176394"><ele>262.5</ele><time>2026-05-01T10:50:32Z</time></trkpt><trkpt lat="43.91978732881299" lon="11.208914817208528"><ele>266.0</ele><time>2026-05-01T10:50:33Z</time></trkpt><trkpt lat="43.91990917271799" lon="11.2093128284183"><ele>268.5</ele><time>2026-05-01T10:50:34Z</time></trkpt><trkpt lat="43.92004501800736" lon="11.209705172667256"><ele>271.0</ele><time>2026-05-01T10:50:35Z</time></trkpt><trkpt lat="43.92019377611911" lon="11.210093097706634"><ele>271.0</ele><time>2026-05-01T10:50:36Z</time></trkpt><trkpt lat="43.92035405587711" lon="11.210473072283062"><ele>271.0</ele><time>2026-05-01T10:50:37Z</time></trkpt><trkpt lat="43.92052680890207" lon="11.210843415184357"><ele>269.5</ele><time>2026-05-01T10:50:38Z</time></trkpt><trkpt lat="43.92071132107484" lon="11.211201525718176"><ele>268.0</ele><time>2026-05-01T10:50:39Z</time></trkpt><trkpt lat="43.92090628961152" lon="11.211545896906035"><ele>268.0</ele><time>2026-05-01T10:50:40Z</time></trkpt><trkpt lat="43.92111072573872" lon="11.211878619122302"><ele>268.0</ele><time>2026-05-01T10:50:41Z</time></trkpt><trkpt lat="43.92132377355846" lon="11.212198392694791"><ele>271.0</ele><time>2026-05-01T10:50:42Z</time></trkpt><trkpt lat="43.921550666260664" lon="11.212505542645262"><ele>274.0</ele><time>2026-05-01T10:50:43Z</time></trkpt><trkpt lat="43.92178775592137" lon="11.212798708349855"><ele>274.5</ele><time>2026-05-01T10:50:44Z</time></trkpt><trkpt lat="43.92203507772806" lon="11.21307889766042"><ele>275.0</ele><time>2026-05-01T10:50:45Z</time></trkpt><trkpt lat="43.92228952758176" lon="11.213354173597924"><ele>275.0</ele><time>2026-05-01T10:50:46Z</time></trkpt><trkpt lat="43.92254653105283" lon="11.213628116744932"><ele>275.0</ele><time>2026-05-01T10:50:47Z</time></trkpt><trkpt lat="43.922803980233454" lon="11.21390303828156"><ele>279.5</ele><time>2026-05-01T10:50:48Z</time></trkpt><trkpt lat="43.92306163645046" lon="11.214176375526156"><ele>284.0</ele><time>2026-05-01T10:50:49Z</time></trkpt><trkpt lat="43.923320332895905" lon="11.214447689907047"><ele>281.0</ele><time>2026-05-01T10:50:50Z</time></trkpt><trkpt lat="43.92357874808884" lon="11.21471791801721"><ele>278.0</ele><time>2026-05-01T10:50:51Z</time></trkpt><trkpt lat="43.92384153608594" lon="11.214989493691762"><ele>278.0</ele><time>2026-05-01T10:50:52Z</time></trkpt><trkpt lat="43.924108825934134" lon="11.215263089887795"><ele>278.0</ele><time>2026-05-01T10:50:53Z</time></trkpt><trkpt lat="43.924376155423786" lon="11.21553783668834"><ele>284.0</ele><time>2026-05-01T10:50:54Z</time></trkpt><trkpt lat="43.92464270498694" lon="11.215810448790794"><ele>290.0</ele><time>2026-05-01T10:50:55Z</time></trkpt><trkpt lat="43.92490958228804" lon="11.216083102549884"><ele>291.0</ele><time>2026-05-01T10:50:56Z</time></trkpt><trkpt lat="43.92517588653162" lon="11.216358334831353"><ele>292.0</ele><time>2026-05-01T10:50:57Z</time></trkpt><trkpt lat="43.92543992636021" lon="11.216633838957959"><ele>292.0</ele><time>2026-05-01T10:50:58Z</time></trkpt><trkpt lat="43.92570512103686" lon="11.216905847746359"><ele>292.0</ele><time>2026-05-01T10:50:59Z</time></trkpt><trkpt lat="43.925974200388815" lon="11.217166102380586"><ele>294.0</ele><time>2026-05-01T10:51:00Z</time></trkpt><trkpt lat="43.92625044711121" lon="11.217411257015197"><ele>296.0</ele><time>2026-05-01T10:51:01Z</time></trkpt><trkpt lat="43.92653956036295" lon="11.217634421923192"><ele>289.5</ele><time>2026-05-01T10:51:02Z</time></trkpt><trkpt lat="43.92683917431326" lon="11.217826821578187"><ele>283.0</ele><time>2026-05-01T10:51:03Z</time></trkpt><trkpt lat="43.927150847023036" lon="11.21798615362902"><ele>283.0</ele><time>2026-05-01T10:51:04Z</time></trkpt><trkpt lat="43.92746805614388" lon="11.218115413129828"><ele>283.0</ele><time>2026-05-01T10:51:05Z</time></trkpt><trkpt lat="43.92777410290442" lon="11.218215057625544"><ele>300.5</ele><time>2026-05-01T10:51:06Z</time></trkpt><trkpt lat="43.928065979724316" lon="11.218291078181782"><ele>318.0</ele><time>2026-05-01T10:51:07Z</time></trkpt><trkpt lat="43.92835185314836" lon="11.218359093188502"><ele>312.0</ele><time>2026-05-01T10:51:08Z</time></trkpt><trkpt lat="43.92863272802365" lon="11.21842990234213"><ele>306.0</ele><time>2026-05-01T10:51:09Z</time></trkpt><trkpt lat="43.928902831503315" lon="11.218500619692277"><ele>306.0</ele><time>2026-05-01T10:51:10Z</time></trkpt><trkpt lat="43.92915444029917" lon="11.21856534970543"><ele>306.0</ele><time>2026-05-01T10:51:11Z</time></trkpt><trkpt lat="43.92940007401844" lon="11.218628786521101"><ele>304.5</ele><time>2026-05-01T10:51:12Z</time></trkpt><trkpt lat="43.92963285481223" lon="11.218689359228689"><ele>303.0</ele><time>2026-05-01T10:51:13Z</time></trkpt><trkpt lat="43.92985836939766" lon="11.218748751656836"><ele>302.3333333333333</ele><time>2026-05-01T10:51:14Z</time></trkpt><trkpt lat="43.93007874480914" lon="11.21880481109225"><ele>301.66666666666663</ele><time>2026-05-01T10:51:15Z</time></trkpt><trkpt lat="43.930296039192605" lon="11.218853572844925"><ele>301.0</ele><time>2026-05-01T10:51:16Z</time></trkpt><trkpt lat="43.9305099609485" lon="11.218897915535925"><ele>301.0</ele><time>2026-05-01T10:51:17Z</time></trkpt><trkpt lat="43.930720450806945" lon="11.218941751760738"><ele>301.0</ele><time>2026-05-01T10:51:18Z</time></trkpt><trkpt lat="43.93093102298056" lon="11.218987340812976"><ele>301.0</ele><time>2026-05-01T10:51:19Z</time></trkpt><trkpt lat="43.93115178072719" lon="11.219033618205739"><ele>311.5</ele><time>2026-05-01T10:51:20Z</time></trkpt><trkpt lat="43.931382530467424" lon="11.219081590126907"><ele>322.0</ele><time>2026-05-01T10:51:21Z</time></trkpt><trkpt lat="43.93161925668346" lon="11.21913298614315"><ele>323.5</ele><time>2026-05-01T10:51:22Z</time></trkpt><trkpt lat="43.931861676908966" lon="11.219190252369215"><ele>325.0</ele><time>2026-05-01T10:51:22.999Z</time></trkpt><trkpt lat="43.9321087320381" lon="11.219265403760515"><ele>325.0</ele><time>2026-05-01T10:51:23.999Z</time></trkpt><trkpt lat="43.932352200267815" lon="11.219361101689751"><ele>325.0</ele><time>2026-05-01T10:51:24.999Z</time></trkpt><trkpt lat="43.9325946095692" lon="11.219477742315929"><ele>323.5</ele><time>2026-05-01T10:51:25.999Z</time></trkpt><trkpt lat="43.93283455648114" lon="11.219615573186658"><ele>322.0</ele><time>2026-05-01T10:51:26.999Z</time></trkpt><trkpt lat="43.9330692563194" lon="11.219767590583864"><ele>323.0</ele><time>2026-05-01T10:51:27.999Z</time></trkpt><trkpt lat="43.93329915801932" lon="11.21993678004868"><ele>324.0</ele><time>2026-05-01T10:51:28.999Z</time></trkpt><trkpt lat="43.933520235441215" lon="11.22012481086757"><ele>324.0</ele><time>2026-05-01T10:51:29.999Z</time></trkpt><trkpt lat="43.93373901791206" lon="11.220339054685198"><ele>324.0</ele><time>2026-05-01T10:51:30.999Z</time></trkpt><trkpt lat="43.93395591912764" lon="11.220569989132875"><ele>324.0</ele><time>2026-05-01T10:51:31.999Z</time></trkpt><trkpt lat="43.934178770276134" lon="11.22080417405241"><ele>324.0</ele><time>2026-05-01T10:51:32.999Z</time></trkpt><trkpt lat="43.93441004041351" lon="11.221032605298848"><ele>324.0</ele><time>2026-05-01T10:51:33.999Z</time></trkpt><trkpt lat="43.93464866615541" lon="11.221253055536616"><ele>324.0</ele><time>2026-05-01T10:51:34.999Z</time></trkpt><trkpt lat="43.93490498130204" lon="11.22144926381281"><ele>325.0</ele><time>2026-05-01T10:51:35.999Z</time></trkpt><trkpt lat="43.93517182108131" lon="11.221611702971503"><ele>326.0</ele><time>2026-05-01T10:51:36.999Z</time></trkpt><trkpt lat="43.9354468409364" lon="11.22175153954274"><ele>326.0</ele><time>2026-05-01T10:51:37.999Z</time></trkpt><trkpt lat="43.935725443986584" lon="11.221860597417255"><ele>326.0</ele><time>2026-05-01T10:51:38.999Z</time></trkpt><trkpt lat="43.93601232517241" lon="11.22193992917273"><ele>329.5</ele><time>2026-05-01T10:51:39.999Z</time></trkpt><trkpt lat="43.93630128375637" lon="11.221990086691282"><ele>333.0</ele><time>2026-05-01T10:51:40.999Z</time></trkpt><trkpt lat="43.93659461664816" lon="11.222015167979311"><ele>341.0</ele><time>2026-05-01T10:51:41.999Z</time></trkpt><trkpt lat="43.93689112783089" lon="11.22201843312288"><ele>349.0</ele><time>2026-05-01T10:51:42.999Z</time></trkpt><trkpt lat="43.93718943446258" lon="11.221997095002989"><ele>349.0</ele><time>2026-05-01T10:51:43.999Z</time></trkpt><trkpt lat="43.93749039331987" lon="11.22196807543488"><ele>349.0</ele><time>2026-05-01T10:51:44.999Z</time></trkpt><trkpt lat="43.93779500261534" lon="11.221946150726533"><ele>346.0</ele><time>2026-05-01T10:51:45.999Z</time></trkpt><trkpt lat="43.938106507881976" lon="11.221924840787917"><ele>343.0</ele><time>2026-05-01T10:51:46.999Z</time></trkpt><trkpt lat="43.938422141952" lon="11.22190214812021"><ele>340.0</ele><time>2026-05-01T10:51:47.999Z</time></trkpt><trkpt lat="43.938739842854936" lon="11.221878337453196"><ele>337.0</ele><time>2026-05-01T10:51:48.999Z</time></trkpt><trkpt lat="43.93905260540715" lon="11.221855474244805"><ele>343.0</ele><time>2026-05-01T10:51:49.999Z</time></trkpt><trkpt lat="43.9393516124837" lon="11.221827263143538"><ele>349.0</ele><time>2026-05-01T10:51:50.999Z</time></trkpt><trkpt lat="43.939642933631816" lon="11.221783056038902"><ele>349.0</ele><time>2026-05-01T10:51:51.999Z</time></trkpt><trkpt lat="43.939932629987325" lon="11.221706044551482"><ele>349.0</ele><time>2026-05-01T10:51:52.999Z</time></trkpt><trkpt lat="43.94021620352343" lon="11.221596612473057"><ele>355.0</ele><time>2026-05-01T10:51:53.999Z</time></trkpt><trkpt lat="43.94048759948681" lon="11.221461959930725"><ele>361.0</ele><time>2026-05-01T10:51:54.999Z</time></trkpt><trkpt lat="43.94074069725891" lon="11.221307017071517"><ele>371.5</ele><time>2026-05-01T10:51:55.999Z</time></trkpt><trkpt lat="43.940977896743696" lon="11.221128771255916"><ele>382.0</ele><time>2026-05-01T10:51:56.999Z</time></trkpt><trkpt lat="43.941200762430896" lon="11.22093337713559"><ele>382.0</ele><time>2026-05-01T10:51:57.999Z</time></trkpt><trkpt lat="43.9414073993079" lon="11.220725099088533"><ele>382.0</ele><time>2026-05-01T10:51:58.999Z</time></trkpt><trkpt lat="43.94159890127886" lon="11.220508601321525"><ele>404.0</ele><time>2026-05-01T10:51:59.999Z</time></trkpt><trkpt lat="43.941784705601314" lon="11.22028167587339"><ele>426.0</ele><time>2026-05-01T10:52:00.999Z</time></trkpt><trkpt lat="43.941978777005794" lon="11.220046238476613"><ele>433.5</ele><time>2026-05-01T10:52:01.999Z</time></trkpt><trkpt lat="43.94217824789076" lon="11.219808859845267"><ele>441.0</ele><time>2026-05-01T10:52:02.999Z</time></trkpt><trkpt lat="43.94235984585912" lon="11.219588334790018"><ele>441.0</ele><time>2026-05-01T10:52:03.999Z</time></trkpt><trkpt lat="43.94253114903854" lon="11.21937495772198"><ele>441.0</ele><time>2026-05-01T10:52:04.999Z</time></trkpt><trkpt lat="43.94270629716554" lon="11.219157040674187"><ele>442.0</ele><time>2026-05-01T10:52:06.074Z</time></trkpt><trkpt lat="43.94286565025333" lon="11.218955996933854"><ele>443.0</ele><time>2026-05-01T10:52:07.067Z</time></trkpt><trkpt lat="43.947772510187704" lon="11.213889765233219"><ele>415.5</ele><time>2026-05-01T10:52:30.999Z</time></trkpt><trkpt lat="43.94798479751516" lon="11.21374227875713"><ele>388.0</ele><time>2026-05-01T10:52:31.999Z</time></trkpt><trkpt lat="43.94829553100926" lon="11.213705193965898"><ele>385.5</ele><time>2026-05-01T10:52:32.999Z</time></trkpt><trkpt lat="43.94856996263459" lon="11.213718673154485"><ele>383.0</ele><time>2026-05-01T10:52:33.999Z</time></trkpt><trkpt lat="43.94888419158621" lon="11.213718920163211"><ele>383.0</ele><time>2026-05-01T10:52:34.999Z</time></trkpt><trkpt lat="43.94918246298815" lon="11.213736932833099"><ele>383.0</ele><time>2026-05-01T10:52:35.999Z</time></trkpt><trkpt lat="43.94948361454182" lon="11.213734215687065"><ele>382.0</ele><time>2026-05-01T10:52:36.999Z</time></trkpt><trkpt lat="43.94978004083498" lon="11.213746484067997"><ele>381.0</ele><time>2026-05-01T10:52:37.999Z</time></trkpt><trkpt lat="43.95006816733204" lon="11.213728828741587"><ele>381.0</ele><time>2026-05-01T10:52:38.999Z</time></trkpt><trkpt lat="43.950357451200716" lon="11.213703902591122"><ele>381.0</ele><time>2026-05-01T10:52:39.998Z</time></trkpt><trkpt lat="43.95063052896157" lon="11.213674803506352"><ele>378.5</ele><time>2026-05-01T10:52:40.998Z</time></trkpt><trkpt lat="43.950891872562174" lon="11.21362184065686"><ele>376.0</ele><time>2026-05-01T10:52:42Z</time></trkpt><trkpt lat="43.95115245865749" lon="11.21354347426274"><ele>376.0</ele><time>2026-05-01T10:52:43Z</time></trkpt><trkpt lat="43.95139965372153" lon="11.213436323541398"><ele>376.0</ele><time>2026-05-01T10:52:44Z</time></trkpt><trkpt lat="43.95164121503257" lon="11.213306696059357"><ele>376.0</ele><time>2026-05-01T10:52:45Z</time></trkpt><trkpt lat="43.95187623068088" lon="11.213159964979491"><ele>376.0</ele><time>2026-05-01T10:52:46Z</time></trkpt><trkpt lat="43.95210072643531" lon="11.212989033250405"><ele>381.5</ele><time>2026-05-01T10:52:47Z</time></trkpt><trkpt lat="43.95231838608228" lon="11.212789080641812"><ele>387.0</ele><time>2026-05-01T10:52:48Z</time></trkpt><trkpt lat="43.95253227614074" lon="11.212566782258815"><ele>390.5</ele><time>2026-05-01T10:52:49Z</time></trkpt><trkpt lat="43.95275585594014" lon="11.212343766798433"><ele>394.0</ele><time>2026-05-01T10:52:50Z</time></trkpt><trkpt lat="43.95322014661116" lon="11.211975305075546"><ele>386.5</ele><time>2026-05-01T10:52:52Z</time></trkpt><trkpt lat="43.95342742066003" lon="11.211763599272532"><ele>379.0</ele><time>2026-05-01T10:52:53Z</time></trkpt><trkpt lat="43.953634099049026" lon="11.211551653394258"><ele>374.5</ele><time>2026-05-01T10:52:54Z</time></trkpt><trkpt lat="43.9538511648496" lon="11.211321905016314"><ele>370.0</ele><time>2026-05-01T10:52:55.071Z</time></trkpt><trkpt lat="43.9544835765538" lon="11.210564594159212"><ele>357.5</ele><time>2026-05-01T10:52:58Z</time></trkpt><trkpt lat="43.95469582504134" lon="11.210328463153227"><ele>345.0</ele><time>2026-05-01T10:52:59Z</time></trkpt><trkpt lat="43.95491276243085" lon="11.210097062006115"><ele>346.0</ele><time>2026-05-01T10:53:00Z</time></trkpt><trkpt lat="43.9551483369589" lon="11.209884031479385"><ele>347.0</ele><time>2026-05-01T10:53:01Z</time></trkpt><trkpt lat="43.95539491015749" lon="11.209691826058426"><ele>347.0</ele><time>2026-05-01T10:53:02Z</time></trkpt><trkpt lat="43.95564962294562" lon="11.209515140190314"><ele>347.0</ele><time>2026-05-01T10:53:03Z</time></trkpt><trkpt lat="43.95591214140124" lon="11.209359189724875"><ele>349.5</ele><time>2026-05-01T10:53:04Z</time></trkpt><trkpt lat="43.95618000819122" lon="11.209225255859899"><ele>352.0</ele><time>2026-05-01T10:53:05Z</time></trkpt><trkpt lat="43.95644857697348" lon="11.20911134748761"><ele>352.5</ele><time>2026-05-01T10:53:06Z</time></trkpt><trkpt lat="43.95672129456751" lon="11.209019063005474"><ele>353.0</ele><time>2026-05-01T10:53:07Z</time></trkpt><trkpt lat="43.9570015953205" lon="11.208943247064505"><ele>353.0</ele><time>2026-05-01T10:53:08Z</time></trkpt><trkpt lat="43.9572859575508" lon="11.208884712270883"><ele>353.0</ele><time>2026-05-01T10:53:09Z</time></trkpt><trkpt lat="43.95757169562468" lon="11.208850098187197"><ele>349.5</ele><time>2026-05-01T10:53:10Z</time></trkpt><trkpt lat="43.95785700406273" lon="11.208836336000898"><ele>346.0</ele><time>2026-05-01T10:53:11Z</time></trkpt><trkpt lat="43.958143535063066" lon="11.208847065736025"><ele>347.0</ele><time>2026-05-01T10:53:12Z</time></trkpt><trkpt lat="43.958430124202806" lon="11.208878958713788"><ele>348.0</ele><time>2026-05-01T10:53:13Z</time></trkpt><trkpt lat="43.95871546496526" lon="11.208928945404823"><ele>345.5</ele><time>2026-05-01T10:53:14Z</time></trkpt><trkpt lat="43.95900087066412" lon="11.208998192046199"><ele>343.0</ele><time>2026-05-01T10:53:15Z</time></trkpt><trkpt lat="43.959278174573626" lon="11.20908515023716"><ele>348.5</ele><time>2026-05-01T10:53:16Z</time></trkpt><trkpt lat="43.9595514357958" lon="11.2091974791851"><ele>354.0</ele><time>2026-05-01T10:53:17Z</time></trkpt><trkpt lat="43.95982330298778" lon="11.209332539580899"><ele>357.0</ele><time>2026-05-01T10:53:18Z</time></trkpt><trkpt lat="43.96009723397393" lon="11.209480395389285"><ele>360.0</ele><time>2026-05-01T10:53:19Z</time></trkpt><trkpt lat="43.96037054235421" lon="11.209629307906592"><ele>360.0</ele><time>2026-05-01T10:53:20Z</time></trkpt><trkpt lat="43.960644921312195" lon="11.20978233038321"><ele>360.0</ele><time>2026-05-01T10:53:21Z</time></trkpt><trkpt lat="43.96091804942361" lon="11.209935083205487"><ele>351.5</ele><time>2026-05-01T10:53:22Z</time></trkpt><trkpt lat="43.96117766664942" lon="11.210115840589275"><ele>343.0</ele><time>2026-05-01T10:53:23Z</time></trkpt><trkpt lat="43.961410400009754" lon="11.210167356504499"><ele>343.0</ele><time>2026-05-01T10:53:24Z</time></trkpt><trkpt lat="43.9616697477999" lon="11.210302092044174"><ele>343.0</ele><time>2026-05-01T10:53:25Z</time></trkpt><trkpt lat="43.96194399981892" lon="11.210445343066192"><ele>339.5</ele><time>2026-05-01T10:53:26Z</time></trkpt><trkpt lat="43.96222328171323" lon="11.2105872661482"><ele>336.0</ele><time>2026-05-01T10:53:27Z</time></trkpt><trkpt lat="43.96250950427423" lon="11.210720834580558"><ele>338.5</ele><time>2026-05-01T10:53:28Z</time></trkpt><trkpt lat="43.96279742943897" lon="11.210841392586604"><ele>341.0</ele><time>2026-05-01T10:53:29Z</time></trkpt><trkpt lat="43.96309055941842" lon="11.210953663367881"><ele>345.0</ele><time>2026-05-01T10:53:30Z</time></trkpt><trkpt lat="43.96337959112311" lon="11.211054501595003"><ele>349.0</ele><time>2026-05-01T10:53:31Z</time></trkpt><trkpt lat="43.9636642660431" lon="11.211149388496324"><ele>349.0</ele><time>2026-05-01T10:53:32Z</time></trkpt><trkpt lat="43.96393802264153" lon="11.21123137011042"><ele>349.0</ele><time>2026-05-01T10:53:33Z</time></trkpt><trkpt lat="43.96421060300711" lon="11.21129993508325"><ele>348.0</ele><time>2026-05-01T10:53:34Z</time></trkpt><trkpt lat="43.964486752982" lon="11.211361592586826"><ele>347.0</ele><time>2026-05-01T10:53:35Z</time></trkpt><trkpt lat="43.96476179540798" lon="11.21142226035233"><ele>344.0</ele><time>2026-05-01T10:53:36Z</time></trkpt><trkpt lat="43.96503867047228" lon="11.211475394801854"><ele>341.0</ele><time>2026-05-01T10:53:37Z</time></trkpt><trkpt lat="43.96531107164546" lon="11.211518934914464"><ele>341.0</ele><time>2026-05-01T10:53:38Z</time></trkpt><trkpt lat="43.96557900823614" lon="11.211554506588582"><ele>341.0</ele><time>2026-05-01T10:53:39Z</time></trkpt><trkpt lat="43.96585025332711" lon="11.211581333479947"><ele>341.5</ele><time>2026-05-01T10:53:40Z</time></trkpt><trkpt lat="43.96612150835095" lon="11.211599475464007"><ele>342.0</ele><time>2026-05-01T10:53:41Z</time></trkpt><trkpt lat="43.96638597499294" lon="11.211617841169783"><ele>342.0</ele><time>2026-05-01T10:53:42Z</time></trkpt><trkpt lat="43.96663460666334" lon="11.211630771462213"><ele>342.0</ele><time>2026-05-01T10:53:43Z</time></trkpt><trkpt lat="43.96687165098222" lon="11.21163475604053"><ele>343.5</ele><time>2026-05-01T10:53:44Z</time></trkpt><trkpt lat="43.967112624530934" lon="11.21163323501866"><ele>345.0</ele><time>2026-05-01T10:53:45Z</time></trkpt><trkpt lat="43.967356637635" lon="11.21162710640796"><ele>344.5</ele><time>2026-05-01T10:53:46Z</time></trkpt><trkpt lat="43.96760420793001" lon="11.211618156312579"><ele>344.0</ele><time>2026-05-01T10:53:47Z</time></trkpt><trkpt lat="43.96785266097219" lon="11.211612946330778"><ele>344.0</ele><time>2026-05-01T10:53:48Z</time></trkpt><trkpt lat="43.968100086461355" lon="11.211612271505652"><ele>344.0</ele><time>2026-05-01T10:53:49Z</time></trkpt><trkpt lat="43.96834573361357" lon="11.21160833295333"><ele>343.5</ele><time>2026-05-01T10:53:50Z</time></trkpt><trkpt lat="43.968592967528345" lon="11.211603488593035"><ele>343.0</ele><time>2026-05-01T10:53:51Z</time></trkpt><trkpt lat="43.96883771093905" lon="11.211601810296338"><ele>343.0</ele><time>2026-05-01T10:53:52Z</time></trkpt><trkpt lat="43.96908211959789" lon="11.211596380238825"><ele>343.0</ele><time>2026-05-01T10:53:53Z</time></trkpt><trkpt lat="43.96932376035903" lon="11.211591439377592"><ele>343.5</ele><time>2026-05-01T10:53:54Z</time></trkpt><trkpt lat="43.96955597788561" lon="11.211588795383895"><ele>344.0</ele><time>2026-05-01T10:53:55Z</time></trkpt><trkpt lat="43.96979030838499" lon="11.211586103317602"><ele>344.0</ele><time>2026-05-01T10:53:56Z</time></trkpt><trkpt lat="43.97001843740228" lon="11.21158081137242"><ele>344.0</ele><time>2026-05-01T10:53:57Z</time></trkpt><trkpt lat="43.97025689906106" lon="11.211574988271572"><ele>342.5</ele><time>2026-05-01T10:53:57.999Z</time></trkpt><trkpt lat="43.97049991713852" lon="11.211569075469578"><ele>341.0</ele><time>2026-05-01T10:53:58.999Z</time></trkpt><trkpt lat="43.970741232202585" lon="11.211568899644607"><ele>339.0</ele><time>2026-05-01T10:53:59.999Z</time></trkpt><trkpt lat="43.97097772704842" lon="11.2115675798704"><ele>337.0</ele><time>2026-05-01T10:54:00.999Z</time></trkpt><trkpt lat="43.971210107165156" lon="11.211569022342406"><ele>337.0</ele><time>2026-05-01T10:54:01.999Z</time></trkpt><trkpt lat="43.97143150101412" lon="11.211569413531983"><ele>337.0</ele><time>2026-05-01T10:54:02.999Z</time></trkpt><trkpt lat="43.971646984904744" lon="11.21157057981922"><ele>337.0</ele><time>2026-05-01T10:54:03.999Z</time></trkpt><trkpt lat="43.97185582112856" lon="11.211573742210538"><ele>334.3333333333333</ele><time>2026-05-01T10:54:04.999Z</time></trkpt><trkpt lat="43.97205532002412" lon="11.211573999110577"><ele>331.6666666666667</ele><time>2026-05-01T10:54:05.999Z</time></trkpt><trkpt lat="43.97225372977911" lon="11.21157446135119"><ele>329.0</ele><time>2026-05-01T10:54:06.999Z</time></trkpt><trkpt lat="43.9724417022991" lon="11.211570178948547"><ele>325.33333333333337</ele><time>2026-05-01T10:54:07.999Z</time></trkpt><trkpt lat="43.9726309068541" lon="11.211563937186888"><ele>321.6666666666667</ele><time>2026-05-01T10:54:08.999Z</time></trkpt><trkpt lat="43.9728163340082" lon="11.211555702438483"><ele>318.0</ele><time>2026-05-01T10:54:09.999Z</time></trkpt><trkpt lat="43.97300127677785" lon="11.211553016192234"><ele>318.0</ele><time>2026-05-01T10:54:10.999Z</time></trkpt><trkpt lat="43.97319463735923" lon="11.211550728809305"><ele>318.0</ele><time>2026-05-01T10:54:11.999Z</time></trkpt><trkpt lat="43.97338369957527" lon="11.211549181083942"><ele>318.0</ele><time>2026-05-01T10:54:12.999Z</time></trkpt><trkpt lat="43.973576235338044" lon="11.21154525969323"><ele>316.6666666666667</ele><time>2026-05-01T10:54:13.999Z</time></trkpt><trkpt lat="43.97377164272341" lon="11.211539487398433"><ele>315.33333333333337</ele><time>2026-05-01T10:54:14.999Z</time></trkpt><trkpt lat="43.97396519282756" lon="11.211532160162054"><ele>314.0</ele><time>2026-05-01T10:54:15.999Z</time></trkpt><trkpt lat="43.97416043640375" lon="11.211524436192457"><ele>311.33333333333337</ele><time>2026-05-01T10:54:16.999Z</time></trkpt><trkpt lat="43.974353034051624" lon="11.211515584967355"><ele>308.6666666666667</ele><time>2026-05-01T10:54:17.999Z</time></trkpt><trkpt lat="43.97454566566019" lon="11.211506277374705"><ele>306.0</ele><time>2026-05-01T10:54:18.999Z</time></trkpt><trkpt lat="43.974742442315275" lon="11.211499463487877"><ele>306.0</ele><time>2026-05-01T10:54:19.999Z</time></trkpt><trkpt lat="43.974935788756966" lon="11.211492604977392"><ele>306.0</ele><time>2026-05-01T10:54:20.999Z</time></trkpt><trkpt lat="43.97514291825847" lon="11.211486959002093"><ele>306.0</ele><time>2026-05-01T10:54:21.999Z</time></trkpt><trkpt lat="43.975362621909035" lon="11.211476959330223"><ele>298.0</ele><time>2026-05-01T10:54:22.999Z</time></trkpt><trkpt lat="43.975598388530635" lon="11.211467395007473"><ele>290.0</ele><time>2026-05-01T10:54:23.999Z</time></trkpt><trkpt lat="43.97584502170706" lon="11.211457367297093"><ele>300.0</ele><time>2026-05-01T10:54:24.999Z</time></trkpt><trkpt lat="43.976107810594186" lon="11.211447914468696"><ele>310.0</ele><time>2026-05-01T10:54:25.999Z</time></trkpt><trkpt lat="43.976381341955104" lon="11.211438991175013"><ele>310.0</ele><time>2026-05-01T10:54:26.999Z</time></trkpt><trkpt lat="43.97666111322107" lon="11.211431133286636"><ele>310.0</ele><time>2026-05-01T10:54:27.999Z</time></trkpt><trkpt lat="43.976943692862726" lon="11.211423106450573"><ele>315.5</ele><time>2026-05-01T10:54:28.999Z</time></trkpt><trkpt lat="43.97722979598556" lon="11.21141840736299"><ele>321.0</ele><time>2026-05-01T10:54:29.999Z</time></trkpt><trkpt lat="43.97751559872242" lon="11.211416209477505"><ele>319.0</ele><time>2026-05-01T10:54:30.999Z</time></trkpt><trkpt lat="43.977802376160824" lon="11.21141534563082"><ele>317.0</ele><time>2026-05-01T10:54:31.999Z</time></trkpt><trkpt lat="43.97809717181231" lon="11.211423812380705"><ele>315.5</ele><time>2026-05-01T10:54:32.999Z</time></trkpt><trkpt lat="43.97838952425664" lon="11.211428677175704"><ele>314.0</ele><time>2026-05-01T10:54:33.999Z</time></trkpt><trkpt lat="43.978682668409306" lon="11.211429528028756"><ele>314.0</ele><time>2026-05-01T10:54:34.999Z</time></trkpt><trkpt lat="43.97897423589286" lon="11.211430003004939"><ele>314.0</ele><time>2026-05-01T10:54:35.999Z</time></trkpt><trkpt lat="43.97926040940962" lon="11.211428405204206"><ele>313.5</ele><time>2026-05-01T10:54:36.999Z</time></trkpt><trkpt lat="43.979541182213296" lon="11.211424882537518"><ele>313.0</ele><time>2026-05-01T10:54:37.999Z</time></trkpt><trkpt lat="43.97981732839686" lon="11.211420323731279"><ele>307.0</ele><time>2026-05-01T10:54:38.999Z</time></trkpt><trkpt lat="43.98008931953291" lon="11.211417727547127"><ele>301.0</ele><time>2026-05-01T10:54:39.999Z</time></trkpt><trkpt lat="43.98034985363929" lon="11.211419776586128"><ele>301.0</ele><time>2026-05-01T10:54:40.999Z</time></trkpt><trkpt lat="43.98060355911656" lon="11.211424571749186"><ele>301.0</ele><time>2026-05-01T10:54:41.999Z</time></trkpt><trkpt lat="43.980852256385155" lon="11.211427588450666"><ele>293.5</ele><time>2026-05-01T10:54:42.999Z</time></trkpt><trkpt lat="43.981091215097386" lon="11.211429444876817"><ele>286.0</ele><time>2026-05-01T10:54:43.999Z</time></trkpt><trkpt lat="43.9813230983512" lon="11.21142544369117"><ele>286.0</ele><time>2026-05-01T10:54:44.999Z</time></trkpt><trkpt lat="43.981544983134" lon="11.211420606156748"><ele>286.0</ele><time>2026-05-01T10:54:45.999Z</time></trkpt><trkpt lat="43.98175777503739" lon="11.211420088561406"><ele>286.0</ele><time>2026-05-01T10:54:47Z</time></trkpt><trkpt lat="43.98196106015574" lon="11.211430192736184"><ele>287.3333333333333</ele><time>2026-05-01T10:54:48Z</time></trkpt><trkpt lat="43.98216892519009" lon="11.211459377673071"><ele>288.6666666666667</ele><time>2026-05-01T10:54:49Z</time></trkpt><trkpt lat="43.98238170307721" lon="11.211522334132697"><ele>290.0</ele><time>2026-05-01T10:54:50Z</time></trkpt><trkpt lat="43.98259352744405" lon="11.211625848206452"><ele>290.0</ele><time>2026-05-01T10:54:51Z</time></trkpt><trkpt lat="43.98279322134597" lon="11.211765264879961"><ele>290.0</ele><time>2026-05-01T10:54:52Z</time></trkpt><trkpt lat="43.982971497606755" lon="11.211924996285148"><ele>290.0</ele><time>2026-05-01T10:54:53Z</time></trkpt><trkpt lat="43.98310946333863" lon="11.212114501746854"><ele>290.0</ele><time>2026-05-01T10:54:54Z</time></trkpt><trkpt lat="43.9832002337864" lon="11.21228432945453"><ele>290.0</ele><time>2026-05-01T10:54:55Z</time></trkpt><trkpt lat="43.98327540118554" lon="11.212447657116849"><ele>290.0</ele><time>2026-05-01T10:54:56Z</time></trkpt><trkpt lat="43.98330731482667" lon="11.212627045634369"><ele>290.0</ele><time>2026-05-01T10:54:57Z</time></trkpt><trkpt lat="43.98331368491982" lon="11.212807291302134"><ele>289.6</ele><time>2026-05-01T10:54:58Z</time></trkpt><trkpt lat="43.98330874382774" lon="11.212982452512916"><ele>289.2</ele><time>2026-05-01T10:54:59Z</time></trkpt><trkpt lat="43.98331794877234" lon="11.21314210854425"><ele>288.8</ele><time>2026-05-01T10:55:00Z</time></trkpt><trkpt lat="43.983326895885334" lon="11.213289899579053"><ele>288.4</ele><time>2026-05-01T10:55:01Z</time></trkpt><trkpt lat="43.983334679933854" lon="11.213418478784726"><ele>288.0</ele><time>2026-05-01T10:55:02Z</time></trkpt><trkpt lat="43.983287711118486" lon="11.213544823330777"><ele>287.4</ele><time>2026-05-01T10:55:03Z</time></trkpt><trkpt lat="43.9832851508617" lon="11.213658511685951"><ele>286.8</ele><time>2026-05-01T10:55:04Z</time></trkpt><trkpt lat="43.98328266929999" lon="11.213761343549205"><ele>286.2</ele><time>2026-05-01T10:55:05Z</time></trkpt><trkpt lat="43.98327725331384" lon="11.213910418706629"><ele>285.6</ele><time>2026-05-01T10:55:07Z</time></trkpt><trkpt lat="43.98327012592185" lon="11.214064575646653"><ele>285.0</ele><time>2026-05-01T10:55:09Z</time></trkpt><trkpt lat="43.98324956916372" lon="11.21421641862974"><ele>284.6</ele><time>2026-05-01T10:55:11Z</time></trkpt><trkpt lat="43.98322954449996" lon="11.214370925973736"><ele>284.2</ele><time>2026-05-01T10:55:13Z</time></trkpt><trkpt lat="43.983212822433806" lon="11.214548997194118"><ele>283.8</ele><time>2026-05-01T10:55:15Z</time></trkpt><trkpt lat="43.98318911277259" lon="11.214660060473399"><ele>283.4</ele><time>2026-05-01T10:55:16Z</time></trkpt><trkpt lat="43.98317324193758" lon="11.214795843588345"><ele>283.0</ele><time>2026-05-01T10:55:17Z</time></trkpt><trkpt lat="43.983151819871495" lon="11.214940779330721"><ele>282.0</ele><time>2026-05-01T10:55:18Z</time></trkpt><trkpt lat="43.983128419087194" lon="11.215090950934975"><ele>281.0</ele><time>2026-05-01T10:55:19Z</time></trkpt><trkpt lat="43.983103205786385" lon="11.215237256595213"><ele>280.0</ele><time>2026-05-01T10:55:20Z</time></trkpt><trkpt lat="43.983073509377114" lon="11.21536408710251"><ele>279.0</ele><time>2026-05-01T10:55:21Z</time></trkpt><trkpt lat="43.98299776517162" lon="11.215532266392426"><ele>279.0</ele><time>2026-05-01T10:55:23Z</time></trkpt><trkpt lat="43.982931525569576" lon="11.2156332489071"><ele>279.0</ele><time>2026-05-01T10:58:56.999Z</time></trkpt><trkpt lat="43.9828531300429" lon="11.21573157339882"><ele>279.0</ele><time>2026-05-01T10:58:59Z</time></trkpt><trkpt lat="43.98279989104379" lon="11.215791390327194"><ele>279.0</ele><time>2026-05-01T10:59:00Z</time></trkpt><trkpt lat="43.982746954299635" lon="11.215860406959578"><ele>279.0</ele><time>2026-05-01T10:59:01Z</time></trkpt><trkpt lat="43.98268666931434" lon="11.215928091297993"><ele>279.0</ele><time>2026-05-01T10:59:02Z</time></trkpt><trkpt lat="43.98262548218682" lon="11.215993287234506"><ele>278.3333333333333</ele><time>2026-05-01T10:59:03Z</time></trkpt><trkpt lat="43.98256528975348" lon="11.216049899910798"><ele>277.6666666666667</ele><time>2026-05-01T10:59:04Z</time></trkpt><trkpt lat="43.982503185310236" lon="11.216077439288503"><ele>277.0</ele><time>2026-05-01T10:59:05Z</time></trkpt><trkpt lat="43.98242422273979" lon="11.216145121491904"><ele>276.33333333333337</ele><time>2026-05-01T10:59:07Z</time></trkpt><trkpt lat="43.98235096517084" lon="11.216194895981367"><ele>275.6666666666667</ele><time>2026-05-01T10:59:09Z</time></trkpt><trkpt lat="43.98224877097228" lon="11.216212288438339"><ele>275.0</ele><time>2026-05-01T10:59:11Z</time></trkpt><trkpt lat="43.982133073310926" lon="11.216219834237302"><ele>275.0</ele><time>2026-05-01T10:59:13Z</time></trkpt><trkpt lat="43.98200667125224" lon="11.216257856965242"><ele>275.0</ele><time>2026-05-01T10:59:15Z</time></trkpt><trkpt lat="43.98193840342542" lon="11.216253471572914"><ele>275.0</ele><time>2026-05-01T10:59:16Z</time></trkpt><trkpt lat="43.981874793607616" lon="11.216296538074333"><ele>275.0</ele><time>2026-05-01T10:59:17Z</time></trkpt><trkpt lat="43.98183566948019" lon="11.216381742706957"><ele>275.0</ele><time>2026-05-01T10:59:18Z</time></trkpt><trkpt lat="43.98179068257271" lon="11.216525999081496"><ele>274.0</ele><time>2026-05-01T10:59:20Z</time></trkpt><trkpt lat="43.98176808032309" lon="11.21668081462761"><ele>273.0</ele><time>2026-05-01T10:59:22Z</time></trkpt><trkpt lat="43.9818452408763" lon="11.216772700921625"><ele>272.0</ele><time>2026-05-01T10:59:23Z</time></trkpt><trkpt lat="43.98190266084186" lon="11.21683434406995"><ele>271.0</ele><time>2026-05-01T10:59:24Z</time></trkpt><trkpt lat="43.98196818266242" lon="11.216880793589421"><ele>270.0</ele><time>2026-05-01T10:59:25Z</time></trkpt><trkpt lat="43.98203717677318" lon="11.216918605573785"><ele>269.0</ele><time>2026-05-01T10:59:26Z</time></trkpt><trkpt lat="43.98210831243516" lon="11.216885781329784"><ele>269.0</ele><time>2026-05-01T10:59:27Z</time></trkpt><trkpt lat="43.98216347793633" lon="11.217020117594458"><ele>269.0</ele><time>2026-05-01T10:59:28Z</time></trkpt><trkpt lat="43.982221728638756" lon="11.217110546404916"><ele>269.0</ele><time>2026-05-01T10:59:29Z</time></trkpt><trkpt lat="43.98228410278762" lon="11.217224432641116"><ele>269.0</ele><time>2026-05-01T10:59:30Z</time></trkpt><trkpt lat="43.98234803026032" lon="11.217346926580195"><ele>269.0</ele><time>2026-05-01T10:59:31Z</time></trkpt><trkpt lat="43.982410923529784" lon="11.217479420585216"><ele>268.5</ele><time>2026-05-01T10:59:32Z</time></trkpt><trkpt lat="43.98247712781877" lon="11.217621503845317"><ele>268.0</ele><time>2026-05-01T10:59:33Z</time></trkpt><trkpt lat="43.98254822119351" lon="11.21777254886605"><ele>267.5</ele><time>2026-05-01T10:59:34Z</time></trkpt><trkpt lat="43.98262056166854" lon="11.217934477468892"><ele>267.0</ele><time>2026-05-01T10:59:35Z</time></trkpt><trkpt lat="43.98269365964657" lon="11.218099300419885"><ele>266.75</ele><time>2026-05-01T10:59:36Z</time></trkpt><trkpt lat="43.982770247126496" lon="11.218267507187194"><ele>266.5</ele><time>2026-05-01T10:59:37Z</time></trkpt><trkpt lat="43.982848584013524" lon="11.21844036480541"><ele>266.25</ele><time>2026-05-01T10:59:38Z</time></trkpt><trkpt lat="43.98292945311605" lon="11.21861587206829"><ele>266.0</ele><time>2026-05-01T10:59:39Z</time></trkpt><trkpt lat="43.98301045036775" lon="11.218790545428497"><ele>266.0</ele><time>2026-05-01T10:59:40Z</time></trkpt><trkpt lat="43.98309090084958" lon="11.21896934529703"><ele>266.0</ele><time>2026-05-01T10:59:41Z</time></trkpt><trkpt lat="43.98317013022246" lon="11.219146996513137"><ele>266.0</ele><time>2026-05-01T10:59:42Z</time></trkpt><trkpt lat="43.98325103254279" lon="11.219320123885105"><ele>265.6666666666667</ele><time>2026-05-01T10:59:43Z</time></trkpt><trkpt lat="43.983333484554244" lon="11.219498019624266"><ele>265.3333333333333</ele><time>2026-05-01T10:59:44Z</time></trkpt><trkpt lat="43.98341772554301" lon="11.219680249571203"><ele>265.0</ele><time>2026-05-01T10:59:45Z</time></trkpt><trkpt lat="43.983502199993396" lon="11.219862889607619"><ele>267.3333333333333</ele><time>2026-05-01T10:59:46Z</time></trkpt><trkpt lat="43.983587387731056" lon="11.2200478450475"><ele>269.6666666666667</ele><time>2026-05-01T10:59:47Z</time></trkpt><trkpt lat="43.983671374030976" lon="11.220230706979002"><ele>272.0</ele><time>2026-05-01T10:59:48Z</time></trkpt><trkpt lat="43.98375147916617" lon="11.220408106144719"><ele>272.0</ele><time>2026-05-01T10:59:49Z</time></trkpt><trkpt lat="43.98382837192911" lon="11.220579823348464"><ele>272.0</ele><time>2026-05-01T10:59:50Z</time></trkpt><trkpt lat="43.98389988942241" lon="11.22074477527528"><ele>272.0</ele><time>2026-05-01T10:59:51Z</time></trkpt><trkpt lat="43.983969796843404" lon="11.22090224046315"><ele>272.0</ele><time>2026-05-01T10:59:52Z</time></trkpt><trkpt lat="43.98403975842471" lon="11.221054301506886"><ele>272.0</ele><time>2026-05-01T10:59:53Z</time></trkpt><trkpt lat="43.98411100807961" lon="11.221209010714071"><ele>272.0</ele><time>2026-05-01T10:59:54Z</time></trkpt><trkpt lat="43.98418615031219" lon="11.221361647042789"><ele>272.0</ele><time>2026-05-01T10:59:55Z</time></trkpt><trkpt lat="43.98426239405642" lon="11.22151876194989"><ele>272.0</ele><time>2026-05-01T10:59:56Z</time></trkpt><trkpt lat="43.98434346634699" lon="11.221674898348773"><ele>272.0</ele><time>2026-05-01T10:59:57Z</time></trkpt><trkpt lat="43.98442826397877" lon="11.221832370272876"><ele>272.0</ele><time>2026-05-01T10:59:58Z</time></trkpt><trkpt lat="43.9845187233518" lon="11.221992785400024"><ele>272.0</ele><time>2026-05-01T10:59:59Z</time></trkpt><trkpt lat="43.984614652209196" lon="11.222156458936643"><ele>272.0</ele><time>2026-05-01T11:00:00Z</time></trkpt><trkpt lat="43.9847133361247" lon="11.222322611261896"><ele>272.0</ele><time>2026-05-01T11:00:01Z</time></trkpt><trkpt lat="43.98481352532653" lon="11.222492960202633"><ele>272.0</ele><time>2026-05-01T11:00:02Z</time></trkpt><trkpt lat="43.984920363936475" lon="11.222667166722667"><ele>272.0</ele><time>2026-05-01T11:00:03Z</time></trkpt><trkpt lat="43.98502746216843" lon="11.222837416168321"><ele>272.6666666666667</ele><time>2026-05-01T11:00:04Z</time></trkpt><trkpt lat="43.985130630605504" lon="11.223002078037522"><ele>273.3333333333333</ele><time>2026-05-01T11:00:05Z</time></trkpt><trkpt lat="43.98523051169954" lon="11.223163821496575"><ele>274.0</ele><time>2026-05-01T11:00:06Z</time></trkpt><trkpt lat="43.98532932011589" lon="11.223324665295683"><ele>274.5</ele><time>2026-05-01T11:00:07Z</time></trkpt><trkpt lat="43.985425232669" lon="11.223479789242814"><ele>275.0</ele><time>2026-05-01T11:00:07.999Z</time></trkpt><trkpt lat="43.985517180221706" lon="11.223630736960791"><ele>275.5</ele><time>2026-05-01T11:00:08.999Z</time></trkpt><trkpt lat="43.98560898597783" lon="11.223783063237185"><ele>276.0</ele><time>2026-05-01T11:00:09.999Z</time></trkpt><trkpt lat="43.98570029585544" lon="11.223938263039077"><ele>277.6666666666667</ele><time>2026-05-01T11:00:10.999Z</time></trkpt><trkpt lat="43.985791791223036" lon="11.224096216170727"><ele>279.33333333333337</ele><time>2026-05-01T11:00:11.999Z</time></trkpt><trkpt lat="43.985888728639004" lon="11.224255033855945"><ele>281.0</ele><time>2026-05-01T11:00:12.999Z</time></trkpt><trkpt lat="43.985988884806666" lon="11.224419132807567"><ele>281.33333333333337</ele><time>2026-05-01T11:00:13.999Z</time></trkpt><trkpt lat="43.986087701458636" lon="11.224613657072487"><ele>281.6666666666667</ele><time>2026-05-01T11:00:14.999Z</time></trkpt><trkpt lat="43.986205822180374" lon="11.224809262684161"><ele>282.0</ele><time>2026-05-01T11:00:15.999Z</time></trkpt><trkpt lat="43.98632701695461" lon="11.225012753718827"><ele>283.0</ele><time>2026-05-01T11:00:16.999Z</time></trkpt><trkpt lat="43.986462182163876" lon="11.22521367231475"><ele>284.0</ele><time>2026-05-01T11:00:17.999Z</time></trkpt><trkpt lat="43.98658952786834" lon="11.225434242630902"><ele>285.0</ele><time>2026-05-01T11:00:18.999Z</time></trkpt><trkpt lat="43.98671827534782" lon="11.225645667042794"><ele>285.3333333333333</ele><time>2026-05-01T11:00:19.999Z</time></trkpt><trkpt lat="43.986853001222315" lon="11.225861513018227"><ele>285.66666666666663</ele><time>2026-05-01T11:00:20.999Z</time></trkpt><trkpt lat="43.9869952706028" lon="11.226076154614901"><ele>286.0</ele><time>2026-05-01T11:00:21.999Z</time></trkpt><trkpt lat="43.98715030989145" lon="11.226281779235679"><ele>284.66666666666663</ele><time>2026-05-01T11:00:22.999Z</time></trkpt><trkpt lat="43.98730562111755" lon="11.226496096066256"><ele>283.3333333333333</ele><time>2026-05-01T11:00:23.999Z</time></trkpt><trkpt lat="43.98748381712138" lon="11.22667482108337"><ele>282.0</ele><time>2026-05-01T11:00:24.999Z</time></trkpt><trkpt lat="43.98768001612584" lon="11.226814521407244"><ele>281.6666666666667</ele><time>2026-05-01T11:00:25.999Z</time></trkpt><trkpt lat="43.987879390295554" lon="11.226956657594704"><ele>281.33333333333337</ele><time>2026-05-01T11:00:26.999Z</time></trkpt><trkpt lat="43.98805046961673" lon="11.227075928159797"><ele>281.0</ele><time>2026-05-01T11:00:27.999Z</time></trkpt><trkpt lat="43.988288095730965" lon="11.227218135429357"><ele>277.5</ele><time>2026-05-01T11:00:28.999Z</time></trkpt><trkpt lat="43.988497180000344" lon="11.227337974776402"><ele>274.0</ele><time>2026-05-01T11:00:29.999Z</time></trkpt><trkpt lat="43.988711426541244" lon="11.227464675779316"><ele>274.0</ele><time>2026-05-01T11:00:30.999Z</time></trkpt><trkpt lat="43.98892511126468" lon="11.227596128551225"><ele>274.0</ele><time>2026-05-01T11:00:31.999Z</time></trkpt><trkpt lat="43.98913573077738" lon="11.227735929424957"><ele>273.0</ele><time>2026-05-01T11:00:32.999Z</time></trkpt><trkpt lat="43.989335570065045" lon="11.22790277430304"><ele>272.0</ele><time>2026-05-01T11:00:33.999Z</time></trkpt><trkpt lat="43.98952464252857" lon="11.22809792853069"><ele>270.5</ele><time>2026-05-01T11:00:34.999Z</time></trkpt><trkpt lat="43.98970714304254" lon="11.228319309146562"><ele>269.0</ele><time>2026-05-01T11:00:35.999Z</time></trkpt><trkpt lat="43.98988013734181" lon="11.228567198528456"><ele>268.0</ele><time>2026-05-01T11:00:36.999Z</time></trkpt><trkpt lat="43.99004117744235" lon="11.228832299776212"><ele>267.0</ele><time>2026-05-01T11:00:37.999Z</time></trkpt><trkpt lat="43.990178878909425" lon="11.22911656395145"><ele>264.5</ele><time>2026-05-01T11:00:38.999Z</time></trkpt><trkpt lat="43.99029543871424" lon="11.229423880498896"><ele>262.0</ele><time>2026-05-01T11:00:39.999Z</time></trkpt><trkpt lat="43.99038787246863" lon="11.229742660614496"><ele>261.5</ele><time>2026-05-01T11:00:40.999Z</time></trkpt><trkpt lat="43.9904616206882" lon="11.230062534037996"><ele>261.0</ele><time>2026-05-01T11:00:41.999Z</time></trkpt><trkpt lat="43.99052004138446" lon="11.230391082667165"><ele>261.5</ele><time>2026-05-01T11:00:42.999Z</time></trkpt><trkpt lat="43.99055313946818" lon="11.230725028831635"><ele>262.0</ele><time>2026-05-01T11:00:43.999Z</time></trkpt><trkpt lat="43.99056053061144" lon="11.231058941381038"><ele>262.0</ele><time>2026-05-01T11:00:44.999Z</time></trkpt><trkpt lat="43.990542398169794" lon="11.231392108889413"><ele>262.0</ele><time>2026-05-01T11:00:45.999Z</time></trkpt><trkpt lat="43.99050592267005" lon="11.231714177289255"><ele>261.5</ele><time>2026-05-01T11:00:46.999Z</time></trkpt><trkpt lat="43.99045340492007" lon="11.232022544955592"><ele>261.0</ele><time>2026-05-01T11:00:47.999Z</time></trkpt><trkpt lat="43.99038385738241" lon="11.232319114136496"><ele>261.0</ele><time>2026-05-01T11:00:48.999Z</time></trkpt><trkpt lat="43.99029303907647" lon="11.232604497795698"><ele>261.0</ele><time>2026-05-01T11:00:49.999Z</time></trkpt><trkpt lat="43.990186550190685" lon="11.232891577763342"><ele>261.5</ele><time>2026-05-01T11:00:50.999Z</time></trkpt><trkpt lat="43.99007414683625" lon="11.233170774790143"><ele>262.0</ele><time>2026-05-01T11:00:51.999Z</time></trkpt><trkpt lat="43.98996103211101" lon="11.233446863129465"><ele>261.0</ele><time>2026-05-01T11:00:52.999Z</time></trkpt><trkpt lat="43.98985028982785" lon="11.233725067984746"><ele>260.0</ele><time>2026-05-01T11:00:53.999Z</time></trkpt><trkpt lat="43.98973857068128" lon="11.234001034997064"><ele>260.0</ele><time>2026-05-01T11:00:54.999Z</time></trkpt><trkpt lat="43.98962979488884" lon="11.234274859949556"><ele>260.0</ele><time>2026-05-01T11:00:55.999Z</time></trkpt><trkpt lat="43.98952456947635" lon="11.23453917622057"><ele>260.0</ele><time>2026-05-01T11:00:56.999Z</time></trkpt><trkpt lat="43.98942051362499" lon="11.234800571458102"><ele>260.5</ele><time>2026-05-01T11:00:57.999Z</time></trkpt><trkpt lat="43.98931466510794" lon="11.235073343076172"><ele>261.0</ele><time>2026-05-01T11:00:58.999Z</time></trkpt><trkpt lat="43.989211799431395" lon="11.23535548686128"><ele>261.0</ele><time>2026-05-01T11:00:59.999Z</time></trkpt><trkpt lat="43.989118124769455" lon="11.235647285806852"><ele>261.0</ele><time>2026-05-01T11:01:00.999Z</time></trkpt><trkpt lat="43.98903719317189" lon="11.235950465124553"><ele>261.0</ele><time>2026-05-01T11:01:01.999Z</time></trkpt><trkpt lat="43.9889739433083" lon="11.236262988685157"><ele>261.0</ele><time>2026-05-01T11:01:02.999Z</time></trkpt><trkpt lat="43.98892735544205" lon="11.236586704871995"><ele>260.0</ele><time>2026-05-01T11:01:03.999Z</time></trkpt><trkpt lat="43.988903373917964" lon="11.23691241165309"><ele>259.0</ele><time>2026-05-01T11:01:05Z</time></trkpt><trkpt lat="43.98887316081237" lon="11.237237478214364"><ele>258.5</ele><time>2026-05-01T11:01:06Z</time></trkpt><trkpt lat="43.988909879054404" lon="11.23755810586735"><ele>258.0</ele><time>2026-05-01T11:01:07Z</time></trkpt><trkpt lat="43.98894678091458" lon="11.237861340113742"><ele>257.6666666666667</ele><time>2026-05-01T11:01:08Z</time></trkpt><trkpt lat="43.98899999877682" lon="11.23814606950531"><ele>257.33333333333337</ele><time>2026-05-01T11:01:09Z</time></trkpt><trkpt lat="43.989064579630586" lon="11.238413531557203"><ele>257.0</ele><time>2026-05-01T11:01:10Z</time></trkpt><trkpt lat="43.98913740174144" lon="11.238666169719155"><ele>257.6666666666667</ele><time>2026-05-01T11:01:11Z</time></trkpt><trkpt lat="43.989217091274895" lon="11.238901761093153"><ele>258.3333333333333</ele><time>2026-05-01T11:01:12Z</time></trkpt><trkpt lat="43.98930003317676" lon="11.239121283612876"><ele>259.0</ele><time>2026-05-01T11:01:13Z</time></trkpt><trkpt lat="43.989385219077896" lon="11.239326523345136"><ele>259.0</ele><time>2026-05-01T11:01:14Z</time></trkpt><trkpt lat="43.98946885662534" lon="11.239514858139815"><ele>259.0</ele><time>2026-05-01T11:01:15Z</time></trkpt><trkpt lat="43.989550887356096" lon="11.239692038255374"><ele>259.0</ele><time>2026-05-01T11:01:16Z</time></trkpt><trkpt lat="43.989627976039614" lon="11.239868011827028"><ele>258.66666666666663</ele><time>2026-05-01T11:01:17Z</time></trkpt><trkpt lat="43.989709530589295" lon="11.240051562586354"><ele>258.3333333333333</ele><time>2026-05-01T11:01:18Z</time></trkpt><trkpt lat="43.98979936357377" lon="11.24024707549079"><ele>258.0</ele><time>2026-05-01T11:01:19Z</time></trkpt><trkpt lat="43.9898976350174" lon="11.240460683300812"><ele>258.0</ele><time>2026-05-01T11:01:20Z</time></trkpt><trkpt lat="43.98999888395735" lon="11.240702061885255"><ele>258.0</ele><time>2026-05-01T11:01:21Z</time></trkpt><trkpt lat="43.99010197671901" lon="11.240960512505941"><ele>258.0</ele><time>2026-05-01T11:01:22Z</time></trkpt><trkpt lat="43.990212241170966" lon="11.24122749628687"><ele>257.6666666666667</ele><time>2026-05-01T11:01:23Z</time></trkpt><trkpt lat="43.990325982601334" lon="11.241493494755614"><ele>257.33333333333337</ele><time>2026-05-01T11:01:24Z</time></trkpt><trkpt lat="43.990437446449995" lon="11.241750577428736"><ele>257.0</ele><time>2026-05-01T11:01:25Z</time></trkpt><trkpt lat="43.99054382266649" lon="11.241996188119755"><ele>257.0</ele><time>2026-05-01T11:01:26Z</time></trkpt><trkpt lat="43.99064810770128" lon="11.242237733397358"><ele>257.0</ele><time>2026-05-01T11:01:27Z</time></trkpt><trkpt lat="43.99075436158017" lon="11.24248475435112"><ele>257.0</ele><time>2026-05-01T11:01:28Z</time></trkpt><trkpt lat="43.99085789486761" lon="11.242723887959217"><ele>256.6666666666667</ele><time>2026-05-01T11:01:29Z</time></trkpt><trkpt lat="43.990951259675754" lon="11.242938846916179"><ele>256.3333333333333</ele><time>2026-05-01T11:01:30Z</time></trkpt><trkpt lat="43.991040918673605" lon="11.243144399515673"><ele>256.0</ele><time>2026-05-01T11:01:31Z</time></trkpt><trkpt lat="43.991132452820416" lon="11.243352466526657"><ele>254.33333333333331</ele><time>2026-05-01T11:01:32Z</time></trkpt><trkpt lat="43.99123076781261" lon="11.243576511930621"><ele>252.66666666666669</ele><time>2026-05-01T11:01:33Z</time></trkpt><trkpt lat="43.99133890580022" lon="11.243809626633249"><ele>251.0</ele><time>2026-05-01T11:01:34Z</time></trkpt><trkpt lat="43.99145230886937" lon="11.244052133805123"><ele>251.0</ele><time>2026-05-01T11:01:35Z</time></trkpt><trkpt lat="43.99156288012706" lon="11.244302656607584"><ele>251.0</ele><time>2026-05-01T11:01:36Z</time></trkpt><trkpt lat="43.991671229442105" lon="11.244566177624314"><ele>251.0</ele><time>2026-05-01T11:01:37Z</time></trkpt><trkpt lat="43.9917818530328" lon="11.244838525867465"><ele>252.5</ele><time>2026-05-01T11:01:38Z</time></trkpt><trkpt lat="43.99189736923861" lon="11.245113949654783"><ele>254.0</ele><time>2026-05-01T11:01:39Z</time></trkpt><trkpt lat="43.99201307161876" lon="11.245389870844743"><ele>255.5</ele><time>2026-05-01T11:01:40Z</time></trkpt><trkpt lat="43.992127704297026" lon="11.245665238497246"><ele>257.0</ele><time>2026-05-01T11:01:41Z</time></trkpt><trkpt lat="43.9922417366848" lon="11.245945001761749"><ele>257.0</ele><time>2026-05-01T11:01:42Z</time></trkpt><trkpt lat="43.992355916546906" lon="11.246230053862181"><ele>257.0</ele><time>2026-05-01T11:01:43Z</time></trkpt><trkpt lat="43.99245773717934" lon="11.246522371628862"><ele>259.0</ele><time>2026-05-01T11:01:44Z</time></trkpt><trkpt lat="43.992544237563685" lon="11.246824796879904"><ele>261.0</ele><time>2026-05-01T11:01:45Z</time></trkpt><trkpt lat="43.99261192942475" lon="11.247140074479255"><ele>264.0</ele><time>2026-05-01T11:01:46Z</time></trkpt><trkpt lat="43.992660926093116" lon="11.24746509651562"><ele>267.0</ele><time>2026-05-01T11:01:46.999Z</time></trkpt><trkpt lat="43.99268946397215" lon="11.247798507704307"><ele>269.0</ele><time>2026-05-01T11:01:47.999Z</time></trkpt><trkpt lat="43.992695239519854" lon="11.248132225900216"><ele>271.0</ele><time>2026-05-01T11:01:48.999Z</time></trkpt><trkpt lat="43.99267530071049" lon="11.24845403523171"><ele>271.0</ele><time>2026-05-01T11:01:49.999Z</time></trkpt><trkpt lat="43.99263972160925" lon="11.248756259643763"><ele>271.0</ele><time>2026-05-01T11:01:50.999Z</time></trkpt><trkpt lat="43.992589914571234" lon="11.249047391715607"><ele>271.0</ele><time>2026-05-01T11:01:51.999Z</time></trkpt><trkpt lat="43.992522831969275" lon="11.249325469911248"><ele>271.0</ele><time>2026-05-01T11:01:52.999Z</time></trkpt><trkpt lat="43.99243979271518" lon="11.24959264457471"><ele>271.0</ele><time>2026-05-01T11:01:53.999Z</time></trkpt><trkpt lat="43.99234692710269" lon="11.249845423589331"><ele>271.0</ele><time>2026-05-01T11:01:54.999Z</time></trkpt><trkpt lat="43.99224790071781" lon="11.25008068638498"><ele>272.0</ele><time>2026-05-01T11:01:55.999Z</time></trkpt><trkpt lat="43.99214048445834" lon="11.250295547204251"><ele>273.0</ele><time>2026-05-01T11:01:56.999Z</time></trkpt><trkpt lat="43.992021381006275" lon="11.25049306671115"><ele>274.0</ele><time>2026-05-01T11:01:57.999Z</time></trkpt><trkpt lat="43.9918921540212" lon="11.250680970026016"><ele>275.66666666666663</ele><time>2026-05-01T11:01:58.999Z</time></trkpt><trkpt lat="43.9917535573675" lon="11.250866086174868"><ele>277.3333333333333</ele><time>2026-05-01T11:01:59.999Z</time></trkpt><trkpt lat="43.99160559500837" lon="11.251050936226086"><ele>279.0</ele><time>2026-05-01T11:02:00.999Z</time></trkpt><trkpt lat="43.99145626446543" lon="11.251234373975244"><ele>279.0</ele><time>2026-05-01T11:02:01.999Z</time></trkpt><trkpt lat="43.991304973536" lon="11.251415028292802"><ele>279.0</ele><time>2026-05-01T11:02:02.999Z</time></trkpt><trkpt lat="43.99115188970106" lon="11.251593537476897"><ele>279.0</ele><time>2026-05-01T11:02:03.999Z</time></trkpt><trkpt lat="43.99100298047356" lon="11.251768939189619"><ele>279.3333333333333</ele><time>2026-05-01T11:02:04.999Z</time></trkpt><trkpt lat="43.9908578995168" lon="11.251942641211876"><ele>279.66666666666663</ele><time>2026-05-01T11:02:05.999Z</time></trkpt><trkpt lat="43.99071665390399" lon="11.252110176332437"><ele>280.0</ele><time>2026-05-01T11:02:06.999Z</time></trkpt><trkpt lat="43.99057541727879" lon="11.252276188765418"><ele>283.0</ele><time>2026-05-01T11:02:07.999Z</time></trkpt><trkpt lat="43.99043089664671" lon="11.252448669174917"><ele>286.0</ele><time>2026-05-01T11:02:08.999Z</time></trkpt><trkpt lat="43.990279439896824" lon="11.252632099988796"><ele>289.0</ele><time>2026-05-01T11:02:09.999Z</time></trkpt><trkpt lat="43.99012334222511" lon="11.252820939147384"><ele>288.66666666666663</ele><time>2026-05-01T11:02:10.999Z</time></trkpt><trkpt lat="43.989968157025956" lon="11.253007906825179"><ele>288.3333333333333</ele><time>2026-05-01T11:02:11.999Z</time></trkpt><trkpt lat="43.989815422328505" lon="11.253198736642327"><ele>288.0</ele><time>2026-05-01T11:02:12.999Z</time></trkpt><trkpt lat="43.98966116118409" lon="11.253396677853651"><ele>288.0</ele><time>2026-05-01T11:02:13.999Z</time></trkpt><trkpt lat="43.989498141820754" lon="11.253594551201317"><ele>288.0</ele><time>2026-05-01T11:02:14.999Z</time></trkpt><trkpt lat="43.98932995412079" lon="11.253784868660862"><ele>288.0</ele><time>2026-05-01T11:02:15.999Z</time></trkpt><trkpt lat="43.989161748917226" lon="11.253969910499402"><ele>287.6666666666667</ele><time>2026-05-01T11:02:16.999Z</time></trkpt><trkpt lat="43.98899677638661" lon="11.254153315278371"><ele>287.33333333333337</ele><time>2026-05-01T11:02:17.999Z</time></trkpt><trkpt lat="43.988834954896994" lon="11.2543387492732"><ele>287.0</ele><time>2026-05-01T11:02:18.999Z</time></trkpt><trkpt lat="43.98867664966737" lon="11.254527032969841"><ele>287.0</ele><time>2026-05-01T11:02:19.999Z</time></trkpt><trkpt lat="43.98852514412631" lon="11.254719455189472"><ele>287.0</ele><time>2026-05-01T11:02:20.999Z</time></trkpt><trkpt lat="43.98837995056984" lon="11.25491535789016"><ele>287.0</ele><time>2026-05-01T11:02:21.999Z</time></trkpt><trkpt lat="43.988241518869934" lon="11.255123906140916"><ele>286.33333333333337</ele><time>2026-05-01T11:02:22.999Z</time></trkpt><trkpt lat="43.98810752374979" lon="11.255346388127386"><ele>285.6666666666667</ele><time>2026-05-01T11:02:23.999Z</time></trkpt><trkpt lat="43.9879835369544" lon="11.255580893371828"><ele>285.0</ele><time>2026-05-01T11:02:24.999Z</time></trkpt><trkpt lat="43.98787306272578" lon="11.255829978876827"><ele>287.0</ele><time>2026-05-01T11:02:25.999Z</time></trkpt><trkpt lat="43.98777838971553" lon="11.25608724936941"><ele>289.0</ele><time>2026-05-01T11:02:26.999Z</time></trkpt><trkpt lat="43.98769864718985" lon="11.256346695288334"><ele>291.0</ele><time>2026-05-01T11:02:27.999Z</time></trkpt><trkpt lat="43.98763140376606" lon="11.256605878621944"><ele>290.6666666666667</ele><time>2026-05-01T11:02:28.999Z</time></trkpt><trkpt lat="43.98757487401047" lon="11.256868498204085"><ele>290.33333333333337</ele><time>2026-05-01T11:02:29.999Z</time></trkpt><trkpt lat="43.98753238466657" lon="11.25712837565487"><ele>290.0</ele><time>2026-05-01T11:02:30.999Z</time></trkpt><trkpt lat="43.98750669863511" lon="11.25736888237045"><ele>290.0</ele><time>2026-05-01T11:02:31.999Z</time></trkpt><trkpt lat="43.98749942378753" lon="11.257593871087192"><ele>290.0</ele><time>2026-05-01T11:02:32.999Z</time></trkpt><trkpt lat="43.98749696732972" lon="11.257817567041212"><ele>290.0</ele><time>2026-05-01T11:02:33.999Z</time></trkpt><trkpt lat="43.987502757866984" lon="11.258029750165644"><ele>289.0</ele><time>2026-05-01T11:02:34.999Z</time></trkpt><trkpt lat="43.987515810845984" lon="11.258244168479933"><ele>288.0</ele><time>2026-05-01T11:02:35.999Z</time></trkpt><trkpt lat="43.98753515803354" lon="11.258459615137392"><ele>287.0</ele><time>2026-05-01T11:02:36.999Z</time></trkpt><trkpt lat="43.987562360072566" lon="11.258675881795794"><ele>287.0</ele><time>2026-05-01T11:02:37.999Z</time></trkpt><trkpt lat="43.98759599948482" lon="11.258888123060501"><ele>287.0</ele><time>2026-05-01T11:02:38.999Z</time></trkpt><trkpt lat="43.987635690965725" lon="11.25910135787749"><ele>287.0</ele><time>2026-05-01T11:02:39.999Z</time></trkpt><trkpt lat="43.98767875454116" lon="11.259311617849441"><ele>283.6666666666667</ele><time>2026-05-01T11:02:40.999Z</time></trkpt><trkpt lat="43.987726027386664" lon="11.259509776292813"><ele>280.3333333333333</ele><time>2026-05-01T11:02:41.999Z</time></trkpt><trkpt lat="43.987773657397085" lon="11.259705638784549"><ele>277.0</ele><time>2026-05-01T11:02:42.999Z</time></trkpt><trkpt lat="43.987823824900424" lon="11.25990330241926"><ele>273.66666666666663</ele><time>2026-05-01T11:02:43.999Z</time></trkpt><trkpt lat="43.98787398185348" lon="11.260101512166587"><ele>270.3333333333333</ele><time>2026-05-01T11:02:44.999Z</time></trkpt><trkpt lat="43.987923603037416" lon="11.260308115420447"><ele>267.0</ele><time>2026-05-01T11:02:45.999Z</time></trkpt><trkpt lat="43.98797629971138" lon="11.260522628635075"><ele>266.0</ele><time>2026-05-01T11:02:46.999Z</time></trkpt><trkpt lat="43.988028206807904" lon="11.260740532634"><ele>265.0</ele><time>2026-05-01T11:02:47.999Z</time></trkpt><trkpt lat="43.98808282223379" lon="11.260965059931554"><ele>264.0</ele><time>2026-05-01T11:02:48.999Z</time></trkpt><trkpt lat="43.98813911726025" lon="11.26119270453624"><ele>264.0</ele><time>2026-05-01T11:02:49.999Z</time></trkpt><trkpt lat="43.988192932686005" lon="11.261424627835654"><ele>264.0</ele><time>2026-05-01T11:02:50.999Z</time></trkpt><trkpt lat="43.9882455879633" lon="11.261650987743373"><ele>264.0</ele><time>2026-05-01T11:02:51.999Z</time></trkpt><trkpt lat="43.98829888630165" lon="11.261880134938911"><ele>259.0</ele><time>2026-05-01T11:02:52.999Z</time></trkpt><trkpt lat="43.988351289047735" lon="11.262115471980469"><ele>254.0</ele><time>2026-05-01T11:02:53.999Z</time></trkpt><trkpt lat="43.98840031954029" lon="11.262355436812403"><ele>249.0</ele><time>2026-05-01T11:02:54.999Z</time></trkpt><trkpt lat="43.98844803394709" lon="11.262607417852022"><ele>248.33333333333331</ele><time>2026-05-01T11:02:55.999Z</time></trkpt><trkpt lat="43.98849453703515" lon="11.262866778497646"><ele>247.66666666666666</ele><time>2026-05-01T11:02:56.999Z</time></trkpt><trkpt lat="43.988537762334246" lon="11.263129203530355"><ele>247.0</ele><time>2026-05-01T11:02:57.999Z</time></trkpt><trkpt lat="43.98857832686131" lon="11.263397990742996"><ele>247.0</ele><time>2026-05-01T11:02:58.998Z</time></trkpt><trkpt lat="43.988610721186774" lon="11.263665954264972"><ele>247.0</ele><time>2026-05-01T11:02:59.998Z</time></trkpt><trkpt lat="43.98863248781336" lon="11.263929215582111"><ele>247.0</ele><time>2026-05-01T11:03:00.998Z</time></trkpt><trkpt lat="43.98865237203963" lon="11.264192079108152"><ele>252.66666666666666</ele><time>2026-05-01T11:03:01.998Z</time></trkpt><trkpt lat="43.98867084655621" lon="11.26445475551458"><ele>258.3333333333333</ele><time>2026-05-01T11:03:02.998Z</time></trkpt><trkpt lat="43.988683895989624" lon="11.264715168944313"><ele>264.0</ele><time>2026-05-01T11:03:03.998Z</time></trkpt><trkpt lat="43.988694183081634" lon="11.264969558499008"><ele>267.3333333333333</ele><time>2026-05-01T11:03:04.998Z</time></trkpt><trkpt lat="43.98870039712514" lon="11.265221269182069"><ele>270.66666666666663</ele><time>2026-05-01T11:03:05.998Z</time></trkpt><trkpt lat="43.988705966414834" lon="11.2654754429685"><ele>274.0</ele><time>2026-05-01T11:03:06.998Z</time></trkpt><trkpt lat="43.988710906154864" lon="11.265725613033037"><ele>276.3333333333333</ele><time>2026-05-01T11:03:07.998Z</time></trkpt><trkpt lat="43.98871268713053" lon="11.265967022917803"><ele>278.6666666666667</ele><time>2026-05-01T11:03:08.998Z</time></trkpt><trkpt lat="43.98871135940233" lon="11.266195249875356"><ele>281.0</ele><time>2026-05-01T11:03:09.998Z</time></trkpt><trkpt lat="43.9887106566955" lon="11.266409095708724"><ele>281.5</ele><time>2026-05-01T11:03:11Z</time></trkpt><trkpt lat="43.98871002576429" lon="11.266610952234808"><ele>282.0</ele><time>2026-05-01T11:03:12Z</time></trkpt><trkpt lat="43.98871260871047" lon="11.266800445794432"><ele>282.5</ele><time>2026-05-01T11:03:13Z</time></trkpt><trkpt lat="43.988712670134085" lon="11.26699404848449"><ele>283.0</ele><time>2026-05-01T11:03:14Z</time></trkpt><trkpt lat="43.98870829300466" lon="11.26719291384085"><ele>283.25</ele><time>2026-05-01T11:03:15Z</time></trkpt><trkpt lat="43.98870215919792" lon="11.26739810728953"><ele>283.5</ele><time>2026-05-01T11:03:16Z</time></trkpt><trkpt lat="43.9886913795596" lon="11.267605499012339"><ele>283.75</ele><time>2026-05-01T11:03:17Z</time></trkpt><trkpt lat="43.98867765679482" lon="11.267815498283934"><ele>284.0</ele><time>2026-05-01T11:03:18Z</time></trkpt><trkpt lat="43.98866092148293" lon="11.268023894751003"><ele>283.0</ele><time>2026-05-01T11:03:19Z</time></trkpt><trkpt lat="43.98864138624335" lon="11.268235379088482"><ele>282.0</ele><time>2026-05-01T11:03:20Z</time></trkpt><trkpt lat="43.988613875878904" lon="11.268460947900262"><ele>281.0</ele><time>2026-05-01T11:03:21Z</time></trkpt><trkpt lat="43.988579747925556" lon="11.26869588641294"><ele>281.0</ele><time>2026-05-01T11:03:22Z</time></trkpt><trkpt lat="43.988533171337075" lon="11.268937014251964"><ele>281.0</ele><time>2026-05-01T11:03:23Z</time></trkpt><trkpt lat="43.98848390978918" lon="11.269176416131929"><ele>281.0</ele><time>2026-05-01T11:03:24Z</time></trkpt><trkpt lat="43.988429786228046" lon="11.269415229647263"><ele>278.6666666666667</ele><time>2026-05-01T11:03:25Z</time></trkpt><trkpt lat="43.988368594549605" lon="11.269648179202722"><ele>276.3333333333333</ele><time>2026-05-01T11:03:26Z</time></trkpt><trkpt lat="43.98829941252167" lon="11.269876678289458"><ele>274.0</ele><time>2026-05-01T11:03:27Z</time></trkpt><trkpt lat="43.98822216744337" lon="11.270102961100445"><ele>273.0</ele><time>2026-05-01T11:03:28Z</time></trkpt><trkpt lat="43.988138082834375" lon="11.270322830819907"><ele>272.0</ele><time>2026-05-01T11:03:29Z</time></trkpt><trkpt lat="43.98804739606497" lon="11.270540109657992"><ele>271.0</ele><time>2026-05-01T11:03:30Z</time></trkpt><trkpt lat="43.98794990278436" lon="11.270752514374387"><ele>271.0</ele><time>2026-05-01T11:03:31Z</time></trkpt><trkpt lat="43.98784903581327" lon="11.270953126667019"><ele>271.0</ele><time>2026-05-01T11:03:32Z</time></trkpt><trkpt lat="43.98775599826858" lon="11.271127643293395"><ele>271.0</ele><time>2026-05-01T11:03:33Z</time></trkpt><trkpt lat="43.98767150143899" lon="11.271282835130574"><ele>271.0</ele><time>2026-05-01T11:03:34Z</time></trkpt><trkpt lat="43.98758708126577" lon="11.271421038906347"><ele>271.0</ele><time>2026-05-01T11:03:35Z</time></trkpt><trkpt lat="43.987497071921254" lon="11.271555267876385"><ele>271.0</ele><time>2026-05-01T11:03:36Z</time></trkpt><trkpt lat="43.9874081982728" lon="11.271681165593492"><ele>271.0</ele><time>2026-05-01T11:03:37Z</time></trkpt><trkpt lat="43.98731981282829" lon="11.271803871157555"><ele>272.25</ele><time>2026-05-01T11:03:38Z</time></trkpt><trkpt lat="43.98722537469201" lon="11.271927075973"><ele>273.5</ele><time>2026-05-01T11:03:39Z</time></trkpt><trkpt lat="43.98712216683487" lon="11.27204640830617"><ele>274.75</ele><time>2026-05-01T11:03:40Z</time></trkpt><trkpt lat="43.98701772522587" lon="11.272152497482159"><ele>276.0</ele><time>2026-05-01T11:03:41Z</time></trkpt><trkpt lat="43.98691539998302" lon="11.272249307248636"><ele>277.0</ele><time>2026-05-01T11:03:42Z</time></trkpt><trkpt lat="43.9868160348307" lon="11.272335049073535"><ele>278.0</ele><time>2026-05-01T11:03:43Z</time></trkpt><trkpt lat="43.986717710545435" lon="11.272413412573902"><ele>279.0</ele><time>2026-05-01T11:03:44Z</time></trkpt><trkpt lat="43.986617248390374" lon="11.272483512694299"><ele>280.0</ele><time>2026-05-01T11:03:45Z</time></trkpt><trkpt lat="43.98651568740991" lon="11.27254925411328"><ele>280.0</ele><time>2026-05-01T11:03:46Z</time></trkpt><trkpt lat="43.986418378410015" lon="11.272608794570342"><ele>280.0</ele><time>2026-05-01T11:03:47Z</time></trkpt><trkpt lat="43.986328626816956" lon="11.272659414962831"><ele>280.0</ele><time>2026-05-01T11:03:48Z</time></trkpt><trkpt lat="43.98624539079104" lon="11.272702671631349"><ele>280.0</ele><time>2026-05-01T11:03:49Z</time></trkpt><trkpt lat="43.98616595948158" lon="11.272740056914593"><ele>280.0</ele><time>2026-05-01T11:03:50Z</time></trkpt><trkpt lat="43.98608892499764" lon="11.272769955294912"><ele>280.0</ele><time>2026-05-01T11:03:51Z</time></trkpt><trkpt lat="43.986009917607554" lon="11.272789587493937"><ele>280.0</ele><time>2026-05-01T11:03:52Z</time></trkpt><trkpt lat="43.985932068896226" lon="11.272797172904752"><ele>280.0</ele><time>2026-05-01T11:03:53Z</time></trkpt><trkpt lat="43.985852306914765" lon="11.272798083401353"><ele>280.0</ele><time>2026-05-01T11:03:54Z</time></trkpt><trkpt lat="43.98577487353874" lon="11.272798962655001"><ele>280.0</ele><time>2026-05-01T11:03:55Z</time></trkpt><trkpt lat="43.98569875937792" lon="11.272799838384762"><ele>280.0</ele><time>2026-05-01T11:03:56Z</time></trkpt><trkpt lat="43.98561973354235" lon="11.272807675742948"><ele>279.4</ele><time>2026-05-01T11:03:57Z</time></trkpt><trkpt lat="43.98553099330421" lon="11.272837125449865"><ele>278.8</ele><time>2026-05-01T11:03:58Z</time></trkpt><trkpt lat="43.98544252966314" lon="11.27290070563873"><ele>278.2</ele><time>2026-05-01T11:03:59Z</time></trkpt><trkpt lat="43.98535702024858" lon="11.272973200982976"><ele>277.6</ele><time>2026-05-01T11:04:00Z</time></trkpt><trkpt lat="43.98526563273429" lon="11.2730844632135"><ele>277.0</ele><time>2026-05-01T11:04:01Z</time></trkpt><trkpt lat="43.9851816515794" lon="11.273219084312286"><ele>276.75</ele><time>2026-05-01T11:04:02Z</time></trkpt><trkpt lat="43.98510110878572" lon="11.273371976838746"><ele>276.5</ele><time>2026-05-01T11:04:03Z</time></trkpt><trkpt lat="43.98502719306884" lon="11.273541295341932"><ele>276.25</ele><time>2026-05-01T11:04:04Z</time></trkpt><trkpt lat="43.98493573603404" lon="11.273707129307107"><ele>276.0</ele><time>2026-05-01T11:04:05Z</time></trkpt><trkpt lat="43.98482027992021" lon="11.27385461191572"><ele>278.3333333333333</ele><time>2026-05-01T11:04:06Z</time></trkpt><trkpt lat="43.98469212760485" lon="11.273984905955713"><ele>280.66666666666663</ele><time>2026-05-01T11:04:07Z</time></trkpt><trkpt lat="43.98456447338706" lon="11.274097477236793"><ele>283.0</ele><time>2026-05-01T11:04:08Z</time></trkpt><trkpt lat="43.98444855650022" lon="11.274214275154359"><ele>283.0</ele><time>2026-05-01T11:04:09Z</time></trkpt><trkpt lat="43.98434264967643" lon="11.274341778388191"><ele>283.0</ele><time>2026-05-01T11:04:10Z</time></trkpt><trkpt lat="43.98423528053258" lon="11.274485909724582"><ele>283.0</ele><time>2026-05-01T11:04:11Z</time></trkpt><trkpt lat="43.98413239862414" lon="11.274642819480064"><ele>283.0</ele><time>2026-05-01T11:04:12Z</time></trkpt><trkpt lat="43.98403417059432" lon="11.274810362433733"><ele>280.0</ele><time>2026-05-01T11:04:13Z</time></trkpt><trkpt lat="43.98394184324954" lon="11.274995902870618"><ele>277.0</ele><time>2026-05-01T11:04:14Z</time></trkpt><trkpt lat="43.983863945754834" lon="11.275194622486254"><ele>274.0</ele><time>2026-05-01T11:04:15Z</time></trkpt><trkpt lat="43.983799416337355" lon="11.275402291505575"><ele>273.3333333333333</ele><time>2026-05-01T11:04:16Z</time></trkpt><trkpt lat="43.98374097108608" lon="11.275619037286589"><ele>272.6666666666667</ele><time>2026-05-01T11:04:17Z</time></trkpt><trkpt lat="43.983685365039555" lon="11.27584820621765"><ele>272.0</ele><time>2026-05-01T11:04:18Z</time></trkpt><trkpt lat="43.98363432677291" lon="11.276082126690994"><ele>272.0</ele><time>2026-05-01T11:04:18.999Z</time></trkpt><trkpt lat="43.98358373999944" lon="11.276323039501245"><ele>272.0</ele><time>2026-05-01T11:04:19.999Z</time></trkpt><trkpt lat="43.983534610991704" lon="11.276567807575102"><ele>272.0</ele><time>2026-05-01T11:04:20.999Z</time></trkpt><trkpt lat="43.983484844662534" lon="11.276816211273953"><ele>264.6666666666667</ele><time>2026-05-01T11:04:21.999Z</time></trkpt><trkpt lat="43.98343192129657" lon="11.277064646022783"><ele>257.3333333333333</ele><time>2026-05-01T11:04:22.999Z</time></trkpt><trkpt lat="43.98337778822125" lon="11.277313151987082"><ele>250.0</ele><time>2026-05-01T11:04:23.999Z</time></trkpt><trkpt lat="43.98332392270419" lon="11.277562722657871"><ele>247.0</ele><time>2026-05-01T11:04:24.999Z</time></trkpt><trkpt lat="43.983272347279204" lon="11.277807715447121"><ele>244.0</ele><time>2026-05-01T11:04:25.999Z</time></trkpt><trkpt lat="43.98322148515655" lon="11.278051156503297"><ele>241.0</ele><time>2026-05-01T11:04:26.999Z</time></trkpt><trkpt lat="43.98316974196873" lon="11.278293673241949"><ele>241.0</ele><time>2026-05-01T11:04:27.999Z</time></trkpt><trkpt lat="43.98311756616486" lon="11.278534857590758"><ele>241.0</ele><time>2026-05-01T11:04:28.999Z</time></trkpt><trkpt lat="43.983066544169944" lon="11.278772130067418"><ele>241.0</ele><time>2026-05-01T11:04:29.999Z</time></trkpt><trkpt lat="43.983019497194476" lon="11.279003222061137"><ele>242.0</ele><time>2026-05-01T11:04:30.999Z</time></trkpt><trkpt lat="43.9829705388029" lon="11.27923287727925"><ele>243.0</ele><time>2026-05-01T11:04:31.999Z</time></trkpt><trkpt lat="43.98292188573033" lon="11.27946061798926"><ele>244.0</ele><time>2026-05-01T11:04:32.999Z</time></trkpt><trkpt lat="43.98287575417566" lon="11.279684253453127"><ele>247.0</ele><time>2026-05-01T11:04:33.999Z</time></trkpt><trkpt lat="43.98282927471229" lon="11.279908658857495"><ele>250.0</ele><time>2026-05-01T11:04:34.999Z</time></trkpt><trkpt lat="43.98278424298269" lon="11.280132696792426"><ele>253.0</ele><time>2026-05-01T11:04:35.999Z</time></trkpt><trkpt lat="43.98274364147466" lon="11.280361827981876"><ele>253.0</ele><time>2026-05-01T11:04:36.999Z</time></trkpt><trkpt lat="43.982712537523895" lon="11.280598734965949"><ele>253.0</ele><time>2026-05-01T11:04:37.999Z</time></trkpt><trkpt lat="43.98269476732391" lon="11.280854998841361"><ele>253.0</ele><time>2026-05-01T11:04:38.999Z</time></trkpt><trkpt lat="43.98268926760271" lon="11.281115492664409"><ele>260.66666666666663</ele><time>2026-05-01T11:04:39.999Z</time></trkpt><trkpt lat="43.98268847974251" lon="11.281379377880267"><ele>268.3333333333333</ele><time>2026-05-01T11:04:40.999Z</time></trkpt><trkpt lat="43.9826904829628" lon="11.281642672867664"><ele>276.0</ele><time>2026-05-01T11:04:41.999Z</time></trkpt><trkpt lat="43.98269167270832" lon="11.281901151929965"><ele>276.3333333333333</ele><time>2026-05-01T11:04:42.999Z</time></trkpt><trkpt lat="43.98269238139549" lon="11.282152714048447"><ele>276.66666666666663</ele><time>2026-05-01T11:04:43.999Z</time></trkpt><trkpt lat="43.982689936808356" lon="11.282397170245412"><ele>277.0</ele><time>2026-05-01T11:04:44.999Z</time></trkpt><trkpt lat="43.98268648756433" lon="11.28263724388097"><ele>275.66666666666663</ele><time>2026-05-01T11:04:45.999Z</time></trkpt><trkpt lat="43.98267937913655" lon="11.282878247048398"><ele>274.3333333333333</ele><time>2026-05-01T11:04:46.999Z</time></trkpt><trkpt lat="43.982666630542596" lon="11.283121152164439"><ele>273.0</ele><time>2026-05-01T11:04:47.999Z</time></trkpt><trkpt lat="43.982649864044134" lon="11.283370923695589"><ele>272.6666666666667</ele><time>2026-05-01T11:04:48.999Z</time></trkpt><trkpt lat="43.98262679730014" lon="11.283625390284673"><ele>272.33333333333337</ele><time>2026-05-01T11:04:49.999Z</time></trkpt><trkpt lat="43.98259888931082" lon="11.283885303938428"><ele>272.0</ele><time>2026-05-01T11:04:50.999Z</time></trkpt><trkpt lat="43.98256390328772" lon="11.284149525532253"><ele>271.33333333333337</ele><time>2026-05-01T11:04:51.999Z</time></trkpt><trkpt lat="43.98252281868319" lon="11.284415077222667"><ele>270.6666666666667</ele><time>2026-05-01T11:04:52.999Z</time></trkpt><trkpt lat="43.98247405544937" lon="11.284678543429624"><ele>270.0</ele><time>2026-05-01T11:04:53.999Z</time></trkpt><trkpt lat="43.98241691572611" lon="11.284939207838136"><ele>265.0</ele><time>2026-05-01T11:04:54.999Z</time></trkpt><trkpt lat="43.982353464841765" lon="11.28519382450839"><ele>260.0</ele><time>2026-05-01T11:04:55.999Z</time></trkpt><trkpt lat="43.98228249225845" lon="11.28544138670675"><ele>255.0</ele><time>2026-05-01T11:04:56.999Z</time></trkpt><trkpt lat="43.98220307626199" lon="11.285680446540898"><ele>253.66666666666669</ele><time>2026-05-01T11:04:57.999Z</time></trkpt><trkpt lat="43.982114120244354" lon="11.28591201422516"><ele>252.33333333333334</ele><time>2026-05-01T11:04:58.999Z</time></trkpt><trkpt lat="43.98201532289068" lon="11.286133956532266"><ele>251.0</ele><time>2026-05-01T11:04:59.999Z</time></trkpt><trkpt lat="43.98190872162457" lon="11.286351709372035"><ele>250.0</ele><time>2026-05-01T11:05:00.999Z</time></trkpt><trkpt lat="43.981792851509326" lon="11.286561999621942"><ele>249.0</ele><time>2026-05-01T11:05:01.999Z</time></trkpt><trkpt lat="43.98167072944805" lon="11.286763459252324"><ele>248.0</ele><time>2026-05-01T11:05:02.999Z</time></trkpt><trkpt lat="43.9815417516714" lon="11.286955432383712"><ele>248.33333333333334</ele><time>2026-05-01T11:05:03.999Z</time></trkpt><trkpt lat="43.981405333243174" lon="11.287135024420193"><ele>248.66666666666669</ele><time>2026-05-01T11:05:04.999Z</time></trkpt><trkpt lat="43.98126095225763" lon="11.287304104985015"><ele>249.0</ele><time>2026-05-01T11:05:05.999Z</time></trkpt><trkpt lat="43.98111297481935" lon="11.287459683706247"><ele>249.0</ele><time>2026-05-01T11:05:06.999Z</time></trkpt><trkpt lat="43.98096113167692" lon="11.287603016792383"><ele>249.0</ele><time>2026-05-01T11:05:07.999Z</time></trkpt><trkpt lat="43.98080675406963" lon="11.287736416135395"><ele>249.0</ele><time>2026-05-01T11:05:08.999Z</time></trkpt><trkpt lat="43.98064506142499" lon="11.28786136855915"><ele>247.66666666666669</ele><time>2026-05-01T11:05:09.999Z</time></trkpt><trkpt lat="43.980480898994905" lon="11.28797496514599"><ele>246.33333333333334</ele><time>2026-05-01T11:05:10.999Z</time></trkpt><trkpt lat="43.98031194448322" lon="11.288076206172148"><ele>245.0</ele><time>2026-05-01T11:05:11.999Z</time></trkpt><trkpt lat="43.980135099552506" lon="11.288165312542526"><ele>243.0</ele><time>2026-05-01T11:05:12.999Z</time></trkpt><trkpt lat="43.97995575693169" lon="11.288239552343907"><ele>241.0</ele><time>2026-05-01T11:05:13.999Z</time></trkpt><trkpt lat="43.979771605999474" lon="11.288304600309672"><ele>239.0</ele><time>2026-05-01T11:05:14.999Z</time></trkpt><trkpt lat="43.97958613612374" lon="11.288356308125442"><ele>239.0</ele><time>2026-05-01T11:05:15.999Z</time></trkpt><trkpt lat="43.97939767530928" lon="11.288397610501859"><ele>239.0</ele><time>2026-05-01T11:05:17Z</time></trkpt><trkpt lat="43.979209012369225" lon="11.288427512472532"><ele>239.0</ele><time>2026-05-01T11:05:18Z</time></trkpt><trkpt lat="43.97901873097687" lon="11.288449172549992"><ele>238.33333333333334</ele><time>2026-05-01T11:05:19Z</time></trkpt><trkpt lat="43.978827285305194" lon="11.28846243615215"><ele>237.66666666666669</ele><time>2026-05-01T11:05:20Z</time></trkpt><trkpt lat="43.97863478697847" lon="11.288467103920262"><ele>237.0</ele><time>2026-05-01T11:05:21Z</time></trkpt><trkpt lat="43.97843938557392" lon="11.288462368443938"><ele>235.33333333333331</ele><time>2026-05-01T11:05:22Z</time></trkpt><trkpt lat="43.97824092284143" lon="11.288448359107148"><ele>233.66666666666666</ele><time>2026-05-01T11:05:23Z</time></trkpt><trkpt lat="43.97804157133683" lon="11.288428861925542"><ele>232.0</ele><time>2026-05-01T11:05:24Z</time></trkpt><trkpt lat="43.97784626984712" lon="11.288404368011857"><ele>232.0</ele><time>2026-05-01T11:05:25Z</time></trkpt><trkpt lat="43.97765435068493" lon="11.288378862898403"><ele>232.0</ele><time>2026-05-01T11:05:26Z</time></trkpt><trkpt lat="43.9774645932027" lon="11.288351053007682"><ele>232.0</ele><time>2026-05-01T11:05:27Z</time></trkpt><trkpt lat="43.97727916357461" lon="11.288322670545638"><ele>230.66666666666666</ele><time>2026-05-01T11:05:28Z</time></trkpt><trkpt lat="43.97709638597884" lon="11.288291065945154"><ele>229.33333333333331</ele><time>2026-05-01T11:05:29Z</time></trkpt><trkpt lat="43.97691779014355" lon="11.28825600056605"><ele>228.0</ele><time>2026-05-01T11:05:30Z</time></trkpt><trkpt lat="43.976742674280594" lon="11.288221756732074"><ele>226.0</ele><time>2026-05-01T11:05:31Z</time></trkpt><trkpt lat="43.976569999153455" lon="11.28819119084"><ele>224.0</ele><time>2026-05-01T11:05:32Z</time></trkpt><trkpt lat="43.97639893255459" lon="11.288159628700216"><ele>222.0</ele><time>2026-05-01T11:05:33Z</time></trkpt><trkpt lat="43.976231411115585" lon="11.288132383888128"><ele>222.0</ele><time>2026-05-01T11:05:34Z</time></trkpt><trkpt lat="43.976065369768705" lon="11.288106365688497"><ele>222.0</ele><time>2026-05-01T11:05:35Z</time></trkpt><trkpt lat="43.97589782059575" lon="11.288081082477138"><ele>222.0</ele><time>2026-05-01T11:05:36Z</time></trkpt><trkpt lat="43.97573070714915" lon="11.28806245060655"><ele>223.0</ele><time>2026-05-01T11:05:37Z</time></trkpt><trkpt lat="43.97555887991344" lon="11.288051661322363"><ele>224.0</ele><time>2026-05-01T11:05:38Z</time></trkpt><trkpt lat="43.97538213175199" lon="11.288047357975877"><ele>225.0</ele><time>2026-05-01T11:05:39Z</time></trkpt><trkpt lat="43.97520320173409" lon="11.288052024272789"><ele>225.0</ele><time>2026-05-01T11:05:40Z</time></trkpt><trkpt lat="43.975023823189886" lon="11.288070788680105"><ele>225.0</ele><time>2026-05-01T11:05:41Z</time></trkpt><trkpt lat="43.974853722522134" lon="11.28809300856904"><ele>225.0</ele><time>2026-05-01T11:05:42Z</time></trkpt><trkpt lat="43.974690664048744" lon="11.288124990584267"><ele>224.75</ele><time>2026-05-01T11:05:43Z</time></trkpt><trkpt lat="43.97454085055846" lon="11.28815433966565"><ele>224.5</ele><time>2026-05-01T11:05:44Z</time></trkpt><trkpt lat="43.9744071480341" lon="11.28818524842359"><ele>224.25</ele><time>2026-05-01T11:05:45Z</time></trkpt><trkpt lat="43.974282364231016" lon="11.28821867049194"><ele>224.0</ele><time>2026-05-01T11:05:46Z</time></trkpt><trkpt lat="43.974165491447735" lon="11.288254736360551"><ele>223.6</ele><time>2026-05-01T11:05:47Z</time></trkpt><trkpt lat="43.97405615742175" lon="11.288289906008627"><ele>223.2</ele><time>2026-05-01T11:05:48Z</time></trkpt><trkpt lat="43.97395791392889" lon="11.288327481476841"><ele>222.79999999999998</ele><time>2026-05-01T11:05:49Z</time></trkpt><trkpt lat="43.973870323439684" lon="11.288366211008015"><ele>222.39999999999998</ele><time>2026-05-01T11:05:50Z</time></trkpt><trkpt lat="43.97379184335027" lon="11.288401231873053"><ele>222.0</ele><time>2026-05-01T11:05:51Z</time></trkpt><trkpt lat="43.97372357585298" lon="11.288431702809136"><ele>222.0</ele><time>2026-05-01T11:05:52Z</time></trkpt><trkpt lat="43.9736145068723" lon="11.288487104911846"><ele>222.0</ele><time>2026-05-01T11:05:54Z</time></trkpt><trkpt lat="43.97350450620313" lon="11.288535499863798"><ele>222.0</ele><time>2026-05-01T11:05:56Z</time></trkpt><trkpt lat="43.97343959962525" lon="11.28854535189946"><ele>222.0</ele><time>2026-05-01T11:05:57Z</time></trkpt><trkpt lat="43.973313934450616" lon="11.2885176447539"><ele>222.0</ele><time>2026-05-01T11:05:59Z</time></trkpt><trkpt lat="43.97324399345488" lon="11.28848650290778"><ele>222.5</ele><time>2026-05-01T11:06:00Z</time></trkpt><trkpt lat="43.97316241096783" lon="11.288474019987927"><ele>223.0</ele><time>2026-05-01T11:06:01Z</time></trkpt><trkpt lat="43.97307717723326" lon="11.288492243732444"><ele>223.5</ele><time>2026-05-01T11:06:02Z</time></trkpt><trkpt lat="43.97299791996855" lon="11.288545446023125"><ele>224.0</ele><time>2026-05-01T11:06:03Z</time></trkpt><trkpt lat="43.97292416624376" lon="11.288607589768505"><ele>224.5</ele><time>2026-05-01T11:06:04Z</time></trkpt><trkpt lat="43.97287073656382" lon="11.288717997244873"><ele>225.0</ele><time>2026-05-01T11:06:05Z</time></trkpt><trkpt lat="43.972834209997735" lon="11.28885351530969"><ele>224.25</ele><time>2026-05-01T11:06:06Z</time></trkpt><trkpt lat="43.97283519399312" lon="11.288990851752388"><ele>223.5</ele><time>2026-05-01T11:06:07Z</time></trkpt><trkpt lat="43.972662307981565" lon="11.289096480224778"><ele>222.75</ele><time>2026-05-01T11:06:08Z</time></trkpt><trkpt lat="43.9725331659498" lon="11.289212882223428"><ele>222.0</ele><time>2026-05-01T11:06:09Z</time></trkpt><trkpt lat="43.97240274510605" lon="11.289334296130889"><ele>222.0</ele><time>2026-05-01T11:06:10Z</time></trkpt><trkpt lat="43.97226471720747" lon="11.289461191410357"><ele>222.0</ele><time>2026-05-01T11:06:11Z</time></trkpt><trkpt lat="43.972123500699574" lon="11.289588108121935"><ele>222.0</ele><time>2026-05-01T11:06:12Z</time></trkpt><trkpt lat="43.97198585403997" lon="11.289711837696258"><ele>222.0</ele><time>2026-05-01T11:06:13Z</time></trkpt><trkpt lat="43.971849702085954" lon="11.289833074482695"><ele>222.0</ele><time>2026-05-01T11:06:14Z</time></trkpt><trkpt lat="43.97171472107132" lon="11.289953246295338"><ele>222.0</ele><time>2026-05-01T11:06:15Z</time></trkpt><trkpt lat="43.97158476541142" lon="11.290069778210118"><ele>222.0</ele><time>2026-05-01T11:06:16Z</time></trkpt><trkpt lat="43.971464647719195" lon="11.290177140766579"><ele>222.0</ele><time>2026-05-01T11:06:16.999Z</time></trkpt><trkpt lat="43.971350661343116" lon="11.29027861292188"><ele>222.0</ele><time>2026-05-01T11:06:17.999Z</time></trkpt><trkpt lat="43.97123491576729" lon="11.290382637103342"><ele>222.0</ele><time>2026-05-01T11:06:18.999Z</time></trkpt><trkpt lat="43.97111384041591" lon="11.290488812496593"><ele>222.25</ele><time>2026-05-01T11:06:19.999Z</time></trkpt><trkpt lat="43.9709914671867" lon="11.290595143090542"><ele>222.5</ele><time>2026-05-01T11:06:20.999Z</time></trkpt><trkpt lat="43.97086984516759" lon="11.290703941952275"><ele>222.75</ele><time>2026-05-01T11:06:21.999Z</time></trkpt><trkpt lat="43.97074778771745" lon="11.290814112515289"><ele>223.0</ele><time>2026-05-01T11:06:22.999Z</time></trkpt><trkpt lat="43.97062194582428" lon="11.290926094782664"><ele>223.0</ele><time>2026-05-01T11:06:23.999Z</time></trkpt><trkpt lat="43.97049321235065" lon="11.291041288023425"><ele>223.0</ele><time>2026-05-01T11:06:24.999Z</time></trkpt><trkpt lat="43.97036345561665" lon="11.291155228944227"><ele>223.0</ele><time>2026-05-01T11:06:25.999Z</time></trkpt><trkpt lat="43.97023396751401" lon="11.29126891487783"><ele>223.0</ele><time>2026-05-01T11:06:26.999Z</time></trkpt><trkpt lat="43.97010690646421" lon="11.291381631137686"><ele>223.0</ele><time>2026-05-01T11:06:27.999Z</time></trkpt><trkpt lat="43.969976720808965" lon="11.291496880838146"><ele>223.0</ele><time>2026-05-01T11:06:28.999Z</time></trkpt><trkpt lat="43.969846498069735" lon="11.291610772199395"><ele>223.33333333333331</ele><time>2026-05-01T11:06:29.999Z</time></trkpt><trkpt lat="43.96971660787659" lon="11.291727867145726"><ele>223.66666666666669</ele><time>2026-05-01T11:06:30.999Z</time></trkpt><trkpt lat="43.969584950503574" lon="11.29184919167892"><ele>224.0</ele><time>2026-05-01T11:06:31.999Z</time></trkpt><trkpt lat="43.969449912015975" lon="11.291969579946509"><ele>224.0</ele><time>2026-05-01T11:06:32.999Z</time></trkpt><trkpt lat="43.96931161654962" lon="11.292092628182383"><ele>224.0</ele><time>2026-05-01T11:06:33.999Z</time></trkpt><trkpt lat="43.96917296854322" lon="11.292216328916101"><ele>224.0</ele><time>2026-05-01T11:06:34.999Z</time></trkpt><trkpt lat="43.9690337193078" lon="11.292338254773826"><ele>224.0</ele><time>2026-05-01T11:06:35.999Z</time></trkpt><trkpt lat="43.96889685890082" lon="11.292459468507527"><ele>224.0</ele><time>2026-05-01T11:06:36.999Z</time></trkpt><trkpt lat="43.96876078093171" lon="11.292583059247836"><ele>224.0</ele><time>2026-05-01T11:06:37.999Z</time></trkpt><trkpt lat="43.96862288595552" lon="11.292707374258681"><ele>224.0</ele><time>2026-05-01T11:06:38.999Z</time></trkpt><trkpt lat="43.968483710699346" lon="11.292828844250703"><ele>224.0</ele><time>2026-05-01T11:06:39.999Z</time></trkpt><trkpt lat="43.96834270935339" lon="11.292953003942111"><ele>224.0</ele><time>2026-05-01T11:06:40.999Z</time></trkpt><trkpt lat="43.96820010213167" lon="11.293079900486617"><ele>224.33333333333334</ele><time>2026-05-01T11:06:41.999Z</time></trkpt><trkpt lat="43.96805887946853" lon="11.293204864338728"><ele>224.66666666666669</ele><time>2026-05-01T11:06:42.999Z</time></trkpt><trkpt lat="43.96791687026818" lon="11.293329748137882"><ele>225.0</ele><time>2026-05-01T11:06:43.999Z</time></trkpt><trkpt lat="43.96777479324256" lon="11.293456168829817"><ele>225.0</ele><time>2026-05-01T11:06:44.999Z</time></trkpt><trkpt lat="43.96763302349685" lon="11.293582539169842"><ele>225.0</ele><time>2026-05-01T11:06:45.999Z</time></trkpt><trkpt lat="43.967490381024895" lon="11.293711725924311"><ele>225.0</ele><time>2026-05-01T11:06:46.999Z</time></trkpt><trkpt lat="43.967346081976785" lon="11.293842221817897"><ele>224.66666666666669</ele><time>2026-05-01T11:06:47.999Z</time></trkpt><trkpt lat="43.96719362652442" lon="11.293951156581297"><ele>224.33333333333334</ele><time>2026-05-01T11:06:48.999Z</time></trkpt><trkpt lat="43.967050803342666" lon="11.294077696790199"><ele>224.0</ele><time>2026-05-01T11:06:49.999Z</time></trkpt><trkpt lat="43.96690871810052" lon="11.29420371755879"><ele>224.0</ele><time>2026-05-01T11:06:50.999Z</time></trkpt><trkpt lat="43.966772193920924" lon="11.294324805845767"><ele>224.0</ele><time>2026-05-01T11:06:51.999Z</time></trkpt><trkpt lat="43.96663702230493" lon="11.294444547558411"><ele>224.0</ele><time>2026-05-01T11:06:52.999Z</time></trkpt><trkpt lat="43.96650412640153" lon="11.29456217765187"><ele>224.75</ele><time>2026-05-01T11:06:53.999Z</time></trkpt><trkpt lat="43.966372518301505" lon="11.29467850038655"><ele>225.5</ele><time>2026-05-01T11:06:54.999Z</time></trkpt><trkpt lat="43.966247366476665" lon="11.294789078985461"><ele>226.25</ele><time>2026-05-01T11:06:55.999Z</time></trkpt><trkpt lat="43.966131838031316" lon="11.294891154801528"><ele>227.0</ele><time>2026-05-01T11:06:56.999Z</time></trkpt><trkpt lat="43.96602027596566" lon="11.294989726121218"><ele>227.0</ele><time>2026-05-01T11:06:57.999Z</time></trkpt><trkpt lat="43.96590882466981" lon="11.295088199569872"><ele>227.0</ele><time>2026-05-01T11:06:58.999Z</time></trkpt><trkpt lat="43.965792412731126" lon="11.295191056013435"><ele>227.0</ele><time>2026-05-01T11:06:59.999Z</time></trkpt><trkpt lat="43.96567999158209" lon="11.29531433244925"><ele>227.0</ele><time>2026-05-01T11:07:00.999Z</time></trkpt><trkpt lat="43.96555756069949" lon="11.295425529877953"><ele>227.25</ele><time>2026-05-01T11:07:01.999Z</time></trkpt><trkpt lat="43.96542931999262" lon="11.295528492059653"><ele>227.5</ele><time>2026-05-01T11:07:02.999Z</time></trkpt><trkpt lat="43.96531536701046" lon="11.29564734320776"><ele>227.75</ele><time>2026-05-01T11:07:03.999Z</time></trkpt><trkpt lat="43.96520598387913" lon="11.295763475193642"><ele>228.0</ele><time>2026-05-01T11:07:04.999Z</time></trkpt><trkpt lat="43.965113012619184" lon="11.295887578079302"><ele>228.5</ele><time>2026-05-01T11:07:05.999Z</time></trkpt><trkpt lat="43.96501346812116" lon="11.295990051189682"><ele>229.0</ele><time>2026-05-01T11:07:06.999Z</time></trkpt><trkpt lat="43.96492146860364" lon="11.29609240838116"><ele>229.5</ele><time>2026-05-01T11:07:07.999Z</time></trkpt><trkpt lat="43.96483892414499" lon="11.296200371504769"><ele>230.0</ele><time>2026-05-01T11:07:08.999Z</time></trkpt><trkpt lat="43.964813632283324" lon="11.2963698429343"><ele>228.75</ele><time>2026-05-01T11:07:09.999Z</time></trkpt><trkpt lat="43.96481002478176" lon="11.296552642595403"><ele>227.5</ele><time>2026-05-01T11:07:10.999Z</time></trkpt><trkpt lat="43.96482679459459" lon="11.29674380451713"><ele>226.25</ele><time>2026-05-01T11:07:11.999Z</time></trkpt><trkpt lat="43.96483626859591" lon="11.296945950380769"><ele>225.0</ele><time>2026-05-01T11:07:12.999Z</time></trkpt><trkpt lat="43.96484860996748" lon="11.29715780672783"><ele>224.0</ele><time>2026-05-01T11:07:13.999Z</time></trkpt><trkpt lat="43.964862276745436" lon="11.297368973729782"><ele>223.0</ele><time>2026-05-01T11:07:14.999Z</time></trkpt><trkpt lat="43.96487519167982" lon="11.29757869097746"><ele>222.0</ele><time>2026-05-01T11:07:15.999Z</time></trkpt><trkpt lat="43.96488583161235" lon="11.29778972046792"><ele>222.0</ele><time>2026-05-01T11:07:16.999Z</time></trkpt><trkpt lat="43.9648975261059" lon="11.298005677017992"><ele>222.0</ele><time>2026-05-01T11:07:17.999Z</time></trkpt><trkpt lat="43.96490984927989" lon="11.298218136520662"><ele>222.0</ele><time>2026-05-01T11:07:18.999Z</time></trkpt><trkpt lat="43.96492114117473" lon="11.298424282702536"><ele>221.25</ele><time>2026-05-01T11:07:19.999Z</time></trkpt><trkpt lat="43.9649306200362" lon="11.298620717217652"><ele>220.5</ele><time>2026-05-01T11:07:20.999Z</time></trkpt><trkpt lat="43.96494120276277" lon="11.298809711218048"><ele>219.75</ele><time>2026-05-01T11:07:21.999Z</time></trkpt><trkpt lat="43.96495125955674" lon="11.298994083582729"><ele>219.0</ele><time>2026-05-01T11:07:23Z</time></trkpt><trkpt lat="43.964953283601716" lon="11.299176425025646"><ele>218.5</ele><time>2026-05-01T11:07:24Z</time></trkpt><trkpt lat="43.96492844801522" lon="11.299351160193996"><ele>218.0</ele><time>2026-05-01T11:07:25Z</time></trkpt><trkpt lat="43.9648702004351" lon="11.299512003422198"><ele>217.5</ele><time>2026-05-01T11:07:26Z</time></trkpt><trkpt lat="43.96478690034851" lon="11.299659283369271"><ele>217.0</ele><time>2026-05-01T11:07:27Z</time></trkpt><trkpt lat="43.96469295565806" lon="11.299798161656541"><ele>216.5</ele><time>2026-05-01T11:07:28Z</time></trkpt><trkpt lat="43.96459143346664" lon="11.29994177850202"><ele>216.0</ele><time>2026-05-01T11:07:29Z</time></trkpt><trkpt lat="43.96447266563719" lon="11.30006718054414"><ele>215.5</ele><time>2026-05-01T11:07:30Z</time></trkpt><trkpt lat="43.96437337696688" lon="11.300223798369217"><ele>215.0</ele><time>2026-05-01T11:07:31Z</time></trkpt><trkpt lat="43.964260828162416" lon="11.300361399268745"><ele>215.0</ele><time>2026-05-01T11:07:32Z</time></trkpt><trkpt lat="43.96414909598389" lon="11.300498851340647"><ele>215.0</ele><time>2026-05-01T11:07:33Z</time></trkpt><trkpt lat="43.96404000105954" lon="11.300633762293598"><ele>215.0</ele><time>2026-05-01T11:07:34Z</time></trkpt><trkpt lat="43.96392396664167" lon="11.300771637718912"><ele>215.0</ele><time>2026-05-01T11:07:35Z</time></trkpt><trkpt lat="43.9638076137261" lon="11.300915530295725"><ele>215.0</ele><time>2026-05-01T11:07:36Z</time></trkpt><trkpt lat="43.96369280470438" lon="11.301060662042998"><ele>215.0</ele><time>2026-05-01T11:07:37Z</time></trkpt><trkpt lat="43.96357819161984" lon="11.301206167562869"><ele>215.0</ele><time>2026-05-01T11:07:38Z</time></trkpt><trkpt lat="43.96346725252801" lon="11.301346558655668"><ele>215.0</ele><time>2026-05-01T11:07:39Z</time></trkpt><trkpt lat="43.96336623147779" lon="11.301477085359512"><ele>215.0</ele><time>2026-05-01T11:07:40Z</time></trkpt><trkpt lat="43.963263060395526" lon="11.301599382930188"><ele>215.0</ele><time>2026-05-01T11:07:41Z</time></trkpt><trkpt lat="43.96315137574074" lon="11.301702460206524"><ele>215.0</ele><time>2026-05-01T11:07:42Z</time></trkpt><trkpt lat="43.96303076844028" lon="11.30177568001331"><ele>215.0</ele><time>2026-05-01T11:07:43Z</time></trkpt><trkpt lat="43.96290184044004" lon="11.301817014926947"><ele>215.0</ele><time>2026-05-01T11:07:44Z</time></trkpt><trkpt lat="43.96276538911937" lon="11.301829763980276"><ele>215.0</ele><time>2026-05-01T11:07:45Z</time></trkpt><trkpt lat="43.96262102053775" lon="11.301836347285644"><ele>215.0</ele><time>2026-05-01T11:07:46Z</time></trkpt><trkpt lat="43.962472579251326" lon="11.301865555634173"><ele>215.25</ele><time>2026-05-01T11:07:47Z</time></trkpt><trkpt lat="43.96233159170134" lon="11.301918169427859"><ele>215.5</ele><time>2026-05-01T11:07:48Z</time></trkpt><trkpt lat="43.96220329441147" lon="11.302001978316637"><ele>215.75</ele><time>2026-05-01T11:07:49Z</time></trkpt><trkpt lat="43.96208494938958" lon="11.30212485179739"><ele>216.0</ele><time>2026-05-01T11:07:50Z</time></trkpt><trkpt lat="43.961976097288805" lon="11.302281422959332"><ele>215.75</ele><time>2026-05-01T11:07:51Z</time></trkpt><trkpt lat="43.96188800409338" lon="11.302455679776893"><ele>215.5</ele><time>2026-05-01T11:07:52Z</time></trkpt><trkpt lat="43.961789489994395" lon="11.302609065897991"><ele>215.25</ele><time>2026-05-01T11:07:53Z</time></trkpt><trkpt lat="43.96170679459267" lon="11.302757142734285"><ele>215.0</ele><time>2026-05-01T11:07:54Z</time></trkpt><trkpt lat="43.9616280607467" lon="11.302894845314603"><ele>215.0</ele><time>2026-05-01T11:07:55Z</time></trkpt><trkpt lat="43.96155551576642" lon="11.30301764715901"><ele>215.0</ele><time>2026-05-01T11:07:56Z</time></trkpt><trkpt lat="43.96148789281218" lon="11.303131089906012"><ele>215.0</ele><time>2026-05-01T11:07:57Z</time></trkpt><trkpt lat="43.96142253372849" lon="11.303240734766467"><ele>215.0</ele><time>2026-05-01T11:07:58Z</time></trkpt><trkpt lat="43.96136784096757" lon="11.30333292930393"><ele>215.0</ele><time>2026-05-01T11:07:59Z</time></trkpt><trkpt lat="43.9613243748498" lon="11.30340749966739"><ele>214.5</ele><time>2026-05-01T11:08:00Z</time></trkpt><trkpt lat="43.96127040833244" lon="11.30350008447085"><ele>214.0</ele><time>2026-05-01T11:08:02Z</time></trkpt><trkpt lat="43.96121816000813" lon="11.303589721465219"><ele>213.5</ele><time>2026-05-01T11:08:04Z</time></trkpt><trkpt lat="43.96114968879052" lon="11.303706839123565"><ele>213.0</ele><time>2026-05-01T11:08:06Z</time></trkpt><trkpt lat="43.961270105533785" lon="11.304021347812757"><ele>212.75</ele><time>2026-05-01T11:08:08Z</time></trkpt><trkpt lat="43.96132928799762" lon="11.30413760023247"><ele>212.5</ele><time>2026-05-01T11:08:09Z</time></trkpt><trkpt lat="43.96140573263524" lon="11.304257090350982"><ele>212.25</ele><time>2026-05-01T11:08:10Z</time></trkpt><trkpt lat="43.96147920622545" lon="11.30439010130912"><ele>212.0</ele><time>2026-05-01T11:08:11Z</time></trkpt><trkpt lat="43.961537215883105" lon="11.304553378244904"><ele>212.0</ele><time>2026-05-01T11:08:12Z</time></trkpt><trkpt lat="43.96159630647694" lon="11.304739277196463"><ele>212.0</ele><time>2026-05-01T11:08:13Z</time></trkpt><trkpt lat="43.96165770485368" lon="11.304925457033475"><ele>212.0</ele><time>2026-05-01T11:08:14Z</time></trkpt><trkpt lat="43.96172200806245" lon="11.305121575085844"><ele>212.0</ele><time>2026-05-01T11:08:15Z</time></trkpt><trkpt lat="43.96178854453033" lon="11.305323935949549"><ele>211.66666666666669</ele><time>2026-05-01T11:08:16Z</time></trkpt><trkpt lat="43.961857181408895" lon="11.305529111442882"><ele>211.33333333333331</ele><time>2026-05-01T11:08:17Z</time></trkpt><trkpt lat="43.96191965124631" lon="11.305719897059546"><ele>211.0</ele><time>2026-05-01T11:08:18Z</time></trkpt><trkpt lat="43.96197778662731" lon="11.305898199495035"><ele>211.0</ele><time>2026-05-01T11:08:19Z</time></trkpt><trkpt lat="43.96203641021628" lon="11.306074969749204"><ele>211.0</ele><time>2026-05-01T11:08:20Z</time></trkpt><trkpt lat="43.96209696396603" lon="11.306263248634137"><ele>211.0</ele><time>2026-05-01T11:08:21Z</time></trkpt><trkpt lat="43.962161417474384" lon="11.306464714664582"><ele>211.0</ele><time>2026-05-01T11:08:22Z</time></trkpt><trkpt lat="43.96222324576625" lon="11.30665650791341"><ele>211.0</ele><time>2026-05-01T11:08:23Z</time></trkpt><trkpt lat="43.96227808221574" lon="11.306825557836437"><ele>211.0</ele><time>2026-05-01T11:08:24Z</time></trkpt><trkpt lat="43.962330496503675" lon="11.30699036678688"><ele>211.0</ele><time>2026-05-01T11:08:24.999Z</time></trkpt><trkpt lat="43.96238193744984" lon="11.307157672472716"><ele>211.0</ele><time>2026-05-01T11:08:25.999Z</time></trkpt><trkpt lat="43.96243610699377" lon="11.307332510169156"><ele>210.33333333333331</ele><time>2026-05-01T11:08:26.999Z</time></trkpt><trkpt lat="43.96249605803665" lon="11.307517565737955"><ele>209.66666666666669</ele><time>2026-05-01T11:08:27.999Z</time></trkpt><trkpt lat="43.962556582400715" lon="11.307708665505052"><ele>209.0</ele><time>2026-05-01T11:08:28.999Z</time></trkpt><trkpt lat="43.962618681054856" lon="11.307913679703592"><ele>209.66666666666669</ele><time>2026-05-01T11:08:29.999Z</time></trkpt><trkpt lat="43.96268480406333" lon="11.308128436286365"><ele>210.33333333333331</ele><time>2026-05-01T11:08:30.999Z</time></trkpt><trkpt lat="43.96275493946621" lon="11.308349379720353"><ele>211.0</ele><time>2026-05-01T11:08:31.999Z</time></trkpt><trkpt lat="43.96282761676924" lon="11.308576885553304"><ele>211.0</ele><time>2026-05-01T11:08:32.999Z</time></trkpt><trkpt lat="43.962904557584146" lon="11.308814496100894"><ele>211.0</ele><time>2026-05-01T11:08:33.999Z</time></trkpt><trkpt lat="43.96298391739309" lon="11.309045705530174"><ele>211.0</ele><time>2026-05-01T11:08:34.999Z</time></trkpt><trkpt lat="43.96307591606361" lon="11.309278744566837"><ele>211.33333333333331</ele><time>2026-05-01T11:08:35.999Z</time></trkpt><trkpt lat="43.963182406440026" lon="11.309500462519871"><ele>211.66666666666669</ele><time>2026-05-01T11:08:36.999Z</time></trkpt><trkpt lat="43.96330392647629" lon="11.309710259827515"><ele>212.0</ele><time>2026-05-01T11:08:37.999Z</time></trkpt><trkpt lat="43.963437823770356" lon="11.309907157737184"><ele>212.0</ele><time>2026-05-01T11:08:38.999Z</time></trkpt><trkpt lat="43.963584484187116" lon="11.310087942991037"><ele>212.0</ele><time>2026-05-01T11:08:39.999Z</time></trkpt><trkpt lat="43.96374561719203" lon="11.310246423766525"><ele>212.0</ele><time>2026-05-01T11:08:40.999Z</time></trkpt><trkpt lat="43.96391771210047" lon="11.310385349723536"><ele>212.0</ele><time>2026-05-01T11:08:41.999Z</time></trkpt><trkpt lat="43.96409760613075" lon="11.310504086987955"><ele>212.0</ele><time>2026-05-01T11:08:42.999Z</time></trkpt><trkpt lat="43.964285468370086" lon="11.310597081374345"><ele>212.0</ele><time>2026-05-01T11:08:43.999Z</time></trkpt><trkpt lat="43.96447814808617" lon="11.310674611923009"><ele>212.0</ele><time>2026-05-01T11:08:44.999Z</time></trkpt><trkpt lat="43.9646734375222" lon="11.31074338814646"><ele>212.0</ele><time>2026-05-01T11:08:45.999Z</time></trkpt><trkpt lat="43.96487057372021" lon="11.310811367798646"><ele>212.0</ele><time>2026-05-01T11:08:46.999Z</time></trkpt><trkpt lat="43.96506160714426" lon="11.31087739256498"><ele>212.0</ele><time>2026-05-01T11:08:47.999Z</time></trkpt><trkpt lat="43.96525472711359" lon="11.31094488095442"><ele>212.0</ele><time>2026-05-01T11:08:48.999Z</time></trkpt><trkpt lat="43.96544899006751" lon="11.311017222711312"><ele>212.0</ele><time>2026-05-01T11:08:49.999Z</time></trkpt><trkpt lat="43.96564094645241" lon="11.311102487958976"><ele>212.0</ele><time>2026-05-01T11:08:50.999Z</time></trkpt><trkpt lat="43.96583215218284" lon="11.31120961932606"><ele>212.0</ele><time>2026-05-01T11:08:51.999Z</time></trkpt><trkpt lat="43.966019106992775" lon="11.311348218278852"><ele>212.0</ele><time>2026-05-01T11:08:52.999Z</time></trkpt><trkpt lat="43.9661968287735" lon="11.311514559766811"><ele>212.0</ele><time>2026-05-01T11:08:53.999Z</time></trkpt><trkpt lat="43.96636204218902" lon="11.311704556292186"><ele>212.0</ele><time>2026-05-01T11:08:54.999Z</time></trkpt><trkpt lat="43.96651954113716" lon="11.311921690592735"><ele>212.0</ele><time>2026-05-01T11:08:55.999Z</time></trkpt><trkpt lat="43.96665775189948" lon="11.31215662567218"><ele>212.0</ele><time>2026-05-01T11:08:56.999Z</time></trkpt><trkpt lat="43.966772823506716" lon="11.312409321748245"><ele>212.0</ele><time>2026-05-01T11:08:57.999Z</time></trkpt><trkpt lat="43.96687094044635" lon="11.312671646308303"><ele>212.0</ele><time>2026-05-01T11:08:58.999Z</time></trkpt><trkpt lat="43.96696933984353" lon="11.312939191682142"><ele>212.66666666666669</ele><time>2026-05-01T11:08:59.999Z</time></trkpt><trkpt lat="43.967068775805394" lon="11.313206455134585"><ele>213.33333333333331</ele><time>2026-05-01T11:09:00.999Z</time></trkpt><trkpt lat="43.967167581905045" lon="11.313473167209894"><ele>214.0</ele><time>2026-05-01T11:09:01.999Z</time></trkpt><trkpt lat="43.96726276663601" lon="11.313733538557807"><ele>213.66666666666666</ele><time>2026-05-01T11:09:02.999Z</time></trkpt><trkpt lat="43.967362267312275" lon="11.31400125650812"><ele>213.33333333333331</ele><time>2026-05-01T11:09:03.999Z</time></trkpt><trkpt lat="43.9674616987873" lon="11.314270469984201"><ele>213.0</ele><time>2026-05-01T11:09:04.999Z</time></trkpt><trkpt lat="43.96755592700243" lon="11.31452855127814"><ele>212.66666666666669</ele><time>2026-05-01T11:09:05.999Z</time></trkpt><trkpt lat="43.96764619161909" lon="11.314774268920113"><ele>212.33333333333334</ele><time>2026-05-01T11:09:06.999Z</time></trkpt><trkpt lat="43.96773244687878" lon="11.315009281202652"><ele>212.0</ele><time>2026-05-01T11:09:07.999Z</time></trkpt><trkpt lat="43.967813760739986" lon="11.315229974795058"><ele>212.0</ele><time>2026-05-01T11:09:08.999Z</time></trkpt><trkpt lat="43.967886558425896" lon="11.315428836321216"><ele>212.0</ele><time>2026-05-01T11:09:09.999Z</time></trkpt><trkpt lat="43.9679569843485" lon="11.315619368609973"><ele>212.0</ele><time>2026-05-01T11:09:10.999Z</time></trkpt><trkpt lat="43.96802488243448" lon="11.315801843947538"><ele>211.5</ele><time>2026-05-01T11:09:11.999Z</time></trkpt><trkpt lat="43.96809085633416" lon="11.315975917907773"><ele>211.0</ele><time>2026-05-01T11:09:12.999Z</time></trkpt><trkpt lat="43.96815181856307" lon="11.316139594521397"><ele>210.5</ele><time>2026-05-01T11:09:13.999Z</time></trkpt><trkpt lat="43.968210124409836" lon="11.316305980105344"><ele>210.0</ele><time>2026-05-01T11:09:14.999Z</time></trkpt><trkpt lat="43.96827044096886" lon="11.316475933813882"><ele>209.5</ele><time>2026-05-01T11:09:15.999Z</time></trkpt><trkpt lat="43.96833442049868" lon="11.316652302741279"><ele>209.0</ele><time>2026-05-01T11:09:16.999Z</time></trkpt><trkpt lat="43.9684015367628" lon="11.316830821235682"><ele>208.5</ele><time>2026-05-01T11:09:17.999Z</time></trkpt><trkpt lat="43.96846876607239" lon="11.317006448837436"><ele>208.0</ele><time>2026-05-01T11:09:18.999Z</time></trkpt><trkpt lat="43.96853760117258" lon="11.317186897752151"><ele>207.66666666666666</ele><time>2026-05-01T11:09:19.999Z</time></trkpt><trkpt lat="43.968606604633734" lon="11.31737292012117"><ele>207.33333333333331</ele><time>2026-05-01T11:09:20.999Z</time></trkpt><trkpt lat="43.96867784201378" lon="11.317574431886456"><ele>207.0</ele><time>2026-05-01T11:09:21.999Z</time></trkpt><trkpt lat="43.968752342133264" lon="11.317785876177188"><ele>207.0</ele><time>2026-05-01T11:09:22.999Z</time></trkpt><trkpt lat="43.96883041596082" lon="11.318002670289308"><ele>207.0</ele><time>2026-05-01T11:09:23.999Z</time></trkpt><trkpt lat="43.96890977462155" lon="11.3182220224877"><ele>207.0</ele><time>2026-05-01T11:09:24.999Z</time></trkpt><trkpt lat="43.968989007205344" lon="11.318440632701435"><ele>207.0</ele><time>2026-05-01T11:09:25.999Z</time></trkpt><trkpt lat="43.969068411792406" lon="11.31865333244134"><ele>207.0</ele><time>2026-05-01T11:09:26.999Z</time></trkpt><trkpt lat="43.96914049956959" lon="11.318851262469758"><ele>207.0</ele><time>2026-05-01T11:09:27.999Z</time></trkpt><trkpt lat="43.9692100561597" lon="11.319045646689206"><ele>206.66666666666669</ele><time>2026-05-01T11:09:29Z</time></trkpt><trkpt lat="43.96928178176651" lon="11.319243748954381"><ele>206.33333333333334</ele><time>2026-05-01T11:09:30Z</time></trkpt><trkpt lat="43.969357423535406" lon="11.319448014375304"><ele>206.0</ele><time>2026-05-01T11:09:31Z</time></trkpt><trkpt lat="43.96944053321243" lon="11.319665349523616"><ele>206.0</ele><time>2026-05-01T11:09:32Z</time></trkpt><trkpt lat="43.96952605618655" lon="11.319889809100134"><ele>206.0</ele><time>2026-05-01T11:09:33Z</time></trkpt><trkpt lat="43.96961406010825" lon="11.320118315439395"><ele>206.0</ele><time>2026-05-01T11:09:34Z</time></trkpt><trkpt lat="43.96970295198186" lon="11.320347917621698"><ele>205.0</ele><time>2026-05-01T11:09:35Z</time></trkpt><trkpt lat="43.96978863190372" lon="11.320569182777655"><ele>204.0</ele><time>2026-05-01T11:09:36Z</time></trkpt><trkpt lat="43.96987011147116" lon="11.320783733218487"><ele>203.0</ele><time>2026-05-01T11:09:37Z</time></trkpt><trkpt lat="43.96994675612722" lon="11.320993667073683"><ele>203.0</ele><time>2026-05-01T11:09:38Z</time></trkpt><trkpt lat="43.970022151403334" lon="11.321205153370206"><ele>203.0</ele><time>2026-05-01T11:09:39Z</time></trkpt><trkpt lat="43.97009610423731" lon="11.321414276987568"><ele>203.0</ele><time>2026-05-01T11:09:40Z</time></trkpt><trkpt lat="43.97016751947511" lon="11.321628901074918"><ele>203.33333333333334</ele><time>2026-05-01T11:09:41Z</time></trkpt><trkpt lat="43.970232822598646" lon="11.321850566637654"><ele>203.66666666666669</ele><time>2026-05-01T11:09:42Z</time></trkpt><trkpt lat="43.97028970691947" lon="11.3220756692655"><ele>204.0</ele><time>2026-05-01T11:09:43Z</time></trkpt><trkpt lat="43.97033804970555" lon="11.322300505849084"><ele>204.0</ele><time>2026-05-01T11:09:44Z</time></trkpt><trkpt lat="43.970380016004995" lon="11.322528660941039"><ele>204.0</ele><time>2026-05-01T11:09:45Z</time></trkpt><trkpt lat="43.97041630525151" lon="11.322758101548411"><ele>204.0</ele><time>2026-05-01T11:09:46Z</time></trkpt><trkpt lat="43.97044305399682" lon="11.322991232921717"><ele>204.0</ele><time>2026-05-01T11:09:47Z</time></trkpt><trkpt lat="43.97046016504683" lon="11.323229558704256"><ele>204.0</ele><time>2026-05-01T11:09:48Z</time></trkpt><trkpt lat="43.97046793727083" lon="11.323475478987604"><ele>204.0</ele><time>2026-05-01T11:09:49Z</time></trkpt><trkpt lat="43.97046833592867" lon="11.323721909856586"><ele>203.66666666666669</ele><time>2026-05-01T11:09:50Z</time></trkpt><trkpt lat="43.97046487884043" lon="11.323971928517633"><ele>203.33333333333334</ele><time>2026-05-01T11:09:51Z</time></trkpt><trkpt lat="43.970463257065326" lon="11.324220967270055"><ele>203.0</ele><time>2026-05-01T11:09:52Z</time></trkpt><trkpt lat="43.97046035260175" lon="11.324468528619724"><ele>203.0</ele><time>2026-05-01T11:09:53Z</time></trkpt><trkpt lat="43.970456473787465" lon="11.32471949960281"><ele>203.0</ele><time>2026-05-01T11:09:54Z</time></trkpt><trkpt lat="43.97045193536369" lon="11.324968505100564"><ele>203.0</ele><time>2026-05-01T11:09:55Z</time></trkpt><trkpt lat="43.97044529497148" lon="11.325219663993298"><ele>203.0</ele><time>2026-05-01T11:09:56Z</time></trkpt><trkpt lat="43.97043989057252" lon="11.325478614967844"><ele>203.0</ele><time>2026-05-01T11:09:57Z</time></trkpt><trkpt lat="43.97043584288499" lon="11.325744798587799"><ele>203.0</ele><time>2026-05-01T11:09:58Z</time></trkpt><trkpt lat="43.9704310008903" lon="11.326018270038915"><ele>203.0</ele><time>2026-05-01T11:09:59Z</time></trkpt><trkpt lat="43.97042468876686" lon="11.326290985236605"><ele>203.0</ele><time>2026-05-01T11:10:00Z</time></trkpt><trkpt lat="43.97041933500476" lon="11.326560681466646"><ele>203.0</ele><time>2026-05-01T11:10:01Z</time></trkpt><trkpt lat="43.97041443558419" lon="11.326828759692072"><ele>204.33333333333334</ele><time>2026-05-01T11:10:02Z</time></trkpt><trkpt lat="43.97041050284124" lon="11.327098177424913"><ele>205.66666666666669</ele><time>2026-05-01T11:10:03Z</time></trkpt><trkpt lat="43.970408324063825" lon="11.327369966455155"><ele>207.0</ele><time>2026-05-01T11:10:04Z</time></trkpt><trkpt lat="43.970408669378486" lon="11.327646054995864"><ele>207.0</ele><time>2026-05-01T11:10:05Z</time></trkpt><trkpt lat="43.97040721906953" lon="11.327927871138874"><ele>207.0</ele><time>2026-05-01T11:10:06Z</time></trkpt><trkpt lat="43.97040606783394" lon="11.328214565816399"><ele>207.0</ele><time>2026-05-01T11:10:07Z</time></trkpt><trkpt lat="43.97040282918754" lon="11.328509325875933"><ele>207.0</ele><time>2026-05-01T11:10:08Z</time></trkpt><trkpt lat="43.97039946085234" lon="11.328811133814478"><ele>207.0</ele><time>2026-05-01T11:10:09Z</time></trkpt><trkpt lat="43.97039183190871" lon="11.329116580796063"><ele>207.0</ele><time>2026-05-01T11:10:10Z</time></trkpt><trkpt lat="43.97037556747464" lon="11.329392845648549"><ele>211.0</ele><time>2026-05-01T11:10:11Z</time></trkpt><trkpt lat="43.970344326313565" lon="11.329725488637456"><ele>215.0</ele><time>2026-05-01T11:10:12Z</time></trkpt><trkpt lat="43.970297602917796" lon="11.33002196156552"><ele>215.0</ele><time>2026-05-01T11:10:13Z</time></trkpt><trkpt lat="43.97024197278223" lon="11.33030962709856"><ele>215.0</ele><time>2026-05-01T11:10:14Z</time></trkpt><trkpt lat="43.97017627262868" lon="11.330589381360907"><ele>215.0</ele><time>2026-05-01T11:10:15Z</time></trkpt><trkpt lat="43.97011343276059" lon="11.330849197772938"><ele>215.66666666666669</ele><time>2026-05-01T11:10:16Z</time></trkpt><trkpt lat="43.97005371900321" lon="11.3310934608967"><ele>216.33333333333331</ele><time>2026-05-01T11:10:17Z</time></trkpt><trkpt lat="43.9700033809825" lon="11.331299835545828"><ele>217.0</ele><time>2026-05-01T11:10:18Z</time></trkpt><trkpt lat="43.969960762232205" lon="11.331472229512068"><ele>217.0</ele><time>2026-05-01T11:10:19Z</time></trkpt><trkpt lat="43.96992111934801" lon="11.331624075477466"><ele>217.0</ele><time>2026-05-01T11:10:20Z</time></trkpt><trkpt lat="43.969870784691764" lon="11.331748749536285"><ele>217.0</ele><time>2026-05-01T11:10:21Z</time></trkpt><trkpt lat="43.96980323152907" lon="11.331845146692524"><ele>217.0</ele><time>2026-05-01T11:10:22Z</time></trkpt><trkpt lat="43.96973447418409" lon="11.331926667260968"><ele>217.0</ele><time>2026-05-01T11:10:23Z</time></trkpt><trkpt lat="43.96969923253341" lon="11.332012328086929"><ele>217.0</ele><time>2026-05-01T11:10:24Z</time></trkpt><trkpt lat="43.96973902277968" lon="11.332177709898177"><ele>217.0</ele><time>2026-05-01T11:10:26Z</time></trkpt><trkpt lat="43.969806581216105" lon="11.332221711293597"><ele>217.0</ele><time>2026-05-01T11:10:27Z</time></trkpt><trkpt lat="43.969899456567134" lon="11.332225539679994"><ele>217.0</ele><time>2026-05-01T11:10:28Z</time></trkpt><trkpt lat="43.9700038920216" lon="11.332222747822074"><ele>217.0</ele><time>2026-05-01T11:10:29Z</time></trkpt><trkpt lat="43.970105450572575" lon="11.332272122652892"><ele>217.25</ele><time>2026-05-01T11:10:30Z</time></trkpt><trkpt lat="43.97021003439199" lon="11.332385578473998"><ele>217.5</ele><time>2026-05-01T11:10:31Z</time></trkpt><trkpt lat="43.970332005014534" lon="11.332510692480877"><ele>217.75</ele><time>2026-05-01T11:10:31.999Z</time></trkpt><trkpt lat="43.97048042217171" lon="11.332599385229347"><ele>218.0</ele><time>2026-05-01T11:10:32.999Z</time></trkpt><trkpt lat="43.970641720986805" lon="11.332674974489553"><ele>218.0</ele><time>2026-05-01T11:10:33.999Z</time></trkpt><trkpt lat="43.97080841075706" lon="11.332756813964744"><ele>218.0</ele><time>2026-05-01T11:10:34.999Z</time></trkpt><trkpt lat="43.97096948023475" lon="11.332835771436839"><ele>218.0</ele><time>2026-05-01T11:10:35.999Z</time></trkpt><trkpt lat="43.97112727287424" lon="11.332911542224203"><ele>218.33333333333334</ele><time>2026-05-01T11:10:36.999Z</time></trkpt><trkpt lat="43.97127701258828" lon="11.33298419132213"><ele>218.66666666666669</ele><time>2026-05-01T11:10:37.999Z</time></trkpt><trkpt lat="43.97142128546754" lon="11.333052043733943"><ele>219.0</ele><time>2026-05-01T11:10:38.999Z</time></trkpt><trkpt lat="43.971559491892116" lon="11.333118021988678"><ele>219.25</ele><time>2026-05-01T11:10:39.999Z</time></trkpt><trkpt lat="43.97169368616816" lon="11.333181408105409"><ele>219.5</ele><time>2026-05-01T11:10:40.999Z</time></trkpt><trkpt lat="43.97182596838185" lon="11.333245778792037"><ele>219.75</ele><time>2026-05-01T11:10:41.999Z</time></trkpt><trkpt lat="43.97195679808893" lon="11.333312342486215"><ele>220.0</ele><time>2026-05-01T11:10:42.999Z</time></trkpt><trkpt lat="43.97208656627124" lon="11.333377976300689"><ele>220.0</ele><time>2026-05-01T11:10:43.999Z</time></trkpt><trkpt lat="43.972216275033816" lon="11.33343971767098"><ele>220.0</ele><time>2026-05-01T11:10:44.999Z</time></trkpt><trkpt lat="43.972343876379846" lon="11.333505203787366"><ele>220.0</ele><time>2026-05-01T11:10:45.999Z</time></trkpt><trkpt lat="43.9724701061442" lon="11.333569973524698"><ele>220.0</ele><time>2026-05-01T11:10:46.999Z</time></trkpt><trkpt lat="43.97259778666811" lon="11.333631445157728"><ele>221.0</ele><time>2026-05-01T11:10:47.999Z</time></trkpt><trkpt lat="43.97272526155814" lon="11.333692822947052"><ele>222.0</ele><time>2026-05-01T11:10:48.999Z</time></trkpt><trkpt lat="43.97285469336199" lon="11.333754401542357"><ele>223.0</ele><time>2026-05-01T11:10:49.999Z</time></trkpt><trkpt lat="43.97298258508196" lon="11.33381551875033"><ele>224.0</ele><time>2026-05-01T11:10:50.999Z</time></trkpt><trkpt lat="43.97311266437485" lon="11.333876684496135"><ele>224.0</ele><time>2026-05-01T11:10:51.999Z</time></trkpt><trkpt lat="43.973241754730644" lon="11.333936002992454"><ele>224.0</ele><time>2026-05-01T11:10:52.999Z</time></trkpt><trkpt lat="43.973373568141824" lon="11.33399698485231"><ele>224.0</ele><time>2026-05-01T11:10:53.999Z</time></trkpt><trkpt lat="43.97350714097324" lon="11.334056905392599"><ele>224.0</ele><time>2026-05-01T11:10:54.999Z</time></trkpt><trkpt lat="43.97364225695875" lon="11.33411834955539"><ele>224.25</ele><time>2026-05-01T11:10:55.999Z</time></trkpt><trkpt lat="43.97377679584778" lon="11.334180387872683"><ele>224.5</ele><time>2026-05-01T11:10:56.999Z</time></trkpt><trkpt lat="43.973909779841975" lon="11.334245104912657"><ele>224.75</ele><time>2026-05-01T11:10:57.999Z</time></trkpt><trkpt lat="43.9740447782358" lon="11.334310801117592"><ele>225.0</ele><time>2026-05-01T11:10:58.999Z</time></trkpt><trkpt lat="43.97417994348231" lon="11.334380924868224"><ele>225.33333333333331</ele><time>2026-05-01T11:10:59.999Z</time></trkpt><trkpt lat="43.97432037961437" lon="11.334454893829083"><ele>225.66666666666666</ele><time>2026-05-01T11:11:00.999Z</time></trkpt><trkpt lat="43.97446693802964" lon="11.33453258715889"><ele>226.0</ele><time>2026-05-01T11:11:01.999Z</time></trkpt><trkpt lat="43.97461648720171" lon="11.334618460980217"><ele>226.0</ele><time>2026-05-01T11:11:02.999Z</time></trkpt><trkpt lat="43.974767758713845" lon="11.334710748821246"><ele>226.0</ele><time>2026-05-01T11:11:03.999Z</time></trkpt><trkpt lat="43.97492157576034" lon="11.334804954410211"><ele>226.0</ele><time>2026-05-01T11:11:04.999Z</time></trkpt><trkpt lat="43.975076152463004" lon="11.334899549792821"><ele>226.66666666666666</ele><time>2026-05-01T11:11:05.999Z</time></trkpt><trkpt lat="43.97523265424532" lon="11.33499715629113"><ele>227.33333333333331</ele><time>2026-05-01T11:11:06.999Z</time></trkpt><trkpt lat="43.97538948246319" lon="11.335093212989552"><ele>228.0</ele><time>2026-05-01T11:11:07.999Z</time></trkpt><trkpt lat="43.97554780865369" lon="11.335188968037047"><ele>228.0</ele><time>2026-05-01T11:11:08.999Z</time></trkpt><trkpt lat="43.97570619243055" lon="11.3352887682727"><ele>228.0</ele><time>2026-05-01T11:11:09.999Z</time></trkpt><trkpt lat="43.97586691578156" lon="11.335385688884845"><ele>228.0</ele><time>2026-05-01T11:11:10.999Z</time></trkpt><trkpt lat="43.9760245369966" lon="11.335490679233274"><ele>228.66666666666669</ele><time>2026-05-01T11:11:11.999Z</time></trkpt><trkpt lat="43.976184868131675" lon="11.335590575842883"><ele>229.33333333333334</ele><time>2026-05-01T11:11:12.999Z</time></trkpt><trkpt lat="43.97634597403612" lon="11.335693500018397"><ele>230.0</ele><time>2026-05-01T11:11:13.999Z</time></trkpt><trkpt lat="43.97650847932727" lon="11.335792449187513"><ele>230.0</ele><time>2026-05-01T11:11:14.999Z</time></trkpt><trkpt lat="43.9766645776035" lon="11.33588330777601"><ele>230.0</ele><time>2026-05-01T11:11:15.999Z</time></trkpt><trkpt lat="43.9768101164945" lon="11.33596745213377"><ele>230.0</ele><time>2026-05-01T11:11:16.999Z</time></trkpt><trkpt lat="43.97695668095043" lon="11.336044070779016"><ele>230.33333333333334</ele><time>2026-05-01T11:11:17.999Z</time></trkpt><trkpt lat="43.977103895702804" lon="11.336131807231077"><ele>230.66666666666669</ele><time>2026-05-01T11:11:18.999Z</time></trkpt><trkpt lat="43.97725854045765" lon="11.336227509406866"><ele>231.0</ele><time>2026-05-01T11:11:19.999Z</time></trkpt><trkpt lat="43.977416267771716" lon="11.3363186308803"><ele>231.0</ele><time>2026-05-01T11:11:20.999Z</time></trkpt><trkpt lat="43.9775682695646" lon="11.336410812662324"><ele>231.0</ele><time>2026-05-01T11:11:21.999Z</time></trkpt><trkpt lat="43.97771628662706" lon="11.336496320283523"><ele>231.0</ele><time>2026-05-01T11:11:22.999Z</time></trkpt><trkpt lat="43.97785386716336" lon="11.336572162944778"><ele>231.0</ele><time>2026-05-01T11:11:23.999Z</time></trkpt><trkpt lat="43.977971669733606" lon="11.336636999539879"><ele>231.00000000000003</ele><time>2026-05-01T11:11:24.999Z</time></trkpt><trkpt lat="43.97807197281316" lon="11.33669339993445"><ele>231.00000000000003</ele><time>2026-05-01T11:11:25.999Z</time></trkpt><trkpt lat="43.97816437128021" lon="11.33674686788921"><ele>231.0</ele><time>2026-05-01T11:11:26.999Z</time></trkpt><trkpt lat="43.978258490670086" lon="11.33680078424295"><ele>231.0</ele><time>2026-05-01T11:11:27.999Z</time></trkpt><trkpt lat="43.97836090238321" lon="11.336858519533301"><ele>231.25</ele><time>2026-05-01T11:11:28.999Z</time></trkpt><trkpt lat="43.978467025767536" lon="11.336917505329337"><ele>231.5</ele><time>2026-05-01T11:11:29.999Z</time></trkpt><trkpt lat="43.97857835338358" lon="11.3369851452833"><ele>231.75</ele><time>2026-05-01T11:11:30.999Z</time></trkpt><trkpt lat="43.97868730143146" lon="11.33704955426729"><ele>232.0</ele><time>2026-05-01T11:11:31.999Z</time></trkpt><trkpt lat="43.97880121506025" lon="11.337114434075662"><ele>232.0</ele><time>2026-05-01T11:11:32.999Z</time></trkpt><trkpt lat="43.978916904999956" lon="11.337181720537753"><ele>232.0</ele><time>2026-05-01T11:11:33.999Z</time></trkpt><trkpt lat="43.97903611132907" lon="11.337248894543437"><ele>232.0</ele><time>2026-05-01T11:11:35Z</time></trkpt><trkpt lat="43.979159092552386" lon="11.33731633227417"><ele>232.0</ele><time>2026-05-01T11:11:36Z</time></trkpt><trkpt lat="43.97928635921596" lon="11.33738523477316"><ele>232.25</ele><time>2026-05-01T11:11:37Z</time></trkpt><trkpt lat="43.97941877177055" lon="11.337460020612653"><ele>232.5</ele><time>2026-05-01T11:11:38Z</time></trkpt><trkpt lat="43.97955453094278" lon="11.33753866266022"><ele>232.75</ele><time>2026-05-01T11:11:39Z</time></trkpt><trkpt lat="43.979692702092954" lon="11.337616026541383"><ele>233.0</ele><time>2026-05-01T11:11:40Z</time></trkpt><trkpt lat="43.979829891632875" lon="11.337695929444758"><ele>233.0</ele><time>2026-05-01T11:11:41Z</time></trkpt><trkpt lat="43.979966954494856" lon="11.337779579255857"><ele>233.0</ele><time>2026-05-01T11:11:42Z</time></trkpt><trkpt lat="43.980102747995254" lon="11.337863331548432"><ele>233.0</ele><time>2026-05-01T11:11:43Z</time></trkpt><trkpt lat="43.980238020181986" lon="11.337959078942397"><ele>234.0</ele><time>2026-05-01T11:11:44Z</time></trkpt><trkpt lat="43.9803741206871" lon="11.338064327927672"><ele>235.0</ele><time>2026-05-01T11:11:45Z</time></trkpt><trkpt lat="43.98050702954414" lon="11.338183144250758"><ele>236.0</ele><time>2026-05-01T11:11:46Z</time></trkpt><trkpt lat="43.98063935697699" lon="11.338311711782648"><ele>236.0</ele><time>2026-05-01T11:11:47Z</time></trkpt><trkpt lat="43.98077178101269" lon="11.338446750417052"><ele>236.0</ele><time>2026-05-01T11:11:48Z</time></trkpt><trkpt lat="43.98090444490187" lon="11.338577522488427"><ele>236.0</ele><time>2026-05-01T11:11:49Z</time></trkpt><trkpt lat="43.981040813015376" lon="11.338707891810246"><ele>236.33333333333334</ele><time>2026-05-01T11:11:50Z</time></trkpt><trkpt lat="43.981178304442864" lon="11.338833132587283"><ele>236.66666666666669</ele><time>2026-05-01T11:11:51Z</time></trkpt><trkpt lat="43.981319318888616" lon="11.338959543819554"><ele>237.0</ele><time>2026-05-01T11:11:52Z</time></trkpt><trkpt lat="43.98146529761335" lon="11.339088213606924"><ele>237.0</ele><time>2026-05-01T11:11:53Z</time></trkpt><trkpt lat="43.98161585029416" lon="11.33921003582481"><ele>237.0</ele><time>2026-05-01T11:11:54Z</time></trkpt><trkpt lat="43.9817636683766" lon="11.339327230065154"><ele>237.0</ele><time>2026-05-01T11:11:55Z</time></trkpt><trkpt lat="43.98191095822181" lon="11.339434388444618"><ele>238.0</ele><time>2026-05-01T11:11:56Z</time></trkpt><trkpt lat="43.98205876332044" lon="11.33951487338956"><ele>239.0</ele><time>2026-05-01T11:11:57Z</time></trkpt><trkpt lat="43.982215038894786" lon="11.33955414448955"><ele>240.0</ele><time>2026-05-01T11:11:58Z</time></trkpt><trkpt lat="43.98237013609967" lon="11.339541875941213"><ele>239.66666666666669</ele><time>2026-05-01T11:11:59Z</time></trkpt><trkpt lat="43.98252042287966" lon="11.33949244199221"><ele>239.33333333333334</ele><time>2026-05-01T11:12:00Z</time></trkpt><trkpt lat="43.98267160776396" lon="11.339425255063631"><ele>239.0</ele><time>2026-05-01T11:12:01Z</time></trkpt><trkpt lat="43.982835549433624" lon="11.339347806348748"><ele>239.0</ele><time>2026-05-01T11:12:02Z</time></trkpt><trkpt lat="43.982993955951315" lon="11.339281437686006"><ele>239.0</ele><time>2026-05-01T11:12:03Z</time></trkpt><trkpt lat="43.98315486326586" lon="11.339240895364009"><ele>239.0</ele><time>2026-05-01T11:12:04Z</time></trkpt><trkpt lat="43.983313661579395" lon="11.339189822910429"><ele>239.0</ele><time>2026-05-01T11:12:05Z</time></trkpt><trkpt lat="43.983475780374384" lon="11.339151317167778"><ele>239.0</ele><time>2026-05-01T11:12:06Z</time></trkpt><trkpt lat="43.98364418358455" lon="11.339164915480794"><ele>239.0</ele><time>2026-05-01T11:12:07Z</time></trkpt><trkpt lat="43.98381941832811" lon="11.339187751116995"><ele>239.0</ele><time>2026-05-01T11:12:08Z</time></trkpt><trkpt lat="43.98399186797032" lon="11.339207160023463"><ele>239.0</ele><time>2026-05-01T11:12:09Z</time></trkpt><trkpt lat="43.98416347486715" lon="11.339230463982373"><ele>239.0</ele><time>2026-05-01T11:12:10Z</time></trkpt><trkpt lat="43.98433091795046" lon="11.339256239546557"><ele>239.33333333333334</ele><time>2026-05-01T11:12:11Z</time></trkpt><trkpt lat="43.98448685814608" lon="11.33928134300788"><ele>239.66666666666669</ele><time>2026-05-01T11:12:12Z</time></trkpt><trkpt lat="43.98463968665756" lon="11.339318162236756"><ele>240.0</ele><time>2026-05-01T11:12:13Z</time></trkpt><trkpt lat="43.98477556649328" lon="11.339389845541753"><ele>240.0</ele><time>2026-05-01T11:12:14Z</time></trkpt><trkpt lat="43.984894397676115" lon="11.339482691305207"><ele>240.0</ele><time>2026-05-01T11:12:15Z</time></trkpt><trkpt lat="43.985002084176124" lon="11.339580025311566"><ele>240.0</ele><time>2026-05-01T11:12:16Z</time></trkpt><trkpt lat="43.98509594862877" lon="11.339679929367108"><ele>240.0</ele><time>2026-05-01T11:12:17Z</time></trkpt><trkpt lat="43.985163573804854" lon="11.339783600636414"><ele>238.4</ele><time>2026-05-01T11:12:18Z</time></trkpt><trkpt lat="43.9852091025759" lon="11.339890790614994"><ele>236.8</ele><time>2026-05-01T11:12:19Z</time></trkpt><trkpt lat="43.98524219771183" lon="11.339982568976877"><ele>235.2</ele><time>2026-05-01T11:12:20Z</time></trkpt><trkpt lat="43.98531295704173" lon="11.340063124736686"><ele>233.6</ele><time>2026-05-01T11:12:22Z</time></trkpt><trkpt lat="43.9852837430869" lon="11.340314927919652"><ele>232.0</ele><time>2026-05-01T11:12:38.999Z</time></trkpt><trkpt lat="43.98527282456116" lon="11.340410587927327"><ele>232.0</ele><time>2026-05-01T11:12:39.999Z</time></trkpt><trkpt lat="43.98525759140437" lon="11.340528298110343"><ele>232.0</ele><time>2026-05-01T11:12:40.999Z</time></trkpt><trkpt lat="43.98523905646157" lon="11.340663155714562"><ele>232.0</ele><time>2026-05-01T11:12:41.999Z</time></trkpt><trkpt lat="43.985229443567015" lon="11.340820869663935"><ele>232.0</ele><time>2026-05-01T11:12:42.999Z</time></trkpt><trkpt lat="43.985193637328436" lon="11.340993200967834"><ele>232.0</ele><time>2026-05-01T11:12:43.999Z</time></trkpt><trkpt lat="43.98515606232928" lon="11.341176440905578"><ele>231.0</ele><time>2026-05-01T11:12:44.999Z</time></trkpt><trkpt lat="43.98512275633586" lon="11.3413627570413"><ele>230.0</ele><time>2026-05-01T11:12:45.999Z</time></trkpt><trkpt lat="43.98509243819147" lon="11.34155827225787"><ele>229.0</ele><time>2026-05-01T11:12:46.999Z</time></trkpt><trkpt lat="43.98506008924992" lon="11.34176138309052"><ele>228.0</ele><time>2026-05-01T11:12:47.999Z</time></trkpt><trkpt lat="43.98502639921853" lon="11.341968366134035"><ele>227.66666666666669</ele><time>2026-05-01T11:12:48.999Z</time></trkpt><trkpt lat="43.984986755083895" lon="11.34217834739613"><ele>227.33333333333334</ele><time>2026-05-01T11:12:49.999Z</time></trkpt><trkpt lat="43.98494518793061" lon="11.342388897538616"><ele>227.0</ele><time>2026-05-01T11:12:50.999Z</time></trkpt><trkpt lat="43.98490999669536" lon="11.342588949700945"><ele>227.0</ele><time>2026-05-01T11:12:51.999Z</time></trkpt><trkpt lat="43.984881862790544" lon="11.342785249746365"><ele>227.0</ele><time>2026-05-01T11:12:52.999Z</time></trkpt><trkpt lat="43.984875130664214" lon="11.342957472400451"><ele>227.0</ele><time>2026-05-01T11:12:53.999Z</time></trkpt><trkpt lat="43.984897035109086" lon="11.34313433623188"><ele>227.0</ele><time>2026-05-01T11:12:54.999Z</time></trkpt><trkpt lat="43.98494294388831" lon="11.343302805123942"><ele>227.5</ele><time>2026-05-01T11:12:55.999Z</time></trkpt><trkpt lat="43.98500896784628" lon="11.343463651033524"><ele>228.0</ele><time>2026-05-01T11:12:56.999Z</time></trkpt><trkpt lat="43.985081202307136" lon="11.343625533641774"><ele>228.5</ele><time>2026-05-01T11:12:57.999Z</time></trkpt><trkpt lat="43.98514962094658" lon="11.343790804770629"><ele>229.0</ele><time>2026-05-01T11:12:58.999Z</time></trkpt><trkpt lat="43.985218780076785" lon="11.343960549913563"><ele>230.75</ele><time>2026-05-01T11:12:59.999Z</time></trkpt><trkpt lat="43.98529007076034" lon="11.344134469687765"><ele>232.5</ele><time>2026-05-01T11:13:00.999Z</time></trkpt><trkpt lat="43.98536025972458" lon="11.344312871657165"><ele>234.25</ele><time>2026-05-01T11:13:01.999Z</time></trkpt><trkpt lat="43.98543182260075" lon="11.344495874429263"><ele>236.0</ele><time>2026-05-01T11:13:02.999Z</time></trkpt><trkpt lat="43.98550850938759" lon="11.344684906499076"><ele>238.33333333333334</ele><time>2026-05-01T11:13:03.999Z</time></trkpt><trkpt lat="43.98558792385092" lon="11.344872413038287"><ele>240.66666666666669</ele><time>2026-05-01T11:13:04.999Z</time></trkpt><trkpt lat="43.98566758561625" lon="11.345061546875849"><ele>243.0</ele><time>2026-05-01T11:13:05.999Z</time></trkpt><trkpt lat="43.985744219485426" lon="11.345251764632637"><ele>243.0</ele><time>2026-05-01T11:13:06.999Z</time></trkpt><trkpt lat="43.985819649804746" lon="11.345442161164762"><ele>243.0</ele><time>2026-05-01T11:13:07.999Z</time></trkpt><trkpt lat="43.98589431360031" lon="11.345632464360056"><ele>243.0</ele><time>2026-05-01T11:13:08.999Z</time></trkpt><trkpt lat="43.98596731552021" lon="11.345823870141484"><ele>243.0</ele><time>2026-05-01T11:13:09.999Z</time></trkpt><trkpt lat="43.98604157603441" lon="11.346015590415652"><ele>243.0</ele><time>2026-05-01T11:13:10.999Z</time></trkpt><trkpt lat="43.986114062678695" lon="11.346204667803997"><ele>243.0</ele><time>2026-05-01T11:13:11.999Z</time></trkpt><trkpt lat="43.98618455182149" lon="11.346391534932504"><ele>244.75</ele><time>2026-05-01T11:13:12.999Z</time></trkpt><trkpt lat="43.98625288926887" lon="11.346574177522195"><ele>246.5</ele><time>2026-05-01T11:13:13.999Z</time></trkpt><trkpt lat="43.98632130349775" lon="11.346755264463221"><ele>248.25</ele><time>2026-05-01T11:13:14.999Z</time></trkpt><trkpt lat="43.9863880326859" lon="11.346933295408007"><ele>250.0</ele><time>2026-05-01T11:13:15.999Z</time></trkpt><trkpt lat="43.98645226912746" lon="11.347107935591858"><ele>252.0</ele><time>2026-05-01T11:13:16.999Z</time></trkpt><trkpt lat="43.98650943493725" lon="11.347262920819675"><ele>254.0</ele><time>2026-05-01T11:13:17.999Z</time></trkpt><trkpt lat="43.98655864589966" lon="11.347396828138749"><ele>256.0</ele><time>2026-05-01T11:13:18.999Z</time></trkpt><trkpt lat="43.98660963958171" lon="11.347526539677048"><ele>258.0</ele><time>2026-05-01T11:13:19.999Z</time></trkpt><trkpt lat="43.98666317376442" lon="11.34766227635424"><ele>258.6</ele><time>2026-05-01T11:13:20.999Z</time></trkpt><trkpt lat="43.9867206525456" lon="11.347794110635807"><ele>259.20000000000005</ele><time>2026-05-01T11:13:21.999Z</time></trkpt><trkpt lat="43.986787069164386" lon="11.34791554825169"><ele>259.8</ele><time>2026-05-01T11:13:22.999Z</time></trkpt><trkpt lat="43.98685916888397" lon="11.348031886644314"><ele>260.40000000000003</ele><time>2026-05-01T11:13:23.999Z</time></trkpt><trkpt lat="43.98693903998814" lon="11.348143453653265"><ele>261.0</ele><time>2026-05-01T11:13:24.999Z</time></trkpt><trkpt lat="43.98702868670706" lon="11.348245966150293"><ele>261.0</ele><time>2026-05-01T11:13:25.999Z</time></trkpt><trkpt lat="43.987127505127695" lon="11.348342569233385"><ele>261.0</ele><time>2026-05-01T11:13:26.999Z</time></trkpt><trkpt lat="43.987232872669345" lon="11.348436220842393"><ele>261.0</ele><time>2026-05-01T11:13:27.999Z</time></trkpt><trkpt lat="43.98733432895397" lon="11.348537997401559"><ele>261.0</ele><time>2026-05-01T11:13:28.999Z</time></trkpt><trkpt lat="43.98744108871935" lon="11.348632833952427"><ele>260.75</ele><time>2026-05-01T11:13:29.999Z</time></trkpt><trkpt lat="43.98754627854908" lon="11.348730966200161"><ele>260.5</ele><time>2026-05-01T11:13:30.999Z</time></trkpt><trkpt lat="43.98764938384109" lon="11.348833338768348"><ele>260.25</ele><time>2026-05-01T11:13:31.999Z</time></trkpt><trkpt lat="43.98775626432173" lon="11.348931640407631"><ele>260.0</ele><time>2026-05-01T11:13:32.999Z</time></trkpt><trkpt lat="43.987869219455" lon="11.349026807250036"><ele>262.0</ele><time>2026-05-01T11:13:33.999Z</time></trkpt><trkpt lat="43.98798447341922" lon="11.349128083583262"><ele>264.0</ele><time>2026-05-01T11:13:34.999Z</time></trkpt><trkpt lat="43.98810215213352" lon="11.349233187277736"><ele>266.0</ele><time>2026-05-01T11:13:35.999Z</time></trkpt><trkpt lat="43.98822021763838" lon="11.34934403376573"><ele>268.0</ele><time>2026-05-01T11:13:36.999Z</time></trkpt><trkpt lat="43.988336080678685" lon="11.34944938120917"><ele>268.25</ele><time>2026-05-01T11:13:37.999Z</time></trkpt><trkpt lat="43.98844873440117" lon="11.349550858716167"><ele>268.5</ele><time>2026-05-01T11:13:38.999Z</time></trkpt><trkpt lat="43.98856075707887" lon="11.349647579335793"><ele>268.75</ele><time>2026-05-01T11:13:40Z</time></trkpt><trkpt lat="43.98867291672244" lon="11.349746535871406"><ele>269.0</ele><time>2026-05-01T11:13:41Z</time></trkpt><trkpt lat="43.988785622434115" lon="11.349849753718415"><ele>270.0</ele><time>2026-05-01T11:13:42Z</time></trkpt><trkpt lat="43.988901266407716" lon="11.3499533532299"><ele>271.0</ele><time>2026-05-01T11:13:43Z</time></trkpt><trkpt lat="43.9890168903972" lon="11.35005601119113"><ele>272.0</ele><time>2026-05-01T11:13:44Z</time></trkpt><trkpt lat="43.98913133501825" lon="11.350157129756763"><ele>273.0</ele><time>2026-05-01T11:13:45Z</time></trkpt><trkpt lat="43.989237460365466" lon="11.350255355035758"><ele>273.0</ele><time>2026-05-01T11:13:46Z</time></trkpt><trkpt lat="43.98933736150395" lon="11.350345490740272"><ele>273.0</ele><time>2026-05-01T11:13:47Z</time></trkpt><trkpt lat="43.98943113271291" lon="11.350432650868758"><ele>273.0</ele><time>2026-05-01T11:13:48Z</time></trkpt><trkpt lat="43.9895164443164" lon="11.350525376047544"><ele>273.0</ele><time>2026-05-01T11:13:49Z</time></trkpt><trkpt lat="43.9895875803506" lon="11.350626301002725"><ele>273.0</ele><time>2026-05-01T11:13:50Z</time></trkpt><trkpt lat="43.989649513264474" lon="11.35073467841757"><ele>273.0</ele><time>2026-05-01T11:13:51Z</time></trkpt><trkpt lat="43.98970151378222" lon="11.350858056794403"><ele>273.0</ele><time>2026-05-01T11:13:52Z</time></trkpt><trkpt lat="43.98973770812456" lon="11.350996437145042"><ele>273.0</ele><time>2026-05-01T11:13:53Z</time></trkpt><trkpt lat="43.98975349968292" lon="11.351151860492646"><ele>273.0</ele><time>2026-05-01T11:13:54Z</time></trkpt><trkpt lat="43.98975450680271" lon="11.351313788531266"><ele>273.0</ele><time>2026-05-01T11:13:55Z</time></trkpt><trkpt lat="43.98974919710867" lon="11.35147629986529"><ele>273.0</ele><time>2026-05-01T11:13:56Z</time></trkpt><trkpt lat="43.9897440597871" lon="11.351641766586795"><ele>273.0</ele><time>2026-05-01T11:13:57Z</time></trkpt><trkpt lat="43.9897453312016" lon="11.351810074563483"><ele>273.0</ele><time>2026-05-01T11:13:58Z</time></trkpt><trkpt lat="43.98975155124793" lon="11.351974104114968"><ele>273.0</ele><time>2026-05-01T11:13:59Z</time></trkpt><trkpt lat="43.98976667417757" lon="11.352133048152314"><ele>273.25</ele><time>2026-05-01T11:14:00Z</time></trkpt><trkpt lat="43.98979076904934" lon="11.352285192259503"><ele>273.5</ele><time>2026-05-01T11:14:01Z</time></trkpt><trkpt lat="43.9898301013081" lon="11.352429245632306"><ele>273.75</ele><time>2026-05-01T11:14:02Z</time></trkpt><trkpt lat="43.98988393341482" lon="11.352566414853001"><ele>274.0</ele><time>2026-05-01T11:14:03Z</time></trkpt><trkpt lat="43.98994982218486" lon="11.352698595742432"><ele>274.75</ele><time>2026-05-01T11:14:04Z</time></trkpt><trkpt lat="43.99003218543229" lon="11.352823097575609"><ele>275.5</ele><time>2026-05-01T11:14:05Z</time></trkpt><trkpt lat="43.990125994484636" lon="11.352934952233834"><ele>276.25</ele><time>2026-05-01T11:14:06Z</time></trkpt><trkpt lat="43.99022954861914" lon="11.353031409539952"><ele>277.0</ele><time>2026-05-01T11:14:07Z</time></trkpt><trkpt lat="43.99034010695554" lon="11.353118371621926"><ele>277.25</ele><time>2026-05-01T11:14:08Z</time></trkpt><trkpt lat="43.990454222144955" lon="11.353199701574376"><ele>277.5</ele><time>2026-05-01T11:14:09Z</time></trkpt><trkpt lat="43.99057149705645" lon="11.353280193689407"><ele>277.75</ele><time>2026-05-01T11:14:10Z</time></trkpt><trkpt lat="43.99068924126506" lon="11.353359907929663"><ele>278.0</ele><time>2026-05-01T11:14:11Z</time></trkpt><trkpt lat="43.990811230643196" lon="11.353442645326647"><ele>278.5</ele><time>2026-05-01T11:14:12Z</time></trkpt><trkpt lat="43.99093829681791" lon="11.353528241842646"><ele>279.0</ele><time>2026-05-01T11:14:13Z</time></trkpt><trkpt lat="43.99106506859089" lon="11.35361736962225"><ele>279.5</ele><time>2026-05-01T11:14:14Z</time></trkpt><trkpt lat="43.991190118062576" lon="11.353707665513376"><ele>280.0</ele><time>2026-05-01T11:14:15Z</time></trkpt><trkpt lat="43.991313308874616" lon="11.353795572328101"><ele>280.0</ele><time>2026-05-01T11:14:16Z</time></trkpt><trkpt lat="43.99143508482828" lon="11.353879685432185"><ele>280.0</ele><time>2026-05-01T11:14:17Z</time></trkpt><trkpt lat="43.991557826448634" lon="11.353962973908592"><ele>280.0</ele><time>2026-05-01T11:14:18Z</time></trkpt><trkpt lat="43.99168247116495" lon="11.3540481792932"><ele>280.0</ele><time>2026-05-01T11:14:19Z</time></trkpt><trkpt lat="43.99180690634041" lon="11.354134933442204"><ele>280.75</ele><time>2026-05-01T11:14:20Z</time></trkpt><trkpt lat="43.99193282361275" lon="11.35422046514037"><ele>281.5</ele><time>2026-05-01T11:14:21Z</time></trkpt><trkpt lat="43.99206143328876" lon="11.354301416040755"><ele>282.25</ele><time>2026-05-01T11:14:22Z</time></trkpt><trkpt lat="43.992186811067455" lon="11.354377447218617"><ele>283.0</ele><time>2026-05-01T11:14:23Z</time></trkpt><trkpt lat="43.99230832490918" lon="11.354450366749997"><ele>283.0</ele><time>2026-05-01T11:14:24Z</time></trkpt><trkpt lat="43.99242670203609" lon="11.354523910136026"><ele>283.0</ele><time>2026-05-01T11:14:25Z</time></trkpt><trkpt lat="43.992542315727256" lon="11.354598457653312"><ele>283.0</ele><time>2026-05-01T11:14:26Z</time></trkpt><trkpt lat="43.992652742084786" lon="11.354672668188604"><ele>283.0</ele><time>2026-05-01T11:14:27Z</time></trkpt><trkpt lat="43.99276177069797" lon="11.354744920803332"><ele>284.0</ele><time>2026-05-01T11:14:28Z</time></trkpt><trkpt lat="43.992878360255666" lon="11.354816659038015"><ele>285.0</ele><time>2026-05-01T11:14:29Z</time></trkpt><trkpt lat="43.99300008117106" lon="11.354888594815446"><ele>286.0</ele><time>2026-05-01T11:14:30Z</time></trkpt><trkpt lat="43.993125591506406" lon="11.354960834728795"><ele>287.0</ele><time>2026-05-01T11:14:31Z</time></trkpt><trkpt lat="43.993252209330066" lon="11.355027706052262"><ele>287.75</ele><time>2026-05-01T11:14:32Z</time></trkpt><trkpt lat="43.99337229829865" lon="11.355093028891003"><ele>288.5</ele><time>2026-05-01T11:14:33Z</time></trkpt><trkpt lat="43.99348600747929" lon="11.355157568396221"><ele>289.25</ele><time>2026-05-01T11:14:34Z</time></trkpt><trkpt lat="43.99359146688701" lon="11.355217672921892"><ele>290.0</ele><time>2026-05-01T11:14:35Z</time></trkpt><trkpt lat="43.993683532199064" lon="11.355269533055937"><ele>290.0</ele><time>2026-05-01T11:14:36Z</time></trkpt><trkpt lat="43.993771277811675" lon="11.35531828741531"><ele>290.0</ele><time>2026-05-01T11:14:37Z</time></trkpt><trkpt lat="43.99386081795185" lon="11.355368272036552"><ele>290.0</ele><time>2026-05-01T11:14:38Z</time></trkpt><trkpt lat="43.9939577610983" lon="11.355415378724281"><ele>290.0</ele><time>2026-05-01T11:14:39Z</time></trkpt><trkpt lat="43.99406152109085" lon="11.35546653427377"><ele>290.0</ele><time>2026-05-01T11:14:40Z</time></trkpt><trkpt lat="43.99416758172305" lon="11.355525059358229"><ele>290.6</ele><time>2026-05-01T11:14:41Z</time></trkpt><trkpt lat="43.99427309872797" lon="11.355582479311504"><ele>291.2</ele><time>2026-05-01T11:14:41.999Z</time></trkpt><trkpt lat="43.99437455889556" lon="11.355635397960512"><ele>291.8</ele><time>2026-05-01T11:14:42.999Z</time></trkpt><trkpt lat="43.994478290058154" lon="11.355690984111957"><ele>292.4</ele><time>2026-05-01T11:14:43.999Z</time></trkpt><trkpt lat="43.99458709225189" lon="11.355749264873737"><ele>293.0</ele><time>2026-05-01T11:14:44.999Z</time></trkpt><trkpt lat="43.994697393123424" lon="11.355807032349105"><ele>293.0</ele><time>2026-05-01T11:14:45.999Z</time></trkpt><trkpt lat="43.994807817805835" lon="11.355864105725926"><ele>293.0</ele><time>2026-05-01T11:14:46.999Z</time></trkpt><trkpt lat="43.99491524440871" lon="11.355923121080798"><ele>293.0</ele><time>2026-05-01T11:14:47.999Z</time></trkpt><trkpt lat="43.9950235466047" lon="11.35598150538551"><ele>293.0</ele><time>2026-05-01T11:14:48.999Z</time></trkpt><trkpt lat="43.99513106333135" lon="11.356038406013843"><ele>293.5</ele><time>2026-05-01T11:14:49.999Z</time></trkpt><trkpt lat="43.99523923557992" lon="11.356096869669791"><ele>294.0</ele><time>2026-05-01T11:14:50.999Z</time></trkpt><trkpt lat="43.99534669133894" lon="11.356153026975877"><ele>294.5</ele><time>2026-05-01T11:14:51.999Z</time></trkpt><trkpt lat="43.995450222330334" lon="11.356208852066546"><ele>295.0</ele><time>2026-05-01T11:14:52.999Z</time></trkpt><trkpt lat="43.99555156719317" lon="11.356265374429388"><ele>295.0</ele><time>2026-05-01T11:14:53.999Z</time></trkpt><trkpt lat="43.99564035107336" lon="11.356318030794768"><ele>295.0</ele><time>2026-05-01T11:14:54.999Z</time></trkpt><trkpt lat="43.995715520708174" lon="11.356393399991978"><ele>295.0</ele><time>2026-05-01T11:14:56.999Z</time></trkpt><trkpt lat="43.995664428025634" lon="11.356570962665602"><ele>295.0</ele><time>2026-05-01T11:15:00.999Z</time></trkpt><trkpt lat="43.99564153652677" lon="11.356666287671075"><ele>295.0</ele><time>2026-05-01T11:15:01.999Z</time></trkpt><trkpt lat="43.99561213048774" lon="11.356771484975852"><ele>295.2</ele><time>2026-05-01T11:15:02.999Z</time></trkpt><trkpt lat="43.99557874846329" lon="11.356892806319761"><ele>295.4</ele><time>2026-05-01T11:15:03.999Z</time></trkpt><trkpt lat="43.995542352366954" lon="11.357015957182941"><ele>295.6</ele><time>2026-05-01T11:15:04.999Z</time></trkpt><trkpt lat="43.995500161994116" lon="11.357144900709118"><ele>295.8</ele><time>2026-05-01T11:15:05.999Z</time></trkpt><trkpt lat="43.9954591406004" lon="11.357274500625206"><ele>296.0</ele><time>2026-05-01T11:15:06.999Z</time></trkpt><trkpt lat="43.99541996568563" lon="11.357387832293004"><ele>295.0</ele><time>2026-05-01T11:15:07.999Z</time></trkpt><trkpt lat="43.99536990702914" lon="11.357494019645534"><ele>294.0</ele><time>2026-05-01T11:15:08.999Z</time></trkpt><trkpt lat="43.995305783024946" lon="11.357594585435491"><ele>293.0</ele><time>2026-05-01T11:15:09.999Z</time></trkpt><trkpt lat="43.99523148181644" lon="11.357695081088409"><ele>292.0</ele><time>2026-05-01T11:15:10.999Z</time></trkpt><trkpt lat="43.99515243758398" lon="11.357800016380736"><ele>291.0</ele><time>2026-05-01T11:15:11.999Z</time></trkpt><trkpt lat="43.99507108063836" lon="11.357913491388565"><ele>291.25</ele><time>2026-05-01T11:15:12.999Z</time></trkpt><trkpt lat="43.99498833564829" lon="11.358030789040939"><ele>291.5</ele><time>2026-05-01T11:15:13.999Z</time></trkpt><trkpt lat="43.994905665438296" lon="11.358144774680339"><ele>291.75</ele><time>2026-05-01T11:15:14.999Z</time></trkpt><trkpt lat="43.99481789337783" lon="11.358250718552538"><ele>292.0</ele><time>2026-05-01T11:15:15.999Z</time></trkpt><trkpt lat="43.99472224853267" lon="11.358338879256568"><ele>290.2</ele><time>2026-05-01T11:15:16.999Z</time></trkpt><trkpt lat="43.9946266738277" lon="11.358417985443413"><ele>288.4</ele><time>2026-05-01T11:15:17.999Z</time></trkpt><trkpt lat="43.994541634113425" lon="11.358506180064333"><ele>286.6</ele><time>2026-05-01T11:15:18.999Z</time></trkpt><trkpt lat="43.9944733004738" lon="11.3586213195806"><ele>284.8</ele><time>2026-05-01T11:15:19.999Z</time></trkpt><trkpt lat="43.99442596022363" lon="11.358773402973718"><ele>283.0</ele><time>2026-05-01T11:15:20.999Z</time></trkpt><trkpt lat="43.994403305938945" lon="11.358945088851845"><ele>281.5</ele><time>2026-05-01T11:15:21.999Z</time></trkpt><trkpt lat="43.99439878950096" lon="11.359128595570231"><ele>280.0</ele><time>2026-05-01T11:15:22.999Z</time></trkpt><trkpt lat="43.994386960769106" lon="11.359319635275067"><ele>278.5</ele><time>2026-05-01T11:15:23.999Z</time></trkpt><trkpt lat="43.99434493652288" lon="11.359516222734193"><ele>277.0</ele><time>2026-05-01T11:15:24.999Z</time></trkpt><trkpt lat="43.994289086949045" lon="11.35972205844746"><ele>274.66666666666663</ele><time>2026-05-01T11:15:25.999Z</time></trkpt><trkpt lat="43.9942395357939" lon="11.359938919634239"><ele>272.3333333333333</ele><time>2026-05-01T11:15:26.999Z</time></trkpt><trkpt lat="43.994195676519276" lon="11.360163918147084"><ele>270.0</ele><time>2026-05-01T11:15:27.999Z</time></trkpt><trkpt lat="43.99416747391629" lon="11.360396468433954"><ele>269.6666666666667</ele><time>2026-05-01T11:15:28.999Z</time></trkpt><trkpt lat="43.994157242383984" lon="11.360626971439457"><ele>269.33333333333337</ele><time>2026-05-01T11:15:29.999Z</time></trkpt><trkpt lat="43.994161893505705" lon="11.360847607959446"><ele>269.0</ele><time>2026-05-01T11:15:30.999Z</time></trkpt><trkpt lat="43.994162599797185" lon="11.361053744099772"><ele>269.0</ele><time>2026-05-01T11:15:31.999Z</time></trkpt><trkpt lat="43.994126605265095" lon="11.36123554102"><ele>269.0</ele><time>2026-05-01T11:15:32.999Z</time></trkpt><trkpt lat="43.9940557472141" lon="11.36139869235241"><ele>269.0</ele><time>2026-05-01T11:15:33.999Z</time></trkpt><trkpt lat="43.993954693148794" lon="11.36153706269054"><ele>269.0</ele><time>2026-05-01T11:15:34.999Z</time></trkpt><trkpt lat="43.99383470976518" lon="11.361650950089569"><ele>270.5</ele><time>2026-05-01T11:15:35.999Z</time></trkpt><trkpt lat="43.99370038758119" lon="11.361716102581099"><ele>272.0</ele><time>2026-05-01T11:15:36.999Z</time></trkpt><trkpt lat="43.99355463561923" lon="11.361693438377934"><ele>273.5</ele><time>2026-05-01T11:15:37.999Z</time></trkpt><trkpt lat="43.99341364279098" lon="11.361700314381558"><ele>275.0</ele><time>2026-05-01T11:15:38.999Z</time></trkpt><trkpt lat="43.993291509957956" lon="11.361714510611872"><ele>276.0</ele><time>2026-05-01T11:15:39.999Z</time></trkpt><trkpt lat="43.99318689554647" lon="11.361778135242666"><ele>277.0</ele><time>2026-05-01T11:15:40.999Z</time></trkpt><trkpt lat="43.9930954319922" lon="11.361890924552046"><ele>278.0</ele><time>2026-05-01T11:15:41.999Z</time></trkpt><trkpt lat="43.993024076710974" lon="11.362053883092056"><ele>279.0</ele><time>2026-05-01T11:15:42.999Z</time></trkpt><trkpt lat="43.99297092798716" lon="11.362227029149432"><ele>280.75</ele><time>2026-05-01T11:15:43.999Z</time></trkpt><trkpt lat="43.99292186081012" lon="11.362387764894239"><ele>282.5</ele><time>2026-05-01T11:15:44.999Z</time></trkpt><trkpt lat="43.99288312475832" lon="11.362549092537746"><ele>284.25</ele><time>2026-05-01T11:15:46Z</time></trkpt><trkpt lat="43.99285261431853" lon="11.362698755071012"><ele>286.0</ele><time>2026-05-01T11:15:47Z</time></trkpt><trkpt lat="43.99283336537156" lon="11.362835096090016"><ele>286.0</ele><time>2026-05-01T11:15:48Z</time></trkpt><trkpt lat="43.9928049589969" lon="11.362942670298137"><ele>286.0</ele><time>2026-05-01T11:15:49Z</time></trkpt><trkpt lat="43.992793449724715" lon="11.363047492844522"><ele>286.0</ele><time>2026-05-01T11:15:50Z</time></trkpt><trkpt lat="43.99270884077567" lon="11.363152394909832"><ele>286.0</ele><time>2026-05-01T11:15:51Z</time></trkpt><trkpt lat="43.99266365878794" lon="11.363285819723584"><ele>286.0</ele><time>2026-05-01T11:15:52Z</time></trkpt><trkpt lat="43.992644456093004" lon="11.363438767025212"><ele>285.75</ele><time>2026-05-01T11:15:53Z</time></trkpt><trkpt lat="43.99255894174903" lon="11.363577684367367"><ele>285.5</ele><time>2026-05-01T11:15:54Z</time></trkpt><trkpt lat="43.99247828556469" lon="11.363709495838664"><ele>285.25</ele><time>2026-05-01T11:15:55Z</time></trkpt><trkpt lat="43.99239039329094" lon="11.363844909289053"><ele>285.0</ele><time>2026-05-01T11:15:56Z</time></trkpt><trkpt lat="43.99230221541203" lon="11.36399570508844"><ele>283.0</ele><time>2026-05-01T11:15:57Z</time></trkpt><trkpt lat="43.99221549287772" lon="11.364163227848064"><ele>281.0</ele><time>2026-05-01T11:15:58Z</time></trkpt><trkpt lat="43.99213579713548" lon="11.364352210405444"><ele>279.0</ele><time>2026-05-01T11:15:59Z</time></trkpt><trkpt lat="43.99205888968482" lon="11.364555201980883"><ele>275.6666666666667</ele><time>2026-05-01T11:16:00Z</time></trkpt><trkpt lat="43.99197817546317" lon="11.364769318213872"><ele>272.33333333333337</ele><time>2026-05-01T11:16:01Z</time></trkpt><trkpt lat="43.99189581074842" lon="11.364988644835137"><ele>269.0</ele><time>2026-05-01T11:16:02Z</time></trkpt><trkpt lat="43.99181183383253" lon="11.365214271637736"><ele>269.0</ele><time>2026-05-01T11:16:03Z</time></trkpt><trkpt lat="43.99172787718834" lon="11.365446010977799"><ele>269.0</ele><time>2026-05-01T11:16:04Z</time></trkpt><trkpt lat="43.9916418147508" lon="11.365685319213247"><ele>269.0</ele><time>2026-05-01T11:16:05Z</time></trkpt><trkpt lat="43.99155331737084" lon="11.365930470668294"><ele>266.0</ele><time>2026-05-01T11:16:06Z</time></trkpt><trkpt lat="43.991461766855124" lon="11.366178823018894"><ele>263.0</ele><time>2026-05-01T11:16:07Z</time></trkpt><trkpt lat="43.991369201329064" lon="11.366429871918205"><ele>260.0</ele><time>2026-05-01T11:16:08Z</time></trkpt><trkpt lat="43.99127625427846" lon="11.366683927643775"><ele>257.6666666666667</ele><time>2026-05-01T11:16:09Z</time></trkpt><trkpt lat="43.99118547678121" lon="11.366940198563537"><ele>255.33333333333331</ele><time>2026-05-01T11:16:10Z</time></trkpt><trkpt lat="43.99109788623739" lon="11.367198751177504"><ele>253.0</ele><time>2026-05-01T11:16:11Z</time></trkpt><trkpt lat="43.99101496340164" lon="11.367460205156773"><ele>251.33333333333331</ele><time>2026-05-01T11:16:12Z</time></trkpt><trkpt lat="43.99093761552569" lon="11.367719961373744"><ele>249.66666666666669</ele><time>2026-05-01T11:16:13Z</time></trkpt><trkpt lat="43.99086207341484" lon="11.367976437923051"><ele>248.0</ele><time>2026-05-01T11:16:14Z</time></trkpt><trkpt lat="43.990787231108506" lon="11.368228795733437"><ele>246.33333333333334</ele><time>2026-05-01T11:16:15Z</time></trkpt><trkpt lat="43.990716142389005" lon="11.36847615523253"><ele>244.66666666666669</ele><time>2026-05-01T11:16:16Z</time></trkpt><trkpt lat="43.99064834084922" lon="11.368714120997014"><ele>243.0</ele><time>2026-05-01T11:16:17Z</time></trkpt><trkpt lat="43.9905861150008" lon="11.368935769312978"><ele>243.0</ele><time>2026-05-01T11:16:18Z</time></trkpt><trkpt lat="43.990531357906455" lon="11.369137590902028"><ele>243.0</ele><time>2026-05-01T11:16:19Z</time></trkpt><trkpt lat="43.990485858554415" lon="11.369315900807523"><ele>243.0</ele><time>2026-05-01T11:16:20Z</time></trkpt><trkpt lat="43.9904464805098" lon="11.369472905713739"><ele>243.0</ele><time>2026-05-01T11:16:21Z</time></trkpt><trkpt lat="43.9904130895204" lon="11.369603817519263"><ele>243.66666666666666</ele><time>2026-05-01T11:16:22Z</time></trkpt><trkpt lat="43.99038124323384" lon="11.36971375050093"><ele>244.33333333333331</ele><time>2026-05-01T11:16:23Z</time></trkpt><trkpt lat="43.99035212399231" lon="11.369812442161022"><ele>245.0</ele><time>2026-05-01T11:16:24Z</time></trkpt><trkpt lat="43.99033080176004" lon="11.369907262434904"><ele>245.66666666666666</ele><time>2026-05-01T11:16:25Z</time></trkpt><trkpt lat="43.99030062032708" lon="11.370002146563975"><ele>246.33333333333331</ele><time>2026-05-01T11:16:27Z</time></trkpt><trkpt lat="43.99026317299397" lon="11.370121285053843"><ele>247.0</ele><time>2026-05-01T11:16:31Z</time></trkpt><trkpt lat="43.99041636490259" lon="11.370185136270822"><ele>246.99999999999997</ele><time>2026-05-01T11:16:33.999Z</time></trkpt><trkpt lat="43.990524206961005" lon="11.370212906850028"><ele>247.0</ele><time>2026-05-01T11:16:35.999Z</time></trkpt><trkpt lat="43.990595261158525" lon="11.370233199627885"><ele>247.0</ele><time>2026-05-01T11:16:37.999Z</time></trkpt><trkpt lat="43.99067193758175" lon="11.37024527126027"><ele>247.0</ele><time>2026-05-01T11:16:41.999Z</time></trkpt><trkpt lat="43.99073641053943" lon="11.370269805627341"><ele>246.99999999999997</ele><time>2026-05-01T11:16:46.999Z</time></trkpt><trkpt lat="43.990656940339804" lon="11.370232127337054"><ele>247.0</ele><time>2026-05-01T11:17:43.999Z</time></trkpt><trkpt lat="43.99071881684913" lon="11.370285115091477"><ele>247.0</ele><time>2026-05-01T11:19:12.999Z</time></trkpt><trkpt lat="43.990658217795854" lon="11.370232632360405"><ele>247.0</ele><time>2026-05-01T11:20:11.998Z</time></trkpt></trkseg><trkseg><trkpt lat="43.99223572593418" lon="11.353956279802103"><ele>283.0</ele><time>2026-05-01T11:45:51.999Z</time></trkpt><trkpt lat="43.99226824022045" lon="11.354095005529354"><ele>283.0</ele><time>2026-05-01T11:47:22Z</time></trkpt><trkpt lat="43.992199181769834" lon="11.354099249631084"><ele>283.0</ele><time>2026-05-01T11:58:06Z</time></trkpt><trkpt lat="43.99212957647989" lon="11.354058536160393"><ele>283.0</ele><time>2026-05-01T11:58:15.999Z</time></trkpt><trkpt lat="43.99216281164918" lon="11.354235002701772"><ele>283.0</ele><time>2026-05-01T12:00:54Z</time></trkpt><trkpt lat="43.99211984461487" lon="11.353073305084802"><ele>283.0</ele><time>2026-05-01T12:01:18.074Z</time></trkpt><trkpt lat="43.99212032105167" lon="11.354187524611476"><ele>283.0</ele><time>2026-05-01T12:01:28.073Z</time></trkpt><trkpt lat="43.99220912878064" lon="11.354257022583043"><ele>283.0</ele><time>2026-05-01T12:05:35Z</time></trkpt><trkpt lat="43.99214796213892" lon="11.354279564332256"><ele>283.0</ele><time>2026-05-01T12:05:44Z</time></trkpt><trkpt lat="43.99210473037591" lon="11.354204113841337"><ele>283.0</ele><time>2026-05-01T12:05:48Z</time></trkpt><trkpt lat="43.99204737079006" lon="11.354148358831335"><ele>283.0</ele><time>2026-05-01T12:05:52Z</time></trkpt><trkpt lat="43.992008791029384" lon="11.354066017720642"><ele>283.0</ele><time>2026-05-01T12:06:10Z</time></trkpt><trkpt lat="43.991925650703806" lon="11.354028850075709"><ele>283.0</ele><time>2026-05-01T12:14:31Z</time></trkpt><trkpt lat="43.99184805754432" lon="11.353967452327304"><ele>283.0</ele><time>2026-05-01T12:14:34Z</time></trkpt><trkpt lat="43.99179024085958" lon="11.353919826610632"><ele>283.0</ele><time>2026-05-01T12:14:36Z</time></trkpt><trkpt lat="43.991720645643255" lon="11.353861757639102"><ele>283.0</ele><time>2026-05-01T12:14:39Z</time></trkpt><trkpt lat="43.99164770905539" lon="11.35381342563122"><ele>283.0</ele><time>2026-05-01T12:14:42Z</time></trkpt><trkpt lat="43.991584464318116" lon="11.35377753439454"><ele>283.0</ele><time>2026-05-01T12:14:44Z</time></trkpt><trkpt lat="43.99150461232856" lon="11.353716611775134"><ele>282.4</ele><time>2026-05-01T12:14:46Z</time></trkpt><trkpt lat="43.9913959707791" lon="11.353639970502073"><ele>281.8</ele><time>2026-05-01T12:14:48Z</time></trkpt><trkpt lat="43.99133871430322" lon="11.353601731826343"><ele>281.2</ele><time>2026-05-01T12:14:49Z</time></trkpt><trkpt lat="43.99124591984168" lon="11.353540468826383"><ele>280.6</ele><time>2026-05-01T12:14:51Z</time></trkpt><trkpt lat="43.991183463103965" lon="11.353497812934762"><ele>280.0</ele><time>2026-05-01T12:14:53Z</time></trkpt><trkpt lat="43.99110057378999" lon="11.353435934562924"><ele>280.0</ele><time>2026-05-01T12:14:56Z</time></trkpt><trkpt lat="43.99102460247223" lon="11.353385412258946"><ele>280.0</ele><time>2026-05-01T12:14:58Z</time></trkpt><trkpt lat="43.99094764073647" lon="11.353377562580782"><ele>280.0</ele><time>2026-05-01T12:15:00Z</time></trkpt><trkpt lat="43.99088402269424" lon="11.353415534777934"><ele>280.0</ele><time>2026-05-01T12:15:03Z</time></trkpt><trkpt lat="43.99079172224547" lon="11.35339743875525"><ele>280.0</ele><time>2026-05-01T12:15:09Z</time></trkpt><trkpt lat="43.990722456157954" lon="11.35334115136517"><ele>280.0</ele><time>2026-05-01T12:15:11Z</time></trkpt><trkpt lat="43.99062263212011" lon="11.353259162303248"><ele>279.66666666666663</ele><time>2026-05-01T12:15:13Z</time></trkpt><trkpt lat="43.990560606186165" lon="11.353215111862706"><ele>279.3333333333333</ele><time>2026-05-01T12:15:14Z</time></trkpt><trkpt lat="43.99045749917586" lon="11.353145301058563"><ele>279.0</ele><time>2026-05-01T12:15:15.999Z</time></trkpt><trkpt lat="43.990368773990596" lon="11.353082671885687"><ele>278.6666666666667</ele><time>2026-05-01T12:15:17.999Z</time></trkpt><trkpt lat="43.99030434717977" lon="11.353042816803326"><ele>278.33333333333337</ele><time>2026-05-01T12:15:18.999Z</time></trkpt><trkpt lat="43.99022812843098" lon="11.35298515790339"><ele>278.0</ele><time>2026-05-01T12:15:19.999Z</time></trkpt><trkpt lat="43.99015036366484" lon="11.3529108517173"><ele>277.8</ele><time>2026-05-01T12:15:20.999Z</time></trkpt><trkpt lat="43.99007751677988" lon="11.352832498164306"><ele>277.6</ele><time>2026-05-01T12:15:21.999Z</time></trkpt><trkpt lat="43.99000465421728" lon="11.352742942472991"><ele>277.4</ele><time>2026-05-01T12:15:22.999Z</time></trkpt><trkpt lat="43.98993815308539" lon="11.352636696623055"><ele>277.2</ele><time>2026-05-01T12:15:23.999Z</time></trkpt><trkpt lat="43.989883563996074" lon="11.352509850875867"><ele>277.0</ele><time>2026-05-01T12:15:24.999Z</time></trkpt><trkpt lat="43.98983851989087" lon="11.352370045700761"><ele>276.25</ele><time>2026-05-01T12:15:25.999Z</time></trkpt><trkpt lat="43.98980238193716" lon="11.352218765978224"><ele>275.5</ele><time>2026-05-01T12:15:26.999Z</time></trkpt><trkpt lat="43.989778255905726" lon="11.352062270850723"><ele>274.75</ele><time>2026-05-01T12:15:27.999Z</time></trkpt><trkpt lat="43.9897680739969" lon="11.351905340389118"><ele>274.0</ele><time>2026-05-01T12:15:28.999Z</time></trkpt><trkpt lat="43.989765354798294" lon="11.351755885053873"><ele>274.0</ele><time>2026-05-01T12:15:29.999Z</time></trkpt><trkpt lat="43.989767093072416" lon="11.351615612540288"><ele>274.0</ele><time>2026-05-01T12:15:30.999Z</time></trkpt><trkpt lat="43.989768854376116" lon="11.351484372377932"><ele>274.0</ele><time>2026-05-01T12:15:31.999Z</time></trkpt><trkpt lat="43.989770228275425" lon="11.351364042026487"><ele>274.0</ele><time>2026-05-01T12:15:32.999Z</time></trkpt><trkpt lat="43.989775203919976" lon="11.351251443006513"><ele>274.0</ele><time>2026-05-01T12:15:33.999Z</time></trkpt><trkpt lat="43.98978913964895" lon="11.35115438920195"><ele>274.0</ele><time>2026-05-01T12:15:34.999Z</time></trkpt><trkpt lat="43.9898137343733" lon="11.351069268563784"><ele>274.0</ele><time>2026-05-01T12:15:35.999Z</time></trkpt><trkpt lat="43.9898494134846" lon="11.350991905065044"><ele>274.0</ele><time>2026-05-01T12:15:36.999Z</time></trkpt><trkpt lat="43.989874318167665" lon="11.350832172928127"><ele>274.0</ele><time>2026-05-01T12:15:38.999Z</time></trkpt><trkpt lat="43.98978615734376" lon="11.350709402945686"><ele>274.0</ele><time>2026-05-01T12:15:40.999Z</time></trkpt><trkpt lat="43.989709625991765" lon="11.350713474176882"><ele>274.0</ele><time>2026-05-01T12:15:41.999Z</time></trkpt><trkpt lat="43.98963820462543" lon="11.350585063824827"><ele>273.8</ele><time>2026-05-01T12:15:42.999Z</time></trkpt><trkpt lat="43.98955508509102" lon="11.350507676235596"><ele>273.59999999999997</ele><time>2026-05-01T12:15:43.999Z</time></trkpt><trkpt lat="43.9894652790863" lon="11.350425877846963"><ele>273.4</ele><time>2026-05-01T12:15:44.999Z</time></trkpt><trkpt lat="43.989370044588696" lon="11.350346374934192"><ele>273.2</ele><time>2026-05-01T12:15:45.999Z</time></trkpt><trkpt lat="43.98927584521167" lon="11.350267912458639"><ele>273.0</ele><time>2026-05-01T12:15:46.999Z</time></trkpt><trkpt lat="43.989177046911244" lon="11.35018111587789"><ele>273.0</ele><time>2026-05-01T12:15:47.999Z</time></trkpt><trkpt lat="43.989073154611134" lon="11.350089917487779"><ele>273.0</ele><time>2026-05-01T12:15:48.999Z</time></trkpt><trkpt lat="43.98896529686082" lon="11.349994414032052"><ele>273.0</ele><time>2026-05-01T12:15:49.999Z</time></trkpt><trkpt lat="43.98885328313037" lon="11.349887554502429"><ele>273.0</ele><time>2026-05-01T12:15:50.999Z</time></trkpt><trkpt lat="43.98873837024673" lon="11.349778347758116"><ele>272.0</ele><time>2026-05-01T12:15:51.999Z</time></trkpt><trkpt lat="43.98861694547346" lon="11.349667988455105"><ele>271.0</ele><time>2026-05-01T12:15:52.999Z</time></trkpt><trkpt lat="43.98849219094698" lon="11.34955966941788"><ele>270.0</ele><time>2026-05-01T12:15:53.999Z</time></trkpt><trkpt lat="43.98836748802804" lon="11.349448483248148"><ele>269.0</ele><time>2026-05-01T12:15:54.999Z</time></trkpt><trkpt lat="43.9882443130844" lon="11.349340882261288"><ele>268.75</ele><time>2026-05-01T12:15:55.999Z</time></trkpt><trkpt lat="43.988124243800456" lon="11.34923289432443"><ele>268.5</ele><time>2026-05-01T12:15:56.999Z</time></trkpt><trkpt lat="43.988005818074626" lon="11.349125674491834"><ele>268.25</ele><time>2026-05-01T12:15:58Z</time></trkpt><trkpt lat="43.98788846969879" lon="11.34901897748971"><ele>268.0</ele><time>2026-05-01T12:15:59Z</time></trkpt><trkpt lat="43.98777058587103" lon="11.348908618865938"><ele>265.66666666666663</ele><time>2026-05-01T12:16:00Z</time></trkpt><trkpt lat="43.987647528166654" lon="11.348796052997534"><ele>263.3333333333333</ele><time>2026-05-01T12:16:01Z</time></trkpt><trkpt lat="43.98751991199354" lon="11.348683466635027"><ele>261.0</ele><time>2026-05-01T12:16:02Z</time></trkpt><trkpt lat="43.987393052057335" lon="11.348563907159791"><ele>261.0</ele><time>2026-05-01T12:16:03Z</time></trkpt><trkpt lat="43.98726894530914" lon="11.348442735525866"><ele>261.0</ele><time>2026-05-01T12:16:04Z</time></trkpt><trkpt lat="43.987153092370285" lon="11.348323070441436"><ele>261.0</ele><time>2026-05-01T12:16:05Z</time></trkpt><trkpt lat="43.98704260912051" lon="11.348207131700672"><ele>261.0</ele><time>2026-05-01T12:16:06Z</time></trkpt><trkpt lat="43.98694346314364" lon="11.348097412986"><ele>260.40000000000003</ele><time>2026-05-01T12:16:07Z</time></trkpt><trkpt lat="43.98686132671494" lon="11.347990601602444"><ele>259.8</ele><time>2026-05-01T12:16:08Z</time></trkpt><trkpt lat="43.98679736987365" lon="11.347890706054795"><ele>259.20000000000005</ele><time>2026-05-01T12:16:09Z</time></trkpt><trkpt lat="43.98674163174382" lon="11.347785357755019"><ele>258.6</ele><time>2026-05-01T12:16:10Z</time></trkpt><trkpt lat="43.986690744550316" lon="11.347667097918317"><ele>258.0</ele><time>2026-05-01T12:16:11Z</time></trkpt><trkpt lat="43.986644585361056" lon="11.347543871610418"><ele>258.0</ele><time>2026-05-01T12:16:12Z</time></trkpt><trkpt lat="43.9865942923329" lon="11.347414102826766"><ele>258.0</ele><time>2026-05-01T12:16:13Z</time></trkpt><trkpt lat="43.98654507366156" lon="11.347286067496483"><ele>258.0</ele><time>2026-05-01T12:16:14Z</time></trkpt><trkpt lat="43.98649728295633" lon="11.34715393808911"><ele>258.0</ele><time>2026-05-01T12:16:15Z</time></trkpt><trkpt lat="43.98644835494813" lon="11.347015343331957"><ele>258.0</ele><time>2026-05-01T12:16:16Z</time></trkpt><trkpt lat="43.98639968370285" lon="11.346879624680415"><ele>256.0</ele><time>2026-05-01T12:16:17Z</time></trkpt><trkpt lat="43.9863466857019" lon="11.346741871235345"><ele>254.0</ele><time>2026-05-01T12:16:18Z</time></trkpt><trkpt lat="43.9862928895952" lon="11.346602097460986"><ele>252.0</ele><time>2026-05-01T12:16:19Z</time></trkpt><trkpt lat="43.98623911897901" lon="11.346465148578334"><ele>250.0</ele><time>2026-05-01T12:16:20Z</time></trkpt><trkpt lat="43.98618272329707" lon="11.346318752235959"><ele>248.25</ele><time>2026-05-01T12:16:21Z</time></trkpt><trkpt lat="43.98612520243091" lon="11.34618039662762"><ele>246.5</ele><time>2026-05-01T12:16:22Z</time></trkpt><trkpt lat="43.98606940638187" lon="11.34603943062944"><ele>244.75</ele><time>2026-05-01T12:16:23Z</time></trkpt><trkpt lat="43.98601439967385" lon="11.345895257868378"><ele>243.0</ele><time>2026-05-01T12:16:24Z</time></trkpt><trkpt lat="43.98595868707264" lon="11.3457507141217"><ele>243.0</ele><time>2026-05-01T12:16:25Z</time></trkpt><trkpt lat="43.985903100150516" lon="11.345608569646446"><ele>243.0</ele><time>2026-05-01T12:16:26Z</time></trkpt><trkpt lat="43.985845774856166" lon="11.345465913674252"><ele>243.0</ele><time>2026-05-01T12:16:27Z</time></trkpt><trkpt lat="43.98578850080124" lon="11.345321480726128"><ele>243.0</ele><time>2026-05-01T12:16:28Z</time></trkpt><trkpt lat="43.985731626126615" lon="11.345178803635969"><ele>243.0</ele><time>2026-05-01T12:16:29Z</time></trkpt><trkpt lat="43.985674768355175" lon="11.34503650453814"><ele>243.0</ele><time>2026-05-01T12:16:30Z</time></trkpt><trkpt lat="43.985618517207854" lon="11.344892764034126"><ele>243.0</ele><time>2026-05-01T12:16:31Z</time></trkpt><trkpt lat="43.98556183565702" lon="11.344748319631751"><ele>243.0</ele><time>2026-05-01T12:16:32Z</time></trkpt><trkpt lat="43.98550310241304" lon="11.344601976548756"><ele>241.25</ele><time>2026-05-01T12:16:33Z</time></trkpt><trkpt lat="43.985438899890305" lon="11.344446063533654"><ele>239.5</ele><time>2026-05-01T12:16:34Z</time></trkpt><trkpt lat="43.985373873460816" lon="11.344284881362187"><ele>237.75</ele><time>2026-05-01T12:16:35Z</time></trkpt><trkpt lat="43.985308378672364" lon="11.344114833279901"><ele>236.0</ele><time>2026-05-01T12:16:36Z</time></trkpt><trkpt lat="43.98524028046622" lon="11.343944129544617"><ele>234.5</ele><time>2026-05-01T12:16:37Z</time></trkpt><trkpt lat="43.985170274622284" lon="11.343770988895487"><ele>233.0</ele><time>2026-05-01T12:16:38Z</time></trkpt><trkpt lat="43.985101340230436" lon="11.343604342970997"><ele>231.5</ele><time>2026-05-01T12:16:39Z</time></trkpt><trkpt lat="43.98503413392583" lon="11.343438559597011"><ele>230.0</ele><time>2026-05-01T12:16:40Z</time></trkpt><trkpt lat="43.98497136699745" lon="11.343270558865742"><ele>230.0</ele><time>2026-05-01T12:16:41Z</time></trkpt><trkpt lat="43.98492112851437" lon="11.343093931001025"><ele>230.0</ele><time>2026-05-01T12:16:42Z</time></trkpt><trkpt lat="43.98490530135681" lon="11.342897356109944"><ele>230.0</ele><time>2026-05-01T12:16:43Z</time></trkpt><trkpt lat="43.984917953541306" lon="11.342687884493277"><ele>230.0</ele><time>2026-05-01T12:16:44Z</time></trkpt><trkpt lat="43.984953820347116" lon="11.342468307873894"><ele>229.0</ele><time>2026-05-01T12:16:45Z</time></trkpt><trkpt lat="43.98499355201426" lon="11.342248776679268"><ele>228.0</ele><time>2026-05-01T12:16:46Z</time></trkpt><trkpt lat="43.98503335364844" lon="11.342023345066092"><ele>227.0</ele><time>2026-05-01T12:16:47Z</time></trkpt><trkpt lat="43.98507152716978" lon="11.341795238951853"><ele>226.66666666666669</ele><time>2026-05-01T12:16:48Z</time></trkpt><trkpt lat="43.985108327460814" lon="11.341568616905636"><ele>226.33333333333331</ele><time>2026-05-01T12:16:49Z</time></trkpt><trkpt lat="43.985146214751005" lon="11.341345146876389"><ele>226.0</ele><time>2026-05-01T12:16:50Z</time></trkpt><trkpt lat="43.985184444281074" lon="11.341123249316741"><ele>226.66666666666666</ele><time>2026-05-01T12:16:51Z</time></trkpt><trkpt lat="43.985223586900936" lon="11.340904955015985"><ele>227.33333333333331</ele><time>2026-05-01T12:16:52Z</time></trkpt><trkpt lat="43.985260308879475" lon="11.340692296541464"><ele>228.0</ele><time>2026-05-01T12:16:53Z</time></trkpt><trkpt lat="43.98528765895297" lon="11.340497780283807"><ele>228.8</ele><time>2026-05-01T12:16:54Z</time></trkpt><trkpt lat="43.985308406672615" lon="11.340328916214148"><ele>229.60000000000002</ele><time>2026-05-01T12:16:55Z</time></trkpt><trkpt lat="43.98533648282955" lon="11.340190794445178"><ele>230.39999999999998</ele><time>2026-05-01T12:16:56Z</time></trkpt><trkpt lat="43.985386591825026" lon="11.340086167948932"><ele>231.2</ele><time>2026-05-01T12:16:57Z</time></trkpt><trkpt lat="43.98544475862374" lon="11.34000312059521"><ele>232.0</ele><time>2026-05-01T12:16:58Z</time></trkpt><trkpt lat="43.98550045884426" lon="11.339924138206143"><ele>231.99999999999997</ele><time>2026-05-01T12:16:59Z</time></trkpt><trkpt lat="43.9855261603239" lon="11.339823323801324"><ele>232.0</ele><time>2026-05-01T12:17:00Z</time></trkpt><trkpt lat="43.9855195703709" lon="11.339716007157687"><ele>232.0</ele><time>2026-05-01T12:17:01Z</time></trkpt><trkpt lat="43.98548381340513" lon="11.339620536697497"><ele>232.0</ele><time>2026-05-01T12:17:02Z</time></trkpt><trkpt lat="43.98540026035659" lon="11.33956204436725"><ele>231.99999999999997</ele><time>2026-05-01T12:17:03Z</time></trkpt><trkpt lat="43.98531402620425" lon="11.33952796531248"><ele>232.0</ele><time>2026-05-01T12:17:04Z</time></trkpt><trkpt lat="43.985208141729814" lon="11.33960041563009"><ele>233.0</ele><time>2026-05-01T12:17:05Z</time></trkpt><trkpt lat="43.98511016835342" lon="11.339593270857351"><ele>234.0</ele><time>2026-05-01T12:17:06Z</time></trkpt><trkpt lat="43.985005465238814" lon="11.33953880620925"><ele>235.0</ele><time>2026-05-01T12:17:07Z</time></trkpt><trkpt lat="43.98490517298734" lon="11.339443807296991"><ele>236.0</ele><time>2026-05-01T12:17:08Z</time></trkpt><trkpt lat="43.98479611512724" lon="11.339350839035871"><ele>237.0</ele><time>2026-05-01T12:17:09Z</time></trkpt><trkpt lat="43.98467288572054" lon="11.339280449338375"><ele>238.0</ele><time>2026-05-01T12:17:10Z</time></trkpt><trkpt lat="43.984540255338594" lon="11.339238888640965"><ele>239.0</ele><time>2026-05-01T12:17:11Z</time></trkpt><trkpt lat="43.98440145563806" lon="11.339214308346522"><ele>240.0</ele><time>2026-05-01T12:17:12Z</time></trkpt><trkpt lat="43.984251162036365" lon="11.339201094333022"><ele>239.66666666666669</ele><time>2026-05-01T12:17:13Z</time></trkpt><trkpt lat="43.98409811383801" lon="11.339183582485303"><ele>239.33333333333334</ele><time>2026-05-01T12:17:14Z</time></trkpt><trkpt lat="43.983945216104125" lon="11.339166101219046"><ele>239.0</ele><time>2026-05-01T12:17:15Z</time></trkpt><trkpt lat="43.983797612966015" lon="11.339152170239153"><ele>239.0</ele><time>2026-05-01T12:17:16Z</time></trkpt><trkpt lat="43.98365664085696" lon="11.339139809737858"><ele>239.0</ele><time>2026-05-01T12:17:17Z</time></trkpt><trkpt lat="43.98352138231291" lon="11.339130350391512"><ele>239.0</ele><time>2026-05-01T12:17:18Z</time></trkpt><trkpt lat="43.98338806546795" lon="11.339127908314458"><ele>239.0</ele><time>2026-05-01T12:17:19Z</time></trkpt><trkpt lat="43.98325627050069" lon="11.339146587312522"><ele>239.0</ele><time>2026-05-01T12:17:20Z</time></trkpt><trkpt lat="43.98312171208914" lon="11.339192528280652"><ele>239.0</ele><time>2026-05-01T12:17:21Z</time></trkpt><trkpt lat="43.98298386639219" lon="11.33925218717639"><ele>239.0</ele><time>2026-05-01T12:17:22Z</time></trkpt><trkpt lat="43.982844186963796" lon="11.339315345624128"><ele>239.0</ele><time>2026-05-01T12:17:23Z</time></trkpt><trkpt lat="43.982701767614195" lon="11.339377102216536"><ele>239.0</ele><time>2026-05-01T12:17:24Z</time></trkpt><trkpt lat="43.98256049865891" lon="11.339434576180516"><ele>239.0</ele><time>2026-05-01T12:17:25Z</time></trkpt><trkpt lat="43.982423038064155" lon="11.339484141976268"><ele>239.0</ele><time>2026-05-01T12:17:26Z</time></trkpt><trkpt lat="43.982286063013234" lon="11.339508348851467"><ele>239.0</ele><time>2026-05-01T12:17:27Z</time></trkpt><trkpt lat="43.98214624677856" lon="11.339501751015183"><ele>239.25</ele><time>2026-05-01T12:17:27.999Z</time></trkpt><trkpt lat="43.98200634686013" lon="11.339456476502837"><ele>239.5</ele><time>2026-05-01T12:17:28.999Z</time></trkpt><trkpt lat="43.98187019365117" lon="11.33937951268976"><ele>239.75</ele><time>2026-05-01T12:17:29.999Z</time></trkpt><trkpt lat="43.98174250514287" lon="11.339281991384214"><ele>240.0</ele><time>2026-05-01T12:17:30.999Z</time></trkpt><trkpt lat="43.981613977420885" lon="11.339176408182606"><ele>239.25</ele><time>2026-05-01T12:17:31.999Z</time></trkpt><trkpt lat="43.98148508102701" lon="11.339071288108796"><ele>238.5</ele><time>2026-05-01T12:17:32.999Z</time></trkpt><trkpt lat="43.98136324495233" lon="11.338966118170468"><ele>237.75</ele><time>2026-05-01T12:17:33.999Z</time></trkpt><trkpt lat="43.98124756231245" lon="11.338864519052125"><ele>237.0</ele><time>2026-05-01T12:17:34.999Z</time></trkpt><trkpt lat="43.981132057634134" lon="11.33875307603833"><ele>237.0</ele><time>2026-05-01T12:17:35.999Z</time></trkpt><trkpt lat="43.981012656971" lon="11.338637211903672"><ele>237.0</ele><time>2026-05-01T12:17:36.999Z</time></trkpt><trkpt lat="43.980892007515266" lon="11.338519362653644"><ele>237.0</ele><time>2026-05-01T12:17:37.999Z</time></trkpt><trkpt lat="43.980770739357105" lon="11.338402658164386"><ele>237.0</ele><time>2026-05-01T12:17:38.999Z</time></trkpt><trkpt lat="43.98065389566928" lon="11.338288835960876"><ele>236.75</ele><time>2026-05-01T12:17:39.999Z</time></trkpt><trkpt lat="43.980539203641044" lon="11.338178368073148"><ele>236.5</ele><time>2026-05-01T12:17:40.999Z</time></trkpt><trkpt lat="43.98042379628736" lon="11.33807293579639"><ele>236.25</ele><time>2026-05-01T12:17:41.999Z</time></trkpt><trkpt lat="43.98030779076826" lon="11.337973973065935"><ele>236.0</ele><time>2026-05-01T12:17:42.999Z</time></trkpt><trkpt lat="43.98018752832122" lon="11.337880548830752"><ele>236.0</ele><time>2026-05-01T12:17:43.999Z</time></trkpt><trkpt lat="43.98006099102196" lon="11.337795761759915"><ele>236.0</ele><time>2026-05-01T12:17:44.999Z</time></trkpt><trkpt lat="43.979928202202956" lon="11.337714072520548"><ele>236.0</ele><time>2026-05-01T12:17:45.999Z</time></trkpt><trkpt lat="43.979789722014424" lon="11.3376348489892"><ele>236.0</ele><time>2026-05-01T12:17:46.999Z</time></trkpt><trkpt lat="43.97964606969995" lon="11.337554489271316"><ele>235.0</ele><time>2026-05-01T12:17:47.999Z</time></trkpt><trkpt lat="43.97950154548193" lon="11.337473258643223"><ele>234.0</ele><time>2026-05-01T12:17:48.999Z</time></trkpt><trkpt lat="43.97935899383778" lon="11.337392921473645"><ele>233.0</ele><time>2026-05-01T12:17:49.999Z</time></trkpt><trkpt lat="43.979227781628246" lon="11.337319074846857"><ele>232.75</ele><time>2026-05-01T12:17:50.999Z</time></trkpt><trkpt lat="43.97910054819595" lon="11.337247184914132"><ele>232.5</ele><time>2026-05-01T12:17:51.999Z</time></trkpt><trkpt lat="43.97897499892393" lon="11.33717601156254"><ele>232.25</ele><time>2026-05-01T12:17:52.999Z</time></trkpt><trkpt lat="43.97886176024781" lon="11.337109890233029"><ele>232.0</ele><time>2026-05-01T12:17:53.999Z</time></trkpt><trkpt lat="43.978758529544415" lon="11.337052983485318"><ele>232.0</ele><time>2026-05-01T12:17:54.999Z</time></trkpt><trkpt lat="43.9786594513752" lon="11.337000317705572"><ele>232.0</ele><time>2026-05-01T12:17:55.999Z</time></trkpt><trkpt lat="43.97855731973924" lon="11.336945629584001"><ele>232.0</ele><time>2026-05-01T12:17:56.999Z</time></trkpt><trkpt lat="43.97845651567809" lon="11.336888233376316"><ele>232.0</ele><time>2026-05-01T12:17:57.999Z</time></trkpt><trkpt lat="43.9783564776492" lon="11.336831576671875"><ele>232.0</ele><time>2026-05-01T12:17:58.999Z</time></trkpt><trkpt lat="43.978257210777144" lon="11.336777374446566"><ele>231.75</ele><time>2026-05-01T12:17:59.999Z</time></trkpt><trkpt lat="43.97815766334112" lon="11.33672086032111"><ele>231.5</ele><time>2026-05-01T12:18:00.999Z</time></trkpt><trkpt lat="43.97805693292827" lon="11.336663832271947"><ele>231.25</ele><time>2026-05-01T12:18:01.999Z</time></trkpt><trkpt lat="43.97795370960193" lon="11.336603555357083"><ele>231.0</ele><time>2026-05-01T12:18:02.999Z</time></trkpt><trkpt lat="43.977840394099466" lon="11.33653849039777"><ele>231.0</ele><time>2026-05-01T12:18:04Z</time></trkpt><trkpt lat="43.977718240787844" lon="11.336471118164932"><ele>231.0</ele><time>2026-05-01T12:18:05Z</time></trkpt><trkpt lat="43.977588809265704" lon="11.336398757546585"><ele>231.0</ele><time>2026-05-01T12:18:06Z</time></trkpt><trkpt lat="43.9774526439754" lon="11.3363183476912"><ele>231.0</ele><time>2026-05-01T12:18:07Z</time></trkpt><trkpt lat="43.97731236303729" lon="11.336233964538888"><ele>231.0</ele><time>2026-05-01T12:18:08Z</time></trkpt><trkpt lat="43.97716587756427" lon="11.336147481209492"><ele>231.0</ele><time>2026-05-01T12:18:09Z</time></trkpt><trkpt lat="43.97701348987729" lon="11.336056848582892"><ele>231.0</ele><time>2026-05-01T12:18:10Z</time></trkpt><trkpt lat="43.976861889203285" lon="11.33596308432384"><ele>231.0</ele><time>2026-05-01T12:18:11Z</time></trkpt><trkpt lat="43.97670761571384" lon="11.33586861432241"><ele>231.0</ele><time>2026-05-01T12:18:12Z</time></trkpt><trkpt lat="43.976547418239356" lon="11.335770323731191"><ele>231.0</ele><time>2026-05-01T12:18:13Z</time></trkpt><trkpt lat="43.9763822524569" lon="11.335670059651212"><ele>231.0</ele><time>2026-05-01T12:18:14Z</time></trkpt><trkpt lat="43.97621226455751" lon="11.335567223950546"><ele>231.0</ele><time>2026-05-01T12:18:15Z</time></trkpt><trkpt lat="43.976040439038535" lon="11.3354624374511"><ele>231.0</ele><time>2026-05-01T12:18:16Z</time></trkpt><trkpt lat="43.97586560167" lon="11.335357279837488"><ele>230.0</ele><time>2026-05-01T12:18:17Z</time></trkpt><trkpt lat="43.97569009055678" lon="11.335250165239469"><ele>229.0</ele><time>2026-05-01T12:18:18Z</time></trkpt><trkpt lat="43.97551259497465" lon="11.335136981141442"><ele>228.0</ele><time>2026-05-01T12:18:19Z</time></trkpt><trkpt lat="43.9753346676074" lon="11.335024363692376"><ele>228.0</ele><time>2026-05-01T12:18:20Z</time></trkpt><trkpt lat="43.975159882264414" lon="11.334916028535005"><ele>228.0</ele><time>2026-05-01T12:18:21Z</time></trkpt><trkpt lat="43.97498367943647" lon="11.33481020786966"><ele>228.0</ele><time>2026-05-01T12:18:22Z</time></trkpt><trkpt lat="43.97481020718875" lon="11.334707806986737"><ele>227.33333333333331</ele><time>2026-05-01T12:18:23Z</time></trkpt><trkpt lat="43.97463523708317" lon="11.334605112481958"><ele>226.66666666666666</ele><time>2026-05-01T12:18:24Z</time></trkpt><trkpt lat="43.97445525160145" lon="11.334500388185306"><ele>226.0</ele><time>2026-05-01T12:18:25Z</time></trkpt><trkpt lat="43.97427287169926" lon="11.334399850214602"><ele>225.66666666666666</ele><time>2026-05-01T12:18:26Z</time></trkpt><trkpt lat="43.97408480744597" lon="11.334305017555673"><ele>225.33333333333331</ele><time>2026-05-01T12:18:27Z</time></trkpt><trkpt lat="43.97389352272881" lon="11.334215942163164"><ele>225.0</ele><time>2026-05-01T12:18:28Z</time></trkpt><trkpt lat="43.97370421047503" lon="11.334127165071274"><ele>225.0</ele><time>2026-05-01T12:18:29Z</time></trkpt><trkpt lat="43.97351546778836" lon="11.33403604364717"><ele>225.0</ele><time>2026-05-01T12:18:30Z</time></trkpt><trkpt lat="43.9733252078414" lon="11.33394441747001"><ele>225.0</ele><time>2026-05-01T12:18:31Z</time></trkpt><trkpt lat="43.973134050680166" lon="11.333851811635451"><ele>224.66666666666669</ele><time>2026-05-01T12:18:32Z</time></trkpt><trkpt lat="43.97294584914566" lon="11.333760861019039"><ele>224.33333333333334</ele><time>2026-05-01T12:18:33Z</time></trkpt><trkpt lat="43.97275448343309" lon="11.333670288986216"><ele>224.0</ele><time>2026-05-01T12:18:34Z</time></trkpt><trkpt lat="43.97256674082882" lon="11.333576618633108"><ele>222.66666666666669</ele><time>2026-05-01T12:18:35Z</time></trkpt><trkpt lat="43.97237830782664" lon="11.333485728380387"><ele>221.33333333333331</ele><time>2026-05-01T12:18:36Z</time></trkpt><trkpt lat="43.97219029856744" lon="11.333394781891151"><ele>220.0</ele><time>2026-05-01T12:18:37Z</time></trkpt><trkpt lat="43.97200599814679" lon="11.333303853144406"><ele>220.0</ele><time>2026-05-01T12:18:38Z</time></trkpt><trkpt lat="43.97182305039924" lon="11.333210959213947"><ele>220.0</ele><time>2026-05-01T12:18:39Z</time></trkpt><trkpt lat="43.97164288382657" lon="11.3331173428953"><ele>220.0</ele><time>2026-05-01T12:18:40Z</time></trkpt><trkpt lat="43.97146755287827" lon="11.33302379787063"><ele>219.66666666666666</ele><time>2026-05-01T12:18:41Z</time></trkpt><trkpt lat="43.97129857190726" lon="11.332942390154372"><ele>219.33333333333331</ele><time>2026-05-01T12:18:42Z</time></trkpt><trkpt lat="43.9711368136459" lon="11.332867291033546"><ele>219.0</ele><time>2026-05-01T12:18:43Z</time></trkpt><trkpt lat="43.97098392955789" lon="11.33279460682059"><ele>218.75</ele><time>2026-05-01T12:18:44Z</time></trkpt><trkpt lat="43.97083865706492" lon="11.332722201184932"><ele>218.5</ele><time>2026-05-01T12:18:45Z</time></trkpt><trkpt lat="43.970698959926075" lon="11.332653387969101"><ele>218.25</ele><time>2026-05-01T12:18:46Z</time></trkpt><trkpt lat="43.97057053540525" lon="11.332590301272257"><ele>218.0</ele><time>2026-05-01T12:18:47Z</time></trkpt><trkpt lat="43.97045139096743" lon="11.332531922296363"><ele>218.0</ele><time>2026-05-01T12:18:48Z</time></trkpt><trkpt lat="43.970345340908125" lon="11.332474404160847"><ele>218.0</ele><time>2026-05-01T12:18:49Z</time></trkpt><trkpt lat="43.97024664027839" lon="11.332402888358073"><ele>218.0</ele><time>2026-05-01T12:18:50Z</time></trkpt><trkpt lat="43.970141600372095" lon="11.332274241858357"><ele>218.0</ele><time>2026-05-01T12:18:51Z</time></trkpt><trkpt lat="43.97004241357597" lon="11.332142807829142"><ele>217.8</ele><time>2026-05-01T12:18:53Z</time></trkpt><trkpt lat="43.96999183729134" lon="11.332051652030584"><ele>217.60000000000002</ele><time>2026-05-01T12:18:54Z</time></trkpt><trkpt lat="43.96995295817511" lon="11.331940642026748"><ele>217.39999999999998</ele><time>2026-05-01T12:18:55Z</time></trkpt><trkpt lat="43.96993272108912" lon="11.331808529318941"><ele>217.2</ele><time>2026-05-01T12:18:56Z</time></trkpt><trkpt lat="43.96993985378063" lon="11.331662109932823"><ele>217.0</ele><time>2026-05-01T12:18:57Z</time></trkpt><trkpt lat="43.96997316142657" lon="11.331509767870836"><ele>217.0</ele><time>2026-05-01T12:18:58Z</time></trkpt><trkpt lat="43.97001289307586" lon="11.331351081251793"><ele>217.0</ele><time>2026-05-01T12:18:59Z</time></trkpt><trkpt lat="43.97005594650543" lon="11.331186934629468"><ele>217.0</ele><time>2026-05-01T12:19:00Z</time></trkpt><trkpt lat="43.9701042437226" lon="11.331013853015957"><ele>217.0</ele><time>2026-05-01T12:19:01Z</time></trkpt><trkpt lat="43.97015375058779" lon="11.330827854319836"><ele>217.33333333333331</ele><time>2026-05-01T12:19:02Z</time></trkpt><trkpt lat="43.97020386975526" lon="11.330630975566907"><ele>217.66666666666669</ele><time>2026-05-01T12:19:03Z</time></trkpt><trkpt lat="43.970256325580586" lon="11.330426917757384"><ele>218.0</ele><time>2026-05-01T12:19:04Z</time></trkpt><trkpt lat="43.9703096569672" lon="11.33021744547688"><ele>217.0</ele><time>2026-05-01T12:19:05Z</time></trkpt><trkpt lat="43.97035615746687" lon="11.329997462453113"><ele>216.0</ele><time>2026-05-01T12:19:06Z</time></trkpt><trkpt lat="43.970392645274416" lon="11.329770779675004"><ele>215.0</ele><time>2026-05-01T12:19:07Z</time></trkpt><trkpt lat="43.97041550559499" lon="11.329536771413348"><ele>213.66666666666669</ele><time>2026-05-01T12:19:08Z</time></trkpt><trkpt lat="43.97043115162744" lon="11.329288170105409"><ele>212.33333333333331</ele><time>2026-05-01T12:19:09Z</time></trkpt><trkpt lat="43.9704386644935" lon="11.32902631643173"><ele>211.0</ele><time>2026-05-01T12:19:10Z</time></trkpt><trkpt lat="43.97044094725048" lon="11.328758586485469"><ele>209.66666666666666</ele><time>2026-05-01T12:19:11Z</time></trkpt><trkpt lat="43.97044153233333" lon="11.328487251103214"><ele>208.33333333333331</ele><time>2026-05-01T12:19:12Z</time></trkpt><trkpt lat="43.97044436483934" lon="11.328218681341154"><ele>207.0</ele><time>2026-05-01T12:19:13Z</time></trkpt><trkpt lat="43.97044817494137" lon="11.327951013845537"><ele>207.0</ele><time>2026-05-01T12:19:14Z</time></trkpt><trkpt lat="43.97045164405104" lon="11.32768576346302"><ele>207.0</ele><time>2026-05-01T12:19:15Z</time></trkpt><trkpt lat="43.97045562124998" lon="11.327428210552872"><ele>207.0</ele><time>2026-05-01T12:19:16Z</time></trkpt><trkpt lat="43.97046100310212" lon="11.327177843746306"><ele>207.0</ele><time>2026-05-01T12:19:17Z</time></trkpt><trkpt lat="43.970464465895546" lon="11.326921534066257"><ele>207.0</ele><time>2026-05-01T12:19:18Z</time></trkpt><trkpt lat="43.97046718806792" lon="11.326664763811912"><ele>207.0</ele><time>2026-05-01T12:19:19Z</time></trkpt><trkpt lat="43.9704692886361" lon="11.32641047556895"><ele>205.66666666666669</ele><time>2026-05-01T12:19:20Z</time></trkpt><trkpt lat="43.97046952557561" lon="11.326163767174025"><ele>204.33333333333334</ele><time>2026-05-01T12:19:21Z</time></trkpt><trkpt lat="43.970469694857705" lon="11.325921620306087"><ele>203.0</ele><time>2026-05-01T12:19:22Z</time></trkpt><trkpt lat="43.97047116491904" lon="11.32568297451945"><ele>202.66666666666669</ele><time>2026-05-01T12:19:23Z</time></trkpt><trkpt lat="43.97047272887872" lon="11.325450250667412"><ele>202.33333333333331</ele><time>2026-05-01T12:19:24Z</time></trkpt><trkpt lat="43.97047436790849" lon="11.325220833907455"><ele>202.0</ele><time>2026-05-01T12:19:25Z</time></trkpt><trkpt lat="43.97047828969447" lon="11.324991451078054"><ele>202.0</ele><time>2026-05-01T12:19:26Z</time></trkpt><trkpt lat="43.97048082929427" lon="11.324764875843083"><ele>202.0</ele><time>2026-05-01T12:19:27Z</time></trkpt><trkpt lat="43.97048348188104" lon="11.324543339267699"><ele>202.0</ele><time>2026-05-01T12:19:28Z</time></trkpt><trkpt lat="43.97048824132048" lon="11.32432472343182"><ele>202.33333333333331</ele><time>2026-05-01T12:19:29Z</time></trkpt><trkpt lat="43.970491686244195" lon="11.324111702984318"><ele>202.66666666666669</ele><time>2026-05-01T12:19:30Z</time></trkpt><trkpt lat="43.97049575744691" lon="11.323900681071455"><ele>203.0</ele><time>2026-05-01T12:19:31Z</time></trkpt><trkpt lat="43.97049706586755" lon="11.32368981826362"><ele>203.33333333333334</ele><time>2026-05-01T12:19:32Z</time></trkpt><trkpt lat="43.97049270096572" lon="11.32347857494058"><ele>203.66666666666669</ele><time>2026-05-01T12:19:33Z</time></trkpt><trkpt lat="43.97047928815927" lon="11.323264542634464"><ele>204.0</ele><time>2026-05-01T12:19:34Z</time></trkpt><trkpt lat="43.970468528016" lon="11.323045838736252"><ele>204.0</ele><time>2026-05-01T12:19:34.999Z</time></trkpt><trkpt lat="43.97045052559115" lon="11.322830226224278"><ele>204.0</ele><time>2026-05-01T12:19:35.999Z</time></trkpt><trkpt lat="43.970421693425834" lon="11.322614969231884"><ele>204.0</ele><time>2026-05-01T12:19:36.999Z</time></trkpt><trkpt lat="43.97038935323532" lon="11.322396353020336"><ele>204.0</ele><time>2026-05-01T12:19:37.999Z</time></trkpt><trkpt lat="43.97035168342078" lon="11.322183745556726"><ele>204.0</ele><time>2026-05-01T12:19:38.999Z</time></trkpt><trkpt lat="43.970301605879705" lon="11.32197678503845"><ele>204.0</ele><time>2026-05-01T12:19:39.999Z</time></trkpt><trkpt lat="43.97024566304178" lon="11.32176882550661"><ele>204.0</ele><time>2026-05-01T12:19:40.999Z</time></trkpt><trkpt lat="43.9701821262243" lon="11.321563957329523"><ele>204.0</ele><time>2026-05-01T12:19:41.999Z</time></trkpt><trkpt lat="43.97011486688753" lon="11.321363127238026"><ele>204.0</ele><time>2026-05-01T12:19:42.999Z</time></trkpt><trkpt lat="43.97004553922819" lon="11.32116609894796"><ele>203.66666666666669</ele><time>2026-05-01T12:19:43.999Z</time></trkpt><trkpt lat="43.9699739479864" lon="11.320970066196892"><ele>203.33333333333334</ele><time>2026-05-01T12:19:44.999Z</time></trkpt><trkpt lat="43.96990281794653" lon="11.320778133095896"><ele>203.0</ele><time>2026-05-01T12:19:45.999Z</time></trkpt><trkpt lat="43.96983263823849" lon="11.320590351360522"><ele>204.0</ele><time>2026-05-01T12:19:46.999Z</time></trkpt><trkpt lat="43.96976669870964" lon="11.32040268461399"><ele>205.0</ele><time>2026-05-01T12:19:47.999Z</time></trkpt><trkpt lat="43.96969783270477" lon="11.320211943691243"><ele>206.0</ele><time>2026-05-01T12:19:48.999Z</time></trkpt><trkpt lat="43.969628986377934" lon="11.320021728536895"><ele>206.0</ele><time>2026-05-01T12:19:49.999Z</time></trkpt><trkpt lat="43.969563152002486" lon="11.319835443510325"><ele>206.0</ele><time>2026-05-01T12:19:50.999Z</time></trkpt><trkpt lat="43.9694977240835" lon="11.319653443884379"><ele>206.0</ele><time>2026-05-01T12:19:51.999Z</time></trkpt><trkpt lat="43.9694316076145" lon="11.319477959097435"><ele>206.0</ele><time>2026-05-01T12:19:52.999Z</time></trkpt><trkpt lat="43.969364808239305" lon="11.319305200006815"><ele>206.0</ele><time>2026-05-01T12:19:53.999Z</time></trkpt><trkpt lat="43.969298767335594" lon="11.319132273715516"><ele>206.0</ele><time>2026-05-01T12:19:54.999Z</time></trkpt><trkpt lat="43.96922892146137" lon="11.318955622301283"><ele>206.0</ele><time>2026-05-01T12:19:55.999Z</time></trkpt><trkpt lat="43.969154056317535" lon="11.318767080724024"><ele>206.0</ele><time>2026-05-01T12:19:56.999Z</time></trkpt><trkpt lat="43.9690752347437" lon="11.318557589164449"><ele>206.33333333333334</ele><time>2026-05-01T12:19:57.999Z</time></trkpt><trkpt lat="43.9689933317274" lon="11.318336275335254"><ele>206.66666666666669</ele><time>2026-05-01T12:19:58.999Z</time></trkpt><trkpt lat="43.968910080100756" lon="11.31810436484497"><ele>207.0</ele><time>2026-05-01T12:19:59.999Z</time></trkpt><trkpt lat="43.9688279456383" lon="11.317867277128645"><ele>207.0</ele><time>2026-05-01T12:20:00.999Z</time></trkpt><trkpt lat="43.968741784448795" lon="11.317629962334875"><ele>207.0</ele><time>2026-05-01T12:20:01.999Z</time></trkpt><trkpt lat="43.96865292953877" lon="11.3173910425014"><ele>207.0</ele><time>2026-05-01T12:20:02.999Z</time></trkpt><trkpt lat="43.968563706801554" lon="11.317149569870155"><ele>207.0</ele><time>2026-05-01T12:20:03.999Z</time></trkpt><trkpt lat="43.96848350302127" lon="11.316925802335692"><ele>207.0</ele><time>2026-05-01T12:20:04.999Z</time></trkpt><trkpt lat="43.9684140460012" lon="11.316745855093997"><ele>207.0</ele><time>2026-05-01T12:20:05.999Z</time></trkpt><trkpt lat="43.96834530108903" lon="11.316561736637546"><ele>208.0</ele><time>2026-05-01T12:20:06.999Z</time></trkpt><trkpt lat="43.968274399698615" lon="11.316369612320829"><ele>209.0</ele><time>2026-05-01T12:20:07.999Z</time></trkpt><trkpt lat="43.968199486162725" lon="11.316171247887302"><ele>210.0</ele><time>2026-05-01T12:20:08.999Z</time></trkpt><trkpt lat="43.96812279763806" lon="11.315960598492264"><ele>210.0</ele><time>2026-05-01T12:20:10Z</time></trkpt><trkpt lat="43.96804039939004" lon="11.31573758477286"><ele>210.0</ele><time>2026-05-01T12:20:11Z</time></trkpt><trkpt lat="43.96795392565686" lon="11.315503366690573"><ele>210.0</ele><time>2026-05-01T12:20:12Z</time></trkpt><trkpt lat="43.96786477116177" lon="11.31526354382641"><ele>210.66666666666669</ele><time>2026-05-01T12:20:13Z</time></trkpt><trkpt lat="43.967775040589274" lon="11.31501963838285"><ele>211.33333333333334</ele><time>2026-05-01T12:20:14Z</time></trkpt><trkpt lat="43.96768308945605" lon="11.314775162364368"><ele>212.0</ele><time>2026-05-01T12:20:15Z</time></trkpt><trkpt lat="43.96759033800822" lon="11.31453004182534"><ele>212.0</ele><time>2026-05-01T12:20:16Z</time></trkpt><trkpt lat="43.96749847260713" lon="11.314286329842293"><ele>212.0</ele><time>2026-05-01T12:20:17Z</time></trkpt><trkpt lat="43.96740688536627" lon="11.314044155226647"><ele>212.0</ele><time>2026-05-01T12:20:18Z</time></trkpt><trkpt lat="43.967317993430804" lon="11.313803552108663"><ele>212.66666666666669</ele><time>2026-05-01T12:20:19Z</time></trkpt><trkpt lat="43.967232221428084" lon="11.31356711329933"><ele>213.33333333333331</ele><time>2026-05-01T12:20:20Z</time></trkpt><trkpt lat="43.967145966317034" lon="11.313338539961336"><ele>214.0</ele><time>2026-05-01T12:20:21Z</time></trkpt><trkpt lat="43.967063259482714" lon="11.313116233551517"><ele>213.33333333333331</ele><time>2026-05-01T12:20:22Z</time></trkpt><trkpt lat="43.966984125083194" lon="11.312897888240148"><ele>212.66666666666669</ele><time>2026-05-01T12:20:23Z</time></trkpt><trkpt lat="43.96690692239331" lon="11.312686408304085"><ele>212.0</ele><time>2026-05-01T12:20:24Z</time></trkpt><trkpt lat="43.966830213538636" lon="11.312482329973891"><ele>212.0</ele><time>2026-05-01T12:20:25Z</time></trkpt><trkpt lat="43.96674737949341" lon="11.312286374056944"><ele>212.0</ele><time>2026-05-01T12:20:26Z</time></trkpt><trkpt lat="43.966656831309976" lon="11.312099008370879"><ele>212.0</ele><time>2026-05-01T12:20:27Z</time></trkpt><trkpt lat="43.96655673122953" lon="11.311923177475306"><ele>212.0</ele><time>2026-05-01T12:20:28Z</time></trkpt><trkpt lat="43.966446660843424" lon="11.311762540892522"><ele>212.0</ele><time>2026-05-01T12:20:29Z</time></trkpt><trkpt lat="43.966326474652895" lon="11.311613486784905"><ele>212.0</ele><time>2026-05-01T12:20:30Z</time></trkpt><trkpt lat="43.966198678283625" lon="11.311470636155606"><ele>212.0</ele><time>2026-05-01T12:20:31Z</time></trkpt><trkpt lat="43.96606299320058" lon="11.311338917811767"><ele>212.0</ele><time>2026-05-01T12:20:32Z</time></trkpt><trkpt lat="43.965915020275176" lon="11.311223847588051"><ele>212.0</ele><time>2026-05-01T12:20:33Z</time></trkpt><trkpt lat="43.96575358760922" lon="11.311120096257847"><ele>212.0</ele><time>2026-05-01T12:20:34Z</time></trkpt><trkpt lat="43.96558497036189" lon="11.311034201192662"><ele>212.0</ele><time>2026-05-01T12:20:35Z</time></trkpt><trkpt lat="43.96541169379675" lon="11.310961941493561"><ele>212.0</ele><time>2026-05-01T12:20:36Z</time></trkpt><trkpt lat="43.965233307627166" lon="11.310895009277113"><ele>212.0</ele><time>2026-05-01T12:20:37Z</time></trkpt><trkpt lat="43.96505208820033" lon="11.31082618209614"><ele>212.0</ele><time>2026-05-01T12:20:38Z</time></trkpt><trkpt lat="43.96486927850272" lon="11.310762205135939"><ele>212.0</ele><time>2026-05-01T12:20:39Z</time></trkpt><trkpt lat="43.964686269258834" lon="11.310698086472573"><ele>212.0</ele><time>2026-05-01T12:20:40Z</time></trkpt><trkpt lat="43.964504155507434" lon="11.310632310320164"><ele>212.0</ele><time>2026-05-01T12:20:41Z</time></trkpt><trkpt lat="43.964328970578286" lon="11.310562059322685"><ele>212.0</ele><time>2026-05-01T12:20:42Z</time></trkpt><trkpt lat="43.96415902741901" lon="11.310479655464485"><ele>212.0</ele><time>2026-05-01T12:20:43Z</time></trkpt><trkpt lat="43.963991720485325" lon="11.31038026368184"><ele>212.0</ele><time>2026-05-01T12:20:44Z</time></trkpt><trkpt lat="43.96383176916706" lon="11.31025875690464"><ele>212.0</ele><time>2026-05-01T12:20:45Z</time></trkpt><trkpt lat="43.96367937857418" lon="11.310115804144667"><ele>212.0</ele><time>2026-05-01T12:20:46Z</time></trkpt><trkpt lat="43.96353910935057" lon="11.309960952221065"><ele>212.0</ele><time>2026-05-01T12:20:47Z</time></trkpt><trkpt lat="43.96341272276037" lon="11.309797117584779"><ele>212.0</ele><time>2026-05-01T12:20:48Z</time></trkpt><trkpt lat="43.96329678701669" lon="11.309624301277534"><ele>213.66666666666669</ele><time>2026-05-01T12:20:49Z</time></trkpt><trkpt lat="43.96318946496166" lon="11.309436953883806"><ele>215.33333333333331</ele><time>2026-05-01T12:20:50Z</time></trkpt><trkpt lat="43.96309228383429" lon="11.309238504926876"><ele>217.0</ele><time>2026-05-01T12:20:51Z</time></trkpt><trkpt lat="43.96300661261098" lon="11.309031472984461"><ele>215.0</ele><time>2026-05-01T12:20:52Z</time></trkpt><trkpt lat="43.9629321817746" lon="11.308817706386261"><ele>213.0</ele><time>2026-05-01T12:20:53Z</time></trkpt><trkpt lat="43.96286267691426" lon="11.308597308727379"><ele>211.0</ele><time>2026-05-01T12:20:54Z</time></trkpt><trkpt lat="43.96279104892798" lon="11.308373916373453"><ele>211.0</ele><time>2026-05-01T12:20:55Z</time></trkpt><trkpt lat="43.962708703523234" lon="11.308139858063688"><ele>211.0</ele><time>2026-05-01T12:20:56Z</time></trkpt><trkpt lat="43.962640481420365" lon="11.307880714374328"><ele>211.0</ele><time>2026-05-01T12:20:57Z</time></trkpt><trkpt lat="43.96255375548824" lon="11.307608825387758"><ele>211.0</ele><time>2026-05-01T12:20:58Z</time></trkpt><trkpt lat="43.96246263176671" lon="11.307324983889886"><ele>211.0</ele><time>2026-05-01T12:20:59Z</time></trkpt><trkpt lat="43.96236394493127" lon="11.307053733926287"><ele>211.0</ele><time>2026-05-01T12:21:00Z</time></trkpt><trkpt lat="43.96228049937217" lon="11.306773391759608"><ele>211.0</ele><time>2026-05-01T12:21:01Z</time></trkpt><trkpt lat="43.962195225764155" lon="11.306495944858165"><ele>211.0</ele><time>2026-05-01T12:21:02Z</time></trkpt><trkpt lat="43.96210948126144" lon="11.306222480644502"><ele>211.0</ele><time>2026-05-01T12:21:03Z</time></trkpt><trkpt lat="43.96202651598728" lon="11.305956167249155"><ele>211.0</ele><time>2026-05-01T12:21:04Z</time></trkpt><trkpt lat="43.96194576719023" lon="11.305699242242966"><ele>211.0</ele><time>2026-05-01T12:21:05Z</time></trkpt><trkpt lat="43.96186712138926" lon="11.305456056179139"><ele>211.0</ele><time>2026-05-01T12:21:06Z</time></trkpt><trkpt lat="43.96178996765974" lon="11.305221645305668"><ele>211.0</ele><time>2026-05-01T12:21:07Z</time></trkpt><trkpt lat="43.961715636383545" lon="11.30499279621355"><ele>211.0</ele><time>2026-05-01T12:21:08Z</time></trkpt><trkpt lat="43.96164336726912" lon="11.304771360574021"><ele>211.0</ele><time>2026-05-01T12:21:09Z</time></trkpt><trkpt lat="43.96157690232201" lon="11.3045623965512"><ele>211.25</ele><time>2026-05-01T12:21:10Z</time></trkpt><trkpt lat="43.961519820897095" lon="11.304367083873249"><ele>211.5</ele><time>2026-05-01T12:21:11Z</time></trkpt><trkpt lat="43.96147331010995" lon="11.304185856097975"><ele>211.75</ele><time>2026-05-01T12:21:12Z</time></trkpt><trkpt lat="43.96144335567677" lon="11.304015947733271"><ele>212.0</ele><time>2026-05-01T12:21:13Z</time></trkpt><trkpt lat="43.96139593436684" lon="11.30388850936001"><ele>212.25</ele><time>2026-05-01T12:21:14Z</time></trkpt><trkpt lat="43.961438289915485" lon="11.303711989753138"><ele>212.5</ele><time>2026-05-01T12:21:15Z</time></trkpt><trkpt lat="43.96145960427693" lon="11.303577360037021"><ele>212.75</ele><time>2026-05-01T12:21:16Z</time></trkpt><trkpt lat="43.96149531335099" lon="11.303432763283595"><ele>213.0</ele><time>2026-05-01T12:21:17Z</time></trkpt><trkpt lat="43.96154917479775" lon="11.303285332343064"><ele>213.0</ele><time>2026-05-01T12:21:18Z</time></trkpt><trkpt lat="43.96161974451509" lon="11.303136016760359"><ele>213.0</ele><time>2026-05-01T12:21:19Z</time></trkpt><trkpt lat="43.96168211966211" lon="11.302971119785413"><ele>213.0</ele><time>2026-05-01T12:21:20Z</time></trkpt><trkpt lat="43.96178078364328" lon="11.302814068093205"><ele>213.0</ele><time>2026-05-01T12:21:21Z</time></trkpt><trkpt lat="43.96186524283365" lon="11.302636000000224"><ele>212.5</ele><time>2026-05-01T12:21:22Z</time></trkpt><trkpt lat="43.96194065756024" lon="11.302456307707422"><ele>212.0</ele><time>2026-05-01T12:21:23Z</time></trkpt><trkpt lat="43.962021249948776" lon="11.30228515011726"><ele>211.5</ele><time>2026-05-01T12:21:24Z</time></trkpt><trkpt lat="43.96212219311211" lon="11.302134682343379"><ele>211.0</ele><time>2026-05-01T12:21:25Z</time></trkpt><trkpt lat="43.96224260367556" lon="11.302017130464778"><ele>212.33333333333331</ele><time>2026-05-01T12:21:26Z</time></trkpt><trkpt lat="43.962381239621905" lon="11.301938213014191"><ele>213.66666666666669</ele><time>2026-05-01T12:21:27Z</time></trkpt><trkpt lat="43.9625306571721" lon="11.30189643936303"><ele>215.0</ele><time>2026-05-01T12:21:28Z</time></trkpt><trkpt lat="43.962683488656744" lon="11.301880808320082"><ele>215.0</ele><time>2026-05-01T12:21:29Z</time></trkpt><trkpt lat="43.96283753971221" lon="11.301866728575238"><ele>215.0</ele><time>2026-05-01T12:21:30Z</time></trkpt><trkpt lat="43.96298561112994" lon="11.30182688542049"><ele>215.0</ele><time>2026-05-01T12:21:31Z</time></trkpt><trkpt lat="43.96312423161863" lon="11.301763722440047"><ele>215.0</ele><time>2026-05-01T12:21:32Z</time></trkpt><trkpt lat="43.963254502600556" lon="11.301663371571559"><ele>215.0</ele><time>2026-05-01T12:21:33Z</time></trkpt><trkpt lat="43.96337478564601" lon="11.301531871775161"><ele>215.0</ele><time>2026-05-01T12:21:33.999Z</time></trkpt><trkpt lat="43.963486263544546" lon="11.301384432850295"><ele>215.0</ele><time>2026-05-01T12:21:34.999Z</time></trkpt><trkpt lat="43.963596135612114" lon="11.301232239258104"><ele>215.0</ele><time>2026-05-01T12:21:35.999Z</time></trkpt><trkpt lat="43.96371215075734" lon="11.301083151225503"><ele>215.0</ele><time>2026-05-01T12:21:36.999Z</time></trkpt><trkpt lat="43.96382984495062" lon="11.300937291839512"><ele>215.0</ele><time>2026-05-01T12:21:37.999Z</time></trkpt><trkpt lat="43.96394942596634" lon="11.300791192683844"><ele>215.0</ele><time>2026-05-01T12:21:38.999Z</time></trkpt><trkpt lat="43.96407113281867" lon="11.300641895396517"><ele>215.0</ele><time>2026-05-01T12:21:39.999Z</time></trkpt><trkpt lat="43.96419513635293" lon="11.300490945816376"><ele>215.0</ele><time>2026-05-01T12:21:40.999Z</time></trkpt><trkpt lat="43.96431787689425" lon="11.300332231830089"><ele>215.0</ele><time>2026-05-01T12:21:41.999Z</time></trkpt><trkpt lat="43.96444116612331" lon="11.30017398306442"><ele>215.0</ele><time>2026-05-01T12:21:42.999Z</time></trkpt><trkpt lat="43.96456584285766" lon="11.30001525971871"><ele>215.0</ele><time>2026-05-01T12:21:43.999Z</time></trkpt><trkpt lat="43.96468716848044" lon="11.299852896628714"><ele>215.0</ele><time>2026-05-01T12:21:44.999Z</time></trkpt><trkpt lat="43.96480361220762" lon="11.299688437804047"><ele>215.0</ele><time>2026-05-01T12:21:45.999Z</time></trkpt><trkpt lat="43.964902695587654" lon="11.299511661167454"><ele>215.5</ele><time>2026-05-01T12:21:46.999Z</time></trkpt><trkpt lat="43.96496599221971" lon="11.299323759815056"><ele>216.0</ele><time>2026-05-01T12:21:47.999Z</time></trkpt><trkpt lat="43.96499337680013" lon="11.299126814464875"><ele>216.5</ele><time>2026-05-01T12:21:48.999Z</time></trkpt><trkpt lat="43.96498520478416" lon="11.298917819378769"><ele>217.0</ele><time>2026-05-01T12:21:49.999Z</time></trkpt><trkpt lat="43.96497087141865" lon="11.298703443434349"><ele>217.66666666666666</ele><time>2026-05-01T12:21:50.999Z</time></trkpt><trkpt lat="43.964957557017854" lon="11.298483413912265"><ele>218.33333333333331</ele><time>2026-05-01T12:21:51.999Z</time></trkpt><trkpt lat="43.96494444512575" lon="11.298264371628036"><ele>219.0</ele><time>2026-05-01T12:21:52.999Z</time></trkpt><trkpt lat="43.964929842070376" lon="11.298046985364428"><ele>220.0</ele><time>2026-05-01T12:21:53.999Z</time></trkpt><trkpt lat="43.96491778901885" lon="11.297834429694827"><ele>221.0</ele><time>2026-05-01T12:21:54.999Z</time></trkpt><trkpt lat="43.96490618788393" lon="11.297623608833382"><ele>222.0</ele><time>2026-05-01T12:21:55.999Z</time></trkpt><trkpt lat="43.96489391143451" lon="11.297416459518466"><ele>222.75</ele><time>2026-05-01T12:21:56.999Z</time></trkpt><trkpt lat="43.964881985431674" lon="11.297211401866576"><ele>223.5</ele><time>2026-05-01T12:21:57.999Z</time></trkpt><trkpt lat="43.96486971536689" lon="11.297014989751778"><ele>224.25</ele><time>2026-05-01T12:21:58.999Z</time></trkpt><trkpt lat="43.96485928437826" lon="11.296825467412383"><ele>225.0</ele><time>2026-05-01T12:21:59.999Z</time></trkpt><trkpt lat="43.96485174145775" lon="11.296647625412515"><ele>225.0</ele><time>2026-05-01T12:22:00.999Z</time></trkpt><trkpt lat="43.964846822949085" lon="11.296486022322465"><ele>225.0</ele><time>2026-05-01T12:22:01.999Z</time></trkpt><trkpt lat="43.96485569364397" lon="11.29633674522114"><ele>225.0</ele><time>2026-05-01T12:22:02.999Z</time></trkpt><trkpt lat="43.964898824196126" lon="11.296200018325287"><ele>225.0</ele><time>2026-05-01T12:22:03.999Z</time></trkpt><trkpt lat="43.96497332120771" lon="11.296079091855729"><ele>225.0</ele><time>2026-05-01T12:22:04.999Z</time></trkpt><trkpt lat="43.96506905713567" lon="11.295974437912731"><ele>225.25</ele><time>2026-05-01T12:22:05.999Z</time></trkpt><trkpt lat="43.96516925991133" lon="11.295872110316882"><ele>225.5</ele><time>2026-05-01T12:22:06.999Z</time></trkpt><trkpt lat="43.965271402515626" lon="11.295769895884021"><ele>225.75</ele><time>2026-05-01T12:22:07.999Z</time></trkpt><trkpt lat="43.96537141430417" lon="11.295664310035654"><ele>226.0</ele><time>2026-05-01T12:22:08.999Z</time></trkpt><trkpt lat="43.96547469009933" lon="11.295557759864291"><ele>226.25</ele><time>2026-05-01T12:22:09.999Z</time></trkpt><trkpt lat="43.96558465412161" lon="11.295446436915661"><ele>226.5</ele><time>2026-05-01T12:22:10.999Z</time></trkpt><trkpt lat="43.96569661351015" lon="11.29533278604461"><ele>226.75</ele><time>2026-05-01T12:22:11.999Z</time></trkpt><trkpt lat="43.9658148132001" lon="11.295225272895676"><ele>227.0</ele><time>2026-05-01T12:22:12.999Z</time></trkpt><trkpt lat="43.965936837663826" lon="11.295124268058132"><ele>227.0</ele><time>2026-05-01T12:22:13.999Z</time></trkpt><trkpt lat="43.96606016926131" lon="11.295020494195736"><ele>227.0</ele><time>2026-05-01T12:22:14.999Z</time></trkpt><trkpt lat="43.96618442426593" lon="11.29490962934484"><ele>227.0</ele><time>2026-05-01T12:22:16Z</time></trkpt><trkpt lat="43.966309480830056" lon="11.294799527351183"><ele>227.0</ele><time>2026-05-01T12:22:17Z</time></trkpt><trkpt lat="43.966435027019614" lon="11.294687068062814"><ele>227.0</ele><time>2026-05-01T12:22:18Z</time></trkpt><trkpt lat="43.96656228385371" lon="11.294572774550504"><ele>227.0</ele><time>2026-05-01T12:22:19Z</time></trkpt><trkpt lat="43.96668776588384" lon="11.294458365088069"><ele>227.0</ele><time>2026-05-01T12:22:20Z</time></trkpt><trkpt lat="43.96681231201744" lon="11.294351227450452"><ele>227.0</ele><time>2026-05-01T12:22:21Z</time></trkpt><trkpt lat="43.96693635520504" lon="11.294242822713915"><ele>226.75</ele><time>2026-05-01T12:22:22Z</time></trkpt><trkpt lat="43.967058467794025" lon="11.294135750009245"><ele>226.5</ele><time>2026-05-01T12:22:23Z</time></trkpt><trkpt lat="43.967179629587235" lon="11.294025923863602"><ele>226.25</ele><time>2026-05-01T12:22:24Z</time></trkpt><trkpt lat="43.9673010169462" lon="11.29391791873167"><ele>226.0</ele><time>2026-05-01T12:22:25Z</time></trkpt><trkpt lat="43.96742223854052" lon="11.29381219579779"><ele>225.75</ele><time>2026-05-01T12:22:26Z</time></trkpt><trkpt lat="43.96754146722537" lon="11.293705924106535"><ele>225.5</ele><time>2026-05-01T12:22:27Z</time></trkpt><trkpt lat="43.96766015040976" lon="11.293596461173507"><ele>225.25</ele><time>2026-05-01T12:22:28Z</time></trkpt><trkpt lat="43.96778142514174" lon="11.293486205833249"><ele>225.0</ele><time>2026-05-01T12:22:29Z</time></trkpt><trkpt lat="43.9679033611118" lon="11.293376799126973"><ele>225.0</ele><time>2026-05-01T12:22:30Z</time></trkpt><trkpt lat="43.96802398098374" lon="11.293269373601916"><ele>225.0</ele><time>2026-05-01T12:22:31Z</time></trkpt><trkpt lat="43.96814224472166" lon="11.293162949247881"><ele>225.0</ele><time>2026-05-01T12:22:32Z</time></trkpt><trkpt lat="43.96825957183676" lon="11.293062928242536"><ele>225.0</ele><time>2026-05-01T12:22:33Z</time></trkpt><trkpt lat="43.96837595309432" lon="11.292963106554735"><ele>224.75</ele><time>2026-05-01T12:22:34Z</time></trkpt><trkpt lat="43.96849111360969" lon="11.292858422680482"><ele>224.5</ele><time>2026-05-01T12:22:35Z</time></trkpt><trkpt lat="43.96860577719937" lon="11.292753972196326"><ele>224.25</ele><time>2026-05-01T12:22:36Z</time></trkpt><trkpt lat="43.968722883507894" lon="11.292651856167367"><ele>224.0</ele><time>2026-05-01T12:22:37Z</time></trkpt><trkpt lat="43.96884253089908" lon="11.292546837637238"><ele>224.0</ele><time>2026-05-01T12:22:38Z</time></trkpt><trkpt lat="43.968963869387636" lon="11.292442223614913"><ele>224.0</ele><time>2026-05-01T12:22:39Z</time></trkpt><trkpt lat="43.969088515140754" lon="11.292332763867135"><ele>224.0</ele><time>2026-05-01T12:22:40Z</time></trkpt><trkpt lat="43.96921617698895" lon="11.292215282633284"><ele>224.0</ele><time>2026-05-01T12:22:41Z</time></trkpt><trkpt lat="43.969341286203836" lon="11.29210061912859"><ele>224.0</ele><time>2026-05-01T12:22:42Z</time></trkpt><trkpt lat="43.969461862903" lon="11.291990407503897"><ele>224.0</ele><time>2026-05-01T12:22:43Z</time></trkpt><trkpt lat="43.96958067062058" lon="11.291885539979834"><ele>224.0</ele><time>2026-05-01T12:22:44Z</time></trkpt><trkpt lat="43.96969480492785" lon="11.291786016200902"><ele>224.0</ele><time>2026-05-01T12:22:45Z</time></trkpt><trkpt lat="43.96980514433692" lon="11.291687157300421"><ele>224.0</ele><time>2026-05-01T12:22:46Z</time></trkpt><trkpt lat="43.96991733059681" lon="11.291588035182658"><ele>224.0</ele><time>2026-05-01T12:22:47Z</time></trkpt><trkpt lat="43.97003206380548" lon="11.291483579592485"><ele>224.0</ele><time>2026-05-01T12:22:48Z</time></trkpt><trkpt lat="43.97014869719087" lon="11.291380529589462"><ele>224.0</ele><time>2026-05-01T12:22:49Z</time></trkpt><trkpt lat="43.97026595213132" lon="11.291271972659777"><ele>223.75</ele><time>2026-05-01T12:22:50Z</time></trkpt><trkpt lat="43.97039042666864" lon="11.291159977630189"><ele>223.5</ele><time>2026-05-01T12:22:51Z</time></trkpt><trkpt lat="43.97051625868562" lon="11.291049938098809"><ele>223.25</ele><time>2026-05-01T12:22:52Z</time></trkpt><trkpt lat="43.970642586050495" lon="11.290940684055851"><ele>223.0</ele><time>2026-05-01T12:22:53Z</time></trkpt><trkpt lat="43.970768820930374" lon="11.290830977795562"><ele>222.66666666666666</ele><time>2026-05-01T12:22:54Z</time></trkpt><trkpt lat="43.970894541538115" lon="11.290720258824576"><ele>222.33333333333331</ele><time>2026-05-01T12:22:55Z</time></trkpt><trkpt lat="43.97102083853536" lon="11.290608970647638"><ele>222.0</ele><time>2026-05-01T12:22:56Z</time></trkpt><trkpt lat="43.9711500728856" lon="11.29049640589342"><ele>222.0</ele><time>2026-05-01T12:22:57Z</time></trkpt><trkpt lat="43.9712769016715" lon="11.290383670754943"><ele>222.0</ele><time>2026-05-01T12:22:58Z</time></trkpt><trkpt lat="43.97140050105361" lon="11.29026996417358"><ele>222.0</ele><time>2026-05-01T12:22:59Z</time></trkpt><trkpt lat="43.971522673382786" lon="11.290155480627243"><ele>222.0</ele><time>2026-05-01T12:23:00Z</time></trkpt><trkpt lat="43.97164492968179" lon="11.290040809956656"><ele>222.0</ele><time>2026-05-01T12:23:01Z</time></trkpt><trkpt lat="43.97176784482629" lon="11.289931610955529"><ele>222.0</ele><time>2026-05-01T12:23:02Z</time></trkpt><trkpt lat="43.97188846738835" lon="11.289827778737282"><ele>222.0</ele><time>2026-05-01T12:23:03Z</time></trkpt><trkpt lat="43.97200620104307" lon="11.289725088163783"><ele>222.0</ele><time>2026-05-01T12:23:04Z</time></trkpt><trkpt lat="43.972121042789254" lon="11.289624506063934"><ele>222.0</ele><time>2026-05-01T12:23:05Z</time></trkpt><trkpt lat="43.972234183317504" lon="11.289526379841705"><ele>222.0</ele><time>2026-05-01T12:23:06Z</time></trkpt><trkpt lat="43.97234633111164" lon="11.289427401995292"><ele>222.0</ele><time>2026-05-01T12:23:07Z</time></trkpt><trkpt lat="43.972454038375226" lon="11.289333801209587"><ele>222.0</ele><time>2026-05-01T12:23:08Z</time></trkpt><trkpt lat="43.972556753431206" lon="11.289245839993313"><ele>222.0</ele><time>2026-05-01T12:23:09Z</time></trkpt><trkpt lat="43.97265347671795" lon="11.289167041308449"><ele>222.0</ele><time>2026-05-01T12:23:10Z</time></trkpt><trkpt lat="43.97274341361125" lon="11.2891171792423"><ele>222.0</ele><time>2026-05-01T12:23:11Z</time></trkpt><trkpt lat="43.97281676206211" lon="11.289098826994298"><ele>222.0</ele><time>2026-05-01T12:23:12Z</time></trkpt><trkpt lat="43.97288203493669" lon="11.289101789887976"><ele>222.0</ele><time>2026-05-01T12:23:13Z</time></trkpt><trkpt lat="43.9729482992128" lon="11.289124899634569"><ele>222.0</ele><time>2026-05-01T12:23:14Z</time></trkpt><trkpt lat="43.97301884113001" lon="11.28915787118461"><ele>222.0</ele><time>2026-05-01T12:23:15Z</time></trkpt><trkpt lat="43.97309581129841" lon="11.289188137158517"><ele>222.0</ele><time>2026-05-01T12:23:16Z</time></trkpt><trkpt lat="43.97317466082675" lon="11.289191622307131"><ele>222.0</ele><time>2026-05-01T12:23:17Z</time></trkpt><trkpt lat="43.97325263229793" lon="11.289164189340624"><ele>222.0</ele><time>2026-05-01T12:23:18Z</time></trkpt><trkpt lat="43.97333897169229" lon="11.289092167769617"><ele>222.0</ele><time>2026-05-01T12:23:19Z</time></trkpt><trkpt lat="43.97337747013714" lon="11.288993367226231"><ele>222.0</ele><time>2026-05-01T12:23:20Z</time></trkpt><trkpt lat="43.97342200699441" lon="11.288867617889917"><ele>222.0</ele><time>2026-05-01T12:23:21Z</time></trkpt><trkpt lat="43.973440964990786" lon="11.288725343233326"><ele>222.0</ele><time>2026-05-01T12:23:22Z</time></trkpt><trkpt lat="43.97354408725667" lon="11.288614990896367"><ele>222.0</ele><time>2026-05-01T12:23:23Z</time></trkpt><trkpt lat="43.97364603738695" lon="11.288515774107939"><ele>222.0</ele><time>2026-05-01T12:23:24Z</time></trkpt><trkpt lat="43.97376920324983" lon="11.288450390112"><ele>222.0</ele><time>2026-05-01T12:23:25Z</time></trkpt><trkpt lat="43.97390137261489" lon="11.288401942880716"><ele>222.0</ele><time>2026-05-01T12:23:26Z</time></trkpt><trkpt lat="43.97403490298526" lon="11.288353167184486"><ele>222.0</ele><time>2026-05-01T12:23:27Z</time></trkpt><trkpt lat="43.974165506140686" lon="11.288304693375906"><ele>222.0</ele><time>2026-05-01T12:23:28Z</time></trkpt><trkpt lat="43.97430455622671" lon="11.288261297177526"><ele>222.5</ele><time>2026-05-01T12:23:29Z</time></trkpt><trkpt lat="43.974449646667615" lon="11.288221545103045"><ele>223.0</ele><time>2026-05-01T12:23:30Z</time></trkpt><trkpt lat="43.97459754062109" lon="11.288186753295882"><ele>223.5</ele><time>2026-05-01T12:23:31Z</time></trkpt><trkpt lat="43.97474640506461" lon="11.288154046462406"><ele>224.0</ele><time>2026-05-01T12:23:32Z</time></trkpt><trkpt lat="43.97489690944005" lon="11.288127006788198"><ele>222.66666666666669</ele><time>2026-05-01T12:23:33Z</time></trkpt><trkpt lat="43.975048389520865" lon="11.28810866820349"><ele>221.33333333333331</ele><time>2026-05-01T12:23:34Z</time></trkpt><trkpt lat="43.97520195180933" lon="11.288098394832183"><ele>220.0</ele><time>2026-05-01T12:23:35Z</time></trkpt><trkpt lat="43.97535334841972" lon="11.288093490613257"><ele>220.0</ele><time>2026-05-01T12:23:36Z</time></trkpt><trkpt lat="43.97550620620011" lon="11.28809053266459"><ele>220.0</ele><time>2026-05-01T12:23:37Z</time></trkpt><trkpt lat="43.97566065053717" lon="11.288093769457525"><ele>220.0</ele><time>2026-05-01T12:23:38Z</time></trkpt><trkpt lat="43.97581850379597" lon="11.288102677041675"><ele>220.66666666666666</ele><time>2026-05-01T12:23:38.999Z</time></trkpt><trkpt lat="43.975985916229014" lon="11.28811761547981"><ele>221.33333333333331</ele><time>2026-05-01T12:23:39.999Z</time></trkpt><trkpt lat="43.97616738472457" lon="11.288165110221259"><ele>222.0</ele><time>2026-05-01T12:23:40.999Z</time></trkpt><trkpt lat="43.976363816064136" lon="11.288203470035228"><ele>222.0</ele><time>2026-05-01T12:23:41.999Z</time></trkpt><trkpt lat="43.976563814734256" lon="11.288241776971716"><ele>222.0</ele><time>2026-05-01T12:23:42.999Z</time></trkpt><trkpt lat="43.97675901076056" lon="11.288277807845331"><ele>222.0</ele><time>2026-05-01T12:23:43.999Z</time></trkpt><trkpt lat="43.976964941465624" lon="11.288293931514824"><ele>224.0</ele><time>2026-05-01T12:23:44.999Z</time></trkpt><trkpt lat="43.97716781929762" lon="11.288333173562442"><ele>226.0</ele><time>2026-05-01T12:23:45.999Z</time></trkpt><trkpt lat="43.97737008285918" lon="11.288373196895737"><ele>228.0</ele><time>2026-05-01T12:23:46.999Z</time></trkpt><trkpt lat="43.97757263173953" lon="11.28841156923723"><ele>229.33333333333331</ele><time>2026-05-01T12:23:47.999Z</time></trkpt><trkpt lat="43.977774451154005" lon="11.288446465966231"><ele>230.66666666666666</ele><time>2026-05-01T12:23:48.999Z</time></trkpt><trkpt lat="43.97797752445841" lon="11.288475363849123"><ele>232.0</ele><time>2026-05-01T12:23:49.999Z</time></trkpt><trkpt lat="43.9781789716991" lon="11.288495138273184"><ele>233.66666666666666</ele><time>2026-05-01T12:23:50.999Z</time></trkpt><trkpt lat="43.978380356714496" lon="11.288508485559717"><ele>235.33333333333331</ele><time>2026-05-01T12:23:51.999Z</time></trkpt><trkpt lat="43.978579566410815" lon="11.288515663685693"><ele>237.0</ele><time>2026-05-01T12:23:52.999Z</time></trkpt><trkpt lat="43.978777064019454" lon="11.28851579315501"><ele>237.0</ele><time>2026-05-01T12:23:53.999Z</time></trkpt><trkpt lat="43.97897713868873" lon="11.288507012097144"><ele>237.0</ele><time>2026-05-01T12:23:54.999Z</time></trkpt><trkpt lat="43.97917733307901" lon="11.288490586426358"><ele>237.0</ele><time>2026-05-01T12:23:55.999Z</time></trkpt><trkpt lat="43.97937573021686" lon="11.288460990331926"><ele>237.66666666666669</ele><time>2026-05-01T12:23:56.999Z</time></trkpt><trkpt lat="43.979572926985675" lon="11.288422612450123"><ele>238.33333333333334</ele><time>2026-05-01T12:23:57.999Z</time></trkpt><trkpt lat="43.979769029597584" lon="11.28837639561403"><ele>239.0</ele><time>2026-05-01T12:23:58.999Z</time></trkpt><trkpt lat="43.97996250873564" lon="11.288320199292043"><ele>240.66666666666669</ele><time>2026-05-01T12:23:59.999Z</time></trkpt><trkpt lat="43.98015359210971" lon="11.28824589733573"><ele>242.33333333333331</ele><time>2026-05-01T12:24:00.999Z</time></trkpt><trkpt lat="43.98033942101623" lon="11.288154068219303"><ele>244.0</ele><time>2026-05-01T12:24:01.999Z</time></trkpt><trkpt lat="43.980522962309564" lon="11.288043108369987"><ele>244.0</ele><time>2026-05-01T12:24:02.999Z</time></trkpt><trkpt lat="43.98070360311167" lon="11.287915189310297"><ele>244.0</ele><time>2026-05-01T12:24:03.999Z</time></trkpt><trkpt lat="43.98087552109955" lon="11.287774790115147"><ele>244.0</ele><time>2026-05-01T12:24:04.999Z</time></trkpt><trkpt lat="43.981038176492135" lon="11.287623260715803"><ele>243.66666666666666</ele><time>2026-05-01T12:24:05.999Z</time></trkpt><trkpt lat="43.98119256447699" lon="11.287459811354177"><ele>243.33333333333331</ele><time>2026-05-01T12:24:06.999Z</time></trkpt><trkpt lat="43.98134161949172" lon="11.287285390444076"><ele>243.0</ele><time>2026-05-01T12:24:07.999Z</time></trkpt><trkpt lat="43.98148621986164" lon="11.287101465743106"><ele>243.0</ele><time>2026-05-01T12:24:08.999Z</time></trkpt><trkpt lat="43.98162686405672" lon="11.28690768810249"><ele>243.0</ele><time>2026-05-01T12:24:09.999Z</time></trkpt><trkpt lat="43.981761239875645" lon="11.286700111526942"><ele>243.0</ele><time>2026-05-01T12:24:10.999Z</time></trkpt><trkpt lat="43.981887065271295" lon="11.286483276203233"><ele>245.66666666666669</ele><time>2026-05-01T12:24:11.999Z</time></trkpt><trkpt lat="43.98200424308691" lon="11.286255584096216"><ele>248.33333333333334</ele><time>2026-05-01T12:24:12.999Z</time></trkpt><trkpt lat="43.98211002467507" lon="11.286016931000255"><ele>251.0</ele><time>2026-05-01T12:24:13.999Z</time></trkpt><trkpt lat="43.98220525853096" lon="11.285774565141903"><ele>252.33333333333334</ele><time>2026-05-01T12:24:14.999Z</time></trkpt><trkpt lat="43.98229362474683" lon="11.285524843995086"><ele>253.66666666666669</ele><time>2026-05-01T12:24:15.999Z</time></trkpt><trkpt lat="43.98237585275917" lon="11.285268400440895"><ele>255.0</ele><time>2026-05-01T12:24:16.999Z</time></trkpt><trkpt lat="43.982447808625054" lon="11.285007544268515"><ele>257.0</ele><time>2026-05-01T12:24:17.999Z</time></trkpt><trkpt lat="43.982508137488814" lon="11.284737107471997"><ele>259.0</ele><time>2026-05-01T12:24:18.999Z</time></trkpt><trkpt lat="43.98255852714807" lon="11.284461141154509"><ele>261.0</ele><time>2026-05-01T12:24:19.999Z</time></trkpt><trkpt lat="43.98260028876168" lon="11.284181973308533"><ele>264.6666666666667</ele><time>2026-05-01T12:24:20.999Z</time></trkpt><trkpt lat="43.982633622884876" lon="11.283898887158434"><ele>268.33333333333337</ele><time>2026-05-01T12:24:22Z</time></trkpt><trkpt lat="43.98266396454215" lon="11.283615908705386"><ele>272.0</ele><time>2026-05-01T12:24:23Z</time></trkpt><trkpt lat="43.982690210518484" lon="11.283331400764283"><ele>272.33333333333337</ele><time>2026-05-01T12:24:24Z</time></trkpt><trkpt lat="43.98270887393394" lon="11.283043841335362"><ele>272.6666666666667</ele><time>2026-05-01T12:24:25Z</time></trkpt><trkpt lat="43.98271859803939" lon="11.282752844805879"><ele>273.0</ele><time>2026-05-01T12:24:26Z</time></trkpt><trkpt lat="43.982724571579055" lon="11.282462764390687"><ele>274.3333333333333</ele><time>2026-05-01T12:24:27Z</time></trkpt><trkpt lat="43.98272884726446" lon="11.282173781611291"><ele>275.66666666666663</ele><time>2026-05-01T12:24:28Z</time></trkpt><trkpt lat="43.9827288065132" lon="11.281887700202478"><ele>277.0</ele><time>2026-05-01T12:24:29Z</time></trkpt><trkpt lat="43.9827280988038" lon="11.281601906065447"><ele>276.66666666666663</ele><time>2026-05-01T12:24:30Z</time></trkpt><trkpt lat="43.98272776135859" lon="11.281316651939244"><ele>276.3333333333333</ele><time>2026-05-01T12:24:31Z</time></trkpt><trkpt lat="43.98273295086278" lon="11.281030774358717"><ele>276.0</ele><time>2026-05-01T12:24:32Z</time></trkpt><trkpt lat="43.98274745601428" lon="11.280743218601206"><ele>268.3333333333333</ele><time>2026-05-01T12:24:33Z</time></trkpt><trkpt lat="43.98277398874501" lon="11.280454437904945"><ele>260.66666666666663</ele><time>2026-05-01T12:24:34Z</time></trkpt><trkpt lat="43.98281435250527" lon="11.280167583874936"><ele>253.0</ele><time>2026-05-01T12:24:35Z</time></trkpt><trkpt lat="43.982871004754514" lon="11.279884191627591"><ele>250.0</ele><time>2026-05-01T12:24:36Z</time></trkpt><trkpt lat="43.982931654801355" lon="11.279603865683754"><ele>247.0</ele><time>2026-05-01T12:24:37Z</time></trkpt><trkpt lat="43.982999927732074" lon="11.279325016731853"><ele>244.0</ele><time>2026-05-01T12:24:38Z</time></trkpt><trkpt lat="43.983059428765245" lon="11.27905306214665"><ele>243.0</ele><time>2026-05-01T12:24:39Z</time></trkpt><trkpt lat="43.983117461858015" lon="11.278783228873065"><ele>242.0</ele><time>2026-05-01T12:24:40Z</time></trkpt><trkpt lat="43.98317400534362" lon="11.278521008845606"><ele>241.0</ele><time>2026-05-01T12:24:41Z</time></trkpt><trkpt lat="43.98322904614588" lon="11.278259629020244"><ele>241.0</ele><time>2026-05-01T12:24:42Z</time></trkpt><trkpt lat="43.98328443227046" lon="11.277995681345072"><ele>241.0</ele><time>2026-05-01T12:24:43Z</time></trkpt><trkpt lat="43.98333844105323" lon="11.27773020210798"><ele>241.0</ele><time>2026-05-01T12:24:44Z</time></trkpt><trkpt lat="43.98339369137426" lon="11.277465762889294"><ele>244.0</ele><time>2026-05-01T12:24:45Z</time></trkpt><trkpt lat="43.983452329183024" lon="11.277201303448178"><ele>247.0</ele><time>2026-05-01T12:24:46Z</time></trkpt><trkpt lat="43.98350727816333" lon="11.276932728201693"><ele>250.0</ele><time>2026-05-01T12:24:47Z</time></trkpt><trkpt lat="43.98356054409885" lon="11.27665975474779"><ele>257.3333333333333</ele><time>2026-05-01T12:24:48Z</time></trkpt><trkpt lat="43.983613014787316" lon="11.276385320593992"><ele>264.6666666666667</ele><time>2026-05-01T12:24:49Z</time></trkpt><trkpt lat="43.98367012831117" lon="11.276110670958555"><ele>272.0</ele><time>2026-05-01T12:24:50Z</time></trkpt><trkpt lat="43.9837308951875" lon="11.27583660902914"><ele>272.6666666666667</ele><time>2026-05-01T12:24:51Z</time></trkpt><trkpt lat="43.98379634000241" lon="11.275567241892999"><ele>273.3333333333333</ele><time>2026-05-01T12:24:52Z</time></trkpt><trkpt lat="43.98387412650597" lon="11.27529435938864"><ele>274.0</ele><time>2026-05-01T12:24:53Z</time></trkpt><trkpt lat="43.98397007257889" lon="11.275031761313047"><ele>274.0</ele><time>2026-05-01T12:24:54Z</time></trkpt><trkpt lat="43.98408767771813" lon="11.274789979869508"><ele>274.0</ele><time>2026-05-01T12:24:55Z</time></trkpt><trkpt lat="43.98421919188607" lon="11.274567357573899"><ele>274.0</ele><time>2026-05-01T12:24:56Z</time></trkpt><trkpt lat="43.984364515312606" lon="11.27436676707423"><ele>277.0</ele><time>2026-05-01T12:24:57Z</time></trkpt><trkpt lat="43.98451054769715" lon="11.274203444446577"><ele>280.0</ele><time>2026-05-01T12:24:58Z</time></trkpt><trkpt lat="43.984653617092164" lon="11.274074035110237"><ele>283.0</ele><time>2026-05-01T12:24:59Z</time></trkpt><trkpt lat="43.98479576060719" lon="11.273962900958196"><ele>283.0</ele><time>2026-05-01T12:25:00Z</time></trkpt><trkpt lat="43.98494282240575" lon="11.273866953124141"><ele>283.0</ele><time>2026-05-01T12:25:01Z</time></trkpt><trkpt lat="43.98509623348139" lon="11.273782998611686"><ele>283.0</ele><time>2026-05-01T12:25:02Z</time></trkpt><trkpt lat="43.98525045152643" lon="11.273714860452472"><ele>283.0</ele><time>2026-05-01T12:25:03Z</time></trkpt><trkpt lat="43.98540005467432" lon="11.273658756258428"><ele>283.0</ele><time>2026-05-01T12:25:04Z</time></trkpt><trkpt lat="43.98553914286115" lon="11.2736146201652"><ele>283.0</ele><time>2026-05-01T12:25:05Z</time></trkpt><trkpt lat="43.98566148635466" lon="11.273574593350393"><ele>283.0</ele><time>2026-05-01T12:25:06Z</time></trkpt><trkpt lat="43.98575785425565" lon="11.27352241533977"><ele>283.0</ele><time>2026-05-01T12:25:07Z</time></trkpt><trkpt lat="43.98582555265295" lon="11.273440232424564"><ele>283.0</ele><time>2026-05-01T12:25:08Z</time></trkpt><trkpt lat="43.98587420468832" lon="11.273328577645131"><ele>283.0</ele><time>2026-05-01T12:25:09Z</time></trkpt><trkpt lat="43.985897130700636" lon="11.273196135080283"><ele>283.0</ele><time>2026-05-01T12:25:10Z</time></trkpt><trkpt lat="43.98591988558179" lon="11.273062328359602"><ele>283.0</ele><time>2026-05-01T12:25:11Z</time></trkpt><trkpt lat="43.985973178007185" lon="11.272942274511204"><ele>282.25</ele><time>2026-05-01T12:25:12Z</time></trkpt><trkpt lat="43.98606325483959" lon="11.272848422769364"><ele>281.5</ele><time>2026-05-01T12:25:13Z</time></trkpt><trkpt lat="43.98618488090888" lon="11.272787178443055"><ele>280.75</ele><time>2026-05-01T12:25:14Z</time></trkpt><trkpt lat="43.98631452065355" lon="11.272717250845469"><ele>280.0</ele><time>2026-05-01T12:25:15Z</time></trkpt><trkpt lat="43.986447517907145" lon="11.27263125027712"><ele>280.0</ele><time>2026-05-01T12:25:16Z</time></trkpt><trkpt lat="43.986588575849176" lon="11.272538808890397"><ele>280.0</ele><time>2026-05-01T12:25:17Z</time></trkpt><trkpt lat="43.98673700736315" lon="11.272436881853796"><ele>280.0</ele><time>2026-05-01T12:25:18Z</time></trkpt><trkpt lat="43.98688504263689" lon="11.272321852494848"><ele>278.66666666666663</ele><time>2026-05-01T12:25:19Z</time></trkpt><trkpt lat="43.987027416439695" lon="11.272193315892018"><ele>277.3333333333333</ele><time>2026-05-01T12:25:20Z</time></trkpt><trkpt lat="43.98716916864773" lon="11.272044912249031"><ele>276.0</ele><time>2026-05-01T12:25:21Z</time></trkpt><trkpt lat="43.98730774904149" lon="11.271875169460259"><ele>276.0</ele><time>2026-05-01T12:25:22Z</time></trkpt><trkpt lat="43.98744163273013" lon="11.271689160428656"><ele>276.0</ele><time>2026-05-01T12:25:23Z</time></trkpt><trkpt lat="43.987575070909294" lon="11.271492231552726"><ele>276.0</ele><time>2026-05-01T12:25:24Z</time></trkpt><trkpt lat="43.98770726484688" lon="11.27128143351218"><ele>274.3333333333333</ele><time>2026-05-01T12:25:25Z</time></trkpt><trkpt lat="43.98783593328052" lon="11.271057569960433"><ele>272.66666666666663</ele><time>2026-05-01T12:25:26Z</time></trkpt><trkpt lat="43.98795594521841" lon="11.270826331261704"><ele>271.0</ele><time>2026-05-01T12:25:27Z</time></trkpt><trkpt lat="43.98806934360748" lon="11.270582827104928"><ele>270.66666666666663</ele><time>2026-05-01T12:25:28Z</time></trkpt><trkpt lat="43.98817446916081" lon="11.270329382291308"><ele>270.3333333333333</ele><time>2026-05-01T12:25:29Z</time></trkpt><trkpt lat="43.988272131360056" lon="11.270067077902107"><ele>270.0</ele><time>2026-05-01T12:25:30Z</time></trkpt><trkpt lat="43.988363683505646" lon="11.269793213567482"><ele>271.3333333333333</ele><time>2026-05-01T12:25:31Z</time></trkpt><trkpt lat="43.988444701639224" lon="11.269509498594685"><ele>272.66666666666663</ele><time>2026-05-01T12:25:32Z</time></trkpt><trkpt lat="43.988517286336474" lon="11.269220353669919"><ele>274.0</ele><time>2026-05-01T12:25:33Z</time></trkpt><trkpt lat="43.988577141585075" lon="11.268926014445205"><ele>276.3333333333333</ele><time>2026-05-01T12:25:34Z</time></trkpt><trkpt lat="43.98862595130257" lon="11.26862543864937"><ele>278.6666666666667</ele><time>2026-05-01T12:25:35Z</time></trkpt><trkpt lat="43.988665330601876" lon="11.268321359314335"><ele>281.0</ele><time>2026-05-01T12:25:36Z</time></trkpt><trkpt lat="43.988693803055874" lon="11.268013067983667"><ele>282.5</ele><time>2026-05-01T12:25:37Z</time></trkpt><trkpt lat="43.9887154885539" lon="11.267702074529783"><ele>284.0</ele><time>2026-05-01T12:25:38Z</time></trkpt><trkpt lat="43.98872915824047" lon="11.26738858169702"><ele>283.5</ele><time>2026-05-01T12:25:39Z</time></trkpt><trkpt lat="43.98873581109444" lon="11.267071018497091"><ele>283.0</ele><time>2026-05-01T12:25:40Z</time></trkpt><trkpt lat="43.988739709760885" lon="11.266750759262147"><ele>282.0</ele><time>2026-05-01T12:25:41Z</time></trkpt><trkpt lat="43.98874073087442" lon="11.266428868669538"><ele>281.0</ele><time>2026-05-01T12:25:42Z</time></trkpt><trkpt lat="43.98873885517302" lon="11.266106036439766"><ele>281.0</ele><time>2026-05-01T12:25:42.999Z</time></trkpt><trkpt lat="43.988736428596475" lon="11.265787823280908"><ele>281.0</ele><time>2026-05-01T12:25:43.999Z</time></trkpt><trkpt lat="43.98873331591524" lon="11.265472921826222"><ele>277.5</ele><time>2026-05-01T12:25:44.999Z</time></trkpt><trkpt lat="43.98872904932197" lon="11.265159616117003"><ele>274.0</ele><time>2026-05-01T12:25:45.999Z</time></trkpt><trkpt lat="43.98872328482861" lon="11.26484291153036"><ele>269.0</ele><time>2026-05-01T12:25:46.999Z</time></trkpt><trkpt lat="43.9887105939571" lon="11.264525003422225"><ele>264.0</ele><time>2026-05-01T12:25:47.999Z</time></trkpt><trkpt lat="43.98869038962649" lon="11.26420515547314"><ele>255.5</ele><time>2026-05-01T12:25:48.999Z</time></trkpt><trkpt lat="43.98866312456373" lon="11.26388215052029"><ele>247.0</ele><time>2026-05-01T12:25:49.999Z</time></trkpt><trkpt lat="43.9886287666457" lon="11.263560259913863"><ele>247.0</ele><time>2026-05-01T12:25:50.999Z</time></trkpt><trkpt lat="43.9885871463724" lon="11.263234930413441"><ele>247.0</ele><time>2026-05-01T12:25:51.999Z</time></trkpt><trkpt lat="43.988537410514176" lon="11.262909312723773"><ele>246.0</ele><time>2026-05-01T12:25:52.999Z</time></trkpt><trkpt lat="43.98848065078848" lon="11.262585276312826"><ele>245.0</ele><time>2026-05-01T12:25:53.999Z</time></trkpt><trkpt lat="43.988416001802634" lon="11.262266730033737"><ele>247.0</ele><time>2026-05-01T12:25:54.999Z</time></trkpt><trkpt lat="43.98834574831472" lon="11.261949799060213"><ele>249.0</ele><time>2026-05-01T12:25:55.999Z</time></trkpt><trkpt lat="43.98827364919685" lon="11.261632857787056"><ele>256.5</ele><time>2026-05-01T12:25:56.999Z</time></trkpt><trkpt lat="43.98820212019661" lon="11.261320289132309"><ele>264.0</ele><time>2026-05-01T12:25:57.999Z</time></trkpt><trkpt lat="43.98812810299176" lon="11.261007681991003"><ele>264.0</ele><time>2026-05-01T12:25:58.999Z</time></trkpt><trkpt lat="43.98805202070156" lon="11.260700159899418"><ele>264.0</ele><time>2026-05-01T12:25:59.999Z</time></trkpt><trkpt lat="43.987976444383975" lon="11.260395874655563"><ele>265.5</ele><time>2026-05-01T12:26:00.999Z</time></trkpt><trkpt lat="43.987901904238555" lon="11.26009518774453"><ele>267.0</ele><time>2026-05-01T12:26:01.999Z</time></trkpt><trkpt lat="43.987829725126375" lon="11.259803121210938"><ele>270.3333333333333</ele><time>2026-05-01T12:26:02.999Z</time></trkpt><trkpt lat="43.98776312774121" lon="11.2595278287121"><ele>273.66666666666663</ele><time>2026-05-01T12:26:03.999Z</time></trkpt><trkpt lat="43.987703188037564" lon="11.25927399601135"><ele>277.0</ele><time>2026-05-01T12:26:04.999Z</time></trkpt><trkpt lat="43.987650461937406" lon="11.259040422863073"><ele>280.3333333333333</ele><time>2026-05-01T12:26:05.999Z</time></trkpt><trkpt lat="43.987611783498984" lon="11.258825050787282"><ele>283.6666666666667</ele><time>2026-05-01T12:26:06.999Z</time></trkpt><trkpt lat="43.98757644036788" lon="11.258596311473012"><ele>287.0</ele><time>2026-05-01T12:26:07.999Z</time></trkpt><trkpt lat="43.987549527733634" lon="11.258358276751093"><ele>289.33333333333337</ele><time>2026-05-01T12:26:08.999Z</time></trkpt><trkpt lat="43.987533581306714" lon="11.258112836592218"><ele>291.6666666666667</ele><time>2026-05-01T12:26:09.999Z</time></trkpt><trkpt lat="43.98752974416138" lon="11.257857151231772"><ele>294.0</ele><time>2026-05-01T12:26:10.999Z</time></trkpt><trkpt lat="43.98753543554767" lon="11.25759641638184"><ele>294.0</ele><time>2026-05-01T12:26:11.999Z</time></trkpt><trkpt lat="43.98755349871523" lon="11.257332637299099"><ele>294.0</ele><time>2026-05-01T12:26:12.999Z</time></trkpt><trkpt lat="43.98758548159549" lon="11.257069902620104"><ele>294.0</ele><time>2026-05-01T12:26:13.999Z</time></trkpt><trkpt lat="43.987629780807204" lon="11.25680941857573"><ele>294.3333333333333</ele><time>2026-05-01T12:26:14.999Z</time></trkpt><trkpt lat="43.98768715622573" lon="11.256553707859922"><ele>294.66666666666663</ele><time>2026-05-01T12:26:15.999Z</time></trkpt><trkpt lat="43.987754506117966" lon="11.25630332863565"><ele>295.0</ele><time>2026-05-01T12:26:16.999Z</time></trkpt><trkpt lat="43.98783107703575" lon="11.256059348070401"><ele>293.66666666666663</ele><time>2026-05-01T12:26:17.999Z</time></trkpt><trkpt lat="43.98791946055836" lon="11.255824238061788"><ele>292.3333333333333</ele><time>2026-05-01T12:26:18.999Z</time></trkpt><trkpt lat="43.98801788048245" lon="11.255599755243553"><ele>291.0</ele><time>2026-05-01T12:26:19.999Z</time></trkpt><trkpt lat="43.988125389657114" lon="11.255389152514718"><ele>291.3333333333333</ele><time>2026-05-01T12:26:20.999Z</time></trkpt><trkpt lat="43.98823862460083" lon="11.25518877724094"><ele>291.66666666666663</ele><time>2026-05-01T12:26:21.999Z</time></trkpt><trkpt lat="43.988359716462675" lon="11.254999350563189"><ele>292.0</ele><time>2026-05-01T12:26:22.999Z</time></trkpt><trkpt lat="43.988487824917776" lon="11.254818064032666"><ele>290.3333333333333</ele><time>2026-05-01T12:26:23.999Z</time></trkpt><trkpt lat="43.98862513267156" lon="11.254641566372014"><ele>288.6666666666667</ele><time>2026-05-01T12:26:24.999Z</time></trkpt><trkpt lat="43.98876679187326" lon="11.254462852775184"><ele>287.0</ele><time>2026-05-01T12:26:25.999Z</time></trkpt><trkpt lat="43.98891439393657" lon="11.25428468398623"><ele>287.0</ele><time>2026-05-01T12:26:27Z</time></trkpt><trkpt lat="43.98906659139973" lon="11.25410404404856"><ele>287.0</ele><time>2026-05-01T12:26:28Z</time></trkpt><trkpt lat="43.98922222222305" lon="11.25392379478619"><ele>287.0</ele><time>2026-05-01T12:26:29Z</time></trkpt><trkpt lat="43.9893773039182" lon="11.253741220361858"><ele>287.33333333333337</ele><time>2026-05-01T12:26:30Z</time></trkpt><trkpt lat="43.989532592561844" lon="11.253558380619177"><ele>287.6666666666667</ele><time>2026-05-01T12:26:31Z</time></trkpt><trkpt lat="43.989691967292835" lon="11.253375138232014"><ele>288.0</ele><time>2026-05-01T12:26:32Z</time></trkpt><trkpt lat="43.98985144922468" lon="11.253189596993286"><ele>288.3333333333333</ele><time>2026-05-01T12:26:33Z</time></trkpt><trkpt lat="43.99001043167291" lon="11.253003010257418"><ele>288.66666666666663</ele><time>2026-05-01T12:26:34Z</time></trkpt><trkpt lat="43.990171166998" lon="11.2528156760087"><ele>289.0</ele><time>2026-05-01T12:26:35Z</time></trkpt><trkpt lat="43.99033251526762" lon="11.252622604043253"><ele>289.0</ele><time>2026-05-01T12:26:36Z</time></trkpt><trkpt lat="43.990495794945375" lon="11.252430000041011"><ele>289.0</ele><time>2026-05-01T12:26:37Z</time></trkpt><trkpt lat="43.99066161119859" lon="11.252231235604023"><ele>289.0</ele><time>2026-05-01T12:26:38Z</time></trkpt><trkpt lat="43.99082934363133" lon="11.25203671820748"><ele>288.3333333333333</ele><time>2026-05-01T12:26:39Z</time></trkpt><trkpt lat="43.99099710594081" lon="11.251839845028632"><ele>287.6666666666667</ele><time>2026-05-01T12:26:40Z</time></trkpt><trkpt lat="43.99116649317273" lon="11.25164096238628"><ele>287.0</ele><time>2026-05-01T12:26:41Z</time></trkpt><trkpt lat="43.991335670758424" lon="11.251440505606805"><ele>285.33333333333337</ele><time>2026-05-01T12:26:42Z</time></trkpt><trkpt lat="43.99150832215601" lon="11.251241389757558"><ele>283.6666666666667</ele><time>2026-05-01T12:26:43Z</time></trkpt><trkpt lat="43.9916750655324" lon="11.251037093844857"><ele>282.0</ele><time>2026-05-01T12:26:44Z</time></trkpt><trkpt lat="43.99183512516646" lon="11.250824685571091"><ele>279.3333333333333</ele><time>2026-05-01T12:26:45Z</time></trkpt><trkpt lat="43.99199015003858" lon="11.25059976330158"><ele>276.66666666666663</ele><time>2026-05-01T12:26:46Z</time></trkpt><trkpt lat="43.99213234371822" lon="11.250361481452867"><ele>274.0</ele><time>2026-05-01T12:26:47Z</time></trkpt><trkpt lat="43.99226141909607" lon="11.250105376200061"><ele>274.0</ele><time>2026-05-01T12:26:48Z</time></trkpt><trkpt lat="43.99237862596389" lon="11.249835275576679"><ele>274.0</ele><time>2026-05-01T12:26:49Z</time></trkpt><trkpt lat="43.99247724145913" lon="11.249550942525453"><ele>275.0</ele><time>2026-05-01T12:26:50Z</time></trkpt><trkpt lat="43.99255807987662" lon="11.249254905098898"><ele>276.0</ele><time>2026-05-01T12:26:51Z</time></trkpt><trkpt lat="43.99262382282018" lon="11.24894982372198"><ele>273.5</ele><time>2026-05-01T12:26:52Z</time></trkpt><trkpt lat="43.99267166096448" lon="11.248632864222502"><ele>271.0</ele><time>2026-05-01T12:26:53Z</time></trkpt><trkpt lat="43.99269997399304" lon="11.248308316190176"><ele>269.0</ele><time>2026-05-01T12:26:54Z</time></trkpt><trkpt lat="43.99270839876411" lon="11.247979579732192"><ele>267.0</ele><time>2026-05-01T12:26:55Z</time></trkpt><trkpt lat="43.992695226292064" lon="11.24764784495557"><ele>267.0</ele><time>2026-05-01T12:26:56Z</time></trkpt><trkpt lat="43.9926622497509" lon="11.247316467525648"><ele>267.0</ele><time>2026-05-01T12:26:57Z</time></trkpt><trkpt lat="43.992619248435375" lon="11.2469919022523"><ele>264.0</ele><time>2026-05-01T12:26:58Z</time></trkpt><trkpt lat="43.99254437209369" lon="11.246675344814046"><ele>261.0</ele><time>2026-05-01T12:26:59Z</time></trkpt><trkpt lat="43.99244705432915" lon="11.246372985906929"><ele>259.0</ele><time>2026-05-01T12:27:00Z</time></trkpt><trkpt lat="43.9923348507828" lon="11.246076278452467"><ele>257.0</ele><time>2026-05-01T12:27:01Z</time></trkpt><trkpt lat="43.99221423224571" lon="11.245783543746306"><ele>255.5</ele><time>2026-05-01T12:27:02Z</time></trkpt><trkpt lat="43.99208831750136" lon="11.245489084348613"><ele>254.0</ele><time>2026-05-01T12:27:03Z</time></trkpt><trkpt lat="43.99196128513673" lon="11.245190567702448"><ele>254.0</ele><time>2026-05-01T12:27:04Z</time></trkpt><trkpt lat="43.991833216572125" lon="11.244894777050039"><ele>254.0</ele><time>2026-05-01T12:27:05Z</time></trkpt><trkpt lat="43.99170309992933" lon="11.244597394357392"><ele>252.5</ele><time>2026-05-01T12:27:06Z</time></trkpt><trkpt lat="43.991572351330134" lon="11.244299250934684"><ele>251.0</ele><time>2026-05-01T12:27:07Z</time></trkpt><trkpt lat="43.99144297992832" lon="11.24399870660015"><ele>250.0</ele><time>2026-05-01T12:27:08Z</time></trkpt><trkpt lat="43.99131171103694" lon="11.243694273633672"><ele>249.0</ele><time>2026-05-01T12:27:09Z</time></trkpt><trkpt lat="43.991179511809314" lon="11.243389475851044"><ele>252.5</ele><time>2026-05-01T12:27:10Z</time></trkpt><trkpt lat="43.99104723778656" lon="11.243082769978983"><ele>256.0</ele><time>2026-05-01T12:27:11Z</time></trkpt><trkpt lat="43.99091474708977" lon="11.242771068907496"><ele>256.0</ele><time>2026-05-01T12:27:12Z</time></trkpt><trkpt lat="43.99078233101769" lon="11.242460491694173"><ele>256.0</ele><time>2026-05-01T12:27:13Z</time></trkpt><trkpt lat="43.99064905173096" lon="11.242156072974463"><ele>256.5</ele><time>2026-05-01T12:27:14Z</time></trkpt><trkpt lat="43.990514700513046" lon="11.24185272247599"><ele>257.0</ele><time>2026-05-01T12:27:15Z</time></trkpt><trkpt lat="43.990382433937334" lon="11.241548416420535"><ele>257.5</ele><time>2026-05-01T12:27:16Z</time></trkpt><trkpt lat="43.99025322128388" lon="11.241245726593364"><ele>258.0</ele><time>2026-05-01T12:27:17Z</time></trkpt><trkpt lat="43.99012284073898" lon="11.240944341480429"><ele>258.0</ele><time>2026-05-01T12:27:18Z</time></trkpt><trkpt lat="43.98999380171838" lon="11.240645073302165"><ele>258.0</ele><time>2026-05-01T12:27:19Z</time></trkpt><trkpt lat="43.98986386338335" lon="11.240344973732453"><ele>258.0</ele><time>2026-05-01T12:27:20Z</time></trkpt><trkpt lat="43.98973516359828" lon="11.240048771116719"><ele>258.0</ele><time>2026-05-01T12:27:21Z</time></trkpt><trkpt lat="43.98961022897827" lon="11.23976263653292"><ele>258.5</ele><time>2026-05-01T12:27:22Z</time></trkpt><trkpt lat="43.98949139392498" lon="11.239486393097865"><ele>259.0</ele><time>2026-05-01T12:27:23Z</time></trkpt><trkpt lat="43.98938133451095" lon="11.239221441821972"><ele>259.0</ele><time>2026-05-01T12:27:24Z</time></trkpt><trkpt lat="43.989281799137885" lon="11.238966236435402"><ele>259.0</ele><time>2026-05-01T12:27:25Z</time></trkpt><trkpt lat="43.98918881277623" lon="11.238708832167465"><ele>259.0</ele><time>2026-05-01T12:27:26Z</time></trkpt><trkpt lat="43.989107512598196" lon="11.238448367987035"><ele>258.66666666666663</ele><time>2026-05-01T12:27:27Z</time></trkpt><trkpt lat="43.98904229501901" lon="11.23819412945466"><ele>258.3333333333333</ele><time>2026-05-01T12:27:28Z</time></trkpt><trkpt lat="43.988993821781925" lon="11.237947992923553"><ele>258.0</ele><time>2026-05-01T12:27:29Z</time></trkpt><trkpt lat="43.98895930408019" lon="11.23770476231594"><ele>258.0</ele><time>2026-05-01T12:27:30Z</time></trkpt><trkpt lat="43.98893688741645" lon="11.237450119551005"><ele>258.0</ele><time>2026-05-01T12:27:31Z</time></trkpt><trkpt lat="43.98892992798348" lon="11.237185752230632"><ele>258.0</ele><time>2026-05-01T12:27:32Z</time></trkpt><trkpt lat="43.988939481081125" lon="11.236914844465643"><ele>258.3333333333333</ele><time>2026-05-01T12:27:33Z</time></trkpt><trkpt lat="43.988960192120544" lon="11.236640171560264"><ele>258.66666666666663</ele><time>2026-05-01T12:27:34Z</time></trkpt><trkpt lat="43.988997687012855" lon="11.236363593639947"><ele>259.0</ele><time>2026-05-01T12:27:35Z</time></trkpt><trkpt lat="43.98904813838416" lon="11.236083868996475"><ele>259.66666666666663</ele><time>2026-05-01T12:27:36Z</time></trkpt><trkpt lat="43.98911137587693" lon="11.235805407855803"><ele>260.3333333333333</ele><time>2026-05-01T12:27:37Z</time></trkpt><trkpt lat="43.98919123211893" lon="11.23553087205823"><ele>261.0</ele><time>2026-05-01T12:27:38Z</time></trkpt><trkpt lat="43.98928385619594" lon="11.235263120172066"><ele>261.0</ele><time>2026-05-01T12:27:38.999Z</time></trkpt><trkpt lat="43.98938343678924" lon="11.234999218052065"><ele>261.0</ele><time>2026-05-01T12:27:39.999Z</time></trkpt><trkpt lat="43.98948403031748" lon="11.234738359238166"><ele>261.0</ele><time>2026-05-01T12:27:40.999Z</time></trkpt><trkpt lat="43.9895854370225" lon="11.234480278246155"><ele>260.6666666666667</ele><time>2026-05-01T12:27:41.999Z</time></trkpt><trkpt lat="43.98968934442031" lon="11.234216713486507"><ele>260.33333333333337</ele><time>2026-05-01T12:27:42.999Z</time></trkpt><trkpt lat="43.98979560174657" lon="11.233954441452351"><ele>260.0</ele><time>2026-05-01T12:27:43.999Z</time></trkpt><trkpt lat="43.989899591699285" lon="11.233696110228024"><ele>259.6666666666667</ele><time>2026-05-01T12:27:44.999Z</time></trkpt><trkpt lat="43.990000961780936" lon="11.23343731311277"><ele>259.3333333333333</ele><time>2026-05-01T12:27:45.999Z</time></trkpt><trkpt lat="43.990102901507896" lon="11.233178342843903"><ele>259.0</ele><time>2026-05-01T12:27:46.999Z</time></trkpt><trkpt lat="43.9902033286116" lon="11.232916808652671"><ele>259.3333333333333</ele><time>2026-05-01T12:27:47.999Z</time></trkpt><trkpt lat="43.99029822069871" lon="11.232653598615707"><ele>259.6666666666667</ele><time>2026-05-01T12:27:48.999Z</time></trkpt><trkpt lat="43.990383867430616" lon="11.232382424637798"><ele>260.0</ele><time>2026-05-01T12:27:49.999Z</time></trkpt><trkpt lat="43.99045630873453" lon="11.232100210360807"><ele>260.0</ele><time>2026-05-01T12:27:50.999Z</time></trkpt><trkpt lat="43.990513740386774" lon="11.231808003244852"><ele>260.0</ele><time>2026-05-01T12:27:51.999Z</time></trkpt><trkpt lat="43.99055245740898" lon="11.231510217869523"><ele>260.0</ele><time>2026-05-01T12:27:52.999Z</time></trkpt><trkpt lat="43.9905725526648" lon="11.231210246477568"><ele>260.33333333333337</ele><time>2026-05-01T12:27:53.999Z</time></trkpt><trkpt lat="43.99057453350051" lon="11.230909663629324"><ele>260.6666666666667</ele><time>2026-05-01T12:27:54.999Z</time></trkpt><trkpt lat="43.99055976346183" lon="11.230607839271135"><ele>261.0</ele><time>2026-05-01T12:27:55.999Z</time></trkpt><trkpt lat="43.990526640981955" lon="11.230305169905241"><ele>261.0</ele><time>2026-05-01T12:27:56.999Z</time></trkpt><trkpt lat="43.99047467359036" lon="11.230005083468866"><ele>261.0</ele><time>2026-05-01T12:27:57.999Z</time></trkpt><trkpt lat="43.990402049651564" lon="11.22970825084338"><ele>261.0</ele><time>2026-05-01T12:27:58.999Z</time></trkpt><trkpt lat="43.9903135603732" lon="11.229417627001657"><ele>261.5</ele><time>2026-05-01T12:27:59.999Z</time></trkpt><trkpt lat="43.99020812598135" lon="11.229141791325324"><ele>262.0</ele><time>2026-05-01T12:28:00.999Z</time></trkpt><trkpt lat="43.990087448054396" lon="11.228875689963331"><ele>265.5</ele><time>2026-05-01T12:28:01.999Z</time></trkpt><trkpt lat="43.989952509503645" lon="11.228622329441158"><ele>269.0</ele><time>2026-05-01T12:28:02.999Z</time></trkpt><trkpt lat="43.98980266074744" lon="11.228386984308425"><ele>269.0</ele><time>2026-05-01T12:28:03.999Z</time></trkpt><trkpt lat="43.98963673285971" lon="11.228172878213401"><ele>269.0</ele><time>2026-05-01T12:28:04.999Z</time></trkpt><trkpt lat="43.9894626249132" lon="11.227973808062742"><ele>270.5</ele><time>2026-05-01T12:28:05.999Z</time></trkpt><trkpt lat="43.98927089384082" lon="11.22780412829974"><ele>272.0</ele><time>2026-05-01T12:28:06.999Z</time></trkpt><trkpt lat="43.98907381909699" lon="11.227649867172142"><ele>273.0</ele><time>2026-05-01T12:28:07.999Z</time></trkpt><trkpt lat="43.98886622813281" lon="11.227512953026018"><ele>274.0</ele><time>2026-05-01T12:28:08.999Z</time></trkpt><trkpt lat="43.98865183752432" lon="11.227391298266697"><ele>275.5</ele><time>2026-05-01T12:28:09.999Z</time></trkpt><trkpt lat="43.98843633192785" lon="11.227271083308205"><ele>277.0</ele><time>2026-05-01T12:28:10.999Z</time></trkpt><trkpt lat="43.9882183492764" lon="11.227145503306327"><ele>279.0</ele><time>2026-05-01T12:28:11.999Z</time></trkpt><trkpt lat="43.98799964993091" lon="11.227014802458287"><ele>281.0</ele><time>2026-05-01T12:28:12.999Z</time></trkpt><trkpt lat="43.98778327789782" lon="11.226876981993737"><ele>281.0</ele><time>2026-05-01T12:28:13.999Z</time></trkpt><trkpt lat="43.98757221382554" lon="11.226717687766396"><ele>281.0</ele><time>2026-05-01T12:28:14.999Z</time></trkpt><trkpt lat="43.987371378842376" lon="11.226529425449238"><ele>283.5</ele><time>2026-05-01T12:28:15.999Z</time></trkpt><trkpt lat="43.98718746314822" lon="11.226315511297804"><ele>286.0</ele><time>2026-05-01T12:28:16.999Z</time></trkpt><trkpt lat="43.98701716512829" lon="11.226075816790498"><ele>286.0</ele><time>2026-05-01T12:28:17.999Z</time></trkpt><trkpt lat="43.98685535460662" lon="11.22582565825797"><ele>286.0</ele><time>2026-05-01T12:28:18.999Z</time></trkpt><trkpt lat="43.98669936968661" lon="11.225574780211549"><ele>285.66666666666663</ele><time>2026-05-01T12:28:19.999Z</time></trkpt><trkpt lat="43.98655302893008" lon="11.225335183347678"><ele>285.3333333333333</ele><time>2026-05-01T12:28:20.999Z</time></trkpt><trkpt lat="43.98641289320898" lon="11.225105489211229"><ele>285.0</ele><time>2026-05-01T12:28:21.999Z</time></trkpt><trkpt lat="43.98627663320047" lon="11.224882889471607"><ele>284.0</ele><time>2026-05-01T12:28:22.999Z</time></trkpt><trkpt lat="43.98613768490947" lon="11.224653758579564"><ele>283.0</ele><time>2026-05-01T12:28:23.999Z</time></trkpt><trkpt lat="43.98599520043622" lon="11.2244143099337"><ele>282.0</ele><time>2026-05-01T12:28:24.999Z</time></trkpt><trkpt lat="43.98585123641318" lon="11.224168628294823"><ele>279.0</ele><time>2026-05-01T12:28:25.999Z</time></trkpt><trkpt lat="43.98570439562697" lon="11.223922569072956"><ele>276.0</ele><time>2026-05-01T12:28:26.999Z</time></trkpt><trkpt lat="43.98555916057155" lon="11.223681810793634"><ele>276.0</ele><time>2026-05-01T12:28:27.999Z</time></trkpt><trkpt lat="43.985414708505154" lon="11.223441141901276"><ele>276.0</ele><time>2026-05-01T12:28:28.999Z</time></trkpt><trkpt lat="43.985267213623366" lon="11.22319346185497"><ele>275.0</ele><time>2026-05-01T12:28:29.999Z</time></trkpt><trkpt lat="43.98511698438015" lon="11.22294228025677"><ele>274.0</ele><time>2026-05-01T12:28:30.999Z</time></trkpt><trkpt lat="43.984965091665934" lon="11.22268896457676"><ele>273.0</ele><time>2026-05-01T12:28:31.999Z</time></trkpt><trkpt lat="43.98481425839055" lon="11.222434790186425"><ele>272.0</ele><time>2026-05-01T12:28:33Z</time></trkpt><trkpt lat="43.984665648116255" lon="11.222185426519484"><ele>272.0</ele><time>2026-05-01T12:28:34.001Z</time></trkpt><trkpt lat="43.98452900705504" lon="11.221949210721833"><ele>272.0</ele><time>2026-05-01T12:28:35Z</time></trkpt><trkpt lat="43.984401208174276" lon="11.221716640682432"><ele>272.0</ele><time>2026-05-01T12:28:36Z</time></trkpt><trkpt lat="43.984284689723445" lon="11.221488438308162"><ele>272.0</ele><time>2026-05-01T12:28:37Z</time></trkpt><trkpt lat="43.98417028156948" lon="11.221254555762926"><ele>272.0</ele><time>2026-05-01T12:28:38Z</time></trkpt><trkpt lat="43.984054553963325" lon="11.221011305428943"><ele>272.0</ele><time>2026-05-01T12:28:39Z</time></trkpt><trkpt lat="43.98393841025881" lon="11.220759264038897"><ele>272.0</ele><time>2026-05-01T12:28:40Z</time></trkpt><trkpt lat="43.98382122561686" lon="11.220500313366195"><ele>272.0</ele><time>2026-05-01T12:28:41Z</time></trkpt><trkpt lat="43.98370357730258" lon="11.220240433805994"><ele>272.0</ele><time>2026-05-01T12:28:42Z</time></trkpt><trkpt lat="43.983584045057846" lon="11.219978204356643"><ele>271.5</ele><time>2026-05-01T12:28:43Z</time></trkpt><trkpt lat="43.98346294037143" lon="11.21971535434381"><ele>271.0</ele><time>2026-05-01T12:28:44Z</time></trkpt><trkpt lat="43.983340631919965" lon="11.219450066273756"><ele>268.5</ele><time>2026-05-01T12:28:45Z</time></trkpt><trkpt lat="43.9832166206339" lon="11.2191813457359"><ele>266.0</ele><time>2026-05-01T12:28:46Z</time></trkpt><trkpt lat="43.98309460524828" lon="11.218915509789351"><ele>266.0</ele><time>2026-05-01T12:28:47Z</time></trkpt><trkpt lat="43.982972548335816" lon="11.218649300303536"><ele>266.0</ele><time>2026-05-01T12:28:48Z</time></trkpt><trkpt lat="43.98285430205416" lon="11.21838592870122"><ele>266.33333333333337</ele><time>2026-05-01T12:28:49Z</time></trkpt><trkpt lat="43.98273908880517" lon="11.21813034105436"><ele>266.6666666666667</ele><time>2026-05-01T12:28:50Z</time></trkpt><trkpt lat="43.98262954910725" lon="11.217886486622684"><ele>267.0</ele><time>2026-05-01T12:28:51Z</time></trkpt><trkpt lat="43.98252706784598" lon="11.217660182240072"><ele>267.0</ele><time>2026-05-01T12:28:52Z</time></trkpt><trkpt lat="43.98243258315429" lon="11.217454811808738"><ele>267.0</ele><time>2026-05-01T12:28:53Z</time></trkpt><trkpt lat="43.982350645403" lon="11.217276960536502"><ele>267.0</ele><time>2026-05-01T12:28:54Z</time></trkpt><trkpt lat="43.982283471533336" lon="11.217129543522178"><ele>267.4</ele><time>2026-05-01T12:28:55Z</time></trkpt><trkpt lat="43.982233280049854" lon="11.217007116616642"><ele>267.79999999999995</ele><time>2026-05-01T12:28:56Z</time></trkpt><trkpt lat="43.98220182642219" lon="11.21689329686211"><ele>268.2</ele><time>2026-05-01T12:28:57Z</time></trkpt><trkpt lat="43.98220763214985" lon="11.216782587100788"><ele>268.59999999999997</ele><time>2026-05-01T12:28:58Z</time></trkpt><trkpt lat="43.982235357709165" lon="11.216663596242528"><ele>269.0</ele><time>2026-05-01T12:28:59Z</time></trkpt><trkpt lat="43.982277082947554" lon="11.216537567083828"><ele>269.5</ele><time>2026-05-01T12:29:00Z</time></trkpt><trkpt lat="43.98233008326621" lon="11.216405544154373"><ele>270.0</ele><time>2026-05-01T12:29:01Z</time></trkpt><trkpt lat="43.982398702884645" lon="11.21627523978347"><ele>270.5</ele><time>2026-05-01T12:29:02Z</time></trkpt><trkpt lat="43.982453160915604" lon="11.216129354505942"><ele>271.0</ele><time>2026-05-01T12:29:03Z</time></trkpt><trkpt lat="43.98259433601139" lon="11.216064882183282"><ele>271.0</ele><time>2026-05-01T12:29:04Z</time></trkpt><trkpt lat="43.98270684384868" lon="11.215977937628097"><ele>271.0</ele><time>2026-05-01T12:29:05Z</time></trkpt><trkpt lat="43.982813876008045" lon="11.215888477126907"><ele>271.0</ele><time>2026-05-01T12:29:06Z</time></trkpt><trkpt lat="43.98291178434486" lon="11.215797159220958"><ele>271.0</ele><time>2026-05-01T12:29:07Z</time></trkpt><trkpt lat="43.982988744197236" lon="11.215684407088157"><ele>272.6</ele><time>2026-05-01T12:29:08Z</time></trkpt><trkpt lat="43.98305943223116" lon="11.21557322685662"><ele>274.20000000000005</ele><time>2026-05-01T12:29:09Z</time></trkpt><trkpt lat="43.983126836829776" lon="11.215457048490002"><ele>275.79999999999995</ele><time>2026-05-01T12:29:10Z</time></trkpt><trkpt lat="43.98315941391547" lon="11.215335566887912"><ele>277.4</ele><time>2026-05-01T12:29:11Z</time></trkpt><trkpt lat="43.98317326185324" lon="11.215223918852377"><ele>279.0</ele><time>2026-05-01T12:29:12Z</time></trkpt><trkpt lat="43.983190336529255" lon="11.215128499956387"><ele>279.0</ele><time>2026-05-01T12:29:13Z</time></trkpt><trkpt lat="43.98321469282187" lon="11.214974412603802"><ele>279.0</ele><time>2026-05-01T12:29:15Z</time></trkpt><trkpt lat="43.983234943950514" lon="11.214838376900738"><ele>279.0</ele><time>2026-05-01T12:29:17Z</time></trkpt><trkpt lat="43.983255248242685" lon="11.214699516319623"><ele>279.0</ele><time>2026-05-01T12:29:19Z</time></trkpt><trkpt lat="43.98327610776309" lon="11.214551255793635"><ele>279.0</ele><time>2026-05-01T12:29:21Z</time></trkpt><trkpt lat="43.98329745586801" lon="11.214388794131022"><ele>279.0</ele><time>2026-05-01T12:29:23Z</time></trkpt><trkpt lat="43.983307624559565" lon="11.214299465884189"><ele>279.0</ele><time>2026-05-01T12:29:24Z</time></trkpt><trkpt lat="43.98331795069673" lon="11.214202373329421"><ele>279.0</ele><time>2026-05-01T12:29:25Z</time></trkpt><trkpt lat="43.98332884371824" lon="11.214093306686664"><ele>279.0</ele><time>2026-05-01T12:29:26Z</time></trkpt><trkpt lat="43.983340104378364" lon="11.213971348078266"><ele>279.0</ele><time>2026-05-01T12:29:27Z</time></trkpt><trkpt lat="43.98335029164501" lon="11.213842837578435"><ele>279.0</ele><time>2026-05-01T12:29:28Z</time></trkpt><trkpt lat="43.98335751376249" lon="11.213714068114486"><ele>279.0</ele><time>2026-05-01T12:29:29Z</time></trkpt><trkpt lat="43.9833645084535" lon="11.213587409368813"><ele>279.0</ele><time>2026-05-01T12:29:30Z</time></trkpt><trkpt lat="43.98337079050796" lon="11.213476275341284"><ele>279.0</ele><time>2026-05-01T12:29:31Z</time></trkpt><trkpt lat="43.98337559526424" lon="11.213388373600004"><ele>279.0</ele><time>2026-05-01T12:29:32Z</time></trkpt><trkpt lat="43.98338071471447" lon="11.213273538994107"><ele>279.0</ele><time>2026-05-01T12:29:34Z</time></trkpt><trkpt lat="43.98338493203041" lon="11.213178940213563"><ele>279.0</ele><time>2026-05-01T12:29:37Z</time></trkpt><trkpt lat="43.983394383982976" lon="11.213008848903765"><ele>279.0</ele><time>2026-05-01T12:29:54.999Z</time></trkpt><trkpt lat="43.983400403107034" lon="11.212906316235527"><ele>279.0</ele><time>2026-05-01T12:29:55.999Z</time></trkpt><trkpt lat="43.98340880638705" lon="11.212785279789125"><ele>279.0</ele><time>2026-05-01T12:29:56.999Z</time></trkpt><trkpt lat="43.9834229652359" lon="11.212653904106428"><ele>279.0</ele><time>2026-05-01T12:29:57.999Z</time></trkpt><trkpt lat="43.98345836573302" lon="11.212519696564367"><ele>279.0</ele><time>2026-05-01T12:29:58.999Z</time></trkpt><trkpt lat="43.98347364296754" lon="11.212370781773162"><ele>279.75</ele><time>2026-05-01T12:29:59.999Z</time></trkpt><trkpt lat="43.98349370370745" lon="11.212199640778817"><ele>280.5</ele><time>2026-05-01T12:30:00.999Z</time></trkpt><trkpt lat="43.983522456198806" lon="11.21202064445944"><ele>281.25</ele><time>2026-05-01T12:30:01.999Z</time></trkpt><trkpt lat="43.98355853338488" lon="11.21183168849153"><ele>282.0</ele><time>2026-05-01T12:30:02.999Z</time></trkpt><trkpt lat="43.9835950962521" lon="11.21163490569782"><ele>284.6666666666667</ele><time>2026-05-01T12:30:03.999Z</time></trkpt><trkpt lat="43.983630404526515" lon="11.21143496800808"><ele>287.33333333333337</ele><time>2026-05-01T12:30:04.999Z</time></trkpt><trkpt lat="43.983665179386826" lon="11.21122243049126"><ele>290.0</ele><time>2026-05-01T12:30:05.999Z</time></trkpt><trkpt lat="43.983701190013385" lon="11.21100573234796"><ele>290.0</ele><time>2026-05-01T12:30:06.999Z</time></trkpt><trkpt lat="43.983739434958004" lon="11.210790366212581"><ele>290.0</ele><time>2026-05-01T12:30:07.999Z</time></trkpt><trkpt lat="43.98377676597954" lon="11.210580850640396"><ele>290.0</ele><time>2026-05-01T12:30:08.999Z</time></trkpt><trkpt lat="43.98381584654312" lon="11.210379270383923"><ele>291.0</ele><time>2026-05-01T12:30:09.999Z</time></trkpt><trkpt lat="43.98386284699451" lon="11.210187600098754"><ele>292.0</ele><time>2026-05-01T12:30:10.999Z</time></trkpt><trkpt lat="43.983929418258896" lon="11.2100170271419"><ele>293.0</ele><time>2026-05-01T12:30:11.999Z</time></trkpt><trkpt lat="43.98402211180247" lon="11.209873391555178"><ele>294.0</ele><time>2026-05-01T12:30:12.999Z</time></trkpt><trkpt lat="43.98413357162035" lon="11.209768480051538"><ele>294.0</ele><time>2026-05-01T12:30:13.999Z</time></trkpt><trkpt lat="43.98425763836263" lon="11.209716055890429"><ele>294.0</ele><time>2026-05-01T12:30:14.999Z</time></trkpt><trkpt lat="43.98438300781992" lon="11.2097196153073"><ele>294.0</ele><time>2026-05-01T12:30:15.999Z</time></trkpt><trkpt lat="43.98451012239914" lon="11.209740606743868"><ele>294.0</ele><time>2026-05-01T12:30:16.999Z</time></trkpt><trkpt lat="43.98459902031553" lon="11.209873171069766"><ele>294.0</ele><time>2026-05-01T12:30:17.999Z</time></trkpt><trkpt lat="43.984679088123684" lon="11.210012287624822"><ele>294.0</ele><time>2026-05-01T12:30:18.999Z</time></trkpt><trkpt lat="43.98472809846194" lon="11.210172532843298"><ele>294.0</ele><time>2026-05-01T12:30:19.999Z</time></trkpt><trkpt lat="43.98474034853466" lon="11.210350493042792"><ele>294.0</ele><time>2026-05-01T12:30:20.999Z</time></trkpt><trkpt lat="43.984717833680776" lon="11.210529887865652"><ele>292.0</ele><time>2026-05-01T12:30:21.999Z</time></trkpt><trkpt lat="43.98465041095535" lon="11.210680890066733"><ele>290.0</ele><time>2026-05-01T12:30:22.999Z</time></trkpt><trkpt lat="43.98455520857582" lon="11.210795555635137"><ele>288.0</ele><time>2026-05-01T12:30:23.999Z</time></trkpt><trkpt lat="43.98443479578202" lon="11.210867400390066"><ele>286.0</ele><time>2026-05-01T12:30:24.999Z</time></trkpt><trkpt lat="43.98429878865185" lon="11.210896498299647"><ele>287.3333333333333</ele><time>2026-05-01T12:30:25.999Z</time></trkpt><trkpt lat="43.98415320242969" lon="11.210930622514828"><ele>288.6666666666667</ele><time>2026-05-01T12:30:26.999Z</time></trkpt><trkpt lat="43.98398633831373" lon="11.210903437973059"><ele>290.0</ele><time>2026-05-01T12:30:27.999Z</time></trkpt><trkpt lat="43.98380773253728" lon="11.210917835518691"><ele>290.0</ele><time>2026-05-01T12:30:28.999Z</time></trkpt><trkpt lat="43.98361746141717" lon="11.210927372741827"><ele>290.0</ele><time>2026-05-01T12:30:29.999Z</time></trkpt><trkpt lat="43.98342155680685" lon="11.210935211243322"><ele>290.0</ele><time>2026-05-01T12:30:30.999Z</time></trkpt><trkpt lat="43.983228517838405" lon="11.210942676875625"><ele>291.0</ele><time>2026-05-01T12:30:31.999Z</time></trkpt><trkpt lat="43.983029870409545" lon="11.210957281812933"><ele>292.0</ele><time>2026-05-01T12:30:32.999Z</time></trkpt><trkpt lat="43.98282552121969" lon="11.210969124308404"><ele>293.0</ele><time>2026-05-01T12:30:33.999Z</time></trkpt><trkpt lat="43.98261474949531" lon="11.21097954800652"><ele>293.0</ele><time>2026-05-01T12:30:34.999Z</time></trkpt><trkpt lat="43.982402501783234" lon="11.210988530133138"><ele>293.0</ele><time>2026-05-01T12:30:35.999Z</time></trkpt><trkpt lat="43.982181648768766" lon="11.210997715092208"><ele>293.0</ele><time>2026-05-01T12:30:36.999Z</time></trkpt><trkpt lat="43.9819539438527" lon="11.211007982541778"><ele>293.0</ele><time>2026-05-01T12:30:37.999Z</time></trkpt><trkpt lat="43.9817149848772" lon="11.21101752355886"><ele>293.0</ele><time>2026-05-01T12:30:39Z</time></trkpt><trkpt lat="43.98146466525424" lon="11.211024910200305"><ele>289.5</ele><time>2026-05-01T12:30:40Z</time></trkpt><trkpt lat="43.98120691755424" lon="11.211030862329146"><ele>286.0</ele><time>2026-05-01T12:30:41Z</time></trkpt><trkpt lat="43.98094529055678" lon="11.211038426914437"><ele>293.5</ele><time>2026-05-01T12:30:42Z</time></trkpt><trkpt lat="43.98067777716756" lon="11.211049082670039"><ele>301.0</ele><time>2026-05-01T12:30:43Z</time></trkpt><trkpt lat="43.98040233409797" lon="11.21106296865105"><ele>301.0</ele><time>2026-05-01T12:30:44Z</time></trkpt><trkpt lat="43.980121608627904" lon="11.211076814190864"><ele>301.0</ele><time>2026-05-01T12:30:45Z</time></trkpt><trkpt lat="43.97983529026097" lon="11.21108980537671"><ele>307.0</ele><time>2026-05-01T12:30:46Z</time></trkpt><trkpt lat="43.979544508872245" lon="11.211101274762616"><ele>313.0</ele><time>2026-05-01T12:30:47Z</time></trkpt><trkpt lat="43.979250003050026" lon="11.211111765619032"><ele>313.5</ele><time>2026-05-01T12:30:48Z</time></trkpt><trkpt lat="43.97895039869692" lon="11.211124818065159"><ele>314.0</ele><time>2026-05-01T12:30:49Z</time></trkpt><trkpt lat="43.97864727412565" lon="11.21113801306496"><ele>315.5</ele><time>2026-05-01T12:30:50Z</time></trkpt><trkpt lat="43.97833999112671" lon="11.211149954777413"><ele>317.0</ele><time>2026-05-01T12:30:51Z</time></trkpt><trkpt lat="43.97802617590582" lon="11.211161366185216"><ele>317.0</ele><time>2026-05-01T12:30:52Z</time></trkpt><trkpt lat="43.97771317985957" lon="11.211172121296903"><ele>317.0</ele><time>2026-05-01T12:30:53Z</time></trkpt><trkpt lat="43.97740463908709" lon="11.211179489434594"><ele>319.0</ele><time>2026-05-01T12:30:54Z</time></trkpt><trkpt lat="43.977096899298296" lon="11.21118456902988"><ele>321.0</ele><time>2026-05-01T12:30:55Z</time></trkpt><trkpt lat="43.976790875327055" lon="11.211192152033826"><ele>315.5</ele><time>2026-05-01T12:30:56Z</time></trkpt><trkpt lat="43.976482389625154" lon="11.211198573508529"><ele>310.0</ele><time>2026-05-01T12:30:57Z</time></trkpt><trkpt lat="43.97616713789643" lon="11.211204840629707"><ele>300.0</ele><time>2026-05-01T12:30:58Z</time></trkpt><trkpt lat="43.97585009635338" lon="11.211211777906449"><ele>290.0</ele><time>2026-05-01T12:30:59Z</time></trkpt><trkpt lat="43.975534158596666" lon="11.211218289914157"><ele>290.0</ele><time>2026-05-01T12:31:00Z</time></trkpt><trkpt lat="43.97522016011572" lon="11.211225882720349"><ele>290.0</ele><time>2026-05-01T12:31:01Z</time></trkpt><trkpt lat="43.97490605829457" lon="11.211232607244419"><ele>297.5</ele><time>2026-05-01T12:31:02Z</time></trkpt><trkpt lat="43.97458832516634" lon="11.211241031949436"><ele>305.0</ele><time>2026-05-01T12:31:03Z</time></trkpt><trkpt lat="43.97427115455548" lon="11.211247473863699"><ele>319.5</ele><time>2026-05-01T12:31:04Z</time></trkpt><trkpt lat="43.97395536413688" lon="11.211252923736817"><ele>334.0</ele><time>2026-05-01T12:31:05Z</time></trkpt><trkpt lat="43.97364270855111" lon="11.211256030089645"><ele>333.0</ele><time>2026-05-01T12:31:06Z</time></trkpt><trkpt lat="43.97333143724865" lon="11.211259457766618"><ele>332.0</ele><time>2026-05-01T12:31:07Z</time></trkpt><trkpt lat="43.97302363547" lon="11.21126655365962"><ele>332.0</ele><time>2026-05-01T12:31:08Z</time></trkpt><trkpt lat="43.972713257817325" lon="11.211273648776737"><ele>332.0</ele><time>2026-05-01T12:31:09Z</time></trkpt><trkpt lat="43.97239748439763" lon="11.211281632169278"><ele>330.5</ele><time>2026-05-01T12:31:10Z</time></trkpt><trkpt lat="43.97207882622264" lon="11.211290378400014"><ele>329.0</ele><time>2026-05-01T12:31:11Z</time></trkpt><trkpt lat="43.97175876942694" lon="11.211296113021042"><ele>329.0</ele><time>2026-05-01T12:31:12Z</time></trkpt><trkpt lat="43.971439200396624" lon="11.211301377894353"><ele>329.0</ele><time>2026-05-01T12:31:13Z</time></trkpt><trkpt lat="43.97111928500029" lon="11.21130806801247"><ele>329.0</ele><time>2026-05-01T12:31:14Z</time></trkpt><trkpt lat="43.97079805670545" lon="11.211315054895145"><ele>329.0</ele><time>2026-05-01T12:31:15Z</time></trkpt><trkpt lat="43.97047647344187" lon="11.211321537577103"><ele>329.0</ele><time>2026-05-01T12:31:16Z</time></trkpt><trkpt lat="43.97015459980184" lon="11.211326172777246"><ele>329.0</ele><time>2026-05-01T12:31:17Z</time></trkpt><trkpt lat="43.96983427300689" lon="11.211329422233474"><ele>328.0</ele><time>2026-05-01T12:31:18Z</time></trkpt><trkpt lat="43.96952279193923" lon="11.211334455662842"><ele>327.0</ele><time>2026-05-01T12:31:19Z</time></trkpt><trkpt lat="43.96921436048338" lon="11.21133844282303"><ele>329.0</ele><time>2026-05-01T12:31:20Z</time></trkpt><trkpt lat="43.968907819841874" lon="11.211344264124923"><ele>331.0</ele><time>2026-05-01T12:31:21Z</time></trkpt><trkpt lat="43.96859926199429" lon="11.21135097076762"><ele>333.5</ele><time>2026-05-01T12:31:22Z</time></trkpt><trkpt lat="43.96828546973605" lon="11.21135743715376"><ele>336.0</ele><time>2026-05-01T12:31:23Z</time></trkpt><trkpt lat="43.9679689104629" lon="11.211363973850295"><ele>336.0</ele><time>2026-05-01T12:31:24Z</time></trkpt><trkpt lat="43.96764907954787" lon="11.211365613159343"><ele>336.0</ele><time>2026-05-01T12:31:25Z</time></trkpt><trkpt lat="43.96732812459203" lon="11.211363097555894"><ele>335.5</ele><time>2026-05-01T12:31:26Z</time></trkpt><trkpt lat="43.967002376743665" lon="11.211349911123103"><ele>335.0</ele><time>2026-05-01T12:31:27Z</time></trkpt><trkpt lat="43.966674989503204" lon="11.21133033889937"><ele>335.0</ele><time>2026-05-01T12:31:28Z</time></trkpt><trkpt lat="43.9663468401276" lon="11.211301079160249"><ele>335.0</ele><time>2026-05-01T12:31:29Z</time></trkpt><trkpt lat="43.96602058287782" lon="11.21126198246777"><ele>335.0</ele><time>2026-05-01T12:31:30Z</time></trkpt><trkpt lat="43.96569204814" lon="11.21120985225405"><ele>335.0</ele><time>2026-05-01T12:31:31Z</time></trkpt><trkpt lat="43.96536156231843" lon="11.211147236217336"><ele>335.0</ele><time>2026-05-01T12:31:32Z</time></trkpt><trkpt lat="43.96503055056965" lon="11.211075104410797"><ele>335.0</ele><time>2026-05-01T12:31:33Z</time></trkpt><trkpt lat="43.96470034145945" lon="11.21099177090102"><ele>341.0</ele><time>2026-05-01T12:31:34Z</time></trkpt><trkpt lat="43.96437261939871" lon="11.210897035432176"><ele>347.0</ele><time>2026-05-01T12:31:35Z</time></trkpt><trkpt lat="43.96404724457541" lon="11.210791237297093"><ele>348.0</ele><time>2026-05-01T12:31:36Z</time></trkpt><trkpt lat="43.96372677352549" lon="11.210671576044307"><ele>349.0</ele><time>2026-05-01T12:31:37Z</time></trkpt><trkpt lat="43.96340673151298" lon="11.210537644305612"><ele>348.0</ele><time>2026-05-01T12:31:38Z</time></trkpt><trkpt lat="43.963088917343676" lon="11.210393673246113"><ele>347.0</ele><time>2026-05-01T12:31:39Z</time></trkpt><trkpt lat="43.962774029595614" lon="11.210239205475023"><ele>341.5</ele><time>2026-05-01T12:31:40Z</time></trkpt><trkpt lat="43.96246006784343" lon="11.210076393140696"><ele>336.0</ele><time>2026-05-01T12:31:41Z</time></trkpt><trkpt lat="43.96214609298428" lon="11.209906633606485"><ele>341.5</ele><time>2026-05-01T12:31:41.999Z</time></trkpt><trkpt lat="43.961834591373055" lon="11.209735938730642"><ele>347.0</ele><time>2026-05-01T12:31:42.999Z</time></trkpt><trkpt lat="43.961520452750236" lon="11.209563397418135"><ele>349.0</ele><time>2026-05-01T12:31:43.999Z</time></trkpt><trkpt lat="43.96120747529125" lon="11.20939554453933"><ele>351.0</ele><time>2026-05-01T12:31:44.999Z</time></trkpt><trkpt lat="43.96089493666204" lon="11.209238041533474"><ele>355.5</ele><time>2026-05-01T12:31:45.999Z</time></trkpt><trkpt lat="43.960583421455425" lon="11.2090824156431"><ele>360.0</ele><time>2026-05-01T12:31:46.999Z</time></trkpt><trkpt lat="43.9602715538344" lon="11.208933047898316"><ele>360.5</ele><time>2026-05-01T12:31:47.999Z</time></trkpt><trkpt lat="43.95995672986053" lon="11.208794588480238"><ele>361.0</ele><time>2026-05-01T12:31:48.999Z</time></trkpt><trkpt lat="43.95963900682034" lon="11.208670512591807"><ele>361.0</ele><time>2026-05-01T12:31:49.999Z</time></trkpt><trkpt lat="43.959319967703486" lon="11.208551158737663"><ele>361.0</ele><time>2026-05-01T12:31:50.999Z</time></trkpt><trkpt lat="43.95897038559742" lon="11.208410228187702"><ele>354.5</ele><time>2026-05-01T12:31:51.999Z</time></trkpt><trkpt lat="43.95864913747836" lon="11.208338943619902"><ele>348.0</ele><time>2026-05-01T12:31:52.999Z</time></trkpt><trkpt lat="43.95832240682907" lon="11.208277983795925"><ele>347.0</ele><time>2026-05-01T12:31:53.999Z</time></trkpt><trkpt lat="43.95799185380868" lon="11.208233727110295"><ele>346.0</ele><time>2026-05-01T12:31:54.999Z</time></trkpt><trkpt lat="43.957662108212965" lon="11.208205735380027"><ele>349.5</ele><time>2026-05-01T12:31:55.999Z</time></trkpt><trkpt lat="43.95733222319844" lon="11.208187554068667"><ele>353.0</ele><time>2026-05-01T12:31:56.999Z</time></trkpt><trkpt lat="43.957002095793094" lon="11.208185002439777"><ele>357.5</ele><time>2026-05-01T12:31:57.999Z</time></trkpt><trkpt lat="43.95667151697755" lon="11.208206720834792"><ele>362.0</ele><time>2026-05-01T12:31:58.999Z</time></trkpt><trkpt lat="43.956339772237094" lon="11.208247429104448"><ele>362.0</ele><time>2026-05-01T12:31:59.999Z</time></trkpt><trkpt lat="43.956007536867716" lon="11.208307876976074"><ele>362.0</ele><time>2026-05-01T12:32:00.999Z</time></trkpt><trkpt lat="43.95567404431017" lon="11.20838322112787"><ele>358.0</ele><time>2026-05-01T12:32:01.999Z</time></trkpt><trkpt lat="43.95534436356462" lon="11.208477198789632"><ele>354.0</ele><time>2026-05-01T12:32:02.999Z</time></trkpt><trkpt lat="43.95501752861493" lon="11.208587830585984"><ele>351.0</ele><time>2026-05-01T12:32:03.999Z</time></trkpt><trkpt lat="43.95469689477042" lon="11.208715720485326"><ele>348.0</ele><time>2026-05-01T12:32:04.999Z</time></trkpt><trkpt lat="43.954379871164384" lon="11.208859691315466"><ele>347.5</ele><time>2026-05-01T12:32:05.999Z</time></trkpt><trkpt lat="43.954069050196175" lon="11.209018473697453"><ele>347.0</ele><time>2026-05-01T12:32:06.999Z</time></trkpt><trkpt lat="43.95376003090248" lon="11.209184300174664"><ele>347.0</ele><time>2026-05-01T12:32:07.999Z</time></trkpt><trkpt lat="43.95345349706829" lon="11.209359326833024"><ele>347.0</ele><time>2026-05-01T12:32:08.999Z</time></trkpt><trkpt lat="43.953142680759704" lon="11.209545660314108"><ele>356.0</ele><time>2026-05-01T12:32:09.999Z</time></trkpt><trkpt lat="43.95283117929916" lon="11.209740820370332"><ele>365.0</ele><time>2026-05-01T12:32:10.999Z</time></trkpt><trkpt lat="43.95252084325055" lon="11.209944644154984"><ele>388.0</ele><time>2026-05-01T12:32:11.999Z</time></trkpt><trkpt lat="43.95221243276956" lon="11.210159639766589"><ele>411.0</ele><time>2026-05-01T12:32:12.999Z</time></trkpt><trkpt lat="43.951907102593225" lon="11.210384910619679"><ele>412.5</ele><time>2026-05-01T12:32:13.999Z</time></trkpt><trkpt lat="43.95160566987858" lon="11.21062293014556"><ele>414.0</ele><time>2026-05-01T12:32:14.999Z</time></trkpt><trkpt lat="43.95130877964315" lon="11.210872603645003"><ele>414.0</ele><time>2026-05-01T12:32:15.999Z</time></trkpt><trkpt lat="43.95101350166859" lon="11.211125870748551"><ele>414.0</ele><time>2026-05-01T12:32:16.999Z</time></trkpt><trkpt lat="43.95074892070195" lon="11.21139048091923"><ele>398.0</ele><time>2026-05-01T12:32:17.999Z</time></trkpt><trkpt lat="43.950473733023074" lon="11.211659564262396"><ele>382.0</ele><time>2026-05-01T12:32:18.999Z</time></trkpt><trkpt lat="43.95020862892167" lon="11.211940902156282"><ele>382.5</ele><time>2026-05-01T12:32:19.999Z</time></trkpt><trkpt lat="43.949944847051086" lon="11.212226563381874"><ele>383.0</ele><time>2026-05-01T12:32:20.999Z</time></trkpt><trkpt lat="43.94967754701547" lon="11.212506330111516"><ele>384.0</ele><time>2026-05-01T12:32:21.999Z</time></trkpt><trkpt lat="43.94941728871281" lon="11.212795582243979"><ele>385.0</ele><time>2026-05-01T12:32:22.999Z</time></trkpt><trkpt lat="43.94914882773634" lon="11.213077644443457"><ele>384.0</ele><time>2026-05-01T12:32:23.999Z</time></trkpt><trkpt lat="43.94888806740754" lon="11.21337328001087"><ele>383.0</ele><time>2026-05-01T12:32:24.999Z</time></trkpt><trkpt lat="43.94862130712644" lon="11.21366184034023"><ele>385.5</ele><time>2026-05-01T12:32:25.999Z</time></trkpt><trkpt lat="43.94835742223706" lon="11.213955133503376"><ele>388.0</ele><time>2026-05-01T12:32:26.999Z</time></trkpt><trkpt lat="43.948094564365206" lon="11.214251096309152"><ele>391.5</ele><time>2026-05-01T12:32:27.999Z</time></trkpt><trkpt lat="43.94782992475592" lon="11.21454475161415"><ele>395.0</ele><time>2026-05-01T12:32:28.999Z</time></trkpt><trkpt lat="43.9475656272392" lon="11.214844400140635"><ele>401.0</ele><time>2026-05-01T12:32:29.999Z</time></trkpt><trkpt lat="43.947301809478866" lon="11.215146923567374"><ele>407.0</ele><time>2026-05-01T12:32:30.999Z</time></trkpt><trkpt lat="43.947025012354864" lon="11.215426803487809"><ele>414.5</ele><time>2026-05-01T12:32:31.999Z</time></trkpt><trkpt lat="43.94675415599667" lon="11.215720362918745"><ele>422.0</ele><time>2026-05-01T12:32:32.999Z</time></trkpt><trkpt lat="43.94648265428085" lon="11.216014772788043"><ele>424.5</ele><time>2026-05-01T12:32:33.999Z</time></trkpt><trkpt lat="43.946219790277034" lon="11.2162998468439"><ele>427.0</ele><time>2026-05-01T12:32:34.999Z</time></trkpt><trkpt lat="43.94597670089876" lon="11.216563474649321"><ele>439.0</ele><time>2026-05-01T12:32:35.999Z</time></trkpt><trkpt lat="43.945717061981526" lon="11.21684505098968"><ele>451.0</ele><time>2026-05-01T12:32:36.999Z</time></trkpt><trkpt lat="43.94545020904901" lon="11.217134787065381"><ele>454.0</ele><time>2026-05-01T12:32:37.999Z</time></trkpt><trkpt lat="43.945179438599716" lon="11.217429019051048"><ele>457.0</ele><time>2026-05-01T12:32:38.999Z</time></trkpt><trkpt lat="43.94490807067638" lon="11.217723259601344"><ele>457.0</ele><time>2026-05-01T12:32:39.999Z</time></trkpt><trkpt lat="43.9446527495767" lon="11.21800010026891"><ele>457.0</ele><time>2026-05-01T12:32:40.999Z</time></trkpt><trkpt lat="43.94438673480106" lon="11.218288536120793"><ele>454.5</ele><time>2026-05-01T12:32:41.999Z</time></trkpt><trkpt lat="43.94411218120352" lon="11.218586229880497"><ele>452.0</ele><time>2026-05-01T12:32:43.02Z</time></trkpt><trkpt lat="43.94251614526834" lon="11.22033906524804"><ele>403.0</ele><time>2026-05-01T12:32:46.97Z</time></trkpt><trkpt lat="43.94171923270645" lon="11.22115297323048"><ele>372.0</ele><time>2026-05-01T12:32:47.97Z</time></trkpt><trkpt lat="43.94089629684349" lon="11.221911843659923"><ele>364.0</ele><time>2026-05-01T12:32:48.969Z</time></trkpt><trkpt lat="43.94001143459051" lon="11.222523482758703"><ele>348.0</ele><time>2026-05-01T12:32:49.97Z</time></trkpt><trkpt lat="43.93905653470797" lon="11.222878506631186"><ele>359.0</ele><time>2026-05-01T12:32:50.97Z</time></trkpt><trkpt lat="43.938086517330845" lon="11.223133283206739"><ele>378.0</ele><time>2026-05-01T12:32:51.967Z</time></trkpt><trkpt lat="43.9374617" lon="11.2232779"><ele>163.0</ele><time>2026-05-01T12:32:52.966Z</time></trkpt><trkpt lat="43.894367950362195" lon="11.189373466279068"><ele>162.5</ele><time>2026-05-01T12:35:38.997Z</time></trkpt><trkpt lat="43.8940964544553" lon="11.188906757893903"><ele>162.0</ele><time>2026-05-01T12:35:39.997Z</time></trkpt><trkpt lat="43.89389968586135" lon="11.188654552353958"><ele>162.0</ele><time>2026-05-01T12:35:40.997Z</time></trkpt><trkpt lat="43.89367944305059" lon="11.18834865729323"><ele>162.0</ele><time>2026-05-01T12:35:41.997Z</time></trkpt><trkpt lat="43.89343203125388" lon="11.18801990375304"><ele>159.0</ele><time>2026-05-01T12:35:42.997Z</time></trkpt><trkpt lat="43.89318533670501" lon="11.187708026367227"><ele>156.0</ele><time>2026-05-01T12:35:43.997Z</time></trkpt><trkpt lat="43.892937594053784" lon="11.187397605788576"><ele>157.0</ele><time>2026-05-01T12:35:45Z</time></trkpt><trkpt lat="43.892679871354844" lon="11.187101801587199"><ele>158.0</ele><time>2026-05-01T12:35:46Z</time></trkpt><trkpt lat="43.892409320211605" lon="11.186843899938209"><ele>158.0</ele><time>2026-05-01T12:35:47Z</time></trkpt><trkpt lat="43.89214128869382" lon="11.186580688045366"><ele>158.0</ele><time>2026-05-01T12:35:48Z</time></trkpt><trkpt lat="43.89187150580147" lon="11.186322934931473"><ele>154.0</ele><time>2026-05-01T12:35:49Z</time></trkpt><trkpt lat="43.89161006098154" lon="11.186025659373824"><ele>150.0</ele><time>2026-05-01T12:35:50Z</time></trkpt><trkpt lat="43.89132496723767" lon="11.185793975476498"><ele>146.5</ele><time>2026-05-01T12:35:51Z</time></trkpt><trkpt lat="43.891030282718795" lon="11.185583222828626"><ele>143.0</ele><time>2026-05-01T12:35:52Z</time></trkpt><trkpt lat="43.89072564225648" lon="11.185395479662686"><ele>143.0</ele><time>2026-05-01T12:35:53Z</time></trkpt><trkpt lat="43.89041506275564" lon="11.185242792323649"><ele>143.0</ele><time>2026-05-01T12:35:54Z</time></trkpt><trkpt lat="43.89009780120806" lon="11.185110620995037"><ele>140.5</ele><time>2026-05-01T12:35:55Z</time></trkpt><trkpt lat="43.88977636698999" lon="11.184992449355173"><ele>138.0</ele><time>2026-05-01T12:35:56Z</time></trkpt><trkpt lat="43.88945244251747" lon="11.184900531329754"><ele>135.5</ele><time>2026-05-01T12:35:57Z</time></trkpt><trkpt lat="43.88912432017577" lon="11.184834413452226"><ele>133.0</ele><time>2026-05-01T12:35:58Z</time></trkpt><trkpt lat="43.88879253541532" lon="11.184785885727038"><ele>133.0</ele><time>2026-05-01T12:35:59Z</time></trkpt><trkpt lat="43.88845923504367" lon="11.184759413840526"><ele>133.0</ele><time>2026-05-01T12:36:00Z</time></trkpt><trkpt lat="43.88812674840142" lon="11.184762264428182"><ele>132.5</ele><time>2026-05-01T12:36:01Z</time></trkpt><trkpt lat="43.88779783724912" lon="11.18478983664227"><ele>132.0</ele><time>2026-05-01T12:36:02Z</time></trkpt><trkpt lat="43.88747103633717" lon="11.184839636905647"><ele>130.5</ele><time>2026-05-01T12:36:03Z</time></trkpt><trkpt lat="43.88714567343673" lon="11.184906536127762"><ele>129.0</ele><time>2026-05-01T12:36:04Z</time></trkpt><trkpt lat="43.8868188734319" lon="11.18498066277891"><ele>121.5</ele><time>2026-05-01T12:36:05Z</time></trkpt><trkpt lat="43.88649302323532" lon="11.185061773401838"><ele>114.0</ele><time>2026-05-01T12:36:06Z</time></trkpt><trkpt lat="43.88616759604109" lon="11.18514658735431"><ele>106.5</ele><time>2026-05-01T12:36:07Z</time></trkpt><trkpt lat="43.885840659005396" lon="11.18522040569559"><ele>99.0</ele><time>2026-05-01T12:36:08Z</time></trkpt><trkpt lat="43.88551267878224" lon="11.185276515413989"><ele>99.0</ele><time>2026-05-01T12:36:09Z</time></trkpt><trkpt lat="43.885183575782335" lon="11.185315322005005"><ele>99.0</ele><time>2026-05-01T12:36:10Z</time></trkpt><trkpt lat="43.88484935426224" lon="11.185334063414514"><ele>98.0</ele><time>2026-05-01T12:36:11Z</time></trkpt><trkpt lat="43.88451153405119" lon="11.185334030039687"><ele>97.0</ele><time>2026-05-01T12:36:12Z</time></trkpt><trkpt lat="43.88417508793935" lon="11.185316185302375"><ele>99.5</ele><time>2026-05-01T12:36:13Z</time></trkpt><trkpt lat="43.88383952652489" lon="11.185276713522315"><ele>102.0</ele><time>2026-05-01T12:36:14Z</time></trkpt><trkpt lat="43.883506688306774" lon="11.185218853732682"><ele>105.5</ele><time>2026-05-01T12:36:15Z</time></trkpt><trkpt lat="43.88317641582066" lon="11.185142629368725"><ele>109.0</ele><time>2026-05-01T12:36:16Z</time></trkpt><trkpt lat="43.882846401925455" lon="11.18504811385527"><ele>112.5</ele><time>2026-05-01T12:36:17Z</time></trkpt><trkpt lat="43.882520427848135" lon="11.184931546233571"><ele>116.0</ele><time>2026-05-01T12:36:18Z</time></trkpt><trkpt lat="43.8821989933863" lon="11.184793090636305"><ele>116.0</ele><time>2026-05-01T12:36:19Z</time></trkpt><trkpt lat="43.88188200392396" lon="11.184637090851798"><ele>116.0</ele><time>2026-05-01T12:36:20Z</time></trkpt><trkpt lat="43.88157235540004" lon="11.18446481528559"><ele>122.5</ele><time>2026-05-01T12:36:21Z</time></trkpt><trkpt lat="43.88126553336181" lon="11.18427174882605"><ele>129.0</ele><time>2026-05-01T12:36:22Z</time></trkpt><trkpt lat="43.880965468077484" lon="11.184061572547499"><ele>134.5</ele><time>2026-05-01T12:36:23Z</time></trkpt><trkpt lat="43.880671925238644" lon="11.18383664431122"><ele>140.0</ele><time>2026-05-01T12:36:24Z</time></trkpt><trkpt lat="43.88038326823671" lon="11.183599186583951"><ele>140.0</ele><time>2026-05-01T12:36:25Z</time></trkpt><trkpt lat="43.88010104310051" lon="11.183344213457053"><ele>140.0</ele><time>2026-05-01T12:36:26Z</time></trkpt><trkpt lat="43.87982853818347" lon="11.183070038053177"><ele>144.0</ele><time>2026-05-01T12:36:27Z</time></trkpt><trkpt lat="43.87956270785124" lon="11.182782983101202"><ele>148.0</ele><time>2026-05-01T12:36:28Z</time></trkpt><trkpt lat="43.87930457944771" lon="11.182481584529508"><ele>155.5</ele><time>2026-05-01T12:36:29Z</time></trkpt><trkpt lat="43.87902865985001" lon="11.182210647361822"><ele>163.0</ele><time>2026-05-01T12:36:30Z</time></trkpt><trkpt lat="43.87877906253878" lon="11.181921962521182"><ele>163.0</ele><time>2026-05-01T12:36:31Z</time></trkpt><trkpt lat="43.87852750672309" lon="11.181598957626818"><ele>163.0</ele><time>2026-05-01T12:36:32Z</time></trkpt><trkpt lat="43.878289076176195" lon="11.181262860730511"><ele>162.5</ele><time>2026-05-01T12:36:33Z</time></trkpt><trkpt lat="43.87805236292554" lon="11.180905362655293"><ele>162.0</ele><time>2026-05-01T12:36:34Z</time></trkpt><trkpt lat="43.87783128253325" lon="11.180554057811252"><ele>162.0</ele><time>2026-05-01T12:36:35Z</time></trkpt><trkpt lat="43.87761367377092" lon="11.180195025803412"><ele>162.0</ele><time>2026-05-01T12:36:36Z</time></trkpt><trkpt lat="43.877390348672115" lon="11.179814826884282"><ele>165.0</ele><time>2026-05-01T12:36:37Z</time></trkpt><trkpt lat="43.87717630968516" lon="11.179438485443223"><ele>168.0</ele><time>2026-05-01T12:36:38Z</time></trkpt><trkpt lat="43.87696769936151" lon="11.179071689048786"><ele>164.0</ele><time>2026-05-01T12:36:39Z</time></trkpt><trkpt lat="43.87676255763291" lon="11.178710991476143"><ele>160.0</ele><time>2026-05-01T12:36:40Z</time></trkpt><trkpt lat="43.8765621479997" lon="11.178357897354655"><ele>150.5</ele><time>2026-05-01T12:36:41Z</time></trkpt><trkpt lat="43.87636192774079" lon="11.178001754438696"><ele>141.0</ele><time>2026-05-01T12:36:42Z</time></trkpt><trkpt lat="43.87616690739253" lon="11.177654860928799"><ele>142.0</ele><time>2026-05-01T12:36:43Z</time></trkpt><trkpt lat="43.87596033453989" lon="11.177278084969524"><ele>143.0</ele><time>2026-05-01T12:36:44Z</time></trkpt><trkpt lat="43.875743254266105" lon="11.176872703698358"><ele>131.5</ele><time>2026-05-01T12:36:45Z</time></trkpt><trkpt lat="43.87554579396752" lon="11.176502220219222"><ele>120.0</ele><time>2026-05-01T12:36:46Z</time></trkpt><trkpt lat="43.875354756045816" lon="11.176148058939269"><ele>120.0</ele><time>2026-05-01T12:36:47Z</time></trkpt><trkpt lat="43.87517535958253" lon="11.175823608935648"><ele>120.0</ele><time>2026-05-01T12:36:48Z</time></trkpt><trkpt lat="43.87499549757558" lon="11.175486601725666"><ele>118.5</ele><time>2026-05-01T12:36:49Z</time></trkpt><trkpt lat="43.87470929252429" lon="11.175234639314422"><ele>117.0</ele><time>2026-05-01T12:36:50Z</time></trkpt><trkpt lat="43.87441758763274" lon="11.174955197379129"><ele>115.0</ele><time>2026-05-01T12:36:50.999Z</time></trkpt><trkpt lat="43.874134907394534" lon="11.174651049123359"><ele>113.0</ele><time>2026-05-01T12:36:51.999Z</time></trkpt><trkpt lat="43.87388418206606" lon="11.174381319421876"><ele>113.0</ele><time>2026-05-01T12:36:52.999Z</time></trkpt><trkpt lat="43.8735478709032" lon="11.174274348138415"><ele>113.0</ele><time>2026-05-01T12:36:53.999Z</time></trkpt><trkpt lat="43.87325151995841" lon="11.174131024391903"><ele>109.0</ele><time>2026-05-01T12:36:54.999Z</time></trkpt><trkpt lat="43.8729658362929" lon="11.174021305824258"><ele>105.0</ele><time>2026-05-01T12:36:55.999Z</time></trkpt><trkpt lat="43.872653808445335" lon="11.173897416213896"><ele>108.5</ele><time>2026-05-01T12:36:56.999Z</time></trkpt><trkpt lat="43.87234060262932" lon="11.173796304708095"><ele>112.0</ele><time>2026-05-01T12:36:57.999Z</time></trkpt><trkpt lat="43.872014490636566" lon="11.173701572370284"><ele>109.0</ele><time>2026-05-01T12:36:58.999Z</time></trkpt><trkpt lat="43.87170815949861" lon="11.173649231033483"><ele>106.0</ele><time>2026-05-01T12:36:59.999Z</time></trkpt><trkpt lat="43.871411444741376" lon="11.173621916532268"><ele>106.0</ele><time>2026-05-01T12:37:00.999Z</time></trkpt><trkpt lat="43.87110745187469" lon="11.173605908864317"><ele>106.0</ele><time>2026-05-01T12:37:01.999Z</time></trkpt><trkpt lat="43.870808402929626" lon="11.17361416120517"><ele>101.5</ele><time>2026-05-01T12:37:02.999Z</time></trkpt><trkpt lat="43.8705250080653" lon="11.173648949660073"><ele>97.0</ele><time>2026-05-01T12:37:03.999Z</time></trkpt><trkpt lat="43.87023872714889" lon="11.173701784733522"><ele>97.5</ele><time>2026-05-01T12:37:04.999Z</time></trkpt><trkpt lat="43.869996408530056" lon="11.173795562509167"><ele>98.0</ele><time>2026-05-01T12:37:06.012Z</time></trkpt><trkpt lat="43.86644044572127" lon="11.175104204879688"><ele>94.5</ele><time>2026-05-01T12:37:15.999Z</time></trkpt><trkpt lat="43.86612416079106" lon="11.175262249383584"><ele>91.0</ele><time>2026-05-01T12:37:16.999Z</time></trkpt><trkpt lat="43.86584888025883" lon="11.175372069692632"><ele>90.5</ele><time>2026-05-01T12:37:17.999Z</time></trkpt><trkpt lat="43.8655274492847" lon="11.17553262386214"><ele>90.0</ele><time>2026-05-01T12:37:18.999Z</time></trkpt><trkpt lat="43.865196605398516" lon="11.175705588936452"><ele>87.5</ele><time>2026-05-01T12:37:19.999Z</time></trkpt><trkpt lat="43.86487830482975" lon="11.175854472842971"><ele>85.0</ele><time>2026-05-01T12:37:20.999Z</time></trkpt><trkpt lat="43.8645593271404" lon="11.175993173135945"><ele>83.5</ele><time>2026-05-01T12:37:21.999Z</time></trkpt><trkpt lat="43.86424087246871" lon="11.176132095967992"><ele>82.0</ele><time>2026-05-01T12:37:22.999Z</time></trkpt><trkpt lat="43.86391983618417" lon="11.176269346112441"><ele>82.0</ele><time>2026-05-01T12:37:23.999Z</time></trkpt><trkpt lat="43.86359936655612" lon="11.176405951050908"><ele>82.0</ele><time>2026-05-01T12:37:24.999Z</time></trkpt><trkpt lat="43.86327772326085" lon="11.176544839749468"><ele>80.5</ele><time>2026-05-01T12:37:25.999Z</time></trkpt><trkpt lat="43.86295046750451" lon="11.176678146163953"><ele>79.0</ele><time>2026-05-01T12:37:26.999Z</time></trkpt><trkpt lat="43.862624706170365" lon="11.176808919715967"><ele>78.5</ele><time>2026-05-01T12:37:27.999Z</time></trkpt><trkpt lat="43.86229715197642" lon="11.176927335806587"><ele>78.0</ele><time>2026-05-01T12:37:28.999Z</time></trkpt><trkpt lat="43.86196844001195" lon="11.177042694763681"><ele>78.5</ele><time>2026-05-01T12:37:29.999Z</time></trkpt><trkpt lat="43.86164455945627" lon="11.17716091869021"><ele>79.0</ele><time>2026-05-01T12:37:30.999Z</time></trkpt><trkpt lat="43.861321456259574" lon="11.177260286426813"><ele>79.5</ele><time>2026-05-01T12:37:31.999Z</time></trkpt><trkpt lat="43.860994577885485" lon="11.177355262891503"><ele>80.0</ele><time>2026-05-01T12:37:32.999Z</time></trkpt><trkpt lat="43.86066602075922" lon="11.177435573220949"><ele>80.0</ele><time>2026-05-01T12:37:33.999Z</time></trkpt><trkpt lat="43.86033528043442" lon="11.177504125791996"><ele>80.0</ele><time>2026-05-01T12:37:34.999Z</time></trkpt><trkpt lat="43.8600069804824" lon="11.177548015236066"><ele>79.0</ele><time>2026-05-01T12:37:35.999Z</time></trkpt><trkpt lat="43.859681971805806" lon="11.17756012494453"><ele>78.0</ele><time>2026-05-01T12:37:36.999Z</time></trkpt><trkpt lat="43.859362952931804" lon="11.177576739802523"><ele>77.5</ele><time>2026-05-01T12:37:37.999Z</time></trkpt><trkpt lat="43.8590368049299" lon="11.177558838524275"><ele>77.0</ele><time>2026-05-01T12:37:38.999Z</time></trkpt><trkpt lat="43.858710499384486" lon="11.177528466656678"><ele>77.0</ele><time>2026-05-01T12:37:39.999Z</time></trkpt><trkpt lat="43.85839122073887" lon="11.177475936752954"><ele>77.0</ele><time>2026-05-01T12:37:40.999Z</time></trkpt><trkpt lat="43.858066348537704" lon="11.17741648391651"><ele>77.0</ele><time>2026-05-01T12:37:41.999Z</time></trkpt><trkpt lat="43.857737486298255" lon="11.177330212842389"><ele>77.0</ele><time>2026-05-01T12:37:42.999Z</time></trkpt><trkpt lat="43.85741653330583" lon="11.177230673061286"><ele>75.5</ele><time>2026-05-01T12:37:43.999Z</time></trkpt><trkpt lat="43.857093630705215" lon="11.177115133361964"><ele>74.0</ele><time>2026-05-01T12:37:44.999Z</time></trkpt><trkpt lat="43.85677455577783" lon="11.176979416390783"><ele>73.0</ele><time>2026-05-01T12:37:45.999Z</time></trkpt><trkpt lat="43.856455933506254" lon="11.176827444640013"><ele>72.0</ele><time>2026-05-01T12:37:46.999Z</time></trkpt><trkpt lat="43.85614080739529" lon="11.176657075662915"><ele>71.0</ele><time>2026-05-01T12:37:47.999Z</time></trkpt><trkpt lat="43.855829659016585" lon="11.176467503125387"><ele>70.0</ele><time>2026-05-01T12:37:48.999Z</time></trkpt><trkpt lat="43.85552456432918" lon="11.176258411567726"><ele>70.0</ele><time>2026-05-01T12:37:50Z</time></trkpt><trkpt lat="43.85522457864917" lon="11.176034846112191"><ele>70.0</ele><time>2026-05-01T12:37:51Z</time></trkpt><trkpt lat="43.85493082415774" lon="11.175797108903145"><ele>67.5</ele><time>2026-05-01T12:37:52Z</time></trkpt><trkpt lat="43.8546407766716" lon="11.175550960073247"><ele>65.0</ele><time>2026-05-01T12:37:53Z</time></trkpt><trkpt lat="43.85435125340886" lon="11.175303545969133"><ele>65.5</ele><time>2026-05-01T12:37:54Z</time></trkpt><trkpt lat="43.8540617294518" lon="11.175056841712586"><ele>66.0</ele><time>2026-05-01T12:37:55Z</time></trkpt><trkpt lat="43.85377453351616" lon="11.174810443578897"><ele>65.0</ele><time>2026-05-01T12:37:56Z</time></trkpt><trkpt lat="43.85348924932463" lon="11.174564337504338"><ele>64.0</ele><time>2026-05-01T12:37:57Z</time></trkpt><trkpt lat="43.85320716794279" lon="11.174324551304798"><ele>63.5</ele><time>2026-05-01T12:37:58Z</time></trkpt><trkpt lat="43.85292737269953" lon="11.174090440620482"><ele>63.0</ele><time>2026-05-01T12:37:59Z</time></trkpt><trkpt lat="43.852652497583385" lon="11.173862830418638"><ele>63.5</ele><time>2026-05-01T12:38:00Z</time></trkpt><trkpt lat="43.85238034852059" lon="11.17363871245104"><ele>64.0</ele><time>2026-05-01T12:38:01Z</time></trkpt><trkpt lat="43.852111126421484" lon="11.173417123998599"><ele>64.0</ele><time>2026-05-01T12:38:02Z</time></trkpt><trkpt lat="43.85183834636583" lon="11.173191889721071"><ele>64.0</ele><time>2026-05-01T12:38:03Z</time></trkpt><trkpt lat="43.8515639578339" lon="11.172962915510745"><ele>62.0</ele><time>2026-05-01T12:38:04Z</time></trkpt><trkpt lat="43.851288662770884" lon="11.172733088166849"><ele>60.0</ele><time>2026-05-01T12:38:05Z</time></trkpt><trkpt lat="43.85101357795027" lon="11.172502348528441"><ele>59.0</ele><time>2026-05-01T12:38:06Z</time></trkpt><trkpt lat="43.85073580364914" lon="11.172266973246881"><ele>58.0</ele><time>2026-05-01T12:38:07Z</time></trkpt><trkpt lat="43.850455782327614" lon="11.172028538244225"><ele>58.0</ele><time>2026-05-01T12:38:08Z</time></trkpt><trkpt lat="43.85017485108494" lon="11.171786688288325"><ele>58.0</ele><time>2026-05-01T12:38:09Z</time></trkpt><trkpt lat="43.84989029248912" lon="11.171543023696701"><ele>57.5</ele><time>2026-05-01T12:38:10Z</time></trkpt><trkpt lat="43.84960280717514" lon="11.171299299044177"><ele>57.0</ele><time>2026-05-01T12:38:11Z</time></trkpt><trkpt lat="43.84931410431922" lon="11.1710563092537"><ele>57.0</ele><time>2026-05-01T12:38:12Z</time></trkpt><trkpt lat="43.849026624550426" lon="11.170812276961739"><ele>57.0</ele><time>2026-05-01T12:38:13Z</time></trkpt><trkpt lat="43.84873876812647" lon="11.170566813384584"><ele>57.5</ele><time>2026-05-01T12:38:14Z</time></trkpt><trkpt lat="43.84845186021273" lon="11.170322402779883"><ele>58.0</ele><time>2026-05-01T12:38:15Z</time></trkpt><trkpt lat="43.848164703856064" lon="11.170077457319758"><ele>57.0</ele><time>2026-05-01T12:38:16Z</time></trkpt><trkpt lat="43.84787800722626" lon="11.169831802416976"><ele>56.0</ele><time>2026-05-01T12:38:17Z</time></trkpt><trkpt lat="43.8475901640789" lon="11.169584186670507"><ele>55.0</ele><time>2026-05-01T12:38:18Z</time></trkpt><trkpt lat="43.84730343297893" lon="11.169339064713323"><ele>54.0</ele><time>2026-05-01T12:38:19Z</time></trkpt><trkpt lat="43.84701761292952" lon="11.16909476603281"><ele>53.0</ele><time>2026-05-01T12:38:20Z</time></trkpt><trkpt lat="43.84673180821305" lon="11.168851634724687"><ele>52.0</ele><time>2026-05-01T12:38:21Z</time></trkpt><trkpt lat="43.84644439976657" lon="11.168609275381105"><ele>52.0</ele><time>2026-05-01T12:38:22Z</time></trkpt><trkpt lat="43.84615928606933" lon="11.168369458389286"><ele>52.0</ele><time>2026-05-01T12:38:23Z</time></trkpt><trkpt lat="43.845870706476745" lon="11.168124644424662"><ele>51.5</ele><time>2026-05-01T12:38:24Z</time></trkpt><trkpt lat="43.84558564265983" lon="11.167882228744517"><ele>51.0</ele><time>2026-05-01T12:38:25Z</time></trkpt><trkpt lat="43.84530030164938" lon="11.16763737001496"><ele>51.0</ele><time>2026-05-01T12:38:26Z</time></trkpt><trkpt lat="43.84501666976546" lon="11.167397203006116"><ele>51.0</ele><time>2026-05-01T12:38:27Z</time></trkpt><trkpt lat="43.84473072718887" lon="11.167155889155078"><ele>50.5</ele><time>2026-05-01T12:38:28Z</time></trkpt><trkpt lat="43.84444833257989" lon="11.166916303811066"><ele>50.0</ele><time>2026-05-01T12:38:29Z</time></trkpt><trkpt lat="43.84416337464972" lon="11.166677771581739"><ele>49.0</ele><time>2026-05-01T12:38:30Z</time></trkpt><trkpt lat="43.8438808240956" lon="11.166435467450533"><ele>48.0</ele><time>2026-05-01T12:38:31Z</time></trkpt><trkpt lat="43.84360049737261" lon="11.16619524101869"><ele>48.0</ele><time>2026-05-01T12:38:32Z</time></trkpt><trkpt lat="43.84332081488282" lon="11.165956092629921"><ele>48.0</ele><time>2026-05-01T12:38:33Z</time></trkpt><trkpt lat="43.8430392986962" lon="11.165713830706348"><ele>47.0</ele><time>2026-05-01T12:38:34Z</time></trkpt><trkpt lat="43.84275778823797" lon="11.165472637095881"><ele>46.0</ele><time>2026-05-01T12:38:35Z</time></trkpt><trkpt lat="43.84247683624293" lon="11.165231768760654"><ele>45.5</ele><time>2026-05-01T12:38:36Z</time></trkpt><trkpt lat="43.84219440974465" lon="11.164991538513881"><ele>45.0</ele><time>2026-05-01T12:38:37Z</time></trkpt><trkpt lat="43.8419152738696" lon="11.164751967657224"><ele>45.0</ele><time>2026-05-01T12:38:38Z</time></trkpt><trkpt lat="43.84163386847186" lon="11.164510213606613"><ele>45.0</ele><time>2026-05-01T12:38:39Z</time></trkpt><trkpt lat="43.841352379818744" lon="11.164271152108448"><ele>45.0</ele><time>2026-05-01T12:38:40Z</time></trkpt><trkpt lat="43.841074666186394" lon="11.16403182061903"><ele>45.0</ele><time>2026-05-01T12:38:41Z</time></trkpt><trkpt lat="43.84079538484258" lon="11.163793197835105"><ele>43.0</ele><time>2026-05-01T12:38:41.999Z</time></trkpt><trkpt lat="43.8405138213857" lon="11.163555769834911"><ele>41.0</ele><time>2026-05-01T12:38:42.999Z</time></trkpt><trkpt lat="43.84023209814628" lon="11.163317543044675"><ele>41.0</ele><time>2026-05-01T12:38:43.999Z</time></trkpt><trkpt lat="43.839952082004885" lon="11.163080052566015"><ele>41.0</ele><time>2026-05-01T12:38:44.999Z</time></trkpt><trkpt lat="43.83966965152797" lon="11.162839783675782"><ele>41.0</ele><time>2026-05-01T12:38:45.999Z</time></trkpt><trkpt lat="43.83938505996553" lon="11.162598112675793"><ele>41.0</ele><time>2026-05-01T12:38:46.999Z</time></trkpt><trkpt lat="43.8391037115856" lon="11.162355845716405"><ele>41.5</ele><time>2026-05-01T12:38:47.999Z</time></trkpt><trkpt lat="43.838822186296575" lon="11.162115660501463"><ele>42.0</ele><time>2026-05-01T12:38:48.999Z</time></trkpt><trkpt lat="43.83853808754907" lon="11.161869144678434"><ele>42.0</ele><time>2026-05-01T12:38:49.999Z</time></trkpt><trkpt lat="43.838251764762276" lon="11.161623503308382"><ele>42.0</ele><time>2026-05-01T12:38:50.999Z</time></trkpt><trkpt lat="43.8379648044649" lon="11.161377885324514"><ele>42.0</ele><time>2026-05-01T12:38:51.999Z</time></trkpt><trkpt lat="43.83768377746959" lon="11.161140616693892"><ele>42.0</ele><time>2026-05-01T12:38:52.999Z</time></trkpt><trkpt lat="43.83739639079484" lon="11.160894149595372"><ele>41.5</ele><time>2026-05-01T12:38:53.999Z</time></trkpt><trkpt lat="43.837110085543074" lon="11.160647049376227"><ele>41.0</ele><time>2026-05-01T12:38:54.999Z</time></trkpt><trkpt lat="43.83682554126528" lon="11.160404612670147"><ele>41.0</ele><time>2026-05-01T12:38:55.999Z</time></trkpt><trkpt lat="43.83654368581155" lon="11.1601579633058"><ele>41.0</ele><time>2026-05-01T12:38:56.999Z</time></trkpt><trkpt lat="43.83625812576878" lon="11.15991182681913"><ele>40.5</ele><time>2026-05-01T12:38:57.999Z</time></trkpt><trkpt lat="43.83597202324331" lon="11.159663070015608"><ele>40.0</ele><time>2026-05-01T12:38:58.999Z</time></trkpt><trkpt lat="43.83568752151107" lon="11.159414874478434"><ele>38.5</ele><time>2026-05-01T12:38:59.999Z</time></trkpt><trkpt lat="43.83540392441101" lon="11.159163783680711"><ele>37.0</ele><time>2026-05-01T12:39:00.999Z</time></trkpt><trkpt lat="43.83512095563134" lon="11.158918030393902"><ele>37.0</ele><time>2026-05-01T12:39:01.999Z</time></trkpt><trkpt lat="43.83483919064518" lon="11.158668836028577"><ele>37.0</ele><time>2026-05-01T12:39:02.999Z</time></trkpt><trkpt lat="43.83455785330124" lon="11.158424313031936"><ele>38.0</ele><time>2026-05-01T12:39:03.999Z</time></trkpt><trkpt lat="43.83427192794849" lon="11.158173480479924"><ele>39.0</ele><time>2026-05-01T12:39:04.999Z</time></trkpt><trkpt lat="43.83398841115226" lon="11.157932068646675"><ele>39.0</ele><time>2026-05-01T12:39:05.999Z</time></trkpt><trkpt lat="43.833704108141674" lon="11.157685403996114"><ele>39.0</ele><time>2026-05-01T12:39:06.999Z</time></trkpt><trkpt lat="43.833417469482264" lon="11.157437223195044"><ele>38.0</ele><time>2026-05-01T12:39:07.999Z</time></trkpt><trkpt lat="43.83313396370459" lon="11.157192080040943"><ele>37.0</ele><time>2026-05-01T12:39:08.999Z</time></trkpt><trkpt lat="43.83284915554095" lon="11.156945316875621"><ele>38.5</ele><time>2026-05-01T12:39:09.999Z</time></trkpt><trkpt lat="43.832564557454965" lon="11.156702455083199"><ele>40.0</ele><time>2026-05-01T12:39:10.999Z</time></trkpt><trkpt lat="43.832281399780015" lon="11.156456649322543"><ele>40.0</ele><time>2026-05-01T12:39:11.999Z</time></trkpt><trkpt lat="43.83200285815803" lon="11.156205351937674"><ele>40.0</ele><time>2026-05-01T12:39:12.999Z</time></trkpt><trkpt lat="43.8317262484298" lon="11.155949985197397"><ele>40.5</ele><time>2026-05-01T12:39:13.999Z</time></trkpt><trkpt lat="43.831448897471866" lon="11.155703858772963"><ele>41.0</ele><time>2026-05-01T12:39:14.999Z</time></trkpt><trkpt lat="43.831167737852155" lon="11.155464799671307"><ele>40.0</ele><time>2026-05-01T12:39:15.999Z</time></trkpt><trkpt lat="43.83089146784341" lon="11.155232553747338"><ele>39.0</ele><time>2026-05-01T12:39:16.999Z</time></trkpt><trkpt lat="43.83061457477138" lon="11.154996555959348"><ele>39.0</ele><time>2026-05-01T12:39:17.999Z</time></trkpt><trkpt lat="43.83034343505665" lon="11.15476534339839"><ele>39.0</ele><time>2026-05-01T12:39:18.999Z</time></trkpt><trkpt lat="43.830067382121634" lon="11.15452957565692"><ele>39.0</ele><time>2026-05-01T12:39:19.999Z</time></trkpt><trkpt lat="43.82979380051755" lon="11.154294026230382"><ele>39.0</ele><time>2026-05-01T12:39:20.999Z</time></trkpt><trkpt lat="43.82951550464768" lon="11.154055177619455"><ele>39.5</ele><time>2026-05-01T12:39:21.999Z</time></trkpt><trkpt lat="43.829238001353104" lon="11.153820234438834"><ele>40.0</ele><time>2026-05-01T12:39:22.999Z</time></trkpt><trkpt lat="43.82895955768669" lon="11.153586404327813"><ele>40.0</ele><time>2026-05-01T12:39:23.999Z</time></trkpt><trkpt lat="43.828682790109696" lon="11.153360784340219"><ele>40.0</ele><time>2026-05-01T12:39:24.999Z</time></trkpt><trkpt lat="43.82840866619425" lon="11.153144896680502"><ele>39.0</ele><time>2026-05-01T12:39:25.999Z</time></trkpt><trkpt lat="43.828133008417545" lon="11.152940442135693"><ele>38.0</ele><time>2026-05-01T12:39:26.999Z</time></trkpt><trkpt lat="43.82785564659705" lon="11.152745414882563"><ele>38.0</ele><time>2026-05-01T12:39:27.999Z</time></trkpt><trkpt lat="43.82757509383849" lon="11.152554947492328"><ele>38.0</ele><time>2026-05-01T12:39:28.999Z</time></trkpt><trkpt lat="43.827292488689196" lon="11.15237810151384"><ele>37.5</ele><time>2026-05-01T12:39:29.999Z</time></trkpt><trkpt lat="43.82700646710822" lon="11.152220556111958"><ele>37.0</ele><time>2026-05-01T12:39:30.999Z</time></trkpt><trkpt lat="43.82671742925223" lon="11.152089808928446"><ele>37.0</ele><time>2026-05-01T12:39:31.999Z</time></trkpt><trkpt lat="43.82642642415609" lon="11.151970748276145"><ele>37.0</ele><time>2026-05-01T12:39:32.999Z</time></trkpt><trkpt lat="43.826134658680964" lon="11.151861571803456"><ele>37.5</ele><time>2026-05-01T12:39:33.999Z</time></trkpt><trkpt lat="43.82584155579952" lon="11.151772461423603"><ele>38.0</ele><time>2026-05-01T12:39:34.999Z</time></trkpt><trkpt lat="43.82554424374092" lon="11.151695708474245"><ele>38.0</ele><time>2026-05-01T12:39:35.999Z</time></trkpt><trkpt lat="43.82523682785959" lon="11.151627004781067"><ele>38.0</ele><time>2026-05-01T12:39:36.999Z</time></trkpt><trkpt lat="43.824918395249284" lon="11.151571842950423"><ele>38.0</ele><time>2026-05-01T12:39:37.999Z</time></trkpt><trkpt lat="43.82458926252194" lon="11.151530949865458"><ele>38.0</ele><time>2026-05-01T12:39:38.999Z</time></trkpt><trkpt lat="43.82425492220339" lon="11.151505306182127"><ele>37.0</ele><time>2026-05-01T12:39:39.999Z</time></trkpt><trkpt lat="43.823919249902474" lon="11.151492487684772"><ele>36.0</ele><time>2026-05-01T12:39:40.999Z</time></trkpt><trkpt lat="43.82358378074873" lon="11.15148866588927"><ele>36.0</ele><time>2026-05-01T12:39:41.999Z</time></trkpt><trkpt lat="43.82324725782535" lon="11.15148585588596"><ele>36.0</ele><time>2026-05-01T12:39:42.999Z</time></trkpt><trkpt lat="43.82290970978352" lon="11.151483768795279"><ele>35.5</ele><time>2026-05-01T12:39:43.999Z</time></trkpt><trkpt lat="43.82257223666203" lon="11.151483440077303"><ele>35.0</ele><time>2026-05-01T12:39:44.999Z</time></trkpt><trkpt lat="43.82223319528126" lon="11.151481525885185"><ele>35.0</ele><time>2026-05-01T12:39:45.999Z</time></trkpt><trkpt lat="43.8218923133406" lon="11.151477786391826"><ele>35.0</ele><time>2026-05-01T12:39:46.999Z</time></trkpt><trkpt lat="43.821551815852054" lon="11.151473015872773"><ele>35.0</ele><time>2026-05-01T12:39:47.999Z</time></trkpt><trkpt lat="43.82121250698806" lon="11.151467819109135"><ele>35.0</ele><time>2026-05-01T12:39:48.999Z</time></trkpt><trkpt lat="43.82087723978962" lon="11.151463312914435"><ele>35.5</ele><time>2026-05-01T12:39:49.999Z</time></trkpt><trkpt lat="43.82055583829723" lon="11.15145936835247"><ele>36.0</ele><time>2026-05-01T12:39:50.999Z</time></trkpt><trkpt lat="43.820247575855994" lon="11.151454545530036"><ele>36.0</ele><time>2026-05-01T12:39:51.999Z</time></trkpt><trkpt lat="43.81993359259896" lon="11.151450334278307"><ele>36.0</ele><time>2026-05-01T12:39:52.999Z</time></trkpt><trkpt lat="43.81962457372687" lon="11.15144649960744"><ele>36.5</ele><time>2026-05-01T12:39:53.999Z</time></trkpt><trkpt lat="43.819314885010336" lon="11.15143981652043"><ele>37.0</ele><time>2026-05-01T12:39:54.999Z</time></trkpt><trkpt lat="43.819005204392575" lon="11.15143334279768"><ele>37.0</ele><time>2026-05-01T12:39:56Z</time></trkpt><trkpt lat="43.818695400682934" lon="11.15142705600126"><ele>37.0</ele><time>2026-05-01T12:39:57Z</time></trkpt><trkpt lat="43.81838528444884" lon="11.151421685683154"><ele>35.5</ele><time>2026-05-01T12:39:58Z</time></trkpt><trkpt lat="43.81807426442648" lon="11.151416593567236"><ele>34.0</ele><time>2026-05-01T12:39:59Z</time></trkpt><trkpt lat="43.817761337602285" lon="11.151411760931898"><ele>34.5</ele><time>2026-05-01T12:40:00Z</time></trkpt><trkpt lat="43.817447375017416" lon="11.151408122485632"><ele>35.0</ele><time>2026-05-01T12:40:01Z</time></trkpt><trkpt lat="43.817129874151675" lon="11.151405684076858"><ele>36.0</ele><time>2026-05-01T12:40:02Z</time></trkpt><trkpt lat="43.81680783839803" lon="11.151403516106837"><ele>37.0</ele><time>2026-05-01T12:40:03Z</time></trkpt><trkpt lat="43.81648385133058" lon="11.151399174769557"><ele>37.0</ele><time>2026-05-01T12:40:04Z</time></trkpt><trkpt lat="43.816161370917754" lon="11.151394050095458"><ele>37.0</ele><time>2026-05-01T12:40:05Z</time></trkpt><trkpt lat="43.815837708987644" lon="11.151389274792171"><ele>35.5</ele><time>2026-05-01T12:40:06Z</time></trkpt><trkpt lat="43.81551359306071" lon="11.151387081622074"><ele>34.0</ele><time>2026-05-01T12:40:07Z</time></trkpt><trkpt lat="43.815189293422016" lon="11.151385284512557"><ele>34.0</ele><time>2026-05-01T12:40:08Z</time></trkpt><trkpt lat="43.814866220399175" lon="11.151382569190467"><ele>34.0</ele><time>2026-05-01T12:40:09Z</time></trkpt><trkpt lat="43.81454447010961" lon="11.151379018358183"><ele>34.0</ele><time>2026-05-01T12:40:10Z</time></trkpt><trkpt lat="43.81422427506615" lon="11.151380100669622"><ele>34.0</ele><time>2026-05-01T12:40:11Z</time></trkpt><trkpt lat="43.813903487048016" lon="11.151392169956964"><ele>34.0</ele><time>2026-05-01T12:40:12Z</time></trkpt><trkpt lat="43.81358678770721" lon="11.15141417332938"><ele>34.0</ele><time>2026-05-01T12:40:13Z</time></trkpt><trkpt lat="43.813271196194144" lon="11.151447746639972"><ele>34.0</ele><time>2026-05-01T12:40:14Z</time></trkpt><trkpt lat="43.812955445804135" lon="11.151491380247773"><ele>34.0</ele><time>2026-05-01T12:40:15Z</time></trkpt><trkpt lat="43.81264287032607" lon="11.15154076678779"><ele>34.5</ele><time>2026-05-01T12:40:16Z</time></trkpt><trkpt lat="43.81233196428835" lon="11.151598368705766"><ele>35.0</ele><time>2026-05-01T12:40:17Z</time></trkpt><trkpt lat="43.812022870858186" lon="11.151666312873322"><ele>34.5</ele><time>2026-05-01T12:40:18Z</time></trkpt><trkpt lat="43.81171583337546" lon="11.15174368036048"><ele>34.0</ele><time>2026-05-01T12:40:19Z</time></trkpt><trkpt lat="43.81140003901491" lon="11.151830922476812"><ele>34.0</ele><time>2026-05-01T12:40:20Z</time></trkpt><trkpt lat="43.81108148421262" lon="11.151918462185224"><ele>34.0</ele><time>2026-05-01T12:40:21Z</time></trkpt><trkpt lat="43.81075892476912" lon="11.152008305653197"><ele>34.0</ele><time>2026-05-01T12:40:22Z</time></trkpt><trkpt lat="43.81043052922695" lon="11.152100520122856"><ele>34.0</ele><time>2026-05-01T12:40:23Z</time></trkpt><trkpt lat="43.81010148145885" lon="11.152194339151976"><ele>35.5</ele><time>2026-05-01T12:40:24Z</time></trkpt><trkpt lat="43.809773594995576" lon="11.152289936313503"><ele>37.0</ele><time>2026-05-01T12:40:25Z</time></trkpt><trkpt lat="43.80944580233578" lon="11.152381003258009"><ele>36.5</ele><time>2026-05-01T12:40:26Z</time></trkpt><trkpt lat="43.809119257528714" lon="11.152468584297822"><ele>36.0</ele><time>2026-05-01T12:40:27Z</time></trkpt><trkpt lat="43.808796993494994" lon="11.152559038002318"><ele>35.0</ele><time>2026-05-01T12:40:28Z</time></trkpt><trkpt lat="43.80847511970636" lon="11.15265129456809"><ele>34.0</ele><time>2026-05-01T12:40:29Z</time></trkpt><trkpt lat="43.80815104806566" lon="11.152741189488104"><ele>34.0</ele><time>2026-05-01T12:40:30Z</time></trkpt><trkpt lat="43.807827059240466" lon="11.152831666472323"><ele>34.0</ele><time>2026-05-01T12:40:31Z</time></trkpt><trkpt lat="43.807506251723424" lon="11.15292300281026"><ele>34.0</ele><time>2026-05-01T12:40:32Z</time></trkpt><trkpt lat="43.80718598769706" lon="11.153013997992302"><ele>34.0</ele><time>2026-05-01T12:40:33Z</time></trkpt><trkpt lat="43.80686680836615" lon="11.153102562566524"><ele>33.5</ele><time>2026-05-01T12:40:34Z</time></trkpt><trkpt lat="43.80654607873882" lon="11.153191307844601"><ele>33.0</ele><time>2026-05-01T12:40:35Z</time></trkpt><trkpt lat="43.806223002116695" lon="11.153281762394798"><ele>33.5</ele><time>2026-05-01T12:40:36Z</time></trkpt><trkpt lat="43.805902061120165" lon="11.153371449913234"><ele>34.0</ele><time>2026-05-01T12:40:37Z</time></trkpt><trkpt lat="43.80558413156287" lon="11.15346363335792"><ele>34.0</ele><time>2026-05-01T12:40:38Z</time></trkpt><trkpt lat="43.80526950523136" lon="11.153553658181949"><ele>34.0</ele><time>2026-05-01T12:40:39Z</time></trkpt><trkpt lat="43.804958115316985" lon="11.15364101263516"><ele>34.5</ele><time>2026-05-01T12:40:40Z</time></trkpt><trkpt lat="43.80464490557477" lon="11.15372855952818"><ele>35.0</ele><time>2026-05-01T12:40:41Z</time></trkpt><trkpt lat="43.804321350470076" lon="11.153816239428739"><ele>35.0</ele><time>2026-05-01T12:40:42Z</time></trkpt><trkpt lat="43.803993739896214" lon="11.153903386158524"><ele>35.0</ele><time>2026-05-01T12:40:43Z</time></trkpt><trkpt lat="43.803658628995535" lon="11.153995118234935"><ele>34.5</ele><time>2026-05-01T12:40:44Z</time></trkpt><trkpt lat="43.80331169798307" lon="11.1540939338546"><ele>34.0</ele><time>2026-05-01T12:40:45Z</time></trkpt><trkpt lat="43.802981817783646" lon="11.154188258517163"><ele>34.0</ele><time>2026-05-01T12:40:46Z</time></trkpt><trkpt lat="43.802664744991596" lon="11.154277519283823"><ele>34.0</ele><time>2026-05-01T12:40:47Z</time></trkpt><trkpt lat="43.80235123599914" lon="11.154367847857404"><ele>35.0</ele><time>2026-05-01T12:40:48Z</time></trkpt><trkpt lat="43.802039787919306" lon="11.15446171047334"><ele>36.0</ele><time>2026-05-01T12:40:49Z</time></trkpt><trkpt lat="43.801724387368786" lon="11.15455578136886"><ele>36.5</ele><time>2026-05-01T12:40:50Z</time></trkpt><trkpt lat="43.801409158616686" lon="11.154647303026142"><ele>37.0</ele><time>2026-05-01T12:40:51Z</time></trkpt><trkpt lat="43.80109594955417" lon="11.154734225015266"><ele>36.0</ele><time>2026-05-01T12:40:52Z</time></trkpt><trkpt lat="43.80078469468043" lon="11.154820161869178"><ele>35.0</ele><time>2026-05-01T12:40:53Z</time></trkpt><trkpt lat="43.800473258311186" lon="11.154902415583724"><ele>35.5</ele><time>2026-05-01T12:40:54Z</time></trkpt><trkpt lat="43.80016312054975" lon="11.154984596870172"><ele>36.0</ele><time>2026-05-01T12:40:55Z</time></trkpt><trkpt lat="43.79985174463797" lon="11.155066909073838"><ele>36.0</ele><time>2026-05-01T12:40:56Z</time></trkpt><trkpt lat="43.79953889744859" lon="11.155149802483445"><ele>36.0</ele><time>2026-05-01T12:40:56.999Z</time></trkpt><trkpt lat="43.79922125823222" lon="11.15523242519722"><ele>35.5</ele><time>2026-05-01T12:40:57.999Z</time></trkpt><trkpt lat="43.79887882623591" lon="11.155308411125466"><ele>35.0</ele><time>2026-05-01T12:40:58.999Z</time></trkpt><trkpt lat="43.79852186498508" lon="11.15539113946118"><ele>35.5</ele><time>2026-05-01T12:40:59.999Z</time></trkpt><trkpt lat="43.798156363792366" lon="11.155499249031717"><ele>36.0</ele><time>2026-05-01T12:41:00.999Z</time></trkpt><trkpt lat="43.797787531845366" lon="11.155618526703337"><ele>36.0</ele><time>2026-05-01T12:41:01.999Z</time></trkpt><trkpt lat="43.797414369167704" lon="11.155739275700629"><ele>36.0</ele><time>2026-05-01T12:41:02.999Z</time></trkpt><trkpt lat="43.79703964169612" lon="11.155850244508168"><ele>35.5</ele><time>2026-05-01T12:41:03.999Z</time></trkpt><trkpt lat="43.79666495728628" lon="11.155956426339259"><ele>35.0</ele><time>2026-05-01T12:41:04.999Z</time></trkpt><trkpt lat="43.79629555020941" lon="11.156060512806045"><ele>35.0</ele><time>2026-05-01T12:41:05.999Z</time></trkpt><trkpt lat="43.79592957569094" lon="11.156163964501078"><ele>35.0</ele><time>2026-05-01T12:41:06.999Z</time></trkpt><trkpt lat="43.79556740744684" lon="11.156266536658446"><ele>35.0</ele><time>2026-05-01T12:41:07.999Z</time></trkpt><trkpt lat="43.795210169219054" lon="11.156368040787143"><ele>35.0</ele><time>2026-05-01T12:41:08.999Z</time></trkpt><trkpt lat="43.79485227650377" lon="11.156468349208193"><ele>35.0</ele><time>2026-05-01T12:41:09.999Z</time></trkpt><trkpt lat="43.794495551410414" lon="11.156567828564137"><ele>35.0</ele><time>2026-05-01T12:41:10.999Z</time></trkpt><trkpt lat="43.79414004166785" lon="11.156669520890164"><ele>35.5</ele><time>2026-05-01T12:41:11.999Z</time></trkpt><trkpt lat="43.79378853122691" lon="11.156770587612895"><ele>36.0</ele><time>2026-05-01T12:41:12.999Z</time></trkpt><trkpt lat="43.79343961698125" lon="11.156869135451128"><ele>37.5</ele><time>2026-05-01T12:41:13.999Z</time></trkpt><trkpt lat="43.793092993736245" lon="11.15696308889465"><ele>39.0</ele><time>2026-05-01T12:41:14.999Z</time></trkpt><trkpt lat="43.792748735152095" lon="11.157054807415552"><ele>37.5</ele><time>2026-05-01T12:41:15.999Z</time></trkpt><trkpt lat="43.79241019867597" lon="11.15714387308603"><ele>36.0</ele><time>2026-05-01T12:41:16.999Z</time></trkpt><trkpt lat="43.79207658884426" lon="11.157232829682503"><ele>36.0</ele><time>2026-05-01T12:41:17.999Z</time></trkpt><trkpt lat="43.79174489679624" lon="11.157323304107889"><ele>36.0</ele><time>2026-05-01T12:41:18.999Z</time></trkpt><trkpt lat="43.791414468407176" lon="11.157414715632513"><ele>36.5</ele><time>2026-05-01T12:41:19.999Z</time></trkpt><trkpt lat="43.791082443561145" lon="11.157508091986752"><ele>37.0</ele><time>2026-05-01T12:41:20.999Z</time></trkpt><trkpt lat="43.790751644309694" lon="11.15760261458998"><ele>37.0</ele><time>2026-05-01T12:41:21.999Z</time></trkpt><trkpt lat="43.79042297082274" lon="11.157694602125229"><ele>37.0</ele><time>2026-05-01T12:41:22.999Z</time></trkpt><trkpt lat="43.79009210020553" lon="11.15778425144519"><ele>37.0</ele><time>2026-05-01T12:41:23.999Z</time></trkpt><trkpt lat="43.7897592330521" lon="11.157872348452749"><ele>37.0</ele><time>2026-05-01T12:41:24.999Z</time></trkpt><trkpt lat="43.78942652565221" lon="11.157960600921378"><ele>36.5</ele><time>2026-05-01T12:41:25.999Z</time></trkpt><trkpt lat="43.789094390770444" lon="11.158049452268548"><ele>36.0</ele><time>2026-05-01T12:41:26.999Z</time></trkpt><trkpt lat="43.78876476706895" lon="11.158138479802759"><ele>37.5</ele><time>2026-05-01T12:41:27.999Z</time></trkpt><trkpt lat="43.7884337161486" lon="11.15822638561551"><ele>39.0</ele><time>2026-05-01T12:41:28.999Z</time></trkpt><trkpt lat="43.78810222248385" lon="11.158318873419365"><ele>39.0</ele><time>2026-05-01T12:41:29.999Z</time></trkpt><trkpt lat="43.78777284358668" lon="11.15841338862533"><ele>39.0</ele><time>2026-05-01T12:41:30.999Z</time></trkpt><trkpt lat="43.78744425781296" lon="11.15850765320484"><ele>38.5</ele><time>2026-05-01T12:41:31.999Z</time></trkpt><trkpt lat="43.787114392625284" lon="11.158602240706864"><ele>38.0</ele><time>2026-05-01T12:41:32.999Z</time></trkpt><trkpt lat="43.7867850487572" lon="11.158698858592993"><ele>37.0</ele><time>2026-05-01T12:41:33.999Z</time></trkpt><trkpt lat="43.78645464886093" lon="11.158795577912324"><ele>36.0</ele><time>2026-05-01T12:41:34.999Z</time></trkpt><trkpt lat="43.786122449998295" lon="11.158891931007641"><ele>36.5</ele><time>2026-05-01T12:41:35.999Z</time></trkpt><trkpt lat="43.785789462074405" lon="11.15898875588912"><ele>37.0</ele><time>2026-05-01T12:41:36.999Z</time></trkpt><trkpt lat="43.78545710316526" lon="11.159085424918397"><ele>37.5</ele><time>2026-05-01T12:41:37.999Z</time></trkpt><trkpt lat="43.78512294987478" lon="11.159178672759676"><ele>38.0</ele><time>2026-05-01T12:41:38.999Z</time></trkpt><trkpt lat="43.78478779069125" lon="11.159273259134757"><ele>38.0</ele><time>2026-05-01T12:41:39.999Z</time></trkpt><trkpt lat="43.78445201706083" lon="11.159367688081694"><ele>38.0</ele><time>2026-05-01T12:41:40.999Z</time></trkpt><trkpt lat="43.784115993420414" lon="11.159463554823516"><ele>37.5</ele><time>2026-05-01T12:41:41.999Z</time></trkpt><trkpt lat="43.78378000412363" lon="11.15955940931301"><ele>37.0</ele><time>2026-05-01T12:41:42.999Z</time></trkpt><trkpt lat="43.78344523071072" lon="11.159654772019346"><ele>37.0</ele><time>2026-05-01T12:41:43.999Z</time></trkpt><trkpt lat="43.783110473196466" lon="11.159749845186928"><ele>37.0</ele><time>2026-05-01T12:41:44.999Z</time></trkpt><trkpt lat="43.782778464003364" lon="11.15984435569669"><ele>36.0</ele><time>2026-05-01T12:41:45.999Z</time></trkpt><trkpt lat="43.78244628420683" lon="11.159936936271892"><ele>35.0</ele><time>2026-05-01T12:41:46.999Z</time></trkpt><trkpt lat="43.78211463146804" lon="11.16002868537192"><ele>34.5</ele><time>2026-05-01T12:41:47.999Z</time></trkpt><trkpt lat="43.78178553031274" lon="11.16011949666738"><ele>34.0</ele><time>2026-05-01T12:41:48.999Z</time></trkpt><trkpt lat="43.7814551498423" lon="11.160213264764836"><ele>34.0</ele><time>2026-05-01T12:41:49.999Z</time></trkpt><trkpt lat="43.781126465615046" lon="11.160307135461284"><ele>34.0</ele><time>2026-05-01T12:41:50.999Z</time></trkpt><trkpt lat="43.78079860141452" lon="11.160399007313027"><ele>34.0</ele><time>2026-05-01T12:41:51.999Z</time></trkpt><trkpt lat="43.7804688546076" lon="11.160491690656634"><ele>34.0</ele><time>2026-05-01T12:41:52.999Z</time></trkpt><trkpt lat="43.780137365986604" lon="11.160584495275133"><ele>34.0</ele><time>2026-05-01T12:41:53.999Z</time></trkpt><trkpt lat="43.77980808122278" lon="11.160675664343298"><ele>34.0</ele><time>2026-05-01T12:41:54.999Z</time></trkpt><trkpt lat="43.77947817980323" lon="11.160767083863572"><ele>35.5</ele><time>2026-05-01T12:41:55.999Z</time></trkpt><trkpt lat="43.77914958434589" lon="11.160858685354844"><ele>37.0</ele><time>2026-05-01T12:41:56.999Z</time></trkpt><trkpt lat="43.77882203909907" lon="11.160950131138629"><ele>36.0</ele><time>2026-05-01T12:41:57.999Z</time></trkpt><trkpt lat="43.77849467114009" lon="11.1610433381941"><ele>35.0</ele><time>2026-05-01T12:41:58.999Z</time></trkpt><trkpt lat="43.77816849859135" lon="11.161135171986627"><ele>35.0</ele><time>2026-05-01T12:41:59.999Z</time></trkpt><trkpt lat="43.7778417762985" lon="11.161221665790498"><ele>35.0</ele><time>2026-05-01T12:42:00.999Z</time></trkpt><trkpt lat="43.777517036150215" lon="11.161307908000845"><ele>34.5</ele><time>2026-05-01T12:42:02Z</time></trkpt><trkpt lat="43.77718943642092" lon="11.161393267492366"><ele>34.0</ele><time>2026-05-01T12:42:03Z</time></trkpt><trkpt lat="43.77686314643724" lon="11.161477257700673"><ele>35.5</ele><time>2026-05-01T12:42:04Z</time></trkpt><trkpt lat="43.77653700411358" lon="11.161560365727258"><ele>37.0</ele><time>2026-05-01T12:42:05Z</time></trkpt><trkpt lat="43.776210544004485" lon="11.161644565018754"><ele>35.5</ele><time>2026-05-01T12:42:06Z</time></trkpt><trkpt lat="43.775883859128804" lon="11.161731617028003"><ele>34.0</ele><time>2026-05-01T12:42:07Z</time></trkpt><trkpt lat="43.77555754206934" lon="11.161823787122657"><ele>34.0</ele><time>2026-05-01T12:42:08Z</time></trkpt><trkpt lat="43.775231627986514" lon="11.161917203871601"><ele>34.0</ele><time>2026-05-01T12:42:09Z</time></trkpt><trkpt lat="43.77490678919401" lon="11.162009255385122"><ele>34.0</ele><time>2026-05-01T12:42:10Z</time></trkpt><trkpt lat="43.77458274709331" lon="11.162100185208692"><ele>34.0</ele><time>2026-05-01T12:42:11Z</time></trkpt><trkpt lat="43.7742587524881" lon="11.162191937728903"><ele>34.0</ele><time>2026-05-01T12:42:12Z</time></trkpt><trkpt lat="43.77393549460556" lon="11.16228531517606"><ele>34.0</ele><time>2026-05-01T12:42:13Z</time></trkpt><trkpt lat="43.77361385578424" lon="11.162381600168313"><ele>34.5</ele><time>2026-05-01T12:42:14Z</time></trkpt><trkpt lat="43.77329272907726" lon="11.162483229959962"><ele>35.0</ele><time>2026-05-01T12:42:15Z</time></trkpt><trkpt lat="43.77297320737519" lon="11.162592655402989"><ele>35.0</ele><time>2026-05-01T12:42:16Z</time></trkpt><trkpt lat="43.77265593313381" lon="11.162709699305475"><ele>35.0</ele><time>2026-05-01T12:42:17Z</time></trkpt><trkpt lat="43.77233662515333" lon="11.162835215126488"><ele>35.0</ele><time>2026-05-01T12:42:18Z</time></trkpt><trkpt lat="43.772022456840766" lon="11.16297359641052"><ele>35.0</ele><time>2026-05-01T12:42:19Z</time></trkpt><trkpt lat="43.771715340622976" lon="11.163128173510698"><ele>36.5</ele><time>2026-05-01T12:42:20Z</time></trkpt><trkpt lat="43.77140795038415" lon="11.163287713381408"><ele>38.0</ele><time>2026-05-01T12:42:21Z</time></trkpt><trkpt lat="43.771103240899585" lon="11.16345509708716"><ele>37.0</ele><time>2026-05-01T12:42:22Z</time></trkpt><trkpt lat="43.770801328411764" lon="11.16362884112581"><ele>36.0</ele><time>2026-05-01T12:42:23Z</time></trkpt><trkpt lat="43.77050226790305" lon="11.163810131456161"><ele>36.0</ele><time>2026-05-01T12:42:24Z</time></trkpt><trkpt lat="43.77020681880437" lon="11.163999887843824"><ele>36.0</ele><time>2026-05-01T12:42:25Z</time></trkpt><trkpt lat="43.769914245745035" lon="11.164200083425488"><ele>36.5</ele><time>2026-05-01T12:42:26Z</time></trkpt><trkpt lat="43.769623772424865" lon="11.16440342309518"><ele>37.0</ele><time>2026-05-01T12:42:27Z</time></trkpt><trkpt lat="43.76933922540336" lon="11.16460602219464"><ele>38.5</ele><time>2026-05-01T12:42:28Z</time></trkpt><trkpt lat="43.769054593548766" lon="11.164810534007254"><ele>40.0</ele><time>2026-05-01T12:42:29Z</time></trkpt><trkpt lat="43.76877070060734" lon="11.165016905852486"><ele>39.0</ele><time>2026-05-01T12:42:30Z</time></trkpt><trkpt lat="43.76848814337065" lon="11.165225663838672"><ele>38.0</ele><time>2026-05-01T12:42:31Z</time></trkpt><trkpt lat="43.76820804397782" lon="11.165433918457213"><ele>38.0</ele><time>2026-05-01T12:42:32Z</time></trkpt><trkpt lat="43.767929126375655" lon="11.165641085434988"><ele>38.0</ele><time>2026-05-01T12:42:33Z</time></trkpt><trkpt lat="43.76764727661473" lon="11.165845383326632"><ele>37.5</ele><time>2026-05-01T12:42:34Z</time></trkpt><trkpt lat="43.767366379764425" lon="11.16605122858267"><ele>37.0</ele><time>2026-05-01T12:42:35Z</time></trkpt><trkpt lat="43.76709463059908" lon="11.166256765335461"><ele>37.0</ele><time>2026-05-01T12:42:36Z</time></trkpt><trkpt lat="43.76682070766205" lon="11.166464791277024"><ele>37.0</ele><time>2026-05-01T12:42:37Z</time></trkpt><trkpt lat="43.76653790012623" lon="11.166680985218528"><ele>37.0</ele><time>2026-05-01T12:42:38Z</time></trkpt><trkpt lat="43.7662498082485" lon="11.166898825866811"><ele>37.0</ele><time>2026-05-01T12:42:39Z</time></trkpt><trkpt lat="43.76595868802827" lon="11.167117763031746"><ele>37.5</ele><time>2026-05-01T12:42:40Z</time></trkpt><trkpt lat="43.765664900738756" lon="11.16733751886671"><ele>38.0</ele><time>2026-05-01T12:42:41Z</time></trkpt><trkpt lat="43.76536985118712" lon="11.167561827244544"><ele>37.5</ele><time>2026-05-01T12:42:42Z</time></trkpt><trkpt lat="43.76507423854479" lon="11.167787907138019"><ele>37.0</ele><time>2026-05-01T12:42:43Z</time></trkpt><trkpt lat="43.764776444235586" lon="11.16801078895582"><ele>38.0</ele><time>2026-05-01T12:42:44Z</time></trkpt><trkpt lat="43.76447704597535" lon="11.168227304738654"><ele>39.0</ele><time>2026-05-01T12:42:45Z</time></trkpt><trkpt lat="43.76417488302426" lon="11.168434314967394"><ele>39.0</ele><time>2026-05-01T12:42:46Z</time></trkpt><trkpt lat="43.76386886918838" lon="11.168629384855521"><ele>39.0</ele><time>2026-05-01T12:42:47Z</time></trkpt><trkpt lat="43.76355850979597" lon="11.168812862364657"><ele>39.5</ele><time>2026-05-01T12:42:48Z</time></trkpt><trkpt lat="43.763245986093125" lon="11.16898872575966"><ele>40.0</ele><time>2026-05-01T12:42:49Z</time></trkpt><trkpt lat="43.76293148057498" lon="11.169158850297357"><ele>42.0</ele><time>2026-05-01T12:42:50Z</time></trkpt><trkpt lat="43.762398773168314" lon="11.169167930998533"><ele>42.0</ele><time>2026-05-01T12:42:51Z</time></trkpt><trkpt lat="43.76206167633279" lon="11.169292347931147"><ele>42.0</ele><time>2026-05-01T12:42:52Z</time></trkpt><trkpt lat="43.76188343289205" lon="11.16945049051969"><ele>41.0</ele><time>2026-05-01T12:42:53Z</time></trkpt><trkpt lat="43.7615706637158" lon="11.169561639382968"><ele>40.0</ele><time>2026-05-01T12:42:54Z</time></trkpt><trkpt lat="43.76124098003835" lon="11.16964824914258"><ele>40.0</ele><time>2026-05-01T12:42:55Z</time></trkpt><trkpt lat="43.76090756558985" lon="11.169732454857572"><ele>40.0</ele><time>2026-05-01T12:42:56Z</time></trkpt><trkpt lat="43.760575101563745" lon="11.16980518830557"><ele>40.0</ele><time>2026-05-01T12:42:57Z</time></trkpt><trkpt lat="43.760241663060555" lon="11.169864860960612"><ele>40.0</ele><time>2026-05-01T12:42:58Z</time></trkpt><trkpt lat="43.75990602393454" lon="11.169928417576987"><ele>40.0</ele><time>2026-05-01T12:42:59Z</time></trkpt><trkpt lat="43.75957274918594" lon="11.169996043753548"><ele>40.0</ele><time>2026-05-01T12:43:00Z</time></trkpt><trkpt lat="43.759235096239806" lon="11.170061866322381"><ele>41.0</ele><time>2026-05-01T12:43:00.999Z</time></trkpt><trkpt lat="43.75889859466099" lon="11.17012551499374"><ele>42.0</ele><time>2026-05-01T12:43:01.999Z</time></trkpt><trkpt lat="43.75856283441131" lon="11.170187035678467"><ele>41.5</ele><time>2026-05-01T12:43:02.999Z</time></trkpt><trkpt lat="43.758226232538306" lon="11.170246842155098"><ele>41.0</ele><time>2026-05-01T12:43:03.999Z</time></trkpt><trkpt lat="43.7578900355882" lon="11.170308246968434"><ele>41.0</ele><time>2026-05-01T12:43:04.999Z</time></trkpt><trkpt lat="43.7575549255334" lon="11.170369963082267"><ele>41.0</ele><time>2026-05-01T12:43:05.999Z</time></trkpt><trkpt lat="43.7572231436329" lon="11.170431038112781"><ele>41.0</ele><time>2026-05-01T12:43:06.999Z</time></trkpt><trkpt lat="43.75689135764877" lon="11.170490854845545"><ele>41.0</ele><time>2026-05-01T12:43:07.999Z</time></trkpt><trkpt lat="43.75656003138577" lon="11.170552954931665"><ele>42.0</ele><time>2026-05-01T12:43:08.999Z</time></trkpt><trkpt lat="43.75622977949295" lon="11.170613694155167"><ele>43.0</ele><time>2026-05-01T12:43:09.999Z</time></trkpt><trkpt lat="43.7559008939043" lon="11.170673276549811"><ele>43.5</ele><time>2026-05-01T12:43:10.999Z</time></trkpt><trkpt lat="43.755571292054704" lon="11.170733060988361"><ele>44.0</ele><time>2026-05-01T12:43:11.999Z</time></trkpt><trkpt lat="43.7552432332394" lon="11.17078659299999"><ele>43.5</ele><time>2026-05-01T12:43:12.999Z</time></trkpt><trkpt lat="43.754914920888844" lon="11.170836496826077"><ele>43.0</ele><time>2026-05-01T12:43:13.999Z</time></trkpt><trkpt lat="43.754582874168925" lon="11.170893553404571"><ele>43.5</ele><time>2026-05-01T12:43:14.999Z</time></trkpt><trkpt lat="43.75425242142697" lon="11.170953279657875"><ele>44.0</ele><time>2026-05-01T12:43:15.999Z</time></trkpt><trkpt lat="43.75391844338736" lon="11.171012231394476"><ele>44.0</ele><time>2026-05-01T12:43:16.999Z</time></trkpt><trkpt lat="43.7535844749413" lon="11.171071043911224"><ele>44.0</ele><time>2026-05-01T12:43:17.999Z</time></trkpt><trkpt lat="43.75324790559649" lon="11.171129975052176"><ele>44.5</ele><time>2026-05-01T12:43:18.999Z</time></trkpt><trkpt lat="43.75291137152706" lon="11.171189587030465"><ele>45.0</ele><time>2026-05-01T12:43:19.999Z</time></trkpt><trkpt lat="43.75257257799495" lon="11.171248201543587"><ele>45.0</ele><time>2026-05-01T12:43:20.999Z</time></trkpt><trkpt lat="43.75223532616528" lon="11.171309953586714"><ele>45.0</ele><time>2026-05-01T12:43:21.999Z</time></trkpt><trkpt lat="43.751900457918026" lon="11.171373780470221"><ele>45.0</ele><time>2026-05-01T12:43:22.999Z</time></trkpt><trkpt lat="43.751566027944456" lon="11.17143969437144"><ele>45.0</ele><time>2026-05-01T12:43:23.999Z</time></trkpt><trkpt lat="43.75123496825011" lon="11.17150649800298"><ele>46.0</ele><time>2026-05-01T12:43:24.999Z</time></trkpt><trkpt lat="43.750910386160626" lon="11.17157424387346"><ele>47.0</ele><time>2026-05-01T12:43:25.999Z</time></trkpt><trkpt lat="43.75058083380582" lon="11.171644397163309"><ele>47.0</ele><time>2026-05-01T12:43:26.999Z</time></trkpt><trkpt lat="43.75024731586129" lon="11.17171430312588"><ele>47.0</ele><time>2026-05-01T12:43:27.999Z</time></trkpt><trkpt lat="43.74991434816424" lon="11.171780061842872"><ele>47.0</ele><time>2026-05-01T12:43:28.999Z</time></trkpt><trkpt lat="43.74958029818105" lon="11.171843095524542"><ele>47.0</ele><time>2026-05-01T12:43:29.999Z</time></trkpt><trkpt lat="43.74924464936463" lon="11.171903504339305"><ele>48.0</ele><time>2026-05-01T12:43:30.999Z</time></trkpt><trkpt lat="43.74890828767667" lon="11.171964870131255"><ele>49.0</ele><time>2026-05-01T12:43:31.999Z</time></trkpt><trkpt lat="43.748574701486966" lon="11.172034435171273"><ele>49.0</ele><time>2026-05-01T12:43:32.999Z</time></trkpt><trkpt lat="43.74824274422103" lon="11.172117547391675"><ele>49.0</ele><time>2026-05-01T12:43:33.999Z</time></trkpt><trkpt lat="43.747915804397955" lon="11.172212392129662"><ele>49.0</ele><time>2026-05-01T12:43:34.999Z</time></trkpt><trkpt lat="43.74760220906217" lon="11.172328334158887"><ele>49.0</ele><time>2026-05-01T12:43:35.999Z</time></trkpt><trkpt lat="43.747300471731684" lon="11.172478274582474"><ele>49.0</ele><time>2026-05-01T12:43:36.999Z</time></trkpt><trkpt lat="43.747011015279504" lon="11.172668885629399"><ele>49.0</ele><time>2026-05-01T12:43:37.999Z</time></trkpt><trkpt lat="43.74673058438767" lon="11.17288604074427"><ele>50.5</ele><time>2026-05-01T12:43:38.999Z</time></trkpt><trkpt lat="43.74646158464296" lon="11.173123761275868"><ele>52.0</ele><time>2026-05-01T12:43:39.999Z</time></trkpt><trkpt lat="43.74620685356832" lon="11.173390233563449"><ele>53.5</ele><time>2026-05-01T12:43:40.999Z</time></trkpt><trkpt lat="43.74596607504953" lon="11.173685538365463"><ele>55.0</ele><time>2026-05-01T12:43:41.999Z</time></trkpt><trkpt lat="43.74574240642821" lon="11.174001777746158"><ele>54.5</ele><time>2026-05-01T12:43:42.999Z</time></trkpt><trkpt lat="43.74553479477673" lon="11.174337279391745"><ele>54.0</ele><time>2026-05-01T12:43:43.999Z</time></trkpt><trkpt lat="43.74534519826832" lon="11.174694137412306"><ele>53.5</ele><time>2026-05-01T12:43:44.999Z</time></trkpt><trkpt lat="43.74517707581983" lon="11.175069705797931"><ele>53.0</ele><time>2026-05-01T12:43:45.999Z</time></trkpt><trkpt lat="43.7450218524236" lon="11.175458756982207"><ele>53.5</ele><time>2026-05-01T12:43:46.999Z</time></trkpt><trkpt lat="43.74488555245934" lon="11.175866689026504"><ele>54.0</ele><time>2026-05-01T12:43:47.999Z</time></trkpt><trkpt lat="43.7447632935858" lon="11.17628172676595"><ele>56.5</ele><time>2026-05-01T12:43:48.999Z</time></trkpt><trkpt lat="43.74464667888135" lon="11.176708392272099"><ele>59.0</ele><time>2026-05-01T12:43:49.999Z</time></trkpt><trkpt lat="43.74452494159052" lon="11.177133168357676"><ele>58.5</ele><time>2026-05-01T12:43:50.999Z</time></trkpt><trkpt lat="43.744398816254" lon="11.177558644601717"><ele>58.0</ele><time>2026-05-01T12:43:51.999Z</time></trkpt><trkpt lat="43.74427015749367" lon="11.177983169082644"><ele>59.5</ele><time>2026-05-01T12:43:52.999Z</time></trkpt><trkpt lat="43.74412935751137" lon="11.178405103454859"><ele>61.0</ele><time>2026-05-01T12:43:53.999Z</time></trkpt><trkpt lat="43.74397059849548" lon="11.178814555687081"><ele>59.0</ele><time>2026-05-01T12:43:54.999Z</time></trkpt><trkpt lat="43.74379014269976" lon="11.179203988937168"><ele>57.0</ele><time>2026-05-01T12:43:55.999Z</time></trkpt><trkpt lat="43.743584003868996" lon="11.179564686171178"><ele>57.5</ele><time>2026-05-01T12:43:56.999Z</time></trkpt><trkpt lat="43.74335578453209" lon="11.179898914045427"><ele>58.0</ele><time>2026-05-01T12:43:57.999Z</time></trkpt><trkpt lat="43.74311235171362" lon="11.180203806093031"><ele>58.0</ele><time>2026-05-01T12:43:58.999Z</time></trkpt><trkpt lat="43.74285457679688" lon="11.180479321603622"><ele>58.0</ele><time>2026-05-01T12:43:59.999Z</time></trkpt><trkpt lat="43.74258914231743" lon="11.180738594211821"><ele>57.5</ele><time>2026-05-01T12:44:00.999Z</time></trkpt><trkpt lat="43.742320385295564" lon="11.180995155303822"><ele>57.0</ele><time>2026-05-01T12:44:01.999Z</time></trkpt><trkpt lat="43.74204649293883" lon="11.181249527446699"><ele>58.0</ele><time>2026-05-01T12:44:02.999Z</time></trkpt><trkpt lat="43.74177313030224" lon="11.181503724545596"><ele>59.0</ele><time>2026-05-01T12:44:03.999Z</time></trkpt><trkpt lat="43.741498447693026" lon="11.181758437807181"><ele>59.0</ele><time>2026-05-01T12:44:04.999Z</time></trkpt><trkpt lat="43.74122049459764" lon="11.182013600817113"><ele>59.0</ele><time>2026-05-01T12:44:05.999Z</time></trkpt><trkpt lat="43.74094050561474" lon="11.18227176490043"><ele>61.0</ele><time>2026-05-01T12:44:06.999Z</time></trkpt><trkpt lat="43.74066055140099" lon="11.182533058330625"><ele>63.0</ele><time>2026-05-01T12:44:08Z</time></trkpt><trkpt lat="43.74038243225922" lon="11.182795969720287"><ele>63.0</ele><time>2026-05-01T12:44:09Z</time></trkpt><trkpt lat="43.74010517583416" lon="11.183058586642812"><ele>63.0</ele><time>2026-05-01T12:44:10Z</time></trkpt><trkpt lat="43.73982754976494" lon="11.183320181701951"><ele>63.0</ele><time>2026-05-01T12:44:11Z</time></trkpt><trkpt lat="43.73955119868844" lon="11.183580935836545"><ele>63.0</ele><time>2026-05-01T12:44:12Z</time></trkpt><trkpt lat="43.73927709496143" lon="11.183837169641048"><ele>64.0</ele><time>2026-05-01T12:44:13Z</time></trkpt><trkpt lat="43.73900224900417" lon="11.184092739871232"><ele>65.0</ele><time>2026-05-01T12:44:14Z</time></trkpt><trkpt lat="43.73872816095723" lon="11.18434772724914"><ele>66.0</ele><time>2026-05-01T12:44:15Z</time></trkpt><trkpt lat="43.73845410150564" lon="11.184604070281312"><ele>67.0</ele><time>2026-05-01T12:44:16Z</time></trkpt><trkpt lat="43.738178399980725" lon="11.184859278993537"><ele>67.0</ele><time>2026-05-01T12:44:17Z</time></trkpt><trkpt lat="43.737900962987965" lon="11.185108905313337"><ele>67.0</ele><time>2026-05-01T12:44:18Z</time></trkpt><trkpt lat="43.737618621008586" lon="11.18534881402203"><ele>71.0</ele><time>2026-05-01T12:44:19Z</time></trkpt><trkpt lat="43.7373286474417" lon="11.185581087131506"><ele>75.0</ele><time>2026-05-01T12:44:20Z</time></trkpt><trkpt lat="43.737032209816384" lon="11.18580006469479"><ele>80.5</ele><time>2026-05-01T12:44:21Z</time></trkpt><trkpt lat="43.73672881381417" lon="11.186007875096863"><ele>86.0</ele><time>2026-05-01T12:44:22Z</time></trkpt><trkpt lat="43.73642056554235" lon="11.186203660798032"><ele>86.0</ele><time>2026-05-01T12:44:23Z</time></trkpt><trkpt lat="43.73610775818436" lon="11.186385516058657"><ele>86.0</ele><time>2026-05-01T12:44:24Z</time></trkpt><trkpt lat="43.73579516987633" lon="11.186556615216096"><ele>86.0</ele><time>2026-05-01T12:44:25Z</time></trkpt><trkpt lat="43.73548179025514" lon="11.18672033402049"><ele>86.0</ele><time>2026-05-01T12:44:26Z</time></trkpt><trkpt lat="43.73516846892825" lon="11.186882571299348"><ele>86.0</ele><time>2026-05-01T12:44:27Z</time></trkpt><trkpt lat="43.73485579863766" lon="11.187045731728418"><ele>86.0</ele><time>2026-05-01T12:44:28Z</time></trkpt><trkpt lat="43.734542933073136" lon="11.187210417931057"><ele>81.5</ele><time>2026-05-01T12:44:29Z</time></trkpt><trkpt lat="43.73423278971997" lon="11.18737750056026"><ele>77.0</ele><time>2026-05-01T12:44:30Z</time></trkpt><trkpt lat="43.73392524320702" lon="11.1875418794779"><ele>77.0</ele><time>2026-05-01T12:44:31Z</time></trkpt><trkpt lat="43.73361850901987" lon="11.187703994489103"><ele>77.0</ele><time>2026-05-01T12:44:32Z</time></trkpt><trkpt lat="43.733317432677936" lon="11.187869492807973"><ele>74.5</ele><time>2026-05-01T12:44:33Z</time></trkpt><trkpt lat="43.73301710368589" lon="11.188046300538474"><ele>72.0</ele><time>2026-05-01T12:44:34Z</time></trkpt><trkpt lat="43.73272482214773" lon="11.188242649563618"><ele>76.5</ele><time>2026-05-01T12:44:35Z</time></trkpt><trkpt lat="43.73244238118379" lon="11.18846175018534"><ele>81.0</ele><time>2026-05-01T12:44:36Z</time></trkpt><trkpt lat="43.7321738791557" lon="11.188704977001146"><ele>81.0</ele><time>2026-05-01T12:44:37Z</time></trkpt><trkpt lat="43.7319145878378" lon="11.18896960436928"><ele>81.0</ele><time>2026-05-01T12:44:38Z</time></trkpt><trkpt lat="43.731670026933145" lon="11.189258264974056"><ele>83.5</ele><time>2026-05-01T12:44:39Z</time></trkpt><trkpt lat="43.73143714863107" lon="11.189567485745462"><ele>86.0</ele><time>2026-05-01T12:44:40Z</time></trkpt><trkpt lat="43.731219369094596" lon="11.189896017211444"><ele>82.5</ele><time>2026-05-01T12:44:41Z</time></trkpt><trkpt lat="43.73101394974147" lon="11.190239707299847"><ele>79.0</ele><time>2026-05-01T12:44:42Z</time></trkpt><trkpt lat="43.7308209327651" lon="11.190598979754851"><ele>81.5</ele><time>2026-05-01T12:44:43Z</time></trkpt><trkpt lat="43.7306354911238" lon="11.19096927290612"><ele>84.0</ele><time>2026-05-01T12:44:44Z</time></trkpt><trkpt lat="43.73045586027432" lon="11.191341486489605"><ele>85.0</ele><time>2026-05-01T12:44:45Z</time></trkpt><trkpt lat="43.730272804872705" lon="11.191721231533101"><ele>86.0</ele><time>2026-05-01T12:44:46Z</time></trkpt><trkpt lat="43.73009005344871" lon="11.1921074801838"><ele>89.5</ele><time>2026-05-01T12:44:47Z</time></trkpt><trkpt lat="43.72990778412815" lon="11.192496975043634"><ele>93.0</ele><time>2026-05-01T12:44:48Z</time></trkpt><trkpt lat="43.72972744869792" lon="11.192887949527782"><ele>93.5</ele><time>2026-05-01T12:44:49Z</time></trkpt><trkpt lat="43.72954381834339" lon="11.193280172041879"><ele>94.0</ele><time>2026-05-01T12:44:50Z</time></trkpt><trkpt lat="43.72935729370594" lon="11.193674647581698"><ele>106.5</ele><time>2026-05-01T12:44:51Z</time></trkpt><trkpt lat="43.72916901652849" lon="11.194070388332428"><ele>119.0</ele><time>2026-05-01T12:44:52Z</time></trkpt><trkpt lat="43.7289804541861" lon="11.194467420799329"><ele>116.5</ele><time>2026-05-01T12:44:53Z</time></trkpt><trkpt lat="43.72879301483918" lon="11.194863098618866"><ele>114.0</ele><time>2026-05-01T12:44:54Z</time></trkpt><trkpt lat="43.728608164352124" lon="11.195258102931083"><ele>120.0</ele><time>2026-05-01T12:44:55Z</time></trkpt><trkpt lat="43.72842723537223" lon="11.195655128052305"><ele>126.0</ele><time>2026-05-01T12:44:56Z</time></trkpt><trkpt lat="43.728252286083894" lon="11.196053434318445"><ele>126.0</ele><time>2026-05-01T12:44:57Z</time></trkpt><trkpt lat="43.72809015471266" lon="11.196453731764056"><ele>126.0</ele><time>2026-05-01T12:44:58Z</time></trkpt><trkpt lat="43.7279348486672" lon="11.196856131310312"><ele>127.0</ele><time>2026-05-01T12:44:59Z</time></trkpt><trkpt lat="43.727831169625546" lon="11.19723980216945"><ele>128.0</ele><time>2026-05-01T12:45:00Z</time></trkpt><trkpt lat="43.727714218402916" lon="11.197633543770886"><ele>139.5</ele><time>2026-05-01T12:45:00.999Z</time></trkpt><trkpt lat="43.72761069904006" lon="11.198042232401248"><ele>151.0</ele><time>2026-05-01T12:45:01.999Z</time></trkpt><trkpt lat="43.72751726049067" lon="11.198448441332193"><ele>155.0</ele><time>2026-05-01T12:45:02.999Z</time></trkpt><trkpt lat="43.727433940043575" lon="11.198860292175887"><ele>159.0</ele><time>2026-05-01T12:45:03.999Z</time></trkpt><trkpt lat="43.727357069374854" lon="11.199278664113532"><ele>163.5</ele><time>2026-05-01T12:45:04.999Z</time></trkpt><trkpt lat="43.72728988503016" lon="11.199700919896914"><ele>168.0</ele><time>2026-05-01T12:45:05.999Z</time></trkpt><trkpt lat="43.7272375770013" lon="11.200128831238526"><ele>172.0</ele><time>2026-05-01T12:45:06.999Z</time></trkpt><trkpt lat="43.72719404673085" lon="11.200563440999527"><ele>176.0</ele><time>2026-05-01T12:45:07.999Z</time></trkpt><trkpt lat="43.72715772169808" lon="11.201006760365498"><ele>177.5</ele><time>2026-05-01T12:45:08.999Z</time></trkpt><trkpt lat="43.72712916610808" lon="11.201462000775374"><ele>179.0</ele><time>2026-05-01T12:45:09.999Z</time></trkpt><trkpt lat="43.72711724542021" lon="11.201921415759054"><ele>167.0</ele><time>2026-05-01T12:45:10.999Z</time></trkpt><trkpt lat="43.727125267238364" lon="11.202358458180422"><ele>155.0</ele><time>2026-05-01T12:45:11.999Z</time></trkpt><trkpt lat="43.72713720982709" lon="11.202793346629461"><ele>151.0</ele><time>2026-05-01T12:45:12.999Z</time></trkpt><trkpt lat="43.72715741913322" lon="11.203218604054793"><ele>147.0</ele><time>2026-05-01T12:45:13.999Z</time></trkpt><trkpt lat="43.727177783427074" lon="11.203652022985748"><ele>144.5</ele><time>2026-05-01T12:45:14.999Z</time></trkpt><trkpt lat="43.72721451484921" lon="11.204056772298118"><ele>142.0</ele><time>2026-05-01T12:45:15.999Z</time></trkpt><trkpt lat="43.72724735247404" lon="11.204480772265448"><ele>138.0</ele><time>2026-05-01T12:45:16.999Z</time></trkpt><trkpt lat="43.72727950460064" lon="11.204910955818955"><ele>134.0</ele><time>2026-05-01T12:45:17.999Z</time></trkpt><trkpt lat="43.727316798402214" lon="11.205345856397571"><ele>128.5</ele><time>2026-05-01T12:45:18.999Z</time></trkpt><trkpt lat="43.72735336474966" lon="11.205794347019742"><ele>123.0</ele><time>2026-05-01T12:45:19.999Z</time></trkpt><trkpt lat="43.72734186713428" lon="11.206378331469725"><ele>121.0</ele><time>2026-05-01T12:45:20.999Z</time></trkpt><trkpt lat="43.72731484078794" lon="11.206900305264574"><ele>119.0</ele><time>2026-05-01T12:45:21.999Z</time></trkpt><trkpt lat="43.72730621812686" lon="11.207408259412794"><ele>117.0</ele><time>2026-05-01T12:45:22.999Z</time></trkpt><trkpt lat="43.727249721762796" lon="11.20797106514468"><ele>115.0</ele><time>2026-05-01T12:45:23.999Z</time></trkpt><trkpt lat="43.727050637018536" lon="11.208437890246874"><ele>114.0</ele><time>2026-05-01T12:45:24.999Z</time></trkpt><trkpt lat="43.72702717540059" lon="11.208910497971548"><ele>113.0</ele><time>2026-05-01T12:45:25.999Z</time></trkpt><trkpt lat="43.726998284509214" lon="11.209396342994866"><ele>114.0</ele><time>2026-05-01T12:45:26.999Z</time></trkpt><trkpt lat="43.72696714363331" lon="11.20990471824641"><ele>115.0</ele><time>2026-05-01T12:45:27.999Z</time></trkpt><trkpt lat="43.726939725455686" lon="11.210381547362188"><ele>112.5</ele><time>2026-05-01T12:45:28.999Z</time></trkpt><trkpt lat="43.7269004229229" lon="11.210837447511437"><ele>110.0</ele><time>2026-05-01T12:45:29.999Z</time></trkpt><trkpt lat="43.726868122676784" lon="11.211290474582677"><ele>104.5</ele><time>2026-05-01T12:45:30.999Z</time></trkpt><trkpt lat="43.72683536497995" lon="11.211744117257204"><ele>99.0</ele><time>2026-05-01T12:45:31.999Z</time></trkpt><trkpt lat="43.726805066453714" lon="11.21219786573349"><ele>99.0</ele><time>2026-05-01T12:45:32.999Z</time></trkpt><trkpt lat="43.726774621847554" lon="11.212647429321239"><ele>99.0</ele><time>2026-05-01T12:45:33.999Z</time></trkpt><trkpt lat="43.72674252524861" lon="11.213096296705066"><ele>97.5</ele><time>2026-05-01T12:45:34.999Z</time></trkpt><trkpt lat="43.726708268204455" lon="11.213547874286155"><ele>96.0</ele><time>2026-05-01T12:45:35.999Z</time></trkpt><trkpt lat="43.726665872916534" lon="11.213999900736132"><ele>95.5</ele><time>2026-05-01T12:45:36.999Z</time></trkpt><trkpt lat="43.72661336940132" lon="11.214448353347999"><ele>95.0</ele><time>2026-05-01T12:45:37.999Z</time></trkpt><trkpt lat="43.726550310217085" lon="11.21489279424082"><ele>94.5</ele><time>2026-05-01T12:45:38.999Z</time></trkpt><trkpt lat="43.7264748263806" lon="11.215331379950497"><ele>94.0</ele><time>2026-05-01T12:45:39.999Z</time></trkpt><trkpt lat="43.72638413448939" lon="11.215756668900845"><ele>91.5</ele><time>2026-05-01T12:45:40.999Z</time></trkpt><trkpt lat="43.726274999534986" lon="11.216169319137375"><ele>89.0</ele><time>2026-05-01T12:45:41.999Z</time></trkpt><trkpt lat="43.7261516457701" lon="11.216579557529474"><ele>91.0</ele><time>2026-05-01T12:45:42.999Z</time></trkpt><trkpt lat="43.726012148467255" lon="11.216992853553768"><ele>93.0</ele><time>2026-05-01T12:45:43.999Z</time></trkpt><trkpt lat="43.72585929835114" lon="11.21740316983441"><ele>93.0</ele><time>2026-05-01T12:45:44.999Z</time></trkpt><trkpt lat="43.72568672581756" lon="11.217810223384781"><ele>93.0</ele><time>2026-05-01T12:45:45.999Z</time></trkpt><trkpt lat="43.7255006954109" lon="11.218205002414729"><ele>94.0</ele><time>2026-05-01T12:45:46.999Z</time></trkpt><trkpt lat="43.725305867333674" lon="11.218588775285921"><ele>95.0</ele><time>2026-05-01T12:45:47.999Z</time></trkpt><trkpt lat="43.72510807019435" lon="11.218955485154993"><ele>90.0</ele><time>2026-05-01T12:45:48.999Z</time></trkpt><trkpt lat="43.72489831284323" lon="11.219319059542201"><ele>85.0</ele><time>2026-05-01T12:45:49.999Z</time></trkpt><trkpt lat="43.724685439861354" lon="11.2196826722573"><ele>81.0</ele><time>2026-05-01T12:45:50.999Z</time></trkpt><trkpt lat="43.72446991142249" lon="11.220048114360074"><ele>77.0</ele><time>2026-05-01T12:45:51.999Z</time></trkpt><trkpt lat="43.724257382150256" lon="11.220417305204489"><ele>79.0</ele><time>2026-05-01T12:45:52.999Z</time></trkpt><trkpt lat="43.724051286439476" lon="11.22079036912827"><ele>81.0</ele><time>2026-05-01T12:45:53.999Z</time></trkpt><trkpt lat="43.72385702722578" lon="11.221172821939527"><ele>78.5</ele><time>2026-05-01T12:45:54.999Z</time></trkpt><trkpt lat="43.72367990492636" lon="11.221562589991844"><ele>76.0</ele><time>2026-05-01T12:45:55.999Z</time></trkpt><trkpt lat="43.72351619525642" lon="11.221964609598983"><ele>73.5</ele><time>2026-05-01T12:45:56.999Z</time></trkpt><trkpt lat="43.723371212669306" lon="11.222369452662097"><ele>71.0</ele><time>2026-05-01T12:45:57.999Z</time></trkpt><trkpt lat="43.72324302440823" lon="11.22277803263895"><ele>69.5</ele><time>2026-05-01T12:45:58.999Z</time></trkpt><trkpt lat="43.72313115315739" lon="11.223183263223603"><ele>68.0</ele><time>2026-05-01T12:45:59.999Z</time></trkpt><trkpt lat="43.723027977185666" lon="11.223590333367984"><ele>66.5</ele><time>2026-05-01T12:46:00.999Z</time></trkpt><trkpt lat="43.72292485240007" lon="11.224001121688415"><ele>65.0</ele><time>2026-05-01T12:46:01.999Z</time></trkpt><trkpt lat="43.72282371722023" lon="11.224410809831205"><ele>69.5</ele><time>2026-05-01T12:46:02.999Z</time></trkpt><trkpt lat="43.7227221930534" lon="11.224821155138715"><ele>74.0</ele><time>2026-05-01T12:46:03.999Z</time></trkpt><trkpt lat="43.722618728223466" lon="11.225228723214203"><ele>74.0</ele><time>2026-05-01T12:46:04.999Z</time></trkpt><trkpt lat="43.72251099355057" lon="11.225637439187054"><ele>74.0</ele><time>2026-05-01T12:46:05.999Z</time></trkpt><trkpt lat="43.722400685290154" lon="11.226050896672664"><ele>74.0</ele><time>2026-05-01T12:46:06.999Z</time></trkpt><trkpt lat="43.72229039391736" lon="11.226469655075338"><ele>74.0</ele><time>2026-05-01T12:46:07.999Z</time></trkpt><trkpt lat="43.72217826917086" lon="11.22689220327024"><ele>85.0</ele><time>2026-05-01T12:46:08.999Z</time></trkpt><trkpt lat="43.72206597862891" lon="11.227315423004004"><ele>96.0</ele><time>2026-05-01T12:46:09.999Z</time></trkpt><trkpt lat="43.72195245205455" lon="11.227744356571677"><ele>102.5</ele><time>2026-05-01T12:46:10.999Z</time></trkpt><trkpt lat="43.72183803945894" lon="11.228174033111141"><ele>109.0</ele><time>2026-05-01T12:46:11.999Z</time></trkpt><trkpt lat="43.72172400729777" lon="11.228605177011492"><ele>117.0</ele><time>2026-05-01T12:46:12.999Z</time></trkpt><trkpt lat="43.72161153269501" lon="11.229038634268866"><ele>125.0</ele><time>2026-05-01T12:46:14Z</time></trkpt><trkpt lat="43.72150025226771" lon="11.229471723380536"><ele>126.0</ele><time>2026-05-01T12:46:15Z</time></trkpt><trkpt lat="43.72131413935135" lon="11.22991887445275"><ele>127.0</ele><time>2026-05-01T12:46:16Z</time></trkpt><trkpt lat="43.7211913628131" lon="11.230353849535014"><ele>125.5</ele><time>2026-05-01T12:46:17Z</time></trkpt><trkpt lat="43.721058639445005" lon="11.230786708431266"><ele>124.0</ele><time>2026-05-01T12:46:18Z</time></trkpt><trkpt lat="43.72092820370734" lon="11.231228556040787"><ele>120.0</ele><time>2026-05-01T12:46:19Z</time></trkpt><trkpt lat="43.72081366790231" lon="11.231674904305844"><ele>116.0</ele><time>2026-05-01T12:46:20Z</time></trkpt><trkpt lat="43.72069450759738" lon="11.232118821120764"><ele>111.0</ele><time>2026-05-01T12:46:21Z</time></trkpt><trkpt lat="43.72057545630721" lon="11.232565073761286"><ele>106.0</ele><time>2026-05-01T12:46:22Z</time></trkpt><trkpt lat="43.72045923210405" lon="11.233012673817711"><ele>101.5</ele><time>2026-05-01T12:46:23Z</time></trkpt><trkpt lat="43.72034562612895" lon="11.233460359367918"><ele>97.0</ele><time>2026-05-01T12:46:24Z</time></trkpt><trkpt lat="43.72022163752347" lon="11.23390553847023"><ele>98.0</ele><time>2026-05-01T12:46:25Z</time></trkpt><trkpt lat="43.7200926609042" lon="11.234349761897212"><ele>99.0</ele><time>2026-05-01T12:46:26Z</time></trkpt><trkpt lat="43.71996721847716" lon="11.234801887501899"><ele>103.5</ele><time>2026-05-01T12:46:27Z</time></trkpt><trkpt lat="43.71984439771367" lon="11.235258687833387"><ele>108.0</ele><time>2026-05-01T12:46:28Z</time></trkpt><trkpt lat="43.719737743910336" lon="11.235720103983114"><ele>112.0</ele><time>2026-05-01T12:46:29Z</time></trkpt><trkpt lat="43.719644147939306" lon="11.236181299885967"><ele>116.0</ele><time>2026-05-01T12:46:29.999Z</time></trkpt><trkpt lat="43.719572305021586" lon="11.236630187429004"><ele>120.0</ele><time>2026-05-01T12:46:30.999Z</time></trkpt><trkpt lat="43.71952722478164" lon="11.237044896497608"><ele>124.0</ele><time>2026-05-01T12:46:31.999Z</time></trkpt><trkpt lat="43.719487808233424" lon="11.237474185879163"><ele>124.0</ele><time>2026-05-01T12:46:32.999Z</time></trkpt><trkpt lat="43.71944903533329" lon="11.237924001808274"><ele>124.0</ele><time>2026-05-01T12:46:33.999Z</time></trkpt><trkpt lat="43.71944234868285" lon="11.238333977214792"><ele>117.0</ele><time>2026-05-01T12:46:34.999Z</time></trkpt><trkpt lat="43.71942760222971" lon="11.238787215542017"><ele>110.0</ele><time>2026-05-01T12:46:35.999Z</time></trkpt><trkpt lat="43.71943270917233" lon="11.239223888901194"><ele>108.5</ele><time>2026-05-01T12:46:36.999Z</time></trkpt><trkpt lat="43.719435163425864" lon="11.239700395823016"><ele>107.0</ele><time>2026-05-01T12:46:37.999Z</time></trkpt><trkpt lat="43.71945394833638" lon="11.240168072616179"><ele>107.0</ele><time>2026-05-01T12:46:38.999Z</time></trkpt><trkpt lat="43.71948909453123" lon="11.240621974593552"><ele>107.0</ele><time>2026-05-01T12:46:39.999Z</time></trkpt><trkpt lat="43.71952605262406" lon="11.241117569187352"><ele>110.0</ele><time>2026-05-01T12:46:40.999Z</time></trkpt><trkpt lat="43.71958855897163" lon="11.241552881489952"><ele>113.0</ele><time>2026-05-01T12:46:41.998Z</time></trkpt><trkpt lat="43.719660208940844" lon="11.241994183208337"><ele>114.0</ele><time>2026-05-01T12:46:42.998Z</time></trkpt><trkpt lat="43.719755730192" lon="11.242326892077356"><ele>115.0</ele><time>2026-05-01T12:46:43.998Z</time></trkpt><trkpt lat="43.71984742630422" lon="11.242770957465508"><ele>120.5</ele><time>2026-05-01T12:46:44.998Z</time></trkpt><trkpt lat="43.71995407191911" lon="11.243220543704926"><ele>126.0</ele><time>2026-05-01T12:46:45.998Z</time></trkpt><trkpt lat="43.72006857617828" lon="11.243673376456364"><ele>131.0</ele><time>2026-05-01T12:46:46.998Z</time></trkpt><trkpt lat="43.720194167875704" lon="11.24410214836725"><ele>136.0</ele><time>2026-05-01T12:46:47.998Z</time></trkpt><trkpt lat="43.720329781770516" lon="11.244525892363512"><ele>140.0</ele><time>2026-05-01T12:46:48.998Z</time></trkpt><trkpt lat="43.72047167417874" lon="11.244886474240234"><ele>144.0</ele><time>2026-05-01T12:46:49.998Z</time></trkpt><trkpt lat="43.72062367715069" lon="11.245294443772284"><ele>145.5</ele><time>2026-05-01T12:46:50.998Z</time></trkpt><trkpt lat="43.720784319093" lon="11.245640139325838"><ele>147.0</ele><time>2026-05-01T12:46:51.998Z</time></trkpt><trkpt lat="43.72096495959541" lon="11.246024947517027"><ele>103.0</ele><time>2026-05-01T12:46:53.017Z</time></trkpt><trkpt lat="43.727123376290685" lon="11.252325621337569"><ele>103.0</ele><time>2026-05-01T12:47:14.998Z</time></trkpt><trkpt lat="43.72741978418635" lon="11.252593187181992"><ele>103.0</ele><time>2026-05-01T12:47:15.998Z</time></trkpt><trkpt lat="43.72762821564347" lon="11.252883642304457"><ele>102.5</ele><time>2026-05-01T12:47:16.998Z</time></trkpt><trkpt lat="43.72787460876653" lon="11.253189561504236"><ele>102.0</ele><time>2026-05-01T12:47:17.998Z</time></trkpt><trkpt lat="43.72808436944421" lon="11.253509896035936"><ele>102.0</ele><time>2026-05-01T12:47:18.998Z</time></trkpt><trkpt lat="43.72829609317287" lon="11.253835768891394"><ele>102.0</ele><time>2026-05-01T12:47:19.997Z</time></trkpt><trkpt lat="43.72849788163767" lon="11.254168968844517"><ele>100.5</ele><time>2026-05-01T12:47:20.997Z</time></trkpt><trkpt lat="43.72870133771449" lon="11.254507981755333"><ele>99.0</ele><time>2026-05-01T12:47:21.997Z</time></trkpt><trkpt lat="43.728907399443834" lon="11.254850001176012"><ele>98.0</ele><time>2026-05-01T12:47:22.997Z</time></trkpt><trkpt lat="43.729117576917226" lon="11.255202820202918"><ele>97.0</ele><time>2026-05-01T12:47:23.997Z</time></trkpt><trkpt lat="43.72932627693065" lon="11.255561226143108"><ele>91.5</ele><time>2026-05-01T12:47:24.997Z</time></trkpt><trkpt lat="43.729535124417495" lon="11.255917702887068"><ele>86.0</ele><time>2026-05-01T12:47:25.997Z</time></trkpt><trkpt lat="43.72974657933175" lon="11.256272507485008"><ele>87.5</ele><time>2026-05-01T12:47:26.997Z</time></trkpt><trkpt lat="43.729956568387024" lon="11.256629260181876"><ele>89.0</ele><time>2026-05-01T12:47:27.997Z</time></trkpt><trkpt lat="43.73016806594693" lon="11.25699009828839"><ele>85.5</ele><time>2026-05-01T12:47:28.997Z</time></trkpt><trkpt lat="43.730379769321814" lon="11.257349973248873"><ele>82.0</ele><time>2026-05-01T12:47:29.997Z</time></trkpt><trkpt lat="43.73059286699143" lon="11.257711970326948"><ele>82.0</ele><time>2026-05-01T12:47:30.997Z</time></trkpt><trkpt lat="43.730808098099025" lon="11.258075737857359"><ele>82.0</ele><time>2026-05-01T12:47:31.997Z</time></trkpt><trkpt lat="43.73102191714089" lon="11.25844029021256"><ele>83.5</ele><time>2026-05-01T12:47:32.997Z</time></trkpt><trkpt lat="43.731233318247455" lon="11.258801355847009"><ele>85.0</ele><time>2026-05-01T12:47:33.997Z</time></trkpt><trkpt lat="43.73144612085919" lon="11.259162743263456"><ele>85.0</ele><time>2026-05-01T12:47:34.997Z</time></trkpt><trkpt lat="43.73165824539872" lon="11.259521191061332"><ele>85.0</ele><time>2026-05-01T12:47:35.997Z</time></trkpt><trkpt lat="43.731871083628114" lon="11.259879997377707"><ele>83.5</ele><time>2026-05-01T12:47:36.997Z</time></trkpt><trkpt lat="43.73208444238431" lon="11.260239319133877"><ele>82.0</ele><time>2026-05-01T12:47:37.997Z</time></trkpt><trkpt lat="43.732296056536924" lon="11.26059686828557"><ele>82.0</ele><time>2026-05-01T12:47:38.997Z</time></trkpt><trkpt lat="43.73250747769237" lon="11.26095512233767"><ele>82.0</ele><time>2026-05-01T12:47:39.997Z</time></trkpt><trkpt lat="43.73271830714915" lon="11.261314425295069"><ele>82.0</ele><time>2026-05-01T12:47:40.997Z</time></trkpt><trkpt lat="43.73293243653822" lon="11.261675950233622"><ele>82.0</ele><time>2026-05-01T12:47:41.997Z</time></trkpt><trkpt lat="43.73314460682321" lon="11.262035905680303"><ele>83.0</ele><time>2026-05-01T12:47:42.997Z</time></trkpt><trkpt lat="43.73335860100573" lon="11.26239752467106"><ele>84.0</ele><time>2026-05-01T12:47:43.997Z</time></trkpt><trkpt lat="43.73357245347995" lon="11.262756900998266"><ele>84.0</ele><time>2026-05-01T12:47:44.997Z</time></trkpt><trkpt lat="43.73378465277285" lon="11.263112694311426"><ele>84.0</ele><time>2026-05-01T12:47:45.997Z</time></trkpt><trkpt lat="43.733996297390824" lon="11.26346946861023"><ele>85.0</ele><time>2026-05-01T12:47:46.997Z</time></trkpt><trkpt lat="43.73420991676517" lon="11.263828878949214"><ele>86.0</ele><time>2026-05-01T12:47:47.997Z</time></trkpt><trkpt lat="43.73441355106168" lon="11.26417402229744"><ele>86.0</ele><time>2026-05-01T12:47:48.997Z</time></trkpt><trkpt lat="43.73461607704724" lon="11.264518056099526"><ele>86.0</ele><time>2026-05-01T12:47:49.997Z</time></trkpt><trkpt lat="43.73481962378968" lon="11.264864329949248"><ele>87.5</ele><time>2026-05-01T12:47:50.997Z</time></trkpt><trkpt lat="43.735024325947656" lon="11.265208390734234"><ele>89.0</ele><time>2026-05-01T12:47:51.997Z</time></trkpt><trkpt lat="43.7352290388499" lon="11.265553447297041"><ele>86.0</ele><time>2026-05-01T12:47:52.997Z</time></trkpt><trkpt lat="43.73543597480239" lon="11.265903844870657"><ele>83.0</ele><time>2026-05-01T12:47:53.997Z</time></trkpt><trkpt lat="43.735642341458096" lon="11.266258508626342"><ele>82.0</ele><time>2026-05-01T12:47:54.997Z</time></trkpt><trkpt lat="43.735847871047184" lon="11.26661388787674"><ele>81.0</ele><time>2026-05-01T12:47:55.997Z</time></trkpt><trkpt lat="43.736053415118505" lon="11.26696329083167"><ele>84.5</ele><time>2026-05-01T12:47:56.997Z</time></trkpt><trkpt lat="43.736255208874205" lon="11.267305022644376"><ele>88.0</ele><time>2026-05-01T12:47:57.997Z</time></trkpt><trkpt lat="43.736455471159275" lon="11.267639818405714"><ele>88.0</ele><time>2026-05-01T12:47:58.997Z</time></trkpt><trkpt lat="43.73665303611118" lon="11.267969455333342"><ele>88.0</ele><time>2026-05-01T12:47:59.997Z</time></trkpt><trkpt lat="43.73684874782794" lon="11.268300153611637"><ele>87.5</ele><time>2026-05-01T12:48:00.997Z</time></trkpt><trkpt lat="43.737046233353325" lon="11.268632792153065"><ele>87.0</ele><time>2026-05-01T12:48:01.997Z</time></trkpt><trkpt lat="43.73724265756175" lon="11.268966022260363"><ele>87.0</ele><time>2026-05-01T12:48:02.997Z</time></trkpt><trkpt lat="43.73743705933604" lon="11.269297709105382"><ele>87.0</ele><time>2026-05-01T12:48:03.997Z</time></trkpt><trkpt lat="43.7376305481012" lon="11.269625528199487"><ele>86.0</ele><time>2026-05-01T12:48:04.997Z</time></trkpt><trkpt lat="43.73782396638565" lon="11.269953077128402"><ele>85.0</ele><time>2026-05-01T12:48:05.997Z</time></trkpt><trkpt lat="43.738019140747696" lon="11.270283750494086"><ele>88.0</ele><time>2026-05-01T12:48:06.997Z</time></trkpt><trkpt lat="43.73821698143111" lon="11.270616938641817"><ele>91.0</ele><time>2026-05-01T12:48:07.997Z</time></trkpt><trkpt lat="43.73841583805058" lon="11.270952264811683"><ele>86.5</ele><time>2026-05-01T12:48:08.997Z</time></trkpt><trkpt lat="43.73861290111958" lon="11.271286680162673"><ele>82.0</ele><time>2026-05-01T12:48:09.997Z</time></trkpt><trkpt lat="43.738804813752594" lon="11.271623238464109"><ele>82.0</ele><time>2026-05-01T12:48:10.997Z</time></trkpt><trkpt lat="43.73899156377077" lon="11.271966470114542"><ele>82.0</ele><time>2026-05-01T12:48:11.997Z</time></trkpt><trkpt lat="43.73916890084836" lon="11.272317528027077"><ele>84.0</ele><time>2026-05-01T12:48:12.997Z</time></trkpt><trkpt lat="43.73933522047935" lon="11.272683415100225"><ele>86.0</ele><time>2026-05-01T12:48:13.997Z</time></trkpt><trkpt lat="43.739486889052024" lon="11.273066758213833"><ele>83.0</ele><time>2026-05-01T12:48:14.997Z</time></trkpt><trkpt lat="43.7396213738769" lon="11.273461913797453"><ele>80.0</ele><time>2026-05-01T12:48:15.997Z</time></trkpt><trkpt lat="43.73973838464064" lon="11.273863985230847"><ele>83.0</ele><time>2026-05-01T12:48:16.997Z</time></trkpt><trkpt lat="43.739839225364065" lon="11.274273108525437"><ele>86.0</ele><time>2026-05-01T12:48:17.997Z</time></trkpt><trkpt lat="43.73992315890315" lon="11.274690564987942"><ele>85.0</ele><time>2026-05-01T12:48:18.997Z</time></trkpt><trkpt lat="43.7399918348225" lon="11.275116330853107"><ele>84.0</ele><time>2026-05-01T12:48:19.998Z</time></trkpt><trkpt lat="43.74005380155098" lon="11.275543880327914"><ele>83.5</ele><time>2026-05-01T12:48:20.998Z</time></trkpt><trkpt lat="43.7400989898865" lon="11.275982096670289"><ele>83.0</ele><time>2026-05-01T12:48:21.998Z</time></trkpt><trkpt lat="43.74014128399448" lon="11.27642198451458"><ele>83.0</ele><time>2026-05-01T12:48:22.998Z</time></trkpt><trkpt lat="43.740181331519686" lon="11.276863153750774"><ele>83.0</ele><time>2026-05-01T12:48:23.998Z</time></trkpt><trkpt lat="43.74021726906105" lon="11.277303545357155"><ele>81.0</ele><time>2026-05-01T12:48:24.998Z</time></trkpt><trkpt lat="43.74025148898291" lon="11.277743304815424"><ele>79.0</ele><time>2026-05-01T12:48:25.999Z</time></trkpt><trkpt lat="43.740283707783554" lon="11.278180164069926"><ele>78.5</ele><time>2026-05-01T12:48:26.999Z</time></trkpt><trkpt lat="43.740316784811" lon="11.278620016796891"><ele>78.0</ele><time>2026-05-01T12:48:27.999Z</time></trkpt><trkpt lat="43.740348617816636" lon="11.279059964338508"><ele>80.0</ele><time>2026-05-01T12:48:28.999Z</time></trkpt><trkpt lat="43.740380415036455" lon="11.279502406330096"><ele>82.0</ele><time>2026-05-01T12:48:29.999Z</time></trkpt><trkpt lat="43.74041304564309" lon="11.27994553555954"><ele>83.5</ele><time>2026-05-01T12:48:30.999Z</time></trkpt><trkpt lat="43.74044726270356" lon="11.280386972907307"><ele>85.0</ele><time>2026-05-01T12:48:31.999Z</time></trkpt><trkpt lat="43.74048094933111" lon="11.280831114902647"><ele>86.5</ele><time>2026-05-01T12:48:32.999Z</time></trkpt><trkpt lat="43.740510464661504" lon="11.281280031452482"><ele>88.0</ele><time>2026-05-01T12:48:33.999Z</time></trkpt><trkpt lat="43.740528464080214" lon="11.281734799431518"><ele>88.0</ele><time>2026-05-01T12:48:34.999Z</time></trkpt><trkpt lat="43.740531604513635" lon="11.282189304356924"><ele>88.0</ele><time>2026-05-01T12:48:35.999Z</time></trkpt><trkpt lat="43.740520889831565" lon="11.282644755286068"><ele>88.0</ele><time>2026-05-01T12:48:36.999Z</time></trkpt><trkpt lat="43.74049366597409" lon="11.283097185919523"><ele>88.0</ele><time>2026-05-01T12:48:37.999Z</time></trkpt><trkpt lat="43.740450525154436" lon="11.283549404876696"><ele>86.5</ele><time>2026-05-01T12:48:38.999Z</time></trkpt><trkpt lat="43.74039156888089" lon="11.283998996672187"><ele>85.0</ele><time>2026-05-01T12:48:39.999Z</time></trkpt><trkpt lat="43.74031749478406" lon="11.284450553141845"><ele>83.0</ele><time>2026-05-01T12:48:40.999Z</time></trkpt><trkpt lat="43.74023416271751" lon="11.284899461308866"><ele>81.0</ele><time>2026-05-01T12:48:41.999Z</time></trkpt><trkpt lat="43.74014082417082" lon="11.285345360363488"><ele>86.5</ele><time>2026-05-01T12:48:42.999Z</time></trkpt><trkpt lat="43.74003315790387" lon="11.285785003879253"><ele>92.0</ele><time>2026-05-01T12:48:43.999Z</time></trkpt><trkpt lat="43.73990866834923" lon="11.28621870956146"><ele>90.0</ele><time>2026-05-01T12:48:44.999Z</time></trkpt><trkpt lat="43.739767435424284" lon="11.286642200514116"><ele>88.0</ele><time>2026-05-01T12:48:45.999Z</time></trkpt><trkpt lat="43.7396102757787" lon="11.287054758425851"><ele>86.0</ele><time>2026-05-01T12:48:46.999Z</time></trkpt><trkpt lat="43.739436812646524" lon="11.287455609142606"><ele>84.0</ele><time>2026-05-01T12:48:47.999Z</time></trkpt><trkpt lat="43.73925185247601" lon="11.287845478216456"><ele>88.5</ele><time>2026-05-01T12:48:48.999Z</time></trkpt><trkpt lat="43.73906221543346" lon="11.288229148168893"><ele>93.0</ele><time>2026-05-01T12:48:49.999Z</time></trkpt><trkpt lat="43.73887013970453" lon="11.2886086108804"><ele>90.0</ele><time>2026-05-01T12:48:51Z</time></trkpt><trkpt lat="43.73867501032268" lon="11.288984195042778"><ele>87.0</ele><time>2026-05-01T12:48:52Z</time></trkpt><trkpt lat="43.7384748201815" lon="11.289355063186353"><ele>92.0</ele><time>2026-05-01T12:48:53Z</time></trkpt><trkpt lat="43.73827596824124" lon="11.289722470777736"><ele>97.0</ele><time>2026-05-01T12:48:54Z</time></trkpt><trkpt lat="43.73808305700755" lon="11.29009721487527"><ele>97.0</ele><time>2026-05-01T12:48:55Z</time></trkpt><trkpt lat="43.73789859502613" lon="11.290482160393951"><ele>97.0</ele><time>2026-05-01T12:48:56Z</time></trkpt><trkpt lat="43.73772653356215" lon="11.290880691353662"><ele>96.5</ele><time>2026-05-01T12:48:57Z</time></trkpt><trkpt lat="43.73756232091515" lon="11.291287964775082"><ele>96.0</ele><time>2026-05-01T12:48:58Z</time></trkpt><trkpt lat="43.73740515103483" lon="11.291704517606838"><ele>96.0</ele><time>2026-05-01T12:48:59Z</time></trkpt><trkpt lat="43.73725714242962" lon="11.292129429959942"><ele>96.0</ele><time>2026-05-01T12:49:00Z</time></trkpt><trkpt lat="43.737121783926064" lon="11.292564181732486"><ele>91.0</ele><time>2026-05-01T12:49:01Z</time></trkpt><trkpt lat="43.73700042310694" lon="11.293004852964724"><ele>86.0</ele><time>2026-05-01T12:49:02Z</time></trkpt><trkpt lat="43.73689331497174" lon="11.293448162747245"><ele>85.0</ele><time>2026-05-01T12:49:03Z</time></trkpt><trkpt lat="43.736800289463446" lon="11.293895664031226"><ele>84.0</ele><time>2026-05-01T12:49:04Z</time></trkpt><trkpt lat="43.736713073664475" lon="11.294348932896444"><ele>84.0</ele><time>2026-05-01T12:49:05Z</time></trkpt><trkpt lat="43.73662617991237" lon="11.294806096782931"><ele>84.0</ele><time>2026-05-01T12:49:06Z</time></trkpt><trkpt lat="43.73653084459223" lon="11.295255158363448"><ele>84.0</ele><time>2026-05-01T12:49:07Z</time></trkpt><trkpt lat="43.73642230364594" lon="11.295697543219532"><ele>84.0</ele><time>2026-05-01T12:49:08Z</time></trkpt><trkpt lat="43.73629637223198" lon="11.296124353289969"><ele>85.0</ele><time>2026-05-01T12:49:09Z</time></trkpt><trkpt lat="43.736153857507624" lon="11.296538564589456"><ele>86.0</ele><time>2026-05-01T12:49:10Z</time></trkpt><trkpt lat="43.73599758369957" lon="11.296941155094375"><ele>90.0</ele><time>2026-05-01T12:49:11Z</time></trkpt><trkpt lat="43.7358236514848" lon="11.297329969259092"><ele>94.0</ele><time>2026-05-01T12:49:12Z</time></trkpt><trkpt lat="43.735634370387665" lon="11.29770746317711"><ele>94.0</ele><time>2026-05-01T12:49:13Z</time></trkpt><trkpt lat="43.73542634099306" lon="11.29806827826803"><ele>94.0</ele><time>2026-05-01T12:49:14Z</time></trkpt><trkpt lat="43.73520627740751" lon="11.298416874769499"><ele>96.0</ele><time>2026-05-01T12:49:15Z</time></trkpt><trkpt lat="43.7349779615745" lon="11.298755826177894"><ele>98.0</ele><time>2026-05-01T12:49:16Z</time></trkpt><trkpt lat="43.73474479566931" lon="11.299090090088912"><ele>98.5</ele><time>2026-05-01T12:49:16.999Z</time></trkpt><trkpt lat="43.73450986245159" lon="11.299422178194318"><ele>99.0</ele><time>2026-05-01T12:49:17.999Z</time></trkpt><trkpt lat="43.73427918739088" lon="11.299760695276198"><ele>99.0</ele><time>2026-05-01T12:49:18.999Z</time></trkpt><trkpt lat="43.734059381643675" lon="11.300108723869975"><ele>99.0</ele><time>2026-05-01T12:49:19.999Z</time></trkpt><trkpt lat="43.73385361228576" lon="11.300470329097749"><ele>96.0</ele><time>2026-05-01T12:49:20.999Z</time></trkpt><trkpt lat="43.73366855138581" lon="11.300852458889239"><ele>93.0</ele><time>2026-05-01T12:49:21.999Z</time></trkpt><trkpt lat="43.73350709749784" lon="11.301253752919754"><ele>93.5</ele><time>2026-05-01T12:49:22.999Z</time></trkpt><trkpt lat="43.73337129491618" lon="11.301674035513873"><ele>94.0</ele><time>2026-05-01T12:49:23.999Z</time></trkpt><trkpt lat="43.733262446117386" lon="11.302107890922573"><ele>93.5</ele><time>2026-05-01T12:49:24.999Z</time></trkpt><trkpt lat="43.73318986020979" lon="11.302549285799511"><ele>93.0</ele><time>2026-05-01T12:49:25.999Z</time></trkpt><trkpt lat="43.73315266212439" lon="11.30299834300166"><ele>94.0</ele><time>2026-05-01T12:49:26.999Z</time></trkpt><trkpt lat="43.73313515074212" lon="11.303448394978453"><ele>95.0</ele><time>2026-05-01T12:49:27.999Z</time></trkpt><trkpt lat="43.733129802318096" lon="11.30389974884938"><ele>95.0</ele><time>2026-05-01T12:49:28.999Z</time></trkpt><trkpt lat="43.73313657626889" lon="11.304351628561825"><ele>95.0</ele><time>2026-05-01T12:49:29.999Z</time></trkpt><trkpt lat="43.73314603700718" lon="11.30480831073687"><ele>95.0</ele><time>2026-05-01T12:49:30.999Z</time></trkpt><trkpt lat="43.73315540649024" lon="11.305266872910959"><ele>95.0</ele><time>2026-05-01T12:49:31.999Z</time></trkpt><trkpt lat="43.733158866528484" lon="11.305730020552064"><ele>95.5</ele><time>2026-05-01T12:49:32.999Z</time></trkpt><trkpt lat="43.733151617368286" lon="11.306186367142494"><ele>96.0</ele><time>2026-05-01T12:49:33.999Z</time></trkpt><trkpt lat="43.73312962415461" lon="11.306645209411379"><ele>96.5</ele><time>2026-05-01T12:49:34.999Z</time></trkpt><trkpt lat="43.73308996344323" lon="11.30710049428625"><ele>97.0</ele><time>2026-05-01T12:49:35.999Z</time></trkpt><trkpt lat="43.73302987878063" lon="11.307548427447584"><ele>98.0</ele><time>2026-05-01T12:49:36.999Z</time></trkpt><trkpt lat="43.732952840664005" lon="11.307994339649268"><ele>99.0</ele><time>2026-05-01T12:49:37.999Z</time></trkpt><trkpt lat="43.73286597390103" lon="11.308438763614426"><ele>98.5</ele><time>2026-05-01T12:49:38.999Z</time></trkpt><trkpt lat="43.732781345056814" lon="11.30888294755445"><ele>98.0</ele><time>2026-05-01T12:49:39.999Z</time></trkpt><trkpt lat="43.73269254171588" lon="11.30932402421032"><ele>99.0</ele><time>2026-05-01T12:49:40.999Z</time></trkpt><trkpt lat="43.73259435662798" lon="11.309760110773937"><ele>100.0</ele><time>2026-05-01T12:49:41.999Z</time></trkpt><trkpt lat="43.73249190393011" lon="11.310196603127014"><ele>104.0</ele><time>2026-05-01T12:49:42.999Z</time></trkpt><trkpt lat="43.73239092986534" lon="11.3106338320557"><ele>108.0</ele><time>2026-05-01T12:49:43.999Z</time></trkpt><trkpt lat="43.73229147965216" lon="11.31106740406591"><ele>111.5</ele><time>2026-05-01T12:49:44.999Z</time></trkpt><trkpt lat="43.73219159432706" lon="11.31150152694162"><ele>115.0</ele><time>2026-05-01T12:49:45.999Z</time></trkpt><trkpt lat="43.732097375979656" lon="11.311930314809283"><ele>121.0</ele><time>2026-05-01T12:49:46.999Z</time></trkpt><trkpt lat="43.73200165579473" lon="11.312356373722245"><ele>127.0</ele><time>2026-05-01T12:49:47.999Z</time></trkpt><trkpt lat="43.73190861906165" lon="11.312783364991107"><ele>118.0</ele><time>2026-05-01T12:49:48.999Z</time></trkpt><trkpt lat="43.731812775512765" lon="11.313212681027869"><ele>109.0</ele><time>2026-05-01T12:49:49.999Z</time></trkpt><trkpt lat="43.731720322257644" lon="11.313639718209622"><ele>109.5</ele><time>2026-05-01T12:49:50.999Z</time></trkpt><trkpt lat="43.73162798009285" lon="11.314061265153573"><ele>110.0</ele><time>2026-05-01T12:49:51.999Z</time></trkpt><trkpt lat="43.73153530068319" lon="11.314483774023662"><ele>111.0</ele><time>2026-05-01T12:49:52.999Z</time></trkpt><trkpt lat="43.73144261945579" lon="11.314907714035211"><ele>112.0</ele><time>2026-05-01T12:49:53.999Z</time></trkpt><trkpt lat="43.731349390026736" lon="11.315333124765997"><ele>114.0</ele><time>2026-05-01T12:49:54.999Z</time></trkpt><trkpt lat="43.73125534347923" lon="11.31575721010519"><ele>116.0</ele><time>2026-05-01T12:49:55.999Z</time></trkpt><trkpt lat="43.731157490793606" lon="11.316181305017329"><ele>117.5</ele><time>2026-05-01T12:49:56.999Z</time></trkpt><trkpt lat="43.73106083609043" lon="11.316607141816881"><ele>119.0</ele><time>2026-05-01T12:49:57.999Z</time></trkpt><trkpt lat="43.73096438130508" lon="11.317031925544306"><ele>118.0</ele><time>2026-05-01T12:49:58.999Z</time></trkpt><trkpt lat="43.730868400784" lon="11.317455086804571"><ele>117.0</ele><time>2026-05-01T12:49:59.999Z</time></trkpt><trkpt lat="43.73077014352711" lon="11.317880791762041"><ele>121.5</ele><time>2026-05-01T12:50:00.999Z</time></trkpt><trkpt lat="43.73067268629668" lon="11.31830565075379"><ele>126.0</ele><time>2026-05-01T12:50:01.999Z</time></trkpt><trkpt lat="43.73057752075599" lon="11.31873185050625"><ele>130.0</ele><time>2026-05-01T12:50:02.999Z</time></trkpt><trkpt lat="43.73048322454743" lon="11.31916200198979"><ele>134.0</ele><time>2026-05-01T12:50:03.999Z</time></trkpt><trkpt lat="43.73038800033373" lon="11.31958786630251"><ele>131.5</ele><time>2026-05-01T12:50:04.999Z</time></trkpt><trkpt lat="43.73029332567466" lon="11.320009332823272"><ele>129.0</ele><time>2026-05-01T12:50:05.999Z</time></trkpt><trkpt lat="43.73019719531735" lon="11.320426336418599"><ele>131.5</ele><time>2026-05-01T12:50:06.999Z</time></trkpt><trkpt lat="43.73010173292481" lon="11.320842068321378"><ele>134.0</ele><time>2026-05-01T12:50:07.999Z</time></trkpt><trkpt lat="43.730011727316075" lon="11.321255025855178"><ele>136.5</ele><time>2026-05-01T12:50:08.999Z</time></trkpt><trkpt lat="43.72992596076141" lon="11.321673274126882"><ele>139.0</ele><time>2026-05-01T12:50:09.999Z</time></trkpt><trkpt lat="43.72984423625869" lon="11.32209681117346"><ele>141.5</ele><time>2026-05-01T12:50:10.999Z</time></trkpt><trkpt lat="43.729769693137" lon="11.322524211409757"><ele>144.0</ele><time>2026-05-01T12:50:11.999Z</time></trkpt><trkpt lat="43.72970491838716" lon="11.322956423017422"><ele>146.0</ele><time>2026-05-01T12:50:12.999Z</time></trkpt><trkpt lat="43.729651527476044" lon="11.323393679625934"><ele>148.0</ele><time>2026-05-01T12:50:13.999Z</time></trkpt><trkpt lat="43.72960683634812" lon="11.323837742756451"><ele>149.0</ele><time>2026-05-01T12:50:14.999Z</time></trkpt><trkpt lat="43.72956371258386" lon="11.324313802705563"><ele>150.0</ele><time>2026-05-01T12:50:15.999Z</time></trkpt><trkpt lat="43.72953976411287" lon="11.324755875355331"><ele>147.5</ele><time>2026-05-01T12:50:16.999Z</time></trkpt><trkpt lat="43.729519629575336" lon="11.325200492178487"><ele>145.0</ele><time>2026-05-01T12:50:17.999Z</time></trkpt><trkpt lat="43.72950874528306" lon="11.325649498200052"><ele>143.5</ele><time>2026-05-01T12:50:18.999Z</time></trkpt><trkpt lat="43.729499949420706" lon="11.326095348580711"><ele>142.0</ele><time>2026-05-01T12:50:19.999Z</time></trkpt><trkpt lat="43.72949536255168" lon="11.326537662021844"><ele>142.0</ele><time>2026-05-01T12:50:20.999Z</time></trkpt><trkpt lat="43.729493046208276" lon="11.326977188174693"><ele>142.0</ele><time>2026-05-01T12:50:21.999Z</time></trkpt><trkpt lat="43.729492882256984" lon="11.327421226026892"><ele>143.0</ele><time>2026-05-01T12:50:22.999Z</time></trkpt><trkpt lat="43.729499455780804" lon="11.327870269516668"><ele>144.0</ele><time>2026-05-01T12:50:23.999Z</time></trkpt><trkpt lat="43.72949912570053" lon="11.328322789197086"><ele>145.0</ele><time>2026-05-01T12:50:24.999Z</time></trkpt><trkpt lat="43.7295032310167" lon="11.328776763909197"><ele>146.0</ele><time>2026-05-01T12:50:26Z</time></trkpt><trkpt lat="43.7295065258011" lon="11.329231423932612"><ele>147.5</ele><time>2026-05-01T12:50:27Z</time></trkpt><trkpt lat="43.729508262076145" lon="11.329686439868874"><ele>149.0</ele><time>2026-05-01T12:50:28Z</time></trkpt><trkpt lat="43.72951158628197" lon="11.330142781804733"><ele>153.0</ele><time>2026-05-01T12:50:29Z</time></trkpt><trkpt lat="43.72951457268172" lon="11.330594429701788"><ele>157.0</ele><time>2026-05-01T12:50:30Z</time></trkpt><trkpt lat="43.72952044080676" lon="11.331045277142902"><ele>160.5</ele><time>2026-05-01T12:50:31Z</time></trkpt><trkpt lat="43.729525740111235" lon="11.331501408111574"><ele>164.0</ele><time>2026-05-01T12:50:32Z</time></trkpt><trkpt lat="43.729534014066" lon="11.33195811272724"><ele>165.0</ele><time>2026-05-01T12:50:33Z</time></trkpt><trkpt lat="43.729540313228085" lon="11.332414796447576"><ele>166.0</ele><time>2026-05-01T12:50:34Z</time></trkpt><trkpt lat="43.7295438443712" lon="11.332874051529004"><ele>167.0</ele><time>2026-05-01T12:50:35Z</time></trkpt><trkpt lat="43.729548826646464" lon="11.333338467899521"><ele>168.0</ele><time>2026-05-01T12:50:36Z</time></trkpt><trkpt lat="43.72954134171172" lon="11.333795459064598"><ele>170.0</ele><time>2026-05-01T12:50:37Z</time></trkpt><trkpt lat="43.72952727060501" lon="11.33425109456768"><ele>172.0</ele><time>2026-05-01T12:50:38Z</time></trkpt><trkpt lat="43.72950510026575" lon="11.334710285895387"><ele>172.0</ele><time>2026-05-01T12:50:39Z</time></trkpt><trkpt lat="43.7294704111898" lon="11.335168333511579"><ele>172.0</ele><time>2026-05-01T12:50:40Z</time></trkpt><trkpt lat="43.729424526517064" lon="11.335625336271226"><ele>174.0</ele><time>2026-05-01T12:50:41Z</time></trkpt><trkpt lat="43.729365144975425" lon="11.336079301143608"><ele>176.0</ele><time>2026-05-01T12:50:42Z</time></trkpt><trkpt lat="43.72929716631283" lon="11.33653559127887"><ele>176.0</ele><time>2026-05-01T12:50:43Z</time></trkpt><trkpt lat="43.72922506162152" lon="11.336990020044224"><ele>176.0</ele><time>2026-05-01T12:50:44Z</time></trkpt><trkpt lat="43.729139895531134" lon="11.337437888280798"><ele>176.0</ele><time>2026-05-01T12:50:45Z</time></trkpt><trkpt lat="43.72904248662535" lon="11.337882233104029"><ele>176.0</ele><time>2026-05-01T12:50:46Z</time></trkpt><trkpt lat="43.72893167228217" lon="11.33832305989257"><ele>177.5</ele><time>2026-05-01T12:50:47Z</time></trkpt><trkpt lat="43.72881609567988" lon="11.338755063843884"><ele>179.0</ele><time>2026-05-01T12:50:48Z</time></trkpt><trkpt lat="43.7286974593225" lon="11.339190912015903"><ele>180.5</ele><time>2026-05-01T12:50:49Z</time></trkpt><trkpt lat="43.72858062699744" lon="11.339621821644517"><ele>182.0</ele><time>2026-05-01T12:50:50Z</time></trkpt><trkpt lat="43.72847284240562" lon="11.3400313274657"><ele>186.5</ele><time>2026-05-01T12:50:51Z</time></trkpt><trkpt lat="43.72837274384299" lon="11.340414193609794"><ele>191.0</ele><time>2026-05-01T12:50:52Z</time></trkpt><trkpt lat="43.728278052024294" lon="11.340788520368704"><ele>193.0</ele><time>2026-05-01T12:50:53Z</time></trkpt><trkpt lat="43.7281873991813" lon="11.341162975660874"><ele>195.0</ele><time>2026-05-01T12:50:54Z</time></trkpt><trkpt lat="43.728103238830066" lon="11.341525194007508"><ele>196.5</ele><time>2026-05-01T12:50:55Z</time></trkpt><trkpt lat="43.728025328694635" lon="11.341880475422077"><ele>198.0</ele><time>2026-05-01T12:50:56Z</time></trkpt><trkpt lat="43.72795406831172" lon="11.342235369689904"><ele>199.0</ele><time>2026-05-01T12:50:57Z</time></trkpt><trkpt lat="43.72788592029035" lon="11.342593456303028"><ele>200.0</ele><time>2026-05-01T12:50:58Z</time></trkpt><trkpt lat="43.727823301068995" lon="11.342947249053386"><ele>200.5</ele><time>2026-05-01T12:50:59Z</time></trkpt><trkpt lat="43.72776494144439" lon="11.343299255503073"><ele>201.0</ele><time>2026-05-01T12:51:00Z</time></trkpt><trkpt lat="43.72771156550598" lon="11.343649367241277"><ele>197.5</ele><time>2026-05-01T12:51:01Z</time></trkpt><trkpt lat="43.72766314075969" lon="11.343994922827223"><ele>194.0</ele><time>2026-05-01T12:51:02Z</time></trkpt><trkpt lat="43.72762041519047" lon="11.344340329820053"><ele>194.0</ele><time>2026-05-01T12:51:03Z</time></trkpt><trkpt lat="43.72759028148546" lon="11.344690130172902"><ele>194.0</ele><time>2026-05-01T12:51:04Z</time></trkpt><trkpt lat="43.72756864521085" lon="11.345038813584317"><ele>196.5</ele><time>2026-05-01T12:51:05Z</time></trkpt><trkpt lat="43.72755503791291" lon="11.345385480641719"><ele>199.0</ele><time>2026-05-01T12:51:06Z</time></trkpt><trkpt lat="43.727547625070436" lon="11.345730479989882"><ele>201.0</ele><time>2026-05-01T12:51:07Z</time></trkpt><trkpt lat="43.727550802463064" lon="11.346079592822694"><ele>203.0</ele><time>2026-05-01T12:51:08Z</time></trkpt><trkpt lat="43.72756748890015" lon="11.346428003753546"><ele>203.5</ele><time>2026-05-01T12:51:09Z</time></trkpt><trkpt lat="43.72759062612602" lon="11.346757332243175"><ele>204.0</ele><time>2026-05-01T12:51:10Z</time></trkpt><trkpt lat="43.727617061784926" lon="11.34705858335256"><ele>202.5</ele><time>2026-05-01T12:51:11Z</time></trkpt><trkpt lat="43.72765622372635" lon="11.347356213338163"><ele>201.0</ele><time>2026-05-01T12:51:12Z</time></trkpt><trkpt lat="43.7277068512539" lon="11.347692223297257"><ele>210.0</ele><time>2026-05-01T12:51:13Z</time></trkpt><trkpt lat="43.72776799720532" lon="11.348048488848878"><ele>219.0</ele><time>2026-05-01T12:51:14Z</time></trkpt><trkpt lat="43.72784444013009" lon="11.348396878708161"><ele>219.0</ele><time>2026-05-01T12:51:15Z</time></trkpt><trkpt lat="43.727940054427606" lon="11.34873885063248"><ele>219.0</ele><time>2026-05-01T12:51:16Z</time></trkpt><trkpt lat="43.7280517901465" lon="11.349088670222182"><ele>213.5</ele><time>2026-05-01T12:51:17Z</time></trkpt><trkpt lat="43.72816100398471" lon="11.349451884238182"><ele>208.0</ele><time>2026-05-01T12:51:18Z</time></trkpt><trkpt lat="43.728266486090526" lon="11.349828015005874"><ele>205.0</ele><time>2026-05-01T12:51:19Z</time></trkpt><trkpt lat="43.728371132980065" lon="11.350210771249772"><ele>202.0</ele><time>2026-05-01T12:51:20Z</time></trkpt><trkpt lat="43.72847604936373" lon="11.350603936045705"><ele>216.5</ele><time>2026-05-01T12:51:20.999Z</time></trkpt><trkpt lat="43.728580280536136" lon="11.350996156373323"><ele>231.0</ele><time>2026-05-01T12:51:21.999Z</time></trkpt><trkpt lat="43.72868310602225" lon="11.351381702556665"><ele>231.0</ele><time>2026-05-01T12:51:22.999Z</time></trkpt><trkpt lat="43.72877914390131" lon="11.351765139353882"><ele>231.0</ele><time>2026-05-01T12:51:23.999Z</time></trkpt><trkpt lat="43.72886481499706" lon="11.352151022726758"><ele>228.5</ele><time>2026-05-01T12:51:24.999Z</time></trkpt><trkpt lat="43.72893867250896" lon="11.352543933053179"><ele>226.0</ele><time>2026-05-01T12:51:25.999Z</time></trkpt><trkpt lat="43.72900709785845" lon="11.352939993224847"><ele>222.5</ele><time>2026-05-01T12:51:26.999Z</time></trkpt><trkpt lat="43.7290663235906" lon="11.353339595455788"><ele>219.0</ele><time>2026-05-01T12:51:27.999Z</time></trkpt><trkpt lat="43.72911241194131" lon="11.35374644731132"><ele>220.0</ele><time>2026-05-01T12:51:28.999Z</time></trkpt><trkpt lat="43.72914560424283" lon="11.35415527591722"><ele>221.0</ele><time>2026-05-01T12:51:29.999Z</time></trkpt><trkpt lat="43.72917466715187" lon="11.354559341702648"><ele>221.5</ele><time>2026-05-01T12:51:30.999Z</time></trkpt><trkpt lat="43.729202327692114" lon="11.35496747996661"><ele>222.0</ele><time>2026-05-01T12:51:31.999Z</time></trkpt><trkpt lat="43.72922956266297" lon="11.355376072800848"><ele>223.0</ele><time>2026-05-01T12:51:32.999Z</time></trkpt><trkpt lat="43.729254745845715" lon="11.35578193012907"><ele>224.0</ele><time>2026-05-01T12:51:33.999Z</time></trkpt><trkpt lat="43.72927815862524" lon="11.356188343268297"><ele>224.5</ele><time>2026-05-01T12:51:34.999Z</time></trkpt><trkpt lat="43.729304305819134" lon="11.35658527934181"><ele>225.0</ele><time>2026-05-01T12:51:35.999Z</time></trkpt><trkpt lat="43.729330717075875" lon="11.356977938526564"><ele>223.5</ele><time>2026-05-01T12:51:36.999Z</time></trkpt><trkpt lat="43.729355274237676" lon="11.357374387960318"><ele>222.0</ele><time>2026-05-01T12:51:37.999Z</time></trkpt><trkpt lat="43.72937975019824" lon="11.35776836390432"><ele>229.0</ele><time>2026-05-01T12:51:38.999Z</time></trkpt><trkpt lat="43.729402232050276" lon="11.358155371011682"><ele>236.0</ele><time>2026-05-01T12:51:39.999Z</time></trkpt><trkpt lat="43.72942485880633" lon="11.358537048806786"><ele>237.5</ele><time>2026-05-01T12:51:40.999Z</time></trkpt><trkpt lat="43.729449790822734" lon="11.35892460391186"><ele>239.0</ele><time>2026-05-01T12:51:41.999Z</time></trkpt><trkpt lat="43.729474444226994" lon="11.3593049841992"><ele>239.0</ele><time>2026-05-01T12:51:42.999Z</time></trkpt><trkpt lat="43.72949758477403" lon="11.359684509270835"><ele>239.0</ele><time>2026-05-01T12:51:43.999Z</time></trkpt><trkpt lat="43.72952109497562" lon="11.360069905014354"><ele>243.5</ele><time>2026-05-01T12:51:44.999Z</time></trkpt><trkpt lat="43.7295456957241" lon="11.360461786887507"><ele>248.0</ele><time>2026-05-01T12:51:45.999Z</time></trkpt><trkpt lat="43.72957029277807" lon="11.360857254264694"><ele>251.5</ele><time>2026-05-01T12:51:46.999Z</time></trkpt><trkpt lat="43.729593754597325" lon="11.36125739819475"><ele>255.0</ele><time>2026-05-01T12:51:47.999Z</time></trkpt><trkpt lat="43.72961735552431" lon="11.36166195576202"><ele>256.0</ele><time>2026-05-01T12:51:48.999Z</time></trkpt><trkpt lat="43.72964130050588" lon="11.362069613554532"><ele>257.0</ele><time>2026-05-01T12:51:49.999Z</time></trkpt><trkpt lat="43.7296651948627" lon="11.362478889805415"><ele>255.5</ele><time>2026-05-01T12:51:50.999Z</time></trkpt><trkpt lat="43.72968985939144" lon="11.362887787872703"><ele>254.0</ele><time>2026-05-01T12:51:51.999Z</time></trkpt><trkpt lat="43.72971598006363" lon="11.363298216083406"><ele>254.0</ele><time>2026-05-01T12:51:52.999Z</time></trkpt><trkpt lat="43.72974316361719" lon="11.36371272003397"><ele>254.0</ele><time>2026-05-01T12:51:53.999Z</time></trkpt><trkpt lat="43.72977122055006" lon="11.364129131071978"><ele>255.0</ele><time>2026-05-01T12:51:54.999Z</time></trkpt><trkpt lat="43.729798001365594" lon="11.364545051299052"><ele>256.0</ele><time>2026-05-01T12:51:55.999Z</time></trkpt><trkpt lat="43.72982513961689" lon="11.364961354639266"><ele>253.5</ele><time>2026-05-01T12:51:56.999Z</time></trkpt><trkpt lat="43.72985221079544" lon="11.365375885415057"><ele>251.0</ele><time>2026-05-01T12:51:57.999Z</time></trkpt><trkpt lat="43.72987786096956" lon="11.365790035637097"><ele>251.0</ele><time>2026-05-01T12:51:58.999Z</time></trkpt><trkpt lat="43.729903358624846" lon="11.366203107769131"><ele>251.0</ele><time>2026-05-01T12:51:59.999Z</time></trkpt><trkpt lat="43.729927671661954" lon="11.366611963801521"><ele>256.0</ele><time>2026-05-01T12:52:00.999Z</time></trkpt><trkpt lat="43.72995208911133" lon="11.367017197961632"><ele>261.0</ele><time>2026-05-01T12:52:01.999Z</time></trkpt><trkpt lat="43.729977168981684" lon="11.367422648659224"><ele>262.0</ele><time>2026-05-01T12:52:02.999Z</time></trkpt><trkpt lat="43.73000091901948" lon="11.367825928526203"><ele>263.0</ele><time>2026-05-01T12:52:03.999Z</time></trkpt><trkpt lat="43.73002360197749" lon="11.368232367215963"><ele>263.0</ele><time>2026-05-01T12:52:04.999Z</time></trkpt><trkpt lat="43.7300454175958" lon="11.368639939034006"><ele>263.0</ele><time>2026-05-01T12:52:05.999Z</time></trkpt><trkpt lat="43.73006373531663" lon="11.36904752086811"><ele>263.5</ele><time>2026-05-01T12:52:06.999Z</time></trkpt><trkpt lat="43.73006228842801" lon="11.369457498797813"><ele>264.0</ele><time>2026-05-01T12:52:07.999Z</time></trkpt><trkpt lat="43.73003631568144" lon="11.369861602959448"><ele>263.5</ele><time>2026-05-01T12:52:08.999Z</time></trkpt><trkpt lat="43.729986053723486" lon="11.370265032318342"><ele>263.0</ele><time>2026-05-01T12:52:09.999Z</time></trkpt><trkpt lat="43.72990873055045" lon="11.37066003430252"><ele>263.0</ele><time>2026-05-01T12:52:10.999Z</time></trkpt><trkpt lat="43.72981292304019" lon="11.371045953654528"><ele>263.0</ele><time>2026-05-01T12:52:11.999Z</time></trkpt><trkpt lat="43.72968664794964" lon="11.371416336167371"><ele>265.5</ele><time>2026-05-01T12:52:12.999Z</time></trkpt><trkpt lat="43.72954297351292" lon="11.371774738015016"><ele>268.0</ele><time>2026-05-01T12:52:13.999Z</time></trkpt><trkpt lat="43.72937694399716" lon="11.372118069159981"><ele>267.5</ele><time>2026-05-01T12:52:14.999Z</time></trkpt><trkpt lat="43.72919484476461" lon="11.372444305425455"><ele>267.0</ele><time>2026-05-01T12:52:15.999Z</time></trkpt><trkpt lat="43.728990654420144" lon="11.372745948316235"><ele>267.5</ele><time>2026-05-01T12:52:16.999Z</time></trkpt><trkpt lat="43.728768265746346" lon="11.37302292273744"><ele>268.0</ele><time>2026-05-01T12:52:17.999Z</time></trkpt><trkpt lat="43.72852865231194" lon="11.373271443757952"><ele>268.0</ele><time>2026-05-01T12:52:18.999Z</time></trkpt><trkpt lat="43.72827527693868" lon="11.373489799218856"><ele>268.0</ele><time>2026-05-01T12:52:19.999Z</time></trkpt><trkpt lat="43.72801249836831" lon="11.373677003828236"><ele>268.0</ele><time>2026-05-01T12:52:20.999Z</time></trkpt><trkpt lat="43.727743963264814" lon="11.37383509395147"><ele>268.0</ele><time>2026-05-01T12:52:21.999Z</time></trkpt><trkpt lat="43.72746733828679" lon="11.373963079633283"><ele>268.5</ele><time>2026-05-01T12:52:22.999Z</time></trkpt><trkpt lat="43.727180178377765" lon="11.374067035135601"><ele>269.0</ele><time>2026-05-01T12:52:23.999Z</time></trkpt><trkpt lat="43.72688736165314" lon="11.374163037640034"><ele>270.5</ele><time>2026-05-01T12:52:24.999Z</time></trkpt><trkpt lat="43.72660525657569" lon="11.374263842582417"><ele>272.0</ele><time>2026-05-01T12:52:25.999Z</time></trkpt><trkpt lat="43.72633336318834" lon="11.374364045536758"><ele>272.0</ele><time>2026-05-01T12:52:26.999Z</time></trkpt><trkpt lat="43.72606491327763" lon="11.37445833964291"><ele>272.0</ele><time>2026-05-01T12:52:27.999Z</time></trkpt><trkpt lat="43.72579683243587" lon="11.374549240740862"><ele>275.0</ele><time>2026-05-01T12:52:28.999Z</time></trkpt><trkpt lat="43.72553905937914" lon="11.374636880367639"><ele>278.0</ele><time>2026-05-01T12:52:29.999Z</time></trkpt><trkpt lat="43.725293344654865" lon="11.374722060263343"><ele>285.0</ele><time>2026-05-01T12:52:30.999Z</time></trkpt><trkpt lat="43.7250523426402" lon="11.374807613614461"><ele>292.0</ele><time>2026-05-01T12:52:32Z</time></trkpt><trkpt lat="43.72481048643104" lon="11.374894681978448"><ele>292.0</ele><time>2026-05-01T12:52:33Z</time></trkpt><trkpt lat="43.72457965858417" lon="11.374987377222181"><ele>292.0</ele><time>2026-05-01T12:52:34Z</time></trkpt><trkpt lat="43.72435461245194" lon="11.375085146892122"><ele>292.0</ele><time>2026-05-01T12:52:35Z</time></trkpt><trkpt lat="43.724133374979374" lon="11.375189691922408"><ele>292.0</ele><time>2026-05-01T12:52:36Z</time></trkpt><trkpt lat="43.72391925811407" lon="11.37530982498911"><ele>292.0</ele><time>2026-05-01T12:52:37Z</time></trkpt><trkpt lat="43.723714059568195" lon="11.375449312315968"><ele>292.0</ele><time>2026-05-01T12:52:38Z</time></trkpt><trkpt lat="43.72352085594344" lon="11.375609444118055"><ele>293.66666666666663</ele><time>2026-05-01T12:52:39Z</time></trkpt><trkpt lat="43.723339958754835" lon="11.375785167850022"><ele>295.3333333333333</ele><time>2026-05-01T12:52:40Z</time></trkpt><trkpt lat="43.72317160553575" lon="11.37597663291734"><ele>297.0</ele><time>2026-05-01T12:52:41Z</time></trkpt><trkpt lat="43.72301541019862" lon="11.376170206544094"><ele>301.0</ele><time>2026-05-01T12:52:42Z</time></trkpt><trkpt lat="43.72286858467599" lon="11.376362697837331"><ele>305.0</ele><time>2026-05-01T12:52:43Z</time></trkpt><trkpt lat="43.72273268913334" lon="11.376570453518667"><ele>309.0</ele><time>2026-05-01T12:52:44Z</time></trkpt><trkpt lat="43.72260354496177" lon="11.376785629248648"><ele>311.6666666666667</ele><time>2026-05-01T12:52:45Z</time></trkpt><trkpt lat="43.722479840987155" lon="11.377004875530291"><ele>314.33333333333337</ele><time>2026-05-01T12:52:46Z</time></trkpt><trkpt lat="43.722364369042" lon="11.377224076471272"><ele>317.0</ele><time>2026-05-01T12:52:47Z</time></trkpt><trkpt lat="43.72224763822132" lon="11.377442968279045"><ele>319.5</ele><time>2026-05-01T12:52:48Z</time></trkpt><trkpt lat="43.72212033931182" lon="11.377673155817002"><ele>322.0</ele><time>2026-05-01T12:52:49Z</time></trkpt><trkpt lat="43.72197645635475" lon="11.377948000604412"><ele>331.0</ele><time>2026-05-01T12:52:50Z</time></trkpt><trkpt lat="43.7218263906127" lon="11.3782452667977"><ele>340.0</ele><time>2026-05-01T12:52:51Z</time></trkpt><trkpt lat="43.72167889682746" lon="11.378523721451488"><ele>340.0</ele><time>2026-05-01T12:52:52Z</time></trkpt><trkpt lat="43.72153633965196" lon="11.378779073972634"><ele>340.0</ele><time>2026-05-01T12:52:53Z</time></trkpt><trkpt lat="43.7213969789824" lon="11.379032669115691"><ele>345.5</ele><time>2026-05-01T12:52:54Z</time></trkpt><trkpt lat="43.721170548295234" lon="11.379400868691544"><ele>351.0</ele><time>2026-05-01T12:52:55Z</time></trkpt><trkpt lat="43.72102997835074" lon="11.379664019453735"><ele>361.5</ele><time>2026-05-01T12:52:56Z</time></trkpt><trkpt lat="43.720887187056036" lon="11.379923864636705"><ele>372.0</ele><time>2026-05-01T12:52:57Z</time></trkpt><trkpt lat="43.720740596674084" lon="11.38017691101444"><ele>372.0</ele><time>2026-05-01T12:52:58Z</time></trkpt><trkpt lat="43.72060237075846" lon="11.38043067116398"><ele>372.0</ele><time>2026-05-01T12:52:59Z</time></trkpt><trkpt lat="43.72046159555105" lon="11.380686783982602"><ele>376.5</ele><time>2026-05-01T12:53:00Z</time></trkpt><trkpt lat="43.720317389910896" lon="11.380939304167669"><ele>381.0</ele><time>2026-05-01T12:53:01Z</time></trkpt><trkpt lat="43.720170493167565" lon="11.381188206019798"><ele>381.5</ele><time>2026-05-01T12:53:02Z</time></trkpt><trkpt lat="43.72002247935874" lon="11.381442614983758"><ele>382.0</ele><time>2026-05-01T12:53:03Z</time></trkpt><trkpt lat="43.71987145446832" lon="11.38170757873659"><ele>382.0</ele><time>2026-05-01T12:53:04Z</time></trkpt><trkpt lat="43.719719581971816" lon="11.38196296489451"><ele>382.0</ele><time>2026-05-01T12:53:05Z</time></trkpt><trkpt lat="43.71957030449011" lon="11.382210646186431"><ele>379.0</ele><time>2026-05-01T12:53:06Z</time></trkpt><trkpt lat="43.71942038467685" lon="11.382472762525563"><ele>376.0</ele><time>2026-05-01T12:53:07Z</time></trkpt><trkpt lat="43.71926939958489" lon="11.382743598249977"><ele>368.0</ele><time>2026-05-01T12:53:08Z</time></trkpt><trkpt lat="43.71909392422075" lon="11.383046731720167"><ele>360.0</ele><time>2026-05-01T12:53:09Z</time></trkpt><trkpt lat="43.71892904020829" lon="11.383328920852337"><ele>360.0</ele><time>2026-05-01T12:53:10Z</time></trkpt><trkpt lat="43.718771307162605" lon="11.383611637115175"><ele>360.0</ele><time>2026-05-01T12:53:11Z</time></trkpt><trkpt lat="43.7186164727573" lon="11.38388998412156"><ele>355.0</ele><time>2026-05-01T12:53:12Z</time></trkpt><trkpt lat="43.7184713245209" lon="11.384158775150631"><ele>350.0</ele><time>2026-05-01T12:53:13Z</time></trkpt><trkpt lat="43.718311381309135" lon="11.384422313923404"><ele>343.0</ele><time>2026-05-01T12:53:14Z</time></trkpt><trkpt lat="43.71815538727492" lon="11.384685954480055"><ele>336.0</ele><time>2026-05-01T12:53:15Z</time></trkpt><trkpt lat="43.71799900663468" lon="11.384952730573852"><ele>336.0</ele><time>2026-05-01T12:53:16Z</time></trkpt><trkpt lat="43.717908558709915" lon="11.385301945849799"><ele>336.0</ele><time>2026-05-01T12:53:17.009Z</time></trkpt><trkpt lat="43.717720025720105" lon="11.385872249577936"><ele>328.0</ele><time>2026-05-01T12:53:20Z</time></trkpt><trkpt lat="43.71757890558283" lon="11.386146623084192"><ele>320.0</ele><time>2026-05-01T12:53:21Z</time></trkpt><trkpt lat="43.717422755138834" lon="11.386382571078329"><ele>316.5</ele><time>2026-05-01T12:53:22Z</time></trkpt><trkpt lat="43.717272008507095" lon="11.386682445887747"><ele>313.0</ele><time>2026-05-01T12:53:23Z</time></trkpt><trkpt lat="43.717125940327925" lon="11.38695459157553"><ele>310.0</ele><time>2026-05-01T12:53:24Z</time></trkpt><trkpt lat="43.7169755582525" lon="11.387210828870385"><ele>307.0</ele><time>2026-05-01T12:53:25Z</time></trkpt><trkpt lat="43.71684185522832" lon="11.38747813293078"><ele>307.5</ele><time>2026-05-01T12:53:26Z</time></trkpt><trkpt lat="43.71669882303293" lon="11.387743589036116"><ele>308.0</ele><time>2026-05-01T12:53:27Z</time></trkpt><trkpt lat="43.71655311171116" lon="11.388012590948403"><ele>308.0</ele><time>2026-05-01T12:53:28Z</time></trkpt><trkpt lat="43.716401834388876" lon="11.388289972664452"><ele>308.0</ele><time>2026-05-01T12:53:29Z</time></trkpt><trkpt lat="43.71624238387549" lon="11.38857952266744"><ele>310.5</ele><time>2026-05-01T12:53:30Z</time></trkpt><trkpt lat="43.71608110821247" lon="11.388875150868502"><ele>313.0</ele><time>2026-05-01T12:53:31Z</time></trkpt><trkpt lat="43.71591859748814" lon="11.389174461678994"><ele>313.0</ele><time>2026-05-01T12:53:32Z</time></trkpt><trkpt lat="43.71575754908085" lon="11.38947323274441"><ele>313.0</ele><time>2026-05-01T12:53:33Z</time></trkpt><trkpt lat="43.715595732985264" lon="11.389773275274983"><ele>308.0</ele><time>2026-05-01T12:53:34Z</time></trkpt><trkpt lat="43.71543666486101" lon="11.390067803704238"><ele>303.0</ele><time>2026-05-01T12:53:34.999Z</time></trkpt><trkpt lat="43.71527508812591" lon="11.390353474444554"><ele>302.0</ele><time>2026-05-01T12:53:35.999Z</time></trkpt><trkpt lat="43.71510409070446" lon="11.390619343175457"><ele>301.0</ele><time>2026-05-01T12:53:36.999Z</time></trkpt><trkpt lat="43.71491563370604" lon="11.390870827072618"><ele>301.0</ele><time>2026-05-01T12:53:37.999Z</time></trkpt><trkpt lat="43.71471624773649" lon="11.391095641933882"><ele>301.0</ele><time>2026-05-01T12:53:38.999Z</time></trkpt><trkpt lat="43.71450103654839" lon="11.391298162984985"><ele>299.0</ele><time>2026-05-01T12:53:39.999Z</time></trkpt><trkpt lat="43.7142764094051" lon="11.391482115834334"><ele>297.0</ele><time>2026-05-01T12:53:40.999Z</time></trkpt><trkpt lat="43.71403984121161" lon="11.391635966351087"><ele>297.0</ele><time>2026-05-01T12:53:41.999Z</time></trkpt><trkpt lat="43.71380193101874" lon="11.391761112418662"><ele>297.0</ele><time>2026-05-01T12:53:42.999Z</time></trkpt><trkpt lat="43.713565670382515" lon="11.39187699881381"><ele>292.0</ele><time>2026-05-01T12:53:43.999Z</time></trkpt><trkpt lat="43.713331019331505" lon="11.391987720841149"><ele>287.0</ele><time>2026-05-01T12:53:44.999Z</time></trkpt><trkpt lat="43.71309302812829" lon="11.392089375339268"><ele>286.0</ele><time>2026-05-01T12:53:45.999Z</time></trkpt><trkpt lat="43.71284452996223" lon="11.39217650826593"><ele>285.0</ele><time>2026-05-01T12:53:46.999Z</time></trkpt><trkpt lat="43.71259079441712" lon="11.392254168718507"><ele>285.0</ele><time>2026-05-01T12:53:47.999Z</time></trkpt><trkpt lat="43.7123349514065" lon="11.392318829327206"><ele>285.0</ele><time>2026-05-01T12:53:48.999Z</time></trkpt><trkpt lat="43.71207750472092" lon="11.392369853228756"><ele>286.0</ele><time>2026-05-01T12:53:49.999Z</time></trkpt><trkpt lat="43.71181995300063" lon="11.39241138895217"><ele>287.0</ele><time>2026-05-01T12:53:50.999Z</time></trkpt><trkpt lat="43.71156542614533" lon="11.392453023165919"><ele>287.0</ele><time>2026-05-01T12:53:51.999Z</time></trkpt><trkpt lat="43.711320035941" lon="11.392493335985593"><ele>287.0</ele><time>2026-05-01T12:53:52.999Z</time></trkpt><trkpt lat="43.71107935730713" lon="11.392530363655487"><ele>287.0</ele><time>2026-05-01T12:53:53.999Z</time></trkpt><trkpt lat="43.710843132490034" lon="11.392566529295694"><ele>287.0</ele><time>2026-05-01T12:53:54.999Z</time></trkpt><trkpt lat="43.710610467239654" lon="11.392606529601125"><ele>287.0</ele><time>2026-05-01T12:53:55.999Z</time></trkpt><trkpt lat="43.710379379087044" lon="11.392656577187765"><ele>287.0</ele><time>2026-05-01T12:53:56.999Z</time></trkpt><trkpt lat="43.71014933749591" lon="11.392713599337982"><ele>282.5</ele><time>2026-05-01T12:53:57.999Z</time></trkpt><trkpt lat="43.709918759010485" lon="11.392776715371145"><ele>278.0</ele><time>2026-05-01T12:53:58.999Z</time></trkpt><trkpt lat="43.70968741971914" lon="11.392849373904234"><ele>278.0</ele><time>2026-05-01T12:53:59.999Z</time></trkpt><trkpt lat="43.70945607684827" lon="11.392931822686952"><ele>278.0</ele><time>2026-05-01T12:54:00.999Z</time></trkpt><trkpt lat="43.70922744745772" lon="11.393032373976293"><ele>274.5</ele><time>2026-05-01T12:54:01.999Z</time></trkpt><trkpt lat="43.70900129638193" lon="11.393148204130458"><ele>271.0</ele><time>2026-05-01T12:54:02.999Z</time></trkpt><trkpt lat="43.70877943694588" lon="11.393275816618196"><ele>276.0</ele><time>2026-05-01T12:54:03.999Z</time></trkpt><trkpt lat="43.70856488843498" lon="11.393419704631535"><ele>281.0</ele><time>2026-05-01T12:54:04.999Z</time></trkpt><trkpt lat="43.708352743629675" lon="11.393575571688292"><ele>281.0</ele><time>2026-05-01T12:54:05.999Z</time></trkpt><trkpt lat="43.70813517672573" lon="11.39371429867314"><ele>281.0</ele><time>2026-05-01T12:54:06.999Z</time></trkpt><trkpt lat="43.70793935075518" lon="11.393918769994967"><ele>278.5</ele><time>2026-05-01T12:54:07.999Z</time></trkpt><trkpt lat="43.7077358998928" lon="11.39410572025577"><ele>276.0</ele><time>2026-05-01T12:54:08.999Z</time></trkpt><trkpt lat="43.707530663904635" lon="11.394299001056208"><ele>276.0</ele><time>2026-05-01T12:54:09.999Z</time></trkpt><trkpt lat="43.70733024396243" lon="11.39450565311695"><ele>276.0</ele><time>2026-05-01T12:54:10.999Z</time></trkpt><trkpt lat="43.70713465117848" lon="11.394725669524757"><ele>276.0</ele><time>2026-05-01T12:54:11.999Z</time></trkpt><trkpt lat="43.70694177528798" lon="11.394945928896211"><ele>276.0</ele><time>2026-05-01T12:54:12.999Z</time></trkpt><trkpt lat="43.70674615357787" lon="11.39516505459091"><ele>276.0</ele><time>2026-05-01T12:54:13.999Z</time></trkpt><trkpt lat="43.70654660970504" lon="11.395381001386463"><ele>276.0</ele><time>2026-05-01T12:54:14.999Z</time></trkpt><trkpt lat="43.706338415552686" lon="11.395590223310395"><ele>275.5</ele><time>2026-05-01T12:54:15.999Z</time></trkpt><trkpt lat="43.70613098247569" lon="11.395796022792815"><ele>275.0</ele><time>2026-05-01T12:54:16.999Z</time></trkpt><trkpt lat="43.70592382467938" lon="11.39600531447826"><ele>276.0</ele><time>2026-05-01T12:54:17.999Z</time></trkpt><trkpt lat="43.705716031042435" lon="11.396214576274403"><ele>277.0</ele><time>2026-05-01T12:54:18.999Z</time></trkpt><trkpt lat="43.70550996892529" lon="11.396422633009136"><ele>277.0</ele><time>2026-05-01T12:54:19.999Z</time></trkpt><trkpt lat="43.70530711154488" lon="11.39662702490912"><ele>277.0</ele><time>2026-05-01T12:54:20.999Z</time></trkpt><trkpt lat="43.70511966691417" lon="11.39682251626477"><ele>277.3333333333333</ele><time>2026-05-01T12:54:21.999Z</time></trkpt><trkpt lat="43.70494738056887" lon="11.397017418027989"><ele>277.6666666666667</ele><time>2026-05-01T12:54:22.999Z</time></trkpt><trkpt lat="43.70478556946089" lon="11.397211345834597"><ele>278.0</ele><time>2026-05-01T12:54:23.999Z</time></trkpt><trkpt lat="43.70463223327225" lon="11.397402746996775"><ele>278.0</ele><time>2026-05-01T12:54:24.999Z</time></trkpt><trkpt lat="43.70448382436005" lon="11.39758628349428"><ele>278.0</ele><time>2026-05-01T12:54:25.999Z</time></trkpt><trkpt lat="43.70433871535905" lon="11.397763467907254"><ele>278.0</ele><time>2026-05-01T12:54:26.999Z</time></trkpt><trkpt lat="43.70418981663093" lon="11.39794641280703"><ele>276.6666666666667</ele><time>2026-05-01T12:54:27.999Z</time></trkpt><trkpt lat="43.70404002586068" lon="11.398130444575752"><ele>275.3333333333333</ele><time>2026-05-01T12:54:28.999Z</time></trkpt><trkpt lat="43.70389315161074" lon="11.398309465119029"><ele>274.0</ele><time>2026-05-01T12:54:29.999Z</time></trkpt><trkpt lat="43.70374732664871" lon="11.398482804316414"><ele>274.0</ele><time>2026-05-01T12:54:30.999Z</time></trkpt><trkpt lat="43.7036081918536" lon="11.398649944907303"><ele>274.0</ele><time>2026-05-01T12:54:31.999Z</time></trkpt><trkpt lat="43.703470407030444" lon="11.398814110206231"><ele>274.0</ele><time>2026-05-01T12:54:32.999Z</time></trkpt><trkpt lat="43.70333277192947" lon="11.398982038630223"><ele>271.0</ele><time>2026-05-01T12:54:33.999Z</time></trkpt><trkpt lat="43.703188944082235" lon="11.399159303643449"><ele>268.0</ele><time>2026-05-01T12:54:34.999Z</time></trkpt><trkpt lat="43.703033496626944" lon="11.399347678980124"><ele>265.0</ele><time>2026-05-01T12:54:35.999Z</time></trkpt><trkpt lat="43.70286777657" lon="11.399547483736143"><ele>265.5</ele><time>2026-05-01T12:54:36.999Z</time></trkpt><trkpt lat="43.70269697169884" lon="11.399756887002832"><ele>266.0</ele><time>2026-05-01T12:54:38Z</time></trkpt><trkpt lat="43.70252257100088" lon="11.39997187751281"><ele>266.0</ele><time>2026-05-01T12:54:39Z</time></trkpt><trkpt lat="43.70234790647247" lon="11.400190195797295"><ele>266.0</ele><time>2026-05-01T12:54:40Z</time></trkpt><trkpt lat="43.702163297869944" lon="11.400422779773397"><ele>265.0</ele><time>2026-05-01T12:54:41Z</time></trkpt><trkpt lat="43.70197338453334" lon="11.400662836230369"><ele>264.0</ele><time>2026-05-01T12:54:42Z</time></trkpt><trkpt lat="43.70178069319586" lon="11.400908264846851"><ele>264.0</ele><time>2026-05-01T12:54:43Z</time></trkpt><trkpt lat="43.70158694736389" lon="11.401156715557958"><ele>264.0</ele><time>2026-05-01T12:54:44Z</time></trkpt><trkpt lat="43.701389722966844" lon="11.40140337883139"><ele>262.5</ele><time>2026-05-01T12:54:45Z</time></trkpt><trkpt lat="43.701191263305034" lon="11.401649524895474"><ele>261.0</ele><time>2026-05-01T12:54:46Z</time></trkpt><trkpt lat="43.700992345604384" lon="11.40189188867868"><ele>261.0</ele><time>2026-05-01T12:54:47Z</time></trkpt><trkpt lat="43.7007928037313" lon="11.40213622976146"><ele>261.0</ele><time>2026-05-01T12:54:48Z</time></trkpt><trkpt lat="43.700592455528444" lon="11.402379961943922"><ele>259.0</ele><time>2026-05-01T12:54:49Z</time></trkpt><trkpt lat="43.70039049379191" lon="11.402624397463688"><ele>257.0</ele><time>2026-05-01T12:54:50Z</time></trkpt><trkpt lat="43.7001876335328" lon="11.402861980696166"><ele>253.0</ele><time>2026-05-01T12:54:51Z</time></trkpt><trkpt lat="43.699986110518104" lon="11.403093873736765"><ele>249.0</ele><time>2026-05-01T12:54:52Z</time></trkpt><trkpt lat="43.699790549001904" lon="11.403314447166371"><ele>249.0</ele><time>2026-05-01T12:54:53Z</time></trkpt><trkpt lat="43.69959333455634" lon="11.403530079484762"><ele>249.0</ele><time>2026-05-01T12:54:54Z</time></trkpt><trkpt lat="43.699401826698065" lon="11.403735556111615"><ele>250.5</ele><time>2026-05-01T12:54:55Z</time></trkpt><trkpt lat="43.69921307028667" lon="11.403936059439818"><ele>252.0</ele><time>2026-05-01T12:54:56Z</time></trkpt><trkpt lat="43.6990246500818" lon="11.404135997967268"><ele>252.0</ele><time>2026-05-01T12:54:57Z</time></trkpt><trkpt lat="43.69883746028422" lon="11.404332296208981"><ele>252.0</ele><time>2026-05-01T12:54:58Z</time></trkpt><trkpt lat="43.69864770437076" lon="11.404524442935479"><ele>246.5</ele><time>2026-05-01T12:54:59Z</time></trkpt><trkpt lat="43.6984575500027" lon="11.404713739139774"><ele>241.0</ele><time>2026-05-01T12:55:00Z</time></trkpt><trkpt lat="43.698263739197365" lon="11.404902598391562"><ele>241.0</ele><time>2026-05-01T12:55:01Z</time></trkpt><trkpt lat="43.69806894282491" lon="11.405090367815495"><ele>241.0</ele><time>2026-05-01T12:55:02Z</time></trkpt><trkpt lat="43.69786909206496" lon="11.405275915682576"><ele>243.5</ele><time>2026-05-01T12:55:03Z</time></trkpt><trkpt lat="43.69765876646593" lon="11.405467976096135"><ele>246.0</ele><time>2026-05-01T12:55:04Z</time></trkpt><trkpt lat="43.69744237721287" lon="11.405663328759179"><ele>240.5</ele><time>2026-05-01T12:55:05Z</time></trkpt><trkpt lat="43.69722352490425" lon="11.405859351878131"><ele>235.0</ele><time>2026-05-01T12:55:06Z</time></trkpt><trkpt lat="43.6969995622063" lon="11.406055228685949"><ele>233.0</ele><time>2026-05-01T12:55:07Z</time></trkpt><trkpt lat="43.6967711445755" lon="11.406249717885819"><ele>231.0</ele><time>2026-05-01T12:55:08Z</time></trkpt><trkpt lat="43.696540426056615" lon="11.406445656617144"><ele>231.0</ele><time>2026-05-01T12:55:09Z</time></trkpt><trkpt lat="43.696309881178365" lon="11.406640704148574"><ele>231.0</ele><time>2026-05-01T12:55:10Z</time></trkpt><trkpt lat="43.69607626247476" lon="11.406837460821867"><ele>232.5</ele><time>2026-05-01T12:55:11Z</time></trkpt><trkpt lat="43.69583881820047" lon="11.407038456219926"><ele>234.0</ele><time>2026-05-01T12:55:12Z</time></trkpt><trkpt lat="43.69560023165808" lon="11.40724403248809"><ele>228.5</ele><time>2026-05-01T12:55:13Z</time></trkpt><trkpt lat="43.69536175728812" lon="11.407451442429036"><ele>223.0</ele><time>2026-05-01T12:55:14Z</time></trkpt><trkpt lat="43.695124619619186" lon="11.407656053357105"><ele>222.0</ele><time>2026-05-01T12:55:15Z</time></trkpt><trkpt lat="43.69489130888152" lon="11.407860522626825"><ele>221.0</ele><time>2026-05-01T12:55:16Z</time></trkpt><trkpt lat="43.69465574889335" lon="11.408066779090865"><ele>222.0</ele><time>2026-05-01T12:55:17Z</time></trkpt><trkpt lat="43.6944235965628" lon="11.408277504437175"><ele>223.0</ele><time>2026-05-01T12:55:18Z</time></trkpt><trkpt lat="43.694199580346464" lon="11.408502318461505"><ele>223.0</ele><time>2026-05-01T12:55:19Z</time></trkpt><trkpt lat="43.69398954414052" lon="11.408755524769791"><ele>223.0</ele><time>2026-05-01T12:55:20Z</time></trkpt><trkpt lat="43.69379363847477" lon="11.40903666276286"><ele>225.0</ele><time>2026-05-01T12:55:21Z</time></trkpt><trkpt lat="43.69361472381823" lon="11.409332158522696"><ele>227.0</ele><time>2026-05-01T12:55:22Z</time></trkpt><trkpt lat="43.69345585380458" lon="11.409640354897629"><ele>222.0</ele><time>2026-05-01T12:55:23Z</time></trkpt><trkpt lat="43.693318809617054" lon="11.409958564702013"><ele>217.0</ele><time>2026-05-01T12:55:24Z</time></trkpt><trkpt lat="43.69319931585723" lon="11.410288732854575"><ele>210.0</ele><time>2026-05-01T12:55:25Z</time></trkpt><trkpt lat="43.69309760299783" lon="11.410630912633371"><ele>203.0</ele><time>2026-05-01T12:55:26Z</time></trkpt><trkpt lat="43.693014238436106" lon="11.410977992025028"><ele>204.0</ele><time>2026-05-01T12:55:27Z</time></trkpt><trkpt lat="43.6929503667513" lon="11.411324802171965"><ele>205.0</ele><time>2026-05-01T12:55:28Z</time></trkpt><trkpt lat="43.69290473005392" lon="11.411676206798878"><ele>205.0</ele><time>2026-05-01T12:55:29Z</time></trkpt><trkpt lat="43.69287927296418" lon="11.412020563576535"><ele>205.0</ele><time>2026-05-01T12:55:30Z</time></trkpt><trkpt lat="43.692872435394925" lon="11.4123592833389"><ele>206.5</ele><time>2026-05-01T12:55:31Z</time></trkpt><trkpt lat="43.692882936546134" lon="11.412693381454881"><ele>208.0</ele><time>2026-05-01T12:55:32Z</time></trkpt><trkpt lat="43.69290762324456" lon="11.413029579488823"><ele>205.0</ele><time>2026-05-01T12:55:33Z</time></trkpt><trkpt lat="43.69293982778062" lon="11.413377397019259"><ele>202.0</ele><time>2026-05-01T12:55:34Z</time></trkpt><trkpt lat="43.69297281750768" lon="11.41373833233636"><ele>200.5</ele><time>2026-05-01T12:55:35Z</time></trkpt><trkpt lat="43.69300444332576" lon="11.41409222246491"><ele>199.0</ele><time>2026-05-01T12:55:36Z</time></trkpt><trkpt lat="43.693036239949706" lon="11.414443850266432"><ele>200.0</ele><time>2026-05-01T12:55:37Z</time></trkpt><trkpt lat="43.69306832110108" lon="11.414792590376509"><ele>201.0</ele><time>2026-05-01T12:55:38Z</time></trkpt><trkpt lat="43.693099675360536" lon="11.415139799437085"><ele>203.5</ele><time>2026-05-01T12:55:39Z</time></trkpt><trkpt lat="43.69313341511184" lon="11.415491400489163"><ele>206.0</ele><time>2026-05-01T12:55:40Z</time></trkpt><trkpt lat="43.6931678639832" lon="11.415849658973263"><ele>206.0</ele><time>2026-05-01T12:55:41Z</time></trkpt><trkpt lat="43.693200635756305" lon="11.416213253448039"><ele>206.0</ele><time>2026-05-01T12:55:41.999Z</time></trkpt><trkpt lat="43.69323378403994" lon="11.416579300702335"><ele>204.0</ele><time>2026-05-01T12:55:42.999Z</time></trkpt><trkpt lat="43.69327272383398" lon="11.41694286698938"><ele>202.0</ele><time>2026-05-01T12:55:43.999Z</time></trkpt><trkpt lat="43.693324823179886" lon="11.417297503007031"><ele>201.5</ele><time>2026-05-01T12:55:44.999Z</time></trkpt><trkpt lat="43.693394359893134" lon="11.417640772619267"><ele>201.0</ele><time>2026-05-01T12:55:45.999Z</time></trkpt><trkpt lat="43.69347936571668" lon="11.41797917396247"><ele>202.5</ele><time>2026-05-01T12:55:46.999Z</time></trkpt><trkpt lat="43.69357489688751" lon="11.418313058866847"><ele>204.0</ele><time>2026-05-01T12:55:47.999Z</time></trkpt><trkpt lat="43.69367475952651" lon="11.418634925860967"><ele>195.0</ele><time>2026-05-01T12:55:48.999Z</time></trkpt><trkpt lat="43.693775450504454" lon="11.41894985490116"><ele>186.0</ele><time>2026-05-01T12:55:49.999Z</time></trkpt><trkpt lat="43.693871730190914" lon="11.419259205116639"><ele>186.0</ele><time>2026-05-01T12:55:50.999Z</time></trkpt><trkpt lat="43.69396383692286" lon="11.419567807818389"><ele>186.0</ele><time>2026-05-01T12:55:51.999Z</time></trkpt><trkpt lat="43.69404700617919" lon="11.419883813104908"><ele>187.0</ele><time>2026-05-01T12:55:52.999Z</time></trkpt><trkpt lat="43.69411877656009" lon="11.420210554152947"><ele>188.0</ele><time>2026-05-01T12:55:53.999Z</time></trkpt><trkpt lat="43.694181381608004" lon="11.420548713465205"><ele>189.0</ele><time>2026-05-01T12:55:54.999Z</time></trkpt><trkpt lat="43.69423394718743" lon="11.420886672157314"><ele>190.0</ele><time>2026-05-01T12:55:55.999Z</time></trkpt><trkpt lat="43.69427233558183" lon="11.421218401265469"><ele>189.5</ele><time>2026-05-01T12:55:56.999Z</time></trkpt><trkpt lat="43.69429893904029" lon="11.421543720849765"><ele>189.0</ele><time>2026-05-01T12:55:57.999Z</time></trkpt><trkpt lat="43.69431300522146" lon="11.421858875984084"><ele>187.66666666666666</ele><time>2026-05-01T12:55:58.999Z</time></trkpt><trkpt lat="43.694315090486405" lon="11.422162206276562"><ele>186.33333333333331</ele><time>2026-05-01T12:55:59.999Z</time></trkpt><trkpt lat="43.69430636031301" lon="11.422455226596046"><ele>185.0</ele><time>2026-05-01T12:56:00.999Z</time></trkpt><trkpt lat="43.69429321601648" lon="11.422739521896604"><ele>184.33333333333331</ele><time>2026-05-01T12:56:01.999Z</time></trkpt><trkpt lat="43.69427971899005" lon="11.423013458847603"><ele>183.66666666666666</ele><time>2026-05-01T12:56:02.999Z</time></trkpt><trkpt lat="43.69426217281324" lon="11.42327567423797"><ele>183.0</ele><time>2026-05-01T12:56:03.999Z</time></trkpt><trkpt lat="43.69423845625962" lon="11.423531199305488"><ele>183.0</ele><time>2026-05-01T12:56:04.999Z</time></trkpt><trkpt lat="43.69420407612216" lon="11.423779958935926"><ele>183.0</ele><time>2026-05-01T12:56:05.999Z</time></trkpt><trkpt lat="43.694162907997075" lon="11.424028136050252"><ele>183.0</ele><time>2026-05-01T12:56:06.999Z</time></trkpt><trkpt lat="43.694114661174595" lon="11.424282268187453"><ele>181.0</ele><time>2026-05-01T12:56:07.999Z</time></trkpt><trkpt lat="43.69405845310063" lon="11.424546321575237"><ele>179.0</ele><time>2026-05-01T12:56:08.999Z</time></trkpt><trkpt lat="43.693998375949" lon="11.42480676374534"><ele>177.0</ele><time>2026-05-01T12:56:09.999Z</time></trkpt><trkpt lat="43.693938364110025" lon="11.425070111132394"><ele>177.0</ele><time>2026-05-01T12:56:10.999Z</time></trkpt><trkpt lat="43.69387903350213" lon="11.425338237301697"><ele>177.0</ele><time>2026-05-01T12:56:11.999Z</time></trkpt><trkpt lat="43.693819540443776" lon="11.425606903027548"><ele>177.0</ele><time>2026-05-01T12:56:12.999Z</time></trkpt><trkpt lat="43.69376037329674" lon="11.42587588979738"><ele>176.33333333333334</ele><time>2026-05-01T12:56:13.999Z</time></trkpt><trkpt lat="43.69370012953888" lon="11.426149182293905"><ele>175.66666666666669</ele><time>2026-05-01T12:56:14.999Z</time></trkpt><trkpt lat="43.69363814710425" lon="11.426425282779514"><ele>175.0</ele><time>2026-05-01T12:56:15.999Z</time></trkpt><trkpt lat="43.69357620951972" lon="11.426702924388572"><ele>175.0</ele><time>2026-05-01T12:56:16.999Z</time></trkpt><trkpt lat="43.69351411325931" lon="11.426982406421576"><ele>175.0</ele><time>2026-05-01T12:56:17.999Z</time></trkpt><trkpt lat="43.6934521363106" lon="11.427264759263272"><ele>175.0</ele><time>2026-05-01T12:56:18.999Z</time></trkpt><trkpt lat="43.69338684779803" lon="11.42755445854658"><ele>173.0</ele><time>2026-05-01T12:56:19.999Z</time></trkpt><trkpt lat="43.69331900461549" lon="11.427851750605935"><ele>171.0</ele><time>2026-05-01T12:56:20.999Z</time></trkpt><trkpt lat="43.693252385050535" lon="11.428156921088874"><ele>168.0</ele><time>2026-05-01T12:56:21.999Z</time></trkpt><trkpt lat="43.69318553235633" lon="11.428465711908178"><ele>165.0</ele><time>2026-05-01T12:56:22.999Z</time></trkpt><trkpt lat="43.69311520353925" lon="11.428775879877582"><ele>162.0</ele><time>2026-05-01T12:56:23.999Z</time></trkpt><trkpt lat="43.693045670336645" lon="11.429087768591597"><ele>159.0</ele><time>2026-05-01T12:56:24.999Z</time></trkpt><trkpt lat="43.69297562445072" lon="11.429403816621257"><ele>156.5</ele><time>2026-05-01T12:56:25.999Z</time></trkpt><trkpt lat="43.692903426829616" lon="11.429731925417533"><ele>154.0</ele><time>2026-05-01T12:56:26.999Z</time></trkpt><trkpt lat="43.69282922242088" lon="11.430060440384565"><ele>155.0</ele><time>2026-05-01T12:56:27.999Z</time></trkpt><trkpt lat="43.69275510449625" lon="11.430386264161674"><ele>156.0</ele><time>2026-05-01T12:56:28.999Z</time></trkpt><trkpt lat="43.692682290988415" lon="11.430710922646917"><ele>154.0</ele><time>2026-05-01T12:56:29.999Z</time></trkpt><trkpt lat="43.692610072071815" lon="11.431034761299843"><ele>152.0</ele><time>2026-05-01T12:56:30.999Z</time></trkpt><trkpt lat="43.692535792933604" lon="11.431357745111098"><ele>151.5</ele><time>2026-05-01T12:56:31.999Z</time></trkpt><trkpt lat="43.692463766473374" lon="11.431677484760108"><ele>151.0</ele><time>2026-05-01T12:56:32.999Z</time></trkpt><trkpt lat="43.69239389769111" lon="11.431993188764482"><ele>150.5</ele><time>2026-05-01T12:56:33.999Z</time></trkpt><trkpt lat="43.69232421410067" lon="11.432311073935482"><ele>150.0</ele><time>2026-05-01T12:56:34.999Z</time></trkpt><trkpt lat="43.69225544761341" lon="11.432628873111964"><ele>150.0</ele><time>2026-05-01T12:56:35.999Z</time></trkpt><trkpt lat="43.692186776781035" lon="11.432949410409242"><ele>150.0</ele><time>2026-05-01T12:56:36.999Z</time></trkpt><trkpt lat="43.692114994531615" lon="11.43326762717794"><ele>150.5</ele><time>2026-05-01T12:56:37.999Z</time></trkpt><trkpt lat="43.69204474556674" lon="11.433586285641633"><ele>151.0</ele><time>2026-05-01T12:56:38.999Z</time></trkpt><trkpt lat="43.691975663007796" lon="11.433908311675735"><ele>156.5</ele><time>2026-05-01T12:56:39.999Z</time></trkpt><trkpt lat="43.69190463861623" lon="11.434233312417629"><ele>162.0</ele><time>2026-05-01T12:56:40.999Z</time></trkpt><trkpt lat="43.69183017249186" lon="11.434567817291377"><ele>162.0</ele><time>2026-05-01T12:56:41.999Z</time></trkpt><trkpt lat="43.69175371881426" lon="11.434910274918776"><ele>162.0</ele><time>2026-05-01T12:56:43Z</time></trkpt><trkpt lat="43.69167745857958" lon="11.435257669618078"><ele>161.5</ele><time>2026-05-01T12:56:44Z</time></trkpt><trkpt lat="43.69160092297594" lon="11.435607154819754"><ele>161.0</ele><time>2026-05-01T12:56:45Z</time></trkpt><trkpt lat="43.69152308200675" lon="11.435960617155821"><ele>159.5</ele><time>2026-05-01T12:56:46Z</time></trkpt><trkpt lat="43.69144312176648" lon="11.43631447800817"><ele>158.0</ele><time>2026-05-01T12:56:47Z</time></trkpt><trkpt lat="43.691363108597905" lon="11.436673381250339"><ele>158.0</ele><time>2026-05-01T12:56:48Z</time></trkpt><trkpt lat="43.69128117982638" lon="11.437038829118928"><ele>158.0</ele><time>2026-05-01T12:56:49Z</time></trkpt><trkpt lat="43.69119950300085" lon="11.43740604097404"><ele>156.5</ele><time>2026-05-01T12:56:50Z</time></trkpt><trkpt lat="43.691117613551654" lon="11.437772769742162"><ele>155.0</ele><time>2026-05-01T12:56:51Z</time></trkpt><trkpt lat="43.69103369597778" lon="11.438142073964286"><ele>156.5</ele><time>2026-05-01T12:56:52Z</time></trkpt><trkpt lat="43.69094872817006" lon="11.438512510602648"><ele>158.0</ele><time>2026-05-01T12:56:53Z</time></trkpt><trkpt lat="43.69085972725663" lon="11.438879701758575"><ele>158.0</ele><time>2026-05-01T12:56:54Z</time></trkpt><trkpt lat="43.69076309141433" lon="11.439243355075323"><ele>158.0</ele><time>2026-05-01T12:56:55Z</time></trkpt><trkpt lat="43.69065229267077" lon="11.439598594607869"><ele>156.5</ele><time>2026-05-01T12:56:56Z</time></trkpt><trkpt lat="43.69053326101287" lon="11.439944382784999"><ele>155.0</ele><time>2026-05-01T12:56:57Z</time></trkpt><trkpt lat="43.69040451295442" lon="11.440278422365855"><ele>156.5</ele><time>2026-05-01T12:56:58Z</time></trkpt><trkpt lat="43.6902680439294" lon="11.44060507670011"><ele>158.0</ele><time>2026-05-01T12:56:59Z</time></trkpt><trkpt lat="43.690127259249444" lon="11.440919957358961"><ele>158.0</ele><time>2026-05-01T12:57:00Z</time></trkpt><trkpt lat="43.68997863321177" lon="11.44122084604634"><ele>158.0</ele><time>2026-05-01T12:57:01Z</time></trkpt><trkpt lat="43.68982395635859" lon="11.44151084480586"><ele>155.0</ele><time>2026-05-01T12:57:02Z</time></trkpt><trkpt lat="43.68966481930098" lon="11.441791935617328"><ele>152.0</ele><time>2026-05-01T12:57:03Z</time></trkpt><trkpt lat="43.68949866511331" lon="11.44206684830624"><ele>149.5</ele><time>2026-05-01T12:57:04Z</time></trkpt><trkpt lat="43.68932050966382" lon="11.442336948665844"><ele>147.0</ele><time>2026-05-01T12:57:05Z</time></trkpt><trkpt lat="43.689129565277305" lon="11.442603457100633"><ele>147.0</ele><time>2026-05-01T12:57:06Z</time></trkpt><trkpt lat="43.6889259148761" lon="11.442862387624787"><ele>147.0</ele><time>2026-05-01T12:57:07Z</time></trkpt><trkpt lat="43.688707786118734" lon="11.443116995857052"><ele>144.5</ele><time>2026-05-01T12:57:08Z</time></trkpt><trkpt lat="43.68847351908209" lon="11.443368966292699"><ele>142.0</ele><time>2026-05-01T12:57:09Z</time></trkpt><trkpt lat="43.68820521266502" lon="11.443626455129404"><ele>142.0</ele><time>2026-05-01T12:57:10Z</time></trkpt><trkpt lat="43.687917538422774" lon="11.443879925212096"><ele>142.0</ele><time>2026-05-01T12:57:11Z</time></trkpt><trkpt lat="43.68761350073652" lon="11.444138276098203"><ele>142.0</ele><time>2026-05-01T12:57:12Z</time></trkpt><trkpt lat="43.6873017365269" lon="11.444414452709422"><ele>142.0</ele><time>2026-05-01T12:57:13Z</time></trkpt><trkpt lat="43.68698716665717" lon="11.444704028751646"><ele>139.5</ele><time>2026-05-01T12:57:14Z</time></trkpt><trkpt lat="43.68667349010186" lon="11.444996200657126"><ele>137.0</ele><time>2026-05-01T12:57:15Z</time></trkpt><trkpt lat="43.68636021243997" lon="11.445283392556817"><ele>137.5</ele><time>2026-05-01T12:57:16Z</time></trkpt><trkpt lat="43.686048213578474" lon="11.445564756126544"><ele>138.0</ele><time>2026-05-01T12:57:17Z</time></trkpt><trkpt lat="43.685739287922075" lon="11.445842142925327"><ele>138.0</ele><time>2026-05-01T12:57:18Z</time></trkpt><trkpt lat="43.68543298813632" lon="11.446116800686092"><ele>138.0</ele><time>2026-05-01T12:57:19Z</time></trkpt><trkpt lat="43.68512898449008" lon="11.446391466089755"><ele>134.0</ele><time>2026-05-01T12:57:20Z</time></trkpt><trkpt lat="43.68482603824326" lon="11.446662848277057"><ele>130.0</ele><time>2026-05-01T12:57:21Z</time></trkpt><trkpt lat="43.684524616944024" lon="11.446931389469627"><ele>127.0</ele><time>2026-05-01T12:57:22Z</time></trkpt><trkpt lat="43.68422411667989" lon="11.44719902641745"><ele>124.0</ele><time>2026-05-01T12:57:23Z</time></trkpt><trkpt lat="43.68392658280808" lon="11.44746492167675"><ele>124.0</ele><time>2026-05-01T12:57:24Z</time></trkpt><trkpt lat="43.68362929533065" lon="11.44772790025723"><ele>124.0</ele><time>2026-05-01T12:57:25Z</time></trkpt><trkpt lat="43.68332944843838" lon="11.447985038292941"><ele>122.0</ele><time>2026-05-01T12:57:26Z</time></trkpt><trkpt lat="43.683026203900035" lon="11.448240343295861"><ele>120.0</ele><time>2026-05-01T12:57:27Z</time></trkpt><trkpt lat="43.68272822216179" lon="11.448500330093161"><ele>120.0</ele><time>2026-05-01T12:57:28Z</time></trkpt><trkpt lat="43.682432634785" lon="11.448763764384136"><ele>120.0</ele><time>2026-05-01T12:57:29Z</time></trkpt><trkpt lat="43.68213902425974" lon="11.449026058464709"><ele>120.0</ele><time>2026-05-01T12:57:30Z</time></trkpt><trkpt lat="43.68184548119107" lon="11.449288054371971"><ele>120.0</ele><time>2026-05-01T12:57:31Z</time></trkpt><trkpt lat="43.681552070976295" lon="11.449551959504312"><ele>122.0</ele><time>2026-05-01T12:57:32Z</time></trkpt><trkpt lat="43.68126187137245" lon="11.449814672407472"><ele>124.0</ele><time>2026-05-01T12:57:33Z</time></trkpt><trkpt lat="43.680977519456455" lon="11.45007117213324"><ele>124.5</ele><time>2026-05-01T12:57:34Z</time></trkpt><trkpt lat="43.68068753854652" lon="11.450325038554844"><ele>125.0</ele><time>2026-05-01T12:57:35Z</time></trkpt><trkpt lat="43.680394110517746" lon="11.450571657149414"><ele>129.5</ele><time>2026-05-01T12:57:36Z</time></trkpt><trkpt lat="43.680103775274986" lon="11.450803754494128"><ele>134.0</ele><time>2026-05-01T12:57:37Z</time></trkpt><trkpt lat="43.67979807045964" lon="11.451033212982107"><ele>134.0</ele><time>2026-05-01T12:57:37.999Z</time></trkpt><trkpt lat="43.679474916570584" lon="11.451265955768534"><ele>134.0</ele><time>2026-05-01T12:57:38.999Z</time></trkpt><trkpt lat="43.679141410532814" lon="11.451501265325478"><ele>134.5</ele><time>2026-05-01T12:57:39.999Z</time></trkpt><trkpt lat="43.67879499987802" lon="11.451742350445102"><ele>135.0</ele><time>2026-05-01T12:57:40.999Z</time></trkpt><trkpt lat="43.678433957039005" lon="11.451986001335147"><ele>135.0</ele><time>2026-05-01T12:57:41.999Z</time></trkpt><trkpt lat="43.67805408056226" lon="11.452211687916966"><ele>135.0</ele><time>2026-05-01T12:57:42.999Z</time></trkpt><trkpt lat="43.67767328770586" lon="11.452417734303744"><ele>134.5</ele><time>2026-05-01T12:57:43.999Z</time></trkpt><trkpt lat="43.67729985946963" lon="11.452608251450446"><ele>134.0</ele><time>2026-05-01T12:57:44.999Z</time></trkpt><trkpt lat="43.67693312264081" lon="11.45278955180591"><ele>125.5</ele><time>2026-05-01T12:57:45.999Z</time></trkpt><trkpt lat="43.676574106371994" lon="11.452968546050023"><ele>117.0</ele><time>2026-05-01T12:57:46.999Z</time></trkpt><trkpt lat="43.676225823948165" lon="11.453148508713237"><ele>114.0</ele><time>2026-05-01T12:57:47.999Z</time></trkpt><trkpt lat="43.67588794107381" lon="11.453324660945668"><ele>111.0</ele><time>2026-05-01T12:57:48.999Z</time></trkpt><trkpt lat="43.67555909361542" lon="11.453500418731437"><ele>116.5</ele><time>2026-05-01T12:57:49.999Z</time></trkpt><trkpt lat="43.675235151833874" lon="11.45366805799752"><ele>122.0</ele><time>2026-05-01T12:57:50.999Z</time></trkpt><trkpt lat="43.674922302346296" lon="11.4538300208972"><ele>131.5</ele><time>2026-05-01T12:57:51.999Z</time></trkpt><trkpt lat="43.67461783274477" lon="11.453993289034406"><ele>141.0</ele><time>2026-05-01T12:57:52.999Z</time></trkpt><trkpt lat="43.67431924839831" lon="11.454161327705332"><ele>149.5</ele><time>2026-05-01T12:57:53.999Z</time></trkpt><trkpt lat="43.6740206723085" lon="11.45432659762992"><ele>158.0</ele><time>2026-05-01T12:57:54.999Z</time></trkpt><trkpt lat="43.67371883214787" lon="11.454486942027572"><ele>168.5</ele><time>2026-05-01T12:57:55.999Z</time></trkpt><trkpt lat="43.673414133158246" lon="11.454641868831168"><ele>179.0</ele><time>2026-05-01T12:57:56.999Z</time></trkpt><trkpt lat="43.67311202272378" lon="11.45479573150844"><ele>179.0</ele><time>2026-05-01T12:57:57.999Z</time></trkpt><trkpt lat="43.672800706436576" lon="11.454944956378341"><ele>179.0</ele><time>2026-05-01T12:57:58.999Z</time></trkpt><trkpt lat="43.672493060796896" lon="11.455096340256292"><ele>169.5</ele><time>2026-05-01T12:57:59.999Z</time></trkpt><trkpt lat="43.6721892982508" lon="11.455251850197598"><ele>160.0</ele><time>2026-05-01T12:58:00.999Z</time></trkpt><trkpt lat="43.67185474882508" lon="11.455466589329216"><ele>155.5</ele><time>2026-05-01T12:58:01.999Z</time></trkpt><trkpt lat="43.671559925030195" lon="11.45564122745397"><ele>151.0</ele><time>2026-05-01T12:58:02.999Z</time></trkpt><trkpt lat="43.671231477173656" lon="11.455796417335918"><ele>143.0</ele><time>2026-05-01T12:58:03.999Z</time></trkpt><trkpt lat="43.670915370858616" lon="11.455953896539848"><ele>135.0</ele><time>2026-05-01T12:58:04.999Z</time></trkpt><trkpt lat="43.670612605617485" lon="11.456118411233454"><ele>133.0</ele><time>2026-05-01T12:58:05.999Z</time></trkpt><trkpt lat="43.67030973822245" lon="11.456298204537195"><ele>131.0</ele><time>2026-05-01T12:58:06.999Z</time></trkpt><trkpt lat="43.67000746084611" lon="11.456476256764178"><ele>131.0</ele><time>2026-05-01T12:58:07.999Z</time></trkpt><trkpt lat="43.669706391247644" lon="11.456659854744862"><ele>131.0</ele><time>2026-05-01T12:58:08.999Z</time></trkpt><trkpt lat="43.66940783892034" lon="11.456843178551935"><ele>130.0</ele><time>2026-05-01T12:58:09.999Z</time></trkpt><trkpt lat="43.6691075000384" lon="11.457027840257192"><ele>129.0</ele><time>2026-05-01T12:58:10.999Z</time></trkpt><trkpt lat="43.668803804126455" lon="11.457210523042438"><ele>129.0</ele><time>2026-05-01T12:58:11.999Z</time></trkpt><trkpt lat="43.66849935972271" lon="11.457386597910176"><ele>129.0</ele><time>2026-05-01T12:58:12.999Z</time></trkpt><trkpt lat="43.668193568545334" lon="11.457555592654053"><ele>129.0</ele><time>2026-05-01T12:58:13.999Z</time></trkpt><trkpt lat="43.667884475742696" lon="11.457719147048085"><ele>129.0</ele><time>2026-05-01T12:58:14.999Z</time></trkpt><trkpt lat="43.66757167532046" lon="11.457885024042278"><ele>133.0</ele><time>2026-05-01T12:58:15.999Z</time></trkpt><trkpt lat="43.667249742372775" lon="11.458052393162685"><ele>137.0</ele><time>2026-05-01T12:58:16.999Z</time></trkpt><trkpt lat="43.66693190845523" lon="11.45822092544111"><ele>137.5</ele><time>2026-05-01T12:58:17.999Z</time></trkpt><trkpt lat="43.66661466183072" lon="11.45838571069941"><ele>138.0</ele><time>2026-05-01T12:58:18.999Z</time></trkpt><trkpt lat="43.66629750077218" lon="11.45855067162512"><ele>138.0</ele><time>2026-05-01T12:58:19.999Z</time></trkpt><trkpt lat="43.66598204990814" lon="11.45871529692658"><ele>138.0</ele><time>2026-05-01T12:58:20.999Z</time></trkpt><trkpt lat="43.66566849962417" lon="11.458880128308321"><ele>137.5</ele><time>2026-05-01T12:58:21.999Z</time></trkpt><trkpt lat="43.66535535902294" lon="11.45904717955893"><ele>137.0</ele><time>2026-05-01T12:58:22.999Z</time></trkpt><trkpt lat="43.6650425549738" lon="11.459217441711855"><ele>137.0</ele><time>2026-05-01T12:58:23.999Z</time></trkpt><trkpt lat="43.66473166927522" lon="11.459386532350806"><ele>137.0</ele><time>2026-05-01T12:58:24.999Z</time></trkpt><trkpt lat="43.66441798226745" lon="11.459560949957616"><ele>137.5</ele><time>2026-05-01T12:58:25.999Z</time></trkpt><trkpt lat="43.66410704027699" lon="11.459746725122942"><ele>138.0</ele><time>2026-05-01T12:58:26.999Z</time></trkpt><trkpt lat="43.66380118013174" lon="11.45993994699472"><ele>138.0</ele><time>2026-05-01T12:58:27.999Z</time></trkpt><trkpt lat="43.66349533613559" lon="11.460140455991024"><ele>138.0</ele><time>2026-05-01T12:58:28.999Z</time></trkpt><trkpt lat="43.66319330605855" lon="11.460347825288576"><ele>138.0</ele><time>2026-05-01T12:58:29.999Z</time></trkpt><trkpt lat="43.66289524714235" lon="11.460561886499649"><ele>138.0</ele><time>2026-05-01T12:58:30.999Z</time></trkpt><trkpt lat="43.66259854605441" lon="11.460781802044812"><ele>138.0</ele><time>2026-05-01T12:58:31.999Z</time></trkpt><trkpt lat="43.66230456451943" lon="11.461008600580909"><ele>138.0</ele><time>2026-05-01T12:58:32.999Z</time></trkpt><trkpt lat="43.66201676343224" lon="11.461251877934647"><ele>135.5</ele><time>2026-05-01T12:58:33.999Z</time></trkpt><trkpt lat="43.66173514485764" lon="11.461502494040829"><ele>133.0</ele><time>2026-05-01T12:58:34.999Z</time></trkpt><trkpt lat="43.6614513501004" lon="11.461754201538174"><ele>133.0</ele><time>2026-05-01T12:58:35.999Z</time></trkpt><trkpt lat="43.661159889627925" lon="11.462010667006654"><ele>133.0</ele><time>2026-05-01T12:58:36.999Z</time></trkpt><trkpt lat="43.66086829866018" lon="11.462268121471894"><ele>130.5</ele><time>2026-05-01T12:58:37.999Z</time></trkpt><trkpt lat="43.66057731347672" lon="11.462523609632605"><ele>128.0</ele><time>2026-05-01T12:58:38.999Z</time></trkpt><trkpt lat="43.66028554344293" lon="11.462775502578616"><ele>129.5</ele><time>2026-05-01T12:58:39.999Z</time></trkpt><trkpt lat="43.659993386613706" lon="11.463022807355264"><ele>131.0</ele><time>2026-05-01T12:58:40.999Z</time></trkpt><trkpt lat="43.65970021648967" lon="11.463267825004275"><ele>128.0</ele><time>2026-05-01T12:58:41.999Z</time></trkpt><trkpt lat="43.6594099368193" lon="11.46351523286814"><ele>125.0</ele><time>2026-05-01T12:58:42.999Z</time></trkpt><trkpt lat="43.65912202990682" lon="11.46376342466806"><ele>124.5</ele><time>2026-05-01T12:58:43.999Z</time></trkpt><trkpt lat="43.658831793995965" lon="11.46401072352239"><ele>124.0</ele><time>2026-05-01T12:58:44.999Z</time></trkpt><trkpt lat="43.65853846605453" lon="11.464245587562157"><ele>124.0</ele><time>2026-05-01T12:58:45.999Z</time></trkpt><trkpt lat="43.65823941122829" lon="11.464461261165047"><ele>124.0</ele><time>2026-05-01T12:58:46.999Z</time></trkpt><trkpt lat="43.65793520508227" lon="11.464655254584947"><ele>130.0</ele><time>2026-05-01T12:58:47.999Z</time></trkpt><trkpt lat="43.65762453431641" lon="11.464826338971482"><ele>136.0</ele><time>2026-05-01T12:58:49Z</time></trkpt><trkpt lat="43.65730839072063" lon="11.464974027092472"><ele>136.0</ele><time>2026-05-01T12:58:50Z</time></trkpt><trkpt lat="43.6569860791399" lon="11.465099753273982"><ele>136.0</ele><time>2026-05-01T12:58:51Z</time></trkpt><trkpt lat="43.65665893724831" lon="11.46520675513553"><ele>135.5</ele><time>2026-05-01T12:58:52Z</time></trkpt><trkpt lat="43.65633009972599" lon="11.465291042031891"><ele>135.0</ele><time>2026-05-01T12:58:53Z</time></trkpt><trkpt lat="43.655997207047214" lon="11.465360103052335"><ele>132.0</ele><time>2026-05-01T12:58:54Z</time></trkpt><trkpt lat="43.65566294715292" lon="11.465405056182048"><ele>129.0</ele><time>2026-05-01T12:58:55Z</time></trkpt><trkpt lat="43.655326116865965" lon="11.465434222305246"><ele>134.0</ele><time>2026-05-01T12:58:56Z</time></trkpt><trkpt lat="43.65498752743818" lon="11.465451373028213"><ele>139.0</ele><time>2026-05-01T12:58:57Z</time></trkpt><trkpt lat="43.65464899812404" lon="11.465457867276072"><ele>139.5</ele><time>2026-05-01T12:58:58Z</time></trkpt><trkpt lat="43.654308950598235" lon="11.465464162131518"><ele>140.0</ele><time>2026-05-01T12:58:59Z</time></trkpt><trkpt lat="43.653967237358714" lon="11.465470664721833"><ele>140.0</ele><time>2026-05-01T12:59:00Z</time></trkpt><trkpt lat="43.65362509610738" lon="11.465478073503585"><ele>140.0</ele><time>2026-05-01T12:59:01Z</time></trkpt><trkpt lat="43.65328313863125" lon="11.465487506690355"><ele>140.0</ele><time>2026-05-01T12:59:02Z</time></trkpt><trkpt lat="43.6529402789746" lon="11.465499102396542"><ele>140.0</ele><time>2026-05-01T12:59:03Z</time></trkpt><trkpt lat="43.652598371013276" lon="11.465509058281967"><ele>140.0</ele><time>2026-05-01T12:59:04Z</time></trkpt><trkpt lat="43.652256613160716" lon="11.46551711976628"><ele>140.0</ele><time>2026-05-01T12:59:05Z</time></trkpt><trkpt lat="43.65191329645481" lon="11.465525975984956"><ele>139.5</ele><time>2026-05-01T12:59:06Z</time></trkpt><trkpt lat="43.6515748698568" lon="11.465541217609676"><ele>139.0</ele><time>2026-05-01T12:59:07Z</time></trkpt><trkpt lat="43.65123856745481" lon="11.465560341171722"><ele>138.0</ele><time>2026-05-01T12:59:08Z</time></trkpt><trkpt lat="43.65089961838517" lon="11.465578395926247"><ele>137.0</ele><time>2026-05-01T12:59:09Z</time></trkpt><trkpt lat="43.65055957047218" lon="11.465594060437622"><ele>135.0</ele><time>2026-05-01T12:59:10Z</time></trkpt><trkpt lat="43.650221413913215" lon="11.465604404218297"><ele>133.0</ele><time>2026-05-01T12:59:11Z</time></trkpt><trkpt lat="43.649883459873614" lon="11.465613652172816"><ele>133.0</ele><time>2026-05-01T12:59:12Z</time></trkpt><trkpt lat="43.64954470992298" lon="11.465621339845327"><ele>133.0</ele><time>2026-05-01T12:59:13Z</time></trkpt><trkpt lat="43.64920636804919" lon="11.4656298288448"><ele>131.0</ele><time>2026-05-01T12:59:14Z</time></trkpt><trkpt lat="43.648866234313026" lon="11.465638626663031"><ele>129.0</ele><time>2026-05-01T12:59:15Z</time></trkpt><trkpt lat="43.64852610527543" lon="11.465647601149744"><ele>128.0</ele><time>2026-05-01T12:59:16Z</time></trkpt><trkpt lat="43.64818718220936" lon="11.465655627448715"><ele>127.0</ele><time>2026-05-01T12:59:17Z</time></trkpt><trkpt lat="43.64784705399353" lon="11.465663253155865"><ele>127.0</ele><time>2026-05-01T12:59:18Z</time></trkpt><trkpt lat="43.647507030793015" lon="11.465670747216654"><ele>127.0</ele><time>2026-05-01T12:59:19Z</time></trkpt><trkpt lat="43.647165781012234" lon="11.465676042173818"><ele>127.0</ele><time>2026-05-01T12:59:20Z</time></trkpt><trkpt lat="43.64682445802612" lon="11.46568185274704"><ele>127.0</ele><time>2026-05-01T12:59:21Z</time></trkpt><trkpt lat="43.64648455593777" lon="11.465688198301336"><ele>127.0</ele><time>2026-05-01T12:59:22Z</time></trkpt><trkpt lat="43.64614480472331" lon="11.465696678611804"><ele>127.0</ele><time>2026-05-01T12:59:23Z</time></trkpt><trkpt lat="43.64580478755517" lon="11.465705436537155"><ele>127.5</ele><time>2026-05-01T12:59:24Z</time></trkpt><trkpt lat="43.645464181563845" lon="11.46571425023461"><ele>128.0</ele><time>2026-05-01T12:59:25Z</time></trkpt><trkpt lat="43.645125017732816" lon="11.465725715751656"><ele>127.0</ele><time>2026-05-01T12:59:26Z</time></trkpt><trkpt lat="43.64478582938855" lon="11.465736986405162"><ele>126.0</ele><time>2026-05-01T12:59:27Z</time></trkpt><trkpt lat="43.64444563657882" lon="11.465746665296875"><ele>126.0</ele><time>2026-05-01T12:59:28Z</time></trkpt><trkpt lat="43.64410620802702" lon="11.465754108017082"><ele>126.0</ele><time>2026-05-01T12:59:29Z</time></trkpt><trkpt lat="43.64376819355814" lon="11.465762273897312"><ele>126.0</ele><time>2026-05-01T12:59:30Z</time></trkpt><trkpt lat="43.643429229571616" lon="11.465770060699509"><ele>126.0</ele><time>2026-05-01T12:59:31Z</time></trkpt><trkpt lat="43.64309126968766" lon="11.465777251310154"><ele>125.5</ele><time>2026-05-01T12:59:32Z</time></trkpt><trkpt lat="43.64275171953526" lon="11.465785222098052"><ele>125.0</ele><time>2026-05-01T12:59:33Z</time></trkpt><trkpt lat="43.642413658169254" lon="11.465793274789851"><ele>125.0</ele><time>2026-05-01T12:59:34Z</time></trkpt><trkpt lat="43.64207506146039" lon="11.465801944957994"><ele>125.0</ele><time>2026-05-01T12:59:35Z</time></trkpt><trkpt lat="43.64173650006043" lon="11.465809049666532"><ele>125.0</ele><time>2026-05-01T12:59:36Z</time></trkpt><trkpt lat="43.64139918704024" lon="11.465814505123301"><ele>125.0</ele><time>2026-05-01T12:59:37Z</time></trkpt><trkpt lat="43.64106185857902" lon="11.465822158543585"><ele>125.0</ele><time>2026-05-01T12:59:38Z</time></trkpt><trkpt lat="43.64072423918933" lon="11.465831238850505"><ele>125.0</ele><time>2026-05-01T12:59:38.999Z</time></trkpt><trkpt lat="43.640386033971005" lon="11.465841175551237"><ele>124.5</ele><time>2026-05-01T12:59:39.999Z</time></trkpt><trkpt lat="43.64005034263822" lon="11.465853178107157"><ele>124.0</ele><time>2026-05-01T12:59:40.999Z</time></trkpt><trkpt lat="43.639712170920546" lon="11.465859794196595"><ele>122.5</ele><time>2026-05-01T12:59:41.999Z</time></trkpt><trkpt lat="43.63937338696167" lon="11.465869371300581"><ele>121.0</ele><time>2026-05-01T12:59:42.999Z</time></trkpt><trkpt lat="43.63903362748972" lon="11.465886504666363"><ele>121.0</ele><time>2026-05-01T12:59:43.999Z</time></trkpt><trkpt lat="43.6386969817966" lon="11.46593249318046"><ele>121.0</ele><time>2026-05-01T12:59:44.999Z</time></trkpt><trkpt lat="43.638366839304865" lon="11.46600841708611"><ele>121.0</ele><time>2026-05-01T12:59:45.999Z</time></trkpt><trkpt lat="43.63804113932353" lon="11.466106487686682"><ele>121.0</ele><time>2026-05-01T12:59:46.999Z</time></trkpt><trkpt lat="43.63771949682728" lon="11.46622911170607"><ele>120.5</ele><time>2026-05-01T12:59:47.999Z</time></trkpt><trkpt lat="43.63740498105721" lon="11.466383051891487"><ele>120.0</ele><time>2026-05-01T12:59:48.999Z</time></trkpt><trkpt lat="43.63709908675766" lon="11.46656633808973"><ele>120.5</ele><time>2026-05-01T12:59:49.999Z</time></trkpt><trkpt lat="43.63680203273794" lon="11.466775500687522"><ele>121.0</ele><time>2026-05-01T12:59:50.999Z</time></trkpt><trkpt lat="43.63651596226619" lon="11.467009200053218"><ele>120.5</ele><time>2026-05-01T12:59:51.999Z</time></trkpt><trkpt lat="43.63623936391818" lon="11.467263073341913"><ele>120.0</ele><time>2026-05-01T12:59:52.999Z</time></trkpt><trkpt lat="43.63597493170507" lon="11.467542503798956"><ele>120.0</ele><time>2026-05-01T12:59:53.999Z</time></trkpt><trkpt lat="43.63571551037451" lon="11.467830103959008"><ele>120.0</ele><time>2026-05-01T12:59:54.999Z</time></trkpt><trkpt lat="43.6354547855304" lon="11.468120443825562"><ele>120.0</ele><time>2026-05-01T12:59:55.999Z</time></trkpt><trkpt lat="43.635191654919865" lon="11.46840616541753"><ele>120.0</ele><time>2026-05-01T12:59:56.999Z</time></trkpt><trkpt lat="43.634925834300894" lon="11.468694992004647"><ele>121.0</ele><time>2026-05-01T12:59:57.999Z</time></trkpt><trkpt lat="43.63466178388068" lon="11.468984719425617"><ele>122.0</ele><time>2026-05-01T12:59:58.999Z</time></trkpt><trkpt lat="43.634397114433206" lon="11.469276703470804"><ele>122.0</ele><time>2026-05-01T12:59:59.999Z</time></trkpt><trkpt lat="43.63413137870105" lon="11.469569460976048"><ele>122.0</ele><time>2026-05-01T13:00:00.999Z</time></trkpt><trkpt lat="43.63386542177608" lon="11.469860602459608"><ele>121.5</ele><time>2026-05-01T13:00:01.999Z</time></trkpt><trkpt lat="43.63360055218922" lon="11.47015080013782"><ele>121.0</ele><time>2026-05-01T13:00:02.999Z</time></trkpt><trkpt lat="43.63333471503656" lon="11.470443469633302"><ele>121.5</ele><time>2026-05-01T13:00:03.999Z</time></trkpt><trkpt lat="43.63306889497162" lon="11.470736426613833"><ele>122.0</ele><time>2026-05-01T13:00:04.999Z</time></trkpt><trkpt lat="43.632805188406635" lon="11.471029379879834"><ele>122.5</ele><time>2026-05-01T13:00:05.999Z</time></trkpt><trkpt lat="43.632540489253536" lon="11.471320596532134"><ele>123.0</ele><time>2026-05-01T13:00:06.999Z</time></trkpt><trkpt lat="43.63227452915209" lon="11.47161123396211"><ele>123.0</ele><time>2026-05-01T13:00:07.999Z</time></trkpt><trkpt lat="43.63200800161189" lon="11.47190235429299"><ele>123.0</ele><time>2026-05-01T13:00:08.999Z</time></trkpt><trkpt lat="43.63174365050019" lon="11.472191438192583"><ele>123.0</ele><time>2026-05-01T13:00:09.999Z</time></trkpt><trkpt lat="43.63147859735919" lon="11.472481543069128"><ele>123.0</ele><time>2026-05-01T13:00:10.999Z</time></trkpt><trkpt lat="43.6312151967425" lon="11.472772796885241"><ele>123.0</ele><time>2026-05-01T13:00:11.999Z</time></trkpt><trkpt lat="43.63095174721992" lon="11.47306418370896"><ele>123.0</ele><time>2026-05-01T13:00:12.999Z</time></trkpt><trkpt lat="43.630687443452025" lon="11.4733555244695"><ele>123.0</ele><time>2026-05-01T13:00:13.999Z</time></trkpt><trkpt lat="43.63042187662939" lon="11.473646086152826"><ele>123.0</ele><time>2026-05-01T13:00:14.999Z</time></trkpt><trkpt lat="43.630155799288794" lon="11.47393704185681"><ele>124.0</ele><time>2026-05-01T13:00:15.999Z</time></trkpt><trkpt lat="43.62989052728766" lon="11.47422607680368"><ele>125.0</ele><time>2026-05-01T13:00:16.999Z</time></trkpt><trkpt lat="43.629627110176266" lon="11.474514888965537"><ele>124.5</ele><time>2026-05-01T13:00:17.999Z</time></trkpt><trkpt lat="43.629362999017054" lon="11.474803881259133"><ele>124.0</ele><time>2026-05-01T13:00:18.999Z</time></trkpt><trkpt lat="43.62909860907267" lon="11.475092587122408"><ele>124.0</ele><time>2026-05-01T13:00:19.999Z</time></trkpt><trkpt lat="43.6288335137344" lon="11.475381213657483"><ele>124.0</ele><time>2026-05-01T13:00:20.999Z</time></trkpt><trkpt lat="43.62856929401103" lon="11.47567077208181"><ele>123.5</ele><time>2026-05-01T13:00:21.999Z</time></trkpt><trkpt lat="43.628305863019214" lon="11.47596095710858"><ele>123.0</ele><time>2026-05-01T13:00:22.999Z</time></trkpt><trkpt lat="43.62804293891412" lon="11.476250139134178"><ele>124.0</ele><time>2026-05-01T13:00:23.999Z</time></trkpt><trkpt lat="43.627784856972056" lon="11.476534805079915"><ele>125.0</ele><time>2026-05-01T13:00:24.999Z</time></trkpt><trkpt lat="43.62753236625631" lon="11.47681354737532"><ele>125.0</ele><time>2026-05-01T13:00:25.999Z</time></trkpt><trkpt lat="43.62728351709925" lon="11.477084900315493"><ele>125.0</ele><time>2026-05-01T13:00:26.999Z</time></trkpt><trkpt lat="43.62703869785494" lon="11.47734910067288"><ele>124.5</ele><time>2026-05-01T13:00:27.999Z</time></trkpt><trkpt lat="43.626796312526324" lon="11.477610657507537"><ele>124.0</ele><time>2026-05-01T13:00:28.999Z</time></trkpt><trkpt lat="43.626557798617235" lon="11.477870040139694"><ele>124.0</ele><time>2026-05-01T13:00:29.999Z</time></trkpt><trkpt lat="43.626317142327515" lon="11.47813148313659"><ele>124.0</ele><time>2026-05-01T13:00:30.999Z</time></trkpt><trkpt lat="43.62607466849673" lon="11.478399354059592"><ele>124.0</ele><time>2026-05-01T13:00:31.999Z</time></trkpt><trkpt lat="43.62582785312302" lon="11.478672008075"><ele>124.0</ele><time>2026-05-01T13:00:32.999Z</time></trkpt><trkpt lat="43.625574936967176" lon="11.478946288309256"><ele>124.0</ele><time>2026-05-01T13:00:33.999Z</time></trkpt><trkpt lat="43.62531988512552" lon="11.47922674642504"><ele>124.0</ele><time>2026-05-01T13:00:34.999Z</time></trkpt><trkpt lat="43.625062712650774" lon="11.479513426296295"><ele>124.5</ele><time>2026-05-01T13:00:35.999Z</time></trkpt><trkpt lat="43.6248050019776" lon="11.479799075925783"><ele>125.0</ele><time>2026-05-01T13:00:36.999Z</time></trkpt><trkpt lat="43.62454293635823" lon="11.4800841236411"><ele>125.5</ele><time>2026-05-01T13:00:37.999Z</time></trkpt><trkpt lat="43.624285367985955" lon="11.480365212668143"><ele>126.0</ele><time>2026-05-01T13:00:38.999Z</time></trkpt><trkpt lat="43.62403836443781" lon="11.48063328685008"><ele>126.0</ele><time>2026-05-01T13:00:39.999Z</time></trkpt><trkpt lat="43.623798809002025" lon="11.480892186548832"><ele>126.0</ele><time>2026-05-01T13:00:40.999Z</time></trkpt><trkpt lat="43.623565626087306" lon="11.48115052265817"><ele>126.0</ele><time>2026-05-01T13:00:41.999Z</time></trkpt><trkpt lat="43.62333416649112" lon="11.481410107176414"><ele>126.0</ele><time>2026-05-01T13:00:42.999Z</time></trkpt><trkpt lat="43.62309800031671" lon="11.481668972301543"><ele>126.0</ele><time>2026-05-01T13:00:43.999Z</time></trkpt><trkpt lat="43.6228542015378" lon="11.481928920285581"><ele>126.0</ele><time>2026-05-01T13:00:44.999Z</time></trkpt><trkpt lat="43.622603644221385" lon="11.482190087353517"><ele>125.5</ele><time>2026-05-01T13:00:45.999Z</time></trkpt><trkpt lat="43.62234663139566" lon="11.482455038515212"><ele>125.0</ele><time>2026-05-01T13:00:46.999Z</time></trkpt><trkpt lat="43.622082934587354" lon="11.482723403444998"><ele>124.5</ele><time>2026-05-01T13:00:47.999Z</time></trkpt><trkpt lat="43.621815548830426" lon="11.482989682934466"><ele>124.0</ele><time>2026-05-01T13:00:48.999Z</time></trkpt><trkpt lat="43.62154461062449" lon="11.483252994667946"><ele>124.0</ele><time>2026-05-01T13:00:49.999Z</time></trkpt><trkpt lat="43.62127100359634" lon="11.483514706583815"><ele>124.0</ele><time>2026-05-01T13:00:50.999Z</time></trkpt><trkpt lat="43.62099401783934" lon="11.483772177934997"><ele>124.0</ele><time>2026-05-01T13:00:51.999Z</time></trkpt><trkpt lat="43.62071199966259" lon="11.48402361342534"><ele>124.0</ele><time>2026-05-01T13:00:52.999Z</time></trkpt><trkpt lat="43.62042816104264" lon="11.484272124199615"><ele>124.0</ele><time>2026-05-01T13:00:53.999Z</time></trkpt><trkpt lat="43.620142791419276" lon="11.484521649626556"><ele>124.0</ele><time>2026-05-01T13:00:55Z</time></trkpt><trkpt lat="43.61985716299711" lon="11.484771653928426"><ele>124.0</ele><time>2026-05-01T13:00:56Z</time></trkpt><trkpt lat="43.619574060105926" lon="11.485019954404448"><ele>124.0</ele><time>2026-05-01T13:00:57Z</time></trkpt><trkpt lat="43.61929048287161" lon="11.485265708796437"><ele>124.0</ele><time>2026-05-01T13:00:58Z</time></trkpt><trkpt lat="43.61900593364957" lon="11.48551675627665"><ele>124.0</ele><time>2026-05-01T13:00:59Z</time></trkpt><trkpt lat="43.61872191665661" lon="11.485770031981744"><ele>124.5</ele><time>2026-05-01T13:01:00Z</time></trkpt><trkpt lat="43.618438207744" lon="11.486021213157843"><ele>125.0</ele><time>2026-05-01T13:01:01Z</time></trkpt><trkpt lat="43.618153460582896" lon="11.486271544283051"><ele>125.0</ele><time>2026-05-01T13:01:02Z</time></trkpt><trkpt lat="43.61787006987891" lon="11.486523526588334"><ele>125.0</ele><time>2026-05-01T13:01:03Z</time></trkpt><trkpt lat="43.617589086114016" lon="11.486775556380756"><ele>124.5</ele><time>2026-05-01T13:01:04Z</time></trkpt><trkpt lat="43.61730795345512" lon="11.487025207647145"><ele>124.0</ele><time>2026-05-01T13:01:05Z</time></trkpt><trkpt lat="43.6170265020229" lon="11.487270246228846"><ele>124.5</ele><time>2026-05-01T13:01:06Z</time></trkpt><trkpt lat="43.61674677074036" lon="11.487513399665172"><ele>125.0</ele><time>2026-05-01T13:01:07Z</time></trkpt><trkpt lat="43.61646772091988" lon="11.487758447860427"><ele>124.5</ele><time>2026-05-01T13:01:08Z</time></trkpt><trkpt lat="43.61619087596478" lon="11.488004983595651"><ele>124.0</ele><time>2026-05-01T13:01:09Z</time></trkpt><trkpt lat="43.61591185529387" lon="11.488252424405724"><ele>125.0</ele><time>2026-05-01T13:01:10Z</time></trkpt><trkpt lat="43.61563185154056" lon="11.488498822887598"><ele>126.0</ele><time>2026-05-01T13:01:11Z</time></trkpt><trkpt lat="43.61535107379344" lon="11.488746691191919"><ele>125.0</ele><time>2026-05-01T13:01:12Z</time></trkpt><trkpt lat="43.61507192405547" lon="11.48899405515858"><ele>124.0</ele><time>2026-05-01T13:01:13Z</time></trkpt><trkpt lat="43.6147959282663" lon="11.489241713249687"><ele>124.0</ele><time>2026-05-01T13:01:14Z</time></trkpt><trkpt lat="43.61451683772255" lon="11.48949076999646"><ele>124.0</ele><time>2026-05-01T13:01:15Z</time></trkpt><trkpt lat="43.61423932557029" lon="11.489739123186768"><ele>124.0</ele><time>2026-05-01T13:01:16Z</time></trkpt><trkpt lat="43.6139626748556" lon="11.489983897186203"><ele>124.0</ele><time>2026-05-01T13:01:17Z</time></trkpt><trkpt lat="43.613687203474356" lon="11.49022973130464"><ele>125.0</ele><time>2026-05-01T13:01:18Z</time></trkpt><trkpt lat="43.61341004516788" lon="11.490475574115138"><ele>126.0</ele><time>2026-05-01T13:01:19Z</time></trkpt><trkpt lat="43.61313342966281" lon="11.490716902774897"><ele>126.0</ele><time>2026-05-01T13:01:20Z</time></trkpt><trkpt lat="43.61285786886446" lon="11.490957926524075"><ele>126.0</ele><time>2026-05-01T13:01:21Z</time></trkpt><trkpt lat="43.61258166205972" lon="11.491201811760414"><ele>126.0</ele><time>2026-05-01T13:01:22Z</time></trkpt><trkpt lat="43.61230408439894" lon="11.491447886571008"><ele>126.0</ele><time>2026-05-01T13:01:23Z</time></trkpt><trkpt lat="43.612024592976425" lon="11.49169591408786"><ele>125.5</ele><time>2026-05-01T13:01:24Z</time></trkpt><trkpt lat="43.611745193812375" lon="11.49194727151167"><ele>125.0</ele><time>2026-05-01T13:01:25Z</time></trkpt><trkpt lat="43.61146554850116" lon="11.492198026521162"><ele>125.0</ele><time>2026-05-01T13:01:26Z</time></trkpt><trkpt lat="43.61118449295646" lon="11.492446748758958"><ele>125.0</ele><time>2026-05-01T13:01:27Z</time></trkpt><trkpt lat="43.610901106987086" lon="11.49269574289931"><ele>126.0</ele><time>2026-05-01T13:01:28Z</time></trkpt><trkpt lat="43.61061876103826" lon="11.492943791383649"><ele>127.0</ele><time>2026-05-01T13:01:29Z</time></trkpt><trkpt lat="43.6103373662441" lon="11.493191764267252"><ele>125.5</ele><time>2026-05-01T13:01:30Z</time></trkpt><trkpt lat="43.610058109960185" lon="11.493438445781148"><ele>124.0</ele><time>2026-05-01T13:01:31Z</time></trkpt><trkpt lat="43.6097778436705" lon="11.493686596753035"><ele>124.0</ele><time>2026-05-01T13:01:32Z</time></trkpt><trkpt lat="43.60949668542012" lon="11.493934090490349"><ele>124.0</ele><time>2026-05-01T13:01:32.999Z</time></trkpt><trkpt lat="43.60921650185461" lon="11.494180943045818"><ele>124.0</ele><time>2026-05-01T13:01:33.999Z</time></trkpt><trkpt lat="43.60893557235171" lon="11.494426916086146"><ele>124.0</ele><time>2026-05-01T13:01:34.999Z</time></trkpt><trkpt lat="43.60865562997326" lon="11.49467333142647"><ele>124.5</ele><time>2026-05-01T13:01:35.999Z</time></trkpt><trkpt lat="43.60837618525802" lon="11.494920975327444"><ele>125.0</ele><time>2026-05-01T13:01:36.999Z</time></trkpt><trkpt lat="43.6080958124588" lon="11.495167751600583"><ele>125.0</ele><time>2026-05-01T13:01:37.999Z</time></trkpt><trkpt lat="43.607816642036035" lon="11.495412324507878"><ele>125.0</ele><time>2026-05-01T13:01:38.999Z</time></trkpt><trkpt lat="43.60753909266264" lon="11.495657663123216"><ele>125.0</ele><time>2026-05-01T13:01:39.999Z</time></trkpt><trkpt lat="43.60726009256512" lon="11.495905099032738"><ele>125.0</ele><time>2026-05-01T13:01:40.999Z</time></trkpt><trkpt lat="43.60698127605367" lon="11.49615583132615"><ele>125.5</ele><time>2026-05-01T13:01:41.999Z</time></trkpt><trkpt lat="43.60670171813491" lon="11.496408745822299"><ele>126.0</ele><time>2026-05-01T13:01:42.999Z</time></trkpt><trkpt lat="43.60642183562588" lon="11.496659748486891"><ele>126.0</ele><time>2026-05-01T13:01:43.999Z</time></trkpt><trkpt lat="43.60613920622292" lon="11.496908771792013"><ele>126.0</ele><time>2026-05-01T13:01:44.999Z</time></trkpt><trkpt lat="43.60585571014582" lon="11.49715640290002"><ele>126.0</ele><time>2026-05-01T13:01:45.999Z</time></trkpt><trkpt lat="43.60557113743403" lon="11.497406484929247"><ele>126.0</ele><time>2026-05-01T13:01:46.999Z</time></trkpt><trkpt lat="43.60528719499791" lon="11.49765625174811"><ele>126.5</ele><time>2026-05-01T13:01:47.999Z</time></trkpt><trkpt lat="43.60500093149491" lon="11.497905696039311"><ele>127.0</ele><time>2026-05-01T13:01:48.999Z</time></trkpt><trkpt lat="43.60471626270319" lon="11.498152362201202"><ele>125.5</ele><time>2026-05-01T13:01:49.999Z</time></trkpt><trkpt lat="43.60443079354099" lon="11.498400815056195"><ele>124.0</ele><time>2026-05-01T13:01:50.999Z</time></trkpt><trkpt lat="43.60414674343266" lon="11.4986521068346"><ele>125.0</ele><time>2026-05-01T13:01:51.999Z</time></trkpt><trkpt lat="43.6038623519741" lon="11.498900572845576"><ele>126.0</ele><time>2026-05-01T13:01:52.999Z</time></trkpt><trkpt lat="43.603574591780045" lon="11.49914706226141"><ele>126.0</ele><time>2026-05-01T13:01:53.999Z</time></trkpt><trkpt lat="43.60328564774259" lon="11.499392648551396"><ele>126.0</ele><time>2026-05-01T13:01:54.999Z</time></trkpt><trkpt lat="43.60299589746856" lon="11.499639588419102"><ele>125.0</ele><time>2026-05-01T13:01:55.999Z</time></trkpt><trkpt lat="43.602708172299636" lon="11.499889664660202"><ele>124.0</ele><time>2026-05-01T13:01:56.999Z</time></trkpt><trkpt lat="43.60242584175245" lon="11.500140462845355"><ele>124.0</ele><time>2026-05-01T13:01:57.999Z</time></trkpt><trkpt lat="43.6021453917298" lon="11.500394440565913"><ele>124.0</ele><time>2026-05-01T13:01:58.999Z</time></trkpt><trkpt lat="43.601867690788026" lon="11.500653955049511"><ele>123.5</ele><time>2026-05-01T13:01:59.999Z</time></trkpt><trkpt lat="43.60159618202098" lon="11.500915833398228"><ele>123.0</ele><time>2026-05-01T13:02:00.999Z</time></trkpt><trkpt lat="43.60132909284959" lon="11.501181550862503"><ele>124.0</ele><time>2026-05-01T13:02:01.999Z</time></trkpt><trkpt lat="43.60106221315407" lon="11.50144517537336"><ele>125.0</ele><time>2026-05-01T13:02:02.999Z</time></trkpt><trkpt lat="43.60079826818056" lon="11.501707147648364"><ele>125.0</ele><time>2026-05-01T13:02:03.999Z</time></trkpt><trkpt lat="43.60053775692007" lon="11.50197322021745"><ele>125.0</ele><time>2026-05-01T13:02:04.999Z</time></trkpt><trkpt lat="43.60028052376601" lon="11.502244178586727"><ele>124.5</ele><time>2026-05-01T13:02:05.999Z</time></trkpt><trkpt lat="43.60002442340887" lon="11.502516251567435"><ele>124.0</ele><time>2026-05-01T13:02:06.999Z</time></trkpt><trkpt lat="43.59976689865785" lon="11.502789464434"><ele>124.5</ele><time>2026-05-01T13:02:07.999Z</time></trkpt><trkpt lat="43.5995109016507" lon="11.503063343591371"><ele>125.0</ele><time>2026-05-01T13:02:08.999Z</time></trkpt><trkpt lat="43.59925530792314" lon="11.503339592899897"><ele>125.0</ele><time>2026-05-01T13:02:09.999Z</time></trkpt><trkpt lat="43.599000200278276" lon="11.503614996592429"><ele>125.0</ele><time>2026-05-01T13:02:10.999Z</time></trkpt><trkpt lat="43.59874393688104" lon="11.503889528828482"><ele>125.5</ele><time>2026-05-01T13:02:11.999Z</time></trkpt><trkpt lat="43.59848865559699" lon="11.504165475132996"><ele>126.0</ele><time>2026-05-01T13:02:12.999Z</time></trkpt><trkpt lat="43.59823251506958" lon="11.504443536616824"><ele>126.5</ele><time>2026-05-01T13:02:13.999Z</time></trkpt><trkpt lat="43.59797404411318" lon="11.504721954231854"><ele>127.0</ele><time>2026-05-01T13:02:14.999Z</time></trkpt><trkpt lat="43.597713680780906" lon="11.505004998082947"><ele>127.0</ele><time>2026-05-01T13:02:15.999Z</time></trkpt><trkpt lat="43.597453611242166" lon="11.50529298947283"><ele>127.0</ele><time>2026-05-01T13:02:16.999Z</time></trkpt><trkpt lat="43.59719429287385" lon="11.505581533651142"><ele>126.5</ele><time>2026-05-01T13:02:17.999Z</time></trkpt><trkpt lat="43.59693429428469" lon="11.505868314776967"><ele>126.0</ele><time>2026-05-01T13:02:18.999Z</time></trkpt><trkpt lat="43.596673724723054" lon="11.506154161162344"><ele>126.0</ele><time>2026-05-01T13:02:19.999Z</time></trkpt><trkpt lat="43.596412008323014" lon="11.50644190833331"><ele>126.0</ele><time>2026-05-01T13:02:20.999Z</time></trkpt><trkpt lat="43.596152181347996" lon="11.506730909333271"><ele>126.0</ele><time>2026-05-01T13:02:21.999Z</time></trkpt><trkpt lat="43.59589344766281" lon="11.507021724663364"><ele>126.0</ele><time>2026-05-01T13:02:22.999Z</time></trkpt><trkpt lat="43.595633544944846" lon="11.507315287205227"><ele>126.0</ele><time>2026-05-01T13:02:23.999Z</time></trkpt><trkpt lat="43.5953726177841" lon="11.507610111963194"><ele>126.0</ele><time>2026-05-01T13:02:24.999Z</time></trkpt><trkpt lat="43.59511150698711" lon="11.507904712070165"><ele>128.0</ele><time>2026-05-01T13:02:25.999Z</time></trkpt><trkpt lat="43.594851050990734" lon="11.508197583681877"><ele>130.0</ele><time>2026-05-01T13:02:26.999Z</time></trkpt><trkpt lat="43.59458885063862" lon="11.508490217392472"><ele>129.5</ele><time>2026-05-01T13:02:27.999Z</time></trkpt><trkpt lat="43.59432522880359" lon="11.50877924899114"><ele>129.0</ele><time>2026-05-01T13:02:28.999Z</time></trkpt><trkpt lat="43.59406123958661" lon="11.50906605029399"><ele>129.0</ele><time>2026-05-01T13:02:29.999Z</time></trkpt><trkpt lat="43.59379594287826" lon="11.509352470285808"><ele>129.0</ele><time>2026-05-01T13:02:30.999Z</time></trkpt><trkpt lat="43.59353150939134" lon="11.509640847912396"><ele>129.0</ele><time>2026-05-01T13:02:31.999Z</time></trkpt><trkpt lat="43.59326954925955" lon="11.509929717948047"><ele>129.0</ele><time>2026-05-01T13:02:32.999Z</time></trkpt><trkpt lat="43.59301084240105" lon="11.51021817063367"><ele>128.5</ele><time>2026-05-01T13:02:33.999Z</time></trkpt><trkpt lat="43.59275311821206" lon="11.510505315633804"><ele>128.0</ele><time>2026-05-01T13:02:34.999Z</time></trkpt><trkpt lat="43.59249581940916" lon="11.510791446702553"><ele>128.0</ele><time>2026-05-01T13:02:35.999Z</time></trkpt><trkpt lat="43.59223830723878" lon="11.511075506699205"><ele>128.0</ele><time>2026-05-01T13:02:36.999Z</time></trkpt><trkpt lat="43.59197948731191" lon="11.511359243122588"><ele>128.0</ele><time>2026-05-01T13:02:37.999Z</time></trkpt><trkpt lat="43.591720963878494" lon="11.511639699434653"><ele>128.0</ele><time>2026-05-01T13:02:38.999Z</time></trkpt><trkpt lat="43.59146230226785" lon="11.511918863121194"><ele>128.0</ele><time>2026-05-01T13:02:39.999Z</time></trkpt><trkpt lat="43.591202069213985" lon="11.512200238996304"><ele>128.0</ele><time>2026-05-01T13:02:40.999Z</time></trkpt><trkpt lat="43.59094422666529" lon="11.512484107270625"><ele>128.0</ele><time>2026-05-01T13:02:41.999Z</time></trkpt><trkpt lat="43.5906877989548" lon="11.512768977375508"><ele>128.0</ele><time>2026-05-01T13:02:42.999Z</time></trkpt><trkpt lat="43.59043028618532" lon="11.51305502405575"><ele>128.5</ele><time>2026-05-01T13:02:43.999Z</time></trkpt><trkpt lat="43.590173386250044" lon="11.513339711567266"><ele>129.0</ele><time>2026-05-01T13:02:44.999Z</time></trkpt><trkpt lat="43.5899185281863" lon="11.513624374301155"><ele>129.0</ele><time>2026-05-01T13:02:45.999Z</time></trkpt><trkpt lat="43.58966384648926" lon="11.513908733614668"><ele>129.0</ele><time>2026-05-01T13:02:46.999Z</time></trkpt><trkpt lat="43.589408564015244" lon="11.514192984595564"><ele>129.0</ele><time>2026-05-01T13:02:47.999Z</time></trkpt><trkpt lat="43.58915640956809" lon="11.514471383458217"><ele>129.0</ele><time>2026-05-01T13:02:48.999Z</time></trkpt><trkpt lat="43.58890574815756" lon="11.514745522881725"><ele>129.5</ele><time>2026-05-01T13:02:49.999Z</time></trkpt><trkpt lat="43.58865689725296" lon="11.515018095601757"><ele>130.0</ele><time>2026-05-01T13:02:50.999Z</time></trkpt><trkpt lat="43.58840870260063" lon="11.51529054919634"><ele>130.5</ele><time>2026-05-01T13:02:51.999Z</time></trkpt><trkpt lat="43.588161260347356" lon="11.515561838709548"><ele>131.0</ele><time>2026-05-01T13:02:52.999Z</time></trkpt><trkpt lat="43.58791866323232" lon="11.51583105221834"><ele>131.0</ele><time>2026-05-01T13:02:53.999Z</time></trkpt><trkpt lat="43.58767509550694" lon="11.516098592973952"><ele>131.0</ele><time>2026-05-01T13:02:54.999Z</time></trkpt><trkpt lat="43.58742985019476" lon="11.516366281368235"><ele>131.0</ele><time>2026-05-01T13:02:55.999Z</time></trkpt><trkpt lat="43.58718461198384" lon="11.516635742968907"><ele>131.0</ele><time>2026-05-01T13:02:56.999Z</time></trkpt><trkpt lat="43.58693800430789" lon="11.516906614861437"><ele>130.0</ele><time>2026-05-01T13:02:57.999Z</time></trkpt><trkpt lat="43.58668788056481" lon="11.517177282662248"><ele>129.0</ele><time>2026-05-01T13:02:58.999Z</time></trkpt><trkpt lat="43.586435794733056" lon="11.517451210921744"><ele>129.0</ele><time>2026-05-01T13:02:59.999Z</time></trkpt><trkpt lat="43.58617995477759" lon="11.517728789843897"><ele>129.0</ele><time>2026-05-01T13:03:01Z</time></trkpt><trkpt lat="43.58592442518218" lon="11.518010319928967"><ele>129.5</ele><time>2026-05-01T13:03:02Z</time></trkpt><trkpt lat="43.58566776528502" lon="11.518294191549701"><ele>130.0</ele><time>2026-05-01T13:03:03Z</time></trkpt><trkpt lat="43.58541033536489" lon="11.518579836921363"><ele>130.0</ele><time>2026-05-01T13:03:04Z</time></trkpt><trkpt lat="43.58515149708639" lon="11.518867744422957"><ele>130.0</ele><time>2026-05-01T13:03:05Z</time></trkpt><trkpt lat="43.58489259571682" lon="11.519156344961278"><ele>130.0</ele><time>2026-05-01T13:03:06Z</time></trkpt><trkpt lat="43.584632543607256" lon="11.519444640741172"><ele>130.0</ele><time>2026-05-01T13:03:07Z</time></trkpt><trkpt lat="43.58436996614532" lon="11.519731917266423"><ele>130.0</ele><time>2026-05-01T13:03:08Z</time></trkpt><trkpt lat="43.58410708792429" lon="11.520018171218412"><ele>130.0</ele><time>2026-05-01T13:03:09Z</time></trkpt><trkpt lat="43.58384595341214" lon="11.520303229913276"><ele>129.0</ele><time>2026-05-01T13:03:10Z</time></trkpt><trkpt lat="43.58358791967017" lon="11.52058502454487"><ele>128.0</ele><time>2026-05-01T13:03:11Z</time></trkpt><trkpt lat="43.583335576490754" lon="11.520865834843068"><ele>128.0</ele><time>2026-05-01T13:03:12Z</time></trkpt><trkpt lat="43.5830940717271" lon="11.521146971543972"><ele>128.0</ele><time>2026-05-01T13:03:13Z</time></trkpt><trkpt lat="43.582860740253224" lon="11.52143351957905"><ele>128.5</ele><time>2026-05-01T13:03:14Z</time></trkpt><trkpt lat="43.58264065287174" lon="11.521732994920688"><ele>129.0</ele><time>2026-05-01T13:03:15Z</time></trkpt><trkpt lat="43.58242972790082" lon="11.522048436446646"><ele>128.5</ele><time>2026-05-01T13:03:16Z</time></trkpt><trkpt lat="43.58222421625685" lon="11.522379906579145"><ele>128.0</ele><time>2026-05-01T13:03:17Z</time></trkpt><trkpt lat="43.582027214281254" lon="11.522729912962323"><ele>129.0</ele><time>2026-05-01T13:03:18Z</time></trkpt><trkpt lat="43.58183772269801" lon="11.523096962981452"><ele>130.0</ele><time>2026-05-01T13:03:19Z</time></trkpt><trkpt lat="43.58165886569763" lon="11.523478629103536"><ele>129.5</ele><time>2026-05-01T13:03:20Z</time></trkpt><trkpt lat="43.58149407970117" lon="11.523871307594728"><ele>129.0</ele><time>2026-05-01T13:03:21Z</time></trkpt><trkpt lat="43.581342598620886" lon="11.524274849038141"><ele>129.0</ele><time>2026-05-01T13:03:22Z</time></trkpt><trkpt lat="43.58120182672894" lon="11.52469030795644"><ele>129.0</ele><time>2026-05-01T13:03:23Z</time></trkpt><trkpt lat="43.58107006468263" lon="11.525111970464843"><ele>129.5</ele><time>2026-05-01T13:03:24Z</time></trkpt><trkpt lat="43.58094192251909" lon="11.52553830181391"><ele>130.0</ele><time>2026-05-01T13:03:25Z</time></trkpt><trkpt lat="43.58080986955078" lon="11.5259683266543"><ele>130.0</ele><time>2026-05-01T13:03:26Z</time></trkpt><trkpt lat="43.580674385721004" lon="11.526397426572327"><ele>130.0</ele><time>2026-05-01T13:03:26.999Z</time></trkpt><trkpt lat="43.580538509485855" lon="11.52682686007866"><ele>130.5</ele><time>2026-05-01T13:03:27.999Z</time></trkpt><trkpt lat="43.580402940262424" lon="11.527257229419721"><ele>131.0</ele><time>2026-05-01T13:03:28.999Z</time></trkpt><trkpt lat="43.58026462392007" lon="11.527684519484636"><ele>130.5</ele><time>2026-05-01T13:03:29.999Z</time></trkpt><trkpt lat="43.58012228974163" lon="11.528105145774834"><ele>130.0</ele><time>2026-05-01T13:03:30.999Z</time></trkpt><trkpt lat="43.57996756500131" lon="11.528515251462563"><ele>130.0</ele><time>2026-05-01T13:03:31.999Z</time></trkpt><trkpt lat="43.579801000845904" lon="11.52891821331508"><ele>130.0</ele><time>2026-05-01T13:03:32.999Z</time></trkpt><trkpt lat="43.57962749724302" lon="11.529314618441706"><ele>130.0</ele><time>2026-05-01T13:03:33.999Z</time></trkpt><trkpt lat="43.57944646076686" lon="11.529702310643145"><ele>130.0</ele><time>2026-05-01T13:03:34.999Z</time></trkpt><trkpt lat="43.579256606042634" lon="11.53008126951306"><ele>131.0</ele><time>2026-05-01T13:03:35.999Z</time></trkpt><trkpt lat="43.579059673331315" lon="11.530451586929859"><ele>132.0</ele><time>2026-05-01T13:03:36.999Z</time></trkpt><trkpt lat="43.578853015281716" lon="11.530812144305582"><ele>132.0</ele><time>2026-05-01T13:03:37.999Z</time></trkpt><trkpt lat="43.57864010832457" lon="11.53116227107184"><ele>132.0</ele><time>2026-05-01T13:03:38.999Z</time></trkpt><trkpt lat="43.57842082936619" lon="11.53150247629442"><ele>132.0</ele><time>2026-05-01T13:03:39.999Z</time></trkpt><trkpt lat="43.57819364599106" lon="11.531835057644098"><ele>132.0</ele><time>2026-05-01T13:03:40.999Z</time></trkpt><trkpt lat="43.577964617194034" lon="11.532162103573327"><ele>132.5</ele><time>2026-05-01T13:03:41.999Z</time></trkpt><trkpt lat="43.577737341517114" lon="11.532490119139945"><ele>133.0</ele><time>2026-05-01T13:03:42.999Z</time></trkpt><trkpt lat="43.577510908535" lon="11.532817562273925"><ele>134.0</ele><time>2026-05-01T13:03:43.999Z</time></trkpt><trkpt lat="43.57728388491273" lon="11.533148396444254"><ele>135.0</ele><time>2026-05-01T13:03:44.999Z</time></trkpt><trkpt lat="43.57705723651101" lon="11.533480716878696"><ele>135.0</ele><time>2026-05-01T13:03:45.999Z</time></trkpt><trkpt lat="43.57683071775826" lon="11.533810251325916"><ele>135.0</ele><time>2026-05-01T13:03:46.999Z</time></trkpt><trkpt lat="43.57660221379636" lon="11.534140317361738"><ele>135.0</ele><time>2026-05-01T13:03:47.999Z</time></trkpt><trkpt lat="43.57637300565295" lon="11.534471398795176"><ele>135.0</ele><time>2026-05-01T13:03:48.999Z</time></trkpt><trkpt lat="43.57614313127385" lon="11.53480133380793"><ele>135.5</ele><time>2026-05-01T13:03:49.999Z</time></trkpt><trkpt lat="43.575914349438875" lon="11.535131054586595"><ele>136.0</ele><time>2026-05-01T13:03:50.999Z</time></trkpt><trkpt lat="43.57568545788955" lon="11.535462336886832"><ele>136.0</ele><time>2026-05-01T13:03:51.999Z</time></trkpt><trkpt lat="43.57545731710708" lon="11.535794820075807"><ele>136.0</ele><time>2026-05-01T13:03:52.999Z</time></trkpt><trkpt lat="43.575229437527454" lon="11.536128862459625"><ele>136.0</ele><time>2026-05-01T13:03:53.999Z</time></trkpt><trkpt lat="43.57500164547379" lon="11.536459788223265"><ele>136.0</ele><time>2026-05-01T13:03:54.999Z</time></trkpt><trkpt lat="43.57477228416224" lon="11.536788340441953"><ele>135.5</ele><time>2026-05-01T13:03:55.999Z</time></trkpt><trkpt lat="43.57454093432318" lon="11.537113890246587"><ele>135.0</ele><time>2026-05-01T13:03:56.999Z</time></trkpt><trkpt lat="43.57430587247386" lon="11.53743795465628"><ele>135.0</ele><time>2026-05-01T13:03:57.999Z</time></trkpt><trkpt lat="43.57406752580179" lon="11.537758810130656"><ele>135.0</ele><time>2026-05-01T13:03:58.999Z</time></trkpt><trkpt lat="43.57382809087091" lon="11.538080636047049"><ele>135.0</ele><time>2026-05-01T13:03:59.999Z</time></trkpt><trkpt lat="43.57358667178791" lon="11.538402931571234"><ele>135.0</ele><time>2026-05-01T13:04:00.999Z</time></trkpt><trkpt lat="43.573342467732516" lon="11.538723775477488"><ele>135.0</ele><time>2026-05-01T13:04:01.999Z</time></trkpt><trkpt lat="43.57309517394821" lon="11.539041409903579"><ele>135.0</ele><time>2026-05-01T13:04:02.999Z</time></trkpt><trkpt lat="43.572845276854814" lon="11.539354471649"><ele>135.5</ele><time>2026-05-01T13:04:03.999Z</time></trkpt><trkpt lat="43.572591642612196" lon="11.539659765889994"><ele>136.0</ele><time>2026-05-01T13:04:04.999Z</time></trkpt><trkpt lat="43.57233398753147" lon="11.539956952148936"><ele>136.0</ele><time>2026-05-01T13:04:05.999Z</time></trkpt><trkpt lat="43.572070894453645" lon="11.540241760181278"><ele>136.0</ele><time>2026-05-01T13:04:06.999Z</time></trkpt><trkpt lat="43.571805308704654" lon="11.540510688118355"><ele>137.0</ele><time>2026-05-01T13:04:07.999Z</time></trkpt><trkpt lat="43.57153792120579" lon="11.540768600215577"><ele>138.0</ele><time>2026-05-01T13:04:08.999Z</time></trkpt><trkpt lat="43.571265107056405" lon="11.541014570291"><ele>138.0</ele><time>2026-05-01T13:04:09.999Z</time></trkpt><trkpt lat="43.570985310014706" lon="11.541247688730246"><ele>138.0</ele><time>2026-05-01T13:04:10.999Z</time></trkpt><trkpt lat="43.57069779566852" lon="11.54146647529509"><ele>138.0</ele><time>2026-05-01T13:04:11.999Z</time></trkpt><trkpt lat="43.57040496271752" lon="11.541666428956036"><ele>138.0</ele><time>2026-05-01T13:04:12.999Z</time></trkpt><trkpt lat="43.57010975995611" lon="11.541857447725555"><ele>137.0</ele><time>2026-05-01T13:04:13.999Z</time></trkpt><trkpt lat="43.569808748369454" lon="11.542036906953763"><ele>136.0</ele><time>2026-05-01T13:04:14.999Z</time></trkpt><trkpt lat="43.5695038475655" lon="11.542205734292402"><ele>136.0</ele><time>2026-05-01T13:04:15.999Z</time></trkpt><trkpt lat="43.56919176563472" lon="11.542348931318214"><ele>136.0</ele><time>2026-05-01T13:04:16.999Z</time></trkpt><trkpt lat="43.56887740747133" lon="11.542472635344518"><ele>136.5</ele><time>2026-05-01T13:04:17.999Z</time></trkpt><trkpt lat="43.568561316197076" lon="11.542572707931145"><ele>137.0</ele><time>2026-05-01T13:04:18.999Z</time></trkpt><trkpt lat="43.568244633171346" lon="11.542648853320836"><ele>137.0</ele><time>2026-05-01T13:04:19.999Z</time></trkpt><trkpt lat="43.56792620624682" lon="11.542704891693857"><ele>137.0</ele><time>2026-05-01T13:04:20.999Z</time></trkpt><trkpt lat="43.56761091624796" lon="11.542742772237046"><ele>136.5</ele><time>2026-05-01T13:04:21.999Z</time></trkpt><trkpt lat="43.567292962868734" lon="11.542766672519654"><ele>136.0</ele><time>2026-05-01T13:04:22.999Z</time></trkpt><trkpt lat="43.56697520944501" lon="11.542772545635954"><ele>136.0</ele><time>2026-05-01T13:04:23.999Z</time></trkpt><trkpt lat="43.56665708908657" lon="11.542767153118042"><ele>136.0</ele><time>2026-05-01T13:04:24.999Z</time></trkpt><trkpt lat="43.56633101544846" lon="11.542748946007851"><ele>136.0</ele><time>2026-05-01T13:04:25.999Z</time></trkpt><trkpt lat="43.565999587105324" lon="11.542721370639965"><ele>136.0</ele><time>2026-05-01T13:04:26.999Z</time></trkpt><trkpt lat="43.56566552880645" lon="11.54268719189607"><ele>135.5</ele><time>2026-05-01T13:04:27.999Z</time></trkpt><trkpt lat="43.56533229972338" lon="11.542652860608436"><ele>135.0</ele><time>2026-05-01T13:04:28.999Z</time></trkpt><trkpt lat="43.56499676701851" lon="11.54261562021342"><ele>135.0</ele><time>2026-05-01T13:04:29.999Z</time></trkpt><trkpt lat="43.56465911601343" lon="11.542580150522934"><ele>135.0</ele><time>2026-05-01T13:04:30.999Z</time></trkpt><trkpt lat="43.564322422527404" lon="11.54254570816781"><ele>135.0</ele><time>2026-05-01T13:04:31.999Z</time></trkpt><trkpt lat="43.56398562870261" lon="11.542510419767565"><ele>135.0</ele><time>2026-05-01T13:04:32.999Z</time></trkpt><trkpt lat="43.56364910508863" lon="11.542473837488998"><ele>135.5</ele><time>2026-05-01T13:04:33.999Z</time></trkpt><trkpt lat="43.563312131943796" lon="11.54243428042391"><ele>136.0</ele><time>2026-05-01T13:04:34.999Z</time></trkpt><trkpt lat="43.562975607510566" lon="11.542389273312239"><ele>135.5</ele><time>2026-05-01T13:04:35.999Z</time></trkpt><trkpt lat="43.56264129542532" lon="11.542340202193582"><ele>135.0</ele><time>2026-05-01T13:04:36.999Z</time></trkpt><trkpt lat="43.56230467775106" lon="11.542288752433699"><ele>135.0</ele><time>2026-05-01T13:04:37.999Z</time></trkpt><trkpt lat="43.56196781101666" lon="11.542240901224256"><ele>135.0</ele><time>2026-05-01T13:04:38.999Z</time></trkpt><trkpt lat="43.56162823908782" lon="11.542198322568549"><ele>135.0</ele><time>2026-05-01T13:04:39.999Z</time></trkpt><trkpt lat="43.56129066784544" lon="11.542158512047473"><ele>135.0</ele><time>2026-05-01T13:04:40.999Z</time></trkpt><trkpt lat="43.560953962846156" lon="11.542118486156612"><ele>134.5</ele><time>2026-05-01T13:04:41.999Z</time></trkpt><trkpt lat="43.56062462952481" lon="11.542079659390376"><ele>134.0</ele><time>2026-05-01T13:04:42.999Z</time></trkpt><trkpt lat="43.560303986773015" lon="11.542046820782565"><ele>135.0</ele><time>2026-05-01T13:04:43.999Z</time></trkpt><trkpt lat="43.55998819934098" lon="11.542030371420731"><ele>136.0</ele><time>2026-05-01T13:04:44.999Z</time></trkpt><trkpt lat="43.55967822723784" lon="11.542040570227055"><ele>136.5</ele><time>2026-05-01T13:04:45.999Z</time></trkpt><trkpt lat="43.55937704024854" lon="11.542088426267842"><ele>137.0</ele><time>2026-05-01T13:04:46.999Z</time></trkpt><trkpt lat="43.5590810468188" lon="11.542173010892474"><ele>137.0</ele><time>2026-05-01T13:04:47.999Z</time></trkpt><trkpt lat="43.558795075310066" lon="11.542288062242903"><ele>137.0</ele><time>2026-05-01T13:04:48.999Z</time></trkpt><trkpt lat="43.55851579214704" lon="11.542434807342207"><ele>136.5</ele><time>2026-05-01T13:04:49.999Z</time></trkpt><trkpt lat="43.55823605895002" lon="11.542615771005389"><ele>136.0</ele><time>2026-05-01T13:04:50.999Z</time></trkpt><trkpt lat="43.5579637933082" lon="11.542836356109376"><ele>136.5</ele><time>2026-05-01T13:04:51.999Z</time></trkpt><trkpt lat="43.55770524075861" lon="11.543094666549171"><ele>137.0</ele><time>2026-05-01T13:04:52.999Z</time></trkpt><trkpt lat="43.55746291234766" lon="11.543388140656953"><ele>137.0</ele><time>2026-05-01T13:04:53.999Z</time></trkpt><trkpt lat="43.55723508558233" lon="11.543703428960129"><ele>137.0</ele><time>2026-05-01T13:04:54.999Z</time></trkpt><trkpt lat="43.557010892613214" lon="11.544031660756804"><ele>137.5</ele><time>2026-05-01T13:04:55.999Z</time></trkpt><trkpt lat="43.556783814121" lon="11.544361584409454"><ele>138.0</ele><time>2026-05-01T13:04:56.999Z</time></trkpt><trkpt lat="43.55655353691872" lon="11.544689040912287"><ele>139.5</ele><time>2026-05-01T13:04:57.999Z</time></trkpt><trkpt lat="43.556322074609284" lon="11.545016357859364"><ele>141.0</ele><time>2026-05-01T13:04:58.999Z</time></trkpt><trkpt lat="43.55608855131302" lon="11.545353063325791"><ele>139.5</ele><time>2026-05-01T13:04:59.999Z</time></trkpt><trkpt lat="43.55586124097922" lon="11.545701355548726"><ele>138.0</ele><time>2026-05-01T13:05:00.999Z</time></trkpt><trkpt lat="43.55564586162321" lon="11.546060584440548"><ele>137.0</ele><time>2026-05-01T13:05:01.999Z</time></trkpt><trkpt lat="43.555439074565605" lon="11.546426552130114"><ele>136.0</ele><time>2026-05-01T13:05:02.999Z</time></trkpt><trkpt lat="43.55523603901022" lon="11.546799087368447"><ele>136.0</ele><time>2026-05-01T13:05:03.999Z</time></trkpt><trkpt lat="43.55504197990343" lon="11.547174955015091"><ele>136.0</ele><time>2026-05-01T13:05:04.999Z</time></trkpt><trkpt lat="43.55485016508918" lon="11.547547450173946"><ele>136.5</ele><time>2026-05-01T13:05:05.999Z</time></trkpt><trkpt lat="43.55465658990387" lon="11.547916285386638"><ele>137.0</ele><time>2026-05-01T13:05:07Z</time></trkpt><trkpt lat="43.55446090780377" lon="11.548281085076084"><ele>135.5</ele><time>2026-05-01T13:05:08Z</time></trkpt><trkpt lat="43.55426506411463" lon="11.548640614477165"><ele>134.0</ele><time>2026-05-01T13:05:09Z</time></trkpt><trkpt lat="43.55406745609171" lon="11.548997578972783"><ele>134.0</ele><time>2026-05-01T13:05:10Z</time></trkpt><trkpt lat="43.55387064338484" lon="11.549359668923799"><ele>134.0</ele><time>2026-05-01T13:05:11Z</time></trkpt><trkpt lat="43.553674471659676" lon="11.549722141867209"><ele>134.0</ele><time>2026-05-01T13:05:12Z</time></trkpt><trkpt lat="43.55347483139802" lon="11.55007947563594"><ele>134.0</ele><time>2026-05-01T13:05:13Z</time></trkpt><trkpt lat="43.55326909985412" lon="11.550430635996289"><ele>134.0</ele><time>2026-05-01T13:05:14Z</time></trkpt><trkpt lat="43.553060658547906" lon="11.550776087110602"><ele>134.0</ele><time>2026-05-01T13:05:15Z</time></trkpt><trkpt lat="43.55284951013799" lon="11.551114342335353"><ele>134.5</ele><time>2026-05-01T13:05:16Z</time></trkpt><trkpt lat="43.55263611697951" lon="11.551450616431866"><ele>135.0</ele><time>2026-05-01T13:05:17Z</time></trkpt><trkpt lat="43.5524198454754" lon="11.55178680098948"><ele>135.0</ele><time>2026-05-01T13:05:18Z</time></trkpt><trkpt lat="43.55220022553847" lon="11.552120621141778"><ele>135.0</ele><time>2026-05-01T13:05:19Z</time></trkpt><trkpt lat="43.551978143591256" lon="11.552452443350486"><ele>135.0</ele><time>2026-05-01T13:05:20Z</time></trkpt><trkpt lat="43.551752888262506" lon="11.552783653500656"><ele>135.0</ele><time>2026-05-01T13:05:21Z</time></trkpt><trkpt lat="43.551525883919915" lon="11.553115955301184"><ele>136.5</ele><time>2026-05-01T13:05:22Z</time></trkpt><trkpt lat="43.551296640558746" lon="11.553449513110927"><ele>138.0</ele><time>2026-05-01T13:05:23Z</time></trkpt><trkpt lat="43.55106565922301" lon="11.553782192416815"><ele>138.0</ele><time>2026-05-01T13:05:24Z</time></trkpt><trkpt lat="43.55083378515644" lon="11.554116257032842"><ele>138.0</ele><time>2026-05-01T13:05:25Z</time></trkpt><trkpt lat="43.55060470896705" lon="11.554452987221387"><ele>138.0</ele><time>2026-05-01T13:05:26Z</time></trkpt><trkpt lat="43.55037622725434" lon="11.554787973344178"><ele>138.0</ele><time>2026-05-01T13:05:27Z</time></trkpt><trkpt lat="43.550148177092204" lon="11.555118961052255"><ele>137.5</ele><time>2026-05-01T13:05:28Z</time></trkpt><trkpt lat="43.54991930292555" lon="11.555451624741591"><ele>137.0</ele><time>2026-05-01T13:05:29Z</time></trkpt><trkpt lat="43.54969262008529" lon="11.555783928206846"><ele>137.0</ele><time>2026-05-01T13:05:29.999Z</time></trkpt><trkpt lat="43.54946536552344" lon="11.556112744230587"><ele>137.0</ele><time>2026-05-01T13:05:30.999Z</time></trkpt><trkpt lat="43.54923815689638" lon="11.556439080236856"><ele>137.5</ele><time>2026-05-01T13:05:31.999Z</time></trkpt><trkpt lat="43.54901319107414" lon="11.556763458646484"><ele>138.0</ele><time>2026-05-01T13:05:32.999Z</time></trkpt><trkpt lat="43.54878873206655" lon="11.557089047282025"><ele>138.5</ele><time>2026-05-01T13:05:33.999Z</time></trkpt><trkpt lat="43.548565226605696" lon="11.557415560664332"><ele>139.0</ele><time>2026-05-01T13:05:34.999Z</time></trkpt><trkpt lat="43.54834226354579" lon="11.557745214304298"><ele>140.0</ele><time>2026-05-01T13:05:35.999Z</time></trkpt><trkpt lat="43.54811986197627" lon="11.558079431627675"><ele>141.0</ele><time>2026-05-01T13:05:36.999Z</time></trkpt><trkpt lat="43.54789408181901" lon="11.558414552744964"><ele>140.0</ele><time>2026-05-01T13:05:37.999Z</time></trkpt><trkpt lat="43.54766378595538" lon="11.558748911064447"><ele>139.0</ele><time>2026-05-01T13:05:38.999Z</time></trkpt><trkpt lat="43.54743136280278" lon="11.559084463347434"><ele>139.0</ele><time>2026-05-01T13:05:39.999Z</time></trkpt><trkpt lat="43.54720030710079" lon="11.559421408521848"><ele>139.0</ele><time>2026-05-01T13:05:40.999Z</time></trkpt><trkpt lat="43.546968444545556" lon="11.559756316589965"><ele>138.5</ele><time>2026-05-01T13:05:41.999Z</time></trkpt><trkpt lat="43.546737980002106" lon="11.560093703569766"><ele>138.0</ele><time>2026-05-01T13:05:42.999Z</time></trkpt><trkpt lat="43.54650888949078" lon="11.560429857999177"><ele>138.0</ele><time>2026-05-01T13:05:43.999Z</time></trkpt><trkpt lat="43.54627970090379" lon="11.56076740222815"><ele>138.0</ele><time>2026-05-01T13:05:44.999Z</time></trkpt><trkpt lat="43.546050335851405" lon="11.561104396627249"><ele>137.5</ele><time>2026-05-01T13:05:45.999Z</time></trkpt><trkpt lat="43.54581940783252" lon="11.561441198536476"><ele>137.0</ele><time>2026-05-01T13:05:46.999Z</time></trkpt><trkpt lat="43.54558541408962" lon="11.561775903830894"><ele>138.0</ele><time>2026-05-01T13:05:47.999Z</time></trkpt><trkpt lat="43.5453548097338" lon="11.56211065982556"><ele>139.0</ele><time>2026-05-01T13:05:48.999Z</time></trkpt><trkpt lat="43.545124393831486" lon="11.562447049675681"><ele>139.0</ele><time>2026-05-01T13:05:49.999Z</time></trkpt><trkpt lat="43.5448965824484" lon="11.562780662390628"><ele>139.0</ele><time>2026-05-01T13:05:50.999Z</time></trkpt><trkpt lat="43.54467171174446" lon="11.563112156016329"><ele>139.0</ele><time>2026-05-01T13:05:51.999Z</time></trkpt><trkpt lat="43.544445390658495" lon="11.563442362226024"><ele>139.0</ele><time>2026-05-01T13:05:52.999Z</time></trkpt><trkpt lat="43.54421825534957" lon="11.56377940827548"><ele>139.5</ele><time>2026-05-01T13:05:53.999Z</time></trkpt><trkpt lat="43.54399088492504" lon="11.564119179982226"><ele>140.0</ele><time>2026-05-01T13:05:54.999Z</time></trkpt><trkpt lat="43.54376312785175" lon="11.564460819756935"><ele>139.0</ele><time>2026-05-01T13:05:55.999Z</time></trkpt><trkpt lat="43.54353504884666" lon="11.564802420968403"><ele>138.0</ele><time>2026-05-01T13:05:56.999Z</time></trkpt><trkpt lat="43.543303683721845" lon="11.565140782558979"><ele>137.5</ele><time>2026-05-01T13:05:57.999Z</time></trkpt><trkpt lat="43.543070556467164" lon="11.565477736610076"><ele>137.0</ele><time>2026-05-01T13:05:58.999Z</time></trkpt><trkpt lat="43.54284149316319" lon="11.565810848042366"><ele>137.0</ele><time>2026-05-01T13:05:59.999Z</time></trkpt><trkpt lat="43.54262277035636" lon="11.566136717766373"><ele>137.0</ele><time>2026-05-01T13:06:00.999Z</time></trkpt><trkpt lat="43.54241560109147" lon="11.566448400979782"><ele>137.5</ele><time>2026-05-01T13:06:01.999Z</time></trkpt><trkpt lat="43.54222077265545" lon="11.5667338468048"><ele>138.0</ele><time>2026-05-01T13:06:02.999Z</time></trkpt><trkpt lat="43.54203207715125" lon="11.56700525886436"><ele>139.5</ele><time>2026-05-01T13:06:03.999Z</time></trkpt><trkpt lat="43.54185200764139" lon="11.567269437188534"><ele>141.0</ele><time>2026-05-01T13:06:04.999Z</time></trkpt><trkpt lat="43.54167620885116" lon="11.567529531694696"><ele>141.0</ele><time>2026-05-01T13:06:05.999Z</time></trkpt><trkpt lat="43.541495055484766" lon="11.567795050734855"><ele>141.0</ele><time>2026-05-01T13:06:06.999Z</time></trkpt><trkpt lat="43.541306063723574" lon="11.568063803942472"><ele>139.5</ele><time>2026-05-01T13:06:07.999Z</time></trkpt><trkpt lat="43.54111511251653" lon="11.568339139551899"><ele>138.0</ele><time>2026-05-01T13:06:08.999Z</time></trkpt><trkpt lat="43.54091928226313" lon="11.568623138637818"><ele>139.5</ele><time>2026-05-01T13:06:09.999Z</time></trkpt><trkpt lat="43.540716622771285" lon="11.568918604180341"><ele>141.0</ele><time>2026-05-01T13:06:10.999Z</time></trkpt><trkpt lat="43.540506924613375" lon="11.569222319138214"><ele>140.5</ele><time>2026-05-01T13:06:11.999Z</time></trkpt><trkpt lat="43.54029245557697" lon="11.569537878953094"><ele>140.0</ele><time>2026-05-01T13:06:12.999Z</time></trkpt><trkpt lat="43.54007149680904" lon="11.569861682864081"><ele>140.0</ele><time>2026-05-01T13:06:13.999Z</time></trkpt><trkpt lat="43.53984959437058" lon="11.570193488299065"><ele>140.0</ele><time>2026-05-01T13:06:14.999Z</time></trkpt><trkpt lat="43.53962665448816" lon="11.570530151635388"><ele>139.5</ele><time>2026-05-01T13:06:15.999Z</time></trkpt><trkpt lat="43.53940353813654" lon="11.570870779204956"><ele>139.0</ele><time>2026-05-01T13:06:16.999Z</time></trkpt><trkpt lat="43.539180017678625" lon="11.571215678026553"><ele>139.0</ele><time>2026-05-01T13:06:17.999Z</time></trkpt><trkpt lat="43.538957323252816" lon="11.571564032929297"><ele>139.0</ele><time>2026-05-01T13:06:18.999Z</time></trkpt><trkpt lat="43.538735663300656" lon="11.571916516601933"><ele>140.5</ele><time>2026-05-01T13:06:19.999Z</time></trkpt><trkpt lat="43.53851880884476" lon="11.572274850834122"><ele>142.0</ele><time>2026-05-01T13:06:20.999Z</time></trkpt><trkpt lat="43.538306830866965" lon="11.572641246597017"><ele>142.0</ele><time>2026-05-01T13:06:21.999Z</time></trkpt><trkpt lat="43.53809704437381" lon="11.573013135938819"><ele>142.0</ele><time>2026-05-01T13:06:22.999Z</time></trkpt><trkpt lat="43.53789166047341" lon="11.573378902051582"><ele>142.5</ele><time>2026-05-01T13:06:23.999Z</time></trkpt><trkpt lat="43.537679911393056" lon="11.573756420039826"><ele>143.0</ele><time>2026-05-01T13:06:24.999Z</time></trkpt><trkpt lat="43.537471955701506" lon="11.574129503934856"><ele>143.0</ele><time>2026-05-01T13:06:25.999Z</time></trkpt><trkpt lat="43.53726524341868" lon="11.57450564251974"><ele>143.0</ele><time>2026-05-01T13:06:26.999Z</time></trkpt><trkpt lat="43.53705920215443" lon="11.574878293790292"><ele>143.0</ele><time>2026-05-01T13:06:27.999Z</time></trkpt><trkpt lat="43.53685236715621" lon="11.575249614853622"><ele>143.0</ele><time>2026-05-01T13:06:28.999Z</time></trkpt><trkpt lat="43.53664451658228" lon="11.57561829142432"><ele>142.5</ele><time>2026-05-01T13:06:29.999Z</time></trkpt><trkpt lat="43.536438620663304" lon="11.575986374105597"><ele>142.0</ele><time>2026-05-01T13:06:30.999Z</time></trkpt><trkpt lat="43.536233543548036" lon="11.576353412040573"><ele>141.5</ele><time>2026-05-01T13:06:31.999Z</time></trkpt><trkpt lat="43.536029377082905" lon="11.576719362454194"><ele>141.0</ele><time>2026-05-01T13:06:32.999Z</time></trkpt><trkpt lat="43.5358267724229" lon="11.577082674268373"><ele>141.0</ele><time>2026-05-01T13:06:33.999Z</time></trkpt><trkpt lat="43.53562585088407" lon="11.577446386109878"><ele>141.0</ele><time>2026-05-01T13:06:34.999Z</time></trkpt><trkpt lat="43.53542638222651" lon="11.577811525728531"><ele>140.5</ele><time>2026-05-01T13:06:35.999Z</time></trkpt><trkpt lat="43.53522887765151" lon="11.578173781954403"><ele>140.0</ele><time>2026-05-01T13:06:36.999Z</time></trkpt><trkpt lat="43.53503120083287" lon="11.578533716094412"><ele>140.5</ele><time>2026-05-01T13:06:37.999Z</time></trkpt><trkpt lat="43.53483486294543" lon="11.578891115912693"><ele>141.0</ele><time>2026-05-01T13:06:38.999Z</time></trkpt><trkpt lat="43.53463900141407" lon="11.57924896628433"><ele>142.5</ele><time>2026-05-01T13:06:39.999Z</time></trkpt><trkpt lat="43.53444167932266" lon="11.579606958823113"><ele>144.0</ele><time>2026-05-01T13:06:40.999Z</time></trkpt><trkpt lat="43.53424025609597" lon="11.579962186095145"><ele>144.0</ele><time>2026-05-01T13:06:41.999Z</time></trkpt><trkpt lat="43.53403640605033" lon="11.580319205991279"><ele>144.0</ele><time>2026-05-01T13:06:42.999Z</time></trkpt><trkpt lat="43.5338355839716" lon="11.580680534184024"><ele>142.5</ele><time>2026-05-01T13:06:43.999Z</time></trkpt><trkpt lat="43.53363489970009" lon="11.581044094179518"><ele>141.0</ele><time>2026-05-01T13:06:44.999Z</time></trkpt><trkpt lat="43.53343281484941" lon="11.581409193683708"><ele>141.0</ele><time>2026-05-01T13:06:45.999Z</time></trkpt><trkpt lat="43.533230239661044" lon="11.581773982746915"><ele>141.0</ele><time>2026-05-01T13:06:46.999Z</time></trkpt><trkpt lat="43.533029256161136" lon="11.58213658778574"><ele>141.0</ele><time>2026-05-01T13:06:47.999Z</time></trkpt><trkpt lat="43.53283068279864" lon="11.582496649797706"><ele>141.0</ele><time>2026-05-01T13:06:48.999Z</time></trkpt><trkpt lat="43.53263144441307" lon="11.58285461876259"><ele>142.0</ele><time>2026-05-01T13:06:49.999Z</time></trkpt><trkpt lat="43.53242834425965" lon="11.58321436197769"><ele>143.0</ele><time>2026-05-01T13:06:50.999Z</time></trkpt><trkpt lat="43.53222023116023" lon="11.58357356894866"><ele>141.5</ele><time>2026-05-01T13:06:51.999Z</time></trkpt><trkpt lat="43.53201057684496" lon="11.583931308226502"><ele>140.0</ele><time>2026-05-01T13:06:52.999Z</time></trkpt><trkpt lat="43.53180089771359" lon="11.584291817357835"><ele>142.0</ele><time>2026-05-01T13:06:53.999Z</time></trkpt><trkpt lat="43.5315947917921" lon="11.58465400831062"><ele>144.0</ele><time>2026-05-01T13:06:54.999Z</time></trkpt><trkpt lat="43.53139180478687" lon="11.585018425621698"><ele>143.5</ele><time>2026-05-01T13:06:55.999Z</time></trkpt><trkpt lat="43.53119136049652" lon="11.585383045864672"><ele>143.0</ele><time>2026-05-01T13:06:56.999Z</time></trkpt><trkpt lat="43.530991772483105" lon="11.585747295630622"><ele>143.0</ele><time>2026-05-01T13:06:57.999Z</time></trkpt><trkpt lat="43.53079284186155" lon="11.586107954926792"><ele>143.0</ele><time>2026-05-01T13:06:58.999Z</time></trkpt><trkpt lat="43.53059168817403" lon="11.586470460616463"><ele>142.5</ele><time>2026-05-01T13:06:59.999Z</time></trkpt><trkpt lat="43.53038911918694" lon="11.586834373882104"><ele>142.0</ele><time>2026-05-01T13:07:00.999Z</time></trkpt><trkpt lat="43.530185896756926" lon="11.587199294276086"><ele>143.5</ele><time>2026-05-01T13:07:01.999Z</time></trkpt><trkpt lat="43.5299813765596" lon="11.587563441083626"><ele>145.0</ele><time>2026-05-01T13:07:02.999Z</time></trkpt><trkpt lat="43.52977566659639" lon="11.587929439409393"><ele>145.0</ele><time>2026-05-01T13:07:03.999Z</time></trkpt><trkpt lat="43.52957311988004" lon="11.588292533625172"><ele>145.0</ele><time>2026-05-01T13:07:04.999Z</time></trkpt><trkpt lat="43.529374711967925" lon="11.58866005881068"><ele>145.5</ele><time>2026-05-01T13:07:05.999Z</time></trkpt><trkpt lat="43.52917852084279" lon="11.589032810208868"><ele>146.0</ele><time>2026-05-01T13:07:06.999Z</time></trkpt><trkpt lat="43.52898113534371" lon="11.589407234313459"><ele>145.5</ele><time>2026-05-01T13:07:07.999Z</time></trkpt><trkpt lat="43.528782477515115" lon="11.589782039056812"><ele>145.0</ele><time>2026-05-01T13:07:08.999Z</time></trkpt><trkpt lat="43.5285819896892" lon="11.590149675807309"><ele>144.0</ele><time>2026-05-01T13:07:09.999Z</time></trkpt><trkpt lat="43.528378841989294" lon="11.590515217143286"><ele>143.0</ele><time>2026-05-01T13:07:10.999Z</time></trkpt><trkpt lat="43.52817376976479" lon="11.590881812577095"><ele>143.5</ele><time>2026-05-01T13:07:11.999Z</time></trkpt><trkpt lat="43.5279706461338" lon="11.591250627370842"><ele>144.0</ele><time>2026-05-01T13:07:13Z</time></trkpt><trkpt lat="43.52776611676059" lon="11.591619874604769"><ele>144.0</ele><time>2026-05-01T13:07:14Z</time></trkpt><trkpt lat="43.52756042343291" lon="11.591988718765236"><ele>144.0</ele><time>2026-05-01T13:07:15Z</time></trkpt><trkpt lat="43.52735388879006" lon="11.592356136305197"><ele>144.5</ele><time>2026-05-01T13:07:16Z</time></trkpt><trkpt lat="43.52714578595311" lon="11.592723432852834"><ele>145.0</ele><time>2026-05-01T13:07:17Z</time></trkpt><trkpt lat="43.52693735920585" lon="11.593089817606835"><ele>145.0</ele><time>2026-05-01T13:07:18Z</time></trkpt><trkpt lat="43.5267267993433" lon="11.593452510860434"><ele>145.0</ele><time>2026-05-01T13:07:19Z</time></trkpt><trkpt lat="43.526514890807185" lon="11.593807406459925"><ele>145.0</ele><time>2026-05-01T13:07:20Z</time></trkpt><trkpt lat="43.526302508734574" lon="11.59416871600453"><ele>145.0</ele><time>2026-05-01T13:07:21Z</time></trkpt><trkpt lat="43.52609491233216" lon="11.594532499757282"><ele>145.0</ele><time>2026-05-01T13:07:22Z</time></trkpt><trkpt lat="43.52589545127487" lon="11.594896514660139"><ele>145.0</ele><time>2026-05-01T13:07:23Z</time></trkpt><trkpt lat="43.52569813460727" lon="11.595261239498212"><ele>145.0</ele><time>2026-05-01T13:07:24Z</time></trkpt><trkpt lat="43.525498480089475" lon="11.595621178214325"><ele>145.0</ele><time>2026-05-01T13:07:25Z</time></trkpt><trkpt lat="43.52529634440473" lon="11.595980683194384"><ele>145.0</ele><time>2026-05-01T13:07:26Z</time></trkpt><trkpt lat="43.52509519322007" lon="11.596338174949485"><ele>145.0</ele><time>2026-05-01T13:07:27Z</time></trkpt><trkpt lat="43.52489447817217" lon="11.596693810616337"><ele>144.0</ele><time>2026-05-01T13:07:28Z</time></trkpt><trkpt lat="43.524695630823715" lon="11.597047965209919"><ele>143.0</ele><time>2026-05-01T13:07:29Z</time></trkpt><trkpt lat="43.52449930394905" lon="11.59740216267926"><ele>143.0</ele><time>2026-05-01T13:07:30Z</time></trkpt><trkpt lat="43.52430430699146" lon="11.597756080461437"><ele>143.0</ele><time>2026-05-01T13:07:31Z</time></trkpt><trkpt lat="43.52410974802887" lon="11.598110418796349"><ele>143.5</ele><time>2026-05-01T13:07:32Z</time></trkpt><trkpt lat="43.5239158923977" lon="11.598461900144528"><ele>144.0</ele><time>2026-05-01T13:07:33Z</time></trkpt><trkpt lat="43.523720282035484" lon="11.598814670669071"><ele>144.0</ele><time>2026-05-01T13:07:34Z</time></trkpt><trkpt lat="43.52352323765864" lon="11.599166323753906"><ele>144.0</ele><time>2026-05-01T13:07:35Z</time></trkpt><trkpt lat="43.52332341903633" lon="11.599515734224127"><ele>145.5</ele><time>2026-05-01T13:07:36Z</time></trkpt><trkpt lat="43.52312101014571" lon="11.599864025843615"><ele>147.0</ele><time>2026-05-01T13:07:37Z</time></trkpt><trkpt lat="43.522915899853" lon="11.600212497639014"><ele>146.0</ele><time>2026-05-01T13:07:38Z</time></trkpt><trkpt lat="43.52270989332644" lon="11.600560446041072"><ele>145.0</ele><time>2026-05-01T13:07:38.999Z</time></trkpt><trkpt lat="43.52250173028201" lon="11.600908441515331"><ele>146.0</ele><time>2026-05-01T13:07:39.999Z</time></trkpt><trkpt lat="43.52229191979978" lon="11.601255925777581"><ele>147.0</ele><time>2026-05-01T13:07:40.999Z</time></trkpt><trkpt lat="43.5220819145155" lon="11.601606824068076"><ele>146.0</ele><time>2026-05-01T13:07:41.999Z</time></trkpt><trkpt lat="43.52187243424198" lon="11.60195942389332"><ele>145.0</ele><time>2026-05-01T13:07:42.999Z</time></trkpt><trkpt lat="43.52165973122367" lon="11.60231382137603"><ele>145.0</ele><time>2026-05-01T13:07:43.999Z</time></trkpt><trkpt lat="43.52144478488075" lon="11.602670492995983"><ele>145.0</ele><time>2026-05-01T13:07:44.999Z</time></trkpt><trkpt lat="43.52123082373244" lon="11.603027599011046"><ele>146.5</ele><time>2026-05-01T13:07:45.999Z</time></trkpt><trkpt lat="43.5210164894375" lon="11.603384305843555"><ele>148.0</ele><time>2026-05-01T13:07:46.999Z</time></trkpt><trkpt lat="43.52080127810575" lon="11.603739636641686"><ele>148.0</ele><time>2026-05-01T13:07:47.999Z</time></trkpt><trkpt lat="43.52058369969357" lon="11.60409156854729"><ele>148.0</ele><time>2026-05-01T13:07:48.999Z</time></trkpt><trkpt lat="43.520369919137934" lon="11.604444585459223"><ele>147.5</ele><time>2026-05-01T13:07:49.999Z</time></trkpt><trkpt lat="43.52015895855844" lon="11.604798118436628"><ele>147.0</ele><time>2026-05-01T13:07:50.999Z</time></trkpt><trkpt lat="43.51995026144913" lon="11.605151669145267"><ele>147.0</ele><time>2026-05-01T13:07:51.999Z</time></trkpt><trkpt lat="43.51973983363566" lon="11.605506983532976"><ele>147.0</ele><time>2026-05-01T13:07:52.999Z</time></trkpt><trkpt lat="43.519530335147564" lon="11.605864391426866"><ele>148.0</ele><time>2026-05-01T13:07:53.999Z</time></trkpt><trkpt lat="43.51931919260186" lon="11.606220483881959"><ele>149.0</ele><time>2026-05-01T13:07:54.999Z</time></trkpt><trkpt lat="43.519107422277365" lon="11.60657615578322"><ele>149.0</ele><time>2026-05-01T13:07:55.999Z</time></trkpt><trkpt lat="43.51889471013321" lon="11.606932696447677"><ele>149.0</ele><time>2026-05-01T13:07:56.999Z</time></trkpt><trkpt lat="43.518679342537645" lon="11.607290340017927"><ele>149.5</ele><time>2026-05-01T13:07:57.999Z</time></trkpt><trkpt lat="43.518466149839" lon="11.607645884695946"><ele>150.0</ele><time>2026-05-01T13:07:58.999Z</time></trkpt><trkpt lat="43.51825065883606" lon="11.607999351254511"><ele>150.0</ele><time>2026-05-01T13:07:59.999Z</time></trkpt><trkpt lat="43.51803524602224" lon="11.608354239526204"><ele>150.0</ele><time>2026-05-01T13:08:00.999Z</time></trkpt><trkpt lat="43.517823172601474" lon="11.608705941004747"><ele>150.5</ele><time>2026-05-01T13:08:01.999Z</time></trkpt><trkpt lat="43.517612548028104" lon="11.609057159162884"><ele>151.0</ele><time>2026-05-01T13:08:02.999Z</time></trkpt><trkpt lat="43.517402257006125" lon="11.60940822343117"><ele>152.0</ele><time>2026-05-01T13:08:03.999Z</time></trkpt><trkpt lat="43.517191464235545" lon="11.609761520567533"><ele>153.0</ele><time>2026-05-01T13:08:04.999Z</time></trkpt><trkpt lat="43.516982530139785" lon="11.610118527154341"><ele>152.0</ele><time>2026-05-01T13:08:05.999Z</time></trkpt><trkpt lat="43.516783347837695" lon="11.61048381161122"><ele>151.0</ele><time>2026-05-01T13:08:06.999Z</time></trkpt><trkpt lat="43.51659831668726" lon="11.610859065969985"><ele>152.0</ele><time>2026-05-01T13:08:07.999Z</time></trkpt><trkpt lat="43.51642531617742" lon="11.611241590483411"><ele>153.0</ele><time>2026-05-01T13:08:08.999Z</time></trkpt><trkpt lat="43.516258584653706" lon="11.61163125864393"><ele>150.5</ele><time>2026-05-01T13:08:09.999Z</time></trkpt><trkpt lat="43.51609816452178" lon="11.612025780293054"><ele>148.0</ele><time>2026-05-01T13:08:10.999Z</time></trkpt><trkpt lat="43.515943985020165" lon="11.612428781115764"><ele>149.0</ele><time>2026-05-01T13:08:11.999Z</time></trkpt><trkpt lat="43.51579725199674" lon="11.612841140390167"><ele>150.0</ele><time>2026-05-01T13:08:12.999Z</time></trkpt><trkpt lat="43.51565903002046" lon="11.613259594601189"><ele>152.5</ele><time>2026-05-01T13:08:13.999Z</time></trkpt><trkpt lat="43.51552938369238" lon="11.613682843185309"><ele>155.0</ele><time>2026-05-01T13:08:14.999Z</time></trkpt><trkpt lat="43.51540615665525" lon="11.61411301565377"><ele>151.0</ele><time>2026-05-01T13:08:15.999Z</time></trkpt><trkpt lat="43.51529010281454" lon="11.61455209901362"><ele>147.0</ele><time>2026-05-01T13:08:16.999Z</time></trkpt><trkpt lat="43.51518286876088" lon="11.614996800405859"><ele>147.0</ele><time>2026-05-01T13:08:17.999Z</time></trkpt><trkpt lat="43.51508403450497" lon="11.615444495519673"><ele>147.0</ele><time>2026-05-01T13:08:18.999Z</time></trkpt><trkpt lat="43.51499678556274" lon="11.61589319696394"><ele>148.5</ele><time>2026-05-01T13:08:19.999Z</time></trkpt><trkpt lat="43.51491901168041" lon="11.616331549748455"><ele>150.0</ele><time>2026-05-01T13:08:20.999Z</time></trkpt><trkpt lat="43.51485697432842" lon="11.61672715844985"><ele>152.0</ele><time>2026-05-01T13:08:21.999Z</time></trkpt><trkpt lat="43.51480624847616" lon="11.617078768047296"><ele>154.0</ele><time>2026-05-01T13:08:22.999Z</time></trkpt><trkpt lat="43.51476650780378" lon="11.617404371571421"><ele>154.0</ele><time>2026-05-01T13:08:23.999Z</time></trkpt><trkpt lat="43.51473506065859" lon="11.617716551747211"><ele>154.0</ele><time>2026-05-01T13:08:24.999Z</time></trkpt><trkpt lat="43.51470743988016" lon="11.618021886806218"><ele>154.0</ele><time>2026-05-01T13:08:25.999Z</time></trkpt><trkpt lat="43.51468416081883" lon="11.618323771345594"><ele>154.0</ele><time>2026-05-01T13:08:26.999Z</time></trkpt><trkpt lat="43.51466281664798" lon="11.618633700199947"><ele>154.0</ele><time>2026-05-01T13:08:27.999Z</time></trkpt><trkpt lat="43.51464509375617" lon="11.618954495829268"><ele>154.0</ele><time>2026-05-01T13:08:28.999Z</time></trkpt><trkpt lat="43.51462860256692" lon="11.619284072887366"><ele>154.0</ele><time>2026-05-01T13:08:29.999Z</time></trkpt><trkpt lat="43.51461498326993" lon="11.619628579456808"><ele>154.0</ele><time>2026-05-01T13:08:30.999Z</time></trkpt><trkpt lat="43.5146009246669" lon="11.6199790190412"><ele>154.0</ele><time>2026-05-01T13:08:31.999Z</time></trkpt><trkpt lat="43.51458464240129" lon="11.620338223323374"><ele>150.0</ele><time>2026-05-01T13:08:32.999Z</time></trkpt><trkpt lat="43.51456854019422" lon="11.620699951563118"><ele>146.0</ele><time>2026-05-01T13:08:33.999Z</time></trkpt><trkpt lat="43.51455353532853" lon="11.621070238420016"><ele>145.5</ele><time>2026-05-01T13:08:34.999Z</time></trkpt><trkpt lat="43.51453890879781" lon="11.62145082889338"><ele>145.0</ele><time>2026-05-01T13:08:35.999Z</time></trkpt><trkpt lat="43.51452332818034" lon="11.621841432963139"><ele>145.0</ele><time>2026-05-01T13:08:36.999Z</time></trkpt><trkpt lat="43.51450578521337" lon="11.622248195022623"><ele>145.0</ele><time>2026-05-01T13:08:37.999Z</time></trkpt><trkpt lat="43.51448789063022" lon="11.622659527358609"><ele>145.5</ele><time>2026-05-01T13:08:38.999Z</time></trkpt><trkpt lat="43.51446892459234" lon="11.62306534111766"><ele>146.0</ele><time>2026-05-01T13:08:39.999Z</time></trkpt><trkpt lat="43.51445047036333" lon="11.62346935151272"><ele>145.5</ele><time>2026-05-01T13:08:40.999Z</time></trkpt><trkpt lat="43.514433499193856" lon="11.623875001811852"><ele>145.0</ele><time>2026-05-01T13:08:41.999Z</time></trkpt><trkpt lat="43.51441497541307" lon="11.624285665144567"><ele>145.5</ele><time>2026-05-01T13:08:42.999Z</time></trkpt><trkpt lat="43.5143956780139" lon="11.624701082703702"><ele>146.0</ele><time>2026-05-01T13:08:43.999Z</time></trkpt><trkpt lat="43.51437603451314" lon="11.625122632241384"><ele>146.0</ele><time>2026-05-01T13:08:44.999Z</time></trkpt><trkpt lat="43.514354850823004" lon="11.625546462484431"><ele>146.0</ele><time>2026-05-01T13:08:45.999Z</time></trkpt><trkpt lat="43.514334508767526" lon="11.625976201570829"><ele>148.5</ele><time>2026-05-01T13:08:46.999Z</time></trkpt><trkpt lat="43.51431523362429" lon="11.626409189906035"><ele>151.0</ele><time>2026-05-01T13:08:47.999Z</time></trkpt><trkpt lat="43.51429636828482" lon="11.626843371113129"><ele>155.5</ele><time>2026-05-01T13:08:48.999Z</time></trkpt><trkpt lat="43.5142771808543" lon="11.627274475914513"><ele>160.0</ele><time>2026-05-01T13:08:49.999Z</time></trkpt><trkpt lat="43.514262287765185" lon="11.62769948466045"><ele>164.0</ele><time>2026-05-01T13:08:50.999Z</time></trkpt><trkpt lat="43.51425901285249" lon="11.628116613747174"><ele>168.0</ele><time>2026-05-01T13:08:51.999Z</time></trkpt><trkpt lat="43.514276899746015" lon="11.628533474523726"><ele>171.5</ele><time>2026-05-01T13:08:52.999Z</time></trkpt><trkpt lat="43.51432104756269" lon="11.62895250133901"><ele>175.0</ele><time>2026-05-01T13:08:53.999Z</time></trkpt><trkpt lat="43.51439253712904" lon="11.62936805564099"><ele>176.5</ele><time>2026-05-01T13:08:54.999Z</time></trkpt><trkpt lat="43.51448834114056" lon="11.62977803842205"><ele>178.0</ele><time>2026-05-01T13:08:55.999Z</time></trkpt><trkpt lat="43.514597847235905" lon="11.630179412915364"><ele>184.5</ele><time>2026-05-01T13:08:56.999Z</time></trkpt><trkpt lat="43.51471277983158" lon="11.630572582406096"><ele>191.0</ele><time>2026-05-01T13:08:57.999Z</time></trkpt><trkpt lat="43.514824347737566" lon="11.63096211086718"><ele>187.5</ele><time>2026-05-01T13:08:58.999Z</time></trkpt><trkpt lat="43.51492343563092" lon="11.631354667759423"><ele>184.0</ele><time>2026-05-01T13:08:59.999Z</time></trkpt><trkpt lat="43.515003868148106" lon="11.63175529342158"><ele>178.5</ele><time>2026-05-01T13:09:00.999Z</time></trkpt><trkpt lat="43.515059634123055" lon="11.632165142391926"><ele>173.0</ele><time>2026-05-01T13:09:01.999Z</time></trkpt><trkpt lat="43.51509500842026" lon="11.632578966808989"><ele>169.5</ele><time>2026-05-01T13:09:02.999Z</time></trkpt><trkpt lat="43.51511431568876" lon="11.632990003941478"><ele>166.0</ele><time>2026-05-01T13:09:03.999Z</time></trkpt><trkpt lat="43.51511705241487" lon="11.633398836913457"><ele>171.0</ele><time>2026-05-01T13:09:04.999Z</time></trkpt><trkpt lat="43.51509863361676" lon="11.633809470239632"><ele>176.0</ele><time>2026-05-01T13:09:05.999Z</time></trkpt><trkpt lat="43.515057443265405" lon="11.63422010417023"><ele>182.5</ele><time>2026-05-01T13:09:06.999Z</time></trkpt><trkpt lat="43.51499908205767" lon="11.634627457629547"><ele>189.0</ele><time>2026-05-01T13:09:07.999Z</time></trkpt><trkpt lat="43.51492371451413" lon="11.635024666348091"><ele>193.0</ele><time>2026-05-01T13:09:08.999Z</time></trkpt><trkpt lat="43.51483214919582" lon="11.63541894556935"><ele>197.0</ele><time>2026-05-01T13:09:09.999Z</time></trkpt><trkpt lat="43.5147210242847" lon="11.635805185062177"><ele>195.0</ele><time>2026-05-01T13:09:10.999Z</time></trkpt><trkpt lat="43.514592459654615" lon="11.636178221190121"><ele>193.0</ele><time>2026-05-01T13:09:11.999Z</time></trkpt><trkpt lat="43.51444588591513" lon="11.636540979285838"><ele>193.0</ele><time>2026-05-01T13:09:12.999Z</time></trkpt><trkpt lat="43.51428983057071" lon="11.636911127532022"><ele>193.0</ele><time>2026-05-01T13:09:13.999Z</time></trkpt><trkpt lat="43.51413585644368" lon="11.637296735548041"><ele>198.0</ele><time>2026-05-01T13:09:14.999Z</time></trkpt><trkpt lat="43.51398429727406" lon="11.637696646855023"><ele>203.0</ele><time>2026-05-01T13:09:15.999Z</time></trkpt><trkpt lat="43.513830674967856" lon="11.638089419662997"><ele>207.0</ele><time>2026-05-01T13:09:16.999Z</time></trkpt><trkpt lat="43.513676119291226" lon="11.638484690352366"><ele>211.0</ele><time>2026-05-01T13:09:17.999Z</time></trkpt><trkpt lat="43.513530687204074" lon="11.638887733061347"><ele>213.5</ele><time>2026-05-01T13:09:19Z</time></trkpt><trkpt lat="43.51339646925018" lon="11.63929916246651"><ele>216.0</ele><time>2026-05-01T13:09:20Z</time></trkpt><trkpt lat="43.513279687334744" lon="11.639718842428172"><ele>218.5</ele><time>2026-05-01T13:09:21Z</time></trkpt><trkpt lat="43.51318643859524" lon="11.640140688329252"><ele>221.0</ele><time>2026-05-01T13:09:22Z</time></trkpt><trkpt lat="43.513116771614" lon="11.640568602828909"><ele>222.0</ele><time>2026-05-01T13:09:23Z</time></trkpt><trkpt lat="43.51305844787318" lon="11.641001037337292"><ele>223.0</ele><time>2026-05-01T13:09:24Z</time></trkpt><trkpt lat="43.51300231409354" lon="11.641433784661293"><ele>226.0</ele><time>2026-05-01T13:09:25Z</time></trkpt><trkpt lat="43.512939876944394" lon="11.641855894934091"><ele>229.0</ele><time>2026-05-01T13:09:26Z</time></trkpt><trkpt lat="43.51286361626229" lon="11.642267505939373"><ele>230.0</ele><time>2026-05-01T13:09:27Z</time></trkpt><trkpt lat="43.51275846813562" lon="11.642665428716237"><ele>231.0</ele><time>2026-05-01T13:09:28Z</time></trkpt><trkpt lat="43.51263174328118" lon="11.643032160570195"><ele>231.0</ele><time>2026-05-01T13:09:29Z</time></trkpt><trkpt lat="43.51249133890054" lon="11.643372127394997"><ele>231.0</ele><time>2026-05-01T13:09:30Z</time></trkpt><trkpt lat="43.51233314154946" lon="11.643693828850719"><ele>232.5</ele><time>2026-05-01T13:09:31Z</time></trkpt><trkpt lat="43.51215476823798" lon="11.644008845365317"><ele>234.0</ele><time>2026-05-01T13:09:32Z</time></trkpt><trkpt lat="43.5119622372937" lon="11.644295428062891"><ele>236.0</ele><time>2026-05-01T13:09:33Z</time></trkpt><trkpt lat="43.51175161401642" lon="11.644558075927522"><ele>238.0</ele><time>2026-05-01T13:09:34Z</time></trkpt><trkpt lat="43.511527558697566" lon="11.644799641199993"><ele>238.0</ele><time>2026-05-01T13:09:35Z</time></trkpt><trkpt lat="43.51129049818244" lon="11.645009849251085"><ele>238.0</ele><time>2026-05-01T13:09:36Z</time></trkpt><trkpt lat="43.511041427561516" lon="11.645198213841349"><ele>238.0</ele><time>2026-05-01T13:09:37Z</time></trkpt><trkpt lat="43.510781267574245" lon="11.645376717246448"><ele>238.0</ele><time>2026-05-01T13:09:38Z</time></trkpt><trkpt lat="43.51051522920124" lon="11.64555376406225"><ele>237.5</ele><time>2026-05-01T13:09:39Z</time></trkpt><trkpt lat="43.51024945371372" lon="11.645735304618736"><ele>237.0</ele><time>2026-05-01T13:09:40Z</time></trkpt><trkpt lat="43.509987128634585" lon="11.645918738002749"><ele>237.0</ele><time>2026-05-01T13:09:41Z</time></trkpt><trkpt lat="43.509721558116624" lon="11.646104739341217"><ele>237.0</ele><time>2026-05-01T13:09:42Z</time></trkpt><trkpt lat="43.50945472549313" lon="11.646290207360362"><ele>228.0</ele><time>2026-05-01T13:09:43Z</time></trkpt><trkpt lat="43.50918994044672" lon="11.646475885535128"><ele>219.0</ele><time>2026-05-01T13:09:44Z</time></trkpt><trkpt lat="43.50892788605354" lon="11.646661362306915"><ele>210.0</ele><time>2026-05-01T13:09:45Z</time></trkpt><trkpt lat="43.50866683927474" lon="11.646844972609744"><ele>201.0</ele><time>2026-05-01T13:09:46Z</time></trkpt><trkpt lat="43.508407640345055" lon="11.647027324469352"><ele>193.0</ele><time>2026-05-01T13:09:46.999Z</time></trkpt><trkpt lat="43.50815237104779" lon="11.64720854593932"><ele>185.0</ele><time>2026-05-01T13:09:47.999Z</time></trkpt><trkpt lat="43.50789645204097" lon="11.647387731849108"><ele>185.0</ele><time>2026-05-01T13:09:48.999Z</time></trkpt><trkpt lat="43.50764272652919" lon="11.647565400065996"><ele>185.0</ele><time>2026-05-01T13:09:49.999Z</time></trkpt><trkpt lat="43.50739462535448" lon="11.647739013882074"><ele>187.5</ele><time>2026-05-01T13:09:50.999Z</time></trkpt><trkpt lat="43.507152264074065" lon="11.64790496101985"><ele>190.0</ele><time>2026-05-01T13:09:51.999Z</time></trkpt><trkpt lat="43.50691294314969" lon="11.648073396510721"><ele>199.5</ele><time>2026-05-01T13:09:52.999Z</time></trkpt><trkpt lat="43.50667531868704" lon="11.648241616015168"><ele>209.0</ele><time>2026-05-01T13:09:53.999Z</time></trkpt><trkpt lat="43.506436820633105" lon="11.648410654567556"><ele>215.5</ele><time>2026-05-01T13:09:54.999Z</time></trkpt><trkpt lat="43.50619751021186" lon="11.648580299476633"><ele>222.0</ele><time>2026-05-01T13:09:55.999Z</time></trkpt><trkpt lat="43.50595462778125" lon="11.648751171857647"><ele>223.0</ele><time>2026-05-01T13:09:56.999Z</time></trkpt><trkpt lat="43.50570423742444" lon="11.648927805200568"><ele>224.0</ele><time>2026-05-01T13:09:57.999Z</time></trkpt><trkpt lat="43.505445942554125" lon="11.649109379368198"><ele>226.5</ele><time>2026-05-01T13:09:58.999Z</time></trkpt><trkpt lat="43.50518462414209" lon="11.649302454850012"><ele>229.0</ele><time>2026-05-01T13:09:59.999Z</time></trkpt><trkpt lat="43.5049274885525" lon="11.64950807242293"><ele>229.0</ele><time>2026-05-01T13:10:00.999Z</time></trkpt><trkpt lat="43.50468354397228" lon="11.649734460803206"><ele>229.0</ele><time>2026-05-01T13:10:01.999Z</time></trkpt><trkpt lat="43.504452643622336" lon="11.649973822434289"><ele>230.5</ele><time>2026-05-01T13:10:02.999Z</time></trkpt><trkpt lat="43.50422604794973" lon="11.650226006712092"><ele>232.0</ele><time>2026-05-01T13:10:03.999Z</time></trkpt><trkpt lat="43.50400407112272" lon="11.6504825468051"><ele>232.0</ele><time>2026-05-01T13:10:04.999Z</time></trkpt><trkpt lat="43.503791271082335" lon="11.650750146817666"><ele>232.0</ele><time>2026-05-01T13:10:05.999Z</time></trkpt><trkpt lat="43.50358428910716" lon="11.651034405834903"><ele>234.5</ele><time>2026-05-01T13:10:06.999Z</time></trkpt><trkpt lat="43.503389897536174" lon="11.651327963180316"><ele>237.0</ele><time>2026-05-01T13:10:07.999Z</time></trkpt><trkpt lat="43.50320375042438" lon="11.651636550676477"><ele>237.0</ele><time>2026-05-01T13:10:08.999Z</time></trkpt><trkpt lat="43.503024420417816" lon="11.651954823779949"><ele>237.0</ele><time>2026-05-01T13:10:09.999Z</time></trkpt><trkpt lat="43.5028534032338" lon="11.652277139675554"><ele>239.0</ele><time>2026-05-01T13:10:10.999Z</time></trkpt><trkpt lat="43.502676643852965" lon="11.652596024365874"><ele>241.0</ele><time>2026-05-01T13:10:11.999Z</time></trkpt><trkpt lat="43.50249659198918" lon="11.652916141469873"><ele>241.5</ele><time>2026-05-01T13:10:12.999Z</time></trkpt><trkpt lat="43.50231809114925" lon="11.653249181152503"><ele>242.0</ele><time>2026-05-01T13:10:13.999Z</time></trkpt><trkpt lat="43.50213649174691" lon="11.653587922644673"><ele>237.0</ele><time>2026-05-01T13:10:14.999Z</time></trkpt><trkpt lat="43.50195127477615" lon="11.653927633799883"><ele>232.0</ele><time>2026-05-01T13:10:15.999Z</time></trkpt><trkpt lat="43.50176485942816" lon="11.65426716313681"><ele>229.0</ele><time>2026-05-01T13:10:16.999Z</time></trkpt><trkpt lat="43.50157870988838" lon="11.65460655006236"><ele>226.0</ele><time>2026-05-01T13:10:17.999Z</time></trkpt><trkpt lat="43.501391060493646" lon="11.654951706297467"><ele>234.0</ele><time>2026-05-01T13:10:18.999Z</time></trkpt><trkpt lat="43.50120469227376" lon="11.655295293449317"><ele>242.0</ele><time>2026-05-01T13:10:19.999Z</time></trkpt><trkpt lat="43.50101847677754" lon="11.655643290443159"><ele>242.0</ele><time>2026-05-01T13:10:20.999Z</time></trkpt><trkpt lat="43.50083625771306" lon="11.655999261688285"><ele>242.0</ele><time>2026-05-01T13:10:21.999Z</time></trkpt><trkpt lat="43.500659663208296" lon="11.6563610002978"><ele>239.5</ele><time>2026-05-01T13:10:22.999Z</time></trkpt><trkpt lat="43.50048662419023" lon="11.65672612077245"><ele>237.0</ele><time>2026-05-01T13:10:23.999Z</time></trkpt><trkpt lat="43.50031780956555" lon="11.65709194551996"><ele>241.0</ele><time>2026-05-01T13:10:24.999Z</time></trkpt><trkpt lat="43.50015269329278" lon="11.657457349655072"><ele>245.0</ele><time>2026-05-01T13:10:25.999Z</time></trkpt><trkpt lat="43.499995849441234" lon="11.657824587680944"><ele>245.0</ele><time>2026-05-01T13:10:26.999Z</time></trkpt><trkpt lat="43.49984576683726" lon="11.65819522234471"><ele>245.0</ele><time>2026-05-01T13:10:27.999Z</time></trkpt><trkpt lat="43.49969985004677" lon="11.658568248531244"><ele>245.0</ele><time>2026-05-01T13:10:28.999Z</time></trkpt><trkpt lat="43.4995585582798" lon="11.65895220741634"><ele>245.0</ele><time>2026-05-01T13:10:29.999Z</time></trkpt><trkpt lat="43.49942120116318" lon="11.65933759584148"><ele>244.0</ele><time>2026-05-01T13:10:30.999Z</time></trkpt><trkpt lat="43.4992849402977" lon="11.659723309194176"><ele>243.0</ele><time>2026-05-01T13:10:31.999Z</time></trkpt><trkpt lat="43.49914643957842" lon="11.660109223933999"><ele>244.0</ele><time>2026-05-01T13:10:32.999Z</time></trkpt><trkpt lat="43.49900550279836" lon="11.660494389757611"><ele>245.0</ele><time>2026-05-01T13:10:33.999Z</time></trkpt><trkpt lat="43.498864130591684" lon="11.660882457202538"><ele>244.0</ele><time>2026-05-01T13:10:34.999Z</time></trkpt><trkpt lat="43.4987236661386" lon="11.661272380187343"><ele>243.0</ele><time>2026-05-01T13:10:35.999Z</time></trkpt><trkpt lat="43.49858087278032" lon="11.661663323443978"><ele>240.5</ele><time>2026-05-01T13:10:36.999Z</time></trkpt><trkpt lat="43.49843957815666" lon="11.662056207829853"><ele>238.0</ele><time>2026-05-01T13:10:37.999Z</time></trkpt><trkpt lat="43.49829233575427" lon="11.662447507297783"><ele>241.5</ele><time>2026-05-01T13:10:38.999Z</time></trkpt><trkpt lat="43.49813531934548" lon="11.662826127251785"><ele>245.0</ele><time>2026-05-01T13:10:39.999Z</time></trkpt><trkpt lat="43.49796361122702" lon="11.663196309410203"><ele>245.0</ele><time>2026-05-01T13:10:40.999Z</time></trkpt><trkpt lat="43.49778044458264" lon="11.663562858566086"><ele>245.0</ele><time>2026-05-01T13:10:41.999Z</time></trkpt><trkpt lat="43.49759154535947" lon="11.6639228006539"><ele>245.0</ele><time>2026-05-01T13:10:42.999Z</time></trkpt><trkpt lat="43.497396236484086" lon="11.664272555801825"><ele>245.0</ele><time>2026-05-01T13:10:43.999Z</time></trkpt><trkpt lat="43.49718855637807" lon="11.664613402604733"><ele>245.0</ele><time>2026-05-01T13:10:44.999Z</time></trkpt><trkpt lat="43.49697240498027" lon="11.664949614900886"><ele>245.0</ele><time>2026-05-01T13:10:45.999Z</time></trkpt><trkpt lat="43.49674423594371" lon="11.665266521628656"><ele>243.5</ele><time>2026-05-01T13:10:46.999Z</time></trkpt><trkpt lat="43.496509539057875" lon="11.665570279274338"><ele>242.0</ele><time>2026-05-01T13:10:47.999Z</time></trkpt><trkpt lat="43.4962678470501" lon="11.665860940596206"><ele>237.5</ele><time>2026-05-01T13:10:48.999Z</time></trkpt><trkpt lat="43.496023058132835" lon="11.66613985665573"><ele>233.0</ele><time>2026-05-01T13:10:49.999Z</time></trkpt><trkpt lat="43.49577107182661" lon="11.666411606287719"><ele>233.0</ele><time>2026-05-01T13:10:50.999Z</time></trkpt><trkpt lat="43.495509075449796" lon="11.666678861096946"><ele>233.0</ele><time>2026-05-01T13:10:51.999Z</time></trkpt><trkpt lat="43.49524173641658" lon="11.666945577902139"><ele>233.0</ele><time>2026-05-01T13:10:52.999Z</time></trkpt><trkpt lat="43.49497908912459" lon="11.667215341635034"><ele>233.0</ele><time>2026-05-01T13:10:53.999Z</time></trkpt><trkpt lat="43.49472248582161" lon="11.667479998750654"><ele>234.0</ele><time>2026-05-01T13:10:54.999Z</time></trkpt><trkpt lat="43.4944672796206" lon="11.667737806972182"><ele>235.0</ele><time>2026-05-01T13:10:55.999Z</time></trkpt><trkpt lat="43.49421433360598" lon="11.667998638482226"><ele>235.0</ele><time>2026-05-01T13:10:56.999Z</time></trkpt><trkpt lat="43.49396422698079" lon="11.668274158657772"><ele>235.0</ele><time>2026-05-01T13:10:57.999Z</time></trkpt><trkpt lat="43.493722248176" lon="11.668561616846441"><ele>237.0</ele><time>2026-05-01T13:10:58.999Z</time></trkpt><trkpt lat="43.49348952881674" lon="11.66886270844693"><ele>239.0</ele><time>2026-05-01T13:10:59.999Z</time></trkpt><trkpt lat="43.49326742574319" lon="11.669180131808057"><ele>241.0</ele><time>2026-05-01T13:11:00.999Z</time></trkpt><trkpt lat="43.49305326475587" lon="11.669512519144721"><ele>243.0</ele><time>2026-05-01T13:11:01.999Z</time></trkpt><trkpt lat="43.49284645623735" lon="11.669857717523518"><ele>244.0</ele><time>2026-05-01T13:11:02.999Z</time></trkpt><trkpt lat="43.49265037578083" lon="11.670213471372486"><ele>245.0</ele><time>2026-05-01T13:11:03.999Z</time></trkpt><trkpt lat="43.49246683193276" lon="11.67057276247123"><ele>245.0</ele><time>2026-05-01T13:11:04.999Z</time></trkpt><trkpt lat="43.492295823436685" lon="11.670934496883497"><ele>245.0</ele><time>2026-05-01T13:11:05.999Z</time></trkpt><trkpt lat="43.492134601386205" lon="11.671305938668123"><ele>244.0</ele><time>2026-05-01T13:11:06.999Z</time></trkpt><trkpt lat="43.49198876014905" lon="11.671687484333155"><ele>243.0</ele><time>2026-05-01T13:11:07.999Z</time></trkpt><trkpt lat="43.49185327553101" lon="11.672072941371958"><ele>243.0</ele><time>2026-05-01T13:11:08.999Z</time></trkpt><trkpt lat="43.49172765577957" lon="11.672464189995502"><ele>243.0</ele><time>2026-05-01T13:11:09.999Z</time></trkpt><trkpt lat="43.49161211617596" lon="11.672861266945059"><ele>244.5</ele><time>2026-05-01T13:11:10.999Z</time></trkpt><trkpt lat="43.491506105178885" lon="11.673263323965333"><ele>246.0</ele><time>2026-05-01T13:11:11.999Z</time></trkpt><trkpt lat="43.4914104429142" lon="11.673673645185364"><ele>246.0</ele><time>2026-05-01T13:11:12.999Z</time></trkpt><trkpt lat="43.49132163649695" lon="11.67409143975252"><ele>246.0</ele><time>2026-05-01T13:11:13.999Z</time></trkpt><trkpt lat="43.49123308674659" lon="11.674516476876201"><ele>245.0</ele><time>2026-05-01T13:11:14.999Z</time></trkpt><trkpt lat="43.49114594136092" lon="11.674937740768979"><ele>244.0</ele><time>2026-05-01T13:11:15.999Z</time></trkpt><trkpt lat="43.49106316676255" lon="11.675354904762022"><ele>240.5</ele><time>2026-05-01T13:11:16.999Z</time></trkpt><trkpt lat="43.49097755935282" lon="11.67576943941065"><ele>237.0</ele><time>2026-05-01T13:11:17.999Z</time></trkpt><trkpt lat="43.49088779851056" lon="11.676179236257454"><ele>233.5</ele><time>2026-05-01T13:11:18.999Z</time></trkpt><trkpt lat="43.49079942184363" lon="11.676590040947215"><ele>230.0</ele><time>2026-05-01T13:11:19.999Z</time></trkpt><trkpt lat="43.49071519323851" lon="11.677002063738893"><ele>230.0</ele><time>2026-05-01T13:11:20.999Z</time></trkpt><trkpt lat="43.490633692643115" lon="11.67740796433274"><ele>230.0</ele><time>2026-05-01T13:11:21.999Z</time></trkpt><trkpt lat="43.49054751402768" lon="11.677818343152389"><ele>232.5</ele><time>2026-05-01T13:11:22.999Z</time></trkpt><trkpt lat="43.49046003969398" lon="11.678237945667691"><ele>235.0</ele><time>2026-05-01T13:11:24Z</time></trkpt><trkpt lat="43.490373213651594" lon="11.678661158258986"><ele>235.0</ele><time>2026-05-01T13:11:25Z</time></trkpt><trkpt lat="43.4902843512779" lon="11.679094071400762"><ele>235.0</ele><time>2026-05-01T13:11:26Z</time></trkpt><trkpt lat="43.4901938717713" lon="11.67954313859644"><ele>237.5</ele><time>2026-05-01T13:11:27Z</time></trkpt><trkpt lat="43.49010143142336" lon="11.680004960195415"><ele>240.0</ele><time>2026-05-01T13:11:28Z</time></trkpt><trkpt lat="43.490007865878106" lon="11.680464029321996"><ele>242.5</ele><time>2026-05-01T13:11:29Z</time></trkpt><trkpt lat="43.489913619822495" lon="11.680917954671827"><ele>245.0</ele><time>2026-05-01T13:11:30Z</time></trkpt><trkpt lat="43.48981946339518" lon="11.681370991876964"><ele>249.0</ele><time>2026-05-01T13:11:31Z</time></trkpt><trkpt lat="43.48972699859737" lon="11.681824818946785"><ele>253.0</ele><time>2026-05-01T13:11:32Z</time></trkpt><trkpt lat="43.48963494694031" lon="11.682281483402486"><ele>251.0</ele><time>2026-05-01T13:11:33Z</time></trkpt><trkpt lat="43.48954319647813" lon="11.682730680728774"><ele>249.0</ele><time>2026-05-01T13:11:34Z</time></trkpt><trkpt lat="43.48945142200429" lon="11.683176805061011"><ele>248.5</ele><time>2026-05-01T13:11:35Z</time></trkpt><trkpt lat="43.489360086428604" lon="11.683616878740322"><ele>248.0</ele><time>2026-05-01T13:11:36Z</time></trkpt><trkpt lat="43.48927002148755" lon="11.68405228066153"><ele>247.0</ele><time>2026-05-01T13:11:37Z</time></trkpt><trkpt lat="43.48917903537973" lon="11.68448970281977"><ele>246.0</ele><time>2026-05-01T13:11:38Z</time></trkpt><trkpt lat="43.4890892545431" lon="11.684928602196294"><ele>246.5</ele><time>2026-05-01T13:11:39Z</time></trkpt><trkpt lat="43.489000014460785" lon="11.68536564719532"><ele>247.0</ele><time>2026-05-01T13:11:40Z</time></trkpt><trkpt lat="43.488909886487164" lon="11.685799958852778"><ele>248.0</ele><time>2026-05-01T13:11:41Z</time></trkpt><trkpt lat="43.48881823378505" lon="11.68623300061642"><ele>249.0</ele><time>2026-05-01T13:11:42Z</time></trkpt><trkpt lat="43.488728317262776" lon="11.686662890904188"><ele>249.5</ele><time>2026-05-01T13:11:43Z</time></trkpt><trkpt lat="43.48864178506915" lon="11.687092486751496"><ele>250.0</ele><time>2026-05-01T13:11:44Z</time></trkpt><trkpt lat="43.48855353743051" lon="11.687524583290523"><ele>250.5</ele><time>2026-05-01T13:11:45Z</time></trkpt><trkpt lat="43.488466546971495" lon="11.687957477013843"><ele>251.0</ele><time>2026-05-01T13:11:46Z</time></trkpt><trkpt lat="43.4883775512647" lon="11.688387455234306"><ele>250.5</ele><time>2026-05-01T13:11:47Z</time></trkpt><trkpt lat="43.488292456548194" lon="11.68880474809881"><ele>250.0</ele><time>2026-05-01T13:11:48Z</time></trkpt><trkpt lat="43.488206727119874" lon="11.689215823743567"><ele>248.5</ele><time>2026-05-01T13:11:49Z</time></trkpt><trkpt lat="43.48812267621945" lon="11.689620931109488"><ele>247.0</ele><time>2026-05-01T13:11:50Z</time></trkpt><trkpt lat="43.48803925194062" lon="11.69002634774923"><ele>247.0</ele><time>2026-05-01T13:11:51Z</time></trkpt><trkpt lat="43.487955853377734" lon="11.690430901436965"><ele>247.0</ele><time>2026-05-01T13:11:52Z</time></trkpt><trkpt lat="43.48787315193404" lon="11.69083301226896"><ele>248.5</ele><time>2026-05-01T13:11:53Z</time></trkpt><trkpt lat="43.48778841969401" lon="11.691237423853634"><ele>250.0</ele><time>2026-05-01T13:11:54Z</time></trkpt><trkpt lat="43.48770244837084" lon="11.691639001578936"><ele>250.5</ele><time>2026-05-01T13:11:54.999Z</time></trkpt><trkpt lat="43.4876162723377" lon="11.69204408448604"><ele>251.0</ele><time>2026-05-01T13:11:55.999Z</time></trkpt><trkpt lat="43.48753121552934" lon="11.69245579636013"><ele>250.5</ele><time>2026-05-01T13:11:56.999Z</time></trkpt><trkpt lat="43.487447064902646" lon="11.692874610982996"><ele>250.0</ele><time>2026-05-01T13:11:57.999Z</time></trkpt><trkpt lat="43.48736276367354" lon="11.69328938466186"><ele>249.5</ele><time>2026-05-01T13:11:58.999Z</time></trkpt><trkpt lat="43.487276619529375" lon="11.693704475453648"><ele>249.0</ele><time>2026-05-01T13:11:59.999Z</time></trkpt><trkpt lat="43.487191271536496" lon="11.694109656086548"><ele>248.0</ele><time>2026-05-01T13:12:00.999Z</time></trkpt><trkpt lat="43.48710793685239" lon="11.694508166988618"><ele>247.0</ele><time>2026-05-01T13:12:01.999Z</time></trkpt><trkpt lat="43.48702530677523" lon="11.694904738881377"><ele>245.5</ele><time>2026-05-01T13:12:02.999Z</time></trkpt><trkpt lat="43.486945072167" lon="11.69530631470104"><ele>244.0</ele><time>2026-05-01T13:12:03.999Z</time></trkpt><trkpt lat="43.48686063572198" lon="11.695714144114975"><ele>244.5</ele><time>2026-05-01T13:12:04.999Z</time></trkpt><trkpt lat="43.48677761998907" lon="11.696121194218733"><ele>245.0</ele><time>2026-05-01T13:12:05.999Z</time></trkpt><trkpt lat="43.48669422231781" lon="11.696525698449513"><ele>247.5</ele><time>2026-05-01T13:12:06.999Z</time></trkpt><trkpt lat="43.48660888470666" lon="11.69693306287991"><ele>250.0</ele><time>2026-05-01T13:12:07.999Z</time></trkpt><trkpt lat="43.48652463077157" lon="11.697342356111411"><ele>248.0</ele><time>2026-05-01T13:12:08.999Z</time></trkpt><trkpt lat="43.486440499773245" lon="11.697758049929002"><ele>246.0</ele><time>2026-05-01T13:12:09.999Z</time></trkpt><trkpt lat="43.486354749044615" lon="11.698182749516704"><ele>245.0</ele><time>2026-05-01T13:12:10.999Z</time></trkpt><trkpt lat="43.48626354328869" lon="11.698617070215393"><ele>244.0</ele><time>2026-05-01T13:12:11.999Z</time></trkpt><trkpt lat="43.486170389505595" lon="11.699050384881598"><ele>243.0</ele><time>2026-05-01T13:12:12.999Z</time></trkpt><trkpt lat="43.48607428870268" lon="11.699486257946074"><ele>242.0</ele><time>2026-05-01T13:12:13.999Z</time></trkpt><trkpt lat="43.48597721097456" lon="11.699922682740334"><ele>244.0</ele><time>2026-05-01T13:12:14.999Z</time></trkpt><trkpt lat="43.485878565533554" lon="11.700358549074014"><ele>246.0</ele><time>2026-05-01T13:12:15.999Z</time></trkpt><trkpt lat="43.48577836597871" lon="11.700794064055634"><ele>246.0</ele><time>2026-05-01T13:12:16.999Z</time></trkpt><trkpt lat="43.48568099507697" lon="11.70122790683341"><ele>246.0</ele><time>2026-05-01T13:12:17.999Z</time></trkpt><trkpt lat="43.48558462229077" lon="11.70165959928021"><ele>243.0</ele><time>2026-05-01T13:12:18.999Z</time></trkpt><trkpt lat="43.48548531522814" lon="11.70209165035114"><ele>240.0</ele><time>2026-05-01T13:12:19.999Z</time></trkpt><trkpt lat="43.485384461559796" lon="11.702524892138443"><ele>241.5</ele><time>2026-05-01T13:12:20.999Z</time></trkpt><trkpt lat="43.48528485092422" lon="11.702960474196317"><ele>243.0</ele><time>2026-05-01T13:12:21.999Z</time></trkpt><trkpt lat="43.485185275346154" lon="11.703397309696303"><ele>246.5</ele><time>2026-05-01T13:12:22.999Z</time></trkpt><trkpt lat="43.48508729956734" lon="11.703832131551268"><ele>250.0</ele><time>2026-05-01T13:12:23.999Z</time></trkpt><trkpt lat="43.48498986260245" lon="11.704267784953762"><ele>250.5</ele><time>2026-05-01T13:12:24.999Z</time></trkpt><trkpt lat="43.484893219731156" lon="11.704705817478228"><ele>251.0</ele><time>2026-05-01T13:12:25.999Z</time></trkpt><trkpt lat="43.484795570986066" lon="11.705142477383303"><ele>251.0</ele><time>2026-05-01T13:12:26.999Z</time></trkpt><trkpt lat="43.48469997721622" lon="11.705573605379621"><ele>251.0</ele><time>2026-05-01T13:12:27.999Z</time></trkpt><trkpt lat="43.48460202580595" lon="11.70600199280824"><ele>253.0</ele><time>2026-05-01T13:12:28.999Z</time></trkpt><trkpt lat="43.48450339445345" lon="11.706431186887043"><ele>255.0</ele><time>2026-05-01T13:12:29.999Z</time></trkpt><trkpt lat="43.48440470988098" lon="11.70685795897601"><ele>252.5</ele><time>2026-05-01T13:12:30.999Z</time></trkpt><trkpt lat="43.48430671711172" lon="11.707287482419167"><ele>250.0</ele><time>2026-05-01T13:12:31.999Z</time></trkpt><trkpt lat="43.48420950240179" lon="11.707717586449334"><ele>246.5</ele><time>2026-05-01T13:12:32.999Z</time></trkpt><trkpt lat="43.48411541235227" lon="11.708149470597485"><ele>243.0</ele><time>2026-05-01T13:12:33.999Z</time></trkpt><trkpt lat="43.48402260182993" lon="11.708581698721078"><ele>241.0</ele><time>2026-05-01T13:12:34.999Z</time></trkpt><trkpt lat="43.48393620578277" lon="11.709007337981587"><ele>239.0</ele><time>2026-05-01T13:12:35.999Z</time></trkpt><trkpt lat="43.48386546891533" lon="11.709423546516552"><ele>243.0</ele><time>2026-05-01T13:12:36.999Z</time></trkpt><trkpt lat="43.483809764121986" lon="11.709845543626164"><ele>247.0</ele><time>2026-05-01T13:12:37.999Z</time></trkpt><trkpt lat="43.48376295871687" lon="11.71026805498893"><ele>248.0</ele><time>2026-05-01T13:12:38.999Z</time></trkpt><trkpt lat="43.48372466433139" lon="11.710691726711906"><ele>249.0</ele><time>2026-05-01T13:12:39.999Z</time></trkpt><trkpt lat="43.48369649029905" lon="11.711111365142228"><ele>249.0</ele><time>2026-05-01T13:12:40.999Z</time></trkpt><trkpt lat="43.48367971355596" lon="11.711527171831863"><ele>249.0</ele><time>2026-05-01T13:12:41.999Z</time></trkpt><trkpt lat="43.4836743810673" lon="11.711938550374098"><ele>250.5</ele><time>2026-05-01T13:12:42.999Z</time></trkpt><trkpt lat="43.483682656555125" lon="11.712349413895378"><ele>252.0</ele><time>2026-05-01T13:12:43.999Z</time></trkpt><trkpt lat="43.48369822107226" lon="11.71276891805944"><ele>249.0</ele><time>2026-05-01T13:12:44.999Z</time></trkpt><trkpt lat="43.48371730454655" lon="11.713195184631184"><ele>246.0</ele><time>2026-05-01T13:12:45.999Z</time></trkpt><trkpt lat="43.48374327100556" lon="11.713619729618896"><ele>243.5</ele><time>2026-05-01T13:12:46.999Z</time></trkpt><trkpt lat="43.48377210711778" lon="11.71403566427951"><ele>241.0</ele><time>2026-05-01T13:12:47.999Z</time></trkpt><trkpt lat="43.483799799189086" lon="11.714449358451887"><ele>241.0</ele><time>2026-05-01T13:12:48.999Z</time></trkpt><trkpt lat="43.48382298482892" lon="11.714859153984332"><ele>241.0</ele><time>2026-05-01T13:12:49.999Z</time></trkpt><trkpt lat="43.48384897656607" lon="11.715265115582293"><ele>246.0</ele><time>2026-05-01T13:12:50.999Z</time></trkpt><trkpt lat="43.483882342264835" lon="11.715677614648055"><ele>251.0</ele><time>2026-05-01T13:12:51.999Z</time></trkpt><trkpt lat="43.48391528645369" lon="11.716118391863954"><ele>253.0</ele><time>2026-05-01T13:12:52.999Z</time></trkpt><trkpt lat="43.483943503061575" lon="11.716582077247109"><ele>255.0</ele><time>2026-05-01T13:12:53.999Z</time></trkpt><trkpt lat="43.483971906989524" lon="11.717050199495354"><ele>255.5</ele><time>2026-05-01T13:12:54.999Z</time></trkpt><trkpt lat="43.48400052910642" lon="11.7175224455354"><ele>256.0</ele><time>2026-05-01T13:12:55.999Z</time></trkpt><trkpt lat="43.484023906822216" lon="11.717988636321799"><ele>255.5</ele><time>2026-05-01T13:12:56.999Z</time></trkpt><trkpt lat="43.484028485667196" lon="11.718434363962556"><ele>255.0</ele><time>2026-05-01T13:12:57.999Z</time></trkpt><trkpt lat="43.48401195467867" lon="11.718869666994129"><ele>255.0</ele><time>2026-05-01T13:12:58.999Z</time></trkpt><trkpt lat="43.48397674030503" lon="11.719306285790534"><ele>255.0</ele><time>2026-05-01T13:12:59.999Z</time></trkpt><trkpt lat="43.483914790075644" lon="11.71973504007437"><ele>254.0</ele><time>2026-05-01T13:13:00.999Z</time></trkpt><trkpt lat="43.48383225818839" lon="11.720159559489728"><ele>253.0</ele><time>2026-05-01T13:13:01.999Z</time></trkpt><trkpt lat="43.48372025639165" lon="11.720604705501321"><ele>253.0</ele><time>2026-05-01T13:13:02.999Z</time></trkpt><trkpt lat="43.48358051759258" lon="11.72104242188022"><ele>253.0</ele><time>2026-05-01T13:13:03.999Z</time></trkpt><trkpt lat="43.48340217757078" lon="11.721484163196639"><ele>255.0</ele><time>2026-05-01T13:13:04.999Z</time></trkpt><trkpt lat="43.48320478868541" lon="11.721930705328514"><ele>257.0</ele><time>2026-05-01T13:13:05.999Z</time></trkpt><trkpt lat="43.48300662650508" lon="11.722394191465332"><ele>259.0</ele><time>2026-05-01T13:13:06.999Z</time></trkpt><trkpt lat="43.48282324612077" lon="11.722838224931781"><ele>261.0</ele><time>2026-05-01T13:13:07.999Z</time></trkpt><trkpt lat="43.482648013741716" lon="11.723267814421098"><ele>262.0</ele><time>2026-05-01T13:13:08.999Z</time></trkpt><trkpt lat="43.48247491963849" lon="11.723693188290682"><ele>263.0</ele><time>2026-05-01T13:13:09.999Z</time></trkpt><trkpt lat="43.4823052465262" lon="11.72411249496273"><ele>261.5</ele><time>2026-05-01T13:13:10.999Z</time></trkpt><trkpt lat="43.48214211763069" lon="11.724526526944732"><ele>260.0</ele><time>2026-05-01T13:13:11.999Z</time></trkpt><trkpt lat="43.481986293528344" lon="11.724936618750446"><ele>259.5</ele><time>2026-05-01T13:13:12.999Z</time></trkpt><trkpt lat="43.48183684941635" lon="11.725338471000766"><ele>259.0</ele><time>2026-05-01T13:13:13.999Z</time></trkpt><trkpt lat="43.481689457628526" lon="11.725733126297314"><ele>259.0</ele><time>2026-05-01T13:13:14.999Z</time></trkpt><trkpt lat="43.481543289269034" lon="11.726113276737422"><ele>259.0</ele><time>2026-05-01T13:13:15.999Z</time></trkpt><trkpt lat="43.48139962051288" lon="11.726483790318351"><ele>261.5</ele><time>2026-05-01T13:13:16.999Z</time></trkpt><trkpt lat="43.481258278818736" lon="11.726850780493185"><ele>264.0</ele><time>2026-05-01T13:13:17.999Z</time></trkpt><trkpt lat="43.481122735327155" lon="11.727212416186493"><ele>266.0</ele><time>2026-05-01T13:13:18.999Z</time></trkpt><trkpt lat="43.48098852238257" lon="11.72757753669467"><ele>268.0</ele><time>2026-05-01T13:13:19.999Z</time></trkpt><trkpt lat="43.480850215392145" lon="11.727947350792164"><ele>268.0</ele><time>2026-05-01T13:13:20.999Z</time></trkpt><trkpt lat="43.48070972536314" lon="11.728319932237323"><ele>268.0</ele><time>2026-05-01T13:13:21.999Z</time></trkpt><trkpt lat="43.48056785840537" lon="11.728694487719904"><ele>277.5</ele><time>2026-05-01T13:13:22.999Z</time></trkpt><trkpt lat="43.48042576323663" lon="11.729071531034414"><ele>287.0</ele><time>2026-05-01T13:13:23.999Z</time></trkpt><trkpt lat="43.48028213251277" lon="11.729446181847331"><ele>287.0</ele><time>2026-05-01T13:13:24.999Z</time></trkpt><trkpt lat="43.48014266806238" lon="11.72981286164515"><ele>287.0</ele><time>2026-05-01T13:13:25.999Z</time></trkpt><trkpt lat="43.480010973462996" lon="11.730167575362165"><ele>282.0</ele><time>2026-05-01T13:13:26.999Z</time></trkpt><trkpt lat="43.47987978314042" lon="11.730512018601445"><ele>277.0</ele><time>2026-05-01T13:13:27.999Z</time></trkpt><trkpt lat="43.47974704042884" lon="11.73085768209303"><ele>277.0</ele><time>2026-05-01T13:13:28.999Z</time></trkpt><trkpt lat="43.47961570790537" lon="11.731208989800908"><ele>277.0</ele><time>2026-05-01T13:13:30Z</time></trkpt><trkpt lat="43.4794814890143" lon="11.731561264260316"><ele>277.0</ele><time>2026-05-01T13:13:31Z</time></trkpt><trkpt lat="43.479345472894494" lon="11.73191511517403"><ele>277.0</ele><time>2026-05-01T13:13:32Z</time></trkpt><trkpt lat="43.479212113102314" lon="11.732261968764634"><ele>277.0</ele><time>2026-05-01T13:13:33Z</time></trkpt><trkpt lat="43.47907852526717" lon="11.732610573492185"><ele>277.0</ele><time>2026-05-01T13:13:34Z</time></trkpt><trkpt lat="43.47894401805184" lon="11.732963744501273"><ele>275.5</ele><time>2026-05-01T13:13:35Z</time></trkpt><trkpt lat="43.478807495084816" lon="11.733320190525486"><ele>274.0</ele><time>2026-05-01T13:13:36Z</time></trkpt><trkpt lat="43.478671621381956" lon="11.733677556919506"><ele>273.5</ele><time>2026-05-01T13:13:37Z</time></trkpt><trkpt lat="43.478531410724344" lon="11.734037328899502"><ele>273.0</ele><time>2026-05-01T13:13:38Z</time></trkpt><trkpt lat="43.47838669710629" lon="11.734395793333695"><ele>272.5</ele><time>2026-05-01T13:13:39Z</time></trkpt><trkpt lat="43.47823468154816" lon="11.734750154439654"><ele>272.0</ele><time>2026-05-01T13:13:40Z</time></trkpt><trkpt lat="43.47807017851605" lon="11.735087538347997"><ele>276.0</ele><time>2026-05-01T13:13:41Z</time></trkpt><trkpt lat="43.47789874101117" lon="11.73541231080967"><ele>280.0</ele><time>2026-05-01T13:13:42Z</time></trkpt><trkpt lat="43.477718076412735" lon="11.735732170082624"><ele>280.0</ele><time>2026-05-01T13:13:43Z</time></trkpt><trkpt lat="43.477530794044014" lon="11.736046273584021"><ele>280.0</ele><time>2026-05-01T13:13:44Z</time></trkpt><trkpt lat="43.47733730015424" lon="11.736345449980284"><ele>280.0</ele><time>2026-05-01T13:13:45Z</time></trkpt><trkpt lat="43.477142099081675" lon="11.736631382806028"><ele>280.0</ele><time>2026-05-01T13:13:46Z</time></trkpt><trkpt lat="43.47694648768737" lon="11.73690523986004"><ele>281.0</ele><time>2026-05-01T13:13:47Z</time></trkpt><trkpt lat="43.476746522347334" lon="11.73716709839676"><ele>282.0</ele><time>2026-05-01T13:13:48Z</time></trkpt><trkpt lat="43.47653790887422" lon="11.737422706663661"><ele>282.0</ele><time>2026-05-01T13:13:49Z</time></trkpt><trkpt lat="43.47631973812208" lon="11.73767396039447"><ele>282.0</ele><time>2026-05-01T13:13:50Z</time></trkpt><trkpt lat="43.47609582430362" lon="11.737915830195861"><ele>283.5</ele><time>2026-05-01T13:13:51Z</time></trkpt><trkpt lat="43.47586461556473" lon="11.738150371099694"><ele>285.0</ele><time>2026-05-01T13:13:52Z</time></trkpt><trkpt lat="43.47561987674809" lon="11.73837868113352"><ele>283.0</ele><time>2026-05-01T13:13:53Z</time></trkpt><trkpt lat="43.47535752875981" lon="11.738604536791645"><ele>281.0</ele><time>2026-05-01T13:13:54Z</time></trkpt><trkpt lat="43.47508145839061" lon="11.73882297421376"><ele>281.0</ele><time>2026-05-01T13:13:55Z</time></trkpt><trkpt lat="43.474789217041305" lon="11.739034806095443"><ele>281.0</ele><time>2026-05-01T13:13:56Z</time></trkpt><trkpt lat="43.47448870661647" lon="11.73923560099166"><ele>279.0</ele><time>2026-05-01T13:13:57Z</time></trkpt><trkpt lat="43.474183985952585" lon="11.739431350730616"><ele>277.0</ele><time>2026-05-01T13:13:58Z</time></trkpt><trkpt lat="43.47387930119714" lon="11.739623486337479"><ele>282.0</ele><time>2026-05-01T13:13:59Z</time></trkpt><trkpt lat="43.47357821413571" lon="11.739811202678846"><ele>287.0</ele><time>2026-05-01T13:14:00Z</time></trkpt><trkpt lat="43.473281816992674" lon="11.739997100851163"><ele>287.0</ele><time>2026-05-01T13:14:01Z</time></trkpt><trkpt lat="43.472986698707764" lon="11.740185951774919"><ele>287.0</ele><time>2026-05-01T13:14:02Z</time></trkpt><trkpt lat="43.472692121170894" lon="11.740380929824338"><ele>285.5</ele><time>2026-05-01T13:14:03Z</time></trkpt><trkpt lat="43.472400130914764" lon="11.740582974033583"><ele>284.0</ele><time>2026-05-01T13:14:04Z</time></trkpt><trkpt lat="43.47210805714408" lon="11.740790160384842"><ele>282.5</ele><time>2026-05-01T13:14:04.999Z</time></trkpt><trkpt lat="43.47181881133161" lon="11.741013075090754"><ele>281.0</ele><time>2026-05-01T13:14:05.999Z</time></trkpt><trkpt lat="43.47152816772118" lon="11.741245437737005"><ele>281.5</ele><time>2026-05-01T13:14:06.999Z</time></trkpt><trkpt lat="43.471238625987006" lon="11.741485266036447"><ele>282.0</ele><time>2026-05-01T13:14:07.999Z</time></trkpt><trkpt lat="43.47095089935235" lon="11.741732035088862"><ele>281.5</ele><time>2026-05-01T13:14:08.999Z</time></trkpt><trkpt lat="43.47067071525446" lon="11.741983848005978"><ele>281.0</ele><time>2026-05-01T13:14:09.999Z</time></trkpt><trkpt lat="43.47039189232104" lon="11.742244684998038"><ele>282.5</ele><time>2026-05-01T13:14:10.999Z</time></trkpt><trkpt lat="43.4701181072941" lon="11.742510857795784"><ele>284.0</ele><time>2026-05-01T13:14:11.999Z</time></trkpt><trkpt lat="43.469847606588985" lon="11.742781431259445"><ele>288.0</ele><time>2026-05-01T13:14:12.999Z</time></trkpt><trkpt lat="43.46958261745804" lon="11.743058203313101"><ele>292.0</ele><time>2026-05-01T13:14:13.999Z</time></trkpt><trkpt lat="43.46932100128338" lon="11.74333817584163"><ele>287.5</ele><time>2026-05-01T13:14:14.999Z</time></trkpt><trkpt lat="43.46905909671157" lon="11.743616275362612"><ele>283.0</ele><time>2026-05-01T13:14:15.999Z</time></trkpt><trkpt lat="43.46879776300728" lon="11.743893488631452"><ele>282.5</ele><time>2026-05-01T13:14:16.999Z</time></trkpt><trkpt lat="43.46853755737413" lon="11.744172500049004"><ele>282.0</ele><time>2026-05-01T13:14:17.999Z</time></trkpt><trkpt lat="43.46827722877367" lon="11.744453001757405"><ele>282.0</ele><time>2026-05-01T13:14:18.999Z</time></trkpt><trkpt lat="43.46801380590687" lon="11.744736101337079"><ele>282.0</ele><time>2026-05-01T13:14:19.999Z</time></trkpt><trkpt lat="43.467750131369286" lon="11.745021053270719"><ele>283.0</ele><time>2026-05-01T13:14:20.999Z</time></trkpt><trkpt lat="43.467483219074644" lon="11.745307190029088"><ele>284.0</ele><time>2026-05-01T13:14:21.999Z</time></trkpt><trkpt lat="43.46721696378664" lon="11.745592156903745"><ele>286.5</ele><time>2026-05-01T13:14:22.999Z</time></trkpt><trkpt lat="43.466951138956745" lon="11.745879138396823"><ele>289.0</ele><time>2026-05-01T13:14:23.999Z</time></trkpt><trkpt lat="43.46668564275845" lon="11.746167597637813"><ele>289.0</ele><time>2026-05-01T13:14:24.999Z</time></trkpt><trkpt lat="43.46641890925651" lon="11.746452499143377"><ele>289.0</ele><time>2026-05-01T13:14:25.999Z</time></trkpt><trkpt lat="43.46615511802074" lon="11.746734167263371"><ele>288.0</ele><time>2026-05-01T13:14:26.999Z</time></trkpt><trkpt lat="43.46589279205712" lon="11.747014237199895"><ele>287.0</ele><time>2026-05-01T13:14:27.999Z</time></trkpt><trkpt lat="43.46563358010021" lon="11.747293882199807"><ele>290.0</ele><time>2026-05-01T13:14:28.999Z</time></trkpt><trkpt lat="43.46537195454474" lon="11.747570149484044"><ele>293.0</ele><time>2026-05-01T13:14:29.999Z</time></trkpt><trkpt lat="43.4651094534172" lon="11.747847545171783"><ele>293.0</ele><time>2026-05-01T13:14:30.999Z</time></trkpt><trkpt lat="43.46484728927968" lon="11.74812621349192"><ele>293.0</ele><time>2026-05-01T13:14:31.999Z</time></trkpt><trkpt lat="43.464584196359915" lon="11.748407317626876"><ele>294.5</ele><time>2026-05-01T13:14:32.999Z</time></trkpt><trkpt lat="43.46432016320882" lon="11.748690327330275"><ele>296.0</ele><time>2026-05-01T13:14:33.999Z</time></trkpt><trkpt lat="43.464058364909334" lon="11.748974176375839"><ele>296.0</ele><time>2026-05-01T13:14:34.999Z</time></trkpt><trkpt lat="43.463797070207754" lon="11.74925730277074"><ele>296.0</ele><time>2026-05-01T13:14:35.999Z</time></trkpt><trkpt lat="43.463530559136615" lon="11.749540041755193"><ele>299.0</ele><time>2026-05-01T13:14:36.999Z</time></trkpt><trkpt lat="43.46326416519953" lon="11.74982193807076"><ele>302.0</ele><time>2026-05-01T13:14:37.999Z</time></trkpt><trkpt lat="43.46299968505402" lon="11.750104630329608"><ele>309.0</ele><time>2026-05-01T13:14:38.999Z</time></trkpt><trkpt lat="43.462737989572624" lon="11.750387452246128"><ele>316.0</ele><time>2026-05-01T13:14:39.999Z</time></trkpt><trkpt lat="43.46247468922465" lon="11.75066569290373"><ele>316.0</ele><time>2026-05-01T13:14:40.999Z</time></trkpt><trkpt lat="43.4622132289665" lon="11.750943128377134"><ele>316.0</ele><time>2026-05-01T13:14:41.999Z</time></trkpt><trkpt lat="43.46194595399745" lon="11.751218229630997"><ele>320.0</ele><time>2026-05-01T13:14:42.999Z</time></trkpt><trkpt lat="43.461674026429" lon="11.751486716287078"><ele>324.0</ele><time>2026-05-01T13:14:43.999Z</time></trkpt><trkpt lat="43.4613943969706" lon="11.751737244390544"><ele>329.0</ele><time>2026-05-01T13:14:44.999Z</time></trkpt><trkpt lat="43.46110645434728" lon="11.751970111244956"><ele>334.0</ele><time>2026-05-01T13:14:45.999Z</time></trkpt><trkpt lat="43.46081385359632" lon="11.752189900848645"><ele>334.0</ele><time>2026-05-01T13:14:46.999Z</time></trkpt><trkpt lat="43.46051324001366" lon="11.752397021312722"><ele>334.0</ele><time>2026-05-01T13:14:47.999Z</time></trkpt><trkpt lat="43.460207052011725" lon="11.752587172315796"><ele>334.0</ele><time>2026-05-01T13:14:48.999Z</time></trkpt><trkpt lat="43.459895760449136" lon="11.752760734859"><ele>334.0</ele><time>2026-05-01T13:14:49.999Z</time></trkpt><trkpt lat="43.45957926076338" lon="11.752917572503986"><ele>329.5</ele><time>2026-05-01T13:14:50.999Z</time></trkpt><trkpt lat="43.45925731928082" lon="11.753055091637236"><ele>325.0</ele><time>2026-05-01T13:14:51.999Z</time></trkpt><trkpt lat="43.458934347511835" lon="11.753171111514826"><ele>326.5</ele><time>2026-05-01T13:14:52.999Z</time></trkpt><trkpt lat="43.45860912434431" lon="11.753273063986132"><ele>328.0</ele><time>2026-05-01T13:14:53.999Z</time></trkpt><trkpt lat="43.458284877661335" lon="11.753366992071593"><ele>328.0</ele><time>2026-05-01T13:14:54.999Z</time></trkpt><trkpt lat="43.45796110603911" lon="11.753461215675447"><ele>328.0</ele><time>2026-05-01T13:14:55.999Z</time></trkpt><trkpt lat="43.457638038314" lon="11.753556550840097"><ele>337.0</ele><time>2026-05-01T13:14:56.999Z</time></trkpt><trkpt lat="43.45731410467282" lon="11.753647790354865"><ele>346.0</ele><time>2026-05-01T13:14:57.999Z</time></trkpt><trkpt lat="43.45698911208124" lon="11.753739692595062"><ele>346.5</ele><time>2026-05-01T13:14:58.999Z</time></trkpt><trkpt lat="43.45666406615096" lon="11.753836138085925"><ele>347.0</ele><time>2026-05-01T13:14:59.999Z</time></trkpt><trkpt lat="43.456338195745815" lon="11.753933794310619"><ele>345.0</ele><time>2026-05-01T13:15:00.999Z</time></trkpt><trkpt lat="43.4560123363866" lon="11.754036115191782"><ele>343.0</ele><time>2026-05-01T13:15:01.999Z</time></trkpt><trkpt lat="43.45568738754154" lon="11.754138768150773"><ele>345.0</ele><time>2026-05-01T13:15:02.999Z</time></trkpt><trkpt lat="43.45535961071317" lon="11.754238730087785"><ele>347.0</ele><time>2026-05-01T13:15:03.999Z</time></trkpt><trkpt lat="43.45503175656349" lon="11.754328459807558"><ele>347.5</ele><time>2026-05-01T13:15:04.999Z</time></trkpt><trkpt lat="43.45470141969953" lon="11.754416946569004"><ele>348.0</ele><time>2026-05-01T13:15:05.999Z</time></trkpt><trkpt lat="43.45437703494193" lon="11.754513599474167"><ele>340.5</ele><time>2026-05-01T13:15:06.999Z</time></trkpt><trkpt lat="43.454055540346516" lon="11.754613009530777"><ele>333.0</ele><time>2026-05-01T13:15:07.999Z</time></trkpt><trkpt lat="43.453733244258814" lon="11.754709381797339"><ele>329.5</ele><time>2026-05-01T13:15:08.999Z</time></trkpt><trkpt lat="43.45341112787826" lon="11.754803635833362"><ele>326.0</ele><time>2026-05-01T13:15:09.999Z</time></trkpt><trkpt lat="43.453088362052156" lon="11.754896028998791"><ele>324.0</ele><time>2026-05-01T13:15:10.999Z</time></trkpt><trkpt lat="43.452761832391325" lon="11.75499006580458"><ele>322.0</ele><time>2026-05-01T13:15:11.999Z</time></trkpt><trkpt lat="43.45243493265075" lon="11.75508517437422"><ele>322.5</ele><time>2026-05-01T13:15:12.999Z</time></trkpt><trkpt lat="43.4521128750721" lon="11.755176665740601"><ele>323.0</ele><time>2026-05-01T13:15:13.999Z</time></trkpt><trkpt lat="43.451796004009324" lon="11.755267994084441"><ele>323.0</ele><time>2026-05-01T13:15:14.999Z</time></trkpt><trkpt lat="43.451485603170994" lon="11.755361662327996"><ele>323.0</ele><time>2026-05-01T13:15:15.999Z</time></trkpt><trkpt lat="43.45119092294922" lon="11.755458672927936"><ele>319.5</ele><time>2026-05-01T13:15:16.999Z</time></trkpt><trkpt lat="43.45090400194667" lon="11.755568131573181"><ele>316.0</ele><time>2026-05-01T13:15:17.999Z</time></trkpt><trkpt lat="43.450621782621646" lon="11.75570383339249"><ele>319.0</ele><time>2026-05-01T13:15:18.999Z</time></trkpt><trkpt lat="43.45035060293804" lon="11.755880604495212"><ele>322.0</ele><time>2026-05-01T13:15:19.999Z</time></trkpt><trkpt lat="43.45009245429616" lon="11.756082071949399"><ele>322.0</ele><time>2026-05-01T13:15:20.999Z</time></trkpt><trkpt lat="43.44984473810184" lon="11.756307702709522"><ele>322.0</ele><time>2026-05-01T13:15:21.999Z</time></trkpt><trkpt lat="43.44961700521993" lon="11.75657160359387"><ele>316.5</ele><time>2026-05-01T13:15:22.999Z</time></trkpt><trkpt lat="43.44940255389072" lon="11.756860349469758"><ele>311.0</ele><time>2026-05-01T13:15:23.999Z</time></trkpt><trkpt lat="43.44920528549849" lon="11.75717383484318"><ele>311.0</ele><time>2026-05-01T13:15:24.999Z</time></trkpt><trkpt lat="43.44902913580156" lon="11.75751636000552"><ele>311.0</ele><time>2026-05-01T13:15:25.999Z</time></trkpt><trkpt lat="43.44887285865068" lon="11.757877752435933"><ele>303.0</ele><time>2026-05-01T13:15:26.999Z</time></trkpt><trkpt lat="43.448735645126106" lon="11.758259665953888"><ele>295.0</ele><time>2026-05-01T13:15:27.999Z</time></trkpt><trkpt lat="43.44862169477472" lon="11.758647731683876"><ele>295.0</ele><time>2026-05-01T13:15:28.999Z</time></trkpt><trkpt lat="43.44853413012064" lon="11.759040971315777"><ele>295.0</ele><time>2026-05-01T13:15:29.999Z</time></trkpt><trkpt lat="43.448465970070224" lon="11.75943431524953"><ele>295.0</ele><time>2026-05-01T13:15:30.999Z</time></trkpt><trkpt lat="43.44840237044436" lon="11.759842445495007"><ele>295.0</ele><time>2026-05-01T13:15:31.999Z</time></trkpt><trkpt lat="43.44832954996019" lon="11.76025418542276"><ele>293.5</ele><time>2026-05-01T13:15:32.999Z</time></trkpt><trkpt lat="43.448247154389094" lon="11.760677619755807"><ele>292.0</ele><time>2026-05-01T13:15:33.999Z</time></trkpt><trkpt lat="43.44816565572745" lon="11.761102715461845"><ele>292.0</ele><time>2026-05-01T13:15:34.999Z</time></trkpt><trkpt lat="43.44808747618948" lon="11.76153165553639"><ele>292.0</ele><time>2026-05-01T13:15:36Z</time></trkpt><trkpt lat="43.44800899874957" lon="11.76196275437737"><ele>290.0</ele><time>2026-05-01T13:15:37Z</time></trkpt><trkpt lat="43.447926584221044" lon="11.76239366834741"><ele>288.0</ele><time>2026-05-01T13:15:38Z</time></trkpt><trkpt lat="43.447842693576504" lon="11.762825778271838"><ele>285.5</ele><time>2026-05-01T13:15:39Z</time></trkpt><trkpt lat="43.44775706174618" lon="11.763259514015663"><ele>283.0</ele><time>2026-05-01T13:15:40Z</time></trkpt><trkpt lat="43.44766126516636" lon="11.763691442701807"><ele>283.0</ele><time>2026-05-01T13:15:41Z</time></trkpt><trkpt lat="43.44755114676697" lon="11.764118391477231"><ele>283.0</ele><time>2026-05-01T13:15:42Z</time></trkpt><trkpt lat="43.44742763893646" lon="11.764537372733193"><ele>283.0</ele><time>2026-05-01T13:15:43Z</time></trkpt><trkpt lat="43.447291665273454" lon="11.76495212971329"><ele>283.0</ele><time>2026-05-01T13:15:44Z</time></trkpt><trkpt lat="43.44714382722243" lon="11.765366112483079"><ele>281.5</ele><time>2026-05-01T13:15:45Z</time></trkpt><trkpt lat="43.446987080436266" lon="11.765777485371498"><ele>280.0</ele><time>2026-05-01T13:15:46Z</time></trkpt><trkpt lat="43.44682157568833" lon="11.76618156423896"><ele>280.0</ele><time>2026-05-01T13:15:47Z</time></trkpt><trkpt lat="43.44664219703947" lon="11.76657403731355"><ele>280.0</ele><time>2026-05-01T13:15:48Z</time></trkpt><trkpt lat="43.44645102564276" lon="11.766957587599043"><ele>276.5</ele><time>2026-05-01T13:15:49Z</time></trkpt><trkpt lat="43.446248976978154" lon="11.76733071130962"><ele>273.0</ele><time>2026-05-01T13:15:50Z</time></trkpt><trkpt lat="43.446037179777726" lon="11.767688826163743"><ele>274.5</ele><time>2026-05-01T13:15:51Z</time></trkpt><trkpt lat="43.44581597387594" lon="11.768035636589698"><ele>276.0</ele><time>2026-05-01T13:15:52Z</time></trkpt><trkpt lat="43.445586132951156" lon="11.768373946404507"><ele>274.0</ele><time>2026-05-01T13:15:53Z</time></trkpt><trkpt lat="43.44535347071762" lon="11.768703401943924"><ele>272.0</ele><time>2026-05-01T13:15:54Z</time></trkpt><trkpt lat="43.44511742838243" lon="11.769029541113646"><ele>272.0</ele><time>2026-05-01T13:15:55Z</time></trkpt><trkpt lat="43.44488188960023" lon="11.769356958650762"><ele>272.0</ele><time>2026-05-01T13:15:56Z</time></trkpt><trkpt lat="43.44464621200329" lon="11.769684970437854"><ele>272.0</ele><time>2026-05-01T13:15:57Z</time></trkpt><trkpt lat="43.44441179850945" lon="11.770013541035881"><ele>272.0</ele><time>2026-05-01T13:15:58Z</time></trkpt><trkpt lat="43.44417710201501" lon="11.770344185193204"><ele>272.0</ele><time>2026-05-01T13:15:59Z</time></trkpt><trkpt lat="43.44394304407225" lon="11.770674107182042"><ele>272.0</ele><time>2026-05-01T13:16:00Z</time></trkpt><trkpt lat="43.44370968651864" lon="11.771002400531097"><ele>271.0</ele><time>2026-05-01T13:16:01Z</time></trkpt><trkpt lat="43.44347720599457" lon="11.771329028311596"><ele>270.0</ele><time>2026-05-01T13:16:02Z</time></trkpt><trkpt lat="43.44324783916017" lon="11.771655242287773"><ele>270.0</ele><time>2026-05-01T13:16:03Z</time></trkpt><trkpt lat="43.44300957051385" lon="11.771980465531975"><ele>270.0</ele><time>2026-05-01T13:16:04Z</time></trkpt><trkpt lat="43.44276241649935" lon="11.772288215499437"><ele>270.0</ele><time>2026-05-01T13:16:05Z</time></trkpt><trkpt lat="43.44250488242379" lon="11.772574199099086"><ele>270.0</ele><time>2026-05-01T13:16:06Z</time></trkpt><trkpt lat="43.442238787064234" lon="11.77284504736594"><ele>269.0</ele><time>2026-05-01T13:16:07Z</time></trkpt><trkpt lat="43.441965233333676" lon="11.773106000068598"><ele>268.0</ele><time>2026-05-01T13:16:08Z</time></trkpt><trkpt lat="43.441687029053746" lon="11.77335907072962"><ele>268.0</ele><time>2026-05-01T13:16:08.999Z</time></trkpt><trkpt lat="43.441402197699944" lon="11.773601610425425"><ele>268.0</ele><time>2026-05-01T13:16:09.999Z</time></trkpt><trkpt lat="43.44111160472213" lon="11.773828487004746"><ele>268.5</ele><time>2026-05-01T13:16:10.999Z</time></trkpt><trkpt lat="43.44081448250855" lon="11.774038049927"><ele>269.0</ele><time>2026-05-01T13:16:11.999Z</time></trkpt><trkpt lat="43.44051404491796" lon="11.774230377673105"><ele>268.0</ele><time>2026-05-01T13:16:12.999Z</time></trkpt><trkpt lat="43.4402095629764" lon="11.774403967288862"><ele>267.0</ele><time>2026-05-01T13:16:13.999Z</time></trkpt><trkpt lat="43.43990010562248" lon="11.774565128439708"><ele>267.5</ele><time>2026-05-01T13:16:14.999Z</time></trkpt><trkpt lat="43.43958540776396" lon="11.774712236242246"><ele>268.0</ele><time>2026-05-01T13:16:15.999Z</time></trkpt><trkpt lat="43.439270083023786" lon="11.77485099345421"><ele>268.0</ele><time>2026-05-01T13:16:16.999Z</time></trkpt><trkpt lat="43.43895117859192" lon="11.774977846891396"><ele>268.0</ele><time>2026-05-01T13:16:17.999Z</time></trkpt><trkpt lat="43.43863191861544" lon="11.775106723245125"><ele>266.0</ele><time>2026-05-01T13:16:18.999Z</time></trkpt><trkpt lat="43.438313538445385" lon="11.775240462709915"><ele>264.0</ele><time>2026-05-01T13:16:19.999Z</time></trkpt><trkpt lat="43.43799599896316" lon="11.77536755236334"><ele>264.5</ele><time>2026-05-01T13:16:20.999Z</time></trkpt><trkpt lat="43.437681805208584" lon="11.775496836602946"><ele>265.0</ele><time>2026-05-01T13:16:21.999Z</time></trkpt><trkpt lat="43.43737182476941" lon="11.77562492646526"><ele>265.5</ele><time>2026-05-01T13:16:22.999Z</time></trkpt><trkpt lat="43.43705980660336" lon="11.775753280020623"><ele>266.0</ele><time>2026-05-01T13:16:23.999Z</time></trkpt><trkpt lat="43.4367475762561" lon="11.775883149668445"><ele>266.0</ele><time>2026-05-01T13:16:24.999Z</time></trkpt><trkpt lat="43.43643459851427" lon="11.77601318368957"><ele>266.0</ele><time>2026-05-01T13:16:25.999Z</time></trkpt><trkpt lat="43.43611945622279" lon="11.776141308287844"><ele>265.0</ele><time>2026-05-01T13:16:26.999Z</time></trkpt><trkpt lat="43.43580168190272" lon="11.77627053058953"><ele>264.0</ele><time>2026-05-01T13:16:27.999Z</time></trkpt><trkpt lat="43.43548345840736" lon="11.776397500107462"><ele>263.5</ele><time>2026-05-01T13:16:28.999Z</time></trkpt><trkpt lat="43.435164136986764" lon="11.776523982051524"><ele>263.0</ele><time>2026-05-01T13:16:29.999Z</time></trkpt><trkpt lat="43.43484383504584" lon="11.776653627270356"><ele>263.0</ele><time>2026-05-01T13:16:30.999Z</time></trkpt><trkpt lat="43.43452289957323" lon="11.776784592204182"><ele>263.0</ele><time>2026-05-01T13:16:31.999Z</time></trkpt><trkpt lat="43.43420068240939" lon="11.776915450381154"><ele>263.0</ele><time>2026-05-01T13:16:32.999Z</time></trkpt><trkpt lat="43.4338763947409" lon="11.777045396797945"><ele>263.0</ele><time>2026-05-01T13:16:33.999Z</time></trkpt><trkpt lat="43.4335513355385" lon="11.777174166168313"><ele>263.0</ele><time>2026-05-01T13:16:34.999Z</time></trkpt><trkpt lat="43.433225209534825" lon="11.777303829741758"><ele>263.0</ele><time>2026-05-01T13:16:35.999Z</time></trkpt><trkpt lat="43.43289922201963" lon="11.77743556380756"><ele>263.0</ele><time>2026-05-01T13:16:36.999Z</time></trkpt><trkpt lat="43.432573676385935" lon="11.777569987877902"><ele>263.0</ele><time>2026-05-01T13:16:37.999Z</time></trkpt><trkpt lat="43.43224833811758" lon="11.777703942399949"><ele>262.0</ele><time>2026-05-01T13:16:38.999Z</time></trkpt><trkpt lat="43.43192386968358" lon="11.777836556596155"><ele>261.0</ele><time>2026-05-01T13:16:39.999Z</time></trkpt><trkpt lat="43.431599995413535" lon="11.777966114168475"><ele>260.5</ele><time>2026-05-01T13:16:40.999Z</time></trkpt><trkpt lat="43.43127597675454" lon="11.778089994081432"><ele>260.0</ele><time>2026-05-01T13:16:41.999Z</time></trkpt><trkpt lat="43.43095032913143" lon="11.778199363811629"><ele>260.0</ele><time>2026-05-01T13:16:42.999Z</time></trkpt><trkpt lat="43.4306227168821" lon="11.778291031319398"><ele>260.0</ele><time>2026-05-01T13:16:43.999Z</time></trkpt><trkpt lat="43.43029522221397" lon="11.778362077030442"><ele>259.5</ele><time>2026-05-01T13:16:44.999Z</time></trkpt><trkpt lat="43.42996702904889" lon="11.778415948345227"><ele>259.0</ele><time>2026-05-01T13:16:45.999Z</time></trkpt><trkpt lat="43.4296389662122" lon="11.778452932212948"><ele>260.0</ele><time>2026-05-01T13:16:46.999Z</time></trkpt><trkpt lat="43.429309704879174" lon="11.77847330534313"><ele>261.0</ele><time>2026-05-01T13:16:47.999Z</time></trkpt><trkpt lat="43.42898049033769" lon="11.778480937471045"><ele>260.5</ele><time>2026-05-01T13:16:48.999Z</time></trkpt><trkpt lat="43.428651348197455" lon="11.778474176776013"><ele>260.0</ele><time>2026-05-01T13:16:49.999Z</time></trkpt><trkpt lat="43.42832256515251" lon="11.77844968382474"><ele>260.0</ele><time>2026-05-01T13:16:50.999Z</time></trkpt><trkpt lat="43.42799554041853" lon="11.778403077582192"><ele>260.0</ele><time>2026-05-01T13:16:51.999Z</time></trkpt><trkpt lat="43.427667892436965" lon="11.778340752843452"><ele>260.5</ele><time>2026-05-01T13:16:52.999Z</time></trkpt><trkpt lat="43.427341805598026" lon="11.77826327327036"><ele>261.0</ele><time>2026-05-01T13:16:53.999Z</time></trkpt><trkpt lat="43.427017091292726" lon="11.7781723175077"><ele>261.0</ele><time>2026-05-01T13:16:54.999Z</time></trkpt><trkpt lat="43.42669500419415" lon="11.778064738322204"><ele>261.0</ele><time>2026-05-01T13:16:55.999Z</time></trkpt><trkpt lat="43.42637820540086" lon="11.777937897658704"><ele>259.5</ele><time>2026-05-01T13:16:56.999Z</time></trkpt><trkpt lat="43.42606559552707" lon="11.777795993501003"><ele>258.0</ele><time>2026-05-01T13:16:57.999Z</time></trkpt><trkpt lat="43.425755167445764" lon="11.777638475634893"><ele>258.0</ele><time>2026-05-01T13:16:58.999Z</time></trkpt><trkpt lat="43.42544787794591" lon="11.777465846835597"><ele>258.0</ele><time>2026-05-01T13:16:59.999Z</time></trkpt><trkpt lat="43.425146274455116" lon="11.777277698882472"><ele>258.0</ele><time>2026-05-01T13:17:00.999Z</time></trkpt><trkpt lat="43.42484838513667" lon="11.777073883082164"><ele>258.0</ele><time>2026-05-01T13:17:01.999Z</time></trkpt><trkpt lat="43.424555140223795" lon="11.776857430328427"><ele>258.0</ele><time>2026-05-01T13:17:02.999Z</time></trkpt><trkpt lat="43.42426843533397" lon="11.776628067485698"><ele>258.0</ele><time>2026-05-01T13:17:03.999Z</time></trkpt><trkpt lat="43.423986318648126" lon="11.776387078795267"><ele>258.5</ele><time>2026-05-01T13:17:04.999Z</time></trkpt><trkpt lat="43.42370706218949" lon="11.776137143185913"><ele>259.0</ele><time>2026-05-01T13:17:05.999Z</time></trkpt><trkpt lat="43.42342728956774" lon="11.775885350290753"><ele>259.5</ele><time>2026-05-01T13:17:06.999Z</time></trkpt><trkpt lat="43.423145045904874" lon="11.775636996977884"><ele>260.0</ele><time>2026-05-01T13:17:07.999Z</time></trkpt><trkpt lat="43.42286200716319" lon="11.77539256775993"><ele>260.5</ele><time>2026-05-01T13:17:08.999Z</time></trkpt><trkpt lat="43.42257936676509" lon="11.775149086255537"><ele>261.0</ele><time>2026-05-01T13:17:09.999Z</time></trkpt><trkpt lat="43.42229747578359" lon="11.77490473544369"><ele>260.5</ele><time>2026-05-01T13:17:10.999Z</time></trkpt><trkpt lat="43.42201502682744" lon="11.774658686242692"><ele>260.0</ele><time>2026-05-01T13:17:11.999Z</time></trkpt><trkpt lat="43.4217324639645" lon="11.774413752980882"><ele>261.0</ele><time>2026-05-01T13:17:12.999Z</time></trkpt><trkpt lat="43.42145284942519" lon="11.77417078096243"><ele>262.0</ele><time>2026-05-01T13:17:13.999Z</time></trkpt><trkpt lat="43.42117070129836" lon="11.773927661800544"><ele>262.0</ele><time>2026-05-01T13:17:14.999Z</time></trkpt><trkpt lat="43.42088835126369" lon="11.77368636995223"><ele>262.0</ele><time>2026-05-01T13:17:15.999Z</time></trkpt><trkpt lat="43.42060523331701" lon="11.773445564245344"><ele>262.0</ele><time>2026-05-01T13:17:16.999Z</time></trkpt><trkpt lat="43.420322678269855" lon="11.77320640041821"><ele>262.0</ele><time>2026-05-01T13:17:17.999Z</time></trkpt><trkpt lat="43.42003956201274" lon="11.772964803919802"><ele>262.0</ele><time>2026-05-01T13:17:18.999Z</time></trkpt><trkpt lat="43.419757006318896" lon="11.772723288472962"><ele>262.0</ele><time>2026-05-01T13:17:19.999Z</time></trkpt><trkpt lat="43.419472632459396" lon="11.772480823253268"><ele>264.5</ele><time>2026-05-01T13:17:20.999Z</time></trkpt><trkpt lat="43.419186663684194" lon="11.772238757251458"><ele>267.0</ele><time>2026-05-01T13:17:21.999Z</time></trkpt><trkpt lat="43.41889874462733" lon="11.771995280417604"><ele>269.0</ele><time>2026-05-01T13:17:22.999Z</time></trkpt><trkpt lat="43.418610517283994" lon="11.771751332725048"><ele>271.0</ele><time>2026-05-01T13:17:23.999Z</time></trkpt><trkpt lat="43.418322972083416" lon="11.771507685773766"><ele>271.0</ele><time>2026-05-01T13:17:24.999Z</time></trkpt><trkpt lat="43.41803634792415" lon="11.771262291630011"><ele>271.0</ele><time>2026-05-01T13:17:25.999Z</time></trkpt><trkpt lat="43.417751788737064" lon="11.771018366697621"><ele>270.5</ele><time>2026-05-01T13:17:26.999Z</time></trkpt><trkpt lat="43.417467874090974" lon="11.77077453081131"><ele>270.0</ele><time>2026-05-01T13:17:27.999Z</time></trkpt><trkpt lat="43.417185144432125" lon="11.77053197697867"><ele>269.5</ele><time>2026-05-01T13:17:28.999Z</time></trkpt><trkpt lat="43.416902540634126" lon="11.770290641359326"><ele>269.0</ele><time>2026-05-01T13:17:29.999Z</time></trkpt><trkpt lat="43.41662333597888" lon="11.77005053634595"><ele>269.0</ele><time>2026-05-01T13:17:30.999Z</time></trkpt><trkpt lat="43.41634993048501" lon="11.769812410897945"><ele>269.0</ele><time>2026-05-01T13:17:31.999Z</time></trkpt><trkpt lat="43.4160781283563" lon="11.7695752366911"><ele>267.0</ele><time>2026-05-01T13:17:32.999Z</time></trkpt><trkpt lat="43.41580867877713" lon="11.76934231857529"><ele>265.0</ele><time>2026-05-01T13:17:33.999Z</time></trkpt><trkpt lat="43.415542048495524" lon="11.769113251819132"><ele>264.5</ele><time>2026-05-01T13:17:34.999Z</time></trkpt><trkpt lat="43.41528037328627" lon="11.768890057924828"><ele>264.0</ele><time>2026-05-01T13:17:35.999Z</time></trkpt><trkpt lat="43.415022446964485" lon="11.76866776597804"><ele>263.5</ele><time>2026-05-01T13:17:36.999Z</time></trkpt><trkpt lat="43.414768429942924" lon="11.768447182617594"><ele>263.0</ele><time>2026-05-01T13:17:37.999Z</time></trkpt><trkpt lat="43.41451334257507" lon="11.768226862646507"><ele>263.0</ele><time>2026-05-01T13:17:38.998Z</time></trkpt><trkpt lat="43.414259481346605" lon="11.768009564953084"><ele>263.0</ele><time>2026-05-01T13:17:39.998Z</time></trkpt><trkpt lat="43.414005595899376" lon="11.767796319208026"><ele>264.0</ele><time>2026-05-01T13:17:40.998Z</time></trkpt><trkpt lat="43.41374937058952" lon="11.767588902017089"><ele>265.0</ele><time>2026-05-01T13:17:42Z</time></trkpt><trkpt lat="43.413492035629424" lon="11.767387931091166"><ele>265.0</ele><time>2026-05-01T13:17:43Z</time></trkpt><trkpt lat="43.41323234063003" lon="11.76719064814662"><ele>265.0</ele><time>2026-05-01T13:17:44Z</time></trkpt><trkpt lat="43.4129702446856" lon="11.766996999320543"><ele>266.5</ele><time>2026-05-01T13:17:45Z</time></trkpt><trkpt lat="43.41270473831991" lon="11.76680311028549"><ele>268.0</ele><time>2026-05-01T13:17:46Z</time></trkpt><trkpt lat="43.41243502839871" lon="11.766611327867277"><ele>268.0</ele><time>2026-05-01T13:17:47Z</time></trkpt><trkpt lat="43.41216255384373" lon="11.766421156065745"><ele>268.0</ele><time>2026-05-01T13:17:48Z</time></trkpt><trkpt lat="43.411884562671325" lon="11.76623506816718"><ele>270.5</ele><time>2026-05-01T13:17:49Z</time></trkpt><trkpt lat="43.41160444492699" lon="11.766052138398072"><ele>273.0</ele><time>2026-05-01T13:17:50Z</time></trkpt><trkpt lat="43.41132335884399" lon="11.765873632515303"><ele>276.0</ele><time>2026-05-01T13:17:51Z</time></trkpt><trkpt lat="43.4110448905002" lon="11.765703338357755"><ele>279.0</ele><time>2026-05-01T13:17:52Z</time></trkpt><trkpt lat="43.41076772463532" lon="11.765537496156544"><ele>279.0</ele><time>2026-05-01T13:17:53Z</time></trkpt><trkpt lat="43.410492431035685" lon="11.765377579016732"><ele>279.0</ele><time>2026-05-01T13:17:54Z</time></trkpt><trkpt lat="43.41021647161055" lon="11.765222260341018"><ele>278.0</ele><time>2026-05-01T13:17:54.999Z</time></trkpt><trkpt lat="43.40994216493003" lon="11.765069734987264"><ele>277.0</ele><time>2026-05-01T13:17:55.999Z</time></trkpt><trkpt lat="43.409670818084834" lon="11.764922004045124"><ele>276.5</ele><time>2026-05-01T13:17:56.999Z</time></trkpt><trkpt lat="43.409401896650614" lon="11.764777632367323"><ele>276.0</ele><time>2026-05-01T13:17:57.999Z</time></trkpt><trkpt lat="43.409135599451844" lon="11.764634332030054"><ele>276.0</ele><time>2026-05-01T13:17:58.999Z</time></trkpt><trkpt lat="43.40887310860032" lon="11.76448906204063"><ele>276.0</ele><time>2026-05-01T13:17:59.999Z</time></trkpt><trkpt lat="43.40861383748005" lon="11.764344506912247"><ele>275.0</ele><time>2026-05-01T13:18:00.999Z</time></trkpt><trkpt lat="43.40835411660184" lon="11.764201532140364"><ele>274.0</ele><time>2026-05-01T13:18:01.999Z</time></trkpt><trkpt lat="43.40809180269311" lon="11.76405923203099"><ele>274.5</ele><time>2026-05-01T13:18:02.999Z</time></trkpt><trkpt lat="43.40782469102555" lon="11.763914441847405"><ele>275.0</ele><time>2026-05-01T13:18:03.999Z</time></trkpt><trkpt lat="43.40755318912607" lon="11.763767975351675"><ele>275.0</ele><time>2026-05-01T13:18:04.999Z</time></trkpt><trkpt lat="43.407273482178034" lon="11.763621435422605"><ele>275.0</ele><time>2026-05-01T13:18:05.999Z</time></trkpt><trkpt lat="43.40699006254855" lon="11.763471875782878"><ele>276.0</ele><time>2026-05-01T13:18:06.999Z</time></trkpt><trkpt lat="43.40670884472758" lon="11.763318979989776"><ele>277.0</ele><time>2026-05-01T13:18:07.999Z</time></trkpt><trkpt lat="43.40642822959107" lon="11.763165622426156"><ele>277.0</ele><time>2026-05-01T13:18:08.999Z</time></trkpt><trkpt lat="43.40614973301102" lon="11.763012458172177"><ele>277.0</ele><time>2026-05-01T13:18:09.999Z</time></trkpt><trkpt lat="43.40586900611545" lon="11.762857341971168"><ele>277.5</ele><time>2026-05-01T13:18:10.999Z</time></trkpt><trkpt lat="43.40557995193413" lon="11.762697075516911"><ele>278.0</ele><time>2026-05-01T13:18:11.999Z</time></trkpt><trkpt lat="43.40528330947353" lon="11.762534997194564"><ele>278.0</ele><time>2026-05-01T13:18:12.999Z</time></trkpt><trkpt lat="43.40497929214595" lon="11.762370400004734"><ele>278.0</ele><time>2026-05-01T13:18:13.999Z</time></trkpt><trkpt lat="43.40466972687" lon="11.762203390431115"><ele>276.5</ele><time>2026-05-01T13:18:14.999Z</time></trkpt><trkpt lat="43.40435598131394" lon="11.76203441866168"><ele>275.0</ele><time>2026-05-01T13:18:15.999Z</time></trkpt><trkpt lat="43.4040417002249" lon="11.761866082969883"><ele>276.5</ele><time>2026-05-01T13:18:17Z</time></trkpt><trkpt lat="43.40372884998265" lon="11.761696773417396"><ele>278.0</ele><time>2026-05-01T13:18:17.999Z</time></trkpt><trkpt lat="43.403413963103176" lon="11.761524109362643"><ele>278.0</ele><time>2026-05-01T13:18:18.999Z</time></trkpt><trkpt lat="43.40310058274759" lon="11.761352341980093"><ele>278.0</ele><time>2026-05-01T13:18:19.999Z</time></trkpt><trkpt lat="43.40278712368468" lon="11.761180745717992"><ele>279.5</ele><time>2026-05-01T13:18:20.999Z</time></trkpt><trkpt lat="43.40247248180307" lon="11.761007293725338"><ele>281.0</ele><time>2026-05-01T13:18:21.999Z</time></trkpt><trkpt lat="43.402156712538485" lon="11.760836104839063"><ele>283.0</ele><time>2026-05-01T13:18:22.999Z</time></trkpt><trkpt lat="43.40184088933392" lon="11.760664723111441"><ele>285.0</ele><time>2026-05-01T13:18:23.999Z</time></trkpt><trkpt lat="43.40152399440309" lon="11.760492682665669"><ele>285.0</ele><time>2026-05-01T13:18:24.999Z</time></trkpt><trkpt lat="43.40120565216593" lon="11.760322718334722"><ele>285.0</ele><time>2026-05-01T13:18:25.999Z</time></trkpt><trkpt lat="43.40088676246691" lon="11.760151655481385"><ele>283.5</ele><time>2026-05-01T13:18:26.999Z</time></trkpt><trkpt lat="43.40057012573342" lon="11.759981293898301"><ele>282.0</ele><time>2026-05-01T13:18:27.999Z</time></trkpt><trkpt lat="43.40025174835357" lon="11.759809538034922"><ele>279.0</ele><time>2026-05-01T13:18:28.999Z</time></trkpt><trkpt lat="43.39993799603048" lon="11.759638013454822"><ele>276.0</ele><time>2026-05-01T13:18:29.999Z</time></trkpt><trkpt lat="43.39962763890293" lon="11.759468722412057"><ele>274.5</ele><time>2026-05-01T13:18:30.999Z</time></trkpt><trkpt lat="43.39931721017632" lon="11.759300020449112"><ele>273.0</ele><time>2026-05-01T13:18:31.999Z</time></trkpt><trkpt lat="43.399008421083195" lon="11.759133286437145"><ele>273.5</ele><time>2026-05-01T13:18:32.999Z</time></trkpt><trkpt lat="43.39870186782774" lon="11.758966262226783"><ele>274.0</ele><time>2026-05-01T13:18:33.999Z</time></trkpt><trkpt lat="43.39839670506167" lon="11.75879856561816"><ele>274.0</ele><time>2026-05-01T13:18:34.999Z</time></trkpt><trkpt lat="43.39809240876235" lon="11.758630481423975"><ele>274.0</ele><time>2026-05-01T13:18:35.999Z</time></trkpt><trkpt lat="43.39778595512207" lon="11.758460834481468"><ele>276.5</ele><time>2026-05-01T13:18:36.999Z</time></trkpt><trkpt lat="43.39747875954807" lon="11.758293092237482"><ele>279.0</ele><time>2026-05-01T13:18:37.999Z</time></trkpt><trkpt lat="43.39717108516021" lon="11.758132921131201"><ele>280.5</ele><time>2026-05-01T13:18:38.999Z</time></trkpt><trkpt lat="43.396860216228085" lon="11.757978308644446"><ele>282.0</ele><time>2026-05-01T13:18:39.999Z</time></trkpt><trkpt lat="43.396548413169626" lon="11.757831146135906"><ele>281.0</ele><time>2026-05-01T13:18:40.999Z</time></trkpt><trkpt lat="43.39623279403084" lon="11.757693195247203"><ele>280.0</ele><time>2026-05-01T13:18:41.999Z</time></trkpt><trkpt lat="43.395914866015694" lon="11.757566709161496"><ele>280.0</ele><time>2026-05-01T13:18:42.999Z</time></trkpt><trkpt lat="43.395594369251164" lon="11.757447139156026"><ele>280.0</ele><time>2026-05-01T13:18:43.999Z</time></trkpt><trkpt lat="43.39527317363134" lon="11.757334225709132"><ele>281.0</ele><time>2026-05-01T13:18:44.999Z</time></trkpt><trkpt lat="43.394950737528745" lon="11.757226462204205"><ele>282.0</ele><time>2026-05-01T13:18:45.999Z</time></trkpt><trkpt lat="43.39462823664955" lon="11.757127648294393"><ele>283.0</ele><time>2026-05-01T13:18:46.999Z</time></trkpt><trkpt lat="43.39430290825254" lon="11.757035449314413"><ele>284.0</ele><time>2026-05-01T13:18:47.999Z</time></trkpt><trkpt lat="43.39397615383576" lon="11.756952027673153"><ele>284.0</ele><time>2026-05-01T13:18:48.999Z</time></trkpt><trkpt lat="43.39364846276317" lon="11.756876949844695"><ele>284.0</ele><time>2026-05-01T13:18:49.999Z</time></trkpt><trkpt lat="43.39331942821062" lon="11.756806861815068"><ele>284.0</ele><time>2026-05-01T13:18:50.999Z</time></trkpt><trkpt lat="43.39299254164224" lon="11.756743802520493"><ele>284.0</ele><time>2026-05-01T13:18:51.999Z</time></trkpt><trkpt lat="43.392665164293255" lon="11.75668578199575"><ele>284.0</ele><time>2026-05-01T13:18:52.999Z</time></trkpt><trkpt lat="43.392338046449396" lon="11.756646920072543"><ele>284.0</ele><time>2026-05-01T13:18:53.999Z</time></trkpt><trkpt lat="43.3920097619501" lon="11.756617432891352"><ele>284.5</ele><time>2026-05-01T13:18:54.999Z</time></trkpt><trkpt lat="43.39168072173306" lon="11.756595768482123"><ele>285.0</ele><time>2026-05-01T13:18:55.999Z</time></trkpt><trkpt lat="43.391349434191916" lon="11.756581772728094"><ele>285.0</ele><time>2026-05-01T13:18:56.999Z</time></trkpt><trkpt lat="43.39101851136206" lon="11.756570684283698"><ele>285.0</ele><time>2026-05-01T13:18:57.999Z</time></trkpt><trkpt lat="43.39068530172147" lon="11.756565758521512"><ele>284.5</ele><time>2026-05-01T13:18:58.999Z</time></trkpt><trkpt lat="43.390349802924156" lon="11.756570292092723"><ele>284.0</ele><time>2026-05-01T13:18:59.999Z</time></trkpt><trkpt lat="43.390012165674506" lon="11.75657603617812"><ele>284.5</ele><time>2026-05-01T13:19:00.999Z</time></trkpt><trkpt lat="43.38967197090127" lon="11.75658064164386"><ele>285.0</ele><time>2026-05-01T13:19:01.999Z</time></trkpt><trkpt lat="43.389332215976005" lon="11.756579188520979"><ele>285.0</ele><time>2026-05-01T13:19:02.999Z</time></trkpt><trkpt lat="43.38899019795372" lon="11.756571790475927"><ele>285.0</ele><time>2026-05-01T13:19:03.999Z</time></trkpt><trkpt lat="43.388650694275455" lon="11.756566085814322"><ele>285.0</ele><time>2026-05-01T13:19:04.999Z</time></trkpt><trkpt lat="43.38830726307719" lon="11.756562057775815"><ele>285.0</ele><time>2026-05-01T13:19:05.999Z</time></trkpt><trkpt lat="43.38796462499649" lon="11.756563628682528"><ele>285.5</ele><time>2026-05-01T13:19:06.999Z</time></trkpt><trkpt lat="43.38762409707373" lon="11.756568226288525"><ele>286.0</ele><time>2026-05-01T13:19:07.999Z</time></trkpt><trkpt lat="43.38728154838719" lon="11.7565717880436"><ele>286.0</ele><time>2026-05-01T13:19:08.999Z</time></trkpt><trkpt lat="43.3869406473904" lon="11.756574798287533"><ele>286.0</ele><time>2026-05-01T13:19:09.999Z</time></trkpt><trkpt lat="43.38660058881419" lon="11.756577486129977"><ele>286.0</ele><time>2026-05-01T13:19:10.999Z</time></trkpt><trkpt lat="43.386259448044115" lon="11.756579080740908"><ele>286.0</ele><time>2026-05-01T13:19:11.999Z</time></trkpt><trkpt lat="43.38592049117999" lon="11.756578793268265"><ele>286.0</ele><time>2026-05-01T13:19:12.999Z</time></trkpt><trkpt lat="43.38558484267524" lon="11.75657810564143"><ele>286.0</ele><time>2026-05-01T13:19:13.999Z</time></trkpt><trkpt lat="43.385249258622466" lon="11.75658114097767"><ele>284.5</ele><time>2026-05-01T13:19:14.999Z</time></trkpt><trkpt lat="43.38491729079451" lon="11.756583703747822"><ele>283.0</ele><time>2026-05-01T13:19:15.999Z</time></trkpt><trkpt lat="43.38458826649646" lon="11.756588193046102"><ele>281.5</ele><time>2026-05-01T13:19:16.999Z</time></trkpt><trkpt lat="43.384260872255" lon="11.756593149093414"><ele>280.0</ele><time>2026-05-01T13:19:17.999Z</time></trkpt><trkpt lat="43.38393660508194" lon="11.756595155903097"><ele>279.0</ele><time>2026-05-01T13:19:18.999Z</time></trkpt><trkpt lat="43.38361555835811" lon="11.756597967881198"><ele>278.0</ele><time>2026-05-01T13:19:19.999Z</time></trkpt><trkpt lat="43.383295018974856" lon="11.756599317724536"><ele>278.5</ele><time>2026-05-01T13:19:20.999Z</time></trkpt><trkpt lat="43.3829718679775" lon="11.756601105049805"><ele>279.0</ele><time>2026-05-01T13:19:21.999Z</time></trkpt><trkpt lat="43.382649247990166" lon="11.756604251730613"><ele>279.0</ele><time>2026-05-01T13:19:22.999Z</time></trkpt><trkpt lat="43.3823240118377" lon="11.756605321646685"><ele>279.0</ele><time>2026-05-01T13:19:23.999Z</time></trkpt><trkpt lat="43.38199892681714" lon="11.756605389047913"><ele>278.5</ele><time>2026-05-01T13:19:24.999Z</time></trkpt><trkpt lat="43.381672972835446" lon="11.756607046229037"><ele>278.0</ele><time>2026-05-01T13:19:25.999Z</time></trkpt><trkpt lat="43.381344571533766" lon="11.756610215945297"><ele>277.5</ele><time>2026-05-01T13:19:26.999Z</time></trkpt><trkpt lat="43.381013958567586" lon="11.756611932298503"><ele>277.0</ele><time>2026-05-01T13:19:27.999Z</time></trkpt><trkpt lat="43.38068287053999" lon="11.756611700143537"><ele>275.0</ele><time>2026-05-01T13:19:28.999Z</time></trkpt><trkpt lat="43.38035140398691" lon="11.756611158614826"><ele>273.0</ele><time>2026-05-01T13:19:29.999Z</time></trkpt><trkpt lat="43.38001833145365" lon="11.756611433167558"><ele>273.0</ele><time>2026-05-01T13:19:30.999Z</time></trkpt><trkpt lat="43.37968520936767" lon="11.756612685647069"><ele>273.0</ele><time>2026-05-01T13:19:31.999Z</time></trkpt><trkpt lat="43.3793513393279" lon="11.756615627754506"><ele>272.0</ele><time>2026-05-01T13:19:32.999Z</time></trkpt><trkpt lat="43.37901600001316" lon="11.75662262859433"><ele>271.0</ele><time>2026-05-01T13:19:33.999Z</time></trkpt><trkpt lat="43.37868089653485" lon="11.756620946789745"><ele>270.0</ele><time>2026-05-01T13:19:34.999Z</time></trkpt><trkpt lat="43.37834766635604" lon="11.756616572147783"><ele>269.0</ele><time>2026-05-01T13:19:35.999Z</time></trkpt><trkpt lat="43.3780124614996" lon="11.756616408460664"><ele>269.0</ele><time>2026-05-01T13:19:36.999Z</time></trkpt><trkpt lat="43.37767697559646" lon="11.756618508453268"><ele>269.0</ele><time>2026-05-01T13:19:37.999Z</time></trkpt><trkpt lat="43.37734084555507" lon="11.756621091545705"><ele>269.0</ele><time>2026-05-01T13:19:38.999Z</time></trkpt><trkpt lat="43.37700604651728" lon="11.756622168859282"><ele>269.0</ele><time>2026-05-01T13:19:39.999Z</time></trkpt><trkpt lat="43.37666998745084" lon="11.756621848187105"><ele>268.0</ele><time>2026-05-01T13:19:40.998Z</time></trkpt><trkpt lat="43.37633470540841" lon="11.756623568605761"><ele>267.0</ele><time>2026-05-01T13:19:41.998Z</time></trkpt><trkpt lat="43.37599927725839" lon="11.756625823226054"><ele>267.0</ele><time>2026-05-01T13:19:42.998Z</time></trkpt><trkpt lat="43.375664602742106" lon="11.756629074518083"><ele>267.0</ele><time>2026-05-01T13:19:43.998Z</time></trkpt><trkpt lat="43.37532962159312" lon="11.756631238655796"><ele>267.0</ele><time>2026-05-01T13:19:44.998Z</time></trkpt><trkpt lat="43.374995423785585" lon="11.756635407602237"><ele>267.0</ele><time>2026-05-01T13:19:45.998Z</time></trkpt><trkpt lat="43.3746639606556" lon="11.756644517880694"><ele>267.5</ele><time>2026-05-01T13:19:46.998Z</time></trkpt><trkpt lat="43.37433130013022" lon="11.756658966474498"><ele>268.0</ele><time>2026-05-01T13:19:48Z</time></trkpt><trkpt lat="43.373999907532784" lon="11.756681677054083"><ele>268.5</ele><time>2026-05-01T13:19:49Z</time></trkpt><trkpt lat="43.37367119062553" lon="11.756716503113259"><ele>269.0</ele><time>2026-05-01T13:19:50Z</time></trkpt><trkpt lat="43.37334533145931" lon="11.756763714364054"><ele>268.5</ele><time>2026-05-01T13:19:51Z</time></trkpt><trkpt lat="43.37302073466522" lon="11.756821764555555"><ele>268.0</ele><time>2026-05-01T13:19:52Z</time></trkpt><trkpt lat="43.372696878156866" lon="11.756889741297709"><ele>268.0</ele><time>2026-05-01T13:19:53Z</time></trkpt><trkpt lat="43.37237317610226" lon="11.756968000176933"><ele>268.0</ele><time>2026-05-01T13:19:54Z</time></trkpt><trkpt lat="43.37204900851108" lon="11.757057256895445"><ele>269.5</ele><time>2026-05-01T13:19:55Z</time></trkpt><trkpt lat="43.37172567092364" lon="11.757155667852409"><ele>271.0</ele><time>2026-05-01T13:19:56Z</time></trkpt><trkpt lat="43.37140317096856" lon="11.757264145068707"><ele>275.0</ele><time>2026-05-01T13:19:57Z</time></trkpt><trkpt lat="43.371082575044035" lon="11.757383720246285"><ele>279.0</ele><time>2026-05-01T13:19:58Z</time></trkpt><trkpt lat="43.370766135058105" lon="11.757514615305201"><ele>279.0</ele><time>2026-05-01T13:19:59Z</time></trkpt><trkpt lat="43.37045117342462" lon="11.757654281299347"><ele>279.0</ele><time>2026-05-01T13:20:00Z</time></trkpt><trkpt lat="43.37013876664208" lon="11.757803027346254"><ele>279.0</ele><time>2026-05-01T13:20:01Z</time></trkpt><trkpt lat="43.36982877916087" lon="11.757959642277283"><ele>279.0</ele><time>2026-05-01T13:20:02Z</time></trkpt><trkpt lat="43.36952182466723" lon="11.75812563277861"><ele>279.0</ele><time>2026-05-01T13:20:03Z</time></trkpt><trkpt lat="43.369215799484664" lon="11.758296613160155"><ele>279.0</ele><time>2026-05-01T13:20:04Z</time></trkpt><trkpt lat="43.368908470220525" lon="11.758463799764057"><ele>275.5</ele><time>2026-05-01T13:20:05Z</time></trkpt><trkpt lat="43.36859974022488" lon="11.758627646274629"><ele>272.0</ele><time>2026-05-01T13:20:06Z</time></trkpt><trkpt lat="43.36828954593054" lon="11.758791143700757"><ele>271.5</ele><time>2026-05-01T13:20:07Z</time></trkpt><trkpt lat="43.36797802284542" lon="11.758954866302442"><ele>271.0</ele><time>2026-05-01T13:20:08Z</time></trkpt><trkpt lat="43.367665904929154" lon="11.759118468188086"><ele>271.0</ele><time>2026-05-01T13:20:09.001Z</time></trkpt><trkpt lat="43.3673511625906" lon="11.759280487079703"><ele>271.0</ele><time>2026-05-01T13:20:10.001Z</time></trkpt><trkpt lat="43.36703857712024" lon="11.75944652660699"><ele>270.0</ele><time>2026-05-01T13:20:11.001Z</time></trkpt><trkpt lat="43.366720934104805" lon="11.759610268664614"><ele>269.0</ele><time>2026-05-01T13:20:12.001Z</time></trkpt><trkpt lat="43.36640289013917" lon="11.759772585165843"><ele>269.5</ele><time>2026-05-01T13:20:13.001Z</time></trkpt><trkpt lat="43.36608758604874" lon="11.759937167448465"><ele>270.0</ele><time>2026-05-01T13:20:14Z</time></trkpt><trkpt lat="43.36577107464031" lon="11.760100101277077"><ele>269.0</ele><time>2026-05-01T13:20:15Z</time></trkpt><trkpt lat="43.36545408820925" lon="11.760262880666"><ele>268.0</ele><time>2026-05-01T13:20:16Z</time></trkpt><trkpt lat="43.3651357509051" lon="11.76043008579275"><ele>268.0</ele><time>2026-05-01T13:20:17Z</time></trkpt><trkpt lat="43.36481917075301" lon="11.760596492925169"><ele>268.0</ele><time>2026-05-01T13:20:18Z</time></trkpt><trkpt lat="43.364502573337866" lon="11.760763347944737"><ele>269.5</ele><time>2026-05-01T13:20:19Z</time></trkpt><trkpt lat="43.36418731918115" lon="11.76092897310604"><ele>271.0</ele><time>2026-05-01T13:20:20Z</time></trkpt><trkpt lat="43.36387228761779" lon="11.761093606802811"><ele>270.5</ele><time>2026-05-01T13:20:21Z</time></trkpt><trkpt lat="43.363557902899274" lon="11.761255714272288"><ele>270.0</ele><time>2026-05-01T13:20:22Z</time></trkpt><trkpt lat="43.36324359091191" lon="11.761418277142006"><ele>271.5</ele><time>2026-05-01T13:20:23Z</time></trkpt><trkpt lat="43.36292883605262" lon="11.76158155079098"><ele>273.0</ele><time>2026-05-01T13:20:24Z</time></trkpt><trkpt lat="43.362613994634835" lon="11.761746099977534"><ele>271.5</ele><time>2026-05-01T13:20:25Z</time></trkpt><trkpt lat="43.362301115101126" lon="11.761909639672298"><ele>270.0</ele><time>2026-05-01T13:20:26Z</time></trkpt><trkpt lat="43.361987879196874" lon="11.7620707538715"><ele>270.0</ele><time>2026-05-01T13:20:27Z</time></trkpt><trkpt lat="43.361675562430584" lon="11.762231159901079"><ele>270.0</ele><time>2026-05-01T13:20:28Z</time></trkpt><trkpt lat="43.36136354942768" lon="11.76239431585393"><ele>271.5</ele><time>2026-05-01T13:20:29Z</time></trkpt><trkpt lat="43.361052896443184" lon="11.762559298152594"><ele>273.0</ele><time>2026-05-01T13:20:30Z</time></trkpt><trkpt lat="43.36074243513804" lon="11.762723063721458"><ele>271.0</ele><time>2026-05-01T13:20:31Z</time></trkpt><trkpt lat="43.36043231995162" lon="11.762887438328915"><ele>269.0</ele><time>2026-05-01T13:20:32Z</time></trkpt><trkpt lat="43.360121409136525" lon="11.763051019654306"><ele>269.0</ele><time>2026-05-01T13:20:33Z</time></trkpt><trkpt lat="43.35980998560491" lon="11.763213961181505"><ele>269.0</ele><time>2026-05-01T13:20:34Z</time></trkpt><trkpt lat="43.359500413400596" lon="11.763376868535241"><ele>268.0</ele><time>2026-05-01T13:20:35Z</time></trkpt><trkpt lat="43.35919124906342" lon="11.763537228572712"><ele>267.0</ele><time>2026-05-01T13:20:36Z</time></trkpt><trkpt lat="43.3588835100914" lon="11.76369473259622"><ele>268.0</ele><time>2026-05-01T13:20:37Z</time></trkpt><trkpt lat="43.35857325899108" lon="11.76384798173134"><ele>269.0</ele><time>2026-05-01T13:20:38Z</time></trkpt><trkpt lat="43.358259866366794" lon="11.763991552436975"><ele>268.0</ele><time>2026-05-01T13:20:39Z</time></trkpt><trkpt lat="43.35794281030697" lon="11.764117943753945"><ele>267.0</ele><time>2026-05-01T13:20:40Z</time></trkpt><trkpt lat="43.357621655774466" lon="11.764228905294313"><ele>267.0</ele><time>2026-05-01T13:20:41Z</time></trkpt><trkpt lat="43.35730230974033" lon="11.764324600911731"><ele>267.0</ele><time>2026-05-01T13:20:42Z</time></trkpt><trkpt lat="43.356979938168855" lon="11.764407178370211"><ele>264.5</ele><time>2026-05-01T13:20:43Z</time></trkpt><trkpt lat="43.35665164393373" lon="11.764477516996735"><ele>262.0</ele><time>2026-05-01T13:20:44Z</time></trkpt><trkpt lat="43.356324366841065" lon="11.76453273618654"><ele>261.0</ele><time>2026-05-01T13:20:45Z</time></trkpt><trkpt lat="43.35599687201062" lon="11.76457601698705"><ele>260.0</ele><time>2026-05-01T13:20:46Z</time></trkpt><trkpt lat="43.355669304030826" lon="11.764603855453279"><ele>260.0</ele><time>2026-05-01T13:20:47Z</time></trkpt><trkpt lat="43.35534273630361" lon="11.764614975952101"><ele>260.0</ele><time>2026-05-01T13:20:48Z</time></trkpt><trkpt lat="43.35501667537962" lon="11.764614121692482"><ele>260.5</ele><time>2026-05-01T13:20:49Z</time></trkpt><trkpt lat="43.354689899963226" lon="11.764602783550508"><ele>261.0</ele><time>2026-05-01T13:20:50Z</time></trkpt><trkpt lat="43.35436195577502" lon="11.764577186036435"><ele>261.0</ele><time>2026-05-01T13:20:51Z</time></trkpt><trkpt lat="43.354035213127275" lon="11.764540921342652"><ele>261.0</ele><time>2026-05-01T13:20:52Z</time></trkpt><trkpt lat="43.353708300756246" lon="11.764506754664708"><ele>260.5</ele><time>2026-05-01T13:20:53Z</time></trkpt><trkpt lat="43.35337997968445" lon="11.764478367906856"><ele>260.0</ele><time>2026-05-01T13:20:54Z</time></trkpt><trkpt lat="43.35305044411981" lon="11.764450388342288"><ele>260.5</ele><time>2026-05-01T13:20:55Z</time></trkpt><trkpt lat="43.35272186107428" lon="11.764422431815603"><ele>261.0</ele><time>2026-05-01T13:20:56Z</time></trkpt><trkpt lat="43.352393405729394" lon="11.76439334480341"><ele>263.5</ele><time>2026-05-01T13:20:57Z</time></trkpt><trkpt lat="43.352063918946634" lon="11.764362923581752"><ele>266.0</ele><time>2026-05-01T13:20:58Z</time></trkpt><trkpt lat="43.35173426686413" lon="11.764332076469376"><ele>266.0</ele><time>2026-05-01T13:20:59Z</time></trkpt><trkpt lat="43.35140232132792" lon="11.764297871909791"><ele>266.0</ele><time>2026-05-01T13:21:00Z</time></trkpt><trkpt lat="43.3510676349797" lon="11.76425245470568"><ele>265.0</ele><time>2026-05-01T13:21:01Z</time></trkpt><trkpt lat="43.35073729424784" lon="11.764206877205838"><ele>264.0</ele><time>2026-05-01T13:21:02Z</time></trkpt><trkpt lat="43.35041314435982" lon="11.764171896132005"><ele>263.5</ele><time>2026-05-01T13:21:03Z</time></trkpt><trkpt lat="43.35009354499371" lon="11.764145676723258"><ele>263.0</ele><time>2026-05-01T13:21:04Z</time></trkpt><trkpt lat="43.34977514517125" lon="11.764119538799738"><ele>263.0</ele><time>2026-05-01T13:21:05Z</time></trkpt><trkpt lat="43.34945886258664" lon="11.764091492566635"><ele>263.0</ele><time>2026-05-01T13:21:06Z</time></trkpt><trkpt lat="43.349143693758215" lon="11.764069294163697"><ele>262.0</ele><time>2026-05-01T13:21:07Z</time></trkpt><trkpt lat="43.348830707783186" lon="11.764049037290723"><ele>261.0</ele><time>2026-05-01T13:21:08Z</time></trkpt><trkpt lat="43.348518375958925" lon="11.764027375869661"><ele>261.0</ele><time>2026-05-01T13:21:09Z</time></trkpt><trkpt lat="43.34819731549343" lon="11.764004579175548"><ele>261.0</ele><time>2026-05-01T13:21:10Z</time></trkpt><trkpt lat="43.34786691703542" lon="11.763979421893898"><ele>260.5</ele><time>2026-05-01T13:21:11Z</time></trkpt><trkpt lat="43.34753451808398" lon="11.763950581192308"><ele>260.0</ele><time>2026-05-01T13:21:12Z</time></trkpt><trkpt lat="43.34720173577258" lon="11.763919345743243"><ele>260.0</ele><time>2026-05-01T13:21:13Z</time></trkpt><trkpt lat="43.34686747585526" lon="11.763889898071675"><ele>260.0</ele><time>2026-05-01T13:21:14Z</time></trkpt><trkpt lat="43.34653176631604" lon="11.763860609835671"><ele>260.5</ele><time>2026-05-01T13:21:15Z</time></trkpt><trkpt lat="43.346196261202934" lon="11.763828927170902"><ele>261.0</ele><time>2026-05-01T13:21:16Z</time></trkpt><trkpt lat="43.3458602179017" lon="11.763798173612871"><ele>260.0</ele><time>2026-05-01T13:21:17Z</time></trkpt><trkpt lat="43.34552250034422" lon="11.763768316703574"><ele>259.0</ele><time>2026-05-01T13:21:18Z</time></trkpt><trkpt lat="43.34518534339651" lon="11.763738865377022"><ele>259.0</ele><time>2026-05-01T13:21:19Z</time></trkpt><trkpt lat="43.34484788386371" lon="11.763706803724089"><ele>259.0</ele><time>2026-05-01T13:21:20Z</time></trkpt><trkpt lat="43.34451050990877" lon="11.763675320547579"><ele>259.5</ele><time>2026-05-01T13:21:21Z</time></trkpt><trkpt lat="43.344173884548724" lon="11.76364541458842"><ele>260.0</ele><time>2026-05-01T13:21:22Z</time></trkpt><trkpt lat="43.34383565495197" lon="11.763615452045329"><ele>260.0</ele><time>2026-05-01T13:21:23Z</time></trkpt><trkpt lat="43.34349652784131" lon="11.763585179563359"><ele>260.0</ele><time>2026-05-01T13:21:24Z</time></trkpt><trkpt lat="43.34315988153017" lon="11.763553626771161"><ele>260.0</ele><time>2026-05-01T13:21:25Z</time></trkpt><trkpt lat="43.34282308092158" lon="11.763521739792965"><ele>260.0</ele><time>2026-05-01T13:21:26Z</time></trkpt><trkpt lat="43.342487249281966" lon="11.763489339050135"><ele>261.0</ele><time>2026-05-01T13:21:27Z</time></trkpt><trkpt lat="43.34214897584216" lon="11.763457801635862"><ele>262.0</ele><time>2026-05-01T13:21:28Z</time></trkpt><trkpt lat="43.341810379699645" lon="11.763426056680798"><ele>262.0</ele><time>2026-05-01T13:21:29Z</time></trkpt><trkpt lat="43.341473520569465" lon="11.76339508033301"><ele>262.0</ele><time>2026-05-01T13:21:30Z</time></trkpt><trkpt lat="43.34114038112845" lon="11.763364568419126"><ele>262.0</ele><time>2026-05-01T13:21:31Z</time></trkpt><trkpt lat="43.34081096286742" lon="11.763335820978023"><ele>262.0</ele><time>2026-05-01T13:21:32Z</time></trkpt><trkpt lat="43.34048942729436" lon="11.763307786465813"><ele>262.0</ele><time>2026-05-01T13:21:33Z</time></trkpt><trkpt lat="43.34017184438227" lon="11.763283492769528"><ele>262.0</ele><time>2026-05-01T13:21:34Z</time></trkpt><trkpt lat="43.33986066715863" lon="11.763256872180818"><ele>263.0</ele><time>2026-05-01T13:21:35Z</time></trkpt><trkpt lat="43.339555759066975" lon="11.763229312345507"><ele>264.0</ele><time>2026-05-01T13:21:36Z</time></trkpt><trkpt lat="43.33925469830713" lon="11.763199779659224"><ele>264.0</ele><time>2026-05-01T13:21:37Z</time></trkpt><trkpt lat="43.338958527989114" lon="11.763171891279928"><ele>264.0</ele><time>2026-05-01T13:21:37.999Z</time></trkpt><trkpt lat="43.33866691743" lon="11.76314509923562"><ele>264.5</ele><time>2026-05-01T13:21:38.999Z</time></trkpt><trkpt lat="43.33837747120748" lon="11.763120690355715"><ele>265.0</ele><time>2026-05-01T13:21:39.999Z</time></trkpt><trkpt lat="43.33808825011966" lon="11.763096755774678"><ele>266.5</ele><time>2026-05-01T13:21:40.999Z</time></trkpt><trkpt lat="43.33779841211171" lon="11.763070125493435"><ele>268.0</ele><time>2026-05-01T13:21:41.999Z</time></trkpt><trkpt lat="43.33750979148311" lon="11.763042740832015"><ele>268.0</ele><time>2026-05-01T13:21:42.999Z</time></trkpt><trkpt lat="43.337223972515666" lon="11.763018534625385"><ele>268.0</ele><time>2026-05-01T13:21:43.999Z</time></trkpt><trkpt lat="43.33693582738049" lon="11.76299413768531"><ele>268.5</ele><time>2026-05-01T13:21:44.999Z</time></trkpt><trkpt lat="43.33664665636113" lon="11.762967200390575"><ele>269.0</ele><time>2026-05-01T13:21:45.999Z</time></trkpt><trkpt lat="43.3363542416715" lon="11.762942754418642"><ele>269.5</ele><time>2026-05-01T13:21:46.999Z</time></trkpt><trkpt lat="43.33605965493049" lon="11.762918566635962"><ele>270.0</ele><time>2026-05-01T13:21:47.999Z</time></trkpt><trkpt lat="43.335760651651675" lon="11.762893735445584"><ele>271.5</ele><time>2026-05-01T13:21:48.999Z</time></trkpt><trkpt lat="43.33545961064619" lon="11.762867729662908"><ele>273.0</ele><time>2026-05-01T13:21:49.999Z</time></trkpt><trkpt lat="43.33515437647222" lon="11.762837486737205"><ele>273.0</ele><time>2026-05-01T13:21:50.999Z</time></trkpt><trkpt lat="43.33484901316433" lon="11.762806416265576"><ele>273.0</ele><time>2026-05-01T13:21:51.999Z</time></trkpt><trkpt lat="43.33454133278722" lon="11.762776212902343"><ele>275.0</ele><time>2026-05-01T13:21:52.999Z</time></trkpt><trkpt lat="43.334232239323654" lon="11.762746785759074"><ele>277.0</ele><time>2026-05-01T13:21:54.001Z</time></trkpt><trkpt lat="43.33392001301054" lon="11.762717667862454"><ele>279.0</ele><time>2026-05-01T13:21:55.001Z</time></trkpt><trkpt lat="43.333608461657434" lon="11.762689324669637"><ele>281.0</ele><time>2026-05-01T13:21:56.001Z</time></trkpt><trkpt lat="43.33329409998653" lon="11.762659784622935"><ele>280.0</ele><time>2026-05-01T13:21:57.001Z</time></trkpt><trkpt lat="43.33297912596313" lon="11.762630119082006"><ele>279.0</ele><time>2026-05-01T13:21:58.001Z</time></trkpt><trkpt lat="43.33266453603793" lon="11.762600682448968"><ele>279.0</ele><time>2026-05-01T13:21:59.001Z</time></trkpt><trkpt lat="43.33234994877111" lon="11.762572612249652"><ele>279.0</ele><time>2026-05-01T13:22:00.001Z</time></trkpt><trkpt lat="43.33203642960072" lon="11.762544187289427"><ele>275.5</ele><time>2026-05-01T13:22:01.001Z</time></trkpt><trkpt lat="43.33172323795213" lon="11.762516592114068"><ele>272.0</ele><time>2026-05-01T13:22:02.001Z</time></trkpt><trkpt lat="43.33141265569546" lon="11.762487472267614"><ele>270.5</ele><time>2026-05-01T13:22:03.001Z</time></trkpt><trkpt lat="43.33110365204534" lon="11.762459252120497"><ele>269.0</ele><time>2026-05-01T13:22:04.001Z</time></trkpt><trkpt lat="43.33079678554922" lon="11.762429797520367"><ele>267.0</ele><time>2026-05-01T13:22:05.001Z</time></trkpt><trkpt lat="43.330492073176444" lon="11.762399526750139"><ele>265.0</ele><time>2026-05-01T13:22:06.001Z</time></trkpt><trkpt lat="43.33019017890264" lon="11.762370436755296"><ele>265.0</ele><time>2026-05-01T13:22:07.001Z</time></trkpt><trkpt lat="43.329891591397256" lon="11.762342701793433"><ele>265.0</ele><time>2026-05-01T13:22:08.001Z</time></trkpt><trkpt lat="43.32959602640701" lon="11.762311574337991"><ele>262.5</ele><time>2026-05-01T13:22:09.001Z</time></trkpt><trkpt lat="43.3293009239966" lon="11.762282488102253"><ele>260.0</ele><time>2026-05-01T13:22:10.001Z</time></trkpt><trkpt lat="43.329007991566336" lon="11.762255002410715"><ele>260.0</ele><time>2026-05-01T13:22:11.001Z</time></trkpt><trkpt lat="43.32871816232246" lon="11.762228061615147"><ele>260.0</ele><time>2026-05-01T13:22:12.001Z</time></trkpt><trkpt lat="43.32843008031317" lon="11.762201637144493"><ele>260.0</ele><time>2026-05-01T13:22:13.001Z</time></trkpt><trkpt lat="43.32813905060161" lon="11.762177797054544"><ele>260.0</ele><time>2026-05-01T13:22:14Z</time></trkpt><trkpt lat="43.32783776801771" lon="11.762151670395637"><ele>261.0</ele><time>2026-05-01T13:22:15Z</time></trkpt><trkpt lat="43.32752841668894" lon="11.762126161136491"><ele>262.0</ele><time>2026-05-01T13:22:16Z</time></trkpt><trkpt lat="43.32721051950151" lon="11.762095650378496"><ele>263.0</ele><time>2026-05-01T13:22:17Z</time></trkpt><trkpt lat="43.326883965107555" lon="11.762062997773974"><ele>264.0</ele><time>2026-05-01T13:22:18Z</time></trkpt><trkpt lat="43.326552445391684" lon="11.762031134752492"><ele>263.0</ele><time>2026-05-01T13:22:19Z</time></trkpt><trkpt lat="43.32622119307565" lon="11.762001412221853"><ele>262.0</ele><time>2026-05-01T13:22:20Z</time></trkpt><trkpt lat="43.32588741346337" lon="11.76197304376954"><ele>260.5</ele><time>2026-05-01T13:22:21Z</time></trkpt><trkpt lat="43.32555300494344" lon="11.76194769648811"><ele>259.0</ele><time>2026-05-01T13:22:22Z</time></trkpt><trkpt lat="43.325217329813675" lon="11.76192013339846"><ele>259.0</ele><time>2026-05-01T13:22:23Z</time></trkpt><trkpt lat="43.32488152009741" lon="11.761889220981647"><ele>259.0</ele><time>2026-05-01T13:22:24Z</time></trkpt><trkpt lat="43.32454982579461" lon="11.761856803986314"><ele>259.5</ele><time>2026-05-01T13:22:25Z</time></trkpt><trkpt lat="43.324212572892584" lon="11.761827634183675"><ele>260.0</ele><time>2026-05-01T13:22:26Z</time></trkpt><trkpt lat="43.3238732778653" lon="11.76179984721614"><ele>259.0</ele><time>2026-05-01T13:22:27Z</time></trkpt><trkpt lat="43.32353556901246" lon="11.761770246229675"><ele>258.0</ele><time>2026-05-01T13:22:28Z</time></trkpt><trkpt lat="43.32319856417064" lon="11.761737267195825"><ele>258.5</ele><time>2026-05-01T13:22:29Z</time></trkpt><trkpt lat="43.32286213780249" lon="11.761705348057864"><ele>259.0</ele><time>2026-05-01T13:22:30Z</time></trkpt><trkpt lat="43.322526799942516" lon="11.761672767818764"><ele>260.0</ele><time>2026-05-01T13:22:31Z</time></trkpt><trkpt lat="43.322194240077444" lon="11.761639389562529"><ele>261.0</ele><time>2026-05-01T13:22:32Z</time></trkpt><trkpt lat="43.32186064401808" lon="11.761605615333522"><ele>261.0</ele><time>2026-05-01T13:22:33Z</time></trkpt><trkpt lat="43.321524156592154" lon="11.76157240128983"><ele>261.0</ele><time>2026-05-01T13:22:34Z</time></trkpt><trkpt lat="43.32118614432572" lon="11.761541363782845"><ele>260.5</ele><time>2026-05-01T13:22:35Z</time></trkpt><trkpt lat="43.320851227319594" lon="11.761511929390592"><ele>260.0</ele><time>2026-05-01T13:22:36Z</time></trkpt><trkpt lat="43.32051437410521" lon="11.76148099750354"><ele>260.0</ele><time>2026-05-01T13:22:37Z</time></trkpt><trkpt lat="43.32017549650688" lon="11.761448782486754"><ele>260.0</ele><time>2026-05-01T13:22:38Z</time></trkpt><trkpt lat="43.31983547712059" lon="11.761418240023792"><ele>259.5</ele><time>2026-05-01T13:22:39Z</time></trkpt><trkpt lat="43.3194937470179" lon="11.761388656624598"><ele>259.0</ele><time>2026-05-01T13:22:40Z</time></trkpt><trkpt lat="43.31915225857995" lon="11.761359750528577"><ele>258.5</ele><time>2026-05-01T13:22:41Z</time></trkpt><trkpt lat="43.318811863459935" lon="11.7613346124124"><ele>258.0</ele><time>2026-05-01T13:22:42Z</time></trkpt><trkpt lat="43.31847094647678" lon="11.761313786753652"><ele>258.0</ele><time>2026-05-01T13:22:43Z</time></trkpt><trkpt lat="43.318130354201756" lon="11.761300158499594"><ele>258.0</ele><time>2026-05-01T13:22:44Z</time></trkpt><trkpt lat="43.31778927206229" lon="11.761290275879835"><ele>258.0</ele><time>2026-05-01T13:22:45Z</time></trkpt><trkpt lat="43.31744781571321" lon="11.761281349827263"><ele>258.0</ele><time>2026-05-01T13:22:46Z</time></trkpt><trkpt lat="43.317108286126526" lon="11.761273640155489"><ele>258.0</ele><time>2026-05-01T13:22:47Z</time></trkpt><trkpt lat="43.3167711343947" lon="11.761269178755981"><ele>258.0</ele><time>2026-05-01T13:22:48Z</time></trkpt><trkpt lat="43.31643705039008" lon="11.76126894510421"><ele>258.0</ele><time>2026-05-01T13:22:49Z</time></trkpt><trkpt lat="43.31610538929881" lon="11.761271989617915"><ele>258.0</ele><time>2026-05-01T13:22:50Z</time></trkpt><trkpt lat="43.315775663672035" lon="11.761279504917523"><ele>258.0</ele><time>2026-05-01T13:22:51Z</time></trkpt><trkpt lat="43.31544882844299" lon="11.76129051729608"><ele>258.0</ele><time>2026-05-01T13:22:52Z</time></trkpt><trkpt lat="43.31512103125125" lon="11.76130200207439"><ele>258.0</ele><time>2026-05-01T13:22:53Z</time></trkpt><trkpt lat="43.314791395702855" lon="11.761317753609417"><ele>258.0</ele><time>2026-05-01T13:22:54Z</time></trkpt><trkpt lat="43.314459571292545" lon="11.761341501799913"><ele>258.0</ele><time>2026-05-01T13:22:55Z</time></trkpt><trkpt lat="43.31412675412892" lon="11.761372348019117"><ele>258.0</ele><time>2026-05-01T13:22:56Z</time></trkpt><trkpt lat="43.313791656857305" lon="11.761406761032914"><ele>257.5</ele><time>2026-05-01T13:22:57Z</time></trkpt><trkpt lat="43.313456677640296" lon="11.761441568311092"><ele>257.0</ele><time>2026-05-01T13:22:58Z</time></trkpt><trkpt lat="43.31311837141928" lon="11.761476632890185"><ele>257.0</ele><time>2026-05-01T13:22:59Z</time></trkpt><trkpt lat="43.312779665898866" lon="11.761510365661358"><ele>257.0</ele><time>2026-05-01T13:23:00Z</time></trkpt><trkpt lat="43.312439709748155" lon="11.761545072571069"><ele>258.0</ele><time>2026-05-01T13:23:01Z</time></trkpt><trkpt lat="43.3120998356231" lon="11.76157864197827"><ele>259.0</ele><time>2026-05-01T13:23:02Z</time></trkpt><trkpt lat="43.31175894955872" lon="11.761611817246909"><ele>259.0</ele><time>2026-05-01T13:23:03Z</time></trkpt><trkpt lat="43.311420455242136" lon="11.761644597040352"><ele>259.0</ele><time>2026-05-01T13:23:04Z</time></trkpt><trkpt lat="43.31108215505018" lon="11.761677676888562"><ele>258.5</ele><time>2026-05-01T13:23:05Z</time></trkpt><trkpt lat="43.310748097297825" lon="11.761711442002351"><ele>258.0</ele><time>2026-05-01T13:23:06Z</time></trkpt><trkpt lat="43.31041838259344" lon="11.761744436095254"><ele>258.0</ele><time>2026-05-01T13:23:07Z</time></trkpt><trkpt lat="43.310095070506435" lon="11.761777448795481"><ele>258.0</ele><time>2026-05-01T13:23:08Z</time></trkpt><trkpt lat="43.309776133963474" lon="11.761809809072092"><ele>258.0</ele><time>2026-05-01T13:23:09Z</time></trkpt><trkpt lat="43.30946067886369" lon="11.761840147863323"><ele>258.0</ele><time>2026-05-01T13:23:10Z</time></trkpt><trkpt lat="43.309150754415256" lon="11.761868460658992"><ele>257.5</ele><time>2026-05-01T13:23:11Z</time></trkpt><trkpt lat="43.30884219708163" lon="11.761898520548382"><ele>257.0</ele><time>2026-05-01T13:23:12Z</time></trkpt><trkpt lat="43.30853802442922" lon="11.76192990875032"><ele>257.0</ele><time>2026-05-01T13:23:13Z</time></trkpt><trkpt lat="43.3082379241434" lon="11.761963031978775"><ele>257.0</ele><time>2026-05-01T13:23:14Z</time></trkpt><trkpt lat="43.30794339180304" lon="11.761997750828082"><ele>257.5</ele><time>2026-05-01T13:23:15Z</time></trkpt><trkpt lat="43.3076501630345" lon="11.762031813859384"><ele>258.0</ele><time>2026-05-01T13:23:16Z</time></trkpt><trkpt lat="43.307357318326886" lon="11.762066346651984"><ele>257.5</ele><time>2026-05-01T13:23:17Z</time></trkpt><trkpt lat="43.30705590731497" lon="11.762102853719593"><ele>257.0</ele><time>2026-05-01T13:23:18Z</time></trkpt><trkpt lat="43.30674871243944" lon="11.762134851512757"><ele>257.0</ele><time>2026-05-01T13:23:19Z</time></trkpt><trkpt lat="43.3064315035909" lon="11.762169780866643"><ele>257.0</ele><time>2026-05-01T13:23:20Z</time></trkpt><trkpt lat="43.30610984154862" lon="11.762209683525615"><ele>257.5</ele><time>2026-05-01T13:23:21Z</time></trkpt><trkpt lat="43.30578454963056" lon="11.76224770015373"><ele>258.0</ele><time>2026-05-01T13:23:22Z</time></trkpt><trkpt lat="43.30545782997011" lon="11.762283263155572"><ele>258.0</ele><time>2026-05-01T13:23:23Z</time></trkpt><trkpt lat="43.30512854790507" lon="11.762315940961672"><ele>258.0</ele><time>2026-05-01T13:23:24Z</time></trkpt><trkpt lat="43.30479799429886" lon="11.762349428906136"><ele>258.0</ele><time>2026-05-01T13:23:25Z</time></trkpt><trkpt lat="43.304465334146414" lon="11.762383098534965"><ele>258.0</ele><time>2026-05-01T13:23:26Z</time></trkpt><trkpt lat="43.30413068384418" lon="11.762415080599357"><ele>258.5</ele><time>2026-05-01T13:23:27Z</time></trkpt><trkpt lat="43.30379372400433" lon="11.762445241292852"><ele>259.0</ele><time>2026-05-01T13:23:28Z</time></trkpt><trkpt lat="43.30345521675751" lon="11.762475996933334"><ele>259.0</ele><time>2026-05-01T13:23:29Z</time></trkpt><trkpt lat="43.30311665687584" lon="11.762505186899968"><ele>259.0</ele><time>2026-05-01T13:23:30Z</time></trkpt><trkpt lat="43.30277965771306" lon="11.762533258163884"><ele>258.5</ele><time>2026-05-01T13:23:31Z</time></trkpt><trkpt lat="43.30244260240122" lon="11.762560581279775"><ele>258.0</ele><time>2026-05-01T13:23:32Z</time></trkpt><trkpt lat="43.30210476292582" lon="11.762588031242148"><ele>258.0</ele><time>2026-05-01T13:23:33Z</time></trkpt><trkpt lat="43.30176652519644" lon="11.762618064078303"><ele>258.0</ele><time>2026-05-01T13:23:34Z</time></trkpt><trkpt lat="43.30142799282539" lon="11.762649565275652"><ele>258.5</ele><time>2026-05-01T13:23:35Z</time></trkpt><trkpt lat="43.3010878334353" lon="11.762681305811878"><ele>259.0</ele><time>2026-05-01T13:23:36Z</time></trkpt><trkpt lat="43.30074643489813" lon="11.762712192396089"><ele>259.0</ele><time>2026-05-01T13:23:37Z</time></trkpt><trkpt lat="43.30040607393536" lon="11.76274298464717"><ele>259.0</ele><time>2026-05-01T13:23:37.999Z</time></trkpt><trkpt lat="43.30006562787513" lon="11.762772501289376"><ele>259.0</ele><time>2026-05-01T13:23:38.999Z</time></trkpt><trkpt lat="43.29972480132055" lon="11.762799774089043"><ele>259.0</ele><time>2026-05-01T13:23:39.999Z</time></trkpt><trkpt lat="43.299385758151445" lon="11.76282927299196"><ele>259.0</ele><time>2026-05-01T13:23:40.999Z</time></trkpt><trkpt lat="43.29904544293308" lon="11.762860770569219"><ele>259.0</ele><time>2026-05-01T13:23:41.999Z</time></trkpt><trkpt lat="43.29870576910304" lon="11.76289740592053"><ele>259.0</ele><time>2026-05-01T13:23:42.999Z</time></trkpt><trkpt lat="43.29836849119052" lon="11.76293388457351"><ele>259.0</ele><time>2026-05-01T13:23:43.999Z</time></trkpt><trkpt lat="43.298030296636185" lon="11.76297008727974"><ele>259.0</ele><time>2026-05-01T13:23:44.999Z</time></trkpt><trkpt lat="43.29769218693169" lon="11.763005102469128"><ele>259.0</ele><time>2026-05-01T13:23:45.999Z</time></trkpt><trkpt lat="43.29735516276775" lon="11.763036385484394"><ele>258.0</ele><time>2026-05-01T13:23:46.999Z</time></trkpt><trkpt lat="43.29701666343349" lon="11.763066644865031"><ele>257.0</ele><time>2026-05-01T13:23:47.999Z</time></trkpt><trkpt lat="43.29667856283569" lon="11.76309850138469"><ele>257.5</ele><time>2026-05-01T13:23:48.999Z</time></trkpt><trkpt lat="43.296341924176396" lon="11.76313335869226"><ele>258.0</ele><time>2026-05-01T13:23:49.999Z</time></trkpt><trkpt lat="43.29600489145253" lon="11.763168175153188"><ele>258.0</ele><time>2026-05-01T13:23:50.999Z</time></trkpt><trkpt lat="43.29566830592587" lon="11.763204827923573"><ele>258.0</ele><time>2026-05-01T13:23:51.999Z</time></trkpt><trkpt lat="43.29533237502713" lon="11.763237804280525"><ele>257.5</ele><time>2026-05-01T13:23:52.999Z</time></trkpt><trkpt lat="43.294995119931954" lon="11.763271869827811"><ele>257.0</ele><time>2026-05-01T13:23:53.999Z</time></trkpt><trkpt lat="43.29465879804927" lon="11.763305003820346"><ele>257.0</ele><time>2026-05-01T13:23:54.999Z</time></trkpt><trkpt lat="43.29432227003233" lon="11.763335920870368"><ele>257.0</ele><time>2026-05-01T13:23:55.999Z</time></trkpt><trkpt lat="43.293985675062345" lon="11.763367803196548"><ele>257.5</ele><time>2026-05-01T13:23:56.999Z</time></trkpt><trkpt lat="43.293646249122816" lon="11.763401128891884"><ele>258.0</ele><time>2026-05-01T13:23:57.999Z</time></trkpt><trkpt lat="43.29330698340867" lon="11.763432008749986"><ele>257.5</ele><time>2026-05-01T13:23:58.999Z</time></trkpt><trkpt lat="43.292965786161396" lon="11.763464416732786"><ele>257.0</ele><time>2026-05-01T13:24:00.001Z</time></trkpt><trkpt lat="43.29262779787138" lon="11.763497133004593"><ele>256.5</ele><time>2026-05-01T13:24:01.001Z</time></trkpt><trkpt lat="43.29228873286198" lon="11.763531718641925"><ele>256.0</ele><time>2026-05-01T13:24:02.001Z</time></trkpt><trkpt lat="43.29194965418002" lon="11.76356750006559"><ele>256.0</ele><time>2026-05-01T13:24:03.001Z</time></trkpt><trkpt lat="43.29161197040089" lon="11.763602750349948"><ele>256.0</ele><time>2026-05-01T13:24:04.001Z</time></trkpt><trkpt lat="43.29127292048136" lon="11.76363909435654"><ele>255.5</ele><time>2026-05-01T13:24:05.001Z</time></trkpt><trkpt lat="43.29093510158361" lon="11.763679659544941"><ele>255.0</ele><time>2026-05-01T13:24:06.001Z</time></trkpt><trkpt lat="43.29059576355558" lon="11.763722516753456"><ele>255.5</ele><time>2026-05-01T13:24:07.001Z</time></trkpt><trkpt lat="43.29025957860048" lon="11.763772738318904"><ele>256.0</ele><time>2026-05-01T13:24:08.001Z</time></trkpt><trkpt lat="43.28992214511855" lon="11.763829023062563"><ele>256.5</ele><time>2026-05-01T13:24:09.001Z</time></trkpt><trkpt lat="43.28958631287879" lon="11.763889731057622"><ele>257.0</ele><time>2026-05-01T13:24:10.001Z</time></trkpt><trkpt lat="43.28925216154071" lon="11.763955012291342"><ele>257.0</ele><time>2026-05-01T13:24:11Z</time></trkpt><trkpt lat="43.288919430383196" lon="11.764023384690104"><ele>257.0</ele><time>2026-05-01T13:24:12Z</time></trkpt><trkpt lat="43.28858564679002" lon="11.764092850169519"><ele>257.0</ele><time>2026-05-01T13:24:13Z</time></trkpt><trkpt lat="43.28825215448645" lon="11.764164567682199"><ele>257.0</ele><time>2026-05-01T13:24:14Z</time></trkpt><trkpt lat="43.28792046193658" lon="11.764242698554085"><ele>257.5</ele><time>2026-05-01T13:24:15Z</time></trkpt><trkpt lat="43.287592225592014" lon="11.764322056465431"><ele>258.0</ele><time>2026-05-01T13:24:16Z</time></trkpt><trkpt lat="43.287267028507415" lon="11.764408439560635"><ele>257.0</ele><time>2026-05-01T13:24:17Z</time></trkpt><trkpt lat="43.28693959335294" lon="11.764497048656072"><ele>256.0</ele><time>2026-05-01T13:24:18Z</time></trkpt><trkpt lat="43.28660960561108" lon="11.764585125225302"><ele>256.5</ele><time>2026-05-01T13:24:19Z</time></trkpt><trkpt lat="43.286277794580194" lon="11.764672846044016"><ele>257.0</ele><time>2026-05-01T13:24:20Z</time></trkpt><trkpt lat="43.28594694456472" lon="11.764758378834353"><ele>257.0</ele><time>2026-05-01T13:24:21Z</time></trkpt><trkpt lat="43.28561373476738" lon="11.764849639457369"><ele>257.0</ele><time>2026-05-01T13:24:22Z</time></trkpt><trkpt lat="43.285281173403135" lon="11.764941561053652"><ele>257.0</ele><time>2026-05-01T13:24:23Z</time></trkpt><trkpt lat="43.28494721282994" lon="11.765035970036466"><ele>257.0</ele><time>2026-05-01T13:24:24Z</time></trkpt><trkpt lat="43.284611743999925" lon="11.765129586809005"><ele>257.0</ele><time>2026-05-01T13:24:25Z</time></trkpt><trkpt lat="43.28427641337548" lon="11.765222495932372"><ele>257.0</ele><time>2026-05-01T13:24:26Z</time></trkpt><trkpt lat="43.283943205142585" lon="11.765312241301642"><ele>257.5</ele><time>2026-05-01T13:24:27Z</time></trkpt><trkpt lat="43.28360862810813" lon="11.765403957420114"><ele>258.0</ele><time>2026-05-01T13:24:28Z</time></trkpt><trkpt lat="43.283280139560844" lon="11.76549401320413"><ele>258.5</ele><time>2026-05-01T13:24:29Z</time></trkpt><trkpt lat="43.28295530660508" lon="11.765585414265747"><ele>259.0</ele><time>2026-05-01T13:24:30Z</time></trkpt><trkpt lat="43.282631574016364" lon="11.765674288557815"><ele>259.0</ele><time>2026-05-01T13:24:31Z</time></trkpt><trkpt lat="43.282308773626994" lon="11.765764473087234"><ele>259.0</ele><time>2026-05-01T13:24:32Z</time></trkpt><trkpt lat="43.28198761890964" lon="11.765854457331281"><ele>260.0</ele><time>2026-05-01T13:24:33Z</time></trkpt><trkpt lat="43.28166541522606" lon="11.765943204695384"><ele>261.0</ele><time>2026-05-01T13:24:34Z</time></trkpt><trkpt lat="43.28134195547874" lon="11.766030692238147"><ele>259.0</ele><time>2026-05-01T13:24:35Z</time></trkpt><trkpt lat="43.28102030345895" lon="11.766117516272216"><ele>257.0</ele><time>2026-05-01T13:24:36Z</time></trkpt><trkpt lat="43.28069816140652" lon="11.766206070590968"><ele>257.0</ele><time>2026-05-01T13:24:37Z</time></trkpt><trkpt lat="43.280376162866666" lon="11.766295525381505"><ele>257.0</ele><time>2026-05-01T13:24:38Z</time></trkpt><trkpt lat="43.28005300820302" lon="11.76638543800615"><ele>257.0</ele><time>2026-05-01T13:24:39Z</time></trkpt><trkpt lat="43.27972634621315" lon="11.766473305844679"><ele>257.0</ele><time>2026-05-01T13:24:40Z</time></trkpt><trkpt lat="43.27939890985649" lon="11.766561013301734"><ele>257.0</ele><time>2026-05-01T13:24:41Z</time></trkpt><trkpt lat="43.27906716790669" lon="11.766648375409194"><ele>257.0</ele><time>2026-05-01T13:24:42Z</time></trkpt><trkpt lat="43.278736669077766" lon="11.766738141722206"><ele>257.5</ele><time>2026-05-01T13:24:43Z</time></trkpt><trkpt lat="43.278406025396194" lon="11.766829428481795"><ele>258.0</ele><time>2026-05-01T13:24:44Z</time></trkpt><trkpt lat="43.27807768763037" lon="11.766921826398312"><ele>256.5</ele><time>2026-05-01T13:24:45Z</time></trkpt><trkpt lat="43.277747683562396" lon="11.76701575870196"><ele>255.0</ele><time>2026-05-01T13:24:46Z</time></trkpt><trkpt lat="43.27741722448917" lon="11.767113163774294"><ele>256.0</ele><time>2026-05-01T13:24:47Z</time></trkpt><trkpt lat="43.2770838334251" lon="11.767211668012598"><ele>257.0</ele><time>2026-05-01T13:24:48Z</time></trkpt><trkpt lat="43.27675075319517" lon="11.767310225508963"><ele>257.0</ele><time>2026-05-01T13:24:49Z</time></trkpt><trkpt lat="43.27641563713436" lon="11.767406201704182"><ele>257.0</ele><time>2026-05-01T13:24:50Z</time></trkpt><trkpt lat="43.27608205748121" lon="11.76750143962544"><ele>257.0</ele><time>2026-05-01T13:24:51Z</time></trkpt><trkpt lat="43.275749563861616" lon="11.767592236671222"><ele>257.0</ele><time>2026-05-01T13:24:52Z</time></trkpt><trkpt lat="43.27541943399164" lon="11.767683925132905"><ele>257.5</ele><time>2026-05-01T13:24:53Z</time></trkpt><trkpt lat="43.275090790192515" lon="11.767773796409964"><ele>258.0</ele><time>2026-05-01T13:24:54Z</time></trkpt><trkpt lat="43.274764774409626" lon="11.767862220348931"><ele>259.0</ele><time>2026-05-01T13:24:55Z</time></trkpt><trkpt lat="43.27444252401991" lon="11.7679496313568"><ele>260.0</ele><time>2026-05-01T13:24:56Z</time></trkpt><trkpt lat="43.27412110343989" lon="11.768035609059199"><ele>259.0</ele><time>2026-05-01T13:24:57Z</time></trkpt><trkpt lat="43.273803622495855" lon="11.768121606076523"><ele>258.0</ele><time>2026-05-01T13:24:58Z</time></trkpt><trkpt lat="43.273488393959894" lon="11.768206866431868"><ele>258.0</ele><time>2026-05-01T13:24:59Z</time></trkpt><trkpt lat="43.27317331432286" lon="11.76829087670905"><ele>258.0</ele><time>2026-05-01T13:25:00Z</time></trkpt><trkpt lat="43.27285999247529" lon="11.768374415839066"><ele>258.0</ele><time>2026-05-01T13:25:01Z</time></trkpt><trkpt lat="43.27254229164748" lon="11.768458115120062"><ele>258.0</ele><time>2026-05-01T13:25:02Z</time></trkpt><trkpt lat="43.2722270661217" lon="11.768546165215836"><ele>257.0</ele><time>2026-05-01T13:25:03Z</time></trkpt><trkpt lat="43.27190929088338" lon="11.76863360535967"><ele>256.0</ele><time>2026-05-01T13:25:04Z</time></trkpt><trkpt lat="43.27159018673992" lon="11.768720402176053"><ele>256.0</ele><time>2026-05-01T13:25:05Z</time></trkpt><trkpt lat="43.2712699623167" lon="11.768807608798515"><ele>256.0</ele><time>2026-05-01T13:25:06Z</time></trkpt><trkpt lat="43.2709458699642" lon="11.768894912729426"><ele>256.0</ele><time>2026-05-01T13:25:07Z</time></trkpt><trkpt lat="43.270619368240176" lon="11.768984941722483"><ele>256.0</ele><time>2026-05-01T13:25:08Z</time></trkpt><trkpt lat="43.27029162985766" lon="11.76907620600912"><ele>257.5</ele><time>2026-05-01T13:25:09Z</time></trkpt><trkpt lat="43.26996367379583" lon="11.769166415662848"><ele>259.0</ele><time>2026-05-01T13:25:10Z</time></trkpt><trkpt lat="43.26963373825117" lon="11.769254132069765"><ele>261.5</ele><time>2026-05-01T13:25:11Z</time></trkpt><trkpt lat="43.26930049447835" lon="11.769327313853747"><ele>264.0</ele><time>2026-05-01T13:25:12Z</time></trkpt><trkpt lat="43.268964250985555" lon="11.769383380974833"><ele>264.5</ele><time>2026-05-01T13:25:13Z</time></trkpt><trkpt lat="43.26862874698533" lon="11.769411576818639"><ele>265.0</ele><time>2026-05-01T13:25:14Z</time></trkpt><trkpt lat="43.26829410403285" lon="11.769421028562801"><ele>260.0</ele><time>2026-05-01T13:25:15Z</time></trkpt><trkpt lat="43.267958703211605" lon="11.769409802151879"><ele>255.0</ele><time>2026-05-01T13:25:16Z</time></trkpt><trkpt lat="43.267621709672696" lon="11.769373488485911"><ele>254.0</ele><time>2026-05-01T13:25:17Z</time></trkpt><trkpt lat="43.26728689680966" lon="11.769316115987097"><ele>253.0</ele><time>2026-05-01T13:25:18Z</time></trkpt><trkpt lat="43.266953906883636" lon="11.769235441898221"><ele>253.0</ele><time>2026-05-01T13:25:19Z</time></trkpt><trkpt lat="43.26662387553518" lon="11.769138561189399"><ele>253.0</ele><time>2026-05-01T13:25:20Z</time></trkpt><trkpt lat="43.26629513194568" lon="11.769020882428899"><ele>253.0</ele><time>2026-05-01T13:25:21Z</time></trkpt><trkpt lat="43.265971361213246" lon="11.768881718412556"><ele>253.0</ele><time>2026-05-01T13:25:22Z</time></trkpt><trkpt lat="43.26565106057025" lon="11.768729323697567"><ele>253.0</ele><time>2026-05-01T13:25:23Z</time></trkpt><trkpt lat="43.26533102752127" lon="11.76857315980847"><ele>253.0</ele><time>2026-05-01T13:25:24Z</time></trkpt><trkpt lat="43.265007044237954" lon="11.768415684555302"><ele>252.5</ele><time>2026-05-01T13:25:25Z</time></trkpt><trkpt lat="43.26468386488931" lon="11.768259297089916"><ele>252.0</ele><time>2026-05-01T13:25:26Z</time></trkpt><trkpt lat="43.26436128929298" lon="11.768104167740919"><ele>252.0</ele><time>2026-05-01T13:25:27Z</time></trkpt><trkpt lat="43.26403882322919" lon="11.767946602790664"><ele>252.0</ele><time>2026-05-01T13:25:28Z</time></trkpt><trkpt lat="43.26371637920908" lon="11.767791803081728"><ele>253.0</ele><time>2026-05-01T13:25:29Z</time></trkpt><trkpt lat="43.26339469375145" lon="11.767648044675461"><ele>254.0</ele><time>2026-05-01T13:25:30Z</time></trkpt><trkpt lat="43.26307049403967" lon="11.767522724335853"><ele>254.0</ele><time>2026-05-01T13:25:31Z</time></trkpt><trkpt lat="43.26274242955579" lon="11.767424221276348"><ele>254.0</ele><time>2026-05-01T13:25:32Z</time></trkpt><trkpt lat="43.26241182124795" lon="11.767350645226411"><ele>254.0</ele><time>2026-05-01T13:25:33Z</time></trkpt><trkpt lat="43.262078365128666" lon="11.76730781389244"><ele>254.0</ele><time>2026-05-01T13:25:34Z</time></trkpt><trkpt lat="43.261747318782035" lon="11.767298293717632"><ele>254.5</ele><time>2026-05-01T13:25:35Z</time></trkpt><trkpt lat="43.26142548540273" lon="11.767312794855584"><ele>255.0</ele><time>2026-05-01T13:25:36Z</time></trkpt><trkpt lat="43.26111422403393" lon="11.767352098834834"><ele>255.0</ele><time>2026-05-01T13:25:37Z</time></trkpt><trkpt lat="43.26081407207804" lon="11.767421059058812"><ele>255.0</ele><time>2026-05-01T13:25:38Z</time></trkpt><trkpt lat="43.26052183193311" lon="11.76751023520146"><ele>254.0</ele><time>2026-05-01T13:25:38.999Z</time></trkpt><trkpt lat="43.26023033372563" lon="11.76761292621019"><ele>253.0</ele><time>2026-05-01T13:25:39.999Z</time></trkpt><trkpt lat="43.259947384541775" lon="11.767729650380568"><ele>253.0</ele><time>2026-05-01T13:25:41Z</time></trkpt><trkpt lat="43.259667410646536" lon="11.76785634667532"><ele>253.0</ele><time>2026-05-01T13:25:41.999Z</time></trkpt><trkpt lat="43.25938090714947" lon="11.767978819035989"><ele>253.0</ele><time>2026-05-01T13:25:42.999Z</time></trkpt><trkpt lat="43.25908384167209" lon="11.768096623919728"><ele>253.0</ele><time>2026-05-01T13:25:43.999Z</time></trkpt><trkpt lat="43.25877669706473" lon="11.768213955558853"><ele>253.5</ele><time>2026-05-01T13:25:44.999Z</time></trkpt><trkpt lat="43.25846210861008" lon="11.768333332680209"><ele>254.0</ele><time>2026-05-01T13:25:45.999Z</time></trkpt><trkpt lat="43.25814316182698" lon="11.768454370954093"><ele>253.5</ele><time>2026-05-01T13:25:46.999Z</time></trkpt><trkpt lat="43.25782068722777" lon="11.768577961914158"><ele>253.0</ele><time>2026-05-01T13:25:47.999Z</time></trkpt><trkpt lat="43.257496625631816" lon="11.768704312967152"><ele>252.0</ele><time>2026-05-01T13:25:48.999Z</time></trkpt><trkpt lat="43.25717063096758" lon="11.768833033204777"><ele>251.0</ele><time>2026-05-01T13:25:49.999Z</time></trkpt><trkpt lat="43.25684128363243" lon="11.768959351682797"><ele>251.0</ele><time>2026-05-01T13:25:50.999Z</time></trkpt><trkpt lat="43.2565121305166" lon="11.769082620738741"><ele>251.0</ele><time>2026-05-01T13:25:51.999Z</time></trkpt><trkpt lat="43.256183025681764" lon="11.769205532093578"><ele>251.5</ele><time>2026-05-01T13:25:52.999Z</time></trkpt><trkpt lat="43.25585661389386" lon="11.769326763429472"><ele>252.0</ele><time>2026-05-01T13:25:53.999Z</time></trkpt><trkpt lat="43.255531493774946" lon="11.769449319221984"><ele>252.0</ele><time>2026-05-01T13:25:54.999Z</time></trkpt><trkpt lat="43.25520712146307" lon="11.769570393310907"><ele>252.0</ele><time>2026-05-01T13:25:55.999Z</time></trkpt><trkpt lat="43.25488344642915" lon="11.769690419923249"><ele>252.0</ele><time>2026-05-01T13:25:56.999Z</time></trkpt><trkpt lat="43.25455895972895" lon="11.769812153265809"><ele>252.0</ele><time>2026-05-01T13:25:57.999Z</time></trkpt><trkpt lat="43.25423337463189" lon="11.769933454259363"><ele>253.5</ele><time>2026-05-01T13:25:58.999Z</time></trkpt><trkpt lat="43.253907905497435" lon="11.770054159448852"><ele>255.0</ele><time>2026-05-01T13:25:59.999Z</time></trkpt><trkpt lat="43.25358121396883" lon="11.770172790338469"><ele>254.0</ele><time>2026-05-01T13:26:00.999Z</time></trkpt><trkpt lat="43.25325430874257" lon="11.77029296723382"><ele>253.0</ele><time>2026-05-01T13:26:01.999Z</time></trkpt><trkpt lat="43.252926223917264" lon="11.770416480292953"><ele>255.0</ele><time>2026-05-01T13:26:02.999Z</time></trkpt><trkpt lat="43.25259758898618" lon="11.770539424461267"><ele>257.0</ele><time>2026-05-01T13:26:03.999Z</time></trkpt><trkpt lat="43.252269576495415" lon="11.770664402827784"><ele>259.5</ele><time>2026-05-01T13:26:05.001Z</time></trkpt><trkpt lat="43.251942996881844" lon="11.770790024849877"><ele>262.0</ele><time>2026-05-01T13:26:06.001Z</time></trkpt><trkpt lat="43.25161421140228" lon="11.770915198713704"><ele>259.5</ele><time>2026-05-01T13:26:07.001Z</time></trkpt><trkpt lat="43.25128552563038" lon="11.771040842247277"><ele>257.0</ele><time>2026-05-01T13:26:08.001Z</time></trkpt><trkpt lat="43.2509573205968" lon="11.771168602581074"><ele>257.0</ele><time>2026-05-01T13:26:09.001Z</time></trkpt><trkpt lat="43.25062857648533" lon="11.771297393774253"><ele>257.0</ele><time>2026-05-01T13:26:10.001Z</time></trkpt><trkpt lat="43.250304886599544" lon="11.771427626972045"><ele>258.0</ele><time>2026-05-01T13:26:11.001Z</time></trkpt><trkpt lat="43.24998117143856" lon="11.77156554330458"><ele>259.0</ele><time>2026-05-01T13:26:12.001Z</time></trkpt><trkpt lat="43.249659201469626" lon="11.771714264740089"><ele>256.0</ele><time>2026-05-01T13:26:13.001Z</time></trkpt><trkpt lat="43.24934480748902" lon="11.771877197613204"><ele>253.0</ele><time>2026-05-01T13:26:14.001Z</time></trkpt><trkpt lat="43.24903555582498" lon="11.772057931132684"><ele>254.5</ele><time>2026-05-01T13:26:15.001Z</time></trkpt><trkpt lat="43.24873472372482" lon="11.772255707684986"><ele>256.0</ele><time>2026-05-01T13:26:16.001Z</time></trkpt><trkpt lat="43.24843980548638" lon="11.772463955862452"><ele>256.0</ele><time>2026-05-01T13:26:17.001Z</time></trkpt><trkpt lat="43.24814867741536" lon="11.772683346632869"><ele>256.0</ele><time>2026-05-01T13:26:18.001Z</time></trkpt><trkpt lat="43.24786195924654" lon="11.772917335003958"><ele>257.5</ele><time>2026-05-01T13:26:19.001Z</time></trkpt><trkpt lat="43.247583040598165" lon="11.77317049022658"><ele>259.0</ele><time>2026-05-01T13:26:20Z</time></trkpt><trkpt lat="43.24731146239897" lon="11.773437689238769"><ele>259.5</ele><time>2026-05-01T13:26:21Z</time></trkpt><trkpt lat="43.24704535846645" lon="11.773717930832134"><ele>260.0</ele><time>2026-05-01T13:26:22Z</time></trkpt><trkpt lat="43.24678207470102" lon="11.774009083204886"><ele>260.0</ele><time>2026-05-01T13:26:23Z</time></trkpt><trkpt lat="43.246519345976886" lon="11.774302466718055"><ele>260.0</ele><time>2026-05-01T13:26:24Z</time></trkpt><trkpt lat="43.24625506845317" lon="11.774595596364378"><ele>259.5</ele><time>2026-05-01T13:26:25Z</time></trkpt><trkpt lat="43.24599073251768" lon="11.77488719628305"><ele>259.0</ele><time>2026-05-01T13:26:26Z</time></trkpt><trkpt lat="43.24572694519219" lon="11.775180269719508"><ele>261.0</ele><time>2026-05-01T13:26:27Z</time></trkpt><trkpt lat="43.245465076359785" lon="11.775474119374593"><ele>263.0</ele><time>2026-05-01T13:26:28Z</time></trkpt><trkpt lat="43.2452036538999" lon="11.775767457414778"><ele>262.5</ele><time>2026-05-01T13:26:29Z</time></trkpt><trkpt lat="43.24494157205891" lon="11.776059274149139"><ele>262.0</ele><time>2026-05-01T13:26:30Z</time></trkpt><trkpt lat="43.24467819651868" lon="11.776349876215141"><ele>262.0</ele><time>2026-05-01T13:26:31Z</time></trkpt><trkpt lat="43.24441381145118" lon="11.77663929104708"><ele>262.0</ele><time>2026-05-01T13:26:32Z</time></trkpt><trkpt lat="43.244149089442274" lon="11.7769296794179"><ele>261.0</ele><time>2026-05-01T13:26:33Z</time></trkpt><trkpt lat="43.243884710863306" lon="11.777220706291725"><ele>260.0</ele><time>2026-05-01T13:26:34Z</time></trkpt><trkpt lat="43.243620886306076" lon="11.777510482492383"><ele>260.0</ele><time>2026-05-01T13:26:35Z</time></trkpt><trkpt lat="43.243356458626735" lon="11.777801341904922"><ele>260.0</ele><time>2026-05-01T13:26:36Z</time></trkpt><trkpt lat="43.2430931435871" lon="11.778090854712975"><ele>260.0</ele><time>2026-05-01T13:26:37Z</time></trkpt><trkpt lat="43.2428317715164" lon="11.778380374946197"><ele>260.0</ele><time>2026-05-01T13:26:38Z</time></trkpt><trkpt lat="43.242572127466914" lon="11.77867054354729"><ele>259.0</ele><time>2026-05-01T13:26:39Z</time></trkpt><trkpt lat="43.24231304176953" lon="11.778959909696066"><ele>258.0</ele><time>2026-05-01T13:26:40Z</time></trkpt><trkpt lat="43.24205557696942" lon="11.779247417121471"><ele>259.0</ele><time>2026-05-01T13:26:41Z</time></trkpt><trkpt lat="43.24179803336278" lon="11.779533410671174"><ele>260.0</ele><time>2026-05-01T13:26:42Z</time></trkpt><trkpt lat="43.24154080757376" lon="11.779818789138588"><ele>260.5</ele><time>2026-05-01T13:26:43Z</time></trkpt><trkpt lat="43.24128274905051" lon="11.780103377006105"><ele>261.0</ele><time>2026-05-01T13:26:44Z</time></trkpt><trkpt lat="43.24102584767063" lon="11.780386291370807"><ele>261.0</ele><time>2026-05-01T13:26:45Z</time></trkpt><trkpt lat="43.24077038611411" lon="11.780667413494832"><ele>261.0</ele><time>2026-05-01T13:26:46Z</time></trkpt><trkpt lat="43.240515292413555" lon="11.780947535740518"><ele>261.0</ele><time>2026-05-01T13:26:47Z</time></trkpt><trkpt lat="43.24025856194662" lon="11.781229291940164"><ele>261.0</ele><time>2026-05-01T13:26:48Z</time></trkpt><trkpt lat="43.24000242602307" lon="11.781513374027947"><ele>261.0</ele><time>2026-05-01T13:26:49Z</time></trkpt><trkpt lat="43.23974791263565" lon="11.781798560890536"><ele>261.0</ele><time>2026-05-01T13:26:50Z</time></trkpt><trkpt lat="43.23949810040985" lon="11.782083006900086"><ele>261.0</ele><time>2026-05-01T13:26:51Z</time></trkpt><trkpt lat="43.23924666122165" lon="11.782368246917894"><ele>261.0</ele><time>2026-05-01T13:26:52Z</time></trkpt><trkpt lat="43.23899262673839" lon="11.782654317781137"><ele>263.0</ele><time>2026-05-01T13:26:53Z</time></trkpt><trkpt lat="43.23873955243172" lon="11.782942171038991"><ele>265.0</ele><time>2026-05-01T13:26:54Z</time></trkpt><trkpt lat="43.23848613200792" lon="11.783233538845408"><ele>265.5</ele><time>2026-05-01T13:26:55Z</time></trkpt><trkpt lat="43.23823290530962" lon="11.783530433761422"><ele>266.0</ele><time>2026-05-01T13:26:56Z</time></trkpt><trkpt lat="43.23798061651698" lon="11.78383319249138"><ele>266.0</ele><time>2026-05-01T13:26:57Z</time></trkpt><trkpt lat="43.23773295685523" lon="11.784143633945922"><ele>266.0</ele><time>2026-05-01T13:26:58Z</time></trkpt><trkpt lat="43.237489947507996" lon="11.784459693183027"><ele>265.0</ele><time>2026-05-01T13:26:59Z</time></trkpt><trkpt lat="43.23725079189313" lon="11.784779688360036"><ele>264.0</ele><time>2026-05-01T13:27:00Z</time></trkpt><trkpt lat="43.23701170981483" lon="11.785104428811337"><ele>261.0</ele><time>2026-05-01T13:27:01Z</time></trkpt><trkpt lat="43.236772402607066" lon="11.785434972701001"><ele>258.0</ele><time>2026-05-01T13:27:02Z</time></trkpt><trkpt lat="43.236537906196105" lon="11.785770224498407"><ele>257.5</ele><time>2026-05-01T13:27:03Z</time></trkpt><trkpt lat="43.236306452082765" lon="11.78610887289272"><ele>257.0</ele><time>2026-05-01T13:27:04Z</time></trkpt><trkpt lat="43.23607942882774" lon="11.786450034826522"><ele>257.0</ele><time>2026-05-01T13:27:05Z</time></trkpt><trkpt lat="43.23585306696493" lon="11.786796428553776"><ele>257.0</ele><time>2026-05-01T13:27:06Z</time></trkpt><trkpt lat="43.23562798961907" lon="11.787139978692132"><ele>257.5</ele><time>2026-05-01T13:27:07Z</time></trkpt><trkpt lat="43.23540512585513" lon="11.787483668989708"><ele>258.0</ele><time>2026-05-01T13:27:08Z</time></trkpt><trkpt lat="43.23518018429493" lon="11.78782403642917"><ele>256.0</ele><time>2026-05-01T13:27:09Z</time></trkpt><trkpt lat="43.234955877634285" lon="11.788161432865943"><ele>254.0</ele><time>2026-05-01T13:27:10Z</time></trkpt><trkpt lat="43.23472884306292" lon="11.788495925694374"><ele>256.5</ele><time>2026-05-01T13:27:11Z</time></trkpt><trkpt lat="43.23449912177352" lon="11.788824290045099"><ele>259.0</ele><time>2026-05-01T13:27:12Z</time></trkpt><trkpt lat="43.23426558381577" lon="11.789146177655438"><ele>258.0</ele><time>2026-05-01T13:27:13Z</time></trkpt><trkpt lat="43.23402619568882" lon="11.789459803694376"><ele>257.0</ele><time>2026-05-01T13:27:14Z</time></trkpt><trkpt lat="43.23377999768663" lon="11.789764737856908"><ele>257.0</ele><time>2026-05-01T13:27:15Z</time></trkpt><trkpt lat="43.2335315065771" lon="11.790058204122042"><ele>257.0</ele><time>2026-05-01T13:27:16Z</time></trkpt><trkpt lat="43.23327785137473" lon="11.790341334621747"><ele>254.0</ele><time>2026-05-01T13:27:17Z</time></trkpt><trkpt lat="43.233018060570295" lon="11.79061328692318"><ele>251.0</ele><time>2026-05-01T13:27:18Z</time></trkpt><trkpt lat="43.232753962050666" lon="11.790876696739103"><ele>251.0</ele><time>2026-05-01T13:27:19Z</time></trkpt><trkpt lat="43.23249031808992" lon="11.791135772151751"><ele>251.0</ele><time>2026-05-01T13:27:20Z</time></trkpt><trkpt lat="43.23222058229682" lon="11.791389269291434"><ele>250.5</ele><time>2026-05-01T13:27:21Z</time></trkpt><trkpt lat="43.231948854464605" lon="11.791635454827954"><ele>250.0</ele><time>2026-05-01T13:27:22Z</time></trkpt><trkpt lat="43.23167398376802" lon="11.791876084050424"><ele>249.0</ele><time>2026-05-01T13:27:23Z</time></trkpt><trkpt lat="43.2313979070379" lon="11.792115964656071"><ele>248.0</ele><time>2026-05-01T13:27:24Z</time></trkpt><trkpt lat="43.231121725802225" lon="11.792360401015248"><ele>248.0</ele><time>2026-05-01T13:27:25Z</time></trkpt><trkpt lat="43.230845646742274" lon="11.792606203610335"><ele>248.0</ele><time>2026-05-01T13:27:26Z</time></trkpt><trkpt lat="43.23056611976595" lon="11.792850425747831"><ele>248.5</ele><time>2026-05-01T13:27:27Z</time></trkpt><trkpt lat="43.23028615809138" lon="11.793094791690889"><ele>249.0</ele><time>2026-05-01T13:27:28Z</time></trkpt><trkpt lat="43.23000534922266" lon="11.793340399230177"><ele>249.0</ele><time>2026-05-01T13:27:29Z</time></trkpt><trkpt lat="43.229725226515534" lon="11.793585400014416"><ele>249.0</ele><time>2026-05-01T13:27:30Z</time></trkpt><trkpt lat="43.229446438516504" lon="11.793829342728703"><ele>249.0</ele><time>2026-05-01T13:27:31Z</time></trkpt><trkpt lat="43.22916610312319" lon="11.794077023538692"><ele>249.0</ele><time>2026-05-01T13:27:32Z</time></trkpt><trkpt lat="43.22888505196589" lon="11.79432571812725"><ele>250.5</ele><time>2026-05-01T13:27:33Z</time></trkpt><trkpt lat="43.22860233515879" lon="11.794574942155386"><ele>252.0</ele><time>2026-05-01T13:27:34Z</time></trkpt><trkpt lat="43.22832112426721" lon="11.794824827846535"><ele>252.5</ele><time>2026-05-01T13:27:35Z</time></trkpt><trkpt lat="43.22803969571228" lon="11.795074612896896"><ele>253.0</ele><time>2026-05-01T13:27:36Z</time></trkpt><trkpt lat="43.22775842429884" lon="11.795323983192093"><ele>253.0</ele><time>2026-05-01T13:27:37Z</time></trkpt><trkpt lat="43.227477253687546" lon="11.79557367290537"><ele>253.0</ele><time>2026-05-01T13:27:38Z</time></trkpt><trkpt lat="43.2271959395647" lon="11.795822973495508"><ele>252.5</ele><time>2026-05-01T13:27:39Z</time></trkpt><trkpt lat="43.22691478661331" lon="11.796072135479966"><ele>252.0</ele><time>2026-05-01T13:27:40Z</time></trkpt><trkpt lat="43.2266338156175" lon="11.796321819389513"><ele>251.0</ele><time>2026-05-01T13:27:41Z</time></trkpt><trkpt lat="43.22635569104806" lon="11.796571588255498"><ele>250.0</ele><time>2026-05-01T13:27:41.999Z</time></trkpt><trkpt lat="43.22607616158715" lon="11.796819404899418"><ele>249.5</ele><time>2026-05-01T13:27:42.999Z</time></trkpt><trkpt lat="43.22579562761017" lon="11.797068563978842"><ele>249.0</ele><time>2026-05-01T13:27:43.999Z</time></trkpt><trkpt lat="43.22551568545194" lon="11.797320052292426"><ele>249.5</ele><time>2026-05-01T13:27:44.999Z</time></trkpt><trkpt lat="43.22523076336815" lon="11.797566984357665"><ele>250.0</ele><time>2026-05-01T13:27:45.999Z</time></trkpt><trkpt lat="43.22494776426435" lon="11.79781283073653"><ele>250.5</ele><time>2026-05-01T13:27:46.999Z</time></trkpt><trkpt lat="43.22466417894774" lon="11.798064223067206"><ele>251.0</ele><time>2026-05-01T13:27:47.999Z</time></trkpt><trkpt lat="43.22438143003717" lon="11.798316413432733"><ele>250.0</ele><time>2026-05-01T13:27:48.999Z</time></trkpt><trkpt lat="43.2241004992777" lon="11.798565370538286"><ele>249.0</ele><time>2026-05-01T13:27:49.999Z</time></trkpt><trkpt lat="43.223818879945384" lon="11.79881572335026"><ele>252.5</ele><time>2026-05-01T13:27:50.999Z</time></trkpt><trkpt lat="43.22353516208558" lon="11.799065612433331"><ele>256.0</ele><time>2026-05-01T13:27:51.999Z</time></trkpt><trkpt lat="43.22325179656225" lon="11.799315475365134"><ele>261.0</ele><time>2026-05-01T13:27:52.999Z</time></trkpt><trkpt lat="43.22296763660212" lon="11.79956571965772"><ele>266.0</ele><time>2026-05-01T13:27:53.999Z</time></trkpt><trkpt lat="43.222692017667995" lon="11.799806723210567"><ele>266.0</ele><time>2026-05-01T13:27:54.999Z</time></trkpt><trkpt lat="43.222448204494285" lon="11.800021790316908"><ele>266.0</ele><time>2026-05-01T13:27:55.999Z</time></trkpt><trkpt lat="43.2222204279057" lon="11.800224950348449"><ele>267.0</ele><time>2026-05-01T13:27:56.999Z</time></trkpt><trkpt lat="43.222005520048306" lon="11.800415885488311"><ele>268.0</ele><time>2026-05-01T13:27:57.999Z</time></trkpt><trkpt lat="43.221799158431345" lon="11.800599899240332"><ele>268.0</ele><time>2026-05-01T13:27:58.999Z</time></trkpt><trkpt lat="43.22159408362994" lon="11.800781339717881"><ele>268.0</ele><time>2026-05-01T13:27:59.999Z</time></trkpt><trkpt lat="43.221388168270956" lon="11.800965684521719"><ele>267.0</ele><time>2026-05-01T13:28:00.999Z</time></trkpt><trkpt lat="43.2211807804773" lon="11.801151957229017"><ele>266.0</ele><time>2026-05-01T13:28:01.999Z</time></trkpt><trkpt lat="43.22096318277132" lon="11.801341848484986"><ele>266.0</ele><time>2026-05-01T13:28:02.999Z</time></trkpt><trkpt lat="43.22073800706188" lon="11.801537825133481"><ele>266.0</ele><time>2026-05-01T13:28:03.999Z</time></trkpt><trkpt lat="43.22050600710104" lon="11.80174222795532"><ele>263.5</ele><time>2026-05-01T13:28:04.999Z</time></trkpt><trkpt lat="43.22027359022521" lon="11.801948741383677"><ele>261.0</ele><time>2026-05-01T13:28:05.999Z</time></trkpt><trkpt lat="43.22004476626318" lon="11.80215195097668"><ele>261.0</ele><time>2026-05-01T13:28:06.999Z</time></trkpt><trkpt lat="43.219817655338574" lon="11.802350136987037"><ele>261.0</ele><time>2026-05-01T13:28:07.999Z</time></trkpt><trkpt lat="43.219593225807856" lon="11.802547806746697"><ele>261.0</ele><time>2026-05-01T13:28:08.999Z</time></trkpt><trkpt lat="43.21937015500785" lon="11.802745310695322"><ele>261.0</ele><time>2026-05-01T13:28:09.999Z</time></trkpt><trkpt lat="43.21914594123402" lon="11.802945652705377"><ele>261.0</ele><time>2026-05-01T13:28:11Z</time></trkpt><trkpt lat="43.218919321153166" lon="11.803148052910398"><ele>261.0</ele><time>2026-05-01T13:28:12Z</time></trkpt><trkpt lat="43.21868992195277" lon="11.803351815975224"><ele>258.5</ele><time>2026-05-01T13:28:13Z</time></trkpt><trkpt lat="43.21846525091339" lon="11.803551069741527"><ele>256.0</ele><time>2026-05-01T13:28:14Z</time></trkpt><trkpt lat="43.21824295731345" lon="11.80374756625368"><ele>259.0</ele><time>2026-05-01T13:28:15Z</time></trkpt><trkpt lat="43.21802258124894" lon="11.803943425769637"><ele>262.0</ele><time>2026-05-01T13:28:16.001Z</time></trkpt><trkpt lat="43.21779976001055" lon="11.80414075579414"><ele>261.0</ele><time>2026-05-01T13:28:17Z</time></trkpt><trkpt lat="43.21757511359721" lon="11.804337012845528"><ele>260.0</ele><time>2026-05-01T13:28:18Z</time></trkpt><trkpt lat="43.217349842543825" lon="11.804531136411493"><ele>263.5</ele><time>2026-05-01T13:28:19Z</time></trkpt><trkpt lat="43.21712565040753" lon="11.804728160828693"><ele>267.0</ele><time>2026-05-01T13:28:20Z</time></trkpt><trkpt lat="43.21689654084391" lon="11.804928515908545"><ele>267.0</ele><time>2026-05-01T13:28:21Z</time></trkpt><trkpt lat="43.216665280971974" lon="11.805133619058223"><ele>267.0</ele><time>2026-05-01T13:28:22Z</time></trkpt><trkpt lat="43.21643261305245" lon="11.805340840176557"><ele>265.5</ele><time>2026-05-01T13:28:23Z</time></trkpt><trkpt lat="43.21619825929688" lon="11.805554493010847"><ele>264.0</ele><time>2026-05-01T13:28:24Z</time></trkpt><trkpt lat="43.215957278103794" lon="11.805771591025552"><ele>264.0</ele><time>2026-05-01T13:28:25Z</time></trkpt><trkpt lat="43.215710875896804" lon="11.805989205725398"><ele>264.0</ele><time>2026-05-01T13:28:26Z</time></trkpt><trkpt lat="43.2154637909432" lon="11.806200579690083"><ele>262.5</ele><time>2026-05-01T13:28:27Z</time></trkpt><trkpt lat="43.21521419152168" lon="11.806412134409072"><ele>261.0</ele><time>2026-05-01T13:28:28Z</time></trkpt><trkpt lat="43.214960388759856" lon="11.806625199200019"><ele>260.5</ele><time>2026-05-01T13:28:29Z</time></trkpt><trkpt lat="43.21470324030661" lon="11.806833679667948"><ele>260.0</ele><time>2026-05-01T13:28:30Z</time></trkpt><trkpt lat="43.21444422467297" lon="11.80703850664575"><ele>260.0</ele><time>2026-05-01T13:28:31Z</time></trkpt><trkpt lat="43.21418402747189" lon="11.807241834028735"><ele>260.0</ele><time>2026-05-01T13:28:32Z</time></trkpt><trkpt lat="43.21392669289423" lon="11.807443774718706"><ele>259.5</ele><time>2026-05-01T13:28:33Z</time></trkpt><trkpt lat="43.21366993438887" lon="11.807642985236093"><ele>259.0</ele><time>2026-05-01T13:28:34Z</time></trkpt><trkpt lat="43.213411335500346" lon="11.807836251388105"><ele>257.5</ele><time>2026-05-01T13:28:35Z</time></trkpt><trkpt lat="43.21314807978904" lon="11.808029905493278"><ele>256.0</ele><time>2026-05-01T13:28:36Z</time></trkpt><trkpt lat="43.212884397388315" lon="11.808219314825386"><ele>256.0</ele><time>2026-05-01T13:28:37Z</time></trkpt><trkpt lat="43.21262509988009" lon="11.808403556326647"><ele>256.0</ele><time>2026-05-01T13:28:38Z</time></trkpt><trkpt lat="43.21236991747647" lon="11.80858162109342"><ele>256.0</ele><time>2026-05-01T13:28:39Z</time></trkpt><trkpt lat="43.212119381990256" lon="11.808759221686909"><ele>256.0</ele><time>2026-05-01T13:28:40Z</time></trkpt><trkpt lat="43.21186927729256" lon="11.808939904807074"><ele>256.0</ele><time>2026-05-01T13:28:41Z</time></trkpt><trkpt lat="43.211618047218344" lon="11.809119141359012"><ele>256.0</ele><time>2026-05-01T13:28:42Z</time></trkpt><trkpt lat="43.21136876483928" lon="11.809296964380318"><ele>255.0</ele><time>2026-05-01T13:28:43Z</time></trkpt><trkpt lat="43.21111769485996" lon="11.809475215748884"><ele>254.0</ele><time>2026-05-01T13:28:44Z</time></trkpt><trkpt lat="43.210866895524255" lon="11.809655321004353"><ele>255.0</ele><time>2026-05-01T13:28:45Z</time></trkpt><trkpt lat="43.210614609105846" lon="11.809835335036926"><ele>256.0</ele><time>2026-05-01T13:28:46Z</time></trkpt><trkpt lat="43.210363389135296" lon="11.810014654958557"><ele>253.5</ele><time>2026-05-01T13:28:47Z</time></trkpt><trkpt lat="43.21011450664999" lon="11.810193067468596"><ele>251.0</ele><time>2026-05-01T13:28:48Z</time></trkpt><trkpt lat="43.20986715126134" lon="11.81036748601007"><ele>250.5</ele><time>2026-05-01T13:28:49Z</time></trkpt><trkpt lat="43.20962381339758" lon="11.810539485199921"><ele>250.0</ele><time>2026-05-01T13:28:50Z</time></trkpt><trkpt lat="43.20938363775151" lon="11.81071113760142"><ele>250.0</ele><time>2026-05-01T13:28:51Z</time></trkpt><trkpt lat="43.209148297373346" lon="11.810879095075839"><ele>250.0</ele><time>2026-05-01T13:28:52Z</time></trkpt><trkpt lat="43.20891728228601" lon="11.811044368496637"><ele>251.5</ele><time>2026-05-01T13:28:53Z</time></trkpt><trkpt lat="43.20868724037596" lon="11.811209171665313"><ele>253.0</ele><time>2026-05-01T13:28:54Z</time></trkpt><trkpt lat="43.208457335829074" lon="11.81137251380742"><ele>253.0</ele><time>2026-05-01T13:28:55Z</time></trkpt><trkpt lat="43.20822417272056" lon="11.811537783206703"><ele>253.0</ele><time>2026-05-01T13:28:56Z</time></trkpt><trkpt lat="43.20798747033802" lon="11.811706780066762"><ele>251.0</ele><time>2026-05-01T13:28:57Z</time></trkpt><trkpt lat="43.20774684596255" lon="11.811877753398056"><ele>249.0</ele><time>2026-05-01T13:28:58Z</time></trkpt><trkpt lat="43.207499753261224" lon="11.812051258060158"><ele>251.0</ele><time>2026-05-01T13:28:59Z</time></trkpt><trkpt lat="43.2072484282729" lon="11.812225306024134"><ele>253.0</ele><time>2026-05-01T13:29:00Z</time></trkpt><trkpt lat="43.207000300195304" lon="11.812401163958754"><ele>253.0</ele><time>2026-05-01T13:29:01Z</time></trkpt><trkpt lat="43.20675293772229" lon="11.812578751160517"><ele>253.0</ele><time>2026-05-01T13:29:02Z</time></trkpt><trkpt lat="43.20650505099923" lon="11.812759547382521"><ele>251.5</ele><time>2026-05-01T13:29:03Z</time></trkpt><trkpt lat="43.20625479076504" lon="11.812938681893757"><ele>250.0</ele><time>2026-05-01T13:29:04Z</time></trkpt><trkpt lat="43.20600476918791" lon="11.813117717783426"><ele>250.0</ele><time>2026-05-01T13:29:05Z</time></trkpt><trkpt lat="43.205760590354195" lon="11.813289791852545"><ele>250.0</ele><time>2026-05-01T13:29:06Z</time></trkpt><trkpt lat="43.20552383175001" lon="11.81345639477558"><ele>250.5</ele><time>2026-05-01T13:29:07Z</time></trkpt><trkpt lat="43.20529092724732" lon="11.813619450588597"><ele>251.0</ele><time>2026-05-01T13:29:08Z</time></trkpt><trkpt lat="43.20505967107637" lon="11.813781641541624"><ele>251.0</ele><time>2026-05-01T13:29:09Z</time></trkpt><trkpt lat="43.20483166487991" lon="11.813945699143058"><ele>251.0</ele><time>2026-05-01T13:29:10Z</time></trkpt><trkpt lat="43.204605618328785" lon="11.81410930568543"><ele>252.0</ele><time>2026-05-01T13:29:11Z</time></trkpt><trkpt lat="43.20437772386749" lon="11.81427207030888"><ele>253.0</ele><time>2026-05-01T13:29:12Z</time></trkpt><trkpt lat="43.204148176402384" lon="11.814435121127993"><ele>253.0</ele><time>2026-05-01T13:29:13Z</time></trkpt><trkpt lat="43.20391833736434" lon="11.814599774778815"><ele>253.0</ele><time>2026-05-01T13:29:14Z</time></trkpt><trkpt lat="43.203686802098964" lon="11.814765612747978"><ele>253.0</ele><time>2026-05-01T13:29:15Z</time></trkpt><trkpt lat="43.203455041891466" lon="11.814932833587529"><ele>253.0</ele><time>2026-05-01T13:29:16Z</time></trkpt><trkpt lat="43.20321988930889" lon="11.815099390692108"><ele>252.0</ele><time>2026-05-01T13:29:17Z</time></trkpt><trkpt lat="43.202985551906195" lon="11.81526268157173"><ele>251.0</ele><time>2026-05-01T13:29:18Z</time></trkpt><trkpt lat="43.20275100589157" lon="11.815427485638057"><ele>251.0</ele><time>2026-05-01T13:29:19Z</time></trkpt><trkpt lat="43.20251680877996" lon="11.815593085733743"><ele>251.0</ele><time>2026-05-01T13:29:20Z</time></trkpt><trkpt lat="43.20228218909062" lon="11.815759305803986"><ele>251.5</ele><time>2026-05-01T13:29:21Z</time></trkpt><trkpt lat="43.202048235854605" lon="11.815923616397004"><ele>252.0</ele><time>2026-05-01T13:29:22Z</time></trkpt><trkpt lat="43.201813333700116" lon="11.816091198645431"><ele>252.0</ele><time>2026-05-01T13:29:23Z</time></trkpt><trkpt lat="43.20157583240436" lon="11.816262193020071"><ele>252.0</ele><time>2026-05-01T13:29:24Z</time></trkpt><trkpt lat="43.20133485354789" lon="11.816433909807019"><ele>252.0</ele><time>2026-05-01T13:29:25Z</time></trkpt><trkpt lat="43.2010920810996" lon="11.81660819719448"><ele>252.0</ele><time>2026-05-01T13:29:26Z</time></trkpt><trkpt lat="43.20084577500597" lon="11.81678257276749"><ele>251.0</ele><time>2026-05-01T13:29:27Z</time></trkpt><trkpt lat="43.20059790058186" lon="11.81695571241389"><ele>250.0</ele><time>2026-05-01T13:29:28Z</time></trkpt><trkpt lat="43.200347541067984" lon="11.817131311319677"><ele>250.0</ele><time>2026-05-01T13:29:29Z</time></trkpt><trkpt lat="43.20009645819441" lon="11.817311511274395"><ele>250.0</ele><time>2026-05-01T13:29:30Z</time></trkpt><trkpt lat="43.19984617912041" lon="11.81749135844848"><ele>249.5</ele><time>2026-05-01T13:29:31Z</time></trkpt><trkpt lat="43.1995949547024" lon="11.817668946643145"><ele>249.0</ele><time>2026-05-01T13:29:32Z</time></trkpt><trkpt lat="43.19934241463164" lon="11.817849189946365"><ele>249.0</ele><time>2026-05-01T13:29:33Z</time></trkpt><trkpt lat="43.19909015524969" lon="11.818032973536587"><ele>249.0</ele><time>2026-05-01T13:29:34Z</time></trkpt><trkpt lat="43.198837035352184" lon="11.818216573540694"><ele>249.0</ele><time>2026-05-01T13:29:35Z</time></trkpt><trkpt lat="43.19858244856062" lon="11.818399547859995"><ele>249.0</ele><time>2026-05-01T13:29:36Z</time></trkpt><trkpt lat="43.19832423631327" lon="11.81858349683083"><ele>249.0</ele><time>2026-05-01T13:29:37Z</time></trkpt><trkpt lat="43.1980618796742" lon="11.818770896101345"><ele>249.0</ele><time>2026-05-01T13:29:38Z</time></trkpt><trkpt lat="43.19779479283566" lon="11.818959437088903"><ele>249.0</ele><time>2026-05-01T13:29:38.999Z</time></trkpt><trkpt lat="43.19751767185578" lon="11.819157117002643"><ele>249.0</ele><time>2026-05-01T13:29:39.999Z</time></trkpt><trkpt lat="43.19722367882" lon="11.819368540577523"><ele>250.0</ele><time>2026-05-01T13:29:40.999Z</time></trkpt><trkpt lat="43.196920581673695" lon="11.819581577841548"><ele>251.0</ele><time>2026-05-01T13:29:41.999Z</time></trkpt><trkpt lat="43.19661777360163" lon="11.819793465942505"><ele>251.0</ele><time>2026-05-01T13:29:42.999Z</time></trkpt><trkpt lat="43.196319862865636" lon="11.820000886396434"><ele>251.0</ele><time>2026-05-01T13:29:43.999Z</time></trkpt><trkpt lat="43.196027760243844" lon="11.820208631090315"><ele>251.0</ele><time>2026-05-01T13:29:44.999Z</time></trkpt><trkpt lat="43.195738936794655" lon="11.820416958553096"><ele>251.0</ele><time>2026-05-01T13:29:45.999Z</time></trkpt><trkpt lat="43.195448007827366" lon="11.820625238833317"><ele>250.5</ele><time>2026-05-01T13:29:46.999Z</time></trkpt><trkpt lat="43.19515394784141" lon="11.820831411969548"><ele>250.0</ele><time>2026-05-01T13:29:47.999Z</time></trkpt><trkpt lat="43.194856610397906" lon="11.82103411698312"><ele>250.0</ele><time>2026-05-01T13:29:48.999Z</time></trkpt><trkpt lat="43.194558669689194" lon="11.821233125631679"><ele>250.0</ele><time>2026-05-01T13:29:49.999Z</time></trkpt><trkpt lat="43.194256781881016" lon="11.821427051119977"><ele>250.0</ele><time>2026-05-01T13:29:50.999Z</time></trkpt><trkpt lat="43.19395783541561" lon="11.821617242194579"><ele>250.0</ele><time>2026-05-01T13:29:51.999Z</time></trkpt><trkpt lat="43.19365868384634" lon="11.821807358961813"><ele>250.0</ele><time>2026-05-01T13:29:52.999Z</time></trkpt><trkpt lat="43.19335814175416" lon="11.82199684855059"><ele>250.0</ele><time>2026-05-01T13:29:53.999Z</time></trkpt><trkpt lat="43.19305559613863" lon="11.822184137943488"><ele>251.0</ele><time>2026-05-01T13:29:54.999Z</time></trkpt><trkpt lat="43.192751506870245" lon="11.822367729938334"><ele>252.0</ele><time>2026-05-01T13:29:55.999Z</time></trkpt><trkpt lat="43.19244498316707" lon="11.822550226541159"><ele>250.5</ele><time>2026-05-01T13:29:56.999Z</time></trkpt><trkpt lat="43.19213736068133" lon="11.822729915384826"><ele>249.0</ele><time>2026-05-01T13:29:57.999Z</time></trkpt><trkpt lat="43.191829956022666" lon="11.822910245427416"><ele>249.0</ele><time>2026-05-01T13:29:58.999Z</time></trkpt><trkpt lat="43.191522334324766" lon="11.823091170836209"><ele>249.0</ele><time>2026-05-01T13:29:59.999Z</time></trkpt><trkpt lat="43.19121584674388" lon="11.823272858289199"><ele>249.0</ele><time>2026-05-01T13:30:00.999Z</time></trkpt><trkpt lat="43.190909646432175" lon="11.823455127502598"><ele>249.0</ele><time>2026-05-01T13:30:01.999Z</time></trkpt><trkpt lat="43.1906035576429" lon="11.823640011169113"><ele>247.0</ele><time>2026-05-01T13:30:02.999Z</time></trkpt><trkpt lat="43.19029491461136" lon="11.823828130055677"><ele>245.0</ele><time>2026-05-01T13:30:03.999Z</time></trkpt><trkpt lat="43.189983324858105" lon="11.824017837082378"><ele>246.0</ele><time>2026-05-01T13:30:04.999Z</time></trkpt><trkpt lat="43.1896706779098" lon="11.824208430677698"><ele>247.0</ele><time>2026-05-01T13:30:05.999Z</time></trkpt><trkpt lat="43.18935487237705" lon="11.824400032736673"><ele>247.5</ele><time>2026-05-01T13:30:06.999Z</time></trkpt><trkpt lat="43.18903996253394" lon="11.824591376729051"><ele>248.0</ele><time>2026-05-01T13:30:07.999Z</time></trkpt><trkpt lat="43.1887273835275" lon="11.824780655621181"><ele>248.0</ele><time>2026-05-01T13:30:08.999Z</time></trkpt><trkpt lat="43.188414457104685" lon="11.824969869284848"><ele>248.0</ele><time>2026-05-01T13:30:09.999Z</time></trkpt><trkpt lat="43.188100941082396" lon="11.825160123125064"><ele>248.0</ele><time>2026-05-01T13:30:10.999Z</time></trkpt><trkpt lat="43.187789488287926" lon="11.825352370763328"><ele>248.0</ele><time>2026-05-01T13:30:11.999Z</time></trkpt><trkpt lat="43.187477620331975" lon="11.825545296447874"><ele>248.5</ele><time>2026-05-01T13:30:12.999Z</time></trkpt><trkpt lat="43.18716528717017" lon="11.82573982203346"><ele>249.0</ele><time>2026-05-01T13:30:13.999Z</time></trkpt><trkpt lat="43.18684931717204" lon="11.82593622252986"><ele>249.5</ele><time>2026-05-01T13:30:14.999Z</time></trkpt><trkpt lat="43.18653096307955" lon="11.826130999398114"><ele>250.0</ele><time>2026-05-01T13:30:15.999Z</time></trkpt><trkpt lat="43.18620938945462" lon="11.826324521920569"><ele>251.0</ele><time>2026-05-01T13:30:17Z</time></trkpt><trkpt lat="43.185887993784526" lon="11.826518923036305"><ele>252.0</ele><time>2026-05-01T13:30:18Z</time></trkpt><trkpt lat="43.18555462065847" lon="11.826720071710417"><ele>249.5</ele><time>2026-05-01T13:30:19Z</time></trkpt><trkpt lat="43.18520670588959" lon="11.826935387642509"><ele>247.0</ele><time>2026-05-01T13:30:20Z</time></trkpt><trkpt lat="43.184860121989196" lon="11.827153112881385"><ele>246.5</ele><time>2026-05-01T13:30:21Z</time></trkpt><trkpt lat="43.18451805952645" lon="11.82736456122279"><ele>246.0</ele><time>2026-05-01T13:30:22Z</time></trkpt><trkpt lat="43.18418373199975" lon="11.827566550514712"><ele>246.5</ele><time>2026-05-01T13:30:23Z</time></trkpt><trkpt lat="43.1838582795691" lon="11.827760790847202"><ele>247.0</ele><time>2026-05-01T13:30:24Z</time></trkpt><trkpt lat="43.18353833542646" lon="11.82795624264486"><ele>247.0</ele><time>2026-05-01T13:30:25Z</time></trkpt><trkpt lat="43.183219380303115" lon="11.828150881421754"><ele>247.0</ele><time>2026-05-01T13:30:26Z</time></trkpt><trkpt lat="43.18290278560495" lon="11.828344659782159"><ele>248.0</ele><time>2026-05-01T13:30:27Z</time></trkpt><trkpt lat="43.1825906179015" lon="11.828537392161877"><ele>249.0</ele><time>2026-05-01T13:30:28Z</time></trkpt><trkpt lat="43.18228010571797" lon="11.828733319552473"><ele>251.5</ele><time>2026-05-01T13:30:29Z</time></trkpt><trkpt lat="43.18197117926826" lon="11.828929079969111"><ele>254.0</ele><time>2026-05-01T13:30:30Z</time></trkpt><trkpt lat="43.181661972089415" lon="11.829123612078051"><ele>253.5</ele><time>2026-05-01T13:30:31Z</time></trkpt><trkpt lat="43.18135534075543" lon="11.829316820494396"><ele>253.0</ele><time>2026-05-01T13:30:32Z</time></trkpt><trkpt lat="43.18105053959375" lon="11.829508902437738"><ele>253.0</ele><time>2026-05-01T13:30:33Z</time></trkpt><trkpt lat="43.18074557175147" lon="11.829698433263767"><ele>253.0</ele><time>2026-05-01T13:30:34Z</time></trkpt><trkpt lat="43.18044252848944" lon="11.829888723218447"><ele>252.5</ele><time>2026-05-01T13:30:35Z</time></trkpt><trkpt lat="43.18014077277466" lon="11.830074439121235"><ele>252.0</ele><time>2026-05-01T13:30:36Z</time></trkpt><trkpt lat="43.179835799289535" lon="11.830256814246116"><ele>250.5</ele><time>2026-05-01T13:30:37Z</time></trkpt><trkpt lat="43.17953413207407" lon="11.830441579225875"><ele>249.0</ele><time>2026-05-01T13:30:38Z</time></trkpt><trkpt lat="43.17922896175318" lon="11.830628380929113"><ele>249.0</ele><time>2026-05-01T13:30:39Z</time></trkpt><trkpt lat="43.17891952392231" lon="11.830819470032406"><ele>249.0</ele><time>2026-05-01T13:30:40Z</time></trkpt><trkpt lat="43.17860467718183" lon="11.831011442404058"><ele>249.0</ele><time>2026-05-01T13:30:41Z</time></trkpt><trkpt lat="43.17828766810947" lon="11.831203339354737"><ele>249.0</ele><time>2026-05-01T13:30:42Z</time></trkpt><trkpt lat="43.177966030756046" lon="11.831398501637851"><ele>249.5</ele><time>2026-05-01T13:30:43Z</time></trkpt><trkpt lat="43.177633658404076" lon="11.831603167039649"><ele>250.0</ele><time>2026-05-01T13:30:44Z</time></trkpt><trkpt lat="43.17728949481835" lon="11.831815556873854"><ele>250.5</ele><time>2026-05-01T13:30:45Z</time></trkpt><trkpt lat="43.17694757053868" lon="11.832024922806168"><ele>251.0</ele><time>2026-05-01T13:30:46Z</time></trkpt><trkpt lat="43.17661081520225" lon="11.832228507957684"><ele>250.5</ele><time>2026-05-01T13:30:47Z</time></trkpt><trkpt lat="43.17627985659266" lon="11.832430211720643"><ele>250.0</ele><time>2026-05-01T13:30:48Z</time></trkpt><trkpt lat="43.1759491652269" lon="11.832631025971196"><ele>250.5</ele><time>2026-05-01T13:30:49Z</time></trkpt><trkpt lat="43.17561692068473" lon="11.83283576903331"><ele>251.0</ele><time>2026-05-01T13:30:50Z</time></trkpt><trkpt lat="43.17528537904671" lon="11.83303985085347"><ele>251.0</ele><time>2026-05-01T13:30:51Z</time></trkpt><trkpt lat="43.17495318393087" lon="11.833243456031113"><ele>251.0</ele><time>2026-05-01T13:30:52Z</time></trkpt><trkpt lat="43.17461862823926" lon="11.833447997785786"><ele>251.5</ele><time>2026-05-01T13:30:53Z</time></trkpt><trkpt lat="43.17428375543463" lon="11.833650591676374"><ele>252.0</ele><time>2026-05-01T13:30:54Z</time></trkpt><trkpt lat="43.17395042749775" lon="11.833853275825968"><ele>250.5</ele><time>2026-05-01T13:30:55Z</time></trkpt><trkpt lat="43.1736160967944" lon="11.834054126322181"><ele>249.0</ele><time>2026-05-01T13:30:56Z</time></trkpt><trkpt lat="43.17328064620042" lon="11.834256350339045"><ele>249.0</ele><time>2026-05-01T13:30:57Z</time></trkpt><trkpt lat="43.17294826882658" lon="11.834458310964852"><ele>249.0</ele><time>2026-05-01T13:30:58Z</time></trkpt><trkpt lat="43.17261505178297" lon="11.834665067322971"><ele>248.0</ele><time>2026-05-01T13:30:59Z</time></trkpt><trkpt lat="43.17228703263956" lon="11.834870358095529"><ele>247.0</ele><time>2026-05-01T13:31:00Z</time></trkpt><trkpt lat="43.171959923635676" lon="11.835076261555248"><ele>247.5</ele><time>2026-05-01T13:31:01Z</time></trkpt><trkpt lat="43.17163425164797" lon="11.835281702706293"><ele>248.0</ele><time>2026-05-01T13:31:02Z</time></trkpt><trkpt lat="43.171316272092234" lon="11.83549385319242"><ele>248.0</ele><time>2026-05-01T13:31:03Z</time></trkpt><trkpt lat="43.1709980635632" lon="11.83571772703765"><ele>248.0</ele><time>2026-05-01T13:31:04Z</time></trkpt><trkpt lat="43.17068235414947" lon="11.835948690664102"><ele>248.5</ele><time>2026-05-01T13:31:05Z</time></trkpt><trkpt lat="43.170366882115985" lon="11.836180959626432"><ele>249.0</ele><time>2026-05-01T13:31:06Z</time></trkpt><trkpt lat="43.170049060710866" lon="11.836413349916999"><ele>248.5</ele><time>2026-05-01T13:31:07Z</time></trkpt><trkpt lat="43.16972825521158" lon="11.836651578987333"><ele>248.0</ele><time>2026-05-01T13:31:08Z</time></trkpt><trkpt lat="43.16941151974953" lon="11.836899315043635"><ele>248.5</ele><time>2026-05-01T13:31:09Z</time></trkpt><trkpt lat="43.16910007326523" lon="11.837154903166018"><ele>249.0</ele><time>2026-05-01T13:31:10Z</time></trkpt><trkpt lat="43.168793765279894" lon="11.837413402675654"><ele>249.0</ele><time>2026-05-01T13:31:11Z</time></trkpt><trkpt lat="43.168489771310064" lon="11.837670512425126"><ele>249.0</ele><time>2026-05-01T13:31:12Z</time></trkpt><trkpt lat="43.16818385870507" lon="11.837926448043854"><ele>248.5</ele><time>2026-05-01T13:31:13Z</time></trkpt><trkpt lat="43.16787785449934" lon="11.83818299137928"><ele>248.0</ele><time>2026-05-01T13:31:14Z</time></trkpt><trkpt lat="43.16757268234033" lon="11.838434990640954"><ele>249.0</ele><time>2026-05-01T13:31:15Z</time></trkpt><trkpt lat="43.16726372583255" lon="11.838686590566676"><ele>250.0</ele><time>2026-05-01T13:31:16Z</time></trkpt><trkpt lat="43.16695820797254" lon="11.838939008162548"><ele>250.0</ele><time>2026-05-01T13:31:17Z</time></trkpt><trkpt lat="43.16665151332759" lon="11.839191696154588"><ele>250.0</ele><time>2026-05-01T13:31:18Z</time></trkpt><trkpt lat="43.16634965994066" lon="11.839440470153068"><ele>249.5</ele><time>2026-05-01T13:31:19Z</time></trkpt><trkpt lat="43.16604989163408" lon="11.839685048640616"><ele>249.0</ele><time>2026-05-01T13:31:20Z</time></trkpt><trkpt lat="43.16575693174059" lon="11.839925149314967"><ele>250.0</ele><time>2026-05-01T13:31:21Z</time></trkpt><trkpt lat="43.165469180680454" lon="11.840162010790063"><ele>251.0</ele><time>2026-05-01T13:31:22Z</time></trkpt><trkpt lat="43.16518559143929" lon="11.840398732780109"><ele>251.0</ele><time>2026-05-01T13:31:23Z</time></trkpt><trkpt lat="43.16490353072708" lon="11.840636005103523"><ele>251.0</ele><time>2026-05-01T13:31:24Z</time></trkpt><trkpt lat="43.16462018147149" lon="11.8408716223717"><ele>249.5</ele><time>2026-05-01T13:31:25Z</time></trkpt><trkpt lat="43.16433361533028" lon="11.841106444751293"><ele>248.0</ele><time>2026-05-01T13:31:26Z</time></trkpt><trkpt lat="43.16404539512087" lon="11.841340996907718"><ele>248.5</ele><time>2026-05-01T13:31:27Z</time></trkpt><trkpt lat="43.16375596850495" lon="11.841574747325092"><ele>249.0</ele><time>2026-05-01T13:31:28Z</time></trkpt><trkpt lat="43.16346681620418" lon="11.841812085888915"><ele>249.5</ele><time>2026-05-01T13:31:29Z</time></trkpt><trkpt lat="43.16317889625322" lon="11.84205129996548"><ele>250.0</ele><time>2026-05-01T13:31:30Z</time></trkpt><trkpt lat="43.16289207451381" lon="11.842291860787878"><ele>250.0</ele><time>2026-05-01T13:31:31Z</time></trkpt><trkpt lat="43.16260401468182" lon="11.842530108320473"><ele>250.0</ele><time>2026-05-01T13:31:32Z</time></trkpt><trkpt lat="43.1623112886447" lon="11.842769296869545"><ele>251.0</ele><time>2026-05-01T13:31:33Z</time></trkpt><trkpt lat="43.162020807648695" lon="11.843005491389036"><ele>252.0</ele><time>2026-05-01T13:31:34Z</time></trkpt><trkpt lat="43.16173202248944" lon="11.84324122941791"><ele>252.0</ele><time>2026-05-01T13:31:35Z</time></trkpt><trkpt lat="43.161440428472645" lon="11.84347974831268"><ele>252.0</ele><time>2026-05-01T13:31:36Z</time></trkpt><trkpt lat="43.1611516961901" lon="11.84371868853887"><ele>252.0</ele><time>2026-05-01T13:31:37Z</time></trkpt><trkpt lat="43.16086277791936" lon="11.843958466201713"><ele>252.0</ele><time>2026-05-01T13:31:38Z</time></trkpt><trkpt lat="43.160572545264024" lon="11.844199136071776"><ele>251.5</ele><time>2026-05-01T13:31:39Z</time></trkpt><trkpt lat="43.160284816564356" lon="11.8444373786329"><ele>251.0</ele><time>2026-05-01T13:31:40Z</time></trkpt><trkpt lat="43.16000018712587" lon="11.844670036030305"><ele>251.0</ele><time>2026-05-01T13:31:41Z</time></trkpt><trkpt lat="43.15972265781918" lon="11.844896568902993"><ele>251.0</ele><time>2026-05-01T13:31:41.999Z</time></trkpt><trkpt lat="43.15945363300798" lon="11.845120139795124"><ele>251.0</ele><time>2026-05-01T13:31:42.999Z</time></trkpt><trkpt lat="43.15919117619904" lon="11.845341709637678"><ele>251.0</ele><time>2026-05-01T13:31:43.999Z</time></trkpt><trkpt lat="43.15893167881559" lon="11.845560557489668"><ele>251.5</ele><time>2026-05-01T13:31:44.999Z</time></trkpt><trkpt lat="43.158677502184446" lon="11.845774959854873"><ele>252.0</ele><time>2026-05-01T13:31:45.999Z</time></trkpt><trkpt lat="43.15842277519415" lon="11.84598937233494"><ele>253.5</ele><time>2026-05-01T13:31:46.999Z</time></trkpt><trkpt lat="43.158159987223264" lon="11.846210409426012"><ele>255.0</ele><time>2026-05-01T13:31:47.999Z</time></trkpt><trkpt lat="43.15788669425966" lon="11.846440303684963"><ele>255.0</ele><time>2026-05-01T13:31:48.999Z</time></trkpt><trkpt lat="43.157614564818076" lon="11.84667225898178"><ele>255.0</ele><time>2026-05-01T13:31:49.999Z</time></trkpt><trkpt lat="43.15733765380079" lon="11.846906368468035"><ele>254.0</ele><time>2026-05-01T13:31:50.999Z</time></trkpt><trkpt lat="43.15705749678438" lon="11.847141813532208"><ele>253.0</ele><time>2026-05-01T13:31:51.999Z</time></trkpt><trkpt lat="43.1567767830184" lon="11.84737574617988"><ele>253.0</ele><time>2026-05-01T13:31:52.999Z</time></trkpt><trkpt lat="43.15649294111652" lon="11.84760840160131"><ele>253.0</ele><time>2026-05-01T13:31:53.999Z</time></trkpt><trkpt lat="43.15620848713034" lon="11.847839221091347"><ele>253.0</ele><time>2026-05-01T13:31:54.999Z</time></trkpt><trkpt lat="43.15592535109438" lon="11.848066034340569"><ele>253.0</ele><time>2026-05-01T13:31:55.999Z</time></trkpt><trkpt lat="43.155641434553225" lon="11.848289140963866"><ele>253.5</ele><time>2026-05-01T13:31:56.999Z</time></trkpt><trkpt lat="43.15535320839769" lon="11.84851428368355"><ele>254.0</ele><time>2026-05-01T13:31:57.999Z</time></trkpt><trkpt lat="43.15506577806772" lon="11.848742684257092"><ele>253.5</ele><time>2026-05-01T13:31:58.999Z</time></trkpt><trkpt lat="43.15478529751978" lon="11.848970324988608"><ele>253.0</ele><time>2026-05-01T13:31:59.999Z</time></trkpt><trkpt lat="43.154508649856744" lon="11.849199413485179"><ele>254.0</ele><time>2026-05-01T13:32:00.999Z</time></trkpt><trkpt lat="43.15423354840444" lon="11.849427759048858"><ele>255.0</ele><time>2026-05-01T13:32:01.999Z</time></trkpt><trkpt lat="43.153959659346796" lon="11.84965271297434"><ele>256.0</ele><time>2026-05-01T13:32:02.999Z</time></trkpt><trkpt lat="43.15368886502525" lon="11.849873957873355"><ele>257.0</ele><time>2026-05-01T13:32:03.999Z</time></trkpt><trkpt lat="43.15341651785764" lon="11.850094904138809"><ele>256.5</ele><time>2026-05-01T13:32:04.999Z</time></trkpt><trkpt lat="43.153145638006876" lon="11.850317250611937"><ele>256.0</ele><time>2026-05-01T13:32:05.999Z</time></trkpt><trkpt lat="43.15287685946469" lon="11.850540617514305"><ele>256.0</ele><time>2026-05-01T13:32:06.999Z</time></trkpt><trkpt lat="43.152608155318404" lon="11.850763075078957"><ele>256.0</ele><time>2026-05-01T13:32:07.999Z</time></trkpt><trkpt lat="43.15234065880964" lon="11.850984378406938"><ele>255.5</ele><time>2026-05-01T13:32:08.999Z</time></trkpt><trkpt lat="43.15207295481095" lon="11.851205364479764"><ele>255.0</ele><time>2026-05-01T13:32:09.999Z</time></trkpt><trkpt lat="43.15180464315487" lon="11.85142894525561"><ele>255.0</ele><time>2026-05-01T13:32:10.999Z</time></trkpt><trkpt lat="43.15153633858828" lon="11.851649407676497"><ele>255.0</ele><time>2026-05-01T13:32:11.999Z</time></trkpt><trkpt lat="43.1512685729021" lon="11.851869317814826"><ele>255.0</ele><time>2026-05-01T13:32:12.999Z</time></trkpt><trkpt lat="43.151001810428475" lon="11.8520877187618"><ele>255.0</ele><time>2026-05-01T13:32:13.999Z</time></trkpt><trkpt lat="43.15073483255424" lon="11.852307572608103"><ele>255.0</ele><time>2026-05-01T13:32:14.999Z</time></trkpt><trkpt lat="43.150461335852924" lon="11.852529685338254"><ele>255.0</ele><time>2026-05-01T13:32:15.999Z</time></trkpt><trkpt lat="43.150191405098774" lon="11.852751560994127"><ele>255.0</ele><time>2026-05-01T13:32:16.999Z</time></trkpt><trkpt lat="43.14991862190012" lon="11.85297529495581"><ele>255.0</ele><time>2026-05-01T13:32:17.999Z</time></trkpt><trkpt lat="43.14964774388717" lon="11.85320294527405"><ele>255.0</ele><time>2026-05-01T13:32:18.999Z</time></trkpt><trkpt lat="43.14937203041665" lon="11.853432594361502"><ele>255.0</ele><time>2026-05-01T13:32:19.999Z</time></trkpt><trkpt lat="43.1490969942374" lon="11.85366417990557"><ele>255.0</ele><time>2026-05-01T13:32:20.999Z</time></trkpt><trkpt lat="43.148823301725265" lon="11.85389048782212"><ele>255.0</ele><time>2026-05-01T13:32:21.999Z</time></trkpt><trkpt lat="43.14854811661006" lon="11.85411791999201"><ele>255.0</ele><time>2026-05-01T13:32:23Z</time></trkpt><trkpt lat="43.148271408625256" lon="11.854343827493157"><ele>255.0</ele><time>2026-05-01T13:32:24Z</time></trkpt><trkpt lat="43.14799890618851" lon="11.854567563434195"><ele>256.0</ele><time>2026-05-01T13:32:25Z</time></trkpt><trkpt lat="43.14772941120254" lon="11.854792195632305"><ele>257.0</ele><time>2026-05-01T13:32:26Z</time></trkpt><trkpt lat="43.147458496994346" lon="11.855017838767196"><ele>255.5</ele><time>2026-05-01T13:32:27Z</time></trkpt><trkpt lat="43.14718804269109" lon="11.85524268106077"><ele>254.0</ele><time>2026-05-01T13:32:28Z</time></trkpt><trkpt lat="43.14691687858156" lon="11.855466498639654"><ele>254.0</ele><time>2026-05-01T13:32:29Z</time></trkpt><trkpt lat="43.146645887902004" lon="11.85568941881865"><ele>254.0</ele><time>2026-05-01T13:32:30Z</time></trkpt><trkpt lat="43.14637336395358" lon="11.855913501777044"><ele>253.5</ele><time>2026-05-01T13:32:31Z</time></trkpt><trkpt lat="43.14610057193894" lon="11.856136905269242"><ele>253.0</ele><time>2026-05-01T13:32:32Z</time></trkpt><trkpt lat="43.145828021464446" lon="11.856361361092043"><ele>253.0</ele><time>2026-05-01T13:32:33Z</time></trkpt><trkpt lat="43.14555463545128" lon="11.85658768191684"><ele>253.0</ele><time>2026-05-01T13:32:34Z</time></trkpt><trkpt lat="43.14528071291693" lon="11.856812829037274"><ele>253.0</ele><time>2026-05-01T13:32:35Z</time></trkpt><trkpt lat="43.14500435466262" lon="11.85703711634544"><ele>253.0</ele><time>2026-05-01T13:32:36Z</time></trkpt><trkpt lat="43.14472934479623" lon="11.85726286568812"><ele>253.0</ele><time>2026-05-01T13:32:37Z</time></trkpt><trkpt lat="43.144455295943615" lon="11.857487334785361"><ele>253.0</ele><time>2026-05-01T13:32:38Z</time></trkpt><trkpt lat="43.1441843281896" lon="11.857709825893924"><ele>255.0</ele><time>2026-05-01T13:32:39Z</time></trkpt><trkpt lat="43.14391326381363" lon="11.85793235398257"><ele>257.0</ele><time>2026-05-01T13:32:40Z</time></trkpt><trkpt lat="43.14363952218984" lon="11.85815754151635"><ele>257.0</ele><time>2026-05-01T13:32:41Z</time></trkpt><trkpt lat="43.14336412085324" lon="11.858384826258359"><ele>257.0</ele><time>2026-05-01T13:32:42Z</time></trkpt><trkpt lat="43.14308976054989" lon="11.858610127653545"><ele>256.0</ele><time>2026-05-01T13:32:43Z</time></trkpt><trkpt lat="43.14281751047096" lon="11.858833565665577"><ele>255.0</ele><time>2026-05-01T13:32:44Z</time></trkpt><trkpt lat="43.14254877172336" lon="11.859054963849074"><ele>254.0</ele><time>2026-05-01T13:32:45Z</time></trkpt><trkpt lat="43.14228014221306" lon="11.859274385486563"><ele>253.0</ele><time>2026-05-01T13:32:46Z</time></trkpt><trkpt lat="43.142013969578294" lon="11.859491722032542"><ele>253.0</ele><time>2026-05-01T13:32:47Z</time></trkpt><trkpt lat="43.14174777125623" lon="11.859710084238017"><ele>253.0</ele><time>2026-05-01T13:32:48Z</time></trkpt><trkpt lat="43.1414814615296" lon="11.859928003358753"><ele>252.5</ele><time>2026-05-01T13:32:49Z</time></trkpt><trkpt lat="43.14121509599522" lon="11.860145632962164"><ele>252.0</ele><time>2026-05-01T13:32:50Z</time></trkpt><trkpt lat="43.140947918999416" lon="11.860364976428414"><ele>251.0</ele><time>2026-05-01T13:32:51Z</time></trkpt><trkpt lat="43.14068036966486" lon="11.860586125557107"><ele>250.0</ele><time>2026-05-01T13:32:52Z</time></trkpt><trkpt lat="43.14041159466511" lon="11.860809703132508"><ele>251.5</ele><time>2026-05-01T13:32:53Z</time></trkpt><trkpt lat="43.14014193627795" lon="11.861032585269301"><ele>253.0</ele><time>2026-05-01T13:32:54Z</time></trkpt><trkpt lat="43.13986840581252" lon="11.861256955706077"><ele>254.0</ele><time>2026-05-01T13:32:55Z</time></trkpt><trkpt lat="43.13959415017822" lon="11.8614816199838"><ele>255.0</ele><time>2026-05-01T13:32:56Z</time></trkpt><trkpt lat="43.13931941790229" lon="11.861709044007245"><ele>255.0</ele><time>2026-05-01T13:32:57Z</time></trkpt><trkpt lat="43.139043127543104" lon="11.861941120905648"><ele>255.0</ele><time>2026-05-01T13:32:58Z</time></trkpt><trkpt lat="43.138767200938815" lon="11.862175328563753"><ele>255.0</ele><time>2026-05-01T13:32:59Z</time></trkpt><trkpt lat="43.13848590944509" lon="11.862409659958706"><ele>255.0</ele><time>2026-05-01T13:33:00Z</time></trkpt><trkpt lat="43.138203767223985" lon="11.862644260717463"><ele>256.0</ele><time>2026-05-01T13:33:01Z</time></trkpt><trkpt lat="43.137921700821124" lon="11.862881529121529"><ele>257.0</ele><time>2026-05-01T13:33:02Z</time></trkpt><trkpt lat="43.13763830971931" lon="11.863119059354103"><ele>257.0</ele><time>2026-05-01T13:33:03Z</time></trkpt><trkpt lat="43.137353568195365" lon="11.863358581180401"><ele>257.0</ele><time>2026-05-01T13:33:04Z</time></trkpt><trkpt lat="43.13706577711426" lon="11.86359851186481"><ele>256.5</ele><time>2026-05-01T13:33:05Z</time></trkpt><trkpt lat="43.136779949924964" lon="11.863840370280164"><ele>256.0</ele><time>2026-05-01T13:33:06Z</time></trkpt><trkpt lat="43.1364917282684" lon="11.864082445950029"><ele>258.5</ele><time>2026-05-01T13:33:07Z</time></trkpt><trkpt lat="43.13620201067639" lon="11.864324075411657"><ele>261.0</ele><time>2026-05-01T13:33:08Z</time></trkpt><trkpt lat="43.13591154676347" lon="11.864564276019477"><ele>259.0</ele><time>2026-05-01T13:33:09Z</time></trkpt><trkpt lat="43.13562289141746" lon="11.86480179934874"><ele>257.0</ele><time>2026-05-01T13:33:10Z</time></trkpt><trkpt lat="43.13533686603898" lon="11.865035519865547"><ele>257.0</ele><time>2026-05-01T13:33:11Z</time></trkpt><trkpt lat="43.135054791300945" lon="11.86526758162549"><ele>257.0</ele><time>2026-05-01T13:33:12Z</time></trkpt><trkpt lat="43.13477421404102" lon="11.865500937270827"><ele>256.0</ele><time>2026-05-01T13:33:13Z</time></trkpt><trkpt lat="43.13449555984018" lon="11.865732796515905"><ele>255.0</ele><time>2026-05-01T13:33:14Z</time></trkpt><trkpt lat="43.13421662281627" lon="11.865962956966026"><ele>254.5</ele><time>2026-05-01T13:33:15Z</time></trkpt><trkpt lat="43.133937771393335" lon="11.866191505345784"><ele>254.0</ele><time>2026-05-01T13:33:16Z</time></trkpt><trkpt lat="43.13365782965177" lon="11.866420845104086"><ele>254.0</ele><time>2026-05-01T13:33:17Z</time></trkpt><trkpt lat="43.133379015426236" lon="11.866653111325702"><ele>254.0</ele><time>2026-05-01T13:33:18Z</time></trkpt><trkpt lat="43.13310315051447" lon="11.866883575170267"><ele>254.5</ele><time>2026-05-01T13:33:19Z</time></trkpt><trkpt lat="43.132827531264105" lon="11.86711220493928"><ele>255.0</ele><time>2026-05-01T13:33:20Z</time></trkpt><trkpt lat="43.132551293374384" lon="11.867340759933363"><ele>255.0</ele><time>2026-05-01T13:33:21Z</time></trkpt><trkpt lat="43.132276657331026" lon="11.867567800933202"><ele>255.0</ele><time>2026-05-01T13:33:22Z</time></trkpt><trkpt lat="43.13200047505775" lon="11.86779552419784"><ele>253.5</ele><time>2026-05-01T13:33:23Z</time></trkpt><trkpt lat="43.131725079606674" lon="11.868022188250755"><ele>252.0</ele><time>2026-05-01T13:33:24Z</time></trkpt><trkpt lat="43.13144683355152" lon="11.86824618168397"><ele>252.0</ele><time>2026-05-01T13:33:25Z</time></trkpt><trkpt lat="43.13116745423185" lon="11.86847055237251"><ele>252.0</ele><time>2026-05-01T13:33:26Z</time></trkpt><trkpt lat="43.1308898594244" lon="11.86869490918233"><ele>252.0</ele><time>2026-05-01T13:33:27Z</time></trkpt><trkpt lat="43.1306106441206" lon="11.86892052547016"><ele>252.0</ele><time>2026-05-01T13:33:28Z</time></trkpt><trkpt lat="43.1303297228641" lon="11.869147740021303"><ele>252.5</ele><time>2026-05-01T13:33:29Z</time></trkpt><trkpt lat="43.13005031541382" lon="11.86937994508243"><ele>253.0</ele><time>2026-05-01T13:33:30Z</time></trkpt><trkpt lat="43.12976999916167" lon="11.869611994189667"><ele>252.0</ele><time>2026-05-01T13:33:31Z</time></trkpt><trkpt lat="43.12949115726709" lon="11.869840077432112"><ele>251.0</ele><time>2026-05-01T13:33:32Z</time></trkpt><trkpt lat="43.12920965081699" lon="11.87007266912861"><ele>250.5</ele><time>2026-05-01T13:33:33Z</time></trkpt><trkpt lat="43.12892706102897" lon="11.870300039492486"><ele>250.0</ele><time>2026-05-01T13:33:34Z</time></trkpt><trkpt lat="43.12863407516454" lon="11.870508675884972"><ele>250.0</ele><time>2026-05-01T13:33:35Z</time></trkpt><trkpt lat="43.128333231390656" lon="11.870689862483784"><ele>250.0</ele><time>2026-05-01T13:33:36Z</time></trkpt><trkpt lat="43.128023716724385" lon="11.870848982817964"><ele>250.5</ele><time>2026-05-01T13:33:37Z</time></trkpt><trkpt lat="43.1277063171358" lon="11.870981527782911"><ele>251.0</ele><time>2026-05-01T13:33:38Z</time></trkpt><trkpt lat="43.12738086241175" lon="11.871092100982855"><ele>251.0</ele><time>2026-05-01T13:33:39Z</time></trkpt><trkpt lat="43.12705090808813" lon="11.871175113485238"><ele>251.0</ele><time>2026-05-01T13:33:40Z</time></trkpt><trkpt lat="43.12671845596688" lon="11.871233496897748"><ele>251.5</ele><time>2026-05-01T13:33:41Z</time></trkpt><trkpt lat="43.12638430038225" lon="11.871269369185043"><ele>252.0</ele><time>2026-05-01T13:33:42Z</time></trkpt><trkpt lat="43.12604760475215" lon="11.871281976319958"><ele>252.5</ele><time>2026-05-01T13:33:43Z</time></trkpt><trkpt lat="43.125710654628165" lon="11.871271338746382"><ele>253.0</ele><time>2026-05-01T13:33:44Z</time></trkpt><trkpt lat="43.12537419115042" lon="11.871239010210008"><ele>253.0</ele><time>2026-05-01T13:33:45Z</time></trkpt><trkpt lat="43.12503836705855" lon="11.871194998786391"><ele>253.0</ele><time>2026-05-01T13:33:46Z</time></trkpt><trkpt lat="43.124705255158716" lon="11.871150593194086"><ele>253.0</ele><time>2026-05-01T13:33:47Z</time></trkpt><trkpt lat="43.1243742623176" lon="11.871110043984585"><ele>253.0</ele><time>2026-05-01T13:33:48Z</time></trkpt><trkpt lat="43.12404535046494" lon="11.871071195043257"><ele>253.5</ele><time>2026-05-01T13:33:49Z</time></trkpt><trkpt lat="43.12371588644604" lon="11.87103553703173"><ele>254.0</ele><time>2026-05-01T13:33:50Z</time></trkpt><trkpt lat="43.12338191426505" lon="11.871000108018183"><ele>254.0</ele><time>2026-05-01T13:33:51Z</time></trkpt><trkpt lat="43.12304605609755" lon="11.870962123926349"><ele>254.0</ele><time>2026-05-01T13:33:52Z</time></trkpt><trkpt lat="43.12270911842238" lon="11.870919920999459"><ele>255.5</ele><time>2026-05-01T13:33:53Z</time></trkpt><trkpt lat="43.122383225102624" lon="11.870877795352548"><ele>257.0</ele><time>2026-05-01T13:33:54Z</time></trkpt><trkpt lat="43.122061683822736" lon="11.870836507918453"><ele>257.0</ele><time>2026-05-01T13:33:55Z</time></trkpt><trkpt lat="43.1217423642569" lon="11.870796249357866"><ele>257.0</ele><time>2026-05-01T13:33:55.999Z</time></trkpt><trkpt lat="43.121418190678135" lon="11.870749963651319"><ele>257.5</ele><time>2026-05-01T13:33:56.999Z</time></trkpt><trkpt lat="43.121088958317635" lon="11.870697739754332"><ele>258.0</ele><time>2026-05-01T13:33:57.999Z</time></trkpt><trkpt lat="43.1207583531114" lon="11.870655281771235"><ele>257.5</ele><time>2026-05-01T13:33:58.999Z</time></trkpt><trkpt lat="43.12042969220275" lon="11.870642067058562"><ele>257.0</ele><time>2026-05-01T13:33:59.999Z</time></trkpt><trkpt lat="43.12010494967484" lon="11.870662785474432"><ele>257.0</ele><time>2026-05-01T13:34:00.999Z</time></trkpt><trkpt lat="43.11978615655109" lon="11.870717949234276"><ele>257.0</ele><time>2026-05-01T13:34:01.999Z</time></trkpt><trkpt lat="43.11946816588027" lon="11.870787637849142"><ele>257.0</ele><time>2026-05-01T13:34:02.999Z</time></trkpt><trkpt lat="43.119153190959736" lon="11.870882503180274"><ele>257.0</ele><time>2026-05-01T13:34:03.999Z</time></trkpt><trkpt lat="43.11884281386342" lon="11.871005730253222"><ele>256.5</ele><time>2026-05-01T13:34:04.999Z</time></trkpt><trkpt lat="43.118543134392674" lon="11.871151690502531"><ele>256.0</ele><time>2026-05-01T13:34:05.999Z</time></trkpt><trkpt lat="43.11825112993135" lon="11.871321969326265"><ele>257.0</ele><time>2026-05-01T13:34:06.999Z</time></trkpt><trkpt lat="43.117966965914384" lon="11.871512542347565"><ele>258.0</ele><time>2026-05-01T13:34:07.999Z</time></trkpt><trkpt lat="43.11769085495122" lon="11.8717240724966"><ele>258.0</ele><time>2026-05-01T13:34:08.999Z</time></trkpt><trkpt lat="43.117422172947066" lon="11.871957370166713"><ele>258.0</ele><time>2026-05-01T13:34:09.999Z</time></trkpt><trkpt lat="43.117163075152185" lon="11.872210573628836"><ele>258.0</ele><time>2026-05-01T13:34:10.999Z</time></trkpt><trkpt lat="43.11690762117555" lon="11.872475795656088"><ele>258.0</ele><time>2026-05-01T13:34:11.999Z</time></trkpt><trkpt lat="43.11665024811649" lon="11.872740025646872"><ele>258.5</ele><time>2026-05-01T13:34:12.999Z</time></trkpt><trkpt lat="43.11638623828357" lon="11.873001603778166"><ele>259.0</ele><time>2026-05-01T13:34:13.999Z</time></trkpt><trkpt lat="43.11612318284129" lon="11.873261299699893"><ele>258.0</ele><time>2026-05-01T13:34:14.999Z</time></trkpt><trkpt lat="43.11586174299743" lon="11.873522091657218"><ele>257.0</ele><time>2026-05-01T13:34:15.999Z</time></trkpt><trkpt lat="43.11559890385083" lon="11.873784738697735"><ele>257.0</ele><time>2026-05-01T13:34:16.999Z</time></trkpt><trkpt lat="43.115332791984166" lon="11.87404917240001"><ele>257.0</ele><time>2026-05-01T13:34:17.999Z</time></trkpt><trkpt lat="43.11506494902273" lon="11.87431566903467"><ele>256.0</ele><time>2026-05-01T13:34:18.999Z</time></trkpt><trkpt lat="43.11479774042009" lon="11.874582871890405"><ele>255.0</ele><time>2026-05-01T13:34:19.999Z</time></trkpt><trkpt lat="43.11452826803721" lon="11.874851319176056"><ele>255.0</ele><time>2026-05-01T13:34:20.999Z</time></trkpt><trkpt lat="43.1142613282188" lon="11.875117553331732"><ele>255.0</ele><time>2026-05-01T13:34:21.999Z</time></trkpt><trkpt lat="43.11399258766847" lon="11.87538147410963"><ele>256.0</ele><time>2026-05-01T13:34:22.999Z</time></trkpt><trkpt lat="43.11372565912748" lon="11.87564677335408"><ele>257.0</ele><time>2026-05-01T13:34:23.999Z</time></trkpt><trkpt lat="43.11345834273576" lon="11.875913119384064"><ele>257.5</ele><time>2026-05-01T13:34:24.999Z</time></trkpt><trkpt lat="43.11318885531144" lon="11.87618055348062"><ele>258.0</ele><time>2026-05-01T13:34:25.999Z</time></trkpt><trkpt lat="43.11291791359983" lon="11.876448150702753"><ele>258.0</ele><time>2026-05-01T13:34:26.999Z</time></trkpt><trkpt lat="43.11264858174685" lon="11.87671423672838"><ele>258.0</ele><time>2026-05-01T13:34:27.999Z</time></trkpt><trkpt lat="43.11237926566718" lon="11.876984373307616"><ele>259.5</ele><time>2026-05-01T13:34:29Z</time></trkpt><trkpt lat="43.112110918734786" lon="11.877254713984689"><ele>261.0</ele><time>2026-05-01T13:34:30Z</time></trkpt><trkpt lat="43.11184164698534" lon="11.877522736643062"><ele>262.5</ele><time>2026-05-01T13:34:31Z</time></trkpt><trkpt lat="43.111575442999424" lon="11.87778867176619"><ele>264.0</ele><time>2026-05-01T13:34:32Z</time></trkpt><trkpt lat="43.11130784137463" lon="11.878053457998917"><ele>260.5</ele><time>2026-05-01T13:34:33Z</time></trkpt><trkpt lat="43.11103813189759" lon="11.87831714304296"><ele>257.0</ele><time>2026-05-01T13:34:34Z</time></trkpt><trkpt lat="43.1107692718114" lon="11.878581012572688"><ele>254.5</ele><time>2026-05-01T13:34:35Z</time></trkpt><trkpt lat="43.11050333156419" lon="11.87884286293595"><ele>252.0</ele><time>2026-05-01T13:34:36Z</time></trkpt><trkpt lat="43.11023837752599" lon="11.879102320464836"><ele>252.0</ele><time>2026-05-01T13:34:37Z</time></trkpt><trkpt lat="43.109975685679466" lon="11.879360228615306"><ele>252.0</ele><time>2026-05-01T13:34:38Z</time></trkpt><trkpt lat="43.10971433502826" lon="11.879617107469123"><ele>252.5</ele><time>2026-05-01T13:34:39Z</time></trkpt><trkpt lat="43.10945317322574" lon="11.87987526685244"><ele>253.0</ele><time>2026-05-01T13:34:40Z</time></trkpt><trkpt lat="43.109190653793824" lon="11.880134081028713"><ele>253.0</ele><time>2026-05-01T13:34:41Z</time></trkpt><trkpt lat="43.10892780383676" lon="11.880391176184776"><ele>253.0</ele><time>2026-05-01T13:34:42Z</time></trkpt><trkpt lat="43.10866041671601" lon="11.880643851433096"><ele>253.0</ele><time>2026-05-01T13:34:43Z</time></trkpt><trkpt lat="43.10838615208161" lon="11.880885208725063"><ele>253.0</ele><time>2026-05-01T13:34:44Z</time></trkpt><trkpt lat="43.10810423338878" lon="11.881112620790057"><ele>254.5</ele><time>2026-05-01T13:34:45Z</time></trkpt><trkpt lat="43.10781586064428" lon="11.88132632809508"><ele>256.0</ele><time>2026-05-01T13:34:46Z</time></trkpt><trkpt lat="43.107519811655294" lon="11.881524505014537"><ele>256.0</ele><time>2026-05-01T13:34:47Z</time></trkpt><trkpt lat="43.107217662645766" lon="11.881710047556746"><ele>256.0</ele><time>2026-05-01T13:34:48Z</time></trkpt><trkpt lat="43.106911849158855" lon="11.881882695185825"><ele>256.0</ele><time>2026-05-01T13:34:49Z</time></trkpt><trkpt lat="43.106598515038556" lon="11.882039274691264"><ele>256.0</ele><time>2026-05-01T13:34:50Z</time></trkpt><trkpt lat="43.10627973439831" lon="11.88218174824513"><ele>257.5</ele><time>2026-05-01T13:34:51Z</time></trkpt><trkpt lat="43.105960529306635" lon="11.88231301038906"><ele>259.0</ele><time>2026-05-01T13:34:52Z</time></trkpt><trkpt lat="43.1056389038222" lon="11.882443655168373"><ele>259.5</ele><time>2026-05-01T13:34:53Z</time></trkpt><trkpt lat="43.1053161307512" lon="11.882578584776256"><ele>260.0</ele><time>2026-05-01T13:34:54Z</time></trkpt><trkpt lat="43.10499395699246" lon="11.882714948253769"><ele>257.0</ele><time>2026-05-01T13:34:55Z</time></trkpt><trkpt lat="43.10467200402905" lon="11.88284984327307"><ele>254.0</ele><time>2026-05-01T13:34:56Z</time></trkpt><trkpt lat="43.10434820021755" lon="11.88298322282987"><ele>254.5</ele><time>2026-05-01T13:34:57Z</time></trkpt><trkpt lat="43.10402748560818" lon="11.883115637523675"><ele>255.0</ele><time>2026-05-01T13:34:58Z</time></trkpt><trkpt lat="43.10370811134495" lon="11.883251077982878"><ele>255.0</ele><time>2026-05-01T13:34:59Z</time></trkpt><trkpt lat="43.10338926002273" lon="11.883385343896357"><ele>255.0</ele><time>2026-05-01T13:35:00Z</time></trkpt><trkpt lat="43.10307463431087" lon="11.883516622859634"><ele>256.5</ele><time>2026-05-01T13:35:01Z</time></trkpt><trkpt lat="43.10276053078618" lon="11.88364646213674"><ele>258.0</ele><time>2026-05-01T13:35:02Z</time></trkpt><trkpt lat="43.102446109636254" lon="11.883779990861724"><ele>259.5</ele><time>2026-05-01T13:35:03Z</time></trkpt><trkpt lat="43.10213369055659" lon="11.8839125456801"><ele>261.0</ele><time>2026-05-01T13:35:04Z</time></trkpt><trkpt lat="43.10182028849677" lon="11.884042040003825"><ele>262.5</ele><time>2026-05-01T13:35:05Z</time></trkpt><trkpt lat="43.101508499648446" lon="11.884170696611362"><ele>264.0</ele><time>2026-05-01T13:35:06Z</time></trkpt><trkpt lat="43.10119463083957" lon="11.884301428245209"><ele>264.5</ele><time>2026-05-01T13:35:07Z</time></trkpt><trkpt lat="43.100881442810916" lon="11.884434882982054"><ele>265.0</ele><time>2026-05-01T13:35:08Z</time></trkpt><trkpt lat="43.10056766190924" lon="11.88457197318453"><ele>265.0</ele><time>2026-05-01T13:35:09Z</time></trkpt><trkpt lat="43.10025638633974" lon="11.884710672157112"><ele>265.0</ele><time>2026-05-01T13:35:10Z</time></trkpt><trkpt lat="43.09994017509532" lon="11.884851699631888"><ele>263.5</ele><time>2026-05-01T13:35:11Z</time></trkpt><trkpt lat="43.09962157078688" lon="11.884993394960278"><ele>262.0</ele><time>2026-05-01T13:35:12Z</time></trkpt><trkpt lat="43.0992998018442" lon="11.885131862726842"><ele>259.5</ele><time>2026-05-01T13:35:13Z</time></trkpt><trkpt lat="43.09897692590918" lon="11.885270229979435"><ele>257.0</ele><time>2026-05-01T13:35:14Z</time></trkpt><trkpt lat="43.09865872294062" lon="11.885403821806658"><ele>257.0</ele><time>2026-05-01T13:35:15Z</time></trkpt><trkpt lat="43.09834272109784" lon="11.885536151811392"><ele>257.0</ele><time>2026-05-01T13:35:16Z</time></trkpt><trkpt lat="43.09803020745044" lon="11.885665715488702"><ele>256.0</ele><time>2026-05-01T13:35:17Z</time></trkpt><trkpt lat="43.097718286400045" lon="11.885795231667409"><ele>255.0</ele><time>2026-05-01T13:35:18Z</time></trkpt><trkpt lat="43.09740563670225" lon="11.885927339433792"><ele>254.5</ele><time>2026-05-01T13:35:19Z</time></trkpt><trkpt lat="43.097093558672" lon="11.886058575351793"><ele>254.0</ele><time>2026-05-01T13:35:20Z</time></trkpt><trkpt lat="43.096781422814864" lon="11.886187885972603"><ele>255.0</ele><time>2026-05-01T13:35:21Z</time></trkpt><trkpt lat="43.09647026858568" lon="11.886318433798262"><ele>256.0</ele><time>2026-05-01T13:35:22Z</time></trkpt><trkpt lat="43.096159723750134" lon="11.88644816595376"><ele>256.0</ele><time>2026-05-01T13:35:23Z</time></trkpt><trkpt lat="43.09584810544105" lon="11.886575509429731"><ele>256.0</ele><time>2026-05-01T13:35:24Z</time></trkpt><trkpt lat="43.09553476309574" lon="11.886704631568588"><ele>257.0</ele><time>2026-05-01T13:35:25Z</time></trkpt><trkpt lat="43.09522170699426" lon="11.886838781281277"><ele>258.0</ele><time>2026-05-01T13:35:26Z</time></trkpt><trkpt lat="43.09490750349649" lon="11.88697405192152"><ele>258.0</ele><time>2026-05-01T13:35:27Z</time></trkpt><trkpt lat="43.09459155761351" lon="11.887107942493579"><ele>258.0</ele><time>2026-05-01T13:35:28Z</time></trkpt><trkpt lat="43.09427482172274" lon="11.887239568401517"><ele>258.0</ele><time>2026-05-01T13:35:29Z</time></trkpt><trkpt lat="43.09395765556018" lon="11.887369763614563"><ele>258.0</ele><time>2026-05-01T13:35:30Z</time></trkpt><trkpt lat="43.09364029382484" lon="11.887505186698435"><ele>257.0</ele><time>2026-05-01T13:35:31Z</time></trkpt><trkpt lat="43.0933242019246" lon="11.887640094787512"><ele>256.0</ele><time>2026-05-01T13:35:32Z</time></trkpt><trkpt lat="43.093006379318716" lon="11.887773639117102"><ele>255.5</ele><time>2026-05-01T13:35:33Z</time></trkpt><trkpt lat="43.092690452578864" lon="11.887905728112868"><ele>255.0</ele><time>2026-05-01T13:35:34Z</time></trkpt><trkpt lat="43.09237553648507" lon="11.888036489045401"><ele>254.0</ele><time>2026-05-01T13:35:35Z</time></trkpt><trkpt lat="43.09206101201157" lon="11.88816822707119"><ele>253.0</ele><time>2026-05-01T13:35:36Z</time></trkpt><trkpt lat="43.091747225020384" lon="11.888299020302908"><ele>252.5</ele><time>2026-05-01T13:35:37Z</time></trkpt><trkpt lat="43.09143421796258" lon="11.888430238631646"><ele>252.0</ele><time>2026-05-01T13:35:38Z</time></trkpt><trkpt lat="43.091121008809026" lon="11.88856235123385"><ele>252.0</ele><time>2026-05-01T13:35:39Z</time></trkpt><trkpt lat="43.090804476532284" lon="11.888692581825751"><ele>252.0</ele><time>2026-05-01T13:35:40Z</time></trkpt><trkpt lat="43.090486005898185" lon="11.888821317016895"><ele>253.5</ele><time>2026-05-01T13:35:41Z</time></trkpt><trkpt lat="43.09016470183852" lon="11.888952101840582"><ele>255.0</ele><time>2026-05-01T13:35:42Z</time></trkpt><trkpt lat="43.089841923222345" lon="11.889085713177941"><ele>255.5</ele><time>2026-05-01T13:35:43Z</time></trkpt><trkpt lat="43.089518863204276" lon="11.889222527096088"><ele>256.0</ele><time>2026-05-01T13:35:44Z</time></trkpt><trkpt lat="43.0891931726465" lon="11.889360395280047"><ele>253.5</ele><time>2026-05-01T13:35:45Z</time></trkpt><trkpt lat="43.088868528519015" lon="11.889497117292738"><ele>251.0</ele><time>2026-05-01T13:35:46Z</time></trkpt><trkpt lat="43.0885415388014" lon="11.88963502980792"><ele>252.0</ele><time>2026-05-01T13:35:47Z</time></trkpt><trkpt lat="43.08821818580951" lon="11.889771118511677"><ele>253.0</ele><time>2026-05-01T13:35:48Z</time></trkpt><trkpt lat="43.087897091037796" lon="11.889908578049528"><ele>253.0</ele><time>2026-05-01T13:35:49Z</time></trkpt><trkpt lat="43.08757599822856" lon="11.890045092051707"><ele>253.0</ele><time>2026-05-01T13:35:50Z</time></trkpt><trkpt lat="43.0872587883481" lon="11.890177698723182"><ele>251.5</ele><time>2026-05-01T13:35:51Z</time></trkpt><trkpt lat="43.08694471236171" lon="11.890309252143325"><ele>250.0</ele><time>2026-05-01T13:35:52Z</time></trkpt><trkpt lat="43.08663135330677" lon="11.890438542176247"><ele>250.5</ele><time>2026-05-01T13:35:53Z</time></trkpt><trkpt lat="43.08631994375868" lon="11.890569327137245"><ele>251.0</ele><time>2026-05-01T13:35:54Z</time></trkpt><trkpt lat="43.086007978537275" lon="11.89070068030658"><ele>251.0</ele><time>2026-05-01T13:35:55Z</time></trkpt><trkpt lat="43.08569644706022" lon="11.890830734918278"><ele>251.0</ele><time>2026-05-01T13:35:55.999Z</time></trkpt><trkpt lat="43.08538512225135" lon="11.890961054651365"><ele>251.0</ele><time>2026-05-01T13:35:56.999Z</time></trkpt><trkpt lat="43.08507047127896" lon="11.891093174352166"><ele>251.0</ele><time>2026-05-01T13:35:57.999Z</time></trkpt><trkpt lat="43.08475245010276" lon="11.891223443241929"><ele>251.0</ele><time>2026-05-01T13:35:58.999Z</time></trkpt><trkpt lat="43.08443168930077" lon="11.891350393322117"><ele>251.0</ele><time>2026-05-01T13:35:59.999Z</time></trkpt><trkpt lat="43.08410839144432" lon="11.891475766332146"><ele>250.5</ele><time>2026-05-01T13:36:00.999Z</time></trkpt><trkpt lat="43.08378307486096" lon="11.891602556179965"><ele>250.0</ele><time>2026-05-01T13:36:01.999Z</time></trkpt><trkpt lat="43.08345695865546" lon="11.891732994513687"><ele>249.0</ele><time>2026-05-01T13:36:02.999Z</time></trkpt><trkpt lat="43.083130682091785" lon="11.891864440040399"><ele>248.0</ele><time>2026-05-01T13:36:03.999Z</time></trkpt><trkpt lat="43.08280404085677" lon="11.891996638513868"><ele>248.0</ele><time>2026-05-01T13:36:04.999Z</time></trkpt><trkpt lat="43.08247676921186" lon="11.892131867725833"><ele>248.0</ele><time>2026-05-01T13:36:05.999Z</time></trkpt><trkpt lat="43.082150862839505" lon="11.892268165725127"><ele>250.0</ele><time>2026-05-01T13:36:06.999Z</time></trkpt><trkpt lat="43.08182570874956" lon="11.892402465275854"><ele>252.0</ele><time>2026-05-01T13:36:07.999Z</time></trkpt><trkpt lat="43.081499771156516" lon="11.89253867490173"><ele>252.0</ele><time>2026-05-01T13:36:08.999Z</time></trkpt><trkpt lat="43.08118036926157" lon="11.89267658567637"><ele>252.0</ele><time>2026-05-01T13:36:09.999Z</time></trkpt><trkpt lat="43.08086895667287" lon="11.892808745023364"><ele>253.0</ele><time>2026-05-01T13:36:10.999Z</time></trkpt><trkpt lat="43.08055932207295" lon="11.892937768307203"><ele>254.0</ele><time>2026-05-01T13:36:11.999Z</time></trkpt><trkpt lat="43.08025162127993" lon="11.893065339969443"><ele>254.0</ele><time>2026-05-01T13:36:12.999Z</time></trkpt><trkpt lat="43.07994419188756" lon="11.893192240405105"><ele>254.0</ele><time>2026-05-01T13:36:13.999Z</time></trkpt><trkpt lat="43.07963762736368" lon="11.893317969367581"><ele>253.5</ele><time>2026-05-01T13:36:14.999Z</time></trkpt><trkpt lat="43.07933370572971" lon="11.893444644103948"><ele>253.0</ele><time>2026-05-01T13:36:15.999Z</time></trkpt><trkpt lat="43.07903111973901" lon="11.893571838966361"><ele>251.5</ele><time>2026-05-01T13:36:16.999Z</time></trkpt><trkpt lat="43.0787297068824" lon="11.893698394263394"><ele>250.0</ele><time>2026-05-01T13:36:17.999Z</time></trkpt><trkpt lat="43.0784256232428" lon="11.893827175220874"><ele>250.5</ele><time>2026-05-01T13:36:18.999Z</time></trkpt><trkpt lat="43.078118798185336" lon="11.893954121544885"><ele>251.0</ele><time>2026-05-01T13:36:19.999Z</time></trkpt><trkpt lat="43.07781007647121" lon="11.894080931054303"><ele>251.0</ele><time>2026-05-01T13:36:20.999Z</time></trkpt><trkpt lat="43.07750154119756" lon="11.894208592215783"><ele>251.0</ele><time>2026-05-01T13:36:21.999Z</time></trkpt><trkpt lat="43.077194405350006" lon="11.894338400326346"><ele>251.5</ele><time>2026-05-01T13:36:22.999Z</time></trkpt><trkpt lat="43.076886497348525" lon="11.894468036598898"><ele>252.0</ele><time>2026-05-01T13:36:23.999Z</time></trkpt><trkpt lat="43.07657644828275" lon="11.894599310902949"><ele>252.0</ele><time>2026-05-01T13:36:24.999Z</time></trkpt><trkpt lat="43.076269103213555" lon="11.894731652308087"><ele>252.0</ele><time>2026-05-01T13:36:25.999Z</time></trkpt><trkpt lat="43.075957669593436" lon="11.894863176542103"><ele>253.5</ele><time>2026-05-01T13:36:26.999Z</time></trkpt><trkpt lat="43.07564285415649" lon="11.894993546634852"><ele>255.0</ele><time>2026-05-01T13:36:27.999Z</time></trkpt><trkpt lat="43.07532766184843" lon="11.89512466735461"><ele>255.0</ele><time>2026-05-01T13:36:28.999Z</time></trkpt><trkpt lat="43.0750117804293" lon="11.895256000483608"><ele>255.0</ele><time>2026-05-01T13:36:29.999Z</time></trkpt><trkpt lat="43.07469514244898" lon="11.895387153570573"><ele>255.5</ele><time>2026-05-01T13:36:30.999Z</time></trkpt><trkpt lat="43.074380010572774" lon="11.895519946358409"><ele>256.0</ele><time>2026-05-01T13:36:31.999Z</time></trkpt><trkpt lat="43.07407141890524" lon="11.895653210822276"><ele>255.0</ele><time>2026-05-01T13:36:32.999Z</time></trkpt><trkpt lat="43.073758858696614" lon="11.895789924771615"><ele>254.0</ele><time>2026-05-01T13:36:33.999Z</time></trkpt><trkpt lat="43.07344076612337" lon="11.895930790871546"><ele>252.0</ele><time>2026-05-01T13:36:35Z</time></trkpt><trkpt lat="43.07312230820848" lon="11.896071758941792"><ele>250.0</ele><time>2026-05-01T13:36:36Z</time></trkpt><trkpt lat="43.07280209369741" lon="11.896209970026494"><ele>250.0</ele><time>2026-05-01T13:36:37Z</time></trkpt><trkpt lat="43.072483113537025" lon="11.896345186773946"><ele>250.0</ele><time>2026-05-01T13:36:38Z</time></trkpt><trkpt lat="43.07216551972747" lon="11.8964778940196"><ele>250.5</ele><time>2026-05-01T13:36:39Z</time></trkpt><trkpt lat="43.07184824006407" lon="11.896611360858946"><ele>251.0</ele><time>2026-05-01T13:36:40Z</time></trkpt><trkpt lat="43.07153097792224" lon="11.896743151766975"><ele>252.5</ele><time>2026-05-01T13:36:41Z</time></trkpt><trkpt lat="43.07121303782213" lon="11.896875799270637"><ele>254.0</ele><time>2026-05-01T13:36:42Z</time></trkpt><trkpt lat="43.07089699838547" lon="11.897010557471344"><ele>255.0</ele><time>2026-05-01T13:36:43Z</time></trkpt><trkpt lat="43.070581908218266" lon="11.897145330299084"><ele>256.0</ele><time>2026-05-01T13:36:44Z</time></trkpt><trkpt lat="43.07026824074833" lon="11.897278107985734"><ele>256.0</ele><time>2026-05-01T13:36:45Z</time></trkpt><trkpt lat="43.06995063023123" lon="11.897409022631242"><ele>256.0</ele><time>2026-05-01T13:36:46Z</time></trkpt><trkpt lat="43.0696297740997" lon="11.897536240194402"><ele>257.0</ele><time>2026-05-01T13:36:47Z</time></trkpt><trkpt lat="43.06930780480449" lon="11.897662752886294"><ele>258.0</ele><time>2026-05-01T13:36:48Z</time></trkpt><trkpt lat="43.06898488999316" lon="11.897788623656504"><ele>261.0</ele><time>2026-05-01T13:36:49Z</time></trkpt><trkpt lat="43.068660504009785" lon="11.89791771114035"><ele>264.0</ele><time>2026-05-01T13:36:50Z</time></trkpt><trkpt lat="43.06833672114981" lon="11.898047357685364"><ele>268.5</ele><time>2026-05-01T13:36:51Z</time></trkpt><trkpt lat="43.06801311571049" lon="11.898179094664327"><ele>273.0</ele><time>2026-05-01T13:36:52Z</time></trkpt><trkpt lat="43.067688354693345" lon="11.898312739112827"><ele>274.5</ele><time>2026-05-01T13:36:53Z</time></trkpt><trkpt lat="43.0673641919489" lon="11.898449531991474"><ele>276.0</ele><time>2026-05-01T13:36:54Z</time></trkpt><trkpt lat="43.06703864327432" lon="11.898586494470536"><ele>276.0</ele><time>2026-05-01T13:36:55Z</time></trkpt><trkpt lat="43.06671808081088" lon="11.898722392997023"><ele>276.0</ele><time>2026-05-01T13:36:56Z</time></trkpt><trkpt lat="43.06639438372956" lon="11.89885608815753"><ele>275.5</ele><time>2026-05-01T13:36:57Z</time></trkpt><trkpt lat="43.06607097923583" lon="11.898988547530601"><ele>275.0</ele><time>2026-05-01T13:36:58Z</time></trkpt><trkpt lat="43.06574664876219" lon="11.899121841532123"><ele>274.5</ele><time>2026-05-01T13:36:59Z</time></trkpt><trkpt lat="43.06542444119472" lon="11.89925535781619"><ele>274.0</ele><time>2026-05-01T13:37:00Z</time></trkpt><trkpt lat="43.06510522082328" lon="11.899390128913858"><ele>274.5</ele><time>2026-05-01T13:37:01Z</time></trkpt><trkpt lat="43.06478671679727" lon="11.899522867600757"><ele>275.0</ele><time>2026-05-01T13:37:02Z</time></trkpt><trkpt lat="43.06446894606175" lon="11.899654614739628"><ele>275.0</ele><time>2026-05-01T13:37:03Z</time></trkpt><trkpt lat="43.06415249782207" lon="11.899785665965886"><ele>275.0</ele><time>2026-05-01T13:37:04Z</time></trkpt><trkpt lat="43.06383710688125" lon="11.899915836189669"><ele>269.0</ele><time>2026-05-01T13:37:05Z</time></trkpt><trkpt lat="43.063521458970904" lon="11.900044701831025"><ele>263.0</ele><time>2026-05-01T13:37:06Z</time></trkpt><trkpt lat="43.06320481782705" lon="11.900172510444232"><ele>262.5</ele><time>2026-05-01T13:37:07Z</time></trkpt><trkpt lat="43.06289032392562" lon="11.900301658322617"><ele>262.0</ele><time>2026-05-01T13:37:08Z</time></trkpt><trkpt lat="43.0625765355046" lon="11.900432277328392"><ele>260.5</ele><time>2026-05-01T13:37:09Z</time></trkpt><trkpt lat="43.06226380600003" lon="11.90056354041567"><ele>259.0</ele><time>2026-05-01T13:37:10Z</time></trkpt><trkpt lat="43.061950625664245" lon="11.900697752189835"><ele>259.0</ele><time>2026-05-01T13:37:11Z</time></trkpt><trkpt lat="43.06163890595051" lon="11.900833871537706"><ele>259.0</ele><time>2026-05-01T13:37:12Z</time></trkpt><trkpt lat="43.06132551003972" lon="11.900965826781565"><ele>258.0</ele><time>2026-05-01T13:37:13Z</time></trkpt><trkpt lat="43.06101409053904" lon="11.901097399450517"><ele>257.0</ele><time>2026-05-01T13:37:14Z</time></trkpt><trkpt lat="43.060700960091594" lon="11.901229984519832"><ele>256.5</ele><time>2026-05-01T13:37:15Z</time></trkpt><trkpt lat="43.0603890929405" lon="11.9013607034147"><ele>256.0</ele><time>2026-05-01T13:37:16Z</time></trkpt><trkpt lat="43.060076025063296" lon="11.901491800554286"><ele>256.0</ele><time>2026-05-01T13:37:17Z</time></trkpt><trkpt lat="43.05976292106584" lon="11.901623435433818"><ele>256.0</ele><time>2026-05-01T13:37:18Z</time></trkpt><trkpt lat="43.05944515311546" lon="11.901756843185748"><ele>256.0</ele><time>2026-05-01T13:37:19Z</time></trkpt><trkpt lat="43.059127744233066" lon="11.901889377358263"><ele>256.0</ele><time>2026-05-01T13:37:20Z</time></trkpt><trkpt lat="43.058808019681614" lon="11.902023135457524"><ele>256.0</ele><time>2026-05-01T13:37:21Z</time></trkpt><trkpt lat="43.05848737275674" lon="11.902157052012898"><ele>256.0</ele><time>2026-05-01T13:37:22Z</time></trkpt><trkpt lat="43.058168096066666" lon="11.902288789710047"><ele>256.5</ele><time>2026-05-01T13:37:23Z</time></trkpt><trkpt lat="43.05784779167695" lon="11.902421376912836"><ele>257.0</ele><time>2026-05-01T13:37:24Z</time></trkpt><trkpt lat="43.05752767518668" lon="11.902555273474393"><ele>257.0</ele><time>2026-05-01T13:37:25Z</time></trkpt><trkpt lat="43.05720791901482" lon="11.902690253833022"><ele>257.0</ele><time>2026-05-01T13:37:26Z</time></trkpt><trkpt lat="43.05688828647371" lon="11.902824204457906"><ele>256.5</ele><time>2026-05-01T13:37:27Z</time></trkpt><trkpt lat="43.056567902681564" lon="11.90295660460699"><ele>256.0</ele><time>2026-05-01T13:37:28Z</time></trkpt><trkpt lat="43.056247727353764" lon="11.903089199388603"><ele>256.0</ele><time>2026-05-01T13:37:29Z</time></trkpt><trkpt lat="43.05592685307979" lon="11.90322216595907"><ele>256.0</ele><time>2026-05-01T13:37:30Z</time></trkpt><trkpt lat="43.055607465209434" lon="11.90335529441811"><ele>254.0</ele><time>2026-05-01T13:37:31Z</time></trkpt><trkpt lat="43.05528775280555" lon="11.903488481051873"><ele>252.0</ele><time>2026-05-01T13:37:32Z</time></trkpt><trkpt lat="43.054969484731274" lon="11.903620665962695"><ele>254.0</ele><time>2026-05-01T13:37:33Z</time></trkpt><trkpt lat="43.054651761919445" lon="11.903753231816143"><ele>256.0</ele><time>2026-05-01T13:37:34Z</time></trkpt><trkpt lat="43.05433332366791" lon="11.903884225627289"><ele>255.5</ele><time>2026-05-01T13:37:35Z</time></trkpt><trkpt lat="43.05401577614775" lon="11.90401623217746"><ele>255.0</ele><time>2026-05-01T13:37:36Z</time></trkpt><trkpt lat="43.053696589779214" lon="11.90414844005024"><ele>254.5</ele><time>2026-05-01T13:37:37Z</time></trkpt><trkpt lat="43.05337642498094" lon="11.904281363671236"><ele>254.0</ele><time>2026-05-01T13:37:38Z</time></trkpt><trkpt lat="43.05305413431674" lon="11.904415025473135"><ele>255.0</ele><time>2026-05-01T13:37:39Z</time></trkpt><trkpt lat="43.05273200462595" lon="11.904549746768765"><ele>256.0</ele><time>2026-05-01T13:37:40Z</time></trkpt><trkpt lat="43.05241131828238" lon="11.904684942036535"><ele>256.0</ele><time>2026-05-01T13:37:41Z</time></trkpt><trkpt lat="43.052091511841674" lon="11.904821075168446"><ele>256.0</ele><time>2026-05-01T13:37:42Z</time></trkpt><trkpt lat="43.05177394124828" lon="11.904954832074152"><ele>256.0</ele><time>2026-05-01T13:37:43Z</time></trkpt><trkpt lat="43.05146014715745" lon="11.905085986761165"><ele>256.0</ele><time>2026-05-01T13:37:44Z</time></trkpt><trkpt lat="43.0511433642085" lon="11.90521223662382"><ele>256.0</ele><time>2026-05-01T13:37:45Z</time></trkpt><trkpt lat="43.05082568196085" lon="11.905338434778061"><ele>256.0</ele><time>2026-05-01T13:37:46Z</time></trkpt><trkpt lat="43.05050898374638" lon="11.905467546032645"><ele>256.0</ele><time>2026-05-01T13:37:47Z</time></trkpt><trkpt lat="43.05019437701742" lon="11.905599686931074"><ele>256.0</ele><time>2026-05-01T13:37:48Z</time></trkpt><trkpt lat="43.04987852783209" lon="11.905730786745451"><ele>255.5</ele><time>2026-05-01T13:37:49Z</time></trkpt><trkpt lat="43.04956237820716" lon="11.905865683926628"><ele>255.0</ele><time>2026-05-01T13:37:50Z</time></trkpt><trkpt lat="43.04924733313274" lon="11.906000795464236"><ele>255.0</ele><time>2026-05-01T13:37:51Z</time></trkpt><trkpt lat="43.048934342694565" lon="11.90613933117711"><ele>255.0</ele><time>2026-05-01T13:37:52Z</time></trkpt><trkpt lat="43.048620095038586" lon="11.90627639647467"><ele>255.0</ele><time>2026-05-01T13:37:53Z</time></trkpt><trkpt lat="43.04830620634108" lon="11.906409789117793"><ele>255.0</ele><time>2026-05-01T13:37:54Z</time></trkpt><trkpt lat="43.04799211876311" lon="11.906539147589157"><ele>255.0</ele><time>2026-05-01T13:37:55Z</time></trkpt><trkpt lat="43.04767436176429" lon="11.906668520391294"><ele>255.0</ele><time>2026-05-01T13:37:56Z</time></trkpt><trkpt lat="43.04735312493045" lon="11.906796348039013"><ele>255.0</ele><time>2026-05-01T13:37:57Z</time></trkpt><trkpt lat="43.04702960102953" lon="11.90692339462288"><ele>255.0</ele><time>2026-05-01T13:37:58Z</time></trkpt><trkpt lat="43.04670851727283" lon="11.907053797058113"><ele>258.0</ele><time>2026-05-01T13:37:58.999Z</time></trkpt><trkpt lat="43.04638673107598" lon="11.907184514436349"><ele>261.0</ele><time>2026-05-01T13:37:59.999Z</time></trkpt><trkpt lat="43.046065825880405" lon="11.90731284555979"><ele>263.5</ele><time>2026-05-01T13:38:00.999Z</time></trkpt><trkpt lat="43.045745220571014" lon="11.907426225429894"><ele>266.0</ele><time>2026-05-01T13:38:01.999Z</time></trkpt><trkpt lat="43.04541824811964" lon="11.90750440383554"><ele>266.0</ele><time>2026-05-01T13:38:02.999Z</time></trkpt><trkpt lat="43.04509453233406" lon="11.907557262149234"><ele>266.0</ele><time>2026-05-01T13:38:03.999Z</time></trkpt><trkpt lat="43.04476706851324" lon="11.907588092011792"><ele>262.0</ele><time>2026-05-01T13:38:04.999Z</time></trkpt><trkpt lat="43.04443662435501" lon="11.90759728946005"><ele>258.0</ele><time>2026-05-01T13:38:05.999Z</time></trkpt><trkpt lat="43.04410610242155" lon="11.907584020469125"><ele>258.0</ele><time>2026-05-01T13:38:06.999Z</time></trkpt><trkpt lat="43.04377509556527" lon="11.90754416710243"><ele>258.0</ele><time>2026-05-01T13:38:07.999Z</time></trkpt><trkpt lat="43.04344552808555" lon="11.90747906653109"><ele>259.5</ele><time>2026-05-01T13:38:08.999Z</time></trkpt><trkpt lat="43.04311779323112" lon="11.90739449191838"><ele>261.0</ele><time>2026-05-01T13:38:09.999Z</time></trkpt><trkpt lat="43.042793466102914" lon="11.907287332647428"><ele>261.0</ele><time>2026-05-01T13:38:10.999Z</time></trkpt><trkpt lat="43.04247133117783" lon="11.907160462211218"><ele>261.0</ele><time>2026-05-01T13:38:11.999Z</time></trkpt><trkpt lat="43.04215286936408" lon="11.907024932776688"><ele>260.0</ele><time>2026-05-01T13:38:12.999Z</time></trkpt><trkpt lat="43.04183220957264" lon="11.906885446277018"><ele>259.0</ele><time>2026-05-01T13:38:13.999Z</time></trkpt><trkpt lat="43.04150863638939" lon="11.906751900956154"><ele>261.5</ele><time>2026-05-01T13:38:14.999Z</time></trkpt><trkpt lat="43.0411856919831" lon="11.906624175410247"><ele>264.0</ele><time>2026-05-01T13:38:15.999Z</time></trkpt><trkpt lat="43.04086850473677" lon="11.906502821907928"><ele>263.5</ele><time>2026-05-01T13:38:16.999Z</time></trkpt><trkpt lat="43.04054827596027" lon="11.906378466958126"><ele>263.0</ele><time>2026-05-01T13:38:17.999Z</time></trkpt><trkpt lat="43.04022705520655" lon="11.906251610384594"><ele>263.5</ele><time>2026-05-01T13:38:18.999Z</time></trkpt><trkpt lat="43.039908479916306" lon="11.90612724364647"><ele>264.0</ele><time>2026-05-01T13:38:19.999Z</time></trkpt><trkpt lat="43.039592409179214" lon="11.905999987466688"><ele>265.5</ele><time>2026-05-01T13:38:20.999Z</time></trkpt><trkpt lat="43.03927789789826" lon="11.905871779885985"><ele>267.0</ele><time>2026-05-01T13:38:21.999Z</time></trkpt><trkpt lat="43.038960825362686" lon="11.905746122130259"><ele>267.0</ele><time>2026-05-01T13:38:22.999Z</time></trkpt><trkpt lat="43.03863949830293" lon="11.905641166683578"><ele>267.0</ele><time>2026-05-01T13:38:23.999Z</time></trkpt><trkpt lat="43.03831375730427" lon="11.905564436908056"><ele>271.0</ele><time>2026-05-01T13:38:24.999Z</time></trkpt><trkpt lat="43.037989558278966" lon="11.905515628764038"><ele>275.0</ele><time>2026-05-01T13:38:25.999Z</time></trkpt><trkpt lat="43.03766428615446" lon="11.905485475011657"><ele>276.5</ele><time>2026-05-01T13:38:26.999Z</time></trkpt><trkpt lat="43.037337874271344" lon="11.905474099289023"><ele>278.0</ele><time>2026-05-01T13:38:27.999Z</time></trkpt><trkpt lat="43.037011250910105" lon="11.905491175052125"><ele>278.0</ele><time>2026-05-01T13:38:28.999Z</time></trkpt><trkpt lat="43.03668836673577" lon="11.905537414500277"><ele>278.0</ele><time>2026-05-01T13:38:29.999Z</time></trkpt><trkpt lat="43.036365315606304" lon="11.905602519906493"><ele>278.5</ele><time>2026-05-01T13:38:30.999Z</time></trkpt><trkpt lat="43.03604424333074" lon="11.905687293617744"><ele>279.0</ele><time>2026-05-01T13:38:31.999Z</time></trkpt><trkpt lat="43.035726149147195" lon="11.905796125559425"><ele>278.0</ele><time>2026-05-01T13:38:32.999Z</time></trkpt><trkpt lat="43.035411944961226" lon="11.90592434030657"><ele>277.0</ele><time>2026-05-01T13:38:33.999Z</time></trkpt><trkpt lat="43.03510111488589" lon="11.90607025605757"><ele>278.0</ele><time>2026-05-01T13:38:34.999Z</time></trkpt><trkpt lat="43.034793536673725" lon="11.906236175117584"><ele>279.0</ele><time>2026-05-01T13:38:35.999Z</time></trkpt><trkpt lat="43.03449012762141" lon="11.906425236775718"><ele>279.0</ele><time>2026-05-01T13:38:36.999Z</time></trkpt><trkpt lat="43.03419055201303" lon="11.906640212685868"><ele>279.0</ele><time>2026-05-01T13:38:37.999Z</time></trkpt><trkpt lat="43.033906053562205" lon="11.906879234177254"><ele>275.0</ele><time>2026-05-01T13:38:38.999Z</time></trkpt><trkpt lat="43.03363395311726" lon="11.907145080964368"><ele>271.0</ele><time>2026-05-01T13:38:39.999Z</time></trkpt><trkpt lat="43.03336549387452" lon="11.907423752566439"><ele>269.0</ele><time>2026-05-01T13:38:41Z</time></trkpt><trkpt lat="43.03310288118832" lon="11.907712807956631"><ele>267.0</ele><time>2026-05-01T13:38:42Z</time></trkpt><trkpt lat="43.03283991939255" lon="11.908004469930955"><ele>267.0</ele><time>2026-05-01T13:38:43Z</time></trkpt><trkpt lat="43.0325749774056" lon="11.908291251523833"><ele>267.0</ele><time>2026-05-01T13:38:44Z</time></trkpt><trkpt lat="43.03230805982907" lon="11.908571113041702"><ele>265.5</ele><time>2026-05-01T13:38:45Z</time></trkpt><trkpt lat="43.03204073414553" lon="11.908847904969484"><ele>264.0</ele><time>2026-05-01T13:38:46Z</time></trkpt><trkpt lat="43.03177629265888" lon="11.909127320790825"><ele>262.5</ele><time>2026-05-01T13:38:47Z</time></trkpt><trkpt lat="43.03151175161394" lon="11.909406431382832"><ele>261.0</ele><time>2026-05-01T13:38:48Z</time></trkpt><trkpt lat="43.03124853189573" lon="11.909679949780786"><ele>261.0</ele><time>2026-05-01T13:38:49Z</time></trkpt><trkpt lat="43.03098836835262" lon="11.909953796221034"><ele>261.0</ele><time>2026-05-01T13:38:50Z</time></trkpt><trkpt lat="43.03072775498314" lon="11.910230896970354"><ele>264.5</ele><time>2026-05-01T13:38:51Z</time></trkpt><trkpt lat="43.030467088439075" lon="11.910504668404206"><ele>268.0</ele><time>2026-05-01T13:38:52Z</time></trkpt><trkpt lat="43.03020641418604" lon="11.910777152001236"><ele>267.5</ele><time>2026-05-01T13:38:53Z</time></trkpt><trkpt lat="43.02994646008471" lon="11.911054693948316"><ele>267.0</ele><time>2026-05-01T13:38:54Z</time></trkpt><trkpt lat="43.02968987513468" lon="11.911332592169332"><ele>267.0</ele><time>2026-05-01T13:38:55Z</time></trkpt><trkpt lat="43.029430762101796" lon="11.911608954108988"><ele>267.0</ele><time>2026-05-01T13:38:56Z</time></trkpt><trkpt lat="43.029167568086855" lon="11.9118787062846"><ele>265.0</ele><time>2026-05-01T13:38:57Z</time></trkpt><trkpt lat="43.028896845590594" lon="11.912134877426976"><ele>263.0</ele><time>2026-05-01T13:38:58Z</time></trkpt><trkpt lat="43.028616089340254" lon="11.912370129876116"><ele>263.5</ele><time>2026-05-01T13:38:59Z</time></trkpt><trkpt lat="43.028326468963925" lon="11.91258252581463"><ele>264.0</ele><time>2026-05-01T13:39:00Z</time></trkpt><trkpt lat="43.02802896144087" lon="11.912770784176876"><ele>264.0</ele><time>2026-05-01T13:39:01Z</time></trkpt><trkpt lat="43.02772619253252" lon="11.912940589324226"><ele>264.0</ele><time>2026-05-01T13:39:02Z</time></trkpt><trkpt lat="43.027416538887685" lon="11.91309245619904"><ele>267.0</ele><time>2026-05-01T13:39:03Z</time></trkpt><trkpt lat="43.02710150307558" lon="11.913221549882651"><ele>270.0</ele><time>2026-05-01T13:39:04Z</time></trkpt><trkpt lat="43.02678211579844" lon="11.913327486685185"><ele>267.5</ele><time>2026-05-01T13:39:05Z</time></trkpt><trkpt lat="43.02645849702692" lon="11.913408217777823"><ele>265.0</ele><time>2026-05-01T13:39:06Z</time></trkpt><trkpt lat="43.026131661099924" lon="11.913466015351876"><ele>265.5</ele><time>2026-05-01T13:39:07Z</time></trkpt><trkpt lat="43.02580341929563" lon="11.913499811449524"><ele>266.0</ele><time>2026-05-01T13:39:08Z</time></trkpt><trkpt lat="43.02547380485711" lon="11.913510551203025"><ele>266.0</ele><time>2026-05-01T13:39:09Z</time></trkpt><trkpt lat="43.02514298109076" lon="11.913495889642558"><ele>266.0</ele><time>2026-05-01T13:39:10Z</time></trkpt><trkpt lat="43.024815135929465" lon="11.913458727258169"><ele>269.5</ele><time>2026-05-01T13:39:11Z</time></trkpt><trkpt lat="43.024488515359884" lon="11.913399982086778"><ele>273.0</ele><time>2026-05-01T13:39:12Z</time></trkpt><trkpt lat="43.02416427845441" lon="11.913320267909429"><ele>272.5</ele><time>2026-05-01T13:39:13Z</time></trkpt><trkpt lat="43.02384351035599" lon="11.913220322183415"><ele>272.0</ele><time>2026-05-01T13:39:14Z</time></trkpt><trkpt lat="43.02352092067993" lon="11.913112215142853"><ele>271.5</ele><time>2026-05-01T13:39:15Z</time></trkpt><trkpt lat="43.02319740306394" lon="11.91300529490304"><ele>271.0</ele><time>2026-05-01T13:39:16Z</time></trkpt><trkpt lat="43.022871400084526" lon="11.91290476972115"><ele>271.0</ele><time>2026-05-01T13:39:17Z</time></trkpt><trkpt lat="43.022543873872216" lon="11.912802543227857"><ele>271.0</ele><time>2026-05-01T13:39:18Z</time></trkpt><trkpt lat="43.022215165958094" lon="11.912699034566394"><ele>270.5</ele><time>2026-05-01T13:39:19Z</time></trkpt><trkpt lat="43.021884759660495" lon="11.912595682884843"><ele>270.0</ele><time>2026-05-01T13:39:20Z</time></trkpt><trkpt lat="43.02155480205258" lon="11.912494272181313"><ele>273.0</ele><time>2026-05-01T13:39:21Z</time></trkpt><trkpt lat="43.02122591870841" lon="11.91239390405628"><ele>276.0</ele><time>2026-05-01T13:39:22Z</time></trkpt><trkpt lat="43.02089812238264" lon="11.91229436906495"><ele>277.5</ele><time>2026-05-01T13:39:23Z</time></trkpt><trkpt lat="43.02057038895957" lon="11.91219573054325"><ele>279.0</ele><time>2026-05-01T13:39:24Z</time></trkpt><trkpt lat="43.02024394241999" lon="11.912096769252562"><ele>285.5</ele><time>2026-05-01T13:39:25Z</time></trkpt><trkpt lat="43.0199255006564" lon="11.912000570419984"><ele>292.0</ele><time>2026-05-01T13:39:26Z</time></trkpt><trkpt lat="43.01961387191578" lon="11.911905295744628"><ele>292.0</ele><time>2026-05-01T13:39:27Z</time></trkpt><trkpt lat="43.01930369837494" lon="11.911808841088948"><ele>292.0</ele><time>2026-05-01T13:39:28Z</time></trkpt><trkpt lat="43.01899477254703" lon="11.911709660633383"><ele>295.5</ele><time>2026-05-01T13:39:29Z</time></trkpt><trkpt lat="43.018685180468665" lon="11.91160483311972"><ele>299.0</ele><time>2026-05-01T13:39:30Z</time></trkpt><trkpt lat="43.01837471063102" lon="11.911490305519152"><ele>300.0</ele><time>2026-05-01T13:39:31Z</time></trkpt><trkpt lat="43.01806340407414" lon="11.91137121133612"><ele>301.0</ele><time>2026-05-01T13:39:32Z</time></trkpt><trkpt lat="43.01775105917911" lon="11.911250928767059"><ele>303.5</ele><time>2026-05-01T13:39:33Z</time></trkpt><trkpt lat="43.017434471149826" lon="11.91113369112449"><ele>306.0</ele><time>2026-05-01T13:39:34Z</time></trkpt><trkpt lat="43.01711493289776" lon="11.911026571321397"><ele>306.0</ele><time>2026-05-01T13:39:35Z</time></trkpt><trkpt lat="43.016791351973744" lon="11.910925159219135"><ele>306.0</ele><time>2026-05-01T13:39:36Z</time></trkpt><trkpt lat="43.016464393562906" lon="11.910826430789466"><ele>313.5</ele><time>2026-05-01T13:39:37Z</time></trkpt><trkpt lat="43.0161357551216" lon="11.910728519010291"><ele>321.0</ele><time>2026-05-01T13:39:38Z</time></trkpt><trkpt lat="43.01580420051134" lon="11.910627758195407"><ele>324.5</ele><time>2026-05-01T13:39:39Z</time></trkpt><trkpt lat="43.015471260015964" lon="11.910523310396558"><ele>328.0</ele><time>2026-05-01T13:39:40Z</time></trkpt><trkpt lat="43.015138198171044" lon="11.91041807773221"><ele>325.0</ele><time>2026-05-01T13:39:41Z</time></trkpt><trkpt lat="43.01480380012421" lon="11.910311916624202"><ele>322.0</ele><time>2026-05-01T13:39:42Z</time></trkpt><trkpt lat="43.014466077008755" lon="11.91020623391917"><ele>318.5</ele><time>2026-05-01T13:39:43Z</time></trkpt><trkpt lat="43.014133175372834" lon="11.91010706920174"><ele>315.0</ele><time>2026-05-01T13:39:44Z</time></trkpt><trkpt lat="43.013823125557515" lon="11.910023759720747"><ele>313.0</ele><time>2026-05-01T13:39:45Z</time></trkpt><trkpt lat="43.013527948646356" lon="11.909963106827613"><ele>311.0</ele><time>2026-05-01T13:39:46Z</time></trkpt><trkpt lat="43.01324959152316" lon="11.909919710820498"><ele>310.5</ele><time>2026-05-01T13:39:47Z</time></trkpt><trkpt lat="43.01298821719252" lon="11.909959440094488"><ele>310.0</ele><time>2026-05-01T13:39:48Z</time></trkpt><trkpt lat="43.01269899069451" lon="11.909978707220914"><ele>308.0</ele><time>2026-05-01T13:39:49Z</time></trkpt><trkpt lat="43.012399744082046" lon="11.910016558695524"><ele>306.0</ele><time>2026-05-01T13:39:50Z</time></trkpt><trkpt lat="43.01209777080418" lon="11.910074225536887"><ele>305.5</ele><time>2026-05-01T13:39:51Z</time></trkpt><trkpt lat="43.01179183054143" lon="11.910155067834745"><ele>305.0</ele><time>2026-05-01T13:39:52Z</time></trkpt><trkpt lat="43.011486536421664" lon="11.910268064363382"><ele>305.0</ele><time>2026-05-01T13:39:53Z</time></trkpt><trkpt lat="43.011178311571925" lon="11.91040764036372"><ele>305.0</ele><time>2026-05-01T13:39:54Z</time></trkpt><trkpt lat="43.0108718098425" lon="11.9105731378334"><ele>305.5</ele><time>2026-05-01T13:39:55Z</time></trkpt><trkpt lat="43.01057294435723" lon="11.910762943738039"><ele>306.0</ele><time>2026-05-01T13:39:56Z</time></trkpt><trkpt lat="43.01028586823048" lon="11.910976472204483"><ele>306.0</ele><time>2026-05-01T13:39:57Z</time></trkpt><trkpt lat="43.01000325464114" lon="11.91120840666728"><ele>306.0</ele><time>2026-05-01T13:39:58Z</time></trkpt><trkpt lat="43.009723087272185" lon="11.911452381937787"><ele>307.0</ele><time>2026-05-01T13:39:59Z</time></trkpt><trkpt lat="43.009445750419" lon="11.911697352072979"><ele>308.0</ele><time>2026-05-01T13:40:00Z</time></trkpt><trkpt lat="43.00916650861108" lon="11.911940725137015"><ele>303.0</ele><time>2026-05-01T13:40:01Z</time></trkpt><trkpt lat="43.00888586251258" lon="11.91218470753009"><ele>298.0</ele><time>2026-05-01T13:40:02Z</time></trkpt><trkpt lat="43.00860337785578" lon="11.912431262659856"><ele>297.0</ele><time>2026-05-01T13:40:03Z</time></trkpt><trkpt lat="43.008319314159124" lon="11.912679091356777"><ele>296.0</ele><time>2026-05-01T13:40:04Z</time></trkpt><trkpt lat="43.00803272891627" lon="11.912925945091214"><ele>296.0</ele><time>2026-05-01T13:40:04.999Z</time></trkpt><trkpt lat="43.00774487043938" lon="11.913173092987124"><ele>296.0</ele><time>2026-05-01T13:40:05.999Z</time></trkpt><trkpt lat="43.00746166390106" lon="11.913417865784501"><ele>295.5</ele><time>2026-05-01T13:40:06.999Z</time></trkpt><trkpt lat="43.00717975117256" lon="11.91366163754057"><ele>295.0</ele><time>2026-05-01T13:40:07.999Z</time></trkpt><trkpt lat="43.006898385210796" lon="11.913905909890165"><ele>294.0</ele><time>2026-05-01T13:40:08.999Z</time></trkpt><trkpt lat="43.00661896066407" lon="11.914147933491575"><ele>293.0</ele><time>2026-05-01T13:40:09.999Z</time></trkpt><trkpt lat="43.00634247383883" lon="11.914386234886328"><ele>292.5</ele><time>2026-05-01T13:40:10.999Z</time></trkpt><trkpt lat="43.00606905211906" lon="11.914619630949558"><ele>292.0</ele><time>2026-05-01T13:40:11.999Z</time></trkpt><trkpt lat="43.005798867260744" lon="11.914852385497309"><ele>291.0</ele><time>2026-05-01T13:40:12.999Z</time></trkpt><trkpt lat="43.00553164035652" lon="11.91508588983689"><ele>290.0</ele><time>2026-05-01T13:40:13.999Z</time></trkpt><trkpt lat="43.00526411051316" lon="11.915318430839854"><ele>288.5</ele><time>2026-05-01T13:40:14.999Z</time></trkpt><trkpt lat="43.00499518143498" lon="11.915551705949264"><ele>287.0</ele><time>2026-05-01T13:40:15.999Z</time></trkpt><trkpt lat="43.004723913688835" lon="11.915787726366906"><ele>287.5</ele><time>2026-05-01T13:40:16.999Z</time></trkpt><trkpt lat="43.00445214104281" lon="11.916022816685597"><ele>288.0</ele><time>2026-05-01T13:40:17.999Z</time></trkpt><trkpt lat="43.004177156386724" lon="11.916258932097936"><ele>287.0</ele><time>2026-05-01T13:40:18.999Z</time></trkpt><trkpt lat="43.003901684891964" lon="11.91649519194874"><ele>286.0</ele><time>2026-05-01T13:40:19.999Z</time></trkpt><trkpt lat="43.00362485097112" lon="11.916732605158328"><ele>286.0</ele><time>2026-05-01T13:40:20.999Z</time></trkpt><trkpt lat="43.003347993117615" lon="11.916970654597774"><ele>286.0</ele><time>2026-05-01T13:40:21.999Z</time></trkpt><trkpt lat="43.0030703543966" lon="11.917210066365335"><ele>286.0</ele><time>2026-05-01T13:40:22.999Z</time></trkpt><trkpt lat="43.00278902246665" lon="11.91745281823214"><ele>286.0</ele><time>2026-05-01T13:40:23.999Z</time></trkpt><trkpt lat="43.002507379967554" lon="11.91769503010376"><ele>284.5</ele><time>2026-05-01T13:40:24.999Z</time></trkpt><trkpt lat="43.002222575610446" lon="11.917942024618556"><ele>283.0</ele><time>2026-05-01T13:40:25.999Z</time></trkpt><trkpt lat="43.00193753439682" lon="11.918188208879458"><ele>283.0</ele><time>2026-05-01T13:40:26.999Z</time></trkpt><trkpt lat="43.00164751813257" lon="11.918422831824193"><ele>283.0</ele><time>2026-05-01T13:40:27.999Z</time></trkpt><trkpt lat="43.00134886315984" lon="11.918635108994195"><ele>283.0</ele><time>2026-05-01T13:40:28.999Z</time></trkpt><trkpt lat="43.00104513989672" lon="11.91883051103176"><ele>283.0</ele><time>2026-05-01T13:40:29.999Z</time></trkpt><trkpt lat="43.00073570063005" lon="11.9190075512618"><ele>283.0</ele><time>2026-05-01T13:40:30.999Z</time></trkpt><trkpt lat="43.000423320451496" lon="11.91917575441338"><ele>283.0</ele><time>2026-05-01T13:40:31.999Z</time></trkpt><trkpt lat="43.000106147464955" lon="11.919331725992746"><ele>284.5</ele><time>2026-05-01T13:40:32.999Z</time></trkpt><trkpt lat="42.99978522651746" lon="11.919468777490847"><ele>286.0</ele><time>2026-05-01T13:40:33.999Z</time></trkpt><trkpt lat="42.99945951150312" lon="11.919591648246863"><ele>285.0</ele><time>2026-05-01T13:40:34.999Z</time></trkpt><trkpt lat="42.99913110201347" lon="11.91969695482896"><ele>284.0</ele><time>2026-05-01T13:40:35.999Z</time></trkpt><trkpt lat="42.99880020182283" lon="11.91978334599631"><ele>284.0</ele><time>2026-05-01T13:40:36.999Z</time></trkpt><trkpt lat="42.99846719647673" lon="11.91985173671646"><ele>284.0</ele><time>2026-05-01T13:40:37.999Z</time></trkpt><trkpt lat="42.998131828099126" lon="11.919903321368793"><ele>284.0</ele><time>2026-05-01T13:40:38.999Z</time></trkpt><trkpt lat="42.99779391354066" lon="11.919942647039232"><ele>284.0</ele><time>2026-05-01T13:40:39.999Z</time></trkpt><trkpt lat="42.99745413703855" lon="11.91998172426331"><ele>283.5</ele><time>2026-05-01T13:40:40.999Z</time></trkpt><trkpt lat="42.99711347600435" lon="11.920027345459715"><ele>283.0</ele><time>2026-05-01T13:40:41.999Z</time></trkpt><trkpt lat="42.99677552457668" lon="11.92007634311922"><ele>282.5</ele><time>2026-05-01T13:40:42.999Z</time></trkpt><trkpt lat="42.996437748965086" lon="11.920124008769285"><ele>282.0</ele><time>2026-05-01T13:40:43.999Z</time></trkpt><trkpt lat="42.99609696637472" lon="11.920168483487585"><ele>281.5</ele><time>2026-05-01T13:40:44.999Z</time></trkpt><trkpt lat="42.995758070807696" lon="11.920210418291592"><ele>281.0</ele><time>2026-05-01T13:40:45.999Z</time></trkpt><trkpt lat="42.995417519859195" lon="11.920252266899517"><ele>281.0</ele><time>2026-05-01T13:40:47Z</time></trkpt><trkpt lat="42.99507872338197" lon="11.920301578538396"><ele>281.0</ele><time>2026-05-01T13:40:48Z</time></trkpt><trkpt lat="42.99474283671506" lon="11.92035382461856"><ele>280.0</ele><time>2026-05-01T13:40:49Z</time></trkpt><trkpt lat="42.994407902375656" lon="11.920403563003385"><ele>279.0</ele><time>2026-05-01T13:40:50Z</time></trkpt><trkpt lat="42.99407251929757" lon="11.920451546993885"><ele>279.0</ele><time>2026-05-01T13:40:51Z</time></trkpt><trkpt lat="42.993737195827805" lon="11.920498166858088"><ele>279.0</ele><time>2026-05-01T13:40:52Z</time></trkpt><trkpt lat="42.993402435643695" lon="11.920542460988386"><ele>277.0</ele><time>2026-05-01T13:40:53Z</time></trkpt><trkpt lat="42.9930679298226" lon="11.920587836831844"><ele>275.0</ele><time>2026-05-01T13:40:54Z</time></trkpt><trkpt lat="42.99273355083106" lon="11.920633472418054"><ele>273.5</ele><time>2026-05-01T13:40:55Z</time></trkpt><trkpt lat="42.99239866074021" lon="11.920676994681047"><ele>272.0</ele><time>2026-05-01T13:40:56Z</time></trkpt><trkpt lat="42.99206360645359" lon="11.92072012876168"><ele>272.0</ele><time>2026-05-01T13:40:57Z</time></trkpt><trkpt lat="42.99172990114182" lon="11.920763387461603"><ele>272.0</ele><time>2026-05-01T13:40:58Z</time></trkpt><trkpt lat="42.991395112156184" lon="11.920808976298666"><ele>273.0</ele><time>2026-05-01T13:40:59Z</time></trkpt><trkpt lat="42.99106115836395" lon="11.920854469365"><ele>274.0</ele><time>2026-05-01T13:41:00Z</time></trkpt><trkpt lat="42.99072847415038" lon="11.920900301607363"><ele>275.5</ele><time>2026-05-01T13:41:01Z</time></trkpt><trkpt lat="42.99039371135924" lon="11.920945856551482"><ele>277.0</ele><time>2026-05-01T13:41:02Z</time></trkpt><trkpt lat="42.990061580135496" lon="11.92099093565456"><ele>275.5</ele><time>2026-05-01T13:41:03Z</time></trkpt><trkpt lat="42.98973456794534" lon="11.921035230134619"><ele>274.0</ele><time>2026-05-01T13:41:04Z</time></trkpt><trkpt lat="42.9894099752303" lon="11.92107932347077"><ele>274.0</ele><time>2026-05-01T13:41:05Z</time></trkpt><trkpt lat="42.98908723647878" lon="11.921127153601692"><ele>274.0</ele><time>2026-05-01T13:41:06Z</time></trkpt><trkpt lat="42.988771861827864" lon="11.921188499536292"><ele>274.0</ele><time>2026-05-01T13:41:07Z</time></trkpt><trkpt lat="42.98846162903711" lon="11.9212663080108"><ele>274.0</ele><time>2026-05-01T13:41:08Z</time></trkpt><trkpt lat="42.988158661525176" lon="11.921359382011067"><ele>271.5</ele><time>2026-05-01T13:41:09Z</time></trkpt><trkpt lat="42.98785876210356" lon="11.921465177510177"><ele>269.0</ele><time>2026-05-01T13:41:10Z</time></trkpt><trkpt lat="42.98756167641539" lon="11.921584467767628"><ele>268.5</ele><time>2026-05-01T13:41:11Z</time></trkpt><trkpt lat="42.987266709673165" lon="11.921718218131103"><ele>268.0</ele><time>2026-05-01T13:41:12Z</time></trkpt><trkpt lat="42.98697618025155" lon="11.921866637544706"><ele>270.0</ele><time>2026-05-01T13:41:13Z</time></trkpt><trkpt lat="42.98668776825076" lon="11.922027419902346"><ele>272.0</ele><time>2026-05-01T13:41:14Z</time></trkpt><trkpt lat="42.98640052654067" lon="11.922202880288589"><ele>272.0</ele><time>2026-05-01T13:41:15Z</time></trkpt><trkpt lat="42.98611297327849" lon="11.922394906244879"><ele>272.0</ele><time>2026-05-01T13:41:16Z</time></trkpt><trkpt lat="42.98582932921961" lon="11.922602541406865"><ele>271.5</ele><time>2026-05-01T13:41:17Z</time></trkpt><trkpt lat="42.98554734735435" lon="11.922828805870697"><ele>271.0</ele><time>2026-05-01T13:41:18Z</time></trkpt><trkpt lat="42.98526825929116" lon="11.923066825428643"><ele>270.5</ele><time>2026-05-01T13:41:19Z</time></trkpt><trkpt lat="42.98498913471538" lon="11.923311780501441"><ele>270.0</ele><time>2026-05-01T13:41:20Z</time></trkpt><trkpt lat="42.98470844627225" lon="11.923559354331186"><ele>270.0</ele><time>2026-05-01T13:41:21Z</time></trkpt><trkpt lat="42.98442597856173" lon="11.92380395634953"><ele>270.0</ele><time>2026-05-01T13:41:22Z</time></trkpt><trkpt lat="42.98414379240129" lon="11.92404577978744"><ele>269.0</ele><time>2026-05-01T13:41:23Z</time></trkpt><trkpt lat="42.98386466176212" lon="11.924288019259913"><ele>268.0</ele><time>2026-05-01T13:41:24Z</time></trkpt><trkpt lat="42.983586402934606" lon="11.924529071219734"><ele>266.0</ele><time>2026-05-01T13:41:25Z</time></trkpt><trkpt lat="42.9833107874723" lon="11.924769474599346"><ele>264.0</ele><time>2026-05-01T13:41:26Z</time></trkpt><trkpt lat="42.98303605020988" lon="11.925008050260722"><ele>264.0</ele><time>2026-05-01T13:41:27Z</time></trkpt><trkpt lat="42.98276028632637" lon="11.925248979608229"><ele>264.0</ele><time>2026-05-01T13:41:28Z</time></trkpt><trkpt lat="42.98248548550681" lon="11.925489547683835"><ele>264.0</ele><time>2026-05-01T13:41:29Z</time></trkpt><trkpt lat="42.98220733348741" lon="11.925728101270579"><ele>264.0</ele><time>2026-05-01T13:41:30Z</time></trkpt><trkpt lat="42.981928808761396" lon="11.925965407722291"><ele>265.5</ele><time>2026-05-01T13:41:31Z</time></trkpt><trkpt lat="42.98165131490938" lon="11.926205175714253"><ele>267.0</ele><time>2026-05-01T13:41:32Z</time></trkpt><trkpt lat="42.98137247858803" lon="11.926447516309683"><ele>267.0</ele><time>2026-05-01T13:41:33Z</time></trkpt><trkpt lat="42.981092783401145" lon="11.926691898457673"><ele>267.0</ele><time>2026-05-01T13:41:34Z</time></trkpt><trkpt lat="42.980812450606344" lon="11.926937528516172"><ele>266.5</ele><time>2026-05-01T13:41:35Z</time></trkpt><trkpt lat="42.98053037150317" lon="11.927182394466085"><ele>266.0</ele><time>2026-05-01T13:41:36Z</time></trkpt><trkpt lat="42.980245481692634" lon="11.927425623253711"><ele>268.0</ele><time>2026-05-01T13:41:37Z</time></trkpt><trkpt lat="42.97995759041826" lon="11.92766713009902"><ele>270.0</ele><time>2026-05-01T13:41:38Z</time></trkpt><trkpt lat="42.9796684615076" lon="11.927907876189614"><ele>270.0</ele><time>2026-05-01T13:41:39Z</time></trkpt><trkpt lat="42.97937993323391" lon="11.928149989749205"><ele>270.0</ele><time>2026-05-01T13:41:40Z</time></trkpt><trkpt lat="42.97909317006087" lon="11.928394301848114"><ele>270.0</ele><time>2026-05-01T13:41:41Z</time></trkpt><trkpt lat="42.978804892495326" lon="11.928641455761683"><ele>270.0</ele><time>2026-05-01T13:41:42Z</time></trkpt><trkpt lat="42.97851436900508" lon="11.928890553053591"><ele>269.0</ele><time>2026-05-01T13:41:43Z</time></trkpt><trkpt lat="42.97822333462122" lon="11.929142778911645"><ele>268.0</ele><time>2026-05-01T13:41:44Z</time></trkpt><trkpt lat="42.977934971507565" lon="11.929395031288559"><ele>266.5</ele><time>2026-05-01T13:41:45Z</time></trkpt><trkpt lat="42.97764785066133" lon="11.92964774209362"><ele>265.0</ele><time>2026-05-01T13:41:46Z</time></trkpt><trkpt lat="42.97736192830247" lon="11.929898067330377"><ele>266.0</ele><time>2026-05-01T13:41:47Z</time></trkpt><trkpt lat="42.977075992029285" lon="11.930148074645963"><ele>267.0</ele><time>2026-05-01T13:41:48Z</time></trkpt><trkpt lat="42.97678939769711" lon="11.9303969710985"><ele>266.0</ele><time>2026-05-01T13:41:49Z</time></trkpt><trkpt lat="42.97650222511264" lon="11.930643311296414"><ele>265.0</ele><time>2026-05-01T13:41:50Z</time></trkpt><trkpt lat="42.97621690053321" lon="11.930891579822125"><ele>265.0</ele><time>2026-05-01T13:41:51Z</time></trkpt><trkpt lat="42.975932354018035" lon="11.931138504719225"><ele>265.0</ele><time>2026-05-01T13:41:52Z</time></trkpt><trkpt lat="42.97564892646254" lon="11.931383716155974"><ele>264.5</ele><time>2026-05-01T13:41:53Z</time></trkpt><trkpt lat="42.975365685293674" lon="11.93163231398913"><ele>264.0</ele><time>2026-05-01T13:41:54Z</time></trkpt><trkpt lat="42.97508322775763" lon="11.931881938503551"><ele>262.5</ele><time>2026-05-01T13:41:55Z</time></trkpt><trkpt lat="42.9747987586605" lon="11.932130389139683"><ele>261.0</ele><time>2026-05-01T13:41:56Z</time></trkpt><trkpt lat="42.9745126178415" lon="11.932375875787185"><ele>262.0</ele><time>2026-05-01T13:41:57Z</time></trkpt><trkpt lat="42.97422928002587" lon="11.932624950144922"><ele>263.0</ele><time>2026-05-01T13:41:58Z</time></trkpt><trkpt lat="42.97394770750878" lon="11.932870128819069"><ele>260.5</ele><time>2026-05-01T13:41:59Z</time></trkpt><trkpt lat="42.973666381269865" lon="11.933118166794799"><ele>258.0</ele><time>2026-05-01T13:42:00Z</time></trkpt><trkpt lat="42.97338123544557" lon="11.933365332037962"><ele>258.0</ele><time>2026-05-01T13:42:01Z</time></trkpt><trkpt lat="42.97309490594189" lon="11.933612319374383"><ele>258.0</ele><time>2026-05-01T13:42:02Z</time></trkpt><trkpt lat="42.97281173122115" lon="11.933857782362525"><ele>258.0</ele><time>2026-05-01T13:42:03Z</time></trkpt><trkpt lat="42.97253255238902" lon="11.934103932225764"><ele>258.0</ele><time>2026-05-01T13:42:04Z</time></trkpt><trkpt lat="42.97225459683157" lon="11.934347465362222"><ele>257.5</ele><time>2026-05-01T13:42:05Z</time></trkpt><trkpt lat="42.971976373570996" lon="11.934589903516313"><ele>257.0</ele><time>2026-05-01T13:42:06Z</time></trkpt><trkpt lat="42.97170054110862" lon="11.934832920458934"><ele>255.5</ele><time>2026-05-01T13:42:06.999Z</time></trkpt><trkpt lat="42.971424191109854" lon="11.93507920713906"><ele>254.0</ele><time>2026-05-01T13:42:07.999Z</time></trkpt><trkpt lat="42.97114750275539" lon="11.935324515585647"><ele>254.0</ele><time>2026-05-01T13:42:08.999Z</time></trkpt><trkpt lat="42.97086859243053" lon="11.935567831199313"><ele>254.0</ele><time>2026-05-01T13:42:09.999Z</time></trkpt><trkpt lat="42.970588123584236" lon="11.935810487518886"><ele>255.5</ele><time>2026-05-01T13:42:10.999Z</time></trkpt><trkpt lat="42.97030791069429" lon="11.936051688756764"><ele>257.0</ele><time>2026-05-01T13:42:11.999Z</time></trkpt><trkpt lat="42.97002720557141" lon="11.936291851089553"><ele>256.0</ele><time>2026-05-01T13:42:12.999Z</time></trkpt><trkpt lat="42.96974795425615" lon="11.936534985505242"><ele>255.0</ele><time>2026-05-01T13:42:13.999Z</time></trkpt><trkpt lat="42.96947119689932" lon="11.936781078968533"><ele>255.0</ele><time>2026-05-01T13:42:14.999Z</time></trkpt><trkpt lat="42.96919152327249" lon="11.937024179666214"><ele>255.0</ele><time>2026-05-01T13:42:15.999Z</time></trkpt><trkpt lat="42.96891202742891" lon="11.937269588474686"><ele>255.0</ele><time>2026-05-01T13:42:16.999Z</time></trkpt><trkpt lat="42.96863220675913" lon="11.937514912012338"><ele>255.0</ele><time>2026-05-01T13:42:17.999Z</time></trkpt><trkpt lat="42.96835279984951" lon="11.937757518892798"><ele>255.5</ele><time>2026-05-01T13:42:18.999Z</time></trkpt><trkpt lat="42.968071752419235" lon="11.9379878071713"><ele>256.0</ele><time>2026-05-01T13:42:19.999Z</time></trkpt><trkpt lat="42.96778927964107" lon="11.938213074890383"><ele>256.0</ele><time>2026-05-01T13:42:20.999Z</time></trkpt><trkpt lat="42.96750387458782" lon="11.938420337224123"><ele>256.0</ele><time>2026-05-01T13:42:21.999Z</time></trkpt><trkpt lat="42.96721703128565" lon="11.938615000241834"><ele>256.0</ele><time>2026-05-01T13:42:22.999Z</time></trkpt><trkpt lat="42.966926665205925" lon="11.938803050714428"><ele>256.0</ele><time>2026-05-01T13:42:23.999Z</time></trkpt><trkpt lat="42.966635030042966" lon="11.938984777226784"><ele>255.5</ele><time>2026-05-01T13:42:24.999Z</time></trkpt><trkpt lat="42.96633879481328" lon="11.939157800009964"><ele>255.0</ele><time>2026-05-01T13:42:25.999Z</time></trkpt><trkpt lat="42.966039497360974" lon="11.93932237940838"><ele>255.5</ele><time>2026-05-01T13:42:26.999Z</time></trkpt><trkpt lat="42.96573483171472" lon="11.939478330567807"><ele>256.0</ele><time>2026-05-01T13:42:27.999Z</time></trkpt><trkpt lat="42.96542890177811" lon="11.939625560562444"><ele>256.0</ele><time>2026-05-01T13:42:28.999Z</time></trkpt><trkpt lat="42.965120763274065" lon="11.939768573578585"><ele>256.0</ele><time>2026-05-01T13:42:29.999Z</time></trkpt><trkpt lat="42.96481102971875" lon="11.939914747766133"><ele>255.5</ele><time>2026-05-01T13:42:30.999Z</time></trkpt><trkpt lat="42.96450006299496" lon="11.94006422964733"><ele>255.0</ele><time>2026-05-01T13:42:31.999Z</time></trkpt><trkpt lat="42.96418606306426" lon="11.940218064524574"><ele>255.0</ele><time>2026-05-01T13:42:32.999Z</time></trkpt><trkpt lat="42.96385513148155" lon="11.94037904594045"><ele>255.0</ele><time>2026-05-01T13:42:33.999Z</time></trkpt><trkpt lat="42.96350999701554" lon="11.940546501099274"><ele>254.0</ele><time>2026-05-01T13:42:34.999Z</time></trkpt><trkpt lat="42.96315438273032" lon="11.940711549987249"><ele>253.0</ele><time>2026-05-01T13:42:35.999Z</time></trkpt><trkpt lat="42.96279218526736" lon="11.940877907144667"><ele>253.5</ele><time>2026-05-01T13:42:36.999Z</time></trkpt><trkpt lat="42.962436391802825" lon="11.941037696855743"><ele>254.0</ele><time>2026-05-01T13:42:37.999Z</time></trkpt><trkpt lat="42.96208954117029" lon="11.941192234459926"><ele>254.0</ele><time>2026-05-01T13:42:38.999Z</time></trkpt><trkpt lat="42.961747815389" lon="11.941344173651833"><ele>254.0</ele><time>2026-05-01T13:42:39.999Z</time></trkpt><trkpt lat="42.96141459282661" lon="11.941502948225573"><ele>254.0</ele><time>2026-05-01T13:42:40.999Z</time></trkpt><trkpt lat="42.961086123687956" lon="11.9416667073358"><ele>254.0</ele><time>2026-05-01T13:42:41.999Z</time></trkpt><trkpt lat="42.96076188866947" lon="11.941826140214314"><ele>254.0</ele><time>2026-05-01T13:42:42.999Z</time></trkpt><trkpt lat="42.96044527916049" lon="11.941978098296525"><ele>254.0</ele><time>2026-05-01T13:42:43.999Z</time></trkpt><trkpt lat="42.96014189595575" lon="11.942122957640027"><ele>254.5</ele><time>2026-05-01T13:42:44.999Z</time></trkpt><trkpt lat="42.95984788384538" lon="11.94226421376821"><ele>255.0</ele><time>2026-05-01T13:42:45.999Z</time></trkpt><trkpt lat="42.9595617399772" lon="11.942403614258057"><ele>255.0</ele><time>2026-05-01T13:42:46.999Z</time></trkpt><trkpt lat="42.95928216409795" lon="11.942538326918056"><ele>255.0</ele><time>2026-05-01T13:42:47.999Z</time></trkpt><trkpt lat="42.95900617396681" lon="11.942670928756959"><ele>255.0</ele><time>2026-05-01T13:42:48.999Z</time></trkpt><trkpt lat="42.95872537041095" lon="11.94281349995517"><ele>255.0</ele><time>2026-05-01T13:42:49.999Z</time></trkpt><trkpt lat="42.95843670276789" lon="11.942965034686878"><ele>256.0</ele><time>2026-05-01T13:42:50.999Z</time></trkpt><trkpt lat="42.95813773156565" lon="11.943116429613998"><ele>257.0</ele><time>2026-05-01T13:42:51.999Z</time></trkpt><trkpt lat="42.95782696878482" lon="11.943271787724056"><ele>261.0</ele><time>2026-05-01T13:42:53Z</time></trkpt><trkpt lat="42.957509098802575" lon="11.94342720919385"><ele>265.0</ele><time>2026-05-01T13:42:54Z</time></trkpt><trkpt lat="42.957189427556074" lon="11.943576602149788"><ele>265.0</ele><time>2026-05-01T13:42:55Z</time></trkpt><trkpt lat="42.956865774439116" lon="11.943726454386134"><ele>265.0</ele><time>2026-05-01T13:42:56Z</time></trkpt><trkpt lat="42.95654355013233" lon="11.943873759879397"><ele>263.5</ele><time>2026-05-01T13:42:57Z</time></trkpt><trkpt lat="42.956222364400894" lon="11.94402071918887"><ele>262.0</ele><time>2026-05-01T13:42:58Z</time></trkpt><trkpt lat="42.955900920694425" lon="11.944169686038292"><ele>267.0</ele><time>2026-05-01T13:42:59Z</time></trkpt><trkpt lat="42.955579898654335" lon="11.94431920537672"><ele>272.0</ele><time>2026-05-01T13:43:00Z</time></trkpt><trkpt lat="42.955258063391376" lon="11.944472454257504"><ele>269.5</ele><time>2026-05-01T13:43:01Z</time></trkpt><trkpt lat="42.954938613286664" lon="11.944629585555102"><ele>267.0</ele><time>2026-05-01T13:43:02Z</time></trkpt><trkpt lat="42.95461860685333" lon="11.944789878418687"><ele>267.0</ele><time>2026-05-01T13:43:03Z</time></trkpt><trkpt lat="42.95430020414426" lon="11.944954003573267"><ele>267.0</ele><time>2026-05-01T13:43:04Z</time></trkpt><trkpt lat="42.953984317739845" lon="11.94512017099513"><ele>268.0</ele><time>2026-05-01T13:43:05Z</time></trkpt><trkpt lat="42.95367488726761" lon="11.945287776655885"><ele>269.0</ele><time>2026-05-01T13:43:06Z</time></trkpt><trkpt lat="42.95336874623482" lon="11.945458256154351"><ele>264.5</ele><time>2026-05-01T13:43:07Z</time></trkpt><trkpt lat="42.953062662737906" lon="11.94563452660846"><ele>260.0</ele><time>2026-05-01T13:43:08Z</time></trkpt><trkpt lat="42.95275463998695" lon="11.945811608098818"><ele>265.0</ele><time>2026-05-01T13:43:09Z</time></trkpt><trkpt lat="42.952445560611054" lon="11.945987997782828"><ele>270.0</ele><time>2026-05-01T13:43:10Z</time></trkpt><trkpt lat="42.95213428836349" lon="11.946165149422512"><ele>270.0</ele><time>2026-05-01T13:43:11Z</time></trkpt><trkpt lat="42.95182053086285" lon="11.946347763462999"><ele>270.0</ele><time>2026-05-01T13:43:12Z</time></trkpt><trkpt lat="42.951505713764014" lon="11.94653194609054"><ele>270.5</ele><time>2026-05-01T13:43:13Z</time></trkpt><trkpt lat="42.95118950332539" lon="11.946713788793168"><ele>271.0</ele><time>2026-05-01T13:43:14Z</time></trkpt><trkpt lat="42.95087094230453" lon="11.94689267272207"><ele>263.5</ele><time>2026-05-01T13:43:15Z</time></trkpt><trkpt lat="42.95055097252687" lon="11.947071537358646"><ele>256.0</ele><time>2026-05-01T13:43:16Z</time></trkpt><trkpt lat="42.950231768663066" lon="11.947250168734563"><ele>254.0</ele><time>2026-05-01T13:43:17Z</time></trkpt><trkpt lat="42.94991651922562" lon="11.947424971361576"><ele>252.0</ele><time>2026-05-01T13:43:18Z</time></trkpt><trkpt lat="42.9496036275461" lon="11.947595750378964"><ele>251.0</ele><time>2026-05-01T13:43:19Z</time></trkpt><trkpt lat="42.949295767579486" lon="11.947763470362501"><ele>250.0</ele><time>2026-05-01T13:43:20Z</time></trkpt><trkpt lat="42.948991453473454" lon="11.947930654536494"><ele>250.0</ele><time>2026-05-01T13:43:21Z</time></trkpt><trkpt lat="42.94868459677823" lon="11.948098113853328"><ele>250.0</ele><time>2026-05-01T13:43:22Z</time></trkpt><trkpt lat="42.94837561964695" lon="11.9482645995801"><ele>251.0</ele><time>2026-05-01T13:43:23Z</time></trkpt><trkpt lat="42.94806239146961" lon="11.948430630691918"><ele>252.0</ele><time>2026-05-01T13:43:24Z</time></trkpt><trkpt lat="42.947748909419" lon="11.94859950296041"><ele>251.0</ele><time>2026-05-01T13:43:25Z</time></trkpt><trkpt lat="42.9474387077887" lon="11.948768635924166"><ele>250.0</ele><time>2026-05-01T13:43:26Z</time></trkpt><trkpt lat="42.94712945494733" lon="11.948940708776028"><ele>250.0</ele><time>2026-05-01T13:43:27Z</time></trkpt><trkpt lat="42.94682400465362" lon="11.949110479037518"><ele>250.0</ele><time>2026-05-01T13:43:28Z</time></trkpt><trkpt lat="42.9465198631265" lon="11.949276929706699"><ele>249.5</ele><time>2026-05-01T13:43:29Z</time></trkpt><trkpt lat="42.94621854986204" lon="11.949440799262797"><ele>249.0</ele><time>2026-05-01T13:43:30Z</time></trkpt><trkpt lat="42.945919309189016" lon="11.94960759711907"><ele>248.5</ele><time>2026-05-01T13:43:31Z</time></trkpt><trkpt lat="42.94562366636973" lon="11.94977214729243"><ele>248.0</ele><time>2026-05-01T13:43:32Z</time></trkpt><trkpt lat="42.94532792827327" lon="11.949934107817926"><ele>247.5</ele><time>2026-05-01T13:43:33Z</time></trkpt><trkpt lat="42.94503288753555" lon="11.950096922987079"><ele>247.0</ele><time>2026-05-01T13:43:34Z</time></trkpt><trkpt lat="42.94473636678873" lon="11.950259115801696"><ele>247.0</ele><time>2026-05-01T13:43:35Z</time></trkpt><trkpt lat="42.944439674573" lon="11.950421473469978"><ele>247.0</ele><time>2026-05-01T13:43:36Z</time></trkpt><trkpt lat="42.944144238319254" lon="11.950591011547765"><ele>247.5</ele><time>2026-05-01T13:43:37Z</time></trkpt><trkpt lat="42.94385075653246" lon="11.950762450486321"><ele>248.0</ele><time>2026-05-01T13:43:38Z</time></trkpt><trkpt lat="42.94355846341621" lon="11.950930755615072"><ele>247.5</ele><time>2026-05-01T13:43:39Z</time></trkpt><trkpt lat="42.94326577656816" lon="11.951097466302558"><ele>247.0</ele><time>2026-05-01T13:43:40Z</time></trkpt><trkpt lat="42.94297005714615" lon="11.951268642318118"><ele>247.0</ele><time>2026-05-01T13:43:41Z</time></trkpt><trkpt lat="42.942671567227954" lon="11.951437927736102"><ele>247.0</ele><time>2026-05-01T13:43:42Z</time></trkpt><trkpt lat="42.94237024446906" lon="11.951607174176747"><ele>246.5</ele><time>2026-05-01T13:43:43Z</time></trkpt><trkpt lat="42.94206503238283" lon="11.951775628582025"><ele>246.0</ele><time>2026-05-01T13:43:44Z</time></trkpt><trkpt lat="42.94176267466152" lon="11.95194438693807"><ele>247.0</ele><time>2026-05-01T13:43:45Z</time></trkpt><trkpt lat="42.941449176764564" lon="11.952108061904838"><ele>248.0</ele><time>2026-05-01T13:43:46Z</time></trkpt><trkpt lat="42.94113743921959" lon="11.952281621520061"><ele>248.0</ele><time>2026-05-01T13:43:47Z</time></trkpt><trkpt lat="42.94082270241518" lon="11.952454688992406"><ele>248.0</ele><time>2026-05-01T13:43:48Z</time></trkpt><trkpt lat="42.940510043701416" lon="11.952625780079687"><ele>248.0</ele><time>2026-05-01T13:43:49Z</time></trkpt><trkpt lat="42.94019504988137" lon="11.952795377881241"><ele>248.0</ele><time>2026-05-01T13:43:50Z</time></trkpt><trkpt lat="42.939881962444396" lon="11.95296371669215"><ele>248.0</ele><time>2026-05-01T13:43:51Z</time></trkpt><trkpt lat="42.939570867867424" lon="11.95313407955572"><ele>248.0</ele><time>2026-05-01T13:43:52Z</time></trkpt><trkpt lat="42.93925842377585" lon="11.953306541710722"><ele>248.0</ele><time>2026-05-01T13:43:53Z</time></trkpt><trkpt lat="42.938943845105676" lon="11.953479534095761"><ele>248.0</ele><time>2026-05-01T13:43:54Z</time></trkpt><trkpt lat="42.938630290656214" lon="11.953654525706861"><ele>248.0</ele><time>2026-05-01T13:43:55Z</time></trkpt><trkpt lat="42.93831783510887" lon="11.95383192500866"><ele>248.0</ele><time>2026-05-01T13:43:56Z</time></trkpt><trkpt lat="42.938007534638786" lon="11.954009433069537"><ele>248.0</ele><time>2026-05-01T13:43:57Z</time></trkpt><trkpt lat="42.93769642877402" lon="11.954188275291306"><ele>248.0</ele><time>2026-05-01T13:43:58Z</time></trkpt><trkpt lat="42.9373847496496" lon="11.954365640184683"><ele>247.0</ele><time>2026-05-01T13:43:59Z</time></trkpt><trkpt lat="42.93707302846952" lon="11.954540128446457"><ele>246.0</ele><time>2026-05-01T13:44:00Z</time></trkpt><trkpt lat="42.93676471285289" lon="11.95471165756034"><ele>246.0</ele><time>2026-05-01T13:44:01Z</time></trkpt><trkpt lat="42.93645534027827" lon="11.954883107711545"><ele>246.0</ele><time>2026-05-01T13:44:02Z</time></trkpt><trkpt lat="42.936148235516505" lon="11.95505211516958"><ele>246.0</ele><time>2026-05-01T13:44:03Z</time></trkpt><trkpt lat="42.93584247509699" lon="11.955220116132564"><ele>246.0</ele><time>2026-05-01T13:44:04Z</time></trkpt><trkpt lat="42.935536388074574" lon="11.955388876019548"><ele>246.0</ele><time>2026-05-01T13:44:05Z</time></trkpt><trkpt lat="42.93523208183641" lon="11.95555681169002"><ele>246.0</ele><time>2026-05-01T13:44:06Z</time></trkpt><trkpt lat="42.934928353241325" lon="11.955725683146548"><ele>247.0</ele><time>2026-05-01T13:44:07Z</time></trkpt><trkpt lat="42.93462477858337" lon="11.955896729572329"><ele>248.0</ele><time>2026-05-01T13:44:08Z</time></trkpt><trkpt lat="42.93432094978004" lon="11.95606789305366"><ele>247.5</ele><time>2026-05-01T13:44:09Z</time></trkpt><trkpt lat="42.934017831973776" lon="11.956238169142994"><ele>247.0</ele><time>2026-05-01T13:44:09.999Z</time></trkpt><trkpt lat="42.93371312547714" lon="11.95640869606055"><ele>247.0</ele><time>2026-05-01T13:44:10.999Z</time></trkpt><trkpt lat="42.9334057480677" lon="11.956579455787049"><ele>247.0</ele><time>2026-05-01T13:44:11.999Z</time></trkpt><trkpt lat="42.933097701345474" lon="11.956751609413606"><ele>246.5</ele><time>2026-05-01T13:44:12.999Z</time></trkpt><trkpt lat="42.93279048917861" lon="11.956929885641133"><ele>246.0</ele><time>2026-05-01T13:44:13.999Z</time></trkpt><trkpt lat="42.93248526259365" lon="11.957115049288939"><ele>246.0</ele><time>2026-05-01T13:44:14.999Z</time></trkpt><trkpt lat="42.93217986890983" lon="11.957302768922592"><ele>246.0</ele><time>2026-05-01T13:44:15.999Z</time></trkpt><trkpt lat="42.93187427438198" lon="11.957493998799515"><ele>246.5</ele><time>2026-05-01T13:44:16.999Z</time></trkpt><trkpt lat="42.931570044070824" lon="11.957688114346523"><ele>247.0</ele><time>2026-05-01T13:44:17.999Z</time></trkpt><trkpt lat="42.93126792096518" lon="11.957886158962738"><ele>247.0</ele><time>2026-05-01T13:44:18.999Z</time></trkpt><trkpt lat="42.93096766045592" lon="11.958086321593647"><ele>247.0</ele><time>2026-05-01T13:44:19.999Z</time></trkpt><trkpt lat="42.930670335653545" lon="11.958295320307489"><ele>246.5</ele><time>2026-05-01T13:44:20.999Z</time></trkpt><trkpt lat="42.93037437918814" lon="11.95850984783257"><ele>246.0</ele><time>2026-05-01T13:44:21.999Z</time></trkpt><trkpt lat="42.930081252907165" lon="11.95872601850118"><ele>247.0</ele><time>2026-05-01T13:44:22.999Z</time></trkpt><trkpt lat="42.92978895660699" lon="11.958942155811"><ele>248.0</ele><time>2026-05-01T13:44:23.999Z</time></trkpt><trkpt lat="42.929497161616446" lon="11.959158054188144"><ele>247.0</ele><time>2026-05-01T13:44:24.999Z</time></trkpt><trkpt lat="42.92920582072022" lon="11.959373579576255"><ele>246.0</ele><time>2026-05-01T13:44:25.999Z</time></trkpt><trkpt lat="42.92891066261752" lon="11.959589826317657"><ele>246.0</ele><time>2026-05-01T13:44:26.999Z</time></trkpt><trkpt lat="42.928614554454995" lon="11.959805424241734"><ele>246.0</ele><time>2026-05-01T13:44:27.999Z</time></trkpt><trkpt lat="42.928318869248244" lon="11.960020346478956"><ele>244.0</ele><time>2026-05-01T13:44:28.999Z</time></trkpt><trkpt lat="42.92802263559634" lon="11.960235121643711"><ele>242.0</ele><time>2026-05-01T13:44:29.999Z</time></trkpt><trkpt lat="42.92772768177217" lon="11.960450160261518"><ele>242.0</ele><time>2026-05-01T13:44:30.999Z</time></trkpt><trkpt lat="42.92743310246103" lon="11.960663971867689"><ele>242.0</ele><time>2026-05-01T13:44:31.999Z</time></trkpt><trkpt lat="42.927138940243005" lon="11.96087660221437"><ele>242.0</ele><time>2026-05-01T13:44:32.999Z</time></trkpt><trkpt lat="42.92684722370855" lon="11.961086943164569"><ele>242.0</ele><time>2026-05-01T13:44:33.999Z</time></trkpt><trkpt lat="42.92655810749235" lon="11.961297889864404"><ele>242.0</ele><time>2026-05-01T13:44:34.999Z</time></trkpt><trkpt lat="42.92626990497955" lon="11.961510286485623"><ele>242.0</ele><time>2026-05-01T13:44:35.999Z</time></trkpt><trkpt lat="42.92598300928409" lon="11.96172115389091"><ele>241.5</ele><time>2026-05-01T13:44:36.999Z</time></trkpt><trkpt lat="42.92569382369542" lon="11.961932853487548"><ele>241.0</ele><time>2026-05-01T13:44:37.999Z</time></trkpt><trkpt lat="42.925403341443825" lon="11.962144211526235"><ele>241.0</ele><time>2026-05-01T13:44:38.999Z</time></trkpt><trkpt lat="42.925111272774075" lon="11.962356945248363"><ele>241.0</ele><time>2026-05-01T13:44:39.999Z</time></trkpt><trkpt lat="42.924818610002134" lon="11.96257101174515"><ele>241.5</ele><time>2026-05-01T13:44:40.999Z</time></trkpt><trkpt lat="42.924525716252525" lon="11.962785953131009"><ele>242.0</ele><time>2026-05-01T13:44:41.999Z</time></trkpt><trkpt lat="42.924230503648666" lon="11.963001621913575"><ele>241.5</ele><time>2026-05-01T13:44:42.999Z</time></trkpt><trkpt lat="42.923935917348146" lon="11.963215373450586"><ele>241.0</ele><time>2026-05-01T13:44:43.999Z</time></trkpt><trkpt lat="42.92364000780406" lon="11.96342910897541"><ele>241.0</ele><time>2026-05-01T13:44:44.999Z</time></trkpt><trkpt lat="42.923346500999315" lon="11.96364521370552"><ele>241.0</ele><time>2026-05-01T13:44:45.999Z</time></trkpt><trkpt lat="42.92305411869273" lon="11.963863607652678"><ele>241.0</ele><time>2026-05-01T13:44:46.999Z</time></trkpt><trkpt lat="42.92276731961671" lon="11.964078943066694"><ele>241.0</ele><time>2026-05-01T13:44:47.999Z</time></trkpt><trkpt lat="42.92248521371432" lon="11.964293218282075"><ele>241.5</ele><time>2026-05-01T13:44:48.999Z</time></trkpt><trkpt lat="42.92220428090975" lon="11.964505313034202"><ele>242.0</ele><time>2026-05-01T13:44:49.999Z</time></trkpt><trkpt lat="42.921919819608206" lon="11.96471651018401"><ele>242.5</ele><time>2026-05-01T13:44:50.999Z</time></trkpt><trkpt lat="42.921632750252904" lon="11.964926677815011"><ele>243.0</ele><time>2026-05-01T13:44:51.999Z</time></trkpt><trkpt lat="42.92134287027812" lon="11.965137664937664"><ele>242.0</ele><time>2026-05-01T13:44:52.999Z</time></trkpt><trkpt lat="42.92105141130089" lon="11.965353567469837"><ele>241.0</ele><time>2026-05-01T13:44:53.999Z</time></trkpt><trkpt lat="42.92075813625997" lon="11.965569482795624"><ele>241.0</ele><time>2026-05-01T13:44:54.999Z</time></trkpt><trkpt lat="42.920465053499285" lon="11.96578401446812"><ele>241.0</ele><time>2026-05-01T13:44:55.999Z</time></trkpt><trkpt lat="42.92017050615803" lon="11.96599694205177"><ele>240.5</ele><time>2026-05-01T13:44:56.999Z</time></trkpt><trkpt lat="42.9198737787611" lon="11.966208760619963"><ele>240.0</ele><time>2026-05-01T13:44:58Z</time></trkpt><trkpt lat="42.919575915628926" lon="11.966422751361009"><ele>240.0</ele><time>2026-05-01T13:44:59Z</time></trkpt><trkpt lat="42.91927909671862" lon="11.966638074499455"><ele>240.0</ele><time>2026-05-01T13:45:00Z</time></trkpt><trkpt lat="42.91898196427465" lon="11.966853937419865"><ele>240.0</ele><time>2026-05-01T13:45:01Z</time></trkpt><trkpt lat="42.91868683201727" lon="11.967069218372256"><ele>240.0</ele><time>2026-05-01T13:45:02Z</time></trkpt><trkpt lat="42.91839103505739" lon="11.967284782411971"><ele>240.5</ele><time>2026-05-01T13:45:03Z</time></trkpt><trkpt lat="42.9180949144096" lon="11.967500922028655"><ele>241.0</ele><time>2026-05-01T13:45:04Z</time></trkpt><trkpt lat="42.91780019472932" lon="11.967716043727103"><ele>240.5</ele><time>2026-05-01T13:45:05Z</time></trkpt><trkpt lat="42.91750782722609" lon="11.967927916790213"><ele>240.0</ele><time>2026-05-01T13:45:06Z</time></trkpt><trkpt lat="42.91721398791838" lon="11.968141082756757"><ele>240.0</ele><time>2026-05-01T13:45:07Z</time></trkpt><trkpt lat="42.9169193671904" lon="11.968354748198305"><ele>240.0</ele><time>2026-05-01T13:45:08Z</time></trkpt><trkpt lat="42.91662544107813" lon="11.968567642680599"><ele>240.0</ele><time>2026-05-01T13:45:09Z</time></trkpt><trkpt lat="42.91633160402568" lon="11.968781715184779"><ele>240.0</ele><time>2026-05-01T13:45:10Z</time></trkpt><trkpt lat="42.91604121684773" lon="11.96899437324941"><ele>239.5</ele><time>2026-05-01T13:45:11Z</time></trkpt><trkpt lat="42.91574919878213" lon="11.969206401510682"><ele>239.0</ele><time>2026-05-01T13:45:12Z</time></trkpt><trkpt lat="42.91545749205053" lon="11.96941871311775"><ele>239.0</ele><time>2026-05-01T13:45:13Z</time></trkpt><trkpt lat="42.91516412726676" lon="11.96963190591259"><ele>239.0</ele><time>2026-05-01T13:45:14Z</time></trkpt><trkpt lat="42.91487251080944" lon="11.969847607480181"><ele>240.0</ele><time>2026-05-01T13:45:15Z</time></trkpt><trkpt lat="42.914582875809735" lon="11.97007092832698"><ele>241.0</ele><time>2026-05-01T13:45:16Z</time></trkpt><trkpt lat="42.91429750263633" lon="11.970305060896383"><ele>241.5</ele><time>2026-05-01T13:45:17Z</time></trkpt><trkpt lat="42.914018312007656" lon="11.970554617007275"><ele>242.0</ele><time>2026-05-01T13:45:18Z</time></trkpt><trkpt lat="42.913744997182405" lon="11.970818369097882"><ele>242.0</ele><time>2026-05-01T13:45:19Z</time></trkpt><trkpt lat="42.9134795277784" lon="11.971094853382144"><ele>242.0</ele><time>2026-05-01T13:45:20Z</time></trkpt><trkpt lat="42.913223046609524" lon="11.971386749616265"><ele>241.5</ele><time>2026-05-01T13:45:21Z</time></trkpt><trkpt lat="42.91297424530141" lon="11.971691018366492"><ele>241.0</ele><time>2026-05-01T13:45:22Z</time></trkpt><trkpt lat="42.91273355075085" lon="11.972008560095897"><ele>241.0</ele><time>2026-05-01T13:45:23Z</time></trkpt><trkpt lat="42.91249507581951" lon="11.972329097710265"><ele>241.0</ele><time>2026-05-01T13:45:24Z</time></trkpt><trkpt lat="42.91226984819987" lon="11.97266947290871"><ele>240.5</ele><time>2026-05-01T13:45:25Z</time></trkpt><trkpt lat="42.91205333648613" lon="11.973022023602853"><ele>240.0</ele><time>2026-05-01T13:45:26Z</time></trkpt><trkpt lat="42.911848458136625" lon="11.973384346729889"><ele>242.5</ele><time>2026-05-01T13:45:27Z</time></trkpt><trkpt lat="42.91165056659642" lon="11.97375816219226"><ele>245.0</ele><time>2026-05-01T13:45:28Z</time></trkpt><trkpt lat="42.91146277890504" lon="11.974142375181868"><ele>244.0</ele><time>2026-05-01T13:45:29Z</time></trkpt><trkpt lat="42.91128839076517" lon="11.974534891477775"><ele>243.0</ele><time>2026-05-01T13:45:30Z</time></trkpt><trkpt lat="42.91112380776362" lon="11.974934990129745"><ele>241.5</ele><time>2026-05-01T13:45:31Z</time></trkpt><trkpt lat="42.91097183890691" lon="11.975343819732114"><ele>240.0</ele><time>2026-05-01T13:45:32Z</time></trkpt><trkpt lat="42.910833673604216" lon="11.975761795318196"><ele>240.5</ele><time>2026-05-01T13:45:33Z</time></trkpt><trkpt lat="42.91069583598553" lon="11.976182470889304"><ele>241.0</ele><time>2026-05-01T13:45:34Z</time></trkpt><trkpt lat="42.91055523147557" lon="11.976607010660205"><ele>241.0</ele><time>2026-05-01T13:45:35Z</time></trkpt><trkpt lat="42.91041349807911" lon="11.977027936137675"><ele>241.0</ele><time>2026-05-01T13:45:36Z</time></trkpt><trkpt lat="42.91026985498774" lon="11.977449656584874"><ele>241.0</ele><time>2026-05-01T13:45:37Z</time></trkpt><trkpt lat="42.91012688209613" lon="11.977870757515188"><ele>241.0</ele><time>2026-05-01T13:45:38Z</time></trkpt><trkpt lat="42.909983014657804" lon="11.978292279290129"><ele>242.0</ele><time>2026-05-01T13:45:39Z</time></trkpt><trkpt lat="42.90983877592538" lon="11.97871276833317"><ele>243.0</ele><time>2026-05-01T13:45:40Z</time></trkpt><trkpt lat="42.90969263093595" lon="11.979131670717512"><ele>242.5</ele><time>2026-05-01T13:45:41Z</time></trkpt><trkpt lat="42.90954977794691" lon="11.979542971275494"><ele>242.0</ele><time>2026-05-01T13:45:42Z</time></trkpt><trkpt lat="42.90940795535238" lon="11.97995639494556"><ele>241.5</ele><time>2026-05-01T13:45:43Z</time></trkpt><trkpt lat="42.90926928816012" lon="11.980364076460923"><ele>241.0</ele><time>2026-05-01T13:45:44Z</time></trkpt><trkpt lat="42.90913220528769" lon="11.980766569802885"><ele>241.0</ele><time>2026-05-01T13:45:45Z</time></trkpt><trkpt lat="42.90899485846247" lon="11.981167882772798"><ele>241.0</ele><time>2026-05-01T13:45:46Z</time></trkpt><trkpt lat="42.90885780512271" lon="11.981565226088497"><ele>240.0</ele><time>2026-05-01T13:45:47Z</time></trkpt><trkpt lat="42.908722726619565" lon="11.981962216632628"><ele>239.0</ele><time>2026-05-01T13:45:48Z</time></trkpt><trkpt lat="42.908587922793195" lon="11.982356853167484"><ele>239.0</ele><time>2026-05-01T13:45:49Z</time></trkpt><trkpt lat="42.90845392635548" lon="11.982751531588255"><ele>239.0</ele><time>2026-05-01T13:45:50Z</time></trkpt><trkpt lat="42.90832192202962" lon="11.98314547633778"><ele>240.0</ele><time>2026-05-01T13:45:51Z</time></trkpt><trkpt lat="42.90819137700622" lon="11.983540661895258"><ele>241.0</ele><time>2026-05-01T13:45:52Z</time></trkpt><trkpt lat="42.908058749761" lon="11.983937517908243"><ele>240.5</ele><time>2026-05-01T13:45:53Z</time></trkpt><trkpt lat="42.90792598150386" lon="11.98433347678236"><ele>240.0</ele><time>2026-05-01T13:45:54Z</time></trkpt><trkpt lat="42.90779398008215" lon="11.984731363061643"><ele>240.5</ele><time>2026-05-01T13:45:55Z</time></trkpt><trkpt lat="42.90766066819854" lon="11.985133512896974"><ele>241.0</ele><time>2026-05-01T13:45:56Z</time></trkpt><trkpt lat="42.90752708128285" lon="11.985536412114916"><ele>241.5</ele><time>2026-05-01T13:45:57Z</time></trkpt><trkpt lat="42.90739161090278" lon="11.985938880941047"><ele>242.0</ele><time>2026-05-01T13:45:58Z</time></trkpt><trkpt lat="42.9072554001527" lon="11.98634170121399"><ele>243.0</ele><time>2026-05-01T13:45:59Z</time></trkpt><trkpt lat="42.90711748139476" lon="11.986747521042075"><ele>244.0</ele><time>2026-05-01T13:46:00Z</time></trkpt><trkpt lat="42.906980021154446" lon="11.987155598778921"><ele>243.5</ele><time>2026-05-01T13:46:01Z</time></trkpt><trkpt lat="42.90684585575186" lon="11.98756504321049"><ele>243.0</ele><time>2026-05-01T13:46:02Z</time></trkpt><trkpt lat="42.90671137392447" lon="11.987976924241455"><ele>242.0</ele><time>2026-05-01T13:46:03Z</time></trkpt><trkpt lat="42.90657520773277" lon="11.988388704764438"><ele>241.0</ele><time>2026-05-01T13:46:04Z</time></trkpt><trkpt lat="42.9064374702399" lon="11.988799817792474"><ele>241.0</ele><time>2026-05-01T13:46:05Z</time></trkpt><trkpt lat="42.90629690158528" lon="11.989211513884717"><ele>241.0</ele><time>2026-05-01T13:46:06Z</time></trkpt><trkpt lat="42.90615651904272" lon="11.989623601273484"><ele>240.0</ele><time>2026-05-01T13:46:07Z</time></trkpt><trkpt lat="42.90601345144599" lon="11.990035641810854"><ele>239.0</ele><time>2026-05-01T13:46:08Z</time></trkpt><trkpt lat="42.90586194621629" lon="11.990444313910718"><ele>242.0</ele><time>2026-05-01T13:46:09Z</time></trkpt><trkpt lat="42.905696269164025" lon="11.990838314578445"><ele>245.0</ele><time>2026-05-01T13:46:10Z</time></trkpt><trkpt lat="42.90551576886665" lon="11.991217850748011"><ele>245.0</ele><time>2026-05-01T13:46:11Z</time></trkpt><trkpt lat="42.90532677983689" lon="11.991587132358104"><ele>245.0</ele><time>2026-05-01T13:46:12Z</time></trkpt><trkpt lat="42.90513450685347" lon="11.991939175408517"><ele>247.5</ele><time>2026-05-01T13:46:12.999Z</time></trkpt><trkpt lat="42.90493830111114" lon="11.99228285587619"><ele>250.0</ele><time>2026-05-01T13:46:13.999Z</time></trkpt><trkpt lat="42.90473289470715" lon="11.992613588979557"><ele>250.0</ele><time>2026-05-01T13:46:14.999Z</time></trkpt><trkpt lat="42.90451708983416" lon="11.992934502904868"><ele>250.0</ele><time>2026-05-01T13:46:15.999Z</time></trkpt><trkpt lat="42.904292352564674" lon="11.99324738940156"><ele>251.0</ele><time>2026-05-01T13:46:16.999Z</time></trkpt><trkpt lat="42.904064430502416" lon="11.993554357484642"><ele>252.0</ele><time>2026-05-01T13:46:17.999Z</time></trkpt><trkpt lat="42.903835159668375" lon="11.993864000717243"><ele>252.5</ele><time>2026-05-01T13:46:18.999Z</time></trkpt><trkpt lat="42.90360621575149" lon="11.994177316651907"><ele>253.0</ele><time>2026-05-01T13:46:19.999Z</time></trkpt><trkpt lat="42.903377428323594" lon="11.994495378982016"><ele>251.5</ele><time>2026-05-01T13:46:20.999Z</time></trkpt><trkpt lat="42.90314742483295" lon="11.994815114036385"><ele>250.0</ele><time>2026-05-01T13:46:21.999Z</time></trkpt><trkpt lat="42.902915616001316" lon="11.995134521069579"><ele>250.0</ele><time>2026-05-01T13:46:22.999Z</time></trkpt><trkpt lat="42.902681857646115" lon="11.995456622899539"><ele>250.0</ele><time>2026-05-01T13:46:23.999Z</time></trkpt><trkpt lat="42.9024478520845" lon="11.995780250160422"><ele>250.0</ele><time>2026-05-01T13:46:24.999Z</time></trkpt><trkpt lat="42.90221535875735" lon="11.99610267734352"><ele>250.0</ele><time>2026-05-01T13:46:25.999Z</time></trkpt><trkpt lat="42.90198495876591" lon="11.996424013271445"><ele>249.5</ele><time>2026-05-01T13:46:26.999Z</time></trkpt><trkpt lat="42.90175539525212" lon="11.996746712269664"><ele>249.0</ele><time>2026-05-01T13:46:27.999Z</time></trkpt><trkpt lat="42.901523995613296" lon="11.997071793618781"><ele>249.0</ele><time>2026-05-01T13:46:28.999Z</time></trkpt><trkpt lat="42.90129187479249" lon="11.997394929254456"><ele>249.0</ele><time>2026-05-01T13:46:29.999Z</time></trkpt><trkpt lat="42.901057982930176" lon="11.9977171118513"><ele>248.0</ele><time>2026-05-01T13:46:30.999Z</time></trkpt><trkpt lat="42.90082409519392" lon="11.998036447331963"><ele>247.0</ele><time>2026-05-01T13:46:31.999Z</time></trkpt><trkpt lat="42.90058996473187" lon="11.99835488991653"><ele>245.5</ele><time>2026-05-01T13:46:32.999Z</time></trkpt><trkpt lat="42.90035918905038" lon="11.99867330478535"><ele>244.0</ele><time>2026-05-01T13:46:33.999Z</time></trkpt><trkpt lat="42.900130714440834" lon="11.998992320925314"><ele>244.0</ele><time>2026-05-01T13:46:34.999Z</time></trkpt><trkpt lat="42.89990287324534" lon="11.999314935207337"><ele>244.0</ele><time>2026-05-01T13:46:35.999Z</time></trkpt><trkpt lat="42.899675900184995" lon="11.999636764381778"><ele>244.0</ele><time>2026-05-01T13:46:36.999Z</time></trkpt><trkpt lat="42.89945059187734" lon="11.999954958325024"><ele>244.0</ele><time>2026-05-01T13:46:37.999Z</time></trkpt><trkpt lat="42.899226787290935" lon="12.00027035925179"><ele>244.5</ele><time>2026-05-01T13:46:38.999Z</time></trkpt><trkpt lat="42.89900572975184" lon="12.000582214552946"><ele>245.0</ele><time>2026-05-01T13:46:39.999Z</time></trkpt><trkpt lat="42.898780066342084" lon="12.000894538404411"><ele>245.0</ele><time>2026-05-01T13:46:40.999Z</time></trkpt><trkpt lat="42.89855528373243" lon="12.0012018349844"><ele>245.0</ele><time>2026-05-01T13:46:41.999Z</time></trkpt><trkpt lat="42.89833067858197" lon="12.001507460577294"><ele>246.0</ele><time>2026-05-01T13:46:42.999Z</time></trkpt><trkpt lat="42.898106963606594" lon="12.001814107607268"><ele>247.0</ele><time>2026-05-01T13:46:43.999Z</time></trkpt><trkpt lat="42.897883482679326" lon="12.0021218023326"><ele>247.0</ele><time>2026-05-01T13:46:44.999Z</time></trkpt><trkpt lat="42.897656893329795" lon="12.00243006022518"><ele>247.0</ele><time>2026-05-01T13:46:45.999Z</time></trkpt><trkpt lat="42.897429974787286" lon="12.002738072584874"><ele>246.5</ele><time>2026-05-01T13:46:46.999Z</time></trkpt><trkpt lat="42.89720072946598" lon="12.003049007507919"><ele>246.0</ele><time>2026-05-01T13:46:47.999Z</time></trkpt><trkpt lat="42.896969266711146" lon="12.003361033872661"><ele>247.0</ele><time>2026-05-01T13:46:48.999Z</time></trkpt><trkpt lat="42.89673694169711" lon="12.003675831718915"><ele>248.0</ele><time>2026-05-01T13:46:49.999Z</time></trkpt><trkpt lat="42.89650422208207" lon="12.003991611675982"><ele>248.0</ele><time>2026-05-01T13:46:50.999Z</time></trkpt><trkpt lat="42.896269893880344" lon="12.004308941038342"><ele>248.0</ele><time>2026-05-01T13:46:51.999Z</time></trkpt><trkpt lat="42.89603485139142" lon="12.004629586689955"><ele>248.5</ele><time>2026-05-01T13:46:52.999Z</time></trkpt><trkpt lat="42.8957981993213" lon="12.004951682435514"><ele>249.0</ele><time>2026-05-01T13:46:53.999Z</time></trkpt><trkpt lat="42.89556056742269" lon="12.005274564707678"><ele>249.0</ele><time>2026-05-01T13:46:54.999Z</time></trkpt><trkpt lat="42.89532409508076" lon="12.005597795347093"><ele>249.0</ele><time>2026-05-01T13:46:55.999Z</time></trkpt><trkpt lat="42.89508442059712" lon="12.005924453036535"><ele>248.0</ele><time>2026-05-01T13:46:56.999Z</time></trkpt><trkpt lat="42.894844857762926" lon="12.00625234700368"><ele>247.0</ele><time>2026-05-01T13:46:57.999Z</time></trkpt><trkpt lat="42.89460515491557" lon="12.006581690262182"><ele>246.5</ele><time>2026-05-01T13:46:58.999Z</time></trkpt><trkpt lat="42.89436470814234" lon="12.00691114355975"><ele>246.0</ele><time>2026-05-01T13:46:59.999Z</time></trkpt><trkpt lat="42.8941239136523" lon="12.007239241797864"><ele>247.0</ele><time>2026-05-01T13:47:00.999Z</time></trkpt><trkpt lat="42.89388296500099" lon="12.007568048690233"><ele>248.0</ele><time>2026-05-01T13:47:01.999Z</time></trkpt><trkpt lat="42.893644507035354" lon="12.007893010352364"><ele>248.5</ele><time>2026-05-01T13:47:02.999Z</time></trkpt><trkpt lat="42.89341058268263" lon="12.008210825533359"><ele>249.0</ele><time>2026-05-01T13:47:04Z</time></trkpt><trkpt lat="42.893175185137686" lon="12.008517710265457"><ele>249.0</ele><time>2026-05-01T13:47:05Z</time></trkpt><trkpt lat="42.89292221480385" lon="12.008808503439568"><ele>249.0</ele><time>2026-05-01T13:47:06Z</time></trkpt><trkpt lat="42.89264963746793" lon="12.009065374015975"><ele>247.0</ele><time>2026-05-01T13:47:07Z</time></trkpt><trkpt lat="42.892372484677594" lon="12.009290856098005"><ele>245.0</ele><time>2026-05-01T13:47:08Z</time></trkpt><trkpt lat="42.892089890421154" lon="12.009495151866991"><ele>245.0</ele><time>2026-05-01T13:47:09Z</time></trkpt><trkpt lat="42.891799625482314" lon="12.00967801323245"><ele>245.0</ele><time>2026-05-01T13:47:10Z</time></trkpt><trkpt lat="42.89150404903591" lon="12.0098437533974"><ele>242.5</ele><time>2026-05-01T13:47:11Z</time></trkpt><trkpt lat="42.89120728233639" lon="12.009999984062144"><ele>240.0</ele><time>2026-05-01T13:47:12Z</time></trkpt><trkpt lat="42.89091106916221" lon="12.010156615508105"><ele>239.0</ele><time>2026-05-01T13:47:13Z</time></trkpt><trkpt lat="42.890618553393786" lon="12.010317132771597"><ele>238.0</ele><time>2026-05-01T13:47:14Z</time></trkpt><trkpt lat="42.89032497143215" lon="12.01047584359645"><ele>237.0</ele><time>2026-05-01T13:47:15Z</time></trkpt><trkpt lat="42.89003178893253" lon="12.010635197536876"><ele>236.0</ele><time>2026-05-01T13:47:16Z</time></trkpt><trkpt lat="42.8897350304349" lon="12.01079447549156"><ele>236.0</ele><time>2026-05-01T13:47:17Z</time></trkpt><trkpt lat="42.88944007628776" lon="12.010953597068776"><ele>236.0</ele><time>2026-05-01T13:47:18Z</time></trkpt><trkpt lat="42.88914411195005" lon="12.011112041568856"><ele>236.5</ele><time>2026-05-01T13:47:19Z</time></trkpt><trkpt lat="42.888849569393784" lon="12.011270370944107"><ele>237.0</ele><time>2026-05-01T13:47:20Z</time></trkpt><trkpt lat="42.88855460377429" lon="12.01142742675699"><ele>237.0</ele><time>2026-05-01T13:47:21Z</time></trkpt><trkpt lat="42.88825968248241" lon="12.011584800224572"><ele>237.0</ele><time>2026-05-01T13:47:22Z</time></trkpt><trkpt lat="42.88796646061084" lon="12.0117465358583"><ele>237.0</ele><time>2026-05-01T13:47:23Z</time></trkpt><trkpt lat="42.887669916393556" lon="12.011909742185798"><ele>237.0</ele><time>2026-05-01T13:47:24Z</time></trkpt><trkpt lat="42.8873707508517" lon="12.01207221097616"><ele>236.5</ele><time>2026-05-01T13:47:25Z</time></trkpt><trkpt lat="42.88707252634316" lon="12.012233591512782"><ele>236.0</ele><time>2026-05-01T13:47:26Z</time></trkpt><trkpt lat="42.88677455796427" lon="12.012392878489925"><ele>236.5</ele><time>2026-05-01T13:47:27Z</time></trkpt><trkpt lat="42.886478899932186" lon="12.012549124643018"><ele>237.0</ele><time>2026-05-01T13:47:28Z</time></trkpt><trkpt lat="42.886182142277754" lon="12.012708395594546"><ele>236.5</ele><time>2026-05-01T13:47:29Z</time></trkpt><trkpt lat="42.88588377660627" lon="12.012869838667697"><ele>236.0</ele><time>2026-05-01T13:47:30Z</time></trkpt><trkpt lat="42.88558962728221" lon="12.013028335926935"><ele>236.0</ele><time>2026-05-01T13:47:31Z</time></trkpt><trkpt lat="42.8853023673416" lon="12.013182108033464"><ele>236.0</ele><time>2026-05-01T13:47:32Z</time></trkpt><trkpt lat="42.88502509580262" lon="12.013334148080839"><ele>235.5</ele><time>2026-05-01T13:47:33Z</time></trkpt><trkpt lat="42.88475488456166" lon="12.01347935944957"><ele>235.0</ele><time>2026-05-01T13:47:34Z</time></trkpt><trkpt lat="42.884494604435666" lon="12.013620143103287"><ele>235.5</ele><time>2026-05-01T13:47:35Z</time></trkpt><trkpt lat="42.88424225700566" lon="12.013756352585167"><ele>236.0</ele><time>2026-05-01T13:47:36Z</time></trkpt><trkpt lat="42.884000672283214" lon="12.01388632529976"><ele>236.0</ele><time>2026-05-01T13:47:37Z</time></trkpt><trkpt lat="42.883759385075095" lon="12.01401480917873"><ele>236.0</ele><time>2026-05-01T13:47:38Z</time></trkpt><trkpt lat="42.883519885250394" lon="12.0141450162114"><ele>237.5</ele><time>2026-05-01T13:47:39Z</time></trkpt><trkpt lat="42.88328403745866" lon="12.01427195577252"><ele>239.0</ele><time>2026-05-01T13:47:40Z</time></trkpt><trkpt lat="42.88305458269568" lon="12.014394965134997"><ele>239.0</ele><time>2026-05-01T13:47:41Z</time></trkpt><trkpt lat="42.88282878863008" lon="12.014516572227615"><ele>239.0</ele><time>2026-05-01T13:47:42Z</time></trkpt><trkpt lat="42.882599142569354" lon="12.01464174714207"><ele>243.0</ele><time>2026-05-01T13:47:43Z</time></trkpt><trkpt lat="42.88236429857374" lon="12.01476649214419"><ele>247.0</ele><time>2026-05-01T13:47:44Z</time></trkpt><trkpt lat="42.88212580906844" lon="12.014892711472157"><ele>247.5</ele><time>2026-05-01T13:47:45Z</time></trkpt><trkpt lat="42.88188876582321" lon="12.015019431357048"><ele>248.0</ele><time>2026-05-01T13:47:46Z</time></trkpt><trkpt lat="42.88165253552905" lon="12.015147802282014"><ele>246.5</ele><time>2026-05-01T13:47:47Z</time></trkpt><trkpt lat="42.88141738705267" lon="12.015274203184731"><ele>245.0</ele><time>2026-05-01T13:47:48Z</time></trkpt><trkpt lat="42.88118729458496" lon="12.015397320627768"><ele>245.0</ele><time>2026-05-01T13:47:49Z</time></trkpt><trkpt lat="42.88096646210774" lon="12.015516358279983"><ele>245.0</ele><time>2026-05-01T13:47:50Z</time></trkpt><trkpt lat="42.88075753066676" lon="12.01562791508471"><ele>244.66666666666669</ele><time>2026-05-01T13:47:51Z</time></trkpt><trkpt lat="42.88055453070238" lon="12.015736011544687"><ele>244.33333333333331</ele><time>2026-05-01T13:47:52Z</time></trkpt><trkpt lat="42.880354968950954" lon="12.015842064489046"><ele>244.0</ele><time>2026-05-01T13:47:53Z</time></trkpt><trkpt lat="42.880161816503126" lon="12.015944180541918"><ele>244.0</ele><time>2026-05-01T13:47:54Z</time></trkpt><trkpt lat="42.87997163291187" lon="12.016047099305666"><ele>244.0</ele><time>2026-05-01T13:47:55Z</time></trkpt><trkpt lat="42.87977802004503" lon="12.01615154579042"><ele>244.0</ele><time>2026-05-01T13:47:56Z</time></trkpt><trkpt lat="42.879585173344466" lon="12.016256206079762"><ele>244.0</ele><time>2026-05-01T13:47:57Z</time></trkpt><trkpt lat="42.879392584600915" lon="12.016358755707996"><ele>244.0</ele><time>2026-05-01T13:47:58Z</time></trkpt><trkpt lat="42.87920627926221" lon="12.016458736776448"><ele>244.0</ele><time>2026-05-01T13:47:59Z</time></trkpt><trkpt lat="42.87902680105178" lon="12.01655504716373"><ele>244.33333333333331</ele><time>2026-05-01T13:48:00Z</time></trkpt><trkpt lat="42.87885872598197" lon="12.016648864833705"><ele>244.66666666666669</ele><time>2026-05-01T13:48:01Z</time></trkpt><trkpt lat="42.87870480737283" lon="12.016733023157324"><ele>245.0</ele><time>2026-05-01T13:48:02Z</time></trkpt><trkpt lat="42.87856191829432" lon="12.016810194117076"><ele>245.0</ele><time>2026-05-01T13:48:03Z</time></trkpt><trkpt lat="42.87842881028851" lon="12.01688187813225"><ele>245.0</ele><time>2026-05-01T13:48:04Z</time></trkpt><trkpt lat="42.87829766969519" lon="12.016952710251694"><ele>245.0</ele><time>2026-05-01T13:48:05Z</time></trkpt><trkpt lat="42.878166549430304" lon="12.017022506439638"><ele>245.0</ele><time>2026-05-01T13:48:06Z</time></trkpt><trkpt lat="42.87803241065618" lon="12.017091160648732"><ele>245.0</ele><time>2026-05-01T13:48:07Z</time></trkpt><trkpt lat="42.877900203291475" lon="12.017157438819632"><ele>245.0</ele><time>2026-05-01T13:48:08Z</time></trkpt><trkpt lat="42.87777398791831" lon="12.017217325199844"><ele>245.0</ele><time>2026-05-01T13:48:09Z</time></trkpt><trkpt lat="42.87765222266306" lon="12.017267937615552"><ele>245.0</ele><time>2026-05-01T13:48:10Z</time></trkpt><trkpt lat="42.87753473909644" lon="12.01730812360567"><ele>245.0</ele><time>2026-05-01T13:48:11Z</time></trkpt><trkpt lat="42.877417670722544" lon="12.017335265115245"><ele>245.0</ele><time>2026-05-01T13:48:12Z</time></trkpt><trkpt lat="42.87731305300745" lon="12.0173445521761"><ele>245.0</ele><time>2026-05-01T13:48:13Z</time></trkpt><trkpt lat="42.87721342558069" lon="12.017345888413697"><ele>245.0</ele><time>2026-05-01T13:48:14Z</time></trkpt><trkpt lat="42.87711908648226" lon="12.017342703456805"><ele>245.0</ele><time>2026-05-01T13:48:14.999Z</time></trkpt><trkpt lat="42.8770336948133" lon="12.017335222421188"><ele>245.0</ele><time>2026-05-01T13:48:15.999Z</time></trkpt><trkpt lat="42.87696341993912" lon="12.017292826404239"><ele>245.0</ele><time>2026-05-01T13:48:16.999Z</time></trkpt><trkpt lat="42.87688417885897" lon="12.017328588934047"><ele>245.0</ele><time>2026-05-01T13:48:17.999Z</time></trkpt><trkpt lat="42.876818086588656" lon="12.01733453894581"><ele>245.0</ele><time>2026-05-01T13:48:18.999Z</time></trkpt><trkpt lat="42.87675185261304" lon="12.01735234337943"><ele>245.0</ele><time>2026-05-01T13:48:19.999Z</time></trkpt><trkpt lat="42.87668961950763" lon="12.017384338938333"><ele>245.0</ele><time>2026-05-01T13:48:20.999Z</time></trkpt><trkpt lat="42.87662333156419" lon="12.01742925381853"><ele>245.0</ele><time>2026-05-01T13:48:21.999Z</time></trkpt><trkpt lat="42.87654435557178" lon="12.017482340053649"><ele>244.83333333333334</ele><time>2026-05-01T13:48:22.999Z</time></trkpt><trkpt lat="42.876457310465376" lon="12.017532569116698"><ele>244.66666666666669</ele><time>2026-05-01T13:48:23.999Z</time></trkpt><trkpt lat="42.87636165637814" lon="12.017575139569674"><ele>244.5</ele><time>2026-05-01T13:48:24.999Z</time></trkpt><trkpt lat="42.87627206294239" lon="12.017615138038455"><ele>244.33333333333331</ele><time>2026-05-01T13:48:25.999Z</time></trkpt><trkpt lat="42.87619457788506" lon="12.017649184210967"><ele>244.16666666666666</ele><time>2026-05-01T13:48:26.999Z</time></trkpt><trkpt lat="42.87612323839085" lon="12.017687928794434"><ele>244.0</ele><time>2026-05-01T13:48:27.999Z</time></trkpt><trkpt lat="42.87605558843027" lon="12.01772646663405"><ele>243.99999999999997</ele><time>2026-05-01T13:48:28.999Z</time></trkpt><trkpt lat="42.875988028462" lon="12.017760950436344"><ele>244.0</ele><time>2026-05-01T13:48:29.999Z</time></trkpt><trkpt lat="42.87588623501144" lon="12.017708324615105"><ele>244.0</ele><time>2026-05-01T13:48:30.999Z</time></trkpt><trkpt lat="42.87582540862158" lon="12.01775462881693"><ele>244.0</ele><time>2026-05-01T13:48:31.999Z</time></trkpt><trkpt lat="42.875766712092386" lon="12.017799311657965"><ele>243.99999999999997</ele><time>2026-05-01T13:48:32.999Z</time></trkpt><trkpt lat="42.8756626084333" lon="12.01787426813023"><ele>244.0</ele><time>2026-05-01T13:48:34.999Z</time></trkpt><trkpt lat="42.875552804626736" lon="12.01788551604832"><ele>244.2</ele><time>2026-05-01T13:48:36.999Z</time></trkpt><trkpt lat="42.87547588063919" lon="12.017892816595472"><ele>244.39999999999998</ele><time>2026-05-01T13:48:38.999Z</time></trkpt><trkpt lat="42.875387896498026" lon="12.017880266619928"><ele>244.6</ele><time>2026-05-01T13:51:03.999Z</time></trkpt><trkpt lat="42.87535078483382" lon="12.017801766048196"><ele>244.8</ele><time>2026-05-01T13:51:19Z</time></trkpt><trkpt lat="42.87531886947384" lon="12.017584933242333"><ele>245.0</ele><time>2026-05-01T13:51:34.033Z</time></trkpt><trkpt lat="42.875206836032284" lon="12.017756932719248"><ele>245.0</ele><time>2026-05-01T13:51:36Z</time></trkpt><trkpt lat="42.875205629974474" lon="12.01784532869956"><ele>245.0</ele><time>2026-05-01T13:51:37Z</time></trkpt><trkpt lat="42.87538404642015" lon="12.017876652472609"><ele>245.0</ele><time>2026-05-01T13:51:49Z</time></trkpt><trkpt lat="42.87547546612677" lon="12.017873443101996"><ele>245.0</ele><time>2026-05-01T13:52:17Z</time></trkpt><trkpt lat="42.87540638571764" lon="12.017906462358134"><ele>245.0</ele><time>2026-05-01T13:53:32Z</time></trkpt><trkpt lat="42.87532978546473" lon="12.0179487481741"><ele>245.0</ele><time>2026-05-01T13:53:35Z</time></trkpt><trkpt lat="42.87527681518985" lon="12.018022019345471"><ele>245.0</ele><time>2026-05-01T13:53:39Z</time></trkpt><trkpt lat="42.875253013102906" lon="12.018143019434758"><ele>245.0</ele><time>2026-05-01T14:11:11.999Z</time></trkpt><trkpt lat="42.875212954219435" lon="12.018249958839752"><ele>245.0</ele><time>2026-05-01T14:11:13.999Z</time></trkpt><trkpt lat="42.875127762804205" lon="12.018375061110678"><ele>245.0</ele><time>2026-05-01T14:11:15.999Z</time></trkpt><trkpt lat="42.875061271473115" lon="12.018424618520655"><ele>244.66666666666669</ele><time>2026-05-01T14:11:16.999Z</time></trkpt><trkpt lat="42.87498777629764" lon="12.018464723419699"><ele>244.33333333333334</ele><time>2026-05-01T14:11:17.999Z</time></trkpt><trkpt lat="42.874926272066084" lon="12.018495535714132"><ele>244.0</ele><time>2026-05-01T14:11:18.999Z</time></trkpt><trkpt lat="42.87486535868545" lon="12.018529849843366"><ele>243.66666666666669</ele><time>2026-05-01T14:11:19.999Z</time></trkpt><trkpt lat="42.874795347573446" lon="12.018591754210993"><ele>243.33333333333334</ele><time>2026-05-01T14:11:20.999Z</time></trkpt><trkpt lat="42.87471705897397" lon="12.018677386787834"><ele>243.0</ele><time>2026-05-01T14:11:21.999Z</time></trkpt><trkpt lat="42.87462846440031" lon="12.018772315921213"><ele>243.0</ele><time>2026-05-01T14:11:22.999Z</time></trkpt><trkpt lat="42.874526597461696" lon="12.01886692913115"><ele>243.0</ele><time>2026-05-01T14:11:23.999Z</time></trkpt><trkpt lat="42.87441088177878" lon="12.018961955807368"><ele>243.0</ele><time>2026-05-01T14:11:24.999Z</time></trkpt><trkpt lat="42.87428427749555" lon="12.019049620197212"><ele>243.0</ele><time>2026-05-01T14:11:25.999Z</time></trkpt><trkpt lat="42.87414471196718" lon="12.019134983195732"><ele>243.33333333333331</ele><time>2026-05-01T14:11:26.999Z</time></trkpt><trkpt lat="42.87399478743366" lon="12.019216694685934"><ele>243.66666666666666</ele><time>2026-05-01T14:11:27.999Z</time></trkpt><trkpt lat="42.87384355329842" lon="12.019302876307988"><ele>244.0</ele><time>2026-05-01T14:11:28.999Z</time></trkpt><trkpt lat="42.8736895301488" lon="12.019404795926631"><ele>244.0</ele><time>2026-05-01T14:11:29.999Z</time></trkpt><trkpt lat="42.87352765956546" lon="12.019511010967113"><ele>244.0</ele><time>2026-05-01T14:11:30.999Z</time></trkpt><trkpt lat="42.87336406566644" lon="12.019635064306343"><ele>244.0</ele><time>2026-05-01T14:11:31.999Z</time></trkpt><trkpt lat="42.87319532648669" lon="12.01977220393977"><ele>244.33333333333331</ele><time>2026-05-01T14:11:32.999Z</time></trkpt><trkpt lat="42.873017116959545" lon="12.01991938781776"><ele>244.66666666666669</ele><time>2026-05-01T14:11:33.999Z</time></trkpt><trkpt lat="42.87283667852976" lon="12.020079030837948"><ele>245.0</ele><time>2026-05-01T14:11:34.999Z</time></trkpt><trkpt lat="42.872654785298984" lon="12.020249594738834"><ele>244.5</ele><time>2026-05-01T14:11:35.999Z</time></trkpt><trkpt lat="42.87246498793256" lon="12.020436218282168"><ele>244.0</ele><time>2026-05-01T14:11:36.999Z</time></trkpt><trkpt lat="42.87226987482218" lon="12.02063562993697"><ele>242.0</ele><time>2026-05-01T14:11:37.999Z</time></trkpt><trkpt lat="42.87206993859541" lon="12.020853435113045"><ele>240.0</ele><time>2026-05-01T14:11:38.999Z</time></trkpt><trkpt lat="42.871871470619524" lon="12.02108912795356"><ele>240.0</ele><time>2026-05-01T14:11:39.999Z</time></trkpt><trkpt lat="42.871677569546506" lon="12.021344577882846"><ele>240.0</ele><time>2026-05-01T14:11:40.999Z</time></trkpt><trkpt lat="42.871481248615865" lon="12.021616746133219"><ele>240.5</ele><time>2026-05-01T14:11:41.999Z</time></trkpt><trkpt lat="42.8712868312664" lon="12.021907717190013"><ele>241.0</ele><time>2026-05-01T14:11:42.999Z</time></trkpt><trkpt lat="42.871087773221056" lon="12.022215409676617"><ele>239.5</ele><time>2026-05-01T14:11:43.999Z</time></trkpt><trkpt lat="42.870884419746375" lon="12.022529722584546"><ele>238.0</ele><time>2026-05-01T14:11:44.999Z</time></trkpt><trkpt lat="42.870677618404095" lon="12.02284978088762"><ele>238.0</ele><time>2026-05-01T14:11:45.999Z</time></trkpt><trkpt lat="42.870469653069996" lon="12.023170698470645"><ele>238.0</ele><time>2026-05-01T14:11:46.999Z</time></trkpt><trkpt lat="42.870259880384594" lon="12.023494527692835"><ele>237.5</ele><time>2026-05-01T14:11:47.999Z</time></trkpt><trkpt lat="42.87005337444925" lon="12.023805018568998"><ele>237.0</ele><time>2026-05-01T14:11:48.999Z</time></trkpt><trkpt lat="42.86985565936278" lon="12.024109205880876"><ele>237.5</ele><time>2026-05-01T14:11:49.999Z</time></trkpt><trkpt lat="42.86966362836926" lon="12.02440631792885"><ele>238.0</ele><time>2026-05-01T14:11:50.999Z</time></trkpt><trkpt lat="42.869476187032134" lon="12.024699036933423"><ele>237.5</ele><time>2026-05-01T14:11:51.999Z</time></trkpt><trkpt lat="42.869282266605474" lon="12.024982587510793"><ele>237.0</ele><time>2026-05-01T14:11:52.999Z</time></trkpt><trkpt lat="42.86909110735547" lon="12.02527268998778"><ele>236.5</ele><time>2026-05-01T14:11:53.999Z</time></trkpt><trkpt lat="42.86890135186505" lon="12.025566782294488"><ele>236.0</ele><time>2026-05-01T14:11:54.999Z</time></trkpt><trkpt lat="42.86871006388387" lon="12.025862822282535"><ele>237.5</ele><time>2026-05-01T14:11:55.999Z</time></trkpt><trkpt lat="42.86851974771187" lon="12.026162133579566"><ele>239.0</ele><time>2026-05-01T14:11:56.999Z</time></trkpt><trkpt lat="42.868323965645004" lon="12.026461527986443"><ele>239.0</ele><time>2026-05-01T14:11:57.999Z</time></trkpt><trkpt lat="42.86812815848865" lon="12.026761212479038"><ele>239.0</ele><time>2026-05-01T14:11:58.999Z</time></trkpt><trkpt lat="42.867932086593356" lon="12.027065556337632"><ele>239.0</ele><time>2026-05-01T14:11:59.999Z</time></trkpt><trkpt lat="42.86773402270564" lon="12.027358362727906"><ele>239.0</ele><time>2026-05-01T14:12:00.999Z</time></trkpt><trkpt lat="42.86753281111309" lon="12.027659264487529"><ele>239.0</ele><time>2026-05-01T14:12:01.999Z</time></trkpt><trkpt lat="42.86733495513418" lon="12.027962814417961"><ele>239.0</ele><time>2026-05-01T14:12:02.999Z</time></trkpt><trkpt lat="42.86713760359673" lon="12.028269362301522"><ele>238.5</ele><time>2026-05-01T14:12:03.999Z</time></trkpt><trkpt lat="42.86693518624079" lon="12.02858044961808"><ele>238.0</ele><time>2026-05-01T14:12:04.999Z</time></trkpt><trkpt lat="42.86672492547055" lon="12.02889835955946"><ele>237.0</ele><time>2026-05-01T14:12:05.999Z</time></trkpt><trkpt lat="42.86651239382886" lon="12.029222141836867"><ele>236.0</ele><time>2026-05-01T14:12:06.999Z</time></trkpt><trkpt lat="42.866300179739" lon="12.029547844332457"><ele>236.0</ele><time>2026-05-01T14:12:07.998Z</time></trkpt><trkpt lat="42.866090229807845" lon="12.0298725849546"><ele>236.0</ele><time>2026-05-01T14:12:08.998Z</time></trkpt><trkpt lat="42.86588162819316" lon="12.030190728773793"><ele>235.5</ele><time>2026-05-01T14:12:09.998Z</time></trkpt><trkpt lat="42.865677475745514" lon="12.03050523217423"><ele>235.0</ele><time>2026-05-01T14:12:10.998Z</time></trkpt><trkpt lat="42.865473470070796" lon="12.030824818072016"><ele>236.0</ele><time>2026-05-01T14:12:12Z</time></trkpt><trkpt lat="42.86526303604491" lon="12.031155204975448"><ele>237.0</ele><time>2026-05-01T14:12:13Z</time></trkpt><trkpt lat="42.86505181536771" lon="12.03148781930869"><ele>237.5</ele><time>2026-05-01T14:12:14Z</time></trkpt><trkpt lat="42.8648460243077" lon="12.031811255273206"><ele>238.0</ele><time>2026-05-01T14:12:15Z</time></trkpt><trkpt lat="42.864641128296114" lon="12.032130083695778"><ele>238.0</ele><time>2026-05-01T14:12:16Z</time></trkpt><trkpt lat="42.864435071279324" lon="12.032445405714858"><ele>238.0</ele><time>2026-05-01T14:12:17Z</time></trkpt><trkpt lat="42.86423168306067" lon="12.032758294574824"><ele>237.5</ele><time>2026-05-01T14:12:18Z</time></trkpt><trkpt lat="42.86403113568082" lon="12.033066128058042"><ele>237.0</ele><time>2026-05-01T14:12:19Z</time></trkpt><trkpt lat="42.863831149527066" lon="12.033371293800325"><ele>236.5</ele><time>2026-05-01T14:12:20Z</time></trkpt><trkpt lat="42.86363260420194" lon="12.033673865828927"><ele>236.0</ele><time>2026-05-01T14:12:21Z</time></trkpt><trkpt lat="42.86343408714176" lon="12.033974165418662"><ele>236.0</ele><time>2026-05-01T14:12:22Z</time></trkpt><trkpt lat="42.863237515468505" lon="12.034276895496799"><ele>236.0</ele><time>2026-05-01T14:12:23Z</time></trkpt><trkpt lat="42.863038700038004" lon="12.034583129950551"><ele>236.0</ele><time>2026-05-01T14:12:24Z</time></trkpt><trkpt lat="42.86283842358137" lon="12.03488805697836"><ele>236.0</ele><time>2026-05-01T14:12:25Z</time></trkpt><trkpt lat="42.86263685837749" lon="12.035193963144357"><ele>236.0</ele><time>2026-05-01T14:12:26Z</time></trkpt><trkpt lat="42.86243427337612" lon="12.035503074402126"><ele>236.0</ele><time>2026-05-01T14:12:27Z</time></trkpt><trkpt lat="42.862230103988004" lon="12.035817847414053"><ele>236.0</ele><time>2026-05-01T14:12:28Z</time></trkpt><trkpt lat="42.862026165100836" lon="12.03613326003401"><ele>236.0</ele><time>2026-05-01T14:12:29Z</time></trkpt><trkpt lat="42.86181634448289" lon="12.036446464555922"><ele>237.5</ele><time>2026-05-01T14:12:30Z</time></trkpt><trkpt lat="42.86159903252291" lon="12.036750659128598"><ele>239.0</ele><time>2026-05-01T14:12:31Z</time></trkpt><trkpt lat="42.86136779826196" lon="12.037038841613214"><ele>239.0</ele><time>2026-05-01T14:12:32Z</time></trkpt><trkpt lat="42.861119198021875" lon="12.037294724533675"><ele>239.0</ele><time>2026-05-01T14:12:33Z</time></trkpt><trkpt lat="42.86085429947754" lon="12.037525498244305"><ele>240.5</ele><time>2026-05-01T14:12:34Z</time></trkpt><trkpt lat="42.8605791246319" lon="12.037734339244988"><ele>242.0</ele><time>2026-05-01T14:12:35Z</time></trkpt><trkpt lat="42.86029156872395" lon="12.037914060408204"><ele>245.0</ele><time>2026-05-01T14:12:36Z</time></trkpt><trkpt lat="42.859993600253325" lon="12.038066335411518"><ele>248.0</ele><time>2026-05-01T14:12:37Z</time></trkpt><trkpt lat="42.859686094389275" lon="12.038190099870926"><ele>248.0</ele><time>2026-05-01T14:12:37.999Z</time></trkpt><trkpt lat="42.85937087537609" lon="12.038283197170426"><ele>248.0</ele><time>2026-05-01T14:12:38.999Z</time></trkpt><trkpt lat="42.85905032333317" lon="12.038345880831235"><ele>244.5</ele><time>2026-05-01T14:12:39.999Z</time></trkpt><trkpt lat="42.858725081809844" lon="12.038369974396884"><ele>241.0</ele><time>2026-05-01T14:12:40.999Z</time></trkpt><trkpt lat="42.8584013623179" lon="12.038366178133098"><ele>241.0</ele><time>2026-05-01T14:12:41.999Z</time></trkpt><trkpt lat="42.85807776951132" lon="12.038319594082642"><ele>241.0</ele><time>2026-05-01T14:12:42.999Z</time></trkpt><trkpt lat="42.85775758195258" lon="12.038264577802765"><ele>241.5</ele><time>2026-05-01T14:12:43.999Z</time></trkpt><trkpt lat="42.85743788953311" lon="12.03819591323416"><ele>242.0</ele><time>2026-05-01T14:12:44.999Z</time></trkpt><trkpt lat="42.857119049601025" lon="12.038125112015177"><ele>242.0</ele><time>2026-05-01T14:12:45.999Z</time></trkpt><trkpt lat="42.856800705446986" lon="12.038054626525785"><ele>242.0</ele><time>2026-05-01T14:12:46.999Z</time></trkpt><trkpt lat="42.85648250189481" lon="12.037989049622848"><ele>243.0</ele><time>2026-05-01T14:12:47.999Z</time></trkpt><trkpt lat="42.856165321970956" lon="12.037920102474374"><ele>244.0</ele><time>2026-05-01T14:12:48.999Z</time></trkpt><trkpt lat="42.85584823538946" lon="12.037852747028918"><ele>246.0</ele><time>2026-05-01T14:12:49.999Z</time></trkpt><trkpt lat="42.85553243177871" lon="12.037788429776883"><ele>248.0</ele><time>2026-05-01T14:12:50.999Z</time></trkpt><trkpt lat="42.85521757718303" lon="12.037722568933896"><ele>249.0</ele><time>2026-05-01T14:12:51.999Z</time></trkpt><trkpt lat="42.85490290752506" lon="12.03765670278955"><ele>250.0</ele><time>2026-05-01T14:12:52.999Z</time></trkpt><trkpt lat="42.854589116609866" lon="12.037588745776418"><ele>249.5</ele><time>2026-05-01T14:12:53.999Z</time></trkpt><trkpt lat="42.85427381741044" lon="12.037520397941465"><ele>249.0</ele><time>2026-05-01T14:12:54.999Z</time></trkpt><trkpt lat="42.85395812153775" lon="12.037452996850263"><ele>254.5</ele><time>2026-05-01T14:12:55.999Z</time></trkpt><trkpt lat="42.85364133365465" lon="12.03738887877445"><ele>260.0</ele><time>2026-05-01T14:12:56.999Z</time></trkpt><trkpt lat="42.85332498888944" lon="12.037330473109586"><ele>260.0</ele><time>2026-05-01T14:12:57.999Z</time></trkpt><trkpt lat="42.8530086383414" lon="12.037285990368101"><ele>260.0</ele><time>2026-05-01T14:12:58.999Z</time></trkpt><trkpt lat="42.852691741224255" lon="12.037265972911545"><ele>259.5</ele><time>2026-05-01T14:12:59.999Z</time></trkpt><trkpt lat="42.8523765354924" lon="12.037263298055874"><ele>259.0</ele><time>2026-05-01T14:13:00.999Z</time></trkpt><trkpt lat="42.852055376452" lon="12.037271062030463"><ele>262.5</ele><time>2026-05-01T14:13:01.999Z</time></trkpt><trkpt lat="42.85172730693106" lon="12.037290237533062"><ele>266.0</ele><time>2026-05-01T14:13:02.999Z</time></trkpt><trkpt lat="42.8513977789401" lon="12.037328103259846"><ele>266.0</ele><time>2026-05-01T14:13:03.999Z</time></trkpt><trkpt lat="42.85106679751568" lon="12.03738702495242"><ele>266.0</ele><time>2026-05-01T14:13:04.999Z</time></trkpt><trkpt lat="42.85073688591904" lon="12.037464017048036"><ele>262.0</ele><time>2026-05-01T14:13:05.999Z</time></trkpt><trkpt lat="42.85040837395655" lon="12.03755313811652"><ele>258.0</ele><time>2026-05-01T14:13:06.999Z</time></trkpt><trkpt lat="42.850081558015674" lon="12.037658515081588"><ele>258.0</ele><time>2026-05-01T14:13:07.999Z</time></trkpt><trkpt lat="42.849755449303956" lon="12.037778087126357"><ele>258.0</ele><time>2026-05-01T14:13:08.999Z</time></trkpt><trkpt lat="42.84943062248684" lon="12.037905077138626"><ele>257.0</ele><time>2026-05-01T14:13:09.999Z</time></trkpt><trkpt lat="42.84910329109975" lon="12.038029935494718"><ele>256.0</ele><time>2026-05-01T14:13:10.999Z</time></trkpt><trkpt lat="42.84877550554707" lon="12.038151265260414"><ele>257.5</ele><time>2026-05-01T14:13:11.999Z</time></trkpt><trkpt lat="42.84844743932539" lon="12.038274015237098"><ele>259.0</ele><time>2026-05-01T14:13:12.999Z</time></trkpt><trkpt lat="42.848120334693604" lon="12.038396055365443"><ele>256.0</ele><time>2026-05-01T14:13:13.999Z</time></trkpt><trkpt lat="42.84779384389504" lon="12.038518512913349"><ele>253.0</ele><time>2026-05-01T14:13:14.999Z</time></trkpt><trkpt lat="42.84746788773482" lon="12.038641793520478"><ele>253.0</ele><time>2026-05-01T14:13:15.999Z</time></trkpt><trkpt lat="42.84714274886185" lon="12.03876444269374"><ele>253.0</ele><time>2026-05-01T14:13:16.999Z</time></trkpt><trkpt lat="42.846817724289735" lon="12.038886974104251"><ele>253.0</ele><time>2026-05-01T14:13:17.999Z</time></trkpt><trkpt lat="42.846491674464914" lon="12.039006794731652"><ele>253.0</ele><time>2026-05-01T14:13:18.999Z</time></trkpt><trkpt lat="42.84616657848864" lon="12.03912751418833"><ele>259.5</ele><time>2026-05-01T14:13:19.999Z</time></trkpt><trkpt lat="42.84584080607677" lon="12.039247627313435"><ele>266.0</ele><time>2026-05-01T14:13:20.999Z</time></trkpt><trkpt lat="42.84551266453741" lon="12.039367678353255"><ele>266.0</ele><time>2026-05-01T14:13:21.999Z</time></trkpt><trkpt lat="42.84518353997736" lon="12.039488501223685"><ele>266.0</ele><time>2026-05-01T14:13:22.999Z</time></trkpt><trkpt lat="42.8448573319628" lon="12.039613969707736"><ele>270.0</ele><time>2026-05-01T14:13:23.999Z</time></trkpt><trkpt lat="42.84453216424751" lon="12.03973768034493"><ele>274.0</ele><time>2026-05-01T14:13:24.999Z</time></trkpt><trkpt lat="42.844204087438165" lon="12.039859097014922"><ele>270.5</ele><time>2026-05-01T14:13:25.999Z</time></trkpt><trkpt lat="42.84387441485085" lon="12.039979965120303"><ele>267.0</ele><time>2026-05-01T14:13:26.999Z</time></trkpt><trkpt lat="42.843544653121974" lon="12.040102331105718"><ele>271.0</ele><time>2026-05-01T14:13:27.999Z</time></trkpt><trkpt lat="42.84321538269039" lon="12.04022605988243"><ele>275.0</ele><time>2026-05-01T14:13:28.999Z</time></trkpt><trkpt lat="42.84288701826016" lon="12.040349201788517"><ele>274.0</ele><time>2026-05-01T14:13:29.999Z</time></trkpt><trkpt lat="42.842558868919106" lon="12.040470884416758"><ele>273.0</ele><time>2026-05-01T14:13:30.999Z</time></trkpt><trkpt lat="42.84223036335767" lon="12.040592702301545"><ele>273.0</ele><time>2026-05-01T14:13:31.999Z</time></trkpt><trkpt lat="42.841901666973236" lon="12.04071316765949"><ele>273.0</ele><time>2026-05-01T14:13:32.999Z</time></trkpt><trkpt lat="42.841574897926144" lon="12.040832725832287"><ele>270.5</ele><time>2026-05-01T14:13:33.999Z</time></trkpt><trkpt lat="42.841248382905604" lon="12.040951824474435"><ele>268.0</ele><time>2026-05-01T14:13:34.999Z</time></trkpt><trkpt lat="42.840922047166224" lon="12.041072923595403"><ele>268.0</ele><time>2026-05-01T14:13:35.999Z</time></trkpt><trkpt lat="42.84059617171948" lon="12.0411949824386"><ele>268.0</ele><time>2026-05-01T14:13:36.999Z</time></trkpt><trkpt lat="42.84027041000498" lon="12.041319621359117"><ele>267.5</ele><time>2026-05-01T14:13:37.999Z</time></trkpt><trkpt lat="42.83994480734515" lon="12.041443008719714"><ele>267.0</ele><time>2026-05-01T14:13:38.999Z</time></trkpt><trkpt lat="42.839618355192485" lon="12.041565121154463"><ele>269.0</ele><time>2026-05-01T14:13:39.999Z</time></trkpt><trkpt lat="42.83929288725838" lon="12.041685386005435"><ele>271.0</ele><time>2026-05-01T14:13:40.999Z</time></trkpt><trkpt lat="42.83896605755581" lon="12.04180532994972"><ele>271.0</ele><time>2026-05-01T14:13:41.999Z</time></trkpt><trkpt lat="42.838637656726206" lon="12.041926511495376"><ele>271.0</ele><time>2026-05-01T14:13:42.999Z</time></trkpt><trkpt lat="42.83830843113858" lon="12.04204702141453"><ele>272.5</ele><time>2026-05-01T14:13:43.999Z</time></trkpt><trkpt lat="42.83797760579478" lon="12.0421686380395"><ele>274.0</ele><time>2026-05-01T14:13:44.999Z</time></trkpt><trkpt lat="42.8376486698755" lon="12.042290638667984"><ele>274.5</ele><time>2026-05-01T14:13:45.999Z</time></trkpt><trkpt lat="42.837319441311614" lon="12.04241444402863"><ele>275.0</ele><time>2026-05-01T14:13:46.999Z</time></trkpt><trkpt lat="42.83698951507349" lon="12.042535635178217"><ele>277.0</ele><time>2026-05-01T14:13:47.999Z</time></trkpt><trkpt lat="42.83665615267438" lon="12.042644720198217"><ele>279.0</ele><time>2026-05-01T14:13:48.999Z</time></trkpt><trkpt lat="42.83632050887686" lon="12.042734368222014"><ele>279.0</ele><time>2026-05-01T14:13:49.999Z</time></trkpt><trkpt lat="42.83598608248055" lon="12.04280236255078"><ele>279.0</ele><time>2026-05-01T14:13:50.999Z</time></trkpt><trkpt lat="42.835650477418504" lon="12.042852369102944"><ele>277.5</ele><time>2026-05-01T14:13:51.999Z</time></trkpt><trkpt lat="42.83531220427813" lon="12.042885985004778"><ele>276.0</ele><time>2026-05-01T14:13:52.999Z</time></trkpt><trkpt lat="42.83497146829865" lon="12.042902004809234"><ele>269.0</ele><time>2026-05-01T14:13:53.999Z</time></trkpt><trkpt lat="42.83463247620587" lon="12.04289968670199"><ele>262.0</ele><time>2026-05-01T14:13:54.999Z</time></trkpt><trkpt lat="42.8342927126122" lon="12.042885871644888"><ele>259.0</ele><time>2026-05-01T14:13:55.999Z</time></trkpt><trkpt lat="42.83395286011119" lon="12.042859518338709"><ele>256.0</ele><time>2026-05-01T14:13:56.999Z</time></trkpt><trkpt lat="42.83361334471649" lon="12.04283221308948"><ele>257.0</ele><time>2026-05-01T14:13:57.999Z</time></trkpt><trkpt lat="42.83327308363092" lon="12.042804133051657"><ele>258.0</ele><time>2026-05-01T14:13:58.999Z</time></trkpt><trkpt lat="42.83293099927367" lon="12.042775973926028"><ele>255.5</ele><time>2026-05-01T14:13:59.998Z</time></trkpt><trkpt lat="42.8325920342378" lon="12.042746654810264"><ele>253.0</ele><time>2026-05-01T14:14:00.998Z</time></trkpt><trkpt lat="42.83225339408397" lon="12.042716570209624"><ele>253.0</ele><time>2026-05-01T14:14:01.998Z</time></trkpt><trkpt lat="42.83191576659374" lon="12.042687744602608"><ele>253.0</ele><time>2026-05-01T14:14:02.998Z</time></trkpt><trkpt lat="42.831576584475535" lon="12.042656901904662"><ele>249.0</ele><time>2026-05-01T14:14:03.998Z</time></trkpt><trkpt lat="42.8312386833306" lon="12.04262597613345"><ele>245.0</ele><time>2026-05-01T14:14:04.998Z</time></trkpt><trkpt lat="42.830899255065276" lon="12.042595518786325"><ele>245.0</ele><time>2026-05-01T14:14:05.998Z</time></trkpt><trkpt lat="42.83055955379796" lon="12.042566511859086"><ele>245.0</ele><time>2026-05-01T14:14:06.998Z</time></trkpt><trkpt lat="42.83022155183544" lon="12.042539837408357"><ele>244.0</ele><time>2026-05-01T14:14:07.998Z</time></trkpt><trkpt lat="42.82988239811027" lon="12.042512372118582"><ele>243.0</ele><time>2026-05-01T14:14:08.998Z</time></trkpt><trkpt lat="42.829542559469736" lon="12.042484681467876"><ele>236.0</ele><time>2026-05-01T14:14:09.998Z</time></trkpt><trkpt lat="42.829202096279126" lon="12.04245745342057"><ele>229.0</ele><time>2026-05-01T14:14:10.998Z</time></trkpt><trkpt lat="42.82886067250144" lon="12.042426366655125"><ele>229.0</ele><time>2026-05-01T14:14:11.998Z</time></trkpt><trkpt lat="42.82852325724045" lon="12.04238649755176"><ele>229.0</ele><time>2026-05-01T14:14:12.998Z</time></trkpt><trkpt lat="42.82819036073443" lon="12.042331584377706"><ele>229.0</ele><time>2026-05-01T14:14:13.998Z</time></trkpt><trkpt lat="42.827855373720006" lon="12.042261099922053"><ele>229.0</ele><time>2026-05-01T14:14:14.998Z</time></trkpt><trkpt lat="42.82752262815727" lon="12.042174591963015"><ele>228.0</ele><time>2026-05-01T14:14:15.998Z</time></trkpt><trkpt lat="42.82719194878243" lon="12.042079051827642"><ele>227.0</ele><time>2026-05-01T14:14:16.998Z</time></trkpt><trkpt lat="42.8268617300373" lon="12.041968876233772"><ele>226.0</ele><time>2026-05-01T14:14:17.999Z</time></trkpt><trkpt lat="42.82653506461666" lon="12.041840099152692"><ele>225.0</ele><time>2026-05-01T14:14:18.999Z</time></trkpt><trkpt lat="42.8262114613547" lon="12.041695146796544"><ele>224.5</ele><time>2026-05-01T14:14:19.999Z</time></trkpt><trkpt lat="42.825892679932096" lon="12.04153759684699"><ele>224.0</ele><time>2026-05-01T14:14:20.999Z</time></trkpt><trkpt lat="42.825577163594566" lon="12.041366595030354"><ele>224.0</ele><time>2026-05-01T14:14:21.999Z</time></trkpt><trkpt lat="42.825269277842466" lon="12.041183331706481"><ele>224.0</ele><time>2026-05-01T14:14:22.999Z</time></trkpt><trkpt lat="42.82496527035254" lon="12.040987516860786"><ele>221.5</ele><time>2026-05-01T14:14:23.999Z</time></trkpt><trkpt lat="42.82466667236097" lon="12.040777634011949"><ele>219.0</ele><time>2026-05-01T14:14:24.999Z</time></trkpt><trkpt lat="42.82437258508719" lon="12.040552512820144"><ele>218.0</ele><time>2026-05-01T14:14:25.999Z</time></trkpt><trkpt lat="42.82408432405872" lon="12.04031440831132"><ele>217.0</ele><time>2026-05-01T14:14:27Z</time></trkpt><trkpt lat="42.823803056029526" lon="12.040062765349118"><ele>218.5</ele><time>2026-05-01T14:14:28Z</time></trkpt><trkpt lat="42.823527890432665" lon="12.03980014962546"><ele>220.0</ele><time>2026-05-01T14:14:29Z</time></trkpt><trkpt lat="42.82325725535023" lon="12.039524470524073"><ele>217.5</ele><time>2026-05-01T14:14:30Z</time></trkpt><trkpt lat="42.822992681327605" lon="12.039237947038451"><ele>215.0</ele><time>2026-05-01T14:14:31Z</time></trkpt><trkpt lat="42.82273612701511" lon="12.03894007569998"><ele>214.0</ele><time>2026-05-01T14:14:32Z</time></trkpt><trkpt lat="42.822488635534874" lon="12.038631036924933"><ele>213.0</ele><time>2026-05-01T14:14:33Z</time></trkpt><trkpt lat="42.82224813759034" lon="12.038308943864559"><ele>213.0</ele><time>2026-05-01T14:14:34Z</time></trkpt><trkpt lat="42.822015510082835" lon="12.03797515577934"><ele>213.0</ele><time>2026-05-01T14:14:35Z</time></trkpt><trkpt lat="42.82178802912026" lon="12.037630193305041"><ele>216.0</ele><time>2026-05-01T14:14:36Z</time></trkpt><trkpt lat="42.82156610450135" lon="12.037281372873307"><ele>219.0</ele><time>2026-05-01T14:14:37Z</time></trkpt><trkpt lat="42.821344006450495" lon="12.036929378396756"><ele>221.0</ele><time>2026-05-01T14:14:38Z</time></trkpt><trkpt lat="42.82112078094381" lon="12.036578749879366"><ele>223.0</ele><time>2026-05-01T14:14:39Z</time></trkpt><trkpt lat="42.820899413919186" lon="12.036226360718494"><ele>220.5</ele><time>2026-05-01T14:14:40Z</time></trkpt><trkpt lat="42.82067915880535" lon="12.035875670376003"><ele>218.0</ele><time>2026-05-01T14:14:41Z</time></trkpt><trkpt lat="42.8204586028555" lon="12.035528386876742"><ele>218.0</ele><time>2026-05-01T14:14:42Z</time></trkpt><trkpt lat="42.820239360109824" lon="12.035182648484572"><ele>218.0</ele><time>2026-05-01T14:14:43Z</time></trkpt><trkpt lat="42.820024100135406" lon="12.034841090377512"><ele>212.5</ele><time>2026-05-01T14:14:44Z</time></trkpt><trkpt lat="42.81981080236775" lon="12.034503542828606"><ele>207.0</ele><time>2026-05-01T14:14:45Z</time></trkpt><trkpt lat="42.81959628498563" lon="12.034173349219726"><ele>207.0</ele><time>2026-05-01T14:14:46Z</time></trkpt><trkpt lat="42.81937708376259" lon="12.033853596856174"><ele>207.0</ele><time>2026-05-01T14:14:46.999Z</time></trkpt><trkpt lat="42.81915050268523" lon="12.033546491651583"><ele>202.5</ele><time>2026-05-01T14:14:47.999Z</time></trkpt><trkpt lat="42.81891498801183" lon="12.033278071584137"><ele>198.0</ele><time>2026-05-01T14:14:48.999Z</time></trkpt><trkpt lat="42.81867405521686" lon="12.033040404459365"><ele>198.0</ele><time>2026-05-01T14:14:49.999Z</time></trkpt><trkpt lat="42.81842182738338" lon="12.032821971332895"><ele>198.0</ele><time>2026-05-01T14:14:50.999Z</time></trkpt><trkpt lat="42.818157855934714" lon="12.032630392246023"><ele>198.0</ele><time>2026-05-01T14:14:51.999Z</time></trkpt><trkpt lat="42.81788563889267" lon="12.032461576162534"><ele>198.0</ele><time>2026-05-01T14:14:52.999Z</time></trkpt><trkpt lat="42.817606354836755" lon="12.032320218492075"><ele>197.5</ele><time>2026-05-01T14:14:53.999Z</time></trkpt><trkpt lat="42.81732385797817" lon="12.032198676099565"><ele>197.0</ele><time>2026-05-01T14:14:54.999Z</time></trkpt><trkpt lat="42.81703580792293" lon="12.032103207359276"><ele>196.5</ele><time>2026-05-01T14:14:55.999Z</time></trkpt><trkpt lat="42.81674349406697" lon="12.032029256780143"><ele>196.0</ele><time>2026-05-01T14:14:56.999Z</time></trkpt><trkpt lat="42.81644690789604" lon="12.031980685835645"><ele>196.0</ele><time>2026-05-01T14:14:57.999Z</time></trkpt><trkpt lat="42.81614495594481" lon="12.031956225963407"><ele>196.0</ele><time>2026-05-01T14:14:58.999Z</time></trkpt><trkpt lat="42.81583956591937" lon="12.031958296112304"><ele>196.5</ele><time>2026-05-01T14:14:59.999Z</time></trkpt><trkpt lat="42.815536603875394" lon="12.031992882460129"><ele>197.0</ele><time>2026-05-01T14:15:00.999Z</time></trkpt><trkpt lat="42.815232583137366" lon="12.032062682929741"><ele>196.0</ele><time>2026-05-01T14:15:01.999Z</time></trkpt><trkpt lat="42.81493360090003" lon="12.03215867072677"><ele>195.0</ele><time>2026-05-01T14:15:02.999Z</time></trkpt><trkpt lat="42.814630579704264" lon="12.032281686868368"><ele>195.0</ele><time>2026-05-01T14:15:03.999Z</time></trkpt><trkpt lat="42.81432229993722" lon="12.032424381019858"><ele>195.0</ele><time>2026-05-01T14:15:04.999Z</time></trkpt><trkpt lat="42.81400905917837" lon="12.032576865611937"><ele>194.0</ele><time>2026-05-01T14:15:05.999Z</time></trkpt><trkpt lat="42.813693144518" lon="12.032724606249705"><ele>193.0</ele><time>2026-05-01T14:15:06.999Z</time></trkpt><trkpt lat="42.813373665820514" lon="12.032867814705392"><ele>192.5</ele><time>2026-05-01T14:15:07.999Z</time></trkpt><trkpt lat="42.813054269769836" lon="12.03301235962518"><ele>192.0</ele><time>2026-05-01T14:15:08.999Z</time></trkpt><trkpt lat="42.81273245932622" lon="12.033160332419095"><ele>194.5</ele><time>2026-05-01T14:15:09.999Z</time></trkpt><trkpt lat="42.812410932490174" lon="12.033309369305833"><ele>197.0</ele><time>2026-05-01T14:15:10.999Z</time></trkpt><trkpt lat="42.812090075495945" lon="12.033457217580217"><ele>193.5</ele><time>2026-05-01T14:15:11.999Z</time></trkpt><trkpt lat="42.811770559393146" lon="12.033604118201414"><ele>190.0</ele><time>2026-05-01T14:15:12.999Z</time></trkpt><trkpt lat="42.81145178349131" lon="12.033749539765312"><ele>190.0</ele><time>2026-05-01T14:15:13.999Z</time></trkpt><trkpt lat="42.81113344998981" lon="12.033895831838521"><ele>190.0</ele><time>2026-05-01T14:15:14.999Z</time></trkpt><trkpt lat="42.81081845090213" lon="12.034043944286816"><ele>189.0</ele><time>2026-05-01T14:15:15.999Z</time></trkpt><trkpt lat="42.81050443703948" lon="12.034190773954201"><ele>188.0</ele><time>2026-05-01T14:15:16.999Z</time></trkpt><trkpt lat="42.81019206934969" lon="12.034333854749272"><ele>187.5</ele><time>2026-05-01T14:15:17.999Z</time></trkpt><trkpt lat="42.80987957038041" lon="12.0344765291917"><ele>187.0</ele><time>2026-05-01T14:15:18.999Z</time></trkpt><trkpt lat="42.80957202107145" lon="12.034627384369537"><ele>186.5</ele><time>2026-05-01T14:15:19.999Z</time></trkpt><trkpt lat="42.80926964380746" lon="12.034795484787205"><ele>186.0</ele><time>2026-05-01T14:15:20.999Z</time></trkpt><trkpt lat="42.80897441879004" lon="12.034983831442549"><ele>186.0</ele><time>2026-05-01T14:15:21.999Z</time></trkpt><trkpt lat="42.80868737053571" lon="12.035186848161777"><ele>186.0</ele><time>2026-05-01T14:15:22.999Z</time></trkpt><trkpt lat="42.808405327811265" lon="12.035401592036003"><ele>185.5</ele><time>2026-05-01T14:15:23.999Z</time></trkpt><trkpt lat="42.8081278325555" lon="12.035631780179932"><ele>185.0</ele><time>2026-05-01T14:15:24.999Z</time></trkpt><trkpt lat="42.807853579700925" lon="12.035872015000702"><ele>183.5</ele><time>2026-05-01T14:15:25.999Z</time></trkpt><trkpt lat="42.80758470570356" lon="12.036125669501825"><ele>182.0</ele><time>2026-05-01T14:15:26.999Z</time></trkpt><trkpt lat="42.80732238127212" lon="12.036393007343031"><ele>183.0</ele><time>2026-05-01T14:15:27.999Z</time></trkpt><trkpt lat="42.80706834182253" lon="12.036680757358626"><ele>184.0</ele><time>2026-05-01T14:15:28.999Z</time></trkpt><trkpt lat="42.80682276788843" lon="12.036981191737123"><ele>184.0</ele><time>2026-05-01T14:15:29.999Z</time></trkpt><trkpt lat="42.80658319790354" lon="12.037291576581746"><ele>184.0</ele><time>2026-05-01T14:15:30.999Z</time></trkpt><trkpt lat="42.8063521701564" lon="12.037613150717123"><ele>184.0</ele><time>2026-05-01T14:15:31.999Z</time></trkpt><trkpt lat="42.80612731671594" lon="12.037944466871835"><ele>184.0</ele><time>2026-05-01T14:15:32.999Z</time></trkpt><trkpt lat="42.80591348896108" lon="12.03828751638809"><ele>183.0</ele><time>2026-05-01T14:15:33.999Z</time></trkpt><trkpt lat="42.805711456341044" lon="12.038640472748405"><ele>182.0</ele><time>2026-05-01T14:15:34.999Z</time></trkpt><trkpt lat="42.80551613998624" lon="12.039002529382785"><ele>181.5</ele><time>2026-05-01T14:15:35.999Z</time></trkpt><trkpt lat="42.80533523781649" lon="12.039377229714248"><ele>181.0</ele><time>2026-05-01T14:15:36.999Z</time></trkpt><trkpt lat="42.805160626103415" lon="12.039758610943755"><ele>180.5</ele><time>2026-05-01T14:15:37.999Z</time></trkpt><trkpt lat="42.80499148655886" lon="12.040145293620435"><ele>180.0</ele><time>2026-05-01T14:15:38.999Z</time></trkpt><trkpt lat="42.80482851690332" lon="12.04053306223052"><ele>179.5</ele><time>2026-05-01T14:15:39.999Z</time></trkpt><trkpt lat="42.804663244997336" lon="12.0409207009239"><ele>179.0</ele><time>2026-05-01T14:15:40.999Z</time></trkpt><trkpt lat="42.80448724292073" lon="12.041302707500655"><ele>178.5</ele><time>2026-05-01T14:15:41.999Z</time></trkpt><trkpt lat="42.804296339950305" lon="12.041674753054423"><ele>178.0</ele><time>2026-05-01T14:15:42.999Z</time></trkpt><trkpt lat="42.80409530001629" lon="12.042032911075742"><ele>178.0</ele><time>2026-05-01T14:15:43.999Z</time></trkpt><trkpt lat="42.80387978804945" lon="12.042374365817741"><ele>178.0</ele><time>2026-05-01T14:15:44.999Z</time></trkpt><trkpt lat="42.803652679205" lon="12.042701578813382"><ele>178.0</ele><time>2026-05-01T14:15:45.999Z</time></trkpt><trkpt lat="42.80341616609406" lon="12.043015197810373"><ele>178.0</ele><time>2026-05-01T14:15:46.999Z</time></trkpt><trkpt lat="42.80316795430996" lon="12.043315724969212"><ele>178.0</ele><time>2026-05-01T14:15:47.999Z</time></trkpt><trkpt lat="42.8029109631363" lon="12.043601335595776"><ele>178.0</ele><time>2026-05-01T14:15:48.999Z</time></trkpt><trkpt lat="42.80264386892436" lon="12.043867072595049"><ele>178.0</ele><time>2026-05-01T14:15:49.999Z</time></trkpt><trkpt lat="42.802369236600164" lon="12.044119070362061"><ele>178.0</ele><time>2026-05-01T14:15:50.999Z</time></trkpt><trkpt lat="42.80208823253776" lon="12.044351532651445"><ele>175.0</ele><time>2026-05-01T14:15:51.999Z</time></trkpt><trkpt lat="42.80180142520327" lon="12.044566106611834"><ele>172.0</ele><time>2026-05-01T14:15:52.999Z</time></trkpt><trkpt lat="42.80150614032693" lon="12.044761959686896"><ele>172.0</ele><time>2026-05-01T14:15:53.999Z</time></trkpt><trkpt lat="42.80120377400561" lon="12.044948320753404"><ele>172.0</ele><time>2026-05-01T14:15:54.999Z</time></trkpt><trkpt lat="42.80089517697615" lon="12.045126217635266"><ele>172.0</ele><time>2026-05-01T14:15:55.999Z</time></trkpt><trkpt lat="42.80058552810945" lon="12.045302717552794"><ele>172.0</ele><time>2026-05-01T14:15:56.999Z</time></trkpt><trkpt lat="42.80027405102399" lon="12.045482079376187"><ele>172.5</ele><time>2026-05-01T14:15:57.999Z</time></trkpt><trkpt lat="42.79996175475345" lon="12.045665581389251"><ele>173.0</ele><time>2026-05-01T14:15:58.999Z</time></trkpt><trkpt lat="42.79964919153744" lon="12.045847665330422"><ele>173.0</ele><time>2026-05-01T14:15:59.999Z</time></trkpt><trkpt lat="42.799335379412774" lon="12.046026851131643"><ele>173.0</ele><time>2026-05-01T14:16:00.999Z</time></trkpt><trkpt lat="42.79902131231769" lon="12.046201584358895"><ele>173.0</ele><time>2026-05-01T14:16:01.999Z</time></trkpt><trkpt lat="42.798706524810356" lon="12.046378525546123"><ele>173.0</ele><time>2026-05-01T14:16:02.999Z</time></trkpt><trkpt lat="42.798391731594585" lon="12.046550993051657"><ele>172.0</ele><time>2026-05-01T14:16:03.999Z</time></trkpt><trkpt lat="42.798075112093954" lon="12.046707812349473"><ele>171.0</ele><time>2026-05-01T14:16:04.999Z</time></trkpt><trkpt lat="42.797760988436764" lon="12.04684258566848"><ele>170.5</ele><time>2026-05-01T14:16:05.999Z</time></trkpt><trkpt lat="42.79744859784401" lon="12.046950170754135"><ele>170.0</ele><time>2026-05-01T14:16:06.999Z</time></trkpt><trkpt lat="42.7971360791268" lon="12.047035779322071"><ele>170.5</ele><time>2026-05-01T14:16:07.999Z</time></trkpt><trkpt lat="42.79682037887136" lon="12.047092151642877"><ele>171.0</ele><time>2026-05-01T14:16:08.999Z</time></trkpt><trkpt lat="42.79650263261561" lon="12.047131388363221"><ele>171.0</ele><time>2026-05-01T14:16:09.999Z</time></trkpt><trkpt lat="42.79618452067736" lon="12.047156138010164"><ele>171.0</ele><time>2026-05-01T14:16:10.999Z</time></trkpt><trkpt lat="42.795867529828676" lon="12.047176415141122"><ele>176.0</ele><time>2026-05-01T14:16:11.999Z</time></trkpt><trkpt lat="42.79554196397651" lon="12.04719808717999"><ele>181.0</ele><time>2026-05-01T14:16:12.999Z</time></trkpt><trkpt lat="42.7952074687287" lon="12.047220114200265"><ele>183.5</ele><time>2026-05-01T14:16:13.999Z</time></trkpt><trkpt lat="42.794870188057345" lon="12.047240213594968"><ele>186.0</ele><time>2026-05-01T14:16:14.999Z</time></trkpt><trkpt lat="42.79453599132372" lon="12.047262557988171"><ele>185.0</ele><time>2026-05-01T14:16:15.998Z</time></trkpt><trkpt lat="42.79420036569901" lon="12.047288072617352"><ele>184.0</ele><time>2026-05-01T14:16:16.998Z</time></trkpt><trkpt lat="42.79386580047829" lon="12.047318884246863"><ele>184.0</ele><time>2026-05-01T14:16:17.998Z</time></trkpt><trkpt lat="42.79353275884378" lon="12.047349564959594"><ele>184.0</ele><time>2026-05-01T14:16:18.998Z</time></trkpt><trkpt lat="42.793198497506765" lon="12.047376296256369"><ele>184.0</ele><time>2026-05-01T14:16:19.998Z</time></trkpt><trkpt lat="42.79286627288674" lon="12.047401846770656"><ele>184.0</ele><time>2026-05-01T14:16:20.998Z</time></trkpt><trkpt lat="42.79253445434534" lon="12.047429606187478"><ele>184.0</ele><time>2026-05-01T14:16:21.998Z</time></trkpt><trkpt lat="42.79220354307422" lon="12.047456719638364"><ele>184.0</ele><time>2026-05-01T14:16:22.998Z</time></trkpt><trkpt lat="42.791876400817465" lon="12.04748704120139"><ele>175.5</ele><time>2026-05-01T14:16:24Z</time></trkpt><trkpt lat="42.791550313778686" lon="12.047517622475329"><ele>167.0</ele><time>2026-05-01T14:16:25Z</time></trkpt><trkpt lat="42.791222056807385" lon="12.047546200519724"><ele>166.0</ele><time>2026-05-01T14:16:26Z</time></trkpt><trkpt lat="42.79089239246624" lon="12.047574805932271"><ele>165.0</ele><time>2026-05-01T14:16:27Z</time></trkpt><trkpt lat="42.79056494333954" lon="12.047605558251345"><ele>165.0</ele><time>2026-05-01T14:16:28Z</time></trkpt><trkpt lat="42.790237463986934" lon="12.047634394936633"><ele>165.0</ele><time>2026-05-01T14:16:29Z</time></trkpt><trkpt lat="42.78991378203707" lon="12.047667796890224"><ele>165.5</ele><time>2026-05-01T14:16:30Z</time></trkpt><trkpt lat="42.78958775910371" lon="12.047700429707556"><ele>166.0</ele><time>2026-05-01T14:16:31Z</time></trkpt><trkpt lat="42.78925397556505" lon="12.047734718461026"><ele>167.0</ele><time>2026-05-01T14:16:32Z</time></trkpt><trkpt lat="42.78891702994467" lon="12.047769956123412"><ele>168.0</ele><time>2026-05-01T14:16:33Z</time></trkpt><trkpt lat="42.78857934824131" lon="12.047804790420507"><ele>166.0</ele><time>2026-05-01T14:16:34Z</time></trkpt><trkpt lat="42.78824317276657" lon="12.047834206709137"><ele>164.0</ele><time>2026-05-01T14:16:35Z</time></trkpt><trkpt lat="42.78790678294077" lon="12.047862653031627"><ele>162.0</ele><time>2026-05-01T14:16:36Z</time></trkpt><trkpt lat="42.787572501667846" lon="12.047889902838886"><ele>160.0</ele><time>2026-05-01T14:16:37Z</time></trkpt><trkpt lat="42.787236037583206" lon="12.047920521841448"><ele>160.0</ele><time>2026-05-01T14:16:38Z</time></trkpt><trkpt lat="42.786899498296556" lon="12.047951279188503"><ele>160.0</ele><time>2026-05-01T14:16:39Z</time></trkpt><trkpt lat="42.786563800597506" lon="12.047980818017384"><ele>159.5</ele><time>2026-05-01T14:16:40Z</time></trkpt><trkpt lat="42.78622858784696" lon="12.04800695754979"><ele>159.0</ele><time>2026-05-01T14:16:41Z</time></trkpt><trkpt lat="42.78589180075117" lon="12.048029044030946"><ele>159.0</ele><time>2026-05-01T14:16:42Z</time></trkpt><trkpt lat="42.785556630220256" lon="12.04804954800225"><ele>159.0</ele><time>2026-05-01T14:16:43Z</time></trkpt><trkpt lat="42.785218755406575" lon="12.048072916459013"><ele>157.0</ele><time>2026-05-01T14:16:44Z</time></trkpt><trkpt lat="42.78488177163332" lon="12.048099255054673"><ele>155.0</ele><time>2026-05-01T14:16:45Z</time></trkpt><trkpt lat="42.784542183621355" lon="12.048125710844285"><ele>155.5</ele><time>2026-05-01T14:16:46Z</time></trkpt><trkpt lat="42.78420162891332" lon="12.048151127931455"><ele>156.0</ele><time>2026-05-01T14:16:47Z</time></trkpt><trkpt lat="42.78386112072933" lon="12.048177155515472"><ele>156.0</ele><time>2026-05-01T14:16:48Z</time></trkpt><trkpt lat="42.78352107540431" lon="12.048205720196023"><ele>156.0</ele><time>2026-05-01T14:16:49Z</time></trkpt><trkpt lat="42.78318687654951" lon="12.048234106225014"><ele>156.0</ele><time>2026-05-01T14:16:50Z</time></trkpt><trkpt lat="42.78285543095864" lon="12.04826152792824"><ele>156.0</ele><time>2026-05-01T14:16:51Z</time></trkpt><trkpt lat="42.78252616274993" lon="12.048288960956928"><ele>154.0</ele><time>2026-05-01T14:16:52Z</time></trkpt><trkpt lat="42.78220185512066" lon="12.048315922879546"><ele>152.0</ele><time>2026-05-01T14:16:53Z</time></trkpt><trkpt lat="42.781883720749406" lon="12.048342773599959"><ele>152.0</ele><time>2026-05-01T14:16:54Z</time></trkpt><trkpt lat="42.781562766398366" lon="12.048369351420611"><ele>152.0</ele><time>2026-05-01T14:16:55Z</time></trkpt><trkpt lat="42.781247894646654" lon="12.048394655102136"><ele>151.5</ele><time>2026-05-01T14:16:56Z</time></trkpt><trkpt lat="42.780934186991026" lon="12.048420618156412"><ele>151.0</ele><time>2026-05-01T14:16:57Z</time></trkpt><trkpt lat="42.7806208287018" lon="12.048448290104687"><ele>151.0</ele><time>2026-05-01T14:16:58Z</time></trkpt><trkpt lat="42.78030541358263" lon="12.048476267722881"><ele>151.0</ele><time>2026-05-01T14:16:59Z</time></trkpt><trkpt lat="42.77998632497199" lon="12.048503690350223"><ele>151.0</ele><time>2026-05-01T14:17:00Z</time></trkpt><trkpt lat="42.77966713580315" lon="12.04853009054279"><ele>151.0</ele><time>2026-05-01T14:17:01Z</time></trkpt><trkpt lat="42.7793470408128" lon="12.048555397829341"><ele>151.5</ele><time>2026-05-01T14:17:02Z</time></trkpt><trkpt lat="42.77902539945264" lon="12.048583004210462"><ele>152.0</ele><time>2026-05-01T14:17:02.999Z</time></trkpt><trkpt lat="42.77870325699926" lon="12.048610600094337"><ele>150.0</ele><time>2026-05-01T14:17:03.999Z</time></trkpt><trkpt lat="42.77838090558165" lon="12.048639665096873"><ele>148.0</ele><time>2026-05-01T14:17:04.999Z</time></trkpt><trkpt lat="42.778058421182685" lon="12.048672489132505"><ele>148.0</ele><time>2026-05-01T14:17:05.999Z</time></trkpt><trkpt lat="42.777735613932464" lon="12.04870346650731"><ele>148.0</ele><time>2026-05-01T14:17:06.999Z</time></trkpt><trkpt lat="42.77741250939732" lon="12.048737214204303"><ele>148.5</ele><time>2026-05-01T14:17:07.999Z</time></trkpt><trkpt lat="42.777086575697496" lon="12.04877253765635"><ele>149.0</ele><time>2026-05-01T14:17:08.999Z</time></trkpt><trkpt lat="42.77675469065377" lon="12.048806474267858"><ele>147.5</ele><time>2026-05-01T14:17:09.999Z</time></trkpt><trkpt lat="42.77642061880849" lon="12.04884020262954"><ele>146.0</ele><time>2026-05-01T14:17:10.999Z</time></trkpt><trkpt lat="42.77608596569067" lon="12.04887177488097"><ele>146.5</ele><time>2026-05-01T14:17:11.999Z</time></trkpt><trkpt lat="42.775749662268915" lon="12.04890052352259"><ele>147.0</ele><time>2026-05-01T14:17:12.999Z</time></trkpt><trkpt lat="42.77541280712123" lon="12.048927877462587"><ele>148.0</ele><time>2026-05-01T14:17:13.999Z</time></trkpt><trkpt lat="42.77507757233237" lon="12.048957939061205"><ele>149.0</ele><time>2026-05-01T14:17:14.999Z</time></trkpt><trkpt lat="42.774744121056" lon="12.048992809046648"><ele>149.0</ele><time>2026-05-01T14:17:15.999Z</time></trkpt><trkpt lat="42.77440900271347" lon="12.049043641371497"><ele>149.0</ele><time>2026-05-01T14:17:16.999Z</time></trkpt><trkpt lat="42.77407813991914" lon="12.049124745346838"><ele>147.0</ele><time>2026-05-01T14:17:17.999Z</time></trkpt><trkpt lat="42.773754297395456" lon="12.049226408044559"><ele>145.0</ele><time>2026-05-01T14:17:18.999Z</time></trkpt><trkpt lat="42.7734353151228" lon="12.049347039549374"><ele>145.0</ele><time>2026-05-01T14:17:19.999Z</time></trkpt><trkpt lat="42.773119705878884" lon="12.049484664888725"><ele>145.0</ele><time>2026-05-01T14:17:20.999Z</time></trkpt><trkpt lat="42.772811776080125" lon="12.04964205147344"><ele>145.0</ele><time>2026-05-01T14:17:21.999Z</time></trkpt><trkpt lat="42.7725107997442" lon="12.049817468580406"><ele>145.0</ele><time>2026-05-01T14:17:22.999Z</time></trkpt><trkpt lat="42.77222030030895" lon="12.050020695375547"><ele>145.0</ele><time>2026-05-01T14:17:23.999Z</time></trkpt><trkpt lat="42.77193593081695" lon="12.050229485643044"><ele>145.0</ele><time>2026-05-01T14:17:24.999Z</time></trkpt><trkpt lat="42.771659760049424" lon="12.050457821523086"><ele>145.0</ele><time>2026-05-01T14:17:25.999Z</time></trkpt><trkpt lat="42.771388825668375" lon="12.050699759446836"><ele>145.0</ele><time>2026-05-01T14:17:26.999Z</time></trkpt><trkpt lat="42.77112647092249" lon="12.050956240332502"><ele>144.5</ele><time>2026-05-01T14:17:27.999Z</time></trkpt><trkpt lat="42.77087270600848" lon="12.05122830821281"><ele>144.0</ele><time>2026-05-01T14:17:28.999Z</time></trkpt><trkpt lat="42.770624500153325" lon="12.051513848042543"><ele>143.5</ele><time>2026-05-01T14:17:29.999Z</time></trkpt><trkpt lat="42.77037999873403" lon="12.051808078081212"><ele>143.0</ele><time>2026-05-01T14:17:30.999Z</time></trkpt><trkpt lat="42.770138750293285" lon="12.052109759752536"><ele>143.0</ele><time>2026-05-01T14:17:31.999Z</time></trkpt><trkpt lat="42.7699020867319" lon="12.052415666086164"><ele>143.0</ele><time>2026-05-01T14:17:32.999Z</time></trkpt><trkpt lat="42.76966397175217" lon="12.052724771248593"><ele>143.0</ele><time>2026-05-01T14:17:33.999Z</time></trkpt><trkpt lat="42.76942517032337" lon="12.053034610132144"><ele>143.0</ele><time>2026-05-01T14:17:34.999Z</time></trkpt><trkpt lat="42.769186172609245" lon="12.053342812938492"><ele>143.0</ele><time>2026-05-01T14:17:35.999Z</time></trkpt><trkpt lat="42.7689457191014" lon="12.053652796946137"><ele>143.0</ele><time>2026-05-01T14:17:36.999Z</time></trkpt><trkpt lat="42.768705698941275" lon="12.053962742521326"><ele>142.5</ele><time>2026-05-01T14:17:37.999Z</time></trkpt><trkpt lat="42.768466281803896" lon="12.054273513717185"><ele>142.0</ele><time>2026-05-01T14:17:38.999Z</time></trkpt><trkpt lat="42.76822801839218" lon="12.054584505597985"><ele>142.0</ele><time>2026-05-01T14:17:39.999Z</time></trkpt><trkpt lat="42.76798645599288" lon="12.054894850748843"><ele>142.0</ele><time>2026-05-01T14:17:40.999Z</time></trkpt><trkpt lat="42.76774376072558" lon="12.055203864087101"><ele>141.5</ele><time>2026-05-01T14:17:41.999Z</time></trkpt><trkpt lat="42.76750299105562" lon="12.055513618355107"><ele>141.0</ele><time>2026-05-01T14:17:42.999Z</time></trkpt><trkpt lat="42.767262312088725" lon="12.055821280374797"><ele>141.0</ele><time>2026-05-01T14:17:43.999Z</time></trkpt><trkpt lat="42.767022819051164" lon="12.056127696470535"><ele>141.0</ele><time>2026-05-01T14:17:44.999Z</time></trkpt><trkpt lat="42.76678519458481" lon="12.056436272599093"><ele>141.5</ele><time>2026-05-01T14:17:45.999Z</time></trkpt><trkpt lat="42.76654786018858" lon="12.056745714012449"><ele>142.0</ele><time>2026-05-01T14:17:46.999Z</time></trkpt><trkpt lat="42.766309991868845" lon="12.057055719035652"><ele>142.0</ele><time>2026-05-01T14:17:47.999Z</time></trkpt><trkpt lat="42.766071851092796" lon="12.057366860499913"><ele>142.0</ele><time>2026-05-01T14:17:48.999Z</time></trkpt><trkpt lat="42.76583268394157" lon="12.057680038401575"><ele>141.5</ele><time>2026-05-01T14:17:49.999Z</time></trkpt><trkpt lat="42.765592659063" lon="12.05799306165564"><ele>141.0</ele><time>2026-05-01T14:17:50.999Z</time></trkpt><trkpt lat="42.76535230709203" lon="12.058305060812534"><ele>140.5</ele><time>2026-05-01T14:17:51.999Z</time></trkpt><trkpt lat="42.76511111508822" lon="12.058617565559812"><ele>140.0</ele><time>2026-05-01T14:17:52.999Z</time></trkpt><trkpt lat="42.764868073076286" lon="12.058933344126716"><ele>140.5</ele><time>2026-05-01T14:17:53.999Z</time></trkpt><trkpt lat="42.76462698815958" lon="12.059246377385227"><ele>141.0</ele><time>2026-05-01T14:17:54.999Z</time></trkpt><trkpt lat="42.76438393118616" lon="12.059560003546483"><ele>140.5</ele><time>2026-05-01T14:17:55.999Z</time></trkpt><trkpt lat="42.764140672124995" lon="12.05987254271329"><ele>140.0</ele><time>2026-05-01T14:17:56.999Z</time></trkpt><trkpt lat="42.763898938833684" lon="12.060186288358627"><ele>140.0</ele><time>2026-05-01T14:17:57.999Z</time></trkpt><trkpt lat="42.763658460875135" lon="12.060501560642331"><ele>140.0</ele><time>2026-05-01T14:17:58.999Z</time></trkpt><trkpt lat="42.76341869653208" lon="12.060816677202839"><ele>139.5</ele><time>2026-05-01T14:17:59.999Z</time></trkpt><trkpt lat="42.76318266619072" lon="12.061130299378917"><ele>139.0</ele><time>2026-05-01T14:18:00.999Z</time></trkpt><trkpt lat="42.762946016883895" lon="12.061443143524405"><ele>139.0</ele><time>2026-05-01T14:18:01.999Z</time></trkpt><trkpt lat="42.76271142052599" lon="12.061756405112748"><ele>139.0</ele><time>2026-05-01T14:18:02.999Z</time></trkpt><trkpt lat="42.762479025029755" lon="12.062069980607095"><ele>139.0</ele><time>2026-05-01T14:18:03.999Z</time></trkpt><trkpt lat="42.76224498908621" lon="12.06238044645286"><ele>139.0</ele><time>2026-05-01T14:18:04.999Z</time></trkpt><trkpt lat="42.76200588536535" lon="12.062687926989392"><ele>139.0</ele><time>2026-05-01T14:18:05.999Z</time></trkpt><trkpt lat="42.76176575195791" lon="12.062995327385284"><ele>139.0</ele><time>2026-05-01T14:18:06.999Z</time></trkpt><trkpt lat="42.76152838793343" lon="12.063302370035444"><ele>139.0</ele><time>2026-05-01T14:18:07.999Z</time></trkpt><trkpt lat="42.761288737848076" lon="12.063607979394789"><ele>139.0</ele><time>2026-05-01T14:18:08.999Z</time></trkpt><trkpt lat="42.7610488063521" lon="12.063915600574298"><ele>139.0</ele><time>2026-05-01T14:18:09.999Z</time></trkpt><trkpt lat="42.7608112424797" lon="12.06422355214698"><ele>139.0</ele><time>2026-05-01T14:18:10.999Z</time></trkpt><trkpt lat="42.760573837070694" lon="12.064531302581814"><ele>139.0</ele><time>2026-05-01T14:18:11.999Z</time></trkpt><trkpt lat="42.76033544670729" lon="12.06484078386852"><ele>139.0</ele><time>2026-05-01T14:18:12.999Z</time></trkpt><trkpt lat="42.76009568227412" lon="12.065151250426265"><ele>138.5</ele><time>2026-05-01T14:18:13.999Z</time></trkpt><trkpt lat="42.75985687166103" lon="12.065462567091574"><ele>138.0</ele><time>2026-05-01T14:18:14.999Z</time></trkpt><trkpt lat="42.75961755886988" lon="12.065774967778218"><ele>138.5</ele><time>2026-05-01T14:18:15.999Z</time></trkpt><trkpt lat="42.759378507353475" lon="12.066085780692978"><ele>139.0</ele><time>2026-05-01T14:18:16.999Z</time></trkpt><trkpt lat="42.759139238025135" lon="12.066396112068185"><ele>137.5</ele><time>2026-05-01T14:18:17.999Z</time></trkpt><trkpt lat="42.7589017459649" lon="12.066705008011533"><ele>136.0</ele><time>2026-05-01T14:18:18.999Z</time></trkpt><trkpt lat="42.75866391259931" lon="12.06701341268478"><ele>136.0</ele><time>2026-05-01T14:18:19.999Z</time></trkpt><trkpt lat="42.75842635337003" lon="12.067321676213867"><ele>136.0</ele><time>2026-05-01T14:18:20.999Z</time></trkpt><trkpt lat="42.758188667296615" lon="12.067629045444308"><ele>136.0</ele><time>2026-05-01T14:18:21.999Z</time></trkpt><trkpt lat="42.75795102260415" lon="12.067935007030576"><ele>136.0</ele><time>2026-05-01T14:18:22.999Z</time></trkpt><trkpt lat="42.75771310784065" lon="12.068241862881344"><ele>136.0</ele><time>2026-05-01T14:18:23.999Z</time></trkpt><trkpt lat="42.75747527283139" lon="12.068551128354361"><ele>136.0</ele><time>2026-05-01T14:18:24.999Z</time></trkpt><trkpt lat="42.75723727064268" lon="12.068861048814213"><ele>135.5</ele><time>2026-05-01T14:18:25.999Z</time></trkpt><trkpt lat="42.756998547866516" lon="12.069169605647172"><ele>135.0</ele><time>2026-05-01T14:18:26.998Z</time></trkpt><trkpt lat="42.75675793780536" lon="12.069480015233715"><ele>136.0</ele><time>2026-05-01T14:18:27.998Z</time></trkpt><trkpt lat="42.75651876116868" lon="12.069789323307031"><ele>137.0</ele><time>2026-05-01T14:18:29Z</time></trkpt><trkpt lat="42.756279618253046" lon="12.070097223155752"><ele>137.0</ele><time>2026-05-01T14:18:30Z</time></trkpt><trkpt lat="42.75603971771128" lon="12.070407217554834"><ele>137.0</ele><time>2026-05-01T14:18:31Z</time></trkpt><trkpt lat="42.755798872288366" lon="12.070720299529667"><ele>136.0</ele><time>2026-05-01T14:18:32Z</time></trkpt><trkpt lat="42.755555922078415" lon="12.071033717596052"><ele>135.0</ele><time>2026-05-01T14:18:33Z</time></trkpt><trkpt lat="42.75531125148214" lon="12.071344847319523"><ele>134.5</ele><time>2026-05-01T14:18:34Z</time></trkpt><trkpt lat="42.75506377782478" lon="12.071654808501515"><ele>134.0</ele><time>2026-05-01T14:18:35Z</time></trkpt><trkpt lat="42.754817043802845" lon="12.07196102294865"><ele>134.0</ele><time>2026-05-01T14:18:36Z</time></trkpt><trkpt lat="42.75456882990862" lon="12.07227021425978"><ele>134.0</ele><time>2026-05-01T14:18:37Z</time></trkpt><trkpt lat="42.75432128641277" lon="12.072580935414035"><ele>133.5</ele><time>2026-05-01T14:18:38Z</time></trkpt><trkpt lat="42.75407684847776" lon="12.072894900917483"><ele>133.0</ele><time>2026-05-01T14:18:39Z</time></trkpt><trkpt lat="42.753835039711625" lon="12.073209277509578"><ele>133.5</ele><time>2026-05-01T14:18:40Z</time></trkpt><trkpt lat="42.753593973635866" lon="12.073524352204497"><ele>134.0</ele><time>2026-05-01T14:18:41Z</time></trkpt><trkpt lat="42.75335231424529" lon="12.073835341710215"><ele>134.5</ele><time>2026-05-01T14:18:42Z</time></trkpt><trkpt lat="42.75311199089924" lon="12.074142505241658"><ele>135.0</ele><time>2026-05-01T14:18:43Z</time></trkpt><trkpt lat="42.75287364397335" lon="12.074448738428336"><ele>135.0</ele><time>2026-05-01T14:18:44Z</time></trkpt><trkpt lat="42.752635695873614" lon="12.074754982434891"><ele>135.0</ele><time>2026-05-01T14:18:45Z</time></trkpt><trkpt lat="42.75239765046248" lon="12.075061431997083"><ele>135.0</ele><time>2026-05-01T14:18:46Z</time></trkpt><trkpt lat="42.752159260643275" lon="12.075368069136212"><ele>135.0</ele><time>2026-05-01T14:18:47Z</time></trkpt><trkpt lat="42.75192095282739" lon="12.075673795955344"><ele>135.0</ele><time>2026-05-01T14:18:48Z</time></trkpt><trkpt lat="42.751682621813586" lon="12.075980815421795"><ele>135.0</ele><time>2026-05-01T14:18:49Z</time></trkpt><trkpt lat="42.75144436773589" lon="12.076287841155585"><ele>135.0</ele><time>2026-05-01T14:18:50Z</time></trkpt><trkpt lat="42.75120628011366" lon="12.076594531413061"><ele>135.0</ele><time>2026-05-01T14:18:51Z</time></trkpt><trkpt lat="42.750967450944835" lon="12.076901660388698"><ele>134.5</ele><time>2026-05-01T14:18:52Z</time></trkpt><trkpt lat="42.750729010863076" lon="12.07720995179562"><ele>134.0</ele><time>2026-05-01T14:18:53Z</time></trkpt><trkpt lat="42.75049033869133" lon="12.07752030890135"><ele>133.5</ele><time>2026-05-01T14:18:54Z</time></trkpt><trkpt lat="42.750251833000995" lon="12.077829628097323"><ele>133.0</ele><time>2026-05-01T14:18:55Z</time></trkpt><trkpt lat="42.75001165371991" lon="12.07814125183492"><ele>133.0</ele><time>2026-05-01T14:18:56Z</time></trkpt><trkpt lat="42.7497717602144" lon="12.078454493624827"><ele>133.0</ele><time>2026-05-01T14:18:57Z</time></trkpt><trkpt lat="42.74953091388396" lon="12.078767274960974"><ele>132.5</ele><time>2026-05-01T14:18:58Z</time></trkpt><trkpt lat="42.7492899265563" lon="12.07907931852284"><ele>132.0</ele><time>2026-05-01T14:18:59Z</time></trkpt><trkpt lat="42.74904926333783" lon="12.07938832500079"><ele>132.0</ele><time>2026-05-01T14:19:00Z</time></trkpt><trkpt lat="42.74880810130712" lon="12.079698073305243"><ele>132.0</ele><time>2026-05-01T14:19:01Z</time></trkpt><trkpt lat="42.748568773533584" lon="12.08000805680601"><ele>132.0</ele><time>2026-05-01T14:19:02Z</time></trkpt><trkpt lat="42.74832957898966" lon="12.080314892898466"><ele>132.0</ele><time>2026-05-01T14:19:03Z</time></trkpt><trkpt lat="42.748089654918566" lon="12.08062038380632"><ele>131.5</ele><time>2026-05-01T14:19:04Z</time></trkpt><trkpt lat="42.74785019581482" lon="12.080926293534349"><ele>131.0</ele><time>2026-05-01T14:19:05Z</time></trkpt><trkpt lat="42.74761164470143" lon="12.08123668246694"><ele>131.0</ele><time>2026-05-01T14:19:06Z</time></trkpt><trkpt lat="42.7473733854169" lon="12.081546784015217"><ele>131.0</ele><time>2026-05-01T14:19:07Z</time></trkpt><trkpt lat="42.74713303517937" lon="12.08185744392866"><ele>131.0</ele><time>2026-05-01T14:19:08Z</time></trkpt><trkpt lat="42.74689245772381" lon="12.082169172277244"><ele>131.0</ele><time>2026-05-01T14:19:09Z</time></trkpt><trkpt lat="42.74665227812126" lon="12.082481072759848"><ele>131.5</ele><time>2026-05-01T14:19:09.999Z</time></trkpt><trkpt lat="42.746410590438046" lon="12.082793708710525"><ele>132.0</ele><time>2026-05-01T14:19:10.999Z</time></trkpt><trkpt lat="42.746170244664384" lon="12.083106726861264"><ele>132.0</ele><time>2026-05-01T14:19:11.999Z</time></trkpt><trkpt lat="42.74592978448067" lon="12.083419807709824"><ele>132.0</ele><time>2026-05-01T14:19:12.999Z</time></trkpt><trkpt lat="42.745690195384384" lon="12.083729158372773"><ele>132.0</ele><time>2026-05-01T14:19:13.999Z</time></trkpt><trkpt lat="42.74544968395674" lon="12.084038158154671"><ele>132.0</ele><time>2026-05-01T14:19:14.999Z</time></trkpt><trkpt lat="42.7452079300752" lon="12.084345456029244"><ele>132.0</ele><time>2026-05-01T14:19:15.999Z</time></trkpt><trkpt lat="42.74496741980645" lon="12.084652012473612"><ele>132.0</ele><time>2026-05-01T14:19:16.999Z</time></trkpt><trkpt lat="42.74472798504767" lon="12.084960055237834"><ele>132.0</ele><time>2026-05-01T14:19:17.999Z</time></trkpt><trkpt lat="42.74448859230508" lon="12.085271238508543"><ele>132.0</ele><time>2026-05-01T14:19:18.999Z</time></trkpt><trkpt lat="42.74425035971016" lon="12.085583651742338"><ele>133.5</ele><time>2026-05-01T14:19:19.999Z</time></trkpt><trkpt lat="42.74401117185997" lon="12.085897504810479"><ele>135.0</ele><time>2026-05-01T14:19:20.999Z</time></trkpt><trkpt lat="42.74377157431711" lon="12.086210610039249"><ele>137.0</ele><time>2026-05-01T14:19:21.999Z</time></trkpt><trkpt lat="42.74353250320339" lon="12.086524876044535"><ele>139.0</ele><time>2026-05-01T14:19:22.999Z</time></trkpt><trkpt lat="42.743294134578115" lon="12.086841600280234"><ele>139.0</ele><time>2026-05-01T14:19:23.999Z</time></trkpt><trkpt lat="42.7430582426568" lon="12.087164881754592"><ele>139.0</ele><time>2026-05-01T14:19:24.999Z</time></trkpt><trkpt lat="42.7428292621269" lon="12.087496896352985"><ele>138.5</ele><time>2026-05-01T14:19:25.999Z</time></trkpt><trkpt lat="42.74260415462481" lon="12.087840103288302"><ele>138.0</ele><time>2026-05-01T14:19:26.999Z</time></trkpt><trkpt lat="42.742385747454954" lon="12.088189265344038"><ele>137.5</ele><time>2026-05-01T14:19:27.999Z</time></trkpt><trkpt lat="42.74216947820317" lon="12.088541320345705"><ele>137.0</ele><time>2026-05-01T14:19:28.999Z</time></trkpt><trkpt lat="42.7419581946175" lon="12.088900563786005"><ele>136.5</ele><time>2026-05-01T14:19:29.999Z</time></trkpt><trkpt lat="42.74174998609534" lon="12.089264270116212"><ele>136.0</ele><time>2026-05-01T14:19:30.999Z</time></trkpt><trkpt lat="42.74154544570657" lon="12.08963322038468"><ele>134.5</ele><time>2026-05-01T14:19:31.999Z</time></trkpt><trkpt lat="42.74134463432364" lon="12.09000807286337"><ele>133.0</ele><time>2026-05-01T14:19:32.999Z</time></trkpt><trkpt lat="42.74115000625711" lon="12.090387179399595"><ele>133.0</ele><time>2026-05-01T14:19:33.999Z</time></trkpt><trkpt lat="42.7409615507275" lon="12.090770534489906"><ele>133.0</ele><time>2026-05-01T14:19:34.999Z</time></trkpt><trkpt lat="42.74077829166372" lon="12.09115805671544"><ele>133.0</ele><time>2026-05-01T14:19:35.999Z</time></trkpt><trkpt lat="42.74060057390175" lon="12.091547830149745"><ele>133.0</ele><time>2026-05-01T14:19:36.999Z</time></trkpt><trkpt lat="42.740428675556494" lon="12.09193620331645"><ele>132.0</ele><time>2026-05-01T14:19:37.999Z</time></trkpt><trkpt lat="42.740261826744806" lon="12.092327426825161"><ele>131.0</ele><time>2026-05-01T14:19:38.999Z</time></trkpt><trkpt lat="42.74010260261137" lon="12.09271564353455"><ele>131.0</ele><time>2026-05-01T14:19:39.999Z</time></trkpt><trkpt lat="42.73994623845424" lon="12.093106415162683"><ele>131.0</ele><time>2026-05-01T14:19:40.999Z</time></trkpt><trkpt lat="42.73979059676329" lon="12.093496843662738"><ele>130.0</ele><time>2026-05-01T14:19:41.999Z</time></trkpt><trkpt lat="42.7396346166472" lon="12.093886389984442"><ele>129.0</ele><time>2026-05-01T14:19:42.999Z</time></trkpt><trkpt lat="42.739478294722545" lon="12.094273398626266"><ele>129.0</ele><time>2026-05-01T14:19:43.999Z</time></trkpt><trkpt lat="42.73932441135356" lon="12.094659858646335"><ele>129.0</ele><time>2026-05-01T14:19:44.999Z</time></trkpt><trkpt lat="42.739170652864765" lon="12.095045969891565"><ele>128.5</ele><time>2026-05-01T14:19:45.999Z</time></trkpt><trkpt lat="42.73901641462178" lon="12.095434525609472"><ele>128.0</ele><time>2026-05-01T14:19:46.999Z</time></trkpt><trkpt lat="42.73886218733893" lon="12.09582376727575"><ele>127.5</ele><time>2026-05-01T14:19:47.999Z</time></trkpt><trkpt lat="42.73870753169327" lon="12.096212743286639"><ele>127.0</ele><time>2026-05-01T14:19:48.999Z</time></trkpt><trkpt lat="42.738552541563195" lon="12.096601086628137"><ele>128.5</ele><time>2026-05-01T14:19:49.999Z</time></trkpt><trkpt lat="42.7383966702639" lon="12.09699328050978"><ele>130.0</ele><time>2026-05-01T14:19:50.999Z</time></trkpt><trkpt lat="42.73824072850501" lon="12.097383874875241"><ele>128.5</ele><time>2026-05-01T14:19:51.999Z</time></trkpt><trkpt lat="42.738083431484036" lon="12.097776383830341"><ele>127.0</ele><time>2026-05-01T14:19:52.999Z</time></trkpt><trkpt lat="42.73792803422939" lon="12.098170287623372"><ele>126.5</ele><time>2026-05-01T14:19:53.999Z</time></trkpt><trkpt lat="42.73777235969897" lon="12.09856572282186"><ele>126.0</ele><time>2026-05-01T14:19:54.999Z</time></trkpt><trkpt lat="42.73761610597632" lon="12.098962291667695"><ele>127.0</ele><time>2026-05-01T14:19:55.999Z</time></trkpt><trkpt lat="42.737457925818724" lon="12.099361991632481"><ele>128.0</ele><time>2026-05-01T14:19:56.999Z</time></trkpt><trkpt lat="42.73729784495448" lon="12.099761613935677"><ele>129.0</ele><time>2026-05-01T14:19:57.999Z</time></trkpt><trkpt lat="42.73713711422173" lon="12.100159454690116"><ele>130.0</ele><time>2026-05-01T14:19:58.999Z</time></trkpt><trkpt lat="42.73697483019968" lon="12.100557928395462"><ele>129.5</ele><time>2026-05-01T14:19:59.999Z</time></trkpt><trkpt lat="42.73681488517632" lon="12.100958242179054"><ele>129.0</ele><time>2026-05-01T14:20:00.999Z</time></trkpt><trkpt lat="42.73665428441271" lon="12.10135806326554"><ele>128.5</ele><time>2026-05-01T14:20:01.999Z</time></trkpt><trkpt lat="42.73649349207058" lon="12.101758555688225"><ele>128.0</ele><time>2026-05-01T14:20:02.999Z</time></trkpt><trkpt lat="42.73633276299346" lon="12.10216088522984"><ele>127.5</ele><time>2026-05-01T14:20:03.999Z</time></trkpt><trkpt lat="42.73617142861068" lon="12.102561703950016"><ele>127.0</ele><time>2026-05-01T14:20:04.999Z</time></trkpt><trkpt lat="42.73600976603792" lon="12.102963837413519"><ele>127.5</ele><time>2026-05-01T14:20:05.999Z</time></trkpt><trkpt lat="42.7358499425844" lon="12.103365294281502"><ele>128.0</ele><time>2026-05-01T14:20:06.999Z</time></trkpt><trkpt lat="42.735689305312256" lon="12.103769537908637"><ele>127.5</ele><time>2026-05-01T14:20:07.999Z</time></trkpt><trkpt lat="42.73552970489939" lon="12.104172346995975"><ele>127.0</ele><time>2026-05-01T14:20:08.999Z</time></trkpt><trkpt lat="42.73536896206245" lon="12.104574317662365"><ele>126.0</ele><time>2026-05-01T14:20:09.999Z</time></trkpt><trkpt lat="42.73520752366802" lon="12.104975439195266"><ele>125.0</ele><time>2026-05-01T14:20:10.999Z</time></trkpt><trkpt lat="42.735047272511736" lon="12.105377304952542"><ele>125.0</ele><time>2026-05-01T14:20:11.999Z</time></trkpt><trkpt lat="42.73488596973188" lon="12.105777485413833"><ele>125.0</ele><time>2026-05-01T14:20:12.999Z</time></trkpt><trkpt lat="42.73472667658894" lon="12.106176637032403"><ele>125.0</ele><time>2026-05-01T14:20:13.999Z</time></trkpt><trkpt lat="42.73456903991115" lon="12.106575112655815"><ele>125.0</ele><time>2026-05-01T14:20:14.999Z</time></trkpt><trkpt lat="42.73441225258297" lon="12.106970775466428"><ele>124.5</ele><time>2026-05-01T14:20:15.999Z</time></trkpt><trkpt lat="42.73425517745546" lon="12.107362021297982"><ele>124.0</ele><time>2026-05-01T14:20:16.999Z</time></trkpt><trkpt lat="42.734099825415434" lon="12.10775191863906"><ele>123.5</ele><time>2026-05-01T14:20:17.999Z</time></trkpt><trkpt lat="42.733943490226665" lon="12.108141611374073"><ele>123.0</ele><time>2026-05-01T14:20:18.999Z</time></trkpt><trkpt lat="42.73378719883507" lon="12.108530341116465"><ele>122.5</ele><time>2026-05-01T14:20:19.999Z</time></trkpt><trkpt lat="42.73363190161986" lon="12.108919742815322"><ele>122.0</ele><time>2026-05-01T14:20:20.999Z</time></trkpt><trkpt lat="42.73347822122904" lon="12.109307631571609"><ele>122.0</ele><time>2026-05-01T14:20:21.999Z</time></trkpt><trkpt lat="42.73332335430383" lon="12.109698062448805"><ele>122.0</ele><time>2026-05-01T14:20:22.999Z</time></trkpt><trkpt lat="42.73316847435114" lon="12.110088566069253"><ele>120.5</ele><time>2026-05-01T14:20:23.999Z</time></trkpt><trkpt lat="42.73301167432669" lon="12.110481641114175"><ele>119.0</ele><time>2026-05-01T14:20:24.999Z</time></trkpt><trkpt lat="42.73285325577996" lon="12.11087503087338"><ele>120.0</ele><time>2026-05-01T14:20:25.999Z</time></trkpt><trkpt lat="42.7326960764579" lon="12.111268710665978"><ele>121.0</ele><time>2026-05-01T14:20:26.999Z</time></trkpt><trkpt lat="42.73253827955141" lon="12.111663084180936"><ele>121.0</ele><time>2026-05-01T14:20:27.999Z</time></trkpt><trkpt lat="42.73238000413707" lon="12.112057261098515"><ele>121.0</ele><time>2026-05-01T14:20:28.999Z</time></trkpt><trkpt lat="42.732220508105016" lon="12.11245295738465"><ele>120.0</ele><time>2026-05-01T14:20:29.999Z</time></trkpt><trkpt lat="42.73206053611661" lon="12.112848176170713"><ele>119.0</ele><time>2026-05-01T14:20:30.999Z</time></trkpt><trkpt lat="42.731899656301906" lon="12.113243935658494"><ele>119.0</ele><time>2026-05-01T14:20:31.999Z</time></trkpt><trkpt lat="42.73173839938662" lon="12.113640001220404"><ele>119.0</ele><time>2026-05-01T14:20:32.999Z</time></trkpt><trkpt lat="42.731579062796484" lon="12.114037497590314"><ele>119.0</ele><time>2026-05-01T14:20:33.999Z</time></trkpt><trkpt lat="42.73142022048239" lon="12.114436426828464"><ele>119.0</ele><time>2026-05-01T14:20:35Z</time></trkpt><trkpt lat="42.73126293567682" lon="12.114835979515538"><ele>119.0</ele><time>2026-05-01T14:20:36Z</time></trkpt><trkpt lat="42.73110489066635" lon="12.11523422713454"><ele>119.0</ele><time>2026-05-01T14:20:37Z</time></trkpt><trkpt lat="42.73094723262746" lon="12.115629949179038"><ele>119.0</ele><time>2026-05-01T14:20:38Z</time></trkpt><trkpt lat="42.730787721506815" lon="12.116028119494548"><ele>119.0</ele><time>2026-05-01T14:20:39Z</time></trkpt><trkpt lat="42.73062901718175" lon="12.116425929325848"><ele>118.5</ele><time>2026-05-01T14:20:40Z</time></trkpt><trkpt lat="42.73047152406147" lon="12.116825128753346"><ele>118.0</ele><time>2026-05-01T14:20:41Z</time></trkpt><trkpt lat="42.7303134048188" lon="12.117223263176767"><ele>117.5</ele><time>2026-05-01T14:20:42Z</time></trkpt><trkpt lat="42.730154626854386" lon="12.117619432918424"><ele>117.0</ele><time>2026-05-01T14:20:43Z</time></trkpt><trkpt lat="42.729996439767554" lon="12.11801499452253"><ele>117.0</ele><time>2026-05-01T14:20:44Z</time></trkpt><trkpt lat="42.729838111928174" lon="12.118411864758771"><ele>117.0</ele><time>2026-05-01T14:20:45Z</time></trkpt><trkpt lat="42.729678649606285" lon="12.118809450673963"><ele>117.0</ele><time>2026-05-01T14:20:46Z</time></trkpt><trkpt lat="42.7295193527502" lon="12.11920796985835"><ele>117.0</ele><time>2026-05-01T14:20:47Z</time></trkpt><trkpt lat="42.72935972742637" lon="12.119605742209536"><ele>116.5</ele><time>2026-05-01T14:20:48Z</time></trkpt><trkpt lat="42.72919954426466" lon="12.120002702264154"><ele>116.0</ele><time>2026-05-01T14:20:49Z</time></trkpt><trkpt lat="42.72903894943412" lon="12.120397539945001"><ele>115.0</ele><time>2026-05-01T14:20:50Z</time></trkpt><trkpt lat="42.72887853775032" lon="12.120794809843474"><ele>114.0</ele><time>2026-05-01T14:20:51Z</time></trkpt><trkpt lat="42.728720398131514" lon="12.121190843284094"><ele>114.0</ele><time>2026-05-01T14:20:52Z</time></trkpt><trkpt lat="42.7285633524639" lon="12.121585756312715"><ele>114.0</ele><time>2026-05-01T14:20:53Z</time></trkpt><trkpt lat="42.72840679085215" lon="12.121979930239434"><ele>115.5</ele><time>2026-05-01T14:20:54Z</time></trkpt><trkpt lat="42.72825042496368" lon="12.122375833683792"><ele>117.0</ele><time>2026-05-01T14:20:55Z</time></trkpt><trkpt lat="42.728094057926306" lon="12.122770986295315"><ele>117.0</ele><time>2026-05-01T14:20:56Z</time></trkpt><trkpt lat="42.72793527329664" lon="12.123168085451477"><ele>117.0</ele><time>2026-05-01T14:20:57Z</time></trkpt><trkpt lat="42.72777544783171" lon="12.123565892682294"><ele>117.0</ele><time>2026-05-01T14:20:58Z</time></trkpt><trkpt lat="42.727616733377545" lon="12.123964122471072"><ele>117.0</ele><time>2026-05-01T14:20:59Z</time></trkpt><trkpt lat="42.7274591835507" lon="12.124362441184536"><ele>117.0</ele><time>2026-05-01T14:21:00Z</time></trkpt><trkpt lat="42.727304230729835" lon="12.124761978667868"><ele>117.0</ele><time>2026-05-01T14:21:01Z</time></trkpt><trkpt lat="42.72714428400273" lon="12.12516000743117"><ele>117.0</ele><time>2026-05-01T14:21:02Z</time></trkpt><trkpt lat="42.72698401976409" lon="12.125557954182936"><ele>117.0</ele><time>2026-05-01T14:21:03Z</time></trkpt><trkpt lat="42.726823873926826" lon="12.125955132706748"><ele>117.0</ele><time>2026-05-01T14:21:04Z</time></trkpt><trkpt lat="42.726661914735615" lon="12.126351490722051"><ele>117.0</ele><time>2026-05-01T14:21:05Z</time></trkpt><trkpt lat="42.72649929417497" lon="12.12674628398372"><ele>116.0</ele><time>2026-05-01T14:21:06Z</time></trkpt><trkpt lat="42.726340450489886" lon="12.12714300217871"><ele>115.0</ele><time>2026-05-01T14:21:07Z</time></trkpt><trkpt lat="42.72618230872714" lon="12.127539558268433"><ele>115.0</ele><time>2026-05-01T14:21:08Z</time></trkpt><trkpt lat="42.726026343147396" lon="12.127937496197786"><ele>115.0</ele><time>2026-05-01T14:21:09Z</time></trkpt><trkpt lat="42.725868662470994" lon="12.128331766213378"><ele>115.0</ele><time>2026-05-01T14:21:10Z</time></trkpt><trkpt lat="42.725710136451454" lon="12.128724566054764"><ele>115.0</ele><time>2026-05-01T14:21:11Z</time></trkpt><trkpt lat="42.7255525372543" lon="12.129117705232373"><ele>115.0</ele><time>2026-05-01T14:21:12Z</time></trkpt><trkpt lat="42.725398174279945" lon="12.129509177416722"><ele>115.0</ele><time>2026-05-01T14:21:13Z</time></trkpt><trkpt lat="42.72524081343827" lon="12.129900991276243"><ele>115.0</ele><time>2026-05-01T14:21:14Z</time></trkpt><trkpt lat="42.725083213505854" lon="12.130292554477377"><ele>115.0</ele><time>2026-05-01T14:21:15Z</time></trkpt><trkpt lat="42.724923320348324" lon="12.130684169405626"><ele>115.0</ele><time>2026-05-01T14:21:16Z</time></trkpt><trkpt lat="42.72476819632731" lon="12.131077538831743"><ele>115.0</ele><time>2026-05-01T14:21:16.999Z</time></trkpt><trkpt lat="42.7246102004156" lon="12.13147121216063"><ele>115.0</ele><time>2026-05-01T14:21:17.999Z</time></trkpt><trkpt lat="42.72445321824251" lon="12.131865506043036"><ele>115.0</ele><time>2026-05-01T14:21:18.999Z</time></trkpt><trkpt lat="42.72429362818765" lon="12.132256994607054"><ele>116.0</ele><time>2026-05-01T14:21:19.999Z</time></trkpt><trkpt lat="42.72413477745396" lon="12.132652802670291"><ele>117.0</ele><time>2026-05-01T14:21:20.999Z</time></trkpt><trkpt lat="42.72397655711838" lon="12.133049660528984"><ele>115.5</ele><time>2026-05-01T14:21:21.999Z</time></trkpt><trkpt lat="42.72381839648354" lon="12.133446213733974"><ele>114.0</ele><time>2026-05-01T14:21:22.999Z</time></trkpt><trkpt lat="42.72366030293577" lon="12.133844998463688"><ele>116.5</ele><time>2026-05-01T14:21:23.999Z</time></trkpt><trkpt lat="42.72350121746385" lon="12.134244818218814"><ele>119.0</ele><time>2026-05-01T14:21:24.999Z</time></trkpt><trkpt lat="42.72334378572963" lon="12.134645609183558"><ele>118.0</ele><time>2026-05-01T14:21:25.999Z</time></trkpt><trkpt lat="42.72318164014665" lon="12.135040813533678"><ele>117.0</ele><time>2026-05-01T14:21:26.999Z</time></trkpt><trkpt lat="42.723022625604614" lon="12.135441393232833"><ele>117.5</ele><time>2026-05-01T14:21:27.999Z</time></trkpt><trkpt lat="42.72286174205562" lon="12.135840749615733"><ele>118.0</ele><time>2026-05-01T14:21:28.999Z</time></trkpt><trkpt lat="42.72270088928672" lon="12.136242005442947"><ele>117.5</ele><time>2026-05-01T14:21:29.999Z</time></trkpt><trkpt lat="42.72253957340229" lon="12.136643380103955"><ele>117.0</ele><time>2026-05-01T14:21:30.999Z</time></trkpt><trkpt lat="42.72238244902064" lon="12.137046961534601"><ele>115.0</ele><time>2026-05-01T14:21:31.999Z</time></trkpt><trkpt lat="42.72222397116179" lon="12.137448351652491"><ele>113.0</ele><time>2026-05-01T14:21:32.999Z</time></trkpt><trkpt lat="42.722063570002824" lon="12.137848208098575"><ele>112.5</ele><time>2026-05-01T14:21:33.999Z</time></trkpt><trkpt lat="42.72190505292089" lon="12.138248488179748"><ele>112.0</ele><time>2026-05-01T14:21:34.999Z</time></trkpt><trkpt lat="42.72174683642855" lon="12.138646125984945"><ele>112.5</ele><time>2026-05-01T14:21:35.999Z</time></trkpt><trkpt lat="42.721587589306495" lon="12.139043608221492"><ele>113.0</ele><time>2026-05-01T14:21:36.999Z</time></trkpt><trkpt lat="42.7214278592758" lon="12.139443857978913"><ele>113.0</ele><time>2026-05-01T14:21:37.999Z</time></trkpt><trkpt lat="42.72126591867471" lon="12.13984468233029"><ele>113.0</ele><time>2026-05-01T14:21:38.999Z</time></trkpt><trkpt lat="42.72110364184061" lon="12.140241815241566"><ele>113.0</ele><time>2026-05-01T14:21:39.999Z</time></trkpt><trkpt lat="42.72093166174458" lon="12.140634479080019"><ele>113.0</ele><time>2026-05-01T14:21:40.999Z</time></trkpt><trkpt lat="42.720755405920826" lon="12.141023761756898"><ele>113.0</ele><time>2026-05-01T14:21:41.999Z</time></trkpt><trkpt lat="42.72058154234145" lon="12.141408513227573"><ele>113.0</ele><time>2026-05-01T14:21:42.999Z</time></trkpt><trkpt lat="42.72040593362653" lon="12.141790937695287"><ele>113.0</ele><time>2026-05-01T14:21:43.999Z</time></trkpt><trkpt lat="42.72022568946782" lon="12.142167756908659"><ele>113.0</ele><time>2026-05-01T14:21:44.999Z</time></trkpt><trkpt lat="42.72003936772713" lon="12.142538103011331"><ele>112.0</ele><time>2026-05-01T14:21:45.999Z</time></trkpt><trkpt lat="42.71985026307645" lon="12.142899511326647"><ele>111.0</ele><time>2026-05-01T14:21:46.999Z</time></trkpt><trkpt lat="42.71965717905758" lon="12.143255641763336"><ele>111.0</ele><time>2026-05-01T14:21:47.999Z</time></trkpt><trkpt lat="42.71946093718707" lon="12.143606432222095"><ele>111.0</ele><time>2026-05-01T14:21:48.999Z</time></trkpt><trkpt lat="42.71926117884782" lon="12.143955882242151"><ele>111.0</ele><time>2026-05-01T14:21:49.999Z</time></trkpt><trkpt lat="42.71905390155884" lon="12.144300543391116"><ele>111.0</ele><time>2026-05-01T14:21:50.999Z</time></trkpt><trkpt lat="42.71884158799647" lon="12.144641912294937"><ele>111.0</ele><time>2026-05-01T14:21:51.999Z</time></trkpt><trkpt lat="42.71862173095055" lon="12.144979389522147"><ele>111.0</ele><time>2026-05-01T14:21:52.999Z</time></trkpt><trkpt lat="42.718398385685624" lon="12.14531117325872"><ele>111.5</ele><time>2026-05-01T14:21:53.999Z</time></trkpt><trkpt lat="42.718166874653456" lon="12.145640384975122"><ele>112.0</ele><time>2026-05-01T14:21:54.999Z</time></trkpt><trkpt lat="42.717930381564706" lon="12.145965832675998"><ele>111.5</ele><time>2026-05-01T14:21:55.999Z</time></trkpt><trkpt lat="42.71769026533707" lon="12.146284379886353"><ele>111.0</ele><time>2026-05-01T14:21:56.999Z</time></trkpt><trkpt lat="42.717446965619935" lon="12.146596439156625"><ele>110.5</ele><time>2026-05-01T14:21:57.999Z</time></trkpt><trkpt lat="42.71719866685348" lon="12.1469022529259"><ele>110.0</ele><time>2026-05-01T14:21:58.999Z</time></trkpt><trkpt lat="42.71694814832158" lon="12.147201862579712"><ele>110.0</ele><time>2026-05-01T14:21:59.999Z</time></trkpt><trkpt lat="42.71669380782789" lon="12.147493873068184"><ele>110.0</ele><time>2026-05-01T14:22:00.999Z</time></trkpt><trkpt lat="42.71643788397386" lon="12.147782865966024"><ele>110.0</ele><time>2026-05-01T14:22:01.999Z</time></trkpt><trkpt lat="42.716180926147494" lon="12.148071090618272"><ele>110.0</ele><time>2026-05-01T14:22:02.999Z</time></trkpt><trkpt lat="42.715924746064665" lon="12.1483605320207"><ele>109.5</ele><time>2026-05-01T14:22:03.999Z</time></trkpt><trkpt lat="42.71567000489469" lon="12.148650395525413"><ele>109.0</ele><time>2026-05-01T14:22:04.999Z</time></trkpt><trkpt lat="42.71541642852143" lon="12.148938546273845"><ele>109.5</ele><time>2026-05-01T14:22:05.999Z</time></trkpt><trkpt lat="42.71516313984234" lon="12.149226983330669"><ele>110.0</ele><time>2026-05-01T14:22:06.999Z</time></trkpt><trkpt lat="42.71491077791696" lon="12.149516872743451"><ele>110.0</ele><time>2026-05-01T14:22:07.999Z</time></trkpt><trkpt lat="42.71465920125179" lon="12.14980632180589"><ele>110.0</ele><time>2026-05-01T14:22:08.999Z</time></trkpt><trkpt lat="42.71440626321666" lon="12.150095682228823"><ele>111.0</ele><time>2026-05-01T14:22:09.999Z</time></trkpt><trkpt lat="42.714153082527524" lon="12.150385459465513"><ele>112.0</ele><time>2026-05-01T14:22:10.999Z</time></trkpt><trkpt lat="42.71389998160966" lon="12.150676864030933"><ele>112.5</ele><time>2026-05-01T14:22:11.999Z</time></trkpt><trkpt lat="42.71364628314177" lon="12.150969186254793"><ele>113.0</ele><time>2026-05-01T14:22:12.999Z</time></trkpt><trkpt lat="42.713393643778566" lon="12.151260542880948"><ele>111.5</ele><time>2026-05-01T14:22:13.999Z</time></trkpt><trkpt lat="42.71313987082494" lon="12.151551334736176"><ele>110.0</ele><time>2026-05-01T14:22:14.999Z</time></trkpt><trkpt lat="42.712886395247565" lon="12.15184151677747"><ele>110.0</ele><time>2026-05-01T14:22:15.999Z</time></trkpt><trkpt lat="42.71263416322122" lon="12.152129653447572"><ele>110.0</ele><time>2026-05-01T14:22:16.999Z</time></trkpt><trkpt lat="42.71238128497746" lon="12.152418306990318"><ele>110.5</ele><time>2026-05-01T14:22:17.999Z</time></trkpt><trkpt lat="42.71212743817938" lon="12.152706825874576"><ele>111.0</ele><time>2026-05-01T14:22:18.999Z</time></trkpt><trkpt lat="42.71187413481203" lon="12.152994898390133"><ele>110.5</ele><time>2026-05-01T14:22:19.999Z</time></trkpt><trkpt lat="42.711622204845696" lon="12.153283760543657"><ele>110.0</ele><time>2026-05-01T14:22:20.999Z</time></trkpt><trkpt lat="42.71136885203651" lon="12.153573892421697"><ele>110.0</ele><time>2026-05-01T14:22:21.999Z</time></trkpt><trkpt lat="42.711114814815545" lon="12.153862120246783"><ele>110.0</ele><time>2026-05-01T14:22:22.999Z</time></trkpt><trkpt lat="42.71085981956764" lon="12.154149859385058"><ele>110.0</ele><time>2026-05-01T14:22:23.999Z</time></trkpt><trkpt lat="42.71060403853194" lon="12.154439023016621"><ele>110.0</ele><time>2026-05-01T14:22:24.999Z</time></trkpt><trkpt lat="42.710348774752696" lon="12.154729959722633"><ele>110.0</ele><time>2026-05-01T14:22:25.999Z</time></trkpt><trkpt lat="42.71009566167996" lon="12.155023289364633"><ele>110.0</ele><time>2026-05-01T14:22:26.999Z</time></trkpt><trkpt lat="42.70984220364145" lon="12.155315808543966"><ele>110.0</ele><time>2026-05-01T14:22:27.999Z</time></trkpt><trkpt lat="42.70958917264355" lon="12.155608862686265"><ele>110.0</ele><time>2026-05-01T14:22:28.999Z</time></trkpt><trkpt lat="42.709335560296736" lon="12.155901981923666"><ele>109.0</ele><time>2026-05-01T14:22:29.999Z</time></trkpt><trkpt lat="42.70908217921195" lon="12.156193235935866"><ele>108.0</ele><time>2026-05-01T14:22:30.999Z</time></trkpt><trkpt lat="42.70882671460939" lon="12.156482730459812"><ele>109.5</ele><time>2026-05-01T14:22:31.999Z</time></trkpt><trkpt lat="42.70857172605871" lon="12.15677265858483"><ele>111.0</ele><time>2026-05-01T14:22:32.999Z</time></trkpt><trkpt lat="42.708316138995784" lon="12.157063988167982"><ele>111.0</ele><time>2026-05-01T14:22:33.999Z</time></trkpt><trkpt lat="42.70806162800223" lon="12.157353317055879"><ele>111.0</ele><time>2026-05-01T14:22:34.999Z</time></trkpt><trkpt lat="42.70780726671615" lon="12.157644547924702"><ele>111.5</ele><time>2026-05-01T14:22:35.999Z</time></trkpt><trkpt lat="42.70755489691067" lon="12.157937974824684"><ele>112.0</ele><time>2026-05-01T14:22:36.999Z</time></trkpt><trkpt lat="42.70730657334423" lon="12.158234329280118"><ele>112.0</ele><time>2026-05-01T14:22:37.999Z</time></trkpt><trkpt lat="42.70706368752153" lon="12.158540820393739"><ele>112.0</ele><time>2026-05-01T14:22:38.999Z</time></trkpt><trkpt lat="42.706825594947496" lon="12.158857467019198"><ele>111.0</ele><time>2026-05-01T14:22:39.999Z</time></trkpt><trkpt lat="42.706594961185395" lon="12.1591821118343"><ele>110.0</ele><time>2026-05-01T14:22:41Z</time></trkpt><trkpt lat="42.706369836037645" lon="12.1595140611362"><ele>110.0</ele><time>2026-05-01T14:22:42Z</time></trkpt><trkpt lat="42.70614969313738" lon="12.159853963725931"><ele>110.0</ele><time>2026-05-01T14:22:43Z</time></trkpt><trkpt lat="42.70593478641736" lon="12.16020046040279"><ele>109.5</ele><time>2026-05-01T14:22:44Z</time></trkpt><trkpt lat="42.70572738389588" lon="12.160555415530139"><ele>109.0</ele><time>2026-05-01T14:22:45Z</time></trkpt><trkpt lat="42.70552737868248" lon="12.16091686488399"><ele>108.5</ele><time>2026-05-01T14:22:46Z</time></trkpt><trkpt lat="42.70533518683818" lon="12.161281770051188"><ele>108.0</ele><time>2026-05-01T14:22:47Z</time></trkpt><trkpt lat="42.70515185038122" lon="12.161650257928933"><ele>108.0</ele><time>2026-05-01T14:22:48Z</time></trkpt><trkpt lat="42.704977619756704" lon="12.162023401525753"><ele>108.0</ele><time>2026-05-01T14:22:49Z</time></trkpt><trkpt lat="42.70481064569029" lon="12.16240592061022"><ele>108.0</ele><time>2026-05-01T14:22:50Z</time></trkpt><trkpt lat="42.7046483339198" lon="12.162798163059664"><ele>108.0</ele><time>2026-05-01T14:22:51Z</time></trkpt><trkpt lat="42.704491100243736" lon="12.163197068832513"><ele>109.5</ele><time>2026-05-01T14:22:52Z</time></trkpt><trkpt lat="42.704342143056685" lon="12.163602323179402"><ele>111.0</ele><time>2026-05-01T14:22:53Z</time></trkpt><trkpt lat="42.70419887035227" lon="12.164013355027873"><ele>110.5</ele><time>2026-05-01T14:22:54Z</time></trkpt><trkpt lat="42.7040602887474" lon="12.16442925617851"><ele>110.0</ele><time>2026-05-01T14:22:55Z</time></trkpt><trkpt lat="42.70392959795853" lon="12.164848892903471"><ele>109.5</ele><time>2026-05-01T14:22:56Z</time></trkpt><trkpt lat="42.70380540212774" lon="12.165275538013125"><ele>109.0</ele><time>2026-05-01T14:22:57Z</time></trkpt><trkpt lat="42.70368520223365" lon="12.165707133067828"><ele>109.0</ele><time>2026-05-01T14:22:58Z</time></trkpt><trkpt lat="42.70356726393289" lon="12.166139025845782"><ele>109.0</ele><time>2026-05-01T14:22:59Z</time></trkpt><trkpt lat="42.70344974038533" lon="12.166569228573506"><ele>109.0</ele><time>2026-05-01T14:23:00Z</time></trkpt><trkpt lat="42.7033328767532" lon="12.166993914833347"><ele>109.0</ele><time>2026-05-01T14:23:01Z</time></trkpt><trkpt lat="42.703214966664106" lon="12.167415412838817"><ele>107.0</ele><time>2026-05-01T14:23:02Z</time></trkpt><trkpt lat="42.70309946527968" lon="12.167833135757585"><ele>105.0</ele><time>2026-05-01T14:23:03Z</time></trkpt><trkpt lat="42.702984229441746" lon="12.168250007550697"><ele>105.0</ele><time>2026-05-01T14:23:04Z</time></trkpt><trkpt lat="42.70286943372082" lon="12.168667214041056"><ele>105.0</ele><time>2026-05-01T14:23:05Z</time></trkpt><trkpt lat="42.70275208172621" lon="12.169087560183739"><ele>105.5</ele><time>2026-05-01T14:23:06Z</time></trkpt><trkpt lat="42.702635215659015" lon="12.169511860673985"><ele>106.0</ele><time>2026-05-01T14:23:07Z</time></trkpt><trkpt lat="42.70251998571008" lon="12.169934238721783"><ele>106.0</ele><time>2026-05-01T14:23:08Z</time></trkpt><trkpt lat="42.70240539421313" lon="12.170355299671112"><ele>106.0</ele><time>2026-05-01T14:23:09Z</time></trkpt><trkpt lat="42.7022912186714" lon="12.170772998667326"><ele>105.0</ele><time>2026-05-01T14:23:10Z</time></trkpt><trkpt lat="42.702177840634526" lon="12.171188934327898"><ele>104.0</ele><time>2026-05-01T14:23:11Z</time></trkpt><trkpt lat="42.70206312756047" lon="12.171600635792107"><ele>104.0</ele><time>2026-05-01T14:23:12Z</time></trkpt><trkpt lat="42.70194803390352" lon="12.172013494361206"><ele>104.0</ele><time>2026-05-01T14:23:13Z</time></trkpt><trkpt lat="42.70183170905535" lon="12.172431035560576"><ele>106.0</ele><time>2026-05-01T14:23:14Z</time></trkpt><trkpt lat="42.70171660091933" lon="12.172849823512216"><ele>108.0</ele><time>2026-05-01T14:23:15Z</time></trkpt><trkpt lat="42.70160085029312" lon="12.17327019277416"><ele>108.0</ele><time>2026-05-01T14:23:16Z</time></trkpt><trkpt lat="42.701485137920976" lon="12.173691037636353"><ele>108.0</ele><time>2026-05-01T14:23:17Z</time></trkpt><trkpt lat="42.70136850544958" lon="12.174112688210029"><ele>107.5</ele><time>2026-05-01T14:23:18Z</time></trkpt><trkpt lat="42.70124895991826" lon="12.174532795668771"><ele>107.0</ele><time>2026-05-01T14:23:19Z</time></trkpt><trkpt lat="42.70112721845875" lon="12.174954634575819"><ele>106.5</ele><time>2026-05-01T14:23:20Z</time></trkpt><trkpt lat="42.70100402196587" lon="12.175378893725187"><ele>106.0</ele><time>2026-05-01T14:23:20.999Z</time></trkpt><trkpt lat="42.70088084052647" lon="12.17580596619123"><ele>106.0</ele><time>2026-05-01T14:23:21.999Z</time></trkpt><trkpt lat="42.70076016596243" lon="12.176231554020783"><ele>106.0</ele><time>2026-05-01T14:23:22.999Z</time></trkpt><trkpt lat="42.700639485927034" lon="12.17665778184469"><ele>105.0</ele><time>2026-05-01T14:23:23.999Z</time></trkpt><trkpt lat="42.70052000467649" lon="12.177085171063299"><ele>104.0</ele><time>2026-05-01T14:23:24.999Z</time></trkpt><trkpt lat="42.70040121766303" lon="12.177511129817093"><ele>104.0</ele><time>2026-05-01T14:23:25.999Z</time></trkpt><trkpt lat="42.70028252528644" lon="12.177931133946457"><ele>104.0</ele><time>2026-05-01T14:23:26.999Z</time></trkpt><trkpt lat="42.700165050443644" lon="12.178351804125514"><ele>104.0</ele><time>2026-05-01T14:23:27.999Z</time></trkpt><trkpt lat="42.70004828581322" lon="12.178772574501435"><ele>104.0</ele><time>2026-05-01T14:23:28.999Z</time></trkpt><trkpt lat="42.699931890421404" lon="12.179194506432774"><ele>103.5</ele><time>2026-05-01T14:23:29.999Z</time></trkpt><trkpt lat="42.69981652687408" lon="12.17961710926075"><ele>103.0</ele><time>2026-05-01T14:23:30.999Z</time></trkpt><trkpt lat="42.69970166309979" lon="12.180039356711188"><ele>103.0</ele><time>2026-05-01T14:23:31.999Z</time></trkpt><trkpt lat="42.69958611656381" lon="12.180459901882914"><ele>103.0</ele><time>2026-05-01T14:23:32.999Z</time></trkpt><trkpt lat="42.69946984230681" lon="12.180879060185685"><ele>103.5</ele><time>2026-05-01T14:23:33.999Z</time></trkpt><trkpt lat="42.69935344214253" lon="12.181298074324776"><ele>104.0</ele><time>2026-05-01T14:23:34.999Z</time></trkpt><trkpt lat="42.69923670409662" lon="12.181714193678207"><ele>104.0</ele><time>2026-05-01T14:23:35.999Z</time></trkpt><trkpt lat="42.69911934772235" lon="12.182130471800106"><ele>104.0</ele><time>2026-05-01T14:23:36.999Z</time></trkpt><trkpt lat="42.69900530672084" lon="12.182545443346706"><ele>103.5</ele><time>2026-05-01T14:23:37.999Z</time></trkpt><trkpt lat="42.698896931700546" lon="12.182964637137205"><ele>103.0</ele><time>2026-05-01T14:23:38.999Z</time></trkpt><trkpt lat="42.698804196767824" lon="12.183392081887332"><ele>102.0</ele><time>2026-05-01T14:23:39.999Z</time></trkpt><trkpt lat="42.698729505297905" lon="12.183823190491138"><ele>101.0</ele><time>2026-05-01T14:23:40.999Z</time></trkpt><trkpt lat="42.698677214475765" lon="12.184258441010314"><ele>101.0</ele><time>2026-05-01T14:23:41.999Z</time></trkpt><trkpt lat="42.698642638852135" lon="12.18469793348596"><ele>101.0</ele><time>2026-05-01T14:23:42.999Z</time></trkpt><trkpt lat="42.69862874789778" lon="12.185140580204175"><ele>101.0</ele><time>2026-05-01T14:23:43.999Z</time></trkpt><trkpt lat="42.69863063479459" lon="12.185584516941512"><ele>101.0</ele><time>2026-05-01T14:23:44.999Z</time></trkpt><trkpt lat="42.69864993043997" lon="12.186028440917822"><ele>101.5</ele><time>2026-05-01T14:23:45.999Z</time></trkpt><trkpt lat="42.698684057092976" lon="12.186477036975607"><ele>102.0</ele><time>2026-05-01T14:23:46.999Z</time></trkpt><trkpt lat="42.69872680402827" lon="12.186926792617003"><ele>101.5</ele><time>2026-05-01T14:23:47.999Z</time></trkpt><trkpt lat="42.6987738359571" lon="12.187380517813008"><ele>101.0</ele><time>2026-05-01T14:23:48.999Z</time></trkpt><trkpt lat="42.698818775869455" lon="12.187839099844862"><ele>102.0</ele><time>2026-05-01T14:23:49.999Z</time></trkpt><trkpt lat="42.69886292109531" lon="12.18830018006068"><ele>103.0</ele><time>2026-05-01T14:23:50.999Z</time></trkpt><trkpt lat="42.698905405815715" lon="12.188762074400554"><ele>105.5</ele><time>2026-05-01T14:23:51.999Z</time></trkpt><trkpt lat="42.698947959255705" lon="12.189223360107526"><ele>108.0</ele><time>2026-05-01T14:23:52.999Z</time></trkpt><trkpt lat="42.69899180031705" lon="12.189683864528181"><ele>108.0</ele><time>2026-05-01T14:23:53.999Z</time></trkpt><trkpt lat="42.699036392372896" lon="12.190143747434503"><ele>108.0</ele><time>2026-05-01T14:23:54.999Z</time></trkpt><trkpt lat="42.69907940299864" lon="12.190601495248748"><ele>108.0</ele><time>2026-05-01T14:23:55.999Z</time></trkpt><trkpt lat="42.69912155337252" lon="12.1910560839982"><ele>108.0</ele><time>2026-05-01T14:23:56.999Z</time></trkpt><trkpt lat="42.69916376527481" lon="12.191510534641543"><ele>108.0</ele><time>2026-05-01T14:23:57.999Z</time></trkpt><trkpt lat="42.69920564361069" lon="12.191960488762192"><ele>108.0</ele><time>2026-05-01T14:23:58.999Z</time></trkpt><trkpt lat="42.69924529436013" lon="12.19240879287503"><ele>108.0</ele><time>2026-05-01T14:23:59.999Z</time></trkpt><trkpt lat="42.69927986446171" lon="12.192853541930507"><ele>108.0</ele><time>2026-05-01T14:24:00.999Z</time></trkpt><trkpt lat="42.699294819291985" lon="12.193300113462948"><ele>107.5</ele><time>2026-05-01T14:24:01.999Z</time></trkpt><trkpt lat="42.69927431485305" lon="12.193738526886449"><ele>107.0</ele><time>2026-05-01T14:24:02.999Z</time></trkpt><trkpt lat="42.69922967259037" lon="12.19417301333168"><ele>106.5</ele><time>2026-05-01T14:24:03.999Z</time></trkpt><trkpt lat="42.69916301233563" lon="12.194598688666924"><ele>106.0</ele><time>2026-05-01T14:24:04.999Z</time></trkpt><trkpt lat="42.69907839543004" lon="12.195019622436522"><ele>106.0</ele><time>2026-05-01T14:24:05.999Z</time></trkpt><trkpt lat="42.69895732968411" lon="12.195424535256503"><ele>106.0</ele><time>2026-05-01T14:24:06.999Z</time></trkpt><trkpt lat="42.69884566299143" lon="12.195833515703207"><ele>106.0</ele><time>2026-05-01T14:24:07.999Z</time></trkpt><trkpt lat="42.698676536845866" lon="12.19620878865073"><ele>106.0</ele><time>2026-05-01T14:24:08.999Z</time></trkpt><trkpt lat="42.698524784729756" lon="12.196595075537049"><ele>103.0</ele><time>2026-05-01T14:24:09.999Z</time></trkpt><trkpt lat="42.69837222014264" lon="12.196984354284055"><ele>100.0</ele><time>2026-05-01T14:24:10.999Z</time></trkpt><trkpt lat="42.698223363430905" lon="12.197379549326866"><ele>99.5</ele><time>2026-05-01T14:24:11.999Z</time></trkpt><trkpt lat="42.698073112146474" lon="12.197777934040918"><ele>99.0</ele><time>2026-05-01T14:24:12.999Z</time></trkpt><trkpt lat="42.69792088750622" lon="12.198175389708526"><ele>98.5</ele><time>2026-05-01T14:24:13.999Z</time></trkpt><trkpt lat="42.697766263021016" lon="12.198574123400428"><ele>98.0</ele><time>2026-05-01T14:24:14.999Z</time></trkpt><trkpt lat="42.69760993029136" lon="12.198975665749803"><ele>100.0</ele><time>2026-05-01T14:24:15.999Z</time></trkpt><trkpt lat="42.69745526406225" lon="12.199375336303481"><ele>102.0</ele><time>2026-05-01T14:24:16.999Z</time></trkpt><trkpt lat="42.6972999917278" lon="12.199776120336802"><ele>103.0</ele><time>2026-05-01T14:24:17.999Z</time></trkpt><trkpt lat="42.69714557237581" lon="12.200175560363686"><ele>104.0</ele><time>2026-05-01T14:24:18.999Z</time></trkpt><trkpt lat="42.69699009665709" lon="12.200573383882276"><ele>103.5</ele><time>2026-05-01T14:24:19.999Z</time></trkpt><trkpt lat="42.69683377874063" lon="12.200974818099937"><ele>103.0</ele><time>2026-05-01T14:24:20.999Z</time></trkpt><trkpt lat="42.69667803682362" lon="12.20137600277067"><ele>103.0</ele><time>2026-05-01T14:24:21.999Z</time></trkpt><trkpt lat="42.696521793349525" lon="12.201779978602229"><ele>103.0</ele><time>2026-05-01T14:24:22.999Z</time></trkpt><trkpt lat="42.696365344955495" lon="12.202184064647065"><ele>103.0</ele><time>2026-05-01T14:24:23.999Z</time></trkpt><trkpt lat="42.69620866265021" lon="12.202586680293434"><ele>103.0</ele><time>2026-05-01T14:24:24.999Z</time></trkpt><trkpt lat="42.69604542158028" lon="12.202984432380132"><ele>103.0</ele><time>2026-05-01T14:24:25.999Z</time></trkpt><trkpt lat="42.69587021036404" lon="12.203372862577059"><ele>103.0</ele><time>2026-05-01T14:24:26.999Z</time></trkpt><trkpt lat="42.69568470399203" lon="12.20375197922659"><ele>103.0</ele><time>2026-05-01T14:24:27.999Z</time></trkpt><trkpt lat="42.69548757528138" lon="12.204114757561028"><ele>103.0</ele><time>2026-05-01T14:24:28.999Z</time></trkpt><trkpt lat="42.69528292036554" lon="12.20447031838932"><ele>103.0</ele><time>2026-05-01T14:24:29.999Z</time></trkpt><trkpt lat="42.69507004263578" lon="12.20481704232715"><ele>103.0</ele><time>2026-05-01T14:24:30.999Z</time></trkpt><trkpt lat="42.69484848741103" lon="12.205155118015277"><ele>104.0</ele><time>2026-05-01T14:24:31.999Z</time></trkpt><trkpt lat="42.694618424614255" lon="12.205484342694824"><ele>105.0</ele><time>2026-05-01T14:24:32.999Z</time></trkpt><trkpt lat="42.694376972646964" lon="12.20579891408338"><ele>105.5</ele><time>2026-05-01T14:24:33.999Z</time></trkpt><trkpt lat="42.694128759325935" lon="12.206099207875988"><ele>106.0</ele><time>2026-05-01T14:24:34.999Z</time></trkpt><trkpt lat="42.6938698482755" lon="12.206380708018486"><ele>105.0</ele><time>2026-05-01T14:24:35.999Z</time></trkpt><trkpt lat="42.69360398693139" lon="12.206652654851137"><ele>104.0</ele><time>2026-05-01T14:24:36.999Z</time></trkpt><trkpt lat="42.693330593165946" lon="12.20691384276365"><ele>103.5</ele><time>2026-05-01T14:24:37.999Z</time></trkpt><trkpt lat="42.69304854543703" lon="12.20716106510482"><ele>103.0</ele><time>2026-05-01T14:24:38.999Z</time></trkpt><trkpt lat="42.692762944740615" lon="12.207400121128412"><ele>104.0</ele><time>2026-05-01T14:24:39.999Z</time></trkpt><trkpt lat="42.69247510014316" lon="12.207634431112556"><ele>105.0</ele><time>2026-05-01T14:24:40.999Z</time></trkpt><trkpt lat="42.692190403294944" lon="12.207874568470416"><ele>104.5</ele><time>2026-05-01T14:24:41.999Z</time></trkpt><trkpt lat="42.6919096592035" lon="12.208124157131317"><ele>104.0</ele><time>2026-05-01T14:24:42.999Z</time></trkpt><trkpt lat="42.691628537812015" lon="12.208373122458982"><ele>103.0</ele><time>2026-05-01T14:24:43.999Z</time></trkpt><trkpt lat="42.69134662564388" lon="12.20861785173023"><ele>102.0</ele><time>2026-05-01T14:24:44.999Z</time></trkpt><trkpt lat="42.691063868335334" lon="12.208857033853784"><ele>106.0</ele><time>2026-05-01T14:24:45.998Z</time></trkpt><trkpt lat="42.690779367492055" lon="12.2090879975705"><ele>110.0</ele><time>2026-05-01T14:24:47Z</time></trkpt><trkpt lat="42.6904900650851" lon="12.209301582240982"><ele>111.0</ele><time>2026-05-01T14:24:48Z</time></trkpt><trkpt lat="42.69019546580564" lon="12.209500340702181"><ele>112.0</ele><time>2026-05-01T14:24:49Z</time></trkpt><trkpt lat="42.68989665309137" lon="12.209686914421196"><ele>112.5</ele><time>2026-05-01T14:24:50Z</time></trkpt><trkpt lat="42.68959250719661" lon="12.209854028073712"><ele>113.0</ele><time>2026-05-01T14:24:51Z</time></trkpt><trkpt lat="42.689283279246844" lon="12.21000728430596"><ele>113.0</ele><time>2026-05-01T14:24:52Z</time></trkpt><trkpt lat="42.68896677857682" lon="12.2101445735702"><ele>113.0</ele><time>2026-05-01T14:24:53Z</time></trkpt><trkpt lat="42.688648369430574" lon="12.210266782132578"><ele>111.5</ele><time>2026-05-01T14:24:54Z</time></trkpt><trkpt lat="42.68832553277316" lon="12.210372837184925"><ele>110.0</ele><time>2026-05-01T14:24:55Z</time></trkpt><trkpt lat="42.68800113371133" lon="12.210461136775544"><ele>108.0</ele><time>2026-05-01T14:24:56Z</time></trkpt><trkpt lat="42.68767460869962" lon="12.210541393856802"><ele>106.0</ele><time>2026-05-01T14:24:57Z</time></trkpt><trkpt lat="42.6873480716364" lon="12.210612182915437"><ele>108.5</ele><time>2026-05-01T14:24:58Z</time></trkpt><trkpt lat="42.68702031695204" lon="12.210682739120722"><ele>111.0</ele><time>2026-05-01T14:24:59Z</time></trkpt><trkpt lat="42.68669279382334" lon="12.21075294659957"><ele>111.0</ele><time>2026-05-01T14:25:00Z</time></trkpt><trkpt lat="42.686365497516014" lon="12.210827237187472"><ele>111.0</ele><time>2026-05-01T14:25:01Z</time></trkpt><trkpt lat="42.6860375494826" lon="12.210903171740012"><ele>109.5</ele><time>2026-05-01T14:25:02Z</time></trkpt><trkpt lat="42.68571084834259" lon="12.210983545543689"><ele>108.0</ele><time>2026-05-01T14:25:03Z</time></trkpt><trkpt lat="42.68538070107905" lon="12.211065749690132"><ele>107.5</ele><time>2026-05-01T14:25:04Z</time></trkpt><trkpt lat="42.68505532330046" lon="12.211145046623095"><ele>107.0</ele><time>2026-05-01T14:25:05Z</time></trkpt><trkpt lat="42.68472816732296" lon="12.211220384675338"><ele>106.5</ele><time>2026-05-01T14:25:06Z</time></trkpt><trkpt lat="42.684398138380764" lon="12.211288793325577"><ele>106.0</ele><time>2026-05-01T14:25:07Z</time></trkpt><trkpt lat="42.68406897990344" lon="12.211339432272151"><ele>106.0</ele><time>2026-05-01T14:25:08Z</time></trkpt><trkpt lat="42.683739389388265" lon="12.211369584963395"><ele>106.0</ele><time>2026-05-01T14:25:09Z</time></trkpt><trkpt lat="42.68341251343367" lon="12.211374752424556"><ele>106.0</ele><time>2026-05-01T14:25:10Z</time></trkpt><trkpt lat="42.68308707684869" lon="12.211367062308994"><ele>106.0</ele><time>2026-05-01T14:25:11Z</time></trkpt><trkpt lat="42.682762730871154" lon="12.211343221994316"><ele>107.0</ele><time>2026-05-01T14:25:12Z</time></trkpt><trkpt lat="42.682437890703504" lon="12.211309090196133"><ele>108.0</ele><time>2026-05-01T14:25:13Z</time></trkpt><trkpt lat="42.682113041823534" lon="12.211264622161796"><ele>109.0</ele><time>2026-05-01T14:25:14Z</time></trkpt><trkpt lat="42.68178701946734" lon="12.21120894947385"><ele>110.0</ele><time>2026-05-01T14:25:15Z</time></trkpt><trkpt lat="42.681460171456614" lon="12.211143515397112"><ele>110.0</ele><time>2026-05-01T14:25:16Z</time></trkpt><trkpt lat="42.681132453052975" lon="12.211070581792605"><ele>110.0</ele><time>2026-05-01T14:25:17Z</time></trkpt><trkpt lat="42.68080229316718" lon="12.210993735498864"><ele>110.5</ele><time>2026-05-01T14:25:18Z</time></trkpt><trkpt lat="42.68047224901383" lon="12.210916659206024"><ele>111.0</ele><time>2026-05-01T14:25:19Z</time></trkpt><trkpt lat="42.68014137505861" lon="12.210840490197182"><ele>112.5</ele><time>2026-05-01T14:25:20Z</time></trkpt><trkpt lat="42.679808273445566" lon="12.21076354113202"><ele>114.0</ele><time>2026-05-01T14:25:21Z</time></trkpt><trkpt lat="42.6794755239664" lon="12.210686532338709"><ele>109.0</ele><time>2026-05-01T14:25:22Z</time></trkpt><trkpt lat="42.67914351138577" lon="12.210609998560079"><ele>104.0</ele><time>2026-05-01T14:25:23Z</time></trkpt><trkpt lat="42.67881188444832" lon="12.210533514080044"><ele>105.5</ele><time>2026-05-01T14:25:24Z</time></trkpt><trkpt lat="42.67848065431685" lon="12.210457432965296"><ele>107.0</ele><time>2026-05-01T14:25:25Z</time></trkpt><trkpt lat="42.678149814632555" lon="12.210382726061976"><ele>107.0</ele><time>2026-05-01T14:25:26Z</time></trkpt><trkpt lat="42.6778189408839" lon="12.210311116337474"><ele>107.0</ele><time>2026-05-01T14:25:26.999Z</time></trkpt><trkpt lat="42.67748757102253" lon="12.21024970969453"><ele>108.5</ele><time>2026-05-01T14:25:27.999Z</time></trkpt><trkpt lat="42.67715558623532" lon="12.210210444376777"><ele>110.0</ele><time>2026-05-01T14:25:28.999Z</time></trkpt><trkpt lat="42.676823839393464" lon="12.210196343821844"><ele>110.0</ele><time>2026-05-01T14:25:29.999Z</time></trkpt><trkpt lat="42.67649204240979" lon="12.210199889631369"><ele>110.0</ele><time>2026-05-01T14:25:30.999Z</time></trkpt><trkpt lat="42.67616104141434" lon="12.210226682061164"><ele>110.0</ele><time>2026-05-01T14:25:31.999Z</time></trkpt><trkpt lat="42.67583171651515" lon="12.210277458298954"><ele>110.0</ele><time>2026-05-01T14:25:32.999Z</time></trkpt><trkpt lat="42.67550446979752" lon="12.210355584294962"><ele>110.5</ele><time>2026-05-01T14:25:33.999Z</time></trkpt><trkpt lat="42.67518138129167" lon="12.210455372181128"><ele>111.0</ele><time>2026-05-01T14:25:34.999Z</time></trkpt><trkpt lat="42.67486297471025" lon="12.210583168763005"><ele>115.5</ele><time>2026-05-01T14:25:35.999Z</time></trkpt><trkpt lat="42.67455024206089" lon="12.21073151456868"><ele>120.0</ele><time>2026-05-01T14:25:36.999Z</time></trkpt><trkpt lat="42.67424511486729" lon="12.2109036178544"><ele>120.0</ele><time>2026-05-01T14:25:37.999Z</time></trkpt><trkpt lat="42.67394741433583" lon="12.211097580518375"><ele>120.0</ele><time>2026-05-01T14:25:38.999Z</time></trkpt><trkpt lat="42.67365707096857" lon="12.21131341363201"><ele>118.5</ele><time>2026-05-01T14:25:39.999Z</time></trkpt><trkpt lat="42.67337270287276" lon="12.211547064623772"><ele>117.0</ele><time>2026-05-01T14:25:40.999Z</time></trkpt><trkpt lat="42.673097821755924" lon="12.21180365835262"><ele>117.0</ele><time>2026-05-01T14:25:41.999Z</time></trkpt><trkpt lat="42.672829595151455" lon="12.212075200800669"><ele>117.0</ele><time>2026-05-01T14:25:42.999Z</time></trkpt><trkpt lat="42.672568596556346" lon="12.212362777009638"><ele>118.0</ele><time>2026-05-01T14:25:43.999Z</time></trkpt><trkpt lat="42.67230265164816" lon="12.212646565498964"><ele>119.0</ele><time>2026-05-01T14:25:44.999Z</time></trkpt><trkpt lat="42.67202676532913" lon="12.212910724612174"><ele>119.5</ele><time>2026-05-01T14:25:45.999Z</time></trkpt><trkpt lat="42.671740809250046" lon="12.2131511312656"><ele>120.0</ele><time>2026-05-01T14:25:46.999Z</time></trkpt><trkpt lat="42.67144785000387" lon="12.213379475865871"><ele>120.0</ele><time>2026-05-01T14:25:47.999Z</time></trkpt><trkpt lat="42.67115298325149" lon="12.213602651909843"><ele>120.0</ele><time>2026-05-01T14:25:48.999Z</time></trkpt><trkpt lat="42.67086049027638" lon="12.213829571277577"><ele>122.0</ele><time>2026-05-01T14:25:49.999Z</time></trkpt><trkpt lat="42.67057339729997" lon="12.214062262803361"><ele>124.0</ele><time>2026-05-01T14:25:50.999Z</time></trkpt><trkpt lat="42.67028891864286" lon="12.214298898375533"><ele>118.5</ele><time>2026-05-01T14:25:51.999Z</time></trkpt><trkpt lat="42.67000704169206" lon="12.21453549059988"><ele>113.0</ele><time>2026-05-01T14:25:52.999Z</time></trkpt><trkpt lat="42.66972491331574" lon="12.214769337508503"><ele>112.5</ele><time>2026-05-01T14:25:53.999Z</time></trkpt><trkpt lat="42.66944315372517" lon="12.215002975239077"><ele>112.0</ele><time>2026-05-01T14:25:54.999Z</time></trkpt><trkpt lat="42.66916150717094" lon="12.21523526507954"><ele>112.0</ele><time>2026-05-01T14:25:55.999Z</time></trkpt><trkpt lat="42.66888110002993" lon="12.21547028464403"><ele>112.0</ele><time>2026-05-01T14:25:56.999Z</time></trkpt><trkpt lat="42.66860079392228" lon="12.21570514871901"><ele>109.0</ele><time>2026-05-01T14:25:57.999Z</time></trkpt><trkpt lat="42.66832385744127" lon="12.21594180353668"><ele>106.0</ele><time>2026-05-01T14:25:58.999Z</time></trkpt><trkpt lat="42.66805212373062" lon="12.2161881257978"><ele>106.0</ele><time>2026-05-01T14:25:59.999Z</time></trkpt><trkpt lat="42.667782735859774" lon="12.216441180247125"><ele>106.0</ele><time>2026-05-01T14:26:00.999Z</time></trkpt><trkpt lat="42.667523994491205" lon="12.216709246483422"><ele>107.5</ele><time>2026-05-01T14:26:01.999Z</time></trkpt><trkpt lat="42.66726908927025" lon="12.216988542617058"><ele>109.0</ele><time>2026-05-01T14:26:02.999Z</time></trkpt><trkpt lat="42.66701570057564" lon="12.217271880986132"><ele>110.5</ele><time>2026-05-01T14:26:03.999Z</time></trkpt><trkpt lat="42.666760652198256" lon="12.217554602259566"><ele>112.0</ele><time>2026-05-01T14:26:04.999Z</time></trkpt><trkpt lat="42.666502374951484" lon="12.217825083609535"><ele>112.0</ele><time>2026-05-01T14:26:05.999Z</time></trkpt><trkpt lat="42.66623531066088" lon="12.218063871297417"><ele>112.0</ele><time>2026-05-01T14:26:06.999Z</time></trkpt><trkpt lat="42.66595404283984" lon="12.218261605323008"><ele>118.0</ele><time>2026-05-01T14:26:07.999Z</time></trkpt><trkpt lat="42.6656615129814" lon="12.218421119032914"><ele>124.0</ele><time>2026-05-01T14:26:08.999Z</time></trkpt><trkpt lat="42.66535965743842" lon="12.218546463421308"><ele>125.0</ele><time>2026-05-01T14:26:09.999Z</time></trkpt><trkpt lat="42.6650531551513" lon="12.218641174955188"><ele>126.0</ele><time>2026-05-01T14:26:10.999Z</time></trkpt><trkpt lat="42.66474055759113" lon="12.218709705024857"><ele>122.5</ele><time>2026-05-01T14:26:11.999Z</time></trkpt><trkpt lat="42.66442652908166" lon="12.21878552680052"><ele>119.0</ele><time>2026-05-01T14:26:12.999Z</time></trkpt><trkpt lat="42.66411209503463" lon="12.21886838112349"><ele>119.0</ele><time>2026-05-01T14:26:13.999Z</time></trkpt><trkpt lat="42.66379640662043" lon="12.218956066047264"><ele>119.0</ele><time>2026-05-01T14:26:14.999Z</time></trkpt><trkpt lat="42.66348034318219" lon="12.21905421399406"><ele>122.0</ele><time>2026-05-01T14:26:15.999Z</time></trkpt><trkpt lat="42.66317559258008" lon="12.21918732963994"><ele>125.0</ele><time>2026-05-01T14:26:16.999Z</time></trkpt><trkpt lat="42.66288813452907" lon="12.219363424041312"><ele>122.0</ele><time>2026-05-01T14:26:17.999Z</time></trkpt><trkpt lat="42.66261410882" lon="12.219566473692915"><ele>119.0</ele><time>2026-05-01T14:26:18.999Z</time></trkpt><trkpt lat="42.66235673913079" lon="12.2197999400518"><ele>117.5</ele><time>2026-05-01T14:26:19.999Z</time></trkpt><trkpt lat="42.6621145089445" lon="12.220054520048278"><ele>116.0</ele><time>2026-05-01T14:26:20.999Z</time></trkpt><trkpt lat="42.66188839004768" lon="12.220337367878976"><ele>116.0</ele><time>2026-05-01T14:26:21.999Z</time></trkpt><trkpt lat="42.66167760224413" lon="12.220643137014385"><ele>116.0</ele><time>2026-05-01T14:26:22.999Z</time></trkpt><trkpt lat="42.66148241270563" lon="12.22096945636721"><ele>118.0</ele><time>2026-05-01T14:26:23.999Z</time></trkpt><trkpt lat="42.661287886750166" lon="12.22130862130066"><ele>120.0</ele><time>2026-05-01T14:26:24.999Z</time></trkpt><trkpt lat="42.66107891606379" lon="12.2216550899554"><ele>120.0</ele><time>2026-05-01T14:26:25.999Z</time></trkpt><trkpt lat="42.66086456507132" lon="12.22199879418668"><ele>120.0</ele><time>2026-05-01T14:26:26.999Z</time></trkpt><trkpt lat="42.66064530911652" lon="12.2223353708906"><ele>122.0</ele><time>2026-05-01T14:26:27.999Z</time></trkpt><trkpt lat="42.66041122367231" lon="12.22264484820371"><ele>124.0</ele><time>2026-05-01T14:26:28.999Z</time></trkpt><trkpt lat="42.66015962191433" lon="12.222920134478759"><ele>121.5</ele><time>2026-05-01T14:26:29.999Z</time></trkpt><trkpt lat="42.65989406474805" lon="12.223149897044507"><ele>119.0</ele><time>2026-05-01T14:26:30.999Z</time></trkpt><trkpt lat="42.65961931990385" lon="12.223343090180903"><ele>115.5</ele><time>2026-05-01T14:26:31.999Z</time></trkpt><trkpt lat="42.659338077861534" lon="12.22349910664405"><ele>112.0</ele><time>2026-05-01T14:26:32.999Z</time></trkpt><trkpt lat="42.65904403710905" lon="12.223629585925309"><ele>112.0</ele><time>2026-05-01T14:26:33.999Z</time></trkpt><trkpt lat="42.658737433158095" lon="12.22372959274942"><ele>112.0</ele><time>2026-05-01T14:26:34.999Z</time></trkpt><trkpt lat="42.65842227505406" lon="12.223792319379173"><ele>106.0</ele><time>2026-05-01T14:26:35.999Z</time></trkpt><trkpt lat="42.658100672466794" lon="12.223814465155233"><ele>100.0</ele><time>2026-05-01T14:26:36.999Z</time></trkpt><trkpt lat="42.657778735647206" lon="12.223796624401453"><ele>93.5</ele><time>2026-05-01T14:26:37.999Z</time></trkpt><trkpt lat="42.65745733596885" lon="12.223734386809156"><ele>87.0</ele><time>2026-05-01T14:26:38.999Z</time></trkpt><trkpt lat="42.657139795097464" lon="12.223641097657776"><ele>88.5</ele><time>2026-05-01T14:26:39.999Z</time></trkpt><trkpt lat="42.65682602483503" lon="12.223536760141014"><ele>90.0</ele><time>2026-05-01T14:26:40.999Z</time></trkpt><trkpt lat="42.656516204476645" lon="12.223425981073781"><ele>90.0</ele><time>2026-05-01T14:26:41.999Z</time></trkpt><trkpt lat="42.65620586836464" lon="12.22331774476608"><ele>90.0</ele><time>2026-05-01T14:26:42.999Z</time></trkpt><trkpt lat="42.65589410872746" lon="12.223216203494609"><ele>105.0</ele><time>2026-05-01T14:26:43.999Z</time></trkpt><trkpt lat="42.65558539538427" lon="12.22311795175872"><ele>120.0</ele><time>2026-05-01T14:26:44.999Z</time></trkpt><trkpt lat="42.65527631429424" lon="12.22302351037097"><ele>125.0</ele><time>2026-05-01T14:26:45.999Z</time></trkpt><trkpt lat="42.65496597153172" lon="12.222930398065355"><ele>130.0</ele><time>2026-05-01T14:26:46.999Z</time></trkpt><trkpt lat="42.654649504373936" lon="12.222834495997647"><ele>130.0</ele><time>2026-05-01T14:26:47.999Z</time></trkpt><trkpt lat="42.65432701109637" lon="12.222737933281024"><ele>130.0</ele><time>2026-05-01T14:26:48.999Z</time></trkpt><trkpt lat="42.654000207762365" lon="12.22264476772853"><ele>130.0</ele><time>2026-05-01T14:26:49.998Z</time></trkpt><trkpt lat="42.653669554955044" lon="12.222562936483833"><ele>130.0</ele><time>2026-05-01T14:26:50.998Z</time></trkpt><trkpt lat="42.65333578136176" lon="12.222499095408997"><ele>130.5</ele><time>2026-05-01T14:26:51.998Z</time></trkpt><trkpt lat="42.652999587564274" lon="12.222474563125266"><ele>131.0</ele><time>2026-05-01T14:26:53Z</time></trkpt><trkpt lat="42.65266660989591" lon="12.222481679384918"><ele>131.5</ele><time>2026-05-01T14:26:54Z</time></trkpt><trkpt lat="42.65233351414649" lon="12.222524487589562"><ele>132.0</ele><time>2026-05-01T14:26:55Z</time></trkpt><trkpt lat="42.65200691497415" lon="12.222596556448936"><ele>132.0</ele><time>2026-05-01T14:26:56Z</time></trkpt><trkpt lat="42.65170036458817" lon="12.22269797343433"><ele>132.0</ele><time>2026-05-01T14:26:57Z</time></trkpt><trkpt lat="42.651407182710436" lon="12.222819619884035"><ele>132.0</ele><time>2026-05-01T14:26:58Z</time></trkpt><trkpt lat="42.65112546685365" lon="12.222965659326114"><ele>132.0</ele><time>2026-05-01T14:26:59Z</time></trkpt><trkpt lat="42.650857135434315" lon="12.223138521696903"><ele>130.0</ele><time>2026-05-01T14:27:00Z</time></trkpt><trkpt lat="42.65059389121055" lon="12.223328852454818"><ele>128.0</ele><time>2026-05-01T14:27:01Z</time></trkpt><trkpt lat="42.65033020039559" lon="12.22352108571692"><ele>127.5</ele><time>2026-05-01T14:27:02Z</time></trkpt><trkpt lat="42.650061672048174" lon="12.2237065058099"><ele>127.0</ele><time>2026-05-01T14:27:03Z</time></trkpt><trkpt lat="42.64978722516673" lon="12.223892560325119"><ele>126.5</ele><time>2026-05-01T14:27:04Z</time></trkpt><trkpt lat="42.64950884300816" lon="12.224082597673721"><ele>126.0</ele><time>2026-05-01T14:27:05Z</time></trkpt><trkpt lat="42.649228373693404" lon="12.224276835911068"><ele>126.0</ele><time>2026-05-01T14:27:06Z</time></trkpt><trkpt lat="42.64894384922357" lon="12.2244708494517"><ele>126.0</ele><time>2026-05-01T14:27:07Z</time></trkpt><trkpt lat="42.64865712929015" lon="12.22466457491118"><ele>126.5</ele><time>2026-05-01T14:27:08Z</time></trkpt><trkpt lat="42.64836737290455" lon="12.224861752622047"><ele>127.0</ele><time>2026-05-01T14:27:09Z</time></trkpt><trkpt lat="42.6480763072278" lon="12.22506176379611"><ele>126.0</ele><time>2026-05-01T14:27:10Z</time></trkpt><trkpt lat="42.64778389572664" lon="12.225263931462973"><ele>125.0</ele><time>2026-05-01T14:27:11Z</time></trkpt><trkpt lat="42.647488999104766" lon="12.225466647281857"><ele>124.5</ele><time>2026-05-01T14:27:12Z</time></trkpt><trkpt lat="42.647191729391736" lon="12.22566957769735"><ele>124.0</ele><time>2026-05-01T14:27:13Z</time></trkpt><trkpt lat="42.64689427270816" lon="12.225872129557803"><ele>124.0</ele><time>2026-05-01T14:27:14Z</time></trkpt><trkpt lat="42.64659510704996" lon="12.22606794425061"><ele>124.0</ele><time>2026-05-01T14:27:15Z</time></trkpt><trkpt lat="42.64629121201201" lon="12.226248777464717"><ele>123.0</ele><time>2026-05-01T14:27:16Z</time></trkpt><trkpt lat="42.64598345588386" lon="12.226413163061407"><ele>122.0</ele><time>2026-05-01T14:27:17Z</time></trkpt><trkpt lat="42.645671519186074" lon="12.226557809054077"><ele>122.0</ele><time>2026-05-01T14:27:18Z</time></trkpt><trkpt lat="42.64535794680863" lon="12.226688270565816"><ele>122.0</ele><time>2026-05-01T14:27:19Z</time></trkpt><trkpt lat="42.645041972725735" lon="12.226806769127828"><ele>120.0</ele><time>2026-05-01T14:27:20Z</time></trkpt><trkpt lat="42.644726098592706" lon="12.226908995914181"><ele>118.0</ele><time>2026-05-01T14:27:21Z</time></trkpt><trkpt lat="42.64440613698595" lon="12.226993629026277"><ele>117.0</ele><time>2026-05-01T14:27:22Z</time></trkpt><trkpt lat="42.64408517531393" lon="12.227065162282353"><ele>116.0</ele><time>2026-05-01T14:27:23Z</time></trkpt><trkpt lat="42.64376405976754" lon="12.227125967419605"><ele>115.5</ele><time>2026-05-01T14:27:24Z</time></trkpt><trkpt lat="42.64343699037347" lon="12.227188164237388"><ele>115.0</ele><time>2026-05-01T14:27:25Z</time></trkpt><trkpt lat="42.64310498287508" lon="12.227251941224523"><ele>114.0</ele><time>2026-05-01T14:27:26Z</time></trkpt><trkpt lat="42.64277156900672" lon="12.22731753000934"><ele>113.0</ele><time>2026-05-01T14:27:27Z</time></trkpt><trkpt lat="42.64243642794824" lon="12.227383117096643"><ele>113.0</ele><time>2026-05-01T14:27:28Z</time></trkpt><trkpt lat="42.642101761000106" lon="12.227448877149737"><ele>113.0</ele><time>2026-05-01T14:27:29Z</time></trkpt><trkpt lat="42.641766789416835" lon="12.227514437081359"><ele>112.5</ele><time>2026-05-01T14:27:29.999Z</time></trkpt><trkpt lat="42.641429957977444" lon="12.227580235258696"><ele>112.0</ele><time>2026-05-01T14:27:30.999Z</time></trkpt><trkpt lat="42.64109366669788" lon="12.227645512243988"><ele>111.0</ele><time>2026-05-01T14:27:31.999Z</time></trkpt><trkpt lat="42.64075720394014" lon="12.227712896711399"><ele>110.0</ele><time>2026-05-01T14:27:32.999Z</time></trkpt><trkpt lat="42.640421748969054" lon="12.22778038065233"><ele>111.0</ele><time>2026-05-01T14:27:33.999Z</time></trkpt><trkpt lat="42.64008524467026" lon="12.227848785999374"><ele>112.0</ele><time>2026-05-01T14:27:34.999Z</time></trkpt><trkpt lat="42.63974784191569" lon="12.22791561523793"><ele>114.0</ele><time>2026-05-01T14:27:35.999Z</time></trkpt><trkpt lat="42.639409302141146" lon="12.227982936908676"><ele>116.0</ele><time>2026-05-01T14:27:36.999Z</time></trkpt><trkpt lat="42.63907189268487" lon="12.228048063409574"><ele>116.0</ele><time>2026-05-01T14:27:37.999Z</time></trkpt><trkpt lat="42.63873555549773" lon="12.22811285400851"><ele>116.0</ele><time>2026-05-01T14:27:38.999Z</time></trkpt><trkpt lat="42.63839836305007" lon="12.228179601376713"><ele>115.0</ele><time>2026-05-01T14:27:39.999Z</time></trkpt><trkpt lat="42.638061665635625" lon="12.22825017880332"><ele>114.0</ele><time>2026-05-01T14:27:40.999Z</time></trkpt><trkpt lat="42.63773839075477" lon="12.228319666787904"><ele>113.0</ele><time>2026-05-01T14:27:41.999Z</time></trkpt><trkpt lat="42.63742226043295" lon="12.228386143117376"><ele>112.0</ele><time>2026-05-01T14:27:42.999Z</time></trkpt><trkpt lat="42.63710305589498" lon="12.228449979499818"><ele>111.0</ele><time>2026-05-01T14:27:43.999Z</time></trkpt><trkpt lat="42.636781895903084" lon="12.228511562753821"><ele>110.0</ele><time>2026-05-01T14:27:44.999Z</time></trkpt><trkpt lat="42.63646421115043" lon="12.22857556588954"><ele>110.0</ele><time>2026-05-01T14:27:45.999Z</time></trkpt><trkpt lat="42.636152787620546" lon="12.228639142380029"><ele>110.0</ele><time>2026-05-01T14:27:46.999Z</time></trkpt><trkpt lat="42.635843686292645" lon="12.228702175947053"><ele>108.0</ele><time>2026-05-01T14:27:47.999Z</time></trkpt><trkpt lat="42.635535193553125" lon="12.22876363739973"><ele>106.0</ele><time>2026-05-01T14:27:48.999Z</time></trkpt><trkpt lat="42.63522718097497" lon="12.228822583462746"><ele>106.0</ele><time>2026-05-01T14:27:49.999Z</time></trkpt><trkpt lat="42.63492006763415" lon="12.228882628484337"><ele>106.0</ele><time>2026-05-01T14:27:50.999Z</time></trkpt><trkpt lat="42.634612000732105" lon="12.22894476196066"><ele>105.0</ele><time>2026-05-01T14:27:51.999Z</time></trkpt><trkpt lat="42.63430296621701" lon="12.2290053260666"><ele>104.0</ele><time>2026-05-01T14:27:52.999Z</time></trkpt><trkpt lat="42.633981957934836" lon="12.229068878944522"><ele>104.0</ele><time>2026-05-01T14:27:53.999Z</time></trkpt><trkpt lat="42.63365634344609" lon="12.229131491217437"><ele>104.0</ele><time>2026-05-01T14:27:54.999Z</time></trkpt><trkpt lat="42.63332616115883" lon="12.229198126043107"><ele>103.5</ele><time>2026-05-01T14:27:55.999Z</time></trkpt><trkpt lat="42.632995340334794" lon="12.229265317587576"><ele>103.0</ele><time>2026-05-01T14:27:56.999Z</time></trkpt><trkpt lat="42.632663354416955" lon="12.229331422385044"><ele>100.5</ele><time>2026-05-01T14:27:57.999Z</time></trkpt><trkpt lat="42.63233118792923" lon="12.229398966786606"><ele>98.0</ele><time>2026-05-01T14:27:58.999Z</time></trkpt><trkpt lat="42.631998549595735" lon="12.229466534576519"><ele>97.0</ele><time>2026-05-01T14:27:59.999Z</time></trkpt><trkpt lat="42.631665515171555" lon="12.229533065526832"><ele>96.0</ele><time>2026-05-01T14:28:00.999Z</time></trkpt><trkpt lat="42.63133102312849" lon="12.229597708644349"><ele>97.5</ele><time>2026-05-01T14:28:01.999Z</time></trkpt><trkpt lat="42.6309945352162" lon="12.229664176264828"><ele>99.0</ele><time>2026-05-01T14:28:02.999Z</time></trkpt><trkpt lat="42.630656324770364" lon="12.229729230118707"><ele>99.0</ele><time>2026-05-01T14:28:03.999Z</time></trkpt><trkpt lat="42.63031916722654" lon="12.229796547332743"><ele>99.0</ele><time>2026-05-01T14:28:04.999Z</time></trkpt><trkpt lat="42.629982687780576" lon="12.229863080540062"><ele>98.5</ele><time>2026-05-01T14:28:05.999Z</time></trkpt><trkpt lat="42.62964616395785" lon="12.229929220225143"><ele>98.0</ele><time>2026-05-01T14:28:06.999Z</time></trkpt><trkpt lat="42.62930982786629" lon="12.229992266363032"><ele>98.0</ele><time>2026-05-01T14:28:07.999Z</time></trkpt><trkpt lat="42.62897210075032" lon="12.23005458963812"><ele>98.0</ele><time>2026-05-01T14:28:08.999Z</time></trkpt><trkpt lat="42.62863532181129" lon="12.230116490442908"><ele>97.5</ele><time>2026-05-01T14:28:09.999Z</time></trkpt><trkpt lat="42.628299265480905" lon="12.230181624410205"><ele>97.0</ele><time>2026-05-01T14:28:10.999Z</time></trkpt><trkpt lat="42.627962530687874" lon="12.230246105299239"><ele>98.0</ele><time>2026-05-01T14:28:11.999Z</time></trkpt><trkpt lat="42.62762624322087" lon="12.230308217654509"><ele>99.0</ele><time>2026-05-01T14:28:12.999Z</time></trkpt><trkpt lat="42.6272932035447" lon="12.230367696067743"><ele>98.0</ele><time>2026-05-01T14:28:13.999Z</time></trkpt><trkpt lat="42.62696259239858" lon="12.23042599556519"><ele>97.0</ele><time>2026-05-01T14:28:14.999Z</time></trkpt><trkpt lat="42.626633973928605" lon="12.23048408831506"><ele>97.0</ele><time>2026-05-01T14:28:15.999Z</time></trkpt><trkpt lat="42.626309650248025" lon="12.230544020531097"><ele>97.0</ele><time>2026-05-01T14:28:16.999Z</time></trkpt><trkpt lat="42.62598842970585" lon="12.230606029283301"><ele>96.5</ele><time>2026-05-01T14:28:17.999Z</time></trkpt><trkpt lat="42.62567219269454" lon="12.230669367547428"><ele>96.0</ele><time>2026-05-01T14:28:18.999Z</time></trkpt><trkpt lat="42.62535490439649" lon="12.230735208949712"><ele>96.0</ele><time>2026-05-01T14:28:19.999Z</time></trkpt><trkpt lat="42.62503904492999" lon="12.230800985354842"><ele>96.0</ele><time>2026-05-01T14:28:20.999Z</time></trkpt><trkpt lat="42.62472272082647" lon="12.230865973675334"><ele>95.5</ele><time>2026-05-01T14:28:21.999Z</time></trkpt><trkpt lat="42.624409080554095" lon="12.230927227121267"><ele>95.0</ele><time>2026-05-01T14:28:22.999Z</time></trkpt><trkpt lat="42.624091823746305" lon="12.230987513760015"><ele>95.0</ele><time>2026-05-01T14:28:23.999Z</time></trkpt><trkpt lat="42.62377282326079" lon="12.231051950730972"><ele>95.0</ele><time>2026-05-01T14:28:24.999Z</time></trkpt><trkpt lat="42.62345264908259" lon="12.23111956970412"><ele>95.0</ele><time>2026-05-01T14:28:25.999Z</time></trkpt><trkpt lat="42.623129429966674" lon="12.231189001209843"><ele>95.0</ele><time>2026-05-01T14:28:26.999Z</time></trkpt><trkpt lat="42.62280586265969" lon="12.231257124052103"><ele>94.5</ele><time>2026-05-01T14:28:27.999Z</time></trkpt><trkpt lat="42.62248196890217" lon="12.231323439113682"><ele>94.0</ele><time>2026-05-01T14:28:28.999Z</time></trkpt><trkpt lat="42.6221557464103" lon="12.231388912023903"><ele>94.0</ele><time>2026-05-01T14:28:29.999Z</time></trkpt><trkpt lat="42.62182736009457" lon="12.231452649968992"><ele>94.0</ele><time>2026-05-01T14:28:30.999Z</time></trkpt><trkpt lat="42.62149695485301" lon="12.231516995701044"><ele>94.0</ele><time>2026-05-01T14:28:31.999Z</time></trkpt><trkpt lat="42.62116462964067" lon="12.231582014206529"><ele>94.0</ele><time>2026-05-01T14:28:32.999Z</time></trkpt><trkpt lat="42.620833980363535" lon="12.231648452808109"><ele>94.0</ele><time>2026-05-01T14:28:33.999Z</time></trkpt><trkpt lat="42.6205031345795" lon="12.231713554757151"><ele>94.0</ele><time>2026-05-01T14:28:34.999Z</time></trkpt><trkpt lat="42.620171755765035" lon="12.231777576490776"><ele>94.0</ele><time>2026-05-01T14:28:35.999Z</time></trkpt><trkpt lat="42.619840462347135" lon="12.231843577691924"><ele>94.0</ele><time>2026-05-01T14:28:36.999Z</time></trkpt><trkpt lat="42.61951004832925" lon="12.23190966281611"><ele>94.5</ele><time>2026-05-01T14:28:37.999Z</time></trkpt><trkpt lat="42.61918091191516" lon="12.231976225907461"><ele>95.0</ele><time>2026-05-01T14:28:38.999Z</time></trkpt><trkpt lat="42.61885027210592" lon="12.232043445128808"><ele>95.0</ele><time>2026-05-01T14:28:39.999Z</time></trkpt><trkpt lat="42.61852026588848" lon="12.232108729124866"><ele>95.0</ele><time>2026-05-01T14:28:40.999Z</time></trkpt><trkpt lat="42.61818950981682" lon="12.232172660408352"><ele>95.0</ele><time>2026-05-01T14:28:41.999Z</time></trkpt><trkpt lat="42.61785881108112" lon="12.23223536054073"><ele>95.0</ele><time>2026-05-01T14:28:42.999Z</time></trkpt><trkpt lat="42.61752915179059" lon="12.232296657511538"><ele>93.5</ele><time>2026-05-01T14:28:43.999Z</time></trkpt><trkpt lat="42.61720069730313" lon="12.232360057522357"><ele>92.0</ele><time>2026-05-01T14:28:44.999Z</time></trkpt><trkpt lat="42.61687288698459" lon="12.232425303703817"><ele>90.5</ele><time>2026-05-01T14:28:45.999Z</time></trkpt><trkpt lat="42.61654636432052" lon="12.232491948116376"><ele>89.0</ele><time>2026-05-01T14:28:46.999Z</time></trkpt><trkpt lat="42.61622102268248" lon="12.23256007785498"><ele>86.5</ele><time>2026-05-01T14:28:47.999Z</time></trkpt><trkpt lat="42.61589430698289" lon="12.2326298332197"><ele>84.0</ele><time>2026-05-01T14:28:48.999Z</time></trkpt><trkpt lat="42.61556622570418" lon="12.232699109290918"><ele>82.5</ele><time>2026-05-01T14:28:49.999Z</time></trkpt><trkpt lat="42.615236207720166" lon="12.232766047057885"><ele>81.0</ele><time>2026-05-01T14:28:50.999Z</time></trkpt><trkpt lat="42.61490715237737" lon="12.232829926137175"><ele>81.0</ele><time>2026-05-01T14:28:51.998Z</time></trkpt><trkpt lat="42.61457736749747" lon="12.232893285670679"><ele>81.0</ele><time>2026-05-01T14:28:52.998Z</time></trkpt><trkpt lat="42.61424856457735" lon="12.232957240386325"><ele>80.5</ele><time>2026-05-01T14:28:53.998Z</time></trkpt><trkpt lat="42.61391992341952" lon="12.233021636472344"><ele>80.0</ele><time>2026-05-01T14:28:54.998Z</time></trkpt><trkpt lat="42.61359122050933" lon="12.233087075510934"><ele>78.5</ele><time>2026-05-01T14:28:55.998Z</time></trkpt><trkpt lat="42.61326198954198" lon="12.233152337248363"><ele>77.0</ele><time>2026-05-01T14:28:56.998Z</time></trkpt><trkpt lat="42.61293170239094" lon="12.23321848329447"><ele>78.0</ele><time>2026-05-01T14:28:57.998Z</time></trkpt><trkpt lat="42.612602504660174" lon="12.233282858199372"><ele>79.0</ele><time>2026-05-01T14:28:59Z</time></trkpt><trkpt lat="42.61227274543171" lon="12.233344636574916"><ele>79.0</ele><time>2026-05-01T14:29:00Z</time></trkpt><trkpt lat="42.611944693697254" lon="12.233406659543492"><ele>79.0</ele><time>2026-05-01T14:29:01Z</time></trkpt><trkpt lat="42.611615862162274" lon="12.233471383717681"><ele>79.0</ele><time>2026-05-01T14:29:02Z</time></trkpt><trkpt lat="42.61128752464979" lon="12.23353889156549"><ele>79.0</ele><time>2026-05-01T14:29:03Z</time></trkpt><trkpt lat="42.61095768117682" lon="12.233607194372565"><ele>78.5</ele><time>2026-05-01T14:29:04Z</time></trkpt><trkpt lat="42.6106267283237" lon="12.233676956135938"><ele>78.0</ele><time>2026-05-01T14:29:05Z</time></trkpt><trkpt lat="42.61029558471326" lon="12.233744687597262"><ele>78.0</ele><time>2026-05-01T14:29:06Z</time></trkpt><trkpt lat="42.60996377472532" lon="12.23380928508573"><ele>78.0</ele><time>2026-05-01T14:29:07Z</time></trkpt><trkpt lat="42.60963427554765" lon="12.233873789711971"><ele>78.5</ele><time>2026-05-01T14:29:08Z</time></trkpt><trkpt lat="42.60930358322956" lon="12.233939826558005"><ele>79.0</ele><time>2026-05-01T14:29:09Z</time></trkpt><trkpt lat="42.60897350378801" lon="12.23400498713674"><ele>78.5</ele><time>2026-05-01T14:29:10Z</time></trkpt><trkpt lat="42.608643322759534" lon="12.234070028608931"><ele>78.0</ele><time>2026-05-01T14:29:11Z</time></trkpt><trkpt lat="42.60831278732005" lon="12.234134264678891"><ele>78.0</ele><time>2026-05-01T14:29:12Z</time></trkpt><trkpt lat="42.60798410728063" lon="12.23419712273767"><ele>78.0</ele><time>2026-05-01T14:29:13Z</time></trkpt><trkpt lat="42.60765498175867" lon="12.234261772125048"><ele>79.0</ele><time>2026-05-01T14:29:14Z</time></trkpt><trkpt lat="42.60732524895457" lon="12.234328274931345"><ele>80.0</ele><time>2026-05-01T14:29:15Z</time></trkpt><trkpt lat="42.60699418727362" lon="12.234396215411085"><ele>80.0</ele><time>2026-05-01T14:29:16Z</time></trkpt><trkpt lat="42.6066645300853" lon="12.23446309791596"><ele>80.0</ele><time>2026-05-01T14:29:17Z</time></trkpt><trkpt lat="42.60633594726618" lon="12.234528868533008"><ele>80.5</ele><time>2026-05-01T14:29:18Z</time></trkpt><trkpt lat="42.60600656046539" lon="12.234593594888354"><ele>81.0</ele><time>2026-05-01T14:29:18.999Z</time></trkpt><trkpt lat="42.60567547703791" lon="12.23466131327043"><ele>81.0</ele><time>2026-05-01T14:29:19.999Z</time></trkpt><trkpt lat="42.605342684075715" lon="12.234729316749084"><ele>81.0</ele><time>2026-05-01T14:29:20.999Z</time></trkpt><trkpt lat="42.60501042745122" lon="12.234795594503149"><ele>80.5</ele><time>2026-05-01T14:29:21.999Z</time></trkpt><trkpt lat="42.60468031957964" lon="12.234860934915757"><ele>80.0</ele><time>2026-05-01T14:29:22.999Z</time></trkpt><trkpt lat="42.60435047246144" lon="12.234925762663144"><ele>80.0</ele><time>2026-05-01T14:29:23.999Z</time></trkpt><trkpt lat="42.60402177118128" lon="12.234991101231422"><ele>80.0</ele><time>2026-05-01T14:29:24.999Z</time></trkpt><trkpt lat="42.60369246788184" lon="12.235056852231168"><ele>79.0</ele><time>2026-05-01T14:29:25.999Z</time></trkpt><trkpt lat="42.603364381390534" lon="12.235121778003101"><ele>78.0</ele><time>2026-05-01T14:29:26.999Z</time></trkpt><trkpt lat="42.60303569142865" lon="12.235186452639839"><ele>77.0</ele><time>2026-05-01T14:29:27.999Z</time></trkpt><trkpt lat="42.60270680332343" lon="12.235251343946807"><ele>76.0</ele><time>2026-05-01T14:29:28.999Z</time></trkpt><trkpt lat="42.602377139153965" lon="12.235317275859805"><ele>76.0</ele><time>2026-05-01T14:29:29.999Z</time></trkpt><trkpt lat="42.60205100749976" lon="12.235383151032453"><ele>76.0</ele><time>2026-05-01T14:29:30.999Z</time></trkpt><trkpt lat="42.6017276379491" lon="12.235448790028842"><ele>77.0</ele><time>2026-05-01T14:29:31.999Z</time></trkpt><trkpt lat="42.60140394234505" lon="12.235513810183024"><ele>78.0</ele><time>2026-05-01T14:29:32.999Z</time></trkpt><trkpt lat="42.60107834008797" lon="12.235580716485789"><ele>78.5</ele><time>2026-05-01T14:29:33.999Z</time></trkpt><trkpt lat="42.600751289330006" lon="12.235648446189524"><ele>79.0</ele><time>2026-05-01T14:29:34.999Z</time></trkpt><trkpt lat="42.600419791664464" lon="12.235714491476186"><ele>78.5</ele><time>2026-05-01T14:29:35.999Z</time></trkpt><trkpt lat="42.60008704972046" lon="12.235781083392148"><ele>78.0</ele><time>2026-05-01T14:29:36.999Z</time></trkpt><trkpt lat="42.59975498810045" lon="12.235846511942881"><ele>77.5</ele><time>2026-05-01T14:29:37.999Z</time></trkpt><trkpt lat="42.59942142420687" lon="12.235909290975538"><ele>77.0</ele><time>2026-05-01T14:29:38.999Z</time></trkpt><trkpt lat="42.59908982183855" lon="12.2359713877879"><ele>77.0</ele><time>2026-05-01T14:29:39.999Z</time></trkpt><trkpt lat="42.59875603827728" lon="12.236035399694787"><ele>77.0</ele><time>2026-05-01T14:29:40.999Z</time></trkpt><trkpt lat="42.59842263741367" lon="12.236100914793264"><ele>78.0</ele><time>2026-05-01T14:29:41.999Z</time></trkpt><trkpt lat="42.59809028384048" lon="12.236166693459555"><ele>79.0</ele><time>2026-05-01T14:29:42.999Z</time></trkpt><trkpt lat="42.59775820976072" lon="12.236232532857477"><ele>79.5</ele><time>2026-05-01T14:29:43.999Z</time></trkpt><trkpt lat="42.59742551613768" lon="12.236298864625377"><ele>80.0</ele><time>2026-05-01T14:29:44.999Z</time></trkpt><trkpt lat="42.59709217384821" lon="12.236364344677552"><ele>79.0</ele><time>2026-05-01T14:29:45.999Z</time></trkpt><trkpt lat="42.5967616247314" lon="12.23643019408016"><ele>78.0</ele><time>2026-05-01T14:29:46.999Z</time></trkpt><trkpt lat="42.596432259385125" lon="12.23649577347186"><ele>77.0</ele><time>2026-05-01T14:29:47.999Z</time></trkpt><trkpt lat="42.59610463022994" lon="12.236561929904031"><ele>76.0</ele><time>2026-05-01T14:29:48.999Z</time></trkpt><trkpt lat="42.595776507727194" lon="12.23662850286682"><ele>76.0</ele><time>2026-05-01T14:29:49.999Z</time></trkpt><trkpt lat="42.59545007671024" lon="12.236697909150335"><ele>76.0</ele><time>2026-05-01T14:29:50.999Z</time></trkpt><trkpt lat="42.595124130793955" lon="12.236766393324704"><ele>76.0</ele><time>2026-05-01T14:29:51.999Z</time></trkpt><trkpt lat="42.59479640187992" lon="12.236831527062648"><ele>76.0</ele><time>2026-05-01T14:29:52.999Z</time></trkpt><trkpt lat="42.594467139761804" lon="12.23689621001632"><ele>76.0</ele><time>2026-05-01T14:29:53.999Z</time></trkpt><trkpt lat="42.59414008112348" lon="12.236962641070233"><ele>76.0</ele><time>2026-05-01T14:29:54.999Z</time></trkpt><trkpt lat="42.59381121188728" lon="12.237030522276871"><ele>76.5</ele><time>2026-05-01T14:29:55.999Z</time></trkpt><trkpt lat="42.59348241432198" lon="12.23709338434329"><ele>77.0</ele><time>2026-05-01T14:29:56.999Z</time></trkpt><trkpt lat="42.5931536349953" lon="12.237155680299146"><ele>79.0</ele><time>2026-05-01T14:29:57.999Z</time></trkpt><trkpt lat="42.59282584705552" lon="12.237219933442189"><ele>81.0</ele><time>2026-05-01T14:29:58.999Z</time></trkpt><trkpt lat="42.59249834481556" lon="12.237287137842328"><ele>80.0</ele><time>2026-05-01T14:29:59.999Z</time></trkpt><trkpt lat="42.59217183323568" lon="12.237357780839796"><ele>79.0</ele><time>2026-05-01T14:30:00.999Z</time></trkpt><trkpt lat="42.59184463040579" lon="12.237439265011307"><ele>78.5</ele><time>2026-05-01T14:30:01.999Z</time></trkpt><trkpt lat="42.591520295643555" lon="12.237527015972493"><ele>78.0</ele><time>2026-05-01T14:30:02.999Z</time></trkpt><trkpt lat="42.59119857598677" lon="12.237623197914337"><ele>78.5</ele><time>2026-05-01T14:30:03.999Z</time></trkpt><trkpt lat="42.59087921511485" lon="12.237728965405102"><ele>79.0</ele><time>2026-05-01T14:30:04.999Z</time></trkpt><trkpt lat="42.59056116237092" lon="12.237841891725779"><ele>80.0</ele><time>2026-05-01T14:30:05.999Z</time></trkpt><trkpt lat="42.59024676477811" lon="12.237964491094017"><ele>81.0</ele><time>2026-05-01T14:30:06.999Z</time></trkpt><trkpt lat="42.589934320465396" lon="12.238095253137423"><ele>80.0</ele><time>2026-05-01T14:30:07.999Z</time></trkpt><trkpt lat="42.589622789090576" lon="12.238235892441141"><ele>79.0</ele><time>2026-05-01T14:30:08.999Z</time></trkpt><trkpt lat="42.589309757587586" lon="12.238379331724031"><ele>79.0</ele><time>2026-05-01T14:30:09.999Z</time></trkpt><trkpt lat="42.58899726417993" lon="12.238526808118287"><ele>79.0</ele><time>2026-05-01T14:30:10.999Z</time></trkpt><trkpt lat="42.588679973987155" lon="12.238679419555398"><ele>79.0</ele><time>2026-05-01T14:30:11.999Z</time></trkpt><trkpt lat="42.58836340731019" lon="12.238830670227799"><ele>79.0</ele><time>2026-05-01T14:30:12.999Z</time></trkpt><trkpt lat="42.58804588394501" lon="12.238983453872354"><ele>78.0</ele><time>2026-05-01T14:30:13.999Z</time></trkpt><trkpt lat="42.587725642097425" lon="12.239137410010164"><ele>77.0</ele><time>2026-05-01T14:30:14.999Z</time></trkpt><trkpt lat="42.58740609083069" lon="12.239286921787466"><ele>77.0</ele><time>2026-05-01T14:30:15.999Z</time></trkpt><trkpt lat="42.58708499366645" lon="12.239438231468725"><ele>77.0</ele><time>2026-05-01T14:30:16.999Z</time></trkpt><trkpt lat="42.58676486180835" lon="12.239589195521262"><ele>76.5</ele><time>2026-05-01T14:30:17.999Z</time></trkpt><trkpt lat="42.58644417735701" lon="12.239738620298564"><ele>76.0</ele><time>2026-05-01T14:30:18.999Z</time></trkpt><trkpt lat="42.586125249622704" lon="12.239887580835873"><ele>75.5</ele><time>2026-05-01T14:30:19.999Z</time></trkpt><trkpt lat="42.58580751957402" lon="12.24003386394259"><ele>75.0</ele><time>2026-05-01T14:30:20.999Z</time></trkpt><trkpt lat="42.5854908924897" lon="12.240181891703973"><ele>75.0</ele><time>2026-05-01T14:30:21.999Z</time></trkpt><trkpt lat="42.58517661916358" lon="12.24033000436845"><ele>75.0</ele><time>2026-05-01T14:30:22.999Z</time></trkpt><trkpt lat="42.58486205695739" lon="12.240477932858855"><ele>75.0</ele><time>2026-05-01T14:30:23.999Z</time></trkpt><trkpt lat="42.584550901242416" lon="12.240623799732928"><ele>75.0</ele><time>2026-05-01T14:30:24.999Z</time></trkpt><trkpt lat="42.58423976971395" lon="12.240765865939334"><ele>75.0</ele><time>2026-05-01T14:30:25.999Z</time></trkpt><trkpt lat="42.58392758385991" lon="12.240906628968832"><ele>75.0</ele><time>2026-05-01T14:30:26.999Z</time></trkpt><trkpt lat="42.58361292173318" lon="12.241049453525324"><ele>75.0</ele><time>2026-05-01T14:30:27.999Z</time></trkpt><trkpt lat="42.58330006239218" lon="12.241195985949782"><ele>75.0</ele><time>2026-05-01T14:30:28.999Z</time></trkpt><trkpt lat="42.582988205448856" lon="12.241341436779194"><ele>75.0</ele><time>2026-05-01T14:30:29.999Z</time></trkpt><trkpt lat="42.58267613181153" lon="12.241487379399041"><ele>75.0</ele><time>2026-05-01T14:30:30.998Z</time></trkpt><trkpt lat="42.582364503515755" lon="12.24163255730469"><ele>75.0</ele><time>2026-05-01T14:30:31.998Z</time></trkpt><trkpt lat="42.58205292569532" lon="12.241777012593733"><ele>75.0</ele><time>2026-05-01T14:30:32.998Z</time></trkpt><trkpt lat="42.581740065397454" lon="12.24192103416427"><ele>74.0</ele><time>2026-05-01T14:30:33.998Z</time></trkpt><trkpt lat="42.58142737960909" lon="12.242064901917889"><ele>73.0</ele><time>2026-05-01T14:30:34.998Z</time></trkpt><trkpt lat="42.58111468177142" lon="12.242209248201453"><ele>72.5</ele><time>2026-05-01T14:30:35.998Z</time></trkpt><trkpt lat="42.580804070473974" lon="12.242354513301224"><ele>72.0</ele><time>2026-05-01T14:30:36.998Z</time></trkpt><trkpt lat="42.58049446760572" lon="12.2425011552829"><ele>72.0</ele><time>2026-05-01T14:30:37.998Z</time></trkpt><trkpt lat="42.58018131055015" lon="12.242645315095173"><ele>72.0</ele><time>2026-05-01T14:30:38.998Z</time></trkpt><trkpt lat="42.579864682268706" lon="12.242788863948272"><ele>72.0</ele><time>2026-05-01T14:30:39.998Z</time></trkpt><trkpt lat="42.579548174349384" lon="12.242931395598417"><ele>72.0</ele><time>2026-05-01T14:30:40.998Z</time></trkpt><trkpt lat="42.579229975787335" lon="12.243075047244238"><ele>72.0</ele><time>2026-05-01T14:30:41.998Z</time></trkpt><trkpt lat="42.57891118225399" lon="12.243219926775174"><ele>72.0</ele><time>2026-05-01T14:30:42.998Z</time></trkpt><trkpt lat="42.5785947934656" lon="12.243364708641563"><ele>73.0</ele><time>2026-05-01T14:30:43.998Z</time></trkpt><trkpt lat="42.57827717392003" lon="12.243510015865219"><ele>74.0</ele><time>2026-05-01T14:30:44.998Z</time></trkpt><trkpt lat="42.57795988580723" lon="12.243655707849086"><ele>72.5</ele><time>2026-05-01T14:30:45.998Z</time></trkpt><trkpt lat="42.577643290066696" lon="12.243801784892371"><ele>71.0</ele><time>2026-05-01T14:30:46.998Z</time></trkpt><trkpt lat="42.57732835063616" lon="12.243946936260354"><ele>71.5</ele><time>2026-05-01T14:30:47.998Z</time></trkpt><trkpt lat="42.5770136666916" lon="12.244091222801655"><ele>72.0</ele><time>2026-05-01T14:30:48.998Z</time></trkpt><trkpt lat="42.576700124523235" lon="12.244235280334435"><ele>72.0</ele><time>2026-05-01T14:30:49.998Z</time></trkpt><trkpt lat="42.57638586987004" lon="12.244377984714777"><ele>72.0</ele><time>2026-05-01T14:30:50.998Z</time></trkpt><trkpt lat="42.576071736610245" lon="12.24451895864149"><ele>71.0</ele><time>2026-05-01T14:30:51.998Z</time></trkpt><trkpt lat="42.57575603279103" lon="12.244659815656686"><ele>70.0</ele><time>2026-05-01T14:30:52.998Z</time></trkpt><trkpt lat="42.5754410733407" lon="12.244801626144156"><ele>70.5</ele><time>2026-05-01T14:30:53.998Z</time></trkpt><trkpt lat="42.575126140622906" lon="12.244944404093037"><ele>71.0</ele><time>2026-05-01T14:30:54.998Z</time></trkpt><trkpt lat="42.574808981697494" lon="12.245089933134842"><ele>70.0</ele><time>2026-05-01T14:30:55.998Z</time></trkpt><trkpt lat="42.57449429542612" lon="12.245236141616324"><ele>69.0</ele><time>2026-05-01T14:30:56.998Z</time></trkpt><trkpt lat="42.574179429337725" lon="12.245381764323117"><ele>69.0</ele><time>2026-05-01T14:30:57.998Z</time></trkpt><trkpt lat="42.57386299421399" lon="12.24552429303695"><ele>69.0</ele><time>2026-05-01T14:30:58.998Z</time></trkpt><trkpt lat="42.573548495001255" lon="12.245665842716015"><ele>69.5</ele><time>2026-05-01T14:30:59.998Z</time></trkpt><trkpt lat="42.57323405699343" lon="12.245808801171126"><ele>70.0</ele><time>2026-05-01T14:31:00.998Z</time></trkpt><trkpt lat="42.572921076297376" lon="12.24595481274331"><ele>68.5</ele><time>2026-05-01T14:31:01.998Z</time></trkpt><trkpt lat="42.5726076077436" lon="12.24610383797441"><ele>67.0</ele><time>2026-05-01T14:31:02.998Z</time></trkpt><trkpt lat="42.57229358703119" lon="12.246253116017042"><ele>68.0</ele><time>2026-05-01T14:31:03.999Z</time></trkpt><trkpt lat="42.57197734344561" lon="12.24640222620496"><ele>69.0</ele><time>2026-05-01T14:31:04.999Z</time></trkpt><trkpt lat="42.57166009367908" lon="12.246549725845641"><ele>69.5</ele><time>2026-05-01T14:31:05.999Z</time></trkpt><trkpt lat="42.571341332839665" lon="12.246693549130311"><ele>70.0</ele><time>2026-05-01T14:31:06.999Z</time></trkpt><trkpt lat="42.57102201837185" lon="12.246840203524094"><ele>70.0</ele><time>2026-05-01T14:31:07.999Z</time></trkpt><trkpt lat="42.570702329453404" lon="12.246988221292542"><ele>70.0</ele><time>2026-05-01T14:31:08.999Z</time></trkpt><trkpt lat="42.57005877421111" lon="12.247280329141239"><ele>70.0</ele><time>2026-05-01T14:31:10.999Z</time></trkpt><trkpt lat="42.569737230206584" lon="12.247428326158305"><ele>70.0</ele><time>2026-05-01T14:31:11.999Z</time></trkpt><trkpt lat="42.569414789392304" lon="12.247576364010998"><ele>70.5</ele><time>2026-05-01T14:31:12.999Z</time></trkpt><trkpt lat="42.56909301282032" lon="12.247723241643717"><ele>71.0</ele><time>2026-05-01T14:31:14Z</time></trkpt><trkpt lat="42.56877066369221" lon="12.247869585485747"><ele>71.0</ele><time>2026-05-01T14:31:15Z</time></trkpt><trkpt lat="42.56844739674817" lon="12.24801599088913"><ele>71.0</ele><time>2026-05-01T14:31:16Z</time></trkpt><trkpt lat="42.56780611701192" lon="12.248313853925165"><ele>71.5</ele><time>2026-05-01T14:31:18Z</time></trkpt><trkpt lat="42.56748770681774" lon="12.248461936950779"><ele>72.0</ele><time>2026-05-01T14:31:19Z</time></trkpt><trkpt lat="42.567168485019856" lon="12.248607298942991"><ele>70.5</ele><time>2026-05-01T14:31:20Z</time></trkpt><trkpt lat="42.566851341082256" lon="12.248753266661536"><ele>69.0</ele><time>2026-05-01T14:31:21Z</time></trkpt><trkpt lat="42.56653621252614" lon="12.248901108708514"><ele>69.5</ele><time>2026-05-01T14:31:22Z</time></trkpt><trkpt lat="42.56622042733583" lon="12.249049294586337"><ele>70.0</ele><time>2026-05-01T14:31:23Z</time></trkpt><trkpt lat="42.56590758890724" lon="12.249197584289952"><ele>70.5</ele><time>2026-05-01T14:31:24Z</time></trkpt><trkpt lat="42.56559440303631" lon="12.249346574412474"><ele>71.0</ele><time>2026-05-01T14:31:24.999Z</time></trkpt><trkpt lat="42.56528201407855" lon="12.249494203730155"><ele>70.0</ele><time>2026-05-01T14:31:25.999Z</time></trkpt><trkpt lat="42.564968838333" lon="12.249638693169254"><ele>69.0</ele><time>2026-05-01T14:31:26.999Z</time></trkpt><trkpt lat="42.56465450210192" lon="12.249781268486139"><ele>69.5</ele><time>2026-05-01T14:31:27.999Z</time></trkpt><trkpt lat="42.56433909303667" lon="12.249923558289558"><ele>70.0</ele><time>2026-05-01T14:31:28.999Z</time></trkpt><trkpt lat="42.56402417708752" lon="12.250068394264993"><ele>70.0</ele><time>2026-05-01T14:31:29.999Z</time></trkpt><trkpt lat="42.563709098825534" lon="12.250217071413122"><ele>70.0</ele><time>2026-05-01T14:31:30.999Z</time></trkpt><trkpt lat="42.56339316484855" lon="12.250368793568953"><ele>70.5</ele><time>2026-05-01T14:31:31.999Z</time></trkpt><trkpt lat="42.56307891774313" lon="12.250518736463167"><ele>71.0</ele><time>2026-05-01T14:31:32.999Z</time></trkpt><trkpt lat="42.56276431784049" lon="12.250667269895233"><ele>70.0</ele><time>2026-05-01T14:31:33.999Z</time></trkpt><trkpt lat="42.56244936332197" lon="12.250815949965238"><ele>69.0</ele><time>2026-05-01T14:31:34.999Z</time></trkpt><trkpt lat="42.56213277995253" lon="12.250966243327996"><ele>69.0</ele><time>2026-05-01T14:31:35.999Z</time></trkpt><trkpt lat="42.56181715994757" lon="12.251115852486691"><ele>69.0</ele><time>2026-05-01T14:31:36.999Z</time></trkpt><trkpt lat="42.56150438072243" lon="12.25126484937161"><ele>69.0</ele><time>2026-05-01T14:31:37.999Z</time></trkpt><trkpt lat="42.5611915881843" lon="12.251413064274521"><ele>69.0</ele><time>2026-05-01T14:31:38.999Z</time></trkpt><trkpt lat="42.56088111094809" lon="12.251558976574787"><ele>69.0</ele><time>2026-05-01T14:31:39.999Z</time></trkpt><trkpt lat="42.560574180869345" lon="12.251704312471533"><ele>69.0</ele><time>2026-05-01T14:31:40.999Z</time></trkpt><trkpt lat="42.56026779130605" lon="12.25184828408382"><ele>69.0</ele><time>2026-05-01T14:31:41.999Z</time></trkpt><trkpt lat="42.559963686954134" lon="12.251990413168656"><ele>69.0</ele><time>2026-05-01T14:31:42.999Z</time></trkpt><trkpt lat="42.559660575944086" lon="12.252131065442853"><ele>68.5</ele><time>2026-05-01T14:31:43.999Z</time></trkpt><trkpt lat="42.55935667766988" lon="12.25227107614619"><ele>68.0</ele><time>2026-05-01T14:31:44.999Z</time></trkpt><trkpt lat="42.55905129931163" lon="12.252409422299769"><ele>68.0</ele><time>2026-05-01T14:31:45.999Z</time></trkpt><trkpt lat="42.558745541491206" lon="12.252548982976334"><ele>68.0</ele><time>2026-05-01T14:31:46.999Z</time></trkpt><trkpt lat="42.558440329901856" lon="12.252693096006947"><ele>68.0</ele><time>2026-05-01T14:31:47.999Z</time></trkpt><trkpt lat="42.558132689900035" lon="12.25283641396524"><ele>68.0</ele><time>2026-05-01T14:31:48.999Z</time></trkpt><trkpt lat="42.55782183575978" lon="12.252979983706906"><ele>67.5</ele><time>2026-05-01T14:31:49.999Z</time></trkpt><trkpt lat="42.55750982841694" lon="12.253123696042282"><ele>67.0</ele><time>2026-05-01T14:31:50.999Z</time></trkpt><trkpt lat="42.55719651095112" lon="12.253266307949847"><ele>67.5</ele><time>2026-05-01T14:31:51.999Z</time></trkpt><trkpt lat="42.55688098505882" lon="12.253408491487384"><ele>68.0</ele><time>2026-05-01T14:31:52.999Z</time></trkpt><trkpt lat="42.556563168774005" lon="12.253552250112131"><ele>68.0</ele><time>2026-05-01T14:31:53.999Z</time></trkpt><trkpt lat="42.55624613152806" lon="12.253697450309582"><ele>68.0</ele><time>2026-05-01T14:31:54.999Z</time></trkpt><trkpt lat="42.55593229071784" lon="12.253845341888102"><ele>68.5</ele><time>2026-05-01T14:31:55.999Z</time></trkpt><trkpt lat="42.555618738234934" lon="12.253992719238841"><ele>69.0</ele><time>2026-05-01T14:31:56.999Z</time></trkpt><trkpt lat="42.55530671056768" lon="12.254138944074878"><ele>69.0</ele><time>2026-05-01T14:31:57.999Z</time></trkpt><trkpt lat="42.554993104545" lon="12.254284537588678"><ele>69.0</ele><time>2026-05-01T14:31:58.999Z</time></trkpt><trkpt lat="42.554676309965615" lon="12.25442929080425"><ele>68.5</ele><time>2026-05-01T14:31:59.999Z</time></trkpt><trkpt lat="42.554362257951325" lon="12.25457234773977"><ele>68.0</ele><time>2026-05-01T14:32:00.999Z</time></trkpt><trkpt lat="42.55404690095176" lon="12.254713501261161"><ele>67.5</ele><time>2026-05-01T14:32:01.999Z</time></trkpt><trkpt lat="42.5537321892306" lon="12.254854143706293"><ele>67.0</ele><time>2026-05-01T14:32:02.999Z</time></trkpt><trkpt lat="42.55341782597652" lon="12.254994405035543"><ele>67.0</ele><time>2026-05-01T14:32:03.999Z</time></trkpt><trkpt lat="42.55310138672167" lon="12.255128355984969"><ele>67.0</ele><time>2026-05-01T14:32:04.999Z</time></trkpt><trkpt lat="42.552783387236865" lon="12.255255433352625"><ele>67.0</ele><time>2026-05-01T14:32:05.999Z</time></trkpt><trkpt lat="42.55246486528179" lon="12.255374554209414"><ele>67.0</ele><time>2026-05-01T14:32:06.999Z</time></trkpt><trkpt lat="42.55214425858425" lon="12.255489494443035"><ele>67.0</ele><time>2026-05-01T14:32:07.999Z</time></trkpt><trkpt lat="42.55182208915298" lon="12.255604091775329"><ele>67.0</ele><time>2026-05-01T14:32:08.999Z</time></trkpt><trkpt lat="42.551497313947166" lon="12.255717891782954"><ele>67.0</ele><time>2026-05-01T14:32:09.999Z</time></trkpt><trkpt lat="42.551170997967816" lon="12.255829326760216"><ele>67.0</ele><time>2026-05-01T14:32:10.999Z</time></trkpt><trkpt lat="42.55084271191058" lon="12.255937375872197"><ele>67.0</ele><time>2026-05-01T14:32:11.999Z</time></trkpt><trkpt lat="42.55051106666982" lon="12.256038338563512"><ele>67.0</ele><time>2026-05-01T14:32:12.999Z</time></trkpt><trkpt lat="42.55018167010493" lon="12.25613245242871"><ele>67.0</ele><time>2026-05-01T14:32:13.999Z</time></trkpt><trkpt lat="42.54985086756368" lon="12.256223495359636"><ele>67.0</ele><time>2026-05-01T14:32:14.999Z</time></trkpt><trkpt lat="42.549520568370475" lon="12.256313414942769"><ele>67.0</ele><time>2026-05-01T14:32:15.999Z</time></trkpt><trkpt lat="42.54918893193703" lon="12.256402281963698"><ele>67.0</ele><time>2026-05-01T14:32:16.999Z</time></trkpt><trkpt lat="42.54885772921003" lon="12.256489196063061"><ele>68.5</ele><time>2026-05-01T14:32:17.999Z</time></trkpt><trkpt lat="42.54852562412348" lon="12.256572346478542"><ele>70.0</ele><time>2026-05-01T14:32:18.999Z</time></trkpt><trkpt lat="42.54819081466954" lon="12.25665792103473"><ele>68.0</ele><time>2026-05-01T14:32:19.999Z</time></trkpt><trkpt lat="42.54785650888194" lon="12.256747148407092"><ele>66.0</ele><time>2026-05-01T14:32:20.999Z</time></trkpt><trkpt lat="42.54752222915185" lon="12.256837789484045"><ele>66.0</ele><time>2026-05-01T14:32:21.999Z</time></trkpt><trkpt lat="42.54718980543958" lon="12.256928800138505"><ele>66.0</ele><time>2026-05-01T14:32:22.999Z</time></trkpt><trkpt lat="42.546857711412386" lon="12.257019351061357"><ele>67.0</ele><time>2026-05-01T14:32:23.999Z</time></trkpt><trkpt lat="42.54652517299254" lon="12.257108049146673"><ele>68.0</ele><time>2026-05-01T14:32:24.999Z</time></trkpt><trkpt lat="42.54619192953466" lon="12.257191869256877"><ele>71.0</ele><time>2026-05-01T14:32:25.999Z</time></trkpt><trkpt lat="42.545856426350525" lon="12.257274153960738"><ele>74.0</ele><time>2026-05-01T14:32:26.999Z</time></trkpt><trkpt lat="42.54552103181131" lon="12.257359965708993"><ele>74.0</ele><time>2026-05-01T14:32:27.999Z</time></trkpt><trkpt lat="42.545188225862184" lon="12.257445228563922"><ele>74.0</ele><time>2026-05-01T14:32:28.999Z</time></trkpt><trkpt lat="42.54485514908613" lon="12.25753352093252"><ele>74.0</ele><time>2026-05-01T14:32:29.999Z</time></trkpt><trkpt lat="42.544522179207554" lon="12.257625396217406"><ele>74.0</ele><time>2026-05-01T14:32:30.999Z</time></trkpt><trkpt lat="42.544189595973045" lon="12.257716184289317"><ele>74.0</ele><time>2026-05-01T14:32:31.999Z</time></trkpt><trkpt lat="42.543854974393824" lon="12.257803621436492"><ele>74.0</ele><time>2026-05-01T14:32:32.999Z</time></trkpt><trkpt lat="42.54352223778722" lon="12.2578891397103"><ele>73.5</ele><time>2026-05-01T14:32:33.999Z</time></trkpt><trkpt lat="42.543187825324765" lon="12.257974283639449"><ele>73.0</ele><time>2026-05-01T14:32:34.999Z</time></trkpt><trkpt lat="42.54285536278927" lon="12.258060554021728"><ele>73.5</ele><time>2026-05-01T14:32:35.999Z</time></trkpt><trkpt lat="42.542522188493976" lon="12.258146628307136"><ele>74.0</ele><time>2026-05-01T14:32:36.999Z</time></trkpt><trkpt lat="42.542188881870594" lon="12.258234184284566"><ele>73.5</ele><time>2026-05-01T14:32:37.999Z</time></trkpt><trkpt lat="42.541854938257345" lon="12.258321887236296"><ele>73.0</ele><time>2026-05-01T14:32:38.999Z</time></trkpt><trkpt lat="42.54152134224315" lon="12.25840868625166"><ele>72.0</ele><time>2026-05-01T14:32:39.999Z</time></trkpt><trkpt lat="42.541188232232265" lon="12.258496600940614"><ele>71.0</ele><time>2026-05-01T14:32:40.999Z</time></trkpt><trkpt lat="42.54085765039497" lon="12.258582749305225"><ele>71.0</ele><time>2026-05-01T14:32:41.999Z</time></trkpt><trkpt lat="42.54052442902755" lon="12.258671144373864"><ele>71.0</ele><time>2026-05-01T14:32:42.999Z</time></trkpt><trkpt lat="42.54019176862848" lon="12.258756783962061"><ele>69.0</ele><time>2026-05-01T14:32:43.999Z</time></trkpt><trkpt lat="42.539858435186595" lon="12.258841361407402"><ele>67.0</ele><time>2026-05-01T14:32:44.999Z</time></trkpt><trkpt lat="42.5395256156705" lon="12.25892687884762"><ele>66.0</ele><time>2026-05-01T14:32:45.999Z</time></trkpt><trkpt lat="42.539192671747145" lon="12.25901097073722"><ele>65.0</ele><time>2026-05-01T14:32:46.999Z</time></trkpt><trkpt lat="42.53885977249859" lon="12.259095011845732"><ele>64.5</ele><time>2026-05-01T14:32:47.999Z</time></trkpt><trkpt lat="42.53852772176259" lon="12.259178937512289"><ele>64.0</ele><time>2026-05-01T14:32:48.999Z</time></trkpt><trkpt lat="42.538195840133056" lon="12.259266025697233"><ele>64.0</ele><time>2026-05-01T14:32:49.999Z</time></trkpt><trkpt lat="42.5378641106227" lon="12.259353533035531"><ele>64.0</ele><time>2026-05-01T14:32:50.999Z</time></trkpt><trkpt lat="42.53753310063943" lon="12.25943878190751"><ele>64.0</ele><time>2026-05-01T14:32:51.999Z</time></trkpt><trkpt lat="42.53720200943071" lon="12.259524792995279"><ele>64.0</ele><time>2026-05-01T14:32:52.999Z</time></trkpt><trkpt lat="42.5368702960336" lon="12.259613507899884"><ele>64.0</ele><time>2026-05-01T14:32:53.999Z</time></trkpt><trkpt lat="42.53653747069835" lon="12.259703444921488"><ele>64.0</ele><time>2026-05-01T14:32:54.999Z</time></trkpt><trkpt lat="42.536203596207265" lon="12.259793244438226"><ele>63.5</ele><time>2026-05-01T14:32:55.998Z</time></trkpt><trkpt lat="42.535868708836205" lon="12.259880570897428"><ele>63.0</ele><time>2026-05-01T14:32:56.998Z</time></trkpt><trkpt lat="42.535534054947455" lon="12.259967339318289"><ele>63.0</ele><time>2026-05-01T14:32:57.998Z</time></trkpt><trkpt lat="42.53520030599154" lon="12.260054342317568"><ele>63.0</ele><time>2026-05-01T14:32:58.998Z</time></trkpt><trkpt lat="42.53486941701663" lon="12.260141192413403"><ele>63.5</ele><time>2026-05-01T14:32:59.998Z</time></trkpt><trkpt lat="42.53453823367422" lon="12.260226578783854"><ele>64.0</ele><time>2026-05-01T14:33:00.998Z</time></trkpt><trkpt lat="42.534207105059295" lon="12.2603138199248"><ele>64.0</ele><time>2026-05-01T14:33:01.998Z</time></trkpt><trkpt lat="42.53387372472933" lon="12.260401761232764"><ele>64.0</ele><time>2026-05-01T14:33:02.998Z</time></trkpt><trkpt lat="42.53354228834636" lon="12.26049010734878"><ele>64.0</ele><time>2026-05-01T14:33:03.998Z</time></trkpt><trkpt lat="42.53321171791151" lon="12.260577159618547"><ele>64.0</ele><time>2026-05-01T14:33:04.998Z</time></trkpt><trkpt lat="42.53288232641474" lon="12.26066239173628"><ele>63.0</ele><time>2026-05-01T14:33:05.998Z</time></trkpt><trkpt lat="42.53255444367958" lon="12.260745290575366"><ele>62.0</ele><time>2026-05-01T14:33:06.998Z</time></trkpt><trkpt lat="42.53222573750008" lon="12.260830792954652"><ele>62.5</ele><time>2026-05-01T14:33:07.998Z</time></trkpt><trkpt lat="42.53189777033818" lon="12.260918361118932"><ele>63.0</ele><time>2026-05-01T14:33:08.998Z</time></trkpt><trkpt lat="42.53157022241814" lon="12.261004495103393"><ele>63.0</ele><time>2026-05-01T14:33:09.999Z</time></trkpt><trkpt lat="42.531241059726796" lon="12.261089659402035"><ele>63.0</ele><time>2026-05-01T14:33:10.999Z</time></trkpt><trkpt lat="42.53091215430262" lon="12.261175548343132"><ele>62.5</ele><time>2026-05-01T14:33:11.999Z</time></trkpt><trkpt lat="42.53058358455193" lon="12.261260692470016"><ele>62.0</ele><time>2026-05-01T14:33:12.999Z</time></trkpt><trkpt lat="42.53025461244427" lon="12.261346111991564"><ele>62.0</ele><time>2026-05-01T14:33:13.999Z</time></trkpt><trkpt lat="42.52992675863123" lon="12.26143255823166"><ele>62.0</ele><time>2026-05-01T14:33:14.999Z</time></trkpt><trkpt lat="42.52959780879681" lon="12.261521391537041"><ele>62.5</ele><time>2026-05-01T14:33:15.999Z</time></trkpt><trkpt lat="42.52927163131201" lon="12.261613337513776"><ele>63.0</ele><time>2026-05-01T14:33:16.999Z</time></trkpt><trkpt lat="42.52894651374649" lon="12.261711799138716"><ele>63.0</ele><time>2026-05-01T14:33:17.999Z</time></trkpt><trkpt lat="42.528626029274726" lon="12.261822632050412"><ele>63.0</ele><time>2026-05-01T14:33:18.999Z</time></trkpt><trkpt lat="42.52831059882627" lon="12.261945646025222"><ele>63.0</ele><time>2026-05-01T14:33:19.999Z</time></trkpt><trkpt lat="42.527996545620454" lon="12.262077371338501"><ele>63.0</ele><time>2026-05-01T14:33:20.999Z</time></trkpt><trkpt lat="42.52768535693638" lon="12.262220021726929"><ele>63.0</ele><time>2026-05-01T14:33:21.999Z</time></trkpt><trkpt lat="42.52737882072514" lon="12.262374930647981"><ele>63.0</ele><time>2026-05-01T14:33:22.999Z</time></trkpt><trkpt lat="42.52707747294034" lon="12.262541126256773"><ele>63.0</ele><time>2026-05-01T14:33:23.999Z</time></trkpt><trkpt lat="42.526778336391764" lon="12.262717908781415"><ele>63.0</ele><time>2026-05-01T14:33:24.999Z</time></trkpt><trkpt lat="42.52648329391121" lon="12.2629052660821"><ele>63.0</ele><time>2026-05-01T14:33:25.999Z</time></trkpt><trkpt lat="42.52619206722102" lon="12.263104447896097"><ele>63.0</ele><time>2026-05-01T14:33:26.999Z</time></trkpt><trkpt lat="42.52590405718103" lon="12.263314810271792"><ele>63.0</ele><time>2026-05-01T14:33:27.999Z</time></trkpt><trkpt lat="42.525623558718756" lon="12.263539041113278"><ele>63.0</ele><time>2026-05-01T14:33:28.999Z</time></trkpt><trkpt lat="42.525347885325225" lon="12.263772433134463"><ele>63.5</ele><time>2026-05-01T14:33:29.999Z</time></trkpt><trkpt lat="42.525074363048375" lon="12.264014893010867"><ele>64.0</ele><time>2026-05-01T14:33:30.999Z</time></trkpt><trkpt lat="42.524806344012504" lon="12.264269350278067"><ele>64.5</ele><time>2026-05-01T14:33:31.999Z</time></trkpt><trkpt lat="42.5245429256466" lon="12.264532356409175"><ele>65.0</ele><time>2026-05-01T14:33:32.999Z</time></trkpt><trkpt lat="42.52428513868827" lon="12.26480555899045"><ele>64.0</ele><time>2026-05-01T14:33:33.999Z</time></trkpt><trkpt lat="42.52403453356544" lon="12.2650880681116"><ele>63.0</ele><time>2026-05-01T14:33:34.999Z</time></trkpt><trkpt lat="42.52378954446548" lon="12.265378343292886"><ele>64.0</ele><time>2026-05-01T14:33:35.999Z</time></trkpt><trkpt lat="42.52354847592181" lon="12.26567945268952"><ele>65.0</ele><time>2026-05-01T14:33:36.999Z</time></trkpt><trkpt lat="42.523313150119236" lon="12.265990312240875"><ele>65.0</ele><time>2026-05-01T14:33:37.999Z</time></trkpt><trkpt lat="42.52308534657242" lon="12.266309910803963"><ele>65.0</ele><time>2026-05-01T14:33:38.999Z</time></trkpt><trkpt lat="42.522864452451415" lon="12.266639045329374"><ele>65.5</ele><time>2026-05-01T14:33:39.999Z</time></trkpt><trkpt lat="42.52265123095959" lon="12.266975339533039"><ele>66.0</ele><time>2026-05-01T14:33:40.999Z</time></trkpt><trkpt lat="42.522443879399695" lon="12.267319487314623"><ele>65.5</ele><time>2026-05-01T14:33:41.999Z</time></trkpt><trkpt lat="42.52224438991196" lon="12.267672067195482"><ele>65.0</ele><time>2026-05-01T14:33:42.999Z</time></trkpt><trkpt lat="42.52205444513298" lon="12.26803328350093"><ele>65.0</ele><time>2026-05-01T14:33:43.999Z</time></trkpt><trkpt lat="42.521870517354124" lon="12.268399462347142"><ele>65.0</ele><time>2026-05-01T14:33:44.999Z</time></trkpt><trkpt lat="42.521691767174694" lon="12.268771347414653"><ele>65.0</ele><time>2026-05-01T14:33:45.999Z</time></trkpt><trkpt lat="42.521522420679084" lon="12.269150996677075"><ele>65.0</ele><time>2026-05-01T14:33:46.999Z</time></trkpt><trkpt lat="42.5213630893398" lon="12.269538011297813"><ele>65.0</ele><time>2026-05-01T14:33:47.999Z</time></trkpt><trkpt lat="42.521208400969456" lon="12.269928477685562"><ele>65.0</ele><time>2026-05-01T14:33:48.999Z</time></trkpt><trkpt lat="42.52106251968114" lon="12.270326281672938"><ele>64.5</ele><time>2026-05-01T14:33:49.999Z</time></trkpt><trkpt lat="42.520922820256544" lon="12.270726117317311"><ele>64.0</ele><time>2026-05-01T14:33:50.999Z</time></trkpt><trkpt lat="42.52078967843184" lon="12.271132571994661"><ele>62.5</ele><time>2026-05-01T14:33:51.999Z</time></trkpt><trkpt lat="42.52066976385233" lon="12.271547049282743"><ele>61.0</ele><time>2026-05-01T14:33:52.999Z</time></trkpt><trkpt lat="42.520566749560544" lon="12.271966522884679"><ele>60.5</ele><time>2026-05-01T14:33:53.999Z</time></trkpt><trkpt lat="42.52046713515206" lon="12.27238832462932"><ele>60.0</ele><time>2026-05-01T14:33:54.999Z</time></trkpt><trkpt lat="42.52036705421" lon="12.272813378928282"><ele>60.0</ele><time>2026-05-01T14:33:55.999Z</time></trkpt><trkpt lat="42.52026400249328" lon="12.273239117348368"><ele>60.0</ele><time>2026-05-01T14:33:56.999Z</time></trkpt><trkpt lat="42.52016076668934" lon="12.273665486106882"><ele>60.5</ele><time>2026-05-01T14:33:57.999Z</time></trkpt><trkpt lat="42.52005788190118" lon="12.274092854547343"><ele>61.0</ele><time>2026-05-01T14:33:58.999Z</time></trkpt><trkpt lat="42.519955371371076" lon="12.274519606997572"><ele>61.5</ele><time>2026-05-01T14:33:59.999Z</time></trkpt><trkpt lat="42.51984999770859" lon="12.274941926373188"><ele>62.0</ele><time>2026-05-01T14:34:00.999Z</time></trkpt><trkpt lat="42.519744792321355" lon="12.27536456700217"><ele>62.0</ele><time>2026-05-01T14:34:01.999Z</time></trkpt><trkpt lat="42.519640301312386" lon="12.275787730676061"><ele>62.0</ele><time>2026-05-01T14:34:02.999Z</time></trkpt><trkpt lat="42.51953676524246" lon="12.276210762129391"><ele>60.5</ele><time>2026-05-01T14:34:03.999Z</time></trkpt><trkpt lat="42.51943371375374" lon="12.276632572327463"><ele>59.0</ele><time>2026-05-01T14:34:04.999Z</time></trkpt><trkpt lat="42.51932802336122" lon="12.277053813826555"><ele>58.5</ele><time>2026-05-01T14:34:05.999Z</time></trkpt><trkpt lat="42.51922196451323" lon="12.27747477718547"><ele>58.0</ele><time>2026-05-01T14:34:06.999Z</time></trkpt><trkpt lat="42.51911709045128" lon="12.27789782811482"><ele>60.5</ele><time>2026-05-01T14:34:07.999Z</time></trkpt><trkpt lat="42.51901497440381" lon="12.278323201630993"><ele>63.0</ele><time>2026-05-01T14:34:08.999Z</time></trkpt><trkpt lat="42.518913280909985" lon="12.278747518853102"><ele>62.0</ele><time>2026-05-01T14:34:09.999Z</time></trkpt><trkpt lat="42.51881142590198" lon="12.279170832140554"><ele>61.0</ele><time>2026-05-01T14:34:10.999Z</time></trkpt><trkpt lat="42.51870662328152" lon="12.279593075717258"><ele>60.5</ele><time>2026-05-01T14:34:11.999Z</time></trkpt><trkpt lat="42.51859566483458" lon="12.280012779884618"><ele>60.0</ele><time>2026-05-01T14:34:12.999Z</time></trkpt><trkpt lat="42.518476671912445" lon="12.280428178416281"><ele>60.0</ele><time>2026-05-01T14:34:13.999Z</time></trkpt><trkpt lat="42.51834634731606" lon="12.280836206939966"><ele>60.0</ele><time>2026-05-01T14:34:14.999Z</time></trkpt><trkpt lat="42.51820214674608" lon="12.281234278972123"><ele>60.0</ele><time>2026-05-01T14:34:15.999Z</time></trkpt><trkpt lat="42.518044904818105" lon="12.281618648478556"><ele>60.0</ele><time>2026-05-01T14:34:16.999Z</time></trkpt><trkpt lat="42.517875360919625" lon="12.28199397463415"><ele>60.5</ele><time>2026-05-01T14:34:17.999Z</time></trkpt><trkpt lat="42.51769199666524" lon="12.28235655999133"><ele>61.0</ele><time>2026-05-01T14:34:18.999Z</time></trkpt><trkpt lat="42.517494134898385" lon="12.282706853253794"><ele>61.0</ele><time>2026-05-01T14:34:19.999Z</time></trkpt><trkpt lat="42.51728539550164" lon="12.283044486035116"><ele>61.0</ele><time>2026-05-01T14:34:20.999Z</time></trkpt><trkpt lat="42.51706365946846" lon="12.28336843304444"><ele>61.0</ele><time>2026-05-01T14:34:21.999Z</time></trkpt><trkpt lat="42.51683186752778" lon="12.283678824168973"><ele>61.0</ele><time>2026-05-01T14:34:22.999Z</time></trkpt><trkpt lat="42.516589558599115" lon="12.283977438848849"><ele>61.0</ele><time>2026-05-01T14:34:23.999Z</time></trkpt><trkpt lat="42.5163431752761" lon="12.284271852415522"><ele>61.0</ele><time>2026-05-01T14:34:24.999Z</time></trkpt><trkpt lat="42.51609321262194" lon="12.28456311708791"><ele>61.0</ele><time>2026-05-01T14:34:25.999Z</time></trkpt><trkpt lat="42.51584566372257" lon="12.284856376032593"><ele>61.0</ele><time>2026-05-01T14:34:26.999Z</time></trkpt><trkpt lat="42.515600250255794" lon="12.285155069697714"><ele>61.0</ele><time>2026-05-01T14:34:27.999Z</time></trkpt><trkpt lat="42.51535351151166" lon="12.285455859312052"><ele>61.0</ele><time>2026-05-01T14:34:28.999Z</time></trkpt><trkpt lat="42.515106359619296" lon="12.285754765590525"><ele>61.0</ele><time>2026-05-01T14:34:29.999Z</time></trkpt><trkpt lat="42.51485945094827" lon="12.286052291892759"><ele>61.0</ele><time>2026-05-01T14:34:30.999Z</time></trkpt><trkpt lat="42.51461313040558" lon="12.2863508450649"><ele>61.0</ele><time>2026-05-01T14:34:31.999Z</time></trkpt><trkpt lat="42.514367457557746" lon="12.286651157894404"><ele>61.0</ele><time>2026-05-01T14:34:32.999Z</time></trkpt><trkpt lat="42.51412162097768" lon="12.286951330877693"><ele>61.0</ele><time>2026-05-01T14:34:33.999Z</time></trkpt><trkpt lat="42.513877494002244" lon="12.287247439265794"><ele>61.0</ele><time>2026-05-01T14:34:34.999Z</time></trkpt><trkpt lat="42.51363469371675" lon="12.287542038906512"><ele>61.0</ele><time>2026-05-01T14:34:35.999Z</time></trkpt><trkpt lat="42.513392677074975" lon="12.287832996711435"><ele>61.0</ele><time>2026-05-01T14:34:36.999Z</time></trkpt><trkpt lat="42.51315274481966" lon="12.288120423824438"><ele>61.5</ele><time>2026-05-01T14:34:37.999Z</time></trkpt><trkpt lat="42.51291463953363" lon="12.28840921544867"><ele>62.0</ele><time>2026-05-01T14:34:38.999Z</time></trkpt><trkpt lat="42.512678050648695" lon="12.288698383694873"><ele>65.5</ele><time>2026-05-01T14:34:39.999Z</time></trkpt><trkpt lat="42.51244050597441" lon="12.288988688291072"><ele>69.0</ele><time>2026-05-01T14:34:40.999Z</time></trkpt><trkpt lat="42.51220201798652" lon="12.28927768455581"><ele>68.0</ele><time>2026-05-01T14:34:41.999Z</time></trkpt><trkpt lat="42.51196211188863" lon="12.289567731957929"><ele>67.0</ele><time>2026-05-01T14:34:42.999Z</time></trkpt><trkpt lat="42.5117190232164" lon="12.28985856306732"><ele>67.0</ele><time>2026-05-01T14:34:43.999Z</time></trkpt><trkpt lat="42.51147537397934" lon="12.290155083472401"><ele>67.0</ele><time>2026-05-01T14:34:44.999Z</time></trkpt><trkpt lat="42.51123212221553" lon="12.290452291457736"><ele>65.5</ele><time>2026-05-01T14:34:45.999Z</time></trkpt><trkpt lat="42.51098988326834" lon="12.290753333034932"><ele>64.0</ele><time>2026-05-01T14:34:46.999Z</time></trkpt><trkpt lat="42.510751291906494" lon="12.291059793022429"><ele>64.0</ele><time>2026-05-01T14:34:47.999Z</time></trkpt><trkpt lat="42.51051791968391" lon="12.291375416404568"><ele>64.0</ele><time>2026-05-01T14:34:48.999Z</time></trkpt><trkpt lat="42.510291271296055" lon="12.29169920118014"><ele>63.5</ele><time>2026-05-01T14:34:49.998Z</time></trkpt><trkpt lat="42.51007645961922" lon="12.292038224984578"><ele>63.0</ele><time>2026-05-01T14:34:50.998Z</time></trkpt><trkpt lat="42.509863734459366" lon="12.292385260364867"><ele>63.0</ele><time>2026-05-01T14:34:51.998Z</time></trkpt><trkpt lat="42.50965492192712" lon="12.292741668021923"><ele>63.0</ele><time>2026-05-01T14:34:52.998Z</time></trkpt><trkpt lat="42.50945023924149" lon="12.293100975150969"><ele>63.0</ele><time>2026-05-01T14:34:53.998Z</time></trkpt><trkpt lat="42.50924737340809" lon="12.293465318926684"><ele>63.0</ele><time>2026-05-01T14:34:54.998Z</time></trkpt><trkpt lat="42.50905072205974" lon="12.293837778606989"><ele>63.5</ele><time>2026-05-01T14:34:55.998Z</time></trkpt><trkpt lat="42.50886190432735" lon="12.294218436432352"><ele>64.0</ele><time>2026-05-01T14:34:56.998Z</time></trkpt><trkpt lat="42.50867789729664" lon="12.294600519118841"><ele>64.0</ele><time>2026-05-01T14:34:57.998Z</time></trkpt><trkpt lat="42.50849231040458" lon="12.294981259360387"><ele>64.0</ele><time>2026-05-01T14:34:58.998Z</time></trkpt><trkpt lat="42.508305416051364" lon="12.29536136226289"><ele>63.5</ele><time>2026-05-01T14:34:59.998Z</time></trkpt><trkpt lat="42.50811778431552" lon="12.295741994472774"><ele>63.0</ele><time>2026-05-01T14:35:00.998Z</time></trkpt><trkpt lat="42.50793209619294" lon="12.296126894387616"><ele>61.0</ele><time>2026-05-01T14:35:01.998Z</time></trkpt><trkpt lat="42.50774765625" lon="12.296511817296437"><ele>59.0</ele><time>2026-05-01T14:35:02.998Z</time></trkpt><trkpt lat="42.50756352536075" lon="12.296897687606403"><ele>60.0</ele><time>2026-05-01T14:35:03.998Z</time></trkpt><trkpt lat="42.5073791800064" lon="12.297279349943251"><ele>61.0</ele><time>2026-05-01T14:35:04.998Z</time></trkpt><trkpt lat="42.50719685800294" lon="12.297654746415125"><ele>60.5</ele><time>2026-05-01T14:35:05.998Z</time></trkpt><trkpt lat="42.50701340835928" lon="12.298027714020606"><ele>60.0</ele><time>2026-05-01T14:35:06.998Z</time></trkpt><trkpt lat="42.506832928740984" lon="12.298401742463406"><ele>60.0</ele><time>2026-05-01T14:35:07.998Z</time></trkpt><trkpt lat="42.506653289707295" lon="12.298775579789702"><ele>60.0</ele><time>2026-05-01T14:35:08.998Z</time></trkpt><trkpt lat="42.50647316533281" lon="12.299144341737417"><ele>60.0</ele><time>2026-05-01T14:35:09.998Z</time></trkpt><trkpt lat="42.50628592615569" lon="12.29950950308536"><ele>60.0</ele><time>2026-05-01T14:35:10.998Z</time></trkpt><trkpt lat="42.50609766998664" lon="12.29987364166992"><ele>60.0</ele><time>2026-05-01T14:35:11.998Z</time></trkpt><trkpt lat="42.50591176753036" lon="12.30023811800242"><ele>60.0</ele><time>2026-05-01T14:35:12.998Z</time></trkpt><trkpt lat="42.505726544170585" lon="12.300603239874116"><ele>59.5</ele><time>2026-05-01T14:35:13.998Z</time></trkpt><trkpt lat="42.505545849165365" lon="12.300969569470862"><ele>59.0</ele><time>2026-05-01T14:35:14.998Z</time></trkpt><trkpt lat="42.50536701848722" lon="12.301339536085019"><ele>62.0</ele><time>2026-05-01T14:35:15.999Z</time></trkpt><trkpt lat="42.50518844149279" lon="12.301708486627707"><ele>65.0</ele><time>2026-05-01T14:35:16.999Z</time></trkpt><trkpt lat="42.505009826522645" lon="12.30207606993216"><ele>66.0</ele><time>2026-05-01T14:35:17.999Z</time></trkpt><trkpt lat="42.50483034165737" lon="12.302441264797395"><ele>67.0</ele><time>2026-05-01T14:35:18.999Z</time></trkpt><trkpt lat="42.504648540347866" lon="12.30280928661543"><ele>68.5</ele><time>2026-05-01T14:35:19.999Z</time></trkpt><trkpt lat="42.50446783485268" lon="12.303178694270425"><ele>70.0</ele><time>2026-05-01T14:35:20.999Z</time></trkpt><trkpt lat="42.50428764544082" lon="12.303551043973044"><ele>71.0</ele><time>2026-05-01T14:35:21.999Z</time></trkpt><trkpt lat="42.5041071457955" lon="12.303925307951044"><ele>72.0</ele><time>2026-05-01T14:35:22.999Z</time></trkpt><trkpt lat="42.50392239238118" lon="12.304300429383092"><ele>72.5</ele><time>2026-05-01T14:35:23.999Z</time></trkpt><trkpt lat="42.50373989488493" lon="12.304675732809018"><ele>73.0</ele><time>2026-05-01T14:35:24.999Z</time></trkpt><trkpt lat="42.50355861334408" lon="12.305052460397645"><ele>74.5</ele><time>2026-05-01T14:35:25.999Z</time></trkpt><trkpt lat="42.50337737329942" lon="12.305429249752088"><ele>76.0</ele><time>2026-05-01T14:35:26.999Z</time></trkpt><trkpt lat="42.50319551364502" lon="12.305809073715608"><ele>77.0</ele><time>2026-05-01T14:35:27.999Z</time></trkpt><trkpt lat="42.50301205098102" lon="12.306187449687046"><ele>78.0</ele><time>2026-05-01T14:35:28.999Z</time></trkpt><trkpt lat="42.502827373299965" lon="12.306565499441628"><ele>78.0</ele><time>2026-05-01T14:35:29.999Z</time></trkpt><trkpt lat="42.502641394330055" lon="12.306943680925604"><ele>78.0</ele><time>2026-05-01T14:35:30.999Z</time></trkpt><trkpt lat="42.502452226891656" lon="12.307318280092439"><ele>78.5</ele><time>2026-05-01T14:35:31.999Z</time></trkpt><trkpt lat="42.50225786970706" lon="12.307690125286294"><ele>79.0</ele><time>2026-05-01T14:35:32.999Z</time></trkpt><trkpt lat="42.50205776925252" lon="12.308052736237807"><ele>78.5</ele><time>2026-05-01T14:35:33.999Z</time></trkpt><trkpt lat="42.50185249686262" lon="12.308409097149339"><ele>78.0</ele><time>2026-05-01T14:35:34.999Z</time></trkpt><trkpt lat="42.50164120112083" lon="12.308758889870226"><ele>78.0</ele><time>2026-05-01T14:35:35.999Z</time></trkpt><trkpt lat="42.50142553667684" lon="12.309101538709529"><ele>78.0</ele><time>2026-05-01T14:35:36.999Z</time></trkpt><trkpt lat="42.5012086871631" lon="12.309439437541764"><ele>76.5</ele><time>2026-05-01T14:35:37.999Z</time></trkpt><trkpt lat="42.500990879331724" lon="12.30977671106525"><ele>75.0</ele><time>2026-05-01T14:35:38.999Z</time></trkpt><trkpt lat="42.50077325754555" lon="12.310118451674034"><ele>75.0</ele><time>2026-05-01T14:35:39.999Z</time></trkpt><trkpt lat="42.50055304591311" lon="12.310462997471898"><ele>75.0</ele><time>2026-05-01T14:35:40.999Z</time></trkpt><trkpt lat="42.500331425612586" lon="12.310809291761954"><ele>75.0</ele><time>2026-05-01T14:35:41.999Z</time></trkpt><trkpt lat="42.50010957897996" lon="12.311155524848491"><ele>75.0</ele><time>2026-05-01T14:35:42.999Z</time></trkpt><trkpt lat="42.49988569231491" lon="12.31150079901294"><ele>75.0</ele><time>2026-05-01T14:35:43.999Z</time></trkpt><trkpt lat="42.499659630106855" lon="12.311845941428988"><ele>75.0</ele><time>2026-05-01T14:35:44.999Z</time></trkpt><trkpt lat="42.49943769072066" lon="12.312192151347594"><ele>76.0</ele><time>2026-05-01T14:35:45.999Z</time></trkpt><trkpt lat="42.499215494642954" lon="12.312538318717246"><ele>77.0</ele><time>2026-05-01T14:35:46.999Z</time></trkpt><trkpt lat="42.49899265846091" lon="12.312880630612458"><ele>77.5</ele><time>2026-05-01T14:35:47.999Z</time></trkpt><trkpt lat="42.498768315875886" lon="12.313219943084116"><ele>78.0</ele><time>2026-05-01T14:35:48.999Z</time></trkpt><trkpt lat="42.498543081183094" lon="12.31356145981137"><ele>78.0</ele><time>2026-05-01T14:35:49.999Z</time></trkpt><trkpt lat="42.498318430386085" lon="12.313905209636479"><ele>78.0</ele><time>2026-05-01T14:35:50.999Z</time></trkpt><trkpt lat="42.498096715443225" lon="12.31425136927063"><ele>77.5</ele><time>2026-05-01T14:35:51.999Z</time></trkpt><trkpt lat="42.49787466729045" lon="12.314597037053792"><ele>77.0</ele><time>2026-05-01T14:35:52.999Z</time></trkpt><trkpt lat="42.49764922351763" lon="12.31494065799209"><ele>77.0</ele><time>2026-05-01T14:35:53.999Z</time></trkpt><trkpt lat="42.49742246255714" lon="12.315286002351083"><ele>77.0</ele><time>2026-05-01T14:35:54.999Z</time></trkpt><trkpt lat="42.49719284659553" lon="12.315636252163625"><ele>78.0</ele><time>2026-05-01T14:35:55.999Z</time></trkpt><trkpt lat="42.49696675711036" lon="12.315980080843921"><ele>79.0</ele><time>2026-05-01T14:35:56.999Z</time></trkpt><trkpt lat="42.49674201854957" lon="12.316321670412803"><ele>80.5</ele><time>2026-05-01T14:35:57.999Z</time></trkpt><trkpt lat="42.49652021241988" lon="12.316660552192053"><ele>82.0</ele><time>2026-05-01T14:35:58.999Z</time></trkpt><trkpt lat="42.4963002504732" lon="12.316998429747276"><ele>80.0</ele><time>2026-05-01T14:35:59.999Z</time></trkpt><trkpt lat="42.49608250435257" lon="12.317331417284931"><ele>78.0</ele><time>2026-05-01T14:36:00.999Z</time></trkpt><trkpt lat="42.495864914222636" lon="12.317660017513967"><ele>78.0</ele><time>2026-05-01T14:36:01.999Z</time></trkpt><trkpt lat="42.49564729660313" lon="12.317986453930159"><ele>78.0</ele><time>2026-05-01T14:36:02.999Z</time></trkpt><trkpt lat="42.49543137593889" lon="12.318310855865409"><ele>75.0</ele><time>2026-05-01T14:36:03.999Z</time></trkpt><trkpt lat="42.49521562845996" lon="12.318635745039796"><ele>72.0</ele><time>2026-05-01T14:36:04.999Z</time></trkpt><trkpt lat="42.495000699385976" lon="12.318961575654773"><ele>72.0</ele><time>2026-05-01T14:36:05.999Z</time></trkpt><trkpt lat="42.49478956343798" lon="12.319289953153552"><ele>72.0</ele><time>2026-05-01T14:36:06.999Z</time></trkpt><trkpt lat="42.49457847823736" lon="12.319619538290175"><ele>69.0</ele><time>2026-05-01T14:36:07.999Z</time></trkpt><trkpt lat="42.49436533134681" lon="12.319949987638962"><ele>66.0</ele><time>2026-05-01T14:36:08.999Z</time></trkpt><trkpt lat="42.49415217407114" lon="12.32027996706689"><ele>66.0</ele><time>2026-05-01T14:36:09.999Z</time></trkpt><trkpt lat="42.49393949609482" lon="12.320609537166735"><ele>66.0</ele><time>2026-05-01T14:36:10.999Z</time></trkpt><trkpt lat="42.49372572900513" lon="12.320937306073132"><ele>62.0</ele><time>2026-05-01T14:36:11.999Z</time></trkpt><trkpt lat="42.49351145569836" lon="12.321265730948243"><ele>58.0</ele><time>2026-05-01T14:36:12.999Z</time></trkpt><trkpt lat="42.49329669691091" lon="12.321593077979392"><ele>59.0</ele><time>2026-05-01T14:36:13.999Z</time></trkpt><trkpt lat="42.49308078183794" lon="12.32192399654785"><ele>60.0</ele><time>2026-05-01T14:36:14.999Z</time></trkpt><trkpt lat="42.492863193172724" lon="12.322256938572108"><ele>60.0</ele><time>2026-05-01T14:36:15.999Z</time></trkpt><trkpt lat="42.49264571068381" lon="12.322591452759802"><ele>60.0</ele><time>2026-05-01T14:36:16.999Z</time></trkpt><trkpt lat="42.49242957923533" lon="12.322926963559894"><ele>60.5</ele><time>2026-05-01T14:36:17.999Z</time></trkpt><trkpt lat="42.492210475952064" lon="12.323265124545683"><ele>61.0</ele><time>2026-05-01T14:36:18.999Z</time></trkpt><trkpt lat="42.4919894110135" lon="12.323601235479947"><ele>62.0</ele><time>2026-05-01T14:36:19.999Z</time></trkpt><trkpt lat="42.491769129288635" lon="12.323935374926148"><ele>63.0</ele><time>2026-05-01T14:36:20.999Z</time></trkpt><trkpt lat="42.49155014188495" lon="12.324267350192905"><ele>63.0</ele><time>2026-05-01T14:36:21.999Z</time></trkpt><trkpt lat="42.491332376166994" lon="12.324601186511057"><ele>63.0</ele><time>2026-05-01T14:36:22.999Z</time></trkpt><trkpt lat="42.49111345620926" lon="12.324935943404306"><ele>62.5</ele><time>2026-05-01T14:36:23.999Z</time></trkpt><trkpt lat="42.49089341899753" lon="12.325269894834005"><ele>62.0</ele><time>2026-05-01T14:36:24.999Z</time></trkpt><trkpt lat="42.49067316664445" lon="12.325606237604315"><ele>61.5</ele><time>2026-05-01T14:36:25.999Z</time></trkpt><trkpt lat="42.490451048522964" lon="12.325941079284272"><ele>61.0</ele><time>2026-05-01T14:36:26.999Z</time></trkpt><trkpt lat="42.49022537294004" lon="12.32627190489818"><ele>62.5</ele><time>2026-05-01T14:36:27.999Z</time></trkpt><trkpt lat="42.48999615344728" lon="12.326598350316342"><ele>64.0</ele><time>2026-05-01T14:36:28.999Z</time></trkpt><trkpt lat="42.48976473736217" lon="12.326921439156711"><ele>65.0</ele><time>2026-05-01T14:36:29.999Z</time></trkpt><trkpt lat="42.489529703916176" lon="12.327245372215488"><ele>66.0</ele><time>2026-05-01T14:36:30.999Z</time></trkpt><trkpt lat="42.48929433723755" lon="12.327567428492209"><ele>66.0</ele><time>2026-05-01T14:36:31.999Z</time></trkpt><trkpt lat="42.48905578197069" lon="12.32788928249822"><ele>66.0</ele><time>2026-05-01T14:36:32.999Z</time></trkpt><trkpt lat="42.488814281450814" lon="12.328208310666435"><ele>66.5</ele><time>2026-05-01T14:36:33.999Z</time></trkpt><trkpt lat="42.48857330000675" lon="12.328525279251123"><ele>67.0</ele><time>2026-05-01T14:36:34.999Z</time></trkpt><trkpt lat="42.488334503169376" lon="12.328840548427117"><ele>67.0</ele><time>2026-05-01T14:36:35.999Z</time></trkpt><trkpt lat="42.48809692934834" lon="12.329154313844791"><ele>67.0</ele><time>2026-05-01T14:36:36.999Z</time></trkpt><trkpt lat="42.48786023713117" lon="12.32947016797413"><ele>68.5</ele><time>2026-05-01T14:36:37.999Z</time></trkpt><trkpt lat="42.48762212528777" lon="12.329786164513797"><ele>70.0</ele><time>2026-05-01T14:36:38.999Z</time></trkpt><trkpt lat="42.48738184858156" lon="12.330104437992265"><ele>70.0</ele><time>2026-05-01T14:36:39.999Z</time></trkpt><trkpt lat="42.487140274499694" lon="12.330421934601858"><ele>70.0</ele><time>2026-05-01T14:36:40.999Z</time></trkpt><trkpt lat="42.48689839917515" lon="12.330739003386505"><ele>68.5</ele><time>2026-05-01T14:36:41.999Z</time></trkpt><trkpt lat="42.48665575220001" lon="12.331053513827687"><ele>67.0</ele><time>2026-05-01T14:36:42.999Z</time></trkpt><trkpt lat="42.4864108220863" lon="12.33136618433203"><ele>67.0</ele><time>2026-05-01T14:36:43.999Z</time></trkpt><trkpt lat="42.48616395772197" lon="12.331678764337099"><ele>67.0</ele><time>2026-05-01T14:36:44.999Z</time></trkpt><trkpt lat="42.48591669765147" lon="12.331992423289138"><ele>67.0</ele><time>2026-05-01T14:36:45.999Z</time></trkpt><trkpt lat="42.4856721431167" lon="12.332306876394904"><ele>67.0</ele><time>2026-05-01T14:36:46.999Z</time></trkpt><trkpt lat="42.4854325310527" lon="12.332621530428321"><ele>67.0</ele><time>2026-05-01T14:36:47.999Z</time></trkpt><trkpt lat="42.48519418326515" lon="12.332938578530605"><ele>67.0</ele><time>2026-05-01T14:36:48.999Z</time></trkpt><trkpt lat="42.48495677342354" lon="12.33325526084539"><ele>67.0</ele><time>2026-05-01T14:36:49.999Z</time></trkpt><trkpt lat="42.48471788187293" lon="12.333568908963612"><ele>67.0</ele><time>2026-05-01T14:36:50.999Z</time></trkpt><trkpt lat="42.484479510406736" lon="12.333882102320398"><ele>67.5</ele><time>2026-05-01T14:36:51.999Z</time></trkpt><trkpt lat="42.48424193964011" lon="12.334195070556717"><ele>68.0</ele><time>2026-05-01T14:36:52.999Z</time></trkpt><trkpt lat="42.48400491359042" lon="12.334503738035858"><ele>68.0</ele><time>2026-05-01T14:36:53.999Z</time></trkpt><trkpt lat="42.483773461239736" lon="12.334817623850888"><ele>68.0</ele><time>2026-05-01T14:36:54.998Z</time></trkpt><trkpt lat="42.48353947660146" lon="12.335130536879849"><ele>67.5</ele><time>2026-05-01T14:36:55.998Z</time></trkpt><trkpt lat="42.48330505088924" lon="12.33544542413349"><ele>67.0</ele><time>2026-05-01T14:36:56.998Z</time></trkpt><trkpt lat="42.483070793866474" lon="12.335760837083942"><ele>67.0</ele><time>2026-05-01T14:36:57.998Z</time></trkpt><trkpt lat="42.48283438703842" lon="12.336080694122574"><ele>67.0</ele><time>2026-05-01T14:36:58.998Z</time></trkpt><trkpt lat="42.48259867604966" lon="12.336400562672656"><ele>66.5</ele><time>2026-05-01T14:36:59.998Z</time></trkpt><trkpt lat="42.482359765282396" lon="12.336717922096362"><ele>66.0</ele><time>2026-05-01T14:37:00.998Z</time></trkpt><trkpt lat="42.48211856650062" lon="12.337035376635214"><ele>65.5</ele><time>2026-05-01T14:37:01.998Z</time></trkpt><trkpt lat="42.48187735164084" lon="12.337355490137208"><ele>65.0</ele><time>2026-05-01T14:37:02.998Z</time></trkpt><trkpt lat="42.481635491169" lon="12.337677821482982"><ele>65.0</ele><time>2026-05-01T14:37:03.998Z</time></trkpt><trkpt lat="42.48139534318147" lon="12.337999172538503"><ele>65.0</ele><time>2026-05-01T14:37:04.998Z</time></trkpt><trkpt lat="42.48115270507971" lon="12.338320733155339"><ele>65.0</ele><time>2026-05-01T14:37:05.998Z</time></trkpt><trkpt lat="42.480912552375" lon="12.338637238735707"><ele>65.0</ele><time>2026-05-01T14:37:06.998Z</time></trkpt><trkpt lat="42.48067266915998" lon="12.338952948869272"><ele>64.5</ele><time>2026-05-01T14:37:07.998Z</time></trkpt><trkpt lat="42.48043720620805" lon="12.33926410175323"><ele>64.0</ele><time>2026-05-01T14:37:08.998Z</time></trkpt><trkpt lat="42.48020312790542" lon="12.339574811064615"><ele>63.0</ele><time>2026-05-01T14:37:09.998Z</time></trkpt><trkpt lat="42.479967827049" lon="12.3398861647647"><ele>62.0</ele><time>2026-05-01T14:37:10.998Z</time></trkpt><trkpt lat="42.47973273684305" lon="12.340196483051962"><ele>63.0</ele><time>2026-05-01T14:37:11.998Z</time></trkpt><trkpt lat="42.479498252412974" lon="12.340505684327438"><ele>64.0</ele><time>2026-05-01T14:37:12.998Z</time></trkpt><trkpt lat="42.47926529947034" lon="12.340813115060046"><ele>64.0</ele><time>2026-05-01T14:37:13.998Z</time></trkpt><trkpt lat="42.47903331162124" lon="12.341118459824706"><ele>64.0</ele><time>2026-05-01T14:37:14.998Z</time></trkpt><trkpt lat="42.47880093248096" lon="12.34142422611183"><ele>63.5</ele><time>2026-05-01T14:37:15.998Z</time></trkpt><trkpt lat="42.47856753653119" lon="12.341729213755867"><ele>63.0</ele><time>2026-05-01T14:37:16.998Z</time></trkpt><trkpt lat="42.47833297065219" lon="12.342031582734167"><ele>63.0</ele><time>2026-05-01T14:37:17.998Z</time></trkpt><trkpt lat="42.478093665641246" lon="12.342329899182042"><ele>63.0</ele><time>2026-05-01T14:37:18.998Z</time></trkpt><trkpt lat="42.47784717193637" lon="12.342625229353747"><ele>63.0</ele><time>2026-05-01T14:37:19.998Z</time></trkpt><trkpt lat="42.47759112974057" lon="12.342913055623107"><ele>63.0</ele><time>2026-05-01T14:37:20.998Z</time></trkpt><trkpt lat="42.47732972368178" lon="12.34319275460724"><ele>61.5</ele><time>2026-05-01T14:37:21.999Z</time></trkpt><trkpt lat="42.47706038102011" lon="12.34347067766688"><ele>60.0</ele><time>2026-05-01T14:37:22.999Z</time></trkpt><trkpt lat="42.476789475281585" lon="12.343748469189334"><ele>59.5</ele><time>2026-05-01T14:37:23.999Z</time></trkpt><trkpt lat="42.476515990325225" lon="12.344019222567136"><ele>59.0</ele><time>2026-05-01T14:37:24.999Z</time></trkpt><trkpt lat="42.47623491228476" lon="12.344284619467933"><ele>59.0</ele><time>2026-05-01T14:37:25.999Z</time></trkpt><trkpt lat="42.475957921317544" lon="12.34455246067907"><ele>59.0</ele><time>2026-05-01T14:37:26.999Z</time></trkpt><trkpt lat="42.47567960481736" lon="12.344819615805791"><ele>59.0</ele><time>2026-05-01T14:37:27.999Z</time></trkpt><trkpt lat="42.47540178293419" lon="12.345085483564324"><ele>59.0</ele><time>2026-05-01T14:37:28.999Z</time></trkpt><trkpt lat="42.47512494102657" lon="12.345350150577739"><ele>59.0</ele><time>2026-05-01T14:37:29.999Z</time></trkpt><trkpt lat="42.47484636322516" lon="12.34561674621175"><ele>59.0</ele><time>2026-05-01T14:37:30.999Z</time></trkpt><trkpt lat="42.47456637427034" lon="12.345885968887142"><ele>59.0</ele><time>2026-05-01T14:37:31.999Z</time></trkpt><trkpt lat="42.474287724745295" lon="12.346153198308643"><ele>59.0</ele><time>2026-05-01T14:37:32.999Z</time></trkpt><trkpt lat="42.474011382823974" lon="12.346418746340651"><ele>58.5</ele><time>2026-05-01T14:37:33.999Z</time></trkpt><trkpt lat="42.473734852844686" lon="12.346682674549509"><ele>58.0</ele><time>2026-05-01T14:37:34.999Z</time></trkpt><trkpt lat="42.47345901484254" lon="12.346948063043035"><ele>58.0</ele><time>2026-05-01T14:37:35.999Z</time></trkpt><trkpt lat="42.47318738401449" lon="12.347216469722873"><ele>58.0</ele><time>2026-05-01T14:37:36.999Z</time></trkpt><trkpt lat="42.472919255327575" lon="12.347490289174752"><ele>58.0</ele><time>2026-05-01T14:37:37.999Z</time></trkpt><trkpt lat="42.47266066052236" lon="12.347770030324986"><ele>58.0</ele><time>2026-05-01T14:37:38.999Z</time></trkpt><trkpt lat="42.472413611262645" lon="12.348063498751443"><ele>58.5</ele><time>2026-05-01T14:37:39.999Z</time></trkpt><trkpt lat="42.472176685316946" lon="12.348367487795517"><ele>59.0</ele><time>2026-05-01T14:37:40.999Z</time></trkpt><trkpt lat="42.4719472850168" lon="12.3486778802748"><ele>58.0</ele><time>2026-05-01T14:37:41.999Z</time></trkpt><trkpt lat="42.47172592011233" lon="12.34899950200177"><ele>57.0</ele><time>2026-05-01T14:37:42.999Z</time></trkpt><trkpt lat="42.47151563278104" lon="12.349331003827118"><ele>57.0</ele><time>2026-05-01T14:37:43.999Z</time></trkpt><trkpt lat="42.47131841225048" lon="12.349670962637541"><ele>57.0</ele><time>2026-05-01T14:37:44.999Z</time></trkpt><trkpt lat="42.471128725625995" lon="12.350016054774178"><ele>57.0</ele><time>2026-05-01T14:37:45.999Z</time></trkpt><trkpt lat="42.47094847532984" lon="12.350372993029907"><ele>57.0</ele><time>2026-05-01T14:37:46.999Z</time></trkpt><trkpt lat="42.47077660367266" lon="12.350745462565012"><ele>57.0</ele><time>2026-05-01T14:37:47.999Z</time></trkpt><trkpt lat="42.47061082626129" lon="12.351126452530064"><ele>57.0</ele><time>2026-05-01T14:37:48.999Z</time></trkpt><trkpt lat="42.47044708309442" lon="12.351512889303425"><ele>57.0</ele><time>2026-05-01T14:37:49.999Z</time></trkpt><trkpt lat="42.47028150303606" lon="12.351899829039448"><ele>57.0</ele><time>2026-05-01T14:37:50.999Z</time></trkpt><trkpt lat="42.47011090428669" lon="12.352286127669958"><ele>57.0</ele><time>2026-05-01T14:37:51.999Z</time></trkpt><trkpt lat="42.46993911690629" lon="12.352673548708626"><ele>57.0</ele><time>2026-05-01T14:37:52.999Z</time></trkpt><trkpt lat="42.469766083517186" lon="12.35305958367548"><ele>55.5</ele><time>2026-05-01T14:37:53.999Z</time></trkpt><trkpt lat="42.46959264868036" lon="12.353449805019679"><ele>54.0</ele><time>2026-05-01T14:37:54.999Z</time></trkpt><trkpt lat="42.46942117799324" lon="12.353838293072238"><ele>57.0</ele><time>2026-05-01T14:37:55.999Z</time></trkpt><trkpt lat="42.46925187453201" lon="12.354226630994342"><ele>60.0</ele><time>2026-05-01T14:37:56.999Z</time></trkpt><trkpt lat="42.46908328541135" lon="12.354614129022531"><ele>58.0</ele><time>2026-05-01T14:37:57.999Z</time></trkpt><trkpt lat="42.468915819107615" lon="12.355004000718061"><ele>56.0</ele><time>2026-05-01T14:37:58.999Z</time></trkpt><trkpt lat="42.46874924074924" lon="12.355393691728505"><ele>57.5</ele><time>2026-05-01T14:37:59.999Z</time></trkpt><trkpt lat="42.46858440585686" lon="12.355779323138522"><ele>59.0</ele><time>2026-05-01T14:38:00.999Z</time></trkpt><trkpt lat="42.46842050979299" lon="12.356161525581472"><ele>64.5</ele><time>2026-05-01T14:38:01.999Z</time></trkpt><trkpt lat="42.46825851535217" lon="12.356540191221207"><ele>70.0</ele><time>2026-05-01T14:38:02.999Z</time></trkpt><trkpt lat="42.46810298903906" lon="12.356920079726258"><ele>66.0</ele><time>2026-05-01T14:38:03.999Z</time></trkpt><trkpt lat="42.467954265467306" lon="12.357309887043126"><ele>62.0</ele><time>2026-05-01T14:38:04.999Z</time></trkpt><trkpt lat="42.46781934845639" lon="12.357706728864306"><ele>64.5</ele><time>2026-05-01T14:38:05.999Z</time></trkpt><trkpt lat="42.46770679687154" lon="12.358110880646645"><ele>67.0</ele><time>2026-05-01T14:38:06.999Z</time></trkpt><trkpt lat="42.46762094457238" lon="12.358529498715834"><ele>69.5</ele><time>2026-05-01T14:38:07.999Z</time></trkpt><trkpt lat="42.467557188510106" lon="12.358957067447488"><ele>72.0</ele><time>2026-05-01T14:38:08.999Z</time></trkpt><trkpt lat="42.46751425999475" lon="12.359392298353384"><ele>74.0</ele><time>2026-05-01T14:38:09.999Z</time></trkpt><trkpt lat="42.46747932137094" lon="12.35983513844154"><ele>76.0</ele><time>2026-05-01T14:38:10.999Z</time></trkpt><trkpt lat="42.46744570686057" lon="12.36028301685486"><ele>75.5</ele><time>2026-05-01T14:38:11.999Z</time></trkpt><trkpt lat="42.467407879548794" lon="12.360732137520955"><ele>75.0</ele><time>2026-05-01T14:38:12.999Z</time></trkpt><trkpt lat="42.4673681222453" lon="12.361183022446188"><ele>76.0</ele><time>2026-05-01T14:38:13.999Z</time></trkpt><trkpt lat="42.467327567719536" lon="12.361631819536543"><ele>77.0</ele><time>2026-05-01T14:38:14.999Z</time></trkpt><trkpt lat="42.46728540032895" lon="12.362082081777002"><ele>79.0</ele><time>2026-05-01T14:38:15.999Z</time></trkpt><trkpt lat="42.4672438284873" lon="12.362532292968634"><ele>81.0</ele><time>2026-05-01T14:38:16.999Z</time></trkpt><trkpt lat="42.46720315426016" lon="12.362982218500234"><ele>81.5</ele><time>2026-05-01T14:38:17.999Z</time></trkpt><trkpt lat="42.467162504342085" lon="12.36342603536856"><ele>82.0</ele><time>2026-05-01T14:38:18.999Z</time></trkpt><trkpt lat="42.467122140453974" lon="12.363871571009323"><ele>70.5</ele><time>2026-05-01T14:38:19.999Z</time></trkpt><trkpt lat="42.46708278412102" lon="12.364315320635997"><ele>59.0</ele><time>2026-05-01T14:38:20.999Z</time></trkpt><trkpt lat="42.46704461242879" lon="12.364764125962848"><ele>59.0</ele><time>2026-05-01T14:38:21.999Z</time></trkpt><trkpt lat="42.4670072142505" lon="12.365215195054043"><ele>59.0</ele><time>2026-05-01T14:38:22.999Z</time></trkpt><trkpt lat="42.466969944198574" lon="12.365665462834139"><ele>59.0</ele><time>2026-05-01T14:38:23.999Z</time></trkpt><trkpt lat="42.466930367075406" lon="12.366113888354128"><ele>59.0</ele><time>2026-05-01T14:38:24.999Z</time></trkpt><trkpt lat="42.46689093763835" lon="12.366562599920554"><ele>60.0</ele><time>2026-05-01T14:38:25.999Z</time></trkpt><trkpt lat="42.466851923921446" lon="12.36701069179369"><ele>61.0</ele><time>2026-05-01T14:38:26.999Z</time></trkpt><trkpt lat="42.466813126608265" lon="12.36745891424869"><ele>63.0</ele><time>2026-05-01T14:38:27.999Z</time></trkpt><trkpt lat="42.46677548175044" lon="12.367905781173276"><ele>65.0</ele><time>2026-05-01T14:38:28.999Z</time></trkpt><trkpt lat="42.46673713324012" lon="12.36834944621301"><ele>65.5</ele><time>2026-05-01T14:38:29.999Z</time></trkpt><trkpt lat="42.46669801984715" lon="12.36879341729817"><ele>66.0</ele><time>2026-05-01T14:38:30.999Z</time></trkpt><trkpt lat="42.46665913254414" lon="12.369235848569064"><ele>66.5</ele><time>2026-05-01T14:38:31.999Z</time></trkpt><trkpt lat="42.46661966262426" lon="12.36967614551751"><ele>67.0</ele><time>2026-05-01T14:38:32.999Z</time></trkpt><trkpt lat="42.46657983623829" lon="12.370118231291654"><ele>67.0</ele><time>2026-05-01T14:38:33.999Z</time></trkpt><trkpt lat="42.4665409116743" lon="12.370562250989085"><ele>67.0</ele><time>2026-05-01T14:38:34.999Z</time></trkpt><trkpt lat="42.46650134596773" lon="12.371004831400352"><ele>67.0</ele><time>2026-05-01T14:38:35.999Z</time></trkpt><trkpt lat="42.466461335107404" lon="12.371450480821842"><ele>67.0</ele><time>2026-05-01T14:38:36.999Z</time></trkpt><trkpt lat="42.46642212649901" lon="12.371897680968694"><ele>67.0</ele><time>2026-05-01T14:38:37.999Z</time></trkpt><trkpt lat="42.466382210480994" lon="12.372341872093228"><ele>67.0</ele><time>2026-05-01T14:38:38.999Z</time></trkpt><trkpt lat="42.46634073459893" lon="12.372785989483125"><ele>67.5</ele><time>2026-05-01T14:38:39.999Z</time></trkpt><trkpt lat="42.46630116613388" lon="12.373233240136265"><ele>68.0</ele><time>2026-05-01T14:38:40.999Z</time></trkpt><trkpt lat="42.466263057865376" lon="12.373682564166437"><ele>66.5</ele><time>2026-05-01T14:38:41.999Z</time></trkpt><trkpt lat="42.46622609230394" lon="12.37413089075923"><ele>65.0</ele><time>2026-05-01T14:38:42.999Z</time></trkpt><trkpt lat="42.46618694281433" lon="12.374579495166873"><ele>66.5</ele><time>2026-05-01T14:38:43.999Z</time></trkpt><trkpt lat="42.466149005808354" lon="12.375030613219678"><ele>68.0</ele><time>2026-05-01T14:38:44.999Z</time></trkpt><trkpt lat="42.466110378190955" lon="12.375480049792808"><ele>66.5</ele><time>2026-05-01T14:38:45.999Z</time></trkpt><trkpt lat="42.46607173827543" lon="12.375928716655809"><ele>65.0</ele><time>2026-05-01T14:38:46.999Z</time></trkpt><trkpt lat="42.46603266606613" lon="12.376376802458251"><ele>65.0</ele><time>2026-05-01T14:38:47.999Z</time></trkpt><trkpt lat="42.465994927186415" lon="12.376826248349792"><ele>65.0</ele><time>2026-05-01T14:38:48.999Z</time></trkpt><trkpt lat="42.465959023997314" lon="12.377272348636303"><ele>64.5</ele><time>2026-05-01T14:38:49.999Z</time></trkpt><trkpt lat="42.46592133980417" lon="12.377717899704578"><ele>64.0</ele><time>2026-05-01T14:38:50.999Z</time></trkpt><trkpt lat="42.465882477040736" lon="12.378158332874131"><ele>63.5</ele><time>2026-05-01T14:38:51.999Z</time></trkpt><trkpt lat="42.465844335699366" lon="12.378600417285211"><ele>63.0</ele><time>2026-05-01T14:38:52.999Z</time></trkpt><trkpt lat="42.465805847039796" lon="12.379041750580562"><ele>62.5</ele><time>2026-05-01T14:38:53.999Z</time></trkpt><trkpt lat="42.465767719617766" lon="12.37948079802599"><ele>62.0</ele><time>2026-05-01T14:38:54.999Z</time></trkpt><trkpt lat="42.46572988870862" lon="12.379919213746465"><ele>61.0</ele><time>2026-05-01T14:38:55.999Z</time></trkpt><trkpt lat="42.46569230919162" lon="12.38035867410544"><ele>60.0</ele><time>2026-05-01T14:38:56.999Z</time></trkpt><trkpt lat="42.46565327727908" lon="12.380797424281637"><ele>59.0</ele><time>2026-05-01T14:38:57.999Z</time></trkpt><trkpt lat="42.46561281936049" lon="12.381238454360068"><ele>58.0</ele><time>2026-05-01T14:38:58.999Z</time></trkpt><trkpt lat="42.46557268055508" lon="12.381679476516213"><ele>57.5</ele><time>2026-05-01T14:38:59.999Z</time></trkpt><trkpt lat="42.46553283968471" lon="12.382120951471261"><ele>57.0</ele><time>2026-05-01T14:39:00.999Z</time></trkpt><trkpt lat="42.465494374265084" lon="12.382565093719668"><ele>57.0</ele><time>2026-05-01T14:39:01.999Z</time></trkpt><trkpt lat="42.46545672928139" lon="12.38300906216005"><ele>57.0</ele><time>2026-05-01T14:39:02.999Z</time></trkpt><trkpt lat="42.46541910136933" lon="12.383452969004656"><ele>56.0</ele><time>2026-05-01T14:39:03.999Z</time></trkpt><trkpt lat="42.46538083501477" lon="12.383896161448696"><ele>55.0</ele><time>2026-05-01T14:39:04.998Z</time></trkpt><trkpt lat="42.46534110044187" lon="12.384340621503547"><ele>55.0</ele><time>2026-05-01T14:39:05.998Z</time></trkpt><trkpt lat="42.46530075514226" lon="12.384788682581231"><ele>55.0</ele><time>2026-05-01T14:39:06.998Z</time></trkpt><trkpt lat="42.465263163919325" lon="12.385235490082058"><ele>54.0</ele><time>2026-05-01T14:39:07.998Z</time></trkpt><trkpt lat="42.46522640816009" lon="12.385683014390741"><ele>53.0</ele><time>2026-05-01T14:39:08.998Z</time></trkpt><trkpt lat="42.465189033261524" lon="12.386131443297373"><ele>52.5</ele><time>2026-05-01T14:39:09.998Z</time></trkpt><trkpt lat="42.46515195288415" lon="12.38658179940017"><ele>52.0</ele><time>2026-05-01T14:39:10.998Z</time></trkpt><trkpt lat="42.46511514877804" lon="12.38703095485289"><ele>52.0</ele><time>2026-05-01T14:39:11.998Z</time></trkpt><trkpt lat="42.465076386463586" lon="12.387481723327692"><ele>52.0</ele><time>2026-05-01T14:39:12.998Z</time></trkpt><trkpt lat="42.46503660941678" lon="12.387933670478581"><ele>55.0</ele><time>2026-05-01T14:39:13.998Z</time></trkpt><trkpt lat="42.464997942062084" lon="12.388386647614395"><ele>58.0</ele><time>2026-05-01T14:39:14.998Z</time></trkpt><trkpt lat="42.46495793261963" lon="12.388838015362483"><ele>58.0</ele><time>2026-05-01T14:39:15.998Z</time></trkpt><trkpt lat="42.46491109711545" lon="12.38929044972336"><ele>58.0</ele><time>2026-05-01T14:39:16.998Z</time></trkpt><trkpt lat="42.464848765342026" lon="12.389738284672603"><ele>58.0</ele><time>2026-05-01T14:39:17.998Z</time></trkpt><trkpt lat="42.46476291104354" lon="12.390174178371952"><ele>58.0</ele><time>2026-05-01T14:39:18.998Z</time></trkpt><trkpt lat="42.46465737205984" lon="12.390600825961382"><ele>58.5</ele><time>2026-05-01T14:39:19.998Z</time></trkpt><trkpt lat="42.46452905852719" lon="12.3910189246623"><ele>59.0</ele><time>2026-05-01T14:39:20.998Z</time></trkpt><trkpt lat="42.464383947037845" lon="12.3914255344144"><ele>59.0</ele><time>2026-05-01T14:39:21.998Z</time></trkpt><trkpt lat="42.464219920054724" lon="12.39181561815159"><ele>59.0</ele><time>2026-05-01T14:39:22.998Z</time></trkpt><trkpt lat="42.46404049170923" lon="12.392189455984184"><ele>59.0</ele><time>2026-05-01T14:39:23.998Z</time></trkpt><trkpt lat="42.463847513003365" lon="12.392547654117678"><ele>59.0</ele><time>2026-05-01T14:39:24.998Z</time></trkpt><trkpt lat="42.46363396007786" lon="12.392894017793035"><ele>57.5</ele><time>2026-05-01T14:39:25.998Z</time></trkpt><trkpt lat="42.463405834686526" lon="12.393219724847812"><ele>56.0</ele><time>2026-05-01T14:39:26.998Z</time></trkpt><trkpt lat="42.463163009685566" lon="12.39352359708082"><ele>57.0</ele><time>2026-05-01T14:39:27.999Z</time></trkpt><trkpt lat="42.46290710136409" lon="12.393807705513915"><ele>58.0</ele><time>2026-05-01T14:39:28.999Z</time></trkpt><trkpt lat="42.462639819734726" lon="12.394070138196069"><ele>59.0</ele><time>2026-05-01T14:39:29.999Z</time></trkpt><trkpt lat="42.462361069535596" lon="12.39430339231688"><ele>60.0</ele><time>2026-05-01T14:39:30.999Z</time></trkpt><trkpt lat="42.462070110657955" lon="12.394515159663541"><ele>58.0</ele><time>2026-05-01T14:39:31.999Z</time></trkpt><trkpt lat="42.46176942127575" lon="12.394711075013761"><ele>56.0</ele><time>2026-05-01T14:39:32.999Z</time></trkpt><trkpt lat="42.4614620905666" lon="12.394894374501884"><ele>54.0</ele><time>2026-05-01T14:39:33.999Z</time></trkpt><trkpt lat="42.46115394083384" lon="12.395071654930296"><ele>52.0</ele><time>2026-05-01T14:39:34.999Z</time></trkpt><trkpt lat="42.460844590657246" lon="12.395251327916977"><ele>52.0</ele><time>2026-05-01T14:39:35.999Z</time></trkpt><trkpt lat="42.46053551608848" lon="12.395431379208429"><ele>52.0</ele><time>2026-05-01T14:39:36.999Z</time></trkpt><trkpt lat="42.46022578877668" lon="12.395611547094996"><ele>56.0</ele><time>2026-05-01T14:39:37.999Z</time></trkpt><trkpt lat="42.45991661898744" lon="12.395793008154786"><ele>60.0</ele><time>2026-05-01T14:39:38.999Z</time></trkpt><trkpt lat="42.45960793819495" lon="12.395975002531305"><ele>60.0</ele><time>2026-05-01T14:39:39.999Z</time></trkpt><trkpt lat="42.45930029570163" lon="12.396156969344075"><ele>60.0</ele><time>2026-05-01T14:39:40.999Z</time></trkpt><trkpt lat="42.458992601697574" lon="12.396338842436297"><ele>60.0</ele><time>2026-05-01T14:39:41.999Z</time></trkpt><trkpt lat="42.45868415310758" lon="12.396517265140709"><ele>60.0</ele><time>2026-05-01T14:39:42.999Z</time></trkpt><trkpt lat="42.45837756188536" lon="12.396694793780028"><ele>60.0</ele><time>2026-05-01T14:39:43.999Z</time></trkpt><trkpt lat="42.45807384220472" lon="12.396873310910454"><ele>60.0</ele><time>2026-05-01T14:39:44.999Z</time></trkpt><trkpt lat="42.4577698696885" lon="12.397052493132769"><ele>58.5</ele><time>2026-05-01T14:39:45.999Z</time></trkpt><trkpt lat="42.45746672279335" lon="12.397232301476826"><ele>57.0</ele><time>2026-05-01T14:39:46.999Z</time></trkpt><trkpt lat="42.45716922726727" lon="12.397411016293743"><ele>58.5</ele><time>2026-05-01T14:39:47.999Z</time></trkpt><trkpt lat="42.45687782745227" lon="12.397586652507062"><ele>60.0</ele><time>2026-05-01T14:39:48.999Z</time></trkpt><trkpt lat="42.45658469251038" lon="12.397763441793277"><ele>60.0</ele><time>2026-05-01T14:39:49.999Z</time></trkpt><trkpt lat="42.45628903325701" lon="12.397943660409256"><ele>60.0</ele><time>2026-05-01T14:39:50.999Z</time></trkpt><trkpt lat="42.4559912533574" lon="12.398125451204237"><ele>64.5</ele><time>2026-05-01T14:39:51.999Z</time></trkpt><trkpt lat="42.45569424731255" lon="12.398311833406362"><ele>69.0</ele><time>2026-05-01T14:39:52.999Z</time></trkpt><trkpt lat="42.45539649108576" lon="12.398512566081019"><ele>69.0</ele><time>2026-05-01T14:39:53.999Z</time></trkpt><trkpt lat="42.45510345504189" lon="12.39872799433957"><ele>69.0</ele><time>2026-05-01T14:39:54.999Z</time></trkpt><trkpt lat="42.454816565593084" lon="12.39895607178097"><ele>69.0</ele><time>2026-05-01T14:39:55.999Z</time></trkpt><trkpt lat="42.45453101451634" lon="12.399192575792183"><ele>69.0</ele><time>2026-05-01T14:39:56.999Z</time></trkpt><trkpt lat="42.454252948748454" lon="12.399447981033099"><ele>71.5</ele><time>2026-05-01T14:39:57.999Z</time></trkpt><trkpt lat="42.45398341051896" lon="12.399719847533401"><ele>74.0</ele><time>2026-05-01T14:39:58.999Z</time></trkpt><trkpt lat="42.45372576456454" lon="12.400011147036361"><ele>71.0</ele><time>2026-05-01T14:39:59.999Z</time></trkpt><trkpt lat="42.453478393831375" lon="12.400320028501698"><ele>68.0</ele><time>2026-05-01T14:40:00.999Z</time></trkpt><trkpt lat="42.453237628871776" lon="12.400640728723676"><ele>68.0</ele><time>2026-05-01T14:40:01.999Z</time></trkpt><trkpt lat="42.453006502390885" lon="12.400970003637525"><ele>68.0</ele><time>2026-05-01T14:40:02.999Z</time></trkpt><trkpt lat="42.45278406337847" lon="12.401311184630726"><ele>64.5</ele><time>2026-05-01T14:40:03.999Z</time></trkpt><trkpt lat="42.45257538978871" lon="12.401665214405414"><ele>61.0</ele><time>2026-05-01T14:40:04.999Z</time></trkpt><trkpt lat="42.452380347067766" lon="12.402030080799868"><ele>60.0</ele><time>2026-05-01T14:40:05.999Z</time></trkpt><trkpt lat="42.45219723749094" lon="12.402402302977407"><ele>59.0</ele><time>2026-05-01T14:40:06.999Z</time></trkpt><trkpt lat="42.45202932900087" lon="12.402781303701902"><ele>57.0</ele><time>2026-05-01T14:40:07.999Z</time></trkpt><trkpt lat="42.45187149949946" lon="12.403166604831531"><ele>55.0</ele><time>2026-05-01T14:40:08.999Z</time></trkpt><trkpt lat="42.451719765089756" lon="12.403554511352189"><ele>55.5</ele><time>2026-05-01T14:40:09.999Z</time></trkpt><trkpt lat="42.45157811906214" lon="12.403952003814654"><ele>56.0</ele><time>2026-05-01T14:40:10.999Z</time></trkpt><trkpt lat="42.451446230799725" lon="12.40435335275891"><ele>55.5</ele><time>2026-05-01T14:40:11.999Z</time></trkpt><trkpt lat="42.45131900090355" lon="12.404756911183718"><ele>55.0</ele><time>2026-05-01T14:40:12.999Z</time></trkpt><trkpt lat="42.45119202899808" lon="12.4051643744885"><ele>53.0</ele><time>2026-05-01T14:40:13.999Z</time></trkpt><trkpt lat="42.45106524903683" lon="12.405567911672767"><ele>51.0</ele><time>2026-05-01T14:40:14.999Z</time></trkpt><trkpt lat="42.45093484815005" lon="12.40597290505302"><ele>51.5</ele><time>2026-05-01T14:40:15.999Z</time></trkpt><trkpt lat="42.45080552007222" lon="12.406380275624839"><ele>52.0</ele><time>2026-05-01T14:40:16.999Z</time></trkpt><trkpt lat="42.45067619212098" lon="12.406789920440374"><ele>52.5</ele><time>2026-05-01T14:40:17.999Z</time></trkpt><trkpt lat="42.45054679746489" lon="12.407194508044334"><ele>53.0</ele><time>2026-05-01T14:40:18.999Z</time></trkpt><trkpt lat="42.450421148196554" lon="12.407584084718742"><ele>53.0</ele><time>2026-05-01T14:40:19.999Z</time></trkpt><trkpt lat="42.4502986906171" lon="12.407961066574236"><ele>53.0</ele><time>2026-05-01T14:40:20.999Z</time></trkpt><trkpt lat="42.45017736963862" lon="12.40832748412168"><ele>53.0</ele><time>2026-05-01T14:40:21.999Z</time></trkpt><trkpt lat="42.45005986984777" lon="12.408680804225211"><ele>53.0</ele><time>2026-05-01T14:40:22.999Z</time></trkpt><trkpt lat="42.449944781804504" lon="12.409020597203321"><ele>53.0</ele><time>2026-05-01T14:40:23.999Z</time></trkpt><trkpt lat="42.4498342013795" lon="12.409352796172449"><ele>53.0</ele><time>2026-05-01T14:40:24.999Z</time></trkpt><trkpt lat="42.44972866015608" lon="12.409677819366728"><ele>52.5</ele><time>2026-05-01T14:40:25.999Z</time></trkpt><trkpt lat="42.4496268402063" lon="12.409997141039147"><ele>52.0</ele><time>2026-05-01T14:40:26.999Z</time></trkpt><trkpt lat="42.44952400290157" lon="12.410314794272093"><ele>51.5</ele><time>2026-05-01T14:40:27.999Z</time></trkpt><trkpt lat="42.44942112433099" lon="12.410630514961445"><ele>51.0</ele><time>2026-05-01T14:40:28.999Z</time></trkpt><trkpt lat="42.44931663365899" lon="12.410953806692508"><ele>51.0</ele><time>2026-05-01T14:40:29.999Z</time></trkpt><trkpt lat="42.44920847200873" lon="12.411284306879605"><ele>51.0</ele><time>2026-05-01T14:40:30.999Z</time></trkpt><trkpt lat="42.44909642853439" lon="12.411622878594676"><ele>50.5</ele><time>2026-05-01T14:40:31.999Z</time></trkpt><trkpt lat="42.44898277400878" lon="12.411973317204248"><ele>50.0</ele><time>2026-05-01T14:40:32.999Z</time></trkpt><trkpt lat="42.44886971705001" lon="12.412333736626458"><ele>49.5</ele><time>2026-05-01T14:40:33.999Z</time></trkpt><trkpt lat="42.44875639051027" lon="12.41270272252226"><ele>49.0</ele><time>2026-05-01T14:40:34.999Z</time></trkpt><trkpt lat="42.44864097141654" lon="12.413072752086784"><ele>49.0</ele><time>2026-05-01T14:40:35.999Z</time></trkpt><trkpt lat="42.44852426758432" lon="12.413440931110799"><ele>49.0</ele><time>2026-05-01T14:40:36.999Z</time></trkpt><trkpt lat="42.448400394927646" lon="12.413807054869258"><ele>49.0</ele><time>2026-05-01T14:40:37.999Z</time></trkpt><trkpt lat="42.44826466930909" lon="12.414157629451928"><ele>49.0</ele><time>2026-05-01T14:40:38.999Z</time></trkpt><trkpt lat="42.448113305024485" lon="12.414490156188206"><ele>48.5</ele><time>2026-05-01T14:40:39.999Z</time></trkpt><trkpt lat="42.44794833642708" lon="12.414810747094968"><ele>48.0</ele><time>2026-05-01T14:40:40.999Z</time></trkpt><trkpt lat="42.44776673719209" lon="12.415118417752355"><ele>48.0</ele><time>2026-05-01T14:40:41.999Z</time></trkpt><trkpt lat="42.447575441517735" lon="12.415414974298818"><ele>48.0</ele><time>2026-05-01T14:40:42.999Z</time></trkpt><trkpt lat="42.44737630411015" lon="12.41569841974512"><ele>49.0</ele><time>2026-05-01T14:40:43.999Z</time></trkpt><trkpt lat="42.44716829923013" lon="12.415969854891712"><ele>50.0</ele><time>2026-05-01T14:40:44.999Z</time></trkpt><trkpt lat="42.446951557228104" lon="12.416222183146365"><ele>54.0</ele><time>2026-05-01T14:40:45.999Z</time></trkpt><trkpt lat="42.44672619967446" lon="12.416454564612168"><ele>58.0</ele><time>2026-05-01T14:40:46.999Z</time></trkpt><trkpt lat="42.44648849017923" lon="12.416672893360602"><ele>57.0</ele><time>2026-05-01T14:40:47.999Z</time></trkpt><trkpt lat="42.44623599008329" lon="12.416881198189953"><ele>56.0</ele><time>2026-05-01T14:40:48.999Z</time></trkpt><trkpt lat="42.44596620143352" lon="12.417078102148185"><ele>57.0</ele><time>2026-05-01T14:40:49.999Z</time></trkpt><trkpt lat="42.44567596185921" lon="12.417253483619195"><ele>58.0</ele><time>2026-05-01T14:40:50.999Z</time></trkpt><trkpt lat="42.445377234739" lon="12.41740826561927"><ele>58.0</ele><time>2026-05-01T14:40:51.999Z</time></trkpt><trkpt lat="42.44506711066461" lon="12.417538583855828"><ele>58.0</ele><time>2026-05-01T14:40:52.999Z</time></trkpt><trkpt lat="42.444746677220735" lon="12.41764474220551"><ele>55.5</ele><time>2026-05-01T14:40:53.999Z</time></trkpt><trkpt lat="42.444421088634705" lon="12.417739277169602"><ele>53.0</ele><time>2026-05-01T14:40:54.999Z</time></trkpt><trkpt lat="42.44408989955269" lon="12.417826075330877"><ele>52.0</ele><time>2026-05-01T14:40:55.999Z</time></trkpt><trkpt lat="42.4437605007031" lon="12.417913374784685"><ele>51.0</ele><time>2026-05-01T14:40:56.999Z</time></trkpt><trkpt lat="42.443430679341425" lon="12.418002670714317"><ele>53.5</ele><time>2026-05-01T14:40:57.999Z</time></trkpt><trkpt lat="42.44310028673461" lon="12.418092265150854"><ele>56.0</ele><time>2026-05-01T14:40:58.999Z</time></trkpt><trkpt lat="42.44277051514856" lon="12.418182416477977"><ele>56.0</ele><time>2026-05-01T14:40:59.999Z</time></trkpt><trkpt lat="42.4424398319173" lon="12.418271992737095"><ele>56.0</ele><time>2026-05-01T14:41:00.999Z</time></trkpt><trkpt lat="42.44210747114196" lon="12.418366537562168"><ele>52.5</ele><time>2026-05-01T14:41:01.999Z</time></trkpt><trkpt lat="42.441776613310935" lon="12.418469078230952"><ele>49.0</ele><time>2026-05-01T14:41:02.999Z</time></trkpt><trkpt lat="42.44144817159498" lon="12.418577907190043"><ele>49.0</ele><time>2026-05-01T14:41:03.999Z</time></trkpt><trkpt lat="42.44112079753167" lon="12.418688088418364"><ele>49.0</ele><time>2026-05-01T14:41:04.999Z</time></trkpt><trkpt lat="42.44079345125872" lon="12.41879601213302"><ele>51.0</ele><time>2026-05-01T14:41:05.999Z</time></trkpt><trkpt lat="42.44046674140731" lon="12.41890373193957"><ele>53.0</ele><time>2026-05-01T14:41:06.999Z</time></trkpt><trkpt lat="42.44014103467148" lon="12.419012071726428"><ele>53.0</ele><time>2026-05-01T14:41:07.999Z</time></trkpt><trkpt lat="42.43981549201967" lon="12.419123258611934"><ele>53.0</ele><time>2026-05-01T14:41:08.999Z</time></trkpt><trkpt lat="42.43949023863668" lon="12.419234637050158"><ele>51.0</ele><time>2026-05-01T14:41:09.999Z</time></trkpt><trkpt lat="42.43916635649376" lon="12.419343886001622"><ele>49.0</ele><time>2026-05-01T14:41:10.999Z</time></trkpt><trkpt lat="42.43884157028574" lon="12.419452177479963"><ele>47.5</ele><time>2026-05-01T14:41:11.999Z</time></trkpt><trkpt lat="42.43851578738337" lon="12.41956143321414"><ele>46.0</ele><time>2026-05-01T14:41:12.999Z</time></trkpt><trkpt lat="42.43818934279825" lon="12.419674159248972"><ele>51.0</ele><time>2026-05-01T14:41:13.999Z</time></trkpt><trkpt lat="42.43786345167334" lon="12.41978962287175"><ele>56.0</ele><time>2026-05-01T14:41:14.999Z</time></trkpt><trkpt lat="42.43753902741132" lon="12.419908451783146"><ele>56.0</ele><time>2026-05-01T14:41:15.999Z</time></trkpt><trkpt lat="42.43721601184744" lon="12.420034490503351"><ele>56.0</ele><time>2026-05-01T14:41:16.999Z</time></trkpt><trkpt lat="42.436898030591536" lon="12.420184209767305"><ele>57.5</ele><time>2026-05-01T14:41:17.999Z</time></trkpt><trkpt lat="42.43659152854614" lon="12.420357653242636"><ele>59.0</ele><time>2026-05-01T14:41:18.999Z</time></trkpt><trkpt lat="42.43629485286715" lon="12.420559078585077"><ele>59.0</ele><time>2026-05-01T14:41:19.999Z</time></trkpt><trkpt lat="42.43600705592872" lon="12.42078278482216"><ele>59.0</ele><time>2026-05-01T14:41:20.999Z</time></trkpt><trkpt lat="42.435729091866236" lon="12.42103135547253"><ele>59.0</ele><time>2026-05-01T14:41:21.999Z</time></trkpt><trkpt lat="42.43546391617301" lon="12.421304426758054"><ele>59.0</ele><time>2026-05-01T14:41:22.999Z</time></trkpt><trkpt lat="42.4352131124346" lon="12.421598806949323"><ele>59.0</ele><time>2026-05-01T14:41:23.999Z</time></trkpt><trkpt lat="42.43497154933952" lon="12.421911929072953"><ele>59.0</ele><time>2026-05-01T14:41:24.999Z</time></trkpt><trkpt lat="42.43474014888947" lon="12.422239961395922"><ele>59.0</ele><time>2026-05-01T14:41:25.999Z</time></trkpt><trkpt lat="42.43451578975514" lon="12.422578927382958"><ele>59.0</ele><time>2026-05-01T14:41:26.999Z</time></trkpt><trkpt lat="42.43429162370904" lon="12.422922014366671"><ele>60.5</ele><time>2026-05-01T14:41:27.998Z</time></trkpt><trkpt lat="42.43406314308654" lon="12.423260418334344"><ele>62.0</ele><time>2026-05-01T14:41:28.998Z</time></trkpt><trkpt lat="42.433832371808684" lon="12.423595604165328"><ele>60.5</ele><time>2026-05-01T14:41:29.998Z</time></trkpt><trkpt lat="42.43360252440845" lon="12.423932322718857"><ele>59.0</ele><time>2026-05-01T14:41:30.998Z</time></trkpt><trkpt lat="42.43337304532559" lon="12.424270854504918"><ele>59.0</ele><time>2026-05-01T14:41:31.998Z</time></trkpt><trkpt lat="42.43314559755325" lon="12.424610375858919"><ele>59.0</ele><time>2026-05-01T14:41:32.999Z</time></trkpt><trkpt lat="42.4329190455766" lon="12.424949282916334"><ele>59.0</ele><time>2026-05-01T14:41:33.999Z</time></trkpt><trkpt lat="42.43269004010058" lon="12.4252872226463"><ele>59.0</ele><time>2026-05-01T14:41:34.999Z</time></trkpt><trkpt lat="42.43246099042738" lon="12.425623277962702"><ele>58.5</ele><time>2026-05-01T14:41:35.999Z</time></trkpt><trkpt lat="42.4322327523503" lon="12.425959003903944"><ele>58.0</ele><time>2026-05-01T14:41:36.999Z</time></trkpt><trkpt lat="42.43200474504584" lon="12.42629569713997"><ele>55.5</ele><time>2026-05-01T14:41:37.999Z</time></trkpt><trkpt lat="42.43177865973596" lon="12.426631999922943"><ele>53.0</ele><time>2026-05-01T14:41:38.999Z</time></trkpt><trkpt lat="42.43155001915767" lon="12.426968810589006"><ele>53.0</ele><time>2026-05-01T14:41:39.999Z</time></trkpt><trkpt lat="42.43132309866629" lon="12.427303181253038"><ele>53.0</ele><time>2026-05-01T14:41:40.999Z</time></trkpt><trkpt lat="42.43109868368004" lon="12.427637575624109"><ele>53.0</ele><time>2026-05-01T14:41:41.999Z</time></trkpt><trkpt lat="42.43087440813353" lon="12.427973246346191"><ele>53.0</ele><time>2026-05-01T14:41:42.999Z</time></trkpt><trkpt lat="42.43064861973752" lon="12.428307593323611"><ele>53.0</ele><time>2026-05-01T14:41:43.999Z</time></trkpt><trkpt lat="42.43042189714559" lon="12.428640000904256"><ele>53.0</ele><time>2026-05-01T14:41:44.999Z</time></trkpt><trkpt lat="42.430194881122794" lon="12.428973314657036"><ele>53.5</ele><time>2026-05-01T14:41:45.999Z</time></trkpt><trkpt lat="42.42996566043171" lon="12.429306042559531"><ele>54.0</ele><time>2026-05-01T14:41:46.999Z</time></trkpt><trkpt lat="42.42973489185946" lon="12.429638163744388"><ele>54.5</ele><time>2026-05-01T14:41:47.999Z</time></trkpt><trkpt lat="42.42950538474847" lon="12.429968618547559"><ele>55.0</ele><time>2026-05-01T14:41:48.999Z</time></trkpt><trkpt lat="42.42927293644625" lon="12.430295047365513"><ele>55.0</ele><time>2026-05-01T14:41:49.999Z</time></trkpt><trkpt lat="42.42903468726663" lon="12.430615775300806"><ele>55.0</ele><time>2026-05-01T14:41:50.999Z</time></trkpt><trkpt lat="42.42879195245813" lon="12.43092649903779"><ele>55.0</ele><time>2026-05-01T14:41:51.999Z</time></trkpt><trkpt lat="42.42854317303429" lon="12.431226805470336"><ele>55.0</ele><time>2026-05-01T14:41:52.999Z</time></trkpt><trkpt lat="42.42829049705299" lon="12.431515146299999"><ele>54.5</ele><time>2026-05-01T14:41:53.999Z</time></trkpt><trkpt lat="42.428034199806376" lon="12.431791649100955"><ele>54.0</ele><time>2026-05-01T14:41:54.999Z</time></trkpt><trkpt lat="42.42777310295398" lon="12.432065207057626"><ele>53.0</ele><time>2026-05-01T14:41:55.999Z</time></trkpt><trkpt lat="42.4275042380734" lon="12.432333334379656"><ele>52.0</ele><time>2026-05-01T14:41:56.999Z</time></trkpt><trkpt lat="42.42723079636543" lon="12.43259573693251"><ele>50.0</ele><time>2026-05-01T14:41:57.999Z</time></trkpt><trkpt lat="42.42695214112333" lon="12.432848973115847"><ele>48.0</ele><time>2026-05-01T14:41:58.999Z</time></trkpt><trkpt lat="42.42666755298029" lon="12.433089620498036"><ele>48.0</ele><time>2026-05-01T14:41:59.999Z</time></trkpt><trkpt lat="42.42637817876799" lon="12.433322013659787"><ele>48.0</ele><time>2026-05-01T14:42:00.999Z</time></trkpt><trkpt lat="42.42608698815076" lon="12.433551936746978"><ele>48.5</ele><time>2026-05-01T14:42:01.999Z</time></trkpt><trkpt lat="42.42579293081417" lon="12.433778753966296"><ele>49.0</ele><time>2026-05-01T14:42:02.999Z</time></trkpt><trkpt lat="42.42549715307282" lon="12.434003721570212"><ele>46.0</ele><time>2026-05-01T14:42:03.999Z</time></trkpt><trkpt lat="42.425200476494794" lon="12.434228881377036"><ele>43.0</ele><time>2026-05-01T14:42:04.999Z</time></trkpt><trkpt lat="42.42490538379041" lon="12.43445502752657"><ele>45.5</ele><time>2026-05-01T14:42:05.999Z</time></trkpt><trkpt lat="42.4246121539268" lon="12.434679572441913"><ele>48.0</ele><time>2026-05-01T14:42:06.999Z</time></trkpt><trkpt lat="42.42431745357807" lon="12.43490262168178"><ele>48.0</ele><time>2026-05-01T14:42:07.999Z</time></trkpt><trkpt lat="42.42402391212651" lon="12.435125431307005"><ele>48.0</ele><time>2026-05-01T14:42:08.999Z</time></trkpt><trkpt lat="42.42373164133025" lon="12.435345464289046"><ele>48.0</ele><time>2026-05-01T14:42:09.999Z</time></trkpt><trkpt lat="42.42344070638401" lon="12.435564732677381"><ele>48.0</ele><time>2026-05-01T14:42:10.999Z</time></trkpt><trkpt lat="42.42315077879411" lon="12.435784318873509"><ele>46.5</ele><time>2026-05-01T14:42:11.999Z</time></trkpt><trkpt lat="42.42286492288867" lon="12.43600028472267"><ele>45.0</ele><time>2026-05-01T14:42:12.999Z</time></trkpt><trkpt lat="42.42258272652947" lon="12.436211767629018"><ele>45.0</ele><time>2026-05-01T14:42:13.999Z</time></trkpt><trkpt lat="42.4223027320211" lon="12.436423856357049"><ele>45.0</ele><time>2026-05-01T14:42:14.999Z</time></trkpt><trkpt lat="42.422025229841" lon="12.436635349374837"><ele>45.0</ele><time>2026-05-01T14:42:15.999Z</time></trkpt><trkpt lat="42.4217488761944" lon="12.436842954460428"><ele>45.0</ele><time>2026-05-01T14:42:16.999Z</time></trkpt><trkpt lat="42.42147575404153" lon="12.437047850972284"><ele>44.5</ele><time>2026-05-01T14:42:17.999Z</time></trkpt><trkpt lat="42.421204465649154" lon="12.43725124014119"><ele>44.0</ele><time>2026-05-01T14:42:18.999Z</time></trkpt><trkpt lat="42.420934684182726" lon="12.437455862034588"><ele>44.0</ele><time>2026-05-01T14:42:19.999Z</time></trkpt><trkpt lat="42.420663895333696" lon="12.437662533831366"><ele>44.0</ele><time>2026-05-01T14:42:20.999Z</time></trkpt><trkpt lat="42.42039168036782" lon="12.437869576202285"><ele>45.0</ele><time>2026-05-01T14:42:21.999Z</time></trkpt><trkpt lat="42.420118367001756" lon="12.438075177109544"><ele>46.0</ele><time>2026-05-01T14:42:22.999Z</time></trkpt><trkpt lat="42.41984075831961" lon="12.438284725095722"><ele>45.5</ele><time>2026-05-01T14:42:23.999Z</time></trkpt><trkpt lat="42.41955743839944" lon="12.438500517521465"><ele>45.0</ele><time>2026-05-01T14:42:24.999Z</time></trkpt><trkpt lat="42.41927143804785" lon="12.438716636589175"><ele>45.0</ele><time>2026-05-01T14:42:25.999Z</time></trkpt><trkpt lat="42.418982538026185" lon="12.438936475893508"><ele>45.0</ele><time>2026-05-01T14:42:26.999Z</time></trkpt><trkpt lat="42.41869359300746" lon="12.43915674718722"><ele>46.0</ele><time>2026-05-01T14:42:27.999Z</time></trkpt><trkpt lat="42.41840310429156" lon="12.439380081409833"><ele>47.0</ele><time>2026-05-01T14:42:28.999Z</time></trkpt><trkpt lat="42.41811122729959" lon="12.439605142199726"><ele>48.0</ele><time>2026-05-01T14:42:29.999Z</time></trkpt><trkpt lat="42.41781873697044" lon="12.439830224745494"><ele>49.0</ele><time>2026-05-01T14:42:30.999Z</time></trkpt><trkpt lat="42.417525440244525" lon="12.440054180243655"><ele>49.0</ele><time>2026-05-01T14:42:31.999Z</time></trkpt><trkpt lat="42.41723245591902" lon="12.440278452827613"><ele>49.0</ele><time>2026-05-01T14:42:32.999Z</time></trkpt><trkpt lat="42.416937056606166" lon="12.440501740605344"><ele>47.0</ele><time>2026-05-01T14:42:33.999Z</time></trkpt><trkpt lat="42.41664217296121" lon="12.440724446360425"><ele>45.0</ele><time>2026-05-01T14:42:34.999Z</time></trkpt><trkpt lat="42.41634968866108" lon="12.440949362865698"><ele>45.0</ele><time>2026-05-01T14:42:35.999Z</time></trkpt><trkpt lat="42.41605969405838" lon="12.44117976563945"><ele>45.0</ele><time>2026-05-01T14:42:36.999Z</time></trkpt><trkpt lat="42.41577420421678" lon="12.441419535775568"><ele>44.5</ele><time>2026-05-01T14:42:37.999Z</time></trkpt><trkpt lat="42.41549133518903" lon="12.441665415158976"><ele>44.0</ele><time>2026-05-01T14:42:38.999Z</time></trkpt><trkpt lat="42.41521203485241" lon="12.441916378249703"><ele>44.0</ele><time>2026-05-01T14:42:39.999Z</time></trkpt><trkpt lat="42.41493661982265" lon="12.442173140528189"><ele>44.0</ele><time>2026-05-01T14:42:40.999Z</time></trkpt><trkpt lat="42.41466692365583" lon="12.44243895355054"><ele>44.0</ele><time>2026-05-01T14:42:41.999Z</time></trkpt><trkpt lat="42.41440003651997" lon="12.442710512964593"><ele>44.0</ele><time>2026-05-01T14:42:42.999Z</time></trkpt><trkpt lat="42.414138233614516" lon="12.442991648230581"><ele>44.0</ele><time>2026-05-01T14:42:43.999Z</time></trkpt><trkpt lat="42.41387780408885" lon="12.443271761367468"><ele>44.0</ele><time>2026-05-01T14:42:44.999Z</time></trkpt><trkpt lat="42.41362097678042" lon="12.443556437501432"><ele>44.0</ele><time>2026-05-01T14:42:45.999Z</time></trkpt><trkpt lat="42.41336260650591" lon="12.443838028657611"><ele>44.0</ele><time>2026-05-01T14:42:46.999Z</time></trkpt><trkpt lat="42.41310452925031" lon="12.44412206008495"><ele>44.5</ele><time>2026-05-01T14:42:47.999Z</time></trkpt><trkpt lat="42.41284309364751" lon="12.444400905832872"><ele>45.0</ele><time>2026-05-01T14:42:48.999Z</time></trkpt><trkpt lat="42.41258440464826" lon="12.44468051844653"><ele>45.0</ele><time>2026-05-01T14:42:49.999Z</time></trkpt><trkpt lat="42.41232663909337" lon="12.444961018118665"><ele>45.0</ele><time>2026-05-01T14:42:50.999Z</time></trkpt><trkpt lat="42.41206954757746" lon="12.445243038491192"><ele>44.5</ele><time>2026-05-01T14:42:51.999Z</time></trkpt><trkpt lat="42.41181080197632" lon="12.44552682830814"><ele>44.0</ele><time>2026-05-01T14:42:52.999Z</time></trkpt><trkpt lat="42.41154931354252" lon="12.445810268513334"><ele>44.0</ele><time>2026-05-01T14:42:53.999Z</time></trkpt><trkpt lat="42.4112886414856" lon="12.446092360152107"><ele>44.0</ele><time>2026-05-01T14:42:54.999Z</time></trkpt><trkpt lat="42.41102652226416" lon="12.446377049167994"><ele>44.5</ele><time>2026-05-01T14:42:55.999Z</time></trkpt><trkpt lat="42.41076198141823" lon="12.446661169347301"><ele>45.0</ele><time>2026-05-01T14:42:56.999Z</time></trkpt><trkpt lat="42.41049758988093" lon="12.446944476722868"><ele>46.5</ele><time>2026-05-01T14:42:57.999Z</time></trkpt><trkpt lat="42.410232965683015" lon="12.44722673041836"><ele>48.0</ele><time>2026-05-01T14:42:58.999Z</time></trkpt><trkpt lat="42.40996845395181" lon="12.447511950703234"><ele>48.0</ele><time>2026-05-01T14:42:59.999Z</time></trkpt><trkpt lat="42.40970334901422" lon="12.447798765801522"><ele>48.0</ele><time>2026-05-01T14:43:00.999Z</time></trkpt><trkpt lat="42.40943854329809" lon="12.44808464542823"><ele>46.0</ele><time>2026-05-01T14:43:01.999Z</time></trkpt><trkpt lat="42.40917385402134" lon="12.44836804456418"><ele>44.0</ele><time>2026-05-01T14:43:02.999Z</time></trkpt><trkpt lat="42.40891063120883" lon="12.448650815077414"><ele>44.0</ele><time>2026-05-01T14:43:03.999Z</time></trkpt><trkpt lat="42.40864709744104" lon="12.448936063486961"><ele>44.0</ele><time>2026-05-01T14:43:04.999Z</time></trkpt><trkpt lat="42.408386684772545" lon="12.449217802490223"><ele>44.0</ele><time>2026-05-01T14:43:05.999Z</time></trkpt><trkpt lat="42.408126151769494" lon="12.449495839697105"><ele>44.0</ele><time>2026-05-01T14:43:06.999Z</time></trkpt><trkpt lat="42.40786722656534" lon="12.449772935885784"><ele>43.0</ele><time>2026-05-01T14:43:07.999Z</time></trkpt><trkpt lat="42.40760933985088" lon="12.450052039382633"><ele>42.0</ele><time>2026-05-01T14:43:08.999Z</time></trkpt><trkpt lat="42.40735248931857" lon="12.45033039027618"><ele>43.5</ele><time>2026-05-01T14:43:09.999Z</time></trkpt><trkpt lat="42.40709482956166" lon="12.450607160806967"><ele>45.0</ele><time>2026-05-01T14:43:10.999Z</time></trkpt><trkpt lat="42.406838158854335" lon="12.45088492304299"><ele>45.0</ele><time>2026-05-01T14:43:11.999Z</time></trkpt><trkpt lat="42.40658128337185" lon="12.451160749177312"><ele>45.0</ele><time>2026-05-01T14:43:12.999Z</time></trkpt><trkpt lat="42.40632490466156" lon="12.451437577012165"><ele>45.0</ele><time>2026-05-01T14:43:13.999Z</time></trkpt><trkpt lat="42.406070019333434" lon="12.451715077051004"><ele>45.0</ele><time>2026-05-01T14:43:14.999Z</time></trkpt><trkpt lat="42.40581300038387" lon="12.451993746686421"><ele>44.0</ele><time>2026-05-01T14:43:15.999Z</time></trkpt><trkpt lat="42.40555611112659" lon="12.45227166909368"><ele>43.0</ele><time>2026-05-01T14:43:16.999Z</time></trkpt><trkpt lat="42.405297582236315" lon="12.452550249349795"><ele>42.5</ele><time>2026-05-01T14:43:17.999Z</time></trkpt><trkpt lat="42.405039327585335" lon="12.452830726051474"><ele>42.0</ele><time>2026-05-01T14:43:18.999Z</time></trkpt><trkpt lat="42.40477874887062" lon="12.453112972616301"><ele>42.0</ele><time>2026-05-01T14:43:19.999Z</time></trkpt><trkpt lat="42.40451727684566" lon="12.453394553863063"><ele>42.0</ele><time>2026-05-01T14:43:20.999Z</time></trkpt><trkpt lat="42.40425639579668" lon="12.453674622031828"><ele>42.0</ele><time>2026-05-01T14:43:21.999Z</time></trkpt><trkpt lat="42.40399599001362" lon="12.45395523457548"><ele>42.0</ele><time>2026-05-01T14:43:22.999Z</time></trkpt><trkpt lat="42.40373683298603" lon="12.454234301747377"><ele>42.0</ele><time>2026-05-01T14:43:23.999Z</time></trkpt><trkpt lat="42.40347983544701" lon="12.4545110606404"><ele>42.0</ele><time>2026-05-01T14:43:24.999Z</time></trkpt><trkpt lat="42.403223257238466" lon="12.45478735182368"><ele>42.5</ele><time>2026-05-01T14:43:25.999Z</time></trkpt><trkpt lat="42.402964272363825" lon="12.455061631714873"><ele>43.0</ele><time>2026-05-01T14:43:26.999Z</time></trkpt><trkpt lat="42.402703742789804" lon="12.455337570495692"><ele>43.0</ele><time>2026-05-01T14:43:27.999Z</time></trkpt><trkpt lat="42.402444831078185" lon="12.455613977253432"><ele>43.0</ele><time>2026-05-01T14:43:28.999Z</time></trkpt><trkpt lat="42.402186214417064" lon="12.455890609159109"><ele>43.5</ele><time>2026-05-01T14:43:29.999Z</time></trkpt><trkpt lat="42.4019270694851" lon="12.4561672773007"><ele>44.0</ele><time>2026-05-01T14:43:30.999Z</time></trkpt><trkpt lat="42.40166628370973" lon="12.456446052673446"><ele>44.0</ele><time>2026-05-01T14:43:31.999Z</time></trkpt><trkpt lat="42.401403376233525" lon="12.45672814206398"><ele>44.0</ele><time>2026-05-01T14:43:32.999Z</time></trkpt><trkpt lat="42.40114297768751" lon="12.457009463728342"><ele>44.5</ele><time>2026-05-01T14:43:33.999Z</time></trkpt><trkpt lat="42.4008822213732" lon="12.457290628212084"><ele>45.0</ele><time>2026-05-01T14:43:34.999Z</time></trkpt><trkpt lat="42.40062208692043" lon="12.457570294615154"><ele>47.0</ele><time>2026-05-01T14:43:35.999Z</time></trkpt><trkpt lat="42.400357903058065" lon="12.457853956407098"><ele>49.0</ele><time>2026-05-01T14:43:36.999Z</time></trkpt><trkpt lat="42.40009513546194" lon="12.458136131695726"><ele>49.0</ele><time>2026-05-01T14:43:37.998Z</time></trkpt><trkpt lat="42.399828520727155" lon="12.458412667646634"><ele>49.0</ele><time>2026-05-01T14:43:38.999Z</time></trkpt><trkpt lat="42.399560982829854" lon="12.458683262481141"><ele>49.5</ele><time>2026-05-01T14:43:39.999Z</time></trkpt><trkpt lat="42.39928991477483" lon="12.458947405570886"><ele>50.0</ele><time>2026-05-01T14:43:40.999Z</time></trkpt><trkpt lat="42.399018057604074" lon="12.459210825648618"><ele>49.5</ele><time>2026-05-01T14:43:41.999Z</time></trkpt><trkpt lat="42.39874388109077" lon="12.4594739005716"><ele>49.0</ele><time>2026-05-01T14:43:42.999Z</time></trkpt><trkpt lat="42.398471912242556" lon="12.459735766381474"><ele>49.0</ele><time>2026-05-01T14:43:43.999Z</time></trkpt><trkpt lat="42.39819990294817" lon="12.460000211847758"><ele>49.0</ele><time>2026-05-01T14:43:44.999Z</time></trkpt><trkpt lat="42.397927466356435" lon="12.460265686362662"><ele>51.0</ele><time>2026-05-01T14:43:45.999Z</time></trkpt><trkpt lat="42.397654986722806" lon="12.460531408531644"><ele>53.0</ele><time>2026-05-01T14:43:46.999Z</time></trkpt><trkpt lat="42.397383271226325" lon="12.460796580393358"><ele>53.0</ele><time>2026-05-01T14:43:47.999Z</time></trkpt><trkpt lat="42.39711461881782" lon="12.461058363038074"><ele>53.0</ele><time>2026-05-01T14:43:48.999Z</time></trkpt><trkpt lat="42.39684612781118" lon="12.461321295456552"><ele>53.5</ele><time>2026-05-01T14:43:49.999Z</time></trkpt><trkpt lat="42.396576396176" lon="12.46158551255704"><ele>54.0</ele><time>2026-05-01T14:43:50.999Z</time></trkpt><trkpt lat="42.39630668548454" lon="12.461850187152741"><ele>54.0</ele><time>2026-05-01T14:43:51.999Z</time></trkpt><trkpt lat="42.396037244627095" lon="12.462114379541866"><ele>54.0</ele><time>2026-05-01T14:43:52.999Z</time></trkpt><trkpt lat="42.39576777153142" lon="12.462376715941653"><ele>52.0</ele><time>2026-05-01T14:43:53.999Z</time></trkpt><trkpt lat="42.3954953274734" lon="12.462640674633187"><ele>50.0</ele><time>2026-05-01T14:43:54.999Z</time></trkpt><trkpt lat="42.39522246246515" lon="12.462904887904172"><ele>51.5</ele><time>2026-05-01T14:43:55.999Z</time></trkpt><trkpt lat="42.39495142360066" lon="12.463165245675132"><ele>53.0</ele><time>2026-05-01T14:43:56.999Z</time></trkpt><trkpt lat="42.39468119772357" lon="12.463425279081152"><ele>53.0</ele><time>2026-05-01T14:43:57.999Z</time></trkpt><trkpt lat="42.39440981084157" lon="12.463688644692917"><ele>53.0</ele><time>2026-05-01T14:43:58.999Z</time></trkpt><trkpt lat="42.39413872454851" lon="12.463953973915842"><ele>53.0</ele><time>2026-05-01T14:43:59.999Z</time></trkpt><trkpt lat="42.393868951594406" lon="12.464217534978951"><ele>53.0</ele><time>2026-05-01T14:44:00.999Z</time></trkpt><trkpt lat="42.39359635352739" lon="12.464480275121097"><ele>52.0</ele><time>2026-05-01T14:44:01.999Z</time></trkpt><trkpt lat="42.3933255479788" lon="12.464741655003582"><ele>51.0</ele><time>2026-05-01T14:44:02.999Z</time></trkpt><trkpt lat="42.39305675963058" lon="12.465005075941969"><ele>51.0</ele><time>2026-05-01T14:44:03.999Z</time></trkpt><trkpt lat="42.39278962117347" lon="12.465269176749871"><ele>51.0</ele><time>2026-05-01T14:44:04.999Z</time></trkpt><trkpt lat="42.39252266794978" lon="12.465533258775062"><ele>51.0</ele><time>2026-05-01T14:44:05.999Z</time></trkpt><trkpt lat="42.39225551303102" lon="12.465795672015132"><ele>51.0</ele><time>2026-05-01T14:44:06.999Z</time></trkpt><trkpt lat="42.39198773778969" lon="12.46605737257041"><ele>48.5</ele><time>2026-05-01T14:44:07.999Z</time></trkpt><trkpt lat="42.39171994791886" lon="12.466317180171062"><ele>46.0</ele><time>2026-05-01T14:44:08.999Z</time></trkpt><trkpt lat="42.39144979331192" lon="12.466579641648003"><ele>45.0</ele><time>2026-05-01T14:44:09.999Z</time></trkpt><trkpt lat="42.3911817740155" lon="12.466843292040675"><ele>44.0</ele><time>2026-05-01T14:44:10.999Z</time></trkpt><trkpt lat="42.39091481559718" lon="12.467108568375775"><ele>44.5</ele><time>2026-05-01T14:44:11.999Z</time></trkpt><trkpt lat="42.39064739726539" lon="12.467374477256946"><ele>45.0</ele><time>2026-05-01T14:44:12.999Z</time></trkpt><trkpt lat="42.390378722446435" lon="12.467637448889311"><ele>45.5</ele><time>2026-05-01T14:44:13.999Z</time></trkpt><trkpt lat="42.39010541840579" lon="12.467898445809679"><ele>46.0</ele><time>2026-05-01T14:44:14.999Z</time></trkpt><trkpt lat="42.38983385734124" lon="12.46815872012479"><ele>44.0</ele><time>2026-05-01T14:44:15.999Z</time></trkpt><trkpt lat="42.3895661011228" lon="12.468416798504967"><ele>42.0</ele><time>2026-05-01T14:44:16.999Z</time></trkpt><trkpt lat="42.38929895824945" lon="12.468675439839334"><ele>42.5</ele><time>2026-05-01T14:44:17.999Z</time></trkpt><trkpt lat="42.38902831869833" lon="12.468932040925647"><ele>43.0</ele><time>2026-05-01T14:44:18.999Z</time></trkpt><trkpt lat="42.38875347692743" lon="12.469182516788116"><ele>43.0</ele><time>2026-05-01T14:44:19.999Z</time></trkpt><trkpt lat="42.38847150878154" lon="12.46941362246918"><ele>43.0</ele><time>2026-05-01T14:44:20.999Z</time></trkpt><trkpt lat="42.38818106447057" lon="12.469623134783426"><ele>49.0</ele><time>2026-05-01T14:44:21.999Z</time></trkpt><trkpt lat="42.387882097673625" lon="12.469800012285068"><ele>55.0</ele><time>2026-05-01T14:44:22.999Z</time></trkpt><trkpt lat="42.38757640641435" lon="12.469948867676187"><ele>55.0</ele><time>2026-05-01T14:44:23.999Z</time></trkpt><trkpt lat="42.38726224418933" lon="12.47007828664555"><ele>55.0</ele><time>2026-05-01T14:44:24.999Z</time></trkpt><trkpt lat="42.38694011084672" lon="12.470186983133843"><ele>52.5</ele><time>2026-05-01T14:44:25.999Z</time></trkpt><trkpt lat="42.38661329539519" lon="12.470274929082654"><ele>50.0</ele><time>2026-05-01T14:44:26.999Z</time></trkpt><trkpt lat="42.38628206761944" lon="12.470341319715686"><ele>49.5</ele><time>2026-05-01T14:44:27.999Z</time></trkpt><trkpt lat="42.38594733996764" lon="12.47039337593386"><ele>49.0</ele><time>2026-05-01T14:44:28.999Z</time></trkpt><trkpt lat="42.3856109256161" lon="12.470447138393327"><ele>54.0</ele><time>2026-05-01T14:44:29.999Z</time></trkpt><trkpt lat="42.38527786592826" lon="12.470511126355635"><ele>59.0</ele><time>2026-05-01T14:44:30.999Z</time></trkpt><trkpt lat="42.384945922453916" lon="12.470580675622902"><ele>56.0</ele><time>2026-05-01T14:44:31.999Z</time></trkpt><trkpt lat="42.3846142570262" lon="12.470646369741177"><ele>53.0</ele><time>2026-05-01T14:44:32.999Z</time></trkpt><trkpt lat="42.384281199679165" lon="12.470709180219558"><ele>53.0</ele><time>2026-05-01T14:44:33.999Z</time></trkpt><trkpt lat="42.3839469912025" lon="12.470772622427234"><ele>53.0</ele><time>2026-05-01T14:44:34.999Z</time></trkpt><trkpt lat="42.38361156141629" lon="12.470833520821518"><ele>52.5</ele><time>2026-05-01T14:44:35.999Z</time></trkpt><trkpt lat="42.38327943279104" lon="12.470894039101461"><ele>52.0</ele><time>2026-05-01T14:44:36.999Z</time></trkpt><trkpt lat="42.38294913939834" lon="12.470960627131593"><ele>51.5</ele><time>2026-05-01T14:44:37.999Z</time></trkpt><trkpt lat="42.38261866954698" lon="12.471024401900825"><ele>51.0</ele><time>2026-05-01T14:44:38.999Z</time></trkpt><trkpt lat="42.382285512912695" lon="12.471085431865182"><ele>49.5</ele><time>2026-05-01T14:44:39.999Z</time></trkpt><trkpt lat="42.38195319779764" lon="12.4711471250186"><ele>48.0</ele><time>2026-05-01T14:44:40.999Z</time></trkpt><trkpt lat="42.38162952409345" lon="12.47121008364312"><ele>49.0</ele><time>2026-05-01T14:44:41.999Z</time></trkpt><trkpt lat="42.381318644316856" lon="12.471269477137735"><ele>50.0</ele><time>2026-05-01T14:44:42.999Z</time></trkpt><trkpt lat="42.38101935708735" lon="12.47132595040086"><ele>54.0</ele><time>2026-05-01T14:44:43.999Z</time></trkpt><trkpt lat="42.38072998935869" lon="12.471380179099619"><ele>58.0</ele><time>2026-05-01T14:44:44.999Z</time></trkpt><trkpt lat="42.380447329088476" lon="12.471434576631903"><ele>58.0</ele><time>2026-05-01T14:44:45.999Z</time></trkpt><trkpt lat="42.380169127644216" lon="12.471486312661625"><ele>58.0</ele><time>2026-05-01T14:44:46.999Z</time></trkpt><trkpt lat="42.37989288475818" lon="12.471539426837559"><ele>55.0</ele><time>2026-05-01T14:44:47.999Z</time></trkpt><trkpt lat="42.37960874562974" lon="12.471596958506371"><ele>52.0</ele><time>2026-05-01T14:44:48.999Z</time></trkpt><trkpt lat="42.3793120764808" lon="12.471658908467559"><ele>52.0</ele><time>2026-05-01T14:44:49.999Z</time></trkpt><trkpt lat="42.37900723891062" lon="12.471718822540472"><ele>52.0</ele><time>2026-05-01T14:44:50.999Z</time></trkpt><trkpt lat="42.37869182420999" lon="12.471770214409489"><ele>52.0</ele><time>2026-05-01T14:44:51.999Z</time></trkpt><trkpt lat="42.378368615498694" lon="12.471804447889463"><ele>52.0</ele><time>2026-05-01T14:44:52.999Z</time></trkpt><trkpt lat="42.37804178096754" lon="12.47181067157798"><ele>52.5</ele><time>2026-05-01T14:44:53.999Z</time></trkpt><trkpt lat="42.37771325773664" lon="12.47178984650608"><ele>53.0</ele><time>2026-05-01T14:44:54.999Z</time></trkpt><trkpt lat="42.37738315725852" lon="12.471753086148237"><ele>52.5</ele><time>2026-05-01T14:44:55.999Z</time></trkpt><trkpt lat="42.377052756889206" lon="12.471698266055933"><ele>52.0</ele><time>2026-05-01T14:44:56.999Z</time></trkpt><trkpt lat="42.37672181802247" lon="12.47162459089944"><ele>52.0</ele><time>2026-05-01T14:44:57.999Z</time></trkpt><trkpt lat="42.37639164178897" lon="12.471539622300716"><ele>52.0</ele><time>2026-05-01T14:44:58.999Z</time></trkpt><trkpt lat="42.376060802530084" lon="12.47145209867004"><ele>53.0</ele><time>2026-05-01T14:44:59.999Z</time></trkpt><trkpt lat="42.37572769131623" lon="12.471360306989595"><ele>54.0</ele><time>2026-05-01T14:45:00.999Z</time></trkpt><trkpt lat="42.37539569380688" lon="12.471270347114986"><ele>51.0</ele><time>2026-05-01T14:45:01.999Z</time></trkpt><trkpt lat="42.375067190844405" lon="12.47118348186769"><ele>48.0</ele><time>2026-05-01T14:45:02.999Z</time></trkpt><trkpt lat="42.37474500150761" lon="12.47109229916031"><ele>49.5</ele><time>2026-05-01T14:45:03.999Z</time></trkpt><trkpt lat="42.374426310643095" lon="12.471007984428946"><ele>51.0</ele><time>2026-05-01T14:45:04.999Z</time></trkpt><trkpt lat="42.37410664260268" lon="12.470939397795343"><ele>50.5</ele><time>2026-05-01T14:45:05.999Z</time></trkpt><trkpt lat="42.37378752430639" lon="12.470884773440845"><ele>50.0</ele><time>2026-05-01T14:45:06.999Z</time></trkpt><trkpt lat="42.37346664940573" lon="12.470844940561138"><ele>50.0</ele><time>2026-05-01T14:45:07.999Z</time></trkpt><trkpt lat="42.373144654338816" lon="12.47081952801337"><ele>50.0</ele><time>2026-05-01T14:45:08.999Z</time></trkpt><trkpt lat="42.37282083803128" lon="12.470807870722096"><ele>49.0</ele><time>2026-05-01T14:45:09.999Z</time></trkpt><trkpt lat="42.37249461596079" lon="12.470805011420055"><ele>48.0</ele><time>2026-05-01T14:45:10.999Z</time></trkpt><trkpt lat="42.37216761954351" lon="12.470799668978197"><ele>48.0</ele><time>2026-05-01T14:45:11.999Z</time></trkpt><trkpt lat="42.37184618721838" lon="12.470795577903392"><ele>48.0</ele><time>2026-05-01T14:45:12.999Z</time></trkpt><trkpt lat="42.371525205134354" lon="12.470796228852638"><ele>48.0</ele><time>2026-05-01T14:45:13.999Z</time></trkpt><trkpt lat="42.371205401991006" lon="12.470796265304337"><ele>48.0</ele><time>2026-05-01T14:45:14.999Z</time></trkpt><trkpt lat="42.37088809986213" lon="12.470792778283206"><ele>48.0</ele><time>2026-05-01T14:45:15.999Z</time></trkpt><trkpt lat="42.37057150625061" lon="12.470788820713762"><ele>48.0</ele><time>2026-05-01T14:45:16.999Z</time></trkpt><trkpt lat="42.37024998417986" lon="12.47078475802604"><ele>48.5</ele><time>2026-05-01T14:45:17.999Z</time></trkpt><trkpt lat="42.369929170402735" lon="12.47078049144376"><ele>49.0</ele><time>2026-05-01T14:45:18.999Z</time></trkpt><trkpt lat="42.369616313570994" lon="12.470776115742217"><ele>49.0</ele><time>2026-05-01T14:45:19.999Z</time></trkpt><trkpt lat="42.36930312935909" lon="12.47077443822575"><ele>49.0</ele><time>2026-05-01T14:45:20.999Z</time></trkpt><trkpt lat="42.368991144409286" lon="12.470776118292585"><ele>48.5</ele><time>2026-05-01T14:45:21.999Z</time></trkpt><trkpt lat="42.368679706819144" lon="12.470778921905243"><ele>48.0</ele><time>2026-05-01T14:45:22.999Z</time></trkpt><trkpt lat="42.36836611155101" lon="12.470779912893587"><ele>48.0</ele><time>2026-05-01T14:45:23.999Z</time></trkpt><trkpt lat="42.36805569476748" lon="12.470778692889997"><ele>48.0</ele><time>2026-05-01T14:45:24.999Z</time></trkpt><trkpt lat="42.367743058310104" lon="12.470779380505606"><ele>47.0</ele><time>2026-05-01T14:45:25.999Z</time></trkpt><trkpt lat="42.36742377384528" lon="12.470776424947676"><ele>46.0</ele><time>2026-05-01T14:45:26.999Z</time></trkpt><trkpt lat="42.3671007696686" lon="12.470775626263086"><ele>46.0</ele><time>2026-05-01T14:45:27.999Z</time></trkpt><trkpt lat="42.366776341765" lon="12.470773269063002"><ele>46.0</ele><time>2026-05-01T14:45:28.999Z</time></trkpt><trkpt lat="42.366454197154006" lon="12.470767880610307"><ele>47.5</ele><time>2026-05-01T14:45:29.999Z</time></trkpt><trkpt lat="42.36613379107203" lon="12.470760760678848"><ele>49.0</ele><time>2026-05-01T14:45:30.999Z</time></trkpt><trkpt lat="42.36581570309025" lon="12.470755387031954"><ele>50.5</ele><time>2026-05-01T14:45:31.999Z</time></trkpt><trkpt lat="42.36549933829678" lon="12.470750757386368"><ele>52.0</ele><time>2026-05-01T14:45:32.999Z</time></trkpt><trkpt lat="42.36518020735362" lon="12.470747165390634"><ele>52.0</ele><time>2026-05-01T14:45:33.999Z</time></trkpt><trkpt lat="42.36485327952473" lon="12.470744802874304"><ele>52.0</ele><time>2026-05-01T14:45:34.999Z</time></trkpt><trkpt lat="42.36452567201305" lon="12.470739687741592"><ele>53.5</ele><time>2026-05-01T14:45:35.999Z</time></trkpt><trkpt lat="42.36419715087342" lon="12.4707346120151"><ele>55.0</ele><time>2026-05-01T14:45:36.999Z</time></trkpt><trkpt lat="42.36386785393036" lon="12.470729604235734"><ele>58.0</ele><time>2026-05-01T14:45:37.999Z</time></trkpt><trkpt lat="42.363535217844294" lon="12.470724563083698"><ele>61.0</ele><time>2026-05-01T14:45:38.999Z</time></trkpt><trkpt lat="42.36319927452197" lon="12.470721200679888"><ele>61.5</ele><time>2026-05-01T14:45:39.999Z</time></trkpt><trkpt lat="42.36286125113331" lon="12.470721740524457"><ele>62.0</ele><time>2026-05-01T14:45:40.999Z</time></trkpt><trkpt lat="42.362523754034825" lon="12.470727308461964"><ele>58.5</ele><time>2026-05-01T14:45:41.998Z</time></trkpt><trkpt lat="42.362184642277846" lon="12.470737864038723"><ele>55.0</ele><time>2026-05-01T14:45:42.998Z</time></trkpt><trkpt lat="42.361844921693454" lon="12.470753173990026"><ele>55.0</ele><time>2026-05-01T14:45:43.998Z</time></trkpt><trkpt lat="42.36150550407402" lon="12.470769551008793"><ele>55.0</ele><time>2026-05-01T14:45:45Z</time></trkpt><trkpt lat="42.361165417289044" lon="12.470788412065318"><ele>50.5</ele><time>2026-05-01T14:45:46Z</time></trkpt><trkpt lat="42.36082466824729" lon="12.470809727546154"><ele>46.0</ele><time>2026-05-01T14:45:47Z</time></trkpt><trkpt lat="42.36048333855658" lon="12.470829855516417"><ele>44.5</ele><time>2026-05-01T14:45:48Z</time></trkpt><trkpt lat="42.36014292281122" lon="12.47084716279849"><ele>43.0</ele><time>2026-05-01T14:45:49Z</time></trkpt><trkpt lat="42.35980532018311" lon="12.470863218286128"><ele>41.5</ele><time>2026-05-01T14:45:50Z</time></trkpt><trkpt lat="42.35946633649633" lon="12.470878619770504"><ele>40.0</ele><time>2026-05-01T14:45:51Z</time></trkpt><trkpt lat="42.359127926059294" lon="12.470894114103796"><ele>40.0</ele><time>2026-05-01T14:45:52Z</time></trkpt><trkpt lat="42.35879130373605" lon="12.470910402758095"><ele>40.0</ele><time>2026-05-01T14:45:53Z</time></trkpt><trkpt lat="42.358455312753044" lon="12.4709292836027"><ele>40.0</ele><time>2026-05-01T14:45:54Z</time></trkpt><trkpt lat="42.35811907382376" lon="12.470948310200225"><ele>40.0</ele><time>2026-05-01T14:45:55Z</time></trkpt><trkpt lat="42.35778297261047" lon="12.47096791548935"><ele>39.5</ele><time>2026-05-01T14:45:56Z</time></trkpt><trkpt lat="42.35744674538961" lon="12.470987469111698"><ele>39.0</ele><time>2026-05-01T14:45:57Z</time></trkpt><trkpt lat="42.35711164388408" lon="12.471006916113389"><ele>39.0</ele><time>2026-05-01T14:45:58Z</time></trkpt><trkpt lat="42.3567784462064" lon="12.471025735999278"><ele>39.0</ele><time>2026-05-01T14:45:59Z</time></trkpt><trkpt lat="42.356444122171176" lon="12.471046267670426"><ele>38.5</ele><time>2026-05-01T14:46:00Z</time></trkpt><trkpt lat="42.35610985342465" lon="12.471063870025004"><ele>38.0</ele><time>2026-05-01T14:46:01Z</time></trkpt><trkpt lat="42.35577428419093" lon="12.471081643734703"><ele>38.5</ele><time>2026-05-01T14:46:02Z</time></trkpt><trkpt lat="42.35543879023929" lon="12.471098298209567"><ele>39.0</ele><time>2026-05-01T14:46:03Z</time></trkpt><trkpt lat="42.3551040487097" lon="12.471116068130165"><ele>39.0</ele><time>2026-05-01T14:46:04Z</time></trkpt><trkpt lat="42.35476779034976" lon="12.471133869384788"><ele>39.0</ele><time>2026-05-01T14:46:05Z</time></trkpt><trkpt lat="42.35443067799981" lon="12.471152936087087"><ele>39.0</ele><time>2026-05-01T14:46:06Z</time></trkpt><trkpt lat="42.35409497220349" lon="12.47116908940975"><ele>39.0</ele><time>2026-05-01T14:46:07Z</time></trkpt><trkpt lat="42.353758546533065" lon="12.471185144576417"><ele>38.0</ele><time>2026-05-01T14:46:08Z</time></trkpt><trkpt lat="42.35342284581238" lon="12.47120379374319"><ele>37.0</ele><time>2026-05-01T14:46:09Z</time></trkpt><trkpt lat="42.35308662301907" lon="12.471221386900748"><ele>37.5</ele><time>2026-05-01T14:46:10Z</time></trkpt><trkpt lat="42.35274974048152" lon="12.471240317987835"><ele>38.0</ele><time>2026-05-01T14:46:11Z</time></trkpt><trkpt lat="42.35241262062401" lon="12.471259529614466"><ele>38.5</ele><time>2026-05-01T14:46:12Z</time></trkpt><trkpt lat="42.35207697860538" lon="12.47127876561174"><ele>39.0</ele><time>2026-05-01T14:46:13Z</time></trkpt><trkpt lat="42.35173861376127" lon="12.471295945100909"><ele>39.0</ele><time>2026-05-01T14:46:14Z</time></trkpt><trkpt lat="42.35140161390406" lon="12.471311661971544"><ele>39.0</ele><time>2026-05-01T14:46:15Z</time></trkpt><trkpt lat="42.35106483866581" lon="12.47132277183146"><ele>38.5</ele><time>2026-05-01T14:46:16Z</time></trkpt><trkpt lat="42.35072914846598" lon="12.471324517785776"><ele>38.0</ele><time>2026-05-01T14:46:17Z</time></trkpt><trkpt lat="42.35039200812953" lon="12.471307169609954"><ele>38.0</ele><time>2026-05-01T14:46:18Z</time></trkpt><trkpt lat="42.350057363350395" lon="12.471269195467402"><ele>38.0</ele><time>2026-05-01T14:46:18.999Z</time></trkpt><trkpt lat="42.349722720062516" lon="12.471223552718842"><ele>38.0</ele><time>2026-05-01T14:46:20Z</time></trkpt><trkpt lat="42.34938777281486" lon="12.471177712033871"><ele>38.0</ele><time>2026-05-01T14:46:21Z</time></trkpt><trkpt lat="42.3490519301166" lon="12.471132865172201"><ele>39.0</ele><time>2026-05-01T14:46:22Z</time></trkpt><trkpt lat="42.348715742067434" lon="12.471086296270787"><ele>40.0</ele><time>2026-05-01T14:46:23Z</time></trkpt><trkpt lat="42.348379913591195" lon="12.471040674723236"><ele>40.0</ele><time>2026-05-01T14:46:24Z</time></trkpt><trkpt lat="42.34804493081144" lon="12.47099555556978"><ele>40.0</ele><time>2026-05-01T14:46:25Z</time></trkpt><trkpt lat="42.347709392883374" lon="12.470951661732784"><ele>41.5</ele><time>2026-05-01T14:46:26Z</time></trkpt><trkpt lat="42.34737403890722" lon="12.470907404123968"><ele>43.0</ele><time>2026-05-01T14:46:27Z</time></trkpt><trkpt lat="42.34703954115316" lon="12.470862090423413"><ele>43.0</ele><time>2026-05-01T14:46:28Z</time></trkpt><trkpt lat="42.34670353795565" lon="12.47081489872327"><ele>43.0</ele><time>2026-05-01T14:46:29Z</time></trkpt><trkpt lat="42.34636879267593" lon="12.470767882251394"><ele>43.0</ele><time>2026-05-01T14:46:30Z</time></trkpt><trkpt lat="42.34603330241284" lon="12.470724246125146"><ele>43.0</ele><time>2026-05-01T14:46:31Z</time></trkpt><trkpt lat="42.34570051241808" lon="12.470678894863402"><ele>43.0</ele><time>2026-05-01T14:46:32Z</time></trkpt><trkpt lat="42.34536691031788" lon="12.470628738401523"><ele>43.0</ele><time>2026-05-01T14:46:33Z</time></trkpt><trkpt lat="42.34503359454121" lon="12.470575496089264"><ele>41.5</ele><time>2026-05-01T14:46:34Z</time></trkpt><trkpt lat="42.34469983598904" lon="12.470524078424619"><ele>40.0</ele><time>2026-05-01T14:46:35Z</time></trkpt><trkpt lat="42.34436777905864" lon="12.470473227308233"><ele>39.5</ele><time>2026-05-01T14:46:36Z</time></trkpt><trkpt lat="42.344036417576184" lon="12.470424726832691"><ele>39.0</ele><time>2026-05-01T14:46:37Z</time></trkpt><trkpt lat="42.343707221064484" lon="12.47036247957862"><ele>38.5</ele><time>2026-05-01T14:46:38Z</time></trkpt><trkpt lat="42.343384252416655" lon="12.470267667659597"><ele>38.0</ele><time>2026-05-01T14:46:39Z</time></trkpt><trkpt lat="42.34306776640673" lon="12.470142693035069"><ele>38.5</ele><time>2026-05-01T14:46:40Z</time></trkpt><trkpt lat="42.34276323638905" lon="12.4699787596514"><ele>39.0</ele><time>2026-05-01T14:46:41Z</time></trkpt><trkpt lat="42.34246502043595" lon="12.469792096175217"><ele>38.0</ele><time>2026-05-01T14:46:42Z</time></trkpt><trkpt lat="42.342172744023415" lon="12.469583398440637"><ele>37.0</ele><time>2026-05-01T14:46:43Z</time></trkpt><trkpt lat="42.34187673830401" lon="12.46937447356835"><ele>37.0</ele><time>2026-05-01T14:46:44Z</time></trkpt><trkpt lat="42.341578238642654" lon="12.469164957062336"><ele>37.0</ele><time>2026-05-01T14:46:45Z</time></trkpt><trkpt lat="42.34127831501464" lon="12.468958987675094"><ele>38.0</ele><time>2026-05-01T14:46:46Z</time></trkpt><trkpt lat="42.340977328575526" lon="12.46875560282016"><ele>39.0</ele><time>2026-05-01T14:46:47Z</time></trkpt><trkpt lat="42.34067658758657" lon="12.468553883699132"><ele>43.0</ele><time>2026-05-01T14:46:48Z</time></trkpt><trkpt lat="42.34037674060229" lon="12.468350576824669"><ele>47.0</ele><time>2026-05-01T14:46:49Z</time></trkpt><trkpt lat="42.34007950450928" lon="12.468147725278182"><ele>47.0</ele><time>2026-05-01T14:46:50Z</time></trkpt><trkpt lat="42.33978783729241" lon="12.467947770999858"><ele>47.0</ele><time>2026-05-01T14:46:51Z</time></trkpt><trkpt lat="42.33949746840907" lon="12.467747464408182"><ele>49.0</ele><time>2026-05-01T14:46:52Z</time></trkpt><trkpt lat="42.339203940273364" lon="12.467547682889562"><ele>51.0</ele><time>2026-05-01T14:46:53Z</time></trkpt><trkpt lat="42.33890909642541" lon="12.467354162782783"><ele>47.5</ele><time>2026-05-01T14:46:54Z</time></trkpt><trkpt lat="42.33861026968761" lon="12.467170736884094"><ele>44.0</ele><time>2026-05-01T14:46:55Z</time></trkpt><trkpt lat="42.33830666434025" lon="12.467001322786382"><ele>43.0</ele><time>2026-05-01T14:46:56Z</time></trkpt><trkpt lat="42.33799841139866" lon="12.466857721700105"><ele>42.0</ele><time>2026-05-01T14:46:57Z</time></trkpt><trkpt lat="42.33768597146644" lon="12.466746655627515"><ele>42.0</ele><time>2026-05-01T14:46:58Z</time></trkpt><trkpt lat="42.33737097472811" lon="12.466655991532914"><ele>42.0</ele><time>2026-05-01T14:46:59Z</time></trkpt><trkpt lat="42.337053802807006" lon="12.466588997611652"><ele>41.5</ele><time>2026-05-01T14:47:00Z</time></trkpt><trkpt lat="42.33673515229869" lon="12.46654884509649"><ele>41.0</ele><time>2026-05-01T14:47:01Z</time></trkpt><trkpt lat="42.33641630211499" lon="12.466523902733758"><ele>41.5</ele><time>2026-05-01T14:47:02Z</time></trkpt><trkpt lat="42.336097191644235" lon="12.466521273534598"><ele>42.0</ele><time>2026-05-01T14:47:03Z</time></trkpt><trkpt lat="42.3357773818659" lon="12.466542382368823"><ele>41.5</ele><time>2026-05-01T14:47:04Z</time></trkpt><trkpt lat="42.33545847824661" lon="12.466585693773272"><ele>41.0</ele><time>2026-05-01T14:47:05Z</time></trkpt><trkpt lat="42.33514246348327" lon="12.466647305011097"><ele>41.0</ele><time>2026-05-01T14:47:06Z</time></trkpt><trkpt lat="42.33482843573186" lon="12.466728650739721"><ele>41.0</ele><time>2026-05-01T14:47:07Z</time></trkpt><trkpt lat="42.3345180802261" lon="12.466830835327697"><ele>39.5</ele><time>2026-05-01T14:47:08Z</time></trkpt><trkpt lat="42.33421037215016" lon="12.466955121542245"><ele>38.0</ele><time>2026-05-01T14:47:09Z</time></trkpt><trkpt lat="42.333906442264144" lon="12.46710181530214"><ele>43.0</ele><time>2026-05-01T14:47:10Z</time></trkpt><trkpt lat="42.333608635297296" lon="12.467272501691312"><ele>48.0</ele><time>2026-05-01T14:47:11Z</time></trkpt><trkpt lat="42.33331718797256" lon="12.467462776490667"><ele>44.0</ele><time>2026-05-01T14:47:12Z</time></trkpt><trkpt lat="42.33303076222268" lon="12.467672866816049"><ele>40.0</ele><time>2026-05-01T14:47:13Z</time></trkpt><trkpt lat="42.33275364004724" lon="12.467909346564864"><ele>39.5</ele><time>2026-05-01T14:47:14Z</time></trkpt><trkpt lat="42.33248436330084" lon="12.46815803983941"><ele>39.0</ele><time>2026-05-01T14:47:15Z</time></trkpt><trkpt lat="42.33222218951097" lon="12.468421064956262"><ele>39.0</ele><time>2026-05-01T14:47:16Z</time></trkpt><trkpt lat="42.331967130994855" lon="12.468699487534165"><ele>39.0</ele><time>2026-05-01T14:47:17Z</time></trkpt><trkpt lat="42.33172184671001" lon="12.46899442176176"><ele>42.5</ele><time>2026-05-01T14:47:18Z</time></trkpt><trkpt lat="42.331492878526625" lon="12.469307085708829"><ele>46.0</ele><time>2026-05-01T14:47:19Z</time></trkpt><trkpt lat="42.33127666391884" lon="12.46963847943589"><ele>46.0</ele><time>2026-05-01T14:47:20Z</time></trkpt><trkpt lat="42.33107403569974" lon="12.469991813240668"><ele>46.0</ele><time>2026-05-01T14:47:21Z</time></trkpt><trkpt lat="42.33088232536723" lon="12.470357191056369"><ele>41.5</ele><time>2026-05-01T14:47:22Z</time></trkpt><trkpt lat="42.330707660258554" lon="12.470727157684035"><ele>37.0</ele><time>2026-05-01T14:47:23Z</time></trkpt><trkpt lat="42.33054844467023" lon="12.471105259561055"><ele>41.0</ele><time>2026-05-01T14:47:24Z</time></trkpt><trkpt lat="42.33039944737699" lon="12.471487995777638"><ele>45.0</ele><time>2026-05-01T14:47:25Z</time></trkpt><trkpt lat="42.330256329095725" lon="12.471870245651083"><ele>50.5</ele><time>2026-05-01T14:47:26Z</time></trkpt><trkpt lat="42.33011296163709" lon="12.472246506406021"><ele>56.0</ele><time>2026-05-01T14:47:27Z</time></trkpt><trkpt lat="42.32996866737323" lon="12.472617740209788"><ele>50.5</ele><time>2026-05-01T14:47:28Z</time></trkpt><trkpt lat="42.329826914859446" lon="12.472983179663007"><ele>45.0</ele><time>2026-05-01T14:47:29Z</time></trkpt><trkpt lat="42.32968774079511" lon="12.47334572767774"><ele>45.0</ele><time>2026-05-01T14:47:30Z</time></trkpt><trkpt lat="42.32954769254522" lon="12.473713570771816"><ele>45.0</ele><time>2026-05-01T14:47:31Z</time></trkpt><trkpt lat="42.32940492230633" lon="12.474088901982713"><ele>46.5</ele><time>2026-05-01T14:47:32Z</time></trkpt><trkpt lat="42.329260238973674" lon="12.47446615529792"><ele>48.0</ele><time>2026-05-01T14:47:33Z</time></trkpt><trkpt lat="42.32911400027107" lon="12.474850942295015"><ele>48.0</ele><time>2026-05-01T14:47:34Z</time></trkpt><trkpt lat="42.32896980568734" lon="12.475239705926057"><ele>48.0</ele><time>2026-05-01T14:47:35Z</time></trkpt><trkpt lat="42.328823210575464" lon="12.475635437014557"><ele>45.5</ele><time>2026-05-01T14:47:36Z</time></trkpt><trkpt lat="42.328676549684964" lon="12.47603626428142"><ele>43.0</ele><time>2026-05-01T14:47:37Z</time></trkpt><trkpt lat="42.32852739494317" lon="12.47643991097665"><ele>50.5</ele><time>2026-05-01T14:47:38Z</time></trkpt><trkpt lat="42.32837966383807" lon="12.47684766170305"><ele>58.0</ele><time>2026-05-01T14:47:39Z</time></trkpt><trkpt lat="42.32823603144431" lon="12.477260429108936"><ele>59.0</ele><time>2026-05-01T14:47:40Z</time></trkpt><trkpt lat="42.32809592246007" lon="12.47767691621735"><ele>60.0</ele><time>2026-05-01T14:47:41Z</time></trkpt><trkpt lat="42.327957010788786" lon="12.478094888035374"><ele>60.0</ele><time>2026-05-01T14:47:42Z</time></trkpt><trkpt lat="42.32781864199233" lon="12.478511449737962"><ele>60.0</ele><time>2026-05-01T14:47:43Z</time></trkpt><trkpt lat="42.32768050107364" lon="12.47892435557565"><ele>64.0</ele><time>2026-05-01T14:47:44Z</time></trkpt><trkpt lat="42.32754077183847" lon="12.479336255613736"><ele>68.0</ele><time>2026-05-01T14:47:45Z</time></trkpt><trkpt lat="42.327397174335594" lon="12.479747625793962"><ele>66.0</ele><time>2026-05-01T14:47:46Z</time></trkpt><trkpt lat="42.32725320490636" lon="12.480155354395649"><ele>64.0</ele><time>2026-05-01T14:47:47Z</time></trkpt><trkpt lat="42.32710722089744" lon="12.480564530181052"><ele>64.0</ele><time>2026-05-01T14:47:48Z</time></trkpt><trkpt lat="42.32696195237107" lon="12.480975414361298"><ele>64.0</ele><time>2026-05-01T14:47:49Z</time></trkpt><trkpt lat="42.32681836963171" lon="12.481384888682383"><ele>68.5</ele><time>2026-05-01T14:47:50Z</time></trkpt><trkpt lat="42.32666919331543" lon="12.48179523945555"><ele>73.0</ele><time>2026-05-01T14:47:51.001Z</time></trkpt><trkpt lat="42.32651067582522" lon="12.482196824580944"><ele>71.5</ele><time>2026-05-01T14:47:52.001Z</time></trkpt><trkpt lat="42.326338175822514" lon="12.482585800804932"><ele>70.0</ele><time>2026-05-01T14:47:53.001Z</time></trkpt><trkpt lat="42.326151136554515" lon="12.48295989126192"><ele>70.0</ele><time>2026-05-01T14:47:54.001Z</time></trkpt><trkpt lat="42.32594803066229" lon="12.483320050440353"><ele>70.0</ele><time>2026-05-01T14:47:55.001Z</time></trkpt><trkpt lat="42.32573763184677" lon="12.483670608582011"><ele>66.0</ele><time>2026-05-01T14:47:56.001Z</time></trkpt><trkpt lat="42.32551604298607" lon="12.484009000070351"><ele>62.0</ele><time>2026-05-01T14:47:57.001Z</time></trkpt><trkpt lat="42.3252851372508" lon="12.484337994250104"><ele>69.5</ele><time>2026-05-01T14:47:58.001Z</time></trkpt><trkpt lat="42.325048458439916" lon="12.484664003889723"><ele>77.0</ele><time>2026-05-01T14:47:59.001Z</time></trkpt><trkpt lat="42.32481078309543" lon="12.484990951475199"><ele>75.0</ele><time>2026-05-01T14:48:00.001Z</time></trkpt><trkpt lat="42.3245728243646" lon="12.48531917442375"><ele>73.0</ele><time>2026-05-01T14:48:01.001Z</time></trkpt><trkpt lat="42.324334983426475" lon="12.485645703556925"><ele>73.0</ele><time>2026-05-01T14:48:02.001Z</time></trkpt><trkpt lat="42.32409580080728" lon="12.48597251632625"><ele>73.0</ele><time>2026-05-01T14:48:03.001Z</time></trkpt><trkpt lat="42.32385696614429" lon="12.486300086634541"><ele>65.0</ele><time>2026-05-01T14:48:04.001Z</time></trkpt><trkpt lat="42.32361999596233" lon="12.486626020835693"><ele>57.0</ele><time>2026-05-01T14:48:05.001Z</time></trkpt><trkpt lat="42.3233889199331" lon="12.486954318959167"><ele>58.0</ele><time>2026-05-01T14:48:06.001Z</time></trkpt><trkpt lat="42.32316149192125" lon="12.487281472283213"><ele>59.0</ele><time>2026-05-01T14:48:07.001Z</time></trkpt><trkpt lat="42.322927935159065" lon="12.487607314328262"><ele>64.5</ele><time>2026-05-01T14:48:08.001Z</time></trkpt><trkpt lat="42.32269485994633" lon="12.487929260417943"><ele>70.0</ele><time>2026-05-01T14:48:09.001Z</time></trkpt><trkpt lat="42.32245904563373" lon="12.488250270669498"><ele>67.0</ele><time>2026-05-01T14:48:10.001Z</time></trkpt><trkpt lat="42.3222167720513" lon="12.488569096021669"><ele>64.0</ele><time>2026-05-01T14:48:11.001Z</time></trkpt><trkpt lat="42.321966530393226" lon="12.488872630764147"><ele>64.0</ele><time>2026-05-01T14:48:12.001Z</time></trkpt><trkpt lat="42.32170617359683" lon="12.48915531327503"><ele>64.0</ele><time>2026-05-01T14:48:13.001Z</time></trkpt><trkpt lat="42.32143639446545" lon="12.489419708000018"><ele>59.5</ele><time>2026-05-01T14:48:14.001Z</time></trkpt><trkpt lat="42.32115744016716" lon="12.489664782051495"><ele>55.0</ele><time>2026-05-01T14:48:15.001Z</time></trkpt><trkpt lat="42.320868871501595" lon="12.489887882135779"><ele>55.0</ele><time>2026-05-01T14:48:16.001Z</time></trkpt><trkpt lat="42.32057371710353" lon="12.490090357235324"><ele>55.0</ele><time>2026-05-01T14:48:17.001Z</time></trkpt><trkpt lat="42.32027134002847" lon="12.490273784031958"><ele>53.5</ele><time>2026-05-01T14:48:18.001Z</time></trkpt><trkpt lat="42.31996052714696" lon="12.49044135006074"><ele>52.0</ele><time>2026-05-01T14:48:19.001Z</time></trkpt><trkpt lat="42.319648381293796" lon="12.490601452881458"><ele>59.5</ele><time>2026-05-01T14:48:20.001Z</time></trkpt><trkpt lat="42.31933271965868" lon="12.490763585520465"><ele>67.0</ele><time>2026-05-01T14:48:21.001Z</time></trkpt><trkpt lat="42.31901738485658" lon="12.490928544538962"><ele>70.5</ele><time>2026-05-01T14:48:22.001Z</time></trkpt><trkpt lat="42.318701245580144" lon="12.491089706503264"><ele>74.0</ele><time>2026-05-01T14:48:23.001Z</time></trkpt><trkpt lat="42.31838477748182" lon="12.491251707602125"><ele>75.5</ele><time>2026-05-01T14:48:24.001Z</time></trkpt><trkpt lat="42.318069215096735" lon="12.491414055788141"><ele>77.0</ele><time>2026-05-01T14:48:25.001Z</time></trkpt><trkpt lat="42.31775477190003" lon="12.491577470183104"><ele>77.0</ele><time>2026-05-01T14:48:26.001Z</time></trkpt><trkpt lat="42.317441303542694" lon="12.491743067046906"><ele>77.0</ele><time>2026-05-01T14:48:27.001Z</time></trkpt><trkpt lat="42.317128843379" lon="12.49190986391193"><ele>77.0</ele><time>2026-05-01T14:48:28.001Z</time></trkpt><trkpt lat="42.31681666856981" lon="12.492077234537142"><ele>77.0</ele><time>2026-05-01T14:48:29.001Z</time></trkpt><trkpt lat="42.316503215322825" lon="12.492243967707443"><ele>77.5</ele><time>2026-05-01T14:48:30.001Z</time></trkpt><trkpt lat="42.31618850020593" lon="12.492410061354557"><ele>78.0</ele><time>2026-05-01T14:48:31Z</time></trkpt><trkpt lat="42.31587269851348" lon="12.492575416388506"><ele>79.0</ele><time>2026-05-01T14:48:32Z</time></trkpt><trkpt lat="42.31555564649702" lon="12.492740881969963"><ele>80.0</ele><time>2026-05-01T14:48:33Z</time></trkpt><trkpt lat="42.31523798073923" lon="12.492906634236952"><ele>80.5</ele><time>2026-05-01T14:48:34Z</time></trkpt><trkpt lat="42.31492148397325" lon="12.49307379995468"><ele>81.0</ele><time>2026-05-01T14:48:35Z</time></trkpt><trkpt lat="42.3146048509876" lon="12.49324235082708"><ele>76.5</ele><time>2026-05-01T14:48:36Z</time></trkpt><trkpt lat="42.31428860047396" lon="12.493408416059316"><ele>72.0</ele><time>2026-05-01T14:48:37Z</time></trkpt><trkpt lat="42.3139726157866" lon="12.493571745130852"><ele>72.0</ele><time>2026-05-01T14:48:38Z</time></trkpt><trkpt lat="42.31365640360857" lon="12.493735598243733"><ele>72.0</ele><time>2026-05-01T14:48:39Z</time></trkpt><trkpt lat="42.313341514273" lon="12.493899846024668"><ele>75.0</ele><time>2026-05-01T14:48:40Z</time></trkpt><trkpt lat="42.31302582744058" lon="12.494065165718974"><ele>78.0</ele><time>2026-05-01T14:48:41Z</time></trkpt><trkpt lat="42.31270921946405" lon="12.494222739430885"><ele>78.0</ele><time>2026-05-01T14:48:42Z</time></trkpt><trkpt lat="42.31239003763865" lon="12.494364818877221"><ele>78.0</ele><time>2026-05-01T14:48:43Z</time></trkpt><trkpt lat="42.312069684300134" lon="12.494489076216798"><ele>80.5</ele><time>2026-05-01T14:48:44Z</time></trkpt><trkpt lat="42.31174251108858" lon="12.494593516821835"><ele>83.0</ele><time>2026-05-01T14:48:45Z</time></trkpt><trkpt lat="42.31141114494125" lon="12.494667537008946"><ele>83.5</ele><time>2026-05-01T14:48:46Z</time></trkpt><trkpt lat="42.311078582484875" lon="12.494710113051394"><ele>84.0</ele><time>2026-05-01T14:48:47Z</time></trkpt><trkpt lat="42.31074334181469" lon="12.494733021950315"><ele>80.5</ele><time>2026-05-01T14:48:48Z</time></trkpt><trkpt lat="42.310407542371834" lon="12.494733811043153"><ele>77.0</ele><time>2026-05-01T14:48:49Z</time></trkpt><trkpt lat="42.31007320793789" lon="12.494712690886226"><ele>69.5</ele><time>2026-05-01T14:48:50Z</time></trkpt><trkpt lat="42.30973903081603" lon="12.49466889157513"><ele>62.0</ele><time>2026-05-01T14:48:51Z</time></trkpt><trkpt lat="42.3094074009547" lon="12.494599639789376"><ele>63.0</ele><time>2026-05-01T14:48:52Z</time></trkpt><trkpt lat="42.309078756489384" lon="12.494504694749235"><ele>64.0</ele><time>2026-05-01T14:48:53Z</time></trkpt><trkpt lat="42.30875717224608" lon="12.49438759682622"><ele>64.0</ele><time>2026-05-01T14:48:54Z</time></trkpt><trkpt lat="42.30844197171933" lon="12.494248750713309"><ele>64.0</ele><time>2026-05-01T14:48:55Z</time></trkpt><trkpt lat="42.30813052804661" lon="12.494092681321"><ele>59.0</ele><time>2026-05-01T14:48:56Z</time></trkpt><trkpt lat="42.3078191342496" lon="12.493926952814075"><ele>54.0</ele><time>2026-05-01T14:48:57Z</time></trkpt><trkpt lat="42.30750622467263" lon="12.493758318451755"><ele>59.5</ele><time>2026-05-01T14:48:58Z</time></trkpt><trkpt lat="42.307189684517354" lon="12.493595085660884"><ele>65.0</ele><time>2026-05-01T14:48:59Z</time></trkpt><trkpt lat="42.30687106030947" lon="12.493441170534979"><ele>65.0</ele><time>2026-05-01T14:49:00Z</time></trkpt><trkpt lat="42.3065521609934" lon="12.49329932378594"><ele>65.0</ele><time>2026-05-01T14:49:01Z</time></trkpt><trkpt lat="42.30623065698003" lon="12.493187075792045"><ele>61.5</ele><time>2026-05-01T14:49:02Z</time></trkpt><trkpt lat="42.30590788168817" lon="12.493101133396937"><ele>58.0</ele><time>2026-05-01T14:49:03Z</time></trkpt><trkpt lat="42.305580775079754" lon="12.493046056397663"><ele>51.5</ele><time>2026-05-01T14:49:04Z</time></trkpt><trkpt lat="42.305250597820105" lon="12.493016453459008"><ele>45.0</ele><time>2026-05-01T14:49:05Z</time></trkpt><trkpt lat="42.30492053842076" lon="12.493018750241864"><ele>45.0</ele><time>2026-05-01T14:49:06Z</time></trkpt><trkpt lat="42.3045902897328" lon="12.493042575925607"><ele>45.0</ele><time>2026-05-01T14:49:07Z</time></trkpt><trkpt lat="42.30425891122975" lon="12.493094822049166"><ele>45.0</ele><time>2026-05-01T14:49:08Z</time></trkpt><trkpt lat="42.30393201615143" lon="12.493180085081706"><ele>45.0</ele><time>2026-05-01T14:49:09Z</time></trkpt><trkpt lat="42.30361010485451" lon="12.49328583644953"><ele>47.0</ele><time>2026-05-01T14:49:10Z</time></trkpt><trkpt lat="42.30329038741133" lon="12.493417212997723"><ele>49.0</ele><time>2026-05-01T14:49:11Z</time></trkpt><trkpt lat="42.30297210246745" lon="12.493562338009356"><ele>50.5</ele><time>2026-05-01T14:49:12Z</time></trkpt><trkpt lat="42.30265417170001" lon="12.493713384535507"><ele>52.0</ele><time>2026-05-01T14:49:13Z</time></trkpt><trkpt lat="42.3023314347098" lon="12.493861510641752"><ele>54.0</ele><time>2026-05-01T14:49:14Z</time></trkpt><trkpt lat="42.30200805040185" lon="12.494005730935806"><ele>56.0</ele><time>2026-05-01T14:49:15Z</time></trkpt><trkpt lat="42.30168669097758" lon="12.494153976459652"><ele>58.0</ele><time>2026-05-01T14:49:16Z</time></trkpt><trkpt lat="42.30136528093274" lon="12.494306642158676"><ele>60.0</ele><time>2026-05-01T14:49:17Z</time></trkpt><trkpt lat="42.3010431409322" lon="12.494457263464934"><ele>58.5</ele><time>2026-05-01T14:49:18Z</time></trkpt><trkpt lat="42.30072069298849" lon="12.494606445806047"><ele>57.0</ele><time>2026-05-01T14:49:19Z</time></trkpt><trkpt lat="42.30039910006306" lon="12.4947563255237"><ele>55.0</ele><time>2026-05-01T14:49:20Z</time></trkpt><trkpt lat="42.30007919010101" lon="12.494903642121338"><ele>53.0</ele><time>2026-05-01T14:49:21Z</time></trkpt><trkpt lat="42.29975823936792" lon="12.495050887197369"><ele>46.0</ele><time>2026-05-01T14:49:22Z</time></trkpt><trkpt lat="42.29943875431567" lon="12.495197726756354"><ele>39.0</ele><time>2026-05-01T14:49:23Z</time></trkpt><trkpt lat="42.299123043365356" lon="12.495347249153486"><ele>38.5</ele><time>2026-05-01T14:49:24Z</time></trkpt><trkpt lat="42.298812383589684" lon="12.495501610258447"><ele>38.0</ele><time>2026-05-01T14:49:25Z</time></trkpt><trkpt lat="42.298503125407066" lon="12.495660296828277"><ele>38.0</ele><time>2026-05-01T14:49:26Z</time></trkpt><trkpt lat="42.29819265181991" lon="12.495818731478723"><ele>38.0</ele><time>2026-05-01T14:49:27Z</time></trkpt><trkpt lat="42.297879759275496" lon="12.495972685837827"><ele>37.5</ele><time>2026-05-01T14:49:28Z</time></trkpt><trkpt lat="42.29756326103325" lon="12.496122143584449"><ele>37.0</ele><time>2026-05-01T14:49:29Z</time></trkpt><trkpt lat="42.29724530156532" lon="12.496271671039468"><ele>35.5</ele><time>2026-05-01T14:49:30Z</time></trkpt><trkpt lat="42.296927948264155" lon="12.496423087953115"><ele>34.0</ele><time>2026-05-01T14:49:31Z</time></trkpt><trkpt lat="42.29661195174764" lon="12.496572171341796"><ele>33.0</ele><time>2026-05-01T14:49:32Z</time></trkpt><trkpt lat="42.29629480938358" lon="12.496718326541462"><ele>32.0</ele><time>2026-05-01T14:49:33Z</time></trkpt><trkpt lat="42.29597929620267" lon="12.496865499589186"><ele>32.0</ele><time>2026-05-01T14:49:34Z</time></trkpt><trkpt lat="42.29566505798269" lon="12.497015025981593"><ele>32.0</ele><time>2026-05-01T14:49:35Z</time></trkpt><trkpt lat="42.29535236528341" lon="12.497165636224192"><ele>33.5</ele><time>2026-05-01T14:49:36Z</time></trkpt><trkpt lat="42.2950386787479" lon="12.497313866440422"><ele>35.0</ele><time>2026-05-01T14:49:37Z</time></trkpt><trkpt lat="42.29472358551555" lon="12.497459345750102"><ele>36.0</ele><time>2026-05-01T14:49:38Z</time></trkpt><trkpt lat="42.29440898974498" lon="12.497602397485327"><ele>37.0</ele><time>2026-05-01T14:49:39Z</time></trkpt><trkpt lat="42.29409014450334" lon="12.49774692475965"><ele>37.0</ele><time>2026-05-01T14:49:40Z</time></trkpt><trkpt lat="42.29377310474858" lon="12.497892881192836"><ele>37.0</ele><time>2026-05-01T14:49:41Z</time></trkpt><trkpt lat="42.2934553213185" lon="12.498043571340201"><ele>37.0</ele><time>2026-05-01T14:49:42Z</time></trkpt><trkpt lat="42.29313744004023" lon="12.498197220543531"><ele>37.0</ele><time>2026-05-01T14:49:43Z</time></trkpt><trkpt lat="42.292820285457935" lon="12.498354243642268"><ele>37.5</ele><time>2026-05-01T14:49:44Z</time></trkpt><trkpt lat="42.29250620864796" lon="12.498520242489375"><ele>38.0</ele><time>2026-05-01T14:49:45Z</time></trkpt><trkpt lat="42.29219560019331" lon="12.498697610471105"><ele>37.0</ele><time>2026-05-01T14:49:46Z</time></trkpt><trkpt lat="42.29188929039722" lon="12.498886188784585"><ele>36.0</ele><time>2026-05-01T14:49:47Z</time></trkpt><trkpt lat="42.29159064236709" lon="12.499091984922439"><ele>36.5</ele><time>2026-05-01T14:49:48Z</time></trkpt><trkpt lat="42.29129891020627" lon="12.499309402910358"><ele>37.0</ele><time>2026-05-01T14:49:49Z</time></trkpt><trkpt lat="42.29101194555153" lon="12.499539505874816"><ele>37.0</ele><time>2026-05-01T14:49:50Z</time></trkpt><trkpt lat="42.2907292737076" lon="12.499782071615856"><ele>37.0</ele><time>2026-05-01T14:49:51Z</time></trkpt><trkpt lat="42.290453578661236" lon="12.500035574265642"><ele>37.5</ele><time>2026-05-01T14:49:52Z</time></trkpt><trkpt lat="42.2901868580583" lon="12.500303681692445"><ele>38.0</ele><time>2026-05-01T14:49:53Z</time></trkpt><trkpt lat="42.289926237021774" lon="12.500584642572601"><ele>39.5</ele><time>2026-05-01T14:49:54Z</time></trkpt><trkpt lat="42.28967566261108" lon="12.50088072655617"><ele>41.0</ele><time>2026-05-01T14:49:55Z</time></trkpt><trkpt lat="42.289434754678275" lon="12.501192933871852"><ele>41.0</ele><time>2026-05-01T14:49:56Z</time></trkpt><trkpt lat="42.28920445186906" lon="12.501519096735155"><ele>41.0</ele><time>2026-05-01T14:49:57.001Z</time></trkpt><trkpt lat="42.28898225282192" lon="12.501856870507407"><ele>40.5</ele><time>2026-05-01T14:49:58.001Z</time></trkpt><trkpt lat="42.28876867530496" lon="12.502205949380116"><ele>40.0</ele><time>2026-05-01T14:49:59.001Z</time></trkpt><trkpt lat="42.28856233807841" lon="12.502564319576566"><ele>39.0</ele><time>2026-05-01T14:50:00.001Z</time></trkpt><trkpt lat="42.28836665995033" lon="12.502931400142003"><ele>38.0</ele><time>2026-05-01T14:50:01.001Z</time></trkpt><trkpt lat="42.28818253043723" lon="12.50330735112744"><ele>38.0</ele><time>2026-05-01T14:50:02.001Z</time></trkpt><trkpt lat="42.28800772144852" lon="12.503691614457804"><ele>38.0</ele><time>2026-05-01T14:50:03.001Z</time></trkpt><trkpt lat="42.28784324780662" lon="12.504083766778368"><ele>38.0</ele><time>2026-05-01T14:50:04.001Z</time></trkpt><trkpt lat="42.28768928624976" lon="12.5044833374633"><ele>38.0</ele><time>2026-05-01T14:50:05.001Z</time></trkpt><trkpt lat="42.28754640132235" lon="12.50489409756139"><ele>37.5</ele><time>2026-05-01T14:50:06.001Z</time></trkpt><trkpt lat="42.287412035587685" lon="12.505310194264055"><ele>37.0</ele><time>2026-05-01T14:50:07.001Z</time></trkpt><trkpt lat="42.287283102294666" lon="12.505729764159767"><ele>37.0</ele><time>2026-05-01T14:50:08.001Z</time></trkpt><trkpt lat="42.287156975115025" lon="12.506152818386534"><ele>37.0</ele><time>2026-05-01T14:50:09.001Z</time></trkpt><trkpt lat="42.287029233326166" lon="12.506575087422853"><ele>37.0</ele><time>2026-05-01T14:50:10.001Z</time></trkpt><trkpt lat="42.28690026698465" lon="12.506994827953203"><ele>37.0</ele><time>2026-05-01T14:50:11.001Z</time></trkpt><trkpt lat="42.28677130803839" lon="12.5074133684923"><ele>37.0</ele><time>2026-05-01T14:50:12.001Z</time></trkpt><trkpt lat="42.28664337920799" lon="12.507828501623736"><ele>37.0</ele><time>2026-05-01T14:50:13.001Z</time></trkpt><trkpt lat="42.28651799455741" lon="12.50823771801184"><ele>38.5</ele><time>2026-05-01T14:50:14.001Z</time></trkpt><trkpt lat="42.28639173356857" lon="12.508647619417767"><ele>40.0</ele><time>2026-05-01T14:50:15.001Z</time></trkpt><trkpt lat="42.28626511306895" lon="12.50906077786185"><ele>40.0</ele><time>2026-05-01T14:50:16.001Z</time></trkpt><trkpt lat="42.28613820106261" lon="12.509478892692691"><ele>40.0</ele><time>2026-05-01T14:50:17.001Z</time></trkpt><trkpt lat="42.28601374737602" lon="12.509897170202958"><ele>39.0</ele><time>2026-05-01T14:50:18.001Z</time></trkpt><trkpt lat="42.28588581060132" lon="12.510315370254359"><ele>38.0</ele><time>2026-05-01T14:50:19.001Z</time></trkpt><trkpt lat="42.28575979739957" lon="12.51073577788343"><ele>37.5</ele><time>2026-05-01T14:50:20.001Z</time></trkpt><trkpt lat="42.285633426742066" lon="12.511156258101574"><ele>37.0</ele><time>2026-05-01T14:50:21.001Z</time></trkpt><trkpt lat="42.28550857425647" lon="12.511581178920395"><ele>39.5</ele><time>2026-05-01T14:50:22.001Z</time></trkpt><trkpt lat="42.28538028583077" lon="12.512004543997241"><ele>42.0</ele><time>2026-05-01T14:50:23.001Z</time></trkpt><trkpt lat="42.285251826873406" lon="12.51242616448235"><ele>42.0</ele><time>2026-05-01T14:50:24.001Z</time></trkpt><trkpt lat="42.28512469853341" lon="12.512846977873387"><ele>42.0</ele><time>2026-05-01T14:50:25.001Z</time></trkpt><trkpt lat="42.284995516798325" lon="12.51326694348959"><ele>41.0</ele><time>2026-05-01T14:50:26.001Z</time></trkpt><trkpt lat="42.28486881753025" lon="12.513686053535395"><ele>40.0</ele><time>2026-05-01T14:50:27.001Z</time></trkpt><trkpt lat="42.28474321961322" lon="12.514106200141937"><ele>41.0</ele><time>2026-05-01T14:50:28.001Z</time></trkpt><trkpt lat="42.28461724890177" lon="12.514524622842998"><ele>42.0</ele><time>2026-05-01T14:50:29.001Z</time></trkpt><trkpt lat="42.28449412967736" lon="12.514946697629647"><ele>42.0</ele><time>2026-05-01T14:50:30Z</time></trkpt><trkpt lat="42.28436932722883" lon="12.515361970345268"><ele>42.0</ele><time>2026-05-01T14:50:31Z</time></trkpt><trkpt lat="42.28424998933944" lon="12.515771236255143"><ele>41.0</ele><time>2026-05-01T14:50:32Z</time></trkpt><trkpt lat="42.28413404767607" lon="12.51617713800231"><ele>40.0</ele><time>2026-05-01T14:50:33Z</time></trkpt><trkpt lat="42.284017501674434" lon="12.516579820781338"><ele>46.5</ele><time>2026-05-01T14:50:34Z</time></trkpt><trkpt lat="42.283899692549056" lon="12.516978784759404"><ele>53.0</ele><time>2026-05-01T14:50:35Z</time></trkpt><trkpt lat="42.28378279008021" lon="12.517378092426796"><ele>53.0</ele><time>2026-05-01T14:50:36Z</time></trkpt><trkpt lat="42.283664854757205" lon="12.51778575706723"><ele>53.0</ele><time>2026-05-01T14:50:37Z</time></trkpt><trkpt lat="42.28354028743467" lon="12.518195385052366"><ele>52.5</ele><time>2026-05-01T14:50:38Z</time></trkpt><trkpt lat="42.283416260042436" lon="12.5186104550638"><ele>52.0</ele><time>2026-05-01T14:50:39Z</time></trkpt><trkpt lat="42.28328937514761" lon="12.51902501490325"><ele>51.5</ele><time>2026-05-01T14:50:40Z</time></trkpt><trkpt lat="42.283159342700074" lon="12.519440349934735"><ele>51.0</ele><time>2026-05-01T14:50:41Z</time></trkpt><trkpt lat="42.28302333029283" lon="12.519851810935663"><ele>54.0</ele><time>2026-05-01T14:50:42Z</time></trkpt><trkpt lat="42.2828855107033" lon="12.520263446857964"><ele>57.0</ele><time>2026-05-01T14:50:43Z</time></trkpt><trkpt lat="42.28274398297112" lon="12.520670731948616"><ele>57.0</ele><time>2026-05-01T14:50:44Z</time></trkpt><trkpt lat="42.2825955229821" lon="12.52107557656788"><ele>57.0</ele><time>2026-05-01T14:50:45Z</time></trkpt><trkpt lat="42.28243892724392" lon="12.521472655498998"><ele>57.0</ele><time>2026-05-01T14:50:46Z</time></trkpt><trkpt lat="42.282277475391005" lon="12.521868629333312"><ele>57.0</ele><time>2026-05-01T14:50:47Z</time></trkpt><trkpt lat="42.2821101774258" lon="12.522261527602618"><ele>57.0</ele><time>2026-05-01T14:50:48Z</time></trkpt><trkpt lat="42.28193883265681" lon="12.522649162698551"><ele>57.0</ele><time>2026-05-01T14:50:49Z</time></trkpt><trkpt lat="42.28176292231979" lon="12.523030574015326"><ele>57.5</ele><time>2026-05-01T14:50:50Z</time></trkpt><trkpt lat="42.28158119340169" lon="12.523411762806646"><ele>58.0</ele><time>2026-05-01T14:50:51Z</time></trkpt><trkpt lat="42.28139830586018" lon="12.523792466122242"><ele>58.0</ele><time>2026-05-01T14:50:52Z</time></trkpt><trkpt lat="42.28121636661313" lon="12.524177749478678"><ele>58.0</ele><time>2026-05-01T14:50:53Z</time></trkpt><trkpt lat="42.28103479490588" lon="12.52456404822188"><ele>57.5</ele><time>2026-05-01T14:50:54Z</time></trkpt><trkpt lat="42.28085198956738" lon="12.52494817891969"><ele>57.0</ele><time>2026-05-01T14:50:55Z</time></trkpt><trkpt lat="42.28066869678518" lon="12.52533248726698"><ele>55.5</ele><time>2026-05-01T14:50:56Z</time></trkpt><trkpt lat="42.280485498054745" lon="12.525717041982643"><ele>54.0</ele><time>2026-05-01T14:50:57Z</time></trkpt><trkpt lat="42.28030424688422" lon="12.526103304435559"><ele>53.0</ele><time>2026-05-01T14:50:58Z</time></trkpt><trkpt lat="42.28012610274572" lon="12.52648790370199"><ele>52.0</ele><time>2026-05-01T14:50:59Z</time></trkpt><trkpt lat="42.27994726324393" lon="12.526875503212237"><ele>54.0</ele><time>2026-05-01T14:51:00Z</time></trkpt><trkpt lat="42.27976675365116" lon="12.527260374547009"><ele>56.0</ele><time>2026-05-01T14:51:01Z</time></trkpt><trkpt lat="42.27958668750273" lon="12.52764605978527"><ele>53.5</ele><time>2026-05-01T14:51:02Z</time></trkpt><trkpt lat="42.27940667343102" lon="12.52803158853935"><ele>51.0</ele><time>2026-05-01T14:51:03Z</time></trkpt><trkpt lat="42.27922650077255" lon="12.528416282226097"><ele>50.0</ele><time>2026-05-01T14:51:04Z</time></trkpt><trkpt lat="42.279045612656084" lon="12.52880106250738"><ele>49.0</ele><time>2026-05-01T14:51:05Z</time></trkpt><trkpt lat="42.27886413450538" lon="12.52918534232011"><ele>48.5</ele><time>2026-05-01T14:51:06Z</time></trkpt><trkpt lat="42.27868325909012" lon="12.529568401001711"><ele>48.0</ele><time>2026-05-01T14:51:07Z</time></trkpt><trkpt lat="42.278502782678075" lon="12.529952316534668"><ele>48.0</ele><time>2026-05-01T14:51:08Z</time></trkpt><trkpt lat="42.27832402217567" lon="12.530333500563916"><ele>48.0</ele><time>2026-05-01T14:51:09Z</time></trkpt><trkpt lat="42.27814619137401" lon="12.530712981068344"><ele>48.0</ele><time>2026-05-01T14:51:10Z</time></trkpt><trkpt lat="42.27796914570213" lon="12.531091154490804"><ele>48.0</ele><time>2026-05-01T14:51:11Z</time></trkpt><trkpt lat="42.277789174766134" lon="12.531471268496029"><ele>46.0</ele><time>2026-05-01T14:51:12Z</time></trkpt><trkpt lat="42.27761269350576" lon="12.531850540289541"><ele>44.0</ele><time>2026-05-01T14:51:13Z</time></trkpt><trkpt lat="42.27743413022785" lon="12.532232270027631"><ele>44.0</ele><time>2026-05-01T14:51:14Z</time></trkpt><trkpt lat="42.277255688783534" lon="12.532612976727771"><ele>44.0</ele><time>2026-05-01T14:51:15Z</time></trkpt><trkpt lat="42.27707449894617" lon="12.532992600712033"><ele>44.0</ele><time>2026-05-01T14:51:16Z</time></trkpt><trkpt lat="42.276894982962126" lon="12.533373128428076"><ele>44.0</ele><time>2026-05-01T14:51:17Z</time></trkpt><trkpt lat="42.27671561158434" lon="12.53375372325741"><ele>44.0</ele><time>2026-05-01T14:51:18Z</time></trkpt><trkpt lat="42.27653628089165" lon="12.53413590688808"><ele>44.0</ele><time>2026-05-01T14:51:19Z</time></trkpt><trkpt lat="42.27635847205543" lon="12.534518274149415"><ele>44.5</ele><time>2026-05-01T14:51:20Z</time></trkpt><trkpt lat="42.276179473298185" lon="12.534901464212561"><ele>45.0</ele><time>2026-05-01T14:51:21Z</time></trkpt><trkpt lat="42.275999988342484" lon="12.53528301022424"><ele>45.0</ele><time>2026-05-01T14:51:22Z</time></trkpt><trkpt lat="42.27581964264112" lon="12.535666950570379"><ele>45.0</ele><time>2026-05-01T14:51:23Z</time></trkpt><trkpt lat="42.27564020820532" lon="12.536048663857258"><ele>45.0</ele><time>2026-05-01T14:51:24Z</time></trkpt><trkpt lat="42.27546049522646" lon="12.536432182591845"><ele>45.0</ele><time>2026-05-01T14:51:25Z</time></trkpt><trkpt lat="42.2752804384528" lon="12.5368136841699"><ele>43.5</ele><time>2026-05-01T14:51:26Z</time></trkpt><trkpt lat="42.27510078864442" lon="12.53719650830687"><ele>42.0</ele><time>2026-05-01T14:51:27Z</time></trkpt><trkpt lat="42.27492192691471" lon="12.53757807516902"><ele>43.0</ele><time>2026-05-01T14:51:28Z</time></trkpt><trkpt lat="42.27474374901858" lon="12.537960462129426"><ele>44.0</ele><time>2026-05-01T14:51:29Z</time></trkpt><trkpt lat="42.27456639825075" lon="12.538344241617448"><ele>43.0</ele><time>2026-05-01T14:51:30Z</time></trkpt><trkpt lat="42.27438735835242" lon="12.538727415439094"><ele>42.0</ele><time>2026-05-01T14:51:31Z</time></trkpt><trkpt lat="42.27420736700254" lon="12.539107214559303"><ele>42.0</ele><time>2026-05-01T14:51:32Z</time></trkpt><trkpt lat="42.27402620787421" lon="12.539487338671812"><ele>42.0</ele><time>2026-05-01T14:51:33Z</time></trkpt><trkpt lat="42.27384646235812" lon="12.539868444292651"><ele>44.0</ele><time>2026-05-01T14:51:34Z</time></trkpt><trkpt lat="42.27366867784189" lon="12.540249341447609"><ele>46.0</ele><time>2026-05-01T14:51:35Z</time></trkpt><trkpt lat="42.27349004308096" lon="12.54063154577092"><ele>46.5</ele><time>2026-05-01T14:51:36Z</time></trkpt><trkpt lat="42.273309597857406" lon="12.541014745636778"><ele>47.0</ele><time>2026-05-01T14:51:37Z</time></trkpt><trkpt lat="42.273129460900314" lon="12.541395331754508"><ele>47.5</ele><time>2026-05-01T14:51:38Z</time></trkpt><trkpt lat="42.27295045902124" lon="12.541779030603115"><ele>48.0</ele><time>2026-05-01T14:51:39Z</time></trkpt><trkpt lat="42.27277065036616" lon="12.54216314235147"><ele>48.0</ele><time>2026-05-01T14:51:40Z</time></trkpt><trkpt lat="42.27258968208297" lon="12.542547070385234"><ele>48.0</ele><time>2026-05-01T14:51:41Z</time></trkpt><trkpt lat="42.272405767017624" lon="12.542927059328676"><ele>50.0</ele><time>2026-05-01T14:51:42Z</time></trkpt><trkpt lat="42.27222527533106" lon="12.54331253385528"><ele>52.0</ele><time>2026-05-01T14:51:43Z</time></trkpt><trkpt lat="42.27204691419419" lon="12.543698999683524"><ele>47.0</ele><time>2026-05-01T14:51:44Z</time></trkpt><trkpt lat="42.27186883594387" lon="12.544084948086628"><ele>42.0</ele><time>2026-05-01T14:51:45Z</time></trkpt><trkpt lat="42.27168678021513" lon="12.544467081975226"><ele>43.0</ele><time>2026-05-01T14:51:46Z</time></trkpt><trkpt lat="42.27150571784811" lon="12.544846423055674"><ele>44.0</ele><time>2026-05-01T14:51:47Z</time></trkpt><trkpt lat="42.27132649267822" lon="12.545226145387817"><ele>48.5</ele><time>2026-05-01T14:51:48Z</time></trkpt><trkpt lat="42.27115332979495" lon="12.54561014095447"><ele>53.0</ele><time>2026-05-01T14:51:49Z</time></trkpt><trkpt lat="42.270977194144905" lon="12.545992404897374"><ele>52.0</ele><time>2026-05-01T14:51:50Z</time></trkpt><trkpt lat="42.27079948340853" lon="12.54637715748818"><ele>51.0</ele><time>2026-05-01T14:51:51Z</time></trkpt><trkpt lat="42.27061994890073" lon="12.546760097979545"><ele>53.5</ele><time>2026-05-01T14:51:52Z</time></trkpt><trkpt lat="42.27043966761428" lon="12.5471430109182"><ele>56.0</ele><time>2026-05-01T14:51:53Z</time></trkpt><trkpt lat="42.27025613090195" lon="12.547524850871472"><ele>52.0</ele><time>2026-05-01T14:51:53.999Z</time></trkpt><trkpt lat="42.27007282154446" lon="12.547908114143826"><ele>48.0</ele><time>2026-05-01T14:51:54.999Z</time></trkpt><trkpt lat="42.269880419173525" lon="12.548282771712664"><ele>48.5</ele><time>2026-05-01T14:51:55.999Z</time></trkpt><trkpt lat="42.26967085530448" lon="12.548633098234792"><ele>49.0</ele><time>2026-05-01T14:51:56.999Z</time></trkpt><trkpt lat="42.269441862108096" lon="12.548952040493539"><ele>47.5</ele><time>2026-05-01T14:51:57.999Z</time></trkpt><trkpt lat="42.269195301642654" lon="12.54924842005925"><ele>46.0</ele><time>2026-05-01T14:51:58.999Z</time></trkpt><trkpt lat="42.26893536439635" lon="12.549520051384304"><ele>44.5</ele><time>2026-05-01T14:51:59.999Z</time></trkpt><trkpt lat="42.268660393656866" lon="12.549766902795435"><ele>43.0</ele><time>2026-05-01T14:52:00.999Z</time></trkpt><trkpt lat="42.26837712866344" lon="12.549987941351967"><ele>45.0</ele><time>2026-05-01T14:52:01.999Z</time></trkpt><trkpt lat="42.268087572382086" lon="12.550180239443323"><ele>47.0</ele><time>2026-05-01T14:52:03.001Z</time></trkpt><trkpt lat="42.2677977442281" lon="12.550347354781493"><ele>46.5</ele><time>2026-05-01T14:52:04.001Z</time></trkpt><trkpt lat="42.26750436180031" lon="12.550496652385416"><ele>46.0</ele><time>2026-05-01T14:52:05.001Z</time></trkpt><trkpt lat="42.26720228390797" lon="12.550635059235306"><ele>46.0</ele><time>2026-05-01T14:52:06.001Z</time></trkpt><trkpt lat="42.26689355092286" lon="12.550772798577357"><ele>46.0</ele><time>2026-05-01T14:52:07.001Z</time></trkpt><trkpt lat="42.26657991488009" lon="12.550916995458323"><ele>46.0</ele><time>2026-05-01T14:52:08.001Z</time></trkpt><trkpt lat="42.26626576403313" lon="12.55106466285612"><ele>46.0</ele><time>2026-05-01T14:52:09.001Z</time></trkpt><trkpt lat="42.265946949819245" lon="12.551210308496653"><ele>46.0</ele><time>2026-05-01T14:52:10.001Z</time></trkpt><trkpt lat="42.26562665922853" lon="12.551353458227489"><ele>46.0</ele><time>2026-05-01T14:52:11.001Z</time></trkpt><trkpt lat="42.26530723504583" lon="12.551494581541917"><ele>46.5</ele><time>2026-05-01T14:52:12.001Z</time></trkpt><trkpt lat="42.26498717224186" lon="12.551639328413726"><ele>47.0</ele><time>2026-05-01T14:52:13.001Z</time></trkpt><trkpt lat="42.26466974446628" lon="12.55178472125548"><ele>46.5</ele><time>2026-05-01T14:52:14.001Z</time></trkpt><trkpt lat="42.26435286451798" lon="12.551928045163502"><ele>46.0</ele><time>2026-05-01T14:52:15.001Z</time></trkpt><trkpt lat="42.26403695090387" lon="12.552070215746262"><ele>46.5</ele><time>2026-05-01T14:52:16.001Z</time></trkpt><trkpt lat="42.26372035708606" lon="12.552213344426049"><ele>47.0</ele><time>2026-05-01T14:52:17.001Z</time></trkpt><trkpt lat="42.263402515478305" lon="12.552355895336298"><ele>47.5</ele><time>2026-05-01T14:52:18.001Z</time></trkpt><trkpt lat="42.26308643199716" lon="12.552496421021175"><ele>48.0</ele><time>2026-05-01T14:52:19.001Z</time></trkpt><trkpt lat="42.26276989284608" lon="12.55263665366978"><ele>48.0</ele><time>2026-05-01T14:52:20.001Z</time></trkpt><trkpt lat="42.26245324907836" lon="12.552777925530876"><ele>48.0</ele><time>2026-05-01T14:52:21.001Z</time></trkpt><trkpt lat="42.26213822497722" lon="12.552919343048364"><ele>51.5</ele><time>2026-05-01T14:52:22.001Z</time></trkpt><trkpt lat="42.26182277971295" lon="12.553061910707058"><ele>55.0</ele><time>2026-05-01T14:52:23.001Z</time></trkpt><trkpt lat="42.26150301724795" lon="12.553208456225844"><ele>54.5</ele><time>2026-05-01T14:52:24.001Z</time></trkpt><trkpt lat="42.26118528432256" lon="12.553355986227764"><ele>54.0</ele><time>2026-05-01T14:52:25.001Z</time></trkpt><trkpt lat="42.26086572551738" lon="12.553502778779455"><ele>54.0</ele><time>2026-05-01T14:52:26.001Z</time></trkpt><trkpt lat="42.26054477199363" lon="12.553647912670085"><ele>54.0</ele><time>2026-05-01T14:52:27.001Z</time></trkpt><trkpt lat="42.26022391815774" lon="12.553790177341059"><ele>55.5</ele><time>2026-05-01T14:52:28.001Z</time></trkpt><trkpt lat="42.259902130075226" lon="12.553935790296157"><ele>57.0</ele><time>2026-05-01T14:52:29.001Z</time></trkpt><trkpt lat="42.25958082277832" lon="12.554081166367894"><ele>57.0</ele><time>2026-05-01T14:52:30Z</time></trkpt><trkpt lat="42.259260189915416" lon="12.554226106268919"><ele>57.0</ele><time>2026-05-01T14:52:31Z</time></trkpt><trkpt lat="42.25893890900023" lon="12.554372182744466"><ele>56.0</ele><time>2026-05-01T14:52:32Z</time></trkpt><trkpt lat="42.25861803573348" lon="12.554517972545916"><ele>55.0</ele><time>2026-05-01T14:52:33Z</time></trkpt><trkpt lat="42.25829867741529" lon="12.554663654800686"><ele>59.0</ele><time>2026-05-01T14:52:34Z</time></trkpt><trkpt lat="42.25797980843475" lon="12.55480801021333"><ele>63.0</ele><time>2026-05-01T14:52:35Z</time></trkpt><trkpt lat="42.25766010038084" lon="12.554952437104664"><ele>63.0</ele><time>2026-05-01T14:52:36Z</time></trkpt><trkpt lat="42.25734453438772" lon="12.555108519253613"><ele>63.0</ele><time>2026-05-01T14:52:37Z</time></trkpt><trkpt lat="42.257033880791916" lon="12.555283417455371"><ele>65.0</ele><time>2026-05-01T14:52:38Z</time></trkpt><trkpt lat="42.25673848616156" lon="12.555486398384664"><ele>67.0</ele><time>2026-05-01T14:52:39Z</time></trkpt><trkpt lat="42.25645623711658" lon="12.555716267037571"><ele>67.0</ele><time>2026-05-01T14:52:40Z</time></trkpt><trkpt lat="42.256191245940606" lon="12.555976485059665"><ele>67.0</ele><time>2026-05-01T14:52:41Z</time></trkpt><trkpt lat="42.255945204693106" lon="12.556266517197049"><ele>67.0</ele><time>2026-05-01T14:52:42Z</time></trkpt><trkpt lat="42.25571787264957" lon="12.556582921914583"><ele>67.0</ele><time>2026-05-01T14:52:43Z</time></trkpt><trkpt lat="42.25551142468667" lon="12.55692306127854"><ele>67.0</ele><time>2026-05-01T14:52:44Z</time></trkpt><trkpt lat="42.25532779667434" lon="12.557285420325135"><ele>67.0</ele><time>2026-05-01T14:52:45Z</time></trkpt><trkpt lat="42.25516279133859" lon="12.557664377485505"><ele>68.5</ele><time>2026-05-01T14:52:46Z</time></trkpt><trkpt lat="42.25501621594844" lon="12.558058999687978"><ele>70.0</ele><time>2026-05-01T14:52:47Z</time></trkpt><trkpt lat="42.25487930031889" lon="12.5584637506551"><ele>70.5</ele><time>2026-05-01T14:52:48Z</time></trkpt><trkpt lat="42.25474547020106" lon="12.558872903126515"><ele>71.0</ele><time>2026-05-01T14:52:49Z</time></trkpt><trkpt lat="42.254610276584486" lon="12.55928568194855"><ele>72.5</ele><time>2026-05-01T14:52:50Z</time></trkpt><trkpt lat="42.25447084034196" lon="12.559698098674327"><ele>74.0</ele><time>2026-05-01T14:52:51Z</time></trkpt><trkpt lat="42.25433147713441" lon="12.56011046335688"><ele>78.0</ele><time>2026-05-01T14:52:52Z</time></trkpt><trkpt lat="42.25419135923421" lon="12.560523074326676"><ele>82.0</ele><time>2026-05-01T14:52:53Z</time></trkpt><trkpt lat="42.25405241287741" lon="12.56093631341451"><ele>78.5</ele><time>2026-05-01T14:52:54Z</time></trkpt><trkpt lat="42.25391294938754" lon="12.561351023385988"><ele>75.0</ele><time>2026-05-01T14:52:55Z</time></trkpt><trkpt lat="42.25377054207146" lon="12.561766104355813"><ele>79.5</ele><time>2026-05-01T14:52:56Z</time></trkpt><trkpt lat="42.25362645627297" lon="12.562177399790881"><ele>84.0</ele><time>2026-05-01T14:52:57Z</time></trkpt><trkpt lat="42.25348138772153" lon="12.56258656219072"><ele>87.0</ele><time>2026-05-01T14:52:58Z</time></trkpt><trkpt lat="42.25333667161266" lon="12.562995434226218"><ele>90.0</ele><time>2026-05-01T14:52:59Z</time></trkpt><trkpt lat="42.25319291485471" lon="12.563404707488788"><ele>85.0</ele><time>2026-05-01T14:53:00Z</time></trkpt><trkpt lat="42.25305275546696" lon="12.563816140214971"><ele>80.0</ele><time>2026-05-01T14:53:01Z</time></trkpt><trkpt lat="42.25291429561022" lon="12.56422797149185"><ele>80.0</ele><time>2026-05-01T14:53:02Z</time></trkpt><trkpt lat="42.25277510185512" lon="12.564637135801338"><ele>80.0</ele><time>2026-05-01T14:53:03Z</time></trkpt><trkpt lat="42.25263493782704" lon="12.565044145814223"><ele>84.0</ele><time>2026-05-01T14:53:04Z</time></trkpt><trkpt lat="42.25249669152915" lon="12.565449697116007"><ele>88.0</ele><time>2026-05-01T14:53:05Z</time></trkpt><trkpt lat="42.252358239660346" lon="12.56585611211749"><ele>83.5</ele><time>2026-05-01T14:53:06Z</time></trkpt><trkpt lat="42.2522218115196" lon="12.566260213589501"><ele>79.0</ele><time>2026-05-01T14:53:07Z</time></trkpt><trkpt lat="42.2520840502804" lon="12.566660983605392"><ele>80.5</ele><time>2026-05-01T14:53:08Z</time></trkpt><trkpt lat="42.25194652525836" lon="12.567062675206385"><ele>82.0</ele><time>2026-05-01T14:53:09Z</time></trkpt><trkpt lat="42.25180940115556" lon="12.56746245861637"><ele>83.5</ele><time>2026-05-01T14:53:10Z</time></trkpt><trkpt lat="42.251671961752486" lon="12.567862031801234"><ele>85.0</ele><time>2026-05-01T14:53:11Z</time></trkpt><trkpt lat="42.25153440125689" lon="12.56826036668829"><ele>83.5</ele><time>2026-05-01T14:53:12Z</time></trkpt><trkpt lat="42.25139753312113" lon="12.568656126609124"><ele>82.0</ele><time>2026-05-01T14:53:13Z</time></trkpt><trkpt lat="42.25126142409492" lon="12.569053308547707"><ele>82.0</ele><time>2026-05-01T14:53:14Z</time></trkpt><trkpt lat="42.25112621761742" lon="12.56945035823098"><ele>82.0</ele><time>2026-05-01T14:53:15Z</time></trkpt><trkpt lat="42.25099175919691" lon="12.569848404389258"><ele>86.0</ele><time>2026-05-01T14:53:16Z</time></trkpt><trkpt lat="42.25085839431844" lon="12.570248832641475"><ele>90.0</ele><time>2026-05-01T14:53:17Z</time></trkpt><trkpt lat="42.250732498532194" lon="12.5706539080283"><ele>89.5</ele><time>2026-05-01T14:53:18Z</time></trkpt><trkpt lat="42.25061194195336" lon="12.571063141992378"><ele>89.0</ele><time>2026-05-01T14:53:19Z</time></trkpt><trkpt lat="42.250497834692155" lon="12.57148031818641"><ele>91.0</ele><time>2026-05-01T14:53:20Z</time></trkpt><trkpt lat="42.25038722914395" lon="12.57190338534989"><ele>93.0</ele><time>2026-05-01T14:53:21Z</time></trkpt><trkpt lat="42.25028208846112" lon="12.572328536159391"><ele>94.0</ele><time>2026-05-01T14:53:22Z</time></trkpt><trkpt lat="42.250178048344345" lon="12.572757966447089"><ele>95.0</ele><time>2026-05-01T14:53:23Z</time></trkpt><trkpt lat="42.25007254502707" lon="12.573188477415465"><ele>98.0</ele><time>2026-05-01T14:53:24Z</time></trkpt><trkpt lat="42.24996591001838" lon="12.573619791573583"><ele>101.0</ele><time>2026-05-01T14:53:25Z</time></trkpt><trkpt lat="42.24986016395805" lon="12.5740497004843"><ele>98.5</ele><time>2026-05-01T14:53:26Z</time></trkpt><trkpt lat="42.24975636259632" lon="12.574480022591077"><ele>96.0</ele><time>2026-05-01T14:53:27Z</time></trkpt><trkpt lat="42.24965036650503" lon="12.574907654911701"><ele>96.0</ele><time>2026-05-01T14:53:28Z</time></trkpt><trkpt lat="42.249540309114245" lon="12.575331743507066"><ele>96.0</ele><time>2026-05-01T14:53:29Z</time></trkpt><trkpt lat="42.24941814233829" lon="12.575751454543486"><ele>96.0</ele><time>2026-05-01T14:53:30Z</time></trkpt><trkpt lat="42.24928295907605" lon="12.576158865927301"><ele>96.0</ele><time>2026-05-01T14:53:31Z</time></trkpt><trkpt lat="42.249138081387706" lon="12.576556223281097"><ele>99.0</ele><time>2026-05-01T14:53:32Z</time></trkpt><trkpt lat="42.24897668268873" lon="12.576940418764229"><ele>102.0</ele><time>2026-05-01T14:53:33Z</time></trkpt><trkpt lat="42.248803727379084" lon="12.577317664770382"><ele>102.0</ele><time>2026-05-01T14:53:34Z</time></trkpt><trkpt lat="42.24861724975637" lon="12.577684979006476"><ele>102.0</ele><time>2026-05-01T14:53:35Z</time></trkpt><trkpt lat="42.24841585166567" lon="12.578040017773585"><ele>107.5</ele><time>2026-05-01T14:53:36Z</time></trkpt><trkpt lat="42.248199901507796" lon="12.578377707324663"><ele>113.0</ele><time>2026-05-01T14:53:37Z</time></trkpt><trkpt lat="42.24797060091689" lon="12.578698796143948"><ele>113.0</ele><time>2026-05-01T14:53:38Z</time></trkpt><trkpt lat="42.247730258001404" lon="12.579008380752514"><ele>113.0</ele><time>2026-05-01T14:53:39Z</time></trkpt><trkpt lat="42.247479435013595" lon="12.579303106638864"><ele>114.0</ele><time>2026-05-01T14:53:40Z</time></trkpt><trkpt lat="42.24721809494381" lon="12.57958509448378"><ele>115.0</ele><time>2026-05-01T14:53:41Z</time></trkpt><trkpt lat="42.246950035759525" lon="12.579850128205473"><ele>115.0</ele><time>2026-05-01T14:53:42Z</time></trkpt><trkpt lat="42.24667801874879" lon="12.580102630492044"><ele>115.0</ele><time>2026-05-01T14:53:43Z</time></trkpt><trkpt lat="42.24640348070241" lon="12.580352450577893"><ele>118.5</ele><time>2026-05-01T14:53:44Z</time></trkpt><trkpt lat="42.24612742933084" lon="12.580603424232413"><ele>122.0</ele><time>2026-05-01T14:53:45Z</time></trkpt><trkpt lat="42.245852195064536" lon="12.58085440842846"><ele>122.0</ele><time>2026-05-01T14:53:46Z</time></trkpt><trkpt lat="42.2455783955662" lon="12.581104203489808"><ele>122.0</ele><time>2026-05-01T14:53:47Z</time></trkpt><trkpt lat="42.24530376354188" lon="12.581355974713132"><ele>122.0</ele><time>2026-05-01T14:53:48Z</time></trkpt><trkpt lat="42.245029501821044" lon="12.581607637634653"><ele>122.0</ele><time>2026-05-01T14:53:49Z</time></trkpt><trkpt lat="42.24475597685193" lon="12.581855916935105"><ele>123.0</ele><time>2026-05-01T14:53:49.999Z</time></trkpt><trkpt lat="42.24448062708757" lon="12.582101508155423"><ele>124.0</ele><time>2026-05-01T14:53:50.999Z</time></trkpt><trkpt lat="42.244204494354754" lon="12.582343779216005"><ele>122.0</ele><time>2026-05-01T14:53:51.999Z</time></trkpt><trkpt lat="42.24392650568021" lon="12.582584989376"><ele>120.0</ele><time>2026-05-01T14:53:52.999Z</time></trkpt><trkpt lat="42.243646520831014" lon="12.58282502394278"><ele>125.5</ele><time>2026-05-01T14:53:53.999Z</time></trkpt><trkpt lat="42.24336499101702" lon="12.583059471817197"><ele>131.0</ele><time>2026-05-01T14:53:54.999Z</time></trkpt><trkpt lat="42.24308089317369" lon="12.583289424477165"><ele>131.0</ele><time>2026-05-01T14:53:55.999Z</time></trkpt><trkpt lat="42.242796990367076" lon="12.583516735517232"><ele>131.0</ele><time>2026-05-01T14:53:56.999Z</time></trkpt><trkpt lat="42.24251108302309" lon="12.583741700722651"><ele>130.0</ele><time>2026-05-01T14:53:57.999Z</time></trkpt><trkpt lat="42.242224441845124" lon="12.583968047558814"><ele>129.0</ele><time>2026-05-01T14:53:58.999Z</time></trkpt><trkpt lat="42.241937366084635" lon="12.584196208014923"><ele>129.0</ele><time>2026-05-01T14:53:59.999Z</time></trkpt><trkpt lat="42.241651219561064" lon="12.584426662268307"><ele>129.0</ele><time>2026-05-01T14:54:00.999Z</time></trkpt><trkpt lat="42.241365266725914" lon="12.584659512025286"><ele>129.5</ele><time>2026-05-01T14:54:01.999Z</time></trkpt><trkpt lat="42.241080348935455" lon="12.58489265998586"><ele>130.0</ele><time>2026-05-01T14:54:02.999Z</time></trkpt><trkpt lat="42.240799441366036" lon="12.585132604350598"><ele>137.5</ele><time>2026-05-01T14:54:03.999Z</time></trkpt><trkpt lat="42.24052426757857" lon="12.585383437110396"><ele>145.0</ele><time>2026-05-01T14:54:04.999Z</time></trkpt><trkpt lat="42.24025491880812" lon="12.585643695640673"><ele>145.0</ele><time>2026-05-01T14:54:05.999Z</time></trkpt><trkpt lat="42.23999104641098" lon="12.585910458801614"><ele>145.0</ele><time>2026-05-01T14:54:06.999Z</time></trkpt><trkpt lat="42.239730848551595" lon="12.586183260740935"><ele>151.5</ele><time>2026-05-01T14:54:07.999Z</time></trkpt><trkpt lat="42.239474249968296" lon="12.586465117030222"><ele>158.0</ele><time>2026-05-01T14:54:09.001Z</time></trkpt><trkpt lat="42.23922168344408" lon="12.586753673482395"><ele>155.5</ele><time>2026-05-01T14:54:10.001Z</time></trkpt><trkpt lat="42.23897254001381" lon="12.587048418903747"><ele>153.0</ele><time>2026-05-01T14:54:11.001Z</time></trkpt><trkpt lat="42.23872576616372" lon="12.58734756769194"><ele>154.0</ele><time>2026-05-01T14:54:12.001Z</time></trkpt><trkpt lat="42.238480249971424" lon="12.587650020989246"><ele>155.0</ele><time>2026-05-01T14:54:13.001Z</time></trkpt><trkpt lat="42.23823609771495" lon="12.587955642673395"><ele>164.0</ele><time>2026-05-01T14:54:14.001Z</time></trkpt><trkpt lat="42.23799403016254" lon="12.588258016425524"><ele>173.0</ele><time>2026-05-01T14:54:15.001Z</time></trkpt><trkpt lat="42.23775693896006" lon="12.58855084616662"><ele>165.5</ele><time>2026-05-01T14:54:16.001Z</time></trkpt><trkpt lat="42.23752874819032" lon="12.588835707236143"><ele>158.0</ele><time>2026-05-01T14:54:17.001Z</time></trkpt><trkpt lat="42.237310425631435" lon="12.589111607109086"><ele>160.5</ele><time>2026-05-01T14:54:18.001Z</time></trkpt><trkpt lat="42.23709728886783" lon="12.589385170051271"><ele>163.0</ele><time>2026-05-01T14:54:19.001Z</time></trkpt><trkpt lat="42.2368822906238" lon="12.589662597725669"><ele>163.0</ele><time>2026-05-01T14:54:20.001Z</time></trkpt><trkpt lat="42.23665884745856" lon="12.589946434727429"><ele>163.0</ele><time>2026-05-01T14:54:21.001Z</time></trkpt><trkpt lat="42.236428495388004" lon="12.590225802900816"><ele>167.0</ele><time>2026-05-01T14:54:22.001Z</time></trkpt><trkpt lat="42.23618696357704" lon="12.590492502210763"><ele>171.0</ele><time>2026-05-01T14:54:23.001Z</time></trkpt><trkpt lat="42.235927532946775" lon="12.590735907370009"><ele>171.0</ele><time>2026-05-01T14:54:24.001Z</time></trkpt><trkpt lat="42.235650496070456" lon="12.5909554148483"><ele>171.0</ele><time>2026-05-01T14:54:25.001Z</time></trkpt><trkpt lat="42.23535965032008" lon="12.591144052440784"><ele>171.0</ele><time>2026-05-01T14:54:26.001Z</time></trkpt><trkpt lat="42.23505994407638" lon="12.591300792444382"><ele>171.0</ele><time>2026-05-01T14:54:27.001Z</time></trkpt><trkpt lat="42.234750571880014" lon="12.591425036727369"><ele>174.5</ele><time>2026-05-01T14:54:28Z</time></trkpt><trkpt lat="42.234435524831575" lon="12.591515246580386"><ele>178.0</ele><time>2026-05-01T14:54:29Z</time></trkpt><trkpt lat="42.234117048582725" lon="12.591571532504306"><ele>186.5</ele><time>2026-05-01T14:54:30Z</time></trkpt><trkpt lat="42.233794400750696" lon="12.591600219981789"><ele>195.0</ele><time>2026-05-01T14:54:31Z</time></trkpt><trkpt lat="42.23346750746534" lon="12.59160871829374"><ele>205.5</ele><time>2026-05-01T14:54:32Z</time></trkpt><trkpt lat="42.23313337938833" lon="12.591609209483098"><ele>216.0</ele><time>2026-05-01T14:54:33Z</time></trkpt><trkpt lat="42.23279432141709" lon="12.591612807429138"><ele>216.0</ele><time>2026-05-01T14:54:34Z</time></trkpt><trkpt lat="42.23245182471235" lon="12.591615940037485"><ele>216.0</ele><time>2026-05-01T14:54:35Z</time></trkpt><trkpt lat="42.232106507797845" lon="12.591616349858361"><ele>217.5</ele><time>2026-05-01T14:54:36Z</time></trkpt><trkpt lat="42.231757607257336" lon="12.591614262984265"><ele>219.0</ele><time>2026-05-01T14:54:37Z</time></trkpt><trkpt lat="42.23140600445513" lon="12.591610484402995"><ele>205.0</ele><time>2026-05-01T14:54:38Z</time></trkpt><trkpt lat="42.23105419773373" lon="12.591606663257693"><ele>191.0</ele><time>2026-05-01T14:54:39Z</time></trkpt><trkpt lat="42.230714593586605" lon="12.591613492405921"><ele>180.0</ele><time>2026-05-01T14:54:40Z</time></trkpt><trkpt lat="42.2303687806275" lon="12.591622128304827"><ele>169.0</ele><time>2026-05-01T14:54:41Z</time></trkpt><trkpt lat="42.230039734580494" lon="12.591617567173676"><ele>165.5</ele><time>2026-05-01T14:54:42Z</time></trkpt><trkpt lat="42.229697016134416" lon="12.59162367598164"><ele>162.0</ele><time>2026-05-01T14:54:43Z</time></trkpt><trkpt lat="42.229363781948535" lon="12.59163423862948"><ele>162.0</ele><time>2026-05-01T14:54:44Z</time></trkpt><trkpt lat="42.22903396835535" lon="12.591649109340228"><ele>162.0</ele><time>2026-05-01T14:54:45Z</time></trkpt><trkpt lat="42.22871056045368" lon="12.591660861254281"><ele>162.0</ele><time>2026-05-01T14:54:46Z</time></trkpt><trkpt lat="42.22840053822761" lon="12.59167474465194"><ele>162.0</ele><time>2026-05-01T14:54:47Z</time></trkpt><trkpt lat="42.22807449766694" lon="12.591685720651572"><ele>163.5</ele><time>2026-05-01T14:54:48Z</time></trkpt><trkpt lat="42.227746244788" lon="12.591695334655128"><ele>165.0</ele><time>2026-05-01T14:54:49Z</time></trkpt><trkpt lat="42.22741535379217" lon="12.591703032294213"><ele>160.5</ele><time>2026-05-01T14:54:50Z</time></trkpt><trkpt lat="42.22708208181837" lon="12.591708742341794"><ele>156.0</ele><time>2026-05-01T14:54:51Z</time></trkpt><trkpt lat="42.22674909617633" lon="12.591710441741363"><ele>153.0</ele><time>2026-05-01T14:54:52Z</time></trkpt><trkpt lat="42.22641268813971" lon="12.591717560010395"><ele>150.0</ele><time>2026-05-01T14:54:53Z</time></trkpt><trkpt lat="42.22607822941583" lon="12.591726790090698"><ele>150.0</ele><time>2026-05-01T14:54:54Z</time></trkpt><trkpt lat="42.22574188473094" lon="12.591733121171664"><ele>150.0</ele><time>2026-05-01T14:54:55Z</time></trkpt><trkpt lat="42.22540639385039" lon="12.591741812353668"><ele>158.5</ele><time>2026-05-01T14:54:56Z</time></trkpt><trkpt lat="42.22507152250362" lon="12.5917578463823"><ele>167.0</ele><time>2026-05-01T14:54:57Z</time></trkpt><trkpt lat="42.22473529739554" lon="12.591793817025165"><ele>168.0</ele><time>2026-05-01T14:54:58Z</time></trkpt><trkpt lat="42.22440322322816" lon="12.591868449791958"><ele>169.0</ele><time>2026-05-01T14:54:59Z</time></trkpt><trkpt lat="42.22408166111556" lon="12.591972907279436"><ele>160.0</ele><time>2026-05-01T14:55:00Z</time></trkpt><trkpt lat="42.22376757975639" lon="12.592110129393083"><ele>151.0</ele><time>2026-05-01T14:55:01Z</time></trkpt><trkpt lat="42.22346551646701" lon="12.59228658622355"><ele>151.0</ele><time>2026-05-01T14:55:02Z</time></trkpt><trkpt lat="42.22317677944172" lon="12.592494698094107"><ele>151.0</ele><time>2026-05-01T14:55:03Z</time></trkpt><trkpt lat="42.22290143567387" lon="12.59273297750579"><ele>148.5</ele><time>2026-05-01T14:55:04Z</time></trkpt><trkpt lat="42.22263445889218" lon="12.592995493519552"><ele>146.0</ele><time>2026-05-01T14:55:05Z</time></trkpt><trkpt lat="42.2223801244339" lon="12.593280463128005"><ele>147.0</ele><time>2026-05-01T14:55:06Z</time></trkpt><trkpt lat="42.222133413827144" lon="12.593579763366938"><ele>148.0</ele><time>2026-05-01T14:55:07Z</time></trkpt><trkpt lat="42.221887323721695" lon="12.593886791711617"><ele>148.0</ele><time>2026-05-01T14:55:08Z</time></trkpt><trkpt lat="42.22164098577041" lon="12.594200673132846"><ele>148.0</ele><time>2026-05-01T14:55:09Z</time></trkpt><trkpt lat="42.2213968894881" lon="12.594518103193428"><ele>154.0</ele><time>2026-05-01T14:55:10Z</time></trkpt><trkpt lat="42.22114773736662" lon="12.59483056678991"><ele>160.0</ele><time>2026-05-01T14:55:11Z</time></trkpt><trkpt lat="42.22089070393787" lon="12.595130880476521"><ele>157.5</ele><time>2026-05-01T14:55:12Z</time></trkpt><trkpt lat="42.22062209929378" lon="12.595413275199558"><ele>155.0</ele><time>2026-05-01T14:55:13Z</time></trkpt><trkpt lat="42.220345111703416" lon="12.595677205796239"><ele>155.0</ele><time>2026-05-01T14:55:14Z</time></trkpt><trkpt lat="42.22005515308185" lon="12.595909526171068"><ele>155.0</ele><time>2026-05-01T14:55:15Z</time></trkpt><trkpt lat="42.21975202664839" lon="12.596100957613235"><ele>149.0</ele><time>2026-05-01T14:55:16Z</time></trkpt><trkpt lat="42.21944088313846" lon="12.59625300710045"><ele>143.0</ele><time>2026-05-01T14:55:17Z</time></trkpt><trkpt lat="42.21912488729465" lon="12.59637766436846"><ele>140.0</ele><time>2026-05-01T14:55:18Z</time></trkpt><trkpt lat="42.2188049485745" lon="12.5964812361113"><ele>137.0</ele><time>2026-05-01T14:55:19Z</time></trkpt><trkpt lat="42.21847730672886" lon="12.596591123514933"><ele>136.0</ele><time>2026-05-01T14:55:20Z</time></trkpt><trkpt lat="42.218134262132864" lon="12.596697200469592"><ele>135.0</ele><time>2026-05-01T14:55:21Z</time></trkpt><trkpt lat="42.217808121818955" lon="12.596805608335131"><ele>135.0</ele><time>2026-05-01T14:55:22Z</time></trkpt><trkpt lat="42.21748845944003" lon="12.596944947314908"><ele>135.0</ele><time>2026-05-01T14:55:23Z</time></trkpt><trkpt lat="42.217172719159066" lon="12.59709276596125"><ele>127.5</ele><time>2026-05-01T14:55:24Z</time></trkpt><trkpt lat="42.21686129843991" lon="12.59725094859778"><ele>120.0</ele><time>2026-05-01T14:55:25Z</time></trkpt><trkpt lat="42.216554912175546" lon="12.597432160173673"><ele>121.5</ele><time>2026-05-01T14:55:26Z</time></trkpt><trkpt lat="42.21626233852865" lon="12.597646071314633"><ele>123.0</ele><time>2026-05-01T14:55:27Z</time></trkpt><trkpt lat="42.21598929411979" lon="12.597891720786523"><ele>123.0</ele><time>2026-05-01T14:55:28Z</time></trkpt><trkpt lat="42.21573135758826" lon="12.598167376968473"><ele>123.0</ele><time>2026-05-01T14:55:29Z</time></trkpt><trkpt lat="42.215481630190915" lon="12.598461269478078"><ele>124.0</ele><time>2026-05-01T14:55:30Z</time></trkpt><trkpt lat="42.21523235234107" lon="12.598759819640037"><ele>125.0</ele><time>2026-05-01T14:55:31Z</time></trkpt><trkpt lat="42.21497729254766" lon="12.599058156268287"><ele>125.0</ele><time>2026-05-01T14:55:32Z</time></trkpt><trkpt lat="42.21472495796945" lon="12.599351931948885"><ele>125.0</ele><time>2026-05-01T14:55:33Z</time></trkpt><trkpt lat="42.21447540883492" lon="12.59963926536414"><ele>125.0</ele><time>2026-05-01T14:55:34Z</time></trkpt><trkpt lat="42.21422831482345" lon="12.599910937109188"><ele>125.0</ele><time>2026-05-01T14:55:35Z</time></trkpt><trkpt lat="42.2139769314536" lon="12.600151331649483"><ele>116.5</ele><time>2026-05-01T14:55:36Z</time></trkpt><trkpt lat="42.21371675369539" lon="12.600364816735622"><ele>108.0</ele><time>2026-05-01T14:55:37Z</time></trkpt><trkpt lat="42.21344493193204" lon="12.600548846984873"><ele>108.0</ele><time>2026-05-01T14:55:38Z</time></trkpt><trkpt lat="42.21316502316109" lon="12.600702340161124"><ele>108.0</ele><time>2026-05-01T14:55:39Z</time></trkpt><trkpt lat="42.212877990133855" lon="12.600829368489117"><ele>96.0</ele><time>2026-05-01T14:55:40Z</time></trkpt><trkpt lat="42.21258526723885" lon="12.60093060627286"><ele>84.0</ele><time>2026-05-01T14:55:41Z</time></trkpt><trkpt lat="42.212289365520256" lon="12.601011851311236"><ele>78.0</ele><time>2026-05-01T14:55:42Z</time></trkpt><trkpt lat="42.21198684999391" lon="12.601074783935603"><ele>72.0</ele><time>2026-05-01T14:55:43Z</time></trkpt><trkpt lat="42.21166928280859" lon="12.60114359681614"><ele>76.0</ele><time>2026-05-01T14:55:44Z</time></trkpt><trkpt lat="42.211340662546" lon="12.601217058869306"><ele>80.0</ele><time>2026-05-01T14:55:45Z</time></trkpt><trkpt lat="42.211011609826414" lon="12.601294356888761"><ele>80.0</ele><time>2026-05-01T14:55:45.999Z</time></trkpt><trkpt lat="42.21067887408183" lon="12.601382275434213"><ele>80.0</ele><time>2026-05-01T14:55:46.999Z</time></trkpt><trkpt lat="42.21035126907307" lon="12.601498104898393"><ele>87.5</ele><time>2026-05-01T14:55:47.999Z</time></trkpt><trkpt lat="42.21003187037865" lon="12.601640426893637"><ele>95.0</ele><time>2026-05-01T14:55:48.999Z</time></trkpt><trkpt lat="42.2097187915569" lon="12.601795766465706"><ele>95.0</ele><time>2026-05-01T14:55:49.999Z</time></trkpt><trkpt lat="42.20941466488025" lon="12.601975751875914"><ele>95.0</ele><time>2026-05-01T14:55:50.999Z</time></trkpt><trkpt lat="42.20911636912334" lon="12.602171563972227"><ele>99.5</ele><time>2026-05-01T14:55:51.999Z</time></trkpt><trkpt lat="42.2088252614595" lon="12.602375401022567"><ele>104.0</ele><time>2026-05-01T14:55:52.999Z</time></trkpt><trkpt lat="42.20853629253122" lon="12.602579256860759"><ele>104.0</ele><time>2026-05-01T14:55:53.999Z</time></trkpt><trkpt lat="42.20824757942163" lon="12.602778750309321"><ele>104.0</ele><time>2026-05-01T14:55:54.999Z</time></trkpt><trkpt lat="42.20795487211026" lon="12.602965805733366"><ele>102.5</ele><time>2026-05-01T14:55:55.999Z</time></trkpt><trkpt lat="42.20765436487021" lon="12.603121112074469"><ele>101.0</ele><time>2026-05-01T14:55:56.999Z</time></trkpt><trkpt lat="42.20734786293968" lon="12.603250727353537"><ele>95.0</ele><time>2026-05-01T14:55:57.999Z</time></trkpt><trkpt lat="42.20703650050385" lon="12.603358038261378"><ele>89.0</ele><time>2026-05-01T14:55:58.999Z</time></trkpt><trkpt lat="42.206716421166355" lon="12.60343280018976"><ele>89.0</ele><time>2026-05-01T14:55:59.999Z</time></trkpt><trkpt lat="42.20639120711016" lon="12.603476871885404"><ele>89.0</ele><time>2026-05-01T14:56:00.999Z</time></trkpt><trkpt lat="42.20606300286968" lon="12.603497165547816"><ele>89.0</ele><time>2026-05-01T14:56:01.999Z</time></trkpt><trkpt lat="42.20573358165678" lon="12.603487202419236"><ele>89.0</ele><time>2026-05-01T14:56:02.999Z</time></trkpt><trkpt lat="42.20540868636936" lon="12.60344819894876"><ele>85.5</ele><time>2026-05-01T14:56:03.999Z</time></trkpt><trkpt lat="42.205093193016545" lon="12.603380429125078"><ele>82.0</ele><time>2026-05-01T14:56:04.999Z</time></trkpt><trkpt lat="42.2047813164579" lon="12.603287456333133"><ele>76.5</ele><time>2026-05-01T14:56:05.999Z</time></trkpt><trkpt lat="42.20447347460877" lon="12.603182672157562"><ele>71.0</ele><time>2026-05-01T14:56:06.999Z</time></trkpt><trkpt lat="42.20417084337557" lon="12.603077840629584"><ele>67.0</ele><time>2026-05-01T14:56:07.999Z</time></trkpt><trkpt lat="42.20387295457155" lon="12.60297965412693"><ele>63.0</ele><time>2026-05-01T14:56:08.999Z</time></trkpt><trkpt lat="42.20357898437386" lon="12.602886222606504"><ele>64.5</ele><time>2026-05-01T14:56:09.999Z</time></trkpt><trkpt lat="42.20328582902233" lon="12.602793368651769"><ele>66.0</ele><time>2026-05-01T14:56:10.999Z</time></trkpt><trkpt lat="42.20298838474512" lon="12.602699133998309"><ele>66.0</ele><time>2026-05-01T14:56:11.999Z</time></trkpt><trkpt lat="42.202695373179786" lon="12.602604362636251"><ele>66.0</ele><time>2026-05-01T14:56:12.999Z</time></trkpt><trkpt lat="42.20240381953556" lon="12.602518542444699"><ele>65.0</ele><time>2026-05-01T14:56:13.999Z</time></trkpt><trkpt lat="42.20210878618323" lon="12.602444499724252"><ele>64.0</ele><time>2026-05-01T14:56:15.001Z</time></trkpt><trkpt lat="42.201805944980144" lon="12.602397197830266"><ele>64.0</ele><time>2026-05-01T14:56:16.001Z</time></trkpt><trkpt lat="42.20150360522681" lon="12.602382049631165"><ele>64.0</ele><time>2026-05-01T14:56:17.001Z</time></trkpt><trkpt lat="42.201203866714906" lon="12.60240226269693"><ele>61.0</ele><time>2026-05-01T14:56:18.001Z</time></trkpt><trkpt lat="42.20090361148378" lon="12.602460283909643"><ele>58.0</ele><time>2026-05-01T14:56:19.001Z</time></trkpt><trkpt lat="42.200601328403266" lon="12.602550088319253"><ele>56.5</ele><time>2026-05-01T14:56:20.001Z</time></trkpt><trkpt lat="42.20029995393907" lon="12.60265672574044"><ele>55.0</ele><time>2026-05-01T14:56:21.001Z</time></trkpt><trkpt lat="42.20000063267164" lon="12.602767583728747"><ele>49.5</ele><time>2026-05-01T14:56:22.001Z</time></trkpt><trkpt lat="42.19970055378898" lon="12.60287618760426"><ele>44.0</ele><time>2026-05-01T14:56:23.001Z</time></trkpt><trkpt lat="42.19940126358752" lon="12.602986599976463"><ele>44.0</ele><time>2026-05-01T14:56:24.001Z</time></trkpt><trkpt lat="42.19910053977086" lon="12.60309817116013"><ele>44.0</ele><time>2026-05-01T14:56:25.001Z</time></trkpt><trkpt lat="42.19880174160368" lon="12.603208281599985"><ele>45.0</ele><time>2026-05-01T14:56:26.001Z</time></trkpt><trkpt lat="42.19850259778683" lon="12.603317874416268"><ele>46.0</ele><time>2026-05-01T14:56:27.001Z</time></trkpt><trkpt lat="42.198205018686025" lon="12.603428206554321"><ele>47.0</ele><time>2026-05-01T14:56:28.001Z</time></trkpt><trkpt lat="42.197907679607354" lon="12.603540734589481"><ele>48.0</ele><time>2026-05-01T14:56:29Z</time></trkpt><trkpt lat="42.19760799177986" lon="12.603650953022258"><ele>48.5</ele><time>2026-05-01T14:56:30Z</time></trkpt><trkpt lat="42.19730084393655" lon="12.603756188535252"><ele>49.0</ele><time>2026-05-01T14:56:31Z</time></trkpt><trkpt lat="42.196987828434885" lon="12.603848653376785"><ele>49.0</ele><time>2026-05-01T14:56:32Z</time></trkpt><trkpt lat="42.19667032883484" lon="12.603924376577728"><ele>49.0</ele><time>2026-05-01T14:56:33Z</time></trkpt><trkpt lat="42.196347445533895" lon="12.603981040028055"><ele>48.5</ele><time>2026-05-01T14:56:34Z</time></trkpt><trkpt lat="42.19601665037032" lon="12.604025390977347"><ele>48.0</ele><time>2026-05-01T14:56:35Z</time></trkpt><trkpt lat="42.19568653644045" lon="12.604050925890677"><ele>45.0</ele><time>2026-05-01T14:56:36Z</time></trkpt><trkpt lat="42.195356215999894" lon="12.604055378908571"><ele>42.0</ele><time>2026-05-01T14:56:37Z</time></trkpt><trkpt lat="42.19501733051764" lon="12.604031085081987"><ele>38.5</ele><time>2026-05-01T14:56:38Z</time></trkpt><trkpt lat="42.194673702146204" lon="12.604004812566494"><ele>35.0</ele><time>2026-05-01T14:56:39Z</time></trkpt><trkpt lat="42.19432938993532" lon="12.603966441540384"><ele>34.0</ele><time>2026-05-01T14:56:40Z</time></trkpt><trkpt lat="42.19399134316999" lon="12.603918063153507"><ele>33.0</ele><time>2026-05-01T14:56:41Z</time></trkpt><trkpt lat="42.193657064344016" lon="12.603869992625807"><ele>33.0</ele><time>2026-05-01T14:56:42Z</time></trkpt><trkpt lat="42.19332605630355" lon="12.603822649305226"><ele>33.0</ele><time>2026-05-01T14:56:43Z</time></trkpt><trkpt lat="42.192996500134605" lon="12.603775090454375"><ele>33.0</ele><time>2026-05-01T14:56:44Z</time></trkpt><trkpt lat="42.19267104527208" lon="12.60372642235025"><ele>33.0</ele><time>2026-05-01T14:56:45Z</time></trkpt><trkpt lat="42.192349678113345" lon="12.603675346196361"><ele>34.5</ele><time>2026-05-01T14:56:46Z</time></trkpt><trkpt lat="42.19202947499527" lon="12.603623608288197"><ele>36.0</ele><time>2026-05-01T14:56:47Z</time></trkpt><trkpt lat="42.191710884965815" lon="12.603574770898085"><ele>37.5</ele><time>2026-05-01T14:56:48Z</time></trkpt><trkpt lat="42.1913903341909" lon="12.603527616028122"><ele>39.0</ele><time>2026-05-01T14:56:49Z</time></trkpt><trkpt lat="42.19106618695394" lon="12.60348106809112"><ele>39.0</ele><time>2026-05-01T14:56:50Z</time></trkpt><trkpt lat="42.190741634304665" lon="12.603431465878765"><ele>39.0</ele><time>2026-05-01T14:56:51Z</time></trkpt><trkpt lat="42.19041550279158" lon="12.603381393673564"><ele>39.0</ele><time>2026-05-01T14:56:52Z</time></trkpt><trkpt lat="42.190087717412965" lon="12.603335758239231"><ele>39.0</ele><time>2026-05-01T14:56:53Z</time></trkpt><trkpt lat="42.18975680848605" lon="12.603291421346732"><ele>40.5</ele><time>2026-05-01T14:56:54Z</time></trkpt><trkpt lat="42.189422268780405" lon="12.603250458661902"><ele>42.0</ele><time>2026-05-01T14:56:55Z</time></trkpt><trkpt lat="42.18908684215795" lon="12.603208234015568"><ele>43.5</ele><time>2026-05-01T14:56:56Z</time></trkpt><trkpt lat="42.188752199027775" lon="12.603164463089263"><ele>45.0</ele><time>2026-05-01T14:56:57Z</time></trkpt><trkpt lat="42.18841998437582" lon="12.603120239091696"><ele>46.5</ele><time>2026-05-01T14:56:58Z</time></trkpt><trkpt lat="42.18808822024809" lon="12.603074887562448"><ele>48.0</ele><time>2026-05-01T14:56:59Z</time></trkpt><trkpt lat="42.18775622183711" lon="12.60302621357073"><ele>48.0</ele><time>2026-05-01T14:57:00Z</time></trkpt><trkpt lat="42.18742264915347" lon="12.60297589132861"><ele>48.0</ele><time>2026-05-01T14:57:01Z</time></trkpt><trkpt lat="42.18709099468268" lon="12.602925648113311"><ele>47.5</ele><time>2026-05-01T14:57:02Z</time></trkpt><trkpt lat="42.18675923259976" lon="12.602875605113558"><ele>47.0</ele><time>2026-05-01T14:57:03Z</time></trkpt><trkpt lat="42.186427253993" lon="12.602826012440556"><ele>46.0</ele><time>2026-05-01T14:57:04Z</time></trkpt><trkpt lat="42.18609317646131" lon="12.602776348709966"><ele>45.0</ele><time>2026-05-01T14:57:05Z</time></trkpt><trkpt lat="42.18575931020016" lon="12.60272465919106"><ele>43.0</ele><time>2026-05-01T14:57:06Z</time></trkpt><trkpt lat="42.185426248625475" lon="12.602673756306388"><ele>41.0</ele><time>2026-05-01T14:57:07Z</time></trkpt><trkpt lat="42.18509395668311" lon="12.602623183504422"><ele>45.5</ele><time>2026-05-01T14:57:08Z</time></trkpt><trkpt lat="42.18476306964508" lon="12.602573766318544"><ele>50.0</ele><time>2026-05-01T14:57:09Z</time></trkpt><trkpt lat="42.18443277356205" lon="12.60252472334728"><ele>50.0</ele><time>2026-05-01T14:57:10Z</time></trkpt><trkpt lat="42.18410140249464" lon="12.602476587838169"><ele>50.0</ele><time>2026-05-01T14:57:11Z</time></trkpt><trkpt lat="42.183769221395195" lon="12.602426178493427"><ele>48.5</ele><time>2026-05-01T14:57:12Z</time></trkpt><trkpt lat="42.18343543274423" lon="12.602375937473486"><ele>47.0</ele><time>2026-05-01T14:57:13Z</time></trkpt><trkpt lat="42.18310304351632" lon="12.602324119197384"><ele>44.5</ele><time>2026-05-01T14:57:14Z</time></trkpt><trkpt lat="42.18276935372186" lon="12.60227875298786"><ele>42.0</ele><time>2026-05-01T14:57:15Z</time></trkpt><trkpt lat="42.18243689954734" lon="12.602232718582025"><ele>41.0</ele><time>2026-05-01T14:57:16Z</time></trkpt><trkpt lat="42.18210344992569" lon="12.602196201491525"><ele>40.0</ele><time>2026-05-01T14:57:17Z</time></trkpt><trkpt lat="42.181768673866536" lon="12.602172084824831"><ele>42.0</ele><time>2026-05-01T14:57:18Z</time></trkpt><trkpt lat="42.18143388509337" lon="12.602168795388016"><ele>44.0</ele><time>2026-05-01T14:57:19Z</time></trkpt><trkpt lat="42.18109992282128" lon="12.602190117108794"><ele>44.0</ele><time>2026-05-01T14:57:20Z</time></trkpt><trkpt lat="42.18077004745027" lon="12.602238156176252"><ele>44.0</ele><time>2026-05-01T14:57:21Z</time></trkpt><trkpt lat="42.18044243343556" lon="12.60230895537863"><ele>49.0</ele><time>2026-05-01T14:57:22Z</time></trkpt><trkpt lat="42.18011762438874" lon="12.602401538779148"><ele>54.0</ele><time>2026-05-01T14:57:23Z</time></trkpt><trkpt lat="42.179796289584836" lon="12.602515829951333"><ele>59.0</ele><time>2026-05-01T14:57:24Z</time></trkpt><trkpt lat="42.17948112460271" lon="12.602652573604294"><ele>64.0</ele><time>2026-05-01T14:57:25Z</time></trkpt><trkpt lat="42.17917057055967" lon="12.602810934461475"><ele>62.5</ele><time>2026-05-01T14:57:26Z</time></trkpt><trkpt lat="42.17886492654237" lon="12.602991353679268"><ele>61.0</ele><time>2026-05-01T14:57:27Z</time></trkpt><trkpt lat="42.17856650055792" lon="12.603195490275517"><ele>61.0</ele><time>2026-05-01T14:57:28Z</time></trkpt><trkpt lat="42.178276441338625" lon="12.603419327488762"><ele>61.0</ele><time>2026-05-01T14:57:29Z</time></trkpt><trkpt lat="42.17799481633849" lon="12.603661593858641"><ele>62.5</ele><time>2026-05-01T14:57:30Z</time></trkpt><trkpt lat="42.17772154362404" lon="12.60392235049274"><ele>64.0</ele><time>2026-05-01T14:57:31Z</time></trkpt><trkpt lat="42.177452409859725" lon="12.604188713727904"><ele>63.0</ele><time>2026-05-01T14:57:32Z</time></trkpt><trkpt lat="42.17717839831005" lon="12.604457072367271"><ele>62.0</ele><time>2026-05-01T14:57:33Z</time></trkpt><trkpt lat="42.17690505239803" lon="12.604726997754973"><ele>62.0</ele><time>2026-05-01T14:57:34Z</time></trkpt><trkpt lat="42.176630989277974" lon="12.604998140953343"><ele>62.0</ele><time>2026-05-01T14:57:35Z</time></trkpt><trkpt lat="42.176355617287435" lon="12.60526850882596"><ele>54.5</ele><time>2026-05-01T14:57:36Z</time></trkpt><trkpt lat="42.17608112506517" lon="12.605535371539304"><ele>47.0</ele><time>2026-05-01T14:57:37Z</time></trkpt><trkpt lat="42.1758075716057" lon="12.605799350215802"><ele>54.0</ele><time>2026-05-01T14:57:38Z</time></trkpt><trkpt lat="42.175535300025075" lon="12.606064548586657"><ele>61.0</ele><time>2026-05-01T14:57:39Z</time></trkpt><trkpt lat="42.1752625639015" lon="12.60633229934587"><ele>61.5</ele><time>2026-05-01T14:57:40Z</time></trkpt><trkpt lat="42.17499123025324" lon="12.60659895321641"><ele>62.0</ele><time>2026-05-01T14:57:41Z</time></trkpt><trkpt lat="42.17471967196549" lon="12.606864857361431"><ele>63.5</ele><time>2026-05-01T14:57:42Z</time></trkpt><trkpt lat="42.17444487880873" lon="12.607129887995882"><ele>65.0</ele><time>2026-05-01T14:57:43Z</time></trkpt><trkpt lat="42.17417115303974" lon="12.607394278136423"><ele>64.5</ele><time>2026-05-01T14:57:44Z</time></trkpt><trkpt lat="42.17389767034388" lon="12.607659384389143"><ele>64.0</ele><time>2026-05-01T14:57:44.999Z</time></trkpt><trkpt lat="42.173625248175824" lon="12.60792354722366"><ele>64.0</ele><time>2026-05-01T14:57:45.999Z</time></trkpt><trkpt lat="42.17335154644449" lon="12.608189960045586"><ele>64.0</ele><time>2026-05-01T14:57:46.999Z</time></trkpt><trkpt lat="42.17308013957502" lon="12.608455612354764"><ele>65.5</ele><time>2026-05-01T14:57:47.999Z</time></trkpt><trkpt lat="42.17280810911923" lon="12.60872008497977"><ele>67.0</ele><time>2026-05-01T14:57:48.999Z</time></trkpt><trkpt lat="42.17253506852102" lon="12.608982898743168"><ele>67.0</ele><time>2026-05-01T14:57:49.999Z</time></trkpt><trkpt lat="42.172262467476415" lon="12.609247676753764"><ele>67.0</ele><time>2026-05-01T14:57:50.999Z</time></trkpt><trkpt lat="42.171990603662245" lon="12.609513469832606"><ele>67.0</ele><time>2026-05-01T14:57:51.999Z</time></trkpt><trkpt lat="42.17172004818531" lon="12.609778086531358"><ele>67.0</ele><time>2026-05-01T14:57:52.999Z</time></trkpt><trkpt lat="42.17144896845506" lon="12.610041336714339"><ele>67.5</ele><time>2026-05-01T14:57:53.999Z</time></trkpt><trkpt lat="42.17117700265264" lon="12.61030410976057"><ele>68.0</ele><time>2026-05-01T14:57:54.999Z</time></trkpt><trkpt lat="42.17090244091721" lon="12.61056925764522"><ele>67.5</ele><time>2026-05-01T14:57:55.999Z</time></trkpt><trkpt lat="42.17062763693588" lon="12.610835411701924"><ele>67.0</ele><time>2026-05-01T14:57:56.999Z</time></trkpt><trkpt lat="42.17035500244083" lon="12.611098070487369"><ele>66.0</ele><time>2026-05-01T14:57:57.999Z</time></trkpt><trkpt lat="42.170081506210195" lon="12.611363443509203"><ele>65.0</ele><time>2026-05-01T14:57:58.999Z</time></trkpt><trkpt lat="42.169810423171654" lon="12.611629103755359"><ele>65.0</ele><time>2026-05-01T14:57:59.999Z</time></trkpt><trkpt lat="42.16953907244304" lon="12.611894954956506"><ele>65.0</ele><time>2026-05-01T14:58:00.999Z</time></trkpt><trkpt lat="42.16926811100961" lon="12.612158998708011"><ele>64.5</ele><time>2026-05-01T14:58:01.999Z</time></trkpt><trkpt lat="42.168996942637186" lon="12.612421504072014"><ele>64.0</ele><time>2026-05-01T14:58:02.999Z</time></trkpt><trkpt lat="42.16872606064001" lon="12.612685919296352"><ele>63.5</ele><time>2026-05-01T14:58:03.999Z</time></trkpt><trkpt lat="42.16845664205211" lon="12.612950136265377"><ele>63.0</ele><time>2026-05-01T14:58:04.999Z</time></trkpt><trkpt lat="42.16818754763248" lon="12.613216315227032"><ele>62.5</ele><time>2026-05-01T14:58:05.999Z</time></trkpt><trkpt lat="42.16791756066492" lon="12.61348530827059"><ele>62.0</ele><time>2026-05-01T14:58:06.999Z</time></trkpt><trkpt lat="42.16764530528008" lon="12.613755051437296"><ele>62.0</ele><time>2026-05-01T14:58:07.999Z</time></trkpt><trkpt lat="42.16737346055423" lon="12.614025796965507"><ele>62.0</ele><time>2026-05-01T14:58:08.999Z</time></trkpt><trkpt lat="42.167102136461146" lon="12.61429544261425"><ele>61.5</ele><time>2026-05-01T14:58:09.999Z</time></trkpt><trkpt lat="42.16683118297748" lon="12.614565751453352"><ele>61.0</ele><time>2026-05-01T14:58:10.999Z</time></trkpt><trkpt lat="42.16656323956734" lon="12.61483509056996"><ele>61.0</ele><time>2026-05-01T14:58:11.999Z</time></trkpt><trkpt lat="42.166294952093224" lon="12.615104052378626"><ele>61.0</ele><time>2026-05-01T14:58:12.999Z</time></trkpt><trkpt lat="42.16602703887628" lon="12.615371031860665"><ele>60.0</ele><time>2026-05-01T14:58:13.999Z</time></trkpt><trkpt lat="42.16575699242465" lon="12.615638575345915"><ele>59.0</ele><time>2026-05-01T14:58:14.999Z</time></trkpt><trkpt lat="42.16548646287586" lon="12.615905604443688"><ele>58.0</ele><time>2026-05-01T14:58:15.999Z</time></trkpt><trkpt lat="42.165214472323726" lon="12.616171223517089"><ele>57.0</ele><time>2026-05-01T14:58:16.999Z</time></trkpt><trkpt lat="42.16494249506905" lon="12.616436510092726"><ele>58.0</ele><time>2026-05-01T14:58:17.999Z</time></trkpt><trkpt lat="42.16467052957631" lon="12.616699642901864"><ele>59.0</ele><time>2026-05-01T14:58:18.999Z</time></trkpt><trkpt lat="42.16440013304581" lon="12.616962927299747"><ele>58.5</ele><time>2026-05-01T14:58:19.999Z</time></trkpt><trkpt lat="42.16412969731753" lon="12.617228040480008"><ele>58.0</ele><time>2026-05-01T14:58:21Z</time></trkpt><trkpt lat="42.16385812410925" lon="12.617490373255741"><ele>57.0</ele><time>2026-05-01T14:58:22Z</time></trkpt><trkpt lat="42.163584056571764" lon="12.61775090279581"><ele>56.0</ele><time>2026-05-01T14:58:23Z</time></trkpt><trkpt lat="42.16330888637115" lon="12.61800929981549"><ele>55.5</ele><time>2026-05-01T14:58:24Z</time></trkpt><trkpt lat="42.16303388627948" lon="12.618268651571624"><ele>55.0</ele><time>2026-05-01T14:58:25Z</time></trkpt><trkpt lat="42.16276061515255" lon="12.61852722965197"><ele>55.5</ele><time>2026-05-01T14:58:26Z</time></trkpt><trkpt lat="42.16249002547972" lon="12.618796976696673"><ele>56.0</ele><time>2026-05-01T14:58:27Z</time></trkpt><trkpt lat="42.16222237507524" lon="12.619063511216602"><ele>55.0</ele><time>2026-05-01T14:58:28Z</time></trkpt><trkpt lat="42.16195243282839" lon="12.619329689283527"><ele>54.0</ele><time>2026-05-01T14:58:29Z</time></trkpt><trkpt lat="42.161681471968805" lon="12.619593584419428"><ele>53.0</ele><time>2026-05-01T14:58:30Z</time></trkpt><trkpt lat="42.161409032387624" lon="12.61985636593101"><ele>52.0</ele><time>2026-05-01T14:58:31Z</time></trkpt><trkpt lat="42.16113614163735" lon="12.620117314322949"><ele>52.0</ele><time>2026-05-01T14:58:32Z</time></trkpt><trkpt lat="42.1608617665133" lon="12.62037678400597"><ele>52.0</ele><time>2026-05-01T14:58:33Z</time></trkpt><trkpt lat="42.16058808515539" lon="12.620633148533782"><ele>52.0</ele><time>2026-05-01T14:58:34Z</time></trkpt><trkpt lat="42.160310220149334" lon="12.620886706088648"><ele>52.0</ele><time>2026-05-01T14:58:35Z</time></trkpt><trkpt lat="42.16003066019141" lon="12.62113471834728"><ele>50.0</ele><time>2026-05-01T14:58:36Z</time></trkpt><trkpt lat="42.15974837846546" lon="12.621380078321105"><ele>48.0</ele><time>2026-05-01T14:58:37Z</time></trkpt><trkpt lat="42.159464085718405" lon="12.621623199495392"><ele>48.0</ele><time>2026-05-01T14:58:38Z</time></trkpt><trkpt lat="42.159176710477496" lon="12.621863677852714"><ele>48.0</ele><time>2026-05-01T14:58:39Z</time></trkpt><trkpt lat="42.158885997382676" lon="12.622096794812531"><ele>46.0</ele><time>2026-05-01T14:58:40Z</time></trkpt><trkpt lat="42.15859258976177" lon="12.62232040100709"><ele>44.0</ele><time>2026-05-01T14:58:41Z</time></trkpt><trkpt lat="42.15829633571051" lon="12.622536107157831"><ele>43.5</ele><time>2026-05-01T14:58:42Z</time></trkpt><trkpt lat="42.157996860461644" lon="12.62274228039477"><ele>43.0</ele><time>2026-05-01T14:58:43Z</time></trkpt><trkpt lat="42.15769279727765" lon="12.622937982324538"><ele>43.0</ele><time>2026-05-01T14:58:44Z</time></trkpt><trkpt lat="42.15738701912023" lon="12.623125116333854"><ele>43.0</ele><time>2026-05-01T14:58:45Z</time></trkpt><trkpt lat="42.157077295270945" lon="12.623304871728145"><ele>42.5</ele><time>2026-05-01T14:58:46Z</time></trkpt><trkpt lat="42.15676467419296" lon="12.623469920916492"><ele>42.0</ele><time>2026-05-01T14:58:47Z</time></trkpt><trkpt lat="42.156449069579956" lon="12.623622985765163"><ele>40.5</ele><time>2026-05-01T14:58:48Z</time></trkpt><trkpt lat="42.15612913432021" lon="12.623761759901777"><ele>39.0</ele><time>2026-05-01T14:58:49Z</time></trkpt><trkpt lat="42.15580804488308" lon="12.623890380293275"><ele>38.5</ele><time>2026-05-01T14:58:50Z</time></trkpt><trkpt lat="42.15548338218089" lon="12.624013990467002"><ele>38.0</ele><time>2026-05-01T14:58:51Z</time></trkpt><trkpt lat="42.15515666223758" lon="12.624127521926399"><ele>37.5</ele><time>2026-05-01T14:58:52Z</time></trkpt><trkpt lat="42.15482728203733" lon="12.624228717348933"><ele>37.0</ele><time>2026-05-01T14:58:53Z</time></trkpt><trkpt lat="42.154496398213766" lon="12.624314295811956"><ele>37.0</ele><time>2026-05-01T14:58:54Z</time></trkpt><trkpt lat="42.15416496141682" lon="12.624390266644097"><ele>37.0</ele><time>2026-05-01T14:58:55Z</time></trkpt><trkpt lat="42.15383277101147" lon="12.624449894966553"><ele>34.0</ele><time>2026-05-01T14:58:56Z</time></trkpt><trkpt lat="42.15349867290861" lon="12.624502371101123"><ele>31.0</ele><time>2026-05-01T14:58:57Z</time></trkpt><trkpt lat="42.15316557029491" lon="12.62454657242583"><ele>29.0</ele><time>2026-05-01T14:58:58Z</time></trkpt><trkpt lat="42.15283067903136" lon="12.624584192303141"><ele>27.0</ele><time>2026-05-01T14:58:59Z</time></trkpt><trkpt lat="42.152495467047" lon="12.624610164708205"><ele>27.5</ele><time>2026-05-01T14:59:00Z</time></trkpt><trkpt lat="42.15215954022066" lon="12.624618293781452"><ele>28.0</ele><time>2026-05-01T14:59:01Z</time></trkpt><trkpt lat="42.15182241610901" lon="12.624614968016417"><ele>28.0</ele><time>2026-05-01T14:59:02Z</time></trkpt><trkpt lat="42.151486581498055" lon="12.624600896031222"><ele>28.0</ele><time>2026-05-01T14:59:03Z</time></trkpt><trkpt lat="42.15115031314365" lon="12.624576174572603"><ele>28.0</ele><time>2026-05-01T14:59:04Z</time></trkpt><trkpt lat="42.15081516237999" lon="12.624540353897652"><ele>28.0</ele><time>2026-05-01T14:59:05Z</time></trkpt><trkpt lat="42.15048162765852" lon="12.624491104262408"><ele>27.0</ele><time>2026-05-01T14:59:06Z</time></trkpt><trkpt lat="42.150149476949586" lon="12.62443166002985"><ele>26.0</ele><time>2026-05-01T14:59:07Z</time></trkpt><trkpt lat="42.14981505267556" lon="12.624355440136613"><ele>26.0</ele><time>2026-05-01T14:59:08Z</time></trkpt><trkpt lat="42.14948217032224" lon="12.624276679861214"><ele>26.0</ele><time>2026-05-01T14:59:09Z</time></trkpt><trkpt lat="42.14915232462703" lon="12.62418762533365"><ele>25.5</ele><time>2026-05-01T14:59:10Z</time></trkpt><trkpt lat="42.14882254747754" lon="12.624091307081391"><ele>25.0</ele><time>2026-05-01T14:59:11Z</time></trkpt><trkpt lat="42.14849369136857" lon="12.62398727662982"><ele>25.5</ele><time>2026-05-01T14:59:12Z</time></trkpt><trkpt lat="42.148166652340635" lon="12.623876095186056"><ele>26.0</ele><time>2026-05-01T14:59:13Z</time></trkpt><trkpt lat="42.147838100070445" lon="12.6237600134079"><ele>26.0</ele><time>2026-05-01T14:59:14Z</time></trkpt><trkpt lat="42.1475109934048" lon="12.623640195276272"><ele>26.0</ele><time>2026-05-01T14:59:15Z</time></trkpt><trkpt lat="42.147186646904785" lon="12.623519408615246"><ele>26.5</ele><time>2026-05-01T14:59:16Z</time></trkpt><trkpt lat="42.14686253155756" lon="12.623392372357609"><ele>27.0</ele><time>2026-05-01T14:59:17Z</time></trkpt><trkpt lat="42.14654086826813" lon="12.623258978604916"><ele>27.0</ele><time>2026-05-01T14:59:18Z</time></trkpt><trkpt lat="42.14622020064424" lon="12.623122412369975"><ele>27.0</ele><time>2026-05-01T14:59:19Z</time></trkpt><trkpt lat="42.14589776379838" lon="12.622989250905306"><ele>26.5</ele><time>2026-05-01T14:59:20Z</time></trkpt><trkpt lat="42.14557465735728" lon="12.622857414020755"><ele>26.0</ele><time>2026-05-01T14:59:21Z</time></trkpt><trkpt lat="42.145251541932964" lon="12.622723594031973"><ele>26.5</ele><time>2026-05-01T14:59:22Z</time></trkpt><trkpt lat="42.14492917101771" lon="12.622587359881507"><ele>27.0</ele><time>2026-05-01T14:59:23Z</time></trkpt><trkpt lat="42.1446073178369" lon="12.622450331092525"><ele>27.0</ele><time>2026-05-01T14:59:24Z</time></trkpt><trkpt lat="42.14428541606988" lon="12.622312852892794"><ele>27.0</ele><time>2026-05-01T14:59:25Z</time></trkpt><trkpt lat="42.143963150302994" lon="12.622175342316199"><ele>26.5</ele><time>2026-05-01T14:59:26Z</time></trkpt><trkpt lat="42.14364171756872" lon="12.622036117338634"><ele>26.0</ele><time>2026-05-01T14:59:27Z</time></trkpt><trkpt lat="42.14331999714231" lon="12.62189794779637"><ele>25.5</ele><time>2026-05-01T14:59:28Z</time></trkpt><trkpt lat="42.1429983817218" lon="12.621761349850045"><ele>25.0</ele><time>2026-05-01T14:59:29Z</time></trkpt><trkpt lat="42.14267826215098" lon="12.621629472473707"><ele>25.0</ele><time>2026-05-01T14:59:30Z</time></trkpt><trkpt lat="42.14235925419478" lon="12.621499078516697"><ele>25.0</ele><time>2026-05-01T14:59:31Z</time></trkpt><trkpt lat="42.14204067066935" lon="12.621366045963912"><ele>25.0</ele><time>2026-05-01T14:59:32Z</time></trkpt><trkpt lat="42.14172126941226" lon="12.621231176771852"><ele>25.0</ele><time>2026-05-01T14:59:33Z</time></trkpt><trkpt lat="42.14140214155411" lon="12.621096851561868"><ele>25.0</ele><time>2026-05-01T14:59:34Z</time></trkpt><trkpt lat="42.14108317693447" lon="12.620964225951484"><ele>25.0</ele><time>2026-05-01T14:59:35Z</time></trkpt><trkpt lat="42.140763286628314" lon="12.620831935857696"><ele>25.0</ele><time>2026-05-01T14:59:36Z</time></trkpt><trkpt lat="42.140443232944236" lon="12.62070044789561"><ele>25.0</ele><time>2026-05-01T14:59:37Z</time></trkpt><trkpt lat="42.14012257450864" lon="12.62056560298933"><ele>25.0</ele><time>2026-05-01T14:59:38Z</time></trkpt><trkpt lat="42.13980150758303" lon="12.620429886235614"><ele>25.0</ele><time>2026-05-01T14:59:39Z</time></trkpt><trkpt lat="42.13948062826351" lon="12.620294088998659"><ele>25.0</ele><time>2026-05-01T14:59:40Z</time></trkpt><trkpt lat="42.13916071624747" lon="12.62015892904307"><ele>25.0</ele><time>2026-05-01T14:59:41Z</time></trkpt><trkpt lat="42.13884243674892" lon="12.620021888180265"><ele>24.5</ele><time>2026-05-01T14:59:42Z</time></trkpt><trkpt lat="42.13852309476863" lon="12.619885760177242"><ele>24.0</ele><time>2026-05-01T14:59:43Z</time></trkpt><trkpt lat="42.138203339887234" lon="12.619751425315222"><ele>24.0</ele><time>2026-05-01T14:59:44Z</time></trkpt><trkpt lat="42.13788382789247" lon="12.619617592643932"><ele>24.0</ele><time>2026-05-01T14:59:45Z</time></trkpt><trkpt lat="42.13756420786222" lon="12.619482726847997"><ele>25.0</ele><time>2026-05-01T14:59:46Z</time></trkpt><trkpt lat="42.137244322440374" lon="12.619348137104172"><ele>26.0</ele><time>2026-05-01T14:59:46.999Z</time></trkpt><trkpt lat="42.13692305717887" lon="12.619214700040562"><ele>26.0</ele><time>2026-05-01T14:59:47.999Z</time></trkpt><trkpt lat="42.136600940961436" lon="12.619083320884133"><ele>26.0</ele><time>2026-05-01T14:59:48.999Z</time></trkpt><trkpt lat="42.13627926096824" lon="12.618951994165812"><ele>26.0</ele><time>2026-05-01T14:59:49.999Z</time></trkpt><trkpt lat="42.13595636284775" lon="12.618820985960484"><ele>26.0</ele><time>2026-05-01T14:59:50.999Z</time></trkpt><trkpt lat="42.135632814963046" lon="12.618689042027485"><ele>25.0</ele><time>2026-05-01T14:59:51.999Z</time></trkpt><trkpt lat="42.135310536933126" lon="12.618558314249395"><ele>24.0</ele><time>2026-05-01T14:59:52.999Z</time></trkpt><trkpt lat="42.134986854251956" lon="12.618429360338471"><ele>25.0</ele><time>2026-05-01T14:59:53.999Z</time></trkpt><trkpt lat="42.13466320889893" lon="12.618302988446198"><ele>26.0</ele><time>2026-05-01T14:59:54.999Z</time></trkpt><trkpt lat="42.13433920314547" lon="12.618180462286448"><ele>25.5</ele><time>2026-05-01T14:59:55.999Z</time></trkpt><trkpt lat="42.13401366734573" lon="12.618060004527996"><ele>25.0</ele><time>2026-05-01T14:59:56.999Z</time></trkpt><trkpt lat="42.13368771727774" lon="12.617943374581177"><ele>25.0</ele><time>2026-05-01T14:59:57.999Z</time></trkpt><trkpt lat="42.133361749477395" lon="12.617832182833396"><ele>25.0</ele><time>2026-05-01T14:59:58.999Z</time></trkpt><trkpt lat="42.13303494948558" lon="12.617728333842276"><ele>25.0</ele><time>2026-05-01T14:59:59.999Z</time></trkpt><trkpt lat="42.1327058246221" lon="12.617630733896556"><ele>25.0</ele><time>2026-05-01T15:00:00.999Z</time></trkpt><trkpt lat="42.132376380473765" lon="12.617537129129168"><ele>25.0</ele><time>2026-05-01T15:00:01.999Z</time></trkpt><trkpt lat="42.13204471128281" lon="12.617448940932803"><ele>25.0</ele><time>2026-05-01T15:00:02.999Z</time></trkpt><trkpt lat="42.13171178326241" lon="12.617367946706667"><ele>25.0</ele><time>2026-05-01T15:00:03.999Z</time></trkpt><trkpt lat="42.13137781280127" lon="12.617294798967828"><ele>25.0</ele><time>2026-05-01T15:00:04.999Z</time></trkpt><trkpt lat="42.13104356197077" lon="12.617229516541919"><ele>24.0</ele><time>2026-05-01T15:00:05.999Z</time></trkpt><trkpt lat="42.130709336464655" lon="12.617172737609609"><ele>23.0</ele><time>2026-05-01T15:00:06.999Z</time></trkpt><trkpt lat="42.13037544551657" lon="12.617123269810818"><ele>23.0</ele><time>2026-05-01T15:00:07.999Z</time></trkpt><trkpt lat="42.13004111767484" lon="12.617080308250154"><ele>23.0</ele><time>2026-05-01T15:00:08.999Z</time></trkpt><trkpt lat="42.12970686271926" lon="12.617042281214939"><ele>23.5</ele><time>2026-05-01T15:00:09.999Z</time></trkpt><trkpt lat="42.12937115400973" lon="12.617010616455945"><ele>24.0</ele><time>2026-05-01T15:00:10.999Z</time></trkpt><trkpt lat="42.12903611581037" lon="12.61698081470683"><ele>24.5</ele><time>2026-05-01T15:00:11.999Z</time></trkpt><trkpt lat="42.128702004171174" lon="12.616957809078682"><ele>25.0</ele><time>2026-05-01T15:00:12.999Z</time></trkpt><trkpt lat="42.128368694155846" lon="12.616943963663887"><ele>25.5</ele><time>2026-05-01T15:00:13.999Z</time></trkpt><trkpt lat="42.128035316258405" lon="12.616940660409323"><ele>26.0</ele><time>2026-05-01T15:00:14.999Z</time></trkpt><trkpt lat="42.1277002411223" lon="12.616944264548032"><ele>25.5</ele><time>2026-05-01T15:00:15.999Z</time></trkpt><trkpt lat="42.12736654021079" lon="12.616953439792564"><ele>25.0</ele><time>2026-05-01T15:00:16.999Z</time></trkpt><trkpt lat="42.127030898759244" lon="12.616967583579711"><ele>25.5</ele><time>2026-05-01T15:00:17.999Z</time></trkpt><trkpt lat="42.12669504205484" lon="12.616987466557763"><ele>26.0</ele><time>2026-05-01T15:00:18.999Z</time></trkpt><trkpt lat="42.12635985213575" lon="12.617011194680076"><ele>26.0</ele><time>2026-05-01T15:00:19.999Z</time></trkpt><trkpt lat="42.12602452506687" lon="12.617040421901137"><ele>26.0</ele><time>2026-05-01T15:00:20.999Z</time></trkpt><trkpt lat="42.125690117690404" lon="12.61707535271343"><ele>28.0</ele><time>2026-05-01T15:00:21.999Z</time></trkpt><trkpt lat="42.125353253281105" lon="12.617116058397961"><ele>30.0</ele><time>2026-05-01T15:00:22.999Z</time></trkpt><trkpt lat="42.125018204038646" lon="12.617163026954163"><ele>30.0</ele><time>2026-05-01T15:00:23.999Z</time></trkpt><trkpt lat="42.12468356615166" lon="12.617216276456812"><ele>30.0</ele><time>2026-05-01T15:00:24.999Z</time></trkpt><trkpt lat="42.124349413130986" lon="12.617271463261917"><ele>30.0</ele><time>2026-05-01T15:00:25.999Z</time></trkpt><trkpt lat="42.12401552990041" lon="12.617326610336319"><ele>30.0</ele><time>2026-05-01T15:00:27Z</time></trkpt><trkpt lat="42.12368159063894" lon="12.617385171241345"><ele>30.0</ele><time>2026-05-01T15:00:28Z</time></trkpt><trkpt lat="42.123347369155034" lon="12.617445794351255"><ele>30.0</ele><time>2026-05-01T15:00:29Z</time></trkpt><trkpt lat="42.123013528597184" lon="12.617507058123094"><ele>29.5</ele><time>2026-05-01T15:00:30Z</time></trkpt><trkpt lat="42.12267759980952" lon="12.617569174791425"><ele>29.0</ele><time>2026-05-01T15:00:31Z</time></trkpt><trkpt lat="42.122342018128016" lon="12.617631293922338"><ele>28.5</ele><time>2026-05-01T15:00:32Z</time></trkpt><trkpt lat="42.12200756940906" lon="12.617690365153626"><ele>28.0</ele><time>2026-05-01T15:00:33Z</time></trkpt><trkpt lat="42.12167466228292" lon="12.61774756291432"><ele>26.5</ele><time>2026-05-01T15:00:34Z</time></trkpt><trkpt lat="42.12134177398087" lon="12.617806415634766"><ele>25.0</ele><time>2026-05-01T15:00:35Z</time></trkpt><trkpt lat="42.12100755477402" lon="12.6178652807058"><ele>25.5</ele><time>2026-05-01T15:00:36Z</time></trkpt><trkpt lat="42.12067403849734" lon="12.617923108529057"><ele>26.0</ele><time>2026-05-01T15:00:37Z</time></trkpt><trkpt lat="42.1203406465829" lon="12.61798299189674"><ele>26.0</ele><time>2026-05-01T15:00:38Z</time></trkpt><trkpt lat="42.120008696756926" lon="12.618042664675118"><ele>26.0</ele><time>2026-05-01T15:00:39Z</time></trkpt><trkpt lat="42.11967828527738" lon="12.618103420622035"><ele>26.0</ele><time>2026-05-01T15:00:40Z</time></trkpt><trkpt lat="42.11934585828596" lon="12.618164738733038"><ele>26.0</ele><time>2026-05-01T15:00:41Z</time></trkpt><trkpt lat="42.11901104959798" lon="12.618223437923374"><ele>26.0</ele><time>2026-05-01T15:00:42Z</time></trkpt><trkpt lat="42.11867496192733" lon="12.618282276701922"><ele>26.0</ele><time>2026-05-01T15:00:43Z</time></trkpt><trkpt lat="42.11833941158085" lon="12.618340779295549"><ele>25.5</ele><time>2026-05-01T15:00:44Z</time></trkpt><trkpt lat="42.11800371520395" lon="12.618399860929154"><ele>25.0</ele><time>2026-05-01T15:00:45Z</time></trkpt><trkpt lat="42.11766902572323" lon="12.618459955547245"><ele>24.5</ele><time>2026-05-01T15:00:46Z</time></trkpt><trkpt lat="42.11733598820706" lon="12.618520760096185"><ele>24.0</ele><time>2026-05-01T15:00:47Z</time></trkpt><trkpt lat="42.117003419945426" lon="12.61858296356964"><ele>24.0</ele><time>2026-05-01T15:00:48Z</time></trkpt><trkpt lat="42.11667093249497" lon="12.618644873681335"><ele>24.0</ele><time>2026-05-01T15:00:49Z</time></trkpt><trkpt lat="42.11633929863828" lon="12.618705381311464"><ele>23.5</ele><time>2026-05-01T15:00:50Z</time></trkpt><trkpt lat="42.11600694408714" lon="12.618764926138551"><ele>23.0</ele><time>2026-05-01T15:00:51Z</time></trkpt><trkpt lat="42.11567644151294" lon="12.618822275284742"><ele>25.0</ele><time>2026-05-01T15:00:52Z</time></trkpt><trkpt lat="42.11534539826521" lon="12.618881043061618"><ele>27.0</ele><time>2026-05-01T15:00:53Z</time></trkpt><trkpt lat="42.115015455020504" lon="12.618940192814359"><ele>27.0</ele><time>2026-05-01T15:00:54Z</time></trkpt><trkpt lat="42.11468393955977" lon="12.619000193863718"><ele>27.0</ele><time>2026-05-01T15:00:55Z</time></trkpt><trkpt lat="42.11435230801296" lon="12.619059143792812"><ele>26.5</ele><time>2026-05-01T15:00:56Z</time></trkpt><trkpt lat="42.114018796415145" lon="12.6191157948986"><ele>26.0</ele><time>2026-05-01T15:00:57Z</time></trkpt><trkpt lat="42.11368535199312" lon="12.619172663735927"><ele>26.0</ele><time>2026-05-01T15:00:58Z</time></trkpt><trkpt lat="42.11335226317688" lon="12.619230025564852"><ele>26.0</ele><time>2026-05-01T15:00:59Z</time></trkpt><trkpt lat="42.113019174640826" lon="12.619287729651148"><ele>26.0</ele><time>2026-05-01T15:01:00Z</time></trkpt><trkpt lat="42.1126866328053" lon="12.619346579125647"><ele>26.0</ele><time>2026-05-01T15:01:01Z</time></trkpt><trkpt lat="42.112352193301675" lon="12.619406610357897"><ele>26.0</ele><time>2026-05-01T15:01:02Z</time></trkpt><trkpt lat="42.112018197985044" lon="12.61946589238468"><ele>26.0</ele><time>2026-05-01T15:01:03Z</time></trkpt><trkpt lat="42.11168421911903" lon="12.619525913959059"><ele>26.0</ele><time>2026-05-01T15:01:04Z</time></trkpt><trkpt lat="42.11134998463144" lon="12.619585996147757"><ele>26.0</ele><time>2026-05-01T15:01:05Z</time></trkpt><trkpt lat="42.111015668386365" lon="12.619645842288437"><ele>26.0</ele><time>2026-05-01T15:01:06Z</time></trkpt><trkpt lat="42.1106827758845" lon="12.619704368457011"><ele>26.0</ele><time>2026-05-01T15:01:07Z</time></trkpt><trkpt lat="42.11034831430925" lon="12.619763197509911"><ele>26.0</ele><time>2026-05-01T15:01:08Z</time></trkpt><trkpt lat="42.11001351063826" lon="12.619822079495586"><ele>26.0</ele><time>2026-05-01T15:01:09Z</time></trkpt><trkpt lat="42.109681046309035" lon="12.619880503822593"><ele>26.0</ele><time>2026-05-01T15:01:10Z</time></trkpt><trkpt lat="42.10934867671819" lon="12.619938313278176"><ele>26.0</ele><time>2026-05-01T15:01:11Z</time></trkpt><trkpt lat="42.109015940156745" lon="12.619998049912564"><ele>26.0</ele><time>2026-05-01T15:01:12Z</time></trkpt><trkpt lat="42.108682898525224" lon="12.620058412852208"><ele>26.0</ele><time>2026-05-01T15:01:13Z</time></trkpt><trkpt lat="42.10834991556258" lon="12.620119928105277"><ele>26.0</ele><time>2026-05-01T15:01:14Z</time></trkpt><trkpt lat="42.10801552887384" lon="12.620180214881712"><ele>26.0</ele><time>2026-05-01T15:01:15Z</time></trkpt><trkpt lat="42.10768294112043" lon="12.620238964342908"><ele>24.5</ele><time>2026-05-01T15:01:16Z</time></trkpt><trkpt lat="42.10735097065514" lon="12.620296451068732"><ele>23.0</ele><time>2026-05-01T15:01:17Z</time></trkpt><trkpt lat="42.10701901467164" lon="12.620353370946816"><ele>23.0</ele><time>2026-05-01T15:01:18Z</time></trkpt><trkpt lat="42.10668574181453" lon="12.620409953920879"><ele>23.0</ele><time>2026-05-01T15:01:19Z</time></trkpt><trkpt lat="42.10635203667012" lon="12.620466214679004"><ele>24.0</ele><time>2026-05-01T15:01:20Z</time></trkpt><trkpt lat="42.10601664186827" lon="12.620523138645387"><ele>25.0</ele><time>2026-05-01T15:01:21Z</time></trkpt><trkpt lat="42.1056812358681" lon="12.620581086292919"><ele>26.0</ele><time>2026-05-01T15:01:22Z</time></trkpt><trkpt lat="42.10534694936939" lon="12.620644397428075"><ele>27.0</ele><time>2026-05-01T15:01:23Z</time></trkpt><trkpt lat="42.10501095215639" lon="12.620706904393273"><ele>28.5</ele><time>2026-05-01T15:01:24Z</time></trkpt><trkpt lat="42.10467548508593" lon="12.620764513722722"><ele>30.0</ele><time>2026-05-01T15:01:25Z</time></trkpt><trkpt lat="42.104340440299474" lon="12.62082077993465"><ele>29.5</ele><time>2026-05-01T15:01:26Z</time></trkpt><trkpt lat="42.10400503294964" lon="12.620881035526736"><ele>29.0</ele><time>2026-05-01T15:01:27Z</time></trkpt><trkpt lat="42.10367074380291" lon="12.620943104854177"><ele>29.0</ele><time>2026-05-01T15:01:28Z</time></trkpt><trkpt lat="42.10333857241457" lon="12.6210041987135"><ele>29.0</ele><time>2026-05-01T15:01:29Z</time></trkpt><trkpt lat="42.103006515112455" lon="12.621067512495374"><ele>28.5</ele><time>2026-05-01T15:01:30Z</time></trkpt><trkpt lat="42.10267350647338" lon="12.621133071632215"><ele>28.0</ele><time>2026-05-01T15:01:31Z</time></trkpt><trkpt lat="42.10234016940559" lon="12.621202864926708"><ele>28.0</ele><time>2026-05-01T15:01:32Z</time></trkpt><trkpt lat="42.10200851747568" lon="12.621275372671668"><ele>28.0</ele><time>2026-05-01T15:01:33Z</time></trkpt><trkpt lat="42.10167620261577" lon="12.62135405942271"><ele>27.0</ele><time>2026-05-01T15:01:34Z</time></trkpt><trkpt lat="42.10134778953788" lon="12.621439265017662"><ele>26.0</ele><time>2026-05-01T15:01:35Z</time></trkpt><trkpt lat="42.10102056566758" lon="12.621531400608724"><ele>26.0</ele><time>2026-05-01T15:01:36Z</time></trkpt><trkpt lat="42.10069450211152" lon="12.621630774472232"><ele>26.0</ele><time>2026-05-01T15:01:37Z</time></trkpt><trkpt lat="42.10037039733581" lon="12.62173750143856"><ele>26.0</ele><time>2026-05-01T15:01:38Z</time></trkpt><trkpt lat="42.10004746158279" lon="12.621849170858475"><ele>26.0</ele><time>2026-05-01T15:01:39Z</time></trkpt><trkpt lat="42.099727368931276" lon="12.621968411058532"><ele>27.0</ele><time>2026-05-01T15:01:40Z</time></trkpt><trkpt lat="42.099417144398814" lon="12.622098050768521"><ele>28.0</ele><time>2026-05-01T15:01:41Z</time></trkpt><trkpt lat="42.09911403216252" lon="12.622235311304738"><ele>28.0</ele><time>2026-05-01T15:01:42Z</time></trkpt><trkpt lat="42.09880883986384" lon="12.622379784408645"><ele>28.0</ele><time>2026-05-01T15:01:43Z</time></trkpt><trkpt lat="42.09850078624619" lon="12.622535445225427"><ele>28.0</ele><time>2026-05-01T15:01:43.999Z</time></trkpt><trkpt lat="42.0981934720566" lon="12.622697750344983"><ele>28.0</ele><time>2026-05-01T15:01:44.999Z</time></trkpt><trkpt lat="42.097886513418175" lon="12.622869600300701"><ele>28.0</ele><time>2026-05-01T15:01:45.999Z</time></trkpt><trkpt lat="42.097580254307275" lon="12.623049190311466"><ele>28.0</ele><time>2026-05-01T15:01:46.999Z</time></trkpt><trkpt lat="42.09727549469061" lon="12.623231940624823"><ele>27.5</ele><time>2026-05-01T15:01:47.999Z</time></trkpt><trkpt lat="42.09697346227504" lon="12.62342055194399"><ele>27.0</ele><time>2026-05-01T15:01:48.999Z</time></trkpt><trkpt lat="42.096673927298184" lon="12.623619211424819"><ele>27.0</ele><time>2026-05-01T15:01:49.999Z</time></trkpt><trkpt lat="42.096376981182" lon="12.62382396978791"><ele>27.0</ele><time>2026-05-01T15:01:50.999Z</time></trkpt><trkpt lat="42.09608091169229" lon="12.624034286133323"><ele>27.0</ele><time>2026-05-01T15:01:51.999Z</time></trkpt><trkpt lat="42.095785270493394" lon="12.624249175112222"><ele>27.0</ele><time>2026-05-01T15:01:52.999Z</time></trkpt><trkpt lat="42.09548819173906" lon="12.624467772021474"><ele>27.5</ele><time>2026-05-01T15:01:53.999Z</time></trkpt><trkpt lat="42.095191294147355" lon="12.624688160111697"><ele>28.0</ele><time>2026-05-01T15:01:54.999Z</time></trkpt><trkpt lat="42.09489645742484" lon="12.624910818971932"><ele>28.0</ele><time>2026-05-01T15:01:55.999Z</time></trkpt><trkpt lat="42.09460132544292" lon="12.625132830578114"><ele>28.0</ele><time>2026-05-01T15:01:56.999Z</time></trkpt><trkpt lat="42.094307283201964" lon="12.625356554499362"><ele>28.0</ele><time>2026-05-01T15:01:57.999Z</time></trkpt><trkpt lat="42.09401395451514" lon="12.625581988348083"><ele>28.0</ele><time>2026-05-01T15:01:58.999Z</time></trkpt><trkpt lat="42.093721604308506" lon="12.62580697795191"><ele>28.0</ele><time>2026-05-01T15:01:59.999Z</time></trkpt><trkpt lat="42.09342770090691" lon="12.626032247721847"><ele>28.0</ele><time>2026-05-01T15:02:00.999Z</time></trkpt><trkpt lat="42.09313456863606" lon="12.626256676427527"><ele>28.5</ele><time>2026-05-01T15:02:01.999Z</time></trkpt><trkpt lat="42.09284136570505" lon="12.626480880712986"><ele>29.0</ele><time>2026-05-01T15:02:02.999Z</time></trkpt><trkpt lat="42.09254922323212" lon="12.626706282298445"><ele>29.5</ele><time>2026-05-01T15:02:03.999Z</time></trkpt><trkpt lat="42.09225742015328" lon="12.626933303617507"><ele>30.0</ele><time>2026-05-01T15:02:04.999Z</time></trkpt><trkpt lat="42.09196741371576" lon="12.627161050030926"><ele>30.0</ele><time>2026-05-01T15:02:05.999Z</time></trkpt><trkpt lat="42.09167627267312" lon="12.627389189741598"><ele>30.0</ele><time>2026-05-01T15:02:06.999Z</time></trkpt><trkpt lat="42.09138550891519" lon="12.6276145849942"><ele>30.0</ele><time>2026-05-01T15:02:07.999Z</time></trkpt><trkpt lat="42.091095308612246" lon="12.627840223659808"><ele>30.0</ele><time>2026-05-01T15:02:08.999Z</time></trkpt><trkpt lat="42.09080355255093" lon="12.628066755131831"><ele>30.5</ele><time>2026-05-01T15:02:09.999Z</time></trkpt><trkpt lat="42.090511842193" lon="12.628295641614882"><ele>31.0</ele><time>2026-05-01T15:02:10.999Z</time></trkpt><trkpt lat="42.09022113688201" lon="12.628524886308051"><ele>32.0</ele><time>2026-05-01T15:02:11.999Z</time></trkpt><trkpt lat="42.08993071997633" lon="12.628752879521873"><ele>33.0</ele><time>2026-05-01T15:02:12.999Z</time></trkpt><trkpt lat="42.089638494067216" lon="12.628978090437368"><ele>35.5</ele><time>2026-05-01T15:02:13.999Z</time></trkpt><trkpt lat="42.0893486699711" lon="12.629202334274188"><ele>38.0</ele><time>2026-05-01T15:02:14.999Z</time></trkpt><trkpt lat="42.089058755110536" lon="12.629428103175544"><ele>38.0</ele><time>2026-05-01T15:02:15.999Z</time></trkpt><trkpt lat="42.0887679863315" lon="12.6296554887196"><ele>38.0</ele><time>2026-05-01T15:02:16.999Z</time></trkpt><trkpt lat="42.08847449125651" lon="12.62988286488856"><ele>37.0</ele><time>2026-05-01T15:02:17.999Z</time></trkpt><trkpt lat="42.08818083661722" lon="12.630108247432226"><ele>36.0</ele><time>2026-05-01T15:02:18.999Z</time></trkpt><trkpt lat="42.087887739991785" lon="12.630333937524208"><ele>36.0</ele><time>2026-05-01T15:02:19.999Z</time></trkpt><trkpt lat="42.087596140915075" lon="12.630562735418943"><ele>36.0</ele><time>2026-05-01T15:02:20.999Z</time></trkpt><trkpt lat="42.08730517632235" lon="12.630791939464123"><ele>37.5</ele><time>2026-05-01T15:02:21.999Z</time></trkpt><trkpt lat="42.08701569191807" lon="12.63101796911307"><ele>39.0</ele><time>2026-05-01T15:02:22.999Z</time></trkpt><trkpt lat="42.08672649009679" lon="12.63124263291545"><ele>41.5</ele><time>2026-05-01T15:02:23.999Z</time></trkpt><trkpt lat="42.08643794736851" lon="12.63146639466388"><ele>44.0</ele><time>2026-05-01T15:02:24.999Z</time></trkpt><trkpt lat="42.086151391692304" lon="12.63168896647021"><ele>44.0</ele><time>2026-05-01T15:02:25.999Z</time></trkpt><trkpt lat="42.08586529138904" lon="12.631911591602861"><ele>44.0</ele><time>2026-05-01T15:02:26.999Z</time></trkpt><trkpt lat="42.08557924401232" lon="12.632131983037977"><ele>42.5</ele><time>2026-05-01T15:02:27.999Z</time></trkpt><trkpt lat="42.08529228156251" lon="12.632349760158514"><ele>41.0</ele><time>2026-05-01T15:02:28.999Z</time></trkpt><trkpt lat="42.08500372928386" lon="12.632562928259276"><ele>41.5</ele><time>2026-05-01T15:02:29.999Z</time></trkpt><trkpt lat="42.08471497212066" lon="12.632773985734259"><ele>42.0</ele><time>2026-05-01T15:02:30.999Z</time></trkpt><trkpt lat="42.0844251034554" lon="12.632986730928437"><ele>38.5</ele><time>2026-05-01T15:02:31.999Z</time></trkpt><trkpt lat="42.084135200712716" lon="12.633196337885922"><ele>35.0</ele><time>2026-05-01T15:02:33Z</time></trkpt><trkpt lat="42.08384484709237" lon="12.633404749700379"><ele>35.0</ele><time>2026-05-01T15:02:34Z</time></trkpt><trkpt lat="42.08355290738152" lon="12.633612111461316"><ele>35.0</ele><time>2026-05-01T15:02:35Z</time></trkpt><trkpt lat="42.0832611214138" lon="12.633814270277862"><ele>34.5</ele><time>2026-05-01T15:02:36Z</time></trkpt><trkpt lat="42.08296759742682" lon="12.634012569237635"><ele>34.0</ele><time>2026-05-01T15:02:37Z</time></trkpt><trkpt lat="42.082673053865335" lon="12.634205986604533"><ele>35.0</ele><time>2026-05-01T15:02:38Z</time></trkpt><trkpt lat="42.08237513490788" lon="12.63439782500521"><ele>36.0</ele><time>2026-05-01T15:02:39Z</time></trkpt><trkpt lat="42.08207700292312" lon="12.634591349526003"><ele>39.5</ele><time>2026-05-01T15:02:40Z</time></trkpt><trkpt lat="42.08177952217131" lon="12.634782196678122"><ele>43.0</ele><time>2026-05-01T15:02:41Z</time></trkpt><trkpt lat="42.081479305268665" lon="12.634971589213649"><ele>44.0</ele><time>2026-05-01T15:02:42Z</time></trkpt><trkpt lat="42.08117647900972" lon="12.635158169851415"><ele>45.0</ele><time>2026-05-01T15:02:43Z</time></trkpt><trkpt lat="42.08087267550364" lon="12.635339950202642"><ele>55.0</ele><time>2026-05-01T15:02:44Z</time></trkpt><trkpt lat="42.080566306356594" lon="12.635515377364392"><ele>65.0</ele><time>2026-05-01T15:02:45Z</time></trkpt><trkpt lat="42.08025858190707" lon="12.635685792422498"><ele>65.0</ele><time>2026-05-01T15:02:46Z</time></trkpt><trkpt lat="42.07994754901603" lon="12.63585165715944"><ele>65.0</ele><time>2026-05-01T15:02:47Z</time></trkpt><trkpt lat="42.07963559788391" lon="12.63601310646882"><ele>65.0</ele><time>2026-05-01T15:02:48Z</time></trkpt><trkpt lat="42.07932212201928" lon="12.636168460535488"><ele>65.0</ele><time>2026-05-01T15:02:49Z</time></trkpt><trkpt lat="42.07900797731" lon="12.63631746156422"><ele>65.0</ele><time>2026-05-01T15:02:50Z</time></trkpt><trkpt lat="42.07869289133246" lon="12.636458179824105"><ele>65.0</ele><time>2026-05-01T15:02:51Z</time></trkpt><trkpt lat="42.0783776331744" lon="12.636591102345752"><ele>66.0</ele><time>2026-05-01T15:02:52Z</time></trkpt><trkpt lat="42.078063470935454" lon="12.636717612977833"><ele>67.0</ele><time>2026-05-01T15:02:53Z</time></trkpt><trkpt lat="42.07775002186241" lon="12.636840260475886"><ele>67.5</ele><time>2026-05-01T15:02:54Z</time></trkpt><trkpt lat="42.07737993705247" lon="12.637036906528452"><ele>68.0</ele><time>2026-05-01T15:02:55Z</time></trkpt><trkpt lat="42.0770577342489" lon="12.63716008156104"><ele>68.0</ele><time>2026-05-01T15:02:56Z</time></trkpt><trkpt lat="42.07673638317889" lon="12.637273789327764"><ele>68.0</ele><time>2026-05-01T15:02:57Z</time></trkpt><trkpt lat="42.07641350618504" lon="12.637387386760144"><ele>68.5</ele><time>2026-05-01T15:02:58Z</time></trkpt><trkpt lat="42.07609126936727" lon="12.637500507022933"><ele>69.0</ele><time>2026-05-01T15:02:59Z</time></trkpt><trkpt lat="42.075766997630524" lon="12.637600368660108"><ele>69.0</ele><time>2026-05-01T15:03:00Z</time></trkpt><trkpt lat="42.07544374940406" lon="12.637686658890864"><ele>69.0</ele><time>2026-05-01T15:03:01Z</time></trkpt><trkpt lat="42.075136254856034" lon="12.637633532070858"><ele>70.5</ele><time>2026-05-01T15:03:02Z</time></trkpt><trkpt lat="42.074822149722266" lon="12.63777671245035"><ele>72.0</ele><time>2026-05-01T15:03:03Z</time></trkpt><trkpt lat="42.074499621151496" lon="12.63785855267188"><ele>72.0</ele><time>2026-05-01T15:03:04Z</time></trkpt><trkpt lat="42.07417320528503" lon="12.637939176799284"><ele>72.0</ele><time>2026-05-01T15:03:05Z</time></trkpt><trkpt lat="42.07384667087093" lon="12.638009517981244"><ele>73.5</ele><time>2026-05-01T15:03:06Z</time></trkpt><trkpt lat="42.07351871670988" lon="12.638072918349645"><ele>75.0</ele><time>2026-05-01T15:03:07Z</time></trkpt><trkpt lat="42.07319200187006" lon="12.638127656689015"><ele>76.5</ele><time>2026-05-01T15:03:08Z</time></trkpt><trkpt lat="42.0728643162829" lon="12.638178859097634"><ele>78.0</ele><time>2026-05-01T15:03:09Z</time></trkpt><trkpt lat="42.072534436196506" lon="12.638223461403276"><ele>78.0</ele><time>2026-05-01T15:03:10Z</time></trkpt><trkpt lat="42.072203050083225" lon="12.63826450851787"><ele>78.0</ele><time>2026-05-01T15:03:11Z</time></trkpt><trkpt lat="42.071872583101026" lon="12.638301560590481"><ele>78.5</ele><time>2026-05-01T15:03:12Z</time></trkpt><trkpt lat="42.07154101699249" lon="12.638334131462045"><ele>79.0</ele><time>2026-05-01T15:03:13Z</time></trkpt><trkpt lat="42.07120986144168" lon="12.638360597142212"><ele>79.0</ele><time>2026-05-01T15:03:14Z</time></trkpt><trkpt lat="42.07087796092889" lon="12.638385306143599"><ele>79.0</ele><time>2026-05-01T15:03:15Z</time></trkpt><trkpt lat="42.070545976046304" lon="12.63840730353346"><ele>80.5</ele><time>2026-05-01T15:03:16Z</time></trkpt><trkpt lat="42.07021358247708" lon="12.638427512356442"><ele>82.0</ele><time>2026-05-01T15:03:17Z</time></trkpt><trkpt lat="42.0698799230108" lon="12.638444681576953"><ele>84.0</ele><time>2026-05-01T15:03:18Z</time></trkpt><trkpt lat="42.06954762897213" lon="12.638455827289013"><ele>86.0</ele><time>2026-05-01T15:03:19Z</time></trkpt><trkpt lat="42.06921542771442" lon="12.63846671115395"><ele>89.0</ele><time>2026-05-01T15:03:20Z</time></trkpt><trkpt lat="42.06888335096276" lon="12.638477882365011"><ele>92.0</ele><time>2026-05-01T15:03:21Z</time></trkpt><trkpt lat="42.068551058667126" lon="12.638486727671927"><ele>93.0</ele><time>2026-05-01T15:03:22Z</time></trkpt><trkpt lat="42.06821850520955" lon="12.638491947684026"><ele>94.0</ele><time>2026-05-01T15:03:23Z</time></trkpt><trkpt lat="42.0678861370806" lon="12.63849343185882"><ele>94.0</ele><time>2026-05-01T15:03:24Z</time></trkpt><trkpt lat="42.06755551956283" lon="12.638491000436053"><ele>94.0</ele><time>2026-05-01T15:03:25Z</time></trkpt><trkpt lat="42.06722548728211" lon="12.63848955899155"><ele>93.5</ele><time>2026-05-01T15:03:26Z</time></trkpt><trkpt lat="42.06689450768483" lon="12.638487552623667"><ele>93.0</ele><time>2026-05-01T15:03:27Z</time></trkpt><trkpt lat="42.06656231497626" lon="12.638486690137032"><ele>94.0</ele><time>2026-05-01T15:03:28Z</time></trkpt><trkpt lat="42.06622837329713" lon="12.638484953051954"><ele>95.0</ele><time>2026-05-01T15:03:29Z</time></trkpt><trkpt lat="42.06589463227178" lon="12.638480187644719"><ele>96.0</ele><time>2026-05-01T15:03:30Z</time></trkpt><trkpt lat="42.06556131697077" lon="12.638473662256631"><ele>97.0</ele><time>2026-05-01T15:03:31Z</time></trkpt><trkpt lat="42.065228418560864" lon="12.638468524204479"><ele>98.5</ele><time>2026-05-01T15:03:32Z</time></trkpt><trkpt lat="42.06489801114853" lon="12.638466089091139"><ele>100.0</ele><time>2026-05-01T15:03:33Z</time></trkpt><trkpt lat="42.064567213239066" lon="12.638467082423736"><ele>100.0</ele><time>2026-05-01T15:03:34Z</time></trkpt><trkpt lat="42.0642354265318" lon="12.638474019378563"><ele>100.0</ele><time>2026-05-01T15:03:35Z</time></trkpt><trkpt lat="42.06390324544999" lon="12.638484655214564"><ele>101.0</ele><time>2026-05-01T15:03:36Z</time></trkpt><trkpt lat="42.06356969575499" lon="12.638501210984849"><ele>102.0</ele><time>2026-05-01T15:03:37Z</time></trkpt><trkpt lat="42.06323622564771" lon="12.638524279757924"><ele>103.0</ele><time>2026-05-01T15:03:38Z</time></trkpt><trkpt lat="42.062903343440844" lon="12.638554949058115"><ele>104.0</ele><time>2026-05-01T15:03:39Z</time></trkpt><trkpt lat="42.06257314472996" lon="12.63860008134473"><ele>107.0</ele><time>2026-05-01T15:03:40Z</time></trkpt><trkpt lat="42.06224427816893" lon="12.63865655275753"><ele>110.0</ele><time>2026-05-01T15:03:41Z</time></trkpt><trkpt lat="42.06191632776692" lon="12.638729368253042"><ele>111.0</ele><time>2026-05-01T15:03:42Z</time></trkpt><trkpt lat="42.06159155869727" lon="12.638818340162556"><ele>112.0</ele><time>2026-05-01T15:03:43Z</time></trkpt><trkpt lat="42.061268091940406" lon="12.638922877447204"><ele>112.0</ele><time>2026-05-01T15:03:44Z</time></trkpt><trkpt lat="42.06094946097974" lon="12.639042857655474"><ele>112.0</ele><time>2026-05-01T15:03:44.999Z</time></trkpt><trkpt lat="42.060634845346" lon="12.639178857532793"><ele>112.0</ele><time>2026-05-01T15:03:45.999Z</time></trkpt><trkpt lat="42.06032314257303" lon="12.639331170874053"><ele>112.0</ele><time>2026-05-01T15:03:46.999Z</time></trkpt><trkpt lat="42.060016679155254" lon="12.639500503144438"><ele>111.5</ele><time>2026-05-01T15:03:47.999Z</time></trkpt><trkpt lat="42.059713816517814" lon="12.639681534083769"><ele>111.0</ele><time>2026-05-01T15:03:48.999Z</time></trkpt><trkpt lat="42.05941502196201" lon="12.639875487620339"><ele>111.0</ele><time>2026-05-01T15:03:49.999Z</time></trkpt><trkpt lat="42.05912315288802" lon="12.640085877941466"><ele>111.0</ele><time>2026-05-01T15:03:50.999Z</time></trkpt><trkpt lat="42.058836196322765" lon="12.640311837603441"><ele>111.0</ele><time>2026-05-01T15:03:51.999Z</time></trkpt><trkpt lat="42.058555984627944" lon="12.64055164240872"><ele>111.0</ele><time>2026-05-01T15:03:52.999Z</time></trkpt><trkpt lat="42.05828313233146" lon="12.640806604796708"><ele>112.5</ele><time>2026-05-01T15:03:53.999Z</time></trkpt><trkpt lat="42.05801750748982" lon="12.641074653684077"><ele>114.0</ele><time>2026-05-01T15:03:54.999Z</time></trkpt><trkpt lat="42.0577582373624" lon="12.641354734680435"><ele>114.0</ele><time>2026-05-01T15:03:55.999Z</time></trkpt><trkpt lat="42.05750746238949" lon="12.64164783763549"><ele>114.0</ele><time>2026-05-01T15:03:56.999Z</time></trkpt><trkpt lat="42.057265913958595" lon="12.641952395462633"><ele>113.5</ele><time>2026-05-01T15:03:57.999Z</time></trkpt><trkpt lat="42.05703389859766" lon="12.64227028503156"><ele>113.0</ele><time>2026-05-01T15:03:58.999Z</time></trkpt><trkpt lat="42.05681137664907" lon="12.642600030080116"><ele>113.5</ele><time>2026-05-01T15:03:59.999Z</time></trkpt><trkpt lat="42.056596513423344" lon="12.642940292893867"><ele>114.0</ele><time>2026-05-01T15:04:00.999Z</time></trkpt><trkpt lat="42.05638842341779" lon="12.643289545726013"><ele>114.5</ele><time>2026-05-01T15:04:01.999Z</time></trkpt><trkpt lat="42.056186157121246" lon="12.643649199838924"><ele>115.0</ele><time>2026-05-01T15:04:02.999Z</time></trkpt><trkpt lat="42.05599042650249" lon="12.64401734662059"><ele>115.0</ele><time>2026-05-01T15:04:03.999Z</time></trkpt><trkpt lat="42.05580099115351" lon="12.644390693276856"><ele>115.0</ele><time>2026-05-01T15:04:04.999Z</time></trkpt><trkpt lat="42.05561716088797" lon="12.644767953760576"><ele>112.5</ele><time>2026-05-01T15:04:05.999Z</time></trkpt><trkpt lat="42.05543666244735" lon="12.645148488956703"><ele>110.0</ele><time>2026-05-01T15:04:06.999Z</time></trkpt><trkpt lat="42.05526175401352" lon="12.645531933189568"><ele>110.0</ele><time>2026-05-01T15:04:07.999Z</time></trkpt><trkpt lat="42.055089373904" lon="12.64591486407823"><ele>110.0</ele><time>2026-05-01T15:04:08.999Z</time></trkpt><trkpt lat="42.054916521613194" lon="12.6462980795046"><ele>108.5</ele><time>2026-05-01T15:04:09.999Z</time></trkpt><trkpt lat="42.05474489501854" lon="12.646678681550949"><ele>107.0</ele><time>2026-05-01T15:04:10.999Z</time></trkpt><trkpt lat="42.05457029487209" lon="12.647054815742376"><ele>107.0</ele><time>2026-05-01T15:04:11.999Z</time></trkpt><trkpt lat="42.05439203089161" lon="12.647425606601226"><ele>107.0</ele><time>2026-05-01T15:04:12.999Z</time></trkpt><trkpt lat="42.05420669184738" lon="12.647788871378914"><ele>106.5</ele><time>2026-05-01T15:04:13.999Z</time></trkpt><trkpt lat="42.05401337691312" lon="12.648144597280412"><ele>106.0</ele><time>2026-05-01T15:04:14.999Z</time></trkpt><trkpt lat="42.053809442737325" lon="12.64849081411353"><ele>108.0</ele><time>2026-05-01T15:04:15.999Z</time></trkpt><trkpt lat="42.053594656537754" lon="12.648826088033719"><ele>110.0</ele><time>2026-05-01T15:04:16.999Z</time></trkpt><trkpt lat="42.05336886795887" lon="12.649149098995917"><ele>109.0</ele><time>2026-05-01T15:04:17.999Z</time></trkpt><trkpt lat="42.05313186578434" lon="12.649458897306815"><ele>108.0</ele><time>2026-05-01T15:04:18.999Z</time></trkpt><trkpt lat="42.05288370290533" lon="12.649754129479861"><ele>108.0</ele><time>2026-05-01T15:04:19.999Z</time></trkpt><trkpt lat="42.05262316646677" lon="12.650030443591438"><ele>108.0</ele><time>2026-05-01T15:04:20.999Z</time></trkpt><trkpt lat="42.05235140394199" lon="12.65028755906246"><ele>108.5</ele><time>2026-05-01T15:04:21.999Z</time></trkpt><trkpt lat="42.05207572000458" lon="12.650536468409637"><ele>109.0</ele><time>2026-05-01T15:04:22.999Z</time></trkpt><trkpt lat="42.0517871364956" lon="12.650761815919122"><ele>109.0</ele><time>2026-05-01T15:04:23.999Z</time></trkpt><trkpt lat="42.05148986532205" lon="12.650974433501352"><ele>109.0</ele><time>2026-05-01T15:04:24.999Z</time></trkpt><trkpt lat="42.05118555687913" lon="12.651170039909882"><ele>109.5</ele><time>2026-05-01T15:04:25.999Z</time></trkpt><trkpt lat="42.050877159989206" lon="12.651348936861469"><ele>110.0</ele><time>2026-05-01T15:04:26.999Z</time></trkpt><trkpt lat="42.050558832530584" lon="12.651506680654593"><ele>110.0</ele><time>2026-05-01T15:04:27.999Z</time></trkpt><trkpt lat="42.05023949230934" lon="12.651653674475552"><ele>110.0</ele><time>2026-05-01T15:04:28.999Z</time></trkpt><trkpt lat="42.0499156584305" lon="12.65178463152022"><ele>110.5</ele><time>2026-05-01T15:04:29.999Z</time></trkpt><trkpt lat="42.0495904904514" lon="12.65191316003758"><ele>111.0</ele><time>2026-05-01T15:04:30.999Z</time></trkpt><trkpt lat="42.04926417227168" lon="12.652044890475345"><ele>112.5</ele><time>2026-05-01T15:04:31.999Z</time></trkpt><trkpt lat="42.04893812923357" lon="12.65217964224537"><ele>114.0</ele><time>2026-05-01T15:04:32.999Z</time></trkpt><trkpt lat="42.04861284453395" lon="12.652316530023075"><ele>113.0</ele><time>2026-05-01T15:04:33.999Z</time></trkpt><trkpt lat="42.048288902505355" lon="12.652454126543883"><ele>112.0</ele><time>2026-05-01T15:04:34.999Z</time></trkpt><trkpt lat="42.04796716173981" lon="12.65260014959253"><ele>112.0</ele><time>2026-05-01T15:04:35.999Z</time></trkpt><trkpt lat="42.04765029547404" lon="12.652754383533422"><ele>112.0</ele><time>2026-05-01T15:04:36.999Z</time></trkpt><trkpt lat="42.047337410610304" lon="12.652913812939873"><ele>112.5</ele><time>2026-05-01T15:04:37.999Z</time></trkpt><trkpt lat="42.04702812267362" lon="12.65308371095427"><ele>113.0</ele><time>2026-05-01T15:04:39Z</time></trkpt><trkpt lat="42.04672487544303" lon="12.653269299908738"><ele>112.5</ele><time>2026-05-01T15:04:40Z</time></trkpt><trkpt lat="42.04642606235285" lon="12.65346717629487"><ele>112.0</ele><time>2026-05-01T15:04:41Z</time></trkpt><trkpt lat="42.04613073685348" lon="12.653675559488883"><ele>113.0</ele><time>2026-05-01T15:04:42Z</time></trkpt><trkpt lat="42.045837892170184" lon="12.653891738777034"><ele>114.0</ele><time>2026-05-01T15:04:43Z</time></trkpt><trkpt lat="42.04554765248585" lon="12.654117135758993"><ele>115.0</ele><time>2026-05-01T15:04:44Z</time></trkpt><trkpt lat="42.045263213588775" lon="12.654351850156923"><ele>116.0</ele><time>2026-05-01T15:04:45Z</time></trkpt><trkpt lat="42.0449862632605" lon="12.654602383607463"><ele>116.5</ele><time>2026-05-01T15:04:46Z</time></trkpt><trkpt lat="42.04471269754081" lon="12.654857804397762"><ele>117.0</ele><time>2026-05-01T15:04:47Z</time></trkpt><trkpt lat="42.04444594964498" lon="12.655124386755022"><ele>118.0</ele><time>2026-05-01T15:04:48Z</time></trkpt><trkpt lat="42.04418195494677" lon="12.655402646367449"><ele>119.0</ele><time>2026-05-01T15:04:49Z</time></trkpt><trkpt lat="42.04392237616642" lon="12.65569055603308"><ele>119.0</ele><time>2026-05-01T15:04:50Z</time></trkpt><trkpt lat="42.043668219231705" lon="12.655987655246266"><ele>119.0</ele><time>2026-05-01T15:04:51Z</time></trkpt><trkpt lat="42.04342024163358" lon="12.656291007252635"><ele>120.5</ele><time>2026-05-01T15:04:52Z</time></trkpt><trkpt lat="42.04318231476862" lon="12.656608462479364"><ele>122.0</ele><time>2026-05-01T15:04:53Z</time></trkpt><trkpt lat="42.04295017428763" lon="12.656938311280758"><ele>121.5</ele><time>2026-05-01T15:04:54Z</time></trkpt><trkpt lat="42.04272561081895" lon="12.65727442203604"><ele>121.0</ele><time>2026-05-01T15:04:55Z</time></trkpt><trkpt lat="42.0425084508651" lon="12.657619496296745"><ele>122.5</ele><time>2026-05-01T15:04:56Z</time></trkpt><trkpt lat="42.04229597469474" lon="12.657967742232135"><ele>124.0</ele><time>2026-05-01T15:04:57Z</time></trkpt><trkpt lat="42.04209048722969" lon="12.658321466012632"><ele>124.5</ele><time>2026-05-01T15:04:58Z</time></trkpt><trkpt lat="42.04189215769742" lon="12.658685165506732"><ele>125.0</ele><time>2026-05-01T15:04:59Z</time></trkpt><trkpt lat="42.041704546222164" lon="12.659056142744765"><ele>125.0</ele><time>2026-05-01T15:05:00Z</time></trkpt><trkpt lat="42.04152455009714" lon="12.659434105030815"><ele>125.0</ele><time>2026-05-01T15:05:01Z</time></trkpt><trkpt lat="42.04134904097778" lon="12.659817045548966"><ele>125.0</ele><time>2026-05-01T15:05:02Z</time></trkpt><trkpt lat="42.04117767034218" lon="12.660205061623978"><ele>125.0</ele><time>2026-05-01T15:05:03Z</time></trkpt><trkpt lat="42.04100899983946" lon="12.660593737559925"><ele>126.0</ele><time>2026-05-01T15:05:04Z</time></trkpt><trkpt lat="42.04084492483014" lon="12.660981824337451"><ele>127.0</ele><time>2026-05-01T15:05:05Z</time></trkpt><trkpt lat="42.04068439166552" lon="12.661370240539378"><ele>129.0</ele><time>2026-05-01T15:05:06Z</time></trkpt><trkpt lat="42.04052598309356" lon="12.661756096308759"><ele>131.0</ele><time>2026-05-01T15:05:07Z</time></trkpt><trkpt lat="42.04036935837661" lon="12.662136919149967"><ele>133.0</ele><time>2026-05-01T15:05:08Z</time></trkpt><trkpt lat="42.04021172516934" lon="12.66251461562301"><ele>135.0</ele><time>2026-05-01T15:05:09Z</time></trkpt><trkpt lat="42.04005608236551" lon="12.662888915898934"><ele>137.0</ele><time>2026-05-01T15:05:10Z</time></trkpt><trkpt lat="42.03989922781395" lon="12.663259214739208"><ele>139.0</ele><time>2026-05-01T15:05:11Z</time></trkpt><trkpt lat="42.03974220474395" lon="12.663628414979646"><ele>139.0</ele><time>2026-05-01T15:05:12Z</time></trkpt><trkpt lat="42.03958453561452" lon="12.663997058497028"><ele>139.0</ele><time>2026-05-01T15:05:13Z</time></trkpt><trkpt lat="42.039424412926905" lon="12.664366263820675"><ele>137.5</ele><time>2026-05-01T15:05:14Z</time></trkpt><trkpt lat="42.039261314152654" lon="12.66473393401233"><ele>136.0</ele><time>2026-05-01T15:05:15Z</time></trkpt><trkpt lat="42.03909363731153" lon="12.665099995415432"><ele>139.5</ele><time>2026-05-01T15:05:16Z</time></trkpt><trkpt lat="42.038921894532386" lon="12.665464122443378"><ele>143.0</ele><time>2026-05-01T15:05:17Z</time></trkpt><trkpt lat="42.03874577938715" lon="12.665829897519835"><ele>143.0</ele><time>2026-05-01T15:05:18Z</time></trkpt><trkpt lat="42.03857074945008" lon="12.666195286726104"><ele>143.0</ele><time>2026-05-01T15:05:19Z</time></trkpt><trkpt lat="42.03838954265595" lon="12.666561011861338"><ele>145.0</ele><time>2026-05-01T15:05:20Z</time></trkpt><trkpt lat="42.03820085955957" lon="12.666923911290429"><ele>147.0</ele><time>2026-05-01T15:05:21Z</time></trkpt><trkpt lat="42.03800373222877" lon="12.667282206583526"><ele>147.0</ele><time>2026-05-01T15:05:22Z</time></trkpt><trkpt lat="42.03780296527998" lon="12.667638504799418"><ele>147.0</ele><time>2026-05-01T15:05:23Z</time></trkpt><trkpt lat="42.037596713641385" lon="12.667994978791286"><ele>144.0</ele><time>2026-05-01T15:05:24Z</time></trkpt><trkpt lat="42.03738745397675" lon="12.668347609094699"><ele>141.0</ele><time>2026-05-01T15:05:25Z</time></trkpt><trkpt lat="42.037172967569795" lon="12.668698697460528"><ele>140.0</ele><time>2026-05-01T15:05:26Z</time></trkpt><trkpt lat="42.03695279728829" lon="12.669041633371275"><ele>139.0</ele><time>2026-05-01T15:05:27Z</time></trkpt><trkpt lat="42.03672977445357" lon="12.669378398409004"><ele>138.0</ele><time>2026-05-01T15:05:28Z</time></trkpt><trkpt lat="42.03650393508909" lon="12.669711028197314"><ele>137.0</ele><time>2026-05-01T15:05:29Z</time></trkpt><trkpt lat="42.03627525569135" lon="12.670040983497143"><ele>133.0</ele><time>2026-05-01T15:05:30Z</time></trkpt><trkpt lat="42.03604179393188" lon="12.670363465909528"><ele>129.0</ele><time>2026-05-01T15:05:31Z</time></trkpt><trkpt lat="42.03580378542439" lon="12.670680779480866"><ele>130.5</ele><time>2026-05-01T15:05:32Z</time></trkpt><trkpt lat="42.03556090718296" lon="12.670990156374877"><ele>132.0</ele><time>2026-05-01T15:05:33Z</time></trkpt><trkpt lat="42.035314781707186" lon="12.671296846284235"><ele>128.5</ele><time>2026-05-01T15:05:34Z</time></trkpt><trkpt lat="42.03506764479647" lon="12.671600731319993"><ele>125.0</ele><time>2026-05-01T15:05:35Z</time></trkpt><trkpt lat="42.03481777034054" lon="12.67189763628152"><ele>123.5</ele><time>2026-05-01T15:05:36Z</time></trkpt><trkpt lat="42.034564285489644" lon="12.672188535932404"><ele>122.0</ele><time>2026-05-01T15:05:37Z</time></trkpt><trkpt lat="42.03430691183941" lon="12.672477392274043"><ele>122.5</ele><time>2026-05-01T15:05:38Z</time></trkpt><trkpt lat="42.03404617963128" lon="12.672759147844328"><ele>123.0</ele><time>2026-05-01T15:05:39Z</time></trkpt><trkpt lat="42.033780961188405" lon="12.673033689079547"><ele>123.0</ele><time>2026-05-01T15:05:40Z</time></trkpt><trkpt lat="42.03351366352713" lon="12.673304397585893"><ele>123.0</ele><time>2026-05-01T15:05:41Z</time></trkpt><trkpt lat="42.033245626410945" lon="12.673575807846042"><ele>119.0</ele><time>2026-05-01T15:05:42Z</time></trkpt><trkpt lat="42.03297505176888" lon="12.673843539480632"><ele>115.0</ele><time>2026-05-01T15:05:43Z</time></trkpt><trkpt lat="42.032702255385644" lon="12.6741050838444"><ele>115.5</ele><time>2026-05-01T15:05:44Z</time></trkpt><trkpt lat="42.03242551786006" lon="12.674359451677905"><ele>116.0</ele><time>2026-05-01T15:05:45Z</time></trkpt><trkpt lat="42.03214570859414" lon="12.674610144372867"><ele>113.0</ele><time>2026-05-01T15:05:46Z</time></trkpt><trkpt lat="42.03186366473441" lon="12.674859844415447"><ele>110.0</ele><time>2026-05-01T15:05:47Z</time></trkpt><trkpt lat="42.03158249629651" lon="12.675107444089349"><ele>107.0</ele><time>2026-05-01T15:05:48Z</time></trkpt><trkpt lat="42.03129804870268" lon="12.675352682168521"><ele>104.0</ele><time>2026-05-01T15:05:49Z</time></trkpt><trkpt lat="42.03101223288579" lon="12.67559426566783"><ele>105.5</ele><time>2026-05-01T15:05:50Z</time></trkpt><trkpt lat="42.03072617180743" lon="12.67582958624105"><ele>107.0</ele><time>2026-05-01T15:05:50.999Z</time></trkpt><trkpt lat="42.03043677294239" lon="12.676063108850684"><ele>106.5</ele><time>2026-05-01T15:05:51.999Z</time></trkpt><trkpt lat="42.03014545245699" lon="12.67629304618856"><ele>106.0</ele><time>2026-05-01T15:05:52.999Z</time></trkpt><trkpt lat="42.02985333712411" lon="12.676517635194346"><ele>106.0</ele><time>2026-05-01T15:05:53.999Z</time></trkpt><trkpt lat="42.02955795913127" lon="12.676736812950997"><ele>106.0</ele><time>2026-05-01T15:05:54.999Z</time></trkpt><trkpt lat="42.02926040093883" lon="12.676948912501949"><ele>105.0</ele><time>2026-05-01T15:05:55.999Z</time></trkpt><trkpt lat="42.02896122339915" lon="12.67715090106148"><ele>104.0</ele><time>2026-05-01T15:05:56.999Z</time></trkpt><trkpt lat="42.02865971257811" lon="12.677345612395955"><ele>104.0</ele><time>2026-05-01T15:05:57.999Z</time></trkpt><trkpt lat="42.02835327792695" lon="12.677529754622205"><ele>104.0</ele><time>2026-05-01T15:05:58.999Z</time></trkpt><trkpt lat="42.0280429582899" lon="12.677700131659527"><ele>99.0</ele><time>2026-05-01T15:05:59.999Z</time></trkpt><trkpt lat="42.02772992967822" lon="12.677861293635607"><ele>94.0</ele><time>2026-05-01T15:06:00.999Z</time></trkpt><trkpt lat="42.02741464635396" lon="12.678012119992145"><ele>94.0</ele><time>2026-05-01T15:06:01.999Z</time></trkpt><trkpt lat="42.02709760248036" lon="12.678153388663903"><ele>94.0</ele><time>2026-05-01T15:06:02.999Z</time></trkpt><trkpt lat="42.02677806700683" lon="12.67828056806764"><ele>95.0</ele><time>2026-05-01T15:06:03.999Z</time></trkpt><trkpt lat="42.02645440400887" lon="12.678399643721106"><ele>96.0</ele><time>2026-05-01T15:06:04.999Z</time></trkpt><trkpt lat="42.02612635358908" lon="12.678498969784341"><ele>95.0</ele><time>2026-05-01T15:06:05.999Z</time></trkpt><trkpt lat="42.025798133047765" lon="12.678585754481734"><ele>94.0</ele><time>2026-05-01T15:06:06.999Z</time></trkpt><trkpt lat="42.025467325902405" lon="12.678660445646388"><ele>89.5</ele><time>2026-05-01T15:06:07.999Z</time></trkpt><trkpt lat="42.025134518224576" lon="12.678721075979153"><ele>85.0</ele><time>2026-05-01T15:06:08.999Z</time></trkpt><trkpt lat="42.02479926464723" lon="12.67876519885895"><ele>84.5</ele><time>2026-05-01T15:06:09.999Z</time></trkpt><trkpt lat="42.02446459971892" lon="12.678793607280925"><ele>84.0</ele><time>2026-05-01T15:06:10.999Z</time></trkpt><trkpt lat="42.02412941742829" lon="12.67881035827678"><ele>84.0</ele><time>2026-05-01T15:06:11.999Z</time></trkpt><trkpt lat="42.02379264080245" lon="12.67881550627616"><ele>84.0</ele><time>2026-05-01T15:06:12.999Z</time></trkpt><trkpt lat="42.02345621239443" lon="12.678802128052652"><ele>83.5</ele><time>2026-05-01T15:06:13.999Z</time></trkpt><trkpt lat="42.02311969594267" lon="12.678776423186575"><ele>83.0</ele><time>2026-05-01T15:06:14.999Z</time></trkpt><trkpt lat="42.02278484975382" lon="12.678739229035063"><ele>81.5</ele><time>2026-05-01T15:06:15.999Z</time></trkpt><trkpt lat="42.02245148649822" lon="12.678689189520854"><ele>80.0</ele><time>2026-05-01T15:06:16.999Z</time></trkpt><trkpt lat="42.02212003852065" lon="12.678624848806203"><ele>81.5</ele><time>2026-05-01T15:06:17.999Z</time></trkpt><trkpt lat="42.02178938539986" lon="12.678543246170102"><ele>83.0</ele><time>2026-05-01T15:06:18.999Z</time></trkpt><trkpt lat="42.0214630847878" lon="12.678448585833896"><ele>80.0</ele><time>2026-05-01T15:06:19.999Z</time></trkpt><trkpt lat="42.021136863641516" lon="12.678340301488337"><ele>77.0</ele><time>2026-05-01T15:06:20.999Z</time></trkpt><trkpt lat="42.02081265894637" lon="12.678220188497567"><ele>77.0</ele><time>2026-05-01T15:06:21.999Z</time></trkpt><trkpt lat="42.02049360514262" lon="12.678084934556447"><ele>77.0</ele><time>2026-05-01T15:06:22.999Z</time></trkpt><trkpt lat="42.02017728716111" lon="12.677937644876113"><ele>77.0</ele><time>2026-05-01T15:06:23.999Z</time></trkpt><trkpt lat="42.019863610553514" lon="12.677776166789755"><ele>77.0</ele><time>2026-05-01T15:06:24.999Z</time></trkpt><trkpt lat="42.01955350994521" lon="12.677603164854316"><ele>76.5</ele><time>2026-05-01T15:06:25.999Z</time></trkpt><trkpt lat="42.0192457587581" lon="12.677420834094281"><ele>76.0</ele><time>2026-05-01T15:06:26.999Z</time></trkpt><trkpt lat="42.018940078595634" lon="12.677229787826734"><ele>75.5</ele><time>2026-05-01T15:06:27.999Z</time></trkpt><trkpt lat="42.01863887925987" lon="12.677028846717924"><ele>75.0</ele><time>2026-05-01T15:06:28.999Z</time></trkpt><trkpt lat="42.018343570203264" lon="12.676818952153965"><ele>74.5</ele><time>2026-05-01T15:06:29.999Z</time></trkpt><trkpt lat="42.01805044366564" lon="12.67660204739002"><ele>74.0</ele><time>2026-05-01T15:06:30.999Z</time></trkpt><trkpt lat="42.01775805809481" lon="12.676381854872256"><ele>74.0</ele><time>2026-05-01T15:06:31.999Z</time></trkpt><trkpt lat="42.01746612065477" lon="12.67615931674121"><ele>74.0</ele><time>2026-05-01T15:06:32.999Z</time></trkpt><trkpt lat="42.01717377782748" lon="12.675932080176471"><ele>74.0</ele><time>2026-05-01T15:06:33.999Z</time></trkpt><trkpt lat="42.01688463243699" lon="12.675703560887158"><ele>74.0</ele><time>2026-05-01T15:06:34.999Z</time></trkpt><trkpt lat="42.01659634874311" lon="12.675475363851334"><ele>74.5</ele><time>2026-05-01T15:06:35.999Z</time></trkpt><trkpt lat="42.016307369755" lon="12.675246077754393"><ele>75.0</ele><time>2026-05-01T15:06:36.999Z</time></trkpt><trkpt lat="42.01601900309944" lon="12.675019095082115"><ele>74.5</ele><time>2026-05-01T15:06:37.999Z</time></trkpt><trkpt lat="42.015731286065545" lon="12.67479292808545"><ele>74.0</ele><time>2026-05-01T15:06:38.999Z</time></trkpt><trkpt lat="42.015444493373224" lon="12.674566101363977"><ele>73.5</ele><time>2026-05-01T15:06:39.999Z</time></trkpt><trkpt lat="42.01515782220625" lon="12.67433970556537"><ele>73.0</ele><time>2026-05-01T15:06:40.999Z</time></trkpt><trkpt lat="42.01486965843717" lon="12.67411123382298"><ele>73.0</ele><time>2026-05-01T15:06:41.999Z</time></trkpt><trkpt lat="42.01458308388251" lon="12.673880246949572"><ele>73.0</ele><time>2026-05-01T15:06:42.999Z</time></trkpt><trkpt lat="42.01429704615687" lon="12.673647896393378"><ele>73.0</ele><time>2026-05-01T15:06:43.999Z</time></trkpt><trkpt lat="42.01400904205774" lon="12.673417602711666"><ele>73.0</ele><time>2026-05-01T15:06:45Z</time></trkpt><trkpt lat="42.013718823133445" lon="12.673192193299068"><ele>73.0</ele><time>2026-05-01T15:06:46Z</time></trkpt><trkpt lat="42.01342862529955" lon="12.672971801335143"><ele>73.0</ele><time>2026-05-01T15:06:47Z</time></trkpt><trkpt lat="42.01313582022442" lon="12.672752263692331"><ele>72.0</ele><time>2026-05-01T15:06:48Z</time></trkpt><trkpt lat="42.01283999362767" lon="12.67253870705755"><ele>71.0</ele><time>2026-05-01T15:06:49Z</time></trkpt><trkpt lat="42.01254204926457" lon="12.672332138115793"><ele>71.0</ele><time>2026-05-01T15:06:50Z</time></trkpt><trkpt lat="42.012241730230805" lon="12.672130064417395"><ele>71.0</ele><time>2026-05-01T15:06:51Z</time></trkpt><trkpt lat="42.0119342946804" lon="12.671938679912598"><ele>69.0</ele><time>2026-05-01T15:06:52Z</time></trkpt><trkpt lat="42.01162454711653" lon="12.671758408861834"><ele>67.0</ele><time>2026-05-01T15:06:53Z</time></trkpt><trkpt lat="42.01131008820646" lon="12.671593179035929"><ele>67.0</ele><time>2026-05-01T15:06:54Z</time></trkpt><trkpt lat="42.01099101856633" lon="12.67144193727674"><ele>67.0</ele><time>2026-05-01T15:06:55Z</time></trkpt><trkpt lat="42.01067238887419" lon="12.671299028134172"><ele>67.0</ele><time>2026-05-01T15:06:56Z</time></trkpt><trkpt lat="42.01035225578388" lon="12.671166211226895"><ele>67.0</ele><time>2026-05-01T15:06:57Z</time></trkpt><trkpt lat="42.01002837116793" lon="12.67104896669195"><ele>67.0</ele><time>2026-05-01T15:06:58Z</time></trkpt><trkpt lat="42.00970324775079" lon="12.670947354143363"><ele>67.0</ele><time>2026-05-01T15:06:59Z</time></trkpt><trkpt lat="42.009377061493836" lon="12.670859211402565"><ele>68.0</ele><time>2026-05-01T15:07:00Z</time></trkpt><trkpt lat="42.00904882078602" lon="12.670780790509271"><ele>69.0</ele><time>2026-05-01T15:07:01Z</time></trkpt><trkpt lat="42.00871850467365" lon="12.670710590696853"><ele>69.0</ele><time>2026-05-01T15:07:02Z</time></trkpt><trkpt lat="42.00838570473885" lon="12.67065730337499"><ele>69.0</ele><time>2026-05-01T15:07:03Z</time></trkpt><trkpt lat="42.00805320219277" lon="12.670617794363771"><ele>68.0</ele><time>2026-05-01T15:07:04Z</time></trkpt><trkpt lat="42.00771740897497" lon="12.670588053382055"><ele>67.0</ele><time>2026-05-01T15:07:05Z</time></trkpt><trkpt lat="42.007381086663365" lon="12.670567807429823"><ele>66.0</ele><time>2026-05-01T15:07:06Z</time></trkpt><trkpt lat="42.0070441690428" lon="12.670558931160457"><ele>65.0</ele><time>2026-05-01T15:07:07Z</time></trkpt><trkpt lat="42.006707759476505" lon="12.670561574160514"><ele>66.0</ele><time>2026-05-01T15:07:08Z</time></trkpt><trkpt lat="42.00637185774427" lon="12.670568362530389"><ele>67.0</ele><time>2026-05-01T15:07:09Z</time></trkpt><trkpt lat="42.006034093037805" lon="12.670583303744722"><ele>67.5</ele><time>2026-05-01T15:07:10Z</time></trkpt><trkpt lat="42.0056969095973" lon="12.670600648076078"><ele>68.0</ele><time>2026-05-01T15:07:11Z</time></trkpt><trkpt lat="42.00535917744404" lon="12.670618197080785"><ele>68.0</ele><time>2026-05-01T15:07:12Z</time></trkpt><trkpt lat="42.00502298849334" lon="12.67063595347085"><ele>68.0</ele><time>2026-05-01T15:07:13Z</time></trkpt><trkpt lat="42.00468587750411" lon="12.67065580053438"><ele>68.5</ele><time>2026-05-01T15:07:14Z</time></trkpt><trkpt lat="42.004349861561046" lon="12.67067619191405"><ele>69.0</ele><time>2026-05-01T15:07:15Z</time></trkpt><trkpt lat="42.004014081656535" lon="12.67069689226022"><ele>69.0</ele><time>2026-05-01T15:07:16Z</time></trkpt><trkpt lat="42.003679998657816" lon="12.670718051662073"><ele>69.0</ele><time>2026-05-01T15:07:17Z</time></trkpt><trkpt lat="42.00334412388769" lon="12.670739943729899"><ele>68.5</ele><time>2026-05-01T15:07:18Z</time></trkpt><trkpt lat="42.00300969719572" lon="12.67076171788094"><ele>68.0</ele><time>2026-05-01T15:07:19Z</time></trkpt><trkpt lat="42.00267720355079" lon="12.670784664739825"><ele>69.0</ele><time>2026-05-01T15:07:20Z</time></trkpt><trkpt lat="42.00234424013127" lon="12.670809370195368"><ele>70.0</ele><time>2026-05-01T15:07:21Z</time></trkpt><trkpt lat="42.00201030912229" lon="12.670833017246586"><ele>70.0</ele><time>2026-05-01T15:07:22Z</time></trkpt><trkpt lat="42.001675109042296" lon="12.67085935937538"><ele>70.0</ele><time>2026-05-01T15:07:23Z</time></trkpt><trkpt lat="42.00133974962944" lon="12.670879001904769"><ele>70.5</ele><time>2026-05-01T15:07:24Z</time></trkpt><trkpt lat="42.00100403114243" lon="12.670900652004633"><ele>71.0</ele><time>2026-05-01T15:07:25Z</time></trkpt><trkpt lat="42.000667434198306" lon="12.670922445964266"><ele>71.0</ele><time>2026-05-01T15:07:26Z</time></trkpt><trkpt lat="42.00033295754864" lon="12.670945728423417"><ele>71.0</ele><time>2026-05-01T15:07:27Z</time></trkpt><trkpt lat="42.00000102186807" lon="12.67096699526193"><ele>71.0</ele><time>2026-05-01T15:07:28Z</time></trkpt><trkpt lat="41.99966754201646" lon="12.670987835628047"><ele>71.0</ele><time>2026-05-01T15:07:29Z</time></trkpt><trkpt lat="41.999336428815404" lon="12.671009508080068"><ele>71.5</ele><time>2026-05-01T15:07:30Z</time></trkpt><trkpt lat="41.99900665239372" lon="12.671030736174073"><ele>72.0</ele><time>2026-05-01T15:07:31Z</time></trkpt><trkpt lat="41.99867435682658" lon="12.671047568758226"><ele>72.0</ele><time>2026-05-01T15:07:32Z</time></trkpt><trkpt lat="41.998342622033356" lon="12.671064400460287"><ele>72.0</ele><time>2026-05-01T15:07:33Z</time></trkpt><trkpt lat="41.998011677873066" lon="12.671084259017556"><ele>71.5</ele><time>2026-05-01T15:07:34Z</time></trkpt><trkpt lat="41.99767953944656" lon="12.671104978938825"><ele>71.0</ele><time>2026-05-01T15:07:35Z</time></trkpt><trkpt lat="41.997349994439084" lon="12.671128195112635"><ele>75.0</ele><time>2026-05-01T15:07:36Z</time></trkpt><trkpt lat="41.99702232890618" lon="12.671145725755762"><ele>79.0</ele><time>2026-05-01T15:07:37Z</time></trkpt><trkpt lat="41.99669379473579" lon="12.671162659064494"><ele>75.5</ele><time>2026-05-01T15:07:38Z</time></trkpt><trkpt lat="41.99636292790112" lon="12.671178433371008"><ele>72.0</ele><time>2026-05-01T15:07:39Z</time></trkpt><trkpt lat="41.9960336216688" lon="12.671196939257559"><ele>72.0</ele><time>2026-05-01T15:07:40Z</time></trkpt><trkpt lat="41.99570282134298" lon="12.671217735066634"><ele>72.0</ele><time>2026-05-01T15:07:41Z</time></trkpt><trkpt lat="41.995369661324766" lon="12.671240141889848"><ele>72.0</ele><time>2026-05-01T15:07:42Z</time></trkpt><trkpt lat="41.99503622105977" lon="12.671266852389207"><ele>72.0</ele><time>2026-05-01T15:07:43Z</time></trkpt><trkpt lat="41.99470300687741" lon="12.671299794984042"><ele>78.0</ele><time>2026-05-01T15:07:44Z</time></trkpt><trkpt lat="41.99437038925772" lon="12.67133761717687"><ele>84.0</ele><time>2026-05-01T15:07:45Z</time></trkpt><trkpt lat="41.99403712513858" lon="12.671383703788367"><ele>86.5</ele><time>2026-05-01T15:07:46Z</time></trkpt><trkpt lat="41.99370615988457" lon="12.671441166667801"><ele>89.0</ele><time>2026-05-01T15:07:47Z</time></trkpt><trkpt lat="41.993379289529635" lon="12.671510474539303"><ele>89.0</ele><time>2026-05-01T15:07:48Z</time></trkpt><trkpt lat="41.99305293388221" lon="12.67158990223173"><ele>89.0</ele><time>2026-05-01T15:07:49Z</time></trkpt><trkpt lat="41.99272926062819" lon="12.671678264515046"><ele>87.5</ele><time>2026-05-01T15:07:50Z</time></trkpt><trkpt lat="41.9924086410733" lon="12.67177974975433"><ele>86.0</ele><time>2026-05-01T15:07:51Z</time></trkpt><trkpt lat="41.992090737743034" lon="12.67189389794695"><ele>88.5</ele><time>2026-05-01T15:07:52Z</time></trkpt><trkpt lat="41.99177606901683" lon="12.672020577532738"><ele>91.0</ele><time>2026-05-01T15:07:53Z</time></trkpt><trkpt lat="41.99146406724589" lon="12.672158576288862"><ele>92.5</ele><time>2026-05-01T15:07:54Z</time></trkpt><trkpt lat="41.99115594078684" lon="12.672312364573894"><ele>94.0</ele><time>2026-05-01T15:07:55Z</time></trkpt><trkpt lat="41.99085101841231" lon="12.67247931128682"><ele>93.0</ele><time>2026-05-01T15:07:55.999Z</time></trkpt><trkpt lat="41.99055240799312" lon="12.672660657526961"><ele>92.0</ele><time>2026-05-01T15:07:56.999Z</time></trkpt><trkpt lat="41.990257132050544" lon="12.672852382837098"><ele>91.5</ele><time>2026-05-01T15:07:57.999Z</time></trkpt><trkpt lat="41.98996473196743" lon="12.67305287635245"><ele>91.0</ele><time>2026-05-01T15:07:58.999Z</time></trkpt><trkpt lat="41.989675508763106" lon="12.673266222262411"><ele>91.0</ele><time>2026-05-01T15:07:59.999Z</time></trkpt><trkpt lat="41.9893964515776" lon="12.673498934256989"><ele>91.0</ele><time>2026-05-01T15:08:00.999Z</time></trkpt><trkpt lat="41.98912013502809" lon="12.673734364983694"><ele>87.5</ele><time>2026-05-01T15:08:01.999Z</time></trkpt><trkpt lat="41.98884685407107" lon="12.673981896076388"><ele>84.0</ele><time>2026-05-01T15:08:02.999Z</time></trkpt><trkpt lat="41.98858155634226" lon="12.674237552010382"><ele>82.0</ele><time>2026-05-01T15:08:03.999Z</time></trkpt><trkpt lat="41.98831965332627" lon="12.67451078905504"><ele>80.0</ele><time>2026-05-01T15:08:04.999Z</time></trkpt><trkpt lat="41.98806938909205" lon="12.674793378589836"><ele>80.0</ele><time>2026-05-01T15:08:05.999Z</time></trkpt><trkpt lat="41.987824128223885" lon="12.675084855318982"><ele>80.0</ele><time>2026-05-01T15:08:06.999Z</time></trkpt><trkpt lat="41.98758180056501" lon="12.675382891411171"><ele>84.5</ele><time>2026-05-01T15:08:07.999Z</time></trkpt><trkpt lat="41.987343775517935" lon="12.675688426427008"><ele>89.0</ele><time>2026-05-01T15:08:08.999Z</time></trkpt><trkpt lat="41.98710757841574" lon="12.675995726259586"><ele>88.0</ele><time>2026-05-01T15:08:09.999Z</time></trkpt><trkpt lat="41.98687426630088" lon="12.676309027790886"><ele>87.0</ele><time>2026-05-01T15:08:10.999Z</time></trkpt><trkpt lat="41.98664325603863" lon="12.676625101125735"><ele>82.0</ele><time>2026-05-01T15:08:11.999Z</time></trkpt><trkpt lat="41.98641360146071" lon="12.67694404895021"><ele>77.0</ele><time>2026-05-01T15:08:12.999Z</time></trkpt><trkpt lat="41.98618692157354" lon="12.677263953750005"><ele>77.0</ele><time>2026-05-01T15:08:13.999Z</time></trkpt><trkpt lat="41.98596163194597" lon="12.677588907407747"><ele>77.0</ele><time>2026-05-01T15:08:14.999Z</time></trkpt><trkpt lat="41.985738617156855" lon="12.67791530085033"><ele>73.0</ele><time>2026-05-01T15:08:15.999Z</time></trkpt><trkpt lat="41.98551525674153" lon="12.678241289711808"><ele>69.0</ele><time>2026-05-01T15:08:16.999Z</time></trkpt><trkpt lat="41.985290752305474" lon="12.678565730034386"><ele>70.0</ele><time>2026-05-01T15:08:17.999Z</time></trkpt><trkpt lat="41.98506571373662" lon="12.678889535463124"><ele>71.0</ele><time>2026-05-01T15:08:18.999Z</time></trkpt><trkpt lat="41.98484101836798" lon="12.67921382897822"><ele>72.0</ele><time>2026-05-01T15:08:19.999Z</time></trkpt><trkpt lat="41.98461797202273" lon="12.679538547913822"><ele>73.0</ele><time>2026-05-01T15:08:20.999Z</time></trkpt><trkpt lat="41.98439583485416" lon="12.67986493757103"><ele>80.0</ele><time>2026-05-01T15:08:21.999Z</time></trkpt><trkpt lat="41.98417271035781" lon="12.68019152354025"><ele>87.0</ele><time>2026-05-01T15:08:22.999Z</time></trkpt><trkpt lat="41.98394744279652" lon="12.680515839591513"><ele>87.0</ele><time>2026-05-01T15:08:23.999Z</time></trkpt><trkpt lat="41.98372130324634" lon="12.680840759257373"><ele>87.0</ele><time>2026-05-01T15:08:24.999Z</time></trkpt><trkpt lat="41.98349264613387" lon="12.681164065115599"><ele>87.5</ele><time>2026-05-01T15:08:25.999Z</time></trkpt><trkpt lat="41.983266181246066" lon="12.681486964604305"><ele>88.0</ele><time>2026-05-01T15:08:26.999Z</time></trkpt><trkpt lat="41.9830379330893" lon="12.681809641584763"><ele>90.0</ele><time>2026-05-01T15:08:27.999Z</time></trkpt><trkpt lat="41.982810992289785" lon="12.682130218644486"><ele>92.0</ele><time>2026-05-01T15:08:28.999Z</time></trkpt><trkpt lat="41.98258399190546" lon="12.682452145048227"><ele>95.0</ele><time>2026-05-01T15:08:29.999Z</time></trkpt><trkpt lat="41.98235890274027" lon="12.682778830600883"><ele>98.0</ele><time>2026-05-01T15:08:30.999Z</time></trkpt><trkpt lat="41.98213387792453" lon="12.683107346923649"><ele>98.0</ele><time>2026-05-01T15:08:31.999Z</time></trkpt><trkpt lat="41.9819098287622" lon="12.68343495717579"><ele>98.0</ele><time>2026-05-01T15:08:32.999Z</time></trkpt><trkpt lat="41.98168429942121" lon="12.68376105201306"><ele>97.0</ele><time>2026-05-01T15:08:33.999Z</time></trkpt><trkpt lat="41.9814571548171" lon="12.684086711257079"><ele>96.0</ele><time>2026-05-01T15:08:34.999Z</time></trkpt><trkpt lat="41.98122962069982" lon="12.684413725094213"><ele>97.5</ele><time>2026-05-01T15:08:35.999Z</time></trkpt><trkpt lat="41.9810056083386" lon="12.684736745485555"><ele>99.0</ele><time>2026-05-01T15:08:36.999Z</time></trkpt><trkpt lat="41.980802619796115" lon="12.685026400666706"><ele>96.5</ele><time>2026-05-01T15:08:37.999Z</time></trkpt><trkpt lat="41.98061282972725" lon="12.685303058119539"><ele>94.0</ele><time>2026-05-01T15:08:38.999Z</time></trkpt><trkpt lat="41.98042176075591" lon="12.685580660204778"><ele>94.0</ele><time>2026-05-01T15:08:39.999Z</time></trkpt><trkpt lat="41.9802232322979" lon="12.68586298698237"><ele>94.0</ele><time>2026-05-01T15:08:40.999Z</time></trkpt><trkpt lat="41.98001554998248" lon="12.68615863064747"><ele>96.0</ele><time>2026-05-01T15:08:41.999Z</time></trkpt><trkpt lat="41.979803816565244" lon="12.686463813636978"><ele>98.0</ele><time>2026-05-01T15:08:42.999Z</time></trkpt><trkpt lat="41.97958809104717" lon="12.686777191554794"><ele>96.5</ele><time>2026-05-01T15:08:43.999Z</time></trkpt><trkpt lat="41.97936836277131" lon="12.687097533442346"><ele>95.0</ele><time>2026-05-01T15:08:44.999Z</time></trkpt><trkpt lat="41.97914755216585" lon="12.687419730279352"><ele>98.0</ele><time>2026-05-01T15:08:45.999Z</time></trkpt><trkpt lat="41.978924944498964" lon="12.687745903051391"><ele>101.0</ele><time>2026-05-01T15:08:46.999Z</time></trkpt><trkpt lat="41.97870063286551" lon="12.688073722505962"><ele>101.0</ele><time>2026-05-01T15:08:47.999Z</time></trkpt><trkpt lat="41.97847430503924" lon="12.688402470206743"><ele>101.0</ele><time>2026-05-01T15:08:48.999Z</time></trkpt><trkpt lat="41.97824573243284" lon="12.688731166542276"><ele>103.0</ele><time>2026-05-01T15:08:49.999Z</time></trkpt><trkpt lat="41.97801612356981" lon="12.689061504862986"><ele>105.0</ele><time>2026-05-01T15:08:51Z</time></trkpt><trkpt lat="41.97778754383661" lon="12.689392567484147"><ele>106.5</ele><time>2026-05-01T15:08:52Z</time></trkpt><trkpt lat="41.97756021090954" lon="12.689724281823981"><ele>108.0</ele><time>2026-05-01T15:08:53Z</time></trkpt><trkpt lat="41.97733297631375" lon="12.690057245012135"><ele>109.5</ele><time>2026-05-01T15:08:54Z</time></trkpt><trkpt lat="41.97710482850968" lon="12.69038970078808"><ele>111.0</ele><time>2026-05-01T15:08:55Z</time></trkpt><trkpt lat="41.97687543105488" lon="12.690719225971224"><ele>112.0</ele><time>2026-05-01T15:08:56Z</time></trkpt><trkpt lat="41.97664474982156" lon="12.691048034936106"><ele>113.0</ele><time>2026-05-01T15:08:57Z</time></trkpt><trkpt lat="41.97641479389725" lon="12.691373715312706"><ele>113.0</ele><time>2026-05-01T15:08:58Z</time></trkpt><trkpt lat="41.97618140225291" lon="12.691694843957269"><ele>113.0</ele><time>2026-05-01T15:08:59Z</time></trkpt><trkpt lat="41.97594267325942" lon="12.692009514074513"><ele>113.0</ele><time>2026-05-01T15:09:00Z</time></trkpt><trkpt lat="41.97569972820972" lon="12.692319430271128"><ele>113.0</ele><time>2026-05-01T15:09:01Z</time></trkpt><trkpt lat="41.975454771490135" lon="12.692627310567001"><ele>113.5</ele><time>2026-05-01T15:09:02Z</time></trkpt><trkpt lat="41.975206626165935" lon="12.692931181037332"><ele>114.0</ele><time>2026-05-01T15:09:03Z</time></trkpt><trkpt lat="41.97495454992709" lon="12.69322996186656"><ele>111.5</ele><time>2026-05-01T15:09:04Z</time></trkpt><trkpt lat="41.974698737864536" lon="12.693521593605977"><ele>109.0</ele><time>2026-05-01T15:09:05Z</time></trkpt><trkpt lat="41.974436766642256" lon="12.693805680228145"><ele>107.5</ele><time>2026-05-01T15:09:06Z</time></trkpt><trkpt lat="41.97417097997847" lon="12.69407855532231"><ele>106.0</ele><time>2026-05-01T15:09:07Z</time></trkpt><trkpt lat="41.973899459769505" lon="12.694342093517681"><ele>106.5</ele><time>2026-05-01T15:09:08Z</time></trkpt><trkpt lat="41.97362320361552" lon="12.694592923098616"><ele>107.0</ele><time>2026-05-01T15:09:09Z</time></trkpt><trkpt lat="41.97334252115912" lon="12.694834621275263"><ele>105.5</ele><time>2026-05-01T15:09:10Z</time></trkpt><trkpt lat="41.97305727640349" lon="12.695069814395508"><ele>104.0</ele><time>2026-05-01T15:09:11Z</time></trkpt><trkpt lat="41.97276627945617" lon="12.695296808511479"><ele>104.0</ele><time>2026-05-01T15:09:12Z</time></trkpt><trkpt lat="41.97247176555898" lon="12.695512616905834"><ele>104.0</ele><time>2026-05-01T15:09:13Z</time></trkpt><trkpt lat="41.97217225559454" lon="12.695719620857387"><ele>104.0</ele><time>2026-05-01T15:09:14Z</time></trkpt><trkpt lat="41.97186969118625" lon="12.695915601943602"><ele>104.0</ele><time>2026-05-01T15:09:15Z</time></trkpt><trkpt lat="41.97156469740051" lon="12.69610255946425"><ele>104.0</ele><time>2026-05-01T15:09:16Z</time></trkpt><trkpt lat="41.97125748971437" lon="12.696277649769169"><ele>104.0</ele><time>2026-05-01T15:09:17Z</time></trkpt><trkpt lat="41.970945700148825" lon="12.696441522505712"><ele>104.5</ele><time>2026-05-01T15:09:18Z</time></trkpt><trkpt lat="41.970631170641646" lon="12.69659302124676"><ele>105.0</ele><time>2026-05-01T15:09:19Z</time></trkpt><trkpt lat="41.970311773211776" lon="12.696733558160606"><ele>106.0</ele><time>2026-05-01T15:09:20Z</time></trkpt><trkpt lat="41.969990891088884" lon="12.696864305579055"><ele>107.0</ele><time>2026-05-01T15:09:21Z</time></trkpt><trkpt lat="41.96966490939682" lon="12.696987811654749"><ele>107.0</ele><time>2026-05-01T15:09:22Z</time></trkpt><trkpt lat="41.969339134329076" lon="12.697102110511299"><ele>107.0</ele><time>2026-05-01T15:09:23Z</time></trkpt><trkpt lat="41.96901087179481" lon="12.69720854889571"><ele>105.5</ele><time>2026-05-01T15:09:24Z</time></trkpt><trkpt lat="41.968682302058426" lon="12.697308241584418"><ele>104.0</ele><time>2026-05-01T15:09:25Z</time></trkpt><trkpt lat="41.968353504291095" lon="12.697403350666997"><ele>103.5</ele><time>2026-05-01T15:09:26Z</time></trkpt><trkpt lat="41.96802477044496" lon="12.697492715748446"><ele>103.0</ele><time>2026-05-01T15:09:27Z</time></trkpt><trkpt lat="41.96769489448123" lon="12.697579427989291"><ele>101.0</ele><time>2026-05-01T15:09:28Z</time></trkpt><trkpt lat="41.9673657097093" lon="12.697661353177415"><ele>99.0</ele><time>2026-05-01T15:09:29Z</time></trkpt><trkpt lat="41.96703651967745" lon="12.697743185143622"><ele>98.0</ele><time>2026-05-01T15:09:30Z</time></trkpt><trkpt lat="41.9667066519223" lon="12.697823525817732"><ele>97.0</ele><time>2026-05-01T15:09:31Z</time></trkpt><trkpt lat="41.9663764556076" lon="12.697902702044745"><ele>97.0</ele><time>2026-05-01T15:09:32Z</time></trkpt><trkpt lat="41.966045382651174" lon="12.697980203673747"><ele>97.0</ele><time>2026-05-01T15:09:33Z</time></trkpt><trkpt lat="41.965715550993266" lon="12.698057959979629"><ele>97.5</ele><time>2026-05-01T15:09:34Z</time></trkpt><trkpt lat="41.965386471975584" lon="12.69813804441556"><ele>98.0</ele><time>2026-05-01T15:09:35Z</time></trkpt><trkpt lat="41.965057868813076" lon="12.69821880096066"><ele>94.0</ele><time>2026-05-01T15:09:36Z</time></trkpt><trkpt lat="41.96472856179221" lon="12.698300618786229"><ele>90.0</ele><time>2026-05-01T15:09:37Z</time></trkpt><trkpt lat="41.9643989420177" lon="12.698382427255899"><ele>86.5</ele><time>2026-05-01T15:09:38Z</time></trkpt><trkpt lat="41.96406975800272" lon="12.698464287687544"><ele>83.0</ele><time>2026-05-01T15:09:39Z</time></trkpt><trkpt lat="41.963738947187856" lon="12.698543547855142"><ele>82.5</ele><time>2026-05-01T15:09:40Z</time></trkpt><trkpt lat="41.96340825573565" lon="12.698621707637777"><ele>82.0</ele><time>2026-05-01T15:09:41Z</time></trkpt><trkpt lat="41.9630778180378" lon="12.698701865859704"><ele>80.5</ele><time>2026-05-01T15:09:42Z</time></trkpt><trkpt lat="41.9627473599945" lon="12.698780455802137"><ele>79.0</ele><time>2026-05-01T15:09:43Z</time></trkpt><trkpt lat="41.96241497450075" lon="12.698858899479735"><ele>76.5</ele><time>2026-05-01T15:09:44Z</time></trkpt><trkpt lat="41.96208502625069" lon="12.698938434900725"><ele>74.0</ele><time>2026-05-01T15:09:45Z</time></trkpt><trkpt lat="41.96175705834221" lon="12.699017972286628"><ele>73.5</ele><time>2026-05-01T15:09:46Z</time></trkpt><trkpt lat="41.96143570702637" lon="12.699097013156376"><ele>73.0</ele><time>2026-05-01T15:09:47Z</time></trkpt><trkpt lat="41.96112180774059" lon="12.69917475487493"><ele>70.0</ele><time>2026-05-01T15:09:48Z</time></trkpt><trkpt lat="41.96080879416496" lon="12.699252635468147"><ele>67.0</ele><time>2026-05-01T15:09:49Z</time></trkpt><trkpt lat="41.960497469882576" lon="12.699332960774946"><ele>67.0</ele><time>2026-05-01T15:09:50Z</time></trkpt><trkpt lat="41.96018807630765" lon="12.6994136706594"><ele>67.0</ele><time>2026-05-01T15:09:51Z</time></trkpt><trkpt lat="41.95988095802212" lon="12.699495554654735"><ele>67.5</ele><time>2026-05-01T15:09:52Z</time></trkpt><trkpt lat="41.95957402830894" lon="12.699578236228653"><ele>68.0</ele><time>2026-05-01T15:09:53Z</time></trkpt><trkpt lat="41.95926602877346" lon="12.699662134932263"><ele>68.0</ele><time>2026-05-01T15:09:54Z</time></trkpt><trkpt lat="41.958960660713835" lon="12.699749747505527"><ele>68.0</ele><time>2026-05-01T15:09:55Z</time></trkpt><trkpt lat="41.95865536046915" lon="12.69983918364963"><ele>67.0</ele><time>2026-05-01T15:09:56Z</time></trkpt><trkpt lat="41.958351187141695" lon="12.699932787485398"><ele>66.0</ele><time>2026-05-01T15:09:57Z</time></trkpt><trkpt lat="41.95804748579933" lon="12.700028748169556"><ele>66.0</ele><time>2026-05-01T15:09:58Z</time></trkpt><trkpt lat="41.9577434808927" lon="12.700125477900103"><ele>66.0</ele><time>2026-05-01T15:09:59Z</time></trkpt><trkpt lat="41.95743969320443" lon="12.70022404596647"><ele>66.0</ele><time>2026-05-01T15:10:00Z</time></trkpt><trkpt lat="41.95713496699596" lon="12.700325839601527"><ele>66.0</ele><time>2026-05-01T15:10:01Z</time></trkpt><trkpt lat="41.95683179460485" lon="12.70043089726781"><ele>66.5</ele><time>2026-05-01T15:10:02Z</time></trkpt><trkpt lat="41.95652765923812" lon="12.700538962299012"><ele>67.0</ele><time>2026-05-01T15:10:03Z</time></trkpt><trkpt lat="41.95622535516029" lon="12.70065195121661"><ele>67.0</ele><time>2026-05-01T15:10:04Z</time></trkpt><trkpt lat="41.95591947118415" lon="12.700770001427307"><ele>67.0</ele><time>2026-05-01T15:10:05Z</time></trkpt><trkpt lat="41.9556073474069" lon="12.700891176249979"><ele>67.0</ele><time>2026-05-01T15:10:06Z</time></trkpt><trkpt lat="41.95529257064195" lon="12.701012543709657"><ele>67.0</ele><time>2026-05-01T15:10:06.999Z</time></trkpt><trkpt lat="41.95497722591794" lon="12.701137439662977"><ele>66.5</ele><time>2026-05-01T15:10:07.999Z</time></trkpt><trkpt lat="41.95466183613224" lon="12.701267195798373"><ele>66.0</ele><time>2026-05-01T15:10:08.999Z</time></trkpt><trkpt lat="41.9543461486406" lon="12.70140028436078"><ele>65.0</ele><time>2026-05-01T15:10:09.999Z</time></trkpt><trkpt lat="41.95403019349831" lon="12.70153431806766"><ele>64.0</ele><time>2026-05-01T15:10:10.999Z</time></trkpt><trkpt lat="41.953713836847264" lon="12.701668999550314"><ele>64.0</ele><time>2026-05-01T15:10:11.999Z</time></trkpt><trkpt lat="41.95339660510381" lon="12.701806303999392"><ele>64.0</ele><time>2026-05-01T15:10:12.999Z</time></trkpt><trkpt lat="41.9530805174499" lon="12.701948873864746"><ele>62.5</ele><time>2026-05-01T15:10:13.999Z</time></trkpt><trkpt lat="41.952765396167834" lon="12.702096586882421"><ele>61.0</ele><time>2026-05-01T15:10:14.999Z</time></trkpt><trkpt lat="41.95245239378425" lon="12.70224966930704"><ele>60.5</ele><time>2026-05-01T15:10:15.999Z</time></trkpt><trkpt lat="41.95214242802149" lon="12.702411141680415"><ele>60.0</ele><time>2026-05-01T15:10:16.999Z</time></trkpt><trkpt lat="41.95183414744942" lon="12.702579694878125"><ele>60.0</ele><time>2026-05-01T15:10:17.999Z</time></trkpt><trkpt lat="41.95152830515575" lon="12.7027568970766"><ele>60.0</ele><time>2026-05-01T15:10:18.999Z</time></trkpt><trkpt lat="41.95122502785724" lon="12.702943410985323"><ele>60.0</ele><time>2026-05-01T15:10:19.999Z</time></trkpt><trkpt lat="41.95092698547404" lon="12.703142016234645"><ele>60.0</ele><time>2026-05-01T15:10:20.999Z</time></trkpt><trkpt lat="41.950634730613274" lon="12.703351746545907"><ele>59.5</ele><time>2026-05-01T15:10:21.999Z</time></trkpt><trkpt lat="41.950347756135535" lon="12.703572455438824"><ele>59.0</ele><time>2026-05-01T15:10:22.999Z</time></trkpt><trkpt lat="41.95006717329741" lon="12.703801732987571"><ele>59.5</ele><time>2026-05-01T15:10:23.999Z</time></trkpt><trkpt lat="41.94979305196143" lon="12.704045991321697"><ele>60.0</ele><time>2026-05-01T15:10:24.999Z</time></trkpt><trkpt lat="41.949523518085776" lon="12.704304477013645"><ele>59.5</ele><time>2026-05-01T15:10:25.999Z</time></trkpt><trkpt lat="41.94926125018766" lon="12.704574386651235"><ele>59.0</ele><time>2026-05-01T15:10:26.999Z</time></trkpt><trkpt lat="41.9490035299374" lon="12.704855532426864"><ele>59.0</ele><time>2026-05-01T15:10:27.999Z</time></trkpt><trkpt lat="41.9487511509644" lon="12.705145652775377"><ele>59.0</ele><time>2026-05-01T15:10:28.999Z</time></trkpt><trkpt lat="41.9485035177141" lon="12.705444291651535"><ele>59.5</ele><time>2026-05-01T15:10:29.999Z</time></trkpt><trkpt lat="41.94826228035916" lon="12.705751757679144"><ele>60.0</ele><time>2026-05-01T15:10:30.999Z</time></trkpt><trkpt lat="41.948028474065104" lon="12.706071265978043"><ele>58.0</ele><time>2026-05-01T15:10:31.999Z</time></trkpt><trkpt lat="41.947800807660265" lon="12.706400759537134"><ele>56.0</ele><time>2026-05-01T15:10:32.999Z</time></trkpt><trkpt lat="41.947579522881256" lon="12.706738925761245"><ele>56.0</ele><time>2026-05-01T15:10:33.999Z</time></trkpt><trkpt lat="41.9473657396873" lon="12.707082741068492"><ele>56.0</ele><time>2026-05-01T15:10:34.999Z</time></trkpt><trkpt lat="41.94715732914951" lon="12.707434471731272"><ele>55.0</ele><time>2026-05-01T15:10:35.999Z</time></trkpt><trkpt lat="41.94695521148321" lon="12.707788809078254"><ele>54.0</ele><time>2026-05-01T15:10:36.999Z</time></trkpt><trkpt lat="41.94675751045011" lon="12.708148813966863"><ele>55.0</ele><time>2026-05-01T15:10:37.999Z</time></trkpt><trkpt lat="41.94657153212874" lon="12.70852183546811"><ele>56.0</ele><time>2026-05-01T15:10:38.999Z</time></trkpt><trkpt lat="41.94639039876018" lon="12.708899119532253"><ele>56.0</ele><time>2026-05-01T15:10:39.999Z</time></trkpt><trkpt lat="41.94621269766209" lon="12.709280333461356"><ele>56.0</ele><time>2026-05-01T15:10:40.999Z</time></trkpt><trkpt lat="41.94603759135129" lon="12.709664403063279"><ele>54.5</ele><time>2026-05-01T15:10:41.999Z</time></trkpt><trkpt lat="41.94586555240871" lon="12.710049675120029"><ele>53.0</ele><time>2026-05-01T15:10:42.999Z</time></trkpt><trkpt lat="41.94569526174103" lon="12.710439196401149"><ele>52.5</ele><time>2026-05-01T15:10:43.999Z</time></trkpt><trkpt lat="41.94552637410222" lon="12.710831516678738"><ele>52.0</ele><time>2026-05-01T15:10:44.999Z</time></trkpt><trkpt lat="41.945357591628714" lon="12.711224449794528"><ele>51.0</ele><time>2026-05-01T15:10:45.999Z</time></trkpt><trkpt lat="41.945189141855174" lon="12.711619469408703"><ele>50.0</ele><time>2026-05-01T15:10:46.999Z</time></trkpt><trkpt lat="41.945020677696014" lon="12.712012287683574"><ele>50.0</ele><time>2026-05-01T15:10:47.999Z</time></trkpt><trkpt lat="41.94485146513221" lon="12.712405029020438"><ele>50.0</ele><time>2026-05-01T15:10:48.999Z</time></trkpt><trkpt lat="41.94468138733959" lon="12.712796865697522"><ele>49.5</ele><time>2026-05-01T15:10:49.999Z</time></trkpt><trkpt lat="41.94451254738689" lon="12.713187639294379"><ele>49.0</ele><time>2026-05-01T15:10:50.999Z</time></trkpt><trkpt lat="41.94434666150426" lon="12.713577517102854"><ele>49.0</ele><time>2026-05-01T15:10:51.999Z</time></trkpt><trkpt lat="41.94418163499492" lon="12.713966898594437"><ele>49.0</ele><time>2026-05-01T15:10:52.999Z</time></trkpt><trkpt lat="41.94401890602953" lon="12.71435646816536"><ele>49.0</ele><time>2026-05-01T15:10:53.999Z</time></trkpt><trkpt lat="41.94385801065572" lon="12.714747169249824"><ele>49.0</ele><time>2026-05-01T15:10:54.999Z</time></trkpt><trkpt lat="41.943695404919865" lon="12.715137528474267"><ele>49.0</ele><time>2026-05-01T15:10:55.999Z</time></trkpt><trkpt lat="41.943531524920644" lon="12.71552953105033"><ele>49.0</ele><time>2026-05-01T15:10:57Z</time></trkpt><trkpt lat="41.943366567427525" lon="12.715920891794294"><ele>49.5</ele><time>2026-05-01T15:10:58Z</time></trkpt><trkpt lat="41.94320066564545" lon="12.716310199147529"><ele>50.0</ele><time>2026-05-01T15:10:59Z</time></trkpt><trkpt lat="41.94303366745924" lon="12.716701311782517"><ele>48.5</ele><time>2026-05-01T15:11:00Z</time></trkpt><trkpt lat="41.942867193567594" lon="12.717092416890132"><ele>47.0</ele><time>2026-05-01T15:11:01Z</time></trkpt><trkpt lat="41.94270177924363" lon="12.717485732639531"><ele>47.5</ele><time>2026-05-01T15:11:02Z</time></trkpt><trkpt lat="41.94253836786372" lon="12.717879876504421"><ele>48.0</ele><time>2026-05-01T15:11:03Z</time></trkpt><trkpt lat="41.942375747569564" lon="12.718274186821931"><ele>48.0</ele><time>2026-05-01T15:11:04Z</time></trkpt><trkpt lat="41.94221258444934" lon="12.718667343777396"><ele>48.0</ele><time>2026-05-01T15:11:05Z</time></trkpt><trkpt lat="41.942048643753246" lon="12.719059887091202"><ele>46.5</ele><time>2026-05-01T15:11:06Z</time></trkpt><trkpt lat="41.941884241562825" lon="12.719451075614794"><ele>45.0</ele><time>2026-05-01T15:11:07Z</time></trkpt><trkpt lat="41.94171759737107" lon="12.719843850337348"><ele>45.5</ele><time>2026-05-01T15:11:08Z</time></trkpt><trkpt lat="41.941552867186914" lon="12.72023426241849"><ele>46.0</ele><time>2026-05-01T15:11:09Z</time></trkpt><trkpt lat="41.94138863464659" lon="12.720625517109964"><ele>46.0</ele><time>2026-05-01T15:11:10Z</time></trkpt><trkpt lat="41.94122418288197" lon="12.721017795569363"><ele>46.0</ele><time>2026-05-01T15:11:11Z</time></trkpt><trkpt lat="41.941061477360584" lon="12.721409304546016"><ele>46.0</ele><time>2026-05-01T15:11:12Z</time></trkpt><trkpt lat="41.94089875868117" lon="12.721802092749215"><ele>46.0</ele><time>2026-05-01T15:11:13Z</time></trkpt><trkpt lat="41.94073624730011" lon="12.722195282285833"><ele>46.0</ele><time>2026-05-01T15:11:14Z</time></trkpt><trkpt lat="41.94057572808478" lon="12.722590274714896"><ele>46.0</ele><time>2026-05-01T15:11:15Z</time></trkpt><trkpt lat="41.94041606374553" lon="12.722985409776571"><ele>46.0</ele><time>2026-05-01T15:11:16Z</time></trkpt><trkpt lat="41.94025604107048" lon="12.723383017413635"><ele>46.0</ele><time>2026-05-01T15:11:17Z</time></trkpt><trkpt lat="41.94009497929195" lon="12.723782077026167"><ele>46.0</ele><time>2026-05-01T15:11:18Z</time></trkpt><trkpt lat="41.939933655910636" lon="12.72417619804541"><ele>46.0</ele><time>2026-05-01T15:11:19Z</time></trkpt><trkpt lat="41.93977208212747" lon="12.724570942298248"><ele>46.0</ele><time>2026-05-01T15:11:20Z</time></trkpt><trkpt lat="41.939609214612275" lon="12.724967653150715"><ele>46.0</ele><time>2026-05-01T15:11:21Z</time></trkpt><trkpt lat="41.93944558867492" lon="12.725360812143997"><ele>45.5</ele><time>2026-05-01T15:11:22Z</time></trkpt><trkpt lat="41.93928022876971" lon="12.725752141628604"><ele>45.0</ele><time>2026-05-01T15:11:23Z</time></trkpt><trkpt lat="41.939113973720005" lon="12.72614037065246"><ele>45.0</ele><time>2026-05-01T15:11:24Z</time></trkpt><trkpt lat="41.93894756241515" lon="12.72652814156066"><ele>45.0</ele><time>2026-05-01T15:11:25Z</time></trkpt><trkpt lat="41.93878045445737" lon="12.726914278808474"><ele>43.5</ele><time>2026-05-01T15:11:26Z</time></trkpt><trkpt lat="41.93861387656737" lon="12.727302589407444"><ele>42.0</ele><time>2026-05-01T15:11:27Z</time></trkpt><trkpt lat="41.93844764286746" lon="12.727689736961592"><ele>42.0</ele><time>2026-05-01T15:11:28Z</time></trkpt><trkpt lat="41.93828340210478" lon="12.72807936838088"><ele>42.0</ele><time>2026-05-01T15:11:29Z</time></trkpt><trkpt lat="41.938118334446294" lon="12.72847160107461"><ele>41.0</ele><time>2026-05-01T15:11:30Z</time></trkpt><trkpt lat="41.93795319483151" lon="12.728860466472538"><ele>40.0</ele><time>2026-05-01T15:11:31Z</time></trkpt><trkpt lat="41.9377867950292" lon="12.72924787904845"><ele>40.0</ele><time>2026-05-01T15:11:32Z</time></trkpt><trkpt lat="41.93761809141836" lon="12.729634462346151"><ele>40.0</ele><time>2026-05-01T15:11:33Z</time></trkpt><trkpt lat="41.93744833694648" lon="12.730021450421658"><ele>40.0</ele><time>2026-05-01T15:11:34Z</time></trkpt><trkpt lat="41.93727590623151" lon="12.730407036273819"><ele>40.0</ele><time>2026-05-01T15:11:35Z</time></trkpt><trkpt lat="41.93709987314498" lon="12.730788575552076"><ele>40.5</ele><time>2026-05-01T15:11:36Z</time></trkpt><trkpt lat="41.93691925975442" lon="12.73116738972185"><ele>41.0</ele><time>2026-05-01T15:11:37Z</time></trkpt><trkpt lat="41.936733982921425" lon="12.73154319112672"><ele>49.5</ele><time>2026-05-01T15:11:38Z</time></trkpt><trkpt lat="41.93654690388679" lon="12.731910258358559"><ele>58.0</ele><time>2026-05-01T15:11:39Z</time></trkpt><trkpt lat="41.93635581961117" lon="12.732271348691063"><ele>58.0</ele><time>2026-05-01T15:11:40Z</time></trkpt><trkpt lat="41.936161688408525" lon="12.732627195640251"><ele>58.0</ele><time>2026-05-01T15:11:41Z</time></trkpt><trkpt lat="41.935963910371854" lon="12.732977016471663"><ele>57.0</ele><time>2026-05-01T15:11:42Z</time></trkpt><trkpt lat="41.93576096203129" lon="12.733321643965185"><ele>56.0</ele><time>2026-05-01T15:11:43Z</time></trkpt><trkpt lat="41.93555151251922" lon="12.733664814936759"><ele>58.0</ele><time>2026-05-01T15:11:44Z</time></trkpt><trkpt lat="41.93533718478944" lon="12.73400062128201"><ele>60.0</ele><time>2026-05-01T15:11:45Z</time></trkpt><trkpt lat="41.935116999559746" lon="12.734330040080907"><ele>58.5</ele><time>2026-05-01T15:11:46Z</time></trkpt><trkpt lat="41.93489336539221" lon="12.734653944874193"><ele>57.0</ele><time>2026-05-01T15:11:47Z</time></trkpt><trkpt lat="41.93466274165781" lon="12.734970732847875"><ele>58.0</ele><time>2026-05-01T15:11:48Z</time></trkpt><trkpt lat="41.934427143986284" lon="12.735283342797004"><ele>59.0</ele><time>2026-05-01T15:11:49Z</time></trkpt><trkpt lat="41.934186331739035" lon="12.735589263151333"><ele>57.0</ele><time>2026-05-01T15:11:50Z</time></trkpt><trkpt lat="41.9339401554542" lon="12.735891402876483"><ele>55.0</ele><time>2026-05-01T15:11:51Z</time></trkpt><trkpt lat="41.93368835000468" lon="12.73618759726557"><ele>53.5</ele><time>2026-05-01T15:11:52Z</time></trkpt><trkpt lat="41.93343186930764" lon="12.736477907926128"><ele>52.0</ele><time>2026-05-01T15:11:53Z</time></trkpt><trkpt lat="41.93316862437029" lon="12.7367597202619"><ele>54.0</ele><time>2026-05-01T15:11:54Z</time></trkpt><trkpt lat="41.93290097852321" lon="12.737031656082282"><ele>56.0</ele><time>2026-05-01T15:11:55Z</time></trkpt><trkpt lat="41.93263026133702" lon="12.73729511945961"><ele>55.5</ele><time>2026-05-01T15:11:56Z</time></trkpt><trkpt lat="41.93235492268218" lon="12.737552091158177"><ele>55.0</ele><time>2026-05-01T15:11:57Z</time></trkpt><trkpt lat="41.93207667268879" lon="12.737805852057162"><ele>56.5</ele><time>2026-05-01T15:11:58Z</time></trkpt><trkpt lat="41.931792088678904" lon="12.738053186146615"><ele>58.0</ele><time>2026-05-01T15:11:59Z</time></trkpt><trkpt lat="41.931504634797584" lon="12.738287680800696"><ele>57.5</ele><time>2026-05-01T15:12:00Z</time></trkpt><trkpt lat="41.9312141952371" lon="12.738513333803485"><ele>57.0</ele><time>2026-05-01T15:12:01Z</time></trkpt><trkpt lat="41.93092068077161" lon="12.738728577018934"><ele>52.5</ele><time>2026-05-01T15:12:02Z</time></trkpt><trkpt lat="41.93062477629825" lon="12.738936518783838"><ele>48.0</ele><time>2026-05-01T15:12:03Z</time></trkpt><trkpt lat="41.93032607468456" lon="12.739135917115622"><ele>47.0</ele><time>2026-05-01T15:12:04Z</time></trkpt><trkpt lat="41.93002563157676" lon="12.739330003174892"><ele>46.0</ele><time>2026-05-01T15:12:05Z</time></trkpt><trkpt lat="41.92972484458371" lon="12.739517270043235"><ele>46.0</ele><time>2026-05-01T15:12:06Z</time></trkpt><trkpt lat="41.92942194890286" lon="12.7396998930388"><ele>46.0</ele><time>2026-05-01T15:12:07Z</time></trkpt><trkpt lat="41.92911603525973" lon="12.73987681752225"><ele>45.5</ele><time>2026-05-01T15:12:08Z</time></trkpt><trkpt lat="41.928806175710946" lon="12.740046753453596"><ele>45.0</ele><time>2026-05-01T15:12:09Z</time></trkpt><trkpt lat="41.9284952328355" lon="12.740215563767586"><ele>45.0</ele><time>2026-05-01T15:12:10Z</time></trkpt><trkpt lat="41.92818422485109" lon="12.740380314148451"><ele>45.0</ele><time>2026-05-01T15:12:11Z</time></trkpt><trkpt lat="41.92787272334297" lon="12.740544779067871"><ele>47.5</ele><time>2026-05-01T15:12:12Z</time></trkpt><trkpt lat="41.92755931995609" lon="12.740708214085855"><ele>50.0</ele><time>2026-05-01T15:12:12.999Z</time></trkpt><trkpt lat="41.92724584238447" lon="12.740870221691546"><ele>50.0</ele><time>2026-05-01T15:12:13.999Z</time></trkpt><trkpt lat="41.9269328934766" lon="12.741029030053069"><ele>50.0</ele><time>2026-05-01T15:12:14.999Z</time></trkpt><trkpt lat="41.92661892506157" lon="12.741187380484371"><ele>51.5</ele><time>2026-05-01T15:12:15.999Z</time></trkpt><trkpt lat="41.92630692340728" lon="12.741346350388746"><ele>53.0</ele><time>2026-05-01T15:12:16.999Z</time></trkpt><trkpt lat="41.92599624564245" lon="12.741503722432247"><ele>54.5</ele><time>2026-05-01T15:12:17.999Z</time></trkpt><trkpt lat="41.92568231713402" lon="12.741660906329775"><ele>56.0</ele><time>2026-05-01T15:12:18.999Z</time></trkpt><trkpt lat="41.92537011784969" lon="12.741817827384763"><ele>57.0</ele><time>2026-05-01T15:12:19.999Z</time></trkpt><trkpt lat="41.925057119359266" lon="12.741976139042745"><ele>58.0</ele><time>2026-05-01T15:12:20.999Z</time></trkpt><trkpt lat="41.924743627071706" lon="12.742132948862569"><ele>58.0</ele><time>2026-05-01T15:12:21.999Z</time></trkpt><trkpt lat="41.92443244114093" lon="12.742288106601238"><ele>58.0</ele><time>2026-05-01T15:12:22.999Z</time></trkpt><trkpt lat="41.92412116693238" lon="12.742442738750512"><ele>58.5</ele><time>2026-05-01T15:12:23.999Z</time></trkpt><trkpt lat="41.92381229538992" lon="12.742596087312744"><ele>59.0</ele><time>2026-05-01T15:12:24.999Z</time></trkpt><trkpt lat="41.92350114723492" lon="12.742752119268001"><ele>61.0</ele><time>2026-05-01T15:12:25.999Z</time></trkpt><trkpt lat="41.92319217466612" lon="12.74290782249807"><ele>63.0</ele><time>2026-05-01T15:12:26.999Z</time></trkpt><trkpt lat="41.922882255882904" lon="12.743063767837512"><ele>63.0</ele><time>2026-05-01T15:12:27.999Z</time></trkpt><trkpt lat="41.92257318630686" lon="12.743222086473661"><ele>63.0</ele><time>2026-05-01T15:12:28.999Z</time></trkpt><trkpt lat="41.92226493099453" lon="12.743377124700292"><ele>62.5</ele><time>2026-05-01T15:12:29.999Z</time></trkpt><trkpt lat="41.92195519317239" lon="12.743531492896116"><ele>62.0</ele><time>2026-05-01T15:12:30.999Z</time></trkpt><trkpt lat="41.921646042481534" lon="12.743687484445735"><ele>63.0</ele><time>2026-05-01T15:12:31.999Z</time></trkpt><trkpt lat="41.92133733333643" lon="12.743843534640087"><ele>64.0</ele><time>2026-05-01T15:12:32.999Z</time></trkpt><trkpt lat="41.92102667832802" lon="12.743998647167338"><ele>64.5</ele><time>2026-05-01T15:12:33.999Z</time></trkpt><trkpt lat="41.9207156600283" lon="12.744154487835237"><ele>65.0</ele><time>2026-05-01T15:12:34.999Z</time></trkpt><trkpt lat="41.92040567906971" lon="12.744312616963473"><ele>65.5</ele><time>2026-05-01T15:12:35.999Z</time></trkpt><trkpt lat="41.92009468169684" lon="12.744471032426452"><ele>66.0</ele><time>2026-05-01T15:12:36.999Z</time></trkpt><trkpt lat="41.91978305784315" lon="12.744629330796787"><ele>66.0</ele><time>2026-05-01T15:12:37.999Z</time></trkpt><trkpt lat="41.91947204551531" lon="12.74478905110355"><ele>66.0</ele><time>2026-05-01T15:12:38.999Z</time></trkpt><trkpt lat="41.919160513102426" lon="12.74494841175461"><ele>67.0</ele><time>2026-05-01T15:12:39.999Z</time></trkpt><trkpt lat="41.91885002786073" lon="12.745105946901287"><ele>68.0</ele><time>2026-05-01T15:12:40.999Z</time></trkpt><trkpt lat="41.91853766441767" lon="12.745260696862353"><ele>70.5</ele><time>2026-05-01T15:12:41.999Z</time></trkpt><trkpt lat="41.91822415007062" lon="12.745415095135332"><ele>73.0</ele><time>2026-05-01T15:12:42.999Z</time></trkpt><trkpt lat="41.91791013979325" lon="12.745572883820133"><ele>73.0</ele><time>2026-05-01T15:12:43.999Z</time></trkpt><trkpt lat="41.91759785721035" lon="12.745731988589391"><ele>73.0</ele><time>2026-05-01T15:12:44.999Z</time></trkpt><trkpt lat="41.91728723969116" lon="12.745890722792113"><ele>76.0</ele><time>2026-05-01T15:12:45.999Z</time></trkpt><trkpt lat="41.91697558927299" lon="12.746048411113602"><ele>79.0</ele><time>2026-05-01T15:12:46.999Z</time></trkpt><trkpt lat="41.91666425607342" lon="12.7462077021434"><ele>82.5</ele><time>2026-05-01T15:12:47.999Z</time></trkpt><trkpt lat="41.916355080325715" lon="12.746367664088934"><ele>86.0</ele><time>2026-05-01T15:12:48.999Z</time></trkpt><trkpt lat="41.91604714782171" lon="12.74652952681253"><ele>88.0</ele><time>2026-05-01T15:12:49.999Z</time></trkpt><trkpt lat="41.91573729390416" lon="12.746689240331957"><ele>90.0</ele><time>2026-05-01T15:12:50.999Z</time></trkpt><trkpt lat="41.9154283634676" lon="12.746847084928701"><ele>92.5</ele><time>2026-05-01T15:12:51.999Z</time></trkpt><trkpt lat="41.91511917628167" lon="12.747004868647455"><ele>95.0</ele><time>2026-05-01T15:12:52.999Z</time></trkpt><trkpt lat="41.914810994740535" lon="12.747162374711234"><ele>95.5</ele><time>2026-05-01T15:12:53.999Z</time></trkpt><trkpt lat="41.914503089616396" lon="12.747319336563113"><ele>96.0</ele><time>2026-05-01T15:12:54.999Z</time></trkpt><trkpt lat="41.914196972834006" lon="12.747475638143722"><ele>97.0</ele><time>2026-05-01T15:12:55.999Z</time></trkpt><trkpt lat="41.913891364278065" lon="12.747630512152927"><ele>98.0</ele><time>2026-05-01T15:12:56.999Z</time></trkpt><trkpt lat="41.91358692297824" lon="12.74778304390807"><ele>96.5</ele><time>2026-05-01T15:12:57.999Z</time></trkpt><trkpt lat="41.91328301350808" lon="12.747933337436098"><ele>95.0</ele><time>2026-05-01T15:12:58.999Z</time></trkpt><trkpt lat="41.91298179390804" lon="12.7480812460294"><ele>95.0</ele><time>2026-05-01T15:12:59.999Z</time></trkpt><trkpt lat="41.912681759652735" lon="12.748229697734597"><ele>95.0</ele><time>2026-05-01T15:13:00.999Z</time></trkpt><trkpt lat="41.91238362114148" lon="12.748377183001182"><ele>95.5</ele><time>2026-05-01T15:13:01.999Z</time></trkpt><trkpt lat="41.91208370384827" lon="12.748521589875216"><ele>96.0</ele><time>2026-05-01T15:13:03Z</time></trkpt><trkpt lat="41.911780286459845" lon="12.7486650705731"><ele>98.0</ele><time>2026-05-01T15:13:04Z</time></trkpt><trkpt lat="41.91147151762201" lon="12.748809843681608"><ele>100.0</ele><time>2026-05-01T15:13:05Z</time></trkpt><trkpt lat="41.911162213965675" lon="12.748954386174491"><ele>102.0</ele><time>2026-05-01T15:13:06Z</time></trkpt><trkpt lat="41.91085278441515" lon="12.749098490131924"><ele>104.0</ele><time>2026-05-01T15:13:07Z</time></trkpt><trkpt lat="41.91054164642934" lon="12.749242449799153"><ele>104.5</ele><time>2026-05-01T15:13:08Z</time></trkpt><trkpt lat="41.910231068719625" lon="12.749388131785432"><ele>105.0</ele><time>2026-05-01T15:13:09Z</time></trkpt><trkpt lat="41.90991893546397" lon="12.74953311919105"><ele>106.5</ele><time>2026-05-01T15:13:10Z</time></trkpt><trkpt lat="41.90960689335682" lon="12.749677258722642"><ele>108.0</ele><time>2026-05-01T15:13:11Z</time></trkpt><trkpt lat="41.90929174800624" lon="12.749818734887462"><ele>107.0</ele><time>2026-05-01T15:13:12Z</time></trkpt><trkpt lat="41.90897659712398" lon="12.749958546781096"><ele>106.0</ele><time>2026-05-01T15:13:13Z</time></trkpt><trkpt lat="41.90865976839706" lon="12.750096304447451"><ele>108.0</ele><time>2026-05-01T15:13:14Z</time></trkpt><trkpt lat="41.90834421537766" lon="12.750232802324053"><ele>110.0</ele><time>2026-05-01T15:13:15Z</time></trkpt><trkpt lat="41.90802490801935" lon="12.750366083635845"><ele>110.0</ele><time>2026-05-01T15:13:16Z</time></trkpt><trkpt lat="41.9077070604972" lon="12.75049669176971"><ele>110.0</ele><time>2026-05-01T15:13:17Z</time></trkpt><trkpt lat="41.90738874813079" lon="12.750624776772323"><ele>108.0</ele><time>2026-05-01T15:13:18Z</time></trkpt><trkpt lat="41.90706949680114" lon="12.750751107538417"><ele>106.0</ele><time>2026-05-01T15:13:19Z</time></trkpt><trkpt lat="41.90675147131943" lon="12.750876487074839"><ele>105.5</ele><time>2026-05-01T15:13:20Z</time></trkpt><trkpt lat="41.90643416561058" lon="12.751000222516232"><ele>105.0</ele><time>2026-05-01T15:13:21Z</time></trkpt><trkpt lat="41.90611793959434" lon="12.751124011681105"><ele>104.5</ele><time>2026-05-01T15:13:22Z</time></trkpt><trkpt lat="41.90579915733662" lon="12.751247879172231"><ele>104.0</ele><time>2026-05-01T15:13:23Z</time></trkpt><trkpt lat="41.905480268769004" lon="12.751372312802935"><ele>104.0</ele><time>2026-05-01T15:13:24Z</time></trkpt><trkpt lat="41.90516176268415" lon="12.751493121456813"><ele>104.0</ele><time>2026-05-01T15:13:25Z</time></trkpt><trkpt lat="41.90484200058021" lon="12.751613659619666"><ele>106.5</ele><time>2026-05-01T15:13:26Z</time></trkpt><trkpt lat="41.904523149403275" lon="12.751733351535252"><ele>109.0</ele><time>2026-05-01T15:13:27Z</time></trkpt><trkpt lat="41.90420397296561" lon="12.751854410049623"><ele>109.5</ele><time>2026-05-01T15:13:28Z</time></trkpt><trkpt lat="41.90388510713107" lon="12.751975260946164"><ele>110.0</ele><time>2026-05-01T15:13:29Z</time></trkpt><trkpt lat="41.903565029892754" lon="12.752093156813583"><ele>110.5</ele><time>2026-05-01T15:13:30Z</time></trkpt><trkpt lat="41.90324568193307" lon="12.752212549206853"><ele>111.0</ele><time>2026-05-01T15:13:31Z</time></trkpt><trkpt lat="41.90292612368979" lon="12.752335145049702"><ele>111.0</ele><time>2026-05-01T15:13:32Z</time></trkpt><trkpt lat="41.902607012046936" lon="12.752460777154814"><ele>111.0</ele><time>2026-05-01T15:13:33Z</time></trkpt><trkpt lat="41.902286216500656" lon="12.75258564262913"><ele>111.5</ele><time>2026-05-01T15:13:34Z</time></trkpt><trkpt lat="41.90196541952966" lon="12.75270667706537"><ele>112.0</ele><time>2026-05-01T15:13:35Z</time></trkpt><trkpt lat="41.90164186482159" lon="12.752821650078157"><ele>113.5</ele><time>2026-05-01T15:13:36Z</time></trkpt><trkpt lat="41.901324663678956" lon="12.75294244203381"><ele>115.0</ele><time>2026-05-01T15:13:37Z</time></trkpt><trkpt lat="41.90100588918847" lon="12.753065076341558"><ele>116.0</ele><time>2026-05-01T15:13:38Z</time></trkpt><trkpt lat="41.90068736415176" lon="12.75318352743783"><ele>117.0</ele><time>2026-05-01T15:13:39Z</time></trkpt><trkpt lat="41.90036929620866" lon="12.753300937457789"><ele>117.0</ele><time>2026-05-01T15:13:40Z</time></trkpt><trkpt lat="41.900051650248685" lon="12.75342036849398"><ele>117.0</ele><time>2026-05-01T15:13:41Z</time></trkpt><trkpt lat="41.89973556495662" lon="12.753542231796539"><ele>118.0</ele><time>2026-05-01T15:13:42Z</time></trkpt><trkpt lat="41.89941972167867" lon="12.753663767068154"><ele>119.0</ele><time>2026-05-01T15:13:43Z</time></trkpt><trkpt lat="41.89910421617961" lon="12.753785492572462"><ele>119.5</ele><time>2026-05-01T15:13:44Z</time></trkpt><trkpt lat="41.898788146302074" lon="12.753907923556298"><ele>120.0</ele><time>2026-05-01T15:13:45Z</time></trkpt><trkpt lat="41.89846908902841" lon="12.75403136755161"><ele>121.0</ele><time>2026-05-01T15:13:46Z</time></trkpt><trkpt lat="41.89814943360023" lon="12.754157659575842"><ele>122.0</ele><time>2026-05-01T15:13:47Z</time></trkpt><trkpt lat="41.89782976649596" lon="12.754284785845117"><ele>123.5</ele><time>2026-05-01T15:13:48Z</time></trkpt><trkpt lat="41.89750901484398" lon="12.754414112319548"><ele>125.0</ele><time>2026-05-01T15:13:49Z</time></trkpt><trkpt lat="41.89718760372075" lon="12.754542715884092"><ele>125.0</ele><time>2026-05-01T15:13:50Z</time></trkpt><trkpt lat="41.896866662536915" lon="12.75467173585288"><ele>125.0</ele><time>2026-05-01T15:13:51Z</time></trkpt><trkpt lat="41.89654653292243" lon="12.754805706215727"><ele>125.0</ele><time>2026-05-01T15:13:52Z</time></trkpt><trkpt lat="41.89623224490142" lon="12.754947590735627"><ele>125.0</ele><time>2026-05-01T15:13:53Z</time></trkpt><trkpt lat="41.89593231957708" lon="12.75508813375507"><ele>125.5</ele><time>2026-05-01T15:13:54Z</time></trkpt><trkpt lat="41.89563599026165" lon="12.755230533831861"><ele>126.0</ele><time>2026-05-01T15:13:55Z</time></trkpt><trkpt lat="41.89534493122233" lon="12.755376359681685"><ele>128.5</ele><time>2026-05-01T15:13:56Z</time></trkpt><trkpt lat="41.8950582409217" lon="12.755529775005725"><ele>131.0</ele><time>2026-05-01T15:13:57Z</time></trkpt><trkpt lat="41.89477549373463" lon="12.755685106134564"><ele>131.0</ele><time>2026-05-01T15:13:58Z</time></trkpt><trkpt lat="41.8944995029365" lon="12.755840383556833"><ele>131.0</ele><time>2026-05-01T15:13:59Z</time></trkpt><trkpt lat="41.89423341100704" lon="12.755993449091656"><ele>131.5</ele><time>2026-05-01T15:14:00Z</time></trkpt><trkpt lat="41.893973501183986" lon="12.756146084083728"><ele>132.0</ele><time>2026-05-01T15:14:01Z</time></trkpt><trkpt lat="41.8937249942466" lon="12.756299643394236"><ele>132.0</ele><time>2026-05-01T15:14:02Z</time></trkpt><trkpt lat="41.8934915656324" lon="12.756445260824545"><ele>132.0</ele><time>2026-05-01T15:14:03Z</time></trkpt><trkpt lat="41.893268654260176" lon="12.756587931162839"><ele>132.5</ele><time>2026-05-01T15:14:04Z</time></trkpt><trkpt lat="41.89305518929042" lon="12.756726822857841"><ele>133.0</ele><time>2026-05-01T15:14:05Z</time></trkpt><trkpt lat="41.89284930969939" lon="12.756860216724558"><ele>134.0</ele><time>2026-05-01T15:14:06Z</time></trkpt><trkpt lat="41.892653020076125" lon="12.75698643702133"><ele>135.0</ele><time>2026-05-01T15:14:07Z</time></trkpt><trkpt lat="41.89246655191256" lon="12.757104414106578"><ele>136.0</ele><time>2026-05-01T15:14:08Z</time></trkpt><trkpt lat="41.89228421187318" lon="12.757217064889883"><ele>136.33333333333334</ele><time>2026-05-01T15:14:09Z</time></trkpt><trkpt lat="41.89210092672618" lon="12.757323542533033"><ele>136.66666666666666</ele><time>2026-05-01T15:14:10Z</time></trkpt><trkpt lat="41.89192068687602" lon="12.757421561497553"><ele>137.0</ele><time>2026-05-01T15:14:11Z</time></trkpt><trkpt lat="41.891746894224305" lon="12.757506949134104"><ele>136.0</ele><time>2026-05-01T15:14:12Z</time></trkpt><trkpt lat="41.891580442336014" lon="12.757580433639385"><ele>135.0</ele><time>2026-05-01T15:14:13Z</time></trkpt><trkpt lat="41.8914224154184" lon="12.75764125741842"><ele>134.0</ele><time>2026-05-01T15:14:14Z</time></trkpt><trkpt lat="41.891270107406726" lon="12.75769416845312"><ele>134.66666666666666</ele><time>2026-05-01T15:14:14.999Z</time></trkpt><trkpt lat="41.891119441339896" lon="12.757744911027876"><ele>135.33333333333334</ele><time>2026-05-01T15:14:15.999Z</time></trkpt><trkpt lat="41.89097254022491" lon="12.757793426181232"><ele>136.0</ele><time>2026-05-01T15:14:16.999Z</time></trkpt><trkpt lat="41.890827325093674" lon="12.757842419324044"><ele>136.5</ele><time>2026-05-01T15:14:17.999Z</time></trkpt><trkpt lat="41.89068807137144" lon="12.757894362644606"><ele>137.0</ele><time>2026-05-01T15:14:18.999Z</time></trkpt><trkpt lat="41.89055451902195" lon="12.757941234910138"><ele>137.5</ele><time>2026-05-01T15:14:19.999Z</time></trkpt><trkpt lat="41.890428333464186" lon="12.757981598478906"><ele>138.0</ele><time>2026-05-01T15:14:20.999Z</time></trkpt><trkpt lat="41.89030991050961" lon="12.758016292990161"><ele>138.0</ele><time>2026-05-01T15:14:21.999Z</time></trkpt><trkpt lat="41.89019802832052" lon="12.758051931417144"><ele>138.0</ele><time>2026-05-01T15:14:22.999Z</time></trkpt><trkpt lat="41.89009448600432" lon="12.758088129191782"><ele>138.0</ele><time>2026-05-01T15:14:23.999Z</time></trkpt><trkpt lat="41.89000027224109" lon="12.758137927784707"><ele>138.0</ele><time>2026-05-01T15:14:24.999Z</time></trkpt><trkpt lat="41.88991453200274" lon="12.758205231388951"><ele>138.0</ele><time>2026-05-01T15:14:25.999Z</time></trkpt><trkpt lat="41.88984105978296" lon="12.758281179145884"><ele>138.4</ele><time>2026-05-01T15:14:26.999Z</time></trkpt><trkpt lat="41.88977761041511" lon="12.758364133685527"><ele>138.8</ele><time>2026-05-01T15:14:27.999Z</time></trkpt><trkpt lat="41.88973273499586" lon="12.75845624806737"><ele>139.2</ele><time>2026-05-01T15:14:28.999Z</time></trkpt><trkpt lat="41.88969659031235" lon="12.758530609103218"><ele>139.6</ele><time>2026-05-01T15:14:29.999Z</time></trkpt><trkpt lat="41.889651766196664" lon="12.75864141268078"><ele>140.0</ele><time>2026-05-01T15:14:31.999Z</time></trkpt><trkpt lat="41.88953163790393" lon="12.758678202345509"><ele>140.0</ele><time>2026-05-01T15:14:33.999Z</time></trkpt><trkpt lat="41.88942862570031" lon="12.758737835524824"><ele>140.0</ele><time>2026-05-01T15:14:35.999Z</time></trkpt><trkpt lat="41.88934137283315" lon="12.758806170315102"><ele>140.0</ele><time>2026-05-01T15:14:37.999Z</time></trkpt><trkpt lat="41.889282134102395" lon="12.758850413944765"><ele>140.0</ele><time>2026-05-01T15:14:39.999Z</time></trkpt><trkpt lat="41.889201153964464" lon="12.758909225162874"><ele>140.0</ele><time>2026-05-01T15:14:43.999Z</time></trkpt><trkpt lat="41.8891384326678" lon="12.758924314542584"><ele>140.0</ele><time>2026-05-01T15:14:46.999Z</time></trkpt><trkpt lat="41.88910210875223" lon="12.759004606598175"><ele>139.83333333333331</ele><time>2026-05-01T15:38:20Z</time></trkpt><trkpt lat="41.88900045724209" lon="12.759110893495844"><ele>139.66666666666666</ele><time>2026-05-01T15:38:22Z</time></trkpt><trkpt lat="41.88894916017604" lon="12.759163916980368"><ele>139.5</ele><time>2026-05-01T15:38:23Z</time></trkpt><trkpt lat="41.88886782066084" lon="12.759177319781164"><ele>139.33333333333334</ele><time>2026-05-01T15:38:24Z</time></trkpt><trkpt lat="41.88882103905327" lon="12.759252946949767"><ele>139.16666666666669</ele><time>2026-05-01T15:38:25Z</time></trkpt><trkpt lat="41.888797203596106" lon="12.759345079138525"><ele>139.0</ele><time>2026-05-01T15:38:26Z</time></trkpt><trkpt lat="41.88873200903656" lon="12.759377100858268"><ele>139.0</ele><time>2026-05-01T15:38:27Z</time></trkpt><trkpt lat="41.88866959475586" lon="12.759416443075075"><ele>139.0</ele><time>2026-05-01T15:38:28Z</time></trkpt><trkpt lat="41.88861292433618" lon="12.759465628951952"><ele>139.0</ele><time>2026-05-01T15:38:29Z</time></trkpt><trkpt lat="41.888559214801624" lon="12.759512245698634"><ele>139.0</ele><time>2026-05-01T15:38:30Z</time></trkpt><trkpt lat="41.88846391837274" lon="12.759594956433402"><ele>139.0</ele><time>2026-05-01T15:38:32Z</time></trkpt><trkpt lat="41.88848166411487" lon="12.759768407976466"><ele>139.0</ele><time>2026-05-01T15:38:33Z</time></trkpt><trkpt lat="41.888403383632934" lon="12.759884055247397"><ele>138.8</ele><time>2026-05-01T15:38:35Z</time></trkpt><trkpt lat="41.888320475538265" lon="12.759981928029873"><ele>138.60000000000002</ele><time>2026-05-01T15:38:37Z</time></trkpt><trkpt lat="41.888228001641544" lon="12.760046585121419"><ele>138.4</ele><time>2026-05-01T15:38:39Z</time></trkpt><trkpt lat="41.88813034142254" lon="12.760138876664797"><ele>138.20000000000002</ele><time>2026-05-01T15:38:41Z</time></trkpt><trkpt lat="41.888067269863534" lon="12.76021221471221"><ele>138.0</ele><time>2026-05-01T15:38:42Z</time></trkpt><trkpt lat="41.88800501178325" lon="12.760282143202948"><ele>138.0</ele><time>2026-05-01T15:38:43Z</time></trkpt><trkpt lat="41.88794020290443" lon="12.760359345181797"><ele>138.0</ele><time>2026-05-01T15:38:44Z</time></trkpt><trkpt lat="41.887871302787865" lon="12.760443872384437"><ele>138.0</ele><time>2026-05-01T15:38:44.999Z</time></trkpt><trkpt lat="41.88780155642956" lon="12.760534700461966"><ele>138.0</ele><time>2026-05-01T15:38:45.999Z</time></trkpt><trkpt lat="41.887730447288476" lon="12.760624672562763"><ele>138.0</ele><time>2026-05-01T15:38:46.999Z</time></trkpt><trkpt lat="41.88765522255353" lon="12.760713054678508"><ele>137.8</ele><time>2026-05-01T15:38:47.999Z</time></trkpt><trkpt lat="41.887581202050214" lon="12.760801036119508"><ele>137.60000000000002</ele><time>2026-05-01T15:38:48.999Z</time></trkpt><trkpt lat="41.8875073463096" lon="12.760887041310648"><ele>137.39999999999998</ele><time>2026-05-01T15:38:49.999Z</time></trkpt><trkpt lat="41.88743719367933" lon="12.760972827296193"><ele>137.2</ele><time>2026-05-01T15:38:50.999Z</time></trkpt><trkpt lat="41.887364152912546" lon="12.761072882779668"><ele>137.0</ele><time>2026-05-01T15:38:51.999Z</time></trkpt><trkpt lat="41.88726061537404" lon="12.761184568092073"><ele>138.0</ele><time>2026-05-01T15:38:52.999Z</time></trkpt><trkpt lat="41.8871499310274" lon="12.761335631654681"><ele>139.0</ele><time>2026-05-01T15:38:53.999Z</time></trkpt><trkpt lat="41.886970098430865" lon="12.761435976093967"><ele>140.0</ele><time>2026-05-01T15:38:54.999Z</time></trkpt><trkpt lat="41.886781456994946" lon="12.761582341398698"><ele>140.5</ele><time>2026-05-01T15:38:55.999Z</time></trkpt><trkpt lat="41.88657259128985" lon="12.76174091477239"><ele>141.0</ele><time>2026-05-01T15:38:56.999Z</time></trkpt><trkpt lat="41.886360252453336" lon="12.761897531681818"><ele>141.0</ele><time>2026-05-01T15:38:57.999Z</time></trkpt><trkpt lat="41.88616439981283" lon="12.76204353100324"><ele>141.0</ele><time>2026-05-01T15:38:58.999Z</time></trkpt><trkpt lat="41.88596988712208" lon="12.762184628017673"><ele>141.0</ele><time>2026-05-01T15:38:59.999Z</time></trkpt><trkpt lat="41.885770018945784" lon="12.762323370485474"><ele>140.5</ele><time>2026-05-01T15:39:00.999Z</time></trkpt><trkpt lat="41.88555870221534" lon="12.76246023623484"><ele>140.0</ele><time>2026-05-01T15:39:01.999Z</time></trkpt><trkpt lat="41.885327987874135" lon="12.762600184973925"><ele>139.5</ele><time>2026-05-01T15:39:02.999Z</time></trkpt><trkpt lat="41.88508113749057" lon="12.762743112501889"><ele>139.0</ele><time>2026-05-01T15:39:03.999Z</time></trkpt><trkpt lat="41.8848338918987" lon="12.762882463220611"><ele>139.0</ele><time>2026-05-01T15:39:04.999Z</time></trkpt><trkpt lat="41.8845912607889" lon="12.763017044591834"><ele>139.0</ele><time>2026-05-01T15:39:05.999Z</time></trkpt><trkpt lat="41.88434676053669" lon="12.763146249109509"><ele>137.0</ele><time>2026-05-01T15:39:06.999Z</time></trkpt><trkpt lat="41.88409617181031" lon="12.763270085819928"><ele>135.0</ele><time>2026-05-01T15:39:07.999Z</time></trkpt><trkpt lat="41.88384114586569" lon="12.763388388096557"><ele>135.0</ele><time>2026-05-01T15:39:08.999Z</time></trkpt><trkpt lat="41.883582148348125" lon="12.763503661601343"><ele>135.0</ele><time>2026-05-01T15:39:09.999Z</time></trkpt><trkpt lat="41.883318953790315" lon="12.763620444923406"><ele>137.5</ele><time>2026-05-01T15:39:10.999Z</time></trkpt><trkpt lat="41.88305013779252" lon="12.763733648709447"><ele>140.0</ele><time>2026-05-01T15:39:11.999Z</time></trkpt><trkpt lat="41.88277826930098" lon="12.763839279693737"><ele>141.5</ele><time>2026-05-01T15:39:12.999Z</time></trkpt><trkpt lat="41.882506530849255" lon="12.763938552942344"><ele>143.0</ele><time>2026-05-01T15:39:13.999Z</time></trkpt><trkpt lat="41.882237875855566" lon="12.764031054506015"><ele>143.0</ele><time>2026-05-01T15:39:14.999Z</time></trkpt><trkpt lat="41.88197494562183" lon="12.764113003182981"><ele>143.0</ele><time>2026-05-01T15:39:15.999Z</time></trkpt><trkpt lat="41.881717506131636" lon="12.764186952426828"><ele>142.0</ele><time>2026-05-01T15:39:16.999Z</time></trkpt><trkpt lat="41.88146722416473" lon="12.764256832345552"><ele>141.0</ele><time>2026-05-01T15:39:17.999Z</time></trkpt><trkpt lat="41.88122122481541" lon="12.764324713481242"><ele>141.5</ele><time>2026-05-01T15:39:18.999Z</time></trkpt><trkpt lat="41.88097561313546" lon="12.764386470206055"><ele>142.0</ele><time>2026-05-01T15:39:19.999Z</time></trkpt><trkpt lat="41.88072164858186" lon="12.764450151939903"><ele>142.0</ele><time>2026-05-01T15:39:20.999Z</time></trkpt><trkpt lat="41.88046017918624" lon="12.764511791384562"><ele>142.0</ele><time>2026-05-01T15:39:21.999Z</time></trkpt><trkpt lat="41.88019288982292" lon="12.76456937152356"><ele>142.0</ele><time>2026-05-01T15:39:22.999Z</time></trkpt><trkpt lat="41.87992393505318" lon="12.764624284412532"><ele>142.0</ele><time>2026-05-01T15:39:23.999Z</time></trkpt><trkpt lat="41.879658303763485" lon="12.764677497378983"><ele>142.0</ele><time>2026-05-01T15:39:24.999Z</time></trkpt><trkpt lat="41.87939498052729" lon="12.764725119523648"><ele>142.0</ele><time>2026-05-01T15:39:25.999Z</time></trkpt><trkpt lat="41.87912946200545" lon="12.76477139040248"><ele>141.5</ele><time>2026-05-01T15:39:26.999Z</time></trkpt><trkpt lat="41.878859703985256" lon="12.764815754699685"><ele>141.0</ele><time>2026-05-01T15:39:27.999Z</time></trkpt><trkpt lat="41.87858342495758" lon="12.76486566078571"><ele>141.5</ele><time>2026-05-01T15:39:28.999Z</time></trkpt><trkpt lat="41.878303064966424" lon="12.764916682220548"><ele>142.0</ele><time>2026-05-01T15:39:29.999Z</time></trkpt><trkpt lat="41.87801969302469" lon="12.764966006597886"><ele>142.0</ele><time>2026-05-01T15:39:30.999Z</time></trkpt><trkpt lat="41.877736264027305" lon="12.765013285229712"><ele>142.0</ele><time>2026-05-01T15:39:31.999Z</time></trkpt><trkpt lat="41.87744956208973" lon="12.765062678694717"><ele>143.0</ele><time>2026-05-01T15:39:32.999Z</time></trkpt><trkpt lat="41.87715926584069" lon="12.76511869633689"><ele>144.0</ele><time>2026-05-01T15:39:33.999Z</time></trkpt><trkpt lat="41.87686381072292" lon="12.76517948898295"><ele>144.5</ele><time>2026-05-01T15:39:34.999Z</time></trkpt><trkpt lat="41.876565688600685" lon="12.765241418708607"><ele>145.0</ele><time>2026-05-01T15:39:35.999Z</time></trkpt><trkpt lat="41.87626641365365" lon="12.765310582635996"><ele>145.0</ele><time>2026-05-01T15:39:36.999Z</time></trkpt><trkpt lat="41.87596806896345" lon="12.765384912050298"><ele>145.0</ele><time>2026-05-01T15:39:37.999Z</time></trkpt><trkpt lat="41.87566843413482" lon="12.7654667481213"><ele>144.5</ele><time>2026-05-01T15:39:38.999Z</time></trkpt><trkpt lat="41.875366841186654" lon="12.765558813966516"><ele>144.0</ele><time>2026-05-01T15:39:39.999Z</time></trkpt><trkpt lat="41.87506391684434" lon="12.765661868278492"><ele>145.5</ele><time>2026-05-01T15:39:40.999Z</time></trkpt><trkpt lat="41.87475878929375" lon="12.765772300628479"><ele>147.0</ele><time>2026-05-01T15:39:41.999Z</time></trkpt><trkpt lat="41.874453964832426" lon="12.765890403027349"><ele>148.0</ele><time>2026-05-01T15:39:42.999Z</time></trkpt><trkpt lat="41.87414711162282" lon="12.766017516039986"><ele>149.0</ele><time>2026-05-01T15:39:43.999Z</time></trkpt><trkpt lat="41.87384069661262" lon="12.766151040751954"><ele>149.0</ele><time>2026-05-01T15:39:44.999Z</time></trkpt><trkpt lat="41.87353464032893" lon="12.766295171100362"><ele>149.0</ele><time>2026-05-01T15:39:45.999Z</time></trkpt><trkpt lat="41.87323113365195" lon="12.76645022427982"><ele>149.0</ele><time>2026-05-01T15:39:46.999Z</time></trkpt><trkpt lat="41.872930105731285" lon="12.766615314138987"><ele>149.0</ele><time>2026-05-01T15:39:47.999Z</time></trkpt><trkpt lat="41.87263029853372" lon="12.76679115408229"><ele>153.0</ele><time>2026-05-01T15:39:48.999Z</time></trkpt><trkpt lat="41.8723325202013" lon="12.766978574724668"><ele>157.0</ele><time>2026-05-01T15:39:49.999Z</time></trkpt><trkpt lat="41.87203739832006" lon="12.767178033348936"><ele>156.0</ele><time>2026-05-01T15:39:50.999Z</time></trkpt><trkpt lat="41.8717446518426" lon="12.76738471953293"><ele>155.0</ele><time>2026-05-01T15:39:51.999Z</time></trkpt><trkpt lat="41.871453269782805" lon="12.76760125332465"><ele>158.0</ele><time>2026-05-01T15:39:52.999Z</time></trkpt><trkpt lat="41.87116611444349" lon="12.767826724410128"><ele>161.0</ele><time>2026-05-01T15:39:53.999Z</time></trkpt><trkpt lat="41.87088287602581" lon="12.768063828874991"><ele>161.0</ele><time>2026-05-01T15:39:54.999Z</time></trkpt><trkpt lat="41.87060257663069" lon="12.768310390590289"><ele>161.0</ele><time>2026-05-01T15:39:55.999Z</time></trkpt><trkpt lat="41.87032525765782" lon="12.768565188960277"><ele>163.5</ele><time>2026-05-01T15:39:56.999Z</time></trkpt><trkpt lat="41.8700550475731" lon="12.768824109472623"><ele>166.0</ele><time>2026-05-01T15:39:57.999Z</time></trkpt><trkpt lat="41.86979358106425" lon="12.7690860991415"><ele>166.0</ele><time>2026-05-01T15:39:58.999Z</time></trkpt><trkpt lat="41.869539114515305" lon="12.769356722763106"><ele>166.0</ele><time>2026-05-01T15:39:59.999Z</time></trkpt><trkpt lat="41.86929119162732" lon="12.769637311579183"><ele>166.5</ele><time>2026-05-01T15:40:00.999Z</time></trkpt><trkpt lat="41.86904812226506" lon="12.769926943313969"><ele>167.0</ele><time>2026-05-01T15:40:01.999Z</time></trkpt><trkpt lat="41.86880842273698" lon="12.770223341071766"><ele>166.5</ele><time>2026-05-01T15:40:02.999Z</time></trkpt><trkpt lat="41.868571422602805" lon="12.77052675270363"><ele>166.0</ele><time>2026-05-01T15:40:03.998Z</time></trkpt><trkpt lat="41.86833743987306" lon="12.770836398679654"><ele>169.0</ele><time>2026-05-01T15:40:04.998Z</time></trkpt><trkpt lat="41.86810576979485" lon="12.771152169116945"><ele>172.0</ele><time>2026-05-01T15:40:05.998Z</time></trkpt><trkpt lat="41.86787554152207" lon="12.77147413639315"><ele>172.0</ele><time>2026-05-01T15:40:06.998Z</time></trkpt><trkpt lat="41.8676472324239" lon="12.771798519480152"><ele>172.0</ele><time>2026-05-01T15:40:07.998Z</time></trkpt><trkpt lat="41.86741811486664" lon="12.77212600507174"><ele>171.0</ele><time>2026-05-01T15:40:08.998Z</time></trkpt><trkpt lat="41.867190866638374" lon="12.77245351976285"><ele>170.0</ele><time>2026-05-01T15:40:09.998Z</time></trkpt><trkpt lat="41.86696398831842" lon="12.77278398195576"><ele>170.5</ele><time>2026-05-01T15:40:10.998Z</time></trkpt><trkpt lat="41.866735395325975" lon="12.773113662871424"><ele>171.0</ele><time>2026-05-01T15:40:11.998Z</time></trkpt><trkpt lat="41.866503816916115" lon="12.77344056465364"><ele>173.0</ele><time>2026-05-01T15:40:12.998Z</time></trkpt><trkpt lat="41.86626688384596" lon="12.773758811974982"><ele>175.0</ele><time>2026-05-01T15:40:13.998Z</time></trkpt><trkpt lat="41.86603233904647" lon="12.774078832152256"><ele>175.5</ele><time>2026-05-01T15:40:14.998Z</time></trkpt><trkpt lat="41.86580103602483" lon="12.7744033300702"><ele>176.0</ele><time>2026-05-01T15:40:15.998Z</time></trkpt><trkpt lat="41.86556922372868" lon="12.77472946523518"><ele>176.0</ele><time>2026-05-01T15:40:16.998Z</time></trkpt><trkpt lat="41.86533388838623" lon="12.775047891719387"><ele>176.0</ele><time>2026-05-01T15:40:17.998Z</time></trkpt><trkpt lat="41.86509661011016" lon="12.77536266974733"><ele>177.0</ele><time>2026-05-01T15:40:18.999Z</time></trkpt><trkpt lat="41.864857111895034" lon="12.775677002068997"><ele>178.0</ele><time>2026-05-01T15:40:19.999Z</time></trkpt><trkpt lat="41.86461630945904" lon="12.775987476098335"><ele>180.0</ele><time>2026-05-01T15:40:20.999Z</time></trkpt><trkpt lat="41.86437086364025" lon="12.776293525071809"><ele>182.0</ele><time>2026-05-01T15:40:21.999Z</time></trkpt><trkpt lat="41.86412294925375" lon="12.776594902450926"><ele>184.0</ele><time>2026-05-01T15:40:22.999Z</time></trkpt><trkpt lat="41.8638723264488" lon="12.776892584683589"><ele>186.0</ele><time>2026-05-01T15:40:23.999Z</time></trkpt><trkpt lat="41.86361911689274" lon="12.777182915337669"><ele>184.0</ele><time>2026-05-01T15:40:24.999Z</time></trkpt><trkpt lat="41.863360881889136" lon="12.777468879818722"><ele>182.0</ele><time>2026-05-01T15:40:25.999Z</time></trkpt><trkpt lat="41.86310105160155" lon="12.777749055156844"><ele>184.5</ele><time>2026-05-01T15:40:26.999Z</time></trkpt><trkpt lat="41.862837944060985" lon="12.77802508874755"><ele>187.0</ele><time>2026-05-01T15:40:27.999Z</time></trkpt><trkpt lat="41.862573611832886" lon="12.778298064157013"><ele>190.5</ele><time>2026-05-01T15:40:28.999Z</time></trkpt><trkpt lat="41.8623063652205" lon="12.778570660060245"><ele>194.0</ele><time>2026-05-01T15:40:29.999Z</time></trkpt><trkpt lat="41.86203605178587" lon="12.778835676774287"><ele>192.5</ele><time>2026-05-01T15:40:30.999Z</time></trkpt><trkpt lat="41.861761939111666" lon="12.779092800187833"><ele>191.0</ele><time>2026-05-01T15:40:31.999Z</time></trkpt><trkpt lat="41.86148357686746" lon="12.779344209007652"><ele>193.0</ele><time>2026-05-01T15:40:32.999Z</time></trkpt><trkpt lat="41.861201872601086" lon="12.779593261233142"><ele>195.0</ele><time>2026-05-01T15:40:33.999Z</time></trkpt><trkpt lat="41.86091892489349" lon="12.779838073823468"><ele>195.0</ele><time>2026-05-01T15:40:34.999Z</time></trkpt><trkpt lat="41.860634223519924" lon="12.780078244636023"><ele>195.0</ele><time>2026-05-01T15:40:35.999Z</time></trkpt><trkpt lat="41.86034759608239" lon="12.7803129856729"><ele>196.0</ele><time>2026-05-01T15:40:36.999Z</time></trkpt><trkpt lat="41.86005757006611" lon="12.780543515132571"><ele>197.0</ele><time>2026-05-01T15:40:37.999Z</time></trkpt><trkpt lat="41.8597653477861" lon="12.780768839223269"><ele>197.0</ele><time>2026-05-01T15:40:38.999Z</time></trkpt><trkpt lat="41.859471394525" lon="12.780990060204562"><ele>197.0</ele><time>2026-05-01T15:40:39.999Z</time></trkpt><trkpt lat="41.85917712376906" lon="12.7812068923244"><ele>199.5</ele><time>2026-05-01T15:40:40.999Z</time></trkpt><trkpt lat="41.85888093331579" lon="12.781418923425807"><ele>202.0</ele><time>2026-05-01T15:40:41.999Z</time></trkpt><trkpt lat="41.85858318593951" lon="12.781627093472313"><ele>203.0</ele><time>2026-05-01T15:40:42.999Z</time></trkpt><trkpt lat="41.85828372730604" lon="12.781830635259405"><ele>204.0</ele><time>2026-05-01T15:40:43.999Z</time></trkpt><trkpt lat="41.857983792257684" lon="12.78203479950806"><ele>204.0</ele><time>2026-05-01T15:40:44.999Z</time></trkpt><trkpt lat="41.857683258034896" lon="12.782240653455968"><ele>204.0</ele><time>2026-05-01T15:40:45.999Z</time></trkpt><trkpt lat="41.85738275395558" lon="12.782445825171207"><ele>205.0</ele><time>2026-05-01T15:40:46.999Z</time></trkpt><trkpt lat="41.85708051742177" lon="12.782649511853736"><ele>206.0</ele><time>2026-05-01T15:40:47.999Z</time></trkpt><trkpt lat="41.856779604280604" lon="12.782853156320238"><ele>206.0</ele><time>2026-05-01T15:40:48.999Z</time></trkpt><trkpt lat="41.85647655080503" lon="12.783057352066635"><ele>206.0</ele><time>2026-05-01T15:40:49.999Z</time></trkpt><trkpt lat="41.85617497238309" lon="12.78326264388446"><ele>205.5</ele><time>2026-05-01T15:40:50.999Z</time></trkpt><trkpt lat="41.85587470791967" lon="12.783469574370242"><ele>205.0</ele><time>2026-05-01T15:40:51.999Z</time></trkpt><trkpt lat="41.85557597645247" lon="12.783676668403979"><ele>206.5</ele><time>2026-05-01T15:40:52.999Z</time></trkpt><trkpt lat="41.85527885820899" lon="12.78388322921538"><ele>208.0</ele><time>2026-05-01T15:40:53.999Z</time></trkpt><trkpt lat="41.854982329168585" lon="12.784089632734144"><ele>208.0</ele><time>2026-05-01T15:40:54.999Z</time></trkpt><trkpt lat="41.85468713747229" lon="12.784299186351271"><ele>208.0</ele><time>2026-05-01T15:40:55.999Z</time></trkpt><trkpt lat="41.85439197239069" lon="12.784512205945667"><ele>209.5</ele><time>2026-05-01T15:40:56.999Z</time></trkpt><trkpt lat="41.85409636098924" lon="12.784724653810143"><ele>211.0</ele><time>2026-05-01T15:40:57.999Z</time></trkpt><trkpt lat="41.85380172006681" lon="12.784937389228196"><ele>211.0</ele><time>2026-05-01T15:40:58.999Z</time></trkpt><trkpt lat="41.853508511793045" lon="12.785152663040105"><ele>211.0</ele><time>2026-05-01T15:40:59.999Z</time></trkpt><trkpt lat="41.85321786258877" lon="12.785369749200104"><ele>213.5</ele><time>2026-05-01T15:41:00.999Z</time></trkpt><trkpt lat="41.85292813547014" lon="12.785590947737461"><ele>216.0</ele><time>2026-05-01T15:41:01.999Z</time></trkpt><trkpt lat="41.85263907443211" lon="12.785815845977739"><ele>218.0</ele><time>2026-05-01T15:41:02.999Z</time></trkpt><trkpt lat="41.852350545486075" lon="12.786044892570057"><ele>220.0</ele><time>2026-05-01T15:41:03.999Z</time></trkpt><trkpt lat="41.85206413283491" lon="12.786278715694081"><ele>219.0</ele><time>2026-05-01T15:41:04.999Z</time></trkpt><trkpt lat="41.851779575747734" lon="12.786516208654277"><ele>218.0</ele><time>2026-05-01T15:41:05.999Z</time></trkpt><trkpt lat="41.85149532163452" lon="12.786757076849252"><ele>219.0</ele><time>2026-05-01T15:41:06.999Z</time></trkpt><trkpt lat="41.85121099943459" lon="12.787000633971061"><ele>220.0</ele><time>2026-05-01T15:41:07.999Z</time></trkpt><trkpt lat="41.850929219417026" lon="12.787249485142667"><ele>220.0</ele><time>2026-05-01T15:41:08.999Z</time></trkpt><trkpt lat="41.850650284334996" lon="12.78749917244683"><ele>220.0</ele><time>2026-05-01T15:41:09.999Z</time></trkpt><trkpt lat="41.85037265825578" lon="12.787753832863316"><ele>221.0</ele><time>2026-05-01T15:41:10.999Z</time></trkpt><trkpt lat="41.850097933249955" lon="12.788009312716222"><ele>222.0</ele><time>2026-05-01T15:41:11.999Z</time></trkpt><trkpt lat="41.84982600885017" lon="12.788268228581508"><ele>223.0</ele><time>2026-05-01T15:41:12.999Z</time></trkpt><trkpt lat="41.84955693801921" lon="12.788531093363018"><ele>224.0</ele><time>2026-05-01T15:41:13.999Z</time></trkpt><trkpt lat="41.8492909242755" lon="12.788799520523659"><ele>225.0</ele><time>2026-05-01T15:41:14.999Z</time></trkpt><trkpt lat="41.849028061854874" lon="12.789068097617863"><ele>226.0</ele><time>2026-05-01T15:41:15.999Z</time></trkpt><trkpt lat="41.848768687899785" lon="12.789333824164878"><ele>226.0</ele><time>2026-05-01T15:41:16.999Z</time></trkpt><trkpt lat="41.84851513597874" lon="12.789596216404524"><ele>226.0</ele><time>2026-05-01T15:41:17.999Z</time></trkpt><trkpt lat="41.84826494160487" lon="12.789859239867516"><ele>226.5</ele><time>2026-05-01T15:41:18.999Z</time></trkpt><trkpt lat="41.84801379531863" lon="12.790126429371226"><ele>227.0</ele><time>2026-05-01T15:41:19.999Z</time></trkpt><trkpt lat="41.84775514728499" lon="12.790395588765302"><ele>226.5</ele><time>2026-05-01T15:41:20.999Z</time></trkpt><trkpt lat="41.84749412081984" lon="12.790660039598588"><ele>226.0</ele><time>2026-05-01T15:41:21.999Z</time></trkpt><trkpt lat="41.84723035824197" lon="12.790923186004738"><ele>227.5</ele><time>2026-05-01T15:41:22.999Z</time></trkpt><trkpt lat="41.8469662305012" lon="12.791187813608698"><ele>229.0</ele><time>2026-05-01T15:41:23.999Z</time></trkpt><trkpt lat="41.84669941747911" lon="12.791452799588518"><ele>229.5</ele><time>2026-05-01T15:41:24.999Z</time></trkpt><trkpt lat="41.84642906175209" lon="12.791716112355438"><ele>230.0</ele><time>2026-05-01T15:41:25.999Z</time></trkpt><trkpt lat="41.84615557746543" lon="12.791974048692264"><ele>232.0</ele><time>2026-05-01T15:41:26.999Z</time></trkpt><trkpt lat="41.84588027325691" lon="12.792226565577902"><ele>234.0</ele><time>2026-05-01T15:41:27.999Z</time></trkpt><trkpt lat="41.84560267433184" lon="12.792476458165726"><ele>236.0</ele><time>2026-05-01T15:41:28.999Z</time></trkpt><trkpt lat="41.845321961339366" lon="12.792721069691543"><ele>238.0</ele><time>2026-05-01T15:41:29.999Z</time></trkpt><trkpt lat="41.84503627613354" lon="12.792959257334019"><ele>238.0</ele><time>2026-05-01T15:41:30.999Z</time></trkpt><trkpt lat="41.84474731812743" lon="12.793190955283876"><ele>238.0</ele><time>2026-05-01T15:41:31.999Z</time></trkpt><trkpt lat="41.844454878679066" lon="12.793415040583485"><ele>242.5</ele><time>2026-05-01T15:41:32.999Z</time></trkpt><trkpt lat="41.84416003268994" lon="12.793632829494486"><ele>247.0</ele><time>2026-05-01T15:41:33.999Z</time></trkpt><trkpt lat="41.84386262033416" lon="12.793845010074332"><ele>247.0</ele><time>2026-05-01T15:41:34.999Z</time></trkpt><trkpt lat="41.843563450643295" lon="12.79405245315592"><ele>247.0</ele><time>2026-05-01T15:41:35.999Z</time></trkpt><trkpt lat="41.84326188688273" lon="12.794256935677556"><ele>247.0</ele><time>2026-05-01T15:41:36.999Z</time></trkpt><trkpt lat="41.84296041337252" lon="12.794456576156515"><ele>247.0</ele><time>2026-05-01T15:41:37.999Z</time></trkpt><trkpt lat="41.842657158112644" lon="12.79465198665729"><ele>246.0</ele><time>2026-05-01T15:41:38.999Z</time></trkpt><trkpt lat="41.842352522908705" lon="12.794843666183509"><ele>245.0</ele><time>2026-05-01T15:41:39.999Z</time></trkpt><trkpt lat="41.84204770618429" lon="12.79503230873004"><ele>250.5</ele><time>2026-05-01T15:41:40.999Z</time></trkpt><trkpt lat="41.84174076429384" lon="12.795221219203452"><ele>256.0</ele><time>2026-05-01T15:41:41.999Z</time></trkpt><trkpt lat="41.8414339051399" lon="12.795407480523378"><ele>256.0</ele><time>2026-05-01T15:41:42.999Z</time></trkpt><trkpt lat="41.8411251717503" lon="12.795589040051063"><ele>256.0</ele><time>2026-05-01T15:41:43.999Z</time></trkpt><trkpt lat="41.8408159814407" lon="12.795764893409427"><ele>254.0</ele><time>2026-05-01T15:41:44.999Z</time></trkpt><trkpt lat="41.84050647407312" lon="12.795939496872265"><ele>252.0</ele><time>2026-05-01T15:41:45.999Z</time></trkpt><trkpt lat="41.840197430437755" lon="12.796113155811195"><ele>256.0</ele><time>2026-05-01T15:41:46.999Z</time></trkpt><trkpt lat="41.83988792642771" lon="12.796287830217269"><ele>260.0</ele><time>2026-05-01T15:41:47.999Z</time></trkpt><trkpt lat="41.8395771718557" lon="12.796463053115263"><ele>259.0</ele><time>2026-05-01T15:41:48.999Z</time></trkpt><trkpt lat="41.83926727735333" lon="12.796634511786172"><ele>258.0</ele><time>2026-05-01T15:41:49.999Z</time></trkpt><trkpt lat="41.838955955691375" lon="12.796803145514033"><ele>259.0</ele><time>2026-05-01T15:41:50.999Z</time></trkpt><trkpt lat="41.83864298829677" lon="12.796971453970743"><ele>260.0</ele><time>2026-05-01T15:41:51.998Z</time></trkpt><trkpt lat="41.838330325809544" lon="12.797137226660768"><ele>260.0</ele><time>2026-05-01T15:41:52.998Z</time></trkpt><trkpt lat="41.83801702554601" lon="12.79729982703554"><ele>260.0</ele><time>2026-05-01T15:41:53.998Z</time></trkpt><trkpt lat="41.837703714949434" lon="12.79746082247821"><ele>257.5</ele><time>2026-05-01T15:41:54.998Z</time></trkpt><trkpt lat="41.83738915196152" lon="12.797621103082216"><ele>255.0</ele><time>2026-05-01T15:41:55.998Z</time></trkpt><trkpt lat="41.83707467199229" lon="12.79777963943625"><ele>258.0</ele><time>2026-05-01T15:41:56.998Z</time></trkpt><trkpt lat="41.83675961929596" lon="12.797939244249559"><ele>261.0</ele><time>2026-05-01T15:41:57.998Z</time></trkpt><trkpt lat="41.836444662957405" lon="12.798097277085956"><ele>261.0</ele><time>2026-05-01T15:41:58.998Z</time></trkpt><trkpt lat="41.836128338124155" lon="12.798251624360852"><ele>261.0</ele><time>2026-05-01T15:41:59.998Z</time></trkpt><trkpt lat="41.83581132907362" lon="12.798404418497851"><ele>268.5</ele><time>2026-05-01T15:42:00.998Z</time></trkpt><trkpt lat="41.83549602510721" lon="12.798555143670697"><ele>276.0</ele><time>2026-05-01T15:42:01.998Z</time></trkpt><trkpt lat="41.83518105642058" lon="12.798706166874558"><ele>273.0</ele><time>2026-05-01T15:42:02.998Z</time></trkpt><trkpt lat="41.83486568526383" lon="12.79885817322576"><ele>270.0</ele><time>2026-05-01T15:42:03.998Z</time></trkpt><trkpt lat="41.83455030055656" lon="12.799009496951847"><ele>267.5</ele><time>2026-05-01T15:42:04.998Z</time></trkpt><trkpt lat="41.834236134147226" lon="12.799158116138305"><ele>265.0</ele><time>2026-05-01T15:42:05.998Z</time></trkpt><trkpt lat="41.83392108401417" lon="12.799304083247764"><ele>264.0</ele><time>2026-05-01T15:42:06.998Z</time></trkpt><trkpt lat="41.833605400369585" lon="12.799448691159391"><ele>263.0</ele><time>2026-05-01T15:42:07.998Z</time></trkpt><trkpt lat="41.833290149797094" lon="12.799594508417236"><ele>263.0</ele><time>2026-05-01T15:42:08.998Z</time></trkpt><trkpt lat="41.832973969546636" lon="12.799744113772205"><ele>263.0</ele><time>2026-05-01T15:42:09.998Z</time></trkpt><trkpt lat="41.83265731803562" lon="12.79989318600794"><ele>265.0</ele><time>2026-05-01T15:42:10.998Z</time></trkpt><trkpt lat="41.83234051768191" lon="12.800042129157676"><ele>267.0</ele><time>2026-05-01T15:42:11.998Z</time></trkpt><trkpt lat="41.83202244568361" lon="12.800193237197593"><ele>271.0</ele><time>2026-05-01T15:42:12.998Z</time></trkpt><trkpt lat="41.831705182483404" lon="12.800344296845065"><ele>275.0</ele><time>2026-05-01T15:42:13.998Z</time></trkpt><trkpt lat="41.83138911691225" lon="12.80049757482301"><ele>275.0</ele><time>2026-05-01T15:42:14.998Z</time></trkpt><trkpt lat="41.831074638869616" lon="12.800653099914516"><ele>275.0</ele><time>2026-05-01T15:42:15.998Z</time></trkpt><trkpt lat="41.83075960813404" lon="12.800809753735683"><ele>275.0</ele><time>2026-05-01T15:42:16.998Z</time></trkpt><trkpt lat="41.83044380086772" lon="12.800965968282643"><ele>275.0</ele><time>2026-05-01T15:42:17.998Z</time></trkpt><trkpt lat="41.83012801178814" lon="12.80112231967932"><ele>275.0</ele><time>2026-05-01T15:42:18.998Z</time></trkpt><trkpt lat="41.8298120256199" lon="12.801280649224138"><ele>275.0</ele><time>2026-05-01T15:42:19.998Z</time></trkpt><trkpt lat="41.82949752908493" lon="12.80144167396875"><ele>280.5</ele><time>2026-05-01T15:42:20.998Z</time></trkpt><trkpt lat="41.829183604798494" lon="12.801606941945655"><ele>286.0</ele><time>2026-05-01T15:42:21.998Z</time></trkpt><trkpt lat="41.82887219440954" lon="12.80177777065752"><ele>288.5</ele><time>2026-05-01T15:42:22.998Z</time></trkpt><trkpt lat="41.82856334090874" lon="12.801953885560717"><ele>291.0</ele><time>2026-05-01T15:42:23.998Z</time></trkpt><trkpt lat="41.82825642178501" lon="12.802136769752021"><ele>291.0</ele><time>2026-05-01T15:42:24.999Z</time></trkpt><trkpt lat="41.82795052903438" lon="12.802323001675104"><ele>291.0</ele><time>2026-05-01T15:42:25.999Z</time></trkpt><trkpt lat="41.82764515179992" lon="12.802514250258373"><ele>293.5</ele><time>2026-05-01T15:42:26.999Z</time></trkpt><trkpt lat="41.82733980844309" lon="12.802703251377691"><ele>296.0</ele><time>2026-05-01T15:42:27.999Z</time></trkpt><trkpt lat="41.82703349331665" lon="12.802891482797998"><ele>294.5</ele><time>2026-05-01T15:42:28.999Z</time></trkpt><trkpt lat="41.82672780629055" lon="12.803081187526018"><ele>293.0</ele><time>2026-05-01T15:42:29.999Z</time></trkpt><trkpt lat="41.826423093872144" lon="12.803272754055582"><ele>293.0</ele><time>2026-05-01T15:42:30.999Z</time></trkpt><trkpt lat="41.82612030085722" lon="12.80346389891376"><ele>293.0</ele><time>2026-05-01T15:42:31.999Z</time></trkpt><trkpt lat="41.82581900515456" lon="12.803655369712036"><ele>292.5</ele><time>2026-05-01T15:42:32.999Z</time></trkpt><trkpt lat="41.825516685390205" lon="12.80384420983457"><ele>292.0</ele><time>2026-05-01T15:42:33.999Z</time></trkpt><trkpt lat="41.82521435306045" lon="12.804033590417161"><ele>289.5</ele><time>2026-05-01T15:42:34.999Z</time></trkpt><trkpt lat="41.82491307213421" lon="12.804223651497926"><ele>287.0</ele><time>2026-05-01T15:42:35.999Z</time></trkpt><trkpt lat="41.82461003382622" lon="12.804416320964991"><ele>286.5</ele><time>2026-05-01T15:42:36.999Z</time></trkpt><trkpt lat="41.824304932946234" lon="12.804606852015258"><ele>286.0</ele><time>2026-05-01T15:42:37.999Z</time></trkpt><trkpt lat="41.82400038687888" lon="12.804795348253881"><ele>286.0</ele><time>2026-05-01T15:42:38.999Z</time></trkpt><trkpt lat="41.82369541753817" lon="12.80498415051569"><ele>286.0</ele><time>2026-05-01T15:42:39.999Z</time></trkpt><trkpt lat="41.82338851542813" lon="12.805169961213238"><ele>290.0</ele><time>2026-05-01T15:42:40.999Z</time></trkpt><trkpt lat="41.82308090248794" lon="12.805353074931107"><ele>294.0</ele><time>2026-05-01T15:42:41.999Z</time></trkpt><trkpt lat="41.82277352524826" lon="12.805530450726259"><ele>296.0</ele><time>2026-05-01T15:42:42.999Z</time></trkpt><trkpt lat="41.82246392540821" lon="12.805702100203362"><ele>298.0</ele><time>2026-05-01T15:42:43.999Z</time></trkpt><trkpt lat="41.822151990636705" lon="12.805868853962894"><ele>295.0</ele><time>2026-05-01T15:42:44.999Z</time></trkpt><trkpt lat="41.82183786825197" lon="12.806031182348852"><ele>292.0</ele><time>2026-05-01T15:42:45.999Z</time></trkpt><trkpt lat="41.821522155315655" lon="12.80619097070226"><ele>292.0</ele><time>2026-05-01T15:42:46.999Z</time></trkpt><trkpt lat="41.821204658239715" lon="12.806344326195356"><ele>292.0</ele><time>2026-05-01T15:42:47.999Z</time></trkpt><trkpt lat="41.82088624028486" lon="12.806488394726271"><ele>294.0</ele><time>2026-05-01T15:42:48.999Z</time></trkpt><trkpt lat="41.820565258921725" lon="12.806625757809272"><ele>296.0</ele><time>2026-05-01T15:42:49.999Z</time></trkpt><trkpt lat="41.820242916015225" lon="12.806756359301612"><ele>294.5</ele><time>2026-05-01T15:42:50.999Z</time></trkpt><trkpt lat="41.81991923340665" lon="12.806880856496504"><ele>293.0</ele><time>2026-05-01T15:42:51.999Z</time></trkpt><trkpt lat="41.81959471013825" lon="12.806997407203008"><ele>294.0</ele><time>2026-05-01T15:42:52.999Z</time></trkpt><trkpt lat="41.819268629297625" lon="12.807107450389044"><ele>295.0</ele><time>2026-05-01T15:42:53.999Z</time></trkpt><trkpt lat="41.818941527940424" lon="12.807209420384831"><ele>295.0</ele><time>2026-05-01T15:42:54.999Z</time></trkpt><trkpt lat="41.81861300465131" lon="12.807304778963214"><ele>295.0</ele><time>2026-05-01T15:42:55.999Z</time></trkpt><trkpt lat="41.81828394542554" lon="12.807392475502347"><ele>296.5</ele><time>2026-05-01T15:42:56.999Z</time></trkpt><trkpt lat="41.81795392536683" lon="12.807471313382292"><ele>298.0</ele><time>2026-05-01T15:42:57.999Z</time></trkpt><trkpt lat="41.81762456026261" lon="12.807543172176965"><ele>298.5</ele><time>2026-05-01T15:42:58.999Z</time></trkpt><trkpt lat="41.81729306421647" lon="12.807608347344475"><ele>299.0</ele><time>2026-05-01T15:42:59.999Z</time></trkpt><trkpt lat="41.816960675886534" lon="12.807667487168581"><ele>300.5</ele><time>2026-05-01T15:43:00.999Z</time></trkpt><trkpt lat="41.81662871772556" lon="12.807723511956329"><ele>302.0</ele><time>2026-05-01T15:43:01.999Z</time></trkpt><trkpt lat="41.816297322695426" lon="12.807775069460469"><ele>304.0</ele><time>2026-05-01T15:43:02.999Z</time></trkpt><trkpt lat="41.81596375690764" lon="12.807824711859787"><ele>306.0</ele><time>2026-05-01T15:43:03.999Z</time></trkpt><trkpt lat="41.81563233732977" lon="12.807873732057175"><ele>306.0</ele><time>2026-05-01T15:43:04.999Z</time></trkpt><trkpt lat="41.81529995711174" lon="12.807921412247717"><ele>306.0</ele><time>2026-05-01T15:43:05.999Z</time></trkpt><trkpt lat="41.81496693809418" lon="12.807969638386266"><ele>307.0</ele><time>2026-05-01T15:43:06.999Z</time></trkpt><trkpt lat="41.81463630139092" lon="12.808020528528324"><ele>308.0</ele><time>2026-05-01T15:43:07.999Z</time></trkpt><trkpt lat="41.81430431916847" lon="12.808074625875374"><ele>308.0</ele><time>2026-05-01T15:43:08.999Z</time></trkpt><trkpt lat="41.81397192790848" lon="12.808133373111332"><ele>308.0</ele><time>2026-05-01T15:43:09.999Z</time></trkpt><trkpt lat="41.813640836001824" lon="12.808195394814767"><ele>310.5</ele><time>2026-05-01T15:43:10.999Z</time></trkpt><trkpt lat="41.813311622542685" lon="12.808263096481497"><ele>313.0</ele><time>2026-05-01T15:43:11.999Z</time></trkpt><trkpt lat="41.81298242591915" lon="12.80834005973598"><ele>315.5</ele><time>2026-05-01T15:43:12.999Z</time></trkpt><trkpt lat="41.812653782796346" lon="12.808423864256238"><ele>318.0</ele><time>2026-05-01T15:43:13.999Z</time></trkpt><trkpt lat="41.81232756654673" lon="12.808518577150286"><ele>319.0</ele><time>2026-05-01T15:43:14.999Z</time></trkpt><trkpt lat="41.81200633719372" lon="12.80862990281191"><ele>320.0</ele><time>2026-05-01T15:43:15.999Z</time></trkpt><trkpt lat="41.811687200043764" lon="12.808755407245448"><ele>322.0</ele><time>2026-05-01T15:43:16.999Z</time></trkpt><trkpt lat="41.81137093137288" lon="12.808893417378107"><ele>324.0</ele><time>2026-05-01T15:43:17.999Z</time></trkpt><trkpt lat="41.81105839531007" lon="12.809044011207135"><ele>326.5</ele><time>2026-05-01T15:43:18.999Z</time></trkpt><trkpt lat="41.81074983501866" lon="12.809206680238045"><ele>329.0</ele><time>2026-05-01T15:43:19.999Z</time></trkpt><trkpt lat="41.81044311055665" lon="12.809380678177126"><ele>335.0</ele><time>2026-05-01T15:43:20.999Z</time></trkpt><trkpt lat="41.810139371494" lon="12.809566031587178"><ele>341.0</ele><time>2026-05-01T15:43:21.999Z</time></trkpt><trkpt lat="41.80983996709229" lon="12.809766002371989"><ele>341.0</ele><time>2026-05-01T15:43:22.999Z</time></trkpt><trkpt lat="41.80954631362906" lon="12.809979649045465"><ele>341.0</ele><time>2026-05-01T15:43:23.999Z</time></trkpt><trkpt lat="41.80925841373796" lon="12.810205841853548"><ele>342.5</ele><time>2026-05-01T15:43:24.999Z</time></trkpt><trkpt lat="41.80897438387045" lon="12.810444104923961"><ele>344.0</ele><time>2026-05-01T15:43:25.999Z</time></trkpt><trkpt lat="41.8086969907763" lon="12.810694590469993"><ele>345.0</ele><time>2026-05-01T15:43:26.999Z</time></trkpt><trkpt lat="41.80842512801661" lon="12.81095836758804"><ele>346.0</ele><time>2026-05-01T15:43:27.999Z</time></trkpt><trkpt lat="41.80816008462437" lon="12.811232731458382"><ele>346.5</ele><time>2026-05-01T15:43:28.999Z</time></trkpt><trkpt lat="41.80790212397256" lon="12.811517891916191"><ele>347.0</ele><time>2026-05-01T15:43:29.999Z</time></trkpt><trkpt lat="41.80765274952011" lon="12.811814980266535"><ele>347.0</ele><time>2026-05-01T15:43:30.999Z</time></trkpt><trkpt lat="41.80741509774042" lon="12.812119254610238"><ele>347.0</ele><time>2026-05-01T15:43:31.999Z</time></trkpt><trkpt lat="41.80718672238131" lon="12.812437037907387"><ele>348.5</ele><time>2026-05-01T15:43:32.999Z</time></trkpt><trkpt lat="41.8069604139848" lon="12.812766003185354"><ele>350.0</ele><time>2026-05-01T15:43:33.999Z</time></trkpt><trkpt lat="41.806739851176665" lon="12.813101646667986"><ele>350.5</ele><time>2026-05-01T15:43:34.999Z</time></trkpt><trkpt lat="41.80652406922436" lon="12.813445489288773"><ele>351.0</ele><time>2026-05-01T15:43:35.999Z</time></trkpt><trkpt lat="41.80631491701814" lon="12.813796793936644"><ele>352.0</ele><time>2026-05-01T15:43:36.999Z</time></trkpt><trkpt lat="41.80611083701881" lon="12.814152352625886"><ele>353.0</ele><time>2026-05-01T15:43:37.999Z</time></trkpt><trkpt lat="41.80590817723333" lon="12.814514425011938"><ele>354.0</ele><time>2026-05-01T15:43:38.999Z</time></trkpt><trkpt lat="41.805708150649814" lon="12.81488087038639"><ele>355.0</ele><time>2026-05-01T15:43:39.999Z</time></trkpt><trkpt lat="41.80551101099156" lon="12.81524891259918"><ele>355.5</ele><time>2026-05-01T15:43:40.999Z</time></trkpt><trkpt lat="41.80531483818938" lon="12.815616856961254"><ele>356.0</ele><time>2026-05-01T15:43:41.999Z</time></trkpt><trkpt lat="41.80511975519561" lon="12.815985023409429"><ele>357.5</ele><time>2026-05-01T15:43:42.999Z</time></trkpt><trkpt lat="41.80492594091902" lon="12.816355941573716"><ele>359.0</ele><time>2026-05-01T15:43:43.999Z</time></trkpt><trkpt lat="41.80473158678387" lon="12.816726079116995"><ele>359.0</ele><time>2026-05-01T15:43:44.999Z</time></trkpt><trkpt lat="41.80453680782959" lon="12.817097622263034"><ele>359.0</ele><time>2026-05-01T15:43:45.999Z</time></trkpt><trkpt lat="41.80434186531712" lon="12.81747181236899"><ele>360.5</ele><time>2026-05-01T15:43:46.999Z</time></trkpt><trkpt lat="41.80415036858375" lon="12.817844006706265"><ele>362.0</ele><time>2026-05-01T15:43:47.999Z</time></trkpt><trkpt lat="41.803957828756175" lon="12.818216662472695"><ele>361.0</ele><time>2026-05-01T15:43:48.999Z</time></trkpt><trkpt lat="41.80376522596046" lon="12.818589920498155"><ele>360.0</ele><time>2026-05-01T15:43:49.999Z</time></trkpt><trkpt lat="41.80357168023302" lon="12.818965489968564"><ele>361.5</ele><time>2026-05-01T15:43:50.999Z</time></trkpt><trkpt lat="41.8033797426325" lon="12.819338845846817"><ele>363.0</ele><time>2026-05-01T15:43:51.999Z</time></trkpt><trkpt lat="41.80319043891185" lon="12.819706887546191"><ele>363.0</ele><time>2026-05-01T15:43:52.999Z</time></trkpt><trkpt lat="41.80300316457972" lon="12.820069559569982"><ele>363.0</ele><time>2026-05-01T15:43:53.999Z</time></trkpt><trkpt lat="41.8028182422767" lon="12.820427579830666"><ele>363.0</ele><time>2026-05-01T15:43:54.999Z</time></trkpt><trkpt lat="41.80263036670124" lon="12.820787037978157"><ele>363.0</ele><time>2026-05-01T15:43:55.999Z</time></trkpt><trkpt lat="41.802442840944266" lon="12.821144926612167"><ele>357.0</ele><time>2026-05-01T15:43:56.999Z</time></trkpt><trkpt lat="41.80226041538193" lon="12.82149600662501"><ele>351.0</ele><time>2026-05-01T15:43:57.999Z</time></trkpt><trkpt lat="41.80207548908851" lon="12.821853235170023"><ele>351.0</ele><time>2026-05-01T15:43:58.999Z</time></trkpt><trkpt lat="41.801887565625876" lon="12.822215897121234"><ele>351.0</ele><time>2026-05-01T15:43:59.999Z</time></trkpt><trkpt lat="41.80169777922113" lon="12.82258141865246"><ele>349.5</ele><time>2026-05-01T15:44:00.999Z</time></trkpt><trkpt lat="41.80150854672623" lon="12.822949105890043"><ele>348.0</ele><time>2026-05-01T15:44:01.999Z</time></trkpt><trkpt lat="41.80132166272571" lon="12.823310690726677"><ele>348.5</ele><time>2026-05-01T15:44:02.999Z</time></trkpt><trkpt lat="41.80113647366964" lon="12.823664701981"><ele>349.0</ele><time>2026-05-01T15:44:03.999Z</time></trkpt><trkpt lat="41.800951296324435" lon="12.824018450548301"><ele>353.0</ele><time>2026-05-01T15:44:04.999Z</time></trkpt><trkpt lat="41.8007722147887" lon="12.824367775511996"><ele>357.0</ele><time>2026-05-01T15:44:05.999Z</time></trkpt><trkpt lat="41.800591965827614" lon="12.824719400570194"><ele>357.0</ele><time>2026-05-01T15:44:06.999Z</time></trkpt><trkpt lat="41.800407662648986" lon="12.825074349224765"><ele>357.0</ele><time>2026-05-01T15:44:07.999Z</time></trkpt><trkpt lat="41.80022096411227" lon="12.825434607143054"><ele>358.5</ele><time>2026-05-01T15:44:08.999Z</time></trkpt><trkpt lat="41.80003161898544" lon="12.825802250543152"><ele>360.0</ele><time>2026-05-01T15:44:09.999Z</time></trkpt><trkpt lat="41.79984070418224" lon="12.826172591411078"><ele>361.0</ele><time>2026-05-01T15:44:10.999Z</time></trkpt><trkpt lat="41.79964827573189" lon="12.826545597386755"><ele>362.0</ele><time>2026-05-01T15:44:11.999Z</time></trkpt><trkpt lat="41.79945739006684" lon="12.826914174065529"><ele>364.0</ele><time>2026-05-01T15:44:12.999Z</time></trkpt><trkpt lat="41.799266194742536" lon="12.827281716563988"><ele>366.0</ele><time>2026-05-01T15:44:13.999Z</time></trkpt><trkpt lat="41.799074876109515" lon="12.827649504850134"><ele>367.0</ele><time>2026-05-01T15:44:14.999Z</time></trkpt><trkpt lat="41.7988825338254" lon="12.828018018094767"><ele>368.0</ele><time>2026-05-01T15:44:15.999Z</time></trkpt><trkpt lat="41.7986901894659" lon="12.828387349920257"><ele>370.0</ele><time>2026-05-01T15:44:16.999Z</time></trkpt><trkpt lat="41.79849736895533" lon="12.828759673706791"><ele>372.0</ele><time>2026-05-01T15:44:17.999Z</time></trkpt><trkpt lat="41.79830202388075" lon="12.829135150043733"><ele>373.5</ele><time>2026-05-01T15:44:18.999Z</time></trkpt><trkpt lat="41.79810793711771" lon="12.82950665142038"><ele>375.0</ele><time>2026-05-01T15:44:19.999Z</time></trkpt><trkpt lat="41.797914729963495" lon="12.829878512796792"><ele>375.5</ele><time>2026-05-01T15:44:20.998Z</time></trkpt><trkpt lat="41.79771965688481" lon="12.83024886222035"><ele>376.0</ele><time>2026-05-01T15:44:21.998Z</time></trkpt><trkpt lat="41.79752472194279" lon="12.830619378319877"><ele>373.0</ele><time>2026-05-01T15:44:22.998Z</time></trkpt><trkpt lat="41.7973304236456" lon="12.830991406983552"><ele>370.0</ele><time>2026-05-01T15:44:23.998Z</time></trkpt><trkpt lat="41.79713657741982" lon="12.831367022538696"><ele>370.0</ele><time>2026-05-01T15:44:24.998Z</time></trkpt><trkpt lat="41.796942249502116" lon="12.831743450560134"><ele>370.0</ele><time>2026-05-01T15:44:25.998Z</time></trkpt><trkpt lat="41.79674810888899" lon="12.832121081314938"><ele>367.0</ele><time>2026-05-01T15:44:26.998Z</time></trkpt><trkpt lat="41.79655408876242" lon="12.832496667197004"><ele>364.0</ele><time>2026-05-01T15:44:27.998Z</time></trkpt><trkpt lat="41.79636055448809" lon="12.832868811852544"><ele>362.5</ele><time>2026-05-01T15:44:28.998Z</time></trkpt><trkpt lat="41.796167625973936" lon="12.83323890412386"><ele>361.0</ele><time>2026-05-01T15:44:29.998Z</time></trkpt><trkpt lat="41.79597423468659" lon="12.833608940808322"><ele>361.0</ele><time>2026-05-01T15:44:31Z</time></trkpt><trkpt lat="41.79578192612072" lon="12.833978059768711"><ele>361.0</ele><time>2026-05-01T15:44:32Z</time></trkpt><trkpt lat="41.79559064879141" lon="12.834348609589052"><ele>363.5</ele><time>2026-05-01T15:44:33Z</time></trkpt><trkpt lat="41.79539817175892" lon="12.834718732722777"><ele>366.0</ele><time>2026-05-01T15:44:34Z</time></trkpt><trkpt lat="41.7952045054196" lon="12.83508924328723"><ele>368.5</ele><time>2026-05-01T15:44:35Z</time></trkpt><trkpt lat="41.7950079560851" lon="12.835462507907382"><ele>371.0</ele><time>2026-05-01T15:44:36Z</time></trkpt><trkpt lat="41.79480886772683" lon="12.835834340198131"><ele>371.0</ele><time>2026-05-01T15:44:37Z</time></trkpt><trkpt lat="41.7946077327217" lon="12.836206153454905"><ele>371.0</ele><time>2026-05-01T15:44:38Z</time></trkpt><trkpt lat="41.79440444587078" lon="12.836577329832629"><ele>370.5</ele><time>2026-05-01T15:44:39Z</time></trkpt><trkpt lat="41.7941986638758" lon="12.836945444042682"><ele>370.0</ele><time>2026-05-01T15:44:40Z</time></trkpt><trkpt lat="41.79399370141321" lon="12.83730719889162"><ele>370.0</ele><time>2026-05-01T15:44:41Z</time></trkpt><trkpt lat="41.79378992015194" lon="12.837664614631075"><ele>370.0</ele><time>2026-05-01T15:44:42Z</time></trkpt><trkpt lat="41.79358353232195" lon="12.838023798298158"><ele>369.0</ele><time>2026-05-01T15:44:43Z</time></trkpt><trkpt lat="41.793379160714856" lon="12.838381014839893"><ele>368.0</ele><time>2026-05-01T15:44:44Z</time></trkpt><trkpt lat="41.79317497753714" lon="12.838738470345309"><ele>368.0</ele><time>2026-05-01T15:44:45Z</time></trkpt><trkpt lat="41.792971393128916" lon="12.839094315243566"><ele>368.0</ele><time>2026-05-01T15:44:46Z</time></trkpt><trkpt lat="41.79276930623456" lon="12.83944850380943"><ele>363.5</ele><time>2026-05-01T15:44:47Z</time></trkpt><trkpt lat="41.792569421736786" lon="12.839799819796"><ele>359.0</ele><time>2026-05-01T15:44:48Z</time></trkpt><trkpt lat="41.79237054994903" lon="12.840149460483062"><ele>358.0</ele><time>2026-05-01T15:44:49Z</time></trkpt><trkpt lat="41.792174255113416" lon="12.840494935357544"><ele>357.0</ele><time>2026-05-01T15:44:50Z</time></trkpt><trkpt lat="41.79198135501172" lon="12.840836339799337"><ele>355.0</ele><time>2026-05-01T15:44:51Z</time></trkpt><trkpt lat="41.791790129866136" lon="12.84117601826072"><ele>353.0</ele><time>2026-05-01T15:44:52Z</time></trkpt><trkpt lat="41.79160102412696" lon="12.841512389452504"><ele>351.5</ele><time>2026-05-01T15:44:53Z</time></trkpt><trkpt lat="41.79140844379913" lon="12.841852908508624"><ele>350.0</ele><time>2026-05-01T15:44:54Z</time></trkpt><trkpt lat="41.7912154529306" lon="12.84219394944037"><ele>350.0</ele><time>2026-05-01T15:44:55Z</time></trkpt><trkpt lat="41.791025078429236" lon="12.842530227846492"><ele>350.0</ele><time>2026-05-01T15:44:56Z</time></trkpt><trkpt lat="41.790830649341366" lon="12.842877523339382"><ele>349.5</ele><time>2026-05-01T15:44:57Z</time></trkpt><trkpt lat="41.790635021618215" lon="12.843234992225833"><ele>349.0</ele><time>2026-05-01T15:44:58Z</time></trkpt><trkpt lat="41.79044353581038" lon="12.84359119628561"><ele>349.0</ele><time>2026-05-01T15:44:59Z</time></trkpt><trkpt lat="41.790250592767904" lon="12.843945019328704"><ele>349.0</ele><time>2026-05-01T15:45:00Z</time></trkpt><trkpt lat="41.790053115156184" lon="12.844298336475227"><ele>353.5</ele><time>2026-05-01T15:45:01Z</time></trkpt><trkpt lat="41.78985329280289" lon="12.844651162562219"><ele>358.0</ele><time>2026-05-01T15:45:02Z</time></trkpt><trkpt lat="41.78965284987517" lon="12.845004207651682"><ele>358.0</ele><time>2026-05-01T15:45:03Z</time></trkpt><trkpt lat="41.78945055558825" lon="12.845359221699937"><ele>358.0</ele><time>2026-05-01T15:45:04Z</time></trkpt><trkpt lat="41.78924977943602" lon="12.845713045578218"><ele>358.5</ele><time>2026-05-01T15:45:05Z</time></trkpt><trkpt lat="41.789048626854296" lon="12.84606659023407"><ele>359.0</ele><time>2026-05-01T15:45:06Z</time></trkpt><trkpt lat="41.788847095387425" lon="12.846419946330128"><ele>359.0</ele><time>2026-05-01T15:45:07Z</time></trkpt><trkpt lat="41.78864604746271" lon="12.846769472314378"><ele>359.0</ele><time>2026-05-01T15:45:08Z</time></trkpt><trkpt lat="41.78844463143432" lon="12.847119355568543"><ele>360.5</ele><time>2026-05-01T15:45:09Z</time></trkpt><trkpt lat="41.78824449802398" lon="12.847468509964248"><ele>362.0</ele><time>2026-05-01T15:45:10Z</time></trkpt><trkpt lat="41.7880430238482" lon="12.847819319462133"><ele>357.5</ele><time>2026-05-01T15:45:11Z</time></trkpt><trkpt lat="41.787840625361774" lon="12.848169576014055"><ele>353.0</ele><time>2026-05-01T15:45:12Z</time></trkpt><trkpt lat="41.78763853441239" lon="12.848520496111695"><ele>351.5</ele><time>2026-05-01T15:45:13Z</time></trkpt><trkpt lat="41.78743760345788" lon="12.848872439574544"><ele>350.0</ele><time>2026-05-01T15:45:13.999Z</time></trkpt><trkpt lat="41.78723626443064" lon="12.849224661172032"><ele>350.5</ele><time>2026-05-01T15:45:14.999Z</time></trkpt><trkpt lat="41.78703245367078" lon="12.849577649788126"><ele>351.0</ele><time>2026-05-01T15:45:15.999Z</time></trkpt><trkpt lat="41.786829086290496" lon="12.849931214118287"><ele>348.5</ele><time>2026-05-01T15:45:16.999Z</time></trkpt><trkpt lat="41.78662491200407" lon="12.85028659981988"><ele>346.0</ele><time>2026-05-01T15:45:17.999Z</time></trkpt><trkpt lat="41.78641909099583" lon="12.85064434948172"><ele>345.5</ele><time>2026-05-01T15:45:18.999Z</time></trkpt><trkpt lat="41.78621565411941" lon="12.851000718381384"><ele>345.0</ele><time>2026-05-01T15:45:19.999Z</time></trkpt><trkpt lat="41.78601385952925" lon="12.851358326207666"><ele>344.0</ele><time>2026-05-01T15:45:20.999Z</time></trkpt><trkpt lat="41.785811641993625" lon="12.851718046514842"><ele>343.0</ele><time>2026-05-01T15:45:21.999Z</time></trkpt><trkpt lat="41.785608276492724" lon="12.85207922684219"><ele>342.5</ele><time>2026-05-01T15:45:22.999Z</time></trkpt><trkpt lat="41.78540454776839" lon="12.852440246948603"><ele>342.0</ele><time>2026-05-01T15:45:23.999Z</time></trkpt><trkpt lat="41.78520101451461" lon="12.852802593375861"><ele>347.5</ele><time>2026-05-01T15:45:24.999Z</time></trkpt><trkpt lat="41.784995866363005" lon="12.85316588089875"><ele>353.0</ele><time>2026-05-01T15:45:25.999Z</time></trkpt><trkpt lat="41.78478909435794" lon="12.853530829564516"><ele>356.0</ele><time>2026-05-01T15:45:26.999Z</time></trkpt><trkpt lat="41.78458317975244" lon="12.853895117161914"><ele>359.0</ele><time>2026-05-01T15:45:27.999Z</time></trkpt><trkpt lat="41.784377130792834" lon="12.854260927596659"><ele>360.0</ele><time>2026-05-01T15:45:28.999Z</time></trkpt><trkpt lat="41.78417089231124" lon="12.85462923782837"><ele>361.0</ele><time>2026-05-01T15:45:29.999Z</time></trkpt><trkpt lat="41.783965066622095" lon="12.854996162580573"><ele>363.5</ele><time>2026-05-01T15:45:30.999Z</time></trkpt><trkpt lat="41.783761866218896" lon="12.855358282854546"><ele>366.0</ele><time>2026-05-01T15:45:31.999Z</time></trkpt><trkpt lat="41.78355966755824" lon="12.855719612453049"><ele>365.0</ele><time>2026-05-01T15:45:32.999Z</time></trkpt><trkpt lat="41.783358635624396" lon="12.856076141275173"><ele>364.0</ele><time>2026-05-01T15:45:33.999Z</time></trkpt><trkpt lat="41.78315669748648" lon="12.85642881681841"><ele>364.0</ele><time>2026-05-01T15:45:34.999Z</time></trkpt><trkpt lat="41.78295583954847" lon="12.856780345696281"><ele>364.0</ele><time>2026-05-01T15:45:35.999Z</time></trkpt><trkpt lat="41.78275587634256" lon="12.85713362340596"><ele>363.5</ele><time>2026-05-01T15:45:36.999Z</time></trkpt><trkpt lat="41.78255810858835" lon="12.857485993479667"><ele>363.0</ele><time>2026-05-01T15:45:37.999Z</time></trkpt><trkpt lat="41.78235879052372" lon="12.857840269836531"><ele>359.5</ele><time>2026-05-01T15:45:38.999Z</time></trkpt><trkpt lat="41.78215992909965" lon="12.858196805240164"><ele>356.0</ele><time>2026-05-01T15:45:39.999Z</time></trkpt><trkpt lat="41.78196335303597" lon="12.85855776602675"><ele>355.5</ele><time>2026-05-01T15:45:40.999Z</time></trkpt><trkpt lat="41.781771086384666" lon="12.858923271693188"><ele>355.0</ele><time>2026-05-01T15:45:41.999Z</time></trkpt><trkpt lat="41.781582251249034" lon="12.859291770633291"><ele>359.5</ele><time>2026-05-01T15:45:42.999Z</time></trkpt><trkpt lat="41.7813985914991" lon="12.85966510833642"><ele>364.0</ele><time>2026-05-01T15:45:43.999Z</time></trkpt><trkpt lat="41.78121944131522" lon="12.860040458310856"><ele>364.5</ele><time>2026-05-01T15:45:44.999Z</time></trkpt><trkpt lat="41.78104305462255" lon="12.86042075154772"><ele>365.0</ele><time>2026-05-01T15:45:45.999Z</time></trkpt><trkpt lat="41.780870112694075" lon="12.860806316127801"><ele>362.0</ele><time>2026-05-01T15:45:46.999Z</time></trkpt><trkpt lat="41.7807005471288" lon="12.861198518551966"><ele>359.0</ele><time>2026-05-01T15:45:47.999Z</time></trkpt><trkpt lat="41.78053642694134" lon="12.861592811269789"><ele>359.5</ele><time>2026-05-01T15:45:48.999Z</time></trkpt><trkpt lat="41.78037517722083" lon="12.861990444114841"><ele>360.0</ele><time>2026-05-01T15:45:49.999Z</time></trkpt><trkpt lat="41.78021990420993" lon="12.862390523476764"><ele>361.0</ele><time>2026-05-01T15:45:50.999Z</time></trkpt><trkpt lat="41.780069288113495" lon="12.862794200090594"><ele>362.0</ele><time>2026-05-01T15:45:51.999Z</time></trkpt><trkpt lat="41.77992376403503" lon="12.863202165081868"><ele>361.5</ele><time>2026-05-01T15:45:52.999Z</time></trkpt><trkpt lat="41.77978379582551" lon="12.863612252488515"><ele>361.0</ele><time>2026-05-01T15:45:53.999Z</time></trkpt><trkpt lat="41.779648113860915" lon="12.864027071969485"><ele>360.5</ele><time>2026-05-01T15:45:54.999Z</time></trkpt><trkpt lat="41.7795156315361" lon="12.86444053874624"><ele>360.0</ele><time>2026-05-01T15:45:55.999Z</time></trkpt><trkpt lat="41.77938832103171" lon="12.864857339652863"><ele>358.0</ele><time>2026-05-01T15:45:56.999Z</time></trkpt><trkpt lat="41.77926475435564" lon="12.865277328332036"><ele>356.0</ele><time>2026-05-01T15:45:57.999Z</time></trkpt><trkpt lat="41.77914568560577" lon="12.865698683513152"><ele>354.0</ele><time>2026-05-01T15:45:58.999Z</time></trkpt><trkpt lat="41.779032320993466" lon="12.866121158883912"><ele>352.0</ele><time>2026-05-01T15:45:59.999Z</time></trkpt><trkpt lat="41.77892444028387" lon="12.866546763784939"><ele>353.5</ele><time>2026-05-01T15:46:00.999Z</time></trkpt><trkpt lat="41.778821114498506" lon="12.86697594827556"><ele>355.0</ele><time>2026-05-01T15:46:01.999Z</time></trkpt><trkpt lat="41.77872133656619" lon="12.867405618921946"><ele>354.0</ele><time>2026-05-01T15:46:02.999Z</time></trkpt><trkpt lat="41.77862576896893" lon="12.867836941061196"><ele>353.0</ele><time>2026-05-01T15:46:03.999Z</time></trkpt><trkpt lat="41.778532648042244" lon="12.86826819824082"><ele>349.5</ele><time>2026-05-01T15:46:04.999Z</time></trkpt><trkpt lat="41.77843810156532" lon="12.868699382554045"><ele>346.0</ele><time>2026-05-01T15:46:05.999Z</time></trkpt><trkpt lat="41.77834319425231" lon="12.869131236566895"><ele>347.0</ele><time>2026-05-01T15:46:06.999Z</time></trkpt><trkpt lat="41.778247348240804" lon="12.869563545835664"><ele>348.0</ele><time>2026-05-01T15:46:07.999Z</time></trkpt><trkpt lat="41.7781505671534" lon="12.869995106736573"><ele>347.5</ele><time>2026-05-01T15:46:08.999Z</time></trkpt><trkpt lat="41.77805412843917" lon="12.870427319289226"><ele>347.0</ele><time>2026-05-01T15:46:09.999Z</time></trkpt><trkpt lat="41.777959472753544" lon="12.870860416301243"><ele>345.5</ele><time>2026-05-01T15:46:10.999Z</time></trkpt><trkpt lat="41.777864676627516" lon="12.87129217248395"><ele>344.0</ele><time>2026-05-01T15:46:11.999Z</time></trkpt><trkpt lat="41.77777003405726" lon="12.871725096344342"><ele>341.0</ele><time>2026-05-01T15:46:12.999Z</time></trkpt><trkpt lat="41.77767629547512" lon="12.872159705497191"><ele>338.0</ele><time>2026-05-01T15:46:13.999Z</time></trkpt><trkpt lat="41.777584934700144" lon="12.872592474692304"><ele>338.0</ele><time>2026-05-01T15:46:14.999Z</time></trkpt><trkpt lat="41.77749068192668" lon="12.87302293872415"><ele>338.0</ele><time>2026-05-01T15:46:15.999Z</time></trkpt><trkpt lat="41.77739592297105" lon="12.873455040357877"><ele>342.0</ele><time>2026-05-01T15:46:16.999Z</time></trkpt><trkpt lat="41.77729681097406" lon="12.873884648999194"><ele>346.0</ele><time>2026-05-01T15:46:17.999Z</time></trkpt><trkpt lat="41.77720052336541" lon="12.87431408340989"><ele>347.5</ele><time>2026-05-01T15:46:18.999Z</time></trkpt><trkpt lat="41.777108652801175" lon="12.874742217852038"><ele>349.0</ele><time>2026-05-01T15:46:19.999Z</time></trkpt><trkpt lat="41.777015945878446" lon="12.875170581722431"><ele>349.5</ele><time>2026-05-01T15:46:20.999Z</time></trkpt><trkpt lat="41.776927977199875" lon="12.875597596816151"><ele>350.0</ele><time>2026-05-01T15:46:21.999Z</time></trkpt><trkpt lat="41.77683520518019" lon="12.876026073639384"><ele>346.0</ele><time>2026-05-01T15:46:22.999Z</time></trkpt><trkpt lat="41.7767416226087" lon="12.876454049621248"><ele>342.0</ele><time>2026-05-01T15:46:23.999Z</time></trkpt><trkpt lat="41.776649573553335" lon="12.876884977702298"><ele>342.0</ele><time>2026-05-01T15:46:24.999Z</time></trkpt><trkpt lat="41.77655758129563" lon="12.877314104555866"><ele>342.0</ele><time>2026-05-01T15:46:25.999Z</time></trkpt><trkpt lat="41.77646324595442" lon="12.877742780827475"><ele>342.5</ele><time>2026-05-01T15:46:26.999Z</time></trkpt><trkpt lat="41.776367637790585" lon="12.878169514180579"><ele>343.0</ele><time>2026-05-01T15:46:27.999Z</time></trkpt><trkpt lat="41.77627151522338" lon="12.878597507243024"><ele>343.5</ele><time>2026-05-01T15:46:28.999Z</time></trkpt><trkpt lat="41.77617356891575" lon="12.879026086614017"><ele>344.0</ele><time>2026-05-01T15:46:29.999Z</time></trkpt><trkpt lat="41.776077624994" lon="12.879453561690463"><ele>341.5</ele><time>2026-05-01T15:46:30.999Z</time></trkpt><trkpt lat="41.77598055788971" lon="12.879882554525912"><ele>339.0</ele><time>2026-05-01T15:46:31.999Z</time></trkpt><trkpt lat="41.77588446822534" lon="12.880312710314252"><ele>339.0</ele><time>2026-05-01T15:46:32.999Z</time></trkpt><trkpt lat="41.775788441320316" lon="12.88074258214426"><ele>339.0</ele><time>2026-05-01T15:46:33.999Z</time></trkpt><trkpt lat="41.77569199263892" lon="12.88117213083764"><ele>339.0</ele><time>2026-05-01T15:46:34.999Z</time></trkpt><trkpt lat="41.77559629262584" lon="12.881603654098148"><ele>339.0</ele><time>2026-05-01T15:46:35.999Z</time></trkpt><trkpt lat="41.7754993571" lon="12.882035858977902"><ele>339.0</ele><time>2026-05-01T15:46:37Z</time></trkpt><trkpt lat="41.77540570977668" lon="12.882470261929907"><ele>339.0</ele><time>2026-05-01T15:46:38Z</time></trkpt><trkpt lat="41.77531062806346" lon="12.88290207302529"><ele>339.0</ele><time>2026-05-01T15:46:39Z</time></trkpt><trkpt lat="41.775213400649555" lon="12.88333089277121"><ele>339.0</ele><time>2026-05-01T15:46:40Z</time></trkpt><trkpt lat="41.77511947051706" lon="12.88376203499563"><ele>337.0</ele><time>2026-05-01T15:46:41Z</time></trkpt><trkpt lat="41.77502525947193" lon="12.884189649270034"><ele>335.0</ele><time>2026-05-01T15:46:42Z</time></trkpt><trkpt lat="41.774931250431386" lon="12.884616380130458"><ele>332.5</ele><time>2026-05-01T15:46:43Z</time></trkpt><trkpt lat="41.77484019463806" lon="12.885045368022272"><ele>330.0</ele><time>2026-05-01T15:46:44Z</time></trkpt><trkpt lat="41.77474682213826" lon="12.885472974218137"><ele>328.0</ele><time>2026-05-01T15:46:45Z</time></trkpt><trkpt lat="41.774654426738955" lon="12.885897205450984"><ele>326.0</ele><time>2026-05-01T15:46:46Z</time></trkpt><trkpt lat="41.77456010300517" lon="12.886321805531447"><ele>324.5</ele><time>2026-05-01T15:46:47Z</time></trkpt><trkpt lat="41.774466797863234" lon="12.886748585454521"><ele>323.0</ele><time>2026-05-01T15:46:48Z</time></trkpt><trkpt lat="41.77437357572162" lon="12.88717444595785"><ele>324.5</ele><time>2026-05-01T15:46:49Z</time></trkpt><trkpt lat="41.774280241663675" lon="12.887600168498356"><ele>326.0</ele><time>2026-05-01T15:46:50Z</time></trkpt><trkpt lat="41.77418848898899" lon="12.888026750738193"><ele>325.5</ele><time>2026-05-01T15:46:51Z</time></trkpt><trkpt lat="41.77409329478654" lon="12.888454554703012"><ele>325.0</ele><time>2026-05-01T15:46:52Z</time></trkpt><trkpt lat="41.773997602679074" lon="12.888880161066181"><ele>324.5</ele><time>2026-05-01T15:46:53Z</time></trkpt><trkpt lat="41.773904966219455" lon="12.889308201515647"><ele>324.0</ele><time>2026-05-01T15:46:54Z</time></trkpt><trkpt lat="41.773813592105434" lon="12.889736933487274"><ele>322.5</ele><time>2026-05-01T15:46:55Z</time></trkpt><trkpt lat="41.773716902055305" lon="12.890164169988356"><ele>321.0</ele><time>2026-05-01T15:46:56Z</time></trkpt><trkpt lat="41.77362246409719" lon="12.890592615095654"><ele>321.5</ele><time>2026-05-01T15:46:57Z</time></trkpt><trkpt lat="41.77352905300572" lon="12.891019758801042"><ele>322.0</ele><time>2026-05-01T15:46:58Z</time></trkpt><trkpt lat="41.773435947910166" lon="12.891447519779222"><ele>320.0</ele><time>2026-05-01T15:46:59Z</time></trkpt><trkpt lat="41.77334431284056" lon="12.89187430106608"><ele>318.0</ele><time>2026-05-01T15:47:00Z</time></trkpt><trkpt lat="41.773251292117095" lon="12.892295174474727"><ele>317.0</ele><time>2026-05-01T15:47:01Z</time></trkpt><trkpt lat="41.77315831691453" lon="12.892711115627263"><ele>316.0</ele><time>2026-05-01T15:47:02Z</time></trkpt><trkpt lat="41.77306331891315" lon="12.89312896434255"><ele>315.0</ele><time>2026-05-01T15:47:03Z</time></trkpt><trkpt lat="41.772969757889534" lon="12.89355026484869"><ele>314.0</ele><time>2026-05-01T15:47:04Z</time></trkpt><trkpt lat="41.77287986153257" lon="12.893975291375803"><ele>314.5</ele><time>2026-05-01T15:47:05Z</time></trkpt><trkpt lat="41.77279057814069" lon="12.894399950273975"><ele>315.0</ele><time>2026-05-01T15:47:06Z</time></trkpt><trkpt lat="41.77269777786445" lon="12.894830221241664"><ele>317.0</ele><time>2026-05-01T15:47:07Z</time></trkpt><trkpt lat="41.77260691495582" lon="12.895261278854475"><ele>319.0</ele><time>2026-05-01T15:47:08Z</time></trkpt><trkpt lat="41.77251552298843" lon="12.895689249522745"><ele>316.5</ele><time>2026-05-01T15:47:09Z</time></trkpt><trkpt lat="41.77242801180709" lon="12.896117076505956"><ele>314.0</ele><time>2026-05-01T15:47:10Z</time></trkpt><trkpt lat="41.77233762276108" lon="12.896543066976884"><ele>313.0</ele><time>2026-05-01T15:47:11Z</time></trkpt><trkpt lat="41.77224791666655" lon="12.896967336790572"><ele>312.0</ele><time>2026-05-01T15:47:12Z</time></trkpt><trkpt lat="41.77215386487431" lon="12.897386919949257"><ele>311.5</ele><time>2026-05-01T15:47:13Z</time></trkpt><trkpt lat="41.772061249738435" lon="12.897805326065741"><ele>311.0</ele><time>2026-05-01T15:47:14Z</time></trkpt><trkpt lat="41.77197023385363" lon="12.898226078876547"><ele>309.5</ele><time>2026-05-01T15:47:15Z</time></trkpt><trkpt lat="41.77187680981035" lon="12.898646440854764"><ele>308.0</ele><time>2026-05-01T15:47:16Z</time></trkpt><trkpt lat="41.77178348715038" lon="12.899067746994753"><ele>312.5</ele><time>2026-05-01T15:47:17Z</time></trkpt><trkpt lat="41.771690018200246" lon="12.899490460714789"><ele>317.0</ele><time>2026-05-01T15:47:18Z</time></trkpt><trkpt lat="41.7715958367291" lon="12.899915929744282"><ele>316.5</ele><time>2026-05-01T15:47:19Z</time></trkpt><trkpt lat="41.77149787149111" lon="12.900341710371361"><ele>316.0</ele><time>2026-05-01T15:47:20Z</time></trkpt><trkpt lat="41.77140205060315" lon="12.900767811266569"><ele>314.5</ele><time>2026-05-01T15:47:21Z</time></trkpt><trkpt lat="41.77130499033741" lon="12.901194212563594"><ele>313.0</ele><time>2026-05-01T15:47:21.999Z</time></trkpt><trkpt lat="41.77120940990737" lon="12.90162051624777"><ele>312.0</ele><time>2026-05-01T15:47:22.999Z</time></trkpt><trkpt lat="41.77111258135525" lon="12.902048822466867"><ele>311.0</ele><time>2026-05-01T15:47:23.999Z</time></trkpt><trkpt lat="41.771016411679206" lon="12.902475964996833"><ele>309.5</ele><time>2026-05-01T15:47:24.999Z</time></trkpt><trkpt lat="41.77092144246782" lon="12.902904574504225"><ele>308.0</ele><time>2026-05-01T15:47:25.999Z</time></trkpt><trkpt lat="41.77082785394671" lon="12.90333070915222"><ele>306.5</ele><time>2026-05-01T15:47:26.999Z</time></trkpt><trkpt lat="41.77073622641881" lon="12.903759656023471"><ele>305.0</ele><time>2026-05-01T15:47:27.999Z</time></trkpt><trkpt lat="41.77063912448327" lon="12.90418978341575"><ele>303.5</ele><time>2026-05-01T15:47:28.999Z</time></trkpt><trkpt lat="41.77054596256775" lon="12.904620499018646"><ele>302.0</ele><time>2026-05-01T15:47:29.999Z</time></trkpt><trkpt lat="41.770449866284665" lon="12.905049688221554"><ele>300.0</ele><time>2026-05-01T15:47:30.999Z</time></trkpt><trkpt lat="41.77035274333331" lon="12.905479238581444"><ele>298.0</ele><time>2026-05-01T15:47:31.999Z</time></trkpt><trkpt lat="41.77025707781413" lon="12.905910116475754"><ele>300.0</ele><time>2026-05-01T15:47:32.999Z</time></trkpt><trkpt lat="41.77016088758054" lon="12.906339711527306"><ele>302.0</ele><time>2026-05-01T15:47:33.999Z</time></trkpt><trkpt lat="41.77006273425736" lon="12.906770430626345"><ele>302.0</ele><time>2026-05-01T15:47:34.999Z</time></trkpt><trkpt lat="41.76996734202987" lon="12.907201822990391"><ele>302.0</ele><time>2026-05-01T15:47:35.999Z</time></trkpt><trkpt lat="41.76986987046295" lon="12.907633555582594"><ele>299.5</ele><time>2026-05-01T15:47:36.999Z</time></trkpt><trkpt lat="41.769774025920086" lon="12.908062959120205"><ele>297.0</ele><time>2026-05-01T15:47:37.999Z</time></trkpt><trkpt lat="41.76968231180504" lon="12.908493787680923"><ele>297.0</ele><time>2026-05-01T15:47:38.999Z</time></trkpt><trkpt lat="41.76958511892401" lon="12.908923759311989"><ele>297.0</ele><time>2026-05-01T15:47:39.999Z</time></trkpt><trkpt lat="41.769492396288896" lon="12.909356233131328"><ele>297.0</ele><time>2026-05-01T15:47:40.999Z</time></trkpt><trkpt lat="41.76939852545462" lon="12.909787921752443"><ele>297.0</ele><time>2026-05-01T15:47:41.999Z</time></trkpt><trkpt lat="41.76930163381615" lon="12.910219946749645"><ele>297.0</ele><time>2026-05-01T15:47:42.999Z</time></trkpt><trkpt lat="41.769205619471286" lon="12.910652045135619"><ele>297.0</ele><time>2026-05-01T15:47:43.999Z</time></trkpt><trkpt lat="41.76911065154292" lon="12.911084134615454"><ele>297.0</ele><time>2026-05-01T15:47:44.999Z</time></trkpt><trkpt lat="41.76901515586872" lon="12.911515316813274"><ele>297.0</ele><time>2026-05-01T15:47:45.999Z</time></trkpt><trkpt lat="41.768921385573094" lon="12.911946369266058"><ele>299.5</ele><time>2026-05-01T15:47:46.999Z</time></trkpt><trkpt lat="41.76882551313249" lon="12.91237469599837"><ele>302.0</ele><time>2026-05-01T15:47:47.999Z</time></trkpt><trkpt lat="41.76873087110663" lon="12.912803935227082"><ele>302.5</ele><time>2026-05-01T15:47:48.999Z</time></trkpt><trkpt lat="41.76863787206685" lon="12.913234726090234"><ele>303.0</ele><time>2026-05-01T15:47:49.999Z</time></trkpt><trkpt lat="41.76854067627164" lon="12.91366506653416"><ele>296.5</ele><time>2026-05-01T15:47:50.999Z</time></trkpt><trkpt lat="41.76844602219188" lon="12.914096323565357"><ele>290.0</ele><time>2026-05-01T15:47:51.999Z</time></trkpt><trkpt lat="41.76835108413638" lon="12.914526036105247"><ele>290.0</ele><time>2026-05-01T15:47:52.999Z</time></trkpt><trkpt lat="41.76825441574066" lon="12.91495661282136"><ele>290.0</ele><time>2026-05-01T15:47:53.999Z</time></trkpt><trkpt lat="41.76815831603492" lon="12.915388024717354"><ele>290.0</ele><time>2026-05-01T15:47:54.999Z</time></trkpt><trkpt lat="41.76806167700175" lon="12.915817263600355"><ele>290.0</ele><time>2026-05-01T15:47:55.999Z</time></trkpt><trkpt lat="41.76796674806539" lon="12.916247199074336"><ele>290.0</ele><time>2026-05-01T15:47:56.999Z</time></trkpt><trkpt lat="41.76787142985546" lon="12.916676917022228"><ele>290.0</ele><time>2026-05-01T15:47:57.999Z</time></trkpt><trkpt lat="41.767777614937984" lon="12.917108025720957"><ele>288.5</ele><time>2026-05-01T15:47:58.999Z</time></trkpt><trkpt lat="41.76768403535072" lon="12.917540111227881"><ele>287.0</ele><time>2026-05-01T15:47:59.999Z</time></trkpt><trkpt lat="41.76758987272406" lon="12.917970925674869"><ele>286.0</ele><time>2026-05-01T15:48:00.999Z</time></trkpt><trkpt lat="41.76749903379379" lon="12.918405550660747"><ele>285.0</ele><time>2026-05-01T15:48:01.999Z</time></trkpt><trkpt lat="41.76740173953171" lon="12.918834445923078"><ele>284.5</ele><time>2026-05-01T15:48:02.999Z</time></trkpt><trkpt lat="41.76730632007222" lon="12.919265242372102"><ele>284.0</ele><time>2026-05-01T15:48:03.999Z</time></trkpt><trkpt lat="41.76721348736343" lon="12.919695992609563"><ele>283.0</ele><time>2026-05-01T15:48:04.999Z</time></trkpt><trkpt lat="41.767118653861296" lon="12.920125682231722"><ele>282.0</ele><time>2026-05-01T15:48:05.999Z</time></trkpt><trkpt lat="41.76702432973949" lon="12.920556059489563"><ele>283.0</ele><time>2026-05-01T15:48:06.999Z</time></trkpt><trkpt lat="41.766933014737894" lon="12.920980514036302"><ele>284.0</ele><time>2026-05-01T15:48:07.999Z</time></trkpt><trkpt lat="41.76684421945962" lon="12.92140326773299"><ele>283.5</ele><time>2026-05-01T15:48:08.999Z</time></trkpt><trkpt lat="41.766755050511954" lon="12.921831981607632"><ele>283.0</ele><time>2026-05-01T15:48:09.999Z</time></trkpt><trkpt lat="41.76666108725279" lon="12.922261754411858"><ele>284.5</ele><time>2026-05-01T15:48:10.999Z</time></trkpt><trkpt lat="41.7665693382668" lon="12.922694971150424"><ele>286.0</ele><time>2026-05-01T15:48:11.999Z</time></trkpt><trkpt lat="41.766472986922174" lon="12.923125545892644"><ele>284.5</ele><time>2026-05-01T15:48:12.999Z</time></trkpt><trkpt lat="41.766376957866456" lon="12.9235576495392"><ele>283.0</ele><time>2026-05-01T15:48:13.999Z</time></trkpt><trkpt lat="41.766280748510496" lon="12.92398932995723"><ele>281.0</ele><time>2026-05-01T15:48:14.999Z</time></trkpt><trkpt lat="41.766183606978316" lon="12.924418939100764"><ele>279.0</ele><time>2026-05-01T15:48:15.999Z</time></trkpt><trkpt lat="41.766089560130084" lon="12.92484767136319"><ele>282.5</ele><time>2026-05-01T15:48:16.999Z</time></trkpt><trkpt lat="41.765995438125316" lon="12.925277677341272"><ele>286.0</ele><time>2026-05-01T15:48:17.999Z</time></trkpt><trkpt lat="41.76589983564932" lon="12.92570897173843"><ele>284.0</ele><time>2026-05-01T15:48:18.999Z</time></trkpt><trkpt lat="41.76580243816805" lon="12.926137383154783"><ele>282.0</ele><time>2026-05-01T15:48:19.999Z</time></trkpt><trkpt lat="41.765707243611374" lon="12.926567825609938"><ele>280.0</ele><time>2026-05-01T15:48:20.999Z</time></trkpt><trkpt lat="41.765611003839005" lon="12.926997796873257"><ele>278.0</ele><time>2026-05-01T15:48:21.999Z</time></trkpt><trkpt lat="41.765518238296664" lon="12.927428295697693"><ele>276.0</ele><time>2026-05-01T15:48:22.999Z</time></trkpt><trkpt lat="41.76542257275217" lon="12.927858594155238"><ele>274.0</ele><time>2026-05-01T15:48:23.999Z</time></trkpt><trkpt lat="41.76532824929443" lon="12.928288957539882"><ele>273.0</ele><time>2026-05-01T15:48:24.999Z</time></trkpt><trkpt lat="41.765236109254325" lon="12.928720235751943"><ele>272.0</ele><time>2026-05-01T15:48:25.999Z</time></trkpt><trkpt lat="41.76514230321119" lon="12.929151688625334"><ele>272.0</ele><time>2026-05-01T15:48:26.999Z</time></trkpt><trkpt lat="41.765049278885556" lon="12.92958239717679"><ele>272.0</ele><time>2026-05-01T15:48:27.999Z</time></trkpt><trkpt lat="41.76495362013129" lon="12.930013249563109"><ele>271.5</ele><time>2026-05-01T15:48:28.999Z</time></trkpt><trkpt lat="41.76485887201703" lon="12.930445121307205"><ele>271.0</ele><time>2026-05-01T15:48:29.999Z</time></trkpt><trkpt lat="41.764764916039645" lon="12.930877434123092"><ele>270.5</ele><time>2026-05-01T15:48:30.999Z</time></trkpt><trkpt lat="41.764670755786184" lon="12.931308892630048"><ele>270.0</ele><time>2026-05-01T15:48:31.999Z</time></trkpt><trkpt lat="41.76457359030162" lon="12.93173992266975"><ele>271.5</ele><time>2026-05-01T15:48:32.999Z</time></trkpt><trkpt lat="41.76447917470137" lon="12.932172496439629"><ele>273.0</ele><time>2026-05-01T15:48:33.999Z</time></trkpt><trkpt lat="41.7643841677407" lon="12.932605499167442"><ele>274.5</ele><time>2026-05-01T15:48:34.999Z</time></trkpt><trkpt lat="41.76428951476215" lon="12.933040986237202"><ele>276.0</ele><time>2026-05-01T15:48:35.999Z</time></trkpt><trkpt lat="41.76419137228074" lon="12.933473140173367"><ele>276.0</ele><time>2026-05-01T15:48:36.999Z</time></trkpt><trkpt lat="41.76409278263618" lon="12.933904640989228"><ele>276.0</ele><time>2026-05-01T15:48:37.999Z</time></trkpt><trkpt lat="41.76399427527105" lon="12.934334226736874"><ele>275.0</ele><time>2026-05-01T15:48:38.999Z</time></trkpt><trkpt lat="41.76390044452148" lon="12.934763661125611"><ele>274.0</ele><time>2026-05-01T15:48:39.999Z</time></trkpt><trkpt lat="41.763804574410386" lon="12.935193054433592"><ele>274.0</ele><time>2026-05-01T15:48:40.999Z</time></trkpt><trkpt lat="41.76370869805944" lon="12.935625008851916"><ele>274.0</ele><time>2026-05-01T15:48:42Z</time></trkpt><trkpt lat="41.76361125124446" lon="12.936053749444639"><ele>272.0</ele><time>2026-05-01T15:48:43Z</time></trkpt><trkpt lat="41.76351480348464" lon="12.936481723824281"><ele>270.0</ele><time>2026-05-01T15:48:44Z</time></trkpt><trkpt lat="41.76341720241207" lon="12.936912890676536"><ele>270.0</ele><time>2026-05-01T15:48:45Z</time></trkpt><trkpt lat="41.7633204588661" lon="12.937344436178286"><ele>270.0</ele><time>2026-05-01T15:48:46Z</time></trkpt><trkpt lat="41.763226253389966" lon="12.937777629160236"><ele>270.0</ele><time>2026-05-01T15:48:47Z</time></trkpt><trkpt lat="41.763132498832235" lon="12.938209137067641"><ele>270.0</ele><time>2026-05-01T15:48:48Z</time></trkpt><trkpt lat="41.76303827505172" lon="12.938637626395062"><ele>269.0</ele><time>2026-05-01T15:48:49Z</time></trkpt><trkpt lat="41.76294448199664" lon="12.9390629777507"><ele>268.0</ele><time>2026-05-01T15:48:50Z</time></trkpt><trkpt lat="41.76285106072006" lon="12.939484766469322"><ele>267.5</ele><time>2026-05-01T15:48:51Z</time></trkpt><trkpt lat="41.76276127981386" lon="12.939902164392967"><ele>267.0</ele><time>2026-05-01T15:48:52Z</time></trkpt><trkpt lat="41.76267207460487" lon="12.940317546564398"><ele>264.0</ele><time>2026-05-01T15:48:53Z</time></trkpt><trkpt lat="41.76258336964782" lon="12.94073184521873"><ele>261.0</ele><time>2026-05-01T15:48:54Z</time></trkpt><trkpt lat="41.76249547406892" lon="12.941147646489965"><ele>260.5</ele><time>2026-05-01T15:48:55Z</time></trkpt><trkpt lat="41.762404356853274" lon="12.94156595308424"><ele>260.0</ele><time>2026-05-01T15:48:56Z</time></trkpt><trkpt lat="41.76231115773474" lon="12.941983516999441"><ele>260.0</ele><time>2026-05-01T15:48:57Z</time></trkpt><trkpt lat="41.76221485548738" lon="12.942400510167074"><ele>260.0</ele><time>2026-05-01T15:48:58Z</time></trkpt><trkpt lat="41.762121628818974" lon="12.94282145139717"><ele>260.0</ele><time>2026-05-01T15:48:59Z</time></trkpt><trkpt lat="41.76202789528584" lon="12.9432422784417"><ele>260.0</ele><time>2026-05-01T15:49:00Z</time></trkpt><trkpt lat="41.76193659024835" lon="12.943664971621114"><ele>262.0</ele><time>2026-05-01T15:49:01Z</time></trkpt><trkpt lat="41.76184281086264" lon="12.94408793443153"><ele>264.0</ele><time>2026-05-01T15:49:02Z</time></trkpt><trkpt lat="41.76175130583861" lon="12.944512271151785"><ele>264.0</ele><time>2026-05-01T15:49:03Z</time></trkpt><trkpt lat="41.7616579987889" lon="12.944935392037866"><ele>264.0</ele><time>2026-05-01T15:49:04Z</time></trkpt><trkpt lat="41.76156415795146" lon="12.945355599946206"><ele>264.0</ele><time>2026-05-01T15:49:05Z</time></trkpt><trkpt lat="41.76147529494309" lon="12.945777336409341"><ele>264.0</ele><time>2026-05-01T15:49:06Z</time></trkpt><trkpt lat="41.76138191641175" lon="12.946196869449315"><ele>264.0</ele><time>2026-05-01T15:49:07Z</time></trkpt><trkpt lat="41.76128769331716" lon="12.946619419210345"><ele>264.0</ele><time>2026-05-01T15:49:08Z</time></trkpt><trkpt lat="41.761193575303416" lon="12.947040078421741"><ele>264.5</ele><time>2026-05-01T15:49:09Z</time></trkpt><trkpt lat="41.761100884754235" lon="12.947460432340398"><ele>265.0</ele><time>2026-05-01T15:49:10Z</time></trkpt><trkpt lat="41.7610062665111" lon="12.94788054009988"><ele>260.5</ele><time>2026-05-01T15:49:11Z</time></trkpt><trkpt lat="41.76091032506749" lon="12.94829995607965"><ele>256.0</ele><time>2026-05-01T15:49:12Z</time></trkpt><trkpt lat="41.76081734093376" lon="12.948722166291049"><ele>255.0</ele><time>2026-05-01T15:49:13Z</time></trkpt><trkpt lat="41.76072214570898" lon="12.949146312238224"><ele>254.0</ele><time>2026-05-01T15:49:14Z</time></trkpt><trkpt lat="41.760631569766005" lon="12.949572535021504"><ele>252.0</ele><time>2026-05-01T15:49:15Z</time></trkpt><trkpt lat="41.76053982237232" lon="12.949998247762274"><ele>250.0</ele><time>2026-05-01T15:49:16Z</time></trkpt><trkpt lat="41.760448551581355" lon="12.950425631042165"><ele>246.5</ele><time>2026-05-01T15:49:17Z</time></trkpt><trkpt lat="41.76035463668087" lon="12.950850928994134"><ele>243.0</ele><time>2026-05-01T15:49:18Z</time></trkpt><trkpt lat="41.760258017778185" lon="12.951276155107587"><ele>243.5</ele><time>2026-05-01T15:49:19Z</time></trkpt><trkpt lat="41.76016303554575" lon="12.951699818823792"><ele>244.0</ele><time>2026-05-01T15:49:20Z</time></trkpt><trkpt lat="41.76006962988516" lon="12.952126047401478"><ele>245.0</ele><time>2026-05-01T15:49:21Z</time></trkpt><trkpt lat="41.75997149266396" lon="12.952553072091602"><ele>246.0</ele><time>2026-05-01T15:49:22Z</time></trkpt><trkpt lat="41.75987675712317" lon="12.95298032746167"><ele>248.5</ele><time>2026-05-01T15:49:23Z</time></trkpt><trkpt lat="41.75977980314282" lon="12.95340624686119"><ele>251.0</ele><time>2026-05-01T15:49:24Z</time></trkpt><trkpt lat="41.75968569913492" lon="12.953834212688276"><ele>252.5</ele><time>2026-05-01T15:49:25Z</time></trkpt><trkpt lat="41.75959145837454" lon="12.954262697668264"><ele>254.0</ele><time>2026-05-01T15:49:26Z</time></trkpt><trkpt lat="41.75949672199132" lon="12.954689892172187"><ele>254.5</ele><time>2026-05-01T15:49:27Z</time></trkpt><trkpt lat="41.759401580765406" lon="12.955116341492781"><ele>255.0</ele><time>2026-05-01T15:49:28Z</time></trkpt><trkpt lat="41.759306226733905" lon="12.955539451074245"><ele>249.5</ele><time>2026-05-01T15:49:28.999Z</time></trkpt><trkpt lat="41.75921137988498" lon="12.9559630745186"><ele>244.0</ele><time>2026-05-01T15:49:29.999Z</time></trkpt><trkpt lat="41.75911753337725" lon="12.956386856984915"><ele>243.0</ele><time>2026-05-01T15:49:30.999Z</time></trkpt><trkpt lat="41.75902301064277" lon="12.956810057385798"><ele>242.0</ele><time>2026-05-01T15:49:31.999Z</time></trkpt><trkpt lat="41.758927715560056" lon="12.957232361587637"><ele>241.5</ele><time>2026-05-01T15:49:32.999Z</time></trkpt><trkpt lat="41.758832594065844" lon="12.957654357604458"><ele>241.0</ele><time>2026-05-01T15:49:33.999Z</time></trkpt><trkpt lat="41.75873684890175" lon="12.958074468918252"><ele>239.0</ele><time>2026-05-01T15:49:34.999Z</time></trkpt><trkpt lat="41.758641516954874" lon="12.958494848817235"><ele>237.0</ele><time>2026-05-01T15:49:35.999Z</time></trkpt><trkpt lat="41.75854756820773" lon="12.958915196782966"><ele>240.5</ele><time>2026-05-01T15:49:36.999Z</time></trkpt><trkpt lat="41.758454654358985" lon="12.95933503538358"><ele>244.0</ele><time>2026-05-01T15:49:37.999Z</time></trkpt><trkpt lat="41.7583709523738" lon="12.959758186473438"><ele>245.0</ele><time>2026-05-01T15:49:38.999Z</time></trkpt><trkpt lat="41.758269847156235" lon="12.960174590882644"><ele>246.0</ele><time>2026-05-01T15:49:39.999Z</time></trkpt><trkpt lat="41.75817001351538" lon="12.960593231010396"><ele>246.0</ele><time>2026-05-01T15:49:40.999Z</time></trkpt><trkpt lat="41.7580721808422" lon="12.961016211139931"><ele>246.0</ele><time>2026-05-01T15:49:41.999Z</time></trkpt><trkpt lat="41.757973697264255" lon="12.961436749439596"><ele>245.0</ele><time>2026-05-01T15:49:42.999Z</time></trkpt><trkpt lat="41.757872108464575" lon="12.961858167417427"><ele>244.0</ele><time>2026-05-01T15:49:43.999Z</time></trkpt><trkpt lat="41.75776892330333" lon="12.962279327226131"><ele>247.0</ele><time>2026-05-01T15:49:44.999Z</time></trkpt><trkpt lat="41.75766426601264" lon="12.96269906774768"><ele>250.0</ele><time>2026-05-01T15:49:45.999Z</time></trkpt><trkpt lat="41.75755806833303" lon="12.963118627855327"><ele>248.5</ele><time>2026-05-01T15:49:46.999Z</time></trkpt><trkpt lat="41.757449888342435" lon="12.963539266396053"><ele>247.0</ele><time>2026-05-01T15:49:47.999Z</time></trkpt><trkpt lat="41.75733893803777" lon="12.963958004841901"><ele>243.5</ele><time>2026-05-01T15:49:48.999Z</time></trkpt><trkpt lat="41.75722499801274" lon="12.96437481265767"><ele>240.0</ele><time>2026-05-01T15:49:49.999Z</time></trkpt><trkpt lat="41.75710952138962" lon="12.9647904915986"><ele>234.0</ele><time>2026-05-01T15:49:50.999Z</time></trkpt><trkpt lat="41.756992291697024" lon="12.96520567026087"><ele>228.0</ele><time>2026-05-01T15:49:51.999Z</time></trkpt><trkpt lat="41.7568728848823" lon="12.965619092085666"><ele>235.0</ele><time>2026-05-01T15:49:52.999Z</time></trkpt><trkpt lat="41.75675503571909" lon="12.966032517201082"><ele>242.0</ele><time>2026-05-01T15:49:53.999Z</time></trkpt><trkpt lat="41.75663843013051" lon="12.966443780634629"><ele>239.5</ele><time>2026-05-01T15:49:54.999Z</time></trkpt><trkpt lat="41.7565200578002" lon="12.966853914013367"><ele>237.0</ele><time>2026-05-01T15:49:55.999Z</time></trkpt><trkpt lat="41.75640134707949" lon="12.967263456781984"><ele>232.0</ele><time>2026-05-01T15:49:56.999Z</time></trkpt><trkpt lat="41.75628287381388" lon="12.967671970465807"><ele>227.0</ele><time>2026-05-01T15:49:57.999Z</time></trkpt><trkpt lat="41.7561668950528" lon="12.968073370304413"><ele>229.5</ele><time>2026-05-01T15:49:58.999Z</time></trkpt><trkpt lat="41.75605475420292" lon="12.968459692148711"><ele>232.0</ele><time>2026-05-01T15:49:59.999Z</time></trkpt><trkpt lat="41.75594680887382" lon="12.968834769784133"><ele>232.5</ele><time>2026-05-01T15:50:00.999Z</time></trkpt><trkpt lat="41.75584099684988" lon="12.969205674050137"><ele>233.0</ele><time>2026-05-01T15:50:01.999Z</time></trkpt><trkpt lat="41.75573795176313" lon="12.969568376546498"><ele>233.0</ele><time>2026-05-01T15:50:02.999Z</time></trkpt><trkpt lat="41.755639971232235" lon="12.969924401261851"><ele>233.0</ele><time>2026-05-01T15:50:03.999Z</time></trkpt><trkpt lat="41.755544775910614" lon="12.970275723466514"><ele>230.0</ele><time>2026-05-01T15:50:04.999Z</time></trkpt><trkpt lat="41.75544783552343" lon="12.97063026888385"><ele>227.0</ele><time>2026-05-01T15:50:05.999Z</time></trkpt><trkpt lat="41.755346039714844" lon="12.970999077587035"><ele>224.5</ele><time>2026-05-01T15:50:06.999Z</time></trkpt><trkpt lat="41.75523783055974" lon="12.971376151965297"><ele>222.0</ele><time>2026-05-01T15:50:07.999Z</time></trkpt><trkpt lat="41.755126636198426" lon="12.971760948485882"><ele>226.5</ele><time>2026-05-01T15:50:08.999Z</time></trkpt><trkpt lat="41.75501550043582" lon="12.97215277979557"><ele>231.0</ele><time>2026-05-01T15:50:09.999Z</time></trkpt><trkpt lat="41.754902109123506" lon="12.972547375771326"><ele>231.0</ele><time>2026-05-01T15:50:10.999Z</time></trkpt><trkpt lat="41.754788372507065" lon="12.972943796577304"><ele>231.0</ele><time>2026-05-01T15:50:11.999Z</time></trkpt><trkpt lat="41.75467272442663" lon="12.973341810928714"><ele>225.5</ele><time>2026-05-01T15:50:12.999Z</time></trkpt><trkpt lat="41.75455718142053" lon="12.97374170025782"><ele>220.0</ele><time>2026-05-01T15:50:13.999Z</time></trkpt><trkpt lat="41.7544412715443" lon="12.97414311086442"><ele>221.0</ele><time>2026-05-01T15:50:14.999Z</time></trkpt><trkpt lat="41.75432572007787" lon="12.974547144249398"><ele>222.0</ele><time>2026-05-01T15:50:15.999Z</time></trkpt><trkpt lat="41.754208702537476" lon="12.974952541138151"><ele>219.5</ele><time>2026-05-01T15:50:16.999Z</time></trkpt><trkpt lat="41.75409044662599" lon="12.97535955459505"><ele>217.0</ele><time>2026-05-01T15:50:17.999Z</time></trkpt><trkpt lat="41.75397244618272" lon="12.975768169530557"><ele>216.0</ele><time>2026-05-01T15:50:18.999Z</time></trkpt><trkpt lat="41.75385422007046" lon="12.976178319785001"><ele>215.0</ele><time>2026-05-01T15:50:19.999Z</time></trkpt><trkpt lat="41.7537346635365" lon="12.976587955482604"><ele>214.0</ele><time>2026-05-01T15:50:20.999Z</time></trkpt><trkpt lat="41.753614195248005" lon="12.976997603183786"><ele>213.0</ele><time>2026-05-01T15:50:21.999Z</time></trkpt><trkpt lat="41.75349289115947" lon="12.97740748275695"><ele>220.5</ele><time>2026-05-01T15:50:22.999Z</time></trkpt><trkpt lat="41.753372582696144" lon="12.977819087929527"><ele>228.0</ele><time>2026-05-01T15:50:23.999Z</time></trkpt><trkpt lat="41.75325270132938" lon="12.978229787464647"><ele>228.5</ele><time>2026-05-01T15:50:24.999Z</time></trkpt><trkpt lat="41.753133454342645" lon="12.978642324253526"><ele>229.0</ele><time>2026-05-01T15:50:25.999Z</time></trkpt><trkpt lat="41.75301460010267" lon="12.979056536214179"><ele>229.0</ele><time>2026-05-01T15:50:26.999Z</time></trkpt><trkpt lat="41.75289591736112" lon="12.979472240336634"><ele>229.0</ele><time>2026-05-01T15:50:27.999Z</time></trkpt><trkpt lat="41.75277577201772" lon="12.979889316716779"><ele>227.5</ele><time>2026-05-01T15:50:28.999Z</time></trkpt><trkpt lat="41.75265605350191" lon="12.98030528838504"><ele>226.0</ele><time>2026-05-01T15:50:29.999Z</time></trkpt><trkpt lat="41.75253685543356" lon="12.980717463657271"><ele>223.0</ele><time>2026-05-01T15:50:30.999Z</time></trkpt><trkpt lat="41.75241671241164" lon="12.981132216928293"><ele>220.0</ele><time>2026-05-01T15:50:31.999Z</time></trkpt><trkpt lat="41.75229650050999" lon="12.981543763303295"><ele>214.5</ele><time>2026-05-01T15:50:32.999Z</time></trkpt><trkpt lat="41.75217613696351" lon="12.981953202482153"><ele>209.0</ele><time>2026-05-01T15:50:33.999Z</time></trkpt><trkpt lat="41.7520555388218" lon="12.98236226104231"><ele>208.5</ele><time>2026-05-01T15:50:34.999Z</time></trkpt><trkpt lat="41.75193553871458" lon="12.982772425159776"><ele>208.0</ele><time>2026-05-01T15:50:35.999Z</time></trkpt><trkpt lat="41.75181732355441" lon="12.983183967202368"><ele>210.0</ele><time>2026-05-01T15:50:36.999Z</time></trkpt><trkpt lat="41.7516993930813" lon="12.983598107238485"><ele>212.0</ele><time>2026-05-01T15:50:37.999Z</time></trkpt><trkpt lat="41.751579886681505" lon="12.984012624595467"><ele>211.5</ele><time>2026-05-01T15:50:38.999Z</time></trkpt><trkpt lat="41.75145687755562" lon="12.984422079350844"><ele>211.0</ele><time>2026-05-01T15:50:39.999Z</time></trkpt><trkpt lat="41.7513390635263" lon="12.984832254638208"><ele>210.0</ele><time>2026-05-01T15:50:40.999Z</time></trkpt><trkpt lat="41.75121866246117" lon="12.985241225717825"><ele>209.0</ele><time>2026-05-01T15:50:41.999Z</time></trkpt><trkpt lat="41.75110117199824" lon="12.985649551691587"><ele>209.0</ele><time>2026-05-01T15:50:42.999Z</time></trkpt><trkpt lat="41.75098168719541" lon="12.986058450520616"><ele>209.0</ele><time>2026-05-01T15:50:43.999Z</time></trkpt><trkpt lat="41.75086471422302" lon="12.986468547079593"><ele>210.0</ele><time>2026-05-01T15:50:44.999Z</time></trkpt><trkpt lat="41.75074758466672" lon="12.986878089347009"><ele>211.0</ele><time>2026-05-01T15:50:45.999Z</time></trkpt><trkpt lat="41.75062939933833" lon="12.987286436985375"><ele>211.5</ele><time>2026-05-01T15:50:46.999Z</time></trkpt><trkpt lat="41.75051205095011" lon="12.987692940776164"><ele>212.0</ele><time>2026-05-01T15:50:48Z</time></trkpt><trkpt lat="41.750398617083626" lon="12.988101504864549"><ele>214.0</ele><time>2026-05-01T15:50:49Z</time></trkpt><trkpt lat="41.75028052917022" lon="12.988505838194811"><ele>216.0</ele><time>2026-05-01T15:50:50Z</time></trkpt><trkpt lat="41.75016577394564" lon="12.988911009091368"><ele>220.5</ele><time>2026-05-01T15:50:51Z</time></trkpt><trkpt lat="41.75005476887552" lon="12.989316636759673"><ele>225.0</ele><time>2026-05-01T15:50:52Z</time></trkpt><trkpt lat="41.749937248228164" lon="12.989721801186725"><ele>227.5</ele><time>2026-05-01T15:50:53Z</time></trkpt><trkpt lat="41.74982229625544" lon="12.990130142354397"><ele>230.0</ele><time>2026-05-01T15:50:54Z</time></trkpt><trkpt lat="41.74970999590179" lon="12.990540934679323"><ele>229.5</ele><time>2026-05-01T15:50:55Z</time></trkpt><trkpt lat="41.74960253706699" lon="12.990956394648114"><ele>229.0</ele><time>2026-05-01T15:50:56Z</time></trkpt><trkpt lat="41.74950973260678" lon="12.991379038902206"><ele>226.0</ele><time>2026-05-01T15:50:57Z</time></trkpt><trkpt lat="41.74942892172818" lon="12.99180523045466"><ele>223.0</ele><time>2026-05-01T15:50:58Z</time></trkpt><trkpt lat="41.7493496853782" lon="12.99223025180336"><ele>220.5</ele><time>2026-05-01T15:50:59Z</time></trkpt><trkpt lat="41.7492787307773" lon="12.992658394670626"><ele>218.0</ele><time>2026-05-01T15:51:00Z</time></trkpt><trkpt lat="41.749216642013494" lon="12.993089691277474"><ele>219.0</ele><time>2026-05-01T15:51:01Z</time></trkpt><trkpt lat="41.74916105255667" lon="12.993522782060317"><ele>220.0</ele><time>2026-05-01T15:51:02Z</time></trkpt><trkpt lat="41.74911507835419" lon="12.993960259789672"><ele>223.5</ele><time>2026-05-01T15:51:03Z</time></trkpt><trkpt lat="41.7490749277172" lon="12.99439700762175"><ele>227.0</ele><time>2026-05-01T15:51:04Z</time></trkpt><trkpt lat="41.7490447000527" lon="12.99483505293074"><ele>227.5</ele><time>2026-05-01T15:51:05Z</time></trkpt><trkpt lat="41.749017440610785" lon="12.995271849238842"><ele>228.0</ele><time>2026-05-01T15:51:06Z</time></trkpt><trkpt lat="41.748998599416474" lon="12.99571132980549"><ele>229.5</ele><time>2026-05-01T15:51:07Z</time></trkpt><trkpt lat="41.74898646676509" lon="12.996150801592773"><ele>231.0</ele><time>2026-05-01T15:51:08Z</time></trkpt><trkpt lat="41.74898067053333" lon="12.996591290120394"><ele>229.5</ele><time>2026-05-01T15:51:09Z</time></trkpt><trkpt lat="41.74897539628497" lon="12.997030930184106"><ele>228.0</ele><time>2026-05-01T15:51:10Z</time></trkpt><trkpt lat="41.74896939293586" lon="12.997472444463117"><ele>226.0</ele><time>2026-05-01T15:51:11Z</time></trkpt><trkpt lat="41.74896151960755" lon="12.997913589486968"><ele>224.0</ele><time>2026-05-01T15:51:12Z</time></trkpt><trkpt lat="41.74895670414686" lon="12.998354110171102"><ele>224.0</ele><time>2026-05-01T15:51:13Z</time></trkpt><trkpt lat="41.748949876198836" lon="12.998795534233208"><ele>224.0</ele><time>2026-05-01T15:51:14Z</time></trkpt><trkpt lat="41.74894649425551" lon="12.99923968899689"><ele>230.0</ele><time>2026-05-01T15:51:15Z</time></trkpt><trkpt lat="41.748940771789876" lon="12.999684967147918"><ele>236.0</ele><time>2026-05-01T15:51:16Z</time></trkpt><trkpt lat="41.74893453609966" lon="13.000131644283584"><ele>236.0</ele><time>2026-05-01T15:51:17Z</time></trkpt><trkpt lat="41.74893006950074" lon="13.000575624963647"><ele>236.0</ele><time>2026-05-01T15:51:18Z</time></trkpt><trkpt lat="41.748925104714985" lon="13.00102114812955"><ele>240.0</ele><time>2026-05-01T15:51:19Z</time></trkpt><trkpt lat="41.74892267891035" lon="13.00146822498696"><ele>244.0</ele><time>2026-05-01T15:51:20Z</time></trkpt><trkpt lat="41.74891882455519" lon="13.001917211961665"><ele>244.0</ele><time>2026-05-01T15:51:21Z</time></trkpt><trkpt lat="41.74891234258136" lon="13.00236699992697"><ele>244.0</ele><time>2026-05-01T15:51:22Z</time></trkpt><trkpt lat="41.74890980598442" lon="13.002817683506079"><ele>244.0</ele><time>2026-05-01T15:51:23Z</time></trkpt><trkpt lat="41.74890501736465" lon="13.003268815979588"><ele>244.0</ele><time>2026-05-01T15:51:24Z</time></trkpt><trkpt lat="41.74890402488696" lon="13.003717076092338"><ele>243.0</ele><time>2026-05-01T15:51:25Z</time></trkpt><trkpt lat="41.74889988606749" lon="13.004165734685378"><ele>242.0</ele><time>2026-05-01T15:51:26Z</time></trkpt><trkpt lat="41.748899168080804" lon="13.004613983074691"><ele>240.0</ele><time>2026-05-01T15:51:27Z</time></trkpt><trkpt lat="41.748895157564704" lon="13.005063667749218"><ele>238.0</ele><time>2026-05-01T15:51:28Z</time></trkpt><trkpt lat="41.74889127186462" lon="13.005510918365497"><ele>236.0</ele><time>2026-05-01T15:51:29Z</time></trkpt><trkpt lat="41.74889066561515" lon="13.005956813446282"><ele>234.0</ele><time>2026-05-01T15:51:30Z</time></trkpt><trkpt lat="41.748884981927496" lon="13.006403781950738"><ele>234.0</ele><time>2026-05-01T15:51:31Z</time></trkpt><trkpt lat="41.748879965006324" lon="13.006845985047612"><ele>234.0</ele><time>2026-05-01T15:51:31.999Z</time></trkpt><trkpt lat="41.74887881081624" lon="13.00728671388257"><ele>232.0</ele><time>2026-05-01T15:51:32.999Z</time></trkpt><trkpt lat="41.748875631083784" lon="13.007723803584646"><ele>230.0</ele><time>2026-05-01T15:51:33.999Z</time></trkpt><trkpt lat="41.74886991861509" lon="13.008155561722981"><ele>229.0</ele><time>2026-05-01T15:51:34.999Z</time></trkpt><trkpt lat="41.748868469033425" lon="13.008589216309986"><ele>228.0</ele><time>2026-05-01T15:51:35.999Z</time></trkpt><trkpt lat="41.74886499796644" lon="13.009018426581724"><ele>227.0</ele><time>2026-05-01T15:51:36.999Z</time></trkpt><trkpt lat="41.748862352968246" lon="13.009452075280217"><ele>226.0</ele><time>2026-05-01T15:51:37.999Z</time></trkpt><trkpt lat="41.748861322301984" lon="13.009886941163863"><ele>224.5</ele><time>2026-05-01T15:51:38.999Z</time></trkpt><trkpt lat="41.74885993965848" lon="13.010323780183093"><ele>223.0</ele><time>2026-05-01T15:51:39.999Z</time></trkpt><trkpt lat="41.74885934888171" lon="13.010763495048883"><ele>222.0</ele><time>2026-05-01T15:51:40.999Z</time></trkpt><trkpt lat="41.74885600193922" lon="13.011203213802261"><ele>221.0</ele><time>2026-05-01T15:51:41.999Z</time></trkpt><trkpt lat="41.748849523503324" lon="13.011642010029878"><ele>221.0</ele><time>2026-05-01T15:51:42.999Z</time></trkpt><trkpt lat="41.74883912881221" lon="13.012078881654698"><ele>221.0</ele><time>2026-05-01T15:51:43.999Z</time></trkpt><trkpt lat="41.74883498114498" lon="13.012513473368518"><ele>223.0</ele><time>2026-05-01T15:51:44.999Z</time></trkpt><trkpt lat="41.74882954876924" lon="13.012948131144144"><ele>225.0</ele><time>2026-05-01T15:51:45.999Z</time></trkpt><trkpt lat="41.748825006142354" lon="13.013382423942158"><ele>226.5</ele><time>2026-05-01T15:51:46.999Z</time></trkpt><trkpt lat="41.74882155108522" lon="13.013815701146552"><ele>228.0</ele><time>2026-05-01T15:51:47.999Z</time></trkpt><trkpt lat="41.74882114458019" lon="13.01424812607396"><ele>229.0</ele><time>2026-05-01T15:51:48.999Z</time></trkpt><trkpt lat="41.74881817632546" lon="13.014682343488545"><ele>230.0</ele><time>2026-05-01T15:51:49.999Z</time></trkpt><trkpt lat="41.74881416833386" lon="13.015116880811501"><ele>227.5</ele><time>2026-05-01T15:51:50.999Z</time></trkpt><trkpt lat="41.74880742114934" lon="13.015550245661109"><ele>225.0</ele><time>2026-05-01T15:51:51.999Z</time></trkpt><trkpt lat="41.748798822153326" lon="13.015985831113516"><ele>221.5</ele><time>2026-05-01T15:51:52.999Z</time></trkpt><trkpt lat="41.74878984373214" lon="13.016423996753032"><ele>218.0</ele><time>2026-05-01T15:51:53.999Z</time></trkpt><trkpt lat="41.74879714620676" lon="13.016861256317458"><ele>217.5</ele><time>2026-05-01T15:51:54.999Z</time></trkpt><trkpt lat="41.748795185156666" lon="13.017296425138847"><ele>217.0</ele><time>2026-05-01T15:51:55.999Z</time></trkpt><trkpt lat="41.74879334331562" lon="13.017730453498498"><ele>217.0</ele><time>2026-05-01T15:51:56.999Z</time></trkpt><trkpt lat="41.748791749693716" lon="13.018165123903579"><ele>217.0</ele><time>2026-05-01T15:51:57.999Z</time></trkpt><trkpt lat="41.74879136895135" lon="13.01860195971353"><ele>221.0</ele><time>2026-05-01T15:51:58.999Z</time></trkpt><trkpt lat="41.74878978590594" lon="13.019038090322956"><ele>225.0</ele><time>2026-05-01T15:51:59.999Z</time></trkpt><trkpt lat="41.74878582666449" lon="13.019475966193509"><ele>228.5</ele><time>2026-05-01T15:52:00.999Z</time></trkpt><trkpt lat="41.748780518374794" lon="13.019915383773826"><ele>232.0</ele><time>2026-05-01T15:52:01.999Z</time></trkpt><trkpt lat="41.74877678857833" lon="13.020356157382027"><ele>235.0</ele><time>2026-05-01T15:52:02.999Z</time></trkpt><trkpt lat="41.7487731023934" lon="13.020794352216942"><ele>238.0</ele><time>2026-05-01T15:52:03.999Z</time></trkpt><trkpt lat="41.74877040911818" lon="13.021234323616854"><ele>240.5</ele><time>2026-05-01T15:52:04.999Z</time></trkpt><trkpt lat="41.748768582089276" lon="13.02167756493686"><ele>243.0</ele><time>2026-05-01T15:52:05.999Z</time></trkpt><trkpt lat="41.7487651307543" lon="13.022122357506417"><ele>243.0</ele><time>2026-05-01T15:52:06.999Z</time></trkpt><trkpt lat="41.74876221375072" lon="13.022568229274011"><ele>243.0</ele><time>2026-05-01T15:52:07.999Z</time></trkpt><trkpt lat="41.7487606337764" lon="13.023013213079436"><ele>244.5</ele><time>2026-05-01T15:52:08.999Z</time></trkpt><trkpt lat="41.74875783311676" lon="13.023460116932743"><ele>246.0</ele><time>2026-05-01T15:52:09.999Z</time></trkpt><trkpt lat="41.74875196308512" lon="13.023907749524906"><ele>245.5</ele><time>2026-05-01T15:52:10.999Z</time></trkpt><trkpt lat="41.74874647718306" lon="13.024356565663188"><ele>245.0</ele><time>2026-05-01T15:52:11.999Z</time></trkpt><trkpt lat="41.748743458973166" lon="13.024803131794638"><ele>245.0</ele><time>2026-05-01T15:52:12.999Z</time></trkpt><trkpt lat="41.74874014748191" lon="13.02524893037433"><ele>245.0</ele><time>2026-05-01T15:52:13.999Z</time></trkpt><trkpt lat="41.74873779651858" lon="13.02569531704487"><ele>245.0</ele><time>2026-05-01T15:52:14.999Z</time></trkpt><trkpt lat="41.74873682789238" lon="13.026140607744317"><ele>245.0</ele><time>2026-05-01T15:52:15.999Z</time></trkpt><trkpt lat="41.748733931303896" lon="13.026583458411348"><ele>243.5</ele><time>2026-05-01T15:52:16.999Z</time></trkpt><trkpt lat="41.748730952452505" lon="13.027028768697601"><ele>242.0</ele><time>2026-05-01T15:52:17.999Z</time></trkpt><trkpt lat="41.74872655108677" lon="13.02747577263416"><ele>239.0</ele><time>2026-05-01T15:52:18.999Z</time></trkpt><trkpt lat="41.748721733542396" lon="13.02792507805322"><ele>236.0</ele><time>2026-05-01T15:52:19.999Z</time></trkpt><trkpt lat="41.74871730943723" lon="13.028376131338575"><ele>235.5</ele><time>2026-05-01T15:52:20.999Z</time></trkpt><trkpt lat="41.748714935936285" lon="13.028826142154536"><ele>235.0</ele><time>2026-05-01T15:52:21.999Z</time></trkpt><trkpt lat="41.74871224089712" lon="13.0292773746267"><ele>237.0</ele><time>2026-05-01T15:52:22.999Z</time></trkpt><trkpt lat="41.74871005355255" lon="13.02973158868286"><ele>239.0</ele><time>2026-05-01T15:52:23.999Z</time></trkpt><trkpt lat="41.748707549667444" lon="13.030187695335284"><ele>239.0</ele><time>2026-05-01T15:52:24.999Z</time></trkpt><trkpt lat="41.74870539995551" lon="13.030641657726065"><ele>239.0</ele><time>2026-05-01T15:52:25.999Z</time></trkpt><trkpt lat="41.74870400306452" lon="13.031096408589024"><ele>239.0</ele><time>2026-05-01T15:52:26.999Z</time></trkpt><trkpt lat="41.748702471172784" lon="13.031545272827628"><ele>239.0</ele><time>2026-05-01T15:52:27.999Z</time></trkpt><trkpt lat="41.74869916136384" lon="13.03199409820739"><ele>238.5</ele><time>2026-05-01T15:52:28.999Z</time></trkpt><trkpt lat="41.74869678244594" lon="13.032438542570935"><ele>238.0</ele><time>2026-05-01T15:52:29.999Z</time></trkpt><trkpt lat="41.74869282332833" lon="13.032878852130741"><ele>235.5</ele><time>2026-05-01T15:52:30.999Z</time></trkpt><trkpt lat="41.7486947616663" lon="13.033312869527197"><ele>233.0</ele><time>2026-05-01T15:52:31.999Z</time></trkpt><trkpt lat="41.74869174997469" lon="13.033744528205112"><ele>232.0</ele><time>2026-05-01T15:52:32.999Z</time></trkpt><trkpt lat="41.748689580737505" lon="13.03417416351272"><ele>231.0</ele><time>2026-05-01T15:52:33.999Z</time></trkpt><trkpt lat="41.74868747771487" lon="13.03460320150417"><ele>231.0</ele><time>2026-05-01T15:52:34.999Z</time></trkpt><trkpt lat="41.748686569203734" lon="13.035035358380544"><ele>231.0</ele><time>2026-05-01T15:52:35.999Z</time></trkpt><trkpt lat="41.74868336394676" lon="13.035469622893833"><ele>230.5</ele><time>2026-05-01T15:52:36.999Z</time></trkpt><trkpt lat="41.74868367364658" lon="13.035907092800219"><ele>230.0</ele><time>2026-05-01T15:52:37.999Z</time></trkpt><trkpt lat="41.748677597088765" lon="13.036342669114479"><ele>229.0</ele><time>2026-05-01T15:52:38.999Z</time></trkpt><trkpt lat="41.74866794420059" lon="13.036774920437853"><ele>228.0</ele><time>2026-05-01T15:52:39.999Z</time></trkpt><trkpt lat="41.74865890356768" lon="13.037201859315113"><ele>226.5</ele><time>2026-05-01T15:52:40.999Z</time></trkpt><trkpt lat="41.74865903112238" lon="13.037624938191938"><ele>225.0</ele><time>2026-05-01T15:52:41.999Z</time></trkpt><trkpt lat="41.748653363738455" lon="13.038045755915615"><ele>225.0</ele><time>2026-05-01T15:52:42.999Z</time></trkpt><trkpt lat="41.7486463079509" lon="13.038465056992573"><ele>225.0</ele><time>2026-05-01T15:52:43.999Z</time></trkpt><trkpt lat="41.74864386238066" lon="13.038883934320614"><ele>223.0</ele><time>2026-05-01T15:52:44.999Z</time></trkpt><trkpt lat="41.748640409079755" lon="13.039299460803818"><ele>221.0</ele><time>2026-05-01T15:52:45.999Z</time></trkpt><trkpt lat="41.748636556652436" lon="13.039709669593506"><ele>218.5</ele><time>2026-05-01T15:52:46.999Z</time></trkpt><trkpt lat="41.74863206681784" lon="13.040115635630443"><ele>216.0</ele><time>2026-05-01T15:52:47.999Z</time></trkpt><trkpt lat="41.748634011248384" lon="13.040522829470556"><ele>213.5</ele><time>2026-05-01T15:52:48.999Z</time></trkpt><trkpt lat="41.748634149162804" lon="13.040942783839851"><ele>211.0</ele><time>2026-05-01T15:52:49.999Z</time></trkpt><trkpt lat="41.748630643938846" lon="13.041373694585099"><ele>208.0</ele><time>2026-05-01T15:52:50.999Z</time></trkpt><trkpt lat="41.748624849026115" lon="13.041809103653952"><ele>205.0</ele><time>2026-05-01T15:52:51.999Z</time></trkpt><trkpt lat="41.74862482011263" lon="13.042247396985713"><ele>204.5</ele><time>2026-05-01T15:52:52.999Z</time></trkpt><trkpt lat="41.74862691675768" lon="13.042689664126852"><ele>204.0</ele><time>2026-05-01T15:52:54Z</time></trkpt><trkpt lat="41.74862860821668" lon="13.043133635194703"><ele>205.0</ele><time>2026-05-01T15:52:55Z</time></trkpt><trkpt lat="41.74862718315694" lon="13.04358021087791"><ele>206.0</ele><time>2026-05-01T15:52:56Z</time></trkpt><trkpt lat="41.74862403007191" lon="13.044027709923323"><ele>205.5</ele><time>2026-05-01T15:52:57Z</time></trkpt><trkpt lat="41.748624173104446" lon="13.044475815985514"><ele>205.0</ele><time>2026-05-01T15:52:58Z</time></trkpt><trkpt lat="41.74862097900629" lon="13.044922433655799"><ele>205.0</ele><time>2026-05-01T15:52:59Z</time></trkpt><trkpt lat="41.74862247001521" lon="13.0453687865134"><ele>205.0</ele><time>2026-05-01T15:53:00Z</time></trkpt><trkpt lat="41.74861933041386" lon="13.045814839233676"><ele>205.0</ele><time>2026-05-01T15:53:01Z</time></trkpt><trkpt lat="41.748615319951384" lon="13.046262355612646"><ele>205.0</ele><time>2026-05-01T15:53:02Z</time></trkpt><trkpt lat="41.74861277116149" lon="13.046709162150997"><ele>205.0</ele><time>2026-05-01T15:53:03Z</time></trkpt><trkpt lat="41.74861341161399" lon="13.04715432565344"><ele>205.0</ele><time>2026-05-01T15:53:04Z</time></trkpt><trkpt lat="41.748611320163306" lon="13.047599635587003"><ele>205.5</ele><time>2026-05-01T15:53:05Z</time></trkpt><trkpt lat="41.74860737546224" lon="13.048046067934493"><ele>206.0</ele><time>2026-05-01T15:53:06Z</time></trkpt><trkpt lat="41.74860183601059" lon="13.048490595088223"><ele>207.0</ele><time>2026-05-01T15:53:07Z</time></trkpt><trkpt lat="41.74859768879728" lon="13.048936881652804"><ele>208.0</ele><time>2026-05-01T15:53:08Z</time></trkpt><trkpt lat="41.74859302396935" lon="13.049381994188456"><ele>208.0</ele><time>2026-05-01T15:53:09Z</time></trkpt><trkpt lat="41.74858881318267" lon="13.049827547528272"><ele>208.0</ele><time>2026-05-01T15:53:10Z</time></trkpt><trkpt lat="41.74858513918315" lon="13.05027383348925"><ele>205.5</ele><time>2026-05-01T15:53:11Z</time></trkpt><trkpt lat="41.74858152615522" lon="13.050722092898653"><ele>203.0</ele><time>2026-05-01T15:53:12Z</time></trkpt><trkpt lat="41.74857661010201" lon="13.051168953684291"><ele>202.5</ele><time>2026-05-01T15:53:13Z</time></trkpt><trkpt lat="41.74857268870478" lon="13.051616711657934"><ele>202.0</ele><time>2026-05-01T15:53:14Z</time></trkpt><trkpt lat="41.74856573765211" lon="13.052061698789494"><ele>202.0</ele><time>2026-05-01T15:53:15Z</time></trkpt><trkpt lat="41.7485598075271" lon="13.052509987858695"><ele>202.0</ele><time>2026-05-01T15:53:16Z</time></trkpt><trkpt lat="41.74855441255428" lon="13.052958700866961"><ele>204.0</ele><time>2026-05-01T15:53:17Z</time></trkpt><trkpt lat="41.748552176673265" lon="13.053407164366034"><ele>206.0</ele><time>2026-05-01T15:53:18Z</time></trkpt><trkpt lat="41.74854973120988" lon="13.053857246476234"><ele>206.5</ele><time>2026-05-01T15:53:19Z</time></trkpt><trkpt lat="41.74854783144503" lon="13.054306354337706"><ele>207.0</ele><time>2026-05-01T15:53:20Z</time></trkpt><trkpt lat="41.748544597164745" lon="13.05475465423053"><ele>204.5</ele><time>2026-05-01T15:53:21Z</time></trkpt><trkpt lat="41.74854122260849" lon="13.05520275056085"><ele>202.0</ele><time>2026-05-01T15:53:22Z</time></trkpt><trkpt lat="41.748538435548696" lon="13.055652758128243"><ele>201.5</ele><time>2026-05-01T15:53:23Z</time></trkpt><trkpt lat="41.748536152578396" lon="13.056102509316627"><ele>201.0</ele><time>2026-05-01T15:53:24Z</time></trkpt><trkpt lat="41.748531433052094" lon="13.056553048979229"><ele>200.5</ele><time>2026-05-01T15:53:25Z</time></trkpt><trkpt lat="41.748523748212946" lon="13.057005843455974"><ele>200.0</ele><time>2026-05-01T15:53:26Z</time></trkpt><trkpt lat="41.74851975306904" lon="13.057456863697677"><ele>200.0</ele><time>2026-05-01T15:53:27Z</time></trkpt><trkpt lat="41.748513323228764" lon="13.05790736201533"><ele>200.0</ele><time>2026-05-01T15:53:28Z</time></trkpt><trkpt lat="41.74850004451265" lon="13.058357147880505"><ele>201.0</ele><time>2026-05-01T15:53:29Z</time></trkpt><trkpt lat="41.74847374950708" lon="13.058799024618217"><ele>202.0</ele><time>2026-05-01T15:53:30Z</time></trkpt><trkpt lat="41.74844422239377" lon="13.059242280979262"><ele>202.0</ele><time>2026-05-01T15:53:31Z</time></trkpt><trkpt lat="41.74839211314232" lon="13.059679548228784"><ele>202.0</ele><time>2026-05-01T15:53:31.999Z</time></trkpt><trkpt lat="41.748329408017895" lon="13.060116367724843"><ele>201.5</ele><time>2026-05-01T15:53:32.999Z</time></trkpt><trkpt lat="41.74825669942235" lon="13.060552264649532"><ele>201.0</ele><time>2026-05-01T15:53:33.999Z</time></trkpt><trkpt lat="41.74817021237904" lon="13.060983749510571"><ele>201.0</ele><time>2026-05-01T15:53:34.999Z</time></trkpt><trkpt lat="41.7480722758219" lon="13.061408799732435"><ele>201.0</ele><time>2026-05-01T15:53:35.999Z</time></trkpt><trkpt lat="41.74796396613556" lon="13.061830728664589"><ele>202.0</ele><time>2026-05-01T15:53:36.999Z</time></trkpt><trkpt lat="41.747845207813384" lon="13.062249137166708"><ele>203.0</ele><time>2026-05-01T15:53:37.999Z</time></trkpt><trkpt lat="41.74771383341063" lon="13.062661241333746"><ele>203.0</ele><time>2026-05-01T15:53:38.999Z</time></trkpt><trkpt lat="41.74756930192833" lon="13.063064794187381"><ele>203.0</ele><time>2026-05-01T15:53:39.999Z</time></trkpt><trkpt lat="41.74741122814643" lon="13.063460322409266"><ele>205.0</ele><time>2026-05-01T15:53:40.999Z</time></trkpt><trkpt lat="41.74724260807602" lon="13.063847201105764"><ele>207.0</ele><time>2026-05-01T15:53:41.999Z</time></trkpt><trkpt lat="41.74706496295869" lon="13.06422812758009"><ele>208.0</ele><time>2026-05-01T15:53:42.999Z</time></trkpt><trkpt lat="41.74688194656732" lon="13.064602664006859"><ele>209.0</ele><time>2026-05-01T15:53:43.999Z</time></trkpt><trkpt lat="41.74669795418958" lon="13.064974504567974"><ele>205.0</ele><time>2026-05-01T15:53:44.999Z</time></trkpt><trkpt lat="41.74651381575152" lon="13.065350510210664"><ele>201.0</ele><time>2026-05-01T15:53:45.999Z</time></trkpt><trkpt lat="41.746329996548596" lon="13.065727569427354"><ele>201.0</ele><time>2026-05-01T15:53:46.999Z</time></trkpt><trkpt lat="41.746148084446446" lon="13.066104437814964"><ele>201.0</ele><time>2026-05-01T15:53:47.999Z</time></trkpt><trkpt lat="41.74596575179303" lon="13.066481677411195"><ele>203.0</ele><time>2026-05-01T15:53:48.999Z</time></trkpt><trkpt lat="41.7457844506892" lon="13.066858343512173"><ele>205.0</ele><time>2026-05-01T15:53:49.999Z</time></trkpt><trkpt lat="41.74560384516527" lon="13.067233131319266"><ele>208.0</ele><time>2026-05-01T15:53:50.999Z</time></trkpt><trkpt lat="41.745422498680476" lon="13.067607320174805"><ele>211.0</ele><time>2026-05-01T15:53:51.999Z</time></trkpt><trkpt lat="41.74524083225449" lon="13.067981201179029"><ele>215.5</ele><time>2026-05-01T15:53:52.999Z</time></trkpt><trkpt lat="41.74505808418202" lon="13.068357956256692"><ele>220.0</ele><time>2026-05-01T15:53:53.999Z</time></trkpt><trkpt lat="41.74487626593185" lon="13.068734214972874"><ele>222.5</ele><time>2026-05-01T15:53:54.999Z</time></trkpt><trkpt lat="41.744694234225996" lon="13.069110174517238"><ele>225.0</ele><time>2026-05-01T15:53:55.999Z</time></trkpt><trkpt lat="41.74451034779215" lon="13.069486235538529"><ele>227.0</ele><time>2026-05-01T15:53:56.999Z</time></trkpt><trkpt lat="41.74432569916542" lon="13.069862734809568"><ele>229.0</ele><time>2026-05-01T15:53:57.999Z</time></trkpt><trkpt lat="41.74414258514062" lon="13.070240644126079"><ele>229.0</ele><time>2026-05-01T15:53:58.999Z</time></trkpt><trkpt lat="41.74396020737513" lon="13.070618775213253"><ele>229.0</ele><time>2026-05-01T15:53:59.999Z</time></trkpt><trkpt lat="41.74377782787224" lon="13.070995240365658"><ele>229.5</ele><time>2026-05-01T15:54:00.999Z</time></trkpt><trkpt lat="41.74359350683936" lon="13.071372276360467"><ele>230.0</ele><time>2026-05-01T15:54:01.999Z</time></trkpt><trkpt lat="41.7434088691233" lon="13.07174927620534"><ele>228.0</ele><time>2026-05-01T15:54:02.999Z</time></trkpt><trkpt lat="41.74322569592884" lon="13.072124794402027"><ele>226.0</ele><time>2026-05-01T15:54:03.999Z</time></trkpt><trkpt lat="41.74304121639769" lon="13.072499837772854"><ele>225.5</ele><time>2026-05-01T15:54:04.999Z</time></trkpt><trkpt lat="41.74285771209617" lon="13.072877757961676"><ele>225.0</ele><time>2026-05-01T15:54:05.999Z</time></trkpt><trkpt lat="41.74267333082437" lon="13.07325804981636"><ele>225.0</ele><time>2026-05-01T15:54:06.999Z</time></trkpt><trkpt lat="41.74248872063293" lon="13.073640137505018"><ele>225.0</ele><time>2026-05-01T15:54:07.999Z</time></trkpt><trkpt lat="41.7423033578828" lon="13.074023245919252"><ele>227.5</ele><time>2026-05-01T15:54:08.999Z</time></trkpt><trkpt lat="41.74211657117374" lon="13.074406128037618"><ele>230.0</ele><time>2026-05-01T15:54:09.999Z</time></trkpt><trkpt lat="41.741930268162065" lon="13.0747885237619"><ele>230.0</ele><time>2026-05-01T15:54:10.999Z</time></trkpt><trkpt lat="41.74174356966125" lon="13.075170382028578"><ele>230.0</ele><time>2026-05-01T15:54:11.999Z</time></trkpt><trkpt lat="41.74155783147531" lon="13.075554362108878"><ele>230.5</ele><time>2026-05-01T15:54:12.999Z</time></trkpt><trkpt lat="41.74137246368146" lon="13.07593629063082"><ele>231.0</ele><time>2026-05-01T15:54:13.999Z</time></trkpt><trkpt lat="41.74118539865074" lon="13.076318000351304"><ele>228.0</ele><time>2026-05-01T15:54:14.999Z</time></trkpt><trkpt lat="41.7409994175077" lon="13.076698348497686"><ele>225.0</ele><time>2026-05-01T15:54:15.999Z</time></trkpt><trkpt lat="41.7408137916481" lon="13.077079205417913"><ele>223.0</ele><time>2026-05-01T15:54:16.999Z</time></trkpt><trkpt lat="41.74062986363219" lon="13.077457511492904"><ele>221.0</ele><time>2026-05-01T15:54:17.999Z</time></trkpt><trkpt lat="41.740447016978585" lon="13.077835617667162"><ele>221.0</ele><time>2026-05-01T15:54:18.999Z</time></trkpt><trkpt lat="41.74026322250061" lon="13.078213465529563"><ele>221.0</ele><time>2026-05-01T15:54:19.999Z</time></trkpt><trkpt lat="41.74007838545472" lon="13.078592440916426"><ele>220.0</ele><time>2026-05-01T15:54:20.999Z</time></trkpt><trkpt lat="41.73989471074917" lon="13.078970332851222"><ele>219.0</ele><time>2026-05-01T15:54:21.999Z</time></trkpt><trkpt lat="41.73971199579397" lon="13.079347763062644"><ele>214.5</ele><time>2026-05-01T15:54:22.999Z</time></trkpt><trkpt lat="41.73952970336213" lon="13.079726260290254"><ele>210.0</ele><time>2026-05-01T15:54:23.999Z</time></trkpt><trkpt lat="41.73934652662672" lon="13.080105424542975"><ele>208.0</ele><time>2026-05-01T15:54:24.999Z</time></trkpt><trkpt lat="41.73916346648731" lon="13.080481149409861"><ele>206.0</ele><time>2026-05-01T15:54:25.999Z</time></trkpt><trkpt lat="41.73898044602171" lon="13.080856987705257"><ele>201.5</ele><time>2026-05-01T15:54:26.999Z</time></trkpt><trkpt lat="41.738796000010225" lon="13.081231212673426"><ele>197.0</ele><time>2026-05-01T15:54:27.999Z</time></trkpt><trkpt lat="41.73861150213735" lon="13.081604675767425"><ele>195.0</ele><time>2026-05-01T15:54:28.999Z</time></trkpt><trkpt lat="41.738425626316925" lon="13.081976211464532"><ele>193.0</ele><time>2026-05-01T15:54:29.999Z</time></trkpt><trkpt lat="41.7382422609127" lon="13.082347530091576"><ele>192.0</ele><time>2026-05-01T15:54:30.999Z</time></trkpt><trkpt lat="41.738061851191965" lon="13.082721576555096"><ele>191.0</ele><time>2026-05-01T15:54:31.999Z</time></trkpt><trkpt lat="41.737878985392115" lon="13.083093061539023"><ele>192.0</ele><time>2026-05-01T15:54:32.999Z</time></trkpt><trkpt lat="41.73770128757416" lon="13.083465556064846"><ele>193.0</ele><time>2026-05-01T15:54:33.999Z</time></trkpt><trkpt lat="41.73751867063686" lon="13.083837858217112"><ele>194.5</ele><time>2026-05-01T15:54:34.999Z</time></trkpt><trkpt lat="41.737334269788214" lon="13.084208739152674"><ele>196.0</ele><time>2026-05-01T15:54:35.999Z</time></trkpt><trkpt lat="41.73714701643956" lon="13.08457466836789"><ele>198.0</ele><time>2026-05-01T15:54:36.999Z</time></trkpt><trkpt lat="41.73696415844402" lon="13.084945730849094"><ele>200.0</ele><time>2026-05-01T15:54:37.999Z</time></trkpt><trkpt lat="41.736785760787356" lon="13.085321260803468"><ele>200.5</ele><time>2026-05-01T15:54:38.999Z</time></trkpt><trkpt lat="41.736608688285784" lon="13.085696271414855"><ele>201.0</ele><time>2026-05-01T15:54:39.999Z</time></trkpt><trkpt lat="41.73642783979811" lon="13.086069406471811"><ele>201.5</ele><time>2026-05-01T15:54:40.999Z</time></trkpt><trkpt lat="41.736247454718594" lon="13.086442969646912"><ele>202.0</ele><time>2026-05-01T15:54:41.999Z</time></trkpt><trkpt lat="41.73606673672743" lon="13.086814734033032"><ele>200.0</ele><time>2026-05-01T15:54:42.999Z</time></trkpt><trkpt lat="41.73588594651369" lon="13.087185775993238"><ele>198.0</ele><time>2026-05-01T15:54:43.999Z</time></trkpt><trkpt lat="41.73570319775823" lon="13.087556207558164"><ele>198.0</ele><time>2026-05-01T15:54:44.999Z</time></trkpt><trkpt lat="41.735521888142735" lon="13.087926021726064"><ele>198.0</ele><time>2026-05-01T15:54:45.999Z</time></trkpt><trkpt lat="41.73534174544347" lon="13.088297923540656"><ele>197.5</ele><time>2026-05-01T15:54:46.999Z</time></trkpt><trkpt lat="41.735160643361894" lon="13.088669550552767"><ele>197.0</ele><time>2026-05-01T15:54:47.999Z</time></trkpt><trkpt lat="41.73497999557616" lon="13.089041575810274"><ele>197.5</ele><time>2026-05-01T15:54:48.999Z</time></trkpt><trkpt lat="41.73479961974197" lon="13.089413586786147"><ele>198.0</ele><time>2026-05-01T15:54:49.999Z</time></trkpt><trkpt lat="41.73461850152115" lon="13.089785931982334"><ele>197.0</ele><time>2026-05-01T15:54:50.999Z</time></trkpt><trkpt lat="41.7344384201448" lon="13.090159246819063"><ele>196.0</ele><time>2026-05-01T15:54:51.999Z</time></trkpt><trkpt lat="41.73425748399533" lon="13.090534410296469"><ele>199.5</ele><time>2026-05-01T15:54:52.999Z</time></trkpt><trkpt lat="41.73407492269431" lon="13.090906894706514"><ele>203.0</ele><time>2026-05-01T15:54:53.999Z</time></trkpt><trkpt lat="41.73389273013677" lon="13.091279630458686"><ele>202.5</ele><time>2026-05-01T15:54:54.999Z</time></trkpt><trkpt lat="41.733712436057374" lon="13.091652715887264"><ele>202.0</ele><time>2026-05-01T15:54:55.999Z</time></trkpt><trkpt lat="41.733533352524844" lon="13.092026274911008"><ele>206.5</ele><time>2026-05-01T15:54:56.999Z</time></trkpt><trkpt lat="41.73335218878019" lon="13.092397459967176"><ele>211.0</ele><time>2026-05-01T15:54:57.999Z</time></trkpt><trkpt lat="41.733167088301215" lon="13.09276616743529"><ele>214.5</ele><time>2026-05-01T15:54:58.999Z</time></trkpt><trkpt lat="41.73298742174053" lon="13.0931412252474"><ele>218.0</ele><time>2026-05-01T15:55:00Z</time></trkpt><trkpt lat="41.73279981618973" lon="13.093511866981787"><ele>220.5</ele><time>2026-05-01T15:55:01Z</time></trkpt><trkpt lat="41.73261456362608" lon="13.093888409002078"><ele>223.0</ele><time>2026-05-01T15:55:02Z</time></trkpt><trkpt lat="41.732429848175975" lon="13.094265734709252"><ele>223.0</ele><time>2026-05-01T15:55:03Z</time></trkpt><trkpt lat="41.73225026822621" lon="13.094646723460464"><ele>223.0</ele><time>2026-05-01T15:55:04Z</time></trkpt><trkpt lat="41.73206781687431" lon="13.09502454498693"><ele>222.5</ele><time>2026-05-01T15:55:05Z</time></trkpt><trkpt lat="41.731883425844586" lon="13.095399892921833"><ele>222.0</ele><time>2026-05-01T15:55:06Z</time></trkpt><trkpt lat="41.73170284125962" lon="13.095772912148517"><ele>223.0</ele><time>2026-05-01T15:55:07Z</time></trkpt><trkpt lat="41.731519779760774" lon="13.096144019523507"><ele>224.0</ele><time>2026-05-01T15:55:08Z</time></trkpt><trkpt lat="41.73133605755586" lon="13.09651216268571"><ele>224.0</ele><time>2026-05-01T15:55:09Z</time></trkpt><trkpt lat="41.73115827311497" lon="13.096877905027585"><ele>224.0</ele><time>2026-05-01T15:55:10Z</time></trkpt><trkpt lat="41.73098391541795" lon="13.097239770181572"><ele>219.5</ele><time>2026-05-01T15:55:11Z</time></trkpt><trkpt lat="41.73081187489087" lon="13.09759736052575"><ele>215.0</ele><time>2026-05-01T15:55:12Z</time></trkpt><trkpt lat="41.73063987615333" lon="13.097951950626488"><ele>215.0</ele><time>2026-05-01T15:55:13Z</time></trkpt><trkpt lat="41.730469676593664" lon="13.098304355790185"><ele>215.0</ele><time>2026-05-01T15:55:14Z</time></trkpt><trkpt lat="41.73030249862639" lon="13.09865995438877"><ele>215.0</ele><time>2026-05-01T15:55:15Z</time></trkpt><trkpt lat="41.730127730999286" lon="13.099010050802795"><ele>215.0</ele><time>2026-05-01T15:55:16Z</time></trkpt><trkpt lat="41.7299552681195" lon="13.099366189382563"><ele>216.0</ele><time>2026-05-01T15:55:17Z</time></trkpt><trkpt lat="41.72978090166469" lon="13.099726210890998"><ele>217.0</ele><time>2026-05-01T15:55:18Z</time></trkpt><trkpt lat="41.72960360249575" lon="13.100091815457628"><ele>217.0</ele><time>2026-05-01T15:55:19Z</time></trkpt><trkpt lat="41.729425514621745" lon="13.10045977728454"><ele>217.0</ele><time>2026-05-01T15:55:20Z</time></trkpt><trkpt lat="41.729245236224926" lon="13.100826053953478"><ele>215.5</ele><time>2026-05-01T15:55:21Z</time></trkpt><trkpt lat="41.729062679215225" lon="13.101190744425438"><ele>214.0</ele><time>2026-05-01T15:55:22Z</time></trkpt><trkpt lat="41.728881011115675" lon="13.101558019760173"><ele>213.5</ele><time>2026-05-01T15:55:23Z</time></trkpt><trkpt lat="41.72869950738182" lon="13.101927344851138"><ele>213.0</ele><time>2026-05-01T15:55:24Z</time></trkpt><trkpt lat="41.728519296766514" lon="13.102298714877863"><ele>214.5</ele><time>2026-05-01T15:55:25Z</time></trkpt><trkpt lat="41.72833896847471" lon="13.10267294622977"><ele>216.0</ele><time>2026-05-01T15:55:26Z</time></trkpt><trkpt lat="41.728156876229875" lon="13.103047001871756"><ele>219.0</ele><time>2026-05-01T15:55:27Z</time></trkpt><trkpt lat="41.727976137105486" lon="13.103424514068076"><ele>222.0</ele><time>2026-05-01T15:55:28Z</time></trkpt><trkpt lat="41.72779341897611" lon="13.10380236818058"><ele>225.0</ele><time>2026-05-01T15:55:29Z</time></trkpt><trkpt lat="41.72760826866935" lon="13.104179462589673"><ele>228.0</ele><time>2026-05-01T15:55:30Z</time></trkpt><trkpt lat="41.727424094278945" lon="13.104557038780523"><ele>228.5</ele><time>2026-05-01T15:55:31Z</time></trkpt><trkpt lat="41.727238877778014" lon="13.104935802628047"><ele>229.0</ele><time>2026-05-01T15:55:32Z</time></trkpt><trkpt lat="41.727052567853" lon="13.105314855008292"><ele>229.0</ele><time>2026-05-01T15:55:33Z</time></trkpt><trkpt lat="41.72686685390097" lon="13.105694699391517"><ele>229.0</ele><time>2026-05-01T15:55:33.999Z</time></trkpt><trkpt lat="41.72667994696568" lon="13.106072527726399"><ele>228.0</ele><time>2026-05-01T15:55:34.999Z</time></trkpt><trkpt lat="41.72649679278126" lon="13.106450711830021"><ele>227.0</ele><time>2026-05-01T15:55:35.999Z</time></trkpt><trkpt lat="41.72631303760154" lon="13.106830230300293"><ele>226.5</ele><time>2026-05-01T15:55:36.999Z</time></trkpt><trkpt lat="41.726129761815486" lon="13.107206932571263"><ele>226.0</ele><time>2026-05-01T15:55:37.999Z</time></trkpt><trkpt lat="41.72594554781877" lon="13.107584765710047"><ele>223.5</ele><time>2026-05-01T15:55:38.999Z</time></trkpt><trkpt lat="41.725760375801755" lon="13.10796172472131"><ele>221.0</ele><time>2026-05-01T15:55:39.999Z</time></trkpt><trkpt lat="41.725575734932136" lon="13.108339685868389"><ele>221.0</ele><time>2026-05-01T15:55:40.999Z</time></trkpt><trkpt lat="41.72539368129379" lon="13.108718002176161"><ele>221.0</ele><time>2026-05-01T15:55:41.999Z</time></trkpt><trkpt lat="41.725210470587925" lon="13.109095010677391"><ele>219.0</ele><time>2026-05-01T15:55:42.999Z</time></trkpt><trkpt lat="41.725030367857656" lon="13.109473841145064"><ele>217.0</ele><time>2026-05-01T15:55:43.999Z</time></trkpt><trkpt lat="41.72484838191798" lon="13.109852550340253"><ele>218.0</ele><time>2026-05-01T15:55:44.999Z</time></trkpt><trkpt lat="41.7246641453782" lon="13.110230029768815"><ele>219.0</ele><time>2026-05-01T15:55:45.999Z</time></trkpt><trkpt lat="41.724481618056714" lon="13.110606961752461"><ele>218.0</ele><time>2026-05-01T15:55:46.999Z</time></trkpt><trkpt lat="41.72429957671992" lon="13.110984455854929"><ele>217.0</ele><time>2026-05-01T15:55:47.999Z</time></trkpt><trkpt lat="41.72411693379084" lon="13.11135831264342"><ele>215.5</ele><time>2026-05-01T15:55:48.999Z</time></trkpt><trkpt lat="41.723932799817185" lon="13.111731336189287"><ele>214.0</ele><time>2026-05-01T15:55:49.999Z</time></trkpt><trkpt lat="41.723750411528094" lon="13.112105336058326"><ele>212.0</ele><time>2026-05-01T15:55:50.999Z</time></trkpt><trkpt lat="41.72356741095623" lon="13.112479139633948"><ele>210.0</ele><time>2026-05-01T15:55:51.999Z</time></trkpt><trkpt lat="41.723384526913875" lon="13.11285515485796"><ele>209.5</ele><time>2026-05-01T15:55:52.999Z</time></trkpt><trkpt lat="41.72320432090188" lon="13.113232857068365"><ele>209.0</ele><time>2026-05-01T15:55:53.999Z</time></trkpt><trkpt lat="41.72302323198852" lon="13.113608750948472"><ele>208.5</ele><time>2026-05-01T15:55:54.999Z</time></trkpt><trkpt lat="41.72283974478268" lon="13.113982023667287"><ele>208.0</ele><time>2026-05-01T15:55:55.999Z</time></trkpt><trkpt lat="41.72265598460928" lon="13.11435478805128"><ele>208.0</ele><time>2026-05-01T15:55:56.999Z</time></trkpt><trkpt lat="41.722474019951726" lon="13.11472733047534"><ele>208.0</ele><time>2026-05-01T15:55:57.999Z</time></trkpt><trkpt lat="41.722293191797014" lon="13.115100244446868"><ele>208.0</ele><time>2026-05-01T15:55:58.999Z</time></trkpt><trkpt lat="41.72211290478976" lon="13.115474129001013"><ele>208.0</ele><time>2026-05-01T15:55:59.999Z</time></trkpt><trkpt lat="41.72193095596238" lon="13.11584992897264"><ele>208.0</ele><time>2026-05-01T15:56:00.999Z</time></trkpt><trkpt lat="41.72174916590729" lon="13.116222227451122"><ele>208.0</ele><time>2026-05-01T15:56:01.999Z</time></trkpt><trkpt lat="41.721568247460496" lon="13.116598943134562"><ele>208.0</ele><time>2026-05-01T15:56:02.999Z</time></trkpt><trkpt lat="41.721385755849305" lon="13.116974782272214"><ele>208.0</ele><time>2026-05-01T15:56:03.999Z</time></trkpt><trkpt lat="41.7212034345184" lon="13.11735035783291"><ele>207.0</ele><time>2026-05-01T15:56:04.999Z</time></trkpt><trkpt lat="41.72101736296109" lon="13.117724138439828"><ele>206.0</ele><time>2026-05-01T15:56:05.999Z</time></trkpt><trkpt lat="41.72083412886961" lon="13.118099945371675"><ele>208.0</ele><time>2026-05-01T15:56:06.999Z</time></trkpt><trkpt lat="41.72065115219844" lon="13.118477815982411"><ele>210.0</ele><time>2026-05-01T15:56:07.999Z</time></trkpt><trkpt lat="41.72046429506015" lon="13.118851744413002"><ele>210.5</ele><time>2026-05-01T15:56:08.999Z</time></trkpt><trkpt lat="41.7202813918624" lon="13.119230882099497"><ele>211.0</ele><time>2026-05-01T15:56:09.999Z</time></trkpt><trkpt lat="41.72009443703707" lon="13.119606812336295"><ele>211.0</ele><time>2026-05-01T15:56:10.999Z</time></trkpt><trkpt lat="41.71990891770148" lon="13.119982450806894"><ele>211.0</ele><time>2026-05-01T15:56:11.999Z</time></trkpt><trkpt lat="41.71972496763071" lon="13.120358982150139"><ele>210.0</ele><time>2026-05-01T15:56:12.999Z</time></trkpt><trkpt lat="41.7195394911829" lon="13.120734372827474"><ele>209.0</ele><time>2026-05-01T15:56:13.999Z</time></trkpt><trkpt lat="41.71935636805879" lon="13.121109468181636"><ele>209.0</ele><time>2026-05-01T15:56:14.999Z</time></trkpt><trkpt lat="41.7191676574357" lon="13.121485698492425"><ele>209.0</ele><time>2026-05-01T15:56:15.999Z</time></trkpt><trkpt lat="41.718982445304974" lon="13.121864293460511"><ele>211.0</ele><time>2026-05-01T15:56:16.999Z</time></trkpt><trkpt lat="41.71880105226045" lon="13.12224653072122"><ele>213.0</ele><time>2026-05-01T15:56:17.999Z</time></trkpt><trkpt lat="41.71861816195065" lon="13.122628198405616"><ele>212.5</ele><time>2026-05-01T15:56:18.999Z</time></trkpt><trkpt lat="41.71842970320266" lon="13.12300543201722"><ele>212.0</ele><time>2026-05-01T15:56:19.999Z</time></trkpt><trkpt lat="41.71823684481482" lon="13.123379800469307"><ele>212.0</ele><time>2026-05-01T15:56:20.999Z</time></trkpt><trkpt lat="41.71805232619198" lon="13.123756768510074"><ele>212.0</ele><time>2026-05-01T15:56:21.999Z</time></trkpt><trkpt lat="41.7178671024649" lon="13.124134738565035"><ele>209.0</ele><time>2026-05-01T15:56:22.999Z</time></trkpt><trkpt lat="41.71767965586084" lon="13.124511385272516"><ele>206.0</ele><time>2026-05-01T15:56:23.999Z</time></trkpt><trkpt lat="41.71749559400657" lon="13.124886960575529"><ele>206.0</ele><time>2026-05-01T15:56:24.999Z</time></trkpt><trkpt lat="41.71731394566424" lon="13.125265378297652"><ele>206.0</ele><time>2026-05-01T15:56:25.999Z</time></trkpt><trkpt lat="41.71712852487438" lon="13.125639568969344"><ele>206.0</ele><time>2026-05-01T15:56:26.999Z</time></trkpt><trkpt lat="41.716943295341316" lon="13.126009268020221"><ele>206.0</ele><time>2026-05-01T15:56:27.999Z</time></trkpt><trkpt lat="41.716760141643945" lon="13.126385028425622"><ele>207.0</ele><time>2026-05-01T15:56:28.999Z</time></trkpt><trkpt lat="41.71656728127834" lon="13.126754687066963"><ele>208.0</ele><time>2026-05-01T15:56:29.999Z</time></trkpt><trkpt lat="41.71638501264696" lon="13.127133010083872"><ele>208.0</ele><time>2026-05-01T15:56:30.999Z</time></trkpt><trkpt lat="41.71620182006457" lon="13.127509724226723"><ele>208.0</ele><time>2026-05-01T15:56:31.999Z</time></trkpt><trkpt lat="41.71601708638654" lon="13.127886484460847"><ele>209.0</ele><time>2026-05-01T15:56:32.999Z</time></trkpt><trkpt lat="41.71583552730859" lon="13.12826245968946"><ele>210.0</ele><time>2026-05-01T15:56:33.999Z</time></trkpt><trkpt lat="41.715652590285586" lon="13.128640680509884"><ele>210.0</ele><time>2026-05-01T15:56:34.999Z</time></trkpt><trkpt lat="41.71547013592582" lon="13.129020122324542"><ele>210.0</ele><time>2026-05-01T15:56:35.999Z</time></trkpt><trkpt lat="41.715288598803795" lon="13.129396950028573"><ele>210.0</ele><time>2026-05-01T15:56:36.999Z</time></trkpt><trkpt lat="41.71510621609054" lon="13.12977299404118"><ele>210.0</ele><time>2026-05-01T15:56:37.999Z</time></trkpt><trkpt lat="41.71492320839141" lon="13.13014638322673"><ele>210.0</ele><time>2026-05-01T15:56:38.999Z</time></trkpt><trkpt lat="41.71474019813649" lon="13.13051853005593"><ele>210.0</ele><time>2026-05-01T15:56:39.999Z</time></trkpt><trkpt lat="41.71455626406001" lon="13.13089314438563"><ele>211.0</ele><time>2026-05-01T15:56:40.999Z</time></trkpt><trkpt lat="41.714372728518796" lon="13.131268351329632"><ele>212.0</ele><time>2026-05-01T15:56:41.999Z</time></trkpt><trkpt lat="41.71418843451929" lon="13.13164312172504"><ele>213.0</ele><time>2026-05-01T15:56:42.999Z</time></trkpt><trkpt lat="41.714004215193725" lon="13.13201829316611"><ele>214.0</ele><time>2026-05-01T15:56:43.999Z</time></trkpt><trkpt lat="41.71381984955689" lon="13.13239402512545"><ele>214.0</ele><time>2026-05-01T15:56:44.999Z</time></trkpt><trkpt lat="41.713636026769194" lon="13.132770845620902"><ele>214.0</ele><time>2026-05-01T15:56:45.999Z</time></trkpt><trkpt lat="41.713453894201194" lon="13.133144377871895"><ele>214.5</ele><time>2026-05-01T15:56:46.999Z</time></trkpt><trkpt lat="41.713270160775096" lon="13.13351746435314"><ele>215.0</ele><time>2026-05-01T15:56:47.999Z</time></trkpt><trkpt lat="41.713085597956805" lon="13.13388910937439"><ele>215.5</ele><time>2026-05-01T15:56:48.999Z</time></trkpt><trkpt lat="41.712901909217685" lon="13.13426229551986"><ele>216.0</ele><time>2026-05-01T15:56:49.999Z</time></trkpt><trkpt lat="41.71271968486714" lon="13.134638383490586"><ele>217.5</ele><time>2026-05-01T15:56:50.999Z</time></trkpt><trkpt lat="41.71253772741381" lon="13.13501618484604"><ele>219.0</ele><time>2026-05-01T15:56:51.999Z</time></trkpt><trkpt lat="41.71235539977317" lon="13.135393306023696"><ele>219.5</ele><time>2026-05-01T15:56:52.999Z</time></trkpt><trkpt lat="41.71217170452155" lon="13.135771320128912"><ele>220.0</ele><time>2026-05-01T15:56:53.999Z</time></trkpt><trkpt lat="41.711987675757975" lon="13.13614980287055"><ele>219.5</ele><time>2026-05-01T15:56:54.999Z</time></trkpt><trkpt lat="41.71180447649849" lon="13.136528259491977"><ele>219.0</ele><time>2026-05-01T15:56:55.999Z</time></trkpt><trkpt lat="41.711620945586255" lon="13.136905445608479"><ele>219.0</ele><time>2026-05-01T15:56:56.999Z</time></trkpt><trkpt lat="41.71143767344658" lon="13.137281059221609"><ele>219.0</ele><time>2026-05-01T15:56:57.999Z</time></trkpt><trkpt lat="41.71125319608527" lon="13.137657018710417"><ele>219.5</ele><time>2026-05-01T15:56:58.999Z</time></trkpt><trkpt lat="41.71107099461815" lon="13.138031008511469"><ele>220.0</ele><time>2026-05-01T15:56:59.999Z</time></trkpt><trkpt lat="41.71088905912621" lon="13.138406703531164"><ele>220.0</ele><time>2026-05-01T15:57:00.999Z</time></trkpt><trkpt lat="41.71070686793671" lon="13.13878046816428"><ele>220.0</ele><time>2026-05-01T15:57:01.999Z</time></trkpt><trkpt lat="41.710523986709845" lon="13.139155366036709"><ele>220.5</ele><time>2026-05-01T15:57:02.999Z</time></trkpt><trkpt lat="41.71034095405338" lon="13.139529672437542"><ele>221.0</ele><time>2026-05-01T15:57:03.999Z</time></trkpt><trkpt lat="41.71015644645869" lon="13.13990664537674"><ele>221.0</ele><time>2026-05-01T15:57:05Z</time></trkpt><trkpt lat="41.709971312560484" lon="13.140283399356385"><ele>221.0</ele><time>2026-05-01T15:57:06Z</time></trkpt><trkpt lat="41.70978657683321" lon="13.140659932676897"><ele>222.0</ele><time>2026-05-01T15:57:07Z</time></trkpt><trkpt lat="41.709603735903535" lon="13.141034763631566"><ele>223.0</ele><time>2026-05-01T15:57:08Z</time></trkpt><trkpt lat="41.709419854258115" lon="13.141411302478623"><ele>222.5</ele><time>2026-05-01T15:57:09Z</time></trkpt><trkpt lat="41.70923585070188" lon="13.141788212859016"><ele>222.0</ele><time>2026-05-01T15:57:10Z</time></trkpt><trkpt lat="41.70905255430289" lon="13.142164370773063"><ele>222.0</ele><time>2026-05-01T15:57:11Z</time></trkpt><trkpt lat="41.70886779713388" lon="13.14254130425332"><ele>222.0</ele><time>2026-05-01T15:57:12Z</time></trkpt><trkpt lat="41.70868299402645" lon="13.142916512258417"><ele>223.0</ele><time>2026-05-01T15:57:13Z</time></trkpt><trkpt lat="41.708497588868376" lon="13.143292924650591"><ele>224.0</ele><time>2026-05-01T15:57:14Z</time></trkpt><trkpt lat="41.708313295021696" lon="13.143670386996343"><ele>223.5</ele><time>2026-05-01T15:57:15Z</time></trkpt><trkpt lat="41.70812679304447" lon="13.1440472699149"><ele>223.0</ele><time>2026-05-01T15:57:16Z</time></trkpt><trkpt lat="41.707942467100025" lon="13.144423771573319"><ele>223.0</ele><time>2026-05-01T15:57:17Z</time></trkpt><trkpt lat="41.70775674692559" lon="13.144800558358602"><ele>223.0</ele><time>2026-05-01T15:57:18Z</time></trkpt><trkpt lat="41.70756931690245" lon="13.145173438276965"><ele>222.0</ele><time>2026-05-01T15:57:19Z</time></trkpt><trkpt lat="41.7073866417817" lon="13.145550001453907"><ele>221.0</ele><time>2026-05-01T15:57:20Z</time></trkpt><trkpt lat="41.707203743252514" lon="13.145926900289338"><ele>220.5</ele><time>2026-05-01T15:57:21Z</time></trkpt><trkpt lat="41.707019331424725" lon="13.146303273939811"><ele>220.0</ele><time>2026-05-01T15:57:22Z</time></trkpt><trkpt lat="41.70683526440823" lon="13.146679876460297"><ele>219.5</ele><time>2026-05-01T15:57:23Z</time></trkpt><trkpt lat="41.70665283865533" lon="13.147057507006641"><ele>219.0</ele><time>2026-05-01T15:57:24Z</time></trkpt><trkpt lat="41.70647072647245" lon="13.147435038683833"><ele>218.0</ele><time>2026-05-01T15:57:25Z</time></trkpt><trkpt lat="41.70628672481757" lon="13.147809490565297"><ele>217.0</ele><time>2026-05-01T15:57:26Z</time></trkpt><trkpt lat="41.706103932846915" lon="13.148184680028745"><ele>216.0</ele><time>2026-05-01T15:57:27Z</time></trkpt><trkpt lat="41.70591942444612" lon="13.148558821156037"><ele>215.0</ele><time>2026-05-01T15:57:28Z</time></trkpt><trkpt lat="41.70573935336657" lon="13.148937225223566"><ele>215.5</ele><time>2026-05-01T15:57:29Z</time></trkpt><trkpt lat="41.705561398802885" lon="13.149316474821733"><ele>216.0</ele><time>2026-05-01T15:57:30Z</time></trkpt><trkpt lat="41.70538218370555" lon="13.149694388742542"><ele>215.5</ele><time>2026-05-01T15:57:31Z</time></trkpt><trkpt lat="41.70520305810914" lon="13.150075426412188"><ele>215.0</ele><time>2026-05-01T15:57:32Z</time></trkpt><trkpt lat="41.70501783739769" lon="13.150450905233576"><ele>216.5</ele><time>2026-05-01T15:57:33Z</time></trkpt><trkpt lat="41.70483578281946" lon="13.150830204420425"><ele>218.0</ele><time>2026-05-01T15:57:34Z</time></trkpt><trkpt lat="41.704649481878924" lon="13.151207190072325"><ele>218.5</ele><time>2026-05-01T15:57:35Z</time></trkpt><trkpt lat="41.70446763100119" lon="13.151585506125121"><ele>219.0</ele><time>2026-05-01T15:57:35.999Z</time></trkpt><trkpt lat="41.70428214974382" lon="13.151962992727755"><ele>217.0</ele><time>2026-05-01T15:57:36.999Z</time></trkpt><trkpt lat="41.70409973658177" lon="13.152341019772477"><ele>215.0</ele><time>2026-05-01T15:57:37.999Z</time></trkpt><trkpt lat="41.70391707938813" lon="13.152718283242681"><ele>215.0</ele><time>2026-05-01T15:57:38.999Z</time></trkpt><trkpt lat="41.70373489209266" lon="13.153095458566657"><ele>215.0</ele><time>2026-05-01T15:57:39.999Z</time></trkpt><trkpt lat="41.703555883420954" lon="13.153474860304547"><ele>215.5</ele><time>2026-05-01T15:57:40.999Z</time></trkpt><trkpt lat="41.70337385714592" lon="13.15385418898077"><ele>216.0</ele><time>2026-05-01T15:57:41.999Z</time></trkpt><trkpt lat="41.70319952466286" lon="13.154236420454541"><ele>216.0</ele><time>2026-05-01T15:57:42.999Z</time></trkpt><trkpt lat="41.703019980885756" lon="13.154615903622366"><ele>216.0</ele><time>2026-05-01T15:57:43.999Z</time></trkpt><trkpt lat="41.70284110231398" lon="13.154995572585579"><ele>216.0</ele><time>2026-05-01T15:57:44.999Z</time></trkpt><trkpt lat="41.70265985902764" lon="13.155371214327182"><ele>216.0</ele><time>2026-05-01T15:57:45.999Z</time></trkpt><trkpt lat="41.702485285059" lon="13.155749920851585"><ele>216.0</ele><time>2026-05-01T15:57:46.999Z</time></trkpt><trkpt lat="41.70230698584717" lon="13.156125922832164"><ele>216.0</ele><time>2026-05-01T15:57:47.999Z</time></trkpt><trkpt lat="41.702119014424305" lon="13.156497104348274"><ele>216.0</ele><time>2026-05-01T15:57:48.999Z</time></trkpt><trkpt lat="41.701937353678495" lon="13.156871819087053"><ele>216.0</ele><time>2026-05-01T15:57:49.999Z</time></trkpt><trkpt lat="41.70175210438074" lon="13.15724376144197"><ele>216.0</ele><time>2026-05-01T15:57:50.999Z</time></trkpt><trkpt lat="41.70156859491244" lon="13.15761765162194"><ele>216.0</ele><time>2026-05-01T15:57:51.999Z</time></trkpt><trkpt lat="41.701384025116155" lon="13.15799226049761"><ele>216.5</ele><time>2026-05-01T15:57:52.999Z</time></trkpt><trkpt lat="41.7012004773008" lon="13.158365911667344"><ele>217.0</ele><time>2026-05-01T15:57:53.999Z</time></trkpt><trkpt lat="41.701014841092004" lon="13.158739629021047"><ele>216.0</ele><time>2026-05-01T15:57:54.999Z</time></trkpt><trkpt lat="41.70082978995803" lon="13.15911321546984"><ele>215.0</ele><time>2026-05-01T15:57:55.999Z</time></trkpt><trkpt lat="41.70064498690714" lon="13.15948938871875"><ele>215.0</ele><time>2026-05-01T15:57:56.999Z</time></trkpt><trkpt lat="41.700457802065365" lon="13.159865554754012"><ele>215.0</ele><time>2026-05-01T15:57:57.999Z</time></trkpt><trkpt lat="41.7002684843236" lon="13.160242200215349"><ele>214.0</ele><time>2026-05-01T15:57:58.999Z</time></trkpt><trkpt lat="41.70008066991179" lon="13.160620259271719"><ele>213.0</ele><time>2026-05-01T15:57:59.999Z</time></trkpt><trkpt lat="41.69989541174466" lon="13.160999114005024"><ele>213.0</ele><time>2026-05-01T15:58:00.999Z</time></trkpt><trkpt lat="41.699709952748115" lon="13.161377916472642"><ele>213.0</ele><time>2026-05-01T15:58:01.999Z</time></trkpt><trkpt lat="41.69952526435174" lon="13.161754810107146"><ele>212.0</ele><time>2026-05-01T15:58:02.999Z</time></trkpt><trkpt lat="41.69934085439757" lon="13.162132303444709"><ele>211.0</ele><time>2026-05-01T15:58:03.999Z</time></trkpt><trkpt lat="41.69915640566513" lon="13.162508946514546"><ele>210.5</ele><time>2026-05-01T15:58:04.999Z</time></trkpt><trkpt lat="41.69897334539623" lon="13.162885800420925"><ele>210.0</ele><time>2026-05-01T15:58:05.999Z</time></trkpt><trkpt lat="41.69879246424382" lon="13.163262766933205"><ele>209.5</ele><time>2026-05-01T15:58:06.999Z</time></trkpt><trkpt lat="41.69860793169621" lon="13.163637425463811"><ele>209.0</ele><time>2026-05-01T15:58:07.999Z</time></trkpt><trkpt lat="41.698426348902764" lon="13.164013622200823"><ele>208.0</ele><time>2026-05-01T15:58:08.999Z</time></trkpt><trkpt lat="41.698243895259814" lon="13.164390779152827"><ele>207.0</ele><time>2026-05-01T15:58:09.999Z</time></trkpt><trkpt lat="41.69805695715791" lon="13.164765130782259"><ele>206.5</ele><time>2026-05-01T15:58:10.999Z</time></trkpt><trkpt lat="41.69787299382998" lon="13.165137063746574"><ele>206.0</ele><time>2026-05-01T15:58:11.999Z</time></trkpt><trkpt lat="41.69769276775863" lon="13.16551093044451"><ele>207.5</ele><time>2026-05-01T15:58:12.999Z</time></trkpt><trkpt lat="41.69750692869325" lon="13.165887170999671"><ele>209.0</ele><time>2026-05-01T15:58:13.999Z</time></trkpt><trkpt lat="41.69732322410786" lon="13.166260621678715"><ele>210.5</ele><time>2026-05-01T15:58:14.999Z</time></trkpt><trkpt lat="41.69713870290421" lon="13.166634735510684"><ele>212.0</ele><time>2026-05-01T15:58:15.999Z</time></trkpt><trkpt lat="41.69695417696617" lon="13.167008361937068"><ele>210.0</ele><time>2026-05-01T15:58:16.999Z</time></trkpt><trkpt lat="41.69676995225141" lon="13.167383981333677"><ele>208.0</ele><time>2026-05-01T15:58:17.999Z</time></trkpt><trkpt lat="41.69658807874531" lon="13.167757741178312"><ele>208.0</ele><time>2026-05-01T15:58:18.999Z</time></trkpt><trkpt lat="41.69640609723932" lon="13.168132582714541"><ele>208.0</ele><time>2026-05-01T15:58:19.999Z</time></trkpt><trkpt lat="41.69622314636503" lon="13.16850842608479"><ele>207.5</ele><time>2026-05-01T15:58:20.999Z</time></trkpt><trkpt lat="41.696039814959796" lon="13.168882191926734"><ele>207.0</ele><time>2026-05-01T15:58:21.999Z</time></trkpt><trkpt lat="41.695856658041066" lon="13.169254708085848"><ele>207.0</ele><time>2026-05-01T15:58:22.999Z</time></trkpt><trkpt lat="41.6956736392801" lon="13.169625815060105"><ele>207.0</ele><time>2026-05-01T15:58:23.999Z</time></trkpt><trkpt lat="41.69549083560362" lon="13.169998028466354"><ele>207.0</ele><time>2026-05-01T15:58:24.999Z</time></trkpt><trkpt lat="41.69530858268391" lon="13.170369760367924"><ele>207.0</ele><time>2026-05-01T15:58:25.999Z</time></trkpt><trkpt lat="41.69512551699971" lon="13.170741581915983"><ele>207.0</ele><time>2026-05-01T15:58:26.999Z</time></trkpt><trkpt lat="41.69494092175082" lon="13.17111513938859"><ele>207.0</ele><time>2026-05-01T15:58:27.999Z</time></trkpt><trkpt lat="41.69475552591239" lon="13.171489078531142"><ele>207.5</ele><time>2026-05-01T15:58:28.999Z</time></trkpt><trkpt lat="41.694570124945486" lon="13.171863137171224"><ele>208.0</ele><time>2026-05-01T15:58:29.999Z</time></trkpt><trkpt lat="41.69438529369527" lon="13.172238311886007"><ele>209.5</ele><time>2026-05-01T15:58:30.999Z</time></trkpt><trkpt lat="41.694200342556925" lon="13.17261330302251"><ele>211.0</ele><time>2026-05-01T15:58:31.999Z</time></trkpt><trkpt lat="41.69401371428151" lon="13.172988474160938"><ele>212.0</ele><time>2026-05-01T15:58:32.999Z</time></trkpt><trkpt lat="41.693827902308655" lon="13.173363125866958"><ele>213.0</ele><time>2026-05-01T15:58:33.999Z</time></trkpt><trkpt lat="41.69364339398363" lon="13.1737374548141"><ele>214.0</ele><time>2026-05-01T15:58:34.999Z</time></trkpt><trkpt lat="41.693459135269975" lon="13.174113611458354"><ele>215.0</ele><time>2026-05-01T15:58:35.999Z</time></trkpt><trkpt lat="41.69327604836917" lon="13.174488320833943"><ele>217.0</ele><time>2026-05-01T15:58:36.999Z</time></trkpt><trkpt lat="41.693092293630585" lon="13.174864646110752"><ele>219.0</ele><time>2026-05-01T15:58:37.999Z</time></trkpt><trkpt lat="41.692906866795745" lon="13.175241155311209"><ele>217.0</ele><time>2026-05-01T15:58:38.999Z</time></trkpt><trkpt lat="41.69272141156034" lon="13.175616274565883"><ele>215.0</ele><time>2026-05-01T15:58:39.999Z</time></trkpt><trkpt lat="41.69253615827913" lon="13.175992692821863"><ele>215.0</ele><time>2026-05-01T15:58:40.999Z</time></trkpt><trkpt lat="41.69235057996028" lon="13.176370047242147"><ele>215.0</ele><time>2026-05-01T15:58:41.999Z</time></trkpt><trkpt lat="41.69216551193823" lon="13.176747247209308"><ele>215.5</ele><time>2026-05-01T15:58:42.999Z</time></trkpt><trkpt lat="41.69198101070328" lon="13.177124517115276"><ele>216.0</ele><time>2026-05-01T15:58:43.999Z</time></trkpt><trkpt lat="41.691797302932386" lon="13.177502522618058"><ele>216.0</ele><time>2026-05-01T15:58:44.999Z</time></trkpt><trkpt lat="41.69161484936321" lon="13.177879618001711"><ele>216.0</ele><time>2026-05-01T15:58:45.999Z</time></trkpt><trkpt lat="41.691433656269794" lon="13.178258108594866"><ele>216.0</ele><time>2026-05-01T15:58:46.999Z</time></trkpt><trkpt lat="41.691251572447555" lon="13.17863439775194"><ele>216.0</ele><time>2026-05-01T15:58:47.999Z</time></trkpt><trkpt lat="41.69106761927225" lon="13.1790084844099"><ele>217.5</ele><time>2026-05-01T15:58:48.999Z</time></trkpt><trkpt lat="41.69088213952565" lon="13.179382480794809"><ele>219.0</ele><time>2026-05-01T15:58:49.999Z</time></trkpt><trkpt lat="41.69069753357791" lon="13.179754830484326"><ele>220.5</ele><time>2026-05-01T15:58:50.999Z</time></trkpt><trkpt lat="41.69051329827614" lon="13.180126789843957"><ele>222.0</ele><time>2026-05-01T15:58:51.999Z</time></trkpt><trkpt lat="41.69032918412796" lon="13.180499380162596"><ele>223.0</ele><time>2026-05-01T15:58:52.999Z</time></trkpt><trkpt lat="41.690146670417576" lon="13.18087414241369"><ele>224.0</ele><time>2026-05-01T15:58:53.999Z</time></trkpt><trkpt lat="41.68996575335928" lon="13.181250598067672"><ele>225.5</ele><time>2026-05-01T15:58:54.999Z</time></trkpt><trkpt lat="41.68978474622471" lon="13.181625047552382"><ele>227.0</ele><time>2026-05-01T15:58:55.999Z</time></trkpt><trkpt lat="41.68960396811289" lon="13.181999497630981"><ele>229.5</ele><time>2026-05-01T15:58:56.999Z</time></trkpt><trkpt lat="41.68942308654005" lon="13.182372954267894"><ele>232.0</ele><time>2026-05-01T15:58:57.999Z</time></trkpt><trkpt lat="41.68923896972185" lon="13.182745610669372"><ele>232.0</ele><time>2026-05-01T15:58:58.999Z</time></trkpt><trkpt lat="41.689051414672846" lon="13.1831152488763"><ele>232.0</ele><time>2026-05-01T15:58:59.999Z</time></trkpt><trkpt lat="41.688859596023796" lon="13.183480333734531"><ele>234.0</ele><time>2026-05-01T15:59:00.999Z</time></trkpt><trkpt lat="41.688665106948065" lon="13.183841766169346"><ele>236.0</ele><time>2026-05-01T15:59:01.999Z</time></trkpt><trkpt lat="41.68846975689398" lon="13.184201219556968"><ele>239.0</ele><time>2026-05-01T15:59:02.999Z</time></trkpt><trkpt lat="41.688273745978236" lon="13.184561621864383"><ele>242.0</ele><time>2026-05-01T15:59:03.999Z</time></trkpt><trkpt lat="41.68807430177841" lon="13.184919965794062"><ele>243.0</ele><time>2026-05-01T15:59:04.998Z</time></trkpt><trkpt lat="41.68786916052213" lon="13.185273068697228"><ele>244.0</ele><time>2026-05-01T15:59:05.998Z</time></trkpt><trkpt lat="41.68766140225052" lon="13.185622487387146"><ele>242.5</ele><time>2026-05-01T15:59:06.998Z</time></trkpt><trkpt lat="41.68745296237144" lon="13.185972636991737"><ele>241.0</ele><time>2026-05-01T15:59:07.998Z</time></trkpt><trkpt lat="41.68724221397929" lon="13.186322219635004"><ele>241.5</ele><time>2026-05-01T15:59:08.998Z</time></trkpt><trkpt lat="41.68702898398273" lon="13.186669246841856"><ele>242.0</ele><time>2026-05-01T15:59:09.998Z</time></trkpt><trkpt lat="41.68681251226647" lon="13.187015138796907"><ele>242.5</ele><time>2026-05-01T15:59:11Z</time></trkpt><trkpt lat="41.686591647553556" lon="13.187356536320431"><ele>243.0</ele><time>2026-05-01T15:59:12Z</time></trkpt><trkpt lat="41.68636832077252" lon="13.187695574084692"><ele>243.0</ele><time>2026-05-01T15:59:13Z</time></trkpt><trkpt lat="41.686142991018144" lon="13.18803409684867"><ele>243.0</ele><time>2026-05-01T15:59:14Z</time></trkpt><trkpt lat="41.68591724634001" lon="13.188371936730984"><ele>243.0</ele><time>2026-05-01T15:59:15Z</time></trkpt><trkpt lat="41.68569142077296" lon="13.188708265712599"><ele>243.0</ele><time>2026-05-01T15:59:16Z</time></trkpt><trkpt lat="41.68546414917261" lon="13.189045361077842"><ele>243.5</ele><time>2026-05-01T15:59:17Z</time></trkpt><trkpt lat="41.68523770766943" lon="13.189382803851968"><ele>244.0</ele><time>2026-05-01T15:59:18Z</time></trkpt><trkpt lat="41.68501227383268" lon="13.189720557369332"><ele>244.5</ele><time>2026-05-01T15:59:19Z</time></trkpt><trkpt lat="41.684787593537806" lon="13.190060924318338"><ele>245.0</ele><time>2026-05-01T15:59:20Z</time></trkpt><trkpt lat="41.684562319913724" lon="13.190402741402373"><ele>247.0</ele><time>2026-05-01T15:59:21Z</time></trkpt><trkpt lat="41.68433710133253" lon="13.19074181006437"><ele>249.0</ele><time>2026-05-01T15:59:22Z</time></trkpt><trkpt lat="41.68411563961776" lon="13.191075761450634"><ele>249.0</ele><time>2026-05-01T15:59:23Z</time></trkpt><trkpt lat="41.68389627046855" lon="13.191410174296646"><ele>249.0</ele><time>2026-05-01T15:59:24Z</time></trkpt><trkpt lat="41.68367918128933" lon="13.191740802982011"><ele>249.0</ele><time>2026-05-01T15:59:25Z</time></trkpt><trkpt lat="41.683465705205" lon="13.19206750205588"><ele>249.0</ele><time>2026-05-01T15:59:26Z</time></trkpt><trkpt lat="41.68325186964148" lon="13.192395184787289"><ele>247.5</ele><time>2026-05-01T15:59:27Z</time></trkpt><trkpt lat="41.683038690863675" lon="13.19272159302008"><ele>246.0</ele><time>2026-05-01T15:59:28Z</time></trkpt><trkpt lat="41.682823524520224" lon="13.193053228026221"><ele>242.5</ele><time>2026-05-01T15:59:29Z</time></trkpt><trkpt lat="41.68260715339446" lon="13.193384614104048"><ele>239.0</ele><time>2026-05-01T15:59:30Z</time></trkpt><trkpt lat="41.682387837852005" lon="13.193716863714481"><ele>238.5</ele><time>2026-05-01T15:59:31Z</time></trkpt><trkpt lat="41.68216738360384" lon="13.194046543418688"><ele>238.0</ele><time>2026-05-01T15:59:32Z</time></trkpt><trkpt lat="41.681947357971865" lon="13.194377765800784"><ele>238.5</ele><time>2026-05-01T15:59:33Z</time></trkpt><trkpt lat="41.681726610856515" lon="13.194710735520157"><ele>239.0</ele><time>2026-05-01T15:59:34Z</time></trkpt><trkpt lat="41.6815068835865" lon="13.195043675514304"><ele>237.0</ele><time>2026-05-01T15:59:35Z</time></trkpt><trkpt lat="41.68128600571295" lon="13.195375511830653"><ele>235.0</ele><time>2026-05-01T15:59:36Z</time></trkpt><trkpt lat="41.68106598992728" lon="13.195705945579986"><ele>234.0</ele><time>2026-05-01T15:59:37Z</time></trkpt><trkpt lat="41.68084381921963" lon="13.19603878432556"><ele>233.0</ele><time>2026-05-01T15:59:38Z</time></trkpt><trkpt lat="41.68062024800246" lon="13.196373391375422"><ele>234.5</ele><time>2026-05-01T15:59:39Z</time></trkpt><trkpt lat="41.68039603976356" lon="13.196704752302331"><ele>236.0</ele><time>2026-05-01T15:59:40Z</time></trkpt><trkpt lat="41.68017054784142" lon="13.197035634909536"><ele>233.5</ele><time>2026-05-01T15:59:41Z</time></trkpt><trkpt lat="41.679944825323986" lon="13.197367785967371"><ele>231.0</ele><time>2026-05-01T15:59:42Z</time></trkpt><trkpt lat="41.67972074641457" lon="13.197700860986444"><ele>231.0</ele><time>2026-05-01T15:59:42.999Z</time></trkpt><trkpt lat="41.67949687757877" lon="13.198034103874638"><ele>231.0</ele><time>2026-05-01T15:59:43.999Z</time></trkpt><trkpt lat="41.679272840185114" lon="13.198368979273306"><ele>228.5</ele><time>2026-05-01T15:59:44.999Z</time></trkpt><trkpt lat="41.67904856307755" lon="13.198704015612773"><ele>226.0</ele><time>2026-05-01T15:59:45.999Z</time></trkpt><trkpt lat="41.67882434994847" lon="13.19903680929288"><ele>224.5</ele><time>2026-05-01T15:59:46.999Z</time></trkpt><trkpt lat="41.678600308345125" lon="13.199369045941236"><ele>223.0</ele><time>2026-05-01T15:59:47.999Z</time></trkpt><trkpt lat="41.67837769578571" lon="13.199702246790636"><ele>222.5</ele><time>2026-05-01T15:59:48.999Z</time></trkpt><trkpt lat="41.67815611232857" lon="13.200035878515353"><ele>222.0</ele><time>2026-05-01T15:59:49.999Z</time></trkpt><trkpt lat="41.67793424650993" lon="13.200370036154995"><ele>223.0</ele><time>2026-05-01T15:59:50.999Z</time></trkpt><trkpt lat="41.67771250119199" lon="13.20070456588958"><ele>224.0</ele><time>2026-05-01T15:59:51.999Z</time></trkpt><trkpt lat="41.677490404093014" lon="13.201037689094616"><ele>224.0</ele><time>2026-05-01T15:59:52.999Z</time></trkpt><trkpt lat="41.67726689978179" lon="13.20136958816605"><ele>224.0</ele><time>2026-05-01T15:59:53.999Z</time></trkpt><trkpt lat="41.677042695998644" lon="13.20170293046709"><ele>224.5</ele><time>2026-05-01T15:59:54.999Z</time></trkpt><trkpt lat="41.67681834276228" lon="13.202038577865613"><ele>225.0</ele><time>2026-05-01T15:59:55.999Z</time></trkpt><trkpt lat="41.67659479421019" lon="13.202374404855801"><ele>224.0</ele><time>2026-05-01T15:59:56.999Z</time></trkpt><trkpt lat="41.67637086238737" lon="13.202709458784076"><ele>223.0</ele><time>2026-05-01T15:59:57.999Z</time></trkpt><trkpt lat="41.67614743075896" lon="13.203044422023"><ele>222.5</ele><time>2026-05-01T15:59:58.999Z</time></trkpt><trkpt lat="41.67592319605607" lon="13.203380917008243"><ele>222.0</ele><time>2026-05-01T15:59:59.999Z</time></trkpt><trkpt lat="41.67569932563011" lon="13.203716073200654"><ele>221.5</ele><time>2026-05-01T16:00:00.999Z</time></trkpt><trkpt lat="41.67547505787936" lon="13.204050169074138"><ele>221.0</ele><time>2026-05-01T16:00:01.999Z</time></trkpt><trkpt lat="41.67525213074749" lon="13.204383451844267"><ele>221.0</ele><time>2026-05-01T16:00:02.999Z</time></trkpt><trkpt lat="41.67503063289795" lon="13.204720109865253"><ele>221.0</ele><time>2026-05-01T16:00:03.999Z</time></trkpt><trkpt lat="41.67480918841469" lon="13.205058444462315"><ele>221.0</ele><time>2026-05-01T16:00:04.999Z</time></trkpt><trkpt lat="41.674588109746836" lon="13.205396269646279"><ele>221.0</ele><time>2026-05-01T16:00:05.999Z</time></trkpt><trkpt lat="41.67436456578207" lon="13.205734528454801"><ele>221.0</ele><time>2026-05-01T16:00:06.999Z</time></trkpt><trkpt lat="41.674141337631795" lon="13.206069979197839"><ele>221.0</ele><time>2026-05-01T16:00:07.999Z</time></trkpt><trkpt lat="41.673916468369185" lon="13.20640588323956"><ele>220.5</ele><time>2026-05-01T16:00:08.999Z</time></trkpt><trkpt lat="41.67369097090244" lon="13.20674127036435"><ele>220.0</ele><time>2026-05-01T16:00:09.999Z</time></trkpt><trkpt lat="41.673467352514976" lon="13.207075459955535"><ele>220.0</ele><time>2026-05-01T16:00:10.999Z</time></trkpt><trkpt lat="41.673243128370046" lon="13.20741022921383"><ele>220.0</ele><time>2026-05-01T16:00:11.999Z</time></trkpt><trkpt lat="41.673020939063235" lon="13.207743334213149"><ele>220.0</ele><time>2026-05-01T16:00:12.999Z</time></trkpt><trkpt lat="41.67280043576803" lon="13.208072656293995"><ele>220.0</ele><time>2026-05-01T16:00:13.999Z</time></trkpt><trkpt lat="41.67258408910676" lon="13.208394689847148"><ele>220.5</ele><time>2026-05-01T16:00:14.999Z</time></trkpt><trkpt lat="41.67236983559111" lon="13.208713800852374"><ele>221.0</ele><time>2026-05-01T16:00:15.999Z</time></trkpt><trkpt lat="41.672157009496964" lon="13.209031357420479"><ele>221.0</ele><time>2026-05-01T16:00:16.999Z</time></trkpt><trkpt lat="41.67194521096083" lon="13.209348648959484"><ele>221.0</ele><time>2026-05-01T16:00:17.999Z</time></trkpt><trkpt lat="41.67173358920905" lon="13.209666430909174"><ele>219.5</ele><time>2026-05-01T16:00:18.999Z</time></trkpt><trkpt lat="41.67152390247909" lon="13.20998259944368"><ele>218.0</ele><time>2026-05-01T16:00:19.999Z</time></trkpt><trkpt lat="41.671314824395" lon="13.210299218257228"><ele>218.0</ele><time>2026-05-01T16:00:20.999Z</time></trkpt><trkpt lat="41.67110548092216" lon="13.210616288096325"><ele>218.0</ele><time>2026-05-01T16:00:21.999Z</time></trkpt><trkpt lat="41.67089545606931" lon="13.210933728696519"><ele>217.5</ele><time>2026-05-01T16:00:22.999Z</time></trkpt><trkpt lat="41.67068518307108" lon="13.211250127690745"><ele>217.0</ele><time>2026-05-01T16:00:23.999Z</time></trkpt><trkpt lat="41.670475405481454" lon="13.21156453994247"><ele>217.0</ele><time>2026-05-01T16:00:24.999Z</time></trkpt><trkpt lat="41.67026805467693" lon="13.211876297072278"><ele>217.0</ele><time>2026-05-01T16:00:25.999Z</time></trkpt><trkpt lat="41.67006411020058" lon="13.212185974237709"><ele>218.0</ele><time>2026-05-01T16:00:26.999Z</time></trkpt><trkpt lat="41.66986253375816" lon="13.212493608970846"><ele>219.0</ele><time>2026-05-01T16:00:27.999Z</time></trkpt><trkpt lat="41.669664403353636" lon="13.212797850147874"><ele>219.0</ele><time>2026-05-01T16:00:28.999Z</time></trkpt><trkpt lat="41.66946829891112" lon="13.213100424856977"><ele>219.0</ele><time>2026-05-01T16:00:29.999Z</time></trkpt><trkpt lat="41.66927060991737" lon="13.21340550234177"><ele>219.0</ele><time>2026-05-01T16:00:30.999Z</time></trkpt><trkpt lat="41.66907026443357" lon="13.21370890297189"><ele>219.0</ele><time>2026-05-01T16:00:31.999Z</time></trkpt><trkpt lat="41.66887108426012" lon="13.214010848372293"><ele>217.5</ele><time>2026-05-01T16:00:32.999Z</time></trkpt><trkpt lat="41.66867306818254" lon="13.214313381953302"><ele>216.0</ele><time>2026-05-01T16:00:33.999Z</time></trkpt><trkpt lat="41.668474688826095" lon="13.214616952676987"><ele>216.0</ele><time>2026-05-01T16:00:34.999Z</time></trkpt><trkpt lat="41.6682748724283" lon="13.214921397658717"><ele>216.0</ele><time>2026-05-01T16:00:35.999Z</time></trkpt><trkpt lat="41.668072292658785" lon="13.215227943491437"><ele>216.0</ele><time>2026-05-01T16:00:36.999Z</time></trkpt><trkpt lat="41.66786779485284" lon="13.215535545381416"><ele>216.0</ele><time>2026-05-01T16:00:37.999Z</time></trkpt><trkpt lat="41.66766083820565" lon="13.215845143255262"><ele>217.5</ele><time>2026-05-01T16:00:38.999Z</time></trkpt><trkpt lat="41.667451412090244" lon="13.216156664581368"><ele>219.0</ele><time>2026-05-01T16:00:39.999Z</time></trkpt><trkpt lat="41.6672415509647" lon="13.21647109180347"><ele>218.5</ele><time>2026-05-01T16:00:40.999Z</time></trkpt><trkpt lat="41.667031914241676" lon="13.21678732933208"><ele>218.0</ele><time>2026-05-01T16:00:41.999Z</time></trkpt><trkpt lat="41.66682167610787" lon="13.217103441352544"><ele>215.5</ele><time>2026-05-01T16:00:42.999Z</time></trkpt><trkpt lat="41.66661133820068" lon="13.217420342560006"><ele>213.0</ele><time>2026-05-01T16:00:43.999Z</time></trkpt><trkpt lat="41.66640218415249" lon="13.217736293969173"><ele>213.0</ele><time>2026-05-01T16:00:44.999Z</time></trkpt><trkpt lat="41.66619297024324" lon="13.218050615419171"><ele>213.0</ele><time>2026-05-01T16:00:45.999Z</time></trkpt><trkpt lat="41.665981280013106" lon="13.218365000856442"><ele>212.5</ele><time>2026-05-01T16:00:46.999Z</time></trkpt><trkpt lat="41.66576977364825" lon="13.218680597119603"><ele>212.0</ele><time>2026-05-01T16:00:47.999Z</time></trkpt><trkpt lat="41.66555863357088" lon="13.218998133091548"><ele>212.0</ele><time>2026-05-01T16:00:48.999Z</time></trkpt><trkpt lat="41.66534385770143" lon="13.219319219696008"><ele>212.0</ele><time>2026-05-01T16:00:49.999Z</time></trkpt><trkpt lat="41.66512621942029" lon="13.219645007055277"><ele>210.0</ele><time>2026-05-01T16:00:50.999Z</time></trkpt><trkpt lat="41.6649069536788" lon="13.219972880592644"><ele>208.0</ele><time>2026-05-01T16:00:51.999Z</time></trkpt><trkpt lat="41.664688641140216" lon="13.220301324069172"><ele>208.0</ele><time>2026-05-01T16:00:52.999Z</time></trkpt><trkpt lat="41.66447118634902" lon="13.220629428300107"><ele>208.0</ele><time>2026-05-01T16:00:53.999Z</time></trkpt><trkpt lat="41.66425266523751" lon="13.220957595136284"><ele>207.0</ele><time>2026-05-01T16:00:54.999Z</time></trkpt><trkpt lat="41.6640361088148" lon="13.22128378784272"><ele>206.0</ele><time>2026-05-01T16:00:55.999Z</time></trkpt><trkpt lat="41.663820323412814" lon="13.221608096583443"><ele>206.0</ele><time>2026-05-01T16:00:56.999Z</time></trkpt><trkpt lat="41.6636061689929" lon="13.22192861013725"><ele>206.0</ele><time>2026-05-01T16:00:57.999Z</time></trkpt><trkpt lat="41.66339203892349" lon="13.222250817948144"><ele>206.0</ele><time>2026-05-01T16:00:58.999Z</time></trkpt><trkpt lat="41.663180148312534" lon="13.222570846995906"><ele>206.0</ele><time>2026-05-01T16:00:59.999Z</time></trkpt><trkpt lat="41.66296909528927" lon="13.222891685447113"><ele>204.5</ele><time>2026-05-01T16:01:00.999Z</time></trkpt><trkpt lat="41.662758206324376" lon="13.223209981924605"><ele>203.0</ele><time>2026-05-01T16:01:01.999Z</time></trkpt><trkpt lat="41.66254632719862" lon="13.223528089817728"><ele>203.0</ele><time>2026-05-01T16:01:02.999Z</time></trkpt><trkpt lat="41.662334073440654" lon="13.223845201506467"><ele>203.0</ele><time>2026-05-01T16:01:03.999Z</time></trkpt><trkpt lat="41.662119980918185" lon="13.22416225516435"><ele>202.0</ele><time>2026-05-01T16:01:04.999Z</time></trkpt><trkpt lat="41.661906302861105" lon="13.224481380170893"><ele>201.0</ele><time>2026-05-01T16:01:05.999Z</time></trkpt><trkpt lat="41.66168979082312" lon="13.224806711965496"><ele>200.5</ele><time>2026-05-01T16:01:06.999Z</time></trkpt><trkpt lat="41.66147236154819" lon="13.225132168142292"><ele>200.0</ele><time>2026-05-01T16:01:07.999Z</time></trkpt><trkpt lat="41.66125341365692" lon="13.225457730677055"><ele>199.5</ele><time>2026-05-01T16:01:08.999Z</time></trkpt><trkpt lat="41.66103324831386" lon="13.225783265937984"><ele>199.0</ele><time>2026-05-01T16:01:09.998Z</time></trkpt><trkpt lat="41.66081321326766" lon="13.226108553693873"><ele>199.0</ele><time>2026-05-01T16:01:10.998Z</time></trkpt><trkpt lat="41.660591678865806" lon="13.226437874343816"><ele>199.0</ele><time>2026-05-01T16:01:11.998Z</time></trkpt><trkpt lat="41.660368156009895" lon="13.226769947594041"><ele>199.0</ele><time>2026-05-01T16:01:12.998Z</time></trkpt><trkpt lat="41.660143831245925" lon="13.227101083388742"><ele>199.0</ele><time>2026-05-01T16:01:13.998Z</time></trkpt><trkpt lat="41.65991942586674" lon="13.227431104879159"><ele>192.0</ele><time>2026-05-01T16:01:14.998Z</time></trkpt><trkpt lat="41.65969796772029" lon="13.227758212896243"><ele>185.0</ele><time>2026-05-01T16:01:15.998Z</time></trkpt><trkpt lat="41.65947821095813" lon="13.228082258002177"><ele>182.5</ele><time>2026-05-01T16:01:17Z</time></trkpt><trkpt lat="41.65925900537197" lon="13.228405763846261"><ele>180.0</ele><time>2026-05-01T16:01:18Z</time></trkpt><trkpt lat="41.659043040548795" lon="13.22872619164069"><ele>177.0</ele><time>2026-05-01T16:01:19Z</time></trkpt><trkpt lat="41.65882990575115" lon="13.22904225836281"><ele>174.0</ele><time>2026-05-01T16:01:20Z</time></trkpt><trkpt lat="41.658620210151284" lon="13.229355886080008"><ele>173.0</ele><time>2026-05-01T16:01:21Z</time></trkpt><trkpt lat="41.65841399877091" lon="13.229666727149484"><ele>172.0</ele><time>2026-05-01T16:01:22Z</time></trkpt><trkpt lat="41.658208789548446" lon="13.229975563495328"><ele>172.0</ele><time>2026-05-01T16:01:23Z</time></trkpt><trkpt lat="41.65800554077256" lon="13.230279933810932"><ele>172.0</ele><time>2026-05-01T16:01:24Z</time></trkpt><trkpt lat="41.65780201914601" lon="13.230583879403232"><ele>174.0</ele><time>2026-05-01T16:01:25Z</time></trkpt><trkpt lat="41.65759860651241" lon="13.2308881244189"><ele>176.0</ele><time>2026-05-01T16:01:26Z</time></trkpt><trkpt lat="41.65739637970828" lon="13.231191173301067"><ele>171.0</ele><time>2026-05-01T16:01:27Z</time></trkpt><trkpt lat="41.657192733656444" lon="13.23149568648605"><ele>166.0</ele><time>2026-05-01T16:01:28Z</time></trkpt><trkpt lat="41.656991349816074" lon="13.231798529916654"><ele>166.0</ele><time>2026-05-01T16:01:29Z</time></trkpt><trkpt lat="41.65678764098641" lon="13.232102953006569"><ele>166.0</ele><time>2026-05-01T16:01:30Z</time></trkpt><trkpt lat="41.656584111830995" lon="13.232409180672716"><ele>166.0</ele><time>2026-05-01T16:01:31Z</time></trkpt><trkpt lat="41.656378968532046" lon="13.232716464269453"><ele>166.0</ele><time>2026-05-01T16:01:32Z</time></trkpt><trkpt lat="41.65617499240299" lon="13.2330235256408"><ele>163.0</ele><time>2026-05-01T16:01:33Z</time></trkpt><trkpt lat="41.65596968480282" lon="13.233332618433106"><ele>160.0</ele><time>2026-05-01T16:01:34Z</time></trkpt><trkpt lat="41.655763190151546" lon="13.233644363380613"><ele>160.0</ele><time>2026-05-01T16:01:35Z</time></trkpt><trkpt lat="41.65555438685389" lon="13.233957369260263"><ele>160.0</ele><time>2026-05-01T16:01:36Z</time></trkpt><trkpt lat="41.655344057436835" lon="13.23427312483774"><ele>159.0</ele><time>2026-05-01T16:01:37Z</time></trkpt><trkpt lat="41.65513145320545" lon="13.234593606154547"><ele>158.0</ele><time>2026-05-01T16:01:38Z</time></trkpt><trkpt lat="41.65491460082038" lon="13.234921911531254"><ele>157.0</ele><time>2026-05-01T16:01:39Z</time></trkpt><trkpt lat="41.65469628715054" lon="13.235253045997577"><ele>156.0</ele><time>2026-05-01T16:01:40Z</time></trkpt><trkpt lat="41.654474294171834" lon="13.235586648717144"><ele>152.0</ele><time>2026-05-01T16:01:41Z</time></trkpt><trkpt lat="41.65425069178116" lon="13.235922151859429"><ele>148.0</ele><time>2026-05-01T16:01:42Z</time></trkpt><trkpt lat="41.65402667445904" lon="13.236257600538778"><ele>148.0</ele><time>2026-05-01T16:01:43Z</time></trkpt><trkpt lat="41.6538029027865" lon="13.236590652465141"><ele>148.0</ele><time>2026-05-01T16:01:44Z</time></trkpt><trkpt lat="41.65357785678455" lon="13.236925237164279"><ele>148.0</ele><time>2026-05-01T16:01:45Z</time></trkpt><trkpt lat="41.65335316397642" lon="13.237258825571953"><ele>148.0</ele><time>2026-05-01T16:01:46Z</time></trkpt><trkpt lat="41.653129144665705" lon="13.237592174922025"><ele>148.5</ele><time>2026-05-01T16:01:46.999Z</time></trkpt><trkpt lat="41.65290621993921" lon="13.23792574996674"><ele>149.0</ele><time>2026-05-01T16:01:47.999Z</time></trkpt><trkpt lat="41.65268350201181" lon="13.238260821088524"><ele>149.0</ele><time>2026-05-01T16:01:48.999Z</time></trkpt><trkpt lat="41.65246168378958" lon="13.238594764152008"><ele>149.0</ele><time>2026-05-01T16:01:49.999Z</time></trkpt><trkpt lat="41.6522394055174" lon="13.238929935238222"><ele>148.5</ele><time>2026-05-01T16:01:50.999Z</time></trkpt><trkpt lat="41.65201791360569" lon="13.239265116214698"><ele>148.0</ele><time>2026-05-01T16:01:51.999Z</time></trkpt><trkpt lat="41.651797657669654" lon="13.239597165833759"><ele>148.5</ele><time>2026-05-01T16:01:52.999Z</time></trkpt><trkpt lat="41.65157831152796" lon="13.239930330847919"><ele>149.0</ele><time>2026-05-01T16:01:53.999Z</time></trkpt><trkpt lat="41.65135735613119" lon="13.240263673250217"><ele>149.0</ele><time>2026-05-01T16:01:54.999Z</time></trkpt><trkpt lat="41.65113617769776" lon="13.240595567389333"><ele>149.0</ele><time>2026-05-01T16:01:55.999Z</time></trkpt><trkpt lat="41.6509171669226" lon="13.24093095448278"><ele>149.5</ele><time>2026-05-01T16:01:56.999Z</time></trkpt><trkpt lat="41.65070183109181" lon="13.241271418139997"><ele>150.0</ele><time>2026-05-01T16:01:57.999Z</time></trkpt><trkpt lat="41.65049120538029" lon="13.241613277856782"><ele>149.5</ele><time>2026-05-01T16:01:58.999Z</time></trkpt><trkpt lat="41.65028359194133" lon="13.241960994156086"><ele>149.0</ele><time>2026-05-01T16:01:59.999Z</time></trkpt><trkpt lat="41.65008060145322" lon="13.242316373449565"><ele>149.0</ele><time>2026-05-01T16:02:00.999Z</time></trkpt><trkpt lat="41.649884543481804" lon="13.242677363505432"><ele>149.0</ele><time>2026-05-01T16:02:01.999Z</time></trkpt><trkpt lat="41.649692212534724" lon="13.24304354234287"><ele>149.0</ele><time>2026-05-01T16:02:02.999Z</time></trkpt><trkpt lat="41.649504447223606" lon="13.243415293482391"><ele>149.0</ele><time>2026-05-01T16:02:03.999Z</time></trkpt><trkpt lat="41.649320971488756" lon="13.243791361372963"><ele>148.5</ele><time>2026-05-01T16:02:04.999Z</time></trkpt><trkpt lat="41.64914256484564" lon="13.244171836617221"><ele>148.0</ele><time>2026-05-01T16:02:05.999Z</time></trkpt><trkpt lat="41.648969834474144" lon="13.244555959805115"><ele>147.5</ele><time>2026-05-01T16:02:06.999Z</time></trkpt><trkpt lat="41.64880256341975" lon="13.244943971170983"><ele>147.0</ele><time>2026-05-01T16:02:07.999Z</time></trkpt><trkpt lat="41.648639099788866" lon="13.245335254457046"><ele>146.0</ele><time>2026-05-01T16:02:08.999Z</time></trkpt><trkpt lat="41.64847927199103" lon="13.245728411411424"><ele>145.0</ele><time>2026-05-01T16:02:09.999Z</time></trkpt><trkpt lat="41.64831934328328" lon="13.246125001791977"><ele>146.5</ele><time>2026-05-01T16:02:10.999Z</time></trkpt><trkpt lat="41.64815924559348" lon="13.246520955577516"><ele>148.0</ele><time>2026-05-01T16:02:11.999Z</time></trkpt><trkpt lat="41.64800012701808" lon="13.246915168321996"><ele>148.5</ele><time>2026-05-01T16:02:12.999Z</time></trkpt><trkpt lat="41.64784031015144" lon="13.247309651809587"><ele>149.0</ele><time>2026-05-01T16:02:13.999Z</time></trkpt><trkpt lat="41.647680840257664" lon="13.247706729633675"><ele>147.5</ele><time>2026-05-01T16:02:14.999Z</time></trkpt><trkpt lat="41.647520589318255" lon="13.248100570488592"><ele>146.0</ele><time>2026-05-01T16:02:15.999Z</time></trkpt><trkpt lat="41.647361451948676" lon="13.248497224002895"><ele>146.0</ele><time>2026-05-01T16:02:16.999Z</time></trkpt><trkpt lat="41.64720253123748" lon="13.248894628331001"><ele>146.0</ele><time>2026-05-01T16:02:17.999Z</time></trkpt><trkpt lat="41.647044133315575" lon="13.249291127242529"><ele>145.5</ele><time>2026-05-01T16:02:18.999Z</time></trkpt><trkpt lat="41.646882879862325" lon="13.249687314838058"><ele>145.0</ele><time>2026-05-01T16:02:19.999Z</time></trkpt><trkpt lat="41.646721046326846" lon="13.250082158833182"><ele>145.0</ele><time>2026-05-01T16:02:20.999Z</time></trkpt><trkpt lat="41.64656102598298" lon="13.250476877257965"><ele>145.0</ele><time>2026-05-01T16:02:21.999Z</time></trkpt><trkpt lat="41.64640084672762" lon="13.250872366167954"><ele>145.0</ele><time>2026-05-01T16:02:22.999Z</time></trkpt><trkpt lat="41.64624122822292" lon="13.251268297210057"><ele>145.0</ele><time>2026-05-01T16:02:23.999Z</time></trkpt><trkpt lat="41.646080738910065" lon="13.251665897824152"><ele>143.0</ele><time>2026-05-01T16:02:24.999Z</time></trkpt><trkpt lat="41.64591919299691" lon="13.252061117256034"><ele>141.0</ele><time>2026-05-01T16:02:25.999Z</time></trkpt><trkpt lat="41.645758162046725" lon="13.25245344103139"><ele>141.0</ele><time>2026-05-01T16:02:26.999Z</time></trkpt><trkpt lat="41.64559798051211" lon="13.25284575003209"><ele>141.0</ele><time>2026-05-01T16:02:27.999Z</time></trkpt><trkpt lat="41.64543959034845" lon="13.253238668769457"><ele>143.5</ele><time>2026-05-01T16:02:28.999Z</time></trkpt><trkpt lat="41.64528123607269" lon="13.25363298814369"><ele>146.0</ele><time>2026-05-01T16:02:29.999Z</time></trkpt><trkpt lat="41.645123128816" lon="13.254025416247083"><ele>146.0</ele><time>2026-05-01T16:02:30.999Z</time></trkpt><trkpt lat="41.64496272964758" lon="13.254416250673504"><ele>146.0</ele><time>2026-05-01T16:02:31.999Z</time></trkpt><trkpt lat="41.644805217446724" lon="13.254809759239327"><ele>146.0</ele><time>2026-05-01T16:02:32.999Z</time></trkpt><trkpt lat="41.64464782429786" lon="13.25520324293687"><ele>146.0</ele><time>2026-05-01T16:02:33.999Z</time></trkpt><trkpt lat="41.644490304441135" lon="13.255599121264904"><ele>147.0</ele><time>2026-05-01T16:02:34.999Z</time></trkpt><trkpt lat="41.644332735519676" lon="13.255994434719948"><ele>148.0</ele><time>2026-05-01T16:02:35.999Z</time></trkpt><trkpt lat="41.644173875858826" lon="13.256390084893845"><ele>148.0</ele><time>2026-05-01T16:02:36.999Z</time></trkpt><trkpt lat="41.644013526795305" lon="13.256785408481473"><ele>148.0</ele><time>2026-05-01T16:02:37.999Z</time></trkpt><trkpt lat="41.643852518542666" lon="13.2571816372809"><ele>148.0</ele><time>2026-05-01T16:02:38.999Z</time></trkpt><trkpt lat="41.64369065898893" lon="13.25757606693743"><ele>148.0</ele><time>2026-05-01T16:02:39.999Z</time></trkpt><trkpt lat="41.6435280573896" lon="13.257969006025816"><ele>148.0</ele><time>2026-05-01T16:02:40.999Z</time></trkpt><trkpt lat="41.643365832631666" lon="13.258361870939584"><ele>148.0</ele><time>2026-05-01T16:02:41.999Z</time></trkpt><trkpt lat="41.64320449939231" lon="13.258754725621705"><ele>148.0</ele><time>2026-05-01T16:02:42.999Z</time></trkpt><trkpt lat="41.64304273730413" lon="13.25914654362285"><ele>148.0</ele><time>2026-05-01T16:02:43.999Z</time></trkpt><trkpt lat="41.642875623484805" lon="13.259535520377165"><ele>147.5</ele><time>2026-05-01T16:02:44.999Z</time></trkpt><trkpt lat="41.642703679271165" lon="13.25991826261143"><ele>147.0</ele><time>2026-05-01T16:02:45.999Z</time></trkpt><trkpt lat="41.64252495217799" lon="13.260294877792099"><ele>147.5</ele><time>2026-05-01T16:02:46.999Z</time></trkpt><trkpt lat="41.642341515974486" lon="13.260668174703154"><ele>148.0</ele><time>2026-05-01T16:02:47.999Z</time></trkpt><trkpt lat="41.64215248641898" lon="13.26103649575853"><ele>148.5</ele><time>2026-05-01T16:02:48.999Z</time></trkpt><trkpt lat="41.64195614066856" lon="13.261399890399092"><ele>149.0</ele><time>2026-05-01T16:02:49.999Z</time></trkpt><trkpt lat="41.64175628047631" lon="13.261756994981392"><ele>149.0</ele><time>2026-05-01T16:02:50.999Z</time></trkpt><trkpt lat="41.641552854577554" lon="13.262112360380632"><ele>149.0</ele><time>2026-05-01T16:02:51.999Z</time></trkpt><trkpt lat="41.641344971665376" lon="13.262463716705929"><ele>148.5</ele><time>2026-05-01T16:02:52.999Z</time></trkpt><trkpt lat="41.64113248183026" lon="13.262808391146619"><ele>148.0</ele><time>2026-05-01T16:02:53.999Z</time></trkpt><trkpt lat="41.64091389412721" lon="13.2631453725429"><ele>148.0</ele><time>2026-05-01T16:02:54.999Z</time></trkpt><trkpt lat="41.64068985318663" lon="13.26347664937658"><ele>148.0</ele><time>2026-05-01T16:02:55.999Z</time></trkpt><trkpt lat="41.640461573910194" lon="13.263803456862984"><ele>147.0</ele><time>2026-05-01T16:02:56.999Z</time></trkpt><trkpt lat="41.64022975145367" lon="13.26412586452133"><ele>146.0</ele><time>2026-05-01T16:02:57.999Z</time></trkpt><trkpt lat="41.63999324026072" lon="13.2644441579681"><ele>146.0</ele><time>2026-05-01T16:02:58.999Z</time></trkpt><trkpt lat="41.639753718061925" lon="13.26475715728439"><ele>146.0</ele><time>2026-05-01T16:02:59.999Z</time></trkpt><trkpt lat="41.63950998553535" lon="13.265067970951932"><ele>145.5</ele><time>2026-05-01T16:03:00.999Z</time></trkpt><trkpt lat="41.63926436580123" lon="13.265375422863915"><ele>145.0</ele><time>2026-05-01T16:03:01.999Z</time></trkpt><trkpt lat="41.63901879664511" lon="13.265684583253824"><ele>144.5</ele><time>2026-05-01T16:03:02.999Z</time></trkpt><trkpt lat="41.63877359631443" lon="13.265993053992226"><ele>144.0</ele><time>2026-05-01T16:03:03.999Z</time></trkpt><trkpt lat="41.63852829635285" lon="13.26630436565628"><ele>146.5</ele><time>2026-05-01T16:03:04.999Z</time></trkpt><trkpt lat="41.63828390551983" lon="13.266615913386214"><ele>149.0</ele><time>2026-05-01T16:03:05.999Z</time></trkpt><trkpt lat="41.63804114332995" lon="13.266927249319025"><ele>149.5</ele><time>2026-05-01T16:03:06.999Z</time></trkpt><trkpt lat="41.63779748364523" lon="13.267238230534863"><ele>150.0</ele><time>2026-05-01T16:03:07.999Z</time></trkpt><trkpt lat="41.63755595849552" lon="13.26754966911499"><ele>150.0</ele><time>2026-05-01T16:03:08.999Z</time></trkpt><trkpt lat="41.63731531430224" lon="13.267862747331167"><ele>150.0</ele><time>2026-05-01T16:03:09.999Z</time></trkpt><trkpt lat="41.637075042847634" lon="13.268174876007569"><ele>151.5</ele><time>2026-05-01T16:03:10.999Z</time></trkpt><trkpt lat="41.63683407189551" lon="13.268485172787127"><ele>153.0</ele><time>2026-05-01T16:03:11.998Z</time></trkpt><trkpt lat="41.63659320150201" lon="13.268792672931045"><ele>152.5</ele><time>2026-05-01T16:03:12.998Z</time></trkpt><trkpt lat="41.636351141311" lon="13.269100123666353"><ele>152.0</ele><time>2026-05-01T16:03:13.998Z</time></trkpt><trkpt lat="41.636108914827936" lon="13.269407793465389"><ele>152.0</ele><time>2026-05-01T16:03:14.998Z</time></trkpt><trkpt lat="41.63586825824065" lon="13.269716506535762"><ele>152.0</ele><time>2026-05-01T16:03:15.998Z</time></trkpt><trkpt lat="41.635628741880076" lon="13.270026327879554"><ele>153.5</ele><time>2026-05-01T16:03:16.998Z</time></trkpt><trkpt lat="41.63538863300481" lon="13.270337351808557"><ele>155.0</ele><time>2026-05-01T16:03:17.998Z</time></trkpt><trkpt lat="41.635148673157815" lon="13.27065173475586"><ele>155.0</ele><time>2026-05-01T16:03:18.998Z</time></trkpt><trkpt lat="41.63490980797017" lon="13.270969326814924"><ele>155.0</ele><time>2026-05-01T16:03:19.998Z</time></trkpt><trkpt lat="41.63467424625386" lon="13.271293073053187"><ele>153.0</ele><time>2026-05-01T16:03:20.998Z</time></trkpt><trkpt lat="41.63445070394766" lon="13.271624126985092"><ele>151.0</ele><time>2026-05-01T16:03:21.998Z</time></trkpt><trkpt lat="41.63423289847581" lon="13.271965061329865"><ele>152.5</ele><time>2026-05-01T16:03:23Z</time></trkpt><trkpt lat="41.6340211611037" lon="13.272312082682095"><ele>154.0</ele><time>2026-05-01T16:03:24Z</time></trkpt><trkpt lat="41.633816778487756" lon="13.272665282639595"><ele>153.5</ele><time>2026-05-01T16:03:25Z</time></trkpt><trkpt lat="41.63361781610787" lon="13.27302519790087"><ele>153.0</ele><time>2026-05-01T16:03:26Z</time></trkpt><trkpt lat="41.63342464690939" lon="13.273392052046194"><ele>154.0</ele><time>2026-05-01T16:03:27Z</time></trkpt><trkpt lat="41.63323900065576" lon="13.273766397901651"><ele>155.0</ele><time>2026-05-01T16:03:28Z</time></trkpt><trkpt lat="41.63306183741038" lon="13.27414517300378"><ele>155.0</ele><time>2026-05-01T16:03:29Z</time></trkpt><trkpt lat="41.632892131862334" lon="13.274526320696681"><ele>155.0</ele><time>2026-05-01T16:03:30Z</time></trkpt><trkpt lat="41.632731599999346" lon="13.274908802546332"><ele>155.0</ele><time>2026-05-01T16:03:31Z</time></trkpt><trkpt lat="41.63257679661452" lon="13.275295733897154"><ele>155.0</ele><time>2026-05-01T16:03:32Z</time></trkpt><trkpt lat="41.63242963677435" lon="13.275684853097703"><ele>155.0</ele><time>2026-05-01T16:03:33Z</time></trkpt><trkpt lat="41.63228936908895" lon="13.276072460917097"><ele>155.0</ele><time>2026-05-01T16:03:34Z</time></trkpt><trkpt lat="41.63215197188192" lon="13.276460964844269"><ele>155.0</ele><time>2026-05-01T16:03:35Z</time></trkpt><trkpt lat="41.63201720492463" lon="13.27684727930125"><ele>155.0</ele><time>2026-05-01T16:03:36Z</time></trkpt><trkpt lat="41.631882531449314" lon="13.277233469737258"><ele>155.5</ele><time>2026-05-01T16:03:37Z</time></trkpt><trkpt lat="41.631747513199734" lon="13.277617912613309"><ele>156.0</ele><time>2026-05-01T16:03:37.999Z</time></trkpt><trkpt lat="41.63161531499259" lon="13.27799668735006"><ele>159.0</ele><time>2026-05-01T16:03:38.999Z</time></trkpt><trkpt lat="41.63148534401729" lon="13.278377200805092"><ele>162.0</ele><time>2026-05-01T16:03:39.999Z</time></trkpt><trkpt lat="41.63135530420033" lon="13.27876505801238"><ele>160.5</ele><time>2026-05-01T16:03:40.999Z</time></trkpt><trkpt lat="41.631222851283155" lon="13.279161072010252"><ele>159.0</ele><time>2026-05-01T16:03:41.999Z</time></trkpt><trkpt lat="41.63108764821991" lon="13.279560798248873"><ele>156.0</ele><time>2026-05-01T16:03:42.999Z</time></trkpt><trkpt lat="41.630951206558464" lon="13.279961836251251"><ele>153.0</ele><time>2026-05-01T16:03:43.999Z</time></trkpt><trkpt lat="41.63081274059151" lon="13.28036392600873"><ele>154.5</ele><time>2026-05-01T16:03:44.999Z</time></trkpt><trkpt lat="41.63067307280131" lon="13.280767969179328"><ele>156.0</ele><time>2026-05-01T16:03:45.999Z</time></trkpt><trkpt lat="41.63053449269311" lon="13.281170773183307"><ele>156.0</ele><time>2026-05-01T16:03:46.999Z</time></trkpt><trkpt lat="41.63039543404696" lon="13.28157474234044"><ele>156.0</ele><time>2026-05-01T16:03:47.999Z</time></trkpt><trkpt lat="41.63025436472354" lon="13.281978953547926"><ele>155.0</ele><time>2026-05-01T16:03:48.999Z</time></trkpt><trkpt lat="41.6301130776968" lon="13.282382674077454"><ele>154.0</ele><time>2026-05-01T16:03:49.999Z</time></trkpt><trkpt lat="41.62997094025046" lon="13.282785390998816"><ele>153.5</ele><time>2026-05-01T16:03:50.999Z</time></trkpt><trkpt lat="41.62982738531567" lon="13.283188564911722"><ele>153.0</ele><time>2026-05-01T16:03:51.999Z</time></trkpt><trkpt lat="41.629684919528316" lon="13.283589065357447"><ele>152.5</ele><time>2026-05-01T16:03:52.999Z</time></trkpt><trkpt lat="41.629541227257036" lon="13.283991017399321"><ele>152.0</ele><time>2026-05-01T16:03:53.999Z</time></trkpt><trkpt lat="41.62939901072845" lon="13.28439491404036"><ele>152.0</ele><time>2026-05-01T16:03:54.999Z</time></trkpt><trkpt lat="41.62925733353778" lon="13.284799773781724"><ele>152.0</ele><time>2026-05-01T16:03:55.999Z</time></trkpt><trkpt lat="41.629115412933515" lon="13.28520510318317"><ele>153.5</ele><time>2026-05-01T16:03:56.999Z</time></trkpt><trkpt lat="41.628975386108806" lon="13.285609458605302"><ele>155.0</ele><time>2026-05-01T16:03:57.999Z</time></trkpt><trkpt lat="41.628835128321" lon="13.286014788626662"><ele>155.0</ele><time>2026-05-01T16:03:58.999Z</time></trkpt><trkpt lat="41.62869288118184" lon="13.286419391597354"><ele>155.0</ele><time>2026-05-01T16:03:59.999Z</time></trkpt><trkpt lat="41.628550135966904" lon="13.286823599098486"><ele>154.5</ele><time>2026-05-01T16:04:00.999Z</time></trkpt><trkpt lat="41.62840811931663" lon="13.287226606214338"><ele>154.0</ele><time>2026-05-01T16:04:01.999Z</time></trkpt><trkpt lat="41.628264979998036" lon="13.28762956405521"><ele>154.0</ele><time>2026-05-01T16:04:02.999Z</time></trkpt><trkpt lat="41.62812167187719" lon="13.288032582821522"><ele>154.0</ele><time>2026-05-01T16:04:03.999Z</time></trkpt><trkpt lat="41.62797806595771" lon="13.288434935025109"><ele>155.0</ele><time>2026-05-01T16:04:04.999Z</time></trkpt><trkpt lat="41.62783568595371" lon="13.288837809469932"><ele>156.0</ele><time>2026-05-01T16:04:05.999Z</time></trkpt><trkpt lat="41.627695274786106" lon="13.28924236664589"><ele>156.5</ele><time>2026-05-01T16:04:06.999Z</time></trkpt><trkpt lat="41.6275552627018" lon="13.289646649824896"><ele>157.0</ele><time>2026-05-01T16:04:07.999Z</time></trkpt><trkpt lat="41.62741419225291" lon="13.290050551983509"><ele>157.0</ele><time>2026-05-01T16:04:08.999Z</time></trkpt><trkpt lat="41.62727080598263" lon="13.290454691926174"><ele>157.0</ele><time>2026-05-01T16:04:09.999Z</time></trkpt><trkpt lat="41.6271253956065" lon="13.290856857706846"><ele>157.0</ele><time>2026-05-01T16:04:10.999Z</time></trkpt><trkpt lat="41.62697730959043" lon="13.291258380902153"><ele>157.0</ele><time>2026-05-01T16:04:11.999Z</time></trkpt><trkpt lat="41.6268298817019" lon="13.291660133544458"><ele>157.0</ele><time>2026-05-01T16:04:12.999Z</time></trkpt><trkpt lat="41.6266842763881" lon="13.292065436653864"><ele>157.0</ele><time>2026-05-01T16:04:13.999Z</time></trkpt><trkpt lat="41.62654159324029" lon="13.292473507397817"><ele>161.0</ele><time>2026-05-01T16:04:14.999Z</time></trkpt><trkpt lat="41.62640171366072" lon="13.292883056937727"><ele>165.0</ele><time>2026-05-01T16:04:15.999Z</time></trkpt><trkpt lat="41.626262114295166" lon="13.293295669084406"><ele>165.0</ele><time>2026-05-01T16:04:16.999Z</time></trkpt><trkpt lat="41.62612296667826" lon="13.293708649662783"><ele>165.0</ele><time>2026-05-01T16:04:17.999Z</time></trkpt><trkpt lat="41.62598289505918" lon="13.294120987259024"><ele>165.0</ele><time>2026-05-01T16:04:18.999Z</time></trkpt><trkpt lat="41.62584272154114" lon="13.294531184217753"><ele>165.0</ele><time>2026-05-01T16:04:19.999Z</time></trkpt><trkpt lat="41.62570186862559" lon="13.294940883064466"><ele>165.5</ele><time>2026-05-01T16:04:20.999Z</time></trkpt><trkpt lat="41.62555732825391" lon="13.295349389092399"><ele>166.0</ele><time>2026-05-01T16:04:21.999Z</time></trkpt><trkpt lat="41.6254117034342" lon="13.29575521453038"><ele>162.5</ele><time>2026-05-01T16:04:22.999Z</time></trkpt><trkpt lat="41.625266392127855" lon="13.296161370899492"><ele>159.0</ele><time>2026-05-01T16:04:23.999Z</time></trkpt><trkpt lat="41.62512224864001" lon="13.296565551698322"><ele>159.0</ele><time>2026-05-01T16:04:24.999Z</time></trkpt><trkpt lat="41.62497929246641" lon="13.296971303515184"><ele>159.0</ele><time>2026-05-01T16:04:25.999Z</time></trkpt><trkpt lat="41.624837618660834" lon="13.297378937811791"><ele>161.0</ele><time>2026-05-01T16:04:26.999Z</time></trkpt><trkpt lat="41.624697303719536" lon="13.2977865810717"><ele>163.0</ele><time>2026-05-01T16:04:27.999Z</time></trkpt><trkpt lat="41.62455486463609" lon="13.298191904497692"><ele>163.0</ele><time>2026-05-01T16:04:28.999Z</time></trkpt><trkpt lat="41.62441098454309" lon="13.298598113313437"><ele>163.0</ele><time>2026-05-01T16:04:29.999Z</time></trkpt><trkpt lat="41.62426582630507" lon="13.299005495155448"><ele>163.5</ele><time>2026-05-01T16:04:30.999Z</time></trkpt><trkpt lat="41.62412139902287" lon="13.299413745218253"><ele>164.0</ele><time>2026-05-01T16:04:31.999Z</time></trkpt><trkpt lat="41.623978342794175" lon="13.299822224642721"><ele>165.0</ele><time>2026-05-01T16:04:32.999Z</time></trkpt><trkpt lat="41.623836278626605" lon="13.300229364253122"><ele>166.0</ele><time>2026-05-01T16:04:33.999Z</time></trkpt><trkpt lat="41.62369399688696" lon="13.300637091826104"><ele>166.0</ele><time>2026-05-01T16:04:34.999Z</time></trkpt><trkpt lat="41.62355085879264" lon="13.301045793819169"><ele>166.0</ele><time>2026-05-01T16:04:35.999Z</time></trkpt><trkpt lat="41.623407188326425" lon="13.301453542825207"><ele>166.0</ele><time>2026-05-01T16:04:36.999Z</time></trkpt><trkpt lat="41.62326187912613" lon="13.301861893720453"><ele>166.0</ele><time>2026-05-01T16:04:37.999Z</time></trkpt><trkpt lat="41.62311633851206" lon="13.302268295948478"><ele>165.5</ele><time>2026-05-01T16:04:38.999Z</time></trkpt><trkpt lat="41.62297147440551" lon="13.3026752802244"><ele>165.0</ele><time>2026-05-01T16:04:39.999Z</time></trkpt><trkpt lat="41.622829210756535" lon="13.303082615904653"><ele>162.0</ele><time>2026-05-01T16:04:40.999Z</time></trkpt><trkpt lat="41.622688866270735" lon="13.30348865979887"><ele>159.0</ele><time>2026-05-01T16:04:41.999Z</time></trkpt><trkpt lat="41.62254713750912" lon="13.303896483492105"><ele>158.5</ele><time>2026-05-01T16:04:42.999Z</time></trkpt><trkpt lat="41.622403506519035" lon="13.304301660900745"><ele>158.0</ele><time>2026-05-01T16:04:43.999Z</time></trkpt><trkpt lat="41.62226069595284" lon="13.304705936630764"><ele>156.5</ele><time>2026-05-01T16:04:44.999Z</time></trkpt><trkpt lat="41.62211658532609" lon="13.30511043093834"><ele>155.0</ele><time>2026-05-01T16:04:45.999Z</time></trkpt><trkpt lat="41.62197435896303" lon="13.305513721527449"><ele>150.5</ele><time>2026-05-01T16:04:46.999Z</time></trkpt><trkpt lat="41.62183236463801" lon="13.305916016523579"><ele>146.0</ele><time>2026-05-01T16:04:47.999Z</time></trkpt><trkpt lat="41.621689811226666" lon="13.306318480287088"><ele>146.5</ele><time>2026-05-01T16:04:48.999Z</time></trkpt><trkpt lat="41.621546608627966" lon="13.306722567139408"><ele>147.0</ele><time>2026-05-01T16:04:49.999Z</time></trkpt><trkpt lat="41.62140338615976" lon="13.307127298035498"><ele>148.0</ele><time>2026-05-01T16:04:50.999Z</time></trkpt><trkpt lat="41.62126064672363" lon="13.307530826624708"><ele>149.0</ele><time>2026-05-01T16:04:51.999Z</time></trkpt><trkpt lat="41.621117501030035" lon="13.307932316843035"><ele>149.5</ele><time>2026-05-01T16:04:52.999Z</time></trkpt><trkpt lat="41.62097609962988" lon="13.308334642615591"><ele>150.0</ele><time>2026-05-01T16:04:53.999Z</time></trkpt><trkpt lat="41.620835884752125" lon="13.308736482038466"><ele>150.5</ele><time>2026-05-01T16:04:54.999Z</time></trkpt><trkpt lat="41.62069544580321" lon="13.309138227874987"><ele>151.0</ele><time>2026-05-01T16:04:55.999Z</time></trkpt><trkpt lat="41.62055372752568" lon="13.30954108997998"><ele>150.5</ele><time>2026-05-01T16:04:56.999Z</time></trkpt><trkpt lat="41.62041071685878" lon="13.309942395369188"><ele>150.0</ele><time>2026-05-01T16:04:57.999Z</time></trkpt><trkpt lat="41.62026832312635" lon="13.310344346131112"><ele>148.5</ele><time>2026-05-01T16:04:58.999Z</time></trkpt><trkpt lat="41.62012729923395" lon="13.31074653149968"><ele>147.0</ele><time>2026-05-01T16:04:59.999Z</time></trkpt><trkpt lat="41.619986137578785" lon="13.311149742785297"><ele>147.5</ele><time>2026-05-01T16:05:00.999Z</time></trkpt><trkpt lat="41.61984498356782" lon="13.311554253483877"><ele>148.0</ele><time>2026-05-01T16:05:01.999Z</time></trkpt><trkpt lat="41.619700721773306" lon="13.311960177573875"><ele>149.5</ele><time>2026-05-01T16:05:02.999Z</time></trkpt><trkpt lat="41.619556457352964" lon="13.312365183510758"><ele>151.0</ele><time>2026-05-01T16:05:03.999Z</time></trkpt><trkpt lat="41.61941266169268" lon="13.312771480233417"><ele>150.0</ele><time>2026-05-01T16:05:04.999Z</time></trkpt><trkpt lat="41.61926688539357" lon="13.313180788903422"><ele>149.0</ele><time>2026-05-01T16:05:05.998Z</time></trkpt><trkpt lat="41.619122286250686" lon="13.31358745579581"><ele>149.0</ele><time>2026-05-01T16:05:06.998Z</time></trkpt><trkpt lat="41.618981075921404" lon="13.313993310080615"><ele>149.0</ele><time>2026-05-01T16:05:07.998Z</time></trkpt><trkpt lat="41.61883921335285" lon="13.314401344454454"><ele>150.0</ele><time>2026-05-01T16:05:08.998Z</time></trkpt><trkpt lat="41.61869460315937" lon="13.31480720999452"><ele>151.0</ele><time>2026-05-01T16:05:09.998Z</time></trkpt><trkpt lat="41.61855481377645" lon="13.315216103129755"><ele>151.0</ele><time>2026-05-01T16:05:10.998Z</time></trkpt><trkpt lat="41.61841264053895" lon="13.315623155833848"><ele>151.0</ele><time>2026-05-01T16:05:11.998Z</time></trkpt><trkpt lat="41.61826938229833" lon="13.316029074678704"><ele>152.0</ele><time>2026-05-01T16:05:12.998Z</time></trkpt><trkpt lat="41.61812692749967" lon="13.316435478647993"><ele>153.0</ele><time>2026-05-01T16:05:13.998Z</time></trkpt><trkpt lat="41.61798557796617" lon="13.316837037025392"><ele>153.0</ele><time>2026-05-01T16:05:14.998Z</time></trkpt><trkpt lat="41.617843962984615" lon="13.317235665985656"><ele>153.0</ele><time>2026-05-01T16:05:15.998Z</time></trkpt><trkpt lat="41.61770273133872" lon="13.317634803665413"><ele>154.5</ele><time>2026-05-01T16:05:16.998Z</time></trkpt><trkpt lat="41.61756000083815" lon="13.318033611226273"><ele>156.0</ele><time>2026-05-01T16:05:17.998Z</time></trkpt><trkpt lat="41.61741654453267" lon="13.31843064839604"><ele>156.0</ele><time>2026-05-01T16:05:18.998Z</time></trkpt><trkpt lat="41.61727155344001" lon="13.31882749912559"><ele>156.0</ele><time>2026-05-01T16:05:19.998Z</time></trkpt><trkpt lat="41.61712548659985" lon="13.319225168072515"><ele>162.5</ele><time>2026-05-01T16:05:20.998Z</time></trkpt><trkpt lat="41.61697819940364" lon="13.319622869116984"><ele>169.0</ele><time>2026-05-01T16:05:21.998Z</time></trkpt><trkpt lat="41.61683067419305" lon="13.32002567352384"><ele>168.5</ele><time>2026-05-01T16:05:22.998Z</time></trkpt><trkpt lat="41.616684524000355" lon="13.320427874406144"><ele>168.0</ele><time>2026-05-01T16:05:23.998Z</time></trkpt><trkpt lat="41.61653870073075" lon="13.320833377701423"><ele>168.0</ele><time>2026-05-01T16:05:24.998Z</time></trkpt><trkpt lat="41.61639285928208" lon="13.321241535624997"><ele>168.0</ele><time>2026-05-01T16:05:25.998Z</time></trkpt><trkpt lat="41.61624820719725" lon="13.321652102368894"><ele>167.0</ele><time>2026-05-01T16:05:26.998Z</time></trkpt><trkpt lat="41.616102383252226" lon="13.322063086613221"><ele>166.0</ele><time>2026-05-01T16:05:27.998Z</time></trkpt><trkpt lat="41.61595768919669" lon="13.322473879367857"><ele>165.5</ele><time>2026-05-01T16:05:28.999Z</time></trkpt><trkpt lat="41.615813937004106" lon="13.322884944110315"><ele>165.0</ele><time>2026-05-01T16:05:29.999Z</time></trkpt><trkpt lat="41.615667740260655" lon="13.323295603788939"><ele>164.5</ele><time>2026-05-01T16:05:30.999Z</time></trkpt><trkpt lat="41.61551956709426" lon="13.323707092972144"><ele>164.0</ele><time>2026-05-01T16:05:31.999Z</time></trkpt><trkpt lat="41.6153682841876" lon="13.324113629404142"><ele>163.5</ele><time>2026-05-01T16:05:32.999Z</time></trkpt><trkpt lat="41.61521219886664" lon="13.32451548567875"><ele>163.0</ele><time>2026-05-01T16:05:33.999Z</time></trkpt><trkpt lat="41.61504711202139" lon="13.324909012252858"><ele>162.0</ele><time>2026-05-01T16:05:34.999Z</time></trkpt><trkpt lat="41.61487359430264" lon="13.325294919416454"><ele>161.0</ele><time>2026-05-01T16:05:35.999Z</time></trkpt><trkpt lat="41.61469026542208" lon="13.325673796471822"><ele>160.0</ele><time>2026-05-01T16:05:36.999Z</time></trkpt><trkpt lat="41.614496950244714" lon="13.326040635454708"><ele>159.0</ele><time>2026-05-01T16:05:37.999Z</time></trkpt><trkpt lat="41.61429173294604" lon="13.32639200840669"><ele>157.5</ele><time>2026-05-01T16:05:38.999Z</time></trkpt><trkpt lat="41.61407689016575" lon="13.32673230923306"><ele>156.0</ele><time>2026-05-01T16:05:39.999Z</time></trkpt><trkpt lat="41.613853569697326" lon="13.32706386116475"><ele>154.5</ele><time>2026-05-01T16:05:40.999Z</time></trkpt><trkpt lat="41.61362075822004" lon="13.327386132664227"><ele>153.0</ele><time>2026-05-01T16:05:41.999Z</time></trkpt><trkpt lat="41.613379965830866" lon="13.327695278707699"><ele>153.0</ele><time>2026-05-01T16:05:42.999Z</time></trkpt><trkpt lat="41.61313019662855" lon="13.327989905613908"><ele>153.0</ele><time>2026-05-01T16:05:43.999Z</time></trkpt><trkpt lat="41.61286920157045" lon="13.328272599918638"><ele>153.5</ele><time>2026-05-01T16:05:44.999Z</time></trkpt><trkpt lat="41.612600080536" lon="13.32854013558065"><ele>154.0</ele><time>2026-05-01T16:05:45.999Z</time></trkpt><trkpt lat="41.61232418836363" lon="13.328794974155272"><ele>154.0</ele><time>2026-05-01T16:05:46.999Z</time></trkpt><trkpt lat="41.612041325498645" lon="13.329032954928731"><ele>154.0</ele><time>2026-05-01T16:05:47.999Z</time></trkpt><trkpt lat="41.61175034908223" lon="13.329257698559486"><ele>154.0</ele><time>2026-05-01T16:05:48.999Z</time></trkpt><trkpt lat="41.611454308018246" lon="13.329468129804837"><ele>154.0</ele><time>2026-05-01T16:05:49.999Z</time></trkpt><trkpt lat="41.61115281254914" lon="13.32966166585431"><ele>154.0</ele><time>2026-05-01T16:05:50.999Z</time></trkpt><trkpt lat="41.61084537113739" lon="13.329838632602847"><ele>154.0</ele><time>2026-05-01T16:05:51.999Z</time></trkpt><trkpt lat="41.61053385872325" lon="13.329998310197414"><ele>155.5</ele><time>2026-05-01T16:05:52.999Z</time></trkpt><trkpt lat="41.61021890530507" lon="13.330149264332489"><ele>157.0</ele><time>2026-05-01T16:05:53.999Z</time></trkpt><trkpt lat="41.60990158728224" lon="13.330295971046494"><ele>157.0</ele><time>2026-05-01T16:05:54.999Z</time></trkpt><trkpt lat="41.609581459738585" lon="13.330436569662023"><ele>157.0</ele><time>2026-05-01T16:05:55.999Z</time></trkpt><trkpt lat="41.609259993635014" lon="13.33057003976799"><ele>155.5</ele><time>2026-05-01T16:05:56.999Z</time></trkpt><trkpt lat="41.608939062488034" lon="13.330702346368076"><ele>154.0</ele><time>2026-05-01T16:05:57.999Z</time></trkpt><trkpt lat="41.60861523420372" lon="13.330835061012388"><ele>153.0</ele><time>2026-05-01T16:05:58.999Z</time></trkpt><trkpt lat="41.608290934414406" lon="13.330967529013149"><ele>152.0</ele><time>2026-05-01T16:05:59.999Z</time></trkpt><trkpt lat="41.607970155108355" lon="13.331102845419938"><ele>156.0</ele><time>2026-05-01T16:06:00.999Z</time></trkpt><trkpt lat="41.60765200039335" lon="13.331239277625867"><ele>160.0</ele><time>2026-05-01T16:06:01.999Z</time></trkpt><trkpt lat="41.607335464498085" lon="13.331373390196612"><ele>157.5</ele><time>2026-05-01T16:06:02.999Z</time></trkpt><trkpt lat="41.607021179820826" lon="13.331504354667388"><ele>155.0</ele><time>2026-05-01T16:06:03.999Z</time></trkpt><trkpt lat="41.6067099112513" lon="13.331634895462846"><ele>155.0</ele><time>2026-05-01T16:06:04.999Z</time></trkpt><trkpt lat="41.60639744483484" lon="13.331766306392446"><ele>155.0</ele><time>2026-05-01T16:06:05.999Z</time></trkpt><trkpt lat="41.606082911054706" lon="13.331899889335125"><ele>157.5</ele><time>2026-05-01T16:06:06.999Z</time></trkpt><trkpt lat="41.60576332501479" lon="13.332034360769793"><ele>160.0</ele><time>2026-05-01T16:06:07.999Z</time></trkpt><trkpt lat="41.60544399942886" lon="13.332165873508389"><ele>154.5</ele><time>2026-05-01T16:06:08.999Z</time></trkpt><trkpt lat="41.605124615604225" lon="13.332297088302454"><ele>149.0</ele><time>2026-05-01T16:06:09.999Z</time></trkpt><trkpt lat="41.604804977437475" lon="13.332430015148853"><ele>149.0</ele><time>2026-05-01T16:06:10.999Z</time></trkpt><trkpt lat="41.60448615419178" lon="13.332565817272007"><ele>149.0</ele><time>2026-05-01T16:06:11.999Z</time></trkpt><trkpt lat="41.6041660819571" lon="13.332700633487331"><ele>149.0</ele><time>2026-05-01T16:06:12.999Z</time></trkpt><trkpt lat="41.60384497573322" lon="13.332833435082048"><ele>149.0</ele><time>2026-05-01T16:06:13.999Z</time></trkpt><trkpt lat="41.60352275107723" lon="13.332967394962742"><ele>146.5</ele><time>2026-05-01T16:06:14.999Z</time></trkpt><trkpt lat="41.60320204742211" lon="13.333105102334528"><ele>144.0</ele><time>2026-05-01T16:06:15.999Z</time></trkpt><trkpt lat="41.60288059650346" lon="13.333243010761544"><ele>143.0</ele><time>2026-05-01T16:06:16.999Z</time></trkpt><trkpt lat="41.60256033064881" lon="13.333381374484835"><ele>142.0</ele><time>2026-05-01T16:06:17.999Z</time></trkpt><trkpt lat="41.602239861898504" lon="13.3335189217442"><ele>140.0</ele><time>2026-05-01T16:06:18.999Z</time></trkpt><trkpt lat="41.601919127043296" lon="13.33365691587204"><ele>138.0</ele><time>2026-05-01T16:06:19.999Z</time></trkpt><trkpt lat="41.60159747216422" lon="13.333794248623557"><ele>138.0</ele><time>2026-05-01T16:06:20.999Z</time></trkpt><trkpt lat="41.60127920645765" lon="13.333929100206944"><ele>138.0</ele><time>2026-05-01T16:06:21.999Z</time></trkpt><trkpt lat="41.60096944849563" lon="13.33406014144942"><ele>138.0</ele><time>2026-05-01T16:06:22.999Z</time></trkpt><trkpt lat="41.600664618927226" lon="13.334185249090531"><ele>138.0</ele><time>2026-05-01T16:06:23.999Z</time></trkpt><trkpt lat="41.6003630835424" lon="13.334308605328195"><ele>138.5</ele><time>2026-05-01T16:06:24.999Z</time></trkpt><trkpt lat="41.600063194128786" lon="13.334430899895777"><ele>139.0</ele><time>2026-05-01T16:06:25.999Z</time></trkpt><trkpt lat="41.599767391591925" lon="13.33455346587071"><ele>139.0</ele><time>2026-05-01T16:06:26.999Z</time></trkpt><trkpt lat="41.59947247946998" lon="13.334675849864391"><ele>139.0</ele><time>2026-05-01T16:06:27.999Z</time></trkpt><trkpt lat="41.599179804174355" lon="13.334797645083594"><ele>139.0</ele><time>2026-05-01T16:06:28.999Z</time></trkpt><trkpt lat="41.598886541276556" lon="13.334919085456516"><ele>139.0</ele><time>2026-05-01T16:06:29.999Z</time></trkpt><trkpt lat="41.598593146402" lon="13.335042894752876"><ele>141.0</ele><time>2026-05-01T16:06:30.999Z</time></trkpt><trkpt lat="41.598292894772065" lon="13.335171639166994"><ele>143.0</ele><time>2026-05-01T16:06:31.999Z</time></trkpt><trkpt lat="41.597986646295176" lon="13.335302284161825"><ele>147.0</ele><time>2026-05-01T16:06:32.999Z</time></trkpt><trkpt lat="41.59767589503028" lon="13.33543128170528"><ele>151.0</ele><time>2026-05-01T16:06:33.999Z</time></trkpt><trkpt lat="41.5973628587079" lon="13.335564746815521"><ele>151.5</ele><time>2026-05-01T16:06:34.999Z</time></trkpt><trkpt lat="41.597050061983275" lon="13.335704871069806"><ele>152.0</ele><time>2026-05-01T16:06:35.999Z</time></trkpt><trkpt lat="41.596736707514445" lon="13.335852183079334"><ele>157.0</ele><time>2026-05-01T16:06:36.999Z</time></trkpt><trkpt lat="41.59642492606592" lon="13.336007458183742"><ele>162.0</ele><time>2026-05-01T16:06:37.999Z</time></trkpt><trkpt lat="41.5961147906882" lon="13.336170739280046"><ele>161.5</ele><time>2026-05-01T16:06:38.999Z</time></trkpt><trkpt lat="41.59580768827411" lon="13.336347124417115"><ele>161.0</ele><time>2026-05-01T16:06:39.999Z</time></trkpt><trkpt lat="41.595504215229454" lon="13.336534068890264"><ele>166.5</ele><time>2026-05-01T16:06:40.999Z</time></trkpt><trkpt lat="41.59520501248541" lon="13.336732483312943"><ele>172.0</ele><time>2026-05-01T16:06:41.999Z</time></trkpt><trkpt lat="41.59491091212272" lon="13.33694242545114"><ele>172.0</ele><time>2026-05-01T16:06:42.999Z</time></trkpt><trkpt lat="41.59462152966814" lon="13.3371644475185"><ele>172.0</ele><time>2026-05-01T16:06:43.999Z</time></trkpt><trkpt lat="41.59433457485422" lon="13.337399741401322"><ele>173.5</ele><time>2026-05-01T16:06:44.999Z</time></trkpt><trkpt lat="41.59405424000716" lon="13.337647344180956"><ele>175.0</ele><time>2026-05-01T16:06:45.999Z</time></trkpt><trkpt lat="41.593780667320615" lon="13.337905759026036"><ele>172.5</ele><time>2026-05-01T16:06:46.999Z</time></trkpt><trkpt lat="41.59350978096446" lon="13.338174514006699"><ele>170.0</ele><time>2026-05-01T16:06:47.999Z</time></trkpt><trkpt lat="41.59324360093999" lon="13.338453572575185"><ele>170.0</ele><time>2026-05-01T16:06:48.999Z</time></trkpt><trkpt lat="41.59298431843644" lon="13.338741399275715"><ele>170.0</ele><time>2026-05-01T16:06:49.999Z</time></trkpt><trkpt lat="41.59273137034046" lon="13.339039261994298"><ele>170.0</ele><time>2026-05-01T16:06:50.999Z</time></trkpt><trkpt lat="41.59248327912558" lon="13.33934865897187"><ele>170.0</ele><time>2026-05-01T16:06:51.999Z</time></trkpt><trkpt lat="41.592243109946324" lon="13.339667372956582"><ele>170.5</ele><time>2026-05-01T16:06:52.999Z</time></trkpt><trkpt lat="41.592009679009905" lon="13.339994075286231"><ele>171.0</ele><time>2026-05-01T16:06:53.999Z</time></trkpt><trkpt lat="41.59178367460852" lon="13.340329653837218"><ele>173.5</ele><time>2026-05-01T16:06:54.999Z</time></trkpt><trkpt lat="41.59156404588108" lon="13.340671674297663"><ele>176.0</ele><time>2026-05-01T16:06:55.999Z</time></trkpt><trkpt lat="41.591347646793444" lon="13.341017735478689"><ele>174.5</ele><time>2026-05-01T16:06:56.999Z</time></trkpt><trkpt lat="41.59113262681591" lon="13.341359739352585"><ele>173.0</ele><time>2026-05-01T16:06:57.999Z</time></trkpt><trkpt lat="41.59092021429621" lon="13.341704435545779"><ele>170.0</ele><time>2026-05-01T16:06:58.999Z</time></trkpt><trkpt lat="41.59070947332192" lon="13.342052245843767"><ele>167.0</ele><time>2026-05-01T16:06:59.999Z</time></trkpt><trkpt lat="41.590497641159004" lon="13.342396845116763"><ele>163.0</ele><time>2026-05-01T16:07:00.999Z</time></trkpt><trkpt lat="41.59028579308885" lon="13.342742481109031"><ele>159.0</ele><time>2026-05-01T16:07:01.999Z</time></trkpt><trkpt lat="41.59007424952393" lon="13.343087673208895"><ele>159.0</ele><time>2026-05-01T16:07:02.999Z</time></trkpt><trkpt lat="41.589862935226655" lon="13.343430131185603"><ele>159.0</ele><time>2026-05-01T16:07:03.999Z</time></trkpt><trkpt lat="41.58965219683876" lon="13.343772692723281"><ele>161.0</ele><time>2026-05-01T16:07:04.999Z</time></trkpt><trkpt lat="41.58944378210283" lon="13.344115141379673"><ele>163.0</ele><time>2026-05-01T16:07:05.999Z</time></trkpt><trkpt lat="41.589238659643485" lon="13.344457189632017"><ele>164.5</ele><time>2026-05-01T16:07:06.999Z</time></trkpt><trkpt lat="41.589033867152665" lon="13.344798849421998"><ele>166.0</ele><time>2026-05-01T16:07:07.998Z</time></trkpt><trkpt lat="41.58882607190695" lon="13.34513844817265"><ele>172.0</ele><time>2026-05-01T16:07:08.998Z</time></trkpt><trkpt lat="41.58861730268183" lon="13.345479294492362"><ele>178.0</ele><time>2026-05-01T16:07:09.998Z</time></trkpt><trkpt lat="41.58840940799078" lon="13.345820270597406"><ele>178.0</ele><time>2026-05-01T16:07:10.998Z</time></trkpt><trkpt lat="41.58820106984909" lon="13.346161131661903"><ele>178.0</ele><time>2026-05-01T16:07:11.998Z</time></trkpt><trkpt lat="41.58799269098471" lon="13.346501651040699"><ele>176.5</ele><time>2026-05-01T16:07:12.998Z</time></trkpt><trkpt lat="41.58778596190434" lon="13.346842786874225"><ele>175.0</ele><time>2026-05-01T16:07:13.998Z</time></trkpt><trkpt lat="41.5875794883244" lon="13.347184423009114"><ele>169.5</ele><time>2026-05-01T16:07:14.998Z</time></trkpt><trkpt lat="41.58737233464261" lon="13.347524882281343"><ele>164.0</ele><time>2026-05-01T16:07:15.998Z</time></trkpt><trkpt lat="41.58716389555377" lon="13.347865604343182"><ele>160.5</ele><time>2026-05-01T16:07:16.998Z</time></trkpt><trkpt lat="41.586954635683576" lon="13.348203106743503"><ele>157.0</ele><time>2026-05-01T16:07:17.998Z</time></trkpt><trkpt lat="41.58674433230296" lon="13.34854260808245"><ele>158.5</ele><time>2026-05-01T16:07:18.998Z</time></trkpt><trkpt lat="41.5865330671587" lon="13.348883963091092"><ele>160.0</ele><time>2026-05-01T16:07:19.998Z</time></trkpt><trkpt lat="41.58632320616243" lon="13.34922692052239"><ele>159.0</ele><time>2026-05-01T16:07:20.998Z</time></trkpt><trkpt lat="41.58611432686965" lon="13.349571759627628"><ele>158.0</ele><time>2026-05-01T16:07:21.998Z</time></trkpt><trkpt lat="41.58590595198804" lon="13.349917480669104"><ele>158.0</ele><time>2026-05-01T16:07:22.998Z</time></trkpt><trkpt lat="41.58569791084515" lon="13.350264029555074"><ele>158.0</ele><time>2026-05-01T16:07:23.998Z</time></trkpt><trkpt lat="41.58548833577757" lon="13.35060908302845"><ele>157.0</ele><time>2026-05-01T16:07:24.998Z</time></trkpt><trkpt lat="41.585279495305684" lon="13.350952484167971"><ele>156.0</ele><time>2026-05-01T16:07:25.998Z</time></trkpt><trkpt lat="41.585072266361124" lon="13.35129561795688"><ele>156.0</ele><time>2026-05-01T16:07:26.998Z</time></trkpt><trkpt lat="41.584865147909646" lon="13.351640375787108"><ele>156.0</ele><time>2026-05-01T16:07:27.998Z</time></trkpt><trkpt lat="41.584658657670126" lon="13.3519849684581"><ele>149.5</ele><time>2026-05-01T16:07:28.998Z</time></trkpt><trkpt lat="41.58445343328301" lon="13.352326918602582"><ele>143.0</ele><time>2026-05-01T16:07:29.998Z</time></trkpt><trkpt lat="41.58424746966377" lon="13.352668635356665"><ele>143.0</ele><time>2026-05-01T16:07:30.998Z</time></trkpt><trkpt lat="41.58404050723019" lon="13.35300959477463"><ele>143.0</ele><time>2026-05-01T16:07:31.998Z</time></trkpt><trkpt lat="41.583833689569595" lon="13.35335038845705"><ele>153.0</ele><time>2026-05-01T16:07:32.998Z</time></trkpt><trkpt lat="41.583625282872696" lon="13.353691688539689"><ele>163.0</ele><time>2026-05-01T16:07:33.998Z</time></trkpt><trkpt lat="41.583415968406115" lon="13.354033442914185"><ele>163.0</ele><time>2026-05-01T16:07:34.999Z</time></trkpt><trkpt lat="41.58320602516477" lon="13.354375395034412"><ele>163.0</ele><time>2026-05-01T16:07:35.999Z</time></trkpt><trkpt lat="41.58299603045291" lon="13.354719375227727"><ele>169.0</ele><time>2026-05-01T16:07:36.999Z</time></trkpt><trkpt lat="41.582785641926584" lon="13.35506267190623"><ele>175.0</ele><time>2026-05-01T16:07:37.999Z</time></trkpt><trkpt lat="41.58257279389505" lon="13.355403754227774"><ele>172.5</ele><time>2026-05-01T16:07:38.999Z</time></trkpt><trkpt lat="41.58235733887759" lon="13.355746568927582"><ele>170.0</ele><time>2026-05-01T16:07:39.999Z</time></trkpt><trkpt lat="41.58214305273997" lon="13.35608865961527"><ele>177.0</ele><time>2026-05-01T16:07:40.999Z</time></trkpt><trkpt lat="41.581930853973226" lon="13.356437603885738"><ele>184.0</ele><time>2026-05-01T16:07:41.999Z</time></trkpt><trkpt lat="41.58172485128823" lon="13.356789221664165"><ele>184.0</ele><time>2026-05-01T16:07:42.999Z</time></trkpt><trkpt lat="41.58152203998522" lon="13.357144895183295"><ele>184.0</ele><time>2026-05-01T16:07:43.999Z</time></trkpt><trkpt lat="41.58132059333003" lon="13.357499257336817"><ele>184.5</ele><time>2026-05-01T16:07:44.999Z</time></trkpt><trkpt lat="41.581119958692426" lon="13.357855236623816"><ele>185.0</ele><time>2026-05-01T16:07:45.999Z</time></trkpt><trkpt lat="41.58092100567786" lon="13.358212520108873"><ele>179.5</ele><time>2026-05-01T16:07:46.999Z</time></trkpt><trkpt lat="41.580723972423506" lon="13.358571832849064"><ele>174.0</ele><time>2026-05-01T16:07:47.999Z</time></trkpt><trkpt lat="41.58052942880605" lon="13.358933065356904"><ele>169.5</ele><time>2026-05-01T16:07:48.999Z</time></trkpt><trkpt lat="41.580339286335224" lon="13.35929835176232"><ele>165.0</ele><time>2026-05-01T16:07:49.999Z</time></trkpt><trkpt lat="41.580152931192465" lon="13.359664984486814"><ele>162.5</ele><time>2026-05-01T16:07:50.999Z</time></trkpt><trkpt lat="41.5799697764205" lon="13.360035371895153"><ele>160.0</ele><time>2026-05-01T16:07:51.999Z</time></trkpt><trkpt lat="41.57978905328716" lon="13.36040599596637"><ele>161.5</ele><time>2026-05-01T16:07:52.999Z</time></trkpt><trkpt lat="41.57961287466654" lon="13.360777369306964"><ele>163.0</ele><time>2026-05-01T16:07:53.999Z</time></trkpt><trkpt lat="41.57944054433138" lon="13.361149039975176"><ele>160.5</ele><time>2026-05-01T16:07:54.999Z</time></trkpt><trkpt lat="41.57927179002464" lon="13.361523278974639"><ele>158.0</ele><time>2026-05-01T16:07:55.999Z</time></trkpt><trkpt lat="41.57910477611638" lon="13.361899534023879"><ele>161.0</ele><time>2026-05-01T16:07:56.999Z</time></trkpt><trkpt lat="41.5789375731661" lon="13.362277336572816"><ele>164.0</ele><time>2026-05-01T16:07:57.999Z</time></trkpt><trkpt lat="41.57877162355218" lon="13.362658830950284"><ele>157.5</ele><time>2026-05-01T16:07:58.999Z</time></trkpt><trkpt lat="41.57860790335359" lon="13.363039704973202"><ele>151.0</ele><time>2026-05-01T16:07:59.999Z</time></trkpt><trkpt lat="41.57844457235337" lon="13.363423296887953"><ele>151.0</ele><time>2026-05-01T16:08:00.999Z</time></trkpt><trkpt lat="41.578280074618924" lon="13.363807196819085"><ele>151.0</ele><time>2026-05-01T16:08:01.999Z</time></trkpt><trkpt lat="41.578118352038864" lon="13.364192055962096"><ele>153.0</ele><time>2026-05-01T16:08:02.999Z</time></trkpt><trkpt lat="41.57795657468683" lon="13.36457750986203"><ele>155.0</ele><time>2026-05-01T16:08:03.999Z</time></trkpt><trkpt lat="41.577796045638465" lon="13.364962718824504"><ele>152.5</ele><time>2026-05-01T16:08:04.999Z</time></trkpt><trkpt lat="41.577634507944246" lon="13.365349201202932"><ele>150.0</ele><time>2026-05-01T16:08:05.999Z</time></trkpt><trkpt lat="41.57747229645567" lon="13.365735546416364"><ele>150.0</ele><time>2026-05-01T16:08:06.999Z</time></trkpt><trkpt lat="41.57730975320641" lon="13.366122304618088"><ele>150.0</ele><time>2026-05-01T16:08:07.999Z</time></trkpt><trkpt lat="41.57714827990194" lon="13.366507801044337"><ele>149.5</ele><time>2026-05-01T16:08:08.999Z</time></trkpt><trkpt lat="41.57698657312206" lon="13.366895237817188"><ele>149.0</ele><time>2026-05-01T16:08:09.999Z</time></trkpt><trkpt lat="41.57682507863974" lon="13.367280937459698"><ele>149.0</ele><time>2026-05-01T16:08:10.999Z</time></trkpt><trkpt lat="41.57666413760208" lon="13.367667394899787"><ele>149.0</ele><time>2026-05-01T16:08:11.999Z</time></trkpt><trkpt lat="41.576502711400636" lon="13.368055499623923"><ele>150.5</ele><time>2026-05-01T16:08:12.999Z</time></trkpt><trkpt lat="41.576343031376915" lon="13.368442226960642"><ele>152.0</ele><time>2026-05-01T16:08:13.999Z</time></trkpt><trkpt lat="41.57618453854692" lon="13.368827377571074"><ele>147.0</ele><time>2026-05-01T16:08:14.999Z</time></trkpt><trkpt lat="41.576023547043505" lon="13.369214558760447"><ele>142.0</ele><time>2026-05-01T16:08:15.999Z</time></trkpt><trkpt lat="41.57586468468601" lon="13.369598991616753"><ele>140.0</ele><time>2026-05-01T16:08:16.999Z</time></trkpt><trkpt lat="41.57570553553062" lon="13.369984618928871"><ele>138.0</ele><time>2026-05-01T16:08:17.999Z</time></trkpt><trkpt lat="41.57554670899943" lon="13.370371588162167"><ele>136.0</ele><time>2026-05-01T16:08:18.999Z</time></trkpt><trkpt lat="41.57538944243013" lon="13.370760275378316"><ele>134.0</ele><time>2026-05-01T16:08:19.999Z</time></trkpt><trkpt lat="41.575235637226484" lon="13.371148070373986"><ele>135.0</ele><time>2026-05-01T16:08:20.999Z</time></trkpt><trkpt lat="41.57508276993224" lon="13.37153662568729"><ele>136.0</ele><time>2026-05-01T16:08:21.999Z</time></trkpt><trkpt lat="41.574928412553426" lon="13.371927096111191"><ele>139.0</ele><time>2026-05-01T16:08:22.999Z</time></trkpt><trkpt lat="41.57477477170242" lon="13.372316119181882"><ele>142.0</ele><time>2026-05-01T16:08:23.999Z</time></trkpt><trkpt lat="41.57462075010008" lon="13.372703379572595"><ele>145.0</ele><time>2026-05-01T16:08:24.999Z</time></trkpt><trkpt lat="41.57446613183522" lon="13.37309174076976"><ele>148.0</ele><time>2026-05-01T16:08:25.999Z</time></trkpt><trkpt lat="41.574310071680436" lon="13.373479479680924"><ele>153.0</ele><time>2026-05-01T16:08:26.999Z</time></trkpt><trkpt lat="41.574150700057295" lon="13.373866287581507"><ele>158.0</ele><time>2026-05-01T16:08:27.999Z</time></trkpt><trkpt lat="41.57398952319258" lon="13.374251476796687"><ele>158.0</ele><time>2026-05-01T16:08:28.999Z</time></trkpt><trkpt lat="41.573828398557325" lon="13.374637187392594"><ele>158.0</ele><time>2026-05-01T16:08:29.999Z</time></trkpt><trkpt lat="41.573667151777336" lon="13.375024231821637"><ele>159.0</ele><time>2026-05-01T16:08:30.999Z</time></trkpt><trkpt lat="41.57350393608165" lon="13.37541411395109"><ele>160.0</ele><time>2026-05-01T16:08:31.999Z</time></trkpt><trkpt lat="41.57334245599171" lon="13.375801376550363"><ele>160.0</ele><time>2026-05-01T16:08:32.999Z</time></trkpt><trkpt lat="41.57318091484583" lon="13.376186840009568"><ele>160.0</ele><time>2026-05-01T16:08:33.999Z</time></trkpt><trkpt lat="41.573020211402174" lon="13.376575805990575"><ele>158.5</ele><time>2026-05-01T16:08:34.999Z</time></trkpt><trkpt lat="41.572858579342466" lon="13.37696437936866"><ele>157.0</ele><time>2026-05-01T16:08:35.999Z</time></trkpt><trkpt lat="41.57269543966456" lon="13.377355757820629"><ele>156.0</ele><time>2026-05-01T16:08:36.999Z</time></trkpt><trkpt lat="41.57253314250185" lon="13.377745049763996"><ele>155.0</ele><time>2026-05-01T16:08:37.999Z</time></trkpt><trkpt lat="41.57237112608705" lon="13.378136256093356"><ele>155.0</ele><time>2026-05-01T16:08:38.999Z</time></trkpt><trkpt lat="41.57220820168186" lon="13.37852755531843"><ele>155.0</ele><time>2026-05-01T16:08:39.999Z</time></trkpt><trkpt lat="41.57204509307398" lon="13.37891560921122"><ele>164.0</ele><time>2026-05-01T16:08:40.999Z</time></trkpt><trkpt lat="41.571881972235936" lon="13.37930350608869"><ele>173.0</ele><time>2026-05-01T16:08:41.999Z</time></trkpt><trkpt lat="41.57171925654389" lon="13.379693408820048"><ele>174.0</ele><time>2026-05-01T16:08:42.999Z</time></trkpt><trkpt lat="41.571556602952725" lon="13.380083777302126"><ele>175.0</ele><time>2026-05-01T16:08:43.999Z</time></trkpt><trkpt lat="41.57139445335637" lon="13.380475970479056"><ele>176.5</ele><time>2026-05-01T16:08:44.999Z</time></trkpt><trkpt lat="41.5712322303561" lon="13.380868681339962"><ele>178.0</ele><time>2026-05-01T16:08:45.999Z</time></trkpt><trkpt lat="41.57106878077956" lon="13.381262168859218"><ele>176.5</ele><time>2026-05-01T16:08:46.999Z</time></trkpt><trkpt lat="41.57090376705787" lon="13.381654663427556"><ele>175.0</ele><time>2026-05-01T16:08:47.999Z</time></trkpt><trkpt lat="41.5707413402557" lon="13.382043754189501"><ele>171.5</ele><time>2026-05-01T16:08:48.999Z</time></trkpt><trkpt lat="41.57057792704777" lon="13.382429069241534"><ele>168.0</ele><time>2026-05-01T16:08:49.999Z</time></trkpt><trkpt lat="41.57041196863171" lon="13.382818862190577"><ele>170.5</ele><time>2026-05-01T16:08:50.999Z</time></trkpt><trkpt lat="41.57025007774888" lon="13.38320854296273"><ele>173.0</ele><time>2026-05-01T16:08:51.999Z</time></trkpt><trkpt lat="41.570088275473495" lon="13.383597228589933"><ele>167.5</ele><time>2026-05-01T16:08:52.999Z</time></trkpt><trkpt lat="41.56992389541055" lon="13.383984748975443"><ele>162.0</ele><time>2026-05-01T16:08:53.999Z</time></trkpt><trkpt lat="41.569759197069686" lon="13.38437213908186"><ele>160.5</ele><time>2026-05-01T16:08:54.999Z</time></trkpt><trkpt lat="41.56959316633095" lon="13.384758728090237"><ele>159.0</ele><time>2026-05-01T16:08:55.999Z</time></trkpt><trkpt lat="41.569426569576045" lon="13.385147971101095"><ele>156.0</ele><time>2026-05-01T16:08:56.999Z</time></trkpt><trkpt lat="41.5692579884525" lon="13.385537510741893"><ele>153.0</ele><time>2026-05-01T16:08:57.999Z</time></trkpt><trkpt lat="41.56908995765229" lon="13.385925837425766"><ele>153.0</ele><time>2026-05-01T16:08:58.999Z</time></trkpt><trkpt lat="41.56892261370837" lon="13.38631421345163"><ele>153.0</ele><time>2026-05-01T16:08:59.999Z</time></trkpt><trkpt lat="41.56875598927853" lon="13.38670103272928"><ele>152.5</ele><time>2026-05-01T16:09:00.999Z</time></trkpt><trkpt lat="41.56858989437942" lon="13.387084715119373"><ele>152.0</ele><time>2026-05-01T16:09:01.999Z</time></trkpt><trkpt lat="41.56842276855617" lon="13.387471382453008"><ele>151.5</ele><time>2026-05-01T16:09:02.999Z</time></trkpt><trkpt lat="41.56825687447777" lon="13.387857295609553"><ele>151.0</ele><time>2026-05-01T16:09:03.999Z</time></trkpt><trkpt lat="41.56809228800498" lon="13.38824557310659"><ele>151.0</ele><time>2026-05-01T16:09:04.999Z</time></trkpt><trkpt lat="41.56792802130201" lon="13.388635286692507"><ele>151.0</ele><time>2026-05-01T16:09:05.999Z</time></trkpt><trkpt lat="41.56776497777656" lon="13.389022992669817"><ele>146.0</ele><time>2026-05-01T16:09:06.999Z</time></trkpt><trkpt lat="41.56760213708504" lon="13.389410351726383"><ele>141.0</ele><time>2026-05-01T16:09:07.999Z</time></trkpt><trkpt lat="41.567440287395456" lon="13.38979715356124"><ele>141.0</ele><time>2026-05-01T16:09:08.999Z</time></trkpt><trkpt lat="41.56727829963488" lon="13.390182303175896"><ele>141.0</ele><time>2026-05-01T16:09:09.999Z</time></trkpt><trkpt lat="41.56711664549234" lon="13.390570145003709"><ele>140.0</ele><time>2026-05-01T16:09:10.999Z</time></trkpt><trkpt lat="41.566954164984146" lon="13.390956430389904"><ele>139.0</ele><time>2026-05-01T16:09:11.999Z</time></trkpt><trkpt lat="41.566790438591816" lon="13.39134029144322"><ele>140.0</ele><time>2026-05-01T16:09:12.999Z</time></trkpt><trkpt lat="41.566627735098145" lon="13.391722861121606"><ele>141.0</ele><time>2026-05-01T16:09:13.999Z</time></trkpt><trkpt lat="41.566466809729356" lon="13.392106014767881"><ele>141.5</ele><time>2026-05-01T16:09:14.999Z</time></trkpt><trkpt lat="41.56630668632657" lon="13.392487719188779"><ele>142.0</ele><time>2026-05-01T16:09:15.999Z</time></trkpt><trkpt lat="41.56614615584813" lon="13.392872215645188"><ele>148.0</ele><time>2026-05-01T16:09:16.998Z</time></trkpt><trkpt lat="41.56598574212397" lon="13.39325773842245"><ele>154.0</ele><time>2026-05-01T16:09:17.998Z</time></trkpt><trkpt lat="41.565825233988704" lon="13.393643494358901"><ele>158.0</ele><time>2026-05-01T16:09:18.998Z</time></trkpt><trkpt lat="41.56566500089463" lon="13.394026206574846"><ele>162.0</ele><time>2026-05-01T16:09:19.998Z</time></trkpt><trkpt lat="41.565502241174414" lon="13.394409944967688"><ele>163.0</ele><time>2026-05-01T16:09:20.998Z</time></trkpt><trkpt lat="41.56534149643589" lon="13.39479601064559"><ele>164.0</ele><time>2026-05-01T16:09:21.998Z</time></trkpt><trkpt lat="41.56518049634167" lon="13.395182989751262"><ele>164.0</ele><time>2026-05-01T16:09:22.998Z</time></trkpt><trkpt lat="41.5650181356701" lon="13.395567964901312"><ele>164.0</ele><time>2026-05-01T16:09:23.998Z</time></trkpt><trkpt lat="41.56485626268603" lon="13.395951681099705"><ele>162.0</ele><time>2026-05-01T16:09:24.998Z</time></trkpt><trkpt lat="41.564693134138906" lon="13.396336472241927"><ele>160.0</ele><time>2026-05-01T16:09:25.998Z</time></trkpt><trkpt lat="41.56452944357852" lon="13.39672356676532"><ele>158.0</ele><time>2026-05-01T16:09:26.998Z</time></trkpt><trkpt lat="41.56436379840607" lon="13.397113175480683"><ele>156.0</ele><time>2026-05-01T16:09:27.998Z</time></trkpt><trkpt lat="41.564201735099076" lon="13.397505895351129"><ele>155.5</ele><time>2026-05-01T16:09:28.998Z</time></trkpt><trkpt lat="41.56404004804587" lon="13.397898705446973"><ele>155.0</ele><time>2026-05-01T16:09:29.998Z</time></trkpt><trkpt lat="41.56387485946415" lon="13.398290475778193"><ele>155.0</ele><time>2026-05-01T16:09:30.998Z</time></trkpt><trkpt lat="41.56370971274315" lon="13.398682510566697"><ele>155.0</ele><time>2026-05-01T16:09:31.998Z</time></trkpt><trkpt lat="41.56354425015751" lon="13.399073135365246"><ele>155.0</ele><time>2026-05-01T16:09:32.998Z</time></trkpt><trkpt lat="41.563380767127114" lon="13.39946122725666"><ele>155.0</ele><time>2026-05-01T16:09:33.998Z</time></trkpt><trkpt lat="41.563216832566205" lon="13.399849950343075"><ele>155.0</ele><time>2026-05-01T16:09:34.998Z</time></trkpt><trkpt lat="41.56305333694775" lon="13.400242287119774"><ele>155.0</ele><time>2026-05-01T16:09:35.999Z</time></trkpt><trkpt lat="41.56289119687672" lon="13.40063497852942"><ele>156.0</ele><time>2026-05-01T16:09:36.999Z</time></trkpt><trkpt lat="41.5627275711954" lon="13.401027004754422"><ele>157.0</ele><time>2026-05-01T16:09:37.999Z</time></trkpt><trkpt lat="41.56256172107907" lon="13.401420494269624"><ele>157.0</ele><time>2026-05-01T16:09:38.999Z</time></trkpt><trkpt lat="41.56239559962285" lon="13.401811569828416"><ele>157.0</ele><time>2026-05-01T16:09:39.999Z</time></trkpt><trkpt lat="41.56222999577681" lon="13.40220386726601"><ele>153.5</ele><time>2026-05-01T16:09:41.001Z</time></trkpt><trkpt lat="41.562064851022235" lon="13.402597075684437"><ele>150.0</ele><time>2026-05-01T16:09:42.001Z</time></trkpt><trkpt lat="41.56190279123489" lon="13.402987805157217"><ele>148.5</ele><time>2026-05-01T16:09:43.001Z</time></trkpt><trkpt lat="41.56174304804602" lon="13.403378944104178"><ele>147.0</ele><time>2026-05-01T16:09:44.001Z</time></trkpt><trkpt lat="41.561583979295264" lon="13.40376799768707"><ele>145.5</ele><time>2026-05-01T16:09:45.001Z</time></trkpt><trkpt lat="41.56142887275132" lon="13.404157850242962"><ele>144.0</ele><time>2026-05-01T16:09:46.001Z</time></trkpt><trkpt lat="41.56127367053237" lon="13.404545980905572"><ele>144.5</ele><time>2026-05-01T16:09:47Z</time></trkpt><trkpt lat="41.561115678512344" lon="13.404934437202797"><ele>145.0</ele><time>2026-05-01T16:09:48Z</time></trkpt><trkpt lat="41.56095497786577" lon="13.405317574373187"><ele>144.5</ele><time>2026-05-01T16:09:49Z</time></trkpt><trkpt lat="41.56079655665623" lon="13.405698056591662"><ele>144.0</ele><time>2026-05-01T16:09:50Z</time></trkpt><trkpt lat="41.56063589964276" lon="13.40608297890549"><ele>145.0</ele><time>2026-05-01T16:09:51Z</time></trkpt><trkpt lat="41.56047290455726" lon="13.406467066663685"><ele>146.0</ele><time>2026-05-01T16:09:52Z</time></trkpt><trkpt lat="41.560309317340455" lon="13.406850020673438"><ele>144.5</ele><time>2026-05-01T16:09:53Z</time></trkpt><trkpt lat="41.56014404100883" lon="13.40723123708001"><ele>143.0</ele><time>2026-05-01T16:09:54Z</time></trkpt><trkpt lat="41.55997797574775" lon="13.407610359965105"><ele>146.5</ele><time>2026-05-01T16:09:55Z</time></trkpt><trkpt lat="41.55980993480379" lon="13.407995334971474"><ele>150.0</ele><time>2026-05-01T16:09:56Z</time></trkpt><trkpt lat="41.55964697880648" lon="13.408378421804931"><ele>148.5</ele><time>2026-05-01T16:09:57Z</time></trkpt><trkpt lat="41.55948717476391" lon="13.408764393158147"><ele>147.0</ele><time>2026-05-01T16:09:58Z</time></trkpt><trkpt lat="41.559332539779625" lon="13.409152129652036"><ele>150.5</ele><time>2026-05-01T16:09:59Z</time></trkpt><trkpt lat="41.5591821430216" lon="13.409542492946604"><ele>154.0</ele><time>2026-05-01T16:10:00Z</time></trkpt><trkpt lat="41.55903625108622" lon="13.409936858496758"><ele>157.5</ele><time>2026-05-01T16:10:01Z</time></trkpt><trkpt lat="41.55889242879719" lon="13.410332081444624"><ele>161.0</ele><time>2026-05-01T16:10:02Z</time></trkpt><trkpt lat="41.55875064391413" lon="13.410730359060889"><ele>161.5</ele><time>2026-05-01T16:10:03Z</time></trkpt><trkpt lat="41.55861225136434" lon="13.411133594341079"><ele>162.0</ele><time>2026-05-01T16:10:04Z</time></trkpt><trkpt lat="41.55847942625649" lon="13.41154146663432"><ele>163.5</ele><time>2026-05-01T16:10:05Z</time></trkpt><trkpt lat="41.55835080658943" lon="13.4119500715696"><ele>165.0</ele><time>2026-05-01T16:10:06Z</time></trkpt><trkpt lat="41.558229312014035" lon="13.412360674347461"><ele>167.0</ele><time>2026-05-01T16:10:07Z</time></trkpt><trkpt lat="41.55811085013247" lon="13.412774421453372"><ele>169.0</ele><time>2026-05-01T16:10:08Z</time></trkpt><trkpt lat="41.55799446142356" lon="13.413193293309309"><ele>169.0</ele><time>2026-05-01T16:10:09Z</time></trkpt><trkpt lat="41.55788132730832" lon="13.413614349360834"><ele>169.0</ele><time>2026-05-01T16:10:10Z</time></trkpt><trkpt lat="41.55777173907267" lon="13.414037154946067"><ele>169.0</ele><time>2026-05-01T16:10:11Z</time></trkpt><trkpt lat="41.55766654012165" lon="13.414460028123079"><ele>169.0</ele><time>2026-05-01T16:10:12Z</time></trkpt><trkpt lat="41.55756711695719" lon="13.41488536970216"><ele>169.0</ele><time>2026-05-01T16:10:13Z</time></trkpt><trkpt lat="41.557470916740755" lon="13.415314908132757"><ele>169.0</ele><time>2026-05-01T16:10:14Z</time></trkpt><trkpt lat="41.557379651773125" lon="13.415746986959768"><ele>169.0</ele><time>2026-05-01T16:10:15Z</time></trkpt><trkpt lat="41.55729384693177" lon="13.416180331348501"><ele>169.0</ele><time>2026-05-01T16:10:16Z</time></trkpt><trkpt lat="41.557216722211486" lon="13.416615576404256"><ele>168.0</ele><time>2026-05-01T16:10:17Z</time></trkpt><trkpt lat="41.55713980286111" lon="13.41705112896796"><ele>167.0</ele><time>2026-05-01T16:10:18Z</time></trkpt><trkpt lat="41.55706241523266" lon="13.417486324986053"><ele>165.5</ele><time>2026-05-01T16:10:19Z</time></trkpt><trkpt lat="41.55698238373312" lon="13.417922076548797"><ele>164.0</ele><time>2026-05-01T16:10:20Z</time></trkpt><trkpt lat="41.55690275805845" lon="13.418356271953865"><ele>162.5</ele><time>2026-05-01T16:10:21Z</time></trkpt><trkpt lat="41.556823408451336" lon="13.418791081864896"><ele>161.0</ele><time>2026-05-01T16:10:22Z</time></trkpt><trkpt lat="41.55674239918301" lon="13.419225062286541"><ele>156.5</ele><time>2026-05-01T16:10:23Z</time></trkpt><trkpt lat="41.55666420679634" lon="13.419660136037795"><ele>152.0</ele><time>2026-05-01T16:10:24Z</time></trkpt><trkpt lat="41.55658831144719" lon="13.420095350270778"><ele>150.0</ele><time>2026-05-01T16:10:25Z</time></trkpt><trkpt lat="41.55651374047195" lon="13.420530156073665"><ele>148.0</ele><time>2026-05-01T16:10:26Z</time></trkpt><trkpt lat="41.55643907551922" lon="13.42096456980096"><ele>148.5</ele><time>2026-05-01T16:10:27Z</time></trkpt><trkpt lat="41.55636451106756" lon="13.421396297092812"><ele>149.0</ele><time>2026-05-01T16:10:28Z</time></trkpt><trkpt lat="41.55628803627204" lon="13.421830020673715"><ele>148.5</ele><time>2026-05-01T16:10:29Z</time></trkpt><trkpt lat="41.55621025327348" lon="13.422261644654515"><ele>148.0</ele><time>2026-05-01T16:10:30Z</time></trkpt><trkpt lat="41.55613404819977" lon="13.422693213979697"><ele>148.5</ele><time>2026-05-01T16:10:31Z</time></trkpt><trkpt lat="41.556058155881615" lon="13.423127750028842"><ele>149.0</ele><time>2026-05-01T16:10:32Z</time></trkpt><trkpt lat="41.555982510405364" lon="13.423559618546886"><ele>149.5</ele><time>2026-05-01T16:10:33Z</time></trkpt><trkpt lat="41.555906366266285" lon="13.423992574198488"><ele>150.0</ele><time>2026-05-01T16:10:34Z</time></trkpt><trkpt lat="41.55582933780127" lon="13.424426982790528"><ele>150.5</ele><time>2026-05-01T16:10:35Z</time></trkpt><trkpt lat="41.55575135520753" lon="13.424859460309735"><ele>151.0</ele><time>2026-05-01T16:10:36Z</time></trkpt><trkpt lat="41.55567412020783" lon="13.42529219012553"><ele>150.5</ele><time>2026-05-01T16:10:37Z</time></trkpt><trkpt lat="41.55559862180702" lon="13.425724729635915"><ele>150.0</ele><time>2026-05-01T16:10:38Z</time></trkpt><trkpt lat="41.555523525090564" lon="13.426158554656014"><ele>148.5</ele><time>2026-05-01T16:10:39Z</time></trkpt><trkpt lat="41.55544778126055" lon="13.426591164272555"><ele>147.0</ele><time>2026-05-01T16:10:40Z</time></trkpt><trkpt lat="41.55537176695681" lon="13.427022403774675"><ele>145.0</ele><time>2026-05-01T16:10:41Z</time></trkpt><trkpt lat="41.55529406172754" lon="13.427452742480543"><ele>143.0</ele><time>2026-05-01T16:10:42Z</time></trkpt><trkpt lat="41.55521512469762" lon="13.427882344691184"><ele>143.0</ele><time>2026-05-01T16:10:43Z</time></trkpt><trkpt lat="41.555137727839366" lon="13.428313880450293"><ele>143.0</ele><time>2026-05-01T16:10:44Z</time></trkpt><trkpt lat="41.55506238682272" lon="13.428744050703148"><ele>143.0</ele><time>2026-05-01T16:10:45Z</time></trkpt><trkpt lat="41.554989504212195" lon="13.429175699614776"><ele>143.0</ele><time>2026-05-01T16:10:46Z</time></trkpt><trkpt lat="41.55491683115748" lon="13.429607558921521"><ele>143.5</ele><time>2026-05-01T16:10:47Z</time></trkpt><trkpt lat="41.55484148517138" lon="13.430041593961867"><ele>144.0</ele><time>2026-05-01T16:10:48Z</time></trkpt><trkpt lat="41.55476470915994" lon="13.430474566769677"><ele>144.0</ele><time>2026-05-01T16:10:49Z</time></trkpt><trkpt lat="41.554688800961664" lon="13.430908465796039"><ele>144.0</ele><time>2026-05-01T16:10:50Z</time></trkpt><trkpt lat="41.55461257293264" lon="13.431343315349233"><ele>144.0</ele><time>2026-05-01T16:10:51Z</time></trkpt><trkpt lat="41.554535655571435" lon="13.431776740585432"><ele>144.0</ele><time>2026-05-01T16:10:52Z</time></trkpt><trkpt lat="41.554457490721674" lon="13.432208490729353"><ele>143.5</ele><time>2026-05-01T16:10:53Z</time></trkpt><trkpt lat="41.554379477928634" lon="13.432640625007668"><ele>143.0</ele><time>2026-05-01T16:10:54Z</time></trkpt><trkpt lat="41.55430466656656" lon="13.43307327591533"><ele>142.5</ele><time>2026-05-01T16:10:55Z</time></trkpt><trkpt lat="41.55423053442894" lon="13.433507468544082"><ele>142.0</ele><time>2026-05-01T16:10:56Z</time></trkpt><trkpt lat="41.554156773998145" lon="13.433941889673669"><ele>142.0</ele><time>2026-05-01T16:10:57Z</time></trkpt><trkpt lat="41.554086025134524" lon="13.434376150173968"><ele>142.0</ele><time>2026-05-01T16:10:58Z</time></trkpt><trkpt lat="41.55401621245469" lon="13.43481087567681"><ele>142.0</ele><time>2026-05-01T16:10:59Z</time></trkpt><trkpt lat="41.553944789353544" lon="13.435242967663143"><ele>142.0</ele><time>2026-05-01T16:11:00Z</time></trkpt><trkpt lat="41.55387085557196" lon="13.435674387045594"><ele>142.5</ele><time>2026-05-01T16:11:01Z</time></trkpt><trkpt lat="41.553795859839745" lon="13.436106613029981"><ele>143.0</ele><time>2026-05-01T16:11:02Z</time></trkpt><trkpt lat="41.553722513400785" lon="13.436537536715942"><ele>140.5</ele><time>2026-05-01T16:11:03Z</time></trkpt><trkpt lat="41.55364736747898" lon="13.436970098472267"><ele>138.0</ele><time>2026-05-01T16:11:04Z</time></trkpt><trkpt lat="41.5535717259466" lon="13.437403519963752"><ele>138.0</ele><time>2026-05-01T16:11:05Z</time></trkpt><trkpt lat="41.553494885133546" lon="13.437837963670276"><ele>138.0</ele><time>2026-05-01T16:11:06Z</time></trkpt><trkpt lat="41.55342130165416" lon="13.438248827452059"><ele>138.0</ele><time>2026-05-01T16:11:07Z</time></trkpt><trkpt lat="41.553346635857906" lon="13.438667039819359"><ele>138.0</ele><time>2026-05-01T16:11:08Z</time></trkpt><trkpt lat="41.55327145306898" lon="13.439093579737694"><ele>138.0</ele><time>2026-05-01T16:11:09Z</time></trkpt><trkpt lat="41.55319619421418" lon="13.43952142706738"><ele>138.0</ele><time>2026-05-01T16:11:10Z</time></trkpt><trkpt lat="41.5531201924421" lon="13.439950269635895"><ele>138.0</ele><time>2026-05-01T16:11:11Z</time></trkpt><trkpt lat="41.5530427014831" lon="13.440384485047971"><ele>138.0</ele><time>2026-05-01T16:11:12Z</time></trkpt><trkpt lat="41.55296381231119" lon="13.44082303302397"><ele>137.5</ele><time>2026-05-01T16:11:13Z</time></trkpt><trkpt lat="41.55288519091873" lon="13.441263251547573"><ele>137.0</ele><time>2026-05-01T16:11:14Z</time></trkpt><trkpt lat="41.552806666662136" lon="13.441703202903971"><ele>132.5</ele><time>2026-05-01T16:11:15Z</time></trkpt><trkpt lat="41.55272767928734" lon="13.442144853077872"><ele>128.0</ele><time>2026-05-01T16:11:16Z</time></trkpt><trkpt lat="41.55265180590731" lon="13.442584326546909"><ele>127.5</ele><time>2026-05-01T16:11:17Z</time></trkpt><trkpt lat="41.55257664324203" lon="13.443024117920105"><ele>127.0</ele><time>2026-05-01T16:11:18Z</time></trkpt><trkpt lat="41.55249983797129" lon="13.443461748488378"><ele>127.0</ele><time>2026-05-01T16:11:19Z</time></trkpt><trkpt lat="41.552422325718936" lon="13.443899096287108"><ele>127.0</ele><time>2026-05-01T16:11:20Z</time></trkpt><trkpt lat="41.55234488727147" lon="13.444337200643517"><ele>125.5</ele><time>2026-05-01T16:11:21Z</time></trkpt><trkpt lat="41.5522678414724" lon="13.444775303144672"><ele>124.0</ele><time>2026-05-01T16:11:22Z</time></trkpt><trkpt lat="41.55219072514531" lon="13.445213634582224"><ele>122.0</ele><time>2026-05-01T16:11:23Z</time></trkpt><trkpt lat="41.55211452648825" lon="13.445649372690204"><ele>120.0</ele><time>2026-05-01T16:11:24Z</time></trkpt><trkpt lat="41.55203829305219" lon="13.446086959196084"><ele>117.5</ele><time>2026-05-01T16:11:25Z</time></trkpt><trkpt lat="41.55196210728388" lon="13.446525943005902"><ele>115.0</ele><time>2026-05-01T16:11:26Z</time></trkpt><trkpt lat="41.55188461593942" lon="13.4469619368904"><ele>117.0</ele><time>2026-05-01T16:11:27Z</time></trkpt><trkpt lat="41.55180694828043" lon="13.447393397187884"><ele>119.0</ele><time>2026-05-01T16:11:27.999Z</time></trkpt><trkpt lat="41.55173013675796" lon="13.447826818817806"><ele>120.0</ele><time>2026-05-01T16:11:28.999Z</time></trkpt><trkpt lat="41.55165434387205" lon="13.448262807622866"><ele>121.0</ele><time>2026-05-01T16:11:29.999Z</time></trkpt><trkpt lat="41.55157893945775" lon="13.448697079990845"><ele>118.5</ele><time>2026-05-01T16:11:30.999Z</time></trkpt><trkpt lat="41.55150250892917" lon="13.449131025392672"><ele>116.0</ele><time>2026-05-01T16:11:31.999Z</time></trkpt><trkpt lat="41.551425777323786" lon="13.449562499206651"><ele>114.0</ele><time>2026-05-01T16:11:32.999Z</time></trkpt><trkpt lat="41.55134980675436" lon="13.449992896929734"><ele>112.0</ele><time>2026-05-01T16:11:33.999Z</time></trkpt><trkpt lat="41.551273320313435" lon="13.450423599062104"><ele>111.0</ele><time>2026-05-01T16:11:34.999Z</time></trkpt><trkpt lat="41.55119814694255" lon="13.450855709052986"><ele>110.0</ele><time>2026-05-01T16:11:35.999Z</time></trkpt><trkpt lat="41.55112224824496" lon="13.451288221389433"><ele>111.0</ele><time>2026-05-01T16:11:36.999Z</time></trkpt><trkpt lat="41.551045801619246" lon="13.451719875989902"><ele>112.0</ele><time>2026-05-01T16:11:37.999Z</time></trkpt><trkpt lat="41.550967266128545" lon="13.452150031660603"><ele>112.5</ele><time>2026-05-01T16:11:38.999Z</time></trkpt><trkpt lat="41.550890405423296" lon="13.45258299108964"><ele>113.0</ele><time>2026-05-01T16:11:39.999Z</time></trkpt><trkpt lat="41.550815144439966" lon="13.453015719776028"><ele>114.0</ele><time>2026-05-01T16:11:40.999Z</time></trkpt><trkpt lat="41.55073991100528" lon="13.453446880130732"><ele>115.0</ele><time>2026-05-01T16:11:41.999Z</time></trkpt><trkpt lat="41.550663830758786" lon="13.453879198387432"><ele>115.5</ele><time>2026-05-01T16:11:42.999Z</time></trkpt><trkpt lat="41.55058758878964" lon="13.454310590786374"><ele>116.0</ele><time>2026-05-01T16:11:43.999Z</time></trkpt><trkpt lat="41.550512096399665" lon="13.454741460373253"><ele>117.5</ele><time>2026-05-01T16:11:44.999Z</time></trkpt><trkpt lat="41.550436686711166" lon="13.455173133078526"><ele>119.0</ele><time>2026-05-01T16:11:46.001Z</time></trkpt><trkpt lat="41.550361635612575" lon="13.455606085792434"><ele>120.5</ele><time>2026-05-01T16:11:47.001Z</time></trkpt><trkpt lat="41.55028637711946" lon="13.456039659667168"><ele>122.0</ele><time>2026-05-01T16:11:48.001Z</time></trkpt><trkpt lat="41.55020865523951" lon="13.45647443827904"><ele>122.0</ele><time>2026-05-01T16:11:49.001Z</time></trkpt><trkpt lat="41.5501313069588" lon="13.456911067118366"><ele>122.0</ele><time>2026-05-01T16:11:50.001Z</time></trkpt><trkpt lat="41.55005333159161" lon="13.457348631433431"><ele>122.5</ele><time>2026-05-01T16:11:51.001Z</time></trkpt><trkpt lat="41.549975159275434" lon="13.45778866166379"><ele>123.0</ele><time>2026-05-01T16:11:52.001Z</time></trkpt><trkpt lat="41.54989615883877" lon="13.458226359743332"><ele>125.0</ele><time>2026-05-01T16:11:53.001Z</time></trkpt><trkpt lat="41.54981682983798" lon="13.45866461955767"><ele>127.0</ele><time>2026-05-01T16:11:54.001Z</time></trkpt><trkpt lat="41.54973637961118" lon="13.459101105292"><ele>127.5</ele><time>2026-05-01T16:11:55.001Z</time></trkpt><trkpt lat="41.54965703455334" lon="13.459537595626609"><ele>128.0</ele><time>2026-05-01T16:11:56.001Z</time></trkpt><trkpt lat="41.54957828613776" lon="13.45997277338068"><ele>128.0</ele><time>2026-05-01T16:11:57.001Z</time></trkpt><trkpt lat="41.54950005664748" lon="13.460408222235978"><ele>128.0</ele><time>2026-05-01T16:11:58.001Z</time></trkpt><trkpt lat="41.54942171273683" lon="13.460843326950506"><ele>128.0</ele><time>2026-05-01T16:11:59.001Z</time></trkpt><trkpt lat="41.54934187759149" lon="13.461279887492678"><ele>128.0</ele><time>2026-05-01T16:12:00.001Z</time></trkpt><trkpt lat="41.549262312821824" lon="13.461717742607636"><ele>128.0</ele><time>2026-05-01T16:12:01.001Z</time></trkpt><trkpt lat="41.549184361828544" lon="13.462153689843792"><ele>128.0</ele><time>2026-05-01T16:12:02.001Z</time></trkpt><trkpt lat="41.54910495582905" lon="13.462593967359616"><ele>128.0</ele><time>2026-05-01T16:12:03.001Z</time></trkpt><trkpt lat="41.54902745064566" lon="13.463032740815569"><ele>128.0</ele><time>2026-05-01T16:12:04.001Z</time></trkpt><trkpt lat="41.548948718568404" lon="13.463471006723418"><ele>126.5</ele><time>2026-05-01T16:12:05.001Z</time></trkpt><trkpt lat="41.54887087706497" lon="13.463908422545675"><ele>125.0</ele><time>2026-05-01T16:12:06.001Z</time></trkpt><trkpt lat="41.54879161754455" lon="13.464347828485653"><ele>125.5</ele><time>2026-05-01T16:12:07.001Z</time></trkpt><trkpt lat="41.54871077995023" lon="13.464785816030556"><ele>126.0</ele><time>2026-05-01T16:12:08Z</time></trkpt><trkpt lat="41.54863083651838" lon="13.465220992143395"><ele>123.5</ele><time>2026-05-01T16:12:09Z</time></trkpt><trkpt lat="41.548549811651895" lon="13.465654585891565"><ele>121.0</ele><time>2026-05-01T16:12:10Z</time></trkpt><trkpt lat="41.548470509297104" lon="13.466089100714962"><ele>119.5</ele><time>2026-05-01T16:12:11Z</time></trkpt><trkpt lat="41.54839359704882" lon="13.466523223076758"><ele>118.0</ele><time>2026-05-01T16:12:12Z</time></trkpt><trkpt lat="41.548319234565774" lon="13.466957757021087"><ele>117.0</ele><time>2026-05-01T16:12:13Z</time></trkpt><trkpt lat="41.548242827715406" lon="13.467392579851975"><ele>116.0</ele><time>2026-05-01T16:12:14Z</time></trkpt><trkpt lat="41.548166334322836" lon="13.467827006028498"><ele>115.5</ele><time>2026-05-01T16:12:15Z</time></trkpt><trkpt lat="41.548089916579336" lon="13.468262067043115"><ele>115.0</ele><time>2026-05-01T16:12:16Z</time></trkpt><trkpt lat="41.54801284065743" lon="13.468698296032663"><ele>115.0</ele><time>2026-05-01T16:12:17Z</time></trkpt><trkpt lat="41.54793727603406" lon="13.469132974506458"><ele>115.0</ele><time>2026-05-01T16:12:18Z</time></trkpt><trkpt lat="41.547862071160935" lon="13.46956629186642"><ele>116.0</ele><time>2026-05-01T16:12:19Z</time></trkpt><trkpt lat="41.54778496950434" lon="13.4700015319561"><ele>117.0</ele><time>2026-05-01T16:12:20Z</time></trkpt><trkpt lat="41.54770738017947" lon="13.47043624967185"><ele>121.0</ele><time>2026-05-01T16:12:21Z</time></trkpt><trkpt lat="41.54762893243351" lon="13.470871584072606"><ele>125.0</ele><time>2026-05-01T16:12:22Z</time></trkpt><trkpt lat="41.54755118743171" lon="13.471309307075504"><ele>126.0</ele><time>2026-05-01T16:12:23Z</time></trkpt><trkpt lat="41.54747419808923" lon="13.471745551875882"><ele>127.0</ele><time>2026-05-01T16:12:24Z</time></trkpt><trkpt lat="41.54739747999359" lon="13.472183906551036"><ele>127.5</ele><time>2026-05-01T16:12:25Z</time></trkpt><trkpt lat="41.54732182645358" lon="13.472620450545952"><ele>128.0</ele><time>2026-05-01T16:12:26Z</time></trkpt><trkpt lat="41.547245726743846" lon="13.473057677241384"><ele>128.0</ele><time>2026-05-01T16:12:27Z</time></trkpt><trkpt lat="41.54716807172847" lon="13.473496710083623"><ele>128.0</ele><time>2026-05-01T16:12:28Z</time></trkpt><trkpt lat="41.54709072812361" lon="13.47393476664406"><ele>128.0</ele><time>2026-05-01T16:12:29Z</time></trkpt><trkpt lat="41.5470137593878" lon="13.474374721672536"><ele>128.0</ele><time>2026-05-01T16:12:30Z</time></trkpt><trkpt lat="41.54693667581538" lon="13.47481155948248"><ele>127.0</ele><time>2026-05-01T16:12:31Z</time></trkpt><trkpt lat="41.54685997065942" lon="13.475248321220786"><ele>126.0</ele><time>2026-05-01T16:12:32Z</time></trkpt><trkpt lat="41.546781684005396" lon="13.47568527329565"><ele>125.5</ele><time>2026-05-01T16:12:33Z</time></trkpt><trkpt lat="41.54670327044067" lon="13.476122722353683"><ele>125.0</ele><time>2026-05-01T16:12:34Z</time></trkpt><trkpt lat="41.54662613856276" lon="13.476559079550961"><ele>123.5</ele><time>2026-05-01T16:12:35Z</time></trkpt><trkpt lat="41.546549881235784" lon="13.476993022150914"><ele>122.0</ele><time>2026-05-01T16:12:36Z</time></trkpt><trkpt lat="41.54647402913736" lon="13.477426809167088"><ele>120.5</ele><time>2026-05-01T16:12:37Z</time></trkpt><trkpt lat="41.54639833250477" lon="13.477860005570077"><ele>119.0</ele><time>2026-05-01T16:12:38Z</time></trkpt><trkpt lat="41.546322781706316" lon="13.478294974902113"><ele>118.0</ele><time>2026-05-01T16:12:39Z</time></trkpt><trkpt lat="41.54624577422972" lon="13.478730326690425"><ele>117.0</ele><time>2026-05-01T16:12:40Z</time></trkpt><trkpt lat="41.546167988583555" lon="13.479167143818723"><ele>115.5</ele><time>2026-05-01T16:12:41Z</time></trkpt><trkpt lat="41.54609096019907" lon="13.479603870088772"><ele>114.0</ele><time>2026-05-01T16:12:42Z</time></trkpt><trkpt lat="41.54601486857316" lon="13.480038467666368"><ele>113.5</ele><time>2026-05-01T16:12:43Z</time></trkpt><trkpt lat="41.54593836553624" lon="13.480474302502737"><ele>113.0</ele><time>2026-05-01T16:12:44Z</time></trkpt><trkpt lat="41.54586225963566" lon="13.480908978933938"><ele>112.0</ele><time>2026-05-01T16:12:45Z</time></trkpt><trkpt lat="41.54578679921543" lon="13.481342862378934"><ele>111.0</ele><time>2026-05-01T16:12:46Z</time></trkpt><trkpt lat="41.54571203115707" lon="13.481778570832681"><ele>111.0</ele><time>2026-05-01T16:12:47Z</time></trkpt><trkpt lat="41.5456382851235" lon="13.48221214626349"><ele>111.0</ele><time>2026-05-01T16:12:48Z</time></trkpt><trkpt lat="41.545563046627976" lon="13.482646197887465"><ele>112.0</ele><time>2026-05-01T16:12:49Z</time></trkpt><trkpt lat="41.54548653712674" lon="13.483078772828934"><ele>113.0</ele><time>2026-05-01T16:12:50Z</time></trkpt><trkpt lat="41.54540941310069" lon="13.483508735954816"><ele>113.5</ele><time>2026-05-01T16:12:51Z</time></trkpt><trkpt lat="41.54533037875495" lon="13.483937463568878"><ele>114.0</ele><time>2026-05-01T16:12:52Z</time></trkpt><trkpt lat="41.54525387413358" lon="13.484368570783136"><ele>114.5</ele><time>2026-05-01T16:12:53Z</time></trkpt><trkpt lat="41.54517881472273" lon="13.484798885670573"><ele>115.0</ele><time>2026-05-01T16:12:54Z</time></trkpt><trkpt lat="41.54510079685594" lon="13.48522953220311"><ele>115.5</ele><time>2026-05-01T16:12:55Z</time></trkpt><trkpt lat="41.54502758746234" lon="13.485655068082483"><ele>116.0</ele><time>2026-05-01T16:12:56Z</time></trkpt><trkpt lat="41.544956599922344" lon="13.486072860369184"><ele>117.5</ele><time>2026-05-01T16:12:57Z</time></trkpt><trkpt lat="41.544883116256365" lon="13.486490057879276"><ele>119.0</ele><time>2026-05-01T16:12:58Z</time></trkpt><trkpt lat="41.54480891201376" lon="13.486903788817601"><ele>119.5</ele><time>2026-05-01T16:12:59Z</time></trkpt><trkpt lat="41.54473583902945" lon="13.487314927426674"><ele>120.0</ele><time>2026-05-01T16:13:00Z</time></trkpt><trkpt lat="41.54466419866075" lon="13.487720185301264"><ele>120.0</ele><time>2026-05-01T16:13:01Z</time></trkpt><trkpt lat="41.54459284716686" lon="13.488126284887006"><ele>120.0</ele><time>2026-05-01T16:13:02Z</time></trkpt><trkpt lat="41.54452971662533" lon="13.48854070880079"><ele>120.0</ele><time>2026-05-01T16:13:03Z</time></trkpt><trkpt lat="41.54446488441175" lon="13.48896234323018"><ele>120.0</ele><time>2026-05-01T16:13:04Z</time></trkpt><trkpt lat="41.54439373267031" lon="13.489385905987557"><ele>121.5</ele><time>2026-05-01T16:13:05Z</time></trkpt><trkpt lat="41.54431681275616" lon="13.48980889518069"><ele>123.0</ele><time>2026-05-01T16:13:06Z</time></trkpt><trkpt lat="41.54424343366238" lon="13.490236621890057"><ele>123.5</ele><time>2026-05-01T16:13:07Z</time></trkpt><trkpt lat="41.54416935754926" lon="13.490668188192396"><ele>124.0</ele><time>2026-05-01T16:13:08Z</time></trkpt><trkpt lat="41.54409780138292" lon="13.491099847080577"><ele>125.5</ele><time>2026-05-01T16:13:09Z</time></trkpt><trkpt lat="41.54402390797079" lon="13.491530866335177"><ele>127.0</ele><time>2026-05-01T16:13:10Z</time></trkpt><trkpt lat="41.54394895549869" lon="13.49196416900989"><ele>126.5</ele><time>2026-05-01T16:13:11Z</time></trkpt><trkpt lat="41.54387307722859" lon="13.492398304269672"><ele>126.0</ele><time>2026-05-01T16:13:12Z</time></trkpt><trkpt lat="41.54379602988796" lon="13.492834595168848"><ele>126.5</ele><time>2026-05-01T16:13:13Z</time></trkpt><trkpt lat="41.543716823570605" lon="13.493271952514739"><ele>127.0</ele><time>2026-05-01T16:13:14Z</time></trkpt><trkpt lat="41.5436411610865" lon="13.493708987234248"><ele>126.0</ele><time>2026-05-01T16:13:15Z</time></trkpt><trkpt lat="41.54356405397266" lon="13.494145950620009"><ele>125.0</ele><time>2026-05-01T16:13:16Z</time></trkpt><trkpt lat="41.54348768271822" lon="13.494582986003694"><ele>124.5</ele><time>2026-05-01T16:13:17Z</time></trkpt><trkpt lat="41.54341031774908" lon="13.495018470771818"><ele>124.0</ele><time>2026-05-01T16:13:18Z</time></trkpt><trkpt lat="41.543332053579064" lon="13.495450632500932"><ele>124.0</ele><time>2026-05-01T16:13:19Z</time></trkpt><trkpt lat="41.543259190399176" lon="13.495884270242714"><ele>124.0</ele><time>2026-05-01T16:13:20Z</time></trkpt><trkpt lat="41.54318569847269" lon="13.496318460083462"><ele>123.0</ele><time>2026-05-01T16:13:21Z</time></trkpt><trkpt lat="41.54311225715543" lon="13.496755327176214"><ele>122.0</ele><time>2026-05-01T16:13:22Z</time></trkpt><trkpt lat="41.543045556158056" lon="13.497193198514328"><ele>122.0</ele><time>2026-05-01T16:13:23Z</time></trkpt><trkpt lat="41.542981486685335" lon="13.497632991772498"><ele>122.0</ele><time>2026-05-01T16:13:24Z</time></trkpt><trkpt lat="41.54292777788479" lon="13.498072575924565"><ele>120.5</ele><time>2026-05-01T16:13:25Z</time></trkpt><trkpt lat="41.542875467010575" lon="13.498513955802915"><ele>119.0</ele><time>2026-05-01T16:13:26Z</time></trkpt><trkpt lat="41.54282779728443" lon="13.498955618909216"><ele>119.0</ele><time>2026-05-01T16:13:27Z</time></trkpt><trkpt lat="41.54278352032645" lon="13.499396592103475"><ele>119.0</ele><time>2026-05-01T16:13:28Z</time></trkpt><trkpt lat="41.542744270721315" lon="13.499839151296365"><ele>119.5</ele><time>2026-05-01T16:13:29Z</time></trkpt><trkpt lat="41.542707983401826" lon="13.500282098201701"><ele>120.0</ele><time>2026-05-01T16:13:30Z</time></trkpt><trkpt lat="41.5426759850419" lon="13.50072585859106"><ele>120.0</ele><time>2026-05-01T16:13:31Z</time></trkpt><trkpt lat="41.542645698784725" lon="13.501168268442733"><ele>120.0</ele><time>2026-05-01T16:13:31.999Z</time></trkpt><trkpt lat="41.54262083381217" lon="13.50161176743869"><ele>119.5</ele><time>2026-05-01T16:13:32.999Z</time></trkpt><trkpt lat="41.54259999020916" lon="13.50205701255408"><ele>119.0</ele><time>2026-05-01T16:13:33.999Z</time></trkpt><trkpt lat="41.54258399202529" lon="13.502503110238365"><ele>118.5</ele><time>2026-05-01T16:13:34.999Z</time></trkpt><trkpt lat="41.5425764214392" lon="13.502948835439666"><ele>118.0</ele><time>2026-05-01T16:13:35.999Z</time></trkpt><trkpt lat="41.542569907912416" lon="13.503393991241271"><ele>116.5</ele><time>2026-05-01T16:13:36.999Z</time></trkpt><trkpt lat="41.542567401407" lon="13.503840377379094"><ele>115.0</ele><time>2026-05-01T16:13:37.999Z</time></trkpt><trkpt lat="41.54257171058164" lon="13.504287335362108"><ele>113.5</ele><time>2026-05-01T16:13:38.999Z</time></trkpt><trkpt lat="41.54257631975341" lon="13.504735134085154"><ele>112.0</ele><time>2026-05-01T16:13:39.999Z</time></trkpt><trkpt lat="41.542584308240066" lon="13.505181546245256"><ele>111.5</ele><time>2026-05-01T16:13:40.999Z</time></trkpt><trkpt lat="41.54259515508133" lon="13.505627407187303"><ele>111.0</ele><time>2026-05-01T16:13:41.999Z</time></trkpt><trkpt lat="41.54260398472681" lon="13.50607283855364"><ele>110.0</ele><time>2026-05-01T16:13:42.999Z</time></trkpt><trkpt lat="41.54261589809254" lon="13.506519227521466"><ele>109.0</ele><time>2026-05-01T16:13:43.999Z</time></trkpt><trkpt lat="41.542627228421175" lon="13.506964938144566"><ele>108.5</ele><time>2026-05-01T16:13:44.999Z</time></trkpt><trkpt lat="41.54263719348879" lon="13.507409833097766"><ele>108.0</ele><time>2026-05-01T16:13:45.999Z</time></trkpt><trkpt lat="41.54264918227665" lon="13.507854671273966"><ele>107.5</ele><time>2026-05-01T16:13:46.999Z</time></trkpt><trkpt lat="41.542661677955614" lon="13.508300990405171"><ele>107.0</ele><time>2026-05-01T16:13:47.999Z</time></trkpt><trkpt lat="41.54267385436078" lon="13.508746505840142"><ele>107.0</ele><time>2026-05-01T16:13:48.999Z</time></trkpt><trkpt lat="41.54268705967012" lon="13.509191515206782"><ele>107.0</ele><time>2026-05-01T16:13:49.999Z</time></trkpt><trkpt lat="41.54270016508502" lon="13.50963835031197"><ele>106.5</ele><time>2026-05-01T16:13:50.999Z</time></trkpt><trkpt lat="41.54271821187572" lon="13.510080834579083"><ele>106.0</ele><time>2026-05-01T16:13:52.001Z</time></trkpt><trkpt lat="41.54273374812183" lon="13.510523454375027"><ele>105.5</ele><time>2026-05-01T16:13:53.001Z</time></trkpt><trkpt lat="41.54275346109638" lon="13.510968437305342"><ele>105.0</ele><time>2026-05-01T16:13:54.001Z</time></trkpt><trkpt lat="41.542769711418075" lon="13.511413095796609"><ele>103.5</ele><time>2026-05-01T16:13:55.001Z</time></trkpt><trkpt lat="41.542784481779904" lon="13.511857570878307"><ele>102.0</ele><time>2026-05-01T16:13:56.001Z</time></trkpt><trkpt lat="41.54279832257006" lon="13.512302178572082"><ele>99.5</ele><time>2026-05-01T16:13:57.001Z</time></trkpt><trkpt lat="41.54280826430794" lon="13.512747418279947"><ele>97.0</ele><time>2026-05-01T16:13:58.001Z</time></trkpt><trkpt lat="41.542822440012394" lon="13.513189558931517"><ele>95.0</ele><time>2026-05-01T16:13:59.001Z</time></trkpt><trkpt lat="41.5428356649244" lon="13.513633314375783"><ele>93.0</ele><time>2026-05-01T16:14:00.001Z</time></trkpt><trkpt lat="41.542850765597755" lon="13.514074504406684"><ele>93.0</ele><time>2026-05-01T16:14:01.001Z</time></trkpt><trkpt lat="41.542864872912034" lon="13.514517532375956"><ele>93.0</ele><time>2026-05-01T16:14:02.001Z</time></trkpt><trkpt lat="41.54287859765608" lon="13.514960199014798"><ele>94.0</ele><time>2026-05-01T16:14:03.001Z</time></trkpt><trkpt lat="41.542885806467034" lon="13.515402491078495"><ele>95.0</ele><time>2026-05-01T16:14:04.001Z</time></trkpt><trkpt lat="41.54289744244357" lon="13.515845331248578"><ele>93.5</ele><time>2026-05-01T16:14:05.001Z</time></trkpt><trkpt lat="41.54291153366167" lon="13.51628726565945"><ele>92.0</ele><time>2026-05-01T16:14:06.001Z</time></trkpt><trkpt lat="41.54292498739629" lon="13.516727692108475"><ele>90.5</ele><time>2026-05-01T16:14:07.001Z</time></trkpt><trkpt lat="41.542939970642266" lon="13.517168794671166"><ele>89.0</ele><time>2026-05-01T16:14:08.001Z</time></trkpt><trkpt lat="41.542955727775315" lon="13.517609887301909"><ele>89.0</ele><time>2026-05-01T16:14:09Z</time></trkpt><trkpt lat="41.54296547275024" lon="13.518049952230506"><ele>89.0</ele><time>2026-05-01T16:14:10Z</time></trkpt><trkpt lat="41.54297716275805" lon="13.518490793878954"><ele>91.0</ele><time>2026-05-01T16:14:11Z</time></trkpt><trkpt lat="41.54299033663762" lon="13.518930890041966"><ele>93.0</ele><time>2026-05-01T16:14:12Z</time></trkpt><trkpt lat="41.54300365093912" lon="13.519369942712283"><ele>94.0</ele><time>2026-05-01T16:14:13Z</time></trkpt><trkpt lat="41.54301474641349" lon="13.519812212772894"><ele>95.0</ele><time>2026-05-01T16:14:14Z</time></trkpt><trkpt lat="41.54302927110237" lon="13.520256038560692"><ele>95.0</ele><time>2026-05-01T16:14:15Z</time></trkpt><trkpt lat="41.5430428442959" lon="13.520697713604752"><ele>95.0</ele><time>2026-05-01T16:14:16Z</time></trkpt><trkpt lat="41.54305579716579" lon="13.52113918815786"><ele>96.0</ele><time>2026-05-01T16:14:17Z</time></trkpt><trkpt lat="41.5430695446467" lon="13.521581271107305"><ele>97.0</ele><time>2026-05-01T16:14:18Z</time></trkpt><trkpt lat="41.54308292476784" lon="13.522022987526595"><ele>97.5</ele><time>2026-05-01T16:14:19Z</time></trkpt><trkpt lat="41.543096897075095" lon="13.522463016518884"><ele>98.0</ele><time>2026-05-01T16:14:20Z</time></trkpt><trkpt lat="41.543113880245926" lon="13.522902621000275"><ele>98.5</ele><time>2026-05-01T16:14:21Z</time></trkpt><trkpt lat="41.54313019515858" lon="13.523339174490053"><ele>99.0</ele><time>2026-05-01T16:14:22Z</time></trkpt><trkpt lat="41.54314365469173" lon="13.523775033742268"><ele>100.0</ele><time>2026-05-01T16:14:23Z</time></trkpt><trkpt lat="41.54316316163967" lon="13.524210965968768"><ele>101.0</ele><time>2026-05-01T16:14:24Z</time></trkpt><trkpt lat="41.543179939462476" lon="13.524648985300294"><ele>102.0</ele><time>2026-05-01T16:14:25Z</time></trkpt><trkpt lat="41.543197521263316" lon="13.525085986337336"><ele>103.0</ele><time>2026-05-01T16:14:26Z</time></trkpt><trkpt lat="41.54321335868635" lon="13.525523100601077"><ele>104.5</ele><time>2026-05-01T16:14:27Z</time></trkpt><trkpt lat="41.54323151000372" lon="13.52596085954438"><ele>106.0</ele><time>2026-05-01T16:14:28Z</time></trkpt><trkpt lat="41.54324779861786" lon="13.52640074445268"><ele>107.5</ele><time>2026-05-01T16:14:29Z</time></trkpt><trkpt lat="41.54326246319664" lon="13.526842101760268"><ele>109.0</ele><time>2026-05-01T16:14:30Z</time></trkpt><trkpt lat="41.543274808469484" lon="13.527283877071417"><ele>110.0</ele><time>2026-05-01T16:14:31Z</time></trkpt><trkpt lat="41.543289321557616" lon="13.527726985309897"><ele>111.0</ele><time>2026-05-01T16:14:32Z</time></trkpt><trkpt lat="41.543305906008065" lon="13.52817062005587"><ele>111.5</ele><time>2026-05-01T16:14:33Z</time></trkpt><trkpt lat="41.54331910606458" lon="13.528616262709374"><ele>112.0</ele><time>2026-05-01T16:14:34Z</time></trkpt><trkpt lat="41.54333584588643" lon="13.529061773847094"><ele>113.0</ele><time>2026-05-01T16:14:35Z</time></trkpt><trkpt lat="41.543347296221285" lon="13.529507497118715"><ele>114.0</ele><time>2026-05-01T16:14:36Z</time></trkpt><trkpt lat="41.54336195322172" lon="13.529952688887672"><ele>119.0</ele><time>2026-05-01T16:14:37Z</time></trkpt><trkpt lat="41.543373809179926" lon="13.530399305819225"><ele>124.0</ele><time>2026-05-01T16:14:38Z</time></trkpt><trkpt lat="41.54338729713222" lon="13.53084472222503"><ele>127.5</ele><time>2026-05-01T16:14:39Z</time></trkpt><trkpt lat="41.543404200956886" lon="13.531292038651207"><ele>131.0</ele><time>2026-05-01T16:14:40Z</time></trkpt><trkpt lat="41.543414078635315" lon="13.531739981291116"><ele>132.5</ele><time>2026-05-01T16:14:41Z</time></trkpt><trkpt lat="41.54342628403403" lon="13.532186666300133"><ele>134.0</ele><time>2026-05-01T16:14:42Z</time></trkpt><trkpt lat="41.543439128544144" lon="13.532637148953308"><ele>133.0</ele><time>2026-05-01T16:14:43Z</time></trkpt><trkpt lat="41.54345280575592" lon="13.533086016861178"><ele>132.0</ele><time>2026-05-01T16:14:44Z</time></trkpt><trkpt lat="41.54346808714314" lon="13.533533602200317"><ele>130.5</ele><time>2026-05-01T16:14:45Z</time></trkpt><trkpt lat="41.54348108844221" lon="13.533981024523944"><ele>129.0</ele><time>2026-05-01T16:14:46Z</time></trkpt><trkpt lat="41.54349499914888" lon="13.53442927971077"><ele>128.0</ele><time>2026-05-01T16:14:47Z</time></trkpt><trkpt lat="41.54350914272659" lon="13.53487636385357"><ele>127.0</ele><time>2026-05-01T16:14:48Z</time></trkpt><trkpt lat="41.5435221435135" lon="13.535323805981298"><ele>126.5</ele><time>2026-05-01T16:14:49Z</time></trkpt><trkpt lat="41.54353164846608" lon="13.535771966942276"><ele>126.0</ele><time>2026-05-01T16:14:50Z</time></trkpt><trkpt lat="41.54354283103637" lon="13.53621921728573"><ele>126.0</ele><time>2026-05-01T16:14:51Z</time></trkpt><trkpt lat="41.543554900063484" lon="13.536668198147135"><ele>126.0</ele><time>2026-05-01T16:14:52Z</time></trkpt><trkpt lat="41.54356595498008" lon="13.537116808077432"><ele>126.0</ele><time>2026-05-01T16:14:53Z</time></trkpt><trkpt lat="41.54357639404361" lon="13.537565709300761"><ele>126.0</ele><time>2026-05-01T16:14:54Z</time></trkpt><trkpt lat="41.54358884490182" lon="13.538012376801088"><ele>124.5</ele><time>2026-05-01T16:14:55Z</time></trkpt><trkpt lat="41.54360058399274" lon="13.538459667299717"><ele>123.0</ele><time>2026-05-01T16:14:56Z</time></trkpt><trkpt lat="41.54361410966618" lon="13.538907833889644"><ele>123.0</ele><time>2026-05-01T16:14:57Z</time></trkpt><trkpt lat="41.54362511983649" lon="13.539355002765657"><ele>123.0</ele><time>2026-05-01T16:14:58Z</time></trkpt><trkpt lat="41.54363689413115" lon="13.539801647201283"><ele>123.0</ele><time>2026-05-01T16:14:59Z</time></trkpt><trkpt lat="41.54364962098309" lon="13.540247901920354"><ele>123.0</ele><time>2026-05-01T16:15:00Z</time></trkpt><trkpt lat="41.54366234974858" lon="13.54069389346761"><ele>124.5</ele><time>2026-05-01T16:15:01Z</time></trkpt><trkpt lat="41.54367621755372" lon="13.541137160008928"><ele>126.0</ele><time>2026-05-01T16:15:02Z</time></trkpt><trkpt lat="41.54368837638836" lon="13.5415794827402"><ele>126.5</ele><time>2026-05-01T16:15:03Z</time></trkpt><trkpt lat="41.543701314669796" lon="13.542021127140295"><ele>127.0</ele><time>2026-05-01T16:15:04Z</time></trkpt><trkpt lat="41.5437126728683" lon="13.542462253769221"><ele>119.0</ele><time>2026-05-01T16:15:05Z</time></trkpt><trkpt lat="41.54372624844863" lon="13.542901844227384"><ele>111.0</ele><time>2026-05-01T16:15:06Z</time></trkpt><trkpt lat="41.54373832023489" lon="13.543342939655062"><ele>111.5</ele><time>2026-05-01T16:15:07Z</time></trkpt><trkpt lat="41.543750974589074" lon="13.54378196006785"><ele>112.0</ele><time>2026-05-01T16:15:08Z</time></trkpt><trkpt lat="41.54376613250309" lon="13.544220072772504"><ele>114.5</ele><time>2026-05-01T16:15:09Z</time></trkpt><trkpt lat="41.54378077632695" lon="13.5446597502048"><ele>117.0</ele><time>2026-05-01T16:15:10Z</time></trkpt><trkpt lat="41.543795105404364" lon="13.545098349614227"><ele>119.5</ele><time>2026-05-01T16:15:11Z</time></trkpt><trkpt lat="41.543808376154146" lon="13.545535434355958"><ele>122.0</ele><time>2026-05-01T16:15:12Z</time></trkpt><trkpt lat="41.543820681034326" lon="13.54597329215405"><ele>123.5</ele><time>2026-05-01T16:15:13Z</time></trkpt><trkpt lat="41.54383386019545" lon="13.54641420486137"><ele>125.0</ele><time>2026-05-01T16:15:14Z</time></trkpt><trkpt lat="41.54384474007236" lon="13.546856247829846"><ele>125.5</ele><time>2026-05-01T16:15:15Z</time></trkpt><trkpt lat="41.54385749072359" lon="13.547295941044256"><ele>126.0</ele><time>2026-05-01T16:15:16Z</time></trkpt><trkpt lat="41.54387105487704" lon="13.54773548360258"><ele>128.0</ele><time>2026-05-01T16:15:17Z</time></trkpt><trkpt lat="41.54388640010401" lon="13.548175110085912"><ele>130.0</ele><time>2026-05-01T16:15:18Z</time></trkpt><trkpt lat="41.54389938507542" lon="13.548616531442866"><ele>131.0</ele><time>2026-05-01T16:15:19Z</time></trkpt><trkpt lat="41.54391491091004" lon="13.549058693366163"><ele>132.0</ele><time>2026-05-01T16:15:20Z</time></trkpt><trkpt lat="41.54392611158456" lon="13.549501763445747"><ele>132.0</ele><time>2026-05-01T16:15:21Z</time></trkpt><trkpt lat="41.543939038032875" lon="13.549946379661286"><ele>132.0</ele><time>2026-05-01T16:15:22Z</time></trkpt><trkpt lat="41.54395182564738" lon="13.550389957775254"><ele>132.0</ele><time>2026-05-01T16:15:23Z</time></trkpt><trkpt lat="41.54396379046452" lon="13.55083438813457"><ele>132.0</ele><time>2026-05-01T16:15:24Z</time></trkpt><trkpt lat="41.54397797151086" lon="13.55127900666245"><ele>132.0</ele><time>2026-05-01T16:15:25Z</time></trkpt><trkpt lat="41.54399155758709" lon="13.551725491654068"><ele>132.0</ele><time>2026-05-01T16:15:26Z</time></trkpt><trkpt lat="41.54400725640024" lon="13.55216990237271"><ele>132.0</ele><time>2026-05-01T16:15:27Z</time></trkpt><trkpt lat="41.54402066393471" lon="13.552615272532623"><ele>132.0</ele><time>2026-05-01T16:15:28Z</time></trkpt><trkpt lat="41.54403624554871" lon="13.553061625473998"><ele>132.0</ele><time>2026-05-01T16:15:29Z</time></trkpt><trkpt lat="41.544049377057604" lon="13.553509063824247"><ele>132.0</ele><time>2026-05-01T16:15:30Z</time></trkpt><trkpt lat="41.544063579981135" lon="13.55395564055442"><ele>132.0</ele><time>2026-05-01T16:15:31Z</time></trkpt><trkpt lat="41.54407884459975" lon="13.554400522613742"><ele>132.0</ele><time>2026-05-01T16:15:32Z</time></trkpt><trkpt lat="41.544091726273074" lon="13.554845088311431"><ele>132.5</ele><time>2026-05-01T16:15:33Z</time></trkpt><trkpt lat="41.54410990318924" lon="13.555291464483604"><ele>133.0</ele><time>2026-05-01T16:15:33.999Z</time></trkpt><trkpt lat="41.544123366195684" lon="13.555735456033803"><ele>133.5</ele><time>2026-05-01T16:15:34.999Z</time></trkpt><trkpt lat="41.544136449727716" lon="13.556181272758598"><ele>134.0</ele><time>2026-05-01T16:15:35.999Z</time></trkpt><trkpt lat="41.54414572550323" lon="13.556627542477417"><ele>132.0</ele><time>2026-05-01T16:15:36.999Z</time></trkpt><trkpt lat="41.54414579028878" lon="13.557071128876867"><ele>130.0</ele><time>2026-05-01T16:15:37.999Z</time></trkpt><trkpt lat="41.544146801239116" lon="13.557515331605979"><ele>130.5</ele><time>2026-05-01T16:15:38.999Z</time></trkpt><trkpt lat="41.54414503520209" lon="13.557960199525818"><ele>131.0</ele><time>2026-05-01T16:15:39.999Z</time></trkpt><trkpt lat="41.54413823101495" lon="13.558406836166574"><ele>132.0</ele><time>2026-05-01T16:15:40.999Z</time></trkpt><trkpt lat="41.54412921429393" lon="13.558851851757712"><ele>133.0</ele><time>2026-05-01T16:15:41.999Z</time></trkpt><trkpt lat="41.5441173374837" lon="13.559295689568355"><ele>134.5</ele><time>2026-05-01T16:15:42.999Z</time></trkpt><trkpt lat="41.544104719270294" lon="13.559739697486531"><ele>136.0</ele><time>2026-05-01T16:15:43.999Z</time></trkpt><trkpt lat="41.54408825912498" lon="13.56018320363403"><ele>136.0</ele><time>2026-05-01T16:15:44.999Z</time></trkpt><trkpt lat="41.54406877781968" lon="13.56062669266524"><ele>136.0</ele><time>2026-05-01T16:15:45.999Z</time></trkpt><trkpt lat="41.54404875769279" lon="13.561070489541521"><ele>136.0</ele><time>2026-05-01T16:15:46.999Z</time></trkpt><trkpt lat="41.544021238810316" lon="13.561516037731915"><ele>136.0</ele><time>2026-05-01T16:15:47.999Z</time></trkpt><trkpt lat="41.54399323710998" lon="13.561960617404598"><ele>136.5</ele><time>2026-05-01T16:15:48.999Z</time></trkpt><trkpt lat="41.543959405277526" lon="13.562405847136635"><ele>137.0</ele><time>2026-05-01T16:15:49.999Z</time></trkpt><trkpt lat="41.543927739058915" lon="13.56285046808684"><ele>136.5</ele><time>2026-05-01T16:15:50.999Z</time></trkpt><trkpt lat="41.543894413258286" lon="13.56329257150107"><ele>136.0</ele><time>2026-05-01T16:15:51.999Z</time></trkpt><trkpt lat="41.543860142805414" lon="13.563737561743364"><ele>136.0</ele><time>2026-05-01T16:15:52.999Z</time></trkpt><trkpt lat="41.5438249507046" lon="13.564182122201423"><ele>136.0</ele><time>2026-05-01T16:15:53.999Z</time></trkpt><trkpt lat="41.5437880480938" lon="13.564625890813737"><ele>136.5</ele><time>2026-05-01T16:15:54.999Z</time></trkpt><trkpt lat="41.543745259029905" lon="13.565068940103616"><ele>137.0</ele><time>2026-05-01T16:15:55.999Z</time></trkpt><trkpt lat="41.543703243835616" lon="13.565512262352662"><ele>135.5</ele><time>2026-05-01T16:15:57Z</time></trkpt><trkpt lat="41.54365644798803" lon="13.565955059674565"><ele>134.0</ele><time>2026-05-01T16:15:58Z</time></trkpt><trkpt lat="41.54360619665635" lon="13.566397144206611"><ele>132.5</ele><time>2026-05-01T16:15:59Z</time></trkpt><trkpt lat="41.543554053236505" lon="13.566838200205023"><ele>131.0</ele><time>2026-05-01T16:16:00Z</time></trkpt><trkpt lat="41.5435010213849" lon="13.567277981043414"><ele>130.5</ele><time>2026-05-01T16:16:01Z</time></trkpt><trkpt lat="41.543446521830006" lon="13.567716906393908"><ele>130.0</ele><time>2026-05-01T16:16:02Z</time></trkpt><trkpt lat="41.543388820377146" lon="13.568156483374636"><ele>129.0</ele><time>2026-05-01T16:16:03Z</time></trkpt><trkpt lat="41.54332836806813" lon="13.568593238098247"><ele>128.0</ele><time>2026-05-01T16:16:04Z</time></trkpt><trkpt lat="41.54326462226442" lon="13.569028680505097"><ele>127.5</ele><time>2026-05-01T16:16:05Z</time></trkpt><trkpt lat="41.543198170914536" lon="13.569465155280584"><ele>127.0</ele><time>2026-05-01T16:16:06Z</time></trkpt><trkpt lat="41.54312829260467" lon="13.569901115689433"><ele>127.0</ele><time>2026-05-01T16:16:07Z</time></trkpt><trkpt lat="41.54305477484107" lon="13.570336414960375"><ele>127.0</ele><time>2026-05-01T16:16:08Z</time></trkpt><trkpt lat="41.5429801033969" lon="13.570771249199783"><ele>124.0</ele><time>2026-05-01T16:16:09Z</time></trkpt><trkpt lat="41.54290294524134" lon="13.571207166413947"><ele>121.0</ele><time>2026-05-01T16:16:10Z</time></trkpt><trkpt lat="41.54282598206787" lon="13.57164141260936"><ele>118.5</ele><time>2026-05-01T16:16:11Z</time></trkpt><trkpt lat="41.54274738317148" lon="13.572075028612293"><ele>116.0</ele><time>2026-05-01T16:16:12Z</time></trkpt><trkpt lat="41.54266930069864" lon="13.572507174814898"><ele>117.0</ele><time>2026-05-01T16:16:13Z</time></trkpt><trkpt lat="41.54258837323348" lon="13.572937689386656"><ele>118.0</ele><time>2026-05-01T16:16:14Z</time></trkpt><trkpt lat="41.54250692345173" lon="13.573368400240136"><ele>115.5</ele><time>2026-05-01T16:16:15Z</time></trkpt><trkpt lat="41.542422037816394" lon="13.573799009363164"><ele>113.0</ele><time>2026-05-01T16:16:16Z</time></trkpt><trkpt lat="41.54233463127756" lon="13.574228196024054"><ele>109.0</ele><time>2026-05-01T16:16:17Z</time></trkpt><trkpt lat="41.54224466478064" lon="13.574654481033006"><ele>105.0</ele><time>2026-05-01T16:16:18Z</time></trkpt><trkpt lat="41.542148631317815" lon="13.575080132096897"><ele>104.5</ele><time>2026-05-01T16:16:19Z</time></trkpt><trkpt lat="41.54204908777202" lon="13.57550369893811"><ele>104.0</ele><time>2026-05-01T16:16:20Z</time></trkpt><trkpt lat="41.541947723393655" lon="13.575927311858269"><ele>104.5</ele><time>2026-05-01T16:16:21Z</time></trkpt><trkpt lat="41.541844673634905" lon="13.576349481510722"><ele>105.0</ele><time>2026-05-01T16:16:22Z</time></trkpt><trkpt lat="41.54173867946563" lon="13.576771020010122"><ele>107.5</ele><time>2026-05-01T16:16:23Z</time></trkpt><trkpt lat="41.54162934385862" lon="13.57719024937482"><ele>110.0</ele><time>2026-05-01T16:16:24Z</time></trkpt><trkpt lat="41.54151692921146" lon="13.57760818212086"><ele>107.5</ele><time>2026-05-01T16:16:25Z</time></trkpt><trkpt lat="41.54140285951905" lon="13.578025917703412"><ele>105.0</ele><time>2026-05-01T16:16:26Z</time></trkpt><trkpt lat="41.54128840366001" lon="13.578442607288835"><ele>103.5</ele><time>2026-05-01T16:16:27Z</time></trkpt><trkpt lat="41.54116679225273" lon="13.578855524107626"><ele>102.0</ele><time>2026-05-01T16:16:28Z</time></trkpt><trkpt lat="41.54104038324134" lon="13.57926952870554"><ele>103.0</ele><time>2026-05-01T16:16:29Z</time></trkpt><trkpt lat="41.54091443307462" lon="13.579682157702049"><ele>104.0</ele><time>2026-05-01T16:16:30Z</time></trkpt><trkpt lat="41.54078381233935" lon="13.580093779876954"><ele>108.0</ele><time>2026-05-01T16:16:31Z</time></trkpt><trkpt lat="41.54065238532695" lon="13.58050415826992"><ele>112.0</ele><time>2026-05-01T16:16:32Z</time></trkpt><trkpt lat="41.540516507507675" lon="13.580912120985865"><ele>114.0</ele><time>2026-05-01T16:16:33Z</time></trkpt><trkpt lat="41.540379211519436" lon="13.58131862099961"><ele>116.0</ele><time>2026-05-01T16:16:34Z</time></trkpt><trkpt lat="41.54023905834873" lon="13.581724654384054"><ele>116.0</ele><time>2026-05-01T16:16:35Z</time></trkpt><trkpt lat="41.540095886323016" lon="13.582128510993357"><ele>116.0</ele><time>2026-05-01T16:16:36Z</time></trkpt><trkpt lat="41.539958327188394" lon="13.582535503336299"><ele>117.5</ele><time>2026-05-01T16:16:37Z</time></trkpt><trkpt lat="41.539818211417774" lon="13.582941863740778"><ele>119.0</ele><time>2026-05-01T16:16:38Z</time></trkpt><trkpt lat="41.53967377800577" lon="13.58334845791177"><ele>120.5</ele><time>2026-05-01T16:16:39Z</time></trkpt><trkpt lat="41.53952685125166" lon="13.583752779036516"><ele>122.0</ele><time>2026-05-01T16:16:40Z</time></trkpt><trkpt lat="41.53937539584753" lon="13.584152198003268"><ele>122.0</ele><time>2026-05-01T16:16:41Z</time></trkpt><trkpt lat="41.53922434310904" lon="13.584553031420016"><ele>122.0</ele><time>2026-05-01T16:16:42Z</time></trkpt><trkpt lat="41.5390718048882" lon="13.584953652689412"><ele>122.5</ele><time>2026-05-01T16:16:43Z</time></trkpt><trkpt lat="41.538913944876796" lon="13.585351952550056"><ele>123.0</ele><time>2026-05-01T16:16:44Z</time></trkpt><trkpt lat="41.538758128494756" lon="13.58575059768054"><ele>123.0</ele><time>2026-05-01T16:16:45Z</time></trkpt><trkpt lat="41.53859655742546" lon="13.58614529319318"><ele>123.0</ele><time>2026-05-01T16:16:46Z</time></trkpt><trkpt lat="41.53843530942714" lon="13.586540488861052"><ele>122.5</ele><time>2026-05-01T16:16:47Z</time></trkpt><trkpt lat="41.538268107699956" lon="13.58692835688899"><ele>122.0</ele><time>2026-05-01T16:16:48Z</time></trkpt><trkpt lat="41.53810112214664" lon="13.587320551817347"><ele>121.5</ele><time>2026-05-01T16:16:49Z</time></trkpt><trkpt lat="41.53793710372296" lon="13.587712974938139"><ele>121.0</ele><time>2026-05-01T16:16:50Z</time></trkpt><trkpt lat="41.53777675393618" lon="13.588107693751027"><ele>120.5</ele><time>2026-05-01T16:16:51Z</time></trkpt><trkpt lat="41.53761072600501" lon="13.588500414161066"><ele>120.0</ele><time>2026-05-01T16:16:52Z</time></trkpt><trkpt lat="41.5374455715314" lon="13.58889186377985"><ele>121.5</ele><time>2026-05-01T16:16:53Z</time></trkpt><trkpt lat="41.53727661324028" lon="13.589280175833863"><ele>123.0</ele><time>2026-05-01T16:16:54Z</time></trkpt><trkpt lat="41.537107304242106" lon="13.589668753230454"><ele>122.5</ele><time>2026-05-01T16:16:55Z</time></trkpt><trkpt lat="41.5369433638722" lon="13.590061761681607"><ele>122.0</ele><time>2026-05-01T16:16:56Z</time></trkpt><trkpt lat="41.53677980337625" lon="13.590453414009684"><ele>121.5</ele><time>2026-05-01T16:16:57Z</time></trkpt><trkpt lat="41.536609817250564" lon="13.590840038822613"><ele>121.0</ele><time>2026-05-01T16:16:58Z</time></trkpt><trkpt lat="41.53644264737596" lon="13.59122885607861"><ele>121.0</ele><time>2026-05-01T16:16:59Z</time></trkpt><trkpt lat="41.536273220650614" lon="13.591615139535888"><ele>121.0</ele><time>2026-05-01T16:17:00Z</time></trkpt><trkpt lat="41.53610400214835" lon="13.59200165226028"><ele>119.5</ele><time>2026-05-01T16:17:01Z</time></trkpt><trkpt lat="41.5359403640304" lon="13.592392258807191"><ele>118.0</ele><time>2026-05-01T16:17:02Z</time></trkpt><trkpt lat="41.53577746070401" lon="13.592784085239835"><ele>119.0</ele><time>2026-05-01T16:17:03Z</time></trkpt><trkpt lat="41.53561338628167" lon="13.593175398359405"><ele>120.0</ele><time>2026-05-01T16:17:04Z</time></trkpt><trkpt lat="41.5354504504021" lon="13.59357145734992"><ele>120.0</ele><time>2026-05-01T16:17:05Z</time></trkpt><trkpt lat="41.535280612690066" lon="13.593957997014556"><ele>120.0</ele><time>2026-05-01T16:17:06Z</time></trkpt><trkpt lat="41.53511306495006" lon="13.594349652295879"><ele>119.0</ele><time>2026-05-01T16:17:07Z</time></trkpt><trkpt lat="41.53494224127459" lon="13.594733498856279"><ele>118.0</ele><time>2026-05-01T16:17:08Z</time></trkpt><trkpt lat="41.534772200619166" lon="13.595117814017415"><ele>118.5</ele><time>2026-05-01T16:17:09Z</time></trkpt><trkpt lat="41.53460351667905" lon="13.595502243494067"><ele>119.0</ele><time>2026-05-01T16:17:10Z</time></trkpt><trkpt lat="41.53443831791572" lon="13.595889691614254"><ele>119.0</ele><time>2026-05-01T16:17:11Z</time></trkpt><trkpt lat="41.5342719305313" lon="13.596276548894943"><ele>119.0</ele><time>2026-05-01T16:17:12Z</time></trkpt><trkpt lat="41.53410677095128" lon="13.596662922740425"><ele>119.0</ele><time>2026-05-01T16:17:13Z</time></trkpt><trkpt lat="41.53394176665034" lon="13.597050383659793"><ele>119.0</ele><time>2026-05-01T16:17:14Z</time></trkpt><trkpt lat="41.533778702923485" lon="13.59744056408306"><ele>118.0</ele><time>2026-05-01T16:17:15Z</time></trkpt><trkpt lat="41.53361590605218" lon="13.597832306048888"><ele>117.0</ele><time>2026-05-01T16:17:16Z</time></trkpt><trkpt lat="41.533452073528956" lon="13.598221133118185"><ele>116.5</ele><time>2026-05-01T16:17:17Z</time></trkpt><trkpt lat="41.53328428812887" lon="13.598604534033509"><ele>116.0</ele><time>2026-05-01T16:17:18Z</time></trkpt><trkpt lat="41.53312194076984" lon="13.598994342545263"><ele>117.5</ele><time>2026-05-01T16:17:19Z</time></trkpt><trkpt lat="41.532959790030304" lon="13.599380572543241"><ele>119.0</ele><time>2026-05-01T16:17:20Z</time></trkpt><trkpt lat="41.53279858155461" lon="13.599768072725215"><ele>119.0</ele><time>2026-05-01T16:17:21Z</time></trkpt><trkpt lat="41.53263444822529" lon="13.600155436553163"><ele>119.0</ele><time>2026-05-01T16:17:22Z</time></trkpt><trkpt lat="41.53246992680323" lon="13.600541449577273"><ele>118.0</ele><time>2026-05-01T16:17:23Z</time></trkpt><trkpt lat="41.53230858511985" lon="13.600927591266256"><ele>117.0</ele><time>2026-05-01T16:17:24Z</time></trkpt><trkpt lat="41.53214817189899" lon="13.601313065553095"><ele>116.0</ele><time>2026-05-01T16:17:25Z</time></trkpt><trkpt lat="41.53198811703865" lon="13.60169283666044"><ele>115.0</ele><time>2026-05-01T16:17:26Z</time></trkpt><trkpt lat="41.531824590943415" lon="13.60206813475023"><ele>113.5</ele><time>2026-05-01T16:17:27Z</time></trkpt><trkpt lat="41.53166418504761" lon="13.602440533374493"><ele>112.0</ele><time>2026-05-01T16:17:28Z</time></trkpt><trkpt lat="41.5315048564682" lon="13.602811576376755"><ele>111.0</ele><time>2026-05-01T16:17:29Z</time></trkpt><trkpt lat="41.5313446180112" lon="13.603180235150868"><ele>110.0</ele><time>2026-05-01T16:17:29.999Z</time></trkpt><trkpt lat="41.53118608236509" lon="13.603550104454293"><ele>112.0</ele><time>2026-05-01T16:17:30.999Z</time></trkpt><trkpt lat="41.531029454013904" lon="13.60391954859401"><ele>114.0</ele><time>2026-05-01T16:17:31.999Z</time></trkpt><trkpt lat="41.53087937392477" lon="13.604293355313645"><ele>115.5</ele><time>2026-05-01T16:17:32.999Z</time></trkpt><trkpt lat="41.530726902461254" lon="13.604661095975947"><ele>117.0</ele><time>2026-05-01T16:17:33.999Z</time></trkpt><trkpt lat="41.53057089932077" lon="13.60502863344065"><ele>117.0</ele><time>2026-05-01T16:17:34.999Z</time></trkpt><trkpt lat="41.53041526839951" lon="13.605395381217864"><ele>117.0</ele><time>2026-05-01T16:17:35.999Z</time></trkpt><trkpt lat="41.53026111287283" lon="13.605764159876031"><ele>116.5</ele><time>2026-05-01T16:17:36.999Z</time></trkpt><trkpt lat="41.530106905807976" lon="13.606129582551821"><ele>116.0</ele><time>2026-05-01T16:17:37.999Z</time></trkpt><trkpt lat="41.52995306032226" lon="13.60649287353615"><ele>116.0</ele><time>2026-05-01T16:17:38.999Z</time></trkpt><trkpt lat="41.529797941199114" lon="13.606853839818614"><ele>116.0</ele><time>2026-05-01T16:17:39.999Z</time></trkpt><trkpt lat="41.529644638293156" lon="13.607214097919622"><ele>116.5</ele><time>2026-05-01T16:17:40.999Z</time></trkpt><trkpt lat="41.529492441391504" lon="13.60757631181215"><ele>117.0</ele><time>2026-05-01T16:17:41.999Z</time></trkpt><trkpt lat="41.52933826924615" lon="13.607940451173809"><ele>117.0</ele><time>2026-05-01T16:17:42.999Z</time></trkpt><trkpt lat="41.52918666081652" lon="13.608306391819964"><ele>117.0</ele><time>2026-05-01T16:17:43.999Z</time></trkpt><trkpt lat="41.52903142408734" lon="13.608669396471269"><ele>116.5</ele><time>2026-05-01T16:17:44.999Z</time></trkpt><trkpt lat="41.52887684817813" lon="13.609033521706154"><ele>116.0</ele><time>2026-05-01T16:17:45.999Z</time></trkpt><trkpt lat="41.52872345376398" lon="13.609397108380193"><ele>116.0</ele><time>2026-05-01T16:17:46.999Z</time></trkpt><trkpt lat="41.5285674639066" lon="13.609761475304767"><ele>116.0</ele><time>2026-05-01T16:17:47.999Z</time></trkpt><trkpt lat="41.528412693757595" lon="13.610126777422808"><ele>116.0</ele><time>2026-05-01T16:17:48.999Z</time></trkpt><trkpt lat="41.528261900920256" lon="13.610492224619883"><ele>116.0</ele><time>2026-05-01T16:17:49.999Z</time></trkpt><trkpt lat="41.528105083646736" lon="13.610858226474981"><ele>116.0</ele><time>2026-05-01T16:17:50.999Z</time></trkpt><trkpt lat="41.52794677242483" lon="13.611227076377109"><ele>116.0</ele><time>2026-05-01T16:17:51.999Z</time></trkpt><trkpt lat="41.527783288000805" lon="13.61159989742248"><ele>117.0</ele><time>2026-05-01T16:17:52.999Z</time></trkpt><trkpt lat="41.5276252846983" lon="13.611985538068193"><ele>118.0</ele><time>2026-05-01T16:17:53.999Z</time></trkpt><trkpt lat="41.52746631639799" lon="13.612371300474427"><ele>118.0</ele><time>2026-05-01T16:17:54.999Z</time></trkpt><trkpt lat="41.527306750587464" lon="13.612759005458496"><ele>118.0</ele><time>2026-05-01T16:17:55.999Z</time></trkpt><trkpt lat="41.52714137592555" lon="13.613147050512566"><ele>116.0</ele><time>2026-05-01T16:17:56.999Z</time></trkpt><trkpt lat="41.526973457504425" lon="13.61353567471109"><ele>114.0</ele><time>2026-05-01T16:17:57.999Z</time></trkpt><trkpt lat="41.52680644306163" lon="13.613926868217373"><ele>114.0</ele><time>2026-05-01T16:17:58.999Z</time></trkpt><trkpt lat="41.52664110080688" lon="13.61432046793776"><ele>114.0</ele><time>2026-05-01T16:17:59.999Z</time></trkpt><trkpt lat="41.5264734266984" lon="13.614713244711288"><ele>114.0</ele><time>2026-05-01T16:18:00.999Z</time></trkpt><trkpt lat="41.52630542915691" lon="13.615103004604705"><ele>114.0</ele><time>2026-05-01T16:18:01.999Z</time></trkpt><trkpt lat="41.52613707017486" lon="13.615492219635073"><ele>113.5</ele><time>2026-05-01T16:18:03Z</time></trkpt><trkpt lat="41.525970216070206" lon="13.615884973554492"><ele>113.0</ele><time>2026-05-01T16:18:04Z</time></trkpt><trkpt lat="41.525805243004285" lon="13.616278005401535"><ele>114.5</ele><time>2026-05-01T16:18:05Z</time></trkpt><trkpt lat="41.52563866610134" lon="13.616670574694375"><ele>116.0</ele><time>2026-05-01T16:18:06Z</time></trkpt><trkpt lat="41.52547311371846" lon="13.617062177795422"><ele>115.5</ele><time>2026-05-01T16:18:07Z</time></trkpt><trkpt lat="41.52531300117131" lon="13.61745818225577"><ele>115.0</ele><time>2026-05-01T16:18:08Z</time></trkpt><trkpt lat="41.52514820886647" lon="13.617849457892373"><ele>115.0</ele><time>2026-05-01T16:18:09Z</time></trkpt><trkpt lat="41.52497856481039" lon="13.618237305898562"><ele>115.0</ele><time>2026-05-01T16:18:10Z</time></trkpt><trkpt lat="41.52481348553535" lon="13.618627933636224"><ele>115.0</ele><time>2026-05-01T16:18:11Z</time></trkpt><trkpt lat="41.52464719079098" lon="13.619018406350122"><ele>115.0</ele><time>2026-05-01T16:18:12Z</time></trkpt><trkpt lat="41.52447834769614" lon="13.619406037874228"><ele>113.0</ele><time>2026-05-01T16:18:13Z</time></trkpt><trkpt lat="41.52431157640507" lon="13.619794837888314"><ele>111.0</ele><time>2026-05-01T16:18:14Z</time></trkpt><trkpt lat="41.52414564038696" lon="13.6201851550634"><ele>112.0</ele><time>2026-05-01T16:18:15Z</time></trkpt><trkpt lat="41.52398180468704" lon="13.620576478294838"><ele>113.0</ele><time>2026-05-01T16:18:16Z</time></trkpt><trkpt lat="41.523819065675916" lon="13.620966851486065"><ele>110.5</ele><time>2026-05-01T16:18:17Z</time></trkpt><trkpt lat="41.52365591561992" lon="13.621358260008197"><ele>108.0</ele><time>2026-05-01T16:18:18Z</time></trkpt><trkpt lat="41.52349176846044" lon="13.621748948069095"><ele>107.5</ele><time>2026-05-01T16:18:19Z</time></trkpt><trkpt lat="41.52332549230935" lon="13.622139527732196"><ele>107.0</ele><time>2026-05-01T16:18:20Z</time></trkpt><trkpt lat="41.523163032099795" lon="13.622530420441304"><ele>106.5</ele><time>2026-05-01T16:18:21Z</time></trkpt><trkpt lat="41.52300498207405" lon="13.622919821812705"><ele>106.0</ele><time>2026-05-01T16:18:22Z</time></trkpt><trkpt lat="41.52284129067944" lon="13.623314738086666"><ele>106.0</ele><time>2026-05-01T16:18:23Z</time></trkpt><trkpt lat="41.52267926113016" lon="13.623705187064264"><ele>106.0</ele><time>2026-05-01T16:18:24Z</time></trkpt><trkpt lat="41.52251590945807" lon="13.6240925694921"><ele>106.0</ele><time>2026-05-01T16:18:25Z</time></trkpt><trkpt lat="41.52234995056132" lon="13.624477049903854"><ele>106.0</ele><time>2026-05-01T16:18:26Z</time></trkpt><trkpt lat="41.52218341011201" lon="13.624858843442965"><ele>102.0</ele><time>2026-05-01T16:18:27Z</time></trkpt><trkpt lat="41.522014121912534" lon="13.625240526632442"><ele>98.0</ele><time>2026-05-01T16:18:28Z</time></trkpt><trkpt lat="41.521845227726104" lon="13.625622503586772"><ele>97.5</ele><time>2026-05-01T16:18:29Z</time></trkpt><trkpt lat="41.521676791120946" lon="13.626006392205003"><ele>97.0</ele><time>2026-05-01T16:18:30Z</time></trkpt><trkpt lat="41.52150932187022" lon="13.626391950475666"><ele>97.0</ele><time>2026-05-01T16:18:31Z</time></trkpt><trkpt lat="41.52134308214302" lon="13.626777547276685"><ele>97.0</ele><time>2026-05-01T16:18:32Z</time></trkpt><trkpt lat="41.52117832377856" lon="13.627166343501605"><ele>104.5</ele><time>2026-05-01T16:18:33Z</time></trkpt><trkpt lat="41.52101468275645" lon="13.627554041904517"><ele>112.0</ele><time>2026-05-01T16:18:34Z</time></trkpt><trkpt lat="41.5208515944574" lon="13.627941996256462"><ele>113.5</ele><time>2026-05-01T16:18:35Z</time></trkpt><trkpt lat="41.52068576650289" lon="13.62833018749927"><ele>115.0</ele><time>2026-05-01T16:18:36Z</time></trkpt><trkpt lat="41.520519972778416" lon="13.628715840766592"><ele>114.5</ele><time>2026-05-01T16:18:37Z</time></trkpt><trkpt lat="41.520353908220564" lon="13.62910216104668"><ele>114.0</ele><time>2026-05-01T16:18:38Z</time></trkpt><trkpt lat="41.52018813799293" lon="13.629486757201374"><ele>114.0</ele><time>2026-05-01T16:18:39Z</time></trkpt><trkpt lat="41.52002239678198" lon="13.629872559675206"><ele>114.0</ele><time>2026-05-01T16:18:40Z</time></trkpt><trkpt lat="41.5198584242952" lon="13.630258311860313"><ele>115.5</ele><time>2026-05-01T16:18:41Z</time></trkpt><trkpt lat="41.51969374374967" lon="13.630643239147417"><ele>117.0</ele><time>2026-05-01T16:18:42Z</time></trkpt><trkpt lat="41.51952882800676" lon="13.631029418788405"><ele>117.5</ele><time>2026-05-01T16:18:43Z</time></trkpt><trkpt lat="41.51936334983934" lon="13.631416331455592"><ele>118.0</ele><time>2026-05-01T16:18:44Z</time></trkpt><trkpt lat="41.519196199403375" lon="13.63180326742958"><ele>118.5</ele><time>2026-05-01T16:18:45Z</time></trkpt><trkpt lat="41.519029962569675" lon="13.632191961548308"><ele>119.0</ele><time>2026-05-01T16:18:46Z</time></trkpt><trkpt lat="41.51886652193024" lon="13.632582095418506"><ele>120.0</ele><time>2026-05-01T16:18:47Z</time></trkpt><trkpt lat="41.51870308934753" lon="13.632971677545239"><ele>121.0</ele><time>2026-05-01T16:18:48Z</time></trkpt><trkpt lat="41.518539465658634" lon="13.63336138254527"><ele>121.5</ele><time>2026-05-01T16:18:49Z</time></trkpt><trkpt lat="41.51837437541059" lon="13.63375093312553"><ele>122.0</ele><time>2026-05-01T16:18:50Z</time></trkpt><trkpt lat="41.518210849756834" lon="13.63414092176238"><ele>121.5</ele><time>2026-05-01T16:18:51Z</time></trkpt><trkpt lat="41.51804498358017" lon="13.634531971210755"><ele>121.0</ele><time>2026-05-01T16:18:52Z</time></trkpt><trkpt lat="41.51787794723638" lon="13.634922470665687"><ele>120.5</ele><time>2026-05-01T16:18:53Z</time></trkpt><trkpt lat="41.51771302391656" lon="13.635314249923642"><ele>120.0</ele><time>2026-05-01T16:18:54Z</time></trkpt><trkpt lat="41.517545931192615" lon="13.635702859278602"><ele>120.0</ele><time>2026-05-01T16:18:55Z</time></trkpt><trkpt lat="41.517378343168225" lon="13.636092610590216"><ele>120.0</ele><time>2026-05-01T16:18:56Z</time></trkpt><trkpt lat="41.51720743622849" lon="13.636479261817216"><ele>120.0</ele><time>2026-05-01T16:18:57Z</time></trkpt><trkpt lat="41.517042396403134" lon="13.63686960991832"><ele>120.0</ele><time>2026-05-01T16:18:58Z</time></trkpt><trkpt lat="41.51688004984488" lon="13.63726053572534"><ele>120.0</ele><time>2026-05-01T16:18:59Z</time></trkpt><trkpt lat="41.51671293583741" lon="13.637649294943946"><ele>120.0</ele><time>2026-05-01T16:19:00Z</time></trkpt><trkpt lat="41.516543186123684" lon="13.638034717492214"><ele>120.0</ele><time>2026-05-01T16:19:01Z</time></trkpt><trkpt lat="41.51637650061375" lon="13.638424057870935"><ele>120.0</ele><time>2026-05-01T16:19:02Z</time></trkpt><trkpt lat="41.516205981294185" lon="13.638812275530531"><ele>119.5</ele><time>2026-05-01T16:19:03Z</time></trkpt><trkpt lat="41.51603940725404" lon="13.639203119821557"><ele>119.0</ele><time>2026-05-01T16:19:04Z</time></trkpt><trkpt lat="41.515876965433606" lon="13.639596791161111"><ele>119.0</ele><time>2026-05-01T16:19:05Z</time></trkpt><trkpt lat="41.515712083042814" lon="13.639989685070779"><ele>119.0</ele><time>2026-05-01T16:19:06Z</time></trkpt><trkpt lat="41.51553988181913" lon="13.640376785350092"><ele>119.0</ele><time>2026-05-01T16:19:07Z</time></trkpt><trkpt lat="41.515370143944864" lon="13.640764413306234"><ele>119.0</ele><time>2026-05-01T16:19:08Z</time></trkpt><trkpt lat="41.515204653564744" lon="13.641157242795298"><ele>119.0</ele><time>2026-05-01T16:19:09Z</time></trkpt><trkpt lat="41.51504127967011" lon="13.641546358508085"><ele>119.0</ele><time>2026-05-01T16:19:10Z</time></trkpt><trkpt lat="41.51487280407957" lon="13.64193423302852"><ele>119.0</ele><time>2026-05-01T16:19:11Z</time></trkpt><trkpt lat="41.5147062823298" lon="13.642320983108977"><ele>119.0</ele><time>2026-05-01T16:19:12Z</time></trkpt><trkpt lat="41.51453888795103" lon="13.642707807396565"><ele>118.0</ele><time>2026-05-01T16:19:13Z</time></trkpt><trkpt lat="41.51437334788438" lon="13.643096086759677"><ele>117.0</ele><time>2026-05-01T16:19:14Z</time></trkpt><trkpt lat="41.51421081593974" lon="13.643486163416737"><ele>117.0</ele><time>2026-05-01T16:19:15Z</time></trkpt><trkpt lat="41.51404340989794" lon="13.643872790116415"><ele>117.0</ele><time>2026-05-01T16:19:16Z</time></trkpt><trkpt lat="41.51387563676591" lon="13.644260826259712"><ele>117.5</ele><time>2026-05-01T16:19:17Z</time></trkpt><trkpt lat="41.51371005381343" lon="13.644647467440167"><ele>118.0</ele><time>2026-05-01T16:19:18Z</time></trkpt><trkpt lat="41.51354551475712" lon="13.645035240141205"><ele>118.5</ele><time>2026-05-01T16:19:19Z</time></trkpt><trkpt lat="41.51338133267374" lon="13.645424077478845"><ele>119.0</ele><time>2026-05-01T16:19:20Z</time></trkpt><trkpt lat="41.51321570450433" lon="13.645812595142969"><ele>119.0</ele><time>2026-05-01T16:19:21Z</time></trkpt><trkpt lat="41.51304536434737" lon="13.646197479850857"><ele>119.0</ele><time>2026-05-01T16:19:22Z</time></trkpt><trkpt lat="41.512881378170384" lon="13.646588763089431"><ele>119.0</ele><time>2026-05-01T16:19:23Z</time></trkpt><trkpt lat="41.51271945326556" lon="13.64697883453558"><ele>119.0</ele><time>2026-05-01T16:19:24Z</time></trkpt><trkpt lat="41.51255568798944" lon="13.647368815652905"><ele>119.0</ele><time>2026-05-01T16:19:25Z</time></trkpt><trkpt lat="41.51239024104406" lon="13.647757652142852"><ele>119.0</ele><time>2026-05-01T16:19:26Z</time></trkpt><trkpt lat="41.512224407349166" lon="13.648141899214634"><ele>119.5</ele><time>2026-05-01T16:19:27Z</time></trkpt><trkpt lat="41.51205807647025" lon="13.648526520456318"><ele>120.0</ele><time>2026-05-01T16:19:28Z</time></trkpt><trkpt lat="41.51189153013817" lon="13.648908469929273"><ele>119.0</ele><time>2026-05-01T16:19:29Z</time></trkpt><trkpt lat="41.511727459306265" lon="13.649291326582116"><ele>118.0</ele><time>2026-05-01T16:19:30Z</time></trkpt><trkpt lat="41.511559055636795" lon="13.649676421200914"><ele>118.0</ele><time>2026-05-01T16:19:31Z</time></trkpt><trkpt lat="41.51139652859651" lon="13.65006706446604"><ele>118.0</ele><time>2026-05-01T16:19:32Z</time></trkpt><trkpt lat="41.51123957153331" lon="13.65045782460918"><ele>117.0</ele><time>2026-05-01T16:19:33Z</time></trkpt><trkpt lat="41.511074397768226" lon="13.65084355534338"><ele>116.0</ele><time>2026-05-01T16:19:34Z</time></trkpt><trkpt lat="41.51091135882653" lon="13.651228895547701"><ele>116.0</ele><time>2026-05-01T16:19:34.999Z</time></trkpt><trkpt lat="41.510745673896956" lon="13.651612586648906"><ele>116.0</ele><time>2026-05-01T16:19:35.999Z</time></trkpt><trkpt lat="41.510578991455716" lon="13.65199551110273"><ele>116.5</ele><time>2026-05-01T16:19:36.999Z</time></trkpt><trkpt lat="41.510413987062734" lon="13.652382422669577"><ele>117.0</ele><time>2026-05-01T16:19:37.999Z</time></trkpt><trkpt lat="41.51024315562565" lon="13.652768367762063"><ele>116.5</ele><time>2026-05-01T16:19:38.999Z</time></trkpt><trkpt lat="41.51007369912816" lon="13.653154718627036"><ele>116.0</ele><time>2026-05-01T16:19:39.999Z</time></trkpt><trkpt lat="41.509906093792026" lon="13.653539957742211"><ele>117.0</ele><time>2026-05-01T16:19:40.999Z</time></trkpt><trkpt lat="41.50974645266958" lon="13.653928849925235"><ele>118.0</ele><time>2026-05-01T16:19:41.999Z</time></trkpt><trkpt lat="41.50957917158008" lon="13.654314948388203"><ele>119.0</ele><time>2026-05-01T16:19:42.999Z</time></trkpt><trkpt lat="41.50941251736262" lon="13.654702783099467"><ele>120.0</ele><time>2026-05-01T16:19:43.999Z</time></trkpt><trkpt lat="41.509245438198725" lon="13.655092949302984"><ele>120.0</ele><time>2026-05-01T16:19:44.999Z</time></trkpt><trkpt lat="41.50907930956437" lon="13.655482121740663"><ele>120.0</ele><time>2026-05-01T16:19:45.999Z</time></trkpt><trkpt lat="41.508921207302514" lon="13.65587720845328"><ele>118.5</ele><time>2026-05-01T16:19:46.999Z</time></trkpt><trkpt lat="41.50876737984419" lon="13.656270884942938"><ele>117.0</ele><time>2026-05-01T16:19:47.999Z</time></trkpt><trkpt lat="41.508602138582454" lon="13.656656865302585"><ele>116.5</ele><time>2026-05-01T16:19:48.999Z</time></trkpt><trkpt lat="41.50843557409058" lon="13.657044301026247"><ele>116.0</ele><time>2026-05-01T16:19:49.999Z</time></trkpt><trkpt lat="41.50826816144988" lon="13.6574240472686"><ele>115.5</ele><time>2026-05-01T16:19:50.999Z</time></trkpt><trkpt lat="41.508099612432005" lon="13.657806024783657"><ele>115.0</ele><time>2026-05-01T16:19:51.999Z</time></trkpt><trkpt lat="41.50793002329536" lon="13.658189943672701"><ele>115.5</ele><time>2026-05-01T16:19:52.999Z</time></trkpt><trkpt lat="41.50775983768826" lon="13.658574546119395"><ele>116.0</ele><time>2026-05-01T16:19:53.999Z</time></trkpt><trkpt lat="41.507588797033264" lon="13.658961629421835"><ele>117.0</ele><time>2026-05-01T16:19:54.999Z</time></trkpt><trkpt lat="41.50742066624236" lon="13.659347380701847"><ele>118.0</ele><time>2026-05-01T16:19:55.999Z</time></trkpt><trkpt lat="41.50725342243405" lon="13.659735578051691"><ele>118.0</ele><time>2026-05-01T16:19:56.999Z</time></trkpt><trkpt lat="41.50708736885424" lon="13.660123990557508"><ele>118.0</ele><time>2026-05-01T16:19:57.999Z</time></trkpt><trkpt lat="41.50691887331206" lon="13.660512676085318"><ele>118.0</ele><time>2026-05-01T16:19:58.999Z</time></trkpt><trkpt lat="41.5067495918483" lon="13.660901507363587"><ele>118.0</ele><time>2026-05-01T16:19:59.999Z</time></trkpt><trkpt lat="41.50657983941065" lon="13.661290228013176"><ele>117.5</ele><time>2026-05-01T16:20:00.999Z</time></trkpt><trkpt lat="41.506411204785564" lon="13.661680322819933"><ele>117.0</ele><time>2026-05-01T16:20:01.999Z</time></trkpt><trkpt lat="41.50624330256448" lon="13.662069701226509"><ele>117.0</ele><time>2026-05-01T16:20:02.999Z</time></trkpt><trkpt lat="41.50607611969592" lon="13.66246086351046"><ele>117.0</ele><time>2026-05-01T16:20:03.999Z</time></trkpt><trkpt lat="41.50590864954523" lon="13.662852516114896"><ele>117.5</ele><time>2026-05-01T16:20:04.999Z</time></trkpt><trkpt lat="41.50574120172641" lon="13.663246107543232"><ele>118.0</ele><time>2026-05-01T16:20:05.999Z</time></trkpt><trkpt lat="41.50557482324252" lon="13.663637183713048"><ele>116.5</ele><time>2026-05-01T16:20:06.999Z</time></trkpt><trkpt lat="41.50540882957162" lon="13.664026370554932"><ele>115.0</ele><time>2026-05-01T16:20:07.999Z</time></trkpt><trkpt lat="41.50524347651337" lon="13.664416461669205"><ele>115.5</ele><time>2026-05-01T16:20:09Z</time></trkpt><trkpt lat="41.50507643283412" lon="13.664806309831242"><ele>116.0</ele><time>2026-05-01T16:20:10Z</time></trkpt><trkpt lat="41.504910293790395" lon="13.665195262972857"><ele>116.0</ele><time>2026-05-01T16:20:11Z</time></trkpt><trkpt lat="41.504742648239734" lon="13.66558628481335"><ele>116.0</ele><time>2026-05-01T16:20:12Z</time></trkpt><trkpt lat="41.504575094111054" lon="13.665975374980793"><ele>116.5</ele><time>2026-05-01T16:20:13Z</time></trkpt><trkpt lat="41.50440734753838" lon="13.666364632121711"><ele>117.0</ele><time>2026-05-01T16:20:14Z</time></trkpt><trkpt lat="41.50423972799478" lon="13.66675164254703"><ele>118.0</ele><time>2026-05-01T16:20:15Z</time></trkpt><trkpt lat="41.504074044094224" lon="13.667137182844355"><ele>119.0</ele><time>2026-05-01T16:20:16Z</time></trkpt><trkpt lat="41.503908956765585" lon="13.667519740152418"><ele>118.0</ele><time>2026-05-01T16:20:17Z</time></trkpt><trkpt lat="41.50374341038613" lon="13.667903747549234"><ele>117.0</ele><time>2026-05-01T16:20:18Z</time></trkpt><trkpt lat="41.50357923784233" lon="13.668287580263371"><ele>116.0</ele><time>2026-05-01T16:20:19Z</time></trkpt><trkpt lat="41.50341600466983" lon="13.668669798343391"><ele>115.0</ele><time>2026-05-01T16:20:20Z</time></trkpt><trkpt lat="41.50325348946004" lon="13.669046002985334"><ele>115.0</ele><time>2026-05-01T16:20:21Z</time></trkpt><trkpt lat="41.50309285586983" lon="13.669417272921633"><ele>115.0</ele><time>2026-05-01T16:20:22Z</time></trkpt><trkpt lat="41.50292607995179" lon="13.669795859572922"><ele>115.0</ele><time>2026-05-01T16:20:23Z</time></trkpt><trkpt lat="41.502756825840514" lon="13.670177512447104"><ele>115.0</ele><time>2026-05-01T16:20:24Z</time></trkpt><trkpt lat="41.50258779532352" lon="13.670560265747437"><ele>115.0</ele><time>2026-05-01T16:20:25Z</time></trkpt><trkpt lat="41.50241680332953" lon="13.670945156955758"><ele>115.0</ele><time>2026-05-01T16:20:26Z</time></trkpt><trkpt lat="41.50224600137172" lon="13.671331924713865"><ele>115.0</ele><time>2026-05-01T16:20:27Z</time></trkpt><trkpt lat="41.50207764342731" lon="13.671716176812104"><ele>115.0</ele><time>2026-05-01T16:20:28Z</time></trkpt><trkpt lat="41.50191069373567" lon="13.672099121219468"><ele>115.0</ele><time>2026-05-01T16:20:29Z</time></trkpt><trkpt lat="41.501744267250814" lon="13.67248390350075"><ele>115.0</ele><time>2026-05-01T16:20:30Z</time></trkpt><trkpt lat="41.50157717921677" lon="13.67286846236897"><ele>116.5</ele><time>2026-05-01T16:20:31Z</time></trkpt><trkpt lat="41.50140995434937" lon="13.673254550513873"><ele>118.0</ele><time>2026-05-01T16:20:32Z</time></trkpt><trkpt lat="41.50124223828506" lon="13.673641378248385"><ele>118.0</ele><time>2026-05-01T16:20:33Z</time></trkpt><trkpt lat="41.50107578415113" lon="13.674027024830485"><ele>118.0</ele><time>2026-05-01T16:20:34Z</time></trkpt><trkpt lat="41.50091321272863" lon="13.67441049809341"><ele>118.0</ele><time>2026-05-01T16:20:35Z</time></trkpt><trkpt lat="41.50074943794054" lon="13.674794524013441"><ele>118.0</ele><time>2026-05-01T16:20:36Z</time></trkpt><trkpt lat="41.50058593655527" lon="13.675178161948878"><ele>117.5</ele><time>2026-05-01T16:20:37Z</time></trkpt><trkpt lat="41.500420852283646" lon="13.67556412994906"><ele>117.0</ele><time>2026-05-01T16:20:38Z</time></trkpt><trkpt lat="41.500255920294684" lon="13.675945668026337"><ele>117.0</ele><time>2026-05-01T16:20:39Z</time></trkpt><trkpt lat="41.50009167441983" lon="13.676324976191118"><ele>117.0</ele><time>2026-05-01T16:20:40Z</time></trkpt><trkpt lat="41.4999300998427" lon="13.676700041800572"><ele>117.5</ele><time>2026-05-01T16:20:41Z</time></trkpt><trkpt lat="41.49977147992955" lon="13.677069851894272"><ele>118.0</ele><time>2026-05-01T16:20:42Z</time></trkpt><trkpt lat="41.4996157573317" lon="13.677430776739577"><ele>117.5</ele><time>2026-05-01T16:20:43Z</time></trkpt><trkpt lat="41.49946466211503" lon="13.677782206488269"><ele>117.0</ele><time>2026-05-01T16:20:44Z</time></trkpt><trkpt lat="41.49931673485176" lon="13.67812674034549"><ele>117.0</ele><time>2026-05-01T16:20:45Z</time></trkpt><trkpt lat="41.49917143565111" lon="13.678462931556552"><ele>117.0</ele><time>2026-05-01T16:20:46Z</time></trkpt><trkpt lat="41.49903222494583" lon="13.678782590601493"><ele>117.0</ele><time>2026-05-01T16:20:47Z</time></trkpt><trkpt lat="41.49890024263506" lon="13.67908617232348"><ele>117.0</ele><time>2026-05-01T16:20:48Z</time></trkpt><trkpt lat="41.498773128941856" lon="13.679379318225147"><ele>118.0</ele><time>2026-05-01T16:20:49Z</time></trkpt><trkpt lat="41.49865029442174" lon="13.679666590877764"><ele>119.0</ele><time>2026-05-01T16:20:50Z</time></trkpt><trkpt lat="41.4985276932784" lon="13.679952707182117"><ele>119.0</ele><time>2026-05-01T16:20:51Z</time></trkpt><trkpt lat="41.4984076894559" lon="13.680232272681499"><ele>119.0</ele><time>2026-05-01T16:20:52Z</time></trkpt><trkpt lat="41.49828857367166" lon="13.68050432548651"><ele>117.5</ele><time>2026-05-01T16:20:53Z</time></trkpt><trkpt lat="41.49816715721865" lon="13.680766165195202"><ele>116.0</ele><time>2026-05-01T16:20:54Z</time></trkpt><trkpt lat="41.49804616262501" lon="13.681020994414295"><ele>116.33333333333333</ele><time>2026-05-01T16:20:55Z</time></trkpt><trkpt lat="41.49793319767232" lon="13.681270181877215"><ele>116.66666666666666</ele><time>2026-05-01T16:20:56Z</time></trkpt><trkpt lat="41.49782609437006" lon="13.6815090613129"><ele>117.0</ele><time>2026-05-01T16:20:57Z</time></trkpt><trkpt lat="41.4977260517498" lon="13.681735032261596"><ele>117.33333333333334</ele><time>2026-05-01T16:20:58Z</time></trkpt><trkpt lat="41.497631679395894" lon="13.681948052458422"><ele>117.66666666666667</ele><time>2026-05-01T16:20:59Z</time></trkpt><trkpt lat="41.497540376876124" lon="13.682142102574124"><ele>118.0</ele><time>2026-05-01T16:21:00Z</time></trkpt><trkpt lat="41.49744750742358" lon="13.682313977293038"><ele>118.0</ele><time>2026-05-01T16:21:01Z</time></trkpt><trkpt lat="41.497353615968095" lon="13.682459553062944"><ele>118.0</ele><time>2026-05-01T16:21:02Z</time></trkpt><trkpt lat="41.497263093756466" lon="13.682596164682733"><ele>118.0</ele><time>2026-05-01T16:21:03Z</time></trkpt><trkpt lat="41.497187174606886" lon="13.682727323285963"><ele>118.0</ele><time>2026-05-01T16:21:04Z</time></trkpt><trkpt lat="41.49712563130189" lon="13.682869179493279"><ele>117.25</ele><time>2026-05-01T16:21:05Z</time></trkpt><trkpt lat="41.49707342487455" lon="13.68301752551765"><ele>116.5</ele><time>2026-05-01T16:21:06Z</time></trkpt><trkpt lat="41.497020843791944" lon="13.683161652250185"><ele>115.75</ele><time>2026-05-01T16:21:07Z</time></trkpt><trkpt lat="41.49696440461812" lon="13.683301157566264"><ele>115.0</ele><time>2026-05-01T16:21:08Z</time></trkpt><trkpt lat="41.49690443919895" lon="13.683438843988295"><ele>115.0</ele><time>2026-05-01T16:21:09Z</time></trkpt><trkpt lat="41.49684780421722" lon="13.68356865916098"><ele>115.0</ele><time>2026-05-01T16:21:10Z</time></trkpt><trkpt lat="41.49679671998811" lon="13.683687692225796"><ele>115.0</ele><time>2026-05-01T16:21:11Z</time></trkpt><trkpt lat="41.4967472087236" lon="13.683799774928504"><ele>115.0</ele><time>2026-05-01T16:21:12Z</time></trkpt><trkpt lat="41.496704255119276" lon="13.68389621115788"><ele>115.0</ele><time>2026-05-01T16:21:13Z</time></trkpt><trkpt lat="41.49665880010413" lon="13.68399125833532"><ele>114.99999999999999</ele><time>2026-05-01T16:21:14Z</time></trkpt><trkpt lat="41.4966123944128" lon="13.68408520934827"><ele>115.0</ele><time>2026-05-01T16:21:15Z</time></trkpt><trkpt lat="41.49656741819608" lon="13.684175029963823"><ele>114.99999999999999</ele><time>2026-05-01T16:21:16Z</time></trkpt><trkpt lat="41.49652570157371" lon="13.68425593490487"><ele>114.99999999999999</ele><time>2026-05-01T16:21:17Z</time></trkpt><trkpt lat="41.4964815085795" lon="13.684327373161159"><ele>115.0</ele><time>2026-05-01T16:21:18Z</time></trkpt><trkpt lat="41.49643024777216" lon="13.684384269412684"><ele>114.99999999999999</ele><time>2026-05-01T16:21:19Z</time></trkpt><trkpt lat="41.49637354556416" lon="13.684425309341172"><ele>114.99999999999999</ele><time>2026-05-01T16:21:20Z</time></trkpt><trkpt lat="41.49627699778908" lon="13.684499780921575"><ele>114.99999999999999</ele><time>2026-05-01T16:21:22Z</time></trkpt><trkpt lat="41.49621118432395" lon="13.684557807389702"><ele>115.0</ele><time>2026-05-01T16:21:24Z</time></trkpt><trkpt lat="41.49617074083147" lon="13.68463883588818"><ele>114.99999999999999</ele><time>2026-05-01T16:21:27Z</time></trkpt><trkpt lat="41.496182533342726" lon="13.68472730407201"><ele>114.99999999999999</ele><time>2026-05-01T16:28:33Z</time></trkpt><trkpt lat="41.4962234581138" lon="13.684792400053366"><ele>115.0</ele><time>2026-05-01T16:28:36Z</time></trkpt><trkpt lat="41.496218763274655" lon="13.684883582786945"><ele>114.99999999999999</ele><time>2026-05-01T16:28:38Z</time></trkpt><trkpt lat="41.496216682221835" lon="13.684974635954232"><ele>114.99999999999999</ele><time>2026-05-01T16:28:39Z</time></trkpt><trkpt lat="41.4961917243479" lon="13.685075490273029"><ele>115.0</ele><time>2026-05-01T16:28:40Z</time></trkpt><trkpt lat="41.49616401952128" lon="13.685198357572638"><ele>115.0</ele><time>2026-05-01T16:28:41Z</time></trkpt><trkpt lat="41.49613780634918" lon="13.68534096225237"><ele>115.0</ele><time>2026-05-01T16:28:42Z</time></trkpt><trkpt lat="41.496102910550135" lon="13.685491427123772"><ele>115.0</ele><time>2026-05-01T16:28:43Z</time></trkpt><trkpt lat="41.496052157088656" lon="13.685653378874859"><ele>114.66666666666667</ele><time>2026-05-01T16:28:44Z</time></trkpt><trkpt lat="41.495982226674904" lon="13.685815687419305"><ele>114.33333333333334</ele><time>2026-05-01T16:28:45Z</time></trkpt><trkpt lat="41.49590286940835" lon="13.68598928710512"><ele>114.0</ele><time>2026-05-01T16:28:46Z</time></trkpt><trkpt lat="41.4958160506139" lon="13.686189059548532"><ele>113.33333333333334</ele><time>2026-05-01T16:28:47Z</time></trkpt><trkpt lat="41.49573115333169" lon="13.686403889110084"><ele>112.66666666666667</ele><time>2026-05-01T16:28:48Z</time></trkpt><trkpt lat="41.49564440432342" lon="13.686627899624588"><ele>112.0</ele><time>2026-05-01T16:28:49Z</time></trkpt><trkpt lat="41.495548841342796" lon="13.686875159945327"><ele>113.0</ele><time>2026-05-01T16:28:50Z</time></trkpt><trkpt lat="41.495449331885865" lon="13.687137249402424"><ele>114.0</ele><time>2026-05-01T16:28:51Z</time></trkpt><trkpt lat="41.49533924396952" lon="13.68741839518735"><ele>114.0</ele><time>2026-05-01T16:28:52Z</time></trkpt><trkpt lat="41.49522129726554" lon="13.687715534391703"><ele>114.0</ele><time>2026-05-01T16:28:53Z</time></trkpt><trkpt lat="41.495090726698635" lon="13.688030325060646"><ele>113.5</ele><time>2026-05-01T16:28:54Z</time></trkpt><trkpt lat="41.494956155823154" lon="13.688358150358013"><ele>113.0</ele><time>2026-05-01T16:28:55Z</time></trkpt><trkpt lat="41.49481500528853" lon="13.688699849214332"><ele>112.5</ele><time>2026-05-01T16:28:56Z</time></trkpt><trkpt lat="41.49466866507687" lon="13.689042143146331"><ele>112.0</ele><time>2026-05-01T16:28:57Z</time></trkpt><trkpt lat="41.49451697169452" lon="13.68940330723713"><ele>112.0</ele><time>2026-05-01T16:28:58Z</time></trkpt><trkpt lat="41.49436351010183" lon="13.689768168156064"><ele>112.0</ele><time>2026-05-01T16:28:59Z</time></trkpt><trkpt lat="41.494208055697406" lon="13.690140100479919"><ele>110.5</ele><time>2026-05-01T16:29:00Z</time></trkpt><trkpt lat="41.494047141253375" lon="13.690508072364679"><ele>109.0</ele><time>2026-05-01T16:29:01Z</time></trkpt><trkpt lat="41.493883869439415" lon="13.690878086671223"><ele>109.0</ele><time>2026-05-01T16:29:02Z</time></trkpt><trkpt lat="41.49372035087248" lon="13.691257879806097"><ele>109.0</ele><time>2026-05-01T16:29:03Z</time></trkpt><trkpt lat="41.49355439282337" lon="13.691640598370421"><ele>108.5</ele><time>2026-05-01T16:29:04Z</time></trkpt><trkpt lat="41.49339025945013" lon="13.692025700995178"><ele>108.0</ele><time>2026-05-01T16:29:05Z</time></trkpt><trkpt lat="41.4932259017421" lon="13.692413031415448"><ele>108.5</ele><time>2026-05-01T16:29:06Z</time></trkpt><trkpt lat="41.493060670513835" lon="13.692802767499087"><ele>109.0</ele><time>2026-05-01T16:29:07Z</time></trkpt><trkpt lat="41.492890235948984" lon="13.693198943507799"><ele>105.0</ele><time>2026-05-01T16:29:08Z</time></trkpt><trkpt lat="41.49271955023741" lon="13.69359549517545"><ele>101.0</ele><time>2026-05-01T16:29:09Z</time></trkpt><trkpt lat="41.49254988667706" lon="13.693997326180453"><ele>101.0</ele><time>2026-05-01T16:29:10Z</time></trkpt><trkpt lat="41.49238001185425" lon="13.694395809143504"><ele>101.0</ele><time>2026-05-01T16:29:11Z</time></trkpt><trkpt lat="41.49221158801737" lon="13.694792096260882"><ele>102.5</ele><time>2026-05-01T16:29:12Z</time></trkpt><trkpt lat="41.49204210806971" lon="13.695189239044408"><ele>104.0</ele><time>2026-05-01T16:29:13Z</time></trkpt><trkpt lat="41.491871181402615" lon="13.695585131522089"><ele>104.0</ele><time>2026-05-01T16:29:14Z</time></trkpt><trkpt lat="41.49169966335086" lon="13.69598142467542"><ele>104.0</ele><time>2026-05-01T16:29:15Z</time></trkpt><trkpt lat="41.491528231903644" lon="13.696379013572336"><ele>101.0</ele><time>2026-05-01T16:29:16Z</time></trkpt><trkpt lat="41.49136216142782" lon="13.696779370602483"><ele>98.0</ele><time>2026-05-01T16:29:17Z</time></trkpt><trkpt lat="41.49120071964882" lon="13.697177740729714"><ele>94.0</ele><time>2026-05-01T16:29:18Z</time></trkpt><trkpt lat="41.49103642244973" lon="13.697576324354925"><ele>90.0</ele><time>2026-05-01T16:29:19Z</time></trkpt><trkpt lat="41.49086998896508" lon="13.69797324838867"><ele>90.0</ele><time>2026-05-01T16:29:20Z</time></trkpt><trkpt lat="41.490701655177716" lon="13.698362675082969"><ele>90.0</ele><time>2026-05-01T16:29:21Z</time></trkpt><trkpt lat="41.49053021436258" lon="13.698753332913256"><ele>97.5</ele><time>2026-05-01T16:29:22Z</time></trkpt><trkpt lat="41.49035867152035" lon="13.699142261758242"><ele>105.0</ele><time>2026-05-01T16:29:23Z</time></trkpt><trkpt lat="41.490178835786104" lon="13.699544731424801"><ele>105.0</ele><time>2026-05-01T16:29:24Z</time></trkpt><trkpt lat="41.48998989077024" lon="13.699953270821348"><ele>105.0</ele><time>2026-05-01T16:29:25Z</time></trkpt><trkpt lat="41.489791884909444" lon="13.700367663499108"><ele>105.0</ele><time>2026-05-01T16:29:26Z</time></trkpt><trkpt lat="41.489635811580314" lon="13.700768805601662"><ele>105.0</ele><time>2026-05-01T16:29:27Z</time></trkpt><trkpt lat="41.489473863318096" lon="13.701142271677424"><ele>105.0</ele><time>2026-05-01T16:29:28Z</time></trkpt><trkpt lat="41.48930472872271" lon="13.701534793929149"><ele>105.0</ele><time>2026-05-01T16:29:29Z</time></trkpt><trkpt lat="41.489131580665635" lon="13.701925955230857"><ele>105.0</ele><time>2026-05-01T16:29:30Z</time></trkpt><trkpt lat="41.48896059235669" lon="13.702321490534908"><ele>105.0</ele><time>2026-05-01T16:29:31Z</time></trkpt><trkpt lat="41.48878993036304" lon="13.702721729720333"><ele>106.0</ele><time>2026-05-01T16:29:32Z</time></trkpt><trkpt lat="41.488623281672304" lon="13.70312425235264"><ele>107.0</ele><time>2026-05-01T16:29:33Z</time></trkpt><trkpt lat="41.48845316266088" lon="13.703527128817695"><ele>106.5</ele><time>2026-05-01T16:29:34Z</time></trkpt><trkpt lat="41.48827982288381" lon="13.703926142919322"><ele>106.0</ele><time>2026-05-01T16:29:35Z</time></trkpt><trkpt lat="41.4881047552427" lon="13.704326428746546"><ele>106.5</ele><time>2026-05-01T16:29:36Z</time></trkpt><trkpt lat="41.48793024373265" lon="13.704727660730645"><ele>107.0</ele><time>2026-05-01T16:29:37Z</time></trkpt><trkpt lat="41.487758375378085" lon="13.705128399333566"><ele>106.5</ele><time>2026-05-01T16:29:38Z</time></trkpt><trkpt lat="41.4875877300715" lon="13.705528373014369"><ele>106.0</ele><time>2026-05-01T16:29:39Z</time></trkpt><trkpt lat="41.48741935717217" lon="13.705928802547579"><ele>106.0</ele><time>2026-05-01T16:29:40Z</time></trkpt><trkpt lat="41.48725157438921" lon="13.70632854118226"><ele>106.0</ele><time>2026-05-01T16:29:41Z</time></trkpt><trkpt lat="41.487082409388115" lon="13.706727786487832"><ele>107.0</ele><time>2026-05-01T16:29:42Z</time></trkpt><trkpt lat="41.48691193564704" lon="13.707125349075799"><ele>108.0</ele><time>2026-05-01T16:29:43Z</time></trkpt><trkpt lat="41.48673890933673" lon="13.707524549065393"><ele>109.0</ele><time>2026-05-01T16:29:44Z</time></trkpt><trkpt lat="41.48656437909666" lon="13.707923546326438"><ele>110.0</ele><time>2026-05-01T16:29:45Z</time></trkpt><trkpt lat="41.48639076077966" lon="13.708321701720246"><ele>109.0</ele><time>2026-05-01T16:29:46Z</time></trkpt><trkpt lat="41.486217571617594" lon="13.70872206851189"><ele>108.0</ele><time>2026-05-01T16:29:47Z</time></trkpt><trkpt lat="41.48604629073573" lon="13.709120750984125"><ele>108.5</ele><time>2026-05-01T16:29:48Z</time></trkpt><trkpt lat="41.485873118435286" lon="13.709524537153424"><ele>109.0</ele><time>2026-05-01T16:29:49Z</time></trkpt><trkpt lat="41.48570129227831" lon="13.709928147854475"><ele>109.0</ele><time>2026-05-01T16:29:50Z</time></trkpt><trkpt lat="41.48552837112416" lon="13.710334757076343"><ele>109.0</ele><time>2026-05-01T16:29:51Z</time></trkpt><trkpt lat="41.4853553387148" lon="13.71074143932819"><ele>107.5</ele><time>2026-05-01T16:29:51.999Z</time></trkpt><trkpt lat="41.485182649955846" lon="13.711148188938225"><ele>106.0</ele><time>2026-05-01T16:29:52.999Z</time></trkpt><trkpt lat="41.485008414737294" lon="13.711556226000477"><ele>108.0</ele><time>2026-05-01T16:29:53.999Z</time></trkpt><trkpt lat="41.48483245870331" lon="13.711964494414426"><ele>110.0</ele><time>2026-05-01T16:29:54.999Z</time></trkpt><trkpt lat="41.484658187790146" lon="13.712368446608341"><ele>108.5</ele><time>2026-05-01T16:29:55.999Z</time></trkpt><trkpt lat="41.484482318279085" lon="13.712774216104975"><ele>107.0</ele><time>2026-05-01T16:29:56.999Z</time></trkpt><trkpt lat="41.4843086655817" lon="13.713178860391768"><ele>108.0</ele><time>2026-05-01T16:29:57.999Z</time></trkpt><trkpt lat="41.484132992669316" lon="13.71358574476245"><ele>109.0</ele><time>2026-05-01T16:29:58.999Z</time></trkpt><trkpt lat="41.48395717980145" lon="13.71399556953288"><ele>109.0</ele><time>2026-05-01T16:29:59.999Z</time></trkpt><trkpt lat="41.48378295177132" lon="13.714401175673904"><ele>109.0</ele><time>2026-05-01T16:30:00.999Z</time></trkpt><trkpt lat="41.48360641993528" lon="13.714810463566815"><ele>108.5</ele><time>2026-05-01T16:30:01.999Z</time></trkpt><trkpt lat="41.48343315912044" lon="13.715217437499374"><ele>108.0</ele><time>2026-05-01T16:30:02.999Z</time></trkpt><trkpt lat="41.48325725366878" lon="13.715623998488573"><ele>107.5</ele><time>2026-05-01T16:30:03.999Z</time></trkpt><trkpt lat="41.483084373798434" lon="13.71603023577347"><ele>107.0</ele><time>2026-05-01T16:30:04.999Z</time></trkpt><trkpt lat="41.48290973124481" lon="13.716437554436993"><ele>106.5</ele><time>2026-05-01T16:30:05.999Z</time></trkpt><trkpt lat="41.48273400180208" lon="13.71684460339849"><ele>106.0</ele><time>2026-05-01T16:30:06.999Z</time></trkpt><trkpt lat="41.48255734364642" lon="13.717253509266515"><ele>105.5</ele><time>2026-05-01T16:30:07.999Z</time></trkpt><trkpt lat="41.48238560761036" lon="13.717654532890126"><ele>105.0</ele><time>2026-05-01T16:30:08.999Z</time></trkpt><trkpt lat="41.48221023052787" lon="13.718060364795377"><ele>105.0</ele><time>2026-05-01T16:30:09.999Z</time></trkpt><trkpt lat="41.48203595199438" lon="13.718468274365723"><ele>105.0</ele><time>2026-05-01T16:30:10.999Z</time></trkpt><trkpt lat="41.48186274139423" lon="13.718874037478997"><ele>105.0</ele><time>2026-05-01T16:30:11.999Z</time></trkpt><trkpt lat="41.48168685430262" lon="13.719281446939368"><ele>105.0</ele><time>2026-05-01T16:30:12.999Z</time></trkpt><trkpt lat="41.48151176903378" lon="13.719688375531033"><ele>105.0</ele><time>2026-05-01T16:30:13.999Z</time></trkpt><trkpt lat="41.481333896017496" lon="13.720095588385586"><ele>105.0</ele><time>2026-05-01T16:30:14.999Z</time></trkpt><trkpt lat="41.48115675150905" lon="13.720503858788684"><ele>105.0</ele><time>2026-05-01T16:30:15.999Z</time></trkpt><trkpt lat="41.48097996496706" lon="13.720911580897095"><ele>105.0</ele><time>2026-05-01T16:30:16.999Z</time></trkpt><trkpt lat="41.48080329308152" lon="13.721319924088153"><ele>105.5</ele><time>2026-05-01T16:30:17.999Z</time></trkpt><trkpt lat="41.48062750771326" lon="13.721728543333228"><ele>106.0</ele><time>2026-05-01T16:30:18.999Z</time></trkpt><trkpt lat="41.48045100813846" lon="13.722135329338876"><ele>105.0</ele><time>2026-05-01T16:30:19.999Z</time></trkpt><trkpt lat="41.48027858335659" lon="13.722541385068238"><ele>104.0</ele><time>2026-05-01T16:30:20.999Z</time></trkpt><trkpt lat="41.48010287976658" lon="13.722953684829761"><ele>104.0</ele><time>2026-05-01T16:30:21.999Z</time></trkpt><trkpt lat="41.479929520481164" lon="13.72336209946595"><ele>104.0</ele><time>2026-05-01T16:30:22.999Z</time></trkpt><trkpt lat="41.47975365854269" lon="13.723771026035157"><ele>103.5</ele><time>2026-05-01T16:30:23.999Z</time></trkpt><trkpt lat="41.47957907659404" lon="13.724184219507821"><ele>103.0</ele><time>2026-05-01T16:30:24.999Z</time></trkpt><trkpt lat="41.47940377033362" lon="13.724596732157655"><ele>103.0</ele><time>2026-05-01T16:30:25.999Z</time></trkpt><trkpt lat="41.479228171947845" lon="13.725006829244151"><ele>103.0</ele><time>2026-05-01T16:30:26.999Z</time></trkpt><trkpt lat="41.479051558158496" lon="13.725418683089666"><ele>103.0</ele><time>2026-05-01T16:30:27.999Z</time></trkpt><trkpt lat="41.47887511792634" lon="13.725831365171704"><ele>103.0</ele><time>2026-05-01T16:30:28.999Z</time></trkpt><trkpt lat="41.47869472018021" lon="13.726245221893658"><ele>103.0</ele><time>2026-05-01T16:30:29.999Z</time></trkpt><trkpt lat="41.478518492855606" lon="13.72665905449185"><ele>103.0</ele><time>2026-05-01T16:30:30.999Z</time></trkpt><trkpt lat="41.478342621938566" lon="13.72707280540793"><ele>103.0</ele><time>2026-05-01T16:30:31.999Z</time></trkpt><trkpt lat="41.4781633761068" lon="13.727486720343032"><ele>103.0</ele><time>2026-05-01T16:30:32.999Z</time></trkpt><trkpt lat="41.47798550735778" lon="13.727900473009496"><ele>102.0</ele><time>2026-05-01T16:30:33.999Z</time></trkpt><trkpt lat="41.47780532322137" lon="13.728315693611428"><ele>101.0</ele><time>2026-05-01T16:30:34.999Z</time></trkpt><trkpt lat="41.47762433955416" lon="13.72873288433778"><ele>101.0</ele><time>2026-05-01T16:30:35.999Z</time></trkpt><trkpt lat="41.47744443289666" lon="13.72914891506532"><ele>101.0</ele><time>2026-05-01T16:30:36.999Z</time></trkpt><trkpt lat="41.47726528639495" lon="13.729564602900947"><ele>101.5</ele><time>2026-05-01T16:30:37.999Z</time></trkpt><trkpt lat="41.47708569135901" lon="13.72998277439082"><ele>102.0</ele><time>2026-05-01T16:30:39Z</time></trkpt><trkpt lat="41.4769052237305" lon="13.730405194893958"><ele>102.0</ele><time>2026-05-01T16:30:40Z</time></trkpt><trkpt lat="41.47672661621529" lon="13.730824992892945"><ele>102.0</ele><time>2026-05-01T16:30:41Z</time></trkpt><trkpt lat="41.476547780910806" lon="13.731244230198513"><ele>102.0</ele><time>2026-05-01T16:30:42Z</time></trkpt><trkpt lat="41.47636854153855" lon="13.73166290308443"><ele>102.0</ele><time>2026-05-01T16:30:43Z</time></trkpt><trkpt lat="41.4761893831723" lon="13.732079083148118"><ele>102.5</ele><time>2026-05-01T16:30:44Z</time></trkpt><trkpt lat="41.47600712532297" lon="13.732494752858567"><ele>103.0</ele><time>2026-05-01T16:30:45Z</time></trkpt><trkpt lat="41.47582723588529" lon="13.732910392637724"><ele>103.0</ele><time>2026-05-01T16:30:46Z</time></trkpt><trkpt lat="41.47564681349995" lon="13.733327182605628"><ele>103.0</ele><time>2026-05-01T16:30:47Z</time></trkpt><trkpt lat="41.47546730074881" lon="13.733744894184822"><ele>101.5</ele><time>2026-05-01T16:30:48Z</time></trkpt><trkpt lat="41.47529049481385" lon="13.734160881759369"><ele>100.0</ele><time>2026-05-01T16:30:49Z</time></trkpt><trkpt lat="41.475112234037645" lon="13.734574862726651"><ele>100.0</ele><time>2026-05-01T16:30:50Z</time></trkpt><trkpt lat="41.47493447099879" lon="13.734988085263817"><ele>100.0</ele><time>2026-05-01T16:30:51Z</time></trkpt><trkpt lat="41.47475690246578" lon="13.735399620899253"><ele>100.5</ele><time>2026-05-01T16:30:52Z</time></trkpt><trkpt lat="41.47458086978541" lon="13.735809890764264"><ele>101.0</ele><time>2026-05-01T16:30:53Z</time></trkpt><trkpt lat="41.474404829028366" lon="13.73621881292869"><ele>101.0</ele><time>2026-05-01T16:30:54Z</time></trkpt><trkpt lat="41.47422621438204" lon="13.7366334301406"><ele>101.0</ele><time>2026-05-01T16:30:55Z</time></trkpt><trkpt lat="41.47404801546786" lon="13.73704855011807"><ele>101.0</ele><time>2026-05-01T16:30:56Z</time></trkpt><trkpt lat="41.47387224008273" lon="13.737462097081274"><ele>101.0</ele><time>2026-05-01T16:30:57Z</time></trkpt><trkpt lat="41.473695905341586" lon="13.737875309929294"><ele>101.0</ele><time>2026-05-01T16:30:58Z</time></trkpt><trkpt lat="41.47351882231282" lon="13.738287571071519"><ele>101.0</ele><time>2026-05-01T16:30:59Z</time></trkpt><trkpt lat="41.473340829751535" lon="13.738698243633566"><ele>99.5</ele><time>2026-05-01T16:31:00Z</time></trkpt><trkpt lat="41.47316474680205" lon="13.739106470742188"><ele>98.0</ele><time>2026-05-01T16:31:01Z</time></trkpt><trkpt lat="41.472988434732805" lon="13.73951734408459"><ele>98.0</ele><time>2026-05-01T16:31:02Z</time></trkpt><trkpt lat="41.47281446401138" lon="13.739926299289266"><ele>98.0</ele><time>2026-05-01T16:31:03Z</time></trkpt><trkpt lat="41.47264093864242" lon="13.740332754240438"><ele>97.5</ele><time>2026-05-01T16:31:04Z</time></trkpt><trkpt lat="41.472467018810605" lon="13.740738412346415"><ele>97.0</ele><time>2026-05-01T16:31:05Z</time></trkpt><trkpt lat="41.47229074884092" lon="13.741147588828845"><ele>97.0</ele><time>2026-05-01T16:31:06Z</time></trkpt><trkpt lat="41.47211581365426" lon="13.74155562926262"><ele>97.0</ele><time>2026-05-01T16:31:07Z</time></trkpt><trkpt lat="41.47194039124278" lon="13.741963818475012"><ele>97.0</ele><time>2026-05-01T16:31:08Z</time></trkpt><trkpt lat="41.471765152957786" lon="13.742372414661286"><ele>97.0</ele><time>2026-05-01T16:31:09Z</time></trkpt><trkpt lat="41.47158766973059" lon="13.742783093899387"><ele>97.0</ele><time>2026-05-01T16:31:10Z</time></trkpt><trkpt lat="41.471410022624546" lon="13.743191429059847"><ele>97.0</ele><time>2026-05-01T16:31:11Z</time></trkpt><trkpt lat="41.47123249550701" lon="13.743604851332844"><ele>96.0</ele><time>2026-05-01T16:31:12Z</time></trkpt><trkpt lat="41.47105287564082" lon="13.744019023392692"><ele>95.0</ele><time>2026-05-01T16:31:13Z</time></trkpt><trkpt lat="41.47087407469828" lon="13.744435202188939"><ele>95.0</ele><time>2026-05-01T16:31:14Z</time></trkpt><trkpt lat="41.47069415206124" lon="13.744851941648625"><ele>95.0</ele><time>2026-05-01T16:31:15Z</time></trkpt><trkpt lat="41.470518196917766" lon="13.74526385835081"><ele>95.5</ele><time>2026-05-01T16:31:16Z</time></trkpt><trkpt lat="41.470345196093376" lon="13.745672444848989"><ele>96.0</ele><time>2026-05-01T16:31:17Z</time></trkpt><trkpt lat="41.4701781204678" lon="13.746081608212416"><ele>97.0</ele><time>2026-05-01T16:31:18Z</time></trkpt><trkpt lat="41.47001952399582" lon="13.746495721620995"><ele>98.0</ele><time>2026-05-01T16:31:19Z</time></trkpt><trkpt lat="41.4698687824768" lon="13.746918005469215"><ele>98.0</ele><time>2026-05-01T16:31:20Z</time></trkpt><trkpt lat="41.46972290940193" lon="13.74734756935984"><ele>98.0</ele><time>2026-05-01T16:31:21Z</time></trkpt><trkpt lat="41.46958088569084" lon="13.747783695329357"><ele>98.0</ele><time>2026-05-01T16:31:22Z</time></trkpt><trkpt lat="41.469446763573394" lon="13.748227514446748"><ele>98.0</ele><time>2026-05-01T16:31:23Z</time></trkpt><trkpt lat="41.469316247772255" lon="13.748674280576457"><ele>97.0</ele><time>2026-05-01T16:31:24Z</time></trkpt><trkpt lat="41.46919178802029" lon="13.749125679576418"><ele>96.0</ele><time>2026-05-01T16:31:25Z</time></trkpt><trkpt lat="41.469073332060425" lon="13.749579882539889"><ele>96.0</ele><time>2026-05-01T16:31:26Z</time></trkpt><trkpt lat="41.46896246701824" lon="13.750036670863757"><ele>96.0</ele><time>2026-05-01T16:31:27Z</time></trkpt><trkpt lat="41.46886063345056" lon="13.750497522525082"><ele>96.0</ele><time>2026-05-01T16:31:28Z</time></trkpt><trkpt lat="41.468762887812204" lon="13.750959814207382"><ele>96.0</ele><time>2026-05-01T16:31:29Z</time></trkpt><trkpt lat="41.46866529471828" lon="13.751421381859096"><ele>94.5</ele><time>2026-05-01T16:31:30Z</time></trkpt><trkpt lat="41.468564969126284" lon="13.751881111609631"><ele>93.0</ele><time>2026-05-01T16:31:31Z</time></trkpt><trkpt lat="41.46846362263799" lon="13.752340816267335"><ele>93.0</ele><time>2026-05-01T16:31:32Z</time></trkpt><trkpt lat="41.46836340056629" lon="13.752799423694196"><ele>93.0</ele><time>2026-05-01T16:31:33Z</time></trkpt><trkpt lat="41.46826241747603" lon="13.753258036143087"><ele>92.5</ele><time>2026-05-01T16:31:34Z</time></trkpt><trkpt lat="41.468158925713595" lon="13.753717109594842"><ele>92.0</ele><time>2026-05-01T16:31:35Z</time></trkpt><trkpt lat="41.46805605219092" lon="13.75417443778213"><ele>92.0</ele><time>2026-05-01T16:31:36Z</time></trkpt><trkpt lat="41.46795202921479" lon="13.75462835347154"><ele>92.0</ele><time>2026-05-01T16:31:37Z</time></trkpt><trkpt lat="41.46785033861042" lon="13.755082960126224"><ele>91.5</ele><time>2026-05-01T16:31:38Z</time></trkpt><trkpt lat="41.46775200498308" lon="13.755538763950943"><ele>91.0</ele><time>2026-05-01T16:31:39Z</time></trkpt><trkpt lat="41.467653923713264" lon="13.755997215651725"><ele>90.5</ele><time>2026-05-01T16:31:40Z</time></trkpt><trkpt lat="41.46755314077369" lon="13.756457219297152"><ele>90.0</ele><time>2026-05-01T16:31:41Z</time></trkpt><trkpt lat="41.467450466866744" lon="13.756916047910543"><ele>90.0</ele><time>2026-05-01T16:31:42Z</time></trkpt><trkpt lat="41.46734713778018" lon="13.757377752897682"><ele>90.0</ele><time>2026-05-01T16:31:43Z</time></trkpt><trkpt lat="41.46724455214223" lon="13.75784565205093"><ele>89.0</ele><time>2026-05-01T16:31:43.999Z</time></trkpt><trkpt lat="41.46714287324465" lon="13.758311599326081"><ele>88.0</ele><time>2026-05-01T16:31:44.999Z</time></trkpt><trkpt lat="41.46704136837668" lon="13.758776507732236"><ele>88.0</ele><time>2026-05-01T16:31:45.999Z</time></trkpt><trkpt lat="41.46693960018265" lon="13.75923998600766"><ele>88.0</ele><time>2026-05-01T16:31:46.999Z</time></trkpt><trkpt lat="41.46683623636025" lon="13.759702762641306"><ele>88.0</ele><time>2026-05-01T16:31:47.999Z</time></trkpt><trkpt lat="41.46673329886415" lon="13.760166175102533"><ele>88.0</ele><time>2026-05-01T16:31:48.999Z</time></trkpt><trkpt lat="41.46663105766543" lon="13.760627801214742"><ele>86.5</ele><time>2026-05-01T16:31:49.999Z</time></trkpt><trkpt lat="41.46652980963891" lon="13.761087583021826"><ele>85.0</ele><time>2026-05-01T16:31:50.999Z</time></trkpt><trkpt lat="41.4664291751596" lon="13.761546889572447"><ele>85.0</ele><time>2026-05-01T16:31:51.999Z</time></trkpt><trkpt lat="41.46632777957429" lon="13.762010510566267"><ele>85.0</ele><time>2026-05-01T16:31:52.999Z</time></trkpt><trkpt lat="41.46622524621499" lon="13.762473873632768"><ele>85.5</ele><time>2026-05-01T16:31:53.999Z</time></trkpt><trkpt lat="41.466122525635754" lon="13.762937523180419"><ele>86.0</ele><time>2026-05-01T16:31:54.999Z</time></trkpt><trkpt lat="41.46602062632106" lon="13.76340163971778"><ele>85.5</ele><time>2026-05-01T16:31:55.999Z</time></trkpt><trkpt lat="41.46591730374882" lon="13.763868816642114"><ele>85.0</ele><time>2026-05-01T16:31:56.999Z</time></trkpt><trkpt lat="41.46581603847623" lon="13.76433128907753"><ele>82.5</ele><time>2026-05-01T16:31:57.999Z</time></trkpt><trkpt lat="41.46571341444945" lon="13.764797059757324"><ele>80.0</ele><time>2026-05-01T16:31:58.999Z</time></trkpt><trkpt lat="41.4656108546877" lon="13.765264878356268"><ele>78.0</ele><time>2026-05-01T16:31:59.999Z</time></trkpt><trkpt lat="41.46550930375256" lon="13.765734312733176"><ele>76.0</ele><time>2026-05-01T16:32:00.999Z</time></trkpt><trkpt lat="41.46540555444134" lon="13.766203337862828"><ele>75.5</ele><time>2026-05-01T16:32:01.999Z</time></trkpt><trkpt lat="41.465301581270296" lon="13.766672264640125"><ele>75.0</ele><time>2026-05-01T16:32:02.999Z</time></trkpt><trkpt lat="41.465197671369225" lon="13.767141236593728"><ele>74.0</ele><time>2026-05-01T16:32:03.999Z</time></trkpt><trkpt lat="41.46509302252845" lon="13.76761222511637"><ele>73.0</ele><time>2026-05-01T16:32:04.999Z</time></trkpt><trkpt lat="41.46499015497921" lon="13.768078820830993"><ele>72.5</ele><time>2026-05-01T16:32:05.999Z</time></trkpt><trkpt lat="41.46488726543049" lon="13.768549144900549"><ele>72.0</ele><time>2026-05-01T16:32:06.999Z</time></trkpt><trkpt lat="41.46478344910376" lon="13.769023774233801"><ele>72.0</ele><time>2026-05-01T16:32:07.999Z</time></trkpt><trkpt lat="41.46467991390339" lon="13.769497988230434"><ele>72.0</ele><time>2026-05-01T16:32:08.999Z</time></trkpt><trkpt lat="41.4645821874592" lon="13.769968837443606"><ele>72.0</ele><time>2026-05-01T16:32:09.999Z</time></trkpt><trkpt lat="41.464486548217394" lon="13.770438311094884"><ele>72.0</ele><time>2026-05-01T16:32:10.999Z</time></trkpt><trkpt lat="41.464388942893095" lon="13.770904313818786"><ele>71.0</ele><time>2026-05-01T16:32:11.999Z</time></trkpt><trkpt lat="41.464288900671676" lon="13.771367641131901"><ele>70.0</ele><time>2026-05-01T16:32:12.999Z</time></trkpt><trkpt lat="41.464186142246334" lon="13.771827846463594"><ele>69.5</ele><time>2026-05-01T16:32:13.999Z</time></trkpt><trkpt lat="41.464081522903925" lon="13.772289347312935"><ele>69.0</ele><time>2026-05-01T16:32:14.999Z</time></trkpt><trkpt lat="41.4639755978974" lon="13.772752523147924"><ele>68.5</ele><time>2026-05-01T16:32:15.999Z</time></trkpt><trkpt lat="41.46386953536152" lon="13.773217394363572"><ele>68.0</ele><time>2026-05-01T16:32:16.999Z</time></trkpt><trkpt lat="41.4637633065298" lon="13.773685556991401"><ele>68.0</ele><time>2026-05-01T16:32:17.999Z</time></trkpt><trkpt lat="41.463659396705964" lon="13.774152496980186"><ele>68.0</ele><time>2026-05-01T16:32:18.999Z</time></trkpt><trkpt lat="41.46355622755124" lon="13.77461680310525"><ele>68.0</ele><time>2026-05-01T16:32:19.999Z</time></trkpt><trkpt lat="41.46345203273792" lon="13.775081507195043"><ele>68.0</ele><time>2026-05-01T16:32:20.999Z</time></trkpt><trkpt lat="41.46334813422226" lon="13.77554732210469"><ele>67.5</ele><time>2026-05-01T16:32:21.999Z</time></trkpt><trkpt lat="41.46324431528303" lon="13.776009329743616"><ele>67.0</ele><time>2026-05-01T16:32:22.999Z</time></trkpt><trkpt lat="41.46313986940869" lon="13.776471409338768"><ele>66.5</ele><time>2026-05-01T16:32:23.999Z</time></trkpt><trkpt lat="41.46303598028451" lon="13.77693577698856"><ele>66.0</ele><time>2026-05-01T16:32:24.999Z</time></trkpt><trkpt lat="41.462931580262264" lon="13.777399241673203"><ele>65.5</ele><time>2026-05-01T16:32:25.999Z</time></trkpt><trkpt lat="41.46282616763602" lon="13.777859247155664"><ele>65.0</ele><time>2026-05-01T16:32:26.999Z</time></trkpt><trkpt lat="41.46272118730033" lon="13.778317140242459"><ele>65.5</ele><time>2026-05-01T16:32:27.999Z</time></trkpt><trkpt lat="41.462616944216904" lon="13.77877793279789"><ele>66.0</ele><time>2026-05-01T16:32:28.999Z</time></trkpt><trkpt lat="41.462517011615915" lon="13.779230566148037"><ele>66.5</ele><time>2026-05-01T16:32:29.999Z</time></trkpt><trkpt lat="41.462424540040516" lon="13.779650813962805"><ele>67.0</ele><time>2026-05-01T16:32:30.999Z</time></trkpt><trkpt lat="41.462338540320296" lon="13.780046312584314"><ele>67.0</ele><time>2026-05-01T16:32:31.999Z</time></trkpt><trkpt lat="41.462254337808055" lon="13.780439239541343"><ele>67.0</ele><time>2026-05-01T16:32:32.999Z</time></trkpt><trkpt lat="41.462165712623154" lon="13.780841123127749"><ele>69.0</ele><time>2026-05-01T16:32:33.999Z</time></trkpt><trkpt lat="41.46207107801556" lon="13.781258181275733"><ele>71.0</ele><time>2026-05-01T16:32:34.999Z</time></trkpt><trkpt lat="41.46197298417768" lon="13.781683888839817"><ele>73.0</ele><time>2026-05-01T16:32:35.999Z</time></trkpt><trkpt lat="41.46187447134565" lon="13.78211406987585"><ele>75.0</ele><time>2026-05-01T16:32:36.999Z</time></trkpt><trkpt lat="41.46177613538912" lon="13.782547806829616"><ele>75.5</ele><time>2026-05-01T16:32:37.999Z</time></trkpt><trkpt lat="41.46167773401895" lon="13.782985069868266"><ele>76.0</ele><time>2026-05-01T16:32:38.999Z</time></trkpt><trkpt lat="41.461575656376475" lon="13.783427424679727"><ele>77.0</ele><time>2026-05-01T16:32:39.999Z</time></trkpt><trkpt lat="41.46147056599779" lon="13.783872179376385"><ele>78.0</ele><time>2026-05-01T16:32:40.999Z</time></trkpt><trkpt lat="41.46136859554858" lon="13.784317053420802"><ele>77.5</ele><time>2026-05-01T16:32:41.999Z</time></trkpt><trkpt lat="41.46126739189593" lon="13.784761954056602"><ele>77.0</ele><time>2026-05-01T16:32:42.999Z</time></trkpt><trkpt lat="41.4611674991653" lon="13.78520591329764"><ele>77.0</ele><time>2026-05-01T16:32:44Z</time></trkpt><trkpt lat="41.461071511465136" lon="13.785644809487572"><ele>77.0</ele><time>2026-05-01T16:32:45Z</time></trkpt><trkpt lat="41.46097563733041" lon="13.786080466295036"><ele>77.0</ele><time>2026-05-01T16:32:46Z</time></trkpt><trkpt lat="41.46087976240988" lon="13.786511808269225"><ele>77.0</ele><time>2026-05-01T16:32:47Z</time></trkpt><trkpt lat="41.46078640504844" lon="13.786929025743229"><ele>77.5</ele><time>2026-05-01T16:32:48Z</time></trkpt><trkpt lat="41.46069518599329" lon="13.787333949730463"><ele>78.0</ele><time>2026-05-01T16:32:49Z</time></trkpt><trkpt lat="41.46060758678945" lon="13.787729495749833"><ele>78.0</ele><time>2026-05-01T16:32:50Z</time></trkpt><trkpt lat="41.4605247717865" lon="13.788108675323212"><ele>78.0</ele><time>2026-05-01T16:32:51Z</time></trkpt><trkpt lat="41.460442850117786" lon="13.788478447068256"><ele>75.5</ele><time>2026-05-01T16:32:52Z</time></trkpt><trkpt lat="41.460360691341535" lon="13.788843012902845"><ele>73.0</ele><time>2026-05-01T16:32:53Z</time></trkpt><trkpt lat="41.4602821837612" lon="13.789197903562464"><ele>73.5</ele><time>2026-05-01T16:32:54Z</time></trkpt><trkpt lat="41.46020480360669" lon="13.789553109964539"><ele>74.0</ele><time>2026-05-01T16:32:55Z</time></trkpt><trkpt lat="41.46012780327097" lon="13.789900147217478"><ele>75.5</ele><time>2026-05-01T16:32:56Z</time></trkpt><trkpt lat="41.460051314488865" lon="13.790241127655671"><ele>77.0</ele><time>2026-05-01T16:32:57Z</time></trkpt><trkpt lat="41.45997516542194" lon="13.790579453305705"><ele>77.0</ele><time>2026-05-01T16:32:58Z</time></trkpt><trkpt lat="41.45990000082339" lon="13.790909251838242"><ele>77.0</ele><time>2026-05-01T16:32:59Z</time></trkpt><trkpt lat="41.45982404828577" lon="13.791231600459335"><ele>78.5</ele><time>2026-05-01T16:33:00Z</time></trkpt><trkpt lat="41.45975148347835" lon="13.79153971282941"><ele>80.0</ele><time>2026-05-01T16:33:01Z</time></trkpt><trkpt lat="41.459683567137496" lon="13.791835274886305"><ele>80.66666666666667</ele><time>2026-05-01T16:33:02Z</time></trkpt><trkpt lat="41.459618939771154" lon="13.792119297246687"><ele>81.33333333333333</ele><time>2026-05-01T16:33:03Z</time></trkpt><trkpt lat="41.45955487814121" lon="13.79239769005118"><ele>82.0</ele><time>2026-05-01T16:33:04Z</time></trkpt><trkpt lat="41.4594926841812" lon="13.792666926631629"><ele>80.33333333333333</ele><time>2026-05-01T16:33:05Z</time></trkpt><trkpt lat="41.45943318496327" lon="13.792918020293676"><ele>78.66666666666667</ele><time>2026-05-01T16:33:06Z</time></trkpt><trkpt lat="41.45937585155335" lon="13.793154096735812"><ele>77.0</ele><time>2026-05-01T16:33:07Z</time></trkpt><trkpt lat="41.459338181852104" lon="13.793383949514771"><ele>76.33333333333334</ele><time>2026-05-01T16:33:08Z</time></trkpt><trkpt lat="41.45925540973538" lon="13.793580054166624"><ele>75.66666666666667</ele><time>2026-05-01T16:33:09Z</time></trkpt><trkpt lat="41.4591737804581" lon="13.79376060957869"><ele>75.0</ele><time>2026-05-01T16:33:10Z</time></trkpt><trkpt lat="41.45907751885053" lon="13.79391756017745"><ele>75.0</ele><time>2026-05-01T16:33:11Z</time></trkpt><trkpt lat="41.458968826269974" lon="13.794052340614368"><ele>75.0</ele><time>2026-05-01T16:33:12Z</time></trkpt><trkpt lat="41.45885200765345" lon="13.794166549268738"><ele>75.0</ele><time>2026-05-01T16:33:13Z</time></trkpt><trkpt lat="41.45871809467862" lon="13.794233978087256"><ele>75.0</ele><time>2026-05-01T16:33:14Z</time></trkpt><trkpt lat="41.458584220769445" lon="13.794271165552518"><ele>74.75</ele><time>2026-05-01T16:33:15Z</time></trkpt><trkpt lat="41.45845865959287" lon="13.79430070384137"><ele>74.5</ele><time>2026-05-01T16:33:16Z</time></trkpt><trkpt lat="41.45834839974578" lon="13.794358750955219"><ele>74.25</ele><time>2026-05-01T16:33:17Z</time></trkpt><trkpt lat="41.4582615530036" lon="13.794457113694174"><ele>74.0</ele><time>2026-05-01T16:33:18Z</time></trkpt><trkpt lat="41.458200770373665" lon="13.794580596621653"><ele>74.0</ele><time>2026-05-01T16:33:19Z</time></trkpt><trkpt lat="41.45816666605531" lon="13.794717800212254"><ele>74.0</ele><time>2026-05-01T16:33:20Z</time></trkpt><trkpt lat="41.45815862323215" lon="13.794850982208915"><ele>74.0</ele><time>2026-05-01T16:33:21Z</time></trkpt><trkpt lat="41.45817665948854" lon="13.794984436820812"><ele>74.0</ele><time>2026-05-01T16:33:22Z</time></trkpt><trkpt lat="41.45821926213268" lon="13.795110903314098"><ele>74.0</ele><time>2026-05-01T16:33:23Z</time></trkpt><trkpt lat="41.45828276524924" lon="13.795222671054205"><ele>74.0</ele><time>2026-05-01T16:33:24Z</time></trkpt><trkpt lat="41.458361627533776" lon="13.795316339476361"><ele>74.0</ele><time>2026-05-01T16:33:25Z</time></trkpt><trkpt lat="41.45845536592875" lon="13.795392458948129"><ele>74.0</ele><time>2026-05-01T16:33:26Z</time></trkpt><trkpt lat="41.45855920297085" lon="13.795450247106414"><ele>74.0</ele><time>2026-05-01T16:33:27Z</time></trkpt><trkpt lat="41.45866901632187" lon="13.795494192483105"><ele>74.0</ele><time>2026-05-01T16:33:28Z</time></trkpt><trkpt lat="41.45878042002172" lon="13.795538723180787"><ele>74.75</ele><time>2026-05-01T16:33:29Z</time></trkpt><trkpt lat="41.458896472477925" lon="13.795584670452902"><ele>75.5</ele><time>2026-05-01T16:33:30Z</time></trkpt><trkpt lat="41.45901478920569" lon="13.79562737790032"><ele>76.25</ele><time>2026-05-01T16:33:31Z</time></trkpt><trkpt lat="41.45913896690256" lon="13.795671250983613"><ele>77.0</ele><time>2026-05-01T16:33:32Z</time></trkpt><trkpt lat="41.45926231331844" lon="13.79571784118745"><ele>77.0</ele><time>2026-05-01T16:33:33Z</time></trkpt><trkpt lat="41.45938395228375" lon="13.795768760743622"><ele>77.0</ele><time>2026-05-01T16:33:34Z</time></trkpt><trkpt lat="41.45949852027912" lon="13.795830938614008"><ele>77.0</ele><time>2026-05-01T16:33:35Z</time></trkpt><trkpt lat="41.45959933104377" lon="13.795904800281997"><ele>77.0</ele><time>2026-05-01T16:33:36Z</time></trkpt><trkpt lat="41.45967846473992" lon="13.795974876782031"><ele>77.33333333333334</ele><time>2026-05-01T16:33:37Z</time></trkpt><trkpt lat="41.45974522990835" lon="13.79604569368636"><ele>77.66666666666667</ele><time>2026-05-01T16:33:38Z</time></trkpt><trkpt lat="41.4597982722315" lon="13.796109869310618"><ele>78.0</ele><time>2026-05-01T16:33:39Z</time></trkpt><trkpt lat="41.45985573905559" lon="13.796190237657255"><ele>78.33333333333333</ele><time>2026-05-01T16:33:40Z</time></trkpt><trkpt lat="41.45991105409821" lon="13.796292183844434"><ele>78.66666666666666</ele><time>2026-05-01T16:33:41Z</time></trkpt><trkpt lat="41.45995634853163" lon="13.796413893279214"><ele>79.0</ele><time>2026-05-01T16:33:42Z</time></trkpt><trkpt lat="41.45998592016904" lon="13.796544454343275"><ele>79.0</ele><time>2026-05-01T16:33:43Z</time></trkpt><trkpt lat="41.45999908369925" lon="13.796678735883486"><ele>79.0</ele><time>2026-05-01T16:33:44Z</time></trkpt><trkpt lat="41.45999506522234" lon="13.796808192977142"><ele>79.0</ele><time>2026-05-01T16:33:45Z</time></trkpt><trkpt lat="41.45998423175962" lon="13.796927865969044"><ele>79.0</ele><time>2026-05-01T16:33:46Z</time></trkpt><trkpt lat="41.4599556385402" lon="13.797038756976315"><ele>79.0</ele><time>2026-05-01T16:33:47Z</time></trkpt><trkpt lat="41.459947641253294" lon="13.797149352378653"><ele>79.0</ele><time>2026-05-01T16:33:48Z</time></trkpt><trkpt lat="41.45994295394002" lon="13.79725360605078"><ele>79.0</ele><time>2026-05-01T16:33:49Z</time></trkpt><trkpt lat="41.45993955618804" lon="13.797351414825053"><ele>79.0</ele><time>2026-05-01T16:33:50Z</time></trkpt><trkpt lat="41.459937856450765" lon="13.797441472978514"><ele>79.0</ele><time>2026-05-01T16:33:51Z</time></trkpt><trkpt lat="41.45993622137624" lon="13.797528105124298"><ele>79.0</ele><time>2026-05-01T16:33:52Z</time></trkpt><trkpt lat="41.45993313475658" lon="13.797698936363425"><ele>79.0</ele><time>2026-05-01T16:33:54Z</time></trkpt><trkpt lat="41.45993166231326" lon="13.797791798453565"><ele>79.0</ele><time>2026-05-01T16:33:55Z</time></trkpt><trkpt lat="41.45993117077648" lon="13.797889341379962"><ele>79.0</ele><time>2026-05-01T16:33:56Z</time></trkpt><trkpt lat="41.459944543284465" lon="13.797992107872824"><ele>79.0</ele><time>2026-05-01T16:33:57Z</time></trkpt><trkpt lat="41.45993721184921" lon="13.798095429066459"><ele>79.0</ele><time>2026-05-01T16:33:58Z</time></trkpt><trkpt lat="41.45992445705358" lon="13.7982205769927"><ele>79.0</ele><time>2026-05-01T16:33:59Z</time></trkpt><trkpt lat="41.459908996797814" lon="13.798341876109982"><ele>79.0</ele><time>2026-05-01T16:34:00Z</time></trkpt><trkpt lat="41.459938781882414" lon="13.79845586679327"><ele>78.83333333333333</ele><time>2026-05-01T16:34:00.999Z</time></trkpt><trkpt lat="41.45993928699609" lon="13.798555475322933"><ele>78.66666666666666</ele><time>2026-05-01T16:34:01.999Z</time></trkpt><trkpt lat="41.45993964297627" lon="13.798703386906102"><ele>78.5</ele><time>2026-05-01T16:34:03.999Z</time></trkpt><trkpt lat="41.45993651344667" lon="13.79880562302435"><ele>78.33333333333333</ele><time>2026-05-01T16:35:07Z</time></trkpt><trkpt lat="41.459956676821434" lon="13.798928127535946"><ele>78.16666666666667</ele><time>2026-05-01T16:35:09Z</time></trkpt><trkpt lat="41.45993917756399" lon="13.799040720188444"><ele>78.0</ele><time>2026-05-01T16:35:11Z</time></trkpt><trkpt lat="41.45989807241752" lon="13.799155317737641"><ele>78.0</ele><time>2026-05-01T16:35:13Z</time></trkpt><trkpt lat="41.459858632394536" lon="13.799229486734763"><ele>78.0</ele><time>2026-05-01T16:35:16Z</time></trkpt><trkpt lat="41.45981137556276" lon="13.799295613000112"><ele>78.0</ele><time>2026-05-01T16:35:18Z</time></trkpt><trkpt lat="41.45970415229267" lon="13.799389991596316"><ele>78.0</ele><time>2026-05-01T16:35:20Z</time></trkpt><trkpt lat="41.45964395159805" lon="13.799434432644908"><ele>78.0</ele><time>2026-05-01T16:35:21Z</time></trkpt><trkpt lat="41.45959355885208" lon="13.799517510698143"><ele>78.0</ele><time>2026-05-01T16:35:23Z</time></trkpt><trkpt lat="41.459750574365366" lon="13.799913905794401"><ele>78.0</ele><time>2026-05-01T16:35:24Z</time></trkpt><trkpt lat="41.45982727873662" lon="13.800006677365644"><ele>78.0</ele><time>2026-05-01T16:35:26Z</time></trkpt><trkpt lat="41.45995743568614" lon="13.80005910618215"><ele>78.0</ele><time>2026-05-01T16:35:28Z</time></trkpt><trkpt lat="41.460039530157864" lon="13.800057620803374"><ele>78.0</ele><time>2026-05-01T16:35:29Z</time></trkpt><trkpt lat="41.46012557670798" lon="13.800036755150595"><ele>78.0</ele><time>2026-05-01T16:35:30Z</time></trkpt><trkpt lat="41.46021390070069" lon="13.800037346063927"><ele>78.0</ele><time>2026-05-01T16:35:31Z</time></trkpt><trkpt lat="41.46030188246205" lon="13.800063513040215"><ele>78.0</ele><time>2026-05-01T16:35:32Z</time></trkpt><trkpt lat="41.46039632854919" lon="13.800108664180689"><ele>78.0</ele><time>2026-05-01T16:35:33Z</time></trkpt><trkpt lat="41.4605042852905" lon="13.800172139452085"><ele>78.0</ele><time>2026-05-01T16:35:34Z</time></trkpt><trkpt lat="41.46061695656357" lon="13.8002479735897"><ele>78.0</ele><time>2026-05-01T16:35:35Z</time></trkpt><trkpt lat="41.46073612442133" lon="13.800335706595725"><ele>77.75</ele><time>2026-05-01T16:35:36Z</time></trkpt><trkpt lat="41.46085761332673" lon="13.800426474776456"><ele>77.5</ele><time>2026-05-01T16:35:37Z</time></trkpt><trkpt lat="41.4609777796685" lon="13.800514980592526"><ele>77.25</ele><time>2026-05-01T16:35:38Z</time></trkpt><trkpt lat="41.46108806160733" lon="13.800599571602516"><ele>77.0</ele><time>2026-05-01T16:35:39Z</time></trkpt><trkpt lat="41.46118579723568" lon="13.800676737256488"><ele>77.0</ele><time>2026-05-01T16:35:40Z</time></trkpt><trkpt lat="41.46127829449336" lon="13.800752493538932"><ele>77.0</ele><time>2026-05-01T16:35:41Z</time></trkpt><trkpt lat="41.46136642175069" lon="13.800821434638433"><ele>77.0</ele><time>2026-05-01T16:35:42Z</time></trkpt><trkpt lat="41.46145286489102" lon="13.800886364292138"><ele>77.0</ele><time>2026-05-01T16:35:43Z</time></trkpt><trkpt lat="41.46154090954074" lon="13.800954255279839"><ele>77.0</ele><time>2026-05-01T16:35:44Z</time></trkpt><trkpt lat="41.46162431915393" lon="13.801020359003648"><ele>76.66666666666667</ele><time>2026-05-01T16:35:45Z</time></trkpt><trkpt lat="41.46170215807105" lon="13.801084378681528"><ele>76.33333333333334</ele><time>2026-05-01T16:35:46Z</time></trkpt><trkpt lat="41.46177889771101" lon="13.801147601125214"><ele>76.0</ele><time>2026-05-01T16:35:47Z</time></trkpt><trkpt lat="41.461856287648466" lon="13.801210198455541"><ele>75.66666666666667</ele><time>2026-05-01T16:35:48Z</time></trkpt><trkpt lat="41.46193270970552" lon="13.80127202225943"><ele>75.33333333333333</ele><time>2026-05-01T16:35:49Z</time></trkpt><trkpt lat="41.462006357071125" lon="13.801333549455988"><ele>75.0</ele><time>2026-05-01T16:35:50Z</time></trkpt><trkpt lat="41.46207696866708" lon="13.801391221453388"><ele>74.33333333333333</ele><time>2026-05-01T16:35:51Z</time></trkpt><trkpt lat="41.46214506868231" lon="13.801441338414199"><ele>73.66666666666667</ele><time>2026-05-01T16:35:52Z</time></trkpt><trkpt lat="41.46221286273705" lon="13.80148567991145"><ele>73.0</ele><time>2026-05-01T16:35:53Z</time></trkpt><trkpt lat="41.46228011151528" lon="13.80152299970244"><ele>72.33333333333334</ele><time>2026-05-01T16:35:54Z</time></trkpt><trkpt lat="41.46234022568311" lon="13.80155570756613"><ele>71.66666666666667</ele><time>2026-05-01T16:35:55Z</time></trkpt><trkpt lat="41.46244677568364" lon="13.801606675770273"><ele>71.0</ele><time>2026-05-01T16:35:57Z</time></trkpt><trkpt lat="41.46251784574276" lon="13.801657144746386"><ele>71.0</ele><time>2026-05-01T16:35:59Z</time></trkpt><trkpt lat="41.462584586907724" lon="13.80173015355985"><ele>71.0</ele><time>2026-05-01T16:36:01Z</time></trkpt><trkpt lat="41.462632936293566" lon="13.801789312073257"><ele>71.0</ele><time>2026-05-01T16:36:02Z</time></trkpt><trkpt lat="41.462688162401335" lon="13.80186050827137"><ele>71.0</ele><time>2026-05-01T16:36:03Z</time></trkpt><trkpt lat="41.46274926842166" lon="13.801933621132228"><ele>71.0</ele><time>2026-05-01T16:36:04Z</time></trkpt><trkpt lat="41.46281398087064" lon="13.802005558668938"><ele>71.0</ele><time>2026-05-01T16:36:05Z</time></trkpt><trkpt lat="41.462885544455524" lon="13.802082735684715"><ele>71.2</ele><time>2026-05-01T16:36:05.999Z</time></trkpt><trkpt lat="41.46296059226883" lon="13.802166032690712"><ele>71.39999999999999</ele><time>2026-05-01T16:36:06.999Z</time></trkpt><trkpt lat="41.46303635503928" lon="13.802258135239581"><ele>71.6</ele><time>2026-05-01T16:36:07.999Z</time></trkpt><trkpt lat="41.46311795337469" lon="13.802364687826218"><ele>71.8</ele><time>2026-05-01T16:36:08.999Z</time></trkpt><trkpt lat="41.46319891263048" lon="13.802482292531113"><ele>72.0</ele><time>2026-05-01T16:36:09.999Z</time></trkpt><trkpt lat="41.46328641467955" lon="13.802615387032418"><ele>72.0</ele><time>2026-05-01T16:36:10.999Z</time></trkpt><trkpt lat="41.46337200124721" lon="13.802746062358077"><ele>72.0</ele><time>2026-05-01T16:36:11.999Z</time></trkpt><trkpt lat="41.46345923194719" lon="13.802886095584885"><ele>72.0</ele><time>2026-05-01T16:36:12.999Z</time></trkpt><trkpt lat="41.46354944088727" lon="13.803039286031762"><ele>72.0</ele><time>2026-05-01T16:36:13.999Z</time></trkpt><trkpt lat="41.46364108172361" lon="13.803203380072938"><ele>72.0</ele><time>2026-05-01T16:36:14.999Z</time></trkpt><trkpt lat="41.4637314448661" lon="13.80337031466933"><ele>72.0</ele><time>2026-05-01T16:36:15.999Z</time></trkpt><trkpt lat="41.46382839658482" lon="13.803541201898696"><ele>72.0</ele><time>2026-05-01T16:36:16.999Z</time></trkpt><trkpt lat="41.46392561080944" lon="13.803716997626614"><ele>71.0</ele><time>2026-05-01T16:36:17.999Z</time></trkpt><trkpt lat="41.46402588838839" lon="13.803899364721195"><ele>70.0</ele><time>2026-05-01T16:36:18.999Z</time></trkpt><trkpt lat="41.464122225022344" lon="13.804075902760857"><ele>69.0</ele><time>2026-05-01T16:36:19.999Z</time></trkpt><trkpt lat="41.464210914921075" lon="13.804240496054597"><ele>68.5</ele><time>2026-05-01T16:36:20.999Z</time></trkpt><trkpt lat="41.46429369143891" lon="13.804401587082033"><ele>68.0</ele><time>2026-05-01T16:36:21.999Z</time></trkpt><trkpt lat="41.46438018046255" lon="13.804557768018965"><ele>67.5</ele><time>2026-05-01T16:36:22.999Z</time></trkpt><trkpt lat="41.46446860546434" lon="13.804719303640084"><ele>67.0</ele><time>2026-05-01T16:36:23.999Z</time></trkpt><trkpt lat="41.464558637428894" lon="13.804885619314245"><ele>66.0</ele><time>2026-05-01T16:36:24.999Z</time></trkpt><trkpt lat="41.4646531917991" lon="13.805059628203562"><ele>65.0</ele><time>2026-05-01T16:36:25.999Z</time></trkpt><trkpt lat="41.46475145693214" lon="13.805240464568094"><ele>64.0</ele><time>2026-05-01T16:36:26.999Z</time></trkpt><trkpt lat="41.46484947429981" lon="13.805421390288227"><ele>62.33333333333333</ele><time>2026-05-01T16:36:27.999Z</time></trkpt><trkpt lat="41.46494455381753" lon="13.805599113644126"><ele>60.66666666666667</ele><time>2026-05-01T16:36:28.999Z</time></trkpt><trkpt lat="41.46503814094227" lon="13.80577610688418"><ele>59.0</ele><time>2026-05-01T16:36:29.999Z</time></trkpt><trkpt lat="41.46513398280565" lon="13.805957099074806"><ele>57.0</ele><time>2026-05-01T16:36:30.999Z</time></trkpt><trkpt lat="41.4652327302835" lon="13.806140462231806"><ele>55.0</ele><time>2026-05-01T16:36:31.999Z</time></trkpt><trkpt lat="41.46533421759152" lon="13.806325068780318"><ele>53.0</ele><time>2026-05-01T16:36:32.999Z</time></trkpt><trkpt lat="41.46543352678348" lon="13.806501786337188"><ele>54.66666666666667</ele><time>2026-05-01T16:36:33.999Z</time></trkpt><trkpt lat="41.465531016683066" lon="13.806671428462531"><ele>56.33333333333333</ele><time>2026-05-01T16:36:34.999Z</time></trkpt><trkpt lat="41.46562743111268" lon="13.806835426743332"><ele>58.0</ele><time>2026-05-01T16:36:35.999Z</time></trkpt><trkpt lat="41.46572316417123" lon="13.80699888015135"><ele>59.33333333333333</ele><time>2026-05-01T16:36:36.999Z</time></trkpt><trkpt lat="41.46582031243357" lon="13.807160513209075"><ele>60.66666666666667</ele><time>2026-05-01T16:36:37.999Z</time></trkpt><trkpt lat="41.46591759525996" lon="13.807324450192963"><ele>62.0</ele><time>2026-05-01T16:36:38.999Z</time></trkpt><trkpt lat="41.466016645852356" lon="13.80748772078111"><ele>62.0</ele><time>2026-05-01T16:36:39.999Z</time></trkpt><trkpt lat="41.46611606576894" lon="13.807647308087335"><ele>62.0</ele><time>2026-05-01T16:36:40.999Z</time></trkpt><trkpt lat="41.46621631202128" lon="13.807802852135811"><ele>62.0</ele><time>2026-05-01T16:36:41.999Z</time></trkpt><trkpt lat="41.46631668332169" lon="13.807953887086109"><ele>64.0</ele><time>2026-05-01T16:36:42.999Z</time></trkpt><trkpt lat="41.46641865726097" lon="13.808109196573746"><ele>66.0</ele><time>2026-05-01T16:36:43.999Z</time></trkpt><trkpt lat="41.4665204327889" lon="13.808263835464036"><ele>68.0</ele><time>2026-05-01T16:36:44.999Z</time></trkpt><trkpt lat="41.46662117938377" lon="13.808411627534527"><ele>67.25</ele><time>2026-05-01T16:36:45.999Z</time></trkpt><trkpt lat="41.46671830808873" lon="13.80855827250948"><ele>66.5</ele><time>2026-05-01T16:36:46.999Z</time></trkpt><trkpt lat="41.466815093894375" lon="13.808709430248449"><ele>65.75</ele><time>2026-05-01T16:36:47.999Z</time></trkpt><trkpt lat="41.46691354200591" lon="13.80886006047026"><ele>65.0</ele><time>2026-05-01T16:36:48.999Z</time></trkpt><trkpt lat="41.46701469207341" lon="13.80901169659467"><ele>65.0</ele><time>2026-05-01T16:36:49.999Z</time></trkpt><trkpt lat="41.46711705454054" lon="13.809163616553953"><ele>65.0</ele><time>2026-05-01T16:36:50.999Z</time></trkpt><trkpt lat="41.46721785650675" lon="13.809314820805243"><ele>65.0</ele><time>2026-05-01T16:36:51.999Z</time></trkpt><trkpt lat="41.46732082539071" lon="13.809466938384006"><ele>65.0</ele><time>2026-05-01T16:36:52.999Z</time></trkpt><trkpt lat="41.46742497912371" lon="13.809620668069678"><ele>65.0</ele><time>2026-05-01T16:36:53.999Z</time></trkpt><trkpt lat="41.467528681981676" lon="13.809775913302957"><ele>65.0</ele><time>2026-05-01T16:36:54.999Z</time></trkpt><trkpt lat="41.467632926200125" lon="13.809930887822071"><ele>65.0</ele><time>2026-05-01T16:36:56Z</time></trkpt><trkpt lat="41.46773303732139" lon="13.810079169829093"><ele>65.0</ele><time>2026-05-01T16:36:57Z</time></trkpt><trkpt lat="41.46782710809025" lon="13.810220036875615"><ele>65.0</ele><time>2026-05-01T16:36:58Z</time></trkpt><trkpt lat="41.46791761893355" lon="13.810354070906811"><ele>65.0</ele><time>2026-05-01T16:36:59Z</time></trkpt><trkpt lat="41.468003610954796" lon="13.810482583397148"><ele>65.0</ele><time>2026-05-01T16:37:00Z</time></trkpt><trkpt lat="41.46809144285694" lon="13.810611257398133"><ele>65.0</ele><time>2026-05-01T16:37:01Z</time></trkpt><trkpt lat="41.46818121637931" lon="13.810743982090592"><ele>65.0</ele><time>2026-05-01T16:37:02Z</time></trkpt><trkpt lat="41.46827192823502" lon="13.810880154681945"><ele>65.0</ele><time>2026-05-01T16:37:03Z</time></trkpt><trkpt lat="41.46836467254038" lon="13.811019774651607"><ele>64.5</ele><time>2026-05-01T16:37:04Z</time></trkpt><trkpt lat="41.46845817550812" lon="13.811156203917232"><ele>64.0</ele><time>2026-05-01T16:37:05Z</time></trkpt><trkpt lat="41.468554147086074" lon="13.811295337614492"><ele>63.5</ele><time>2026-05-01T16:37:06Z</time></trkpt><trkpt lat="41.46865215816145" lon="13.811441509401165"><ele>63.0</ele><time>2026-05-01T16:37:07Z</time></trkpt><trkpt lat="41.46875211965275" lon="13.811594822531786"><ele>63.33333333333333</ele><time>2026-05-01T16:37:08Z</time></trkpt><trkpt lat="41.46885296122803" lon="13.811751983461797"><ele>63.666666666666664</ele><time>2026-05-01T16:37:09Z</time></trkpt><trkpt lat="41.468956683081984" lon="13.811909090913863"><ele>64.0</ele><time>2026-05-01T16:37:10Z</time></trkpt><trkpt lat="41.469061980258246" lon="13.812068981445764"><ele>62.666666666666664</ele><time>2026-05-01T16:37:11Z</time></trkpt><trkpt lat="41.4691675007239" lon="13.812230512628277"><ele>61.33333333333333</ele><time>2026-05-01T16:37:12Z</time></trkpt><trkpt lat="41.46927402023912" lon="13.812392302234757"><ele>60.0</ele><time>2026-05-01T16:37:13Z</time></trkpt><trkpt lat="41.4693827405599" lon="13.81255555818414"><ele>60.0</ele><time>2026-05-01T16:37:14Z</time></trkpt><trkpt lat="41.46949509004135" lon="13.81272302231828"><ele>60.0</ele><time>2026-05-01T16:37:15Z</time></trkpt><trkpt lat="41.469614397085586" lon="13.812892941599246"><ele>60.0</ele><time>2026-05-01T16:37:16Z</time></trkpt><trkpt lat="41.46974054169079" lon="13.813063268482745"><ele>59.66666666666667</ele><time>2026-05-01T16:37:17Z</time></trkpt><trkpt lat="41.46987143941528" lon="13.813232672685828"><ele>59.333333333333336</ele><time>2026-05-01T16:37:18Z</time></trkpt><trkpt lat="41.47000525323034" lon="13.813395974656329"><ele>59.0</ele><time>2026-05-01T16:37:19Z</time></trkpt><trkpt lat="41.470147070896665" lon="13.813559212527974"><ele>59.0</ele><time>2026-05-01T16:37:20Z</time></trkpt><trkpt lat="41.470296993187105" lon="13.813721292133952"><ele>59.0</ele><time>2026-05-01T16:37:21Z</time></trkpt><trkpt lat="41.47045182726582" lon="13.813875526047076"><ele>59.0</ele><time>2026-05-01T16:37:22Z</time></trkpt><trkpt lat="41.47060066160694" lon="13.814014485251658"><ele>59.0</ele><time>2026-05-01T16:37:23Z</time></trkpt><trkpt lat="41.470743924671304" lon="13.814142198064946"><ele>59.0</ele><time>2026-05-01T16:37:24Z</time></trkpt><trkpt lat="41.470883341228785" lon="13.814257381337455"><ele>59.0</ele><time>2026-05-01T16:37:25Z</time></trkpt><trkpt lat="41.47101742363094" lon="13.8143604878677"><ele>58.75</ele><time>2026-05-01T16:37:26Z</time></trkpt><trkpt lat="41.47114787929457" lon="13.814452988080276"><ele>58.5</ele><time>2026-05-01T16:37:27Z</time></trkpt><trkpt lat="41.47127053746068" lon="13.814534498553822"><ele>58.25</ele><time>2026-05-01T16:37:28Z</time></trkpt><trkpt lat="41.47137802450128" lon="13.814601763719688"><ele>58.0</ele><time>2026-05-01T16:37:29Z</time></trkpt><trkpt lat="41.47146898113838" lon="13.814658388480641"><ele>57.99999999999999</ele><time>2026-05-01T16:37:30Z</time></trkpt><trkpt lat="41.471542334582416" lon="13.81471875679306"><ele>58.0</ele><time>2026-05-01T16:37:31Z</time></trkpt><trkpt lat="41.47158581350649" lon="13.814795515528282"><ele>58.0</ele><time>2026-05-01T16:37:32Z</time></trkpt><trkpt lat="41.47161912321021" lon="13.814876722541584"><ele>58.0</ele><time>2026-05-01T16:37:33Z</time></trkpt><trkpt lat="41.47164439047657" lon="13.814963198546417"><ele>57.99999999999999</ele><time>2026-05-01T16:37:34Z</time></trkpt><trkpt lat="41.47167314771772" lon="13.815040678590227"><ele>58.0</ele><time>2026-05-01T16:37:35Z</time></trkpt><trkpt lat="41.471751055623066" lon="13.815156469281328"><ele>57.99999999999999</ele><time>2026-05-01T16:37:37Z</time></trkpt><trkpt lat="41.471835400725794" lon="13.815225743155542"><ele>58.0</ele><time>2026-05-01T16:37:39Z</time></trkpt><trkpt lat="41.47189668225024" lon="13.815283133995553"><ele>58.0</ele><time>2026-05-01T16:37:42Z</time></trkpt><trkpt lat="41.47192303965611" lon="13.815204368655234"><ele>58.0</ele><time>2026-05-01T16:39:40Z</time></trkpt><trkpt lat="41.47193115142265" lon="13.815289195138831"><ele>57.99999999999999</ele><time>2026-05-01T16:40:17.999Z</time></trkpt><trkpt lat="41.471874158976384" lon="13.815210218507522"><ele>58.0</ele><time>2026-05-01T16:41:43Z</time></trkpt><trkpt lat="41.471892382684835" lon="13.815125104131809"><ele>58.33333333333333</ele><time>2026-05-01T16:41:54Z</time></trkpt><trkpt lat="41.47193415241777" lon="13.815343051726202"><ele>58.66666666666667</ele><time>2026-05-01T16:42:53.342Z</time></trkpt><trkpt lat="41.47187849526067" lon="13.815413680495611"><ele>59.0</ele><time>2026-05-01T16:46:50.202Z</time></trkpt><trkpt lat="41.47169049682099" lon="13.815284912589743"><ele>59.0</ele><time>2026-05-01T16:46:56.667Z</time></trkpt><trkpt lat="41.471359890380214" lon="13.815270477906484"><ele>59.0</ele><time>2026-05-01T16:46:58.033Z</time></trkpt><trkpt lat="41.47142916712202" lon="13.815273520830667"><ele>59.0</ele><time>2026-05-01T16:47:01.036Z</time></trkpt><trkpt lat="41.47149390645513" lon="13.815289356653293"><ele>59.0</ele><time>2026-05-01T16:47:04.024Z</time></trkpt><trkpt lat="41.471628869517346" lon="13.815329839551051"><ele>59.00000000000001</ele><time>2026-05-01T16:47:05.021Z</time></trkpt><trkpt lat="41.47171566790475" lon="13.8153541776208"><ele>59.00000000000001</ele><time>2026-05-01T16:47:41.996Z</time></trkpt><trkpt lat="41.4717656909077" lon="13.81528152627159"><ele>59.0</ele><time>2026-05-01T16:47:48Z</time></trkpt><trkpt lat="41.4717366445002" lon="13.815363692917163"><ele>59.0</ele><time>2026-05-01T16:48:17.363Z</time></trkpt><trkpt lat="41.471659371064696" lon="13.815469085519679"><ele>59.00000000000001</ele><time>2026-05-01T16:48:29.445Z</time></trkpt><trkpt lat="41.471764381328825" lon="13.815371524608807"><ele>59.0</ele><time>2026-05-01T16:48:48.445Z</time></trkpt><trkpt lat="41.47169402744934" lon="13.81532265673935"><ele>59.0</ele><time>2026-05-01T16:52:18.015Z</time></trkpt><trkpt lat="41.47163880080605" lon="13.815262096101755"><ele>59.0</ele><time>2026-05-01T16:52:20.017Z</time></trkpt><trkpt lat="41.47156813946307" lon="13.815198475113874"><ele>59.00000000000001</ele><time>2026-05-01T16:52:22.016Z</time></trkpt><trkpt lat="41.47150169716722" lon="13.815141636968733"><ele>59.0</ele><time>2026-05-01T16:52:24.016Z</time></trkpt><trkpt lat="41.47143614826727" lon="13.815089127360901"><ele>59.0</ele><time>2026-05-01T16:52:26.015Z</time></trkpt><trkpt lat="41.47169448822102" lon="13.81535573534572"><ele>59.0</ele><time>2026-05-01T16:52:44.108Z</time></trkpt><trkpt lat="41.47178713397152" lon="13.815325998237116"><ele>59.0</ele><time>2026-05-01T16:52:49.766Z</time></trkpt><trkpt lat="41.47188118915076" lon="13.81545975926985"><ele>59.0</ele><time>2026-05-01T16:53:04.616Z</time></trkpt><trkpt lat="41.471651917124944" lon="13.815585424267045"><ele>59.0</ele><time>2026-05-01T16:53:16.052Z</time></trkpt><trkpt lat="41.471802622661336" lon="13.815505127476962"><ele>59.0</ele><time>2026-05-01T16:53:17.014Z</time></trkpt><trkpt lat="41.47173008499318" lon="13.8153893375487"><ele>59.0</ele><time>2026-05-01T16:53:18.015Z</time></trkpt><trkpt lat="41.471702326772935" lon="13.815465784714986"><ele>59.00000000000001</ele><time>2026-05-01T16:53:34Z</time></trkpt><trkpt lat="41.4716243436621" lon="13.815431405976897"><ele>59.00000000000001</ele><time>2026-05-01T16:57:12.999Z</time></trkpt><trkpt lat="41.47168633650329" lon="13.815323687939223"><ele>59.0</ele><time>2026-05-01T16:59:56Z</time></trkpt><trkpt lat="41.47166494328229" lon="13.8152030929632"><ele>59.0</ele><time>2026-05-01T16:59:58Z</time></trkpt><trkpt lat="41.471669643787656" lon="13.815031773288556"><ele>59.0</ele><time>2026-05-01T17:00:00Z</time></trkpt><trkpt lat="41.471686180001456" lon="13.814905553269853"><ele>59.00000000000001</ele><time>2026-05-01T17:00:02Z</time></trkpt><trkpt lat="41.4716883282391" lon="13.81478105263745"><ele>59.00000000000001</ele><time>2026-05-01T17:00:06Z</time></trkpt><trkpt lat="41.47169145725237" lon="13.814619246151683"><ele>59.0</ele><time>2026-05-01T17:00:08Z</time></trkpt><trkpt lat="41.471685029045716" lon="13.814476566536078"><ele>59.0</ele><time>2026-05-01T17:00:10Z</time></trkpt><trkpt lat="41.47182265690363" lon="13.81534986547211"><ele>58.0</ele><time>2026-05-01T17:00:11.927Z</time></trkpt><trkpt lat="41.471671006791695" lon="13.814345911287726"><ele>58.0</ele><time>2026-05-01T17:00:16.028Z</time></trkpt><trkpt lat="41.47161040087738" lon="13.814818824646805"><ele>58.0</ele><time>2026-05-01T17:00:19.03Z</time></trkpt><trkpt lat="41.47183983040618" lon="13.814717244151904"><ele>58.0</ele><time>2026-05-01T17:00:30.532Z</time></trkpt><trkpt lat="41.47173927393276" lon="13.815285341071428"><ele>59.0</ele><time>2026-05-01T17:00:34.449Z</time></trkpt><trkpt lat="41.47173927393276" lon="13.815285341071428"><ele>59.0</ele><time>2026-05-01T17:00:34.449Z</time></trkpt></trkseg><trkseg><trkpt lat="41.47187997330424" lon="13.815263750689203"><ele>59.00000000000001</ele><time>2026-05-02T06:51:45Z</time></trkpt><trkpt lat="41.471797252046294" lon="13.815226245031473"><ele>59.0</ele><time>2026-05-02T06:51:47Z</time></trkpt><trkpt lat="41.47171086213164" lon="13.815157960438315"><ele>59.0</ele><time>2026-05-02T06:51:48.999Z</time></trkpt><trkpt lat="41.47166362177208" lon="13.815068219840715"><ele>59.0</ele><time>2026-05-02T06:51:50.999Z</time></trkpt><trkpt lat="41.471660041920416" lon="13.814976710587734"><ele>59.00000000000001</ele><time>2026-05-02T06:51:52.999Z</time></trkpt><trkpt lat="41.4716664526732" lon="13.814872114528907"><ele>59.0</ele><time>2026-05-02T06:51:55.999Z</time></trkpt><trkpt lat="41.47166517475459" lon="13.814783058095914"><ele>58.800000000000004</ele><time>2026-05-02T06:52:18.999Z</time></trkpt><trkpt lat="41.47160900620599" lon="13.814667575031173"><ele>58.60000000000001</ele><time>2026-05-02T06:52:20.999Z</time></trkpt><trkpt lat="41.47154050665961" lon="13.81462396683903"><ele>58.4</ele><time>2026-05-02T06:52:21.999Z</time></trkpt><trkpt lat="41.47145896924874" lon="13.814578598172975"><ele>58.2</ele><time>2026-05-02T06:52:22.999Z</time></trkpt><trkpt lat="41.47137460282852" lon="13.814532111728933"><ele>58.0</ele><time>2026-05-02T06:52:23.999Z</time></trkpt><trkpt lat="41.47128015746635" lon="13.814480015946515"><ele>57.75</ele><time>2026-05-02T06:52:24.999Z</time></trkpt><trkpt lat="41.47117654923315" lon="13.814414448313395"><ele>57.5</ele><time>2026-05-02T06:52:25.999Z</time></trkpt><trkpt lat="41.47106787286986" lon="13.814339691786001"><ele>57.25</ele><time>2026-05-02T06:52:26.999Z</time></trkpt><trkpt lat="41.47095483856603" lon="13.814252276532942"><ele>57.0</ele><time>2026-05-02T06:52:27.999Z</time></trkpt><trkpt lat="41.47084191302829" lon="13.814162182660693"><ele>57.5</ele><time>2026-05-02T06:52:28.999Z</time></trkpt><trkpt lat="41.47072738185067" lon="13.814066263092078"><ele>58.0</ele><time>2026-05-02T06:52:29.999Z</time></trkpt><trkpt lat="41.470611388898654" lon="13.813963878425495"><ele>58.5</ele><time>2026-05-02T06:52:30.999Z</time></trkpt><trkpt lat="41.470493439511245" lon="13.813854312100181"><ele>59.0</ele><time>2026-05-02T06:52:31.999Z</time></trkpt><trkpt lat="41.4703784250191" lon="13.81373837547885"><ele>59.0</ele><time>2026-05-02T06:52:32.999Z</time></trkpt><trkpt lat="41.47026759095331" lon="13.813621857638331"><ele>59.0</ele><time>2026-05-02T06:52:33.999Z</time></trkpt><trkpt lat="41.470165594736905" lon="13.813508429913647"><ele>59.0</ele><time>2026-05-02T06:52:34.999Z</time></trkpt><trkpt lat="41.47006078584832" lon="13.813391103101827"><ele>59.0</ele><time>2026-05-02T06:52:35.999Z</time></trkpt><trkpt lat="41.46995790093739" lon="13.813269013721643"><ele>59.0</ele><time>2026-05-02T06:52:36.999Z</time></trkpt><trkpt lat="41.46985696951938" lon="13.813141486082442"><ele>59.0</ele><time>2026-05-02T06:52:37.999Z</time></trkpt><trkpt lat="41.46975777709753" lon="13.813008730221938"><ele>59.0</ele><time>2026-05-02T06:52:38.999Z</time></trkpt><trkpt lat="41.46966025437462" lon="13.812875705808436"><ele>59.0</ele><time>2026-05-02T06:52:39.999Z</time></trkpt><trkpt lat="41.469564120475546" lon="13.812739041897718"><ele>59.25</ele><time>2026-05-02T06:52:40.999Z</time></trkpt><trkpt lat="41.46946759551547" lon="13.812598408044433"><ele>59.5</ele><time>2026-05-02T06:52:41.999Z</time></trkpt><trkpt lat="41.46937613683826" lon="13.812462451360275"><ele>59.75</ele><time>2026-05-02T06:52:42.999Z</time></trkpt><trkpt lat="41.46929652380725" lon="13.812343712116386"><ele>60.0</ele><time>2026-05-02T06:52:43.999Z</time></trkpt><trkpt lat="41.46921819029955" lon="13.812226314840624"><ele>60.0</ele><time>2026-05-02T06:52:44.999Z</time></trkpt><trkpt lat="41.469141038130545" lon="13.812111168808173"><ele>60.0</ele><time>2026-05-02T06:52:45.999Z</time></trkpt><trkpt lat="41.46906566032372" lon="13.811998341628037"><ele>60.0</ele><time>2026-05-02T06:52:46.999Z</time></trkpt><trkpt lat="41.468989463923656" lon="13.811885144173058"><ele>60.0</ele><time>2026-05-02T06:52:47.999Z</time></trkpt><trkpt lat="41.468908947876535" lon="13.811764767550658"><ele>60.75</ele><time>2026-05-02T06:52:48.999Z</time></trkpt><trkpt lat="41.468827926485794" lon="13.81164508059715"><ele>61.5</ele><time>2026-05-02T06:52:49.999Z</time></trkpt><trkpt lat="41.468749165980974" lon="13.811529309522662"><ele>62.25</ele><time>2026-05-02T06:52:50.999Z</time></trkpt><trkpt lat="41.46866884098009" lon="13.811410494661017"><ele>63.0</ele><time>2026-05-02T06:52:51.999Z</time></trkpt><trkpt lat="41.46858984310915" lon="13.811294237861256"><ele>63.0</ele><time>2026-05-02T06:52:52.999Z</time></trkpt><trkpt lat="41.46851156502917" lon="13.811179206706669"><ele>63.0</ele><time>2026-05-02T06:52:53.999Z</time></trkpt><trkpt lat="41.468437474768784" lon="13.811068243218033"><ele>63.0</ele><time>2026-05-02T06:52:54.999Z</time></trkpt><trkpt lat="41.46836605066324" lon="13.810960522000356"><ele>63.0</ele><time>2026-05-02T06:52:55.999Z</time></trkpt><trkpt lat="41.468294148585976" lon="13.810851607255488"><ele>63.0</ele><time>2026-05-02T06:52:56.999Z</time></trkpt><trkpt lat="41.46822050974655" lon="13.810740569202073"><ele>62.75</ele><time>2026-05-02T06:52:57.999Z</time></trkpt><trkpt lat="41.46814550442132" lon="13.810628690389496"><ele>62.5</ele><time>2026-05-02T06:52:58.999Z</time></trkpt><trkpt lat="41.4680695940697" lon="13.810516451551921"><ele>62.25</ele><time>2026-05-02T06:52:59.999Z</time></trkpt><trkpt lat="41.467993323408905" lon="13.810404665857972"><ele>62.0</ele><time>2026-05-02T06:53:00.999Z</time></trkpt><trkpt lat="41.46791588614435" lon="13.810291711443957"><ele>62.0</ele><time>2026-05-02T06:53:01.999Z</time></trkpt><trkpt lat="41.46783843007557" lon="13.810178551822037"><ele>62.0</ele><time>2026-05-02T06:53:02.999Z</time></trkpt><trkpt lat="41.46776023546096" lon="13.810062784670183"><ele>62.0</ele><time>2026-05-02T06:53:03.999Z</time></trkpt><trkpt lat="41.467683412351114" lon="13.809946571261412"><ele>62.0</ele><time>2026-05-02T06:53:04.999Z</time></trkpt><trkpt lat="41.46760682475523" lon="13.809829866625526"><ele>62.75</ele><time>2026-05-02T06:53:05.999Z</time></trkpt><trkpt lat="41.467529566134026" lon="13.809712278472674"><ele>63.5</ele><time>2026-05-02T06:53:06.999Z</time></trkpt><trkpt lat="41.4674512763547" lon="13.80959119291759"><ele>64.25</ele><time>2026-05-02T06:53:07.999Z</time></trkpt><trkpt lat="41.46737163077397" lon="13.8094709628091"><ele>65.0</ele><time>2026-05-02T06:53:08.999Z</time></trkpt><trkpt lat="41.467290130077984" lon="13.809352129241589"><ele>65.0</ele><time>2026-05-02T06:53:09.998Z</time></trkpt><trkpt lat="41.46720746294228" lon="13.809235175907286"><ele>65.0</ele><time>2026-05-02T06:53:10.998Z</time></trkpt><trkpt lat="41.46712506463758" lon="13.809116513864605"><ele>65.0</ele><time>2026-05-02T06:53:11.998Z</time></trkpt><trkpt lat="41.46704350169275" lon="13.80899644315312"><ele>65.0</ele><time>2026-05-02T06:53:12.998Z</time></trkpt><trkpt lat="41.46696242590634" lon="13.808873759090812"><ele>65.0</ele><time>2026-05-02T06:53:14Z</time></trkpt><trkpt lat="41.46688098361885" lon="13.808750984995811"><ele>65.0</ele><time>2026-05-02T06:53:15Z</time></trkpt><trkpt lat="41.46679803428975" lon="13.808628964382414"><ele>65.0</ele><time>2026-05-02T06:53:16Z</time></trkpt><trkpt lat="41.466715286085545" lon="13.808505578554461"><ele>65.0</ele><time>2026-05-02T06:53:17Z</time></trkpt><trkpt lat="41.466630629269666" lon="13.808378242914078"><ele>65.75</ele><time>2026-05-02T06:53:18Z</time></trkpt><trkpt lat="41.46654583279794" lon="13.80824953233164"><ele>66.5</ele><time>2026-05-02T06:53:19Z</time></trkpt><trkpt lat="41.466460520011594" lon="13.808118661018538"><ele>67.25</ele><time>2026-05-02T06:53:20Z</time></trkpt><trkpt lat="41.46637429526116" lon="13.807986596840045"><ele>68.0</ele><time>2026-05-02T06:53:21Z</time></trkpt><trkpt lat="41.46628798376973" lon="13.807851981732922"><ele>67.5</ele><time>2026-05-02T06:53:22Z</time></trkpt><trkpt lat="41.46620140244239" lon="13.80771660443854"><ele>67.0</ele><time>2026-05-02T06:53:23Z</time></trkpt><trkpt lat="41.466116693080124" lon="13.807581843979529"><ele>66.5</ele><time>2026-05-02T06:53:24Z</time></trkpt><trkpt lat="41.466033818192436" lon="13.807446794765982"><ele>66.0</ele><time>2026-05-02T06:53:25Z</time></trkpt><trkpt lat="41.46595025538382" lon="13.807310371279069"><ele>65.0</ele><time>2026-05-02T06:53:26Z</time></trkpt><trkpt lat="41.46586550945411" lon="13.807173208645665"><ele>64.0</ele><time>2026-05-02T06:53:27Z</time></trkpt><trkpt lat="41.46578023552065" lon="13.807030190654881"><ele>63.0</ele><time>2026-05-02T06:53:28Z</time></trkpt><trkpt lat="41.46569542129961" lon="13.806884553841567"><ele>62.0</ele><time>2026-05-02T06:53:29Z</time></trkpt><trkpt lat="41.46561077876453" lon="13.806734663504674"><ele>60.66666666666667</ele><time>2026-05-02T06:53:30Z</time></trkpt><trkpt lat="41.46552518585609" lon="13.806585706189814"><ele>59.33333333333333</ele><time>2026-05-02T06:53:31Z</time></trkpt><trkpt lat="41.46543327155" lon="13.806423913513168"><ele>58.0</ele><time>2026-05-02T06:53:32Z</time></trkpt><trkpt lat="41.46533361402887" lon="13.806247802198426"><ele>58.33333333333333</ele><time>2026-05-02T06:53:33Z</time></trkpt><trkpt lat="41.4652272857719" lon="13.806054250857668"><ele>58.66666666666667</ele><time>2026-05-02T06:53:34Z</time></trkpt><trkpt lat="41.46511607806251" lon="13.8058501168343"><ele>59.0</ele><time>2026-05-02T06:53:35Z</time></trkpt><trkpt lat="41.46499991442908" lon="13.80563525426013"><ele>59.0</ele><time>2026-05-02T06:53:36Z</time></trkpt><trkpt lat="41.464885896077234" lon="13.805422753859498"><ele>59.0</ele><time>2026-05-02T06:53:37Z</time></trkpt><trkpt lat="41.464766843960874" lon="13.805199944744382"><ele>59.0</ele><time>2026-05-02T06:53:38Z</time></trkpt><trkpt lat="41.464644403572656" lon="13.80497206463757"><ele>61.66666666666667</ele><time>2026-05-02T06:53:39Z</time></trkpt><trkpt lat="41.46452157810856" lon="13.804743747027523"><ele>64.33333333333333</ele><time>2026-05-02T06:53:40Z</time></trkpt><trkpt lat="41.46439799264844" lon="13.804516735631847"><ele>67.0</ele><time>2026-05-02T06:53:41Z</time></trkpt><trkpt lat="41.46427716487858" lon="13.8042943786036"><ele>67.66666666666666</ele><time>2026-05-02T06:53:42Z</time></trkpt><trkpt lat="41.46415780276093" lon="13.804076576398947"><ele>68.33333333333333</ele><time>2026-05-02T06:53:43Z</time></trkpt><trkpt lat="41.46404008502839" lon="13.803864479274697"><ele>69.0</ele><time>2026-05-02T06:53:44Z</time></trkpt><trkpt lat="41.46392166335659" lon="13.80365350381849"><ele>69.33333333333333</ele><time>2026-05-02T06:53:45Z</time></trkpt><trkpt lat="41.463804375015094" lon="13.803443883922451"><ele>69.66666666666666</ele><time>2026-05-02T06:53:46Z</time></trkpt><trkpt lat="41.46369361122588" lon="13.803248109310726"><ele>70.0</ele><time>2026-05-02T06:53:47Z</time></trkpt><trkpt lat="41.46359028574384" lon="13.803067891668466"><ele>70.5</ele><time>2026-05-02T06:53:48Z</time></trkpt><trkpt lat="41.463494479757685" lon="13.80290756827659"><ele>71.0</ele><time>2026-05-02T06:53:48.999Z</time></trkpt><trkpt lat="41.46340836233223" lon="13.80276767617045"><ele>71.5</ele><time>2026-05-02T06:53:49.999Z</time></trkpt><trkpt lat="41.463329562084105" lon="13.80264501596669"><ele>72.0</ele><time>2026-05-02T06:53:50.999Z</time></trkpt><trkpt lat="41.463256956259464" lon="13.80253552194835"><ele>72.0</ele><time>2026-05-02T06:53:51.999Z</time></trkpt><trkpt lat="41.463190468479965" lon="13.802434791758266"><ele>72.0</ele><time>2026-05-02T06:53:52.999Z</time></trkpt><trkpt lat="41.463138576522326" lon="13.802349456882784"><ele>72.0</ele><time>2026-05-02T06:53:53.999Z</time></trkpt><trkpt lat="41.46310269291964" lon="13.802265266534992"><ele>72.0</ele><time>2026-05-02T06:53:54.999Z</time></trkpt><trkpt lat="41.46307838305229" lon="13.802177297713817"><ele>72.0</ele><time>2026-05-02T06:53:55.999Z</time></trkpt><trkpt lat="41.463065493639135" lon="13.802080101901046"><ele>72.0</ele><time>2026-05-02T06:53:56.999Z</time></trkpt><trkpt lat="41.463068237225855" lon="13.80199478276002"><ele>72.0</ele><time>2026-05-02T06:53:57.999Z</time></trkpt><trkpt lat="41.4630787520166" lon="13.801908519228778"><ele>72.0</ele><time>2026-05-02T06:53:59.999Z</time></trkpt><trkpt lat="41.46309491457748" lon="13.801819577136593"><ele>72.0</ele><time>2026-05-02T06:54:01.999Z</time></trkpt><trkpt lat="41.46310353953638" lon="13.801666195574667"><ele>72.0</ele><time>2026-05-02T06:54:03.999Z</time></trkpt><trkpt lat="41.46308346171176" lon="13.801505328886218"><ele>72.0</ele><time>2026-05-02T06:54:05.999Z</time></trkpt><trkpt lat="41.463017174261125" lon="13.801369320320372"><ele>71.8</ele><time>2026-05-02T06:54:07.999Z</time></trkpt><trkpt lat="41.4629649133469" lon="13.80131791057383"><ele>71.6</ele><time>2026-05-02T06:54:08.999Z</time></trkpt><trkpt lat="41.46286271670059" lon="13.801282533447184"><ele>71.39999999999999</ele><time>2026-05-02T06:54:10.999Z</time></trkpt><trkpt lat="41.462753744329035" lon="13.801312242096646"><ele>71.2</ele><time>2026-05-02T06:54:12.999Z</time></trkpt><trkpt lat="41.46264850155783" lon="13.80137629678383"><ele>71.0</ele><time>2026-05-02T06:54:14.999Z</time></trkpt><trkpt lat="41.462576589806396" lon="13.80143387565322"><ele>71.0</ele><time>2026-05-02T06:54:16.999Z</time></trkpt><trkpt lat="41.462525373802016" lon="13.80151767831754"><ele>71.0</ele><time>2026-05-02T06:54:18.999Z</time></trkpt><trkpt lat="41.462429883992606" lon="13.801491454727795"><ele>71.0</ele><time>2026-05-02T06:54:19.999Z</time></trkpt><trkpt lat="41.46231334183629" lon="13.801483061218358"><ele>71.0</ele><time>2026-05-02T06:54:21.999Z</time></trkpt><trkpt lat="41.4622136631897" lon="13.801447730613566"><ele>71.0</ele><time>2026-05-02T06:54:23.999Z</time></trkpt><trkpt lat="41.46212405548174" lon="13.801392706853008"><ele>71.8</ele><time>2026-05-02T06:54:25.999Z</time></trkpt><trkpt lat="41.46202879330691" lon="13.801329438537682"><ele>72.6</ele><time>2026-05-02T06:54:27.999Z</time></trkpt><trkpt lat="41.46192693916337" lon="13.80122639509115"><ele>73.4</ele><time>2026-05-02T06:54:29.999Z</time></trkpt><trkpt lat="41.46186488267885" lon="13.801175137167327"><ele>74.2</ele><time>2026-05-02T06:54:30.999Z</time></trkpt><trkpt lat="41.461805125294866" lon="13.801127308251981"><ele>75.0</ele><time>2026-05-02T06:54:31.999Z</time></trkpt><trkpt lat="41.461703530205796" lon="13.801061935546036"><ele>75.4</ele><time>2026-05-02T06:54:33.999Z</time></trkpt><trkpt lat="41.46161979381371" lon="13.80099897048982"><ele>75.8</ele><time>2026-05-02T06:54:35.999Z</time></trkpt><trkpt lat="41.46151424821343" lon="13.800891701456822"><ele>76.2</ele><time>2026-05-02T06:54:37.999Z</time></trkpt><trkpt lat="41.461439585568215" lon="13.800856654388904"><ele>76.6</ele><time>2026-05-02T06:54:38.999Z</time></trkpt><trkpt lat="41.46137028288527" lon="13.800795382245001"><ele>77.0</ele><time>2026-05-02T06:54:39.999Z</time></trkpt><trkpt lat="41.461297392251204" lon="13.80072942425068"><ele>77.0</ele><time>2026-05-02T06:54:40.999Z</time></trkpt><trkpt lat="41.46122691638327" lon="13.800664840694015"><ele>77.0</ele><time>2026-05-02T06:54:41.999Z</time></trkpt><trkpt lat="41.461159857554385" lon="13.800605192095142"><ele>77.0</ele><time>2026-05-02T06:54:42.999Z</time></trkpt><trkpt lat="41.461092008381385" lon="13.800545758461936"><ele>77.0</ele><time>2026-05-02T06:54:43.999Z</time></trkpt><trkpt lat="41.46102136071547" lon="13.800481938878566"><ele>77.0</ele><time>2026-05-02T06:54:44.999Z</time></trkpt><trkpt lat="41.46094936407908" lon="13.800414691040322"><ele>77.0</ele><time>2026-05-02T06:54:45.999Z</time></trkpt><trkpt lat="41.46087404232603" lon="13.800346355909728"><ele>77.0</ele><time>2026-05-02T06:54:46.999Z</time></trkpt><trkpt lat="41.460795613838734" lon="13.800275090649674"><ele>77.0</ele><time>2026-05-02T06:54:47.999Z</time></trkpt><trkpt lat="41.46071681428018" lon="13.800201926257769"><ele>77.0</ele><time>2026-05-02T06:54:48.999Z</time></trkpt><trkpt lat="41.46064187469877" lon="13.800133453535206"><ele>77.0</ele><time>2026-05-02T06:54:49.999Z</time></trkpt><trkpt lat="41.46056822252789" lon="13.800065618709537"><ele>77.0</ele><time>2026-05-02T06:54:50.999Z</time></trkpt><trkpt lat="41.460496895488966" lon="13.799998625198995"><ele>77.16666666666667</ele><time>2026-05-02T06:54:51.999Z</time></trkpt><trkpt lat="41.46042617564648" lon="13.799929246522316"><ele>77.33333333333334</ele><time>2026-05-02T06:54:52.999Z</time></trkpt><trkpt lat="41.460359081480725" lon="13.799851493919412"><ele>77.5</ele><time>2026-05-02T06:54:53.999Z</time></trkpt><trkpt lat="41.46029979863725" lon="13.799766320519707"><ele>77.66666666666667</ele><time>2026-05-02T06:54:54.999Z</time></trkpt><trkpt lat="41.460250273307985" lon="13.799669071509177"><ele>77.83333333333333</ele><time>2026-05-02T06:54:55.999Z</time></trkpt><trkpt lat="41.460210289178306" lon="13.799558129406929"><ele>78.0</ele><time>2026-05-02T06:54:56.999Z</time></trkpt><trkpt lat="41.46017435357702" lon="13.799431677448911"><ele>78.0</ele><time>2026-05-02T06:54:57.999Z</time></trkpt><trkpt lat="41.46014243073498" lon="13.799293414942866"><ele>78.0</ele><time>2026-05-02T06:54:58.999Z</time></trkpt><trkpt lat="41.460117077993274" lon="13.799144041203325"><ele>78.0</ele><time>2026-05-02T06:54:59.999Z</time></trkpt><trkpt lat="41.46009465296095" lon="13.798993356189277"><ele>78.0</ele><time>2026-05-02T06:55:00.999Z</time></trkpt><trkpt lat="41.46007878663145" lon="13.798843921333928"><ele>78.0</ele><time>2026-05-02T06:55:01.999Z</time></trkpt><trkpt lat="41.46006544922867" lon="13.798698791452084"><ele>78.0</ele><time>2026-05-02T06:55:02.999Z</time></trkpt><trkpt lat="41.46005575076508" lon="13.798560744661643"><ele>78.0</ele><time>2026-05-02T06:55:03.999Z</time></trkpt><trkpt lat="41.460049032696475" lon="13.798432463438997"><ele>78.0</ele><time>2026-05-02T06:55:04.999Z</time></trkpt><trkpt lat="41.46004388901487" lon="13.79831685373154"><ele>78.0</ele><time>2026-05-02T06:55:05.999Z</time></trkpt><trkpt lat="41.46004077980306" lon="13.79820643956826"><ele>78.2</ele><time>2026-05-02T06:55:06.999Z</time></trkpt><trkpt lat="41.46003996185982" lon="13.798109383888535"><ele>78.4</ele><time>2026-05-02T06:55:07.999Z</time></trkpt><trkpt lat="41.4600387028368" lon="13.798021965582398"><ele>78.60000000000001</ele><time>2026-05-02T06:55:08.999Z</time></trkpt><trkpt lat="41.46004230525802" lon="13.79786106987362"><ele>78.8</ele><time>2026-05-02T06:55:10.998Z</time></trkpt><trkpt lat="41.460047734387466" lon="13.79769366268596"><ele>79.0</ele><time>2026-05-02T06:55:12.998Z</time></trkpt><trkpt lat="41.46005165882736" lon="13.797601303571787"><ele>79.16666666666666</ele><time>2026-05-02T06:55:13.998Z</time></trkpt><trkpt lat="41.46005542811371" lon="13.79750348022033"><ele>79.33333333333333</ele><time>2026-05-02T06:55:14.998Z</time></trkpt><trkpt lat="41.46005828316752" lon="13.79740022999411"><ele>79.5</ele><time>2026-05-02T06:55:15.998Z</time></trkpt><trkpt lat="41.46005483098428" lon="13.79729474766663"><ele>79.66666666666667</ele><time>2026-05-02T06:55:16.998Z</time></trkpt><trkpt lat="41.4600527323723" lon="13.79719813008962"><ele>79.83333333333334</ele><time>2026-05-02T06:55:17.998Z</time></trkpt><trkpt lat="41.46005474892507" lon="13.79710898828513"><ele>80.0</ele><time>2026-05-02T06:55:18.998Z</time></trkpt><trkpt lat="41.460055706995824" lon="13.796954388873832"><ele>79.8</ele><time>2026-05-02T06:55:21Z</time></trkpt><trkpt lat="41.46006057697283" lon="13.796819219008313"><ele>79.6</ele><time>2026-05-02T06:55:23Z</time></trkpt><trkpt lat="41.46006747088482" lon="13.796647255759396"><ele>79.4</ele><time>2026-05-02T06:55:25Z</time></trkpt><trkpt lat="41.46006008213341" lon="13.796541091244498"><ele>79.2</ele><time>2026-05-02T06:55:26Z</time></trkpt><trkpt lat="41.460041886365495" lon="13.796429071507383"><ele>79.0</ele><time>2026-05-02T06:55:27Z</time></trkpt><trkpt lat="41.46000369916368" lon="13.796320321806713"><ele>79.0</ele><time>2026-05-02T06:55:28Z</time></trkpt><trkpt lat="41.45994878573623" lon="13.796218820766804"><ele>79.0</ele><time>2026-05-02T06:55:29Z</time></trkpt><trkpt lat="41.459878194689296" lon="13.796124501739833"><ele>79.0</ele><time>2026-05-02T06:55:30Z</time></trkpt><trkpt lat="41.45979677907105" lon="13.796035072106672"><ele>79.0</ele><time>2026-05-02T06:55:31Z</time></trkpt><trkpt lat="41.45970749576648" lon="13.795947817861629"><ele>79.0</ele><time>2026-05-02T06:55:32Z</time></trkpt><trkpt lat="41.459614827484636" lon="13.795867025510434"><ele>78.5</ele><time>2026-05-02T06:55:33Z</time></trkpt><trkpt lat="41.45951234570247" lon="13.795799576951234"><ele>78.0</ele><time>2026-05-02T06:55:34Z</time></trkpt><trkpt lat="41.45940517396298" lon="13.795738890325543"><ele>77.5</ele><time>2026-05-02T06:55:35Z</time></trkpt><trkpt lat="41.45929064435825" lon="13.795686449989422"><ele>77.0</ele><time>2026-05-02T06:55:36Z</time></trkpt><trkpt lat="41.45917093597649" lon="13.79564102070549"><ele>77.0</ele><time>2026-05-02T06:55:37Z</time></trkpt><trkpt lat="41.45904979313649" lon="13.795592880667236"><ele>77.0</ele><time>2026-05-02T06:55:38Z</time></trkpt><trkpt lat="41.45893002083938" lon="13.795548160502415"><ele>77.0</ele><time>2026-05-02T06:55:39Z</time></trkpt><trkpt lat="41.458810776255724" lon="13.795502948164344"><ele>77.0</ele><time>2026-05-02T06:55:40Z</time></trkpt><trkpt lat="41.45869337829032" lon="13.795455638120979"><ele>76.25</ele><time>2026-05-02T06:55:41Z</time></trkpt><trkpt lat="41.45857879662892" lon="13.795408377903684"><ele>75.5</ele><time>2026-05-02T06:55:42Z</time></trkpt><trkpt lat="41.45848221087211" lon="13.795347809753398"><ele>74.75</ele><time>2026-05-02T06:55:43Z</time></trkpt><trkpt lat="41.45836538143813" lon="13.795267987561367"><ele>74.0</ele><time>2026-05-02T06:55:44Z</time></trkpt><trkpt lat="41.45828037402965" lon="13.795159572447394"><ele>74.0</ele><time>2026-05-02T06:55:45Z</time></trkpt><trkpt lat="41.45822037100571" lon="13.795033372406698"><ele>74.0</ele><time>2026-05-02T06:55:46Z</time></trkpt><trkpt lat="41.458194300916354" lon="13.794890898527065"><ele>74.0</ele><time>2026-05-02T06:55:47Z</time></trkpt><trkpt lat="41.45819865288938" lon="13.794745426175329"><ele>74.0</ele><time>2026-05-02T06:55:48Z</time></trkpt><trkpt lat="41.45823619675849" lon="13.794606285916718"><ele>74.0</ele><time>2026-05-02T06:55:49Z</time></trkpt><trkpt lat="41.458296879745305" lon="13.794485049485193"><ele>74.0</ele><time>2026-05-02T06:55:50Z</time></trkpt><trkpt lat="41.458379934329436" lon="13.794403343997507"><ele>74.0</ele><time>2026-05-02T06:55:51Z</time></trkpt><trkpt lat="41.45847318317174" lon="13.7943588712488"><ele>74.0</ele><time>2026-05-02T06:55:52Z</time></trkpt><trkpt lat="41.45856969301521" lon="13.794342229400987"><ele>74.0</ele><time>2026-05-02T06:55:53Z</time></trkpt><trkpt lat="41.45866580524911" lon="13.79435241314048"><ele>74.0</ele><time>2026-05-02T06:55:54Z</time></trkpt><trkpt lat="41.4587586740797" lon="13.79439610110857"><ele>74.4</ele><time>2026-05-02T06:55:55Z</time></trkpt><trkpt lat="41.45884085869979" lon="13.794474637036878"><ele>74.80000000000001</ele><time>2026-05-02T06:55:55.999Z</time></trkpt><trkpt lat="41.45890454544724" lon="13.794582083440611"><ele>75.19999999999999</ele><time>2026-05-02T06:55:56.999Z</time></trkpt><trkpt lat="41.458940911783145" lon="13.794714152116015"><ele>75.6</ele><time>2026-05-02T06:55:57.999Z</time></trkpt><trkpt lat="41.45895762593227" lon="13.794858053962324"><ele>76.0</ele><time>2026-05-02T06:55:58.999Z</time></trkpt><trkpt lat="41.45895110419355" lon="13.795009847455667"><ele>76.0</ele><time>2026-05-02T06:55:59.999Z</time></trkpt><trkpt lat="41.45892717659795" lon="13.795159547047575"><ele>76.0</ele><time>2026-05-02T06:56:00.999Z</time></trkpt><trkpt lat="41.45889204723647" lon="13.79530974353712"><ele>76.0</ele><time>2026-05-02T06:56:01.999Z</time></trkpt><trkpt lat="41.458856925081584" lon="13.795468578412942"><ele>76.0</ele><time>2026-05-02T06:56:02.999Z</time></trkpt><trkpt lat="41.45882154054993" lon="13.795635088269792"><ele>76.25</ele><time>2026-05-02T06:56:03.999Z</time></trkpt><trkpt lat="41.458787883754596" lon="13.795807045921622"><ele>76.5</ele><time>2026-05-02T06:56:04.999Z</time></trkpt><trkpt lat="41.45875205882431" lon="13.795987448342947"><ele>76.75</ele><time>2026-05-02T06:56:05.999Z</time></trkpt><trkpt lat="41.4587150063675" lon="13.796167431584486"><ele>77.0</ele><time>2026-05-02T06:56:06.999Z</time></trkpt><trkpt lat="41.45867650633362" lon="13.796348184898678"><ele>76.0</ele><time>2026-05-02T06:56:07.999Z</time></trkpt><trkpt lat="41.458637001942996" lon="13.796524614722784"><ele>75.0</ele><time>2026-05-02T06:56:08.999Z</time></trkpt><trkpt lat="41.4585980173325" lon="13.79670433998547"><ele>74.0</ele><time>2026-05-02T06:56:09.999Z</time></trkpt><trkpt lat="41.45855917890804" lon="13.796889790732754"><ele>73.0</ele><time>2026-05-02T06:56:10.999Z</time></trkpt><trkpt lat="41.458519807143915" lon="13.797081608891245"><ele>73.0</ele><time>2026-05-02T06:56:11.999Z</time></trkpt><trkpt lat="41.45847690770544" lon="13.797280920602853"><ele>73.0</ele><time>2026-05-02T06:56:12.999Z</time></trkpt><trkpt lat="41.45843381994761" lon="13.79748716728252"><ele>73.0</ele><time>2026-05-02T06:56:13.999Z</time></trkpt><trkpt lat="41.458389692194935" lon="13.79770008043447"><ele>72.66666666666666</ele><time>2026-05-02T06:56:14.999Z</time></trkpt><trkpt lat="41.458345127944426" lon="13.797918810232229"><ele>72.33333333333333</ele><time>2026-05-02T06:56:15.999Z</time></trkpt><trkpt lat="41.458297435945276" lon="13.79814557983745"><ele>72.0</ele><time>2026-05-02T06:56:16.999Z</time></trkpt><trkpt lat="41.45824940046299" lon="13.798379353486395"><ele>71.66666666666667</ele><time>2026-05-02T06:56:17.999Z</time></trkpt><trkpt lat="41.45820050781342" lon="13.7986092222048"><ele>71.33333333333334</ele><time>2026-05-02T06:56:18.999Z</time></trkpt><trkpt lat="41.45814731372252" lon="13.798848077911323"><ele>71.0</ele><time>2026-05-02T06:56:19.999Z</time></trkpt><trkpt lat="41.458093492924625" lon="13.799087949941057"><ele>71.0</ele><time>2026-05-02T06:56:20.999Z</time></trkpt><trkpt lat="41.45804017757388" lon="13.799326833560364"><ele>71.0</ele><time>2026-05-02T06:56:21.999Z</time></trkpt><trkpt lat="41.457988963731886" lon="13.799569402471006"><ele>71.0</ele><time>2026-05-02T06:56:22.999Z</time></trkpt><trkpt lat="41.45793691321791" lon="13.799810463332816"><ele>71.0</ele><time>2026-05-02T06:56:23.999Z</time></trkpt><trkpt lat="41.457885176070256" lon="13.800046146244915"><ele>71.0</ele><time>2026-05-02T06:56:24.999Z</time></trkpt><trkpt lat="41.457834641030644" lon="13.800268300551123"><ele>71.0</ele><time>2026-05-02T06:56:25.999Z</time></trkpt><trkpt lat="41.457789441372" lon="13.800477953683338"><ele>70.75</ele><time>2026-05-02T06:56:26.999Z</time></trkpt><trkpt lat="41.457745787384134" lon="13.80066839235593"><ele>70.5</ele><time>2026-05-02T06:56:27.999Z</time></trkpt><trkpt lat="41.45770498062161" lon="13.800830329444965"><ele>70.25</ele><time>2026-05-02T06:56:28.999Z</time></trkpt><trkpt lat="41.457666832643774" lon="13.80097626429253"><ele>70.0</ele><time>2026-05-02T06:56:29.999Z</time></trkpt><trkpt lat="41.457633344349695" lon="13.801100041166356"><ele>69.5</ele><time>2026-05-02T06:56:30.999Z</time></trkpt><trkpt lat="41.457602243951285" lon="13.801206091226637"><ele>69.0</ele><time>2026-05-02T06:56:31.999Z</time></trkpt><trkpt lat="41.45757276557076" lon="13.801298356951564"><ele>68.5</ele><time>2026-05-02T06:56:32.999Z</time></trkpt><trkpt lat="41.45756675218644" lon="13.80138538809332"><ele>68.0</ele><time>2026-05-02T06:56:33.999Z</time></trkpt><trkpt lat="41.45754069285488" lon="13.801503314484481"><ele>67.5</ele><time>2026-05-02T06:56:35.999Z</time></trkpt><trkpt lat="41.45750776436255" lon="13.801583741731301"><ele>67.0</ele><time>2026-05-02T06:56:38.999Z</time></trkpt><trkpt lat="41.45748486178688" lon="13.801723962728834"><ele>67.0</ele><time>2026-05-02T06:56:41.999Z</time></trkpt><trkpt lat="41.45747449741541" lon="13.80181170432618"><ele>67.0</ele><time>2026-05-02T06:56:42.999Z</time></trkpt><trkpt lat="41.45745970398773" lon="13.80192596779127"><ele>67.0</ele><time>2026-05-02T06:56:43.999Z</time></trkpt><trkpt lat="41.45743740735958" lon="13.802066407723288"><ele>67.0</ele><time>2026-05-02T06:56:44.999Z</time></trkpt><trkpt lat="41.457406437602195" lon="13.802227090060608"><ele>67.0</ele><time>2026-05-02T06:56:45.999Z</time></trkpt><trkpt lat="41.45736719270527" lon="13.802412573417536"><ele>66.33333333333333</ele><time>2026-05-02T06:56:46.999Z</time></trkpt><trkpt lat="41.45732389649291" lon="13.80260807051608"><ele>65.66666666666667</ele><time>2026-05-02T06:56:47.999Z</time></trkpt><trkpt lat="41.457276844939166" lon="13.802817972364275"><ele>65.0</ele><time>2026-05-02T06:56:48.999Z</time></trkpt><trkpt lat="41.45722741845842" lon="13.803048317196074"><ele>64.33333333333334</ele><time>2026-05-02T06:56:49.999Z</time></trkpt><trkpt lat="41.45717372064844" lon="13.803293468707022"><ele>63.66666666666667</ele><time>2026-05-02T06:56:50.999Z</time></trkpt><trkpt lat="41.4571176391655" lon="13.803551709375695"><ele>63.0</ele><time>2026-05-02T06:56:51.999Z</time></trkpt><trkpt lat="41.45705923761269" lon="13.803819950692402"><ele>62.33333333333333</ele><time>2026-05-02T06:56:52.999Z</time></trkpt><trkpt lat="41.45699948926984" lon="13.804097817609902"><ele>61.666666666666664</ele><time>2026-05-02T06:56:53.999Z</time></trkpt><trkpt lat="41.45693632069242" lon="13.804382202257953"><ele>61.0</ele><time>2026-05-02T06:56:54.999Z</time></trkpt><trkpt lat="41.45687176243932" lon="13.804677791452"><ele>61.0</ele><time>2026-05-02T06:56:55.999Z</time></trkpt><trkpt lat="41.45680392524005" lon="13.804983344270411"><ele>61.0</ele><time>2026-05-02T06:56:56.999Z</time></trkpt><trkpt lat="41.45673447814802" lon="13.805298174711918"><ele>60.0</ele><time>2026-05-02T06:56:57.999Z</time></trkpt><trkpt lat="41.45666240427665" lon="13.805625264207121"><ele>59.0</ele><time>2026-05-02T06:56:58.999Z</time></trkpt><trkpt lat="41.456585824481046" lon="13.805960194442319"><ele>59.0</ele><time>2026-05-02T06:56:59.999Z</time></trkpt><trkpt lat="41.45651020103821" lon="13.806305024057417"><ele>59.0</ele><time>2026-05-02T06:57:00.999Z</time></trkpt><trkpt lat="41.45643110274638" lon="13.806658656740147"><ele>58.0</ele><time>2026-05-02T06:57:01.999Z</time></trkpt><trkpt lat="41.456352788671346" lon="13.80701833377998"><ele>57.0</ele><time>2026-05-02T06:57:02.999Z</time></trkpt><trkpt lat="41.456271171576425" lon="13.807386117344334"><ele>55.0</ele><time>2026-05-02T06:57:03.999Z</time></trkpt><trkpt lat="41.45618988871233" lon="13.807760895267965"><ele>53.0</ele><time>2026-05-02T06:57:04.999Z</time></trkpt><trkpt lat="41.45610627822937" lon="13.808140837954014"><ele>53.5</ele><time>2026-05-02T06:57:05.999Z</time></trkpt><trkpt lat="41.45602112171134" lon="13.808528218627877"><ele>54.0</ele><time>2026-05-02T06:57:06.999Z</time></trkpt><trkpt lat="41.45593748887724" lon="13.808917565391367"><ele>54.0</ele><time>2026-05-02T06:57:07.999Z</time></trkpt><trkpt lat="41.45585297534144" lon="13.809307803442296"><ele>54.0</ele><time>2026-05-02T06:57:08.999Z</time></trkpt><trkpt lat="41.45576826131108" lon="13.809698477605847"><ele>54.5</ele><time>2026-05-02T06:57:09.999Z</time></trkpt><trkpt lat="41.45567859362729" lon="13.810089389604983"><ele>55.0</ele><time>2026-05-02T06:57:10.999Z</time></trkpt><trkpt lat="41.455591969712096" lon="13.810481429044087"><ele>56.0</ele><time>2026-05-02T06:57:11.999Z</time></trkpt><trkpt lat="41.45550637902671" lon="13.810877246898038"><ele>57.0</ele><time>2026-05-02T06:57:12.999Z</time></trkpt><trkpt lat="41.455418825387014" lon="13.811275072847632"><ele>55.0</ele><time>2026-05-02T06:57:13.999Z</time></trkpt><trkpt lat="41.45533045563579" lon="13.811676074735997"><ele>53.0</ele><time>2026-05-02T06:57:14.998Z</time></trkpt><trkpt lat="41.45524020470584" lon="13.812084884012577"><ele>52.0</ele><time>2026-05-02T06:57:15.998Z</time></trkpt><trkpt lat="41.45514666582761" lon="13.812498097733583"><ele>51.0</ele><time>2026-05-02T06:57:16.998Z</time></trkpt><trkpt lat="41.45505154809227" lon="13.812915745934523"><ele>50.0</ele><time>2026-05-02T06:57:17.998Z</time></trkpt><trkpt lat="41.454957988997414" lon="13.813332903563863"><ele>49.0</ele><time>2026-05-02T06:57:18.998Z</time></trkpt><trkpt lat="41.45486839230178" lon="13.813742220060739"><ele>48.5</ele><time>2026-05-02T06:57:19.998Z</time></trkpt><trkpt lat="41.45478242415686" lon="13.81415111111347"><ele>48.0</ele><time>2026-05-02T06:57:20.998Z</time></trkpt><trkpt lat="41.4546916471434" lon="13.814558870225857"><ele>46.5</ele><time>2026-05-02T06:57:21.998Z</time></trkpt><trkpt lat="41.45460262139991" lon="13.814970607343584"><ele>45.0</ele><time>2026-05-02T06:57:22.998Z</time></trkpt><trkpt lat="41.45451083968015" lon="13.815383449604301"><ele>45.0</ele><time>2026-05-02T06:57:23.998Z</time></trkpt><trkpt lat="41.454418966003146" lon="13.815795456582402"><ele>45.0</ele><time>2026-05-02T06:57:24.998Z</time></trkpt><trkpt lat="41.454326646466356" lon="13.816210344294186"><ele>45.0</ele><time>2026-05-02T06:57:26Z</time></trkpt><trkpt lat="41.45423642008297" lon="13.816623977679244"><ele>45.0</ele><time>2026-05-02T06:57:27Z</time></trkpt><trkpt lat="41.45414549709438" lon="13.817037899477896"><ele>47.5</ele><time>2026-05-02T06:57:28Z</time></trkpt><trkpt lat="41.45405579125551" lon="13.817454094702946"><ele>50.0</ele><time>2026-05-02T06:57:29Z</time></trkpt><trkpt lat="41.45396337446745" lon="13.817870819496076"><ele>54.5</ele><time>2026-05-02T06:57:30Z</time></trkpt><trkpt lat="41.453869536276194" lon="13.818287575744066"><ele>59.0</ele><time>2026-05-02T06:57:31Z</time></trkpt><trkpt lat="41.45377849905696" lon="13.818705670381762"><ele>59.5</ele><time>2026-05-02T06:57:32Z</time></trkpt><trkpt lat="41.45368470116292" lon="13.819125791586528"><ele>60.0</ele><time>2026-05-02T06:57:33Z</time></trkpt><trkpt lat="41.45359330964633" lon="13.8195517903132"><ele>60.0</ele><time>2026-05-02T06:57:34Z</time></trkpt><trkpt lat="41.45349965486376" lon="13.819972385535383"><ele>60.0</ele><time>2026-05-02T06:57:35Z</time></trkpt><trkpt lat="41.45340698105521" lon="13.820394779807808"><ele>60.0</ele><time>2026-05-02T06:57:36Z</time></trkpt><trkpt lat="41.45331375444008" lon="13.820816542969125"><ele>60.0</ele><time>2026-05-02T06:57:37Z</time></trkpt><trkpt lat="41.45322056677038" lon="13.82124101733674"><ele>60.0</ele><time>2026-05-02T06:57:38Z</time></trkpt><trkpt lat="41.45312861660789" lon="13.821664364774055"><ele>60.0</ele><time>2026-05-02T06:57:39Z</time></trkpt><trkpt lat="41.453035691358345" lon="13.822089613726714"><ele>58.0</ele><time>2026-05-02T06:57:40Z</time></trkpt><trkpt lat="41.45294447177175" lon="13.822514189702247"><ele>56.0</ele><time>2026-05-02T06:57:41Z</time></trkpt><trkpt lat="41.45285426048748" lon="13.822938007036408"><ele>55.5</ele><time>2026-05-02T06:57:42Z</time></trkpt><trkpt lat="41.45276399923131" lon="13.823359525810652"><ele>55.0</ele><time>2026-05-02T06:57:43Z</time></trkpt><trkpt lat="41.45267545653253" lon="13.823780917575546"><ele>52.5</ele><time>2026-05-02T06:57:44Z</time></trkpt><trkpt lat="41.45258556041155" lon="13.824203072131693"><ele>50.0</ele><time>2026-05-02T06:57:45Z</time></trkpt><trkpt lat="41.45249500992228" lon="13.824623941635517"><ele>50.0</ele><time>2026-05-02T06:57:46Z</time></trkpt><trkpt lat="41.45240263770611" lon="13.825044086158888"><ele>50.0</ele><time>2026-05-02T06:57:47Z</time></trkpt><trkpt lat="41.45231045760702" lon="13.825463620695036"><ele>51.0</ele><time>2026-05-02T06:57:48Z</time></trkpt><trkpt lat="41.45221584558973" lon="13.825882492139227"><ele>52.0</ele><time>2026-05-02T06:57:49Z</time></trkpt><trkpt lat="41.45212185760051" lon="13.826304636084567"><ele>52.0</ele><time>2026-05-02T06:57:50Z</time></trkpt><trkpt lat="41.45203309919344" lon="13.82672726709566"><ele>52.0</ele><time>2026-05-02T06:57:51Z</time></trkpt><trkpt lat="41.45193936302041" lon="13.827150958845618"><ele>53.0</ele><time>2026-05-02T06:57:52Z</time></trkpt><trkpt lat="41.45184606946899" lon="13.827576610696823"><ele>54.0</ele><time>2026-05-02T06:57:53Z</time></trkpt><trkpt lat="41.451753344825654" lon="13.828001466557037"><ele>54.0</ele><time>2026-05-02T06:57:54Z</time></trkpt><trkpt lat="41.45166142210737" lon="13.828429466719642"><ele>54.0</ele><time>2026-05-02T06:57:55Z</time></trkpt><trkpt lat="41.451567924994215" lon="13.828857016434805"><ele>52.0</ele><time>2026-05-02T06:57:56Z</time></trkpt><trkpt lat="41.4514759255221" lon="13.829286549334672"><ele>50.0</ele><time>2026-05-02T06:57:57Z</time></trkpt><trkpt lat="41.45138280016313" lon="13.829714206545319"><ele>50.0</ele><time>2026-05-02T06:57:58Z</time></trkpt><trkpt lat="41.45128578696315" lon="13.83013972972442"><ele>50.0</ele><time>2026-05-02T06:57:59Z</time></trkpt><trkpt lat="41.45118991306172" lon="13.830566155049784"><ele>49.0</ele><time>2026-05-02T06:58:00Z</time></trkpt><trkpt lat="41.45109205605329" lon="13.830996427711824"><ele>48.0</ele><time>2026-05-02T06:58:00.999Z</time></trkpt><trkpt lat="41.4509973654601" lon="13.831425758923201"><ele>48.5</ele><time>2026-05-02T06:58:01.999Z</time></trkpt><trkpt lat="41.450900671996145" lon="13.831853487191525"><ele>49.0</ele><time>2026-05-02T06:58:02.999Z</time></trkpt><trkpt lat="41.45080563870269" lon="13.832283789801552"><ele>47.5</ele><time>2026-05-02T06:58:03.999Z</time></trkpt><trkpt lat="41.450712309045976" lon="13.832712529522336"><ele>46.0</ele><time>2026-05-02T06:58:04.999Z</time></trkpt><trkpt lat="41.450620370960046" lon="13.83314074101656"><ele>43.0</ele><time>2026-05-02T06:58:05.999Z</time></trkpt><trkpt lat="41.45052360161351" lon="13.833567680525503"><ele>40.0</ele><time>2026-05-02T06:58:06.999Z</time></trkpt><trkpt lat="41.45042668469336" lon="13.833993146008554"><ele>36.5</ele><time>2026-05-02T06:58:07.999Z</time></trkpt><trkpt lat="41.45033320625339" lon="13.834419141290734"><ele>33.0</ele><time>2026-05-02T06:58:08.999Z</time></trkpt><trkpt lat="41.45024213311761" lon="13.834842690908172"><ele>32.0</ele><time>2026-05-02T06:58:09.999Z</time></trkpt><trkpt lat="41.450148154862724" lon="13.835267662730049"><ele>31.0</ele><time>2026-05-02T06:58:10.999Z</time></trkpt><trkpt lat="41.450052318626376" lon="13.835694314896829"><ele>30.0</ele><time>2026-05-02T06:58:11.999Z</time></trkpt><trkpt lat="41.449960767100684" lon="13.836118541081046"><ele>29.0</ele><time>2026-05-02T06:58:12.999Z</time></trkpt><trkpt lat="41.44986787052612" lon="13.836541430024628"><ele>30.0</ele><time>2026-05-02T06:58:13.999Z</time></trkpt><trkpt lat="41.44977346789438" lon="13.836964413519102"><ele>31.0</ele><time>2026-05-02T06:58:14.999Z</time></trkpt><trkpt lat="41.44967767329615" lon="13.837386588662733"><ele>30.0</ele><time>2026-05-02T06:58:15.999Z</time></trkpt><trkpt lat="41.4495802840353" lon="13.837801858360487"><ele>29.0</ele><time>2026-05-02T06:58:16.999Z</time></trkpt><trkpt lat="41.44948689998694" lon="13.838220471690075"><ele>29.5</ele><time>2026-05-02T06:58:17.999Z</time></trkpt><trkpt lat="41.44939498567603" lon="13.838643072217419"><ele>30.0</ele><time>2026-05-02T06:58:18.999Z</time></trkpt><trkpt lat="41.44930593619909" lon="13.839066542797282"><ele>31.0</ele><time>2026-05-02T06:58:19.999Z</time></trkpt><trkpt lat="41.449219526534904" lon="13.839482309426232"><ele>32.0</ele><time>2026-05-02T06:58:20.999Z</time></trkpt><trkpt lat="41.44912293790829" lon="13.83991261393619"><ele>34.0</ele><time>2026-05-02T06:58:21.999Z</time></trkpt><trkpt lat="41.449027609838105" lon="13.840332314829894"><ele>36.0</ele><time>2026-05-02T06:58:22.999Z</time></trkpt><trkpt lat="41.44893389246407" lon="13.840755414087617"><ele>37.5</ele><time>2026-05-02T06:58:23.999Z</time></trkpt><trkpt lat="41.448839790532055" lon="13.841175939205067"><ele>39.0</ele><time>2026-05-02T06:58:24.999Z</time></trkpt><trkpt lat="41.44874508144875" lon="13.841596874347388"><ele>40.0</ele><time>2026-05-02T06:58:25.999Z</time></trkpt><trkpt lat="41.448649752183094" lon="13.842016679124855"><ele>41.0</ele><time>2026-05-02T06:58:26.999Z</time></trkpt><trkpt lat="41.44855668908632" lon="13.842439848470912"><ele>42.5</ele><time>2026-05-02T06:58:27.999Z</time></trkpt><trkpt lat="41.44846367534861" lon="13.842864155574208"><ele>44.0</ele><time>2026-05-02T06:58:28.999Z</time></trkpt><trkpt lat="41.448369591901" lon="13.843288468917796"><ele>44.0</ele><time>2026-05-02T06:58:29.999Z</time></trkpt><trkpt lat="41.44827569390911" lon="13.843713110770011"><ele>44.0</ele><time>2026-05-02T06:58:30.999Z</time></trkpt><trkpt lat="41.44817949048545" lon="13.844140829475732"><ele>44.5</ele><time>2026-05-02T06:58:31.999Z</time></trkpt><trkpt lat="41.44808443444948" lon="13.844565294604196"><ele>45.0</ele><time>2026-05-02T06:58:32.999Z</time></trkpt><trkpt lat="41.447990448153355" lon="13.844992123111304"><ele>46.5</ele><time>2026-05-02T06:58:33.999Z</time></trkpt><trkpt lat="41.44789617601941" lon="13.845419141093204"><ele>48.0</ele><time>2026-05-02T06:58:34.999Z</time></trkpt><trkpt lat="41.44780129783051" lon="13.845846187016381"><ele>47.0</ele><time>2026-05-02T06:58:35.999Z</time></trkpt><trkpt lat="41.44770677624884" lon="13.846274201081599"><ele>46.0</ele><time>2026-05-02T06:58:36.999Z</time></trkpt><trkpt lat="41.44761422230226" lon="13.846701929882952"><ele>45.5</ele><time>2026-05-02T06:58:37.999Z</time></trkpt><trkpt lat="41.44751967867731" lon="13.847128249850279"><ele>45.0</ele><time>2026-05-02T06:58:38.999Z</time></trkpt><trkpt lat="41.44742635153048" lon="13.847555277159046"><ele>43.5</ele><time>2026-05-02T06:58:39.999Z</time></trkpt><trkpt lat="41.447331822200674" lon="13.847980237743494"><ele>42.0</ele><time>2026-05-02T06:58:40.999Z</time></trkpt><trkpt lat="41.447235482043496" lon="13.848404839484834"><ele>42.0</ele><time>2026-05-02T06:58:41.999Z</time></trkpt><trkpt lat="41.447139145225954" lon="13.848831637489312"><ele>42.0</ele><time>2026-05-02T06:58:42.999Z</time></trkpt><trkpt lat="41.44704544277686" lon="13.84925778540749"><ele>45.5</ele><time>2026-05-02T06:58:43.999Z</time></trkpt><trkpt lat="41.446952744604694" lon="13.849683867373649"><ele>49.0</ele><time>2026-05-02T06:58:44.999Z</time></trkpt><trkpt lat="41.44686048844202" lon="13.850109352759635"><ele>48.5</ele><time>2026-05-02T06:58:45.999Z</time></trkpt><trkpt lat="41.44676858145558" lon="13.85053436768773"><ele>48.0</ele><time>2026-05-02T06:58:46.999Z</time></trkpt><trkpt lat="41.44667560129836" lon="13.850959837977255"><ele>49.0</ele><time>2026-05-02T06:58:47.999Z</time></trkpt><trkpt lat="41.446580913243885" lon="13.851383802564992"><ele>50.0</ele><time>2026-05-02T06:58:48.999Z</time></trkpt><trkpt lat="41.44648497466675" lon="13.851808707008594"><ele>50.0</ele><time>2026-05-02T06:58:49.999Z</time></trkpt><trkpt lat="41.44639004369468" lon="13.852234188071533"><ele>50.0</ele><time>2026-05-02T06:58:50.999Z</time></trkpt><trkpt lat="41.44629792253556" lon="13.852662064020453"><ele>50.0</ele><time>2026-05-02T06:58:51.999Z</time></trkpt><trkpt lat="41.446202872831414" lon="13.853089784480018"><ele>50.0</ele><time>2026-05-02T06:58:52.999Z</time></trkpt><trkpt lat="41.446108546617495" lon="13.853518153905547"><ele>50.0</ele><time>2026-05-02T06:58:53.999Z</time></trkpt><trkpt lat="41.44601306576811" lon="13.853945582000742"><ele>50.0</ele><time>2026-05-02T06:58:54.999Z</time></trkpt><trkpt lat="41.4459155235287" lon="13.854372204981548"><ele>50.0</ele><time>2026-05-02T06:58:55.999Z</time></trkpt><trkpt lat="41.44581950554887" lon="13.854797980943404"><ele>50.0</ele><time>2026-05-02T06:58:56.999Z</time></trkpt><trkpt lat="41.445724047423795" lon="13.855224202561045"><ele>50.0</ele><time>2026-05-02T06:58:57.999Z</time></trkpt><trkpt lat="41.44562994085705" lon="13.855651532667931"><ele>50.0</ele><time>2026-05-02T06:58:58.999Z</time></trkpt><trkpt lat="41.44553567031421" lon="13.85607928082997"><ele>48.0</ele><time>2026-05-02T06:58:59.999Z</time></trkpt><trkpt lat="41.4454421958958" lon="13.856505745320039"><ele>46.0</ele><time>2026-05-02T06:59:00.999Z</time></trkpt><trkpt lat="41.44534709928525" lon="13.856932584864866"><ele>46.0</ele><time>2026-05-02T06:59:01.999Z</time></trkpt><trkpt lat="41.445250390354545" lon="13.857358707630674"><ele>46.0</ele><time>2026-05-02T06:59:02.999Z</time></trkpt><trkpt lat="41.445154616760256" lon="13.857783284969699"><ele>46.5</ele><time>2026-05-02T06:59:03.999Z</time></trkpt><trkpt lat="41.445060122682534" lon="13.858208426831787"><ele>47.0</ele><time>2026-05-02T06:59:04.999Z</time></trkpt><trkpt lat="41.44496777453809" lon="13.858633831343797"><ele>47.0</ele><time>2026-05-02T06:59:05.999Z</time></trkpt><trkpt lat="41.444873801337735" lon="13.859058587733191"><ele>47.0</ele><time>2026-05-02T06:59:06.999Z</time></trkpt><trkpt lat="41.44478018979516" lon="13.859483116867944"><ele>47.0</ele><time>2026-05-02T06:59:07.999Z</time></trkpt><trkpt lat="41.4446865305283" lon="13.859908709546211"><ele>47.0</ele><time>2026-05-02T06:59:08.999Z</time></trkpt><trkpt lat="41.44459267243912" lon="13.860332009489186"><ele>47.0</ele><time>2026-05-02T06:59:09.999Z</time></trkpt><trkpt lat="41.44449919624374" lon="13.860757715700046"><ele>47.0</ele><time>2026-05-02T06:59:10.999Z</time></trkpt><trkpt lat="41.44440566718536" lon="13.861182878595988"><ele>47.0</ele><time>2026-05-02T06:59:11.999Z</time></trkpt><trkpt lat="41.44431227363881" lon="13.861607563337897"><ele>47.0</ele><time>2026-05-02T06:59:12.999Z</time></trkpt><trkpt lat="41.44421759148987" lon="13.862035542032354"><ele>46.5</ele><time>2026-05-02T06:59:13.999Z</time></trkpt><trkpt lat="41.444123041329746" lon="13.862461404874121"><ele>46.0</ele><time>2026-05-02T06:59:14.999Z</time></trkpt><trkpt lat="41.4440298742711" lon="13.862885072513386"><ele>45.5</ele><time>2026-05-02T06:59:15.999Z</time></trkpt><trkpt lat="41.44393575873347" lon="13.863308752141986"><ele>45.0</ele><time>2026-05-02T06:59:16.999Z</time></trkpt><trkpt lat="41.44384160124727" lon="13.863732932398607"><ele>42.0</ele><time>2026-05-02T06:59:17.998Z</time></trkpt><trkpt lat="41.44374767911561" lon="13.864157972363087"><ele>39.0</ele><time>2026-05-02T06:59:18.998Z</time></trkpt><trkpt lat="41.443654798090165" lon="13.864582484593189"><ele>39.0</ele><time>2026-05-02T06:59:19.998Z</time></trkpt><trkpt lat="41.443561138281005" lon="13.865008071001238"><ele>39.0</ele><time>2026-05-02T06:59:20.998Z</time></trkpt><trkpt lat="41.443467554577545" lon="13.865433256733716"><ele>39.5</ele><time>2026-05-02T06:59:21.998Z</time></trkpt><trkpt lat="41.44337258070875" lon="13.865858114663338"><ele>40.0</ele><time>2026-05-02T06:59:22.998Z</time></trkpt><trkpt lat="41.443278206681164" lon="13.866282587000518"><ele>40.5</ele><time>2026-05-02T06:59:23.998Z</time></trkpt><trkpt lat="41.44318433646815" lon="13.86670655155918"><ele>41.0</ele><time>2026-05-02T06:59:24.998Z</time></trkpt><trkpt lat="41.44309154896411" lon="13.867129595257662"><ele>42.0</ele><time>2026-05-02T06:59:25.998Z</time></trkpt><trkpt lat="41.442998352593506" lon="13.867552802035704"><ele>43.0</ele><time>2026-05-02T06:59:26.998Z</time></trkpt><trkpt lat="41.44290433358094" lon="13.86797630378383"><ele>42.0</ele><time>2026-05-02T06:59:27.998Z</time></trkpt><trkpt lat="41.44281079036803" lon="13.868400389598714"><ele>41.0</ele><time>2026-05-02T06:59:28.998Z</time></trkpt><trkpt lat="41.442716973723435" lon="13.868822619780138"><ele>41.0</ele><time>2026-05-02T06:59:29.998Z</time></trkpt><trkpt lat="41.442623398878126" lon="13.869244321113344"><ele>41.0</ele><time>2026-05-02T06:59:30.998Z</time></trkpt><trkpt lat="41.44252960487308" lon="13.869667112077854"><ele>41.5</ele><time>2026-05-02T06:59:32Z</time></trkpt><trkpt lat="41.44243607124335" lon="13.87008964703637"><ele>42.0</ele><time>2026-05-02T06:59:33Z</time></trkpt><trkpt lat="41.44234257278681" lon="13.87051336036499"><ele>43.0</ele><time>2026-05-02T06:59:34Z</time></trkpt><trkpt lat="41.44224528690276" lon="13.870937954255114"><ele>44.0</ele><time>2026-05-02T06:59:35Z</time></trkpt><trkpt lat="41.442151085932785" lon="13.871361001382283"><ele>47.0</ele><time>2026-05-02T06:59:36Z</time></trkpt><trkpt lat="41.44205611819911" lon="13.871782445238809"><ele>50.0</ele><time>2026-05-02T06:59:37Z</time></trkpt><trkpt lat="41.44196191587294" lon="13.872209536199378"><ele>50.5</ele><time>2026-05-02T06:59:38Z</time></trkpt><trkpt lat="41.441860183448874" lon="13.8726321071489"><ele>51.0</ele><time>2026-05-02T06:59:39Z</time></trkpt><trkpt lat="41.441753180365154" lon="13.873052268062846"><ele>52.5</ele><time>2026-05-02T06:59:40Z</time></trkpt><trkpt lat="41.44164393311643" lon="13.873470366609629"><ele>54.0</ele><time>2026-05-02T06:59:41Z</time></trkpt><trkpt lat="41.44153141007581" lon="13.87388645037752"><ele>57.0</ele><time>2026-05-02T06:59:42Z</time></trkpt><trkpt lat="41.44142473359288" lon="13.874306798479928"><ele>60.0</ele><time>2026-05-02T06:59:43Z</time></trkpt><trkpt lat="41.44131458456456" lon="13.874724958045478"><ele>60.0</ele><time>2026-05-02T06:59:44Z</time></trkpt><trkpt lat="41.44120312658389" lon="13.875143708043572"><ele>60.0</ele><time>2026-05-02T06:59:45Z</time></trkpt><trkpt lat="41.44108748456834" lon="13.875560341732028"><ele>61.0</ele><time>2026-05-02T06:59:46Z</time></trkpt><trkpt lat="41.44096720654808" lon="13.875972826418902"><ele>62.0</ele><time>2026-05-02T06:59:47Z</time></trkpt><trkpt lat="41.440844652405566" lon="13.876381456837985"><ele>61.5</ele><time>2026-05-02T06:59:48Z</time></trkpt><trkpt lat="41.440720382593966" lon="13.876790292827435"><ele>61.0</ele><time>2026-05-02T06:59:49Z</time></trkpt><trkpt lat="41.44059281543251" lon="13.877198938714068"><ele>61.5</ele><time>2026-05-02T06:59:50Z</time></trkpt><trkpt lat="41.440458866396696" lon="13.877604133093614"><ele>62.0</ele><time>2026-05-02T06:59:51Z</time></trkpt><trkpt lat="41.440326664536535" lon="13.878011080892607"><ele>62.0</ele><time>2026-05-02T06:59:52Z</time></trkpt><trkpt lat="41.44018837936242" lon="13.878414787031547"><ele>62.0</ele><time>2026-05-02T06:59:53Z</time></trkpt><trkpt lat="41.440045013136086" lon="13.87881649059184"><ele>61.5</ele><time>2026-05-02T06:59:54Z</time></trkpt><trkpt lat="41.43990048739181" lon="13.879216724022156"><ele>61.0</ele><time>2026-05-02T06:59:55Z</time></trkpt><trkpt lat="41.43975165118169" lon="13.879616033650938"><ele>62.0</ele><time>2026-05-02T06:59:56Z</time></trkpt><trkpt lat="41.439601421192634" lon="13.880013096993137"><ele>63.0</ele><time>2026-05-02T06:59:57Z</time></trkpt><trkpt lat="41.43945130405451" lon="13.880409413940763"><ele>63.0</ele><time>2026-05-02T06:59:58Z</time></trkpt><trkpt lat="41.43930021750521" lon="13.880804498823519"><ele>63.0</ele><time>2026-05-02T06:59:59Z</time></trkpt><trkpt lat="41.439147873718035" lon="13.88119949513805"><ele>62.0</ele><time>2026-05-02T07:00:00Z</time></trkpt><trkpt lat="41.438993054816116" lon="13.88159208626345"><ele>61.0</ele><time>2026-05-02T07:00:01Z</time></trkpt><trkpt lat="41.438841009091966" lon="13.88198403645215"><ele>63.0</ele><time>2026-05-02T07:00:02Z</time></trkpt><trkpt lat="41.438685956753424" lon="13.882374541964175"><ele>65.0</ele><time>2026-05-02T07:00:03Z</time></trkpt><trkpt lat="41.43852666792477" lon="13.882763279867541"><ele>65.5</ele><time>2026-05-02T07:00:04Z</time></trkpt><trkpt lat="41.4383802416501" lon="13.883161984632295"><ele>66.0</ele><time>2026-05-02T07:00:05Z</time></trkpt><trkpt lat="41.43822572176363" lon="13.883553252294343"><ele>65.0</ele><time>2026-05-02T07:00:05.999Z</time></trkpt><trkpt lat="41.43807192868986" lon="13.883944584308242"><ele>64.0</ele><time>2026-05-02T07:00:06.999Z</time></trkpt><trkpt lat="41.43791881532631" lon="13.884339494161908"><ele>64.5</ele><time>2026-05-02T07:00:07.999Z</time></trkpt><trkpt lat="41.437769356254364" lon="13.884737161570056"><ele>65.0</ele><time>2026-05-02T07:00:08.999Z</time></trkpt><trkpt lat="41.43761977334202" lon="13.885134579942822"><ele>65.0</ele><time>2026-05-02T07:00:09.999Z</time></trkpt><trkpt lat="41.4374685221836" lon="13.885531469177664"><ele>65.0</ele><time>2026-05-02T07:00:10.999Z</time></trkpt><trkpt lat="41.43731564757159" lon="13.885925948596428"><ele>64.5</ele><time>2026-05-02T07:00:11.999Z</time></trkpt><trkpt lat="41.43716135609761" lon="13.886319665555895"><ele>64.0</ele><time>2026-05-02T07:00:12.999Z</time></trkpt><trkpt lat="41.437006246286266" lon="13.886716593009439"><ele>66.5</ele><time>2026-05-02T07:00:13.999Z</time></trkpt><trkpt lat="41.43685208437906" lon="13.887113122760365"><ele>69.0</ele><time>2026-05-02T07:00:14.999Z</time></trkpt><trkpt lat="41.43669843020436" lon="13.887510641055627"><ele>67.0</ele><time>2026-05-02T07:00:15.999Z</time></trkpt><trkpt lat="41.43654412068595" lon="13.887906828530511"><ele>65.0</ele><time>2026-05-02T07:00:16.999Z</time></trkpt><trkpt lat="41.43639031259797" lon="13.888302158164358"><ele>64.5</ele><time>2026-05-02T07:00:17.999Z</time></trkpt><trkpt lat="41.436237346378334" lon="13.888698993092119"><ele>64.0</ele><time>2026-05-02T07:00:18.999Z</time></trkpt><trkpt lat="41.436082756326236" lon="13.88909413462013"><ele>62.5</ele><time>2026-05-02T07:00:19.999Z</time></trkpt><trkpt lat="41.43592732900777" lon="13.889488731445596"><ele>61.0</ele><time>2026-05-02T07:00:20.999Z</time></trkpt><trkpt lat="41.43577209594006" lon="13.889882646120258"><ele>61.0</ele><time>2026-05-02T07:00:21.999Z</time></trkpt><trkpt lat="41.43561726858743" lon="13.89027723437081"><ele>61.0</ele><time>2026-05-02T07:00:22.999Z</time></trkpt><trkpt lat="41.43546290888993" lon="13.890673539646984"><ele>60.0</ele><time>2026-05-02T07:00:23.999Z</time></trkpt><trkpt lat="41.43530985479091" lon="13.891066576604867"><ele>59.0</ele><time>2026-05-02T07:00:24.999Z</time></trkpt><trkpt lat="41.43515619142937" lon="13.891458369019498"><ele>58.0</ele><time>2026-05-02T07:00:25.999Z</time></trkpt><trkpt lat="41.43500261381379" lon="13.89185137629539"><ele>57.0</ele><time>2026-05-02T07:00:26.999Z</time></trkpt><trkpt lat="41.43484976663131" lon="13.892242700930005"><ele>57.0</ele><time>2026-05-02T07:00:27.999Z</time></trkpt><trkpt lat="41.43469645069037" lon="13.892633706386148"><ele>57.0</ele><time>2026-05-02T07:00:28.999Z</time></trkpt><trkpt lat="41.434543223034666" lon="13.893024052336008"><ele>57.0</ele><time>2026-05-02T07:00:29.999Z</time></trkpt><trkpt lat="41.43439065873889" lon="13.893414688672095"><ele>57.0</ele><time>2026-05-02T07:00:30.999Z</time></trkpt><trkpt lat="41.434237045093994" lon="13.893807912610095"><ele>56.5</ele><time>2026-05-02T07:00:31.999Z</time></trkpt><trkpt lat="41.43408472950122" lon="13.894201170008243"><ele>56.0</ele><time>2026-05-02T07:00:32.999Z</time></trkpt><trkpt lat="41.43393394937961" lon="13.8945939800498"><ele>56.5</ele><time>2026-05-02T07:00:33.999Z</time></trkpt><trkpt lat="41.43378467198328" lon="13.894987487039387"><ele>57.0</ele><time>2026-05-02T07:00:34.999Z</time></trkpt><trkpt lat="41.43363494984625" lon="13.895379977344508"><ele>56.0</ele><time>2026-05-02T07:00:35.999Z</time></trkpt><trkpt lat="41.43333368838199" lon="13.896160879093289"><ele>56.0</ele><time>2026-05-02T07:00:37.999Z</time></trkpt><trkpt lat="41.43318023486855" lon="13.896547511845483"><ele>56.0</ele><time>2026-05-02T07:00:38.999Z</time></trkpt><trkpt lat="41.43302694566143" lon="13.89693406047654"><ele>56.0</ele><time>2026-05-02T07:00:39.999Z</time></trkpt><trkpt lat="41.4328726487022" lon="13.897320253708111"><ele>56.0</ele><time>2026-05-02T07:00:40.999Z</time></trkpt><trkpt lat="41.43272104458263" lon="13.897706027468939"><ele>56.0</ele><time>2026-05-02T07:00:41.999Z</time></trkpt><trkpt lat="41.43257018703841" lon="13.898093549339599"><ele>56.0</ele><time>2026-05-02T07:00:42.999Z</time></trkpt><trkpt lat="41.43241789645213" lon="13.898481535527834"><ele>55.5</ele><time>2026-05-02T07:00:43.999Z</time></trkpt><trkpt lat="41.43226485355548" lon="13.898869657183111"><ele>55.0</ele><time>2026-05-02T07:00:44.999Z</time></trkpt><trkpt lat="41.432114161969785" lon="13.899255836002782"><ele>56.0</ele><time>2026-05-02T07:00:45.999Z</time></trkpt><trkpt lat="41.431965283470575" lon="13.899641833144184"><ele>57.0</ele><time>2026-05-02T07:00:46.999Z</time></trkpt><trkpt lat="41.431814301097276" lon="13.900031778172176"><ele>57.0</ele><time>2026-05-02T07:00:47.999Z</time></trkpt><trkpt lat="41.43166155793948" lon="13.90042267753442"><ele>57.0</ele><time>2026-05-02T07:00:48.999Z</time></trkpt><trkpt lat="41.43150684968936" lon="13.900814451085665"><ele>57.0</ele><time>2026-05-02T07:00:49.999Z</time></trkpt><trkpt lat="41.431354243588025" lon="13.901207358188103"><ele>57.0</ele><time>2026-05-02T07:00:50.999Z</time></trkpt><trkpt lat="41.431201978426245" lon="13.90159973969191"><ele>55.0</ele><time>2026-05-02T07:00:51.999Z</time></trkpt><trkpt lat="41.43104848439597" lon="13.901993228456611"><ele>53.0</ele><time>2026-05-02T07:00:52.999Z</time></trkpt><trkpt lat="41.4308959886614" lon="13.902386649577386"><ele>54.0</ele><time>2026-05-02T07:00:53.999Z</time></trkpt><trkpt lat="41.430742147550724" lon="13.90277996153845"><ele>55.0</ele><time>2026-05-02T07:00:54.999Z</time></trkpt><trkpt lat="41.430588408524166" lon="13.903171936337532"><ele>52.5</ele><time>2026-05-02T07:00:55.999Z</time></trkpt><trkpt lat="41.43043555082963" lon="13.903563172302878"><ele>50.0</ele><time>2026-05-02T07:00:56.999Z</time></trkpt><trkpt lat="41.43028309279053" lon="13.903954350246808"><ele>49.5</ele><time>2026-05-02T07:00:57.999Z</time></trkpt><trkpt lat="41.430131789999415" lon="13.90434633922798"><ele>49.0</ele><time>2026-05-02T07:00:58.999Z</time></trkpt><trkpt lat="41.429981882160824" lon="13.904736717952119"><ele>46.0</ele><time>2026-05-02T07:00:59.999Z</time></trkpt><trkpt lat="41.42983069340733" lon="13.905128223416718"><ele>43.0</ele><time>2026-05-02T07:01:00.999Z</time></trkpt><trkpt lat="41.42968081954143" lon="13.905516950481665"><ele>43.5</ele><time>2026-05-02T07:01:01.999Z</time></trkpt><trkpt lat="41.42952939258899" lon="13.90590362434852"><ele>44.0</ele><time>2026-05-02T07:01:02.999Z</time></trkpt><trkpt lat="41.42938109982472" lon="13.906286328058975"><ele>43.0</ele><time>2026-05-02T07:01:03.999Z</time></trkpt><trkpt lat="41.429234665055674" lon="13.906670299940654"><ele>42.0</ele><time>2026-05-02T07:01:04.999Z</time></trkpt><trkpt lat="41.429090967362676" lon="13.90705406892681"><ele>40.0</ele><time>2026-05-02T07:01:05.999Z</time></trkpt><trkpt lat="41.428946162790105" lon="13.907437265114249"><ele>38.0</ele><time>2026-05-02T07:01:06.999Z</time></trkpt><trkpt lat="41.42879964126591" lon="13.907824455001531"><ele>37.5</ele><time>2026-05-02T07:01:07.999Z</time></trkpt><trkpt lat="41.42865066098954" lon="13.90821342557932"><ele>37.0</ele><time>2026-05-02T07:01:08.999Z</time></trkpt><trkpt lat="41.428500848001995" lon="13.908604905984465"><ele>37.0</ele><time>2026-05-02T07:01:09.999Z</time></trkpt><trkpt lat="41.42834999638667" lon="13.90899679649355"><ele>37.0</ele><time>2026-05-02T07:01:10.999Z</time></trkpt><trkpt lat="41.428202934135136" lon="13.909381299568935"><ele>36.5</ele><time>2026-05-02T07:01:11.999Z</time></trkpt><trkpt lat="41.428056832513526" lon="13.909760681497573"><ele>36.0</ele><time>2026-05-02T07:01:12.999Z</time></trkpt><trkpt lat="41.427910053947336" lon="13.910140771401982"><ele>37.0</ele><time>2026-05-02T07:01:13.999Z</time></trkpt><trkpt lat="41.42776422005297" lon="13.910519224028752"><ele>38.0</ele><time>2026-05-02T07:01:14.999Z</time></trkpt><trkpt lat="41.42761720880706" lon="13.910899909913338"><ele>39.5</ele><time>2026-05-02T07:01:15.999Z</time></trkpt><trkpt lat="41.42747120459131" lon="13.911277011350533"><ele>41.0</ele><time>2026-05-02T07:01:16.999Z</time></trkpt><trkpt lat="41.42732666365415" lon="13.911653047127748"><ele>41.5</ele><time>2026-05-02T07:01:17.999Z</time></trkpt><trkpt lat="41.427181350912626" lon="13.912030644026489"><ele>42.0</ele><time>2026-05-02T07:01:18.999Z</time></trkpt><trkpt lat="41.42703491294094" lon="13.912407989985228"><ele>45.5</ele><time>2026-05-02T07:01:19.999Z</time></trkpt><trkpt lat="41.42688752516242" lon="13.91278822882479"><ele>49.0</ele><time>2026-05-02T07:01:20.998Z</time></trkpt><trkpt lat="41.42673765920942" lon="13.913170581176693"><ele>49.5</ele><time>2026-05-02T07:01:21.998Z</time></trkpt><trkpt lat="41.42658618948794" lon="13.913554544034731"><ele>50.0</ele><time>2026-05-02T07:01:22.998Z</time></trkpt><trkpt lat="41.42643379723258" lon="13.913943450383282"><ele>49.5</ele><time>2026-05-02T07:01:23.998Z</time></trkpt><trkpt lat="41.42628308210922" lon="13.91433337149748"><ele>49.0</ele><time>2026-05-02T07:01:24.998Z</time></trkpt><trkpt lat="41.42613323006922" lon="13.914722548539787"><ele>50.0</ele><time>2026-05-02T07:01:25.998Z</time></trkpt><trkpt lat="41.42598278403098" lon="13.915113594550863"><ele>51.0</ele><time>2026-05-02T07:01:26.998Z</time></trkpt><trkpt lat="41.42583002975512" lon="13.915506302132856"><ele>51.0</ele><time>2026-05-02T07:01:27.998Z</time></trkpt><trkpt lat="41.42567601619141" lon="13.915898371327794"><ele>51.0</ele><time>2026-05-02T07:01:28.998Z</time></trkpt><trkpt lat="41.425521399306724" lon="13.916290126791862"><ele>50.5</ele><time>2026-05-02T07:01:29.998Z</time></trkpt><trkpt lat="41.42536676795584" lon="13.916684138369927"><ele>50.0</ele><time>2026-05-02T07:01:30.998Z</time></trkpt><trkpt lat="41.42521424749663" lon="13.917078634508336"><ele>50.0</ele><time>2026-05-02T07:01:31.998Z</time></trkpt><trkpt lat="41.425061070160936" lon="13.917472177760843"><ele>50.0</ele><time>2026-05-02T07:01:32.998Z</time></trkpt><trkpt lat="41.424906455363995" lon="13.917867213346986"><ele>50.0</ele><time>2026-05-02T07:01:33.998Z</time></trkpt><trkpt lat="41.42475302012052" lon="13.918261922426288"><ele>50.0</ele><time>2026-05-02T07:01:34.998Z</time></trkpt><trkpt lat="41.424600109914785" lon="13.91865807349488"><ele>50.0</ele><time>2026-05-02T07:01:35.998Z</time></trkpt><trkpt lat="41.424447504086736" lon="13.919054053562498"><ele>50.0</ele><time>2026-05-02T07:01:36.998Z</time></trkpt><trkpt lat="41.42429357096761" lon="13.919450167530687"><ele>52.5</ele><time>2026-05-02T07:01:37.999Z</time></trkpt><trkpt lat="41.42413952689684" lon="13.919843951373974"><ele>55.0</ele><time>2026-05-02T07:01:38.999Z</time></trkpt><trkpt lat="41.42398589970777" lon="13.920235369296954"><ele>56.5</ele><time>2026-05-02T07:01:39.999Z</time></trkpt><trkpt lat="41.42383294015501" lon="13.920626765819785"><ele>58.0</ele><time>2026-05-02T07:01:40.999Z</time></trkpt><trkpt lat="41.423681226759314" lon="13.921018040548411"><ele>58.0</ele><time>2026-05-02T07:01:41.999Z</time></trkpt><trkpt lat="41.423530168230855" lon="13.921410427863051"><ele>58.0</ele><time>2026-05-02T07:01:42.999Z</time></trkpt><trkpt lat="41.423377950062076" lon="13.92180178858144"><ele>62.5</ele><time>2026-05-02T07:01:43.999Z</time></trkpt><trkpt lat="41.42322423855911" lon="13.922190717396363"><ele>67.0</ele><time>2026-05-02T07:01:44.999Z</time></trkpt><trkpt lat="41.42306933818376" lon="13.922578598645432"><ele>65.0</ele><time>2026-05-02T07:01:45.999Z</time></trkpt><trkpt lat="41.42292273079935" lon="13.922975960084692"><ele>63.0</ele><time>2026-05-02T07:01:46.999Z</time></trkpt><trkpt lat="41.42276133383655" lon="13.923368547870076"><ele>65.5</ele><time>2026-05-02T07:01:47.999Z</time></trkpt><trkpt lat="41.42260878104759" lon="13.923762066574715"><ele>68.0</ele><time>2026-05-02T07:01:48.999Z</time></trkpt><trkpt lat="41.42245635657064" lon="13.924157180066949"><ele>71.0</ele><time>2026-05-02T07:01:49.999Z</time></trkpt><trkpt lat="41.42230252206313" lon="13.924551519994495"><ele>74.0</ele><time>2026-05-02T07:01:50.999Z</time></trkpt><trkpt lat="41.42214930912394" lon="13.924946134696938"><ele>71.0</ele><time>2026-05-02T07:01:51.999Z</time></trkpt><trkpt lat="41.42199696014796" lon="13.925340851414997"><ele>68.0</ele><time>2026-05-02T07:01:52.999Z</time></trkpt><trkpt lat="41.42184473347486" lon="13.925735199910497"><ele>71.5</ele><time>2026-05-02T07:01:53.999Z</time></trkpt><trkpt lat="41.42169216956088" lon="13.926131075586033"><ele>75.0</ele><time>2026-05-02T07:01:54.999Z</time></trkpt><trkpt lat="41.42153923924531" lon="13.926527623098256"><ele>79.0</ele><time>2026-05-02T07:01:55.999Z</time></trkpt><trkpt lat="41.4213863643076" lon="13.92692309709555"><ele>83.0</ele><time>2026-05-02T07:01:56.999Z</time></trkpt><trkpt lat="41.42123264853003" lon="13.927317564069874"><ele>78.0</ele><time>2026-05-02T07:01:57.999Z</time></trkpt><trkpt lat="41.421079476161545" lon="13.927712230717928"><ele>73.0</ele><time>2026-05-02T07:01:58.999Z</time></trkpt><trkpt lat="41.420925869170325" lon="13.928106367863025"><ele>75.0</ele><time>2026-05-02T07:01:59.999Z</time></trkpt><trkpt lat="41.420772927549244" lon="13.928499941313241"><ele>77.0</ele><time>2026-05-02T07:02:00.999Z</time></trkpt><trkpt lat="41.420619593523774" lon="13.928894326509605"><ele>73.0</ele><time>2026-05-02T07:02:01.999Z</time></trkpt><trkpt lat="41.42046549453926" lon="13.929288607490859"><ele>69.0</ele><time>2026-05-02T07:02:02.999Z</time></trkpt><trkpt lat="41.42031313328911" lon="13.929680383281847"><ele>71.5</ele><time>2026-05-02T07:02:03.999Z</time></trkpt><trkpt lat="41.420161176858834" lon="13.930073978571873"><ele>74.0</ele><time>2026-05-02T07:02:04.999Z</time></trkpt><trkpt lat="41.420008806199256" lon="13.930467456267847"><ele>74.0</ele><time>2026-05-02T07:02:05.999Z</time></trkpt><trkpt lat="41.419855551994715" lon="13.930858860028172"><ele>74.0</ele><time>2026-05-02T07:02:06.999Z</time></trkpt><trkpt lat="41.41970239224307" lon="13.931249930429395"><ele>74.5</ele><time>2026-05-02T07:02:07.999Z</time></trkpt><trkpt lat="41.419550751918344" lon="13.931641244717708"><ele>75.0</ele><time>2026-05-02T07:02:08.999Z</time></trkpt><trkpt lat="41.41939726743966" lon="13.932032788802994"><ele>75.0</ele><time>2026-05-02T07:02:09.999Z</time></trkpt><trkpt lat="41.41924449259286" lon="13.932424305312956"><ele>75.0</ele><time>2026-05-02T07:02:10.999Z</time></trkpt><trkpt lat="41.41909309192837" lon="13.932815006527754"><ele>76.0</ele><time>2026-05-02T07:02:11.999Z</time></trkpt><trkpt lat="41.418941638055884" lon="13.93320517573081"><ele>77.0</ele><time>2026-05-02T07:02:12.999Z</time></trkpt><trkpt lat="41.418789576433824" lon="13.93359422493663"><ele>77.0</ele><time>2026-05-02T07:02:13.999Z</time></trkpt><trkpt lat="41.41863775498795" lon="13.933984479360838"><ele>77.0</ele><time>2026-05-02T07:02:14.999Z</time></trkpt><trkpt lat="41.4184870578056" lon="13.934376013891649"><ele>79.5</ele><time>2026-05-02T07:02:15.999Z</time></trkpt><trkpt lat="41.41833473266504" lon="13.934767854979004"><ele>82.0</ele><time>2026-05-02T07:02:16.999Z</time></trkpt><trkpt lat="41.41818344973539" lon="13.935160886503047"><ele>84.0</ele><time>2026-05-02T07:02:17.999Z</time></trkpt><trkpt lat="41.418028546470865" lon="13.935552821619272"><ele>86.0</ele><time>2026-05-02T07:02:18.999Z</time></trkpt><trkpt lat="41.41787465894439" lon="13.935946752486089"><ele>86.0</ele><time>2026-05-02T07:02:19.999Z</time></trkpt><trkpt lat="41.41772050274893" lon="13.936340264304471"><ele>86.0</ele><time>2026-05-02T07:02:20.999Z</time></trkpt><trkpt lat="41.41756457181239" lon="13.936734320808545"><ele>90.5</ele><time>2026-05-02T07:02:21.999Z</time></trkpt><trkpt lat="41.41740751371682" lon="13.937129879032444"><ele>95.0</ele><time>2026-05-02T07:02:22.999Z</time></trkpt><trkpt lat="41.4172506396435" lon="13.937524194593566"><ele>89.5</ele><time>2026-05-02T07:02:23.999Z</time></trkpt><trkpt lat="41.417094512905216" lon="13.937919290001178"><ele>84.0</ele><time>2026-05-02T07:02:24.999Z</time></trkpt><trkpt lat="41.41693938475687" lon="13.938314829178898"><ele>88.0</ele><time>2026-05-02T07:02:25.999Z</time></trkpt><trkpt lat="41.416784565091746" lon="13.938710064030882"><ele>92.0</ele><time>2026-05-02T07:02:26.999Z</time></trkpt><trkpt lat="41.416628828742176" lon="13.939104503442847"><ele>95.5</ele><time>2026-05-02T07:02:27.999Z</time></trkpt><trkpt lat="41.416475404272845" lon="13.939498141463272"><ele>99.0</ele><time>2026-05-02T07:02:28.999Z</time></trkpt><trkpt lat="41.4163227492947" lon="13.93989209682109"><ele>97.0</ele><time>2026-05-02T07:02:29.999Z</time></trkpt><trkpt lat="41.416169327885406" lon="13.940285725114476"><ele>95.0</ele><time>2026-05-02T07:02:30.999Z</time></trkpt><trkpt lat="41.41601659078758" lon="13.940679413336001"><ele>98.0</ele><time>2026-05-02T07:02:31.999Z</time></trkpt><trkpt lat="41.41586337643933" lon="13.941071217850848"><ele>101.0</ele><time>2026-05-02T07:02:32.999Z</time></trkpt><trkpt lat="41.41570930715662" lon="13.941462748374137"><ele>103.5</ele><time>2026-05-02T07:02:33.999Z</time></trkpt><trkpt lat="41.41555550490917" lon="13.941854772469942"><ele>106.0</ele><time>2026-05-02T07:02:34.999Z</time></trkpt><trkpt lat="41.415403849149584" lon="13.942247322478567"><ele>106.5</ele><time>2026-05-02T07:02:35.998Z</time></trkpt><trkpt lat="41.41525172424437" lon="13.942638319068198"><ele>107.0</ele><time>2026-05-02T07:02:36.998Z</time></trkpt><trkpt lat="41.41509827091317" lon="13.943029212757596"><ele>108.5</ele><time>2026-05-02T07:02:37.998Z</time></trkpt><trkpt lat="41.414945364230796" lon="13.943421831102755"><ele>110.0</ele><time>2026-05-02T07:02:38.998Z</time></trkpt><trkpt lat="41.41479256003189" lon="13.943813644728593"><ele>110.0</ele><time>2026-05-02T07:02:39.998Z</time></trkpt><trkpt lat="41.414639304825975" lon="13.944204635835941"><ele>110.0</ele><time>2026-05-02T07:02:40.998Z</time></trkpt><trkpt lat="41.414484916490245" lon="13.944596870955671"><ele>110.0</ele><time>2026-05-02T07:02:41.998Z</time></trkpt><trkpt lat="41.41432994021726" lon="13.94498824149473"><ele>110.0</ele><time>2026-05-02T07:02:42.998Z</time></trkpt><trkpt lat="41.41417443565735" lon="13.945379966410313"><ele>111.0</ele><time>2026-05-02T07:02:43.998Z</time></trkpt><trkpt lat="41.41401875996257" lon="13.945771443963853"><ele>112.0</ele><time>2026-05-02T07:02:44.998Z</time></trkpt><trkpt lat="41.41386232009264" lon="13.946164861685585"><ele>112.5</ele><time>2026-05-02T07:02:45.998Z</time></trkpt><trkpt lat="41.41370611923715" lon="13.946555970646166"><ele>113.0</ele><time>2026-05-02T07:02:46.998Z</time></trkpt><trkpt lat="41.41354996753865" lon="13.946947471520524"><ele>113.0</ele><time>2026-05-02T07:02:47.998Z</time></trkpt><trkpt lat="41.413394268311094" lon="13.947339568750445"><ele>113.0</ele><time>2026-05-02T07:02:48.998Z</time></trkpt><trkpt lat="41.41323974991191" lon="13.947732668606825"><ele>113.0</ele><time>2026-05-02T07:02:49.998Z</time></trkpt><trkpt lat="41.413085783364345" lon="13.94812632600027"><ele>113.0</ele><time>2026-05-02T07:02:50.998Z</time></trkpt><trkpt lat="41.412931907362356" lon="13.948521851941665"><ele>115.5</ele><time>2026-05-02T07:02:51.998Z</time></trkpt><trkpt lat="41.412777134917654" lon="13.948916979167015"><ele>118.0</ele><time>2026-05-02T07:02:52.998Z</time></trkpt><trkpt lat="41.41262217970345" lon="13.949311010549335"><ele>118.0</ele><time>2026-05-02T07:02:53.998Z</time></trkpt><trkpt lat="41.41246881826723" lon="13.949705151854777"><ele>118.0</ele><time>2026-05-02T07:02:54.998Z</time></trkpt><trkpt lat="41.412316737917315" lon="13.950099144350323"><ele>118.5</ele><time>2026-05-02T07:02:55.998Z</time></trkpt><trkpt lat="41.412166723129246" lon="13.950490723102682"><ele>119.0</ele><time>2026-05-02T07:02:56.998Z</time></trkpt><trkpt lat="41.41201534400084" lon="13.950882339431903"><ele>121.5</ele><time>2026-05-02T07:02:57.998Z</time></trkpt><trkpt lat="41.4118623149746" lon="13.951270317136654"><ele>124.0</ele><time>2026-05-02T07:02:58.998Z</time></trkpt><trkpt lat="41.41170933604949" lon="13.95165723116108"><ele>125.0</ele><time>2026-05-02T07:02:59.998Z</time></trkpt><trkpt lat="41.41155754528888" lon="13.952043783536844"><ele>126.0</ele><time>2026-05-02T07:03:00.998Z</time></trkpt><trkpt lat="41.411406394603894" lon="13.95243141271347"><ele>127.0</ele><time>2026-05-02T07:03:01.998Z</time></trkpt><trkpt lat="41.41125479138735" lon="13.952819745603003"><ele>128.0</ele><time>2026-05-02T07:03:02.998Z</time></trkpt><trkpt lat="41.411102595688305" lon="13.953211502467218"><ele>128.5</ele><time>2026-05-02T07:03:03.998Z</time></trkpt><trkpt lat="41.41094920994224" lon="13.953602966047482"><ele>129.0</ele><time>2026-05-02T07:03:04.998Z</time></trkpt><trkpt lat="41.41079654242927" lon="13.953994939842135"><ele>130.0</ele><time>2026-05-02T07:03:05.998Z</time></trkpt><trkpt lat="41.410643868508245" lon="13.9543861147801"><ele>131.0</ele><time>2026-05-02T07:03:06.998Z</time></trkpt><trkpt lat="41.410490657844186" lon="13.95477791246156"><ele>135.5</ele><time>2026-05-02T07:03:07.998Z</time></trkpt><trkpt lat="41.41033748877006" lon="13.955168882534961"><ele>140.0</ele><time>2026-05-02T07:03:08.998Z</time></trkpt><trkpt lat="41.41018541033612" lon="13.955559747094162"><ele>139.5</ele><time>2026-05-02T07:03:09.998Z</time></trkpt><trkpt lat="41.410032969603364" lon="13.955953931152525"><ele>139.0</ele><time>2026-05-02T07:03:10.998Z</time></trkpt><trkpt lat="41.40987878181919" lon="13.956345980630088"><ele>139.5</ele><time>2026-05-02T07:03:11.998Z</time></trkpt><trkpt lat="41.40972556280002" lon="13.956738783301576"><ele>140.0</ele><time>2026-05-02T07:03:12.998Z</time></trkpt><trkpt lat="41.40957135607087" lon="13.957132741587776"><ele>142.0</ele><time>2026-05-02T07:03:13.998Z</time></trkpt><trkpt lat="41.409417502864656" lon="13.957527714377912"><ele>144.0</ele><time>2026-05-02T07:03:14.998Z</time></trkpt><trkpt lat="41.40926279732934" lon="13.957923683787579"><ele>144.0</ele><time>2026-05-02T07:03:15.998Z</time></trkpt><trkpt lat="41.40910756818389" lon="13.958319901630036"><ele>144.0</ele><time>2026-05-02T07:03:16.998Z</time></trkpt><trkpt lat="41.40895322769169" lon="13.958717300286798"><ele>144.0</ele><time>2026-05-02T07:03:17.998Z</time></trkpt><trkpt lat="41.408796312325656" lon="13.959116054463413"><ele>144.0</ele><time>2026-05-02T07:03:18.998Z</time></trkpt><trkpt lat="41.40863916858686" lon="13.959515569280173"><ele>141.0</ele><time>2026-05-02T07:03:19.998Z</time></trkpt><trkpt lat="41.408481886117634" lon="13.959914657592444"><ele>138.0</ele><time>2026-05-02T07:03:20.998Z</time></trkpt><trkpt lat="41.408325368272905" lon="13.960313300228925"><ele>137.0</ele><time>2026-05-02T07:03:21.998Z</time></trkpt><trkpt lat="41.40817019730934" lon="13.960710206929983"><ele>136.0</ele><time>2026-05-02T07:03:22.998Z</time></trkpt><trkpt lat="41.408016011707105" lon="13.961106468550348"><ele>135.5</ele><time>2026-05-02T07:03:23.998Z</time></trkpt><trkpt lat="41.40786228782872" lon="13.96150215339649"><ele>135.0</ele><time>2026-05-02T07:03:24.998Z</time></trkpt><trkpt lat="41.40770729292962" lon="13.961894625380582"><ele>135.0</ele><time>2026-05-02T07:03:25.998Z</time></trkpt><trkpt lat="41.40755427508492" lon="13.962288402481105"><ele>135.0</ele><time>2026-05-02T07:03:26.998Z</time></trkpt><trkpt lat="41.40739938171486" lon="13.9626808885015"><ele>133.5</ele><time>2026-05-02T07:03:27.998Z</time></trkpt><trkpt lat="41.40724552928332" lon="13.963072757147915"><ele>132.0</ele><time>2026-05-02T07:03:28.998Z</time></trkpt><trkpt lat="41.40709196354489" lon="13.963463510394567"><ele>130.0</ele><time>2026-05-02T07:03:29.998Z</time></trkpt><trkpt lat="41.40693922789102" lon="13.963854494776148"><ele>128.0</ele><time>2026-05-02T07:03:30.998Z</time></trkpt><trkpt lat="41.40678518882875" lon="13.96424733348955"><ele>128.0</ele><time>2026-05-02T07:03:31.998Z</time></trkpt><trkpt lat="41.40663117002842" lon="13.96463988280159"><ele>128.0</ele><time>2026-05-02T07:03:32.998Z</time></trkpt><trkpt lat="41.40647552077184" lon="13.965032696719298"><ele>127.0</ele><time>2026-05-02T07:03:33.998Z</time></trkpt><trkpt lat="41.406321415004655" lon="13.965425713123585"><ele>126.0</ele><time>2026-05-02T07:03:34.998Z</time></trkpt><trkpt lat="41.40616730943337" lon="13.965819256190455"><ele>127.5</ele><time>2026-05-02T07:03:35.998Z</time></trkpt><trkpt lat="41.40601352231773" lon="13.966213490101133"><ele>129.0</ele><time>2026-05-02T07:03:36.998Z</time></trkpt><trkpt lat="41.40585991117978" lon="13.96660675703108"><ele>128.5</ele><time>2026-05-02T07:03:37.998Z</time></trkpt><trkpt lat="41.40570705067525" lon="13.966999362692166"><ele>128.0</ele><time>2026-05-02T07:03:38.998Z</time></trkpt><trkpt lat="41.40555468205839" lon="13.967390630117462"><ele>130.5</ele><time>2026-05-02T07:03:39.998Z</time></trkpt><trkpt lat="41.405402777889" lon="13.967782077411842"><ele>133.0</ele><time>2026-05-02T07:03:40.998Z</time></trkpt><trkpt lat="41.40524981735276" lon="13.968174707400983"><ele>132.5</ele><time>2026-05-02T07:03:41.998Z</time></trkpt><trkpt lat="41.40509859694186" lon="13.968569994962493"><ele>132.0</ele><time>2026-05-02T07:03:42.998Z</time></trkpt><trkpt lat="41.40494602527547" lon="13.968967130755432"><ele>131.5</ele><time>2026-05-02T07:03:43.999Z</time></trkpt><trkpt lat="41.404791339417294" lon="13.969362363194891"><ele>131.0</ele><time>2026-05-02T07:03:44.999Z</time></trkpt><trkpt lat="41.40463596442673" lon="13.96975686042428"><ele>132.0</ele><time>2026-05-02T07:03:45.999Z</time></trkpt><trkpt lat="41.40448102735771" lon="13.97014958383566"><ele>133.0</ele><time>2026-05-02T07:03:46.999Z</time></trkpt><trkpt lat="41.404327978108945" lon="13.970543426529481"><ele>131.0</ele><time>2026-05-02T07:03:47.999Z</time></trkpt><trkpt lat="41.40417537313973" lon="13.970935450178233"><ele>129.0</ele><time>2026-05-02T07:03:48.999Z</time></trkpt><trkpt lat="41.404019697721026" lon="13.971327688066529"><ele>129.0</ele><time>2026-05-02T07:03:49.999Z</time></trkpt><trkpt lat="41.40386147026177" lon="13.971714983429113"><ele>129.0</ele><time>2026-05-02T07:03:50.999Z</time></trkpt><trkpt lat="41.40369661134554" lon="13.972097690937435"><ele>129.0</ele><time>2026-05-02T07:03:51.999Z</time></trkpt><trkpt lat="41.40352474778327" lon="13.972475613421143"><ele>129.0</ele><time>2026-05-02T07:03:52.999Z</time></trkpt><trkpt lat="41.40334607575743" lon="13.972849527109815"><ele>129.0</ele><time>2026-05-02T07:03:53.999Z</time></trkpt><trkpt lat="41.403163552201015" lon="13.973218720271122"><ele>129.0</ele><time>2026-05-02T07:03:54.999Z</time></trkpt><trkpt lat="41.402976089542086" lon="13.973585160351154"><ele>129.0</ele><time>2026-05-02T07:03:55.999Z</time></trkpt><trkpt lat="41.40278354441964" lon="13.9739467382544"><ele>129.0</ele><time>2026-05-02T07:03:56.999Z</time></trkpt><trkpt lat="41.40258609394432" lon="13.97430549831578"><ele>130.0</ele><time>2026-05-02T07:03:57.999Z</time></trkpt><trkpt lat="41.402382815915985" lon="13.974658436581718"><ele>131.0</ele><time>2026-05-02T07:03:58.999Z</time></trkpt><trkpt lat="41.40217622216954" lon="13.97500552747653"><ele>129.5</ele><time>2026-05-02T07:03:59.999Z</time></trkpt><trkpt lat="41.401966281634444" lon="13.975346235027988"><ele>128.0</ele><time>2026-05-02T07:04:00.999Z</time></trkpt><trkpt lat="41.40175122306442" lon="13.97568038533724"><ele>128.5</ele><time>2026-05-02T07:04:01.999Z</time></trkpt><trkpt lat="41.40153217393032" lon="13.976008486173292"><ele>129.0</ele><time>2026-05-02T07:04:02.999Z</time></trkpt><trkpt lat="41.40130695520812" lon="13.976330985549511"><ele>129.0</ele><time>2026-05-02T07:04:03.999Z</time></trkpt><trkpt lat="41.401077337013426" lon="13.9766490287475"><ele>129.0</ele><time>2026-05-02T07:04:04.999Z</time></trkpt><trkpt lat="41.400844048657746" lon="13.976963985631283"><ele>128.0</ele><time>2026-05-02T07:04:05.999Z</time></trkpt><trkpt lat="41.400608458512956" lon="13.97727773265256"><ele>127.0</ele><time>2026-05-02T07:04:06.999Z</time></trkpt><trkpt lat="41.40037266077448" lon="13.97759153879077"><ele>127.0</ele><time>2026-05-02T07:04:07.999Z</time></trkpt><trkpt lat="41.400138355578676" lon="13.977905567804296"><ele>127.0</ele><time>2026-05-02T07:04:08.999Z</time></trkpt><trkpt lat="41.399904105111084" lon="13.97821951111596"><ele>128.0</ele><time>2026-05-02T07:04:09.999Z</time></trkpt><trkpt lat="41.39967036729459" lon="13.978537191618754"><ele>129.0</ele><time>2026-05-02T07:04:10.999Z</time></trkpt><trkpt lat="41.39943626578805" lon="13.978854811480765"><ele>129.0</ele><time>2026-05-02T07:04:11.999Z</time></trkpt><trkpt lat="41.39920041708458" lon="13.979169840920491"><ele>129.0</ele><time>2026-05-02T07:04:12.999Z</time></trkpt><trkpt lat="41.39896566759141" lon="13.97948427580135"><ele>129.0</ele><time>2026-05-02T07:04:13.999Z</time></trkpt><trkpt lat="41.39873159459677" lon="13.97979657755234"><ele>129.0</ele><time>2026-05-02T07:04:14.999Z</time></trkpt><trkpt lat="41.39849861258716" lon="13.980108702961646"><ele>130.5</ele><time>2026-05-02T07:04:15.999Z</time></trkpt><trkpt lat="41.39826606007245" lon="13.980421876981655"><ele>132.0</ele><time>2026-05-02T07:04:16.999Z</time></trkpt><trkpt lat="41.39803361836732" lon="13.980734707775762"><ele>136.0</ele><time>2026-05-02T07:04:17.999Z</time></trkpt><trkpt lat="41.39780028259415" lon="13.98104673120944"><ele>140.0</ele><time>2026-05-02T07:04:18.999Z</time></trkpt><trkpt lat="41.39756599324343" lon="13.981358186477687"><ele>140.0</ele><time>2026-05-02T07:04:19.999Z</time></trkpt><trkpt lat="41.39733101500283" lon="13.981670408601039"><ele>140.0</ele><time>2026-05-02T07:04:20.999Z</time></trkpt><trkpt lat="41.39709775246987" lon="13.981982281036313"><ele>142.5</ele><time>2026-05-02T07:04:21.999Z</time></trkpt><trkpt lat="41.396864729189204" lon="13.982292658264525"><ele>145.0</ele><time>2026-05-02T07:04:22.999Z</time></trkpt><trkpt lat="41.39662944926983" lon="13.982605065104243"><ele>146.5</ele><time>2026-05-02T07:04:23.999Z</time></trkpt><trkpt lat="41.39639490006856" lon="13.982918035504387"><ele>148.0</ele><time>2026-05-02T07:04:24.999Z</time></trkpt><trkpt lat="41.39615971072281" lon="13.983233468107256"><ele>150.5</ele><time>2026-05-02T07:04:25.999Z</time></trkpt><trkpt lat="41.39592590794171" lon="13.9835482395331"><ele>153.0</ele><time>2026-05-02T07:04:26.999Z</time></trkpt><trkpt lat="41.39569159418173" lon="13.98386519499929"><ele>156.0</ele><time>2026-05-02T07:04:27.999Z</time></trkpt><trkpt lat="41.39545661886028" lon="13.984181676932241"><ele>159.0</ele><time>2026-05-02T07:04:28.999Z</time></trkpt><trkpt lat="41.39522186540219" lon="13.984498679444659"><ele>159.0</ele><time>2026-05-02T07:04:29.999Z</time></trkpt><trkpt lat="41.394986681037636" lon="13.984814059827203"><ele>159.0</ele><time>2026-05-02T07:04:30.999Z</time></trkpt><trkpt lat="41.39475114078652" lon="13.98513037119212"><ele>162.0</ele><time>2026-05-02T07:04:31.999Z</time></trkpt><trkpt lat="41.39451856554724" lon="13.985445884650643"><ele>165.0</ele><time>2026-05-02T07:04:32.999Z</time></trkpt><trkpt lat="41.3942855575886" lon="13.985762983245387"><ele>165.5</ele><time>2026-05-02T07:04:33.999Z</time></trkpt><trkpt lat="41.39405225288103" lon="13.98608063928608"><ele>166.0</ele><time>2026-05-02T07:04:34.999Z</time></trkpt><trkpt lat="41.3938183201892" lon="13.986398065756164"><ele>165.0</ele><time>2026-05-02T07:04:35.999Z</time></trkpt><trkpt lat="41.39358292617141" lon="13.986713744727197"><ele>164.0</ele><time>2026-05-02T07:04:36.999Z</time></trkpt><trkpt lat="41.393346840825714" lon="13.987027216481325"><ele>164.0</ele><time>2026-05-02T07:04:37.999Z</time></trkpt><trkpt lat="41.393110758252114" lon="13.987341034602046"><ele>164.0</ele><time>2026-05-02T07:04:38.999Z</time></trkpt><trkpt lat="41.39287560498181" lon="13.98765485298112"><ele>164.0</ele><time>2026-05-02T07:04:39.999Z</time></trkpt><trkpt lat="41.39264053577592" lon="13.98796720226897"><ele>164.0</ele><time>2026-05-02T07:04:40.999Z</time></trkpt><trkpt lat="41.392405076590244" lon="13.988279358716595"><ele>167.0</ele><time>2026-05-02T07:04:41.999Z</time></trkpt><trkpt lat="41.39216964082597" lon="13.988592563487728"><ele>170.0</ele><time>2026-05-02T07:04:42.999Z</time></trkpt><trkpt lat="41.39193566107664" lon="13.98890596972885"><ele>167.5</ele><time>2026-05-02T07:04:43.999Z</time></trkpt><trkpt lat="41.391702873744265" lon="13.989219323668665"><ele>165.0</ele><time>2026-05-02T07:04:44.999Z</time></trkpt><trkpt lat="41.391469873793106" lon="13.989534141692795"><ele>167.5</ele><time>2026-05-02T07:04:45.999Z</time></trkpt><trkpt lat="41.39123646756288" lon="13.989848401987558"><ele>170.0</ele><time>2026-05-02T07:04:46.999Z</time></trkpt><trkpt lat="41.39100335662825" lon="13.990159554210104"><ele>170.5</ele><time>2026-05-02T07:04:47.999Z</time></trkpt><trkpt lat="41.39076895478943" lon="13.99047020238538"><ele>171.0</ele><time>2026-05-02T07:04:48.999Z</time></trkpt><trkpt lat="41.3905336982687" lon="13.990781811073555"><ele>174.5</ele><time>2026-05-02T07:04:49.999Z</time></trkpt><trkpt lat="41.39029898020669" lon="13.991094450555858"><ele>178.0</ele><time>2026-05-02T07:04:50.999Z</time></trkpt><trkpt lat="41.39006526130876" lon="13.991407947651835"><ele>182.0</ele><time>2026-05-02T07:04:51.999Z</time></trkpt><trkpt lat="41.38983223925822" lon="13.991720835997553"><ele>186.0</ele><time>2026-05-02T07:04:52.999Z</time></trkpt><trkpt lat="41.38959901391203" lon="13.99203492693702"><ele>186.0</ele><time>2026-05-02T07:04:53.999Z</time></trkpt><trkpt lat="41.389364096222025" lon="13.992350143794575"><ele>186.0</ele><time>2026-05-02T07:04:54.999Z</time></trkpt><trkpt lat="41.38913176929346" lon="13.992666443986923"><ele>188.0</ele><time>2026-05-02T07:04:55.999Z</time></trkpt><trkpt lat="41.38890008921042" lon="13.992982370425501"><ele>190.0</ele><time>2026-05-02T07:04:56.999Z</time></trkpt><trkpt lat="41.38866593706766" lon="13.993297107607589"><ele>189.0</ele><time>2026-05-02T07:04:57.999Z</time></trkpt><trkpt lat="41.38843198586026" lon="13.993615386144143"><ele>188.0</ele><time>2026-05-02T07:04:58.999Z</time></trkpt><trkpt lat="41.38819687184969" lon="13.993932564679957"><ele>189.0</ele><time>2026-05-02T07:04:59.999Z</time></trkpt><trkpt lat="41.387960134523645" lon="13.994247284013255"><ele>190.0</ele><time>2026-05-02T07:05:00.999Z</time></trkpt><trkpt lat="41.3877214388821" lon="13.994562227699525"><ele>190.0</ele><time>2026-05-02T07:05:01.999Z</time></trkpt><trkpt lat="41.387486081233234" lon="13.994876673764535"><ele>190.0</ele><time>2026-05-02T07:05:02.999Z</time></trkpt><trkpt lat="41.38725043843767" lon="13.995187630004308"><ele>193.5</ele><time>2026-05-02T07:05:03.999Z</time></trkpt><trkpt lat="41.38701490645914" lon="13.995496277601088"><ele>197.0</ele><time>2026-05-02T07:05:04.999Z</time></trkpt><trkpt lat="41.3867812334899" lon="13.995807694484798"><ele>197.0</ele><time>2026-05-02T07:05:05.999Z</time></trkpt><trkpt lat="41.38654744492213" lon="13.996120698066775"><ele>197.0</ele><time>2026-05-02T07:05:06.999Z</time></trkpt><trkpt lat="41.386315215772434" lon="13.996434458086316"><ele>199.0</ele><time>2026-05-02T07:05:07.999Z</time></trkpt><trkpt lat="41.386080583887065" lon="13.996747908122856"><ele>201.0</ele><time>2026-05-02T07:05:08.999Z</time></trkpt><trkpt lat="41.385846714484124" lon="13.997061986488099"><ele>201.0</ele><time>2026-05-02T07:05:09.999Z</time></trkpt><trkpt lat="41.38561361723621" lon="13.997375609409687"><ele>201.0</ele><time>2026-05-02T07:05:10.999Z</time></trkpt><trkpt lat="41.3853811092478" lon="13.997691357375004"><ele>203.0</ele><time>2026-05-02T07:05:11.999Z</time></trkpt><trkpt lat="41.38514737621963" lon="13.998004869481502"><ele>205.0</ele><time>2026-05-02T07:05:12.999Z</time></trkpt><trkpt lat="41.384912211303416" lon="13.998318202052372"><ele>205.5</ele><time>2026-05-02T07:05:13.999Z</time></trkpt><trkpt lat="41.384675464087024" lon="13.99862410591849"><ele>206.0</ele><time>2026-05-02T07:05:14.999Z</time></trkpt><trkpt lat="41.384441814861006" lon="13.998938193435809"><ele>205.0</ele><time>2026-05-02T07:05:15.999Z</time></trkpt><trkpt lat="41.384209165670924" lon="13.999255607344251"><ele>204.0</ele><time>2026-05-02T07:05:16.999Z</time></trkpt><trkpt lat="41.38397472363501" lon="13.99957179858806"><ele>206.5</ele><time>2026-05-02T07:05:17.999Z</time></trkpt><trkpt lat="41.38373865353401" lon="13.999887122559175"><ele>209.0</ele><time>2026-05-02T07:05:18.999Z</time></trkpt><trkpt lat="41.383501857277516" lon="14.000201670746772"><ele>209.0</ele><time>2026-05-02T07:05:19.999Z</time></trkpt><trkpt lat="41.3832677004641" lon="14.000513502833732"><ele>209.0</ele><time>2026-05-02T07:05:20.998Z</time></trkpt><trkpt lat="41.38303446941709" lon="14.00082480255586"><ele>210.5</ele><time>2026-05-02T07:05:21.998Z</time></trkpt><trkpt lat="41.38280146652073" lon="14.00113847941903"><ele>212.0</ele><time>2026-05-02T07:05:22.998Z</time></trkpt><trkpt lat="41.38257031153724" lon="14.001453247996006"><ele>212.5</ele><time>2026-05-02T07:05:23.998Z</time></trkpt><trkpt lat="41.38233907405711" lon="14.001768786978975"><ele>213.0</ele><time>2026-05-02T07:05:24.998Z</time></trkpt><trkpt lat="41.382105513251204" lon="14.002082264868058"><ele>215.5</ele><time>2026-05-02T07:05:25.998Z</time></trkpt><trkpt lat="41.381870869443034" lon="14.00239663958407"><ele>218.0</ele><time>2026-05-02T07:05:26.998Z</time></trkpt><trkpt lat="41.381635111975754" lon="14.002710030949098"><ele>218.0</ele><time>2026-05-02T07:05:27.998Z</time></trkpt><trkpt lat="41.38140276137585" lon="14.003029782238333"><ele>218.0</ele><time>2026-05-02T07:05:28.998Z</time></trkpt><trkpt lat="41.38116568924708" lon="14.003347765287037"><ele>220.5</ele><time>2026-05-02T07:05:29.998Z</time></trkpt><trkpt lat="41.380929571866666" lon="14.003667844048813"><ele>223.0</ele><time>2026-05-02T07:05:30.998Z</time></trkpt><trkpt lat="41.38069171033051" lon="14.00398831045959"><ele>224.5</ele><time>2026-05-02T07:05:31.998Z</time></trkpt><trkpt lat="41.3804539869807" lon="14.004308460272048"><ele>226.0</ele><time>2026-05-02T07:05:32.998Z</time></trkpt><trkpt lat="41.38021617488539" lon="14.0046259193973"><ele>226.0</ele><time>2026-05-02T07:05:33.998Z</time></trkpt><trkpt lat="41.37997669134672" lon="14.004941500993159"><ele>226.0</ele><time>2026-05-02T07:05:34.998Z</time></trkpt><trkpt lat="41.37974141154571" lon="14.00525941958305"><ele>230.5</ele><time>2026-05-02T07:05:35.998Z</time></trkpt><trkpt lat="41.3795035886391" lon="14.005573031975525"><ele>235.0</ele><time>2026-05-02T07:05:36.998Z</time></trkpt><trkpt lat="41.37927155028518" lon="14.005889873110306"><ele>235.0</ele><time>2026-05-02T07:05:37.998Z</time></trkpt><trkpt lat="41.379039302740075" lon="14.006207414695993"><ele>235.0</ele><time>2026-05-02T07:05:38.998Z</time></trkpt><trkpt lat="41.37880378926062" lon="14.006522323467133"><ele>236.5</ele><time>2026-05-02T07:05:39.998Z</time></trkpt><trkpt lat="41.37856863953141" lon="14.0068376121957"><ele>238.0</ele><time>2026-05-02T07:05:40.998Z</time></trkpt><trkpt lat="41.37833346325544" lon="14.007154687405706"><ele>238.0</ele><time>2026-05-02T07:05:41.998Z</time></trkpt><trkpt lat="41.37809764728638" lon="14.00747105294749"><ele>238.0</ele><time>2026-05-02T07:05:42.998Z</time></trkpt><trkpt lat="41.37786462284763" lon="14.00779062761102"><ele>238.5</ele><time>2026-05-02T07:05:43.998Z</time></trkpt><trkpt lat="41.377627674360134" lon="14.008106339507648"><ele>239.0</ele><time>2026-05-02T07:05:44.998Z</time></trkpt><trkpt lat="41.377391169080006" lon="14.008422460774625"><ele>239.5</ele><time>2026-05-02T07:05:45.998Z</time></trkpt><trkpt lat="41.37715476754296" lon="14.008738012707258"><ele>240.0</ele><time>2026-05-02T07:05:46.998Z</time></trkpt><trkpt lat="41.376917454835564" lon="14.009050612074056"><ele>235.5</ele><time>2026-05-02T07:05:47.998Z</time></trkpt><trkpt lat="41.37668105086351" lon="14.009363617738279"><ele>231.0</ele><time>2026-05-02T07:05:48.999Z</time></trkpt><trkpt lat="41.37644527543477" lon="14.009676265348864"><ele>229.5</ele><time>2026-05-02T07:05:49.999Z</time></trkpt><trkpt lat="41.37621037805035" lon="14.009987991388167"><ele>228.0</ele><time>2026-05-02T07:05:50.999Z</time></trkpt><trkpt lat="41.37597510030748" lon="14.010300813895398"><ele>225.5</ele><time>2026-05-02T07:05:51.999Z</time></trkpt><trkpt lat="41.37573927254479" lon="14.010613640334316"><ele>223.0</ele><time>2026-05-02T07:05:52.999Z</time></trkpt><trkpt lat="41.3755048340377" lon="14.01092775525522"><ele>222.0</ele><time>2026-05-02T07:05:53.999Z</time></trkpt><trkpt lat="41.3752700001066" lon="14.011243120436752"><ele>221.0</ele><time>2026-05-02T07:05:54.999Z</time></trkpt><trkpt lat="41.37503460260873" lon="14.01155289585464"><ele>223.5</ele><time>2026-05-02T07:05:55.999Z</time></trkpt><trkpt lat="41.37479907132135" lon="14.011866293213865"><ele>226.0</ele><time>2026-05-02T07:05:56.999Z</time></trkpt><trkpt lat="41.37456444867159" lon="14.012177560292242"><ele>229.0</ele><time>2026-05-02T07:05:57.999Z</time></trkpt><trkpt lat="41.37433031974469" lon="14.012486095217287"><ele>232.0</ele><time>2026-05-02T07:05:58.999Z</time></trkpt><trkpt lat="41.37410114764968" lon="14.012799861210873"><ele>233.0</ele><time>2026-05-02T07:05:59.999Z</time></trkpt><trkpt lat="41.37387042073316" lon="14.013115045510766"><ele>234.0</ele><time>2026-05-02T07:06:00.999Z</time></trkpt><trkpt lat="41.37363512799121" lon="14.013425563238316"><ele>236.0</ele><time>2026-05-02T07:06:01.999Z</time></trkpt><trkpt lat="41.37340019359066" lon="14.013742825971542"><ele>238.0</ele><time>2026-05-02T07:06:02.999Z</time></trkpt><trkpt lat="41.37316599612885" lon="14.014062133750627"><ele>240.0</ele><time>2026-05-02T07:06:03.999Z</time></trkpt><trkpt lat="41.372929969493796" lon="14.01438030489407"><ele>242.0</ele><time>2026-05-02T07:06:04.999Z</time></trkpt><trkpt lat="41.37269284916603" lon="14.014700024326789"><ele>238.0</ele><time>2026-05-02T07:06:05.999Z</time></trkpt><trkpt lat="41.37245336818663" lon="14.015019194183118"><ele>234.0</ele><time>2026-05-02T07:06:06.999Z</time></trkpt><trkpt lat="41.37221659736159" lon="14.015337140156317"><ele>234.0</ele><time>2026-05-02T07:06:07.999Z</time></trkpt><trkpt lat="41.371979304010544" lon="14.015656445910807"><ele>234.0</ele><time>2026-05-02T07:06:08.999Z</time></trkpt><trkpt lat="41.371744911976016" lon="14.015973733322015"><ele>232.5</ele><time>2026-05-02T07:06:09.999Z</time></trkpt><trkpt lat="41.37151277091159" lon="14.01629248160323"><ele>231.0</ele><time>2026-05-02T07:06:10.999Z</time></trkpt><trkpt lat="41.3712830838327" lon="14.016608369267225"><ele>230.0</ele><time>2026-05-02T07:06:11.999Z</time></trkpt><trkpt lat="41.37105617807959" lon="14.016924326839824"><ele>229.0</ele><time>2026-05-02T07:06:12.999Z</time></trkpt><trkpt lat="41.37082625030224" lon="14.017238281917487"><ele>229.5</ele><time>2026-05-02T07:06:13.999Z</time></trkpt><trkpt lat="41.370596605377074" lon="14.017552998196834"><ele>230.0</ele><time>2026-05-02T07:06:14.999Z</time></trkpt><trkpt lat="41.37036590456259" lon="14.017867003024161"><ele>230.0</ele><time>2026-05-02T07:06:15.999Z</time></trkpt><trkpt lat="41.37013290276871" lon="14.01818061939524"><ele>230.0</ele><time>2026-05-02T07:06:16.999Z</time></trkpt><trkpt lat="41.36989918259305" lon="14.018495597432166"><ele>225.5</ele><time>2026-05-02T07:06:17.999Z</time></trkpt><trkpt lat="41.36966460565182" lon="14.018809758148619"><ele>221.0</ele><time>2026-05-02T07:06:18.999Z</time></trkpt><trkpt lat="41.3694305573481" lon="14.019124313054498"><ele>218.5</ele><time>2026-05-02T07:06:19.999Z</time></trkpt><trkpt lat="41.36919746863373" lon="14.019439372862397"><ele>216.0</ele><time>2026-05-02T07:06:20.999Z</time></trkpt><trkpt lat="41.368962482243454" lon="14.019753224680748"><ele>214.5</ele><time>2026-05-02T07:06:21.999Z</time></trkpt><trkpt lat="41.3687290610419" lon="14.02006733984863"><ele>213.0</ele><time>2026-05-02T07:06:22.999Z</time></trkpt><trkpt lat="41.36849249597827" lon="14.020380907735104"><ele>213.0</ele><time>2026-05-02T07:06:23.999Z</time></trkpt><trkpt lat="41.368256976654116" lon="14.020692762187222"><ele>213.0</ele><time>2026-05-02T07:06:24.999Z</time></trkpt><trkpt lat="41.36802226262562" lon="14.021004829910819"><ele>212.5</ele><time>2026-05-02T07:06:25.999Z</time></trkpt><trkpt lat="41.36778722202092" lon="14.021318097953529"><ele>212.0</ele><time>2026-05-02T07:06:26.999Z</time></trkpt><trkpt lat="41.367551106198505" lon="14.021632414385401"><ele>212.5</ele><time>2026-05-02T07:06:27.999Z</time></trkpt><trkpt lat="41.36731674592051" lon="14.021949608017426"><ele>213.0</ele><time>2026-05-02T07:06:28.999Z</time></trkpt><trkpt lat="41.36708234622315" lon="14.022264908599066"><ele>217.0</ele><time>2026-05-02T07:06:29.999Z</time></trkpt><trkpt lat="41.36684830380029" lon="14.022579759107447"><ele>221.0</ele><time>2026-05-02T07:06:30.999Z</time></trkpt><trkpt lat="41.36661269910209" lon="14.022895321067061"><ele>221.0</ele><time>2026-05-02T07:06:31.999Z</time></trkpt><trkpt lat="41.366376415857836" lon="14.023208529182314"><ele>221.0</ele><time>2026-05-02T07:06:32.999Z</time></trkpt><trkpt lat="41.36614105806216" lon="14.023522585622173"><ele>218.5</ele><time>2026-05-02T07:06:33.999Z</time></trkpt><trkpt lat="41.365904812486335" lon="14.023837239470833"><ele>216.0</ele><time>2026-05-02T07:06:34.999Z</time></trkpt><trkpt lat="41.36567098528794" lon="14.024150980135122"><ele>212.5</ele><time>2026-05-02T07:06:35.999Z</time></trkpt><trkpt lat="41.365437469363364" lon="14.024463191370383"><ele>209.0</ele><time>2026-05-02T07:06:36.999Z</time></trkpt><trkpt lat="41.365205791363074" lon="14.024775015820333"><ele>208.5</ele><time>2026-05-02T07:06:37.999Z</time></trkpt><trkpt lat="41.36497574485458" lon="14.025090348951998"><ele>208.0</ele><time>2026-05-02T07:06:38.999Z</time></trkpt><trkpt lat="41.36474379618261" lon="14.025405531631264"><ele>208.0</ele><time>2026-05-02T07:06:39.999Z</time></trkpt><trkpt lat="41.36451000773447" lon="14.025719466861627"><ele>208.0</ele><time>2026-05-02T07:06:40.999Z</time></trkpt><trkpt lat="41.3642739097141" lon="14.026030647643335"><ele>208.0</ele><time>2026-05-02T07:06:41.999Z</time></trkpt><trkpt lat="41.36403754327373" lon="14.026341873687164"><ele>208.0</ele><time>2026-05-02T07:06:42.999Z</time></trkpt><trkpt lat="41.36379886943708" lon="14.026652227810636"><ele>207.5</ele><time>2026-05-02T07:06:43.999Z</time></trkpt><trkpt lat="41.363562106244764" lon="14.02696071805701"><ele>207.0</ele><time>2026-05-02T07:06:44.999Z</time></trkpt><trkpt lat="41.363326815267094" lon="14.027269281553234"><ele>207.0</ele><time>2026-05-02T07:06:45.999Z</time></trkpt><trkpt lat="41.36309126270887" lon="14.027576187060143"><ele>207.0</ele><time>2026-05-02T07:06:46.999Z</time></trkpt><trkpt lat="41.362856254278306" lon="14.027886923994583"><ele>207.0</ele><time>2026-05-02T07:06:47.999Z</time></trkpt><trkpt lat="41.36262173879093" lon="14.02820262137594"><ele>207.0</ele><time>2026-05-02T07:06:48.999Z</time></trkpt><trkpt lat="41.362384401887056" lon="14.028515736165055"><ele>197.5</ele><time>2026-05-02T07:06:49.999Z</time></trkpt><trkpt lat="41.3621478606153" lon="14.028831425988534"><ele>188.0</ele><time>2026-05-02T07:06:50.999Z</time></trkpt><trkpt lat="41.36191129665476" lon="14.029144878875941"><ele>185.5</ele><time>2026-05-02T07:06:51.999Z</time></trkpt><trkpt lat="41.36167772468538" lon="14.02946086106025"><ele>183.0</ele><time>2026-05-02T07:06:52.999Z</time></trkpt><trkpt lat="41.36144200739374" lon="14.029775582416375"><ele>186.5</ele><time>2026-05-02T07:06:53.999Z</time></trkpt><trkpt lat="41.36120486799404" lon="14.030089719996191"><ele>190.0</ele><time>2026-05-02T07:06:54.999Z</time></trkpt><trkpt lat="41.36096634903727" lon="14.030404130291462"><ele>190.0</ele><time>2026-05-02T07:06:55.999Z</time></trkpt><trkpt lat="41.36072908936354" lon="14.030718225420651"><ele>190.0</ele><time>2026-05-02T07:06:56.999Z</time></trkpt><trkpt lat="41.36049022547686" lon="14.031031801579566"><ele>189.5</ele><time>2026-05-02T07:06:57.999Z</time></trkpt><trkpt lat="41.360253251886164" lon="14.031348037867852"><ele>189.0</ele><time>2026-05-02T07:06:58.999Z</time></trkpt><trkpt lat="41.36001734310903" lon="14.031663740914249"><ele>187.5</ele><time>2026-05-02T07:06:59.999Z</time></trkpt><trkpt lat="41.35978351376798" lon="14.03197927483283"><ele>186.0</ele><time>2026-05-02T07:07:00.999Z</time></trkpt><trkpt lat="41.35954917483967" lon="14.032294411214139"><ele>183.0</ele><time>2026-05-02T07:07:01.999Z</time></trkpt><trkpt lat="41.359315819117484" lon="14.03260955106325"><ele>180.0</ele><time>2026-05-02T07:07:02.999Z</time></trkpt><trkpt lat="41.35908241062269" lon="14.032920032605407"><ele>181.0</ele><time>2026-05-02T07:07:03.999Z</time></trkpt><trkpt lat="41.35884873263335" lon="14.033230590996293"><ele>182.0</ele><time>2026-05-02T07:07:04.999Z</time></trkpt><trkpt lat="41.35861566843484" lon="14.033541172680959"><ele>182.0</ele><time>2026-05-02T07:07:05.999Z</time></trkpt><trkpt lat="41.35838545247876" lon="14.033853019906491"><ele>182.0</ele><time>2026-05-02T07:07:06.999Z</time></trkpt><trkpt lat="41.35815533004094" lon="14.034166713913637"><ele>182.5</ele><time>2026-05-02T07:07:07.999Z</time></trkpt><trkpt lat="41.35792320370767" lon="14.034480502016136"><ele>183.0</ele><time>2026-05-02T07:07:08.999Z</time></trkpt><trkpt lat="41.35768956975104" lon="14.03479378312317"><ele>182.0</ele><time>2026-05-02T07:07:09.999Z</time></trkpt><trkpt lat="41.35745613240771" lon="14.035109205472304"><ele>181.0</ele><time>2026-05-02T07:07:10.999Z</time></trkpt><trkpt lat="41.3572221851445" lon="14.0354225564877"><ele>181.5</ele><time>2026-05-02T07:07:11.999Z</time></trkpt><trkpt lat="41.35698889796899" lon="14.035735111137296"><ele>182.0</ele><time>2026-05-02T07:07:12.999Z</time></trkpt><trkpt lat="41.35675451960095" lon="14.036047224506403"><ele>182.0</ele><time>2026-05-02T07:07:13.999Z</time></trkpt><trkpt lat="41.35651997815113" lon="14.036361041709442"><ele>182.0</ele><time>2026-05-02T07:07:14.999Z</time></trkpt><trkpt lat="41.356286317213694" lon="14.03667457392306"><ele>182.5</ele><time>2026-05-02T07:07:15.999Z</time></trkpt><trkpt lat="41.356050823387264" lon="14.036986906792407"><ele>183.0</ele><time>2026-05-02T07:07:16.998Z</time></trkpt><trkpt lat="41.35581755663412" lon="14.037300494440625"><ele>184.5</ele><time>2026-05-02T07:07:17.998Z</time></trkpt><trkpt lat="41.35558565061878" lon="14.037613995228686"><ele>186.0</ele><time>2026-05-02T07:07:18.998Z</time></trkpt><trkpt lat="41.35535110929871" lon="14.037926713675924"><ele>186.5</ele><time>2026-05-02T07:07:19.998Z</time></trkpt><trkpt lat="41.35511651561628" lon="14.038237802049924"><ele>187.0</ele><time>2026-05-02T07:07:20.998Z</time></trkpt><trkpt lat="41.35488240585509" lon="14.038551821472081"><ele>190.5</ele><time>2026-05-02T07:07:21.998Z</time></trkpt><trkpt lat="41.354645823243345" lon="14.038865186906067"><ele>194.0</ele><time>2026-05-02T07:07:22.998Z</time></trkpt><trkpt lat="41.35441114656987" lon="14.039178612541162"><ele>194.0</ele><time>2026-05-02T07:07:23.998Z</time></trkpt><trkpt lat="41.35417554354337" lon="14.039492006209434"><ele>194.0</ele><time>2026-05-02T07:07:24.998Z</time></trkpt><trkpt lat="41.35393947676053" lon="14.039803444940164"><ele>196.0</ele><time>2026-05-02T07:07:25.998Z</time></trkpt><trkpt lat="41.35370538670233" lon="14.040118282649162"><ele>198.0</ele><time>2026-05-02T07:07:26.998Z</time></trkpt><trkpt lat="41.353472148742036" lon="14.040433589972771"><ele>198.0</ele><time>2026-05-02T07:07:27.998Z</time></trkpt><trkpt lat="41.35324208124577" lon="14.040752307277913"><ele>198.0</ele><time>2026-05-02T07:07:28.998Z</time></trkpt><trkpt lat="41.35300872625561" lon="14.041068302314493"><ele>202.0</ele><time>2026-05-02T07:07:29.998Z</time></trkpt><trkpt lat="41.352776125029735" lon="14.041386127239733"><ele>206.0</ele><time>2026-05-02T07:07:30.998Z</time></trkpt><trkpt lat="41.3525427577585" lon="14.041700917659735"><ele>206.0</ele><time>2026-05-02T07:07:31.998Z</time></trkpt><trkpt lat="41.35231246977957" lon="14.04202132197909"><ele>206.0</ele><time>2026-05-02T07:07:32.998Z</time></trkpt><trkpt lat="41.35207656729719" lon="14.042335302180108"><ele>204.5</ele><time>2026-05-02T07:07:33.998Z</time></trkpt><trkpt lat="41.351840767046376" lon="14.042648385512745"><ele>203.0</ele><time>2026-05-02T07:07:34.998Z</time></trkpt><trkpt lat="41.35160624626885" lon="14.042961878437875"><ele>203.0</ele><time>2026-05-02T07:07:35.998Z</time></trkpt><trkpt lat="41.351374230874114" lon="14.043278417217207"><ele>203.0</ele><time>2026-05-02T07:07:36.998Z</time></trkpt><trkpt lat="41.3511406587911" lon="14.043590912928295"><ele>203.5</ele><time>2026-05-02T07:07:37.998Z</time></trkpt><trkpt lat="41.35090822300815" lon="14.043907220363689"><ele>204.0</ele><time>2026-05-02T07:07:38.998Z</time></trkpt><trkpt lat="41.350672980188115" lon="14.044220638316746"><ele>208.5</ele><time>2026-05-02T07:07:39.998Z</time></trkpt><trkpt lat="41.3504403642116" lon="14.044536380200961"><ele>213.0</ele><time>2026-05-02T07:07:40.998Z</time></trkpt><trkpt lat="41.35020759749476" lon="14.044852112566629"><ele>210.5</ele><time>2026-05-02T07:07:41.998Z</time></trkpt><trkpt lat="41.3499711974564" lon="14.04516527241894"><ele>208.0</ele><time>2026-05-02T07:07:42.998Z</time></trkpt><trkpt lat="41.34973745277154" lon="14.045481482253544"><ele>208.5</ele><time>2026-05-02T07:07:43.998Z</time></trkpt><trkpt lat="41.34950016381593" lon="14.045793248016881"><ele>209.0</ele><time>2026-05-02T07:07:44.998Z</time></trkpt><trkpt lat="41.349261729842105" lon="14.046105098261732"><ele>209.0</ele><time>2026-05-02T07:07:45.998Z</time></trkpt><trkpt lat="41.34902421955414" lon="14.04641725636509"><ele>209.0</ele><time>2026-05-02T07:07:46.998Z</time></trkpt><trkpt lat="41.34878696826211" lon="14.046726497904528"><ele>210.0</ele><time>2026-05-02T07:07:47.998Z</time></trkpt><trkpt lat="41.348554911418084" lon="14.047040552930353"><ele>211.0</ele><time>2026-05-02T07:07:48.998Z</time></trkpt><trkpt lat="41.3483212169028" lon="14.047353376146416"><ele>207.0</ele><time>2026-05-02T07:07:49.998Z</time></trkpt><trkpt lat="41.34808645437244" lon="14.047665778004085"><ele>203.0</ele><time>2026-05-02T07:07:50.998Z</time></trkpt><trkpt lat="41.3478540267112" lon="14.047980785536122"><ele>201.5</ele><time>2026-05-02T07:07:51.998Z</time></trkpt><trkpt lat="41.34761903433257" lon="14.04829272486036"><ele>200.0</ele><time>2026-05-02T07:07:52.998Z</time></trkpt><trkpt lat="41.347384204337274" lon="14.04860711711349"><ele>201.0</ele><time>2026-05-02T07:07:53.998Z</time></trkpt><trkpt lat="41.34714948028951" lon="14.048921668520963"><ele>202.0</ele><time>2026-05-02T07:07:54.999Z</time></trkpt><trkpt lat="41.34691375701634" lon="14.049236849124767"><ele>204.5</ele><time>2026-05-02T07:07:55.999Z</time></trkpt><trkpt lat="41.34667922393198" lon="14.049552074897443"><ele>207.0</ele><time>2026-05-02T07:07:56.999Z</time></trkpt><trkpt lat="41.34644555757204" lon="14.049869836133118"><ele>208.0</ele><time>2026-05-02T07:07:57.999Z</time></trkpt><trkpt lat="41.346210149887064" lon="14.05018716664732"><ele>209.0</ele><time>2026-05-02T07:07:58.999Z</time></trkpt><trkpt lat="41.345972931271994" lon="14.05050019790125"><ele>210.5</ele><time>2026-05-02T07:07:59.999Z</time></trkpt><trkpt lat="41.34573306892305" lon="14.05080979399938"><ele>212.0</ele><time>2026-05-02T07:08:00.999Z</time></trkpt><trkpt lat="41.34549841462909" lon="14.051125953288462"><ele>216.0</ele><time>2026-05-02T07:08:01.999Z</time></trkpt><trkpt lat="41.34525975142868" lon="14.051441830581336"><ele>220.0</ele><time>2026-05-02T07:08:02.999Z</time></trkpt><trkpt lat="41.34502504372731" lon="14.051760963555525"><ele>220.0</ele><time>2026-05-02T07:08:03.999Z</time></trkpt><trkpt lat="41.34479003852368" lon="14.052078963535275"><ele>220.0</ele><time>2026-05-02T07:08:04.999Z</time></trkpt><trkpt lat="41.34455446992933" lon="14.05239515732813"><ele>215.0</ele><time>2026-05-02T07:08:05.999Z</time></trkpt><trkpt lat="41.344319762402954" lon="14.052709416580441"><ele>210.0</ele><time>2026-05-02T07:08:06.999Z</time></trkpt><trkpt lat="41.34408449710477" lon="14.053025773680607"><ele>204.5</ele><time>2026-05-02T07:08:07.999Z</time></trkpt><trkpt lat="41.34384706106074" lon="14.053337410216601"><ele>199.0</ele><time>2026-05-02T07:08:08.999Z</time></trkpt><trkpt lat="41.34360850994283" lon="14.053655134139705"><ele>199.0</ele><time>2026-05-02T07:08:09.999Z</time></trkpt><trkpt lat="41.34337007647245" lon="14.053970068679257"><ele>199.0</ele><time>2026-05-02T07:08:10.999Z</time></trkpt><trkpt lat="41.34313169942961" lon="14.054285664806097"><ele>195.5</ele><time>2026-05-02T07:08:11.999Z</time></trkpt><trkpt lat="41.34289836823882" lon="14.054603447501814"><ele>192.0</ele><time>2026-05-02T07:08:12.999Z</time></trkpt><trkpt lat="41.3426613342851" lon="14.054918194205651"><ele>194.5</ele><time>2026-05-02T07:08:13.999Z</time></trkpt><trkpt lat="41.34242213721806" lon="14.055233073083048"><ele>197.0</ele><time>2026-05-02T07:08:14.999Z</time></trkpt><trkpt lat="41.34218717368894" lon="14.055549385259598"><ele>201.5</ele><time>2026-05-02T07:08:15.999Z</time></trkpt><trkpt lat="41.34195197748385" lon="14.055865706061194"><ele>206.0</ele><time>2026-05-02T07:08:16.999Z</time></trkpt><trkpt lat="41.341714684029775" lon="14.05618096743358"><ele>206.0</ele><time>2026-05-02T07:08:17.999Z</time></trkpt><trkpt lat="41.341478177667014" lon="14.056493558321334"><ele>206.0</ele><time>2026-05-02T07:08:18.999Z</time></trkpt><trkpt lat="41.34124188481519" lon="14.056809012465965"><ele>207.5</ele><time>2026-05-02T07:08:19.999Z</time></trkpt><trkpt lat="41.341005276682054" lon="14.057124998842264"><ele>209.0</ele><time>2026-05-02T07:08:20.999Z</time></trkpt><trkpt lat="41.340767458827735" lon="14.057440772460696"><ele>209.0</ele><time>2026-05-02T07:08:21.999Z</time></trkpt><trkpt lat="41.340531063399226" lon="14.057756713995344"><ele>209.0</ele><time>2026-05-02T07:08:22.999Z</time></trkpt><trkpt lat="41.34029457497811" lon="14.058073218810058"><ele>204.5</ele><time>2026-05-02T07:08:23.999Z</time></trkpt><trkpt lat="41.34006044289555" lon="14.058390175644739"><ele>200.0</ele><time>2026-05-02T07:08:24.999Z</time></trkpt><trkpt lat="41.33982696395092" lon="14.058705978150607"><ele>199.5</ele><time>2026-05-02T07:08:25.999Z</time></trkpt><trkpt lat="41.339592770800635" lon="14.059024493750279"><ele>199.0</ele><time>2026-05-02T07:08:26.999Z</time></trkpt><trkpt lat="41.33935772130328" lon="14.059338435987065"><ele>196.0</ele><time>2026-05-02T07:08:27.999Z</time></trkpt><trkpt lat="41.33912610673124" lon="14.059654523936004"><ele>193.0</ele><time>2026-05-02T07:08:28.999Z</time></trkpt><trkpt lat="41.33889151195897" lon="14.059968765619029"><ele>192.5</ele><time>2026-05-02T07:08:29.999Z</time></trkpt><trkpt lat="41.338654909761" lon="14.060276779808493"><ele>192.0</ele><time>2026-05-02T07:08:30.999Z</time></trkpt><trkpt lat="41.33842050322697" lon="14.060586407176267"><ele>192.0</ele><time>2026-05-02T07:08:31.999Z</time></trkpt><trkpt lat="41.33818964152873" lon="14.060897402462812"><ele>192.0</ele><time>2026-05-02T07:08:32.999Z</time></trkpt><trkpt lat="41.33795998599414" lon="14.061205244507713"><ele>194.0</ele><time>2026-05-02T07:08:33.999Z</time></trkpt><trkpt lat="41.33773408519197" lon="14.061514489896721"><ele>196.0</ele><time>2026-05-02T07:08:34.999Z</time></trkpt><trkpt lat="41.3375092285413" lon="14.061827409340042"><ele>196.0</ele><time>2026-05-02T07:08:35.999Z</time></trkpt><trkpt lat="41.33727998593203" lon="14.062145213187023"><ele>196.0</ele><time>2026-05-02T07:08:36.999Z</time></trkpt><trkpt lat="41.33704692845431" lon="14.062458694794596"><ele>194.0</ele><time>2026-05-02T07:08:37.999Z</time></trkpt><trkpt lat="41.33681270379471" lon="14.062773768297099"><ele>192.0</ele><time>2026-05-02T07:08:38.999Z</time></trkpt><trkpt lat="41.33657974749973" lon="14.063092231537778"><ele>190.5</ele><time>2026-05-02T07:08:39.999Z</time></trkpt><trkpt lat="41.336345748283904" lon="14.063410418484164"><ele>189.0</ele><time>2026-05-02T07:08:40.999Z</time></trkpt><trkpt lat="41.336111314346404" lon="14.06372682805515"><ele>189.0</ele><time>2026-05-02T07:08:41.999Z</time></trkpt><trkpt lat="41.335877009037" lon="14.06404254390102"><ele>189.0</ele><time>2026-05-02T07:08:42.999Z</time></trkpt><trkpt lat="41.33564290059826" lon="14.064356239840302"><ele>187.5</ele><time>2026-05-02T07:08:43.999Z</time></trkpt><trkpt lat="41.3354065072734" lon="14.064669227863932"><ele>186.0</ele><time>2026-05-02T07:08:44.999Z</time></trkpt><trkpt lat="41.33517068631672" lon="14.064979389493478"><ele>184.5</ele><time>2026-05-02T07:08:45.999Z</time></trkpt><trkpt lat="41.33493647690828" lon="14.065290110408895"><ele>183.0</ele><time>2026-05-02T07:08:46.999Z</time></trkpt><trkpt lat="41.334702811505856" lon="14.065599794076507"><ele>182.5</ele><time>2026-05-02T07:08:47.999Z</time></trkpt><trkpt lat="41.33446775353394" lon="14.06590785327087"><ele>182.0</ele><time>2026-05-02T07:08:48.999Z</time></trkpt><trkpt lat="41.33423150142444" lon="14.066214009660245"><ele>182.0</ele><time>2026-05-02T07:08:49.999Z</time></trkpt><trkpt lat="41.33399396241511" lon="14.066521225158896"><ele>182.0</ele><time>2026-05-02T07:08:50.999Z</time></trkpt><trkpt lat="41.333756894015316" lon="14.066828513439175"><ele>184.5</ele><time>2026-05-02T07:08:51.999Z</time></trkpt><trkpt lat="41.333518388660124" lon="14.067137292274275"><ele>187.0</ele><time>2026-05-02T07:08:52.999Z</time></trkpt><trkpt lat="41.333280130099254" lon="14.067449299348231"><ele>188.5</ele><time>2026-05-02T07:08:53.999Z</time></trkpt><trkpt lat="41.33304189107943" lon="14.067764765085647"><ele>190.0</ele><time>2026-05-02T07:08:54.999Z</time></trkpt><trkpt lat="41.3328049847078" lon="14.068081756817069"><ele>188.5</ele><time>2026-05-02T07:08:55.999Z</time></trkpt><trkpt lat="41.33256887428054" lon="14.068398100754935"><ele>187.0</ele><time>2026-05-02T07:08:56.999Z</time></trkpt><trkpt lat="41.33233142457272" lon="14.06871404455526"><ele>186.0</ele><time>2026-05-02T07:08:57.999Z</time></trkpt><trkpt lat="41.33209330222879" lon="14.069029532855904"><ele>185.0</ele><time>2026-05-02T07:08:58.999Z</time></trkpt><trkpt lat="41.331858051994374" lon="14.069344677749882"><ele>184.0</ele><time>2026-05-02T07:08:59.999Z</time></trkpt><trkpt lat="41.33162054552919" lon="14.069660823916276"><ele>183.0</ele><time>2026-05-02T07:09:00.999Z</time></trkpt><trkpt lat="41.331383868868365" lon="14.069974979682138"><ele>179.5</ele><time>2026-05-02T07:09:01.999Z</time></trkpt><trkpt lat="41.33114853207629" lon="14.070287489103368"><ele>176.0</ele><time>2026-05-02T07:09:02.999Z</time></trkpt><trkpt lat="41.33091440399296" lon="14.070600975067318"><ele>177.0</ele><time>2026-05-02T07:09:03.999Z</time></trkpt><trkpt lat="41.33068097019514" lon="14.070912167515633"><ele>178.0</ele><time>2026-05-02T07:09:04.999Z</time></trkpt><trkpt lat="41.3304469896625" lon="14.071224008103847"><ele>178.0</ele><time>2026-05-02T07:09:05.999Z</time></trkpt><trkpt lat="41.33021311277313" lon="14.07153543857274"><ele>178.0</ele><time>2026-05-02T07:09:06.999Z</time></trkpt><trkpt lat="41.329978874840265" lon="14.07184721480794"><ele>179.0</ele><time>2026-05-02T07:09:07.999Z</time></trkpt><trkpt lat="41.329746538463425" lon="14.072161251747843"><ele>180.0</ele><time>2026-05-02T07:09:08.999Z</time></trkpt><trkpt lat="41.32951299675566" lon="14.072477032611985"><ele>180.0</ele><time>2026-05-02T07:09:09.999Z</time></trkpt><trkpt lat="41.32928022160322" lon="14.072794011481557"><ele>180.0</ele><time>2026-05-02T07:09:10.999Z</time></trkpt><trkpt lat="41.329046139208884" lon="14.07311037147453"><ele>180.0</ele><time>2026-05-02T07:09:11.999Z</time></trkpt><trkpt lat="41.32880969585162" lon="14.073421102404597"><ele>180.0</ele><time>2026-05-02T07:09:12.999Z</time></trkpt><trkpt lat="41.32857111216417" lon="14.073726269790455"><ele>180.0</ele><time>2026-05-02T07:09:13.999Z</time></trkpt><trkpt lat="41.32833619228364" lon="14.074037811881396"><ele>180.0</ele><time>2026-05-02T07:09:14.999Z</time></trkpt><trkpt lat="41.32809820755914" lon="14.074348848569295"><ele>186.5</ele><time>2026-05-02T07:09:15.999Z</time></trkpt><trkpt lat="41.32786401185409" lon="14.074664744672223"><ele>193.0</ele><time>2026-05-02T07:09:16.999Z</time></trkpt><trkpt lat="41.327627753544604" lon="14.074979254672215"><ele>193.0</ele><time>2026-05-02T07:09:17.999Z</time></trkpt><trkpt lat="41.327393357140174" lon="14.07529738131756"><ele>193.0</ele><time>2026-05-02T07:09:18.999Z</time></trkpt><trkpt lat="41.32716244794856" lon="14.075618148772126"><ele>192.0</ele><time>2026-05-02T07:09:19.999Z</time></trkpt><trkpt lat="41.32693088899394" lon="14.075939666544649"><ele>191.0</ele><time>2026-05-02T07:09:20.999Z</time></trkpt><trkpt lat="41.32669694949302" lon="14.076263378157226"><ele>191.0</ele><time>2026-05-02T07:09:21.999Z</time></trkpt><trkpt lat="41.326458417499786" lon="14.07658111410154"><ele>191.0</ele><time>2026-05-02T07:09:22.999Z</time></trkpt><trkpt lat="41.326216635166176" lon="14.076894575690487"><ele>188.0</ele><time>2026-05-02T07:09:23.999Z</time></trkpt><trkpt lat="41.325975238019645" lon="14.07720531521501"><ele>185.0</ele><time>2026-05-02T07:09:24.999Z</time></trkpt><trkpt lat="41.32573814703704" lon="14.077523418012138"><ele>180.0</ele><time>2026-05-02T07:09:25.999Z</time></trkpt><trkpt lat="41.3255004397549" lon="14.077840922259721"><ele>175.0</ele><time>2026-05-02T07:09:26.998Z</time></trkpt><trkpt lat="41.32526187461261" lon="14.078156814601577"><ele>175.0</ele><time>2026-05-02T07:09:27.998Z</time></trkpt><trkpt lat="41.32502518741856" lon="14.078472288451783"><ele>175.0</ele><time>2026-05-02T07:09:28.998Z</time></trkpt><trkpt lat="41.324785205854944" lon="14.078784874661313"><ele>175.0</ele><time>2026-05-02T07:09:29.998Z</time></trkpt><trkpt lat="41.324553245794874" lon="14.0791037592602"><ele>175.0</ele><time>2026-05-02T07:09:30.998Z</time></trkpt><trkpt lat="41.32431909066967" lon="14.079417672523121"><ele>175.0</ele><time>2026-05-02T07:09:31.998Z</time></trkpt><trkpt lat="41.324083900743396" lon="14.079728169733407"><ele>175.0</ele><time>2026-05-02T07:09:32.998Z</time></trkpt><trkpt lat="41.32384810320093" lon="14.080038082811644"><ele>177.5</ele><time>2026-05-02T07:09:33.998Z</time></trkpt><trkpt lat="41.32361290174739" lon="14.080347313370208"><ele>180.0</ele><time>2026-05-02T07:09:34.998Z</time></trkpt><trkpt lat="41.32337717123025" lon="14.080656703172865"><ele>179.0</ele><time>2026-05-02T07:09:35.998Z</time></trkpt><trkpt lat="41.32313950646405" lon="14.080964842121224"><ele>178.0</ele><time>2026-05-02T07:09:36.998Z</time></trkpt><trkpt lat="41.32289888272705" lon="14.08127110193631"><ele>178.5</ele><time>2026-05-02T07:09:37.998Z</time></trkpt><trkpt lat="41.322646676087246" lon="14.081557616694763"><ele>179.0</ele><time>2026-05-02T07:09:38.998Z</time></trkpt><trkpt lat="41.32238976387545" lon="14.081831790494958"><ele>178.0</ele><time>2026-05-02T07:09:39.998Z</time></trkpt><trkpt lat="41.32212919221812" lon="14.082102070152903"><ele>177.0</ele><time>2026-05-02T07:09:40.998Z</time></trkpt><trkpt lat="41.32185757758005" lon="14.082360949097486"><ele>176.0</ele><time>2026-05-02T07:09:41.998Z</time></trkpt><trkpt lat="41.32158232957026" lon="14.08261151398871"><ele>175.0</ele><time>2026-05-02T07:09:42.998Z</time></trkpt><trkpt lat="41.3213008603721" lon="14.082849962308632"><ele>174.0</ele><time>2026-05-02T07:09:43.998Z</time></trkpt><trkpt lat="41.321016846496114" lon="14.083079930152774"><ele>173.0</ele><time>2026-05-02T07:09:44.998Z</time></trkpt><trkpt lat="41.32073036811022" lon="14.083302003359126"><ele>173.0</ele><time>2026-05-02T07:09:45.998Z</time></trkpt><trkpt lat="41.320437133011524" lon="14.083514416769653"><ele>173.0</ele><time>2026-05-02T07:09:46.998Z</time></trkpt><trkpt lat="41.32014386816062" lon="14.083723003443257"><ele>173.0</ele><time>2026-05-02T07:09:47.998Z</time></trkpt><trkpt lat="41.31984629862969" lon="14.083921043485159"><ele>173.0</ele><time>2026-05-02T07:09:48.998Z</time></trkpt><trkpt lat="41.319543758595046" lon="14.084109061517985"><ele>175.5</ele><time>2026-05-02T07:09:49.998Z</time></trkpt><trkpt lat="41.31923845460455" lon="14.084289559283604"><ele>178.0</ele><time>2026-05-02T07:09:50.998Z</time></trkpt><trkpt lat="41.31893061950861" lon="14.084455270033857"><ele>178.5</ele><time>2026-05-02T07:09:51.998Z</time></trkpt><trkpt lat="41.31861940595985" lon="14.084612516220135"><ele>179.0</ele><time>2026-05-02T07:09:52.998Z</time></trkpt><trkpt lat="41.31830583571647" lon="14.084760838805376"><ele>177.0</ele><time>2026-05-02T07:09:53.998Z</time></trkpt><trkpt lat="41.31798900682191" lon="14.084897274369252"><ele>175.0</ele><time>2026-05-02T07:09:54.998Z</time></trkpt><trkpt lat="41.31767115855851" lon="14.085025569154181"><ele>173.5</ele><time>2026-05-02T07:09:55.998Z</time></trkpt><trkpt lat="41.317352558973205" lon="14.085146867249787"><ele>172.0</ele><time>2026-05-02T07:09:56.998Z</time></trkpt><trkpt lat="41.31703144344716" lon="14.085264524665394"><ele>170.5</ele><time>2026-05-02T07:09:57.998Z</time></trkpt><trkpt lat="41.31670870438884" lon="14.085383312780005"><ele>169.0</ele><time>2026-05-02T07:09:58.998Z</time></trkpt><trkpt lat="41.316384633846575" lon="14.08549778896624"><ele>168.0</ele><time>2026-05-02T07:09:59.998Z</time></trkpt><trkpt lat="41.316062111324676" lon="14.085622512806221"><ele>167.0</ele><time>2026-05-02T07:10:00.999Z</time></trkpt><trkpt lat="41.31574035638364" lon="14.085745699976705"><ele>170.5</ele><time>2026-05-02T07:10:01.999Z</time></trkpt><trkpt lat="41.31541837003722" lon="14.085871366784929"><ele>174.0</ele><time>2026-05-02T07:10:02.999Z</time></trkpt><trkpt lat="41.31509841686352" lon="14.085992615884097"><ele>174.0</ele><time>2026-05-02T07:10:03.999Z</time></trkpt><trkpt lat="41.314780102967795" lon="14.08611661293157"><ele>174.0</ele><time>2026-05-02T07:10:04.999Z</time></trkpt><trkpt lat="41.31446271226831" lon="14.086242299860958"><ele>176.5</ele><time>2026-05-02T07:10:05.999Z</time></trkpt><trkpt lat="41.31414399503279" lon="14.086365683999912"><ele>179.0</ele><time>2026-05-02T07:10:06.999Z</time></trkpt><trkpt lat="41.313824370957775" lon="14.086494131876181"><ele>184.5</ele><time>2026-05-02T07:10:07.999Z</time></trkpt><trkpt lat="41.31350248591086" lon="14.086615980109478"><ele>190.0</ele><time>2026-05-02T07:10:08.999Z</time></trkpt><trkpt lat="41.31318152637913" lon="14.086741485087753"><ele>191.0</ele><time>2026-05-02T07:10:09.999Z</time></trkpt><trkpt lat="41.31285968358985" lon="14.086870663813778"><ele>192.0</ele><time>2026-05-02T07:10:10.999Z</time></trkpt><trkpt lat="41.31253456730131" lon="14.08698977162616"><ele>187.0</ele><time>2026-05-02T07:10:11.999Z</time></trkpt><trkpt lat="41.312211974646004" lon="14.087113663266816"><ele>182.0</ele><time>2026-05-02T07:10:12.999Z</time></trkpt><trkpt lat="41.311890880060155" lon="14.087240479844215"><ele>182.0</ele><time>2026-05-02T07:10:13.999Z</time></trkpt><trkpt lat="41.311574818116206" lon="14.087370024796526"><ele>182.0</ele><time>2026-05-02T07:10:14.999Z</time></trkpt><trkpt lat="41.311257687828785" lon="14.087495564524913"><ele>178.0</ele><time>2026-05-02T07:10:15.999Z</time></trkpt><trkpt lat="41.31094014782359" lon="14.087620549995732"><ele>174.0</ele><time>2026-05-02T07:10:16.999Z</time></trkpt><trkpt lat="41.31062234816156" lon="14.08774306378296"><ele>174.0</ele><time>2026-05-02T07:10:17.999Z</time></trkpt><trkpt lat="41.31030461148785" lon="14.087865793215618"><ele>174.0</ele><time>2026-05-02T07:10:18.999Z</time></trkpt><trkpt lat="41.30998633144411" lon="14.08799127743926"><ele>175.5</ele><time>2026-05-02T07:10:19.999Z</time></trkpt><trkpt lat="41.309668654556795" lon="14.088112684376464"><ele>177.0</ele><time>2026-05-02T07:10:20.999Z</time></trkpt><trkpt lat="41.30934959378577" lon="14.088243074045693"><ele>178.5</ele><time>2026-05-02T07:10:21.999Z</time></trkpt><trkpt lat="41.30903154669144" lon="14.088368046716464"><ele>180.0</ele><time>2026-05-02T07:10:22.999Z</time></trkpt><trkpt lat="41.3087107188257" lon="14.088489964450803"><ele>180.0</ele><time>2026-05-02T07:10:23.999Z</time></trkpt><trkpt lat="41.30839179645602" lon="14.088616440270831"><ele>180.0</ele><time>2026-05-02T07:10:24.999Z</time></trkpt><trkpt lat="41.3080703634051" lon="14.088736494730519"><ele>180.0</ele><time>2026-05-02T07:10:25.999Z</time></trkpt><trkpt lat="41.3077501654572" lon="14.088861203137014"><ele>180.0</ele><time>2026-05-02T07:10:26.999Z</time></trkpt><trkpt lat="41.307431787307465" lon="14.088987835432821"><ele>182.0</ele><time>2026-05-02T07:10:27.999Z</time></trkpt><trkpt lat="41.30711330704207" lon="14.089112349626966"><ele>184.0</ele><time>2026-05-02T07:10:28.999Z</time></trkpt><trkpt lat="41.3067932167946" lon="14.089234157783222"><ele>184.0</ele><time>2026-05-02T07:10:29.999Z</time></trkpt><trkpt lat="41.306475216499116" lon="14.08936327380144"><ele>184.0</ele><time>2026-05-02T07:10:30.999Z</time></trkpt><trkpt lat="41.30615617817804" lon="14.089487150106507"><ele>185.5</ele><time>2026-05-02T07:10:31.999Z</time></trkpt><trkpt lat="41.305836631709255" lon="14.089608479348405"><ele>187.0</ele><time>2026-05-02T07:10:32.999Z</time></trkpt><trkpt lat="41.30551743167821" lon="14.089724560301137"><ele>187.5</ele><time>2026-05-02T07:10:33.999Z</time></trkpt><trkpt lat="41.3051954632208" lon="14.08984124329847"><ele>188.0</ele><time>2026-05-02T07:10:34.999Z</time></trkpt><trkpt lat="41.304875038122994" lon="14.089954727623896"><ele>187.5</ele><time>2026-05-02T07:10:35.999Z</time></trkpt><trkpt lat="41.304551638330985" lon="14.090062535050315"><ele>187.0</ele><time>2026-05-02T07:10:36.999Z</time></trkpt><trkpt lat="41.30422648182423" lon="14.090159513074829"><ele>188.5</ele><time>2026-05-02T07:10:37.999Z</time></trkpt><trkpt lat="41.303899769370155" lon="14.090252724227685"><ele>190.0</ele><time>2026-05-02T07:10:38.999Z</time></trkpt><trkpt lat="41.30357271334199" lon="14.090341378660273"><ele>190.0</ele><time>2026-05-02T07:10:40Z</time></trkpt><trkpt lat="41.3032444846388" lon="14.09042838252318"><ele>190.0</ele><time>2026-05-02T07:10:41Z</time></trkpt><trkpt lat="41.30291517089986" lon="14.090508085236582"><ele>191.0</ele><time>2026-05-02T07:10:42Z</time></trkpt><trkpt lat="41.30258551372559" lon="14.090580286344087"><ele>192.0</ele><time>2026-05-02T07:10:43Z</time></trkpt><trkpt lat="41.302255827066595" lon="14.090648002183576"><ele>190.5</ele><time>2026-05-02T07:10:44Z</time></trkpt><trkpt lat="41.301924190847565" lon="14.090711919499617"><ele>189.0</ele><time>2026-05-02T07:10:45Z</time></trkpt><trkpt lat="41.3015925521488" lon="14.09076803227713"><ele>188.0</ele><time>2026-05-02T07:10:46Z</time></trkpt><trkpt lat="41.30126041544633" lon="14.090818038204"><ele>187.0</ele><time>2026-05-02T07:10:47Z</time></trkpt><trkpt lat="41.300927062561904" lon="14.090862220217963"><ele>187.0</ele><time>2026-05-02T07:10:48Z</time></trkpt><trkpt lat="41.300594313657655" lon="14.090901280291376"><ele>187.0</ele><time>2026-05-02T07:10:49Z</time></trkpt><trkpt lat="41.300260538812324" lon="14.090934470466184"><ele>188.0</ele><time>2026-05-02T07:10:50Z</time></trkpt><trkpt lat="41.299924223211455" lon="14.090965461435534"><ele>189.0</ele><time>2026-05-02T07:10:51Z</time></trkpt><trkpt lat="41.299587617209895" lon="14.090988796466247"><ele>186.0</ele><time>2026-05-02T07:10:52Z</time></trkpt><trkpt lat="41.29925084604112" lon="14.091003467026196"><ele>183.0</ele><time>2026-05-02T07:10:53Z</time></trkpt><trkpt lat="41.298913715592846" lon="14.091015562780193"><ele>181.5</ele><time>2026-05-02T07:10:54Z</time></trkpt><trkpt lat="41.29857551402307" lon="14.091024685136173"><ele>180.0</ele><time>2026-05-02T07:10:55Z</time></trkpt><trkpt lat="41.298238095792996" lon="14.091030061592283"><ele>178.0</ele><time>2026-05-02T07:10:56Z</time></trkpt><trkpt lat="41.29790241432344" lon="14.091033896150819"><ele>176.0</ele><time>2026-05-02T07:10:57Z</time></trkpt><trkpt lat="41.29756594946326" lon="14.091037577449045"><ele>175.0</ele><time>2026-05-02T07:10:58Z</time></trkpt><trkpt lat="41.297229718440484" lon="14.091042034639461"><ele>174.0</ele><time>2026-05-02T07:10:59Z</time></trkpt><trkpt lat="41.296894537696524" lon="14.091047537371837"><ele>174.0</ele><time>2026-05-02T07:11:00Z</time></trkpt><trkpt lat="41.29655995601553" lon="14.091056573807622"><ele>174.0</ele><time>2026-05-02T07:11:01Z</time></trkpt><trkpt lat="41.296227245705495" lon="14.09106435239239"><ele>174.0</ele><time>2026-05-02T07:11:02Z</time></trkpt><trkpt lat="41.295893697141715" lon="14.09106970917388"><ele>174.0</ele><time>2026-05-02T07:11:03Z</time></trkpt><trkpt lat="41.29555821224989" lon="14.091078086375"><ele>175.5</ele><time>2026-05-02T07:11:04Z</time></trkpt><trkpt lat="41.295225889731284" lon="14.091088361778676"><ele>177.0</ele><time>2026-05-02T07:11:05Z</time></trkpt><trkpt lat="41.29489466315667" lon="14.091099455422695"><ele>178.0</ele><time>2026-05-02T07:11:06Z</time></trkpt><trkpt lat="41.29456377501859" lon="14.091112889103732"><ele>179.0</ele><time>2026-05-02T07:11:07Z</time></trkpt><trkpt lat="41.294231979727485" lon="14.091128727669478"><ele>180.0</ele><time>2026-05-02T07:11:08Z</time></trkpt><trkpt lat="41.29390004293317" lon="14.091143516841084"><ele>181.0</ele><time>2026-05-02T07:11:09Z</time></trkpt><trkpt lat="41.29356717203899" lon="14.09115531311073"><ele>181.0</ele><time>2026-05-02T07:11:10Z</time></trkpt><trkpt lat="41.29323372938137" lon="14.091164460939613"><ele>181.0</ele><time>2026-05-02T07:11:11Z</time></trkpt><trkpt lat="41.29289855311177" lon="14.091172608259464"><ele>180.5</ele><time>2026-05-02T07:11:12Z</time></trkpt><trkpt lat="41.29256376825198" lon="14.091179927135348"><ele>180.0</ele><time>2026-05-02T07:11:13Z</time></trkpt><trkpt lat="41.29222789922254" lon="14.091188604878225"><ele>180.0</ele><time>2026-05-02T07:11:14Z</time></trkpt><trkpt lat="41.291891930406074" lon="14.091196720673826"><ele>180.0</ele><time>2026-05-02T07:11:15Z</time></trkpt><trkpt lat="41.29155665496494" lon="14.09120413934339"><ele>182.5</ele><time>2026-05-02T07:11:16Z</time></trkpt><trkpt lat="41.29122153627973" lon="14.091211572246905"><ele>185.0</ele><time>2026-05-02T07:11:17Z</time></trkpt><trkpt lat="41.290887125922" lon="14.0912180413898"><ele>187.0</ele><time>2026-05-02T07:11:18Z</time></trkpt><trkpt lat="41.29055404210639" lon="14.091225781144576"><ele>189.0</ele><time>2026-05-02T07:11:19Z</time></trkpt><trkpt lat="41.29022004810048" lon="14.091231917133747"><ele>189.0</ele><time>2026-05-02T07:11:20Z</time></trkpt><trkpt lat="41.289886763677394" lon="14.091238443479044"><ele>189.0</ele><time>2026-05-02T07:11:21Z</time></trkpt><trkpt lat="41.2895521608637" lon="14.091245950829972"><ele>187.5</ele><time>2026-05-02T07:11:22Z</time></trkpt><trkpt lat="41.28922000175775" lon="14.09124886730185"><ele>186.0</ele><time>2026-05-02T07:11:23Z</time></trkpt><trkpt lat="41.28888706656803" lon="14.091251052518622"><ele>186.0</ele><time>2026-05-02T07:11:24Z</time></trkpt><trkpt lat="41.288553270646865" lon="14.091252988263571"><ele>186.0</ele><time>2026-05-02T07:11:25Z</time></trkpt><trkpt lat="41.28821933838933" lon="14.091255588427696"><ele>186.0</ele><time>2026-05-02T07:11:26Z</time></trkpt><trkpt lat="41.28788586318123" lon="14.091256250286468"><ele>186.0</ele><time>2026-05-02T07:11:27Z</time></trkpt><trkpt lat="41.2875518717993" lon="14.091263083502707"><ele>185.0</ele><time>2026-05-02T07:11:28Z</time></trkpt><trkpt lat="41.28721823709953" lon="14.0912691888622"><ele>184.0</ele><time>2026-05-02T07:11:29Z</time></trkpt><trkpt lat="41.28688442706751" lon="14.091277392887408"><ele>184.0</ele><time>2026-05-02T07:11:30Z</time></trkpt><trkpt lat="41.28655119309755" lon="14.091284739967314"><ele>184.0</ele><time>2026-05-02T07:11:31Z</time></trkpt><trkpt lat="41.28621656256067" lon="14.091294127523044"><ele>182.5</ele><time>2026-05-02T07:11:32Z</time></trkpt><trkpt lat="41.285883386600496" lon="14.09130204215782"><ele>181.0</ele><time>2026-05-02T07:11:33Z</time></trkpt><trkpt lat="41.28554976110155" lon="14.09130907339553"><ele>181.0</ele><time>2026-05-02T07:11:34Z</time></trkpt><trkpt lat="41.285215950853" lon="14.091314422151688"><ele>181.0</ele><time>2026-05-02T07:11:35Z</time></trkpt><trkpt lat="41.28488363691317" lon="14.091320451697984"><ele>181.0</ele><time>2026-05-02T07:11:35.999Z</time></trkpt><trkpt lat="41.284549628514945" lon="14.091328243520511"><ele>181.0</ele><time>2026-05-02T07:11:36.999Z</time></trkpt><trkpt lat="41.28421586094779" lon="14.091337545163187"><ele>180.5</ele><time>2026-05-02T07:11:37.999Z</time></trkpt><trkpt lat="41.28388268979417" lon="14.091343496696089"><ele>180.0</ele><time>2026-05-02T07:11:38.999Z</time></trkpt><trkpt lat="41.283549683059505" lon="14.091351961887455"><ele>180.0</ele><time>2026-05-02T07:11:39.999Z</time></trkpt><trkpt lat="41.28321595783317" lon="14.091360653600098"><ele>180.0</ele><time>2026-05-02T07:11:40.999Z</time></trkpt><trkpt lat="41.2828828643076" lon="14.091368690922701"><ele>181.0</ele><time>2026-05-02T07:11:41.999Z</time></trkpt><trkpt lat="41.282549513108854" lon="14.091376982323322"><ele>182.0</ele><time>2026-05-02T07:11:42.999Z</time></trkpt><trkpt lat="41.282215866060305" lon="14.091389911333073"><ele>184.0</ele><time>2026-05-02T07:11:43.999Z</time></trkpt><trkpt lat="41.28188289776235" lon="14.09140036865892"><ele>186.0</ele><time>2026-05-02T07:11:44.999Z</time></trkpt><trkpt lat="41.28154995867163" lon="14.091410008980713"><ele>187.5</ele><time>2026-05-02T07:11:45.999Z</time></trkpt><trkpt lat="41.28121610113859" lon="14.091411212446253"><ele>189.0</ele><time>2026-05-02T07:11:46.999Z</time></trkpt><trkpt lat="41.28088365863902" lon="14.091413557772018"><ele>186.5</ele><time>2026-05-02T07:11:47.999Z</time></trkpt><trkpt lat="41.28054805636238" lon="14.091421534297723"><ele>184.0</ele><time>2026-05-02T07:11:48.999Z</time></trkpt><trkpt lat="41.280211939111275" lon="14.091430019821088"><ele>184.0</ele><time>2026-05-02T07:11:49.999Z</time></trkpt><trkpt lat="41.27987896912858" lon="14.091442050467867"><ele>184.0</ele><time>2026-05-02T07:11:50.999Z</time></trkpt><trkpt lat="41.27954550133478" lon="14.091448477033783"><ele>182.0</ele><time>2026-05-02T07:11:51.999Z</time></trkpt><trkpt lat="41.27921078889311" lon="14.09145773090026"><ele>180.0</ele><time>2026-05-02T07:11:52.999Z</time></trkpt><trkpt lat="41.27887822686311" lon="14.09146575737574"><ele>180.0</ele><time>2026-05-02T07:11:53.999Z</time></trkpt><trkpt lat="41.278544829846794" lon="14.091474015086398"><ele>180.0</ele><time>2026-05-02T07:11:54.999Z</time></trkpt><trkpt lat="41.278212293172274" lon="14.091486160369284"><ele>181.0</ele><time>2026-05-02T07:11:55.999Z</time></trkpt><trkpt lat="41.277878656436286" lon="14.091495981851539"><ele>182.0</ele><time>2026-05-02T07:11:56.999Z</time></trkpt><trkpt lat="41.27754351347168" lon="14.091506146905477"><ele>183.5</ele><time>2026-05-02T07:11:57.999Z</time></trkpt><trkpt lat="41.27720799863644" lon="14.09151474030518"><ele>185.0</ele><time>2026-05-02T07:11:58.999Z</time></trkpt><trkpt lat="41.27687339664071" lon="14.091522035781363"><ele>185.0</ele><time>2026-05-02T07:11:59.999Z</time></trkpt><trkpt lat="41.27653963631956" lon="14.091526963945114"><ele>185.0</ele><time>2026-05-02T07:12:00.999Z</time></trkpt><trkpt lat="41.276207458890546" lon="14.091536612801645"><ele>187.5</ele><time>2026-05-02T07:12:01.999Z</time></trkpt><trkpt lat="41.27587413436313" lon="14.091545268769071"><ele>190.0</ele><time>2026-05-02T07:12:02.999Z</time></trkpt><trkpt lat="41.27554215449853" lon="14.091559275366318"><ele>190.5</ele><time>2026-05-02T07:12:03.999Z</time></trkpt><trkpt lat="41.275210111245094" lon="14.091563180659069"><ele>191.0</ele><time>2026-05-02T07:12:04.999Z</time></trkpt><trkpt lat="41.2748793310049" lon="14.091562476270113"><ele>192.0</ele><time>2026-05-02T07:12:05.999Z</time></trkpt><trkpt lat="41.27454922191958" lon="14.091567318761646"><ele>193.0</ele><time>2026-05-02T07:12:07Z</time></trkpt><trkpt lat="41.274220921425275" lon="14.091584740069345"><ele>191.0</ele><time>2026-05-02T07:12:08Z</time></trkpt><trkpt lat="41.273893133806055" lon="14.091599052218182"><ele>189.0</ele><time>2026-05-02T07:12:09Z</time></trkpt><trkpt lat="41.273560773595825" lon="14.091611080491193"><ele>189.0</ele><time>2026-05-02T07:12:10Z</time></trkpt><trkpt lat="41.27322738987662" lon="14.091622492864884"><ele>189.0</ele><time>2026-05-02T07:12:11Z</time></trkpt><trkpt lat="41.272893745470036" lon="14.091635817258306"><ele>188.0</ele><time>2026-05-02T07:12:12Z</time></trkpt><trkpt lat="41.2725607795073" lon="14.091653060140256"><ele>187.0</ele><time>2026-05-02T07:12:13Z</time></trkpt><trkpt lat="41.272225699934516" lon="14.091670410992581"><ele>186.0</ele><time>2026-05-02T07:12:14Z</time></trkpt><trkpt lat="41.27189040005653" lon="14.091682920169086"><ele>185.0</ele><time>2026-05-02T07:12:15Z</time></trkpt><trkpt lat="41.27155446439574" lon="14.091688265424905"><ele>183.5</ele><time>2026-05-02T07:12:16Z</time></trkpt><trkpt lat="41.2712187348713" lon="14.091695487077253"><ele>182.0</ele><time>2026-05-02T07:12:17Z</time></trkpt><trkpt lat="41.27088209029929" lon="14.091704707133392"><ele>180.5</ele><time>2026-05-02T07:12:18Z</time></trkpt><trkpt lat="41.27054715983351" lon="14.091711557817936"><ele>179.0</ele><time>2026-05-02T07:12:19Z</time></trkpt><trkpt lat="41.27021254587846" lon="14.091720313015452"><ele>179.0</ele><time>2026-05-02T07:12:20Z</time></trkpt><trkpt lat="41.26987727263968" lon="14.091728585095089"><ele>179.0</ele><time>2026-05-02T07:12:21Z</time></trkpt><trkpt lat="41.269542652463386" lon="14.091735658605916"><ele>176.0</ele><time>2026-05-02T07:12:22Z</time></trkpt><trkpt lat="41.26920878140111" lon="14.09174153143727"><ele>173.0</ele><time>2026-05-02T07:12:23Z</time></trkpt><trkpt lat="41.2688738806722" lon="14.091749379458788"><ele>173.0</ele><time>2026-05-02T07:12:24Z</time></trkpt><trkpt lat="41.26854059974024" lon="14.091753975926395"><ele>173.0</ele><time>2026-05-02T07:12:25Z</time></trkpt><trkpt lat="41.26820675047691" lon="14.091761938336715"><ele>174.0</ele><time>2026-05-02T07:12:26Z</time></trkpt><trkpt lat="41.26787204578207" lon="14.091769482641107"><ele>175.0</ele><time>2026-05-02T07:12:27Z</time></trkpt><trkpt lat="41.267536709969626" lon="14.091779847041789"><ele>173.0</ele><time>2026-05-02T07:12:28Z</time></trkpt><trkpt lat="41.26720265473527" lon="14.091787650376768"><ele>171.0</ele><time>2026-05-02T07:12:29Z</time></trkpt><trkpt lat="41.26686809874173" lon="14.091795559996577"><ele>171.0</ele><time>2026-05-02T07:12:30Z</time></trkpt><trkpt lat="41.26653356207685" lon="14.091803070990665"><ele>171.0</ele><time>2026-05-02T07:12:31Z</time></trkpt><trkpt lat="41.2661996551545" lon="14.091808233846782"><ele>169.0</ele><time>2026-05-02T07:12:32Z</time></trkpt><trkpt lat="41.2658663562277" lon="14.091813884864845"><ele>167.0</ele><time>2026-05-02T07:12:33Z</time></trkpt><trkpt lat="41.26553483464706" lon="14.091820088697627"><ele>164.5</ele><time>2026-05-02T07:12:34Z</time></trkpt><trkpt lat="41.265203311353176" lon="14.091829332761856"><ele>162.0</ele><time>2026-05-02T07:12:35Z</time></trkpt><trkpt lat="41.26487279067457" lon="14.091837359943534"><ele>159.0</ele><time>2026-05-02T07:12:36Z</time></trkpt><trkpt lat="41.26454202239968" lon="14.091842838664169"><ele>156.0</ele><time>2026-05-02T07:12:37Z</time></trkpt><trkpt lat="41.264210055394614" lon="14.091847406072429"><ele>153.0</ele><time>2026-05-02T07:12:38Z</time></trkpt><trkpt lat="41.26387717424745" lon="14.091854912506905"><ele>150.0</ele><time>2026-05-02T07:12:39Z</time></trkpt><trkpt lat="41.26354514520028" lon="14.091862856060304"><ele>150.0</ele><time>2026-05-02T07:12:40Z</time></trkpt><trkpt lat="41.26321366551534" lon="14.091870312031858"><ele>150.0</ele><time>2026-05-02T07:12:41Z</time></trkpt><trkpt lat="41.26288066749923" lon="14.091876307708578"><ele>150.5</ele><time>2026-05-02T07:12:42Z</time></trkpt><trkpt lat="41.2625468115037" lon="14.091883834133466"><ele>151.0</ele><time>2026-05-02T07:12:43Z</time></trkpt><trkpt lat="41.2622129984586" lon="14.09189124150685"><ele>154.0</ele><time>2026-05-02T07:12:44Z</time></trkpt><trkpt lat="41.26187792008487" lon="14.091895820983456"><ele>157.0</ele><time>2026-05-02T07:12:45Z</time></trkpt><trkpt lat="41.261543744313705" lon="14.091900812790419"><ele>160.0</ele><time>2026-05-02T07:12:46Z</time></trkpt><trkpt lat="41.26120921948357" lon="14.091904013050563"><ele>163.0</ele><time>2026-05-02T07:12:47Z</time></trkpt><trkpt lat="41.26087516000928" lon="14.091904511366824"><ele>165.0</ele><time>2026-05-02T07:12:48Z</time></trkpt><trkpt lat="41.2605415358638" lon="14.091906788730228"><ele>167.0</ele><time>2026-05-02T07:12:49Z</time></trkpt><trkpt lat="41.26020782335689" lon="14.091909945954649"><ele>167.0</ele><time>2026-05-02T07:12:50Z</time></trkpt><trkpt lat="41.25987528105428" lon="14.091916178705544"><ele>167.0</ele><time>2026-05-02T07:12:51Z</time></trkpt><trkpt lat="41.25954142177355" lon="14.091923417451536"><ele>167.0</ele><time>2026-05-02T07:12:52Z</time></trkpt><trkpt lat="41.25920798508479" lon="14.091929798153583"><ele>167.0</ele><time>2026-05-02T07:12:53Z</time></trkpt><trkpt lat="41.25887414854148" lon="14.091938058594293"><ele>169.0</ele><time>2026-05-02T07:12:54Z</time></trkpt><trkpt lat="41.258540617292596" lon="14.091944760653977"><ele>171.0</ele><time>2026-05-02T07:12:55Z</time></trkpt><trkpt lat="41.258207378885" lon="14.091955551894506"><ele>170.5</ele><time>2026-05-02T07:12:56Z</time></trkpt><trkpt lat="41.25787392399675" lon="14.091964622299596"><ele>170.0</ele><time>2026-05-02T07:12:57Z</time></trkpt><trkpt lat="41.257541317100774" lon="14.091971909009835"><ele>168.5</ele><time>2026-05-02T07:12:58Z</time></trkpt><trkpt lat="41.257209197476755" lon="14.091979713358404"><ele>167.0</ele><time>2026-05-02T07:12:59Z</time></trkpt><trkpt lat="41.256876736497176" lon="14.091986523280163"><ele>167.0</ele><time>2026-05-02T07:13:00Z</time></trkpt><trkpt lat="41.25654356533151" lon="14.091993369663019"><ele>167.0</ele><time>2026-05-02T07:13:01Z</time></trkpt><trkpt lat="41.25620968852242" lon="14.092004958159892"><ele>166.5</ele><time>2026-05-02T07:13:02Z</time></trkpt><trkpt lat="41.255874635522524" lon="14.092012270128539"><ele>166.0</ele><time>2026-05-02T07:13:03Z</time></trkpt><trkpt lat="41.25554010449411" lon="14.092018743940361"><ele>164.5</ele><time>2026-05-02T07:13:04Z</time></trkpt><trkpt lat="41.25520530266311" lon="14.092028538683703"><ele>163.0</ele><time>2026-05-02T07:13:05Z</time></trkpt><trkpt lat="41.25487049085299" lon="14.092037554432142"><ele>162.5</ele><time>2026-05-02T07:13:06Z</time></trkpt><trkpt lat="41.25453583370952" lon="14.092047905122302"><ele>162.0</ele><time>2026-05-02T07:13:07Z</time></trkpt><trkpt lat="41.25420023539132" lon="14.092057944082098"><ele>161.0</ele><time>2026-05-02T07:13:08Z</time></trkpt><trkpt lat="41.253864530788974" lon="14.092064851767539"><ele>160.0</ele><time>2026-05-02T07:13:09Z</time></trkpt><trkpt lat="41.25353230500256" lon="14.092070881190876"><ele>160.0</ele><time>2026-05-02T07:13:10Z</time></trkpt><trkpt lat="41.25320323615443" lon="14.092081084118094"><ele>160.0</ele><time>2026-05-02T07:13:11Z</time></trkpt><trkpt lat="41.252871772614014" lon="14.092094353998244"><ele>159.0</ele><time>2026-05-02T07:13:12Z</time></trkpt><trkpt lat="41.25253937942418" lon="14.092102483172418"><ele>158.0</ele><time>2026-05-02T07:13:13Z</time></trkpt><trkpt lat="41.25220644948981" lon="14.092110704533372"><ele>156.5</ele><time>2026-05-02T07:13:14Z</time></trkpt><trkpt lat="41.251873582140675" lon="14.09212106457312"><ele>155.0</ele><time>2026-05-02T07:13:15Z</time></trkpt><trkpt lat="41.251540485368125" lon="14.092133285805314"><ele>152.5</ele><time>2026-05-02T07:13:16Z</time></trkpt><trkpt lat="41.2512080142059" lon="14.092145912037099"><ele>150.0</ele><time>2026-05-02T07:13:17Z</time></trkpt><trkpt lat="41.25087596785463" lon="14.092158204234282"><ele>149.5</ele><time>2026-05-02T07:13:18Z</time></trkpt><trkpt lat="41.2505436285045" lon="14.092169620783514"><ele>149.0</ele><time>2026-05-02T07:13:19Z</time></trkpt><trkpt lat="41.25021189111003" lon="14.0921798879997"><ele>149.0</ele><time>2026-05-02T07:13:20Z</time></trkpt><trkpt lat="41.24987892584851" lon="14.092189509022093"><ele>149.0</ele><time>2026-05-02T07:13:21Z</time></trkpt><trkpt lat="41.249546831166924" lon="14.092198692788994"><ele>148.5</ele><time>2026-05-02T07:13:22Z</time></trkpt><trkpt lat="41.24921452057812" lon="14.092202535081663"><ele>148.0</ele><time>2026-05-02T07:13:23Z</time></trkpt><trkpt lat="41.24888130032816" lon="14.092210258873294"><ele>147.5</ele><time>2026-05-02T07:13:24Z</time></trkpt><trkpt lat="41.248548043436806" lon="14.092219752179954"><ele>147.0</ele><time>2026-05-02T07:13:25Z</time></trkpt><trkpt lat="41.24821477783803" lon="14.092227395431184"><ele>146.0</ele><time>2026-05-02T07:13:26Z</time></trkpt><trkpt lat="41.2478793766781" lon="14.092235153927662"><ele>145.0</ele><time>2026-05-02T07:13:27Z</time></trkpt><trkpt lat="41.24754344622706" lon="14.092241429701849"><ele>144.0</ele><time>2026-05-02T07:13:28Z</time></trkpt><trkpt lat="41.24720683279735" lon="14.092244781399554"><ele>143.0</ele><time>2026-05-02T07:13:29Z</time></trkpt><trkpt lat="41.24687168434317" lon="14.092251563190512"><ele>143.0</ele><time>2026-05-02T07:13:30Z</time></trkpt><trkpt lat="41.24653735763894" lon="14.09225526891364"><ele>143.0</ele><time>2026-05-02T07:13:31Z</time></trkpt><trkpt lat="41.24620344606566" lon="14.092260320695402"><ele>143.5</ele><time>2026-05-02T07:13:32Z</time></trkpt><trkpt lat="41.24586853974696" lon="14.092259835472193"><ele>144.0</ele><time>2026-05-02T07:13:33Z</time></trkpt><trkpt lat="41.24553378143516" lon="14.092262591910337"><ele>144.0</ele><time>2026-05-02T07:13:34Z</time></trkpt><trkpt lat="41.245198172854906" lon="14.092260717758162"><ele>144.0</ele><time>2026-05-02T07:13:35Z</time></trkpt><trkpt lat="41.24486257378943" lon="14.09226257850391"><ele>143.0</ele><time>2026-05-02T07:13:36Z</time></trkpt><trkpt lat="41.24452774350626" lon="14.092265903577177"><ele>142.0</ele><time>2026-05-02T07:13:37Z</time></trkpt><trkpt lat="41.24419397527585" lon="14.0922812335515"><ele>141.0</ele><time>2026-05-02T07:13:38Z</time></trkpt><trkpt lat="41.2438599344456" lon="14.09229042261664"><ele>140.0</ele><time>2026-05-02T07:13:39Z</time></trkpt><trkpt lat="41.24352488694089" lon="14.092293546516203"><ele>140.0</ele><time>2026-05-02T07:13:39.999Z</time></trkpt><trkpt lat="41.24319147876517" lon="14.092293874091732"><ele>140.0</ele><time>2026-05-02T07:13:40.999Z</time></trkpt><trkpt lat="41.24285809509333" lon="14.092297964899874"><ele>139.0</ele><time>2026-05-02T07:13:41.999Z</time></trkpt><trkpt lat="41.24252582138742" lon="14.09230436929187"><ele>138.0</ele><time>2026-05-02T07:13:42.999Z</time></trkpt><trkpt lat="41.24219138020536" lon="14.092309264608577"><ele>137.0</ele><time>2026-05-02T07:13:43.999Z</time></trkpt><trkpt lat="41.24185905671584" lon="14.092322712272304"><ele>136.0</ele><time>2026-05-02T07:13:44.999Z</time></trkpt><trkpt lat="41.241525237443945" lon="14.092329179249978"><ele>134.5</ele><time>2026-05-02T07:13:45.999Z</time></trkpt><trkpt lat="41.24119110374595" lon="14.092339621178219"><ele>133.0</ele><time>2026-05-02T07:13:46.999Z</time></trkpt><trkpt lat="41.24085604521818" lon="14.092349468910493"><ele>131.0</ele><time>2026-05-02T07:13:47.999Z</time></trkpt><trkpt lat="41.240521109792994" lon="14.092356672655335"><ele>129.0</ele><time>2026-05-02T07:13:48.999Z</time></trkpt><trkpt lat="41.24018775541697" lon="14.092366104004043"><ele>129.0</ele><time>2026-05-02T07:13:49.999Z</time></trkpt><trkpt lat="41.23985396540511" lon="14.092375176357512"><ele>129.0</ele><time>2026-05-02T07:13:50.999Z</time></trkpt><trkpt lat="41.23951994493659" lon="14.09238416974502"><ele>128.0</ele><time>2026-05-02T07:13:51.999Z</time></trkpt><trkpt lat="41.23918519906612" lon="14.092391479684851"><ele>127.0</ele><time>2026-05-02T07:13:52.999Z</time></trkpt><trkpt lat="41.23885003251047" lon="14.092400174183396"><ele>125.0</ele><time>2026-05-02T07:13:53.999Z</time></trkpt><trkpt lat="41.23851508183133" lon="14.092407429733614"><ele>123.0</ele><time>2026-05-02T07:13:54.999Z</time></trkpt><trkpt lat="41.23818058781218" lon="14.092415539822357"><ele>120.0</ele><time>2026-05-02T07:13:55.999Z</time></trkpt><trkpt lat="41.23784424574524" lon="14.092421671436776"><ele>117.0</ele><time>2026-05-02T07:13:56.999Z</time></trkpt><trkpt lat="41.237509615770406" lon="14.092430963399272"><ele>117.5</ele><time>2026-05-02T07:13:57.999Z</time></trkpt><trkpt lat="41.237177037773314" lon="14.092438141233986"><ele>118.0</ele><time>2026-05-02T07:13:58.999Z</time></trkpt><trkpt lat="41.23684474256612" lon="14.09244195212607"><ele>118.0</ele><time>2026-05-02T07:13:59.999Z</time></trkpt><trkpt lat="41.236511517077204" lon="14.092449587537523"><ele>118.0</ele><time>2026-05-02T07:14:00.999Z</time></trkpt><trkpt lat="41.236177792608" lon="14.092461316610972"><ele>116.0</ele><time>2026-05-02T07:14:01.999Z</time></trkpt><trkpt lat="41.235845949489935" lon="14.09247450917754"><ele>114.0</ele><time>2026-05-02T07:14:02.999Z</time></trkpt><trkpt lat="41.23551435041966" lon="14.092488932091635"><ele>113.5</ele><time>2026-05-02T07:14:03.999Z</time></trkpt><trkpt lat="41.23518354786351" lon="14.092515218326476"><ele>113.0</ele><time>2026-05-02T07:14:04.999Z</time></trkpt><trkpt lat="41.23485628463899" lon="14.092557941270952"><ele>112.5</ele><time>2026-05-02T07:14:05.999Z</time></trkpt><trkpt lat="41.234528176493576" lon="14.092603865680319"><ele>112.0</ele><time>2026-05-02T07:14:06.999Z</time></trkpt><trkpt lat="41.234200303311695" lon="14.092658623208443"><ele>110.5</ele><time>2026-05-02T07:14:07.999Z</time></trkpt><trkpt lat="41.23387466197734" lon="14.09272731401274"><ele>109.0</ele><time>2026-05-02T07:14:08.999Z</time></trkpt><trkpt lat="41.23354709977978" lon="14.09280307982451"><ele>109.0</ele><time>2026-05-02T07:14:09.999Z</time></trkpt><trkpt lat="41.233223145024304" lon="14.09289578294158"><ele>109.0</ele><time>2026-05-02T07:14:10.999Z</time></trkpt><trkpt lat="41.2328996135464" lon="14.092999089807398"><ele>107.0</ele><time>2026-05-02T07:14:11.999Z</time></trkpt><trkpt lat="41.23257798613427" lon="14.093112528837347"><ele>105.0</ele><time>2026-05-02T07:14:13Z</time></trkpt><trkpt lat="41.232257005130016" lon="14.093233947089582"><ele>104.0</ele><time>2026-05-02T07:14:14Z</time></trkpt><trkpt lat="41.23193626302888" lon="14.093364031855485"><ele>103.0</ele><time>2026-05-02T07:14:15Z</time></trkpt><trkpt lat="41.23161712758789" lon="14.093497681255915"><ele>104.0</ele><time>2026-05-02T07:14:16Z</time></trkpt><trkpt lat="41.23129852076364" lon="14.093636662069015"><ele>105.0</ele><time>2026-05-02T07:14:17Z</time></trkpt><trkpt lat="41.230980406866486" lon="14.093784351509022"><ele>105.0</ele><time>2026-05-02T07:14:18Z</time></trkpt><trkpt lat="41.230661674651806" lon="14.093927720525043"><ele>105.0</ele><time>2026-05-02T07:14:19Z</time></trkpt><trkpt lat="41.230340685035635" lon="14.094065251293552"><ele>104.0</ele><time>2026-05-02T07:14:20Z</time></trkpt><trkpt lat="41.230022641074605" lon="14.094198226344222"><ele>103.0</ele><time>2026-05-02T07:14:21Z</time></trkpt><trkpt lat="41.22970379470417" lon="14.094330962639663"><ele>101.5</ele><time>2026-05-02T07:14:22Z</time></trkpt><trkpt lat="41.229384101722026" lon="14.09446368249404"><ele>100.0</ele><time>2026-05-02T07:14:23Z</time></trkpt><trkpt lat="41.22906441732205" lon="14.094595810735195"><ele>99.5</ele><time>2026-05-02T07:14:24Z</time></trkpt><trkpt lat="41.228744968671734" lon="14.094728786816551"><ele>99.0</ele><time>2026-05-02T07:14:25Z</time></trkpt><trkpt lat="41.22842562162305" lon="14.094863737060368"><ele>97.5</ele><time>2026-05-02T07:14:26Z</time></trkpt><trkpt lat="41.22810755293747" lon="14.094996200820766"><ele>96.0</ele><time>2026-05-02T07:14:27Z</time></trkpt><trkpt lat="41.22778824507958" lon="14.095128403478444"><ele>96.0</ele><time>2026-05-02T07:14:28Z</time></trkpt><trkpt lat="41.22746857550317" lon="14.095259560890831"><ele>96.0</ele><time>2026-05-02T07:14:29Z</time></trkpt><trkpt lat="41.22715036520027" lon="14.095388974180947"><ele>96.0</ele><time>2026-05-02T07:14:30Z</time></trkpt><trkpt lat="41.22683302697092" lon="14.095519241754744"><ele>96.0</ele><time>2026-05-02T07:14:31Z</time></trkpt><trkpt lat="41.22651533834843" lon="14.09565189152709"><ele>95.0</ele><time>2026-05-02T07:14:32Z</time></trkpt><trkpt lat="41.22619824908162" lon="14.095785095893046"><ele>94.0</ele><time>2026-05-02T07:14:33Z</time></trkpt><trkpt lat="41.22588065597062" lon="14.095918795836495"><ele>93.5</ele><time>2026-05-02T07:14:34Z</time></trkpt><trkpt lat="41.2255648552722" lon="14.096051579938017"><ele>93.0</ele><time>2026-05-02T07:14:35Z</time></trkpt><trkpt lat="41.22524750489306" lon="14.09618425981249"><ele>93.0</ele><time>2026-05-02T07:14:36Z</time></trkpt><trkpt lat="41.22492891332723" lon="14.096318105645228"><ele>93.0</ele><time>2026-05-02T07:14:37Z</time></trkpt><trkpt lat="41.22461069931538" lon="14.096450789663582"><ele>88.0</ele><time>2026-05-02T07:14:38Z</time></trkpt><trkpt lat="41.22429245195096" lon="14.096583601994892"><ele>83.0</ele><time>2026-05-02T07:14:39Z</time></trkpt><trkpt lat="41.223975669914225" lon="14.096714963279789"><ele>76.0</ele><time>2026-05-02T07:14:40Z</time></trkpt><trkpt lat="41.22366008494363" lon="14.096845881084997"><ele>69.0</ele><time>2026-05-02T07:14:41Z</time></trkpt><trkpt lat="41.22334507274073" lon="14.096977807781407"><ele>67.5</ele><time>2026-05-02T07:14:42Z</time></trkpt><trkpt lat="41.22303021583513" lon="14.097111362659417"><ele>66.0</ele><time>2026-05-02T07:14:43Z</time></trkpt><trkpt lat="41.222716698997324" lon="14.09724427452994"><ele>66.0</ele><time>2026-05-02T07:14:44Z</time></trkpt><trkpt lat="41.22240268405134" lon="14.097376069431531"><ele>66.0</ele><time>2026-05-02T07:14:45Z</time></trkpt><trkpt lat="41.22208715682393" lon="14.097509073944329"><ele>75.5</ele><time>2026-05-02T07:14:46Z</time></trkpt><trkpt lat="41.221770813459585" lon="14.097641541341488"><ele>85.0</ele><time>2026-05-02T07:14:47Z</time></trkpt><trkpt lat="41.221457430318324" lon="14.097771794282249"><ele>87.5</ele><time>2026-05-02T07:14:48Z</time></trkpt><trkpt lat="41.22114163805362" lon="14.097905233481926"><ele>90.0</ele><time>2026-05-02T07:14:49Z</time></trkpt><trkpt lat="41.220824865185925" lon="14.0980405803658"><ele>89.0</ele><time>2026-05-02T07:14:50Z</time></trkpt><trkpt lat="41.220505705032586" lon="14.098172356580108"><ele>88.0</ele><time>2026-05-02T07:14:51Z</time></trkpt><trkpt lat="41.220193059552855" lon="14.098320782893426"><ele>88.0</ele><time>2026-05-02T07:14:52Z</time></trkpt><trkpt lat="41.21988229900785" lon="14.098477270045846"><ele>88.0</ele><time>2026-05-02T07:14:53Z</time></trkpt><trkpt lat="41.21958005327317" lon="14.098650788281027"><ele>86.5</ele><time>2026-05-02T07:14:54Z</time></trkpt><trkpt lat="41.21928091630431" lon="14.09883051720724"><ele>85.0</ele><time>2026-05-02T07:14:55Z</time></trkpt><trkpt lat="41.21898489392902" lon="14.09902389414122"><ele>84.0</ele><time>2026-05-02T07:14:56Z</time></trkpt><trkpt lat="41.21869729677163" lon="14.099235189389448"><ele>83.0</ele><time>2026-05-02T07:14:57Z</time></trkpt><trkpt lat="41.218413922111" lon="14.099459066781327"><ele>85.5</ele><time>2026-05-02T07:14:58Z</time></trkpt><trkpt lat="41.21813974079448" lon="14.099702822951183"><ele>88.0</ele><time>2026-05-02T07:14:59Z</time></trkpt><trkpt lat="41.217872773778886" lon="14.099956260525184"><ele>89.5</ele><time>2026-05-02T07:15:00Z</time></trkpt><trkpt lat="41.217613705025734" lon="14.100222780567911"><ele>91.0</ele><time>2026-05-02T07:15:01Z</time></trkpt><trkpt lat="41.21736070288842" lon="14.100502101981595"><ele>94.0</ele><time>2026-05-02T07:15:02Z</time></trkpt><trkpt lat="41.217114697627956" lon="14.100793349253053"><ele>97.0</ele><time>2026-05-02T07:15:03Z</time></trkpt><trkpt lat="41.21687520585171" lon="14.101096259490582"><ele>97.0</ele><time>2026-05-02T07:15:04Z</time></trkpt><trkpt lat="41.21664255628693" lon="14.10140971490754"><ele>97.0</ele><time>2026-05-02T07:15:05Z</time></trkpt><trkpt lat="41.21642077974983" lon="14.101736361044047"><ele>98.5</ele><time>2026-05-02T07:15:06Z</time></trkpt><trkpt lat="41.21620825761263" lon="14.102072305097083"><ele>100.0</ele><time>2026-05-02T07:15:07Z</time></trkpt><trkpt lat="41.2160052477733" lon="14.102420230553813"><ele>99.5</ele><time>2026-05-02T07:15:08Z</time></trkpt><trkpt lat="41.21581192211482" lon="14.102778205998073"><ele>99.0</ele><time>2026-05-02T07:15:09Z</time></trkpt><trkpt lat="41.21562408335601" lon="14.103139952262435"><ele>100.0</ele><time>2026-05-02T07:15:10Z</time></trkpt><trkpt lat="41.215441906245786" lon="14.10350687287687"><ele>101.0</ele><time>2026-05-02T07:15:11Z</time></trkpt><trkpt lat="41.21526547637289" lon="14.103880801214027"><ele>99.0</ele><time>2026-05-02T07:15:12Z</time></trkpt><trkpt lat="41.215083725887055" lon="14.104251041933905"><ele>97.0</ele><time>2026-05-02T07:15:13Z</time></trkpt><trkpt lat="41.21490627152326" lon="14.104623420615662"><ele>99.5</ele><time>2026-05-02T07:15:14Z</time></trkpt><trkpt lat="41.2147278821169" lon="14.104995850966745"><ele>102.0</ele><time>2026-05-02T07:15:15Z</time></trkpt><trkpt lat="41.21455054392101" lon="14.105369002101963"><ele>103.0</ele><time>2026-05-02T07:15:16Z</time></trkpt><trkpt lat="41.21437861351124" lon="14.105748074149389"><ele>104.0</ele><time>2026-05-02T07:15:17Z</time></trkpt><trkpt lat="41.21420387092567" lon="14.106125520825401"><ele>104.0</ele><time>2026-05-02T07:15:18Z</time></trkpt><trkpt lat="41.21403104052567" lon="14.1065052613057"><ele>104.0</ele><time>2026-05-02T07:15:19Z</time></trkpt><trkpt lat="41.21386263016563" lon="14.106886612131168"><ele>106.5</ele><time>2026-05-02T07:15:20Z</time></trkpt><trkpt lat="41.21368768989921" lon="14.107264595837162"><ele>109.0</ele><time>2026-05-02T07:15:21Z</time></trkpt><trkpt lat="41.213514274427354" lon="14.107643143768021"><ele>110.0</ele><time>2026-05-02T07:15:22Z</time></trkpt><trkpt lat="41.21333629313564" lon="14.108019335498739"><ele>111.0</ele><time>2026-05-02T07:15:23Z</time></trkpt><trkpt lat="41.21316282946201" lon="14.108398592429685"><ele>111.5</ele><time>2026-05-02T07:15:24Z</time></trkpt><trkpt lat="41.212987656785586" lon="14.108774156586978"><ele>112.0</ele><time>2026-05-02T07:15:25Z</time></trkpt><trkpt lat="41.21281437590177" lon="14.10915106521569"><ele>112.0</ele><time>2026-05-02T07:15:26Z</time></trkpt><trkpt lat="41.21264013228286" lon="14.109528544794221"><ele>112.0</ele><time>2026-05-02T07:15:27Z</time></trkpt><trkpt lat="41.212463342008746" lon="14.109904932614795"><ele>110.5</ele><time>2026-05-02T07:15:28Z</time></trkpt><trkpt lat="41.212288746712105" lon="14.110281675135434"><ele>109.0</ele><time>2026-05-02T07:15:29Z</time></trkpt><trkpt lat="41.21211569499129" lon="14.110658098220853"><ele>109.0</ele><time>2026-05-02T07:15:30Z</time></trkpt><trkpt lat="41.21194038737742" lon="14.111034430604986"><ele>109.0</ele><time>2026-05-02T07:15:31Z</time></trkpt><trkpt lat="41.211764371671876" lon="14.111410102079821"><ele>109.0</ele><time>2026-05-02T07:15:32Z</time></trkpt><trkpt lat="41.21158721963184" lon="14.111787608571616"><ele>109.0</ele><time>2026-05-02T07:15:33Z</time></trkpt><trkpt lat="41.21140914685054" lon="14.112164101387068"><ele>109.0</ele><time>2026-05-02T07:15:34Z</time></trkpt><trkpt lat="41.21123286400083" lon="14.112541125425802"><ele>109.0</ele><time>2026-05-02T07:15:35Z</time></trkpt><trkpt lat="41.21105857537413" lon="14.112919984961046"><ele>108.5</ele><time>2026-05-02T07:15:36Z</time></trkpt><trkpt lat="41.21088527187453" lon="14.113299452886215"><ele>108.0</ele><time>2026-05-02T07:15:37Z</time></trkpt><trkpt lat="41.21070965797117" lon="14.11367873485299"><ele>112.0</ele><time>2026-05-02T07:15:38Z</time></trkpt><trkpt lat="41.210532566791315" lon="14.114056874364334"><ele>116.0</ele><time>2026-05-02T07:15:39Z</time></trkpt><trkpt lat="41.21035518102048" lon="14.114435209537017"><ele>116.0</ele><time>2026-05-02T07:15:40Z</time></trkpt><trkpt lat="41.2101751563286" lon="14.114810536260332"><ele>116.0</ele><time>2026-05-02T07:15:41Z</time></trkpt><trkpt lat="41.21000181408246" lon="14.115192300879304"><ele>116.5</ele><time>2026-05-02T07:15:42Z</time></trkpt><trkpt lat="41.2098257004009" lon="14.115571173063117"><ele>117.0</ele><time>2026-05-02T07:15:43Z</time></trkpt><trkpt lat="41.20964727063576" lon="14.115946829955913"><ele>117.0</ele><time>2026-05-02T07:15:44Z</time></trkpt><trkpt lat="41.20947430477815" lon="14.116328384640852"><ele>117.0</ele><time>2026-05-02T07:15:45Z</time></trkpt><trkpt lat="41.209299134433664" lon="14.116706031678186"><ele>115.0</ele><time>2026-05-02T07:15:46Z</time></trkpt><trkpt lat="41.20912494385848" lon="14.117083863000062"><ele>113.0</ele><time>2026-05-02T07:15:47Z</time></trkpt><trkpt lat="41.20895056805136" lon="14.117462428347622"><ele>112.5</ele><time>2026-05-02T07:15:48Z</time></trkpt><trkpt lat="41.20877706795391" lon="14.117840466260224"><ele>112.0</ele><time>2026-05-02T07:15:48.999Z</time></trkpt><trkpt lat="41.20860229552686" lon="14.11821978373824"><ele>109.5</ele><time>2026-05-02T07:15:49.999Z</time></trkpt><trkpt lat="41.20842737950643" lon="14.118598609905607"><ele>107.0</ele><time>2026-05-02T07:15:50.999Z</time></trkpt><trkpt lat="41.20825143125852" lon="14.118976360041906"><ele>107.0</ele><time>2026-05-02T07:15:51.999Z</time></trkpt><trkpt lat="41.208078010134166" lon="14.119354749573581"><ele>107.0</ele><time>2026-05-02T07:15:52.999Z</time></trkpt><trkpt lat="41.20790396624615" lon="14.119727311177218"><ele>104.5</ele><time>2026-05-02T07:15:53.999Z</time></trkpt><trkpt lat="41.20773060204077" lon="14.12009557570281"><ele>102.0</ele><time>2026-05-02T07:15:54.999Z</time></trkpt><trkpt lat="41.20756447980937" lon="14.120468277434197"><ele>103.0</ele><time>2026-05-02T07:15:55.999Z</time></trkpt><trkpt lat="41.20740298501687" lon="14.120835573235516"><ele>104.0</ele><time>2026-05-02T07:15:56.999Z</time></trkpt><trkpt lat="41.207236900243714" lon="14.121207074235336"><ele>103.0</ele><time>2026-05-02T07:15:57.999Z</time></trkpt><trkpt lat="41.20706719393178" lon="14.121582667215625"><ele>102.0</ele><time>2026-05-02T07:15:58.999Z</time></trkpt><trkpt lat="41.206896358358456" lon="14.121959098073184"><ele>102.0</ele><time>2026-05-02T07:15:59.999Z</time></trkpt><trkpt lat="41.2067250283115" lon="14.122335080463685"><ele>102.0</ele><time>2026-05-02T07:16:00.999Z</time></trkpt><trkpt lat="41.20655292028025" lon="14.122712564048074"><ele>101.5</ele><time>2026-05-02T07:16:01.999Z</time></trkpt><trkpt lat="41.20638057749803" lon="14.123090393065727"><ele>101.0</ele><time>2026-05-02T07:16:02.999Z</time></trkpt><trkpt lat="41.206206083845494" lon="14.123464772420752"><ele>101.0</ele><time>2026-05-02T07:16:03.999Z</time></trkpt><trkpt lat="41.206032085986415" lon="14.123839354368979"><ele>101.0</ele><time>2026-05-02T07:16:04.999Z</time></trkpt><trkpt lat="41.205860252381214" lon="14.124214445490814"><ele>100.0</ele><time>2026-05-02T07:16:05.999Z</time></trkpt><trkpt lat="41.20568824525187" lon="14.124593001141484"><ele>99.0</ele><time>2026-05-02T07:16:06.999Z</time></trkpt><trkpt lat="41.20551548625459" lon="14.124967361142277"><ele>97.5</ele><time>2026-05-02T07:16:07.999Z</time></trkpt><trkpt lat="41.205338883027906" lon="14.125339434825738"><ele>96.0</ele><time>2026-05-02T07:16:08.999Z</time></trkpt><trkpt lat="41.20516251479613" lon="14.125713125559898"><ele>95.5</ele><time>2026-05-02T07:16:09.999Z</time></trkpt><trkpt lat="41.20498724576893" lon="14.12608876905125"><ele>95.0</ele><time>2026-05-02T07:16:10.999Z</time></trkpt><trkpt lat="41.20481201955425" lon="14.126464345316766"><ele>95.0</ele><time>2026-05-02T07:16:11.999Z</time></trkpt><trkpt lat="41.20463507744463" lon="14.12683933542311"><ele>95.0</ele><time>2026-05-02T07:16:12.999Z</time></trkpt><trkpt lat="41.20445618449079" lon="14.12721362185013"><ele>95.0</ele><time>2026-05-02T07:16:13.999Z</time></trkpt><trkpt lat="41.20427852428416" lon="14.127586812304854"><ele>95.0</ele><time>2026-05-02T07:16:14.999Z</time></trkpt><trkpt lat="41.204099357022045" lon="14.12796009837403"><ele>94.5</ele><time>2026-05-02T07:16:15.999Z</time></trkpt><trkpt lat="41.20392012255027" lon="14.128331847554207"><ele>94.0</ele><time>2026-05-02T07:16:16.999Z</time></trkpt><trkpt lat="41.2037402175285" lon="14.12870584262891"><ele>92.0</ele><time>2026-05-02T07:16:17.999Z</time></trkpt><trkpt lat="41.20356046932258" lon="14.129082585424467"><ele>90.0</ele><time>2026-05-02T07:16:19Z</time></trkpt><trkpt lat="41.203381467382435" lon="14.129458632512389"><ele>90.0</ele><time>2026-05-02T07:16:20Z</time></trkpt><trkpt lat="41.203204675699496" lon="14.129835423135711"><ele>90.0</ele><time>2026-05-02T07:16:21Z</time></trkpt><trkpt lat="41.203029502074884" lon="14.130211855422035"><ele>89.5</ele><time>2026-05-02T07:16:22Z</time></trkpt><trkpt lat="41.202854241116306" lon="14.13058797747686"><ele>89.0</ele><time>2026-05-02T07:16:23Z</time></trkpt><trkpt lat="41.202679152620334" lon="14.130963415926994"><ele>86.5</ele><time>2026-05-02T07:16:24Z</time></trkpt><trkpt lat="41.20250646396548" lon="14.13133931676976"><ele>84.0</ele><time>2026-05-02T07:16:25Z</time></trkpt><trkpt lat="41.202334625782775" lon="14.131713865681085"><ele>80.0</ele><time>2026-05-02T07:16:26Z</time></trkpt><trkpt lat="41.2021616479992" lon="14.13208703837907"><ele>76.0</ele><time>2026-05-02T07:16:27Z</time></trkpt><trkpt lat="41.201990223944264" lon="14.132462991812218"><ele>76.0</ele><time>2026-05-02T07:16:28Z</time></trkpt><trkpt lat="41.20181777753941" lon="14.132838608656058"><ele>76.0</ele><time>2026-05-02T07:16:29Z</time></trkpt><trkpt lat="41.2016448636285" lon="14.133214196204603"><ele>80.0</ele><time>2026-05-02T07:16:30Z</time></trkpt><trkpt lat="41.20147021611285" lon="14.133587385148516"><ele>84.0</ele><time>2026-05-02T07:16:31Z</time></trkpt><trkpt lat="41.201295979076605" lon="14.13396392381376"><ele>84.0</ele><time>2026-05-02T07:16:32Z</time></trkpt><trkpt lat="41.20112277883603" lon="14.134341155628825"><ele>84.0</ele><time>2026-05-02T07:16:33Z</time></trkpt><trkpt lat="41.2009469261327" lon="14.134716803372353"><ele>85.0</ele><time>2026-05-02T07:16:34Z</time></trkpt><trkpt lat="41.20077196426668" lon="14.135093580532413"><ele>86.0</ele><time>2026-05-02T07:16:35Z</time></trkpt><trkpt lat="41.20059884225642" lon="14.135470262632941"><ele>86.5</ele><time>2026-05-02T07:16:36Z</time></trkpt><trkpt lat="41.200425991852896" lon="14.135846142740212"><ele>87.0</ele><time>2026-05-02T07:16:37Z</time></trkpt><trkpt lat="41.200250682694495" lon="14.13622200929895"><ele>85.0</ele><time>2026-05-02T07:16:38Z</time></trkpt><trkpt lat="41.200075787728885" lon="14.136595711328832"><ele>83.0</ele><time>2026-05-02T07:16:39Z</time></trkpt><trkpt lat="41.19990091454384" lon="14.136970101449158"><ele>75.5</ele><time>2026-05-02T07:16:40Z</time></trkpt><trkpt lat="41.19972423621122" lon="14.137343210942834"><ele>68.0</ele><time>2026-05-02T07:16:41Z</time></trkpt><trkpt lat="41.19954881568586" lon="14.137717822514485"><ele>68.0</ele><time>2026-05-02T07:16:42Z</time></trkpt><trkpt lat="41.19937335728693" lon="14.138092341440348"><ele>68.0</ele><time>2026-05-02T07:16:43Z</time></trkpt><trkpt lat="41.19920033189391" lon="14.138466289724871"><ele>72.5</ele><time>2026-05-02T07:16:44Z</time></trkpt><trkpt lat="41.199026873477685" lon="14.138838425569633"><ele>77.0</ele><time>2026-05-02T07:16:45Z</time></trkpt><trkpt lat="41.19885401464409" lon="14.139214086250327"><ele>81.0</ele><time>2026-05-02T07:16:46Z</time></trkpt><trkpt lat="41.198679197330705" lon="14.139587998545114"><ele>85.0</ele><time>2026-05-02T07:16:47Z</time></trkpt><trkpt lat="41.19850515734751" lon="14.139961782302391"><ele>85.5</ele><time>2026-05-02T07:16:48Z</time></trkpt><trkpt lat="41.19832868884365" lon="14.140333304385631"><ele>86.0</ele><time>2026-05-02T07:16:49Z</time></trkpt><trkpt lat="41.19815186085198" lon="14.140705878718359"><ele>85.5</ele><time>2026-05-02T07:16:50Z</time></trkpt><trkpt lat="41.19797244127297" lon="14.141076802875576"><ele>85.0</ele><time>2026-05-02T07:16:51Z</time></trkpt><trkpt lat="41.1977959841938" lon="14.141449608401565"><ele>84.5</ele><time>2026-05-02T07:16:52Z</time></trkpt><trkpt lat="41.197615965504504" lon="14.141821474271781"><ele>84.0</ele><time>2026-05-02T07:16:53Z</time></trkpt><trkpt lat="41.19744381150928" lon="14.142198331864329"><ele>84.0</ele><time>2026-05-02T07:16:54Z</time></trkpt><trkpt lat="41.1972711267248" lon="14.142575532639105"><ele>84.0</ele><time>2026-05-02T07:16:55Z</time></trkpt><trkpt lat="41.19709842574366" lon="14.142955812650058"><ele>83.5</ele><time>2026-05-02T07:16:56Z</time></trkpt><trkpt lat="41.19691897791396" lon="14.143323960362121"><ele>83.0</ele><time>2026-05-02T07:16:57Z</time></trkpt><trkpt lat="41.19674434035403" lon="14.14370040964962"><ele>82.5</ele><time>2026-05-02T07:16:58Z</time></trkpt><trkpt lat="41.196565910221224" lon="14.144076573185725"><ele>82.0</ele><time>2026-05-02T07:16:59Z</time></trkpt><trkpt lat="41.19639245598688" lon="14.14445608729798"><ele>82.0</ele><time>2026-05-02T07:17:00Z</time></trkpt><trkpt lat="41.1962223082757" lon="14.144838898648537"><ele>82.0</ele><time>2026-05-02T07:17:01Z</time></trkpt><trkpt lat="41.19605008228454" lon="14.14522043123313"><ele>82.0</ele><time>2026-05-02T07:17:02Z</time></trkpt><trkpt lat="41.1958738374145" lon="14.14559957957795"><ele>82.0</ele><time>2026-05-02T07:17:03Z</time></trkpt><trkpt lat="41.19569461056146" lon="14.145979396923389"><ele>82.0</ele><time>2026-05-02T07:17:04Z</time></trkpt><trkpt lat="41.19551181063148" lon="14.14635554643852"><ele>82.0</ele><time>2026-05-02T07:17:05Z</time></trkpt><trkpt lat="41.19533921804185" lon="14.146729726037705"><ele>81.5</ele><time>2026-05-02T07:17:06Z</time></trkpt><trkpt lat="41.19516458533618" lon="14.147107451099032"><ele>81.0</ele><time>2026-05-02T07:17:07Z</time></trkpt><trkpt lat="41.19498966191054" lon="14.147484606865477"><ele>80.0</ele><time>2026-05-02T07:17:08Z</time></trkpt><trkpt lat="41.194815263244024" lon="14.14785984255682"><ele>79.0</ele><time>2026-05-02T07:17:09Z</time></trkpt><trkpt lat="41.194639159402634" lon="14.14823849154417"><ele>79.0</ele><time>2026-05-02T07:17:10Z</time></trkpt><trkpt lat="41.19446218923323" lon="14.14861529157663"><ele>79.0</ele><time>2026-05-02T07:17:11Z</time></trkpt><trkpt lat="41.194282236689396" lon="14.148989936679499"><ele>79.5</ele><time>2026-05-02T07:17:12Z</time></trkpt><trkpt lat="41.194099783339084" lon="14.149360713237545"><ele>80.0</ele><time>2026-05-02T07:17:13Z</time></trkpt><trkpt lat="41.19390882534516" lon="14.149723323824485"><ele>78.5</ele><time>2026-05-02T07:17:14Z</time></trkpt><trkpt lat="41.19370779260409" lon="14.150070856928508"><ele>77.0</ele><time>2026-05-02T07:17:15Z</time></trkpt><trkpt lat="41.19349935879618" lon="14.150411119586268"><ele>77.0</ele><time>2026-05-02T07:17:16Z</time></trkpt><trkpt lat="41.193286196831764" lon="14.150750228570942"><ele>77.0</ele><time>2026-05-02T07:17:17Z</time></trkpt><trkpt lat="41.19307034094539" lon="14.151086292223578"><ele>77.5</ele><time>2026-05-02T07:17:18Z</time></trkpt><trkpt lat="41.19284639842593" lon="14.151413010508344"><ele>78.0</ele><time>2026-05-02T07:17:19Z</time></trkpt><trkpt lat="41.1926150922872" lon="14.151732699329541"><ele>78.5</ele><time>2026-05-02T07:17:20Z</time></trkpt><trkpt lat="41.19237852063875" lon="14.152045497951141"><ele>79.0</ele><time>2026-05-02T07:17:21Z</time></trkpt><trkpt lat="41.192137315748084" lon="14.152352407744404"><ele>78.5</ele><time>2026-05-02T07:17:22Z</time></trkpt><trkpt lat="41.19188945393718" lon="14.1526467035819"><ele>78.0</ele><time>2026-05-02T07:17:23Z</time></trkpt><trkpt lat="41.19163436404689" lon="14.152932836648834"><ele>77.0</ele><time>2026-05-02T07:17:24Z</time></trkpt><trkpt lat="41.19137317874575" lon="14.153211469956718"><ele>76.0</ele><time>2026-05-02T07:17:25Z</time></trkpt><trkpt lat="41.191108238074705" lon="14.153485938989139"><ele>76.0</ele><time>2026-05-02T07:17:26Z</time></trkpt><trkpt lat="41.19083776144121" lon="14.153752438713928"><ele>76.0</ele><time>2026-05-02T07:17:27Z</time></trkpt><trkpt lat="41.19056236236659" lon="14.154010365168544"><ele>74.5</ele><time>2026-05-02T07:17:28Z</time></trkpt><trkpt lat="41.19028557088457" lon="14.154263267680953"><ele>73.0</ele><time>2026-05-02T07:17:29Z</time></trkpt><trkpt lat="41.1900088563091" lon="14.154516445518341"><ele>72.0</ele><time>2026-05-02T07:17:30Z</time></trkpt><trkpt lat="41.18973317163235" lon="14.154772017776954"><ele>71.0</ele><time>2026-05-02T07:17:31Z</time></trkpt><trkpt lat="41.18945787217371" lon="14.1550286088239"><ele>71.0</ele><time>2026-05-02T07:17:32Z</time></trkpt><trkpt lat="41.189180740343744" lon="14.155282952278245"><ele>71.0</ele><time>2026-05-02T07:17:33Z</time></trkpt><trkpt lat="41.18890726873512" lon="14.155532536468892"><ele>70.0</ele><time>2026-05-02T07:17:34Z</time></trkpt><trkpt lat="41.18863712727749" lon="14.155781579737841"><ele>69.0</ele><time>2026-05-02T07:17:35Z</time></trkpt><trkpt lat="41.188367732368555" lon="14.15603003321057"><ele>69.0</ele><time>2026-05-02T07:17:36Z</time></trkpt><trkpt lat="41.18809643868272" lon="14.156282566581796"><ele>69.0</ele><time>2026-05-02T07:17:37Z</time></trkpt><trkpt lat="41.18782466451014" lon="14.156537141756058"><ele>70.5</ele><time>2026-05-02T07:17:38Z</time></trkpt><trkpt lat="41.18755236086893" lon="14.15679185780167"><ele>72.0</ele><time>2026-05-02T07:17:39Z</time></trkpt><trkpt lat="41.187278627286936" lon="14.157047432295967"><ele>72.0</ele><time>2026-05-02T07:17:40Z</time></trkpt><trkpt lat="41.18700627515427" lon="14.15730400825083"><ele>72.0</ele><time>2026-05-02T07:17:41Z</time></trkpt><trkpt lat="41.186733561096325" lon="14.157561752694539"><ele>71.0</ele><time>2026-05-02T07:17:42Z</time></trkpt><trkpt lat="41.186460209825455" lon="14.157819534357603"><ele>70.0</ele><time>2026-05-02T07:17:43Z</time></trkpt><trkpt lat="41.18618722437862" lon="14.158074777504662"><ele>69.5</ele><time>2026-05-02T07:17:44Z</time></trkpt><trkpt lat="41.18591359782853" lon="14.15832886265193"><ele>69.0</ele><time>2026-05-02T07:17:45Z</time></trkpt><trkpt lat="41.185639712434075" lon="14.15858206852154"><ele>68.0</ele><time>2026-05-02T07:17:46Z</time></trkpt><trkpt lat="41.185366966596604" lon="14.158833541467715"><ele>67.0</ele><time>2026-05-02T07:17:47Z</time></trkpt><trkpt lat="41.18509510206031" lon="14.159084097220969"><ele>65.5</ele><time>2026-05-02T07:17:48Z</time></trkpt><trkpt lat="41.1848221637833" lon="14.159334925827249"><ele>64.0</ele><time>2026-05-02T07:17:49Z</time></trkpt><trkpt lat="41.184551004844664" lon="14.15958474637952"><ele>64.0</ele><time>2026-05-02T07:17:50Z</time></trkpt><trkpt lat="41.184279075679626" lon="14.15983570039201"><ele>64.0</ele><time>2026-05-02T07:17:51Z</time></trkpt><trkpt lat="41.184005791640246" lon="14.160088133355185"><ele>63.5</ele><time>2026-05-02T07:17:52Z</time></trkpt><trkpt lat="41.18373095121929" lon="14.160339241815208"><ele>63.0</ele><time>2026-05-02T07:17:53Z</time></trkpt><trkpt lat="41.18345640225225" lon="14.160590269157499"><ele>63.5</ele><time>2026-05-02T07:17:54Z</time></trkpt><trkpt lat="41.18318238970362" lon="14.160841412155817"><ele>64.0</ele><time>2026-05-02T07:17:55Z</time></trkpt><trkpt lat="41.18290786006623" lon="14.16109306745396"><ele>63.5</ele><time>2026-05-02T07:17:56Z</time></trkpt><trkpt lat="41.182633530360164" lon="14.161344917449204"><ele>63.0</ele><time>2026-05-02T07:17:57Z</time></trkpt><trkpt lat="41.18235849831869" lon="14.161597094665364"><ele>61.0</ele><time>2026-05-02T07:17:58Z</time></trkpt><trkpt lat="41.18208370089686" lon="14.161848383968284"><ele>59.0</ele><time>2026-05-02T07:17:59Z</time></trkpt><trkpt lat="41.18180841784592" lon="14.162099756625775"><ele>59.0</ele><time>2026-05-02T07:18:00Z</time></trkpt><trkpt lat="41.181533600939396" lon="14.162350605625427"><ele>59.0</ele><time>2026-05-02T07:18:00.999Z</time></trkpt><trkpt lat="41.1812570669913" lon="14.162601342540956"><ele>59.0</ele><time>2026-05-02T07:18:01.999Z</time></trkpt><trkpt lat="41.180980296826306" lon="14.162851129018796"><ele>59.0</ele><time>2026-05-02T07:18:02.999Z</time></trkpt><trkpt lat="41.18070410430166" lon="14.163099581878427"><ele>58.5</ele><time>2026-05-02T07:18:03.999Z</time></trkpt><trkpt lat="41.180428023716985" lon="14.163349464958628"><ele>58.0</ele><time>2026-05-02T07:18:04.999Z</time></trkpt><trkpt lat="41.180153165500464" lon="14.163597977439762"><ele>58.0</ele><time>2026-05-02T07:18:05.999Z</time></trkpt><trkpt lat="41.179877270230804" lon="14.163846342060243"><ele>58.0</ele><time>2026-05-02T07:18:06.999Z</time></trkpt><trkpt lat="41.17960226867311" lon="14.164096085519574"><ele>57.0</ele><time>2026-05-02T07:18:07.999Z</time></trkpt><trkpt lat="41.17932661800389" lon="14.164349002767345"><ele>56.0</ele><time>2026-05-02T07:18:08.999Z</time></trkpt><trkpt lat="41.17905211542515" lon="14.164602266381358"><ele>56.0</ele><time>2026-05-02T07:18:09.999Z</time></trkpt><trkpt lat="41.17877727884145" lon="14.164854998218049"><ele>56.0</ele><time>2026-05-02T07:18:10.999Z</time></trkpt><trkpt lat="41.17850262191981" lon="14.165107267319016"><ele>56.0</ele><time>2026-05-02T07:18:11.999Z</time></trkpt><trkpt lat="41.1782283213641" lon="14.165358916447323"><ele>56.0</ele><time>2026-05-02T07:18:12.999Z</time></trkpt><trkpt lat="41.17795341165898" lon="14.165608897326823"><ele>55.5</ele><time>2026-05-02T07:18:13.999Z</time></trkpt><trkpt lat="41.17767825339042" lon="14.16585708152193"><ele>55.0</ele><time>2026-05-02T07:18:14.999Z</time></trkpt><trkpt lat="41.17740370361552" lon="14.166106351288942"><ele>54.5</ele><time>2026-05-02T07:18:15.999Z</time></trkpt><trkpt lat="41.177129089021676" lon="14.166355391937593"><ele>54.0</ele><time>2026-05-02T07:18:16.999Z</time></trkpt><trkpt lat="41.17685469557492" lon="14.166606756601016"><ele>54.0</ele><time>2026-05-02T07:18:17.999Z</time></trkpt><trkpt lat="41.176581377000375" lon="14.166857555348646"><ele>54.0</ele><time>2026-05-02T07:18:18.999Z</time></trkpt><trkpt lat="41.17630814261392" lon="14.167109834801982"><ele>54.0</ele><time>2026-05-02T07:18:19.999Z</time></trkpt><trkpt lat="41.17603533536857" lon="14.167360464034605"><ele>54.0</ele><time>2026-05-02T07:18:20.999Z</time></trkpt><trkpt lat="41.17576221218834" lon="14.167610369023821"><ele>53.5</ele><time>2026-05-02T07:18:21.999Z</time></trkpt><trkpt lat="41.17548941144676" lon="14.167861627011458"><ele>53.0</ele><time>2026-05-02T07:18:22.999Z</time></trkpt><trkpt lat="41.17521684678965" lon="14.168113610596516"><ele>52.5</ele><time>2026-05-02T07:18:23.999Z</time></trkpt><trkpt lat="41.17494474027831" lon="14.168364497409208"><ele>52.0</ele><time>2026-05-02T07:18:25Z</time></trkpt><trkpt lat="41.174673116504415" lon="14.16861514247954"><ele>52.0</ele><time>2026-05-02T07:18:26Z</time></trkpt><trkpt lat="41.17440158051676" lon="14.168866886018616"><ele>52.0</ele><time>2026-05-02T07:18:27Z</time></trkpt><trkpt lat="41.174128647197904" lon="14.169120096328843"><ele>53.0</ele><time>2026-05-02T07:18:28Z</time></trkpt><trkpt lat="41.173856267234584" lon="14.169372076652014"><ele>54.0</ele><time>2026-05-02T07:18:29Z</time></trkpt><trkpt lat="41.173582174780734" lon="14.169625301391033"><ele>54.0</ele><time>2026-05-02T07:18:30Z</time></trkpt><trkpt lat="41.17330767440991" lon="14.169875972984187"><ele>54.0</ele><time>2026-05-02T07:18:31Z</time></trkpt><trkpt lat="41.173032397732236" lon="14.170128196596586"><ele>54.0</ele><time>2026-05-02T07:18:32Z</time></trkpt><trkpt lat="41.172756445217885" lon="14.170381346479239"><ele>54.0</ele><time>2026-05-02T07:18:33Z</time></trkpt><trkpt lat="41.17248177274559" lon="14.170634172472159"><ele>53.5</ele><time>2026-05-02T07:18:34Z</time></trkpt><trkpt lat="41.17220836351986" lon="14.170887186344592"><ele>53.0</ele><time>2026-05-02T07:18:35Z</time></trkpt><trkpt lat="41.17193425918306" lon="14.171141403896279"><ele>53.0</ele><time>2026-05-02T07:18:36Z</time></trkpt><trkpt lat="41.17166008144068" lon="14.171396340004039"><ele>53.0</ele><time>2026-05-02T07:18:37Z</time></trkpt><trkpt lat="41.17138616933937" lon="14.171651520877854"><ele>51.5</ele><time>2026-05-02T07:18:38Z</time></trkpt><trkpt lat="41.17111206491871" lon="14.17190487932157"><ele>50.0</ele><time>2026-05-02T07:18:39Z</time></trkpt><trkpt lat="41.170836957130945" lon="14.172157776886166"><ele>50.5</ele><time>2026-05-02T07:18:40Z</time></trkpt><trkpt lat="41.17056270718726" lon="14.172410683434705"><ele>51.0</ele><time>2026-05-02T07:18:41Z</time></trkpt><trkpt lat="41.170287432048056" lon="14.17266464874795"><ele>51.0</ele><time>2026-05-02T07:18:42Z</time></trkpt><trkpt lat="41.170011749762566" lon="14.17291765053153"><ele>51.0</ele><time>2026-05-02T07:18:43Z</time></trkpt><trkpt lat="41.169735473932896" lon="14.173171241272252"><ele>50.5</ele><time>2026-05-02T07:18:44Z</time></trkpt><trkpt lat="41.16946240526987" lon="14.173424810435035"><ele>50.0</ele><time>2026-05-02T07:18:45Z</time></trkpt><trkpt lat="41.16918682289523" lon="14.17367846195762"><ele>49.5</ele><time>2026-05-02T07:18:46Z</time></trkpt><trkpt lat="41.16891014581014" lon="14.173929499111726"><ele>49.0</ele><time>2026-05-02T07:18:47Z</time></trkpt><trkpt lat="41.16863513857265" lon="14.174183516321348"><ele>49.0</ele><time>2026-05-02T07:18:48Z</time></trkpt><trkpt lat="41.168359044523164" lon="14.174435740218389"><ele>49.0</ele><time>2026-05-02T07:18:49Z</time></trkpt><trkpt lat="41.16808328535988" lon="14.17468981232131"><ele>49.0</ele><time>2026-05-02T07:18:50Z</time></trkpt><trkpt lat="41.16780911122913" lon="14.174945396734714"><ele>49.0</ele><time>2026-05-02T07:18:51Z</time></trkpt><trkpt lat="41.16753367479233" lon="14.175196763599956"><ele>48.5</ele><time>2026-05-02T07:18:52Z</time></trkpt><trkpt lat="41.16725673909662" lon="14.175445248364527"><ele>48.0</ele><time>2026-05-02T07:18:53Z</time></trkpt><trkpt lat="41.16698148124322" lon="14.17569377072612"><ele>48.0</ele><time>2026-05-02T07:18:54Z</time></trkpt><trkpt lat="41.16670797563175" lon="14.17594573616969"><ele>48.0</ele><time>2026-05-02T07:18:55Z</time></trkpt><trkpt lat="41.16643318149004" lon="14.17619462298047"><ele>48.5</ele><time>2026-05-02T07:18:56Z</time></trkpt><trkpt lat="41.16615748633482" lon="14.17644242104825"><ele>49.0</ele><time>2026-05-02T07:18:57Z</time></trkpt><trkpt lat="41.165883068044636" lon="14.17669244393913"><ele>49.0</ele><time>2026-05-02T07:18:58Z</time></trkpt><trkpt lat="41.16560929450841" lon="14.176945312784"><ele>49.0</ele><time>2026-05-02T07:18:59Z</time></trkpt><trkpt lat="41.16533534960123" lon="14.177195824298213"><ele>48.5</ele><time>2026-05-02T07:19:00Z</time></trkpt><trkpt lat="41.16506092584229" lon="14.177447115830368"><ele>48.0</ele><time>2026-05-02T07:19:01Z</time></trkpt><trkpt lat="41.164788003662544" lon="14.177701418998948"><ele>47.5</ele><time>2026-05-02T07:19:02Z</time></trkpt><trkpt lat="41.16451546837812" lon="14.177955643600653"><ele>47.0</ele><time>2026-05-02T07:19:03Z</time></trkpt><trkpt lat="41.1642407631646" lon="14.178204632483315"><ele>49.5</ele><time>2026-05-02T07:19:04Z</time></trkpt><trkpt lat="41.163968475064635" lon="14.178457421924028"><ele>52.0</ele><time>2026-05-02T07:19:05Z</time></trkpt><trkpt lat="41.163694383946314" lon="14.178708069444784"><ele>52.0</ele><time>2026-05-02T07:19:06Z</time></trkpt><trkpt lat="41.16342231732034" lon="14.17895890401238"><ele>52.0</ele><time>2026-05-02T07:19:07Z</time></trkpt><trkpt lat="41.16314667939516" lon="14.179206860907074"><ele>49.0</ele><time>2026-05-02T07:19:08Z</time></trkpt><trkpt lat="41.16287226275309" lon="14.179458055395049"><ele>46.0</ele><time>2026-05-02T07:19:09Z</time></trkpt><trkpt lat="41.16259936320125" lon="14.179710601236215"><ele>46.0</ele><time>2026-05-02T07:19:10Z</time></trkpt><trkpt lat="41.16232729265868" lon="14.179959840548893"><ele>46.0</ele><time>2026-05-02T07:19:11Z</time></trkpt><trkpt lat="41.16205489448223" lon="14.18021256806633"><ele>46.0</ele><time>2026-05-02T07:19:12Z</time></trkpt><trkpt lat="41.16178241927513" lon="14.180464511889106"><ele>46.0</ele><time>2026-05-02T07:19:13Z</time></trkpt><trkpt lat="41.16150837438278" lon="14.180711972101918"><ele>46.5</ele><time>2026-05-02T07:19:14Z</time></trkpt><trkpt lat="41.1612379559489" lon="14.18096336817215"><ele>47.0</ele><time>2026-05-02T07:19:15Z</time></trkpt><trkpt lat="41.160964145331675" lon="14.181214166091186"><ele>46.0</ele><time>2026-05-02T07:19:16Z</time></trkpt><trkpt lat="41.16068859548281" lon="14.181462154170516"><ele>45.0</ele><time>2026-05-02T07:19:17Z</time></trkpt><trkpt lat="41.160417123028104" lon="14.181717061262747"><ele>44.5</ele><time>2026-05-02T07:19:18Z</time></trkpt><trkpt lat="41.16014177701211" lon="14.181959378097913"><ele>44.0</ele><time>2026-05-02T07:19:19Z</time></trkpt><trkpt lat="41.15986975462972" lon="14.182210262881247"><ele>43.0</ele><time>2026-05-02T07:19:20Z</time></trkpt><trkpt lat="41.15959726807288" lon="14.182461868582536"><ele>42.0</ele><time>2026-05-02T07:19:21Z</time></trkpt><trkpt lat="41.15932513800814" lon="14.182714892916652"><ele>42.0</ele><time>2026-05-02T07:19:22Z</time></trkpt><trkpt lat="41.15905612137924" lon="14.182969991423095"><ele>42.0</ele><time>2026-05-02T07:19:23Z</time></trkpt><trkpt lat="41.15878414567917" lon="14.183222654095147"><ele>42.5</ele><time>2026-05-02T07:19:24Z</time></trkpt><trkpt lat="41.15851223801058" lon="14.183479145707613"><ele>43.0</ele><time>2026-05-02T07:19:25Z</time></trkpt><trkpt lat="41.15823971859221" lon="14.183735286243916"><ele>43.5</ele><time>2026-05-02T07:19:26Z</time></trkpt><trkpt lat="41.157967255355445" lon="14.1839924900888"><ele>44.0</ele><time>2026-05-02T07:19:27Z</time></trkpt><trkpt lat="41.15769465591794" lon="14.18425004146746"><ele>43.0</ele><time>2026-05-02T07:19:28Z</time></trkpt><trkpt lat="41.15741876270102" lon="14.184499906326003"><ele>42.0</ele><time>2026-05-02T07:19:29Z</time></trkpt><trkpt lat="41.15714164453829" lon="14.184750517983462"><ele>41.0</ele><time>2026-05-02T07:19:30Z</time></trkpt><trkpt lat="41.1568661773037" lon="14.185005463137433"><ele>40.0</ele><time>2026-05-02T07:19:31Z</time></trkpt><trkpt lat="41.15659124084048" lon="14.185261459289691"><ele>39.5</ele><time>2026-05-02T07:19:32Z</time></trkpt><trkpt lat="41.15631509780322" lon="14.185513658235985"><ele>39.0</ele><time>2026-05-02T07:19:33Z</time></trkpt><trkpt lat="41.156039375332846" lon="14.185766035391762"><ele>39.0</ele><time>2026-05-02T07:19:34Z</time></trkpt><trkpt lat="41.15576302908942" lon="14.186016672596496"><ele>39.0</ele><time>2026-05-02T07:19:35Z</time></trkpt><trkpt lat="41.15548700314879" lon="14.186269786471957"><ele>37.0</ele><time>2026-05-02T07:19:36Z</time></trkpt><trkpt lat="41.155213008889184" lon="14.186525576884575"><ele>35.0</ele><time>2026-05-02T07:19:37Z</time></trkpt><trkpt lat="41.15494273465312" lon="14.186784542900718"><ele>36.0</ele><time>2026-05-02T07:19:38Z</time></trkpt><trkpt lat="41.154672567675256" lon="14.18704358182087"><ele>37.0</ele><time>2026-05-02T07:19:39Z</time></trkpt><trkpt lat="41.15439940275269" lon="14.187300002046916"><ele>37.5</ele><time>2026-05-02T07:19:40Z</time></trkpt><trkpt lat="41.15412581128099" lon="14.187549996718754"><ele>38.0</ele><time>2026-05-02T07:19:41Z</time></trkpt><trkpt lat="41.15385439427344" lon="14.187805153277296"><ele>38.0</ele><time>2026-05-02T07:19:42Z</time></trkpt><trkpt lat="41.15358252466609" lon="14.18805914202109"><ele>38.0</ele><time>2026-05-02T07:19:43Z</time></trkpt><trkpt lat="41.15331026728123" lon="14.188315808906184"><ele>37.5</ele><time>2026-05-02T07:19:44Z</time></trkpt><trkpt lat="41.15303981516366" lon="14.188575066375018"><ele>37.0</ele><time>2026-05-02T07:19:45Z</time></trkpt><trkpt lat="41.15276584688282" lon="14.188827090843974"><ele>36.5</ele><time>2026-05-02T07:19:46Z</time></trkpt><trkpt lat="41.15249138069561" lon="14.189077118102588"><ele>36.0</ele><time>2026-05-02T07:19:47Z</time></trkpt><trkpt lat="41.152216561740204" lon="14.189326297400488"><ele>37.5</ele><time>2026-05-02T07:19:48Z</time></trkpt><trkpt lat="41.15194316668953" lon="14.189579777316947"><ele>39.0</ele><time>2026-05-02T07:19:49Z</time></trkpt><trkpt lat="41.15166924595392" lon="14.189832803919339"><ele>36.0</ele><time>2026-05-02T07:19:50Z</time></trkpt><trkpt lat="41.15139648281221" lon="14.190084981808624"><ele>33.0</ele><time>2026-05-02T07:19:51Z</time></trkpt><trkpt lat="41.15112567725353" lon="14.190338492514208"><ele>33.0</ele><time>2026-05-02T07:19:52Z</time></trkpt><trkpt lat="41.15085099675571" lon="14.19058886858672"><ele>33.0</ele><time>2026-05-02T07:19:53Z</time></trkpt><trkpt lat="41.15057823321281" lon="14.190840541431221"><ele>32.0</ele><time>2026-05-02T07:19:54Z</time></trkpt><trkpt lat="41.15030557792176" lon="14.19109234367801"><ele>31.0</ele><time>2026-05-02T07:19:55Z</time></trkpt><trkpt lat="41.15003356003852" lon="14.191342085658524"><ele>30.5</ele><time>2026-05-02T07:19:56Z</time></trkpt><trkpt lat="41.14976221478496" lon="14.19159491759874"><ele>30.0</ele><time>2026-05-02T07:19:57Z</time></trkpt><trkpt lat="41.14948814097523" lon="14.191843498010916"><ele>30.0</ele><time>2026-05-02T07:19:58Z</time></trkpt><trkpt lat="41.149216578555446" lon="14.192095499099892"><ele>30.0</ele><time>2026-05-02T07:19:59Z</time></trkpt><trkpt lat="41.14894200324044" lon="14.192344783718552"><ele>30.5</ele><time>2026-05-02T07:20:00Z</time></trkpt><trkpt lat="41.14866765634314" lon="14.192596914939264"><ele>31.0</ele><time>2026-05-02T07:20:01Z</time></trkpt><trkpt lat="41.14839288231029" lon="14.192849128446372"><ele>30.5</ele><time>2026-05-02T07:20:02Z</time></trkpt><trkpt lat="41.1481168960173" lon="14.193100529867769"><ele>30.0</ele><time>2026-05-02T07:20:03Z</time></trkpt><trkpt lat="41.14784212199298" lon="14.193352491951472"><ele>30.0</ele><time>2026-05-02T07:20:04Z</time></trkpt><trkpt lat="41.14756633466187" lon="14.1936063244878"><ele>30.0</ele><time>2026-05-02T07:20:05Z</time></trkpt><trkpt lat="41.147293059078066" lon="14.193861163567181"><ele>29.5</ele><time>2026-05-02T07:20:06Z</time></trkpt><trkpt lat="41.14702267565984" lon="14.19412055810678"><ele>29.0</ele><time>2026-05-02T07:20:07Z</time></trkpt><trkpt lat="41.14674508892279" lon="14.194369757329808"><ele>29.0</ele><time>2026-05-02T07:20:08Z</time></trkpt><trkpt lat="41.146468383712254" lon="14.194620241439308"><ele>29.0</ele><time>2026-05-02T07:20:09Z</time></trkpt><trkpt lat="41.14619171318086" lon="14.194869466043162"><ele>28.5</ele><time>2026-05-02T07:20:10Z</time></trkpt><trkpt lat="41.1459150630335" lon="14.195119028444019"><ele>28.0</ele><time>2026-05-02T07:20:11Z</time></trkpt><trkpt lat="41.14563868145807" lon="14.195369038339345"><ele>29.0</ele><time>2026-05-02T07:20:12Z</time></trkpt><trkpt lat="41.145362892913234" lon="14.195621232908785"><ele>30.0</ele><time>2026-05-02T07:20:13Z</time></trkpt><trkpt lat="41.14509086000507" lon="14.195873307601818"><ele>30.5</ele><time>2026-05-02T07:20:14Z</time></trkpt><trkpt lat="41.14481860225768" lon="14.196123908751032"><ele>31.0</ele><time>2026-05-02T07:20:14.999Z</time></trkpt><trkpt lat="41.14454337773394" lon="14.196374025009384"><ele>30.5</ele><time>2026-05-02T07:20:15.999Z</time></trkpt><trkpt lat="41.14426845147532" lon="14.196622489203408"><ele>30.0</ele><time>2026-05-02T07:20:16.999Z</time></trkpt><trkpt lat="41.14399364142512" lon="14.196872427252696"><ele>30.0</ele><time>2026-05-02T07:20:17.999Z</time></trkpt><trkpt lat="41.14372092809706" lon="14.197120251147096"><ele>30.0</ele><time>2026-05-02T07:20:18.999Z</time></trkpt><trkpt lat="41.143450772878055" lon="14.197369997180441"><ele>31.0</ele><time>2026-05-02T07:20:19.999Z</time></trkpt><trkpt lat="41.14317979438842" lon="14.197620780639497"><ele>32.0</ele><time>2026-05-02T07:20:20.999Z</time></trkpt><trkpt lat="41.14290749110572" lon="14.197872407966676"><ele>32.0</ele><time>2026-05-02T07:20:21.999Z</time></trkpt><trkpt lat="41.14263448274701" lon="14.198122387406125"><ele>32.0</ele><time>2026-05-02T07:20:22.999Z</time></trkpt><trkpt lat="41.14236229234779" lon="14.198371372437093"><ele>31.0</ele><time>2026-05-02T07:20:23.999Z</time></trkpt><trkpt lat="41.14208761109558" lon="14.19862024711743"><ele>30.0</ele><time>2026-05-02T07:20:24.999Z</time></trkpt><trkpt lat="41.14181323059648" lon="14.19886886344498"><ele>29.0</ele><time>2026-05-02T07:20:25.999Z</time></trkpt><trkpt lat="41.14154177753618" lon="14.199120944860912"><ele>28.0</ele><time>2026-05-02T07:20:26.999Z</time></trkpt><trkpt lat="41.14126950880054" lon="14.199374475369279"><ele>28.0</ele><time>2026-05-02T07:20:27.999Z</time></trkpt><trkpt lat="41.14099703966348" lon="14.199627590046283"><ele>28.0</ele><time>2026-05-02T07:20:28.999Z</time></trkpt><trkpt lat="41.14072459373287" lon="14.199881996552625"><ele>27.0</ele><time>2026-05-02T07:20:29.999Z</time></trkpt><trkpt lat="41.14045303122928" lon="14.20014086093547"><ele>26.0</ele><time>2026-05-02T07:20:31Z</time></trkpt><trkpt lat="41.140182473534026" lon="14.200405341431106"><ele>25.5</ele><time>2026-05-02T07:20:32Z</time></trkpt><trkpt lat="41.139916977857816" lon="14.200674085078367"><ele>25.0</ele><time>2026-05-02T07:20:33Z</time></trkpt><trkpt lat="41.13965493226425" lon="14.200948516989566"><ele>25.0</ele><time>2026-05-02T07:20:34Z</time></trkpt><trkpt lat="41.13939605362576" lon="14.201227746472178"><ele>25.0</ele><time>2026-05-02T07:20:35Z</time></trkpt><trkpt lat="41.13914212354665" lon="14.201514947020701"><ele>25.0</ele><time>2026-05-02T07:20:36Z</time></trkpt><trkpt lat="41.13889283713892" lon="14.201807203197177"><ele>25.0</ele><time>2026-05-02T07:20:37Z</time></trkpt><trkpt lat="41.13864905353066" lon="14.202105797687928"><ele>24.5</ele><time>2026-05-02T07:20:38Z</time></trkpt><trkpt lat="41.138407137520005" lon="14.202407831724177"><ele>24.0</ele><time>2026-05-02T07:20:39Z</time></trkpt><trkpt lat="41.13816760708577" lon="14.202713550818448"><ele>24.0</ele><time>2026-05-02T07:20:40Z</time></trkpt><trkpt lat="41.137933088586614" lon="14.203025757759429"><ele>24.0</ele><time>2026-05-02T07:20:41Z</time></trkpt><trkpt lat="41.137703523764785" lon="14.203343044546775"><ele>24.0</ele><time>2026-05-02T07:20:42Z</time></trkpt><trkpt lat="41.137479957019906" lon="14.203666135014469"><ele>24.0</ele><time>2026-05-02T07:20:43Z</time></trkpt><trkpt lat="41.13725830480378" lon="14.203993637211456"><ele>25.0</ele><time>2026-05-02T07:20:44Z</time></trkpt><trkpt lat="41.13703791393211" lon="14.204323892252845"><ele>26.0</ele><time>2026-05-02T07:20:45Z</time></trkpt><trkpt lat="41.13681687442711" lon="14.20465565993744"><ele>27.0</ele><time>2026-05-02T07:20:46Z</time></trkpt><trkpt lat="41.136595862782" lon="14.204988303179919"><ele>28.0</ele><time>2026-05-02T07:20:47Z</time></trkpt><trkpt lat="41.136377165754574" lon="14.205317216716228"><ele>28.0</ele><time>2026-05-02T07:20:48Z</time></trkpt><trkpt lat="41.13615817347745" lon="14.205648264060462"><ele>28.0</ele><time>2026-05-02T07:20:49Z</time></trkpt><trkpt lat="41.13593784291721" lon="14.205980205624197"><ele>26.0</ele><time>2026-05-02T07:20:50Z</time></trkpt><trkpt lat="41.135717088483425" lon="14.206313303412976"><ele>24.0</ele><time>2026-05-02T07:20:51Z</time></trkpt><trkpt lat="41.13549564051473" lon="14.206647141998289"><ele>23.5</ele><time>2026-05-02T07:20:52Z</time></trkpt><trkpt lat="41.13527404831334" lon="14.206981018717867"><ele>23.0</ele><time>2026-05-02T07:20:53Z</time></trkpt><trkpt lat="41.135052622044256" lon="14.207314148581709"><ele>24.0</ele><time>2026-05-02T07:20:54Z</time></trkpt><trkpt lat="41.134832171191164" lon="14.207646678661996"><ele>25.0</ele><time>2026-05-02T07:20:55Z</time></trkpt><trkpt lat="41.134611894915224" lon="14.207978838361587"><ele>25.5</ele><time>2026-05-02T07:20:56Z</time></trkpt><trkpt lat="41.134392372539395" lon="14.208310787884242"><ele>26.0</ele><time>2026-05-02T07:20:57Z</time></trkpt><trkpt lat="41.134172488003365" lon="14.208646341149683"><ele>25.5</ele><time>2026-05-02T07:20:58Z</time></trkpt><trkpt lat="41.1339527843785" lon="14.208979674530953"><ele>25.0</ele><time>2026-05-02T07:20:59Z</time></trkpt><trkpt lat="41.133735787333315" lon="14.209311101937509"><ele>26.0</ele><time>2026-05-02T07:21:00Z</time></trkpt><trkpt lat="41.133517184585585" lon="14.20964300765179"><ele>27.0</ele><time>2026-05-02T07:21:01Z</time></trkpt><trkpt lat="41.133298262930275" lon="14.20997337067602"><ele>26.5</ele><time>2026-05-02T07:21:02Z</time></trkpt><trkpt lat="41.13307936407304" lon="14.2103030359804"><ele>26.0</ele><time>2026-05-02T07:21:03Z</time></trkpt><trkpt lat="41.13286031745278" lon="14.21063318273656"><ele>26.0</ele><time>2026-05-02T07:21:04Z</time></trkpt><trkpt lat="41.1326438001435" lon="14.210961858827025"><ele>26.0</ele><time>2026-05-02T07:21:05Z</time></trkpt><trkpt lat="41.13242472470547" lon="14.211291858676521"><ele>26.0</ele><time>2026-05-02T07:21:06Z</time></trkpt><trkpt lat="41.1322051772274" lon="14.211620274551484"><ele>26.0</ele><time>2026-05-02T07:21:07Z</time></trkpt><trkpt lat="41.13198692160229" lon="14.211948715626992"><ele>26.0</ele><time>2026-05-02T07:21:08Z</time></trkpt><trkpt lat="41.13176822456161" lon="14.212276993743865"><ele>26.0</ele><time>2026-05-02T07:21:09Z</time></trkpt><trkpt lat="41.13154886879147" lon="14.212605863255378"><ele>25.0</ele><time>2026-05-02T07:21:10Z</time></trkpt><trkpt lat="41.131327803922076" lon="14.212937254541472"><ele>24.0</ele><time>2026-05-02T07:21:11Z</time></trkpt><trkpt lat="41.13110739026971" lon="14.213266995955538"><ele>24.0</ele><time>2026-05-02T07:21:12Z</time></trkpt><trkpt lat="41.130886725788415" lon="14.213598798792486"><ele>24.0</ele><time>2026-05-02T07:21:13Z</time></trkpt><trkpt lat="41.13066606261888" lon="14.213932466428865"><ele>24.0</ele><time>2026-05-02T07:21:14Z</time></trkpt><trkpt lat="41.1304465211365" lon="14.214266464842353"><ele>24.0</ele><time>2026-05-02T07:21:15Z</time></trkpt><trkpt lat="41.13022746706047" lon="14.2145999352824"><ele>24.5</ele><time>2026-05-02T07:21:16Z</time></trkpt><trkpt lat="41.130007209799224" lon="14.214931665575548"><ele>25.0</ele><time>2026-05-02T07:21:17Z</time></trkpt><trkpt lat="41.12978606851174" lon="14.215263104892014"><ele>25.0</ele><time>2026-05-02T07:21:18Z</time></trkpt><trkpt lat="41.1295647340325" lon="14.215596206318653"><ele>25.0</ele><time>2026-05-02T07:21:19Z</time></trkpt><trkpt lat="41.12934393020027" lon="14.215929108865353"><ele>25.0</ele><time>2026-05-02T07:21:20Z</time></trkpt><trkpt lat="41.12912532444573" lon="14.21626034629426"><ele>25.0</ele><time>2026-05-02T07:21:21Z</time></trkpt><trkpt lat="41.128906144661336" lon="14.216592154743681"><ele>25.0</ele><time>2026-05-02T07:21:22Z</time></trkpt><trkpt lat="41.128685085564825" lon="14.21692321539713"><ele>25.0</ele><time>2026-05-02T07:21:23Z</time></trkpt><trkpt lat="41.1284635254844" lon="14.217251114686286"><ele>25.0</ele><time>2026-05-02T07:21:24Z</time></trkpt><trkpt lat="41.12824115240733" lon="14.217578627054218"><ele>25.0</ele><time>2026-05-02T07:21:25Z</time></trkpt><trkpt lat="41.12801715813876" lon="14.217907891648295"><ele>27.0</ele><time>2026-05-02T07:21:26Z</time></trkpt><trkpt lat="41.12779352996292" lon="14.218236037858068"><ele>29.0</ele><time>2026-05-02T07:21:27Z</time></trkpt><trkpt lat="41.127570774092206" lon="14.218565303245162"><ele>28.5</ele><time>2026-05-02T07:21:28Z</time></trkpt><trkpt lat="41.12734562625408" lon="14.21889443589805"><ele>28.0</ele><time>2026-05-02T07:21:29Z</time></trkpt><trkpt lat="41.127124885915954" lon="14.219225294649277"><ele>26.5</ele><time>2026-05-02T07:21:30Z</time></trkpt><trkpt lat="41.12690499338667" lon="14.219557412689971"><ele>25.0</ele><time>2026-05-02T07:21:31Z</time></trkpt><trkpt lat="41.12668479848599" lon="14.219890008632955"><ele>23.5</ele><time>2026-05-02T07:21:32Z</time></trkpt><trkpt lat="41.12646196588715" lon="14.220217079323124"><ele>22.0</ele><time>2026-05-02T07:21:33Z</time></trkpt><trkpt lat="41.126241992922694" lon="14.22054861253291"><ele>22.0</ele><time>2026-05-02T07:21:34Z</time></trkpt><trkpt lat="41.12602255380855" lon="14.220880556814583"><ele>22.0</ele><time>2026-05-02T07:21:35Z</time></trkpt><trkpt lat="41.12580184847723" lon="14.221211870084522"><ele>22.0</ele><time>2026-05-02T07:21:36Z</time></trkpt><trkpt lat="41.12558163333033" lon="14.221542284025132"><ele>22.0</ele><time>2026-05-02T07:21:37Z</time></trkpt><trkpt lat="41.12536222354067" lon="14.221870623868787"><ele>22.0</ele><time>2026-05-02T07:21:38Z</time></trkpt><trkpt lat="41.12514082351212" lon="14.222197741392531"><ele>22.0</ele><time>2026-05-02T07:21:39Z</time></trkpt><trkpt lat="41.12492171826385" lon="14.22252825787937"><ele>22.0</ele><time>2026-05-02T07:21:40Z</time></trkpt><trkpt lat="41.12470103917266" lon="14.222858469849266"><ele>22.0</ele><time>2026-05-02T07:21:41Z</time></trkpt><trkpt lat="41.124480571765325" lon="14.223188114412457"><ele>22.0</ele><time>2026-05-02T07:21:42Z</time></trkpt><trkpt lat="41.124261919083146" lon="14.223521574375313"><ele>22.0</ele><time>2026-05-02T07:21:43Z</time></trkpt><trkpt lat="41.12404109918783" lon="14.223854039649463"><ele>20.5</ele><time>2026-05-02T07:21:44Z</time></trkpt><trkpt lat="41.12382203705529" lon="14.224189499762419"><ele>19.0</ele><time>2026-05-02T07:21:45Z</time></trkpt><trkpt lat="41.1236028271125" lon="14.224523028375112"><ele>20.0</ele><time>2026-05-02T07:21:46Z</time></trkpt><trkpt lat="41.12338295843212" lon="14.224854715009627"><ele>21.0</ele><time>2026-05-02T07:21:47Z</time></trkpt><trkpt lat="41.12316401617726" lon="14.225186444722347"><ele>21.0</ele><time>2026-05-02T07:21:48Z</time></trkpt><trkpt lat="41.12294532014031" lon="14.225518464418347"><ele>21.0</ele><time>2026-05-02T07:21:49Z</time></trkpt><trkpt lat="41.12272586654618" lon="14.22584909236068"><ele>21.5</ele><time>2026-05-02T07:21:50Z</time></trkpt><trkpt lat="41.122506322506005" lon="14.226177305715108"><ele>22.0</ele><time>2026-05-02T07:21:51Z</time></trkpt><trkpt lat="41.12228690891997" lon="14.226509367786448"><ele>22.0</ele><time>2026-05-02T07:21:52Z</time></trkpt><trkpt lat="41.12206354646245" lon="14.226836500257697"><ele>22.0</ele><time>2026-05-02T07:21:53Z</time></trkpt><trkpt lat="41.121835788918894" lon="14.227156975315346"><ele>22.0</ele><time>2026-05-02T07:21:54Z</time></trkpt><trkpt lat="41.12160675101322" lon="14.22747566768931"><ele>22.0</ele><time>2026-05-02T07:21:55Z</time></trkpt><trkpt lat="41.12137145454583" lon="14.227785564523947"><ele>22.0</ele><time>2026-05-02T07:21:56Z</time></trkpt><trkpt lat="41.12113337972503" lon="14.228092831301796"><ele>22.0</ele><time>2026-05-02T07:21:57Z</time></trkpt><trkpt lat="41.12089355175055" lon="14.228395276979334"><ele>22.5</ele><time>2026-05-02T07:21:58Z</time></trkpt><trkpt lat="41.12064903175783" lon="14.22869410557752"><ele>23.0</ele><time>2026-05-02T07:21:59Z</time></trkpt><trkpt lat="41.12040643313239" lon="14.228991980139156"><ele>24.0</ele><time>2026-05-02T07:22:00Z</time></trkpt><trkpt lat="41.120158140286414" lon="14.22928337239184"><ele>25.0</ele><time>2026-05-02T07:22:01Z</time></trkpt><trkpt lat="41.11990651526757" lon="14.229572138309132"><ele>24.0</ele><time>2026-05-02T07:22:02Z</time></trkpt><trkpt lat="41.11965057115737" lon="14.22985469574848"><ele>23.0</ele><time>2026-05-02T07:22:03Z</time></trkpt><trkpt lat="41.11939171721148" lon="14.230132388643279"><ele>23.0</ele><time>2026-05-02T07:22:04Z</time></trkpt><trkpt lat="41.119130605057435" lon="14.230407876800752"><ele>23.0</ele><time>2026-05-02T07:22:05Z</time></trkpt><trkpt lat="41.11886685264875" lon="14.230680651820158"><ele>22.5</ele><time>2026-05-02T07:22:06Z</time></trkpt><trkpt lat="41.118602346092196" lon="14.230952316450551"><ele>22.0</ele><time>2026-05-02T07:22:07Z</time></trkpt><trkpt lat="41.118340768692796" lon="14.231227902369096"><ele>21.5</ele><time>2026-05-02T07:22:08Z</time></trkpt><trkpt lat="41.11807687502367" lon="14.231500133173146"><ele>21.0</ele><time>2026-05-02T07:22:09Z</time></trkpt><trkpt lat="41.117813877464336" lon="14.231773622940509"><ele>21.0</ele><time>2026-05-02T07:22:10Z</time></trkpt><trkpt lat="41.11754978516045" lon="14.232045284377204"><ele>21.0</ele><time>2026-05-02T07:22:11Z</time></trkpt><trkpt lat="41.11728851543807" lon="14.232321257591554"><ele>22.0</ele><time>2026-05-02T07:22:12Z</time></trkpt><trkpt lat="41.11702741665118" lon="14.23259444351977"><ele>23.0</ele><time>2026-05-02T07:22:13Z</time></trkpt><trkpt lat="41.11676527634023" lon="14.232870091060507"><ele>24.0</ele><time>2026-05-02T07:22:14Z</time></trkpt><trkpt lat="41.116503448057465" lon="14.23314522598444"><ele>25.0</ele><time>2026-05-02T07:22:15Z</time></trkpt><trkpt lat="41.11624229702592" lon="14.233418115589863"><ele>25.0</ele><time>2026-05-02T07:22:16Z</time></trkpt><trkpt lat="41.11598318279229" lon="14.23369547730695"><ele>25.0</ele><time>2026-05-02T07:22:17Z</time></trkpt><trkpt lat="41.11572528328997" lon="14.233973226760911"><ele>26.0</ele><time>2026-05-02T07:22:18Z</time></trkpt><trkpt lat="41.11546901464184" lon="14.234255554089984"><ele>27.0</ele><time>2026-05-02T07:22:19Z</time></trkpt><trkpt lat="41.115221486694054" lon="14.234546832922831"><ele>26.5</ele><time>2026-05-02T07:22:19.999Z</time></trkpt><trkpt lat="41.114983162231894" lon="14.234851416222618"><ele>26.0</ele><time>2026-05-02T07:22:20.999Z</time></trkpt><trkpt lat="41.11474845864997" lon="14.235159974412168"><ele>26.0</ele><time>2026-05-02T07:22:21.999Z</time></trkpt><trkpt lat="41.114516030265804" lon="14.235476903462533"><ele>26.0</ele><time>2026-05-02T07:22:22.999Z</time></trkpt><trkpt lat="41.11429186208205" lon="14.235799629903282"><ele>26.0</ele><time>2026-05-02T07:22:23.999Z</time></trkpt><trkpt lat="41.11407223522419" lon="14.2361293485541"><ele>26.0</ele><time>2026-05-02T07:22:24.999Z</time></trkpt><trkpt lat="41.11386094547899" lon="14.236468366690293"><ele>26.0</ele><time>2026-05-02T07:22:25.999Z</time></trkpt><trkpt lat="41.11365182456781" lon="14.236811377766525"><ele>26.0</ele><time>2026-05-02T07:22:26.999Z</time></trkpt><trkpt lat="41.11345015192805" lon="14.237160328700424"><ele>26.5</ele><time>2026-05-02T07:22:27.999Z</time></trkpt><trkpt lat="41.1132536876213" lon="14.237514827784649"><ele>27.0</ele><time>2026-05-02T07:22:28.999Z</time></trkpt><trkpt lat="41.1130608212335" lon="14.237872626633665"><ele>26.0</ele><time>2026-05-02T07:22:29.999Z</time></trkpt><trkpt lat="41.112877515796" lon="14.23823959226389"><ele>25.0</ele><time>2026-05-02T07:22:30.999Z</time></trkpt><trkpt lat="41.112704455141234" lon="14.23861444601999"><ele>25.5</ele><time>2026-05-02T07:22:31.999Z</time></trkpt><trkpt lat="41.112528564691644" lon="14.238987199388587"><ele>26.0</ele><time>2026-05-02T07:22:32.999Z</time></trkpt><trkpt lat="41.11235897556307" lon="14.239365952182458"><ele>26.0</ele><time>2026-05-02T07:22:33.999Z</time></trkpt><trkpt lat="41.11218481664184" lon="14.239740394336554"><ele>26.0</ele><time>2026-05-02T07:22:34.999Z</time></trkpt><trkpt lat="41.11201158936853" lon="14.24011643098119"><ele>26.0</ele><time>2026-05-02T07:22:35.999Z</time></trkpt><trkpt lat="41.11184030234168" lon="14.240495659277364"><ele>26.0</ele><time>2026-05-02T07:22:37Z</time></trkpt><trkpt lat="41.11166554574107" lon="14.240871382443675"><ele>25.5</ele><time>2026-05-02T07:22:38Z</time></trkpt><trkpt lat="41.111494990890314" lon="14.241249709194745"><ele>25.0</ele><time>2026-05-02T07:22:39Z</time></trkpt><trkpt lat="41.111319281339156" lon="14.241624625431417"><ele>25.0</ele><time>2026-05-02T07:22:40Z</time></trkpt><trkpt lat="41.11114641230527" lon="14.242001029189842"><ele>25.0</ele><time>2026-05-02T07:22:41Z</time></trkpt><trkpt lat="41.110973651911166" lon="14.242376759389938"><ele>26.0</ele><time>2026-05-02T07:22:42Z</time></trkpt><trkpt lat="41.11080025385169" lon="14.24275491880445"><ele>27.0</ele><time>2026-05-02T07:22:43Z</time></trkpt><trkpt lat="41.11062743794929" lon="14.243131538703086"><ele>27.5</ele><time>2026-05-02T07:22:44Z</time></trkpt><trkpt lat="41.110454215632316" lon="14.243508013827906"><ele>28.0</ele><time>2026-05-02T07:22:45Z</time></trkpt><trkpt lat="41.1102773888168" lon="14.243883561028342"><ele>28.0</ele><time>2026-05-02T07:22:46Z</time></trkpt><trkpt lat="41.110103758033546" lon="14.244261929834265"><ele>28.0</ele><time>2026-05-02T07:22:47Z</time></trkpt><trkpt lat="41.10993071772871" lon="14.244640768593213"><ele>28.5</ele><time>2026-05-02T07:22:48Z</time></trkpt><trkpt lat="41.10975856636698" lon="14.24501973707054"><ele>29.0</ele><time>2026-05-02T07:22:49Z</time></trkpt><trkpt lat="41.10958578200133" lon="14.245397518074446"><ele>29.0</ele><time>2026-05-02T07:22:50Z</time></trkpt><trkpt lat="41.10940977785469" lon="14.245773661072077"><ele>29.0</ele><time>2026-05-02T07:22:51Z</time></trkpt><trkpt lat="41.10923394727145" lon="14.246148884680489"><ele>29.0</ele><time>2026-05-02T07:22:52Z</time></trkpt><trkpt lat="41.109060647802835" lon="14.246526038234462"><ele>29.0</ele><time>2026-05-02T07:22:53Z</time></trkpt><trkpt lat="41.1088879622055" lon="14.246902864848144"><ele>29.0</ele><time>2026-05-02T07:22:54Z</time></trkpt><trkpt lat="41.10871254074512" lon="14.24727907121956"><ele>29.0</ele><time>2026-05-02T07:22:55Z</time></trkpt><trkpt lat="41.10853835301225" lon="14.247653969926372"><ele>30.0</ele><time>2026-05-02T07:22:56Z</time></trkpt><trkpt lat="41.108362757046365" lon="14.248029459109075"><ele>31.0</ele><time>2026-05-02T07:22:57Z</time></trkpt><trkpt lat="41.10818960225116" lon="14.248406649352322"><ele>32.0</ele><time>2026-05-02T07:22:58Z</time></trkpt><trkpt lat="41.108013323839074" lon="14.248783725778251"><ele>33.0</ele><time>2026-05-02T07:22:59Z</time></trkpt><trkpt lat="41.107839950774675" lon="14.249160486335695"><ele>33.0</ele><time>2026-05-02T07:23:00Z</time></trkpt><trkpt lat="41.10766897335103" lon="14.249538733277038"><ele>33.0</ele><time>2026-05-02T07:23:01Z</time></trkpt><trkpt lat="41.107494035424075" lon="14.24991472131721"><ele>33.0</ele><time>2026-05-02T07:23:02Z</time></trkpt><trkpt lat="41.10731929602405" lon="14.250291872270498"><ele>33.0</ele><time>2026-05-02T07:23:03Z</time></trkpt><trkpt lat="41.10714527921959" lon="14.250668099737512"><ele>33.5</ele><time>2026-05-02T07:23:04Z</time></trkpt><trkpt lat="41.106970676107615" lon="14.25104427037941"><ele>34.0</ele><time>2026-05-02T07:23:05Z</time></trkpt><trkpt lat="41.10679634238067" lon="14.251422867936592"><ele>34.5</ele><time>2026-05-02T07:23:06Z</time></trkpt><trkpt lat="41.10661949367922" lon="14.251800035946722"><ele>35.0</ele><time>2026-05-02T07:23:07Z</time></trkpt><trkpt lat="41.106445855890044" lon="14.252176505151088"><ele>36.5</ele><time>2026-05-02T07:23:08Z</time></trkpt><trkpt lat="41.106268381398536" lon="14.252552033043802"><ele>38.0</ele><time>2026-05-02T07:23:09Z</time></trkpt><trkpt lat="41.10609548208336" lon="14.252928624851384"><ele>37.0</ele><time>2026-05-02T07:23:10Z</time></trkpt><trkpt lat="41.10591828210035" lon="14.253302747573205"><ele>36.0</ele><time>2026-05-02T07:23:11Z</time></trkpt><trkpt lat="41.10574670236468" lon="14.25367940239575"><ele>36.0</ele><time>2026-05-02T07:23:12Z</time></trkpt><trkpt lat="41.1055713732526" lon="14.254053543032436"><ele>36.0</ele><time>2026-05-02T07:23:13Z</time></trkpt><trkpt lat="41.10539799936288" lon="14.254428916086644"><ele>37.5</ele><time>2026-05-02T07:23:14Z</time></trkpt><trkpt lat="41.10522492120607" lon="14.25480288362594"><ele>39.0</ele><time>2026-05-02T07:23:15Z</time></trkpt><trkpt lat="41.10505041561364" lon="14.255177854110084"><ele>39.0</ele><time>2026-05-02T07:23:16Z</time></trkpt><trkpt lat="41.104877221747714" lon="14.255552673365665"><ele>39.0</ele><time>2026-05-02T07:23:17Z</time></trkpt><trkpt lat="41.10470406435436" lon="14.255928399416923"><ele>39.0</ele><time>2026-05-02T07:23:18Z</time></trkpt><trkpt lat="41.10452781221452" lon="14.256303336636734"><ele>39.0</ele><time>2026-05-02T07:23:19Z</time></trkpt><trkpt lat="41.10435038613538" lon="14.256676079876524"><ele>40.0</ele><time>2026-05-02T07:23:20Z</time></trkpt><trkpt lat="41.104174474987175" lon="14.257049358621112"><ele>41.0</ele><time>2026-05-02T07:23:21Z</time></trkpt><trkpt lat="41.10399647518844" lon="14.257422423034997"><ele>42.0</ele><time>2026-05-02T07:23:22Z</time></trkpt><trkpt lat="41.10381521485713" lon="14.257797080384835"><ele>43.0</ele><time>2026-05-02T07:23:23Z</time></trkpt><trkpt lat="41.103626816395696" lon="14.258160224552125"><ele>43.0</ele><time>2026-05-02T07:23:24Z</time></trkpt><trkpt lat="41.10343932909984" lon="14.258524695165459"><ele>43.0</ele><time>2026-05-02T07:23:25Z</time></trkpt><trkpt lat="41.103248835191195" lon="14.25888702436329"><ele>43.0</ele><time>2026-05-02T07:23:26Z</time></trkpt><trkpt lat="41.10305636586659" lon="14.25924916887413"><ele>43.0</ele><time>2026-05-02T07:23:27Z</time></trkpt><trkpt lat="41.10286073807386" lon="14.259608171014802"><ele>43.0</ele><time>2026-05-02T07:23:28Z</time></trkpt><trkpt lat="41.10266749490496" lon="14.259966646811746"><ele>43.0</ele><time>2026-05-02T07:23:29Z</time></trkpt><trkpt lat="41.10247068318228" lon="14.26032484708574"><ele>43.5</ele><time>2026-05-02T07:23:30Z</time></trkpt><trkpt lat="41.10227390269753" lon="14.260680460762845"><ele>44.0</ele><time>2026-05-02T07:23:31Z</time></trkpt><trkpt lat="41.102074990943784" lon="14.261033099329305"><ele>44.0</ele><time>2026-05-02T07:23:32Z</time></trkpt><trkpt lat="41.101874176149124" lon="14.261385186987436"><ele>44.0</ele><time>2026-05-02T07:23:33Z</time></trkpt><trkpt lat="41.10167278430092" lon="14.261738446216151"><ele>44.5</ele><time>2026-05-02T07:23:34Z</time></trkpt><trkpt lat="41.1014666672425" lon="14.26208965854375"><ele>45.0</ele><time>2026-05-02T07:23:35Z</time></trkpt><trkpt lat="41.101264306078576" lon="14.262442082908011"><ele>46.0</ele><time>2026-05-02T07:23:36Z</time></trkpt><trkpt lat="41.10106197620941" lon="14.26279424974578"><ele>47.0</ele><time>2026-05-02T07:23:37Z</time></trkpt><trkpt lat="41.100858310464055" lon="14.263144770139885"><ele>46.0</ele><time>2026-05-02T07:23:38Z</time></trkpt><trkpt lat="41.10065569824998" lon="14.2634960271187"><ele>45.0</ele><time>2026-05-02T07:23:39Z</time></trkpt><trkpt lat="41.10045416106368" lon="14.263845734103473"><ele>46.5</ele><time>2026-05-02T07:23:40Z</time></trkpt><trkpt lat="41.10025170722283" lon="14.264197140428129"><ele>48.0</ele><time>2026-05-02T07:23:41Z</time></trkpt><trkpt lat="41.1000484942717" lon="14.26454814650981"><ele>48.0</ele><time>2026-05-02T07:23:42Z</time></trkpt><trkpt lat="41.09984856666224" lon="14.264901962663453"><ele>48.0</ele><time>2026-05-02T07:23:43Z</time></trkpt><trkpt lat="41.09964440287462" lon="14.265254437644348"><ele>48.0</ele><time>2026-05-02T07:23:44Z</time></trkpt><trkpt lat="41.0994401207443" lon="14.265604421492059"><ele>48.0</ele><time>2026-05-02T07:23:45Z</time></trkpt><trkpt lat="41.09924148160344" lon="14.26596012201091"><ele>48.0</ele><time>2026-05-02T07:23:46Z</time></trkpt><trkpt lat="41.099041957494585" lon="14.266312957433707"><ele>48.0</ele><time>2026-05-02T07:23:47Z</time></trkpt><trkpt lat="41.09884224975325" lon="14.266664459316623"><ele>49.0</ele><time>2026-05-02T07:23:48Z</time></trkpt><trkpt lat="41.09864192573442" lon="14.267017498925908"><ele>50.0</ele><time>2026-05-02T07:23:49Z</time></trkpt><trkpt lat="41.098441409308684" lon="14.267370416706315"><ele>50.5</ele><time>2026-05-02T07:23:50Z</time></trkpt><trkpt lat="41.09823814489072" lon="14.267723312041063"><ele>51.0</ele><time>2026-05-02T07:23:51Z</time></trkpt><trkpt lat="41.09803592666369" lon="14.268075492214624"><ele>51.5</ele><time>2026-05-02T07:23:52Z</time></trkpt><trkpt lat="41.097836816056116" lon="14.268429922026456"><ele>52.0</ele><time>2026-05-02T07:23:53Z</time></trkpt><trkpt lat="41.097635342607596" lon="14.268781428993556"><ele>52.0</ele><time>2026-05-02T07:23:54Z</time></trkpt><trkpt lat="41.09743577861371" lon="14.26913362137194"><ele>52.0</ele><time>2026-05-02T07:23:55Z</time></trkpt><trkpt lat="41.097235904379836" lon="14.269487069561062"><ele>52.5</ele><time>2026-05-02T07:23:56Z</time></trkpt><trkpt lat="41.097033358330876" lon="14.269840620643588"><ele>53.0</ele><time>2026-05-02T07:23:57Z</time></trkpt><trkpt lat="41.09683165479224" lon="14.270193870187551"><ele>53.0</ele><time>2026-05-02T07:23:58Z</time></trkpt><trkpt lat="41.0966304499256" lon="14.270547592905478"><ele>53.0</ele><time>2026-05-02T07:23:59Z</time></trkpt><trkpt lat="41.09642807350042" lon="14.270898907933336"><ele>53.5</ele><time>2026-05-02T07:24:00Z</time></trkpt><trkpt lat="41.0962231401995" lon="14.271248844626902"><ele>54.0</ele><time>2026-05-02T07:24:01Z</time></trkpt><trkpt lat="41.096020569237666" lon="14.271600554961385"><ele>55.0</ele><time>2026-05-02T07:24:02Z</time></trkpt><trkpt lat="41.09581907013311" lon="14.27195017765014"><ele>56.0</ele><time>2026-05-02T07:24:03Z</time></trkpt><trkpt lat="41.09561928695573" lon="14.272301888194981"><ele>54.0</ele><time>2026-05-02T07:24:04Z</time></trkpt><trkpt lat="41.09542024208612" lon="14.272654553722248"><ele>52.0</ele><time>2026-05-02T07:24:05Z</time></trkpt><trkpt lat="41.09522038940206" lon="14.273005919595132"><ele>52.0</ele><time>2026-05-02T07:24:06Z</time></trkpt><trkpt lat="41.09501985417276" lon="14.273358104455898"><ele>52.0</ele><time>2026-05-02T07:24:07Z</time></trkpt><trkpt lat="41.09482144209109" lon="14.273713208965841"><ele>52.5</ele><time>2026-05-02T07:24:08Z</time></trkpt><trkpt lat="41.09462083861425" lon="14.27406779013561"><ele>53.0</ele><time>2026-05-02T07:24:09Z</time></trkpt><trkpt lat="41.09441908246824" lon="14.274420306259453"><ele>53.0</ele><time>2026-05-02T07:24:10Z</time></trkpt><trkpt lat="41.09421538661778" lon="14.27476979752103"><ele>53.0</ele><time>2026-05-02T07:24:11Z</time></trkpt><trkpt lat="41.09401176173462" lon="14.275118714485467"><ele>53.5</ele><time>2026-05-02T07:24:12Z</time></trkpt><trkpt lat="41.093809071176196" lon="14.275469923432594"><ele>54.0</ele><time>2026-05-02T07:24:13Z</time></trkpt><trkpt lat="41.09360831169205" lon="14.275821819640079"><ele>54.5</ele><time>2026-05-02T07:24:14Z</time></trkpt><trkpt lat="41.09340663466418" lon="14.27617210652187"><ele>55.0</ele><time>2026-05-02T07:24:15Z</time></trkpt><trkpt lat="41.09320480623449" lon="14.276523963833448"><ele>55.5</ele><time>2026-05-02T07:24:16Z</time></trkpt><trkpt lat="41.093005172702085" lon="14.276878514438188"><ele>56.0</ele><time>2026-05-02T07:24:17Z</time></trkpt><trkpt lat="41.09280551900157" lon="14.277233090696804"><ele>56.0</ele><time>2026-05-02T07:24:18Z</time></trkpt><trkpt lat="41.092604985549" lon="14.277586986134583"><ele>56.0</ele><time>2026-05-02T07:24:19Z</time></trkpt><trkpt lat="41.09240451284047" lon="14.277943478393691"><ele>55.5</ele><time>2026-05-02T07:24:20Z</time></trkpt><trkpt lat="41.09220206415751" lon="14.278295693470023"><ele>55.0</ele><time>2026-05-02T07:24:21Z</time></trkpt><trkpt lat="41.092000393695415" lon="14.27864936705061"><ele>55.5</ele><time>2026-05-02T07:24:22Z</time></trkpt><trkpt lat="41.09179740875271" lon="14.278999854141514"><ele>56.0</ele><time>2026-05-02T07:24:23Z</time></trkpt><trkpt lat="41.09159539733053" lon="14.279352891310348"><ele>55.5</ele><time>2026-05-02T07:24:24Z</time></trkpt><trkpt lat="41.09139383155426" lon="14.279704280133936"><ele>55.0</ele><time>2026-05-02T07:24:25Z</time></trkpt><trkpt lat="41.091194392442794" lon="14.280057998701507"><ele>55.0</ele><time>2026-05-02T07:24:26Z</time></trkpt><trkpt lat="41.090993151601694" lon="14.280412897662865"><ele>55.0</ele><time>2026-05-02T07:24:27Z</time></trkpt><trkpt lat="41.090793459324125" lon="14.280768247092892"><ele>55.0</ele><time>2026-05-02T07:24:28Z</time></trkpt><trkpt lat="41.09059207024313" lon="14.281120685783026"><ele>55.0</ele><time>2026-05-02T07:24:29Z</time></trkpt><trkpt lat="41.09039151422022" lon="14.281474923383998"><ele>55.0</ele><time>2026-05-02T07:24:30Z</time></trkpt><trkpt lat="41.09019002296961" lon="14.281828836128739"><ele>55.0</ele><time>2026-05-02T07:24:31Z</time></trkpt><trkpt lat="41.0899890447184" lon="14.282180147194317"><ele>55.0</ele><time>2026-05-02T07:24:32Z</time></trkpt><trkpt lat="41.08978718604323" lon="14.28253099087771"><ele>55.0</ele><time>2026-05-02T07:24:33Z</time></trkpt><trkpt lat="41.089588394798646" lon="14.282883108418888"><ele>55.5</ele><time>2026-05-02T07:24:34Z</time></trkpt><trkpt lat="41.08938778203568" lon="14.283233370433353"><ele>56.0</ele><time>2026-05-02T07:24:34.999Z</time></trkpt><trkpt lat="41.08918589459532" lon="14.28358315820367"><ele>56.0</ele><time>2026-05-02T07:24:35.999Z</time></trkpt><trkpt lat="41.088984663281174" lon="14.2839336021398"><ele>56.0</ele><time>2026-05-02T07:24:36.999Z</time></trkpt><trkpt lat="41.088781027566796" lon="14.284281767304737"><ele>56.0</ele><time>2026-05-02T07:24:37.999Z</time></trkpt><trkpt lat="41.088582121589326" lon="14.284630815491862"><ele>56.0</ele><time>2026-05-02T07:24:38.999Z</time></trkpt><trkpt lat="41.08838075391986" lon="14.28498092859778"><ele>56.0</ele><time>2026-05-02T07:24:39.999Z</time></trkpt><trkpt lat="41.088173577080475" lon="14.285326022196056"><ele>56.0</ele><time>2026-05-02T07:24:40.999Z</time></trkpt><trkpt lat="41.08796857953026" lon="14.285672591725861"><ele>56.0</ele><time>2026-05-02T07:24:41.999Z</time></trkpt><trkpt lat="41.08775428220388" lon="14.286007933163708"><ele>56.0</ele><time>2026-05-02T07:24:43Z</time></trkpt><trkpt lat="41.08752896784061" lon="14.286331329048503"><ele>56.0</ele><time>2026-05-02T07:24:44Z</time></trkpt><trkpt lat="41.08729679988049" lon="14.286642153712256"><ele>56.0</ele><time>2026-05-02T07:24:45Z</time></trkpt><trkpt lat="41.08705353421326" lon="14.286939707740975"><ele>56.0</ele><time>2026-05-02T07:24:46Z</time></trkpt><trkpt lat="41.08680220772522" lon="14.287225656941887"><ele>56.0</ele><time>2026-05-02T07:24:47Z</time></trkpt><trkpt lat="41.08654398900655" lon="14.28750380599419"><ele>55.5</ele><time>2026-05-02T07:24:48Z</time></trkpt><trkpt lat="41.086283993666804" lon="14.28778118420292"><ele>55.0</ele><time>2026-05-02T07:24:49Z</time></trkpt><trkpt lat="41.08602325624487" lon="14.288058470082248"><ele>54.0</ele><time>2026-05-02T07:24:50Z</time></trkpt><trkpt lat="41.08576181489493" lon="14.28833368463323"><ele>53.0</ele><time>2026-05-02T07:24:51Z</time></trkpt><trkpt lat="41.08549864589253" lon="14.288608632471478"><ele>53.0</ele><time>2026-05-02T07:24:52Z</time></trkpt><trkpt lat="41.08523524633374" lon="14.28888200253674"><ele>53.0</ele><time>2026-05-02T07:24:53Z</time></trkpt><trkpt lat="41.08497215435694" lon="14.289155146449799"><ele>52.0</ele><time>2026-05-02T07:24:54Z</time></trkpt><trkpt lat="41.08471005761818" lon="14.289428757105052"><ele>51.0</ele><time>2026-05-02T07:24:55Z</time></trkpt><trkpt lat="41.0844485036381" lon="14.2897029966557"><ele>51.5</ele><time>2026-05-02T07:24:56Z</time></trkpt><trkpt lat="41.084188718895376" lon="14.289976494947062"><ele>52.0</ele><time>2026-05-02T07:24:57Z</time></trkpt><trkpt lat="41.08392835197483" lon="14.290249118345331"><ele>52.0</ele><time>2026-05-02T07:24:58Z</time></trkpt><trkpt lat="41.083666526429376" lon="14.290522047406633"><ele>52.0</ele><time>2026-05-02T07:24:59Z</time></trkpt><trkpt lat="41.0834049521051" lon="14.290794216285198"><ele>52.0</ele><time>2026-05-02T07:25:00Z</time></trkpt><trkpt lat="41.08314938821579" lon="14.291060683219913"><ele>52.0</ele><time>2026-05-02T07:25:01Z</time></trkpt><trkpt lat="41.08289987480662" lon="14.291322659162988"><ele>52.0</ele><time>2026-05-02T07:25:02Z</time></trkpt><trkpt lat="41.082651481551885" lon="14.291586421240535"><ele>52.0</ele><time>2026-05-02T07:25:03Z</time></trkpt><trkpt lat="41.08240049996231" lon="14.291853324503288"><ele>52.0</ele><time>2026-05-02T07:25:04Z</time></trkpt><trkpt lat="41.08214419303158" lon="14.292126447262934"><ele>52.0</ele><time>2026-05-02T07:25:05Z</time></trkpt><trkpt lat="41.08188825611762" lon="14.292401525789607"><ele>52.0</ele><time>2026-05-02T07:25:06Z</time></trkpt><trkpt lat="41.0816315168801" lon="14.292677933551271"><ele>52.0</ele><time>2026-05-02T07:25:07Z</time></trkpt><trkpt lat="41.08137247308941" lon="14.292953964662479"><ele>50.5</ele><time>2026-05-02T07:25:08Z</time></trkpt><trkpt lat="41.08111256002218" lon="14.29322876011788"><ele>49.0</ele><time>2026-05-02T07:25:09Z</time></trkpt><trkpt lat="41.080852477068404" lon="14.293504637846995"><ele>49.0</ele><time>2026-05-02T07:25:10Z</time></trkpt><trkpt lat="41.08059314712858" lon="14.29378128755556"><ele>49.0</ele><time>2026-05-02T07:25:11Z</time></trkpt><trkpt lat="41.080332651567325" lon="14.294054128617704"><ele>48.5</ele><time>2026-05-02T07:25:12Z</time></trkpt><trkpt lat="41.08007044366236" lon="14.294323347782267"><ele>48.0</ele><time>2026-05-02T07:25:13Z</time></trkpt><trkpt lat="41.079808175057025" lon="14.294595264462682"><ele>49.0</ele><time>2026-05-02T07:25:14Z</time></trkpt><trkpt lat="41.07954494789239" lon="14.294868925056997"><ele>50.0</ele><time>2026-05-02T07:25:15Z</time></trkpt><trkpt lat="41.0792828023144" lon="14.295145310421885"><ele>48.5</ele><time>2026-05-02T07:25:16Z</time></trkpt><trkpt lat="41.07901965390732" lon="14.295420792130239"><ele>47.0</ele><time>2026-05-02T07:25:17Z</time></trkpt><trkpt lat="41.078753499141236" lon="14.295691792757637"><ele>46.5</ele><time>2026-05-02T07:25:18Z</time></trkpt><trkpt lat="41.078488092779786" lon="14.295960022434837"><ele>46.0</ele><time>2026-05-02T07:25:19Z</time></trkpt><trkpt lat="41.07822650886671" lon="14.296228610351392"><ele>46.0</ele><time>2026-05-02T07:25:20Z</time></trkpt><trkpt lat="41.077964181740164" lon="14.2964996566248"><ele>46.0</ele><time>2026-05-02T07:25:21Z</time></trkpt><trkpt lat="41.07770093539448" lon="14.296770348226854"><ele>46.0</ele><time>2026-05-02T07:25:22Z</time></trkpt><trkpt lat="41.07743757213465" lon="14.297041457885474"><ele>46.0</ele><time>2026-05-02T07:25:23Z</time></trkpt><trkpt lat="41.0771746191316" lon="14.297315901254176"><ele>45.0</ele><time>2026-05-02T07:25:24Z</time></trkpt><trkpt lat="41.07691340710896" lon="14.297591799451022"><ele>44.0</ele><time>2026-05-02T07:25:25Z</time></trkpt><trkpt lat="41.076652287698266" lon="14.297867144537426"><ele>46.5</ele><time>2026-05-02T07:25:26Z</time></trkpt><trkpt lat="41.07638962160607" lon="14.298141947508586"><ele>49.0</ele><time>2026-05-02T07:25:27Z</time></trkpt><trkpt lat="41.07612775584865" lon="14.298418142361127"><ele>49.0</ele><time>2026-05-02T07:25:28Z</time></trkpt><trkpt lat="41.07586945319356" lon="14.298695175372085"><ele>49.0</ele><time>2026-05-02T07:25:29Z</time></trkpt><trkpt lat="41.07561028785398" lon="14.298972618938757"><ele>48.5</ele><time>2026-05-02T07:25:30Z</time></trkpt><trkpt lat="41.0753541554439" lon="14.299249628207788"><ele>48.0</ele><time>2026-05-02T07:25:31Z</time></trkpt><trkpt lat="41.07509641933203" lon="14.299526120232757"><ele>49.0</ele><time>2026-05-02T07:25:32Z</time></trkpt><trkpt lat="41.07483822530384" lon="14.299799044832135"><ele>50.0</ele><time>2026-05-02T07:25:33Z</time></trkpt><trkpt lat="41.07457695151025" lon="14.300073270346136"><ele>50.0</ele><time>2026-05-02T07:25:34Z</time></trkpt><trkpt lat="41.07431795007227" lon="14.300347900366726"><ele>50.0</ele><time>2026-05-02T07:25:35Z</time></trkpt><trkpt lat="41.07405768074226" lon="14.300621124423284"><ele>51.0</ele><time>2026-05-02T07:25:36Z</time></trkpt><trkpt lat="41.07379732851666" lon="14.300895487660979"><ele>52.0</ele><time>2026-05-02T07:25:37Z</time></trkpt><trkpt lat="41.07353517364255" lon="14.301171055951302"><ele>52.5</ele><time>2026-05-02T07:25:38Z</time></trkpt><trkpt lat="41.073272435111484" lon="14.301444936590487"><ele>53.0</ele><time>2026-05-02T07:25:39Z</time></trkpt><trkpt lat="41.073011415000984" lon="14.30171880847908"><ele>53.5</ele><time>2026-05-02T07:25:40Z</time></trkpt><trkpt lat="41.072748136939815" lon="14.301991149770755"><ele>54.0</ele><time>2026-05-02T07:25:41Z</time></trkpt><trkpt lat="41.0724844761935" lon="14.302260914628375"><ele>54.0</ele><time>2026-05-02T07:25:42Z</time></trkpt><trkpt lat="41.07222002922778" lon="14.302532653617707"><ele>54.0</ele><time>2026-05-02T07:25:43Z</time></trkpt><trkpt lat="41.07195631082946" lon="14.30280502804948"><ele>54.0</ele><time>2026-05-02T07:25:44Z</time></trkpt><trkpt lat="41.07169255672358" lon="14.30307610759835"><ele>54.0</ele><time>2026-05-02T07:25:45Z</time></trkpt><trkpt lat="41.07142771888262" lon="14.303342199713532"><ele>53.5</ele><time>2026-05-02T07:25:46Z</time></trkpt><trkpt lat="41.07115710348164" lon="14.303599563607499"><ele>53.0</ele><time>2026-05-02T07:25:47Z</time></trkpt><trkpt lat="41.07088048250283" lon="14.303844914674105"><ele>53.5</ele><time>2026-05-02T07:25:48Z</time></trkpt><trkpt lat="41.07059919499498" lon="14.304078099963254"><ele>54.0</ele><time>2026-05-02T07:25:49Z</time></trkpt><trkpt lat="41.07031430612811" lon="14.30430012339667"><ele>54.0</ele><time>2026-05-02T07:25:50Z</time></trkpt><trkpt lat="41.070024799940875" lon="14.304515555114644"><ele>54.0</ele><time>2026-05-02T07:25:51Z</time></trkpt><trkpt lat="41.069734389957716" lon="14.304727935745285"><ele>54.5</ele><time>2026-05-02T07:25:52Z</time></trkpt><trkpt lat="41.069443667081195" lon="14.304944422171898"><ele>55.0</ele><time>2026-05-02T07:25:53Z</time></trkpt><trkpt lat="41.069154053349926" lon="14.30516161502487"><ele>55.0</ele><time>2026-05-02T07:25:54Z</time></trkpt><trkpt lat="41.068864773397756" lon="14.305378017653657"><ele>55.0</ele><time>2026-05-02T07:25:55Z</time></trkpt><trkpt lat="41.06857451653571" lon="14.3055935523826"><ele>55.0</ele><time>2026-05-02T07:25:56Z</time></trkpt><trkpt lat="41.068284395127904" lon="14.305806350791524"><ele>55.0</ele><time>2026-05-02T07:25:57Z</time></trkpt><trkpt lat="41.067993350229656" lon="14.306020772389449"><ele>55.0</ele><time>2026-05-02T07:25:58Z</time></trkpt><trkpt lat="41.06770319353486" lon="14.306233068557143"><ele>55.0</ele><time>2026-05-02T07:25:59Z</time></trkpt><trkpt lat="41.067411765335265" lon="14.306443989809798"><ele>55.5</ele><time>2026-05-02T07:26:00Z</time></trkpt><trkpt lat="41.0671175623635" lon="14.306657195069642"><ele>56.0</ele><time>2026-05-02T07:26:01Z</time></trkpt><trkpt lat="41.06682361005681" lon="14.30687070719048"><ele>55.5</ele><time>2026-05-02T07:26:02Z</time></trkpt><trkpt lat="41.06653193764471" lon="14.307086785772066"><ele>55.0</ele><time>2026-05-02T07:26:03Z</time></trkpt><trkpt lat="41.06624037732684" lon="14.307302344277144"><ele>55.0</ele><time>2026-05-02T07:26:04Z</time></trkpt><trkpt lat="41.065947978132215" lon="14.307518650395952"><ele>55.0</ele><time>2026-05-02T07:26:05Z</time></trkpt><trkpt lat="41.065656985371" lon="14.307734263930737"><ele>55.0</ele><time>2026-05-02T07:26:06Z</time></trkpt><trkpt lat="41.06536668120385" lon="14.307948023461337"><ele>55.0</ele><time>2026-05-02T07:26:07Z</time></trkpt><trkpt lat="41.06507658386174" lon="14.308164032363218"><ele>55.5</ele><time>2026-05-02T07:26:08Z</time></trkpt><trkpt lat="41.064784549484145" lon="14.308379311563023"><ele>56.0</ele><time>2026-05-02T07:26:09Z</time></trkpt><trkpt lat="41.064492252783204" lon="14.30859219540355"><ele>56.0</ele><time>2026-05-02T07:26:10Z</time></trkpt><trkpt lat="41.06419983083229" lon="14.308803926633686"><ele>56.0</ele><time>2026-05-02T07:26:11Z</time></trkpt><trkpt lat="41.06390697195225" lon="14.309013537636066"><ele>56.5</ele><time>2026-05-02T07:26:12Z</time></trkpt><trkpt lat="41.06361442723159" lon="14.30922540442749"><ele>57.0</ele><time>2026-05-02T07:26:13Z</time></trkpt><trkpt lat="41.06332306153662" lon="14.309440050468714"><ele>57.0</ele><time>2026-05-02T07:26:14Z</time></trkpt><trkpt lat="41.063032954381484" lon="14.309658814538942"><ele>57.0</ele><time>2026-05-02T07:26:15Z</time></trkpt><trkpt lat="41.06274522970036" lon="14.309883544487294"><ele>57.0</ele><time>2026-05-02T07:26:16Z</time></trkpt><trkpt lat="41.06246059358991" lon="14.310112790274573"><ele>57.0</ele><time>2026-05-02T07:26:17Z</time></trkpt><trkpt lat="41.06217993709117" lon="14.310347129935312"><ele>56.5</ele><time>2026-05-02T07:26:18Z</time></trkpt><trkpt lat="41.06190422323713" lon="14.310583963510162"><ele>56.0</ele><time>2026-05-02T07:26:19Z</time></trkpt><trkpt lat="41.061631450426965" lon="14.31082320848092"><ele>55.5</ele><time>2026-05-02T07:26:20Z</time></trkpt><trkpt lat="41.06135875697644" lon="14.311064429626505"><ele>55.0</ele><time>2026-05-02T07:26:21Z</time></trkpt><trkpt lat="41.06108943433705" lon="14.311313220440539"><ele>54.5</ele><time>2026-05-02T07:26:22Z</time></trkpt><trkpt lat="41.06082440015351" lon="14.311568214772981"><ele>54.0</ele><time>2026-05-02T07:26:23Z</time></trkpt><trkpt lat="41.060560255117444" lon="14.311825945738189"><ele>54.0</ele><time>2026-05-02T07:26:24Z</time></trkpt><trkpt lat="41.06029890529601" lon="14.312087306711295"><ele>54.0</ele><time>2026-05-02T07:26:25Z</time></trkpt><trkpt lat="41.060042684670094" lon="14.312350826745485"><ele>53.0</ele><time>2026-05-02T07:26:26Z</time></trkpt><trkpt lat="41.05978677990508" lon="14.312610421662644"><ele>52.0</ele><time>2026-05-02T07:26:27Z</time></trkpt><trkpt lat="41.059534897716944" lon="14.312876512456768"><ele>52.5</ele><time>2026-05-02T07:26:28Z</time></trkpt><trkpt lat="41.05928651009181" lon="14.31313713845273"><ele>53.0</ele><time>2026-05-02T07:26:29Z</time></trkpt><trkpt lat="41.05904200055541" lon="14.313391940159628"><ele>52.0</ele><time>2026-05-02T07:26:30Z</time></trkpt><trkpt lat="41.05880400615617" lon="14.313640037309863"><ele>51.0</ele><time>2026-05-02T07:26:31Z</time></trkpt><trkpt lat="41.05856971195256" lon="14.313880488800795"><ele>51.0</ele><time>2026-05-02T07:26:32Z</time></trkpt><trkpt lat="41.05834007966261" lon="14.314120993354578"><ele>51.0</ele><time>2026-05-02T07:26:33Z</time></trkpt><trkpt lat="41.05811658127005" lon="14.314360589031855"><ele>50.5</ele><time>2026-05-02T07:26:34Z</time></trkpt><trkpt lat="41.05789595843464" lon="14.314593390421733"><ele>50.0</ele><time>2026-05-02T07:26:35Z</time></trkpt><trkpt lat="41.05768019776196" lon="14.314817351542539"><ele>50.0</ele><time>2026-05-02T07:26:36Z</time></trkpt><trkpt lat="41.05747343411829" lon="14.315038302901296"><ele>50.0</ele><time>2026-05-02T07:26:37Z</time></trkpt><trkpt lat="41.05727346584797" lon="14.315254073120814"><ele>49.5</ele><time>2026-05-02T07:26:38Z</time></trkpt><trkpt lat="41.05707745413996" lon="14.315462142175473"><ele>49.0</ele><time>2026-05-02T07:26:39Z</time></trkpt><trkpt lat="41.056892718191065" lon="14.315658082643658"><ele>48.666666666666664</ele><time>2026-05-02T07:26:40Z</time></trkpt><trkpt lat="41.05672116931546" lon="14.315843811341908"><ele>48.33333333333333</ele><time>2026-05-02T07:26:41Z</time></trkpt><trkpt lat="41.05656151750548" lon="14.316014688080404"><ele>48.0</ele><time>2026-05-02T07:26:41.999Z</time></trkpt><trkpt lat="41.05641015999487" lon="14.31617672670411"><ele>47.666666666666664</ele><time>2026-05-02T07:26:42.999Z</time></trkpt><trkpt lat="41.056266005902074" lon="14.316331600054376"><ele>47.33333333333333</ele><time>2026-05-02T07:26:43.999Z</time></trkpt><trkpt lat="41.05612359096495" lon="14.316487032503707"><ele>47.0</ele><time>2026-05-02T07:26:44.999Z</time></trkpt><trkpt lat="41.05598221188433" lon="14.316644579415035"><ele>46.666666666666664</ele><time>2026-05-02T07:26:45.999Z</time></trkpt><trkpt lat="41.05583765524008" lon="14.31680134384984"><ele>46.333333333333336</ele><time>2026-05-02T07:26:46.999Z</time></trkpt><trkpt lat="41.05569238962801" lon="14.31695652720308"><ele>46.0</ele><time>2026-05-02T07:26:48Z</time></trkpt><trkpt lat="41.05554635412394" lon="14.317107436900345"><ele>46.0</ele><time>2026-05-02T07:26:49Z</time></trkpt><trkpt lat="41.05539879239476" lon="14.317263930706181"><ele>46.0</ele><time>2026-05-02T07:26:50Z</time></trkpt><trkpt lat="41.05525259456884" lon="14.31742442268843"><ele>46.0</ele><time>2026-05-02T07:26:51Z</time></trkpt><trkpt lat="41.05510496961522" lon="14.31758518379789"><ele>46.0</ele><time>2026-05-02T07:26:52Z</time></trkpt><trkpt lat="41.054957984174166" lon="14.317746278998392"><ele>46.0</ele><time>2026-05-02T07:26:53Z</time></trkpt><trkpt lat="41.054809784452495" lon="14.317907945416746"><ele>46.0</ele><time>2026-05-02T07:26:54Z</time></trkpt><trkpt lat="41.0546600104726" lon="14.31807263914193"><ele>45.66666666666667</ele><time>2026-05-02T07:26:55Z</time></trkpt><trkpt lat="41.05450294113717" lon="14.318250198989555"><ele>45.333333333333336</ele><time>2026-05-02T07:26:56Z</time></trkpt><trkpt lat="41.05434241610497" lon="14.318428628468222"><ele>45.0</ele><time>2026-05-02T07:26:57Z</time></trkpt><trkpt lat="41.05418805919644" lon="14.318590847826979"><ele>44.666666666666664</ele><time>2026-05-02T07:26:58Z</time></trkpt><trkpt lat="41.054038264680685" lon="14.318747161654443"><ele>44.33333333333333</ele><time>2026-05-02T07:26:59Z</time></trkpt><trkpt lat="41.05388027318267" lon="14.318914811568353"><ele>44.0</ele><time>2026-05-02T07:27:00Z</time></trkpt><trkpt lat="41.05370861799663" lon="14.319090468374812"><ele>44.0</ele><time>2026-05-02T07:27:01Z</time></trkpt><trkpt lat="41.053530850977715" lon="14.319284361087808"><ele>44.0</ele><time>2026-05-02T07:27:02Z</time></trkpt><trkpt lat="41.05334547622084" lon="14.319484988028751"><ele>44.0</ele><time>2026-05-02T07:27:03Z</time></trkpt><trkpt lat="41.05314939023281" lon="14.319692150251548"><ele>44.0</ele><time>2026-05-02T07:27:04Z</time></trkpt><trkpt lat="41.0529442931837" lon="14.319902598969515"><ele>44.0</ele><time>2026-05-02T07:27:05Z</time></trkpt><trkpt lat="41.05272959348093" lon="14.320115626044519"><ele>44.0</ele><time>2026-05-02T07:27:06Z</time></trkpt><trkpt lat="41.05250336261239" lon="14.320328215036286"><ele>43.5</ele><time>2026-05-02T07:27:07Z</time></trkpt><trkpt lat="41.052265585072696" lon="14.32053924439097"><ele>43.0</ele><time>2026-05-02T07:27:08Z</time></trkpt><trkpt lat="41.052020099249" lon="14.320742942741756"><ele>43.5</ele><time>2026-05-02T07:27:09Z</time></trkpt><trkpt lat="41.05176744674981" lon="14.320944184198929"><ele>44.0</ele><time>2026-05-02T07:27:10Z</time></trkpt><trkpt lat="41.05150547131076" lon="14.321134857396435"><ele>44.0</ele><time>2026-05-02T07:27:11Z</time></trkpt><trkpt lat="41.051235773664104" lon="14.32131332324868"><ele>44.0</ele><time>2026-05-02T07:27:12Z</time></trkpt><trkpt lat="41.0509576092672" lon="14.321478728015379"><ele>44.0</ele><time>2026-05-02T07:27:13Z</time></trkpt><trkpt lat="41.05067262156449" lon="14.321632116331932"><ele>44.0</ele><time>2026-05-02T07:27:14Z</time></trkpt><trkpt lat="41.05038164835757" lon="14.321776582062713"><ele>44.0</ele><time>2026-05-02T07:27:15Z</time></trkpt><trkpt lat="41.050087457638625" lon="14.321904180488296"><ele>44.0</ele><time>2026-05-02T07:27:16Z</time></trkpt><trkpt lat="41.04978980004173" lon="14.322019348041136"><ele>43.0</ele><time>2026-05-02T07:27:17Z</time></trkpt><trkpt lat="41.049490510100455" lon="14.322118117816132"><ele>42.0</ele><time>2026-05-02T07:27:18Z</time></trkpt><trkpt lat="41.04919134784394" lon="14.32220360004357"><ele>42.5</ele><time>2026-05-02T07:27:19Z</time></trkpt><trkpt lat="41.04889517601584" lon="14.322273083869382"><ele>43.0</ele><time>2026-05-02T07:27:20Z</time></trkpt><trkpt lat="41.04859708976195" lon="14.322331495468928"><ele>43.0</ele><time>2026-05-02T07:27:21Z</time></trkpt><trkpt lat="41.04830076673472" lon="14.322376848269835"><ele>43.0</ele><time>2026-05-02T07:27:22Z</time></trkpt><trkpt lat="41.048001079578455" lon="14.322403381372057"><ele>43.0</ele><time>2026-05-02T07:27:23Z</time></trkpt><trkpt lat="41.047708371949035" lon="14.32241797428171"><ele>43.0</ele><time>2026-05-02T07:27:24Z</time></trkpt><trkpt lat="41.04741582053829" lon="14.322425429015368"><ele>42.0</ele><time>2026-05-02T07:27:25Z</time></trkpt><trkpt lat="41.04713123421136" lon="14.32243087200336"><ele>41.0</ele><time>2026-05-02T07:27:26Z</time></trkpt><trkpt lat="41.04686129580862" lon="14.322428294642975"><ele>40.0</ele><time>2026-05-02T07:27:27Z</time></trkpt><trkpt lat="41.0466024706342" lon="14.322426079455218"><ele>39.0</ele><time>2026-05-02T07:27:28Z</time></trkpt><trkpt lat="41.04635030908212" lon="14.322419433737924"><ele>39.0</ele><time>2026-05-02T07:27:29Z</time></trkpt><trkpt lat="41.0461079050612" lon="14.32241134029848"><ele>39.0</ele><time>2026-05-02T07:27:30Z</time></trkpt><trkpt lat="41.04587035970553" lon="14.322401758597346"><ele>38.0</ele><time>2026-05-02T07:27:31Z</time></trkpt><trkpt lat="41.04563586298653" lon="14.32239546242233"><ele>37.0</ele><time>2026-05-02T07:27:32Z</time></trkpt><trkpt lat="41.04540581238619" lon="14.322394353623844"><ele>37.0</ele><time>2026-05-02T07:27:33Z</time></trkpt><trkpt lat="41.04517531114204" lon="14.322391128783961"><ele>37.0</ele><time>2026-05-02T07:27:34Z</time></trkpt><trkpt lat="41.04494731281748" lon="14.32238823327725"><ele>37.0</ele><time>2026-05-02T07:27:35Z</time></trkpt><trkpt lat="41.04472196959935" lon="14.322386589607508"><ele>37.0</ele><time>2026-05-02T07:27:36Z</time></trkpt><trkpt lat="41.04450222488219" lon="14.322377667858412"><ele>37.0</ele><time>2026-05-02T07:27:37Z</time></trkpt><trkpt lat="41.04428473944864" lon="14.322373210839263"><ele>37.333333333333336</ele><time>2026-05-02T07:27:38Z</time></trkpt><trkpt lat="41.04406941882474" lon="14.322368837594212"><ele>37.666666666666664</ele><time>2026-05-02T07:27:39Z</time></trkpt><trkpt lat="41.043852497371894" lon="14.322370922717809"><ele>38.0</ele><time>2026-05-02T07:27:40Z</time></trkpt><trkpt lat="41.04363865214647" lon="14.32237011256447"><ele>38.0</ele><time>2026-05-02T07:27:41Z</time></trkpt><trkpt lat="41.043424876981106" lon="14.32236617173518"><ele>38.0</ele><time>2026-05-02T07:27:42Z</time></trkpt><trkpt lat="41.04321780278949" lon="14.322357335625256"><ele>38.0</ele><time>2026-05-02T07:27:43Z</time></trkpt><trkpt lat="41.043015886494196" lon="14.322348519501523"><ele>38.0</ele><time>2026-05-02T07:27:44Z</time></trkpt><trkpt lat="41.04281584323433" lon="14.322334666336173"><ele>38.0</ele><time>2026-05-02T07:27:45Z</time></trkpt><trkpt lat="41.042617983315765" lon="14.322324350102528"><ele>38.0</ele><time>2026-05-02T07:27:46Z</time></trkpt><trkpt lat="41.04242957977528" lon="14.322317404401515"><ele>38.0</ele><time>2026-05-02T07:27:47Z</time></trkpt><trkpt lat="41.04224800769078" lon="14.322308713235634"><ele>38.0</ele><time>2026-05-02T07:27:48Z</time></trkpt><trkpt lat="41.04207405261329" lon="14.322299239604705"><ele>38.0</ele><time>2026-05-02T07:27:49Z</time></trkpt><trkpt lat="41.041908349895024" lon="14.322289512326797"><ele>38.0</ele><time>2026-05-02T07:27:50Z</time></trkpt><trkpt lat="41.041743537246795" lon="14.322276667218182"><ele>38.0</ele><time>2026-05-02T07:27:51Z</time></trkpt><trkpt lat="41.041579903658835" lon="14.322261845791148"><ele>38.0</ele><time>2026-05-02T07:27:52Z</time></trkpt><trkpt lat="41.04141325794175" lon="14.322238287485469"><ele>37.33333333333333</ele><time>2026-05-02T07:27:53Z</time></trkpt><trkpt lat="41.04124477338095" lon="14.322208005718789"><ele>36.666666666666664</ele><time>2026-05-02T07:27:54Z</time></trkpt><trkpt lat="41.04107667969941" lon="14.322175302862169"><ele>36.0</ele><time>2026-05-02T07:27:55Z</time></trkpt><trkpt lat="41.040907754964756" lon="14.322130932061343"><ele>36.333333333333336</ele><time>2026-05-02T07:27:56Z</time></trkpt><trkpt lat="41.04073714666161" lon="14.322072880948367"><ele>36.66666666666667</ele><time>2026-05-02T07:27:57Z</time></trkpt><trkpt lat="41.040559332732634" lon="14.322009507683092"><ele>37.0</ele><time>2026-05-02T07:27:58Z</time></trkpt><trkpt lat="41.04037183078272" lon="14.321939279323551"><ele>37.0</ele><time>2026-05-02T07:27:59Z</time></trkpt><trkpt lat="41.040182169488595" lon="14.321858327617967"><ele>37.0</ele><time>2026-05-02T07:28:00Z</time></trkpt><trkpt lat="41.03998738158636" lon="14.321757688584764"><ele>37.0</ele><time>2026-05-02T07:28:01Z</time></trkpt><trkpt lat="41.03978831525005" lon="14.32164191609813"><ele>37.0</ele><time>2026-05-02T07:28:02Z</time></trkpt><trkpt lat="41.03958912306265" lon="14.32151490198428"><ele>37.0</ele><time>2026-05-02T07:28:03Z</time></trkpt><trkpt lat="41.0393934741684" lon="14.32138819284206"><ele>37.0</ele><time>2026-05-02T07:28:04Z</time></trkpt><trkpt lat="41.039199967238595" lon="14.321259056304807"><ele>36.333333333333336</ele><time>2026-05-02T07:28:05Z</time></trkpt><trkpt lat="41.038998509880244" lon="14.321160384667394"><ele>35.666666666666664</ele><time>2026-05-02T07:28:06Z</time></trkpt><trkpt lat="41.03878225494891" lon="14.32106638701158"><ele>35.0</ele><time>2026-05-02T07:28:07Z</time></trkpt><trkpt lat="41.03855810834309" lon="14.321010885469677"><ele>35.0</ele><time>2026-05-02T07:28:08Z</time></trkpt><trkpt lat="41.03832611683191" lon="14.320995535577655"><ele>35.0</ele><time>2026-05-02T07:28:09Z</time></trkpt><trkpt lat="41.038089917929774" lon="14.321018179195045"><ele>35.5</ele><time>2026-05-02T07:28:10Z</time></trkpt><trkpt lat="41.03785557451681" lon="14.321080963692003"><ele>36.0</ele><time>2026-05-02T07:28:11Z</time></trkpt><trkpt lat="41.03763751364693" lon="14.321190479246013"><ele>36.0</ele><time>2026-05-02T07:28:12Z</time></trkpt><trkpt lat="41.03744555713198" lon="14.321357945234848"><ele>36.0</ele><time>2026-05-02T07:28:13Z</time></trkpt><trkpt lat="41.03727071912132" lon="14.321563205213007"><ele>36.5</ele><time>2026-05-02T07:28:14Z</time></trkpt><trkpt lat="41.03711429663284" lon="14.321798647114642"><ele>37.0</ele><time>2026-05-02T07:28:15Z</time></trkpt><trkpt lat="41.03698474260048" lon="14.3220696287394"><ele>37.0</ele><time>2026-05-02T07:28:16Z</time></trkpt><trkpt lat="41.0368814476504" lon="14.322364438740205"><ele>37.0</ele><time>2026-05-02T07:28:17Z</time></trkpt><trkpt lat="41.03679344837814" lon="14.322669793960886"><ele>37.0</ele><time>2026-05-02T07:28:18Z</time></trkpt><trkpt lat="41.036710451759426" lon="14.322994781629705"><ele>37.0</ele><time>2026-05-02T07:28:19Z</time></trkpt><trkpt lat="41.03662331333894" lon="14.323322741904676"><ele>37.0</ele><time>2026-05-02T07:28:20Z</time></trkpt><trkpt lat="41.03653345342219" lon="14.323661237711574"><ele>37.0</ele><time>2026-05-02T07:28:21Z</time></trkpt><trkpt lat="41.036441553322845" lon="14.324006919357332"><ele>37.0</ele><time>2026-05-02T07:28:22Z</time></trkpt><trkpt lat="41.03634681451437" lon="14.324363229436706"><ele>37.0</ele><time>2026-05-02T07:28:23Z</time></trkpt><trkpt lat="41.03624867311486" lon="14.324728355698566"><ele>37.5</ele><time>2026-05-02T07:28:24Z</time></trkpt><trkpt lat="41.03615094309791" lon="14.325101069508696"><ele>38.0</ele><time>2026-05-02T07:28:25Z</time></trkpt><trkpt lat="41.03605167293954" lon="14.325482814413023"><ele>38.5</ele><time>2026-05-02T07:28:26Z</time></trkpt><trkpt lat="41.03595164641021" lon="14.325870967099391"><ele>39.0</ele><time>2026-05-02T07:28:27Z</time></trkpt><trkpt lat="41.03585098967622" lon="14.326263119719034"><ele>37.5</ele><time>2026-05-02T07:28:28Z</time></trkpt><trkpt lat="41.03574690894054" lon="14.326661205538763"><ele>36.0</ele><time>2026-05-02T07:28:29Z</time></trkpt><trkpt lat="41.03564243167798" lon="14.327062215941439"><ele>35.5</ele><time>2026-05-02T07:28:30Z</time></trkpt><trkpt lat="41.035535477983984" lon="14.327472863021958"><ele>35.0</ele><time>2026-05-02T07:28:31Z</time></trkpt><trkpt lat="41.03542794767685" lon="14.327888989560849"><ele>36.0</ele><time>2026-05-02T07:28:32Z</time></trkpt><trkpt lat="41.03532058743167" lon="14.328304164459777"><ele>37.0</ele><time>2026-05-02T07:28:33Z</time></trkpt><trkpt lat="41.03521181835791" lon="14.328720542116788"><ele>38.5</ele><time>2026-05-02T07:28:34Z</time></trkpt><trkpt lat="41.03510184090847" lon="14.329136691846216"><ele>40.0</ele><time>2026-05-02T07:28:35Z</time></trkpt><trkpt lat="41.034991214088514" lon="14.329552965740152"><ele>38.0</ele><time>2026-05-02T07:28:36Z</time></trkpt><trkpt lat="41.03488154500494" lon="14.329971778588112"><ele>36.0</ele><time>2026-05-02T07:28:36.999Z</time></trkpt><trkpt lat="41.03477457417934" lon="14.330390140123432"><ele>36.0</ele><time>2026-05-02T07:28:37.999Z</time></trkpt><trkpt lat="41.034673483884966" lon="14.330806077840272"><ele>36.0</ele><time>2026-05-02T07:28:38.999Z</time></trkpt><trkpt lat="41.03457174207282" lon="14.331218157779967"><ele>36.0</ele><time>2026-05-02T07:28:39.999Z</time></trkpt><trkpt lat="41.0344652174135" lon="14.331629508645534"><ele>36.0</ele><time>2026-05-02T07:28:40.999Z</time></trkpt><trkpt lat="41.034357016570965" lon="14.332041672524916"><ele>37.5</ele><time>2026-05-02T07:28:41.999Z</time></trkpt><trkpt lat="41.034249505106104" lon="14.332452753577558"><ele>39.0</ele><time>2026-05-02T07:28:42.999Z</time></trkpt><trkpt lat="41.03413935109948" lon="14.332863381630172"><ele>38.5</ele><time>2026-05-02T07:28:43.999Z</time></trkpt><trkpt lat="41.034025089620435" lon="14.333274542792985"><ele>38.0</ele><time>2026-05-02T07:28:44.999Z</time></trkpt><trkpt lat="41.033909965513146" lon="14.333685612127757"><ele>38.0</ele><time>2026-05-02T07:28:45.999Z</time></trkpt><trkpt lat="41.03379368099436" lon="14.33409845274058"><ele>38.0</ele><time>2026-05-02T07:28:46.999Z</time></trkpt><trkpt lat="41.0336787422636" lon="14.334510906048902"><ele>39.5</ele><time>2026-05-02T07:28:47.999Z</time></trkpt><trkpt lat="41.033567163438846" lon="14.334924594796435"><ele>41.0</ele><time>2026-05-02T07:28:48.999Z</time></trkpt><trkpt lat="41.03345793999904" lon="14.335338907870756"><ele>41.5</ele><time>2026-05-02T07:28:49.999Z</time></trkpt><trkpt lat="41.03334825219771" lon="14.335753437328936"><ele>42.0</ele><time>2026-05-02T07:28:50.999Z</time></trkpt><trkpt lat="41.03323875889979" lon="14.336170141945185"><ele>40.5</ele><time>2026-05-02T07:28:51.999Z</time></trkpt><trkpt lat="41.033129497296216" lon="14.336587626502311"><ele>39.0</ele><time>2026-05-02T07:28:52.999Z</time></trkpt><trkpt lat="41.033020030741056" lon="14.337004739275194"><ele>40.5</ele><time>2026-05-02T07:28:54Z</time></trkpt><trkpt lat="41.03291180802955" lon="14.337421352792266"><ele>42.0</ele><time>2026-05-02T07:28:55Z</time></trkpt><trkpt lat="41.03280462632823" lon="14.33783677687278"><ele>43.0</ele><time>2026-05-02T07:28:56Z</time></trkpt><trkpt lat="41.03269600320406" lon="14.338253976473183"><ele>44.0</ele><time>2026-05-02T07:28:57Z</time></trkpt><trkpt lat="41.032586722693694" lon="14.33867193358795"><ele>43.5</ele><time>2026-05-02T07:28:58Z</time></trkpt><trkpt lat="41.032476546083196" lon="14.339090094106433"><ele>43.0</ele><time>2026-05-02T07:28:59Z</time></trkpt><trkpt lat="41.032367078692914" lon="14.33950580494889"><ele>42.0</ele><time>2026-05-02T07:29:00Z</time></trkpt><trkpt lat="41.03225846331223" lon="14.339922558073495"><ele>41.0</ele><time>2026-05-02T07:29:01Z</time></trkpt><trkpt lat="41.03215051832048" lon="14.34034048049313"><ele>42.5</ele><time>2026-05-02T07:29:02Z</time></trkpt><trkpt lat="41.03204157028086" lon="14.34075916072183"><ele>44.0</ele><time>2026-05-02T07:29:03Z</time></trkpt><trkpt lat="41.03193307375327" lon="14.341175998118937"><ele>45.0</ele><time>2026-05-02T07:29:04Z</time></trkpt><trkpt lat="41.03182411843745" lon="14.34159363234286"><ele>46.0</ele><time>2026-05-02T07:29:05Z</time></trkpt><trkpt lat="41.031715911155025" lon="14.342012756682243"><ele>43.5</ele><time>2026-05-02T07:29:06Z</time></trkpt><trkpt lat="41.0316080880757" lon="14.34242807746633"><ele>41.0</ele><time>2026-05-02T07:29:07Z</time></trkpt><trkpt lat="41.03149915895031" lon="14.342845061152673"><ele>41.5</ele><time>2026-05-02T07:29:08Z</time></trkpt><trkpt lat="41.031390070413515" lon="14.343262021170382"><ele>42.0</ele><time>2026-05-02T07:29:09Z</time></trkpt><trkpt lat="41.03128135679205" lon="14.343678678664865"><ele>42.5</ele><time>2026-05-02T07:29:10Z</time></trkpt><trkpt lat="41.03117097518404" lon="14.344094376060012"><ele>43.0</ele><time>2026-05-02T07:29:11Z</time></trkpt><trkpt lat="41.03106245441274" lon="14.344512192571427"><ele>43.0</ele><time>2026-05-02T07:29:12Z</time></trkpt><trkpt lat="41.03094955912424" lon="14.344929000513375"><ele>43.0</ele><time>2026-05-02T07:29:13Z</time></trkpt><trkpt lat="41.0308346258097" lon="14.345342202756893"><ele>41.5</ele><time>2026-05-02T07:29:14Z</time></trkpt><trkpt lat="41.03071335682693" lon="14.34575067270991"><ele>40.0</ele><time>2026-05-02T07:29:15Z</time></trkpt><trkpt lat="41.03058741971686" lon="14.346157765204975"><ele>40.0</ele><time>2026-05-02T07:29:16Z</time></trkpt><trkpt lat="41.03045726065309" lon="14.346564368879545"><ele>40.0</ele><time>2026-05-02T07:29:17Z</time></trkpt><trkpt lat="41.030323994039406" lon="14.346968720590553"><ele>40.0</ele><time>2026-05-02T07:29:18Z</time></trkpt><trkpt lat="41.03018582959703" lon="14.347372154471339"><ele>40.0</ele><time>2026-05-02T07:29:19Z</time></trkpt><trkpt lat="41.03004436288384" lon="14.347772685084072"><ele>39.0</ele><time>2026-05-02T07:29:20Z</time></trkpt><trkpt lat="41.02989897971907" lon="14.34817365979199"><ele>38.0</ele><time>2026-05-02T07:29:21Z</time></trkpt><trkpt lat="41.0297522021771" lon="14.34857052056243"><ele>38.5</ele><time>2026-05-02T07:29:22Z</time></trkpt><trkpt lat="41.029601997365745" lon="14.348963898200182"><ele>39.0</ele><time>2026-05-02T07:29:23Z</time></trkpt><trkpt lat="41.02944712006042" lon="14.349354566110497"><ele>40.0</ele><time>2026-05-02T07:29:24Z</time></trkpt><trkpt lat="41.029289380557216" lon="14.349742541387258"><ele>41.0</ele><time>2026-05-02T07:29:25Z</time></trkpt><trkpt lat="41.029129749425834" lon="14.350124371502131"><ele>41.0</ele><time>2026-05-02T07:29:26Z</time></trkpt><trkpt lat="41.02897180591744" lon="14.350498364554133"><ele>41.0</ele><time>2026-05-02T07:29:27Z</time></trkpt><trkpt lat="41.02881866461525" lon="14.350862980818047"><ele>41.0</ele><time>2026-05-02T07:29:28Z</time></trkpt><trkpt lat="41.02866067609161" lon="14.351227069305068"><ele>41.0</ele><time>2026-05-02T07:29:29Z</time></trkpt><trkpt lat="41.02849445550722" lon="14.351592139223605"><ele>41.5</ele><time>2026-05-02T07:29:30Z</time></trkpt><trkpt lat="41.02832106814391" lon="14.351954343682229"><ele>42.0</ele><time>2026-05-02T07:29:31Z</time></trkpt><trkpt lat="41.02814203848917" lon="14.352313548888613"><ele>40.0</ele><time>2026-05-02T07:29:32Z</time></trkpt><trkpt lat="41.02795964799356" lon="14.35267335345882"><ele>38.0</ele><time>2026-05-02T07:29:33Z</time></trkpt><trkpt lat="41.02777105052179" lon="14.353033060053821"><ele>38.0</ele><time>2026-05-02T07:29:34Z</time></trkpt><trkpt lat="41.027579299936505" lon="14.35338951119215"><ele>38.0</ele><time>2026-05-02T07:29:35Z</time></trkpt><trkpt lat="41.02738500189186" lon="14.353744178623103"><ele>39.0</ele><time>2026-05-02T07:29:36Z</time></trkpt><trkpt lat="41.02718512710935" lon="14.354096339170745"><ele>40.0</ele><time>2026-05-02T07:29:37Z</time></trkpt><trkpt lat="41.0269819908616" lon="14.354442500645996"><ele>40.0</ele><time>2026-05-02T07:29:38Z</time></trkpt><trkpt lat="41.02677538424947" lon="14.354787863563004"><ele>40.0</ele><time>2026-05-02T07:29:39Z</time></trkpt><trkpt lat="41.026564946881216" lon="14.355128256990104"><ele>39.5</ele><time>2026-05-02T07:29:40Z</time></trkpt><trkpt lat="41.02635251366569" lon="14.35546735446489"><ele>39.0</ele><time>2026-05-02T07:29:41Z</time></trkpt><trkpt lat="41.02613858930018" lon="14.355804853555453"><ele>39.0</ele><time>2026-05-02T07:29:42Z</time></trkpt><trkpt lat="41.02592397507136" lon="14.356145165135187"><ele>39.0</ele><time>2026-05-02T07:29:43Z</time></trkpt><trkpt lat="41.025709408312736" lon="14.356487530913915"><ele>38.5</ele><time>2026-05-02T07:29:44Z</time></trkpt><trkpt lat="41.025495340501124" lon="14.356830063687942"><ele>38.0</ele><time>2026-05-02T07:29:45Z</time></trkpt><trkpt lat="41.02528137897029" lon="14.357170730189088"><ele>38.0</ele><time>2026-05-02T07:29:46Z</time></trkpt><trkpt lat="41.025066370666394" lon="14.357511740394068"><ele>38.0</ele><time>2026-05-02T07:29:47Z</time></trkpt><trkpt lat="41.02485191068227" lon="14.357852381470137"><ele>38.5</ele><time>2026-05-02T07:29:48Z</time></trkpt><trkpt lat="41.02463916487003" lon="14.358191877759177"><ele>39.0</ele><time>2026-05-02T07:29:49Z</time></trkpt><trkpt lat="41.02442535063125" lon="14.35853250677167"><ele>39.0</ele><time>2026-05-02T07:29:50Z</time></trkpt><trkpt lat="41.02421171800354" lon="14.35887236869936"><ele>39.0</ele><time>2026-05-02T07:29:51Z</time></trkpt><trkpt lat="41.02399886636883" lon="14.359212957298855"><ele>39.0</ele><time>2026-05-02T07:29:52Z</time></trkpt><trkpt lat="41.023786895981324" lon="14.359553858393992"><ele>39.0</ele><time>2026-05-02T07:29:53Z</time></trkpt><trkpt lat="41.023575048177385" lon="14.359893685508936"><ele>39.5</ele><time>2026-05-02T07:29:54Z</time></trkpt><trkpt lat="41.023362080316396" lon="14.360233657634579"><ele>40.0</ele><time>2026-05-02T07:29:55Z</time></trkpt><trkpt lat="41.023149273236946" lon="14.360573372404946"><ele>39.0</ele><time>2026-05-02T07:29:56Z</time></trkpt><trkpt lat="41.02293487248134" lon="14.360914620579496"><ele>38.0</ele><time>2026-05-02T07:29:57Z</time></trkpt><trkpt lat="41.02272204459908" lon="14.361257515012747"><ele>38.0</ele><time>2026-05-02T07:29:58Z</time></trkpt><trkpt lat="41.0225090681635" lon="14.361597982778873"><ele>38.0</ele><time>2026-05-02T07:29:59Z</time></trkpt><trkpt lat="41.02229422877772" lon="14.361935306525234"><ele>38.0</ele><time>2026-05-02T07:30:00Z</time></trkpt><trkpt lat="41.02208128414144" lon="14.362277912362204"><ele>38.0</ele><time>2026-05-02T07:30:01Z</time></trkpt><trkpt lat="41.021866475395534" lon="14.362617105916614"><ele>38.0</ele><time>2026-05-02T07:30:02Z</time></trkpt><trkpt lat="41.02165513248832" lon="14.362957788318887"><ele>38.0</ele><time>2026-05-02T07:30:03Z</time></trkpt><trkpt lat="41.02144190191183" lon="14.363295895238657"><ele>38.0</ele><time>2026-05-02T07:30:04Z</time></trkpt><trkpt lat="41.021235746218274" lon="14.363638448166334"><ele>38.0</ele><time>2026-05-02T07:30:05Z</time></trkpt><trkpt lat="41.02102346755131" lon="14.363973306299405"><ele>36.5</ele><time>2026-05-02T07:30:06Z</time></trkpt><trkpt lat="41.02081342252421" lon="14.364314697110833"><ele>35.0</ele><time>2026-05-02T07:30:07Z</time></trkpt><trkpt lat="41.02059726698078" lon="14.364649712285978"><ele>35.0</ele><time>2026-05-02T07:30:08Z</time></trkpt><trkpt lat="41.020386059927475" lon="14.364987092897831"><ele>35.0</ele><time>2026-05-02T07:30:09Z</time></trkpt><trkpt lat="41.02017600532472" lon="14.365326082351798"><ele>35.5</ele><time>2026-05-02T07:30:10Z</time></trkpt><trkpt lat="41.019964743885545" lon="14.365663225311891"><ele>36.0</ele><time>2026-05-02T07:30:11Z</time></trkpt><trkpt lat="41.019751937604894" lon="14.366003467443004"><ele>36.0</ele><time>2026-05-02T07:30:12Z</time></trkpt><trkpt lat="41.01954073423146" lon="14.366343736910355"><ele>36.0</ele><time>2026-05-02T07:30:13Z</time></trkpt><trkpt lat="41.01932650480033" lon="14.366682944224904"><ele>36.0</ele><time>2026-05-02T07:30:14Z</time></trkpt><trkpt lat="41.019113165029935" lon="14.367021337276245"><ele>36.0</ele><time>2026-05-02T07:30:15Z</time></trkpt><trkpt lat="41.018898379405634" lon="14.36735917955184"><ele>36.0</ele><time>2026-05-02T07:30:16Z</time></trkpt><trkpt lat="41.018684390960885" lon="14.367698470813165"><ele>36.0</ele><time>2026-05-02T07:30:17Z</time></trkpt><trkpt lat="41.018467763935995" lon="14.368037382549762"><ele>35.0</ele><time>2026-05-02T07:30:18Z</time></trkpt><trkpt lat="41.01825185245845" lon="14.368375002694425"><ele>34.0</ele><time>2026-05-02T07:30:19Z</time></trkpt><trkpt lat="41.01803575983532" lon="14.368712248799852"><ele>35.0</ele><time>2026-05-02T07:30:20Z</time></trkpt><trkpt lat="41.01782004981343" lon="14.369052330549152"><ele>36.0</ele><time>2026-05-02T07:30:21Z</time></trkpt><trkpt lat="41.017603232174864" lon="14.369392246746285"><ele>35.0</ele><time>2026-05-02T07:30:22Z</time></trkpt><trkpt lat="41.01739094264333" lon="14.369732410620964"><ele>34.0</ele><time>2026-05-02T07:30:23Z</time></trkpt><trkpt lat="41.017177436375086" lon="14.370070086167248"><ele>34.0</ele><time>2026-05-02T07:30:24Z</time></trkpt><trkpt lat="41.01696852619175" lon="14.370413722756693"><ele>34.0</ele><time>2026-05-02T07:30:25Z</time></trkpt><trkpt lat="41.01676257452183" lon="14.370760874837302"><ele>33.5</ele><time>2026-05-02T07:30:26Z</time></trkpt><trkpt lat="41.01655939663444" lon="14.371109231752373"><ele>33.0</ele><time>2026-05-02T07:30:27Z</time></trkpt><trkpt lat="41.01635516702518" lon="14.37145804987399"><ele>35.0</ele><time>2026-05-02T07:30:28Z</time></trkpt><trkpt lat="41.016155971269484" lon="14.371809475695278"><ele>37.0</ele><time>2026-05-02T07:30:29Z</time></trkpt><trkpt lat="41.01596152934354" lon="14.372167916167415"><ele>36.0</ele><time>2026-05-02T07:30:30Z</time></trkpt><trkpt lat="41.01577731354672" lon="14.372528311320245"><ele>35.0</ele><time>2026-05-02T07:30:31Z</time></trkpt><trkpt lat="41.01559605856953" lon="14.37289423899038"><ele>34.5</ele><time>2026-05-02T07:30:32Z</time></trkpt><trkpt lat="41.015412804299956" lon="14.373261266416074"><ele>34.0</ele><time>2026-05-02T07:30:33Z</time></trkpt><trkpt lat="41.01522854062293" lon="14.373628074221266"><ele>33.5</ele><time>2026-05-02T07:30:34Z</time></trkpt><trkpt lat="41.01504930616259" lon="14.373998183282596"><ele>33.0</ele><time>2026-05-02T07:30:35Z</time></trkpt><trkpt lat="41.014875293086064" lon="14.374372063764632"><ele>35.0</ele><time>2026-05-02T07:30:36Z</time></trkpt><trkpt lat="41.01470633969947" lon="14.374748946982415"><ele>37.0</ele><time>2026-05-02T07:30:37Z</time></trkpt><trkpt lat="41.01454140726661" lon="14.375131370957257"><ele>37.0</ele><time>2026-05-02T07:30:38Z</time></trkpt><trkpt lat="41.01438071935231" lon="14.37551727494399"><ele>37.0</ele><time>2026-05-02T07:30:38.999Z</time></trkpt><trkpt lat="41.01422183569976" lon="14.375905690314633"><ele>35.0</ele><time>2026-05-02T07:30:39.999Z</time></trkpt><trkpt lat="41.01406633435208" lon="14.376294551223088"><ele>33.0</ele><time>2026-05-02T07:30:40.999Z</time></trkpt><trkpt lat="41.013915488647164" lon="14.376685296881035"><ele>32.0</ele><time>2026-05-02T07:30:41.999Z</time></trkpt><trkpt lat="41.01376828728387" lon="14.377076910669128"><ele>31.0</ele><time>2026-05-02T07:30:42.999Z</time></trkpt><trkpt lat="41.013624474108816" lon="14.377472718327912"><ele>30.0</ele><time>2026-05-02T07:30:43.999Z</time></trkpt><trkpt lat="41.01348480947932" lon="14.37786803461291"><ele>29.0</ele><time>2026-05-02T07:30:44.999Z</time></trkpt><trkpt lat="41.01334846463139" lon="14.378266677238386"><ele>31.5</ele><time>2026-05-02T07:30:45.999Z</time></trkpt><trkpt lat="41.01321459519904" lon="14.378667482764435"><ele>34.0</ele><time>2026-05-02T07:30:46.999Z</time></trkpt><trkpt lat="41.01308661062186" lon="14.37907078122907"><ele>34.0</ele><time>2026-05-02T07:30:47.999Z</time></trkpt><trkpt lat="41.01296196351684" lon="14.37947739766491"><ele>34.0</ele><time>2026-05-02T07:30:48.999Z</time></trkpt><trkpt lat="41.012840439798175" lon="14.379884619432778"><ele>34.0</ele><time>2026-05-02T07:30:49.999Z</time></trkpt><trkpt lat="41.01272183037594" lon="14.380295979023032"><ele>34.0</ele><time>2026-05-02T07:30:50.999Z</time></trkpt><trkpt lat="41.01260584360788" lon="14.380710344129135"><ele>34.0</ele><time>2026-05-02T07:30:51.999Z</time></trkpt><trkpt lat="41.012493979631806" lon="14.381127159293708"><ele>34.0</ele><time>2026-05-02T07:30:52.999Z</time></trkpt><trkpt lat="41.012386738190145" lon="14.381545241507622"><ele>34.0</ele><time>2026-05-02T07:30:53.999Z</time></trkpt><trkpt lat="41.012284470003905" lon="14.381964159204749"><ele>34.0</ele><time>2026-05-02T07:30:54.999Z</time></trkpt><trkpt lat="41.012188569746115" lon="14.382383674502421"><ele>33.5</ele><time>2026-05-02T07:30:55.999Z</time></trkpt><trkpt lat="41.01209495523052" lon="14.382803739467908"><ele>33.0</ele><time>2026-05-02T07:30:56.999Z</time></trkpt><trkpt lat="41.012003549300495" lon="14.38322458567724"><ele>33.0</ele><time>2026-05-02T07:30:57.999Z</time></trkpt><trkpt lat="41.011916284323384" lon="14.38364892137708"><ele>33.0</ele><time>2026-05-02T07:30:58.999Z</time></trkpt><trkpt lat="41.01183466032505" lon="14.384075823296165"><ele>33.0</ele><time>2026-05-02T07:31:00Z</time></trkpt><trkpt lat="41.01175685713718" lon="14.384502864109596"><ele>33.0</ele><time>2026-05-02T07:31:01Z</time></trkpt><trkpt lat="41.0116804558646" lon="14.384930449402693"><ele>32.0</ele><time>2026-05-02T07:31:02Z</time></trkpt><trkpt lat="41.01160818219328" lon="14.385359243829317"><ele>31.0</ele><time>2026-05-02T07:31:03Z</time></trkpt><trkpt lat="41.01154138192909" lon="14.385789141449175"><ele>31.0</ele><time>2026-05-02T07:31:04Z</time></trkpt><trkpt lat="41.0114780970519" lon="14.386219593535252"><ele>31.0</ele><time>2026-05-02T07:31:05Z</time></trkpt><trkpt lat="41.011416892371855" lon="14.386649992281146"><ele>31.0</ele><time>2026-05-02T07:31:06Z</time></trkpt><trkpt lat="41.011358286173106" lon="14.38707883798052"><ele>31.0</ele><time>2026-05-02T07:31:07Z</time></trkpt><trkpt lat="41.011299063553395" lon="14.387509827866158"><ele>31.0</ele><time>2026-05-02T07:31:08Z</time></trkpt><trkpt lat="41.01123924021632" lon="14.387942709034956"><ele>31.0</ele><time>2026-05-02T07:31:09Z</time></trkpt><trkpt lat="41.011179629587645" lon="14.388378042245197"><ele>31.0</ele><time>2026-05-02T07:31:10Z</time></trkpt><trkpt lat="41.01111845669698" lon="14.388811947422669"><ele>31.0</ele><time>2026-05-02T07:31:11Z</time></trkpt><trkpt lat="41.011059078131375" lon="14.389243525274841"><ele>31.5</ele><time>2026-05-02T07:31:12Z</time></trkpt><trkpt lat="41.010999316972736" lon="14.389679071156863"><ele>32.0</ele><time>2026-05-02T07:31:13Z</time></trkpt><trkpt lat="41.01093805247047" lon="14.390114756974818"><ele>31.5</ele><time>2026-05-02T07:31:14Z</time></trkpt><trkpt lat="41.0108763985324" lon="14.39054936018375"><ele>31.0</ele><time>2026-05-02T07:31:15Z</time></trkpt><trkpt lat="41.01081531308848" lon="14.390984163489762"><ele>30.5</ele><time>2026-05-02T07:31:16Z</time></trkpt><trkpt lat="41.010756145170376" lon="14.391416894795553"><ele>30.0</ele><time>2026-05-02T07:31:17Z</time></trkpt><trkpt lat="41.01069576222389" lon="14.391852381291534"><ele>30.0</ele><time>2026-05-02T07:31:18Z</time></trkpt><trkpt lat="41.01063500879552" lon="14.39228600325382"><ele>30.0</ele><time>2026-05-02T07:31:19Z</time></trkpt><trkpt lat="41.01057259748814" lon="14.392719136610935"><ele>30.5</ele><time>2026-05-02T07:31:20Z</time></trkpt><trkpt lat="41.010507920165665" lon="14.393151350948653"><ele>31.0</ele><time>2026-05-02T07:31:21Z</time></trkpt><trkpt lat="41.01043676313196" lon="14.393582012331"><ele>31.0</ele><time>2026-05-02T07:31:22Z</time></trkpt><trkpt lat="41.01036084968142" lon="14.394008167912089"><ele>31.0</ele><time>2026-05-02T07:31:23Z</time></trkpt><trkpt lat="41.01026524668606" lon="14.394429164234301"><ele>31.5</ele><time>2026-05-02T07:31:24Z</time></trkpt><trkpt lat="41.01016920710159" lon="14.39484707354356"><ele>32.0</ele><time>2026-05-02T07:31:25Z</time></trkpt><trkpt lat="41.0100629444029" lon="14.395263295012969"><ele>32.5</ele><time>2026-05-02T07:31:26Z</time></trkpt><trkpt lat="41.009946897102125" lon="14.395672330528004"><ele>33.0</ele><time>2026-05-02T07:31:27Z</time></trkpt><trkpt lat="41.009820091946274" lon="14.396078475216438"><ele>32.0</ele><time>2026-05-02T07:31:28Z</time></trkpt><trkpt lat="41.009686076814404" lon="14.396480469038643"><ele>31.0</ele><time>2026-05-02T07:31:29Z</time></trkpt><trkpt lat="41.00954738870933" lon="14.396878531280764"><ele>32.0</ele><time>2026-05-02T07:31:30Z</time></trkpt><trkpt lat="41.00940250930229" lon="14.397272149215697"><ele>33.0</ele><time>2026-05-02T07:31:31Z</time></trkpt><trkpt lat="41.009251199949546" lon="14.39766266876802"><ele>33.5</ele><time>2026-05-02T07:31:32Z</time></trkpt><trkpt lat="41.00909429403097" lon="14.398050071852683"><ele>34.0</ele><time>2026-05-02T07:31:33Z</time></trkpt><trkpt lat="41.00893231857651" lon="14.398430415321123"><ele>34.0</ele><time>2026-05-02T07:31:34Z</time></trkpt><trkpt lat="41.00876244407077" lon="14.398804398906844"><ele>34.0</ele><time>2026-05-02T07:31:35Z</time></trkpt><trkpt lat="41.00858405573896" lon="14.39917079754847"><ele>34.0</ele><time>2026-05-02T07:31:36Z</time></trkpt><trkpt lat="41.008398676099496" lon="14.399530456584442"><ele>34.0</ele><time>2026-05-02T07:31:37Z</time></trkpt><trkpt lat="41.008206557308746" lon="14.399881076445135"><ele>34.0</ele><time>2026-05-02T07:31:38Z</time></trkpt><trkpt lat="41.008009039083156" lon="14.40022431551085"><ele>34.0</ele><time>2026-05-02T07:31:39Z</time></trkpt><trkpt lat="41.007805496098584" lon="14.400559895215508"><ele>34.0</ele><time>2026-05-02T07:31:40Z</time></trkpt><trkpt lat="41.00759716911002" lon="14.400886495390296"><ele>34.0</ele><time>2026-05-02T07:31:41Z</time></trkpt><trkpt lat="41.00738348482925" lon="14.401204325675343"><ele>34.5</ele><time>2026-05-02T07:31:42Z</time></trkpt><trkpt lat="41.00716025551291" lon="14.401521250381071"><ele>35.0</ele><time>2026-05-02T07:31:43.001Z</time></trkpt><trkpt lat="41.00692862578327" lon="14.401835436480237"><ele>35.0</ele><time>2026-05-02T07:31:44Z</time></trkpt><trkpt lat="41.00668968489731" lon="14.402140613029685"><ele>35.0</ele><time>2026-05-02T07:31:45Z</time></trkpt><trkpt lat="41.00644610341832" lon="14.402438253688889"><ele>35.0</ele><time>2026-05-02T07:31:46Z</time></trkpt><trkpt lat="41.00619619256568" lon="14.402731054425141"><ele>35.0</ele><time>2026-05-02T07:31:47Z</time></trkpt><trkpt lat="41.00593886298938" lon="14.403015305923256"><ele>32.5</ele><time>2026-05-02T07:31:48Z</time></trkpt><trkpt lat="41.005677519186065" lon="14.40329182457163"><ele>30.0</ele><time>2026-05-02T07:31:49Z</time></trkpt><trkpt lat="41.00541032832903" lon="14.403557267519359"><ele>30.0</ele><time>2026-05-02T07:31:50Z</time></trkpt><trkpt lat="41.00513909477668" lon="14.403815981285803"><ele>30.0</ele><time>2026-05-02T07:31:51Z</time></trkpt><trkpt lat="41.0048626948487" lon="14.404069170814996"><ele>29.0</ele><time>2026-05-02T07:31:52Z</time></trkpt><trkpt lat="41.00458031314257" lon="14.40431075803267"><ele>28.0</ele><time>2026-05-02T07:31:53Z</time></trkpt><trkpt lat="41.00429333704635" lon="14.404543947291435"><ele>28.5</ele><time>2026-05-02T07:31:54Z</time></trkpt><trkpt lat="41.00400243632666" lon="14.404768162910004"><ele>29.0</ele><time>2026-05-02T07:31:55Z</time></trkpt><trkpt lat="41.00370908276573" lon="14.404984395460046"><ele>29.0</ele><time>2026-05-02T07:31:56Z</time></trkpt><trkpt lat="41.00341277120975" lon="14.405189483304813"><ele>29.0</ele><time>2026-05-02T07:31:57Z</time></trkpt><trkpt lat="41.003114358972354" lon="14.405385166094618"><ele>29.0</ele><time>2026-05-02T07:31:58Z</time></trkpt><trkpt lat="41.00281060150723" lon="14.40557096421615"><ele>29.0</ele><time>2026-05-02T07:31:59Z</time></trkpt><trkpt lat="41.00250418427912" lon="14.405745578690997"><ele>28.5</ele><time>2026-05-02T07:32:00Z</time></trkpt><trkpt lat="41.00219529396373" lon="14.405904609656151"><ele>28.0</ele><time>2026-05-02T07:32:01Z</time></trkpt><trkpt lat="41.00188261277889" lon="14.406057466353026"><ele>28.0</ele><time>2026-05-02T07:32:02Z</time></trkpt><trkpt lat="41.001568448609156" lon="14.406198444601392"><ele>28.0</ele><time>2026-05-02T07:32:03Z</time></trkpt><trkpt lat="41.00125074127626" lon="14.406328378922428"><ele>28.5</ele><time>2026-05-02T07:32:04Z</time></trkpt><trkpt lat="41.00093031563556" lon="14.406447336253875"><ele>29.0</ele><time>2026-05-02T07:32:05Z</time></trkpt><trkpt lat="41.00060826658822" lon="14.406556988708155"><ele>30.0</ele><time>2026-05-02T07:32:06Z</time></trkpt><trkpt lat="41.00028513306819" lon="14.406662570511047"><ele>31.0</ele><time>2026-05-02T07:32:07Z</time></trkpt><trkpt lat="40.99996270345195" lon="14.406766935121631"><ele>31.0</ele><time>2026-05-02T07:32:08Z</time></trkpt><trkpt lat="40.99963882902352" lon="14.406871487533934"><ele>31.0</ele><time>2026-05-02T07:32:09Z</time></trkpt><trkpt lat="40.99931517643231" lon="14.406976935828427"><ele>31.0</ele><time>2026-05-02T07:32:10Z</time></trkpt><trkpt lat="40.99899189988938" lon="14.407085307280669"><ele>31.0</ele><time>2026-05-02T07:32:11Z</time></trkpt><trkpt lat="40.99866833638407" lon="14.407194419491155"><ele>31.0</ele><time>2026-05-02T07:32:12Z</time></trkpt><trkpt lat="40.99834459075577" lon="14.40730002675922"><ele>31.0</ele><time>2026-05-02T07:32:13Z</time></trkpt><trkpt lat="40.99802047167026" lon="14.407405994696239"><ele>31.0</ele><time>2026-05-02T07:32:14Z</time></trkpt><trkpt lat="40.99769612286936" lon="14.407512518429211"><ele>31.0</ele><time>2026-05-02T07:32:15Z</time></trkpt><trkpt lat="40.99737077091726" lon="14.407619830253951"><ele>32.5</ele><time>2026-05-02T07:32:16Z</time></trkpt><trkpt lat="40.99704505084497" lon="14.407725319774578"><ele>34.0</ele><time>2026-05-02T07:32:17Z</time></trkpt><trkpt lat="40.996720024871735" lon="14.407830385652572"><ele>33.0</ele><time>2026-05-02T07:32:18Z</time></trkpt><trkpt lat="40.99639462357079" lon="14.4079382789539"><ele>32.0</ele><time>2026-05-02T07:32:19Z</time></trkpt><trkpt lat="40.996069967878086" lon="14.408049594142717"><ele>31.5</ele><time>2026-05-02T07:32:20Z</time></trkpt><trkpt lat="40.99574542445737" lon="14.408160480186252"><ele>31.0</ele><time>2026-05-02T07:32:21Z</time></trkpt><trkpt lat="40.99542061413907" lon="14.40826894985376"><ele>31.0</ele><time>2026-05-02T07:32:22Z</time></trkpt><trkpt lat="40.995097442404564" lon="14.408374923786413"><ele>31.0</ele><time>2026-05-02T07:32:23Z</time></trkpt><trkpt lat="40.994774280236655" lon="14.408481292523415"><ele>30.5</ele><time>2026-05-02T07:32:24Z</time></trkpt><trkpt lat="40.99445064194949" lon="14.408587606206956"><ele>30.0</ele><time>2026-05-02T07:32:25Z</time></trkpt><trkpt lat="40.99412491335105" lon="14.408695767031325"><ele>31.0</ele><time>2026-05-02T07:32:26Z</time></trkpt><trkpt lat="40.99379906651042" lon="14.408806966787433"><ele>32.0</ele><time>2026-05-02T07:32:27Z</time></trkpt><trkpt lat="40.99347363368481" lon="14.408916353466617"><ele>32.0</ele><time>2026-05-02T07:32:28Z</time></trkpt><trkpt lat="40.993149286163835" lon="14.409021507617824"><ele>32.0</ele><time>2026-05-02T07:32:29Z</time></trkpt><trkpt lat="40.99282505807852" lon="14.409127165539111"><ele>32.5</ele><time>2026-05-02T07:32:30Z</time></trkpt><trkpt lat="40.99249989532936" lon="14.409232980757624"><ele>33.0</ele><time>2026-05-02T07:32:31Z</time></trkpt><trkpt lat="40.992175513165314" lon="14.409340172956533"><ele>33.0</ele><time>2026-05-02T07:32:32Z</time></trkpt><trkpt lat="40.99185135656958" lon="14.409448768324186"><ele>33.0</ele><time>2026-05-02T07:32:33Z</time></trkpt><trkpt lat="40.99152777816355" lon="14.409557510796155"><ele>33.0</ele><time>2026-05-02T07:32:34Z</time></trkpt><trkpt lat="40.99120333579082" lon="14.409665399957206"><ele>33.0</ele><time>2026-05-02T07:32:35Z</time></trkpt><trkpt lat="40.99088089005474" lon="14.409770218557052"><ele>33.5</ele><time>2026-05-02T07:32:36Z</time></trkpt><trkpt lat="40.990560656761765" lon="14.40987266781796"><ele>34.0</ele><time>2026-05-02T07:32:37Z</time></trkpt><trkpt lat="40.990238668542936" lon="14.409977134195673"><ele>34.0</ele><time>2026-05-02T07:32:38Z</time></trkpt><trkpt lat="40.98991737411168" lon="14.410083181843158"><ele>34.0</ele><time>2026-05-02T07:32:39Z</time></trkpt><trkpt lat="40.989596948053745" lon="14.410191488101365"><ele>34.0</ele><time>2026-05-02T07:32:40Z</time></trkpt><trkpt lat="40.98927617349821" lon="14.410299667365264"><ele>34.0</ele><time>2026-05-02T07:32:41Z</time></trkpt><trkpt lat="40.98895705406934" lon="14.41041191747448"><ele>34.5</ele><time>2026-05-02T07:32:41.999Z</time></trkpt><trkpt lat="40.9886371564301" lon="14.41052861620039"><ele>35.0</ele><time>2026-05-02T07:32:42.999Z</time></trkpt><trkpt lat="40.988317674365014" lon="14.41065071810501"><ele>35.0</ele><time>2026-05-02T07:32:43.999Z</time></trkpt><trkpt lat="40.98800214937837" lon="14.410784317327337"><ele>35.0</ele><time>2026-05-02T07:32:44.999Z</time></trkpt><trkpt lat="40.9876911980721" lon="14.41092902734308"><ele>35.0</ele><time>2026-05-02T07:32:45.999Z</time></trkpt><trkpt lat="40.98738063704666" lon="14.411086848802675"><ele>35.0</ele><time>2026-05-02T07:32:46.999Z</time></trkpt><trkpt lat="40.98707256655653" lon="14.411251900522629"><ele>36.0</ele><time>2026-05-02T07:32:47.999Z</time></trkpt><trkpt lat="40.98676492946952" lon="14.411422427702448"><ele>37.0</ele><time>2026-05-02T07:32:48.999Z</time></trkpt><trkpt lat="40.98645980925171" lon="14.411600942991985"><ele>38.0</ele><time>2026-05-02T07:32:49.999Z</time></trkpt><trkpt lat="40.986156856565856" lon="14.411789465745947"><ele>39.0</ele><time>2026-05-02T07:32:50.999Z</time></trkpt><trkpt lat="40.98585858265985" lon="14.41199017677091"><ele>36.5</ele><time>2026-05-02T07:32:51.999Z</time></trkpt><trkpt lat="40.98556524302487" lon="14.412202672765005"><ele>34.0</ele><time>2026-05-02T07:32:52.999Z</time></trkpt><trkpt lat="40.98527541360349" lon="14.41242354901722"><ele>33.0</ele><time>2026-05-02T07:32:53.999Z</time></trkpt><trkpt lat="40.98499129765774" lon="14.412656273175552"><ele>32.0</ele><time>2026-05-02T07:32:54.999Z</time></trkpt><trkpt lat="40.98471089962096" lon="14.412899966879753"><ele>32.5</ele><time>2026-05-02T07:32:55.999Z</time></trkpt><trkpt lat="40.98443532508362" lon="14.413153165211295"><ele>33.0</ele><time>2026-05-02T07:32:56.999Z</time></trkpt><trkpt lat="40.9841658341488" lon="14.413414848168696"><ele>33.5</ele><time>2026-05-02T07:32:57.999Z</time></trkpt><trkpt lat="40.9839042623568" lon="14.413685699024526"><ele>34.0</ele><time>2026-05-02T07:32:58.999Z</time></trkpt><trkpt lat="40.98364800322187" lon="14.413964195552099"><ele>34.0</ele><time>2026-05-02T07:32:59.999Z</time></trkpt><trkpt lat="40.983401897421345" lon="14.414255118476826"><ele>34.0</ele><time>2026-05-02T07:33:00.999Z</time></trkpt><trkpt lat="40.98315880248286" lon="14.414549896560377"><ele>35.0</ele><time>2026-05-02T07:33:01.999Z</time></trkpt><trkpt lat="40.98291919723483" lon="14.414849377581147"><ele>36.0</ele><time>2026-05-02T07:33:02.999Z</time></trkpt><trkpt lat="40.98268602622722" lon="14.415157246124808"><ele>36.0</ele><time>2026-05-02T07:33:03.999Z</time></trkpt><trkpt lat="40.98245648371075" lon="14.415473648074023"><ele>36.0</ele><time>2026-05-02T07:33:04.999Z</time></trkpt><trkpt lat="40.982227115727405" lon="14.415792383177976"><ele>36.0</ele><time>2026-05-02T07:33:06Z</time></trkpt><trkpt lat="40.98199815954316" lon="14.416112621926924"><ele>36.0</ele><time>2026-05-02T07:33:07Z</time></trkpt><trkpt lat="40.981768702915666" lon="14.416434607413596"><ele>35.5</ele><time>2026-05-02T07:33:08Z</time></trkpt><trkpt lat="40.981539131378454" lon="14.416756616587223"><ele>35.0</ele><time>2026-05-02T07:33:09Z</time></trkpt><trkpt lat="40.98130804421641" lon="14.417077863635878"><ele>34.5</ele><time>2026-05-02T07:33:10Z</time></trkpt><trkpt lat="40.98107473402202" lon="14.417401168827258"><ele>34.0</ele><time>2026-05-02T07:33:11Z</time></trkpt><trkpt lat="40.980841646243995" lon="14.417722957000498"><ele>34.0</ele><time>2026-05-02T07:33:12Z</time></trkpt><trkpt lat="40.98061066696207" lon="14.418044069527397"><ele>34.0</ele><time>2026-05-02T07:33:13Z</time></trkpt><trkpt lat="40.98038156531322" lon="14.418367330853094"><ele>34.0</ele><time>2026-05-02T07:33:14Z</time></trkpt><trkpt lat="40.980152260814926" lon="14.418690731901792"><ele>34.0</ele><time>2026-05-02T07:33:15Z</time></trkpt><trkpt lat="40.979923271442686" lon="14.419012483322025"><ele>33.5</ele><time>2026-05-02T07:33:16Z</time></trkpt><trkpt lat="40.979695241773605" lon="14.419332750982605"><ele>33.0</ele><time>2026-05-02T07:33:17Z</time></trkpt><trkpt lat="40.97946739894366" lon="14.419650902779823"><ele>33.0</ele><time>2026-05-02T07:33:18Z</time></trkpt><trkpt lat="40.979240726901736" lon="14.419966624871995"><ele>33.0</ele><time>2026-05-02T07:33:19Z</time></trkpt><trkpt lat="40.97901490418079" lon="14.420284258308492"><ele>32.0</ele><time>2026-05-02T07:33:20Z</time></trkpt><trkpt lat="40.978786554011094" lon="14.420602307335788"><ele>31.0</ele><time>2026-05-02T07:33:21Z</time></trkpt><trkpt lat="40.97855615842682" lon="14.420918301950616"><ele>31.0</ele><time>2026-05-02T07:33:22Z</time></trkpt><trkpt lat="40.97832415241166" lon="14.42123377937616"><ele>31.0</ele><time>2026-05-02T07:33:23Z</time></trkpt><trkpt lat="40.97809215079078" lon="14.421548302237573"><ele>31.5</ele><time>2026-05-02T07:33:24Z</time></trkpt><trkpt lat="40.97786063915483" lon="14.421863815615577"><ele>32.0</ele><time>2026-05-02T07:33:25Z</time></trkpt><trkpt lat="40.97763077150341" lon="14.422180570794575"><ele>32.0</ele><time>2026-05-02T07:33:26Z</time></trkpt><trkpt lat="40.977402985625524" lon="14.4224994590899"><ele>32.0</ele><time>2026-05-02T07:33:27Z</time></trkpt><trkpt lat="40.977178713354824" lon="14.42282535474989"><ele>32.0</ele><time>2026-05-02T07:33:28Z</time></trkpt><trkpt lat="40.97695987259072" lon="14.42315647526167"><ele>32.0</ele><time>2026-05-02T07:33:29Z</time></trkpt><trkpt lat="40.976746322918906" lon="14.423493362036405"><ele>31.5</ele><time>2026-05-02T07:33:30Z</time></trkpt><trkpt lat="40.97653891544599" lon="14.423836564263983"><ele>31.0</ele><time>2026-05-02T07:33:31Z</time></trkpt><trkpt lat="40.976336159394045" lon="14.42418498553416"><ele>31.0</ele><time>2026-05-02T07:33:32Z</time></trkpt><trkpt lat="40.976139347227424" lon="14.424536524490804"><ele>31.0</ele><time>2026-05-02T07:33:33Z</time></trkpt><trkpt lat="40.97594827989544" lon="14.424892509669736"><ele>31.0</ele><time>2026-05-02T07:33:34Z</time></trkpt><trkpt lat="40.97576178998384" lon="14.425255031513114"><ele>31.0</ele><time>2026-05-02T07:33:35Z</time></trkpt><trkpt lat="40.975583933696534" lon="14.425626884893"><ele>31.0</ele><time>2026-05-02T07:33:36Z</time></trkpt><trkpt lat="40.975409649360905" lon="14.4260019905866"><ele>31.0</ele><time>2026-05-02T07:33:37Z</time></trkpt><trkpt lat="40.97524093419315" lon="14.426379003837887"><ele>30.0</ele><time>2026-05-02T07:33:38Z</time></trkpt><trkpt lat="40.97507577326482" lon="14.426760213849892"><ele>29.0</ele><time>2026-05-02T07:33:39Z</time></trkpt><trkpt lat="40.974913074651624" lon="14.427145812916097"><ele>29.0</ele><time>2026-05-02T07:33:40Z</time></trkpt><trkpt lat="40.97475533030185" lon="14.427534768873088"><ele>29.0</ele><time>2026-05-02T07:33:41Z</time></trkpt><trkpt lat="40.974601144110395" lon="14.42792631787581"><ele>28.5</ele><time>2026-05-02T07:33:42Z</time></trkpt><trkpt lat="40.9744487853241" lon="14.428319699666806"><ele>28.0</ele><time>2026-05-02T07:33:43Z</time></trkpt><trkpt lat="40.97429701810352" lon="14.42871226660122"><ele>28.5</ele><time>2026-05-02T07:33:44Z</time></trkpt><trkpt lat="40.9741440452907" lon="14.429104329600344"><ele>29.0</ele><time>2026-05-02T07:33:45Z</time></trkpt><trkpt lat="40.97399052751814" lon="14.429500583027549"><ele>29.5</ele><time>2026-05-02T07:33:46Z</time></trkpt><trkpt lat="40.9738396139681" lon="14.429893391292703"><ele>30.0</ele><time>2026-05-02T07:33:47Z</time></trkpt><trkpt lat="40.973687557875095" lon="14.43028503358973"><ele>29.5</ele><time>2026-05-02T07:33:48Z</time></trkpt><trkpt lat="40.973535997739226" lon="14.430675509222548"><ele>29.0</ele><time>2026-05-02T07:33:49Z</time></trkpt><trkpt lat="40.97338602467324" lon="14.431064981791504"><ele>29.5</ele><time>2026-05-02T07:33:50Z</time></trkpt><trkpt lat="40.97323386257768" lon="14.431455200889157"><ele>30.0</ele><time>2026-05-02T07:33:51Z</time></trkpt><trkpt lat="40.973083159893285" lon="14.431845316837823"><ele>29.0</ele><time>2026-05-02T07:33:52Z</time></trkpt><trkpt lat="40.97293448821785" lon="14.432236065253337"><ele>28.0</ele><time>2026-05-02T07:33:53Z</time></trkpt><trkpt lat="40.9727853407119" lon="14.432629021398956"><ele>27.5</ele><time>2026-05-02T07:33:54Z</time></trkpt><trkpt lat="40.97263590006514" lon="14.433023006488618"><ele>27.0</ele><time>2026-05-02T07:33:55Z</time></trkpt><trkpt lat="40.97248542181217" lon="14.433414367732473"><ele>27.5</ele><time>2026-05-02T07:33:56Z</time></trkpt><trkpt lat="40.97233554457114" lon="14.433805500049743"><ele>28.0</ele><time>2026-05-02T07:33:57Z</time></trkpt><trkpt lat="40.97218374536763" lon="14.434194975253863"><ele>28.0</ele><time>2026-05-02T07:33:58Z</time></trkpt><trkpt lat="40.972030755483615" lon="14.434582551560359"><ele>28.0</ele><time>2026-05-02T07:33:59Z</time></trkpt><trkpt lat="40.971878539898334" lon="14.434970298875006"><ele>28.0</ele><time>2026-05-02T07:34:00Z</time></trkpt><trkpt lat="40.97172703868753" lon="14.435359465572553"><ele>28.0</ele><time>2026-05-02T07:34:01Z</time></trkpt><trkpt lat="40.97157734422819" lon="14.435750150431678"><ele>28.0</ele><time>2026-05-02T07:34:02Z</time></trkpt><trkpt lat="40.971425699936546" lon="14.436141754338182"><ele>28.0</ele><time>2026-05-02T07:34:03Z</time></trkpt><trkpt lat="40.971274822717014" lon="14.436532832905598"><ele>28.0</ele><time>2026-05-02T07:34:04Z</time></trkpt><trkpt lat="40.97112408682607" lon="14.436926287215181"><ele>28.0</ele><time>2026-05-02T07:34:05Z</time></trkpt><trkpt lat="40.97097361116477" lon="14.437320937999063"><ele>28.0</ele><time>2026-05-02T07:34:06Z</time></trkpt><trkpt lat="40.97082390693645" lon="14.43771496848603"><ele>28.0</ele><time>2026-05-02T07:34:07Z</time></trkpt><trkpt lat="40.970674562763975" lon="14.4381100741696"><ele>28.0</ele><time>2026-05-02T07:34:08Z</time></trkpt><trkpt lat="40.97052560482261" lon="14.438505639733403"><ele>28.0</ele><time>2026-05-02T07:34:09Z</time></trkpt><trkpt lat="40.970378086943555" lon="14.438898976003319"><ele>28.0</ele><time>2026-05-02T07:34:10Z</time></trkpt><trkpt lat="40.97022879529394" lon="14.439292394772329"><ele>28.0</ele><time>2026-05-02T07:34:11Z</time></trkpt><trkpt lat="40.97007791358723" lon="14.439683138676063"><ele>28.5</ele><time>2026-05-02T07:34:12Z</time></trkpt><trkpt lat="40.96992634502026" lon="14.440072185910502"><ele>29.0</ele><time>2026-05-02T07:34:13Z</time></trkpt><trkpt lat="40.969775574236465" lon="14.440461109535299"><ele>29.5</ele><time>2026-05-02T07:34:14Z</time></trkpt><trkpt lat="40.96962456971264" lon="14.440851222595743"><ele>30.0</ele><time>2026-05-02T07:34:15Z</time></trkpt><trkpt lat="40.96947184120771" lon="14.4412437303075"><ele>29.5</ele><time>2026-05-02T07:34:16Z</time></trkpt><trkpt lat="40.96931953510534" lon="14.44163474514881"><ele>29.0</ele><time>2026-05-02T07:34:17Z</time></trkpt><trkpt lat="40.96916735998848" lon="14.442028866271444"><ele>28.0</ele><time>2026-05-02T07:34:18Z</time></trkpt><trkpt lat="40.969015773225436" lon="14.44242333103237"><ele>27.0</ele><time>2026-05-02T07:34:19Z</time></trkpt><trkpt lat="40.96886331498582" lon="14.442819638464957"><ele>26.5</ele><time>2026-05-02T07:34:20Z</time></trkpt><trkpt lat="40.96871148671129" lon="14.44321676542032"><ele>26.0</ele><time>2026-05-02T07:34:21Z</time></trkpt><trkpt lat="40.96855974886684" lon="14.44361341054779"><ele>26.0</ele><time>2026-05-02T07:34:22Z</time></trkpt><trkpt lat="40.96840800379722" lon="14.444009128059204"><ele>26.0</ele><time>2026-05-02T07:34:23Z</time></trkpt><trkpt lat="40.96825733425934" lon="14.444403372720926"><ele>26.5</ele><time>2026-05-02T07:34:24Z</time></trkpt><trkpt lat="40.96810623680104" lon="14.444796114611892"><ele>27.0</ele><time>2026-05-02T07:34:25Z</time></trkpt><trkpt lat="40.96795676700516" lon="14.445185636575003"><ele>26.5</ele><time>2026-05-02T07:34:26Z</time></trkpt><trkpt lat="40.967807626645794" lon="14.445573307096174"><ele>26.0</ele><time>2026-05-02T07:34:27Z</time></trkpt><trkpt lat="40.96765763204662" lon="14.445961549395722"><ele>27.5</ele><time>2026-05-02T07:34:28Z</time></trkpt><trkpt lat="40.96750817547967" lon="14.446350874319533"><ele>29.0</ele><time>2026-05-02T07:34:29Z</time></trkpt><trkpt lat="40.96735715052791" lon="14.446739576502349"><ele>28.5</ele><time>2026-05-02T07:34:30Z</time></trkpt><trkpt lat="40.96720612585675" lon="14.447130409989768"><ele>28.0</ele><time>2026-05-02T07:34:31Z</time></trkpt><trkpt lat="40.9670549851324" lon="14.447521465681335"><ele>28.0</ele><time>2026-05-02T07:34:32Z</time></trkpt><trkpt lat="40.966903894055115" lon="14.447912988592577"><ele>28.0</ele><time>2026-05-02T07:34:33Z</time></trkpt><trkpt lat="40.96675250827035" lon="14.448307126567718"><ele>27.5</ele><time>2026-05-02T07:34:34Z</time></trkpt><trkpt lat="40.96660184413476" lon="14.4487029006264"><ele>27.0</ele><time>2026-05-02T07:34:35Z</time></trkpt><trkpt lat="40.96645147641053" lon="14.449097313051482"><ele>27.0</ele><time>2026-05-02T07:34:36Z</time></trkpt><trkpt lat="40.96629903433535" lon="14.449491883919187"><ele>27.0</ele><time>2026-05-02T07:34:37Z</time></trkpt><trkpt lat="40.96614493138138" lon="14.449886504487774"><ele>27.0</ele><time>2026-05-02T07:34:38Z</time></trkpt><trkpt lat="40.96598787955708" lon="14.45028020129912"><ele>27.0</ele><time>2026-05-02T07:34:39Z</time></trkpt><trkpt lat="40.965828857533" lon="14.450670245209364"><ele>28.5</ele><time>2026-05-02T07:34:40Z</time></trkpt><trkpt lat="40.96566550444271" lon="14.451058116091387"><ele>30.0</ele><time>2026-05-02T07:34:41Z</time></trkpt><trkpt lat="40.96550108403595" lon="14.451445065753587"><ele>30.5</ele><time>2026-05-02T07:34:42Z</time></trkpt><trkpt lat="40.965317327121284" lon="14.451817182380509"><ele>31.0</ele><time>2026-05-02T07:34:43Z</time></trkpt><trkpt lat="40.96513446083277" lon="14.452177315958423"><ele>30.0</ele><time>2026-05-02T07:34:44Z</time></trkpt><trkpt lat="40.96494500489606" lon="14.452537703321898"><ele>29.0</ele><time>2026-05-02T07:34:45Z</time></trkpt><trkpt lat="40.964753528979465" lon="14.452892608516459"><ele>28.0</ele><time>2026-05-02T07:34:46Z</time></trkpt><trkpt lat="40.964558460319786" lon="14.453243249147619"><ele>27.0</ele><time>2026-05-02T07:34:47Z</time></trkpt><trkpt lat="40.96435942809181" lon="14.453589991175912"><ele>27.5</ele><time>2026-05-02T07:34:48Z</time></trkpt><trkpt lat="40.964158812634956" lon="14.453937236486762"><ele>28.0</ele><time>2026-05-02T07:34:49Z</time></trkpt><trkpt lat="40.96395717388498" lon="14.454286074232135"><ele>28.0</ele><time>2026-05-02T07:34:50Z</time></trkpt><trkpt lat="40.963756021572316" lon="14.454631196040856"><ele>28.0</ele><time>2026-05-02T07:34:51Z</time></trkpt><trkpt lat="40.96355444157783" lon="14.454976811466333"><ele>27.5</ele><time>2026-05-02T07:34:52Z</time></trkpt><trkpt lat="40.96335020345416" lon="14.455323712722544"><ele>27.0</ele><time>2026-05-02T07:34:53Z</time></trkpt><trkpt lat="40.96314716982035" lon="14.45567353003295"><ele>27.0</ele><time>2026-05-02T07:34:54Z</time></trkpt><trkpt lat="40.96294504170934" lon="14.456024398395403"><ele>27.0</ele><time>2026-05-02T07:34:55Z</time></trkpt><trkpt lat="40.962743530102564" lon="14.456376599406193"><ele>26.5</ele><time>2026-05-02T07:34:56Z</time></trkpt><trkpt lat="40.96254212922511" lon="14.456726945818613"><ele>26.0</ele><time>2026-05-02T07:34:57Z</time></trkpt><trkpt lat="40.962340570964685" lon="14.457077407103478"><ele>27.5</ele><time>2026-05-02T07:34:58Z</time></trkpt><trkpt lat="40.96213847820107" lon="14.45742825665158"><ele>29.0</ele><time>2026-05-02T07:34:59Z</time></trkpt><trkpt lat="40.96193517895299" lon="14.457778824068045"><ele>29.0</ele><time>2026-05-02T07:35:00Z</time></trkpt><trkpt lat="40.9617299046009" lon="14.458129322648613"><ele>29.0</ele><time>2026-05-02T07:35:01Z</time></trkpt><trkpt lat="40.96152320102179" lon="14.458477450459338"><ele>28.0</ele><time>2026-05-02T07:35:02Z</time></trkpt><trkpt lat="40.961313182341144" lon="14.458822191559328"><ele>27.0</ele><time>2026-05-02T07:35:03Z</time></trkpt><trkpt lat="40.96110160334941" lon="14.459161850312892"><ele>27.0</ele><time>2026-05-02T07:35:04Z</time></trkpt><trkpt lat="40.960884544322504" lon="14.459493654841372"><ele>27.0</ele><time>2026-05-02T07:35:05Z</time></trkpt><trkpt lat="40.96066254545785" lon="14.459819477878456"><ele>27.0</ele><time>2026-05-02T07:35:06Z</time></trkpt><trkpt lat="40.96043480795989" lon="14.460140731973144"><ele>27.0</ele><time>2026-05-02T07:35:06.999Z</time></trkpt><trkpt lat="40.960203498486855" lon="14.46045364369905"><ele>28.0</ele><time>2026-05-02T07:35:07.999Z</time></trkpt><trkpt lat="40.959967596804844" lon="14.460761943274242"><ele>29.0</ele><time>2026-05-02T07:35:08.999Z</time></trkpt><trkpt lat="40.95972806451395" lon="14.461066874118544"><ele>29.0</ele><time>2026-05-02T07:35:09.999Z</time></trkpt><trkpt lat="40.95948149546795" lon="14.461361622889177"><ele>29.0</ele><time>2026-05-02T07:35:11Z</time></trkpt><trkpt lat="40.95922867939368" lon="14.461641837237163"><ele>29.0</ele><time>2026-05-02T07:35:12Z</time></trkpt><trkpt lat="40.95897238425501" lon="14.461920581870508"><ele>29.0</ele><time>2026-05-02T07:35:13Z</time></trkpt><trkpt lat="40.95871137245647" lon="14.46219378561405"><ele>29.0</ele><time>2026-05-02T07:35:14Z</time></trkpt><trkpt lat="40.958448590744524" lon="14.462464030503918"><ele>29.0</ele><time>2026-05-02T07:35:15Z</time></trkpt><trkpt lat="40.95818076661392" lon="14.462731429732743"><ele>28.5</ele><time>2026-05-02T07:35:16Z</time></trkpt><trkpt lat="40.95791138774827" lon="14.462995681742727"><ele>28.0</ele><time>2026-05-02T07:35:17Z</time></trkpt><trkpt lat="40.957642658769004" lon="14.463255993243452"><ele>29.0</ele><time>2026-05-02T07:35:18Z</time></trkpt><trkpt lat="40.957381690530454" lon="14.463509493512344"><ele>30.0</ele><time>2026-05-02T07:35:19Z</time></trkpt><trkpt lat="40.95712898864773" lon="14.46375808478535"><ele>30.0</ele><time>2026-05-02T07:35:20Z</time></trkpt><trkpt lat="40.956883259366265" lon="14.464001697376439"><ele>30.0</ele><time>2026-05-02T07:35:21Z</time></trkpt><trkpt lat="40.956643284028694" lon="14.464243719846975"><ele>30.0</ele><time>2026-05-02T07:35:22Z</time></trkpt><trkpt lat="40.95641025415307" lon="14.464488991178008"><ele>30.0</ele><time>2026-05-02T07:35:23Z</time></trkpt><trkpt lat="40.95618406762058" lon="14.464739853714974"><ele>29.5</ele><time>2026-05-02T07:35:24Z</time></trkpt><trkpt lat="40.95596551463213" lon="14.464993670961801"><ele>29.0</ele><time>2026-05-02T07:35:25Z</time></trkpt><trkpt lat="40.95575138622208" lon="14.46525150193537"><ele>29.0</ele><time>2026-05-02T07:35:26Z</time></trkpt><trkpt lat="40.955543214518855" lon="14.465510781919628"><ele>29.0</ele><time>2026-05-02T07:35:27Z</time></trkpt><trkpt lat="40.9553427219149" lon="14.465767636917835"><ele>29.0</ele><time>2026-05-02T07:35:28Z</time></trkpt><trkpt lat="40.95514882909114" lon="14.466024373798923"><ele>29.0</ele><time>2026-05-02T07:35:29Z</time></trkpt><trkpt lat="40.95496121733139" lon="14.466278206116835"><ele>28.5</ele><time>2026-05-02T07:35:30Z</time></trkpt><trkpt lat="40.95478024524233" lon="14.466528669497377"><ele>28.0</ele><time>2026-05-02T07:35:31Z</time></trkpt><trkpt lat="40.9546065842798" lon="14.466775194101402"><ele>28.0</ele><time>2026-05-02T07:35:32Z</time></trkpt><trkpt lat="40.954442041402125" lon="14.46701360034387"><ele>28.0</ele><time>2026-05-02T07:35:33Z</time></trkpt><trkpt lat="40.95428907345786" lon="14.467245591691507"><ele>27.333333333333336</ele><time>2026-05-02T07:35:34Z</time></trkpt><trkpt lat="40.95414308362707" lon="14.467473189286338"><ele>26.666666666666664</ele><time>2026-05-02T07:35:35Z</time></trkpt><trkpt lat="40.95400643659963" lon="14.4676889124287"><ele>26.0</ele><time>2026-05-02T07:35:36Z</time></trkpt><trkpt lat="40.95387558798252" lon="14.467895601014565"><ele>26.333333333333332</ele><time>2026-05-02T07:35:37Z</time></trkpt><trkpt lat="40.953754593077406" lon="14.46808984079285"><ele>26.666666666666664</ele><time>2026-05-02T07:35:38Z</time></trkpt><trkpt lat="40.953642543404065" lon="14.468278376673185"><ele>27.0</ele><time>2026-05-02T07:35:39Z</time></trkpt><trkpt lat="40.95353483347194" lon="14.468461185443308"><ele>27.0</ele><time>2026-05-02T07:35:40Z</time></trkpt><trkpt lat="40.95343394938524" lon="14.468633201666348"><ele>27.0</ele><time>2026-05-02T07:35:41Z</time></trkpt><trkpt lat="40.95333916411152" lon="14.468794433506371"><ele>27.0</ele><time>2026-05-02T07:35:42Z</time></trkpt><trkpt lat="40.95324518606101" lon="14.468947240352996"><ele>27.25</ele><time>2026-05-02T07:35:43Z</time></trkpt><trkpt lat="40.95315359620322" lon="14.469085678817944"><ele>27.5</ele><time>2026-05-02T07:35:44Z</time></trkpt><trkpt lat="40.953064116811134" lon="14.469212587881088"><ele>27.75</ele><time>2026-05-02T07:35:45Z</time></trkpt><trkpt lat="40.95297590680673" lon="14.469327717721859"><ele>28.0</ele><time>2026-05-02T07:35:46Z</time></trkpt><trkpt lat="40.95288645699984" lon="14.469430290585187"><ele>28.0</ele><time>2026-05-02T07:35:47Z</time></trkpt><trkpt lat="40.952795067980816" lon="14.46952118281026"><ele>27.999999999999996</ele><time>2026-05-02T07:35:48Z</time></trkpt><trkpt lat="40.95270952198032" lon="14.469600098237713"><ele>27.999999999999996</ele><time>2026-05-02T07:35:48.999Z</time></trkpt><trkpt lat="40.95262815384032" lon="14.469672930118854"><ele>28.0</ele><time>2026-05-02T07:35:49.999Z</time></trkpt><trkpt lat="40.95255231358216" lon="14.469746948567211"><ele>28.0</ele><time>2026-05-02T07:35:50.999Z</time></trkpt><trkpt lat="40.95248265634483" lon="14.469826657871572"><ele>28.4</ele><time>2026-05-02T07:35:51.999Z</time></trkpt><trkpt lat="40.95241845974982" lon="14.469911322938277"><ele>28.799999999999997</ele><time>2026-05-02T07:35:52.999Z</time></trkpt><trkpt lat="40.952360354950265" lon="14.469994573615567"><ele>29.2</ele><time>2026-05-02T07:35:53.999Z</time></trkpt><trkpt lat="40.95230013499664" lon="14.470078605116198"><ele>29.6</ele><time>2026-05-02T07:35:54.999Z</time></trkpt><trkpt lat="40.952236303127215" lon="14.470167286703356"><ele>30.0</ele><time>2026-05-02T07:35:55.999Z</time></trkpt><trkpt lat="40.95217423545947" lon="14.470261883730698"><ele>30.0</ele><time>2026-05-02T07:35:56.999Z</time></trkpt><trkpt lat="40.95211518922334" lon="14.470361044438894"><ele>30.0</ele><time>2026-05-02T07:35:57.999Z</time></trkpt><trkpt lat="40.952061742708565" lon="14.47045996549259"><ele>30.0</ele><time>2026-05-02T07:35:58.999Z</time></trkpt><trkpt lat="40.95201224785873" lon="14.470557017871423"><ele>30.0</ele><time>2026-05-02T07:35:59.999Z</time></trkpt><trkpt lat="40.95196517740916" lon="14.470651443188112"><ele>30.0</ele><time>2026-05-02T07:36:00.999Z</time></trkpt><trkpt lat="40.951922293680425" lon="14.470744445998605"><ele>30.0</ele><time>2026-05-02T07:36:01.999Z</time></trkpt><trkpt lat="40.95188317609405" lon="14.470836092296384"><ele>30.0</ele><time>2026-05-02T07:36:02.999Z</time></trkpt><trkpt lat="40.951842998320366" lon="14.47092390035254"><ele>30.0</ele><time>2026-05-02T07:36:03.999Z</time></trkpt><trkpt lat="40.95180170508797" lon="14.471003809158034"><ele>30.0</ele><time>2026-05-02T07:36:04.999Z</time></trkpt><trkpt lat="40.9517546778448" lon="14.471063673411027"><ele>30.0</ele><time>2026-05-02T07:36:05.999Z</time></trkpt><trkpt lat="40.95167206426397" lon="14.471167205858857"><ele>30.0</ele><time>2026-05-02T07:36:07.999Z</time></trkpt><trkpt lat="40.95160828098627" lon="14.471276716562135"><ele>30.0</ele><time>2026-05-02T07:36:09.999Z</time></trkpt><trkpt lat="40.95156644722318" lon="14.471352006500208"><ele>30.0</ele><time>2026-05-02T07:36:11.999Z</time></trkpt><trkpt lat="40.95152582968627" lon="14.471441985210722"><ele>30.0</ele><time>2026-05-02T07:39:14Z</time></trkpt><trkpt lat="40.951460693704185" lon="14.471436661970046"><ele>30.0</ele><time>2026-05-02T07:39:20.999Z</time></trkpt><trkpt lat="40.951525313730905" lon="14.471402904299751"><ele>30.0</ele><time>2026-05-02T07:39:39.001Z</time></trkpt><trkpt lat="40.9515756236449" lon="14.471352741775133"><ele>30.0</ele><time>2026-05-02T07:40:13Z</time></trkpt><trkpt lat="40.95150374724914" lon="14.471245175955008"><ele>30.0</ele><time>2026-05-02T07:40:23Z</time></trkpt><trkpt lat="40.951441083688145" lon="14.471253855667895"><ele>30.0</ele><time>2026-05-02T07:41:45.001Z</time></trkpt><trkpt lat="40.951537462482676" lon="14.471307315635215"><ele>30.0</ele><time>2026-05-02T07:42:59.827Z</time></trkpt><trkpt lat="40.95150228111163" lon="14.471225924393982"><ele>30.0</ele><time>2026-05-02T07:44:03.999Z</time></trkpt><trkpt lat="40.95157940089418" lon="14.471207105417522"><ele>30.0</ele><time>2026-05-02T07:52:44Z</time></trkpt><trkpt lat="40.9515011578504" lon="14.471195484464346"><ele>30.0</ele><time>2026-05-02T07:52:48Z</time></trkpt><trkpt lat="40.95143262211034" lon="14.47134075252863"><ele>30.0</ele><time>2026-05-02T08:08:09.999Z</time></trkpt><trkpt lat="40.951379436118806" lon="14.471422479403039"><ele>30.0</ele><time>2026-05-02T08:08:11.999Z</time></trkpt><trkpt lat="40.951329024970285" lon="14.471519663315497"><ele>30.0</ele><time>2026-05-02T08:08:13.999Z</time></trkpt><trkpt lat="40.95126908066831" lon="14.471644745495624"><ele>30.0</ele><time>2026-05-02T08:08:15.999Z</time></trkpt><trkpt lat="40.95123657340879" lon="14.47171880622635"><ele>30.0</ele><time>2026-05-02T08:08:16.999Z</time></trkpt><trkpt lat="40.951204414326014" lon="14.471803654926683"><ele>30.0</ele><time>2026-05-02T08:08:17.999Z</time></trkpt><trkpt lat="40.951228784938614" lon="14.471937646427223"><ele>30.0</ele><time>2026-05-02T08:08:18.999Z</time></trkpt><trkpt lat="40.95119074231574" lon="14.472050199033927"><ele>30.0</ele><time>2026-05-02T08:08:19.999Z</time></trkpt><trkpt lat="40.951150456525134" lon="14.472156584787959"><ele>30.0</ele><time>2026-05-02T08:08:20.999Z</time></trkpt><trkpt lat="40.95111867567766" lon="14.47226108341011"><ele>30.0</ele><time>2026-05-02T08:08:21.999Z</time></trkpt><trkpt lat="40.95108635336498" lon="14.472363476478899"><ele>30.0</ele><time>2026-05-02T08:08:22.999Z</time></trkpt><trkpt lat="40.95107262052699" lon="14.47247336368161"><ele>30.0</ele><time>2026-05-02T08:08:23.999Z</time></trkpt><trkpt lat="40.951064292818984" lon="14.472582099320835"><ele>30.0</ele><time>2026-05-02T08:08:24.999Z</time></trkpt><trkpt lat="40.95105350854489" lon="14.472696145186843"><ele>30.0</ele><time>2026-05-02T08:08:25.999Z</time></trkpt><trkpt lat="40.951038579833025" lon="14.472821426517589"><ele>29.8</ele><time>2026-05-02T08:08:26.999Z</time></trkpt><trkpt lat="40.95101513612699" lon="14.472947039093672"><ele>29.6</ele><time>2026-05-02T08:08:27.999Z</time></trkpt><trkpt lat="40.950978278009266" lon="14.473072534932644"><ele>29.4</ele><time>2026-05-02T08:08:28.999Z</time></trkpt><trkpt lat="40.95092815418455" lon="14.473207382407917"><ele>29.2</ele><time>2026-05-02T08:08:29.999Z</time></trkpt><trkpt lat="40.9508574946945" lon="14.473352618347281"><ele>29.0</ele><time>2026-05-02T08:08:30.999Z</time></trkpt><trkpt lat="40.95079640790092" lon="14.47351193281827"><ele>28.666666666666664</ele><time>2026-05-02T08:08:31.999Z</time></trkpt><trkpt lat="40.95069511861023" lon="14.473664314455679"><ele>28.333333333333336</ele><time>2026-05-02T08:08:32.999Z</time></trkpt><trkpt lat="40.95060363397919" lon="14.473835312848228"><ele>28.0</ele><time>2026-05-02T08:08:33.999Z</time></trkpt><trkpt lat="40.95050420725961" lon="14.474020878602735"><ele>28.333333333333336</ele><time>2026-05-02T08:08:34.999Z</time></trkpt><trkpt lat="40.95039570579766" lon="14.474224968998776"><ele>28.666666666666664</ele><time>2026-05-02T08:08:35.999Z</time></trkpt><trkpt lat="40.95027957352814" lon="14.47444365010446"><ele>29.0</ele><time>2026-05-02T08:08:36.999Z</time></trkpt><trkpt lat="40.95015796284593" lon="14.474678662694526"><ele>29.0</ele><time>2026-05-02T08:08:37.999Z</time></trkpt><trkpt lat="40.950030428115106" lon="14.474921663996756"><ele>29.0</ele><time>2026-05-02T08:08:38.999Z</time></trkpt><trkpt lat="40.94989426003009" lon="14.475175615243192"><ele>29.0</ele><time>2026-05-02T08:08:39.999Z</time></trkpt><trkpt lat="40.94974918768701" lon="14.475444502422372"><ele>29.0</ele><time>2026-05-02T08:08:40.999Z</time></trkpt><trkpt lat="40.94959642988883" lon="14.475726110863922"><ele>29.0</ele><time>2026-05-02T08:08:41.999Z</time></trkpt><trkpt lat="40.94943667050693" lon="14.47602241604421"><ele>29.0</ele><time>2026-05-02T08:08:42.999Z</time></trkpt><trkpt lat="40.94926629214159" lon="14.476335624168643"><ele>30.0</ele><time>2026-05-02T08:08:43.999Z</time></trkpt><trkpt lat="40.94909274864981" lon="14.476660644158473"><ele>31.0</ele><time>2026-05-02T08:08:44.999Z</time></trkpt><trkpt lat="40.948914861873455" lon="14.476994029355177"><ele>30.0</ele><time>2026-05-02T08:08:45.999Z</time></trkpt><trkpt lat="40.948733066659265" lon="14.47733337100458"><ele>29.0</ele><time>2026-05-02T08:08:46.999Z</time></trkpt><trkpt lat="40.948547806909076" lon="14.477674928397153"><ele>29.0</ele><time>2026-05-02T08:08:47.999Z</time></trkpt><trkpt lat="40.948359828355684" lon="14.478019717121512"><ele>29.0</ele><time>2026-05-02T08:08:48.999Z</time></trkpt><trkpt lat="40.94816969810109" lon="14.478365805004472"><ele>29.0</ele><time>2026-05-02T08:08:49.999Z</time></trkpt><trkpt lat="40.947981538380816" lon="14.478710922032958"><ele>29.0</ele><time>2026-05-02T08:08:50.999Z</time></trkpt><trkpt lat="40.94779417888045" lon="14.479051951468588"><ele>29.0</ele><time>2026-05-02T08:08:51.999Z</time></trkpt><trkpt lat="40.94760549474278" lon="14.479393889850815"><ele>29.0</ele><time>2026-05-02T08:08:52.999Z</time></trkpt><trkpt lat="40.94741556762138" lon="14.479739752200596"><ele>29.0</ele><time>2026-05-02T08:08:53.999Z</time></trkpt><trkpt lat="40.94722912018134" lon="14.480087674506914"><ele>29.0</ele><time>2026-05-02T08:08:54.999Z</time></trkpt><trkpt lat="40.94704259655496" lon="14.480437470659938"><ele>29.0</ele><time>2026-05-02T08:08:55.999Z</time></trkpt><trkpt lat="40.94685994409272" lon="14.480776568496635"><ele>29.0</ele><time>2026-05-02T08:08:56.999Z</time></trkpt><trkpt lat="40.946683260596636" lon="14.481105517655966"><ele>28.5</ele><time>2026-05-02T08:08:57.998Z</time></trkpt><trkpt lat="40.94650943474147" lon="14.48143151208713"><ele>28.0</ele><time>2026-05-02T08:08:58.998Z</time></trkpt><trkpt lat="40.946337007437364" lon="14.481758982679919"><ele>28.0</ele><time>2026-05-02T08:08:59.998Z</time></trkpt><trkpt lat="40.946164830978475" lon="14.48208972339571"><ele>28.0</ele><time>2026-05-02T08:09:00.998Z</time></trkpt><trkpt lat="40.94598985640975" lon="14.482425019689451"><ele>29.5</ele><time>2026-05-02T08:09:01.998Z</time></trkpt><trkpt lat="40.9458089849527" lon="14.48276189093012"><ele>31.0</ele><time>2026-05-02T08:09:02.998Z</time></trkpt><trkpt lat="40.94562310934876" lon="14.483100257464075"><ele>31.0</ele><time>2026-05-02T08:09:03.998Z</time></trkpt><trkpt lat="40.94543883527512" lon="14.483446123784068"><ele>31.0</ele><time>2026-05-02T08:09:04.998Z</time></trkpt><trkpt lat="40.9452576712239" lon="14.483802596681114"><ele>29.5</ele><time>2026-05-02T08:09:05.998Z</time></trkpt><trkpt lat="40.94507328090314" lon="14.484162068068928"><ele>28.0</ele><time>2026-05-02T08:09:06.998Z</time></trkpt><trkpt lat="40.94488349393093" lon="14.484519689688025"><ele>28.0</ele><time>2026-05-02T08:09:07.998Z</time></trkpt><trkpt lat="40.944689021956435" lon="14.48487106359662"><ele>28.0</ele><time>2026-05-02T08:09:08.998Z</time></trkpt><trkpt lat="40.94449849151918" lon="14.485213698020843"><ele>28.0</ele><time>2026-05-02T08:09:09.998Z</time></trkpt><trkpt lat="40.944305829739974" lon="14.485552888663726"><ele>28.0</ele><time>2026-05-02T08:09:10.998Z</time></trkpt><trkpt lat="40.94410501833768" lon="14.485885406968666"><ele>28.5</ele><time>2026-05-02T08:09:11.998Z</time></trkpt><trkpt lat="40.94389922593092" lon="14.48621126018582"><ele>29.0</ele><time>2026-05-02T08:09:12.999Z</time></trkpt><trkpt lat="40.9436860844573" lon="14.486529145876275"><ele>29.0</ele><time>2026-05-02T08:09:14Z</time></trkpt><trkpt lat="40.94346718081437" lon="14.486845376791914"><ele>29.0</ele><time>2026-05-02T08:09:14.999Z</time></trkpt><trkpt lat="40.94324477915767" lon="14.487158400361352"><ele>29.0</ele><time>2026-05-02T08:09:16Z</time></trkpt><trkpt lat="40.94301773930324" lon="14.487468725619012"><ele>29.0</ele><time>2026-05-02T08:09:17Z</time></trkpt><trkpt lat="40.94278415737521" lon="14.487773654724636"><ele>30.5</ele><time>2026-05-02T08:09:18Z</time></trkpt><trkpt lat="40.94254489171683" lon="14.488072286802577"><ele>32.0</ele><time>2026-05-02T08:09:19Z</time></trkpt><trkpt lat="40.942302164937935" lon="14.48836742770333"><ele>32.0</ele><time>2026-05-02T08:09:20Z</time></trkpt><trkpt lat="40.94205384414313" lon="14.488660609846452"><ele>32.0</ele><time>2026-05-02T08:09:21Z</time></trkpt><trkpt lat="40.941799638804525" lon="14.488948471193304"><ele>31.5</ele><time>2026-05-02T08:09:22Z</time></trkpt><trkpt lat="40.941540365527075" lon="14.489228465902045"><ele>31.0</ele><time>2026-05-02T08:09:23Z</time></trkpt><trkpt lat="40.941275663660406" lon="14.489500601287432"><ele>30.5</ele><time>2026-05-02T08:09:24Z</time></trkpt><trkpt lat="40.94100750443476" lon="14.489763619515415"><ele>30.0</ele><time>2026-05-02T08:09:25Z</time></trkpt><trkpt lat="40.940735560232234" lon="14.490020359401358"><ele>31.0</ele><time>2026-05-02T08:09:26Z</time></trkpt><trkpt lat="40.94046047804169" lon="14.490270055055014"><ele>32.0</ele><time>2026-05-02T08:09:27Z</time></trkpt><trkpt lat="40.94018152923905" lon="14.490514204798622"><ele>31.5</ele><time>2026-05-02T08:09:28Z</time></trkpt><trkpt lat="40.9398995196032" lon="14.490752447088251"><ele>31.0</ele><time>2026-05-02T08:09:29Z</time></trkpt><trkpt lat="40.939614218830386" lon="14.49098217650987"><ele>31.0</ele><time>2026-05-02T08:09:30Z</time></trkpt><trkpt lat="40.93932584350726" lon="14.491205579579457"><ele>31.0</ele><time>2026-05-02T08:09:31Z</time></trkpt><trkpt lat="40.939035008416354" lon="14.4914215307481"><ele>31.5</ele><time>2026-05-02T08:09:32Z</time></trkpt><trkpt lat="40.938742318046806" lon="14.491633679561664"><ele>32.0</ele><time>2026-05-02T08:09:33Z</time></trkpt><trkpt lat="40.93844841662423" lon="14.491845510772942"><ele>32.0</ele><time>2026-05-02T08:09:34Z</time></trkpt><trkpt lat="40.93815215569459" lon="14.492055688191419"><ele>32.0</ele><time>2026-05-02T08:09:35Z</time></trkpt><trkpt lat="40.93785822419194" lon="14.49226276965985"><ele>32.0</ele><time>2026-05-02T08:09:35.999Z</time></trkpt><trkpt lat="40.93756544668497" lon="14.492474010196318"><ele>32.0</ele><time>2026-05-02T08:09:36.999Z</time></trkpt><trkpt lat="40.93727114352968" lon="14.492685646909464"><ele>32.0</ele><time>2026-05-02T08:09:37.999Z</time></trkpt><trkpt lat="40.936977153284616" lon="14.492895105693025"><ele>32.0</ele><time>2026-05-02T08:09:38.999Z</time></trkpt><trkpt lat="40.936684000978026" lon="14.493108463952755"><ele>32.5</ele><time>2026-05-02T08:09:39.999Z</time></trkpt><trkpt lat="40.936390940288824" lon="14.493322558928071"><ele>33.0</ele><time>2026-05-02T08:09:40.999Z</time></trkpt><trkpt lat="40.93609779812865" lon="14.493534167984699"><ele>33.0</ele><time>2026-05-02T08:09:41.999Z</time></trkpt><trkpt lat="40.935805393082674" lon="14.49374323508691"><ele>33.0</ele><time>2026-05-02T08:09:42.999Z</time></trkpt><trkpt lat="40.93551105076756" lon="14.493951197531079"><ele>32.5</ele><time>2026-05-02T08:09:43.999Z</time></trkpt><trkpt lat="40.935216626656754" lon="14.494158577853415"><ele>32.0</ele><time>2026-05-02T08:09:44.999Z</time></trkpt><trkpt lat="40.93492427615511" lon="14.494366604561762"><ele>31.5</ele><time>2026-05-02T08:09:45.999Z</time></trkpt><trkpt lat="40.93463048971977" lon="14.49457505197459"><ele>31.0</ele><time>2026-05-02T08:09:46.999Z</time></trkpt><trkpt lat="40.934336453390536" lon="14.494782416560575"><ele>31.5</ele><time>2026-05-02T08:09:47.999Z</time></trkpt><trkpt lat="40.93404246646548" lon="14.494989606607952"><ele>32.0</ele><time>2026-05-02T08:09:48.999Z</time></trkpt><trkpt lat="40.93374799002753" lon="14.495197470811753"><ele>32.0</ele><time>2026-05-02T08:09:49.999Z</time></trkpt><trkpt lat="40.93345270611704" lon="14.495404877064813"><ele>32.0</ele><time>2026-05-02T08:09:50.999Z</time></trkpt><trkpt lat="40.93315584334186" lon="14.495608566154749"><ele>31.5</ele><time>2026-05-02T08:09:51.999Z</time></trkpt><trkpt lat="40.93286025100989" lon="14.495811888503859"><ele>31.0</ele><time>2026-05-02T08:09:52.999Z</time></trkpt><trkpt lat="40.93256490284891" lon="14.496018133599382"><ele>31.0</ele><time>2026-05-02T08:09:53.999Z</time></trkpt><trkpt lat="40.9322680800892" lon="14.496222750924868"><ele>31.0</ele><time>2026-05-02T08:09:54.999Z</time></trkpt><trkpt lat="40.93197191081644" lon="14.496425577174062"><ele>33.0</ele><time>2026-05-02T08:09:55.999Z</time></trkpt><trkpt lat="40.93167510553701" lon="14.496629797699557"><ele>35.0</ele><time>2026-05-02T08:09:56.999Z</time></trkpt><trkpt lat="40.93137824178557" lon="14.496835154171627"><ele>35.0</ele><time>2026-05-02T08:09:57.999Z</time></trkpt><trkpt lat="40.931082515610704" lon="14.497040140664167"><ele>35.0</ele><time>2026-05-02T08:09:58.999Z</time></trkpt><trkpt lat="40.930788993493934" lon="14.497245396024086"><ele>35.5</ele><time>2026-05-02T08:09:59.999Z</time></trkpt><trkpt lat="40.930496211913834" lon="14.497451468562149"><ele>36.0</ele><time>2026-05-02T08:10:00.999Z</time></trkpt><trkpt lat="40.930203022432785" lon="14.497658589598297"><ele>37.0</ele><time>2026-05-02T08:10:01.999Z</time></trkpt><trkpt lat="40.9299088732805" lon="14.49786524173652"><ele>38.0</ele><time>2026-05-02T08:10:02.999Z</time></trkpt><trkpt lat="40.92961451004559" lon="14.498068541973758"><ele>38.0</ele><time>2026-05-02T08:10:03.999Z</time></trkpt><trkpt lat="40.9293185352439" lon="14.498272342674877"><ele>38.0</ele><time>2026-05-02T08:10:04.999Z</time></trkpt><trkpt lat="40.929022935364" lon="14.49847761138206"><ele>38.0</ele><time>2026-05-02T08:10:05.999Z</time></trkpt><trkpt lat="40.92872754311261" lon="14.498683818878337"><ele>38.0</ele><time>2026-05-02T08:10:06.999Z</time></trkpt><trkpt lat="40.92843199267112" lon="14.498892154316627"><ele>37.5</ele><time>2026-05-02T08:10:07.999Z</time></trkpt><trkpt lat="40.928135268948935" lon="14.499100788075433"><ele>37.0</ele><time>2026-05-02T08:10:08.999Z</time></trkpt><trkpt lat="40.92784042859934" lon="14.499307805802294"><ele>37.0</ele><time>2026-05-02T08:10:09.999Z</time></trkpt><trkpt lat="40.92754480545944" lon="14.499513793274458"><ele>37.0</ele><time>2026-05-02T08:10:10.999Z</time></trkpt><trkpt lat="40.927249616850915" lon="14.499720742199887"><ele>37.5</ele><time>2026-05-02T08:10:11.999Z</time></trkpt><trkpt lat="40.92695554627718" lon="14.499927583179034"><ele>38.0</ele><time>2026-05-02T08:10:12.999Z</time></trkpt><trkpt lat="40.9266606797656" lon="14.500137203808677"><ele>37.0</ele><time>2026-05-02T08:10:13.999Z</time></trkpt><trkpt lat="40.926367402156515" lon="14.5003449257366"><ele>36.0</ele><time>2026-05-02T08:10:14.999Z</time></trkpt><trkpt lat="40.92607403385198" lon="14.500555354038996"><ele>35.5</ele><time>2026-05-02T08:10:15.999Z</time></trkpt><trkpt lat="40.92578366445635" lon="14.500773011954609"><ele>35.0</ele><time>2026-05-02T08:10:16.999Z</time></trkpt><trkpt lat="40.92550074984531" lon="14.500998730723552"><ele>35.0</ele><time>2026-05-02T08:10:17.999Z</time></trkpt><trkpt lat="40.92522440611833" lon="14.501238204122298"><ele>35.0</ele><time>2026-05-02T08:10:18.999Z</time></trkpt><trkpt lat="40.924952444567246" lon="14.501489494628746"><ele>34.0</ele><time>2026-05-02T08:10:19.999Z</time></trkpt><trkpt lat="40.92468213975238" lon="14.501746344706437"><ele>33.0</ele><time>2026-05-02T08:10:20.999Z</time></trkpt><trkpt lat="40.92441455276431" lon="14.502006794034049"><ele>34.0</ele><time>2026-05-02T08:10:21.999Z</time></trkpt><trkpt lat="40.924150188927754" lon="14.502270337719583"><ele>35.0</ele><time>2026-05-02T08:10:22.999Z</time></trkpt><trkpt lat="40.923889306410125" lon="14.502540901821517"><ele>35.0</ele><time>2026-05-02T08:10:23.999Z</time></trkpt><trkpt lat="40.92363204974675" lon="14.502816714732544"><ele>35.0</ele><time>2026-05-02T08:10:24.999Z</time></trkpt><trkpt lat="40.92337893734336" lon="14.503099585168034"><ele>35.5</ele><time>2026-05-02T08:10:25.999Z</time></trkpt><trkpt lat="40.92313079117961" lon="14.503390019666542"><ele>36.0</ele><time>2026-05-02T08:10:26.999Z</time></trkpt><trkpt lat="40.92288571939225" lon="14.503685628487546"><ele>35.0</ele><time>2026-05-02T08:10:27.999Z</time></trkpt><trkpt lat="40.92264488588263" lon="14.50398685148379"><ele>34.0</ele><time>2026-05-02T08:10:28.999Z</time></trkpt><trkpt lat="40.922407840286226" lon="14.504294681880218"><ele>33.5</ele><time>2026-05-02T08:10:29.999Z</time></trkpt><trkpt lat="40.92217544078417" lon="14.504609100998763"><ele>33.0</ele><time>2026-05-02T08:10:30.999Z</time></trkpt><trkpt lat="40.92194633339236" lon="14.504929710580411"><ele>33.5</ele><time>2026-05-02T08:10:31.999Z</time></trkpt><trkpt lat="40.921721377471506" lon="14.505256260279864"><ele>34.0</ele><time>2026-05-02T08:10:32.999Z</time></trkpt><trkpt lat="40.921503936441276" lon="14.505590664849182"><ele>34.0</ele><time>2026-05-02T08:10:33.999Z</time></trkpt><trkpt lat="40.921293432425465" lon="14.505931357861343"><ele>34.0</ele><time>2026-05-02T08:10:34.999Z</time></trkpt><trkpt lat="40.921089218348875" lon="14.50627884912336"><ele>33.5</ele><time>2026-05-02T08:10:35.999Z</time></trkpt><trkpt lat="40.920889729697" lon="14.506633150466945"><ele>33.0</ele><time>2026-05-02T08:10:36.999Z</time></trkpt><trkpt lat="40.92069648892921" lon="14.50699107381962"><ele>34.5</ele><time>2026-05-02T08:10:37.999Z</time></trkpt><trkpt lat="40.920510331676304" lon="14.507357590007087"><ele>36.0</ele><time>2026-05-02T08:10:38.999Z</time></trkpt><trkpt lat="40.92033195877302" lon="14.507729771571235"><ele>34.5</ele><time>2026-05-02T08:10:39.999Z</time></trkpt><trkpt lat="40.920154898625384" lon="14.508104591549124"><ele>33.0</ele><time>2026-05-02T08:10:40.999Z</time></trkpt><trkpt lat="40.919983454693664" lon="14.508484211787708"><ele>33.5</ele><time>2026-05-02T08:10:41.999Z</time></trkpt><trkpt lat="40.91981911865351" lon="14.508868790361436"><ele>34.0</ele><time>2026-05-02T08:10:42.999Z</time></trkpt><trkpt lat="40.91966098403517" lon="14.509260000931384"><ele>33.5</ele><time>2026-05-02T08:10:43.999Z</time></trkpt><trkpt lat="40.91951050138918" lon="14.509654206254414"><ele>33.0</ele><time>2026-05-02T08:10:44.999Z</time></trkpt><trkpt lat="40.91936395621203" lon="14.510052227514906"><ele>34.0</ele><time>2026-05-02T08:10:45.999Z</time></trkpt><trkpt lat="40.919222978786166" lon="14.510452902922943"><ele>35.0</ele><time>2026-05-02T08:10:46.999Z</time></trkpt><trkpt lat="40.91908670377047" lon="14.510855995547521"><ele>34.0</ele><time>2026-05-02T08:10:47.999Z</time></trkpt><trkpt lat="40.9189589801573" lon="14.511264813476027"><ele>33.0</ele><time>2026-05-02T08:10:48.999Z</time></trkpt><trkpt lat="40.91883705071298" lon="14.511677261394075"><ele>33.0</ele><time>2026-05-02T08:10:49.999Z</time></trkpt><trkpt lat="40.91871614954225" lon="14.512090449758988"><ele>33.0</ele><time>2026-05-02T08:10:50.999Z</time></trkpt><trkpt lat="40.91859578229918" lon="14.512502601235578"><ele>33.0</ele><time>2026-05-02T08:10:51.999Z</time></trkpt><trkpt lat="40.91847517693184" lon="14.51291201697619"><ele>33.0</ele><time>2026-05-02T08:10:52.999Z</time></trkpt><trkpt lat="40.91835340141694" lon="14.513319943030972"><ele>34.5</ele><time>2026-05-02T08:10:53.999Z</time></trkpt><trkpt lat="40.91823001850119" lon="14.513726574434084"><ele>36.0</ele><time>2026-05-02T08:10:54.999Z</time></trkpt><trkpt lat="40.91810865165615" lon="14.514129397096225"><ele>36.0</ele><time>2026-05-02T08:10:55.999Z</time></trkpt><trkpt lat="40.917985376613665" lon="14.514534102472965"><ele>36.0</ele><time>2026-05-02T08:10:56.999Z</time></trkpt><trkpt lat="40.91786207935685" lon="14.514937165959644"><ele>36.0</ele><time>2026-05-02T08:10:57.999Z</time></trkpt><trkpt lat="40.91774028211205" lon="14.51533770588641"><ele>36.0</ele><time>2026-05-02T08:10:58.999Z</time></trkpt><trkpt lat="40.9176183622131" lon="14.51573869652089"><ele>36.0</ele><time>2026-05-02T08:10:59.998Z</time></trkpt><trkpt lat="40.91749571171641" lon="14.51614151884562"><ele>36.0</ele><time>2026-05-02T08:11:00.998Z</time></trkpt><trkpt lat="40.91737224513156" lon="14.516546338240998"><ele>36.0</ele><time>2026-05-02T08:11:01.998Z</time></trkpt><trkpt lat="40.917248514653544" lon="14.51695202070008"><ele>36.0</ele><time>2026-05-02T08:11:02.998Z</time></trkpt><trkpt lat="40.91712440065643" lon="14.51735743394953"><ele>36.5</ele><time>2026-05-02T08:11:03.998Z</time></trkpt><trkpt lat="40.91699961547893" lon="14.517765272108678"><ele>37.0</ele><time>2026-05-02T08:11:04.998Z</time></trkpt><trkpt lat="40.91687431167474" lon="14.518175317000985"><ele>37.0</ele><time>2026-05-02T08:11:05.998Z</time></trkpt><trkpt lat="40.91674893072589" lon="14.518585913645335"><ele>37.0</ele><time>2026-05-02T08:11:06.998Z</time></trkpt><trkpt lat="40.91662416376242" lon="14.518997277416984"><ele>37.0</ele><time>2026-05-02T08:11:07.998Z</time></trkpt><trkpt lat="40.916497351158114" lon="14.519407488199848"><ele>37.0</ele><time>2026-05-02T08:11:08.998Z</time></trkpt><trkpt lat="40.91636528764548" lon="14.519818878735014"><ele>37.0</ele><time>2026-05-02T08:11:09.998Z</time></trkpt><trkpt lat="40.916225119106485" lon="14.520222961964903"><ele>37.0</ele><time>2026-05-02T08:11:10.998Z</time></trkpt><trkpt lat="40.916074789965656" lon="14.520620151922289"><ele>36.5</ele><time>2026-05-02T08:11:11.998Z</time></trkpt><trkpt lat="40.91591814889545" lon="14.52101267611694"><ele>36.0</ele><time>2026-05-02T08:11:12.998Z</time></trkpt><trkpt lat="40.91575424245391" lon="14.521400425074326"><ele>35.5</ele><time>2026-05-02T08:11:13.998Z</time></trkpt><trkpt lat="40.915582630882646" lon="14.521781569139605"><ele>35.0</ele><time>2026-05-02T08:11:14.998Z</time></trkpt><trkpt lat="40.915405757913746" lon="14.522155588275245"><ele>34.5</ele><time>2026-05-02T08:11:15.998Z</time></trkpt><trkpt lat="40.91522235915866" lon="14.522526240977369"><ele>34.0</ele><time>2026-05-02T08:11:16.998Z</time></trkpt><trkpt lat="40.91502964883593" lon="14.522884905249692"><ele>35.0</ele><time>2026-05-02T08:11:17.998Z</time></trkpt><trkpt lat="40.91482884071765" lon="14.52323610832738"><ele>36.0</ele><time>2026-05-02T08:11:19Z</time></trkpt><trkpt lat="40.91462620899826" lon="14.523586301405345"><ele>35.5</ele><time>2026-05-02T08:11:20Z</time></trkpt><trkpt lat="40.914417242379045" lon="14.523931214941777"><ele>35.0</ele><time>2026-05-02T08:11:21Z</time></trkpt><trkpt lat="40.9142016693902" lon="14.524266360849804"><ele>35.5</ele><time>2026-05-02T08:11:22Z</time></trkpt><trkpt lat="40.91397988808808" lon="14.524592133637215"><ele>36.0</ele><time>2026-05-02T08:11:23Z</time></trkpt><trkpt lat="40.91375208591293" lon="14.524908209895756"><ele>36.0</ele><time>2026-05-02T08:11:24Z</time></trkpt><trkpt lat="40.91351862069664" lon="14.52521680902536"><ele>36.0</ele><time>2026-05-02T08:11:25Z</time></trkpt><trkpt lat="40.91327982726296" lon="14.525517291016715"><ele>37.5</ele><time>2026-05-02T08:11:26Z</time></trkpt><trkpt lat="40.913035256766975" lon="14.525811627966824"><ele>39.0</ele><time>2026-05-02T08:11:27Z</time></trkpt><trkpt lat="40.91278630412645" lon="14.526096821492793"><ele>38.5</ele><time>2026-05-02T08:11:28Z</time></trkpt><trkpt lat="40.91253245109945" lon="14.526377559268203"><ele>38.0</ele><time>2026-05-02T08:11:29Z</time></trkpt><trkpt lat="40.9122756705844" lon="14.526651368661721"><ele>38.0</ele><time>2026-05-02T08:11:30Z</time></trkpt><trkpt lat="40.912013462540145" lon="14.526912791292988"><ele>38.0</ele><time>2026-05-02T08:11:31Z</time></trkpt><trkpt lat="40.91174727056457" lon="14.527165227720564"><ele>39.0</ele><time>2026-05-02T08:11:32Z</time></trkpt><trkpt lat="40.91147500560102" lon="14.527408607378943"><ele>40.0</ele><time>2026-05-02T08:11:33Z</time></trkpt><trkpt lat="40.91119825241615" lon="14.527642743782993"><ele>40.0</ele><time>2026-05-02T08:11:34Z</time></trkpt><trkpt lat="40.910918398603556" lon="14.527871901445732"><ele>40.0</ele><time>2026-05-02T08:11:35Z</time></trkpt><trkpt lat="40.910634139746094" lon="14.528093289452693"><ele>40.0</ele><time>2026-05-02T08:11:36Z</time></trkpt><trkpt lat="40.91034372353094" lon="14.528300533687698"><ele>40.0</ele><time>2026-05-02T08:11:37Z</time></trkpt><trkpt lat="40.91004800845228" lon="14.528494166041098"><ele>40.0</ele><time>2026-05-02T08:11:38Z</time></trkpt><trkpt lat="40.909748285473604" lon="14.52867833287092"><ele>40.0</ele><time>2026-05-02T08:11:39Z</time></trkpt><trkpt lat="40.90944475879951" lon="14.528854336253158"><ele>40.0</ele><time>2026-05-02T08:11:40Z</time></trkpt><trkpt lat="40.90913827050684" lon="14.52902121846134"><ele>40.0</ele><time>2026-05-02T08:11:41Z</time></trkpt><trkpt lat="40.908829408914656" lon="14.529182217709463"><ele>40.0</ele><time>2026-05-02T08:11:42Z</time></trkpt><trkpt lat="40.90851711787312" lon="14.529334506613221"><ele>40.0</ele><time>2026-05-02T08:11:43Z</time></trkpt><trkpt lat="40.90820289736937" lon="14.529476311840682"><ele>39.0</ele><time>2026-05-02T08:11:44Z</time></trkpt><trkpt lat="40.907887265139685" lon="14.529606858928409"><ele>38.0</ele><time>2026-05-02T08:11:45Z</time></trkpt><trkpt lat="40.90756982058463" lon="14.529726524045886"><ele>38.0</ele><time>2026-05-02T08:11:46Z</time></trkpt><trkpt lat="40.90725099299408" lon="14.529837570725691"><ele>38.0</ele><time>2026-05-02T08:11:47Z</time></trkpt><trkpt lat="40.906929778742615" lon="14.52994037275712"><ele>39.5</ele><time>2026-05-02T08:11:48Z</time></trkpt><trkpt lat="40.90660611811137" lon="14.530042858716925"><ele>41.0</ele><time>2026-05-02T08:11:49Z</time></trkpt><trkpt lat="40.90628427179023" lon="14.530150618057935"><ele>41.0</ele><time>2026-05-02T08:11:49.999Z</time></trkpt><trkpt lat="40.9059637709478" lon="14.53026244250498"><ele>41.0</ele><time>2026-05-02T08:11:50.999Z</time></trkpt><trkpt lat="40.905640146262364" lon="14.530374172063993"><ele>40.5</ele><time>2026-05-02T08:11:51.999Z</time></trkpt><trkpt lat="40.90531556351364" lon="14.530486073531225"><ele>40.0</ele><time>2026-05-02T08:11:52.999Z</time></trkpt><trkpt lat="40.90499019013174" lon="14.530597703919183"><ele>40.0</ele><time>2026-05-02T08:11:53.999Z</time></trkpt><trkpt lat="40.90466477821619" lon="14.530708228777925"><ele>40.0</ele><time>2026-05-02T08:11:54.999Z</time></trkpt><trkpt lat="40.90434128159919" lon="14.530820152957938"><ele>39.5</ele><time>2026-05-02T08:11:55.999Z</time></trkpt><trkpt lat="40.90401821345687" lon="14.530931336453502"><ele>39.0</ele><time>2026-05-02T08:11:56.999Z</time></trkpt><trkpt lat="40.903695127355135" lon="14.531041232303977"><ele>39.0</ele><time>2026-05-02T08:11:57.999Z</time></trkpt><trkpt lat="40.90337251765219" lon="14.531151968696452"><ele>39.0</ele><time>2026-05-02T08:11:58.999Z</time></trkpt><trkpt lat="40.90304830599691" lon="14.531263877016631"><ele>39.0</ele><time>2026-05-02T08:11:59.999Z</time></trkpt><trkpt lat="40.902725938276454" lon="14.53137432629028"><ele>39.0</ele><time>2026-05-02T08:12:00.999Z</time></trkpt><trkpt lat="40.90240371240955" lon="14.531484047375672"><ele>39.0</ele><time>2026-05-02T08:12:01.999Z</time></trkpt><trkpt lat="40.902084138401904" lon="14.53159409221091"><ele>39.0</ele><time>2026-05-02T08:12:02.999Z</time></trkpt><trkpt lat="40.90176349380768" lon="14.5317047457142"><ele>39.0</ele><time>2026-05-02T08:12:03.999Z</time></trkpt><trkpt lat="40.90144209604281" lon="14.531817138273153"><ele>39.0</ele><time>2026-05-02T08:12:04.999Z</time></trkpt><trkpt lat="40.90111999702383" lon="14.531930077477057"><ele>39.5</ele><time>2026-05-02T08:12:05.999Z</time></trkpt><trkpt lat="40.90079765939183" lon="14.53204196027037"><ele>40.0</ele><time>2026-05-02T08:12:06.999Z</time></trkpt><trkpt lat="40.900475082959765" lon="14.532149904454613"><ele>40.0</ele><time>2026-05-02T08:12:07.999Z</time></trkpt><trkpt lat="40.900150565073375" lon="14.532253071733761"><ele>40.0</ele><time>2026-05-02T08:12:08.999Z</time></trkpt><trkpt lat="40.899823789182754" lon="14.53234916288834"><ele>40.0</ele><time>2026-05-02T08:12:09.999Z</time></trkpt><trkpt lat="40.89949453610155" lon="14.532440389424432"><ele>40.0</ele><time>2026-05-02T08:12:10.999Z</time></trkpt><trkpt lat="40.89916446792982" lon="14.532525859253376"><ele>41.5</ele><time>2026-05-02T08:12:11.999Z</time></trkpt><trkpt lat="40.898834527531626" lon="14.53260546519637"><ele>43.0</ele><time>2026-05-02T08:12:12.999Z</time></trkpt><trkpt lat="40.89850266590538" lon="14.532680522900176"><ele>42.5</ele><time>2026-05-02T08:12:13.999Z</time></trkpt><trkpt lat="40.89817071623086" lon="14.532750046933424"><ele>42.0</ele><time>2026-05-02T08:12:14.999Z</time></trkpt><trkpt lat="40.89783801044505" lon="14.532813680101277"><ele>42.0</ele><time>2026-05-02T08:12:15.999Z</time></trkpt><trkpt lat="40.89750444113078" lon="14.532870018756478"><ele>42.0</ele><time>2026-05-02T08:12:16.999Z</time></trkpt><trkpt lat="40.89717178253463" lon="14.532917908198606"><ele>42.5</ele><time>2026-05-02T08:12:17.999Z</time></trkpt><trkpt lat="40.89683689542287" lon="14.532960578439143"><ele>43.0</ele><time>2026-05-02T08:12:18.999Z</time></trkpt><trkpt lat="40.896505527690756" lon="14.532994987967434"><ele>43.0</ele><time>2026-05-02T08:12:19.999Z</time></trkpt><trkpt lat="40.89617400884442" lon="14.53302572734415"><ele>43.0</ele><time>2026-05-02T08:12:20.999Z</time></trkpt><trkpt lat="40.89584277981264" lon="14.53305122972052"><ele>42.0</ele><time>2026-05-02T08:12:21.999Z</time></trkpt><trkpt lat="40.89550956173484" lon="14.53307341156768"><ele>41.0</ele><time>2026-05-02T08:12:22.999Z</time></trkpt><trkpt lat="40.8951765915952" lon="14.533094317096436"><ele>42.0</ele><time>2026-05-02T08:12:23.999Z</time></trkpt><trkpt lat="40.894842981886" lon="14.533114634394659"><ele>43.0</ele><time>2026-05-02T08:12:24.999Z</time></trkpt><trkpt lat="40.894509196956456" lon="14.533134333417674"><ele>42.0</ele><time>2026-05-02T08:12:25.999Z</time></trkpt><trkpt lat="40.89417475452302" lon="14.533153075715902"><ele>41.0</ele><time>2026-05-02T08:12:26.999Z</time></trkpt><trkpt lat="40.89384002232629" lon="14.533171646382614"><ele>41.0</ele><time>2026-05-02T08:12:27.999Z</time></trkpt><trkpt lat="40.89350714205178" lon="14.533192317796507"><ele>41.0</ele><time>2026-05-02T08:12:28.999Z</time></trkpt><trkpt lat="40.89317346054363" lon="14.53321449878486"><ele>41.0</ele><time>2026-05-02T08:12:29.999Z</time></trkpt><trkpt lat="40.89283946023788" lon="14.533235217969494"><ele>41.0</ele><time>2026-05-02T08:12:30.999Z</time></trkpt><trkpt lat="40.89250654357659" lon="14.53325495021123"><ele>42.5</ele><time>2026-05-02T08:12:31.999Z</time></trkpt><trkpt lat="40.89217408405431" lon="14.533273965770046"><ele>44.0</ele><time>2026-05-02T08:12:32.999Z</time></trkpt><trkpt lat="40.89184143345628" lon="14.53329251533966"><ele>44.0</ele><time>2026-05-02T08:12:33.999Z</time></trkpt><trkpt lat="40.8915090376086" lon="14.533311005856568"><ele>44.0</ele><time>2026-05-02T08:12:34.999Z</time></trkpt><trkpt lat="40.89117534608952" lon="14.533331357680714"><ele>44.0</ele><time>2026-05-02T08:12:35.999Z</time></trkpt><trkpt lat="40.89084219482352" lon="14.533350455253915"><ele>44.0</ele><time>2026-05-02T08:12:36.999Z</time></trkpt><trkpt lat="40.89050963003933" lon="14.53337005526165"><ele>44.0</ele><time>2026-05-02T08:12:37.999Z</time></trkpt><trkpt lat="40.890174974333306" lon="14.53338966275734"><ele>44.0</ele><time>2026-05-02T08:12:38.999Z</time></trkpt><trkpt lat="40.889840774649336" lon="14.533408838834392"><ele>44.5</ele><time>2026-05-02T08:12:39.999Z</time></trkpt><trkpt lat="40.88950758624837" lon="14.533427928716987"><ele>45.0</ele><time>2026-05-02T08:12:40.999Z</time></trkpt><trkpt lat="40.88917479997395" lon="14.533446936923761"><ele>45.0</ele><time>2026-05-02T08:12:41.999Z</time></trkpt><trkpt lat="40.88884223225501" lon="14.53346762201165"><ele>45.0</ele><time>2026-05-02T08:12:42.999Z</time></trkpt><trkpt lat="40.888507520223015" lon="14.533489042392247"><ele>45.0</ele><time>2026-05-02T08:12:43.999Z</time></trkpt><trkpt lat="40.88817182712304" lon="14.533507596912575"><ele>45.0</ele><time>2026-05-02T08:12:44.999Z</time></trkpt><trkpt lat="40.88783698206942" lon="14.533523828362807"><ele>45.0</ele><time>2026-05-02T08:12:45.999Z</time></trkpt><trkpt lat="40.887501229034555" lon="14.533541426263564"><ele>45.0</ele><time>2026-05-02T08:12:46.999Z</time></trkpt><trkpt lat="40.88716534457989" lon="14.533559281547484"><ele>45.0</ele><time>2026-05-02T08:12:47.999Z</time></trkpt><trkpt lat="40.88682952283905" lon="14.533577450566296"><ele>45.0</ele><time>2026-05-02T08:12:48.999Z</time></trkpt><trkpt lat="40.88649405222731" lon="14.53359581835469"><ele>44.5</ele><time>2026-05-02T08:12:49.999Z</time></trkpt><trkpt lat="40.886160130897494" lon="14.533612895896379"><ele>44.0</ele><time>2026-05-02T08:12:50.999Z</time></trkpt><trkpt lat="40.88582496167519" lon="14.533634164220334"><ele>43.5</ele><time>2026-05-02T08:12:51.999Z</time></trkpt><trkpt lat="40.88549147156903" lon="14.533655794509876"><ele>43.0</ele><time>2026-05-02T08:12:52.999Z</time></trkpt><trkpt lat="40.88515847954448" lon="14.53367714318342"><ele>43.5</ele><time>2026-05-02T08:12:53.999Z</time></trkpt><trkpt lat="40.884826345755094" lon="14.533695127728794"><ele>44.0</ele><time>2026-05-02T08:12:54.999Z</time></trkpt><trkpt lat="40.884494132968236" lon="14.533714404112612"><ele>44.0</ele><time>2026-05-02T08:12:55.999Z</time></trkpt><trkpt lat="40.88416269672648" lon="14.533733356972972"><ele>44.0</ele><time>2026-05-02T08:12:56.999Z</time></trkpt><trkpt lat="40.88383098062512" lon="14.533754114401434"><ele>44.0</ele><time>2026-05-02T08:12:57.999Z</time></trkpt><trkpt lat="40.88349924107037" lon="14.53377969317511"><ele>44.0</ele><time>2026-05-02T08:12:58.999Z</time></trkpt><trkpt lat="40.88316865381512" lon="14.533804102292917"><ele>45.0</ele><time>2026-05-02T08:12:59.999Z</time></trkpt><trkpt lat="40.88283994075037" lon="14.533823381498348"><ele>46.0</ele><time>2026-05-02T08:13:00.999Z</time></trkpt><trkpt lat="40.882509581143985" lon="14.533839241761061"><ele>46.0</ele><time>2026-05-02T08:13:01.999Z</time></trkpt><trkpt lat="40.882180802209774" lon="14.533855905983403"><ele>46.0</ele><time>2026-05-02T08:13:02.999Z</time></trkpt><trkpt lat="40.881851170768314" lon="14.533875601093055"><ele>46.0</ele><time>2026-05-02T08:13:03.999Z</time></trkpt><trkpt lat="40.881519418004835" lon="14.533894882286987"><ele>46.0</ele><time>2026-05-02T08:13:04.999Z</time></trkpt><trkpt lat="40.88118628575139" lon="14.53391548577526"><ele>46.0</ele><time>2026-05-02T08:13:05.999Z</time></trkpt><trkpt lat="40.880853045392485" lon="14.533935642551276"><ele>46.0</ele><time>2026-05-02T08:13:06.999Z</time></trkpt><trkpt lat="40.88051916821873" lon="14.5339557171864"><ele>46.0</ele><time>2026-05-02T08:13:07.999Z</time></trkpt><trkpt lat="40.88018526395955" lon="14.533975753117995"><ele>46.0</ele><time>2026-05-02T08:13:08.999Z</time></trkpt><trkpt lat="40.87985177836426" lon="14.533995894807862"><ele>46.5</ele><time>2026-05-02T08:13:09.999Z</time></trkpt><trkpt lat="40.879516468309546" lon="14.534016458402617"><ele>47.0</ele><time>2026-05-02T08:13:10.998Z</time></trkpt><trkpt lat="40.87917956071149" lon="14.534036925865236"><ele>48.5</ele><time>2026-05-02T08:13:11.998Z</time></trkpt><trkpt lat="40.87884370649186" lon="14.534058573898735"><ele>50.0</ele><time>2026-05-02T08:13:12.998Z</time></trkpt><trkpt lat="40.8785069820781" lon="14.534079958945624"><ele>48.5</ele><time>2026-05-02T08:13:13.998Z</time></trkpt><trkpt lat="40.8781691434728" lon="14.534102910577117"><ele>47.0</ele><time>2026-05-02T08:13:14.998Z</time></trkpt><trkpt lat="40.87783184787262" lon="14.53412897971851"><ele>47.5</ele><time>2026-05-02T08:13:15.998Z</time></trkpt><trkpt lat="40.87749875460231" lon="14.534153373337203"><ele>48.0</ele><time>2026-05-02T08:13:16.998Z</time></trkpt><trkpt lat="40.877164301360516" lon="14.534179575419637"><ele>48.0</ele><time>2026-05-02T08:13:17.998Z</time></trkpt><trkpt lat="40.87683134238411" lon="14.53420253951379"><ele>48.0</ele><time>2026-05-02T08:13:18.998Z</time></trkpt><trkpt lat="40.87649784389561" lon="14.534224297269105"><ele>47.0</ele><time>2026-05-02T08:13:19.998Z</time></trkpt><trkpt lat="40.876163574828176" lon="14.534247213733632"><ele>46.0</ele><time>2026-05-02T08:13:20.998Z</time></trkpt><trkpt lat="40.87582918101439" lon="14.53426934037565"><ele>46.0</ele><time>2026-05-02T08:13:21.998Z</time></trkpt><trkpt lat="40.87549773969303" lon="14.534288779428545"><ele>46.0</ele><time>2026-05-02T08:13:22.998Z</time></trkpt><trkpt lat="40.87516647637348" lon="14.534307986314198"><ele>46.5</ele><time>2026-05-02T08:13:23.998Z</time></trkpt><trkpt lat="40.87483480569098" lon="14.534329228559626"><ele>47.0</ele><time>2026-05-02T08:13:25Z</time></trkpt><trkpt lat="40.8745041523823" lon="14.534352406239874"><ele>47.0</ele><time>2026-05-02T08:13:26Z</time></trkpt><trkpt lat="40.874171539905184" lon="14.534377397615472"><ele>47.0</ele><time>2026-05-02T08:13:27Z</time></trkpt><trkpt lat="40.87383840046841" lon="14.534404402857755"><ele>47.0</ele><time>2026-05-02T08:13:28Z</time></trkpt><trkpt lat="40.87350531711884" lon="14.534432798328114"><ele>47.0</ele><time>2026-05-02T08:13:29Z</time></trkpt><trkpt lat="40.87317332308393" lon="14.534468723360323"><ele>47.5</ele><time>2026-05-02T08:13:30Z</time></trkpt><trkpt lat="40.8728424388135" lon="14.53451003777314"><ele>48.0</ele><time>2026-05-02T08:13:31Z</time></trkpt><trkpt lat="40.87250867381426" lon="14.534560356544072"><ele>48.0</ele><time>2026-05-02T08:13:32Z</time></trkpt><trkpt lat="40.87217962831072" lon="14.534613071874263"><ele>48.0</ele><time>2026-05-02T08:13:33Z</time></trkpt><trkpt lat="40.87185110981913" lon="14.53467351102262"><ele>47.5</ele><time>2026-05-02T08:13:34Z</time></trkpt><trkpt lat="40.87152193901267" lon="14.53474054624746"><ele>47.0</ele><time>2026-05-02T08:13:35Z</time></trkpt><trkpt lat="40.87119537893433" lon="14.534811542488994"><ele>47.0</ele><time>2026-05-02T08:13:36Z</time></trkpt><trkpt lat="40.870868662556795" lon="14.534889328070824"><ele>47.0</ele><time>2026-05-02T08:13:37Z</time></trkpt><trkpt lat="40.870543114179334" lon="14.534973359843269"><ele>47.0</ele><time>2026-05-02T08:13:38Z</time></trkpt><trkpt lat="40.870217764912084" lon="14.53506118952252"><ele>47.0</ele><time>2026-05-02T08:13:39Z</time></trkpt><trkpt lat="40.86989222185065" lon="14.535155155219451"><ele>47.5</ele><time>2026-05-02T08:13:40Z</time></trkpt><trkpt lat="40.869567360746586" lon="14.535253208333943"><ele>48.0</ele><time>2026-05-02T08:13:41Z</time></trkpt><trkpt lat="40.869242584461645" lon="14.535355734102819"><ele>47.5</ele><time>2026-05-02T08:13:42Z</time></trkpt><trkpt lat="40.86891905528424" lon="14.535463299329875"><ele>47.0</ele><time>2026-05-02T08:13:43Z</time></trkpt><trkpt lat="40.868594987655875" lon="14.535575707258346"><ele>47.0</ele><time>2026-05-02T08:13:44Z</time></trkpt><trkpt lat="40.868271317346014" lon="14.535691070293641"><ele>47.0</ele><time>2026-05-02T08:13:45Z</time></trkpt><trkpt lat="40.867950861016155" lon="14.535807199280452"><ele>47.0</ele><time>2026-05-02T08:13:46Z</time></trkpt><trkpt lat="40.86762953758509" lon="14.53592241177992"><ele>47.0</ele><time>2026-05-02T08:13:47Z</time></trkpt><trkpt lat="40.86730770662898" lon="14.536035466776067"><ele>48.0</ele><time>2026-05-02T08:13:48Z</time></trkpt><trkpt lat="40.866987346032595" lon="14.536149114495458"><ele>49.0</ele><time>2026-05-02T08:13:49Z</time></trkpt><trkpt lat="40.86666603568797" lon="14.53626306084027"><ele>50.0</ele><time>2026-05-02T08:13:50Z</time></trkpt><trkpt lat="40.86634271587602" lon="14.536378323630334"><ele>51.0</ele><time>2026-05-02T08:13:51Z</time></trkpt><trkpt lat="40.86601874623813" lon="14.536494139302604"><ele>52.0</ele><time>2026-05-02T08:13:52Z</time></trkpt><trkpt lat="40.86569364616791" lon="14.536609621490982"><ele>53.0</ele><time>2026-05-02T08:13:53Z</time></trkpt><trkpt lat="40.865366801160945" lon="14.536724756981576"><ele>52.5</ele><time>2026-05-02T08:13:54Z</time></trkpt><trkpt lat="40.86504281211263" lon="14.536836287295698"><ele>52.0</ele><time>2026-05-02T08:13:55Z</time></trkpt><trkpt lat="40.86471820881724" lon="14.536947233770467"><ele>51.0</ele><time>2026-05-02T08:13:56Z</time></trkpt><trkpt lat="40.86439157761624" lon="14.537059258186572"><ele>50.0</ele><time>2026-05-02T08:13:57Z</time></trkpt><trkpt lat="40.86406621917011" lon="14.53717151534101"><ele>50.0</ele><time>2026-05-02T08:13:58Z</time></trkpt><trkpt lat="40.86374141086827" lon="14.537284911795313"><ele>50.0</ele><time>2026-05-02T08:13:59Z</time></trkpt><trkpt lat="40.86341805799757" lon="14.537398383554697"><ele>50.0</ele><time>2026-05-02T08:14:00Z</time></trkpt><trkpt lat="40.86309443448072" lon="14.53751292890616"><ele>50.0</ele><time>2026-05-02T08:14:01Z</time></trkpt><trkpt lat="40.862771804757834" lon="14.53762757068615"><ele>51.0</ele><time>2026-05-02T08:14:02Z</time></trkpt><trkpt lat="40.86245212433403" lon="14.537742351888788"><ele>52.0</ele><time>2026-05-02T08:14:03Z</time></trkpt><trkpt lat="40.86213134356144" lon="14.53785712104889"><ele>52.0</ele><time>2026-05-02T08:14:03.999Z</time></trkpt><trkpt lat="40.861809503559655" lon="14.537971414235582"><ele>52.0</ele><time>2026-05-02T08:14:04.999Z</time></trkpt><trkpt lat="40.86148831516993" lon="14.538085586560028"><ele>51.5</ele><time>2026-05-02T08:14:05.999Z</time></trkpt><trkpt lat="40.861166303686424" lon="14.538199812658052"><ele>51.0</ele><time>2026-05-02T08:14:06.999Z</time></trkpt><trkpt lat="40.860845308902796" lon="14.538313540893368"><ele>50.0</ele><time>2026-05-02T08:14:07.999Z</time></trkpt><trkpt lat="40.86052346529983" lon="14.538428302293731"><ele>49.0</ele><time>2026-05-02T08:14:08.999Z</time></trkpt><trkpt lat="40.86020191948693" lon="14.538544378399004"><ele>49.5</ele><time>2026-05-02T08:14:09.999Z</time></trkpt><trkpt lat="40.85987997801933" lon="14.5386624019257"><ele>50.0</ele><time>2026-05-02T08:14:10.999Z</time></trkpt><trkpt lat="40.85955742359984" lon="14.538779943451805"><ele>51.0</ele><time>2026-05-02T08:14:11.999Z</time></trkpt><trkpt lat="40.85923544469537" lon="14.538897377535928"><ele>52.0</ele><time>2026-05-02T08:14:12.999Z</time></trkpt><trkpt lat="40.85891257937234" lon="14.539015055168955"><ele>52.0</ele><time>2026-05-02T08:14:13.999Z</time></trkpt><trkpt lat="40.85859058065883" lon="14.539132632711345"><ele>52.0</ele><time>2026-05-02T08:14:14.999Z</time></trkpt><trkpt lat="40.858267990853626" lon="14.539251320493719"><ele>53.0</ele><time>2026-05-02T08:14:15.999Z</time></trkpt><trkpt lat="40.85794809027867" lon="14.539367416299898"><ele>54.0</ele><time>2026-05-02T08:14:16.999Z</time></trkpt><trkpt lat="40.85762788619726" lon="14.539484017472311"><ele>54.0</ele><time>2026-05-02T08:14:17.999Z</time></trkpt><trkpt lat="40.85730907494565" lon="14.539602693467296"><ele>54.0</ele><time>2026-05-02T08:14:18.999Z</time></trkpt><trkpt lat="40.856991197406366" lon="14.53972152091969"><ele>54.5</ele><time>2026-05-02T08:14:19.999Z</time></trkpt><trkpt lat="40.856673241869494" lon="14.539839881201445"><ele>55.0</ele><time>2026-05-02T08:14:20.999Z</time></trkpt><trkpt lat="40.85635566330463" lon="14.539956487905688"><ele>55.0</ele><time>2026-05-02T08:14:21.999Z</time></trkpt><trkpt lat="40.8560373989863" lon="14.540070228315576"><ele>55.0</ele><time>2026-05-02T08:14:22.999Z</time></trkpt><trkpt lat="40.855720353397395" lon="14.540182485231949"><ele>55.0</ele><time>2026-05-02T08:14:23.999Z</time></trkpt><trkpt lat="40.8554023691301" lon="14.54029474315988"><ele>55.0</ele><time>2026-05-02T08:14:24.999Z</time></trkpt><trkpt lat="40.85508495933182" lon="14.540408883377898"><ele>53.5</ele><time>2026-05-02T08:14:25.999Z</time></trkpt><trkpt lat="40.854768774452644" lon="14.540522371776527"><ele>52.0</ele><time>2026-05-02T08:14:26.999Z</time></trkpt><trkpt lat="40.85445297408039" lon="14.540635624965061"><ele>53.0</ele><time>2026-05-02T08:14:27.999Z</time></trkpt><trkpt lat="40.854136613721074" lon="14.540752093405152"><ele>54.0</ele><time>2026-05-02T08:14:28.999Z</time></trkpt><trkpt lat="40.853820337529314" lon="14.54087204447789"><ele>54.0</ele><time>2026-05-02T08:14:29.999Z</time></trkpt><trkpt lat="40.85350397903661" lon="14.540996263597298"><ele>54.0</ele><time>2026-05-02T08:14:30.999Z</time></trkpt><trkpt lat="40.85318739581129" lon="14.541124285316638"><ele>55.0</ele><time>2026-05-02T08:14:31.999Z</time></trkpt><trkpt lat="40.852871580931065" lon="14.541257860012836"><ele>56.0</ele><time>2026-05-02T08:14:32.999Z</time></trkpt><trkpt lat="40.85255610632777" lon="14.541397578119572"><ele>57.5</ele><time>2026-05-02T08:14:33.999Z</time></trkpt><trkpt lat="40.85224042156624" lon="14.541543998213797"><ele>59.0</ele><time>2026-05-02T08:14:34.999Z</time></trkpt><trkpt lat="40.85192532540189" lon="14.54169525376952"><ele>59.5</ele><time>2026-05-02T08:14:35.999Z</time></trkpt><trkpt lat="40.85161012251754" lon="14.541850577494644"><ele>60.0</ele><time>2026-05-02T08:14:36.999Z</time></trkpt><trkpt lat="40.8512960830639" lon="14.542009292792333"><ele>58.5</ele><time>2026-05-02T08:14:37.999Z</time></trkpt><trkpt lat="40.8509820091195" lon="14.54217257458891"><ele>57.0</ele><time>2026-05-02T08:14:38.999Z</time></trkpt><trkpt lat="40.85066818780385" lon="14.542343320310941"><ele>56.0</ele><time>2026-05-02T08:14:39.999Z</time></trkpt><trkpt lat="40.85035670807606" lon="14.542521183393571"><ele>55.0</ele><time>2026-05-02T08:14:40.999Z</time></trkpt><trkpt lat="40.85005055963179" lon="14.542705093816794"><ele>53.0</ele><time>2026-05-02T08:14:41.999Z</time></trkpt><trkpt lat="40.849748938738294" lon="14.542894320992371"><ele>51.0</ele><time>2026-05-02T08:14:42.999Z</time></trkpt><trkpt lat="40.84944818973988" lon="14.543087299143952"><ele>53.0</ele><time>2026-05-02T08:14:43.999Z</time></trkpt><trkpt lat="40.84914801155701" lon="14.543281415079356"><ele>55.0</ele><time>2026-05-02T08:14:44.999Z</time></trkpt><trkpt lat="40.84885445031537" lon="14.543479712770814"><ele>55.0</ele><time>2026-05-02T08:14:45.999Z</time></trkpt><trkpt lat="40.84856728954652" lon="14.54368406193827"><ele>55.0</ele><time>2026-05-02T08:14:46.999Z</time></trkpt><trkpt lat="40.84828135896269" lon="14.54389533853083"><ele>54.0</ele><time>2026-05-02T08:14:47.999Z</time></trkpt><trkpt lat="40.847995899146326" lon="14.544113873533627"><ele>53.0</ele><time>2026-05-02T08:14:48.999Z</time></trkpt><trkpt lat="40.84771191539651" lon="14.544340673928925"><ele>53.0</ele><time>2026-05-02T08:14:49.999Z</time></trkpt><trkpt lat="40.84742695206391" lon="14.544563258673842"><ele>53.0</ele><time>2026-05-02T08:14:50.999Z</time></trkpt><trkpt lat="40.84714350646076" lon="14.544793411681743"><ele>53.0</ele><time>2026-05-02T08:14:51.999Z</time></trkpt><trkpt lat="40.846860936927136" lon="14.545027908969253"><ele>53.0</ele><time>2026-05-02T08:14:52.999Z</time></trkpt><trkpt lat="40.84658023076829" lon="14.545266194958868"><ele>51.0</ele><time>2026-05-02T08:14:53.999Z</time></trkpt><trkpt lat="40.846300830064614" lon="14.545508927880123"><ele>49.0</ele><time>2026-05-02T08:14:54.999Z</time></trkpt><trkpt lat="40.84602497577761" lon="14.545757238285063"><ele>47.0</ele><time>2026-05-02T08:14:55.999Z</time></trkpt><trkpt lat="40.84575059802461" lon="14.546010141551264"><ele>45.0</ele><time>2026-05-02T08:14:56.999Z</time></trkpt><trkpt lat="40.84547802083848" lon="14.546268696127592"><ele>43.5</ele><time>2026-05-02T08:14:57.999Z</time></trkpt><trkpt lat="40.845207584058166" lon="14.546532302052418"><ele>42.0</ele><time>2026-05-02T08:14:58.999Z</time></trkpt><trkpt lat="40.84493816036276" lon="14.546799313605739"><ele>41.5</ele><time>2026-05-02T08:14:59.999Z</time></trkpt><trkpt lat="40.84467235424698" lon="14.547068576742294"><ele>41.0</ele><time>2026-05-02T08:15:00.999Z</time></trkpt><trkpt lat="40.84440785604175" lon="14.547341232235352"><ele>41.0</ele><time>2026-05-02T08:15:01.999Z</time></trkpt><trkpt lat="40.84414716168801" lon="14.547616791163653"><ele>41.0</ele><time>2026-05-02T08:15:02.999Z</time></trkpt><trkpt lat="40.84388824486369" lon="14.547896205770739"><ele>40.5</ele><time>2026-05-02T08:15:03.999Z</time></trkpt><trkpt lat="40.84363403719985" lon="14.548178652366419"><ele>40.0</ele><time>2026-05-02T08:15:04.999Z</time></trkpt><trkpt lat="40.84338228011436" lon="14.548463949725"><ele>40.5</ele><time>2026-05-02T08:15:05.999Z</time></trkpt><trkpt lat="40.84313124626779" lon="14.548750347587394"><ele>41.0</ele><time>2026-05-02T08:15:06.999Z</time></trkpt><trkpt lat="40.84288016258211" lon="14.549037099045721"><ele>41.5</ele><time>2026-05-02T08:15:07.999Z</time></trkpt><trkpt lat="40.842626618303086" lon="14.549323983889549"><ele>42.0</ele><time>2026-05-02T08:15:08.999Z</time></trkpt><trkpt lat="40.842374050175074" lon="14.549607385828196"><ele>41.0</ele><time>2026-05-02T08:15:09.999Z</time></trkpt><trkpt lat="40.84211925447261" lon="14.5498910828642"><ele>40.0</ele><time>2026-05-02T08:15:10.999Z</time></trkpt><trkpt lat="40.84186398872812" lon="14.550175123965047"><ele>39.5</ele><time>2026-05-02T08:15:11.999Z</time></trkpt><trkpt lat="40.841609472640414" lon="14.550455153655443"><ele>39.0</ele><time>2026-05-02T08:15:12.999Z</time></trkpt><trkpt lat="40.84135646554615" lon="14.55073707598409"><ele>39.0</ele><time>2026-05-02T08:15:13.999Z</time></trkpt><trkpt lat="40.84110444419746" lon="14.551020822404219"><ele>39.0</ele><time>2026-05-02T08:15:14.999Z</time></trkpt><trkpt lat="40.84085270544821" lon="14.551306909022353"><ele>39.0</ele><time>2026-05-02T08:15:15.999Z</time></trkpt><trkpt lat="40.84060099635619" lon="14.551593218226014"><ele>39.0</ele><time>2026-05-02T08:15:16.999Z</time></trkpt><trkpt lat="40.84034780730873" lon="14.551881139783568"><ele>37.0</ele><time>2026-05-02T08:15:17.999Z</time></trkpt><trkpt lat="40.8400955721771" lon="14.55216783156712"><ele>35.0</ele><time>2026-05-02T08:15:18.999Z</time></trkpt><trkpt lat="40.839841715087374" lon="14.552456529558059"><ele>35.0</ele><time>2026-05-02T08:15:19.999Z</time></trkpt><trkpt lat="40.83958832099582" lon="14.552745397374377"><ele>35.0</ele><time>2026-05-02T08:15:20.999Z</time></trkpt><trkpt lat="40.839335862512186" lon="14.553032964868166"><ele>33.5</ele><time>2026-05-02T08:15:21.999Z</time></trkpt><trkpt lat="40.83908262494208" lon="14.553323716806721"><ele>32.0</ele><time>2026-05-02T08:15:22.999Z</time></trkpt><trkpt lat="40.83882999479431" lon="14.553615382889719"><ele>31.5</ele><time>2026-05-02T08:15:23.999Z</time></trkpt><trkpt lat="40.838576067237085" lon="14.553905473556403"><ele>31.0</ele><time>2026-05-02T08:15:24.998Z</time></trkpt><trkpt lat="40.838322175662114" lon="14.554194564274205"><ele>30.0</ele><time>2026-05-02T08:15:25.998Z</time></trkpt><trkpt lat="40.83806864747932" lon="14.55448310959488"><ele>29.0</ele><time>2026-05-02T08:15:26.998Z</time></trkpt><trkpt lat="40.83781592958487" lon="14.554773575886196"><ele>28.5</ele><time>2026-05-02T08:15:27.998Z</time></trkpt><trkpt lat="40.83756398074392" lon="14.555061620569946"><ele>28.0</ele><time>2026-05-02T08:15:28.998Z</time></trkpt><trkpt lat="40.837317057583306" lon="14.555348411063608"><ele>27.5</ele><time>2026-05-02T08:15:29.998Z</time></trkpt><trkpt lat="40.83707179510393" lon="14.555637878637873"><ele>27.0</ele><time>2026-05-02T08:15:31Z</time></trkpt><trkpt lat="40.83682588845588" lon="14.555927020472724"><ele>27.0</ele><time>2026-05-02T08:15:32Z</time></trkpt><trkpt lat="40.83657893772747" lon="14.556216478706759"><ele>27.0</ele><time>2026-05-02T08:15:33Z</time></trkpt><trkpt lat="40.836332788360345" lon="14.556504060383928"><ele>27.0</ele><time>2026-05-02T08:15:34Z</time></trkpt><trkpt lat="40.83608642032656" lon="14.556791916952356"><ele>27.0</ele><time>2026-05-02T08:15:35Z</time></trkpt><trkpt lat="40.83583858821469" lon="14.557077430231999"><ele>27.0</ele><time>2026-05-02T08:15:36Z</time></trkpt><trkpt lat="40.83558892778247" lon="14.557364097575341"><ele>27.0</ele><time>2026-05-02T08:15:37Z</time></trkpt><trkpt lat="40.83533761101776" lon="14.557651329151206"><ele>26.0</ele><time>2026-05-02T08:15:38Z</time></trkpt><trkpt lat="40.83508719513211" lon="14.557937471154196"><ele>25.0</ele><time>2026-05-02T08:15:39Z</time></trkpt><trkpt lat="40.83483772169246" lon="14.558223082707446"><ele>25.0</ele><time>2026-05-02T08:15:40Z</time></trkpt><trkpt lat="40.83458840559119" lon="14.558509867029459"><ele>25.0</ele><time>2026-05-02T08:15:41Z</time></trkpt><trkpt lat="40.83433696174881" lon="14.55879868748205"><ele>25.0</ele><time>2026-05-02T08:15:42Z</time></trkpt><trkpt lat="40.834084883718674" lon="14.559088044456802"><ele>25.0</ele><time>2026-05-02T08:15:43Z</time></trkpt><trkpt lat="40.83383500499593" lon="14.559376449849088"><ele>24.5</ele><time>2026-05-02T08:15:44Z</time></trkpt><trkpt lat="40.83358385476686" lon="14.559667493816617"><ele>24.0</ele><time>2026-05-02T08:15:45Z</time></trkpt><trkpt lat="40.833333264769976" lon="14.559960849156395"><ele>24.0</ele><time>2026-05-02T08:15:46Z</time></trkpt><trkpt lat="40.833087131550826" lon="14.560257449509587"><ele>24.0</ele><time>2026-05-02T08:15:47Z</time></trkpt><trkpt lat="40.83284387690884" lon="14.560556704891978"><ele>25.0</ele><time>2026-05-02T08:15:48Z</time></trkpt><trkpt lat="40.83260109273016" lon="14.560861633018492"><ele>26.0</ele><time>2026-05-02T08:15:49Z</time></trkpt><trkpt lat="40.83236307394929" lon="14.56117018648709"><ele>25.5</ele><time>2026-05-02T08:15:50Z</time></trkpt><trkpt lat="40.83212856846118" lon="14.561480048003562"><ele>25.0</ele><time>2026-05-02T08:15:51Z</time></trkpt><trkpt lat="40.83189644574502" lon="14.561795820802011"><ele>24.5</ele><time>2026-05-02T08:15:52Z</time></trkpt><trkpt lat="40.83166833706102" lon="14.562113600003919"><ele>24.0</ele><time>2026-05-02T08:15:53Z</time></trkpt><trkpt lat="40.83144182687961" lon="14.562438273824354"><ele>24.0</ele><time>2026-05-02T08:15:54Z</time></trkpt><trkpt lat="40.83121850909837" lon="14.562766036970475"><ele>24.0</ele><time>2026-05-02T08:15:55Z</time></trkpt><trkpt lat="40.83099724322886" lon="14.563097205018444"><ele>23.5</ele><time>2026-05-02T08:15:56Z</time></trkpt><trkpt lat="40.830776628938985" lon="14.563433383443401"><ele>23.0</ele><time>2026-05-02T08:15:57Z</time></trkpt><trkpt lat="40.8305589569059" lon="14.563772841218297"><ele>22.5</ele><time>2026-05-02T08:15:58Z</time></trkpt><trkpt lat="40.830343168874265" lon="14.564115526549774"><ele>22.0</ele><time>2026-05-02T08:15:59Z</time></trkpt><trkpt lat="40.830129644954255" lon="14.564458162384248"><ele>21.5</ele><time>2026-05-02T08:16:00Z</time></trkpt><trkpt lat="40.82991532507733" lon="14.564799838403012"><ele>21.0</ele><time>2026-05-02T08:16:01Z</time></trkpt><trkpt lat="40.82970125937639" lon="14.565143769298015"><ele>21.0</ele><time>2026-05-02T08:16:02Z</time></trkpt><trkpt lat="40.829486175372686" lon="14.565485969582086"><ele>21.0</ele><time>2026-05-02T08:16:03Z</time></trkpt><trkpt lat="40.82927160183091" lon="14.565826559431237"><ele>21.0</ele><time>2026-05-02T08:16:04Z</time></trkpt><trkpt lat="40.829055900332975" lon="14.566166363926149"><ele>21.0</ele><time>2026-05-02T08:16:05Z</time></trkpt><trkpt lat="40.828840676398364" lon="14.566503543217035"><ele>21.0</ele><time>2026-05-02T08:16:06Z</time></trkpt><trkpt lat="40.828625265311594" lon="14.56684174908899"><ele>21.0</ele><time>2026-05-02T08:16:07Z</time></trkpt><trkpt lat="40.82841228396972" lon="14.567180359019789"><ele>21.0</ele><time>2026-05-02T08:16:08Z</time></trkpt><trkpt lat="40.82820085453412" lon="14.567520930475073"><ele>21.0</ele><time>2026-05-02T08:16:09Z</time></trkpt><trkpt lat="40.827989980104256" lon="14.567863249761436"><ele>21.0</ele><time>2026-05-02T08:16:10Z</time></trkpt><trkpt lat="40.82777795835239" lon="14.568204020013193"><ele>21.0</ele><time>2026-05-02T08:16:10.999Z</time></trkpt><trkpt lat="40.82756667570106" lon="14.568544905334287"><ele>21.0</ele><time>2026-05-02T08:16:11.999Z</time></trkpt><trkpt lat="40.82735418115369" lon="14.568886088723984"><ele>21.0</ele><time>2026-05-02T08:16:12.999Z</time></trkpt><trkpt lat="40.827142256888294" lon="14.569226548347629"><ele>21.0</ele><time>2026-05-02T08:16:13.999Z</time></trkpt><trkpt lat="40.82693104306363" lon="14.569569290613055"><ele>21.0</ele><time>2026-05-02T08:16:14.999Z</time></trkpt><trkpt lat="40.82672037925601" lon="14.569910826011355"><ele>20.5</ele><time>2026-05-02T08:16:15.999Z</time></trkpt><trkpt lat="40.82650954033439" lon="14.57025317399583"><ele>20.0</ele><time>2026-05-02T08:16:16.999Z</time></trkpt><trkpt lat="40.82629929610306" lon="14.570593034828455"><ele>20.0</ele><time>2026-05-02T08:16:17.999Z</time></trkpt><trkpt lat="40.82609100470305" lon="14.570924798550326"><ele>20.0</ele><time>2026-05-02T08:16:18.999Z</time></trkpt><trkpt lat="40.82588874892363" lon="14.571255949425089"><ele>20.0</ele><time>2026-05-02T08:16:19.999Z</time></trkpt><trkpt lat="40.82568741201046" lon="14.57158975671154"><ele>20.0</ele><time>2026-05-02T08:16:20.999Z</time></trkpt><trkpt lat="40.82548416527724" lon="14.571926924325329"><ele>19.5</ele><time>2026-05-02T08:16:21.999Z</time></trkpt><trkpt lat="40.825279555595486" lon="14.572260154194106"><ele>19.0</ele><time>2026-05-02T08:16:22.999Z</time></trkpt><trkpt lat="40.82507438787173" lon="14.572594553223302"><ele>19.0</ele><time>2026-05-02T08:16:23.999Z</time></trkpt><trkpt lat="40.82486982251899" lon="14.572931023625308"><ele>19.0</ele><time>2026-05-02T08:16:24.999Z</time></trkpt><trkpt lat="40.82466255696484" lon="14.573270021266818"><ele>19.0</ele><time>2026-05-02T08:16:25.999Z</time></trkpt><trkpt lat="40.824454107889956" lon="14.573607498662287"><ele>19.0</ele><time>2026-05-02T08:16:26.999Z</time></trkpt><trkpt lat="40.82424545161052" lon="14.57394440613532"><ele>20.0</ele><time>2026-05-02T08:16:27.999Z</time></trkpt><trkpt lat="40.82403576586462" lon="14.57428401452143"><ele>21.0</ele><time>2026-05-02T08:16:28.999Z</time></trkpt><trkpt lat="40.82382584850382" lon="14.574622117913094"><ele>21.0</ele><time>2026-05-02T08:16:29.999Z</time></trkpt><trkpt lat="40.82342453223535" lon="14.574736446360866"><ele>21.0</ele><time>2026-05-02T08:16:30.999Z</time></trkpt><trkpt lat="40.82320055827303" lon="14.575074474442793"><ele>21.0</ele><time>2026-05-02T08:16:31.999Z</time></trkpt><trkpt lat="40.82298899861703" lon="14.575401518644595"><ele>21.0</ele><time>2026-05-02T08:16:32.999Z</time></trkpt><trkpt lat="40.82276931487321" lon="14.57572693749515"><ele>21.0</ele><time>2026-05-02T08:16:33.999Z</time></trkpt><trkpt lat="40.82255976459255" lon="14.576091540195167"><ele>21.0</ele><time>2026-05-02T08:16:34.999Z</time></trkpt><trkpt lat="40.822344157864734" lon="14.576441170214519"><ele>20.5</ele><time>2026-05-02T08:16:35.999Z</time></trkpt><trkpt lat="40.8221526258059" lon="14.576736313555108"><ele>20.0</ele><time>2026-05-02T08:16:36.999Z</time></trkpt><trkpt lat="40.82186657960529" lon="14.577069932370094"><ele>20.0</ele><time>2026-05-02T08:16:37.999Z</time></trkpt><trkpt lat="40.821648807459226" lon="14.577503645475392"><ele>20.0</ele><time>2026-05-02T08:16:38.999Z</time></trkpt><trkpt lat="40.82149214289802" lon="14.577818268631805"><ele>20.5</ele><time>2026-05-02T08:16:39.999Z</time></trkpt><trkpt lat="40.82128885279441" lon="14.578144840233868"><ele>21.0</ele><time>2026-05-02T08:16:40.999Z</time></trkpt><trkpt lat="40.821066262616256" lon="14.578488672154187"><ele>21.5</ele><time>2026-05-02T08:16:41.999Z</time></trkpt><trkpt lat="40.820864757872016" lon="14.578830225046866"><ele>22.0</ele><time>2026-05-02T08:16:42.999Z</time></trkpt><trkpt lat="40.820644260649765" lon="14.579172381191496"><ele>22.0</ele><time>2026-05-02T08:16:43.999Z</time></trkpt><trkpt lat="40.82043229992563" lon="14.579514720822779"><ele>22.0</ele><time>2026-05-02T08:16:44.999Z</time></trkpt><trkpt lat="40.820222471299424" lon="14.579855941166286"><ele>22.0</ele><time>2026-05-02T08:16:45.999Z</time></trkpt><trkpt lat="40.820011572839746" lon="14.580197067910934"><ele>22.0</ele><time>2026-05-02T08:16:46.999Z</time></trkpt><trkpt lat="40.81980083916376" lon="14.580537931895797"><ele>21.0</ele><time>2026-05-02T08:16:47.999Z</time></trkpt><trkpt lat="40.8195992281583" lon="14.580889460479138"><ele>20.0</ele><time>2026-05-02T08:16:48.999Z</time></trkpt><trkpt lat="40.81956789140574" lon="14.581423744653144"><ele>19.5</ele><time>2026-05-02T08:16:49.999Z</time></trkpt><trkpt lat="40.819359508472004" lon="14.581765597918018"><ele>19.0</ele><time>2026-05-02T08:16:50.999Z</time></trkpt><trkpt lat="40.819147807845646" lon="14.5821051250485"><ele>19.0</ele><time>2026-05-02T08:16:51.999Z</time></trkpt><trkpt lat="40.818935052638" lon="14.582443903741378"><ele>19.0</ele><time>2026-05-02T08:16:52.999Z</time></trkpt><trkpt lat="40.81872296430549" lon="14.58278309700642"><ele>18.5</ele><time>2026-05-02T08:16:53.999Z</time></trkpt><trkpt lat="40.8185109865456" lon="14.58312593458795"><ele>18.0</ele><time>2026-05-02T08:16:54.999Z</time></trkpt><trkpt lat="40.81830086937556" lon="14.583467159589366"><ele>18.0</ele><time>2026-05-02T08:16:55.999Z</time></trkpt><trkpt lat="40.81809359862067" lon="14.583803484043052"><ele>18.0</ele><time>2026-05-02T08:16:56.999Z</time></trkpt><trkpt lat="40.81788434158562" lon="14.584138726925117"><ele>18.0</ele><time>2026-05-02T08:16:57.999Z</time></trkpt><trkpt lat="40.81767432818192" lon="14.584477459787262"><ele>18.0</ele><time>2026-05-02T08:16:58.999Z</time></trkpt><trkpt lat="40.817466069056834" lon="14.584816657622456"><ele>18.0</ele><time>2026-05-02T08:16:59.999Z</time></trkpt><trkpt lat="40.81725365847003" lon="14.58515324404682"><ele>18.0</ele><time>2026-05-02T08:17:00.999Z</time></trkpt><trkpt lat="40.817043444346126" lon="14.585493257682101"><ele>18.0</ele><time>2026-05-02T08:17:01.999Z</time></trkpt><trkpt lat="40.816831684136275" lon="14.585830312065168"><ele>18.0</ele><time>2026-05-02T08:17:02.999Z</time></trkpt><trkpt lat="40.81662217448968" lon="14.586169994933984"><ele>18.0</ele><time>2026-05-02T08:17:03.999Z</time></trkpt><trkpt lat="40.81641032636462" lon="14.586510238640093"><ele>18.0</ele><time>2026-05-02T08:17:04.999Z</time></trkpt><trkpt lat="40.816197887257225" lon="14.586848476543961"><ele>18.0</ele><time>2026-05-02T08:17:05.999Z</time></trkpt><trkpt lat="40.81598450954762" lon="14.587189147048681"><ele>18.0</ele><time>2026-05-02T08:17:06.999Z</time></trkpt><trkpt lat="40.815770979474614" lon="14.587528730643438"><ele>17.0</ele><time>2026-05-02T08:17:07.999Z</time></trkpt><trkpt lat="40.81555990123095" lon="14.5878686270812"><ele>16.0</ele><time>2026-05-02T08:17:08.999Z</time></trkpt><trkpt lat="40.81534802054817" lon="14.588205314403737"><ele>16.0</ele><time>2026-05-02T08:17:09.999Z</time></trkpt><trkpt lat="40.81513445337452" lon="14.588541707085026"><ele>16.0</ele><time>2026-05-02T08:17:10.999Z</time></trkpt><trkpt lat="40.81491869960697" lon="14.588875570319267"><ele>16.5</ele><time>2026-05-02T08:17:11.999Z</time></trkpt><trkpt lat="40.814701168204785" lon="14.589207074992329"><ele>17.0</ele><time>2026-05-02T08:17:12.999Z</time></trkpt><trkpt lat="40.81447644772174" lon="14.58953023772712"><ele>17.5</ele><time>2026-05-02T08:17:13.999Z</time></trkpt><trkpt lat="40.81424990343768" lon="14.589850558276725"><ele>18.0</ele><time>2026-05-02T08:17:14.999Z</time></trkpt><trkpt lat="40.81402039291175" lon="14.590167896382884"><ele>18.0</ele><time>2026-05-02T08:17:15.999Z</time></trkpt><trkpt lat="40.81378606467483" lon="14.590481570019671"><ele>18.0</ele><time>2026-05-02T08:17:16.999Z</time></trkpt><trkpt lat="40.813554681140886" lon="14.590798457753971"><ele>18.5</ele><time>2026-05-02T08:17:17.999Z</time></trkpt><trkpt lat="40.813319696910526" lon="14.59110991324545"><ele>19.0</ele><time>2026-05-02T08:17:18.999Z</time></trkpt><trkpt lat="40.81307885599638" lon="14.591413517986972"><ele>19.0</ele><time>2026-05-02T08:17:19.999Z</time></trkpt><trkpt lat="40.81283666162138" lon="14.591714248868408"><ele>19.0</ele><time>2026-05-02T08:17:20.999Z</time></trkpt><trkpt lat="40.81258980170363" lon="14.592012109607147"><ele>19.5</ele><time>2026-05-02T08:17:21.999Z</time></trkpt><trkpt lat="40.812339529448714" lon="14.592307600336001"><ele>20.0</ele><time>2026-05-02T08:17:22.999Z</time></trkpt><trkpt lat="40.81208862276721" lon="14.592599740978573"><ele>20.5</ele><time>2026-05-02T08:17:23.999Z</time></trkpt><trkpt lat="40.811833807150556" lon="14.592887464859036"><ele>21.0</ele><time>2026-05-02T08:17:24.999Z</time></trkpt><trkpt lat="40.81158027032462" lon="14.593174577679063"><ele>21.0</ele><time>2026-05-02T08:17:25.999Z</time></trkpt><trkpt lat="40.811322132902184" lon="14.593456901698728"><ele>21.0</ele><time>2026-05-02T08:17:26.999Z</time></trkpt><trkpt lat="40.81106590439274" lon="14.593738689522766"><ele>19.5</ele><time>2026-05-02T08:17:27.999Z</time></trkpt><trkpt lat="40.810809635930994" lon="14.594020670390687"><ele>18.0</ele><time>2026-05-02T08:17:28.999Z</time></trkpt><trkpt lat="40.81055495050999" lon="14.5943056459935"><ele>17.5</ele><time>2026-05-02T08:17:29.998Z</time></trkpt><trkpt lat="40.81030056028008" lon="14.594591901581076"><ele>17.0</ele><time>2026-05-02T08:17:30.998Z</time></trkpt><trkpt lat="40.81004600667345" lon="14.594879424800087"><ele>16.5</ele><time>2026-05-02T08:17:31.998Z</time></trkpt><trkpt lat="40.809790588863834" lon="14.59516200248685"><ele>16.0</ele><time>2026-05-02T08:17:32.998Z</time></trkpt><trkpt lat="40.809537052876856" lon="14.595447199895432"><ele>16.5</ele><time>2026-05-02T08:17:33.998Z</time></trkpt><trkpt lat="40.809281807583375" lon="14.59573153195089"><ele>17.0</ele><time>2026-05-02T08:17:34.998Z</time></trkpt><trkpt lat="40.8090253746461" lon="14.596013379571849"><ele>17.0</ele><time>2026-05-02T08:17:35.998Z</time></trkpt><trkpt lat="40.80876995168695" lon="14.59629913279351"><ele>17.0</ele><time>2026-05-02T08:17:37Z</time></trkpt><trkpt lat="40.80851549552067" lon="14.596584194073076"><ele>16.5</ele><time>2026-05-02T08:17:38Z</time></trkpt><trkpt lat="40.808258355665075" lon="14.596867612575299"><ele>16.0</ele><time>2026-05-02T08:17:39Z</time></trkpt><trkpt lat="40.80800200223717" lon="14.597152907966061"><ele>16.0</ele><time>2026-05-02T08:17:40Z</time></trkpt><trkpt lat="40.80774340425804" lon="14.597434833768697"><ele>16.0</ele><time>2026-05-02T08:17:41Z</time></trkpt><trkpt lat="40.80748396351123" lon="14.597714860116564"><ele>16.0</ele><time>2026-05-02T08:17:42Z</time></trkpt><trkpt lat="40.80722517030548" lon="14.59799426332682"><ele>16.0</ele><time>2026-05-02T08:17:43Z</time></trkpt><trkpt lat="40.80696443088211" lon="14.598275418146153"><ele>17.0</ele><time>2026-05-02T08:17:44Z</time></trkpt><trkpt lat="40.806706711463924" lon="14.598558250114294"><ele>18.0</ele><time>2026-05-02T08:17:45Z</time></trkpt><trkpt lat="40.80645018922145" lon="14.598839753359321"><ele>18.0</ele><time>2026-05-02T08:17:46Z</time></trkpt><trkpt lat="40.80619482291456" lon="14.599119062644148"><ele>18.0</ele><time>2026-05-02T08:17:47Z</time></trkpt><trkpt lat="40.80594115469322" lon="14.599402787806639"><ele>17.5</ele><time>2026-05-02T08:17:48Z</time></trkpt><trkpt lat="40.80568932661566" lon="14.599686644641611"><ele>17.0</ele><time>2026-05-02T08:17:49Z</time></trkpt><trkpt lat="40.80543589972571" lon="14.599967498948066"><ele>17.0</ele><time>2026-05-02T08:17:50Z</time></trkpt><trkpt lat="40.805180401525845" lon="14.600247565967875"><ele>17.0</ele><time>2026-05-02T08:17:51Z</time></trkpt><trkpt lat="40.804926541318615" lon="14.600527335130879"><ele>16.5</ele><time>2026-05-02T08:17:52Z</time></trkpt><trkpt lat="40.804672080142176" lon="14.600808097027597"><ele>16.0</ele><time>2026-05-02T08:17:53Z</time></trkpt><trkpt lat="40.804418330570485" lon="14.601087457552802"><ele>16.0</ele><time>2026-05-02T08:17:54Z</time></trkpt><trkpt lat="40.80416440169692" lon="14.60136863311654"><ele>16.0</ele><time>2026-05-02T08:17:55Z</time></trkpt><trkpt lat="40.803909674993406" lon="14.601650185965374"><ele>16.0</ele><time>2026-05-02T08:17:56Z</time></trkpt><trkpt lat="40.80365275045042" lon="14.601932290026284"><ele>16.0</ele><time>2026-05-02T08:17:57Z</time></trkpt><trkpt lat="40.80339678658253" lon="14.602206224880954"><ele>17.0</ele><time>2026-05-02T08:17:58Z</time></trkpt><trkpt lat="40.80314164308326" lon="14.602488869032177"><ele>18.0</ele><time>2026-05-02T08:17:59Z</time></trkpt><trkpt lat="40.80288671695803" lon="14.602768225265471"><ele>19.0</ele><time>2026-05-02T08:18:00Z</time></trkpt><trkpt lat="40.80263316682801" lon="14.603050650385788"><ele>20.0</ele><time>2026-05-02T08:18:01Z</time></trkpt><trkpt lat="40.8023800359739" lon="14.60333488238704"><ele>20.0</ele><time>2026-05-02T08:18:02Z</time></trkpt><trkpt lat="40.80212628808159" lon="14.603617195542547"><ele>20.0</ele><time>2026-05-02T08:18:03Z</time></trkpt><trkpt lat="40.80186986942425" lon="14.603896545912816"><ele>20.0</ele><time>2026-05-02T08:18:04Z</time></trkpt><trkpt lat="40.80161007899983" lon="14.6041756622972"><ele>20.0</ele><time>2026-05-02T08:18:05Z</time></trkpt><trkpt lat="40.80135028850145" lon="14.604449666271861"><ele>20.0</ele><time>2026-05-02T08:18:06Z</time></trkpt><trkpt lat="40.80108308600516" lon="14.6047082455182"><ele>20.0</ele><time>2026-05-02T08:18:07Z</time></trkpt><trkpt lat="40.800813410394376" lon="14.604964981007432"><ele>20.0</ele><time>2026-05-02T08:18:08Z</time></trkpt><trkpt lat="40.8005433467194" lon="14.605219302108175"><ele>20.0</ele><time>2026-05-02T08:18:09Z</time></trkpt><trkpt lat="40.800264434518915" lon="14.60546283158589"><ele>18.5</ele><time>2026-05-02T08:18:10Z</time></trkpt><trkpt lat="40.799981265187036" lon="14.605695792465212"><ele>17.0</ele><time>2026-05-02T08:18:11Z</time></trkpt><trkpt lat="40.79969307154286" lon="14.605917863289712"><ele>17.0</ele><time>2026-05-02T08:18:12Z</time></trkpt><trkpt lat="40.79940081912593" lon="14.606132918961455"><ele>17.0</ele><time>2026-05-02T08:18:13Z</time></trkpt><trkpt lat="40.79910763391951" lon="14.606334608244973"><ele>17.5</ele><time>2026-05-02T08:18:14Z</time></trkpt><trkpt lat="40.798808801194724" lon="14.606522095278914"><ele>18.0</ele><time>2026-05-02T08:18:15Z</time></trkpt><trkpt lat="40.79850711513806" lon="14.606707613915813"><ele>17.5</ele><time>2026-05-02T08:18:16Z</time></trkpt><trkpt lat="40.79820016132378" lon="14.606882673981422"><ele>17.0</ele><time>2026-05-02T08:18:16.999Z</time></trkpt><trkpt lat="40.79789304759128" lon="14.60704637977123"><ele>17.5</ele><time>2026-05-02T08:18:17.999Z</time></trkpt><trkpt lat="40.7975796384276" lon="14.607203129050061"><ele>18.0</ele><time>2026-05-02T08:18:18.999Z</time></trkpt><trkpt lat="40.7972635023852" lon="14.6073477136319"><ele>18.0</ele><time>2026-05-02T08:18:19.999Z</time></trkpt><trkpt lat="40.79694251621725" lon="14.60748143996119"><ele>18.0</ele><time>2026-05-02T08:18:20.999Z</time></trkpt><trkpt lat="40.79662019347302" lon="14.60760970901764"><ele>18.5</ele><time>2026-05-02T08:18:21.999Z</time></trkpt><trkpt lat="40.79629485902348" lon="14.60773100701149"><ele>19.0</ele><time>2026-05-02T08:18:22.999Z</time></trkpt><trkpt lat="40.79597205070171" lon="14.607856101869038"><ele>21.0</ele><time>2026-05-02T08:18:23.999Z</time></trkpt><trkpt lat="40.79564782721295" lon="14.607975465495322"><ele>23.0</ele><time>2026-05-02T08:18:24.999Z</time></trkpt><trkpt lat="40.79532789628044" lon="14.608111819962181"><ele>20.5</ele><time>2026-05-02T08:18:25.999Z</time></trkpt><trkpt lat="40.795008335665884" lon="14.608238515985292"><ele>18.0</ele><time>2026-05-02T08:18:26.999Z</time></trkpt><trkpt lat="40.79468975954362" lon="14.608364117477691"><ele>18.0</ele><time>2026-05-02T08:18:27.999Z</time></trkpt><trkpt lat="40.794372193786465" lon="14.608491053594951"><ele>18.0</ele><time>2026-05-02T08:18:28.999Z</time></trkpt><trkpt lat="40.79405475929128" lon="14.608623314771648"><ele>17.0</ele><time>2026-05-02T08:18:29.999Z</time></trkpt><trkpt lat="40.79374415110512" lon="14.60877071900156"><ele>16.0</ele><time>2026-05-02T08:18:30.999Z</time></trkpt><trkpt lat="40.79343989607015" lon="14.608935840283493"><ele>16.0</ele><time>2026-05-02T08:18:31.999Z</time></trkpt><trkpt lat="40.793140503606494" lon="14.609116319334959"><ele>16.0</ele><time>2026-05-02T08:18:32.999Z</time></trkpt><trkpt lat="40.792847397572174" lon="14.609313033968089"><ele>16.5</ele><time>2026-05-02T08:18:33.999Z</time></trkpt><trkpt lat="40.79256153828649" lon="14.609525310303432"><ele>17.0</ele><time>2026-05-02T08:18:34.999Z</time></trkpt><trkpt lat="40.792281372517685" lon="14.609751423733906"><ele>17.0</ele><time>2026-05-02T08:18:35.999Z</time></trkpt><trkpt lat="40.79200884990665" lon="14.609991220301495"><ele>17.0</ele><time>2026-05-02T08:18:36.999Z</time></trkpt><trkpt lat="40.79174205392411" lon="14.610242922935752"><ele>17.5</ele><time>2026-05-02T08:18:37.999Z</time></trkpt><trkpt lat="40.791482435083225" lon="14.610512089811332"><ele>18.0</ele><time>2026-05-02T08:18:38.999Z</time></trkpt><trkpt lat="40.791230768745834" lon="14.610794004175245"><ele>17.5</ele><time>2026-05-02T08:18:39.999Z</time></trkpt><trkpt lat="40.790988596797746" lon="14.611089515322096"><ele>17.0</ele><time>2026-05-02T08:18:40.999Z</time></trkpt><trkpt lat="40.79075567979523" lon="14.611398724922637"><ele>17.0</ele><time>2026-05-02T08:18:41.999Z</time></trkpt><trkpt lat="40.79053155576187" lon="14.611719019196704"><ele>17.0</ele><time>2026-05-02T08:18:42.999Z</time></trkpt><trkpt lat="40.79031715073982" lon="14.612052193115517"><ele>18.0</ele><time>2026-05-02T08:18:43.999Z</time></trkpt><trkpt lat="40.790112752243374" lon="14.612396282759317"><ele>19.0</ele><time>2026-05-02T08:18:44.999Z</time></trkpt><trkpt lat="40.78991466460403" lon="14.612744848674106"><ele>20.0</ele><time>2026-05-02T08:18:45.999Z</time></trkpt><trkpt lat="40.789717976343844" lon="14.61309932214783"><ele>21.0</ele><time>2026-05-02T08:18:46.999Z</time></trkpt><trkpt lat="40.78952077317634" lon="14.613455934861857"><ele>21.0</ele><time>2026-05-02T08:18:47.999Z</time></trkpt><trkpt lat="40.789318888144095" lon="14.613807955250412"><ele>21.0</ele><time>2026-05-02T08:18:48.999Z</time></trkpt><trkpt lat="40.78910906485352" lon="14.614150274091553"><ele>21.0</ele><time>2026-05-02T08:18:49.999Z</time></trkpt><trkpt lat="40.78889052855506" lon="14.614479670826164"><ele>21.0</ele><time>2026-05-02T08:18:50.999Z</time></trkpt><trkpt lat="40.78866060331707" lon="14.614794850496562"><ele>21.5</ele><time>2026-05-02T08:18:51.999Z</time></trkpt><trkpt lat="40.78841835235502" lon="14.615094103077293"><ele>22.0</ele><time>2026-05-02T08:18:52.999Z</time></trkpt><trkpt lat="40.78816593401279" lon="14.615379345743747"><ele>22.0</ele><time>2026-05-02T08:18:53.999Z</time></trkpt><trkpt lat="40.78790522348557" lon="14.615654651102389"><ele>22.0</ele><time>2026-05-02T08:18:54.999Z</time></trkpt><trkpt lat="40.78763800722139" lon="14.61591930590859"><ele>22.5</ele><time>2026-05-02T08:18:55.999Z</time></trkpt><trkpt lat="40.78736498962555" lon="14.616171629859874"><ele>23.0</ele><time>2026-05-02T08:18:56.999Z</time></trkpt><trkpt lat="40.78708737103083" lon="14.616418297246533"><ele>23.5</ele><time>2026-05-02T08:18:57.999Z</time></trkpt><trkpt lat="40.786808479281405" lon="14.616666853412301"><ele>24.0</ele><time>2026-05-02T08:18:58.999Z</time></trkpt><trkpt lat="40.78653195119549" lon="14.616916676441875"><ele>24.0</ele><time>2026-05-02T08:18:59.999Z</time></trkpt><trkpt lat="40.78625297268648" lon="14.617166689179104"><ele>24.0</ele><time>2026-05-02T08:19:00.999Z</time></trkpt><trkpt lat="40.785975845613564" lon="14.617416751365665"><ele>23.5</ele><time>2026-05-02T08:19:01.999Z</time></trkpt><trkpt lat="40.785700864916585" lon="14.61766545237809"><ele>23.0</ele><time>2026-05-02T08:19:02.999Z</time></trkpt><trkpt lat="40.78542728469167" lon="14.617916593626013"><ele>24.5</ele><time>2026-05-02T08:19:03.999Z</time></trkpt><trkpt lat="40.785157730277305" lon="14.618172097655632"><ele>26.0</ele><time>2026-05-02T08:19:04.999Z</time></trkpt><trkpt lat="40.78489333444186" lon="14.618435808071611"><ele>24.0</ele><time>2026-05-02T08:19:05.999Z</time></trkpt><trkpt lat="40.78463542950336" lon="14.618710648405168"><ele>22.0</ele><time>2026-05-02T08:19:06.999Z</time></trkpt><trkpt lat="40.78438393043759" lon="14.618998229649433"><ele>22.0</ele><time>2026-05-02T08:19:07.999Z</time></trkpt><trkpt lat="40.784139673047186" lon="14.619295368974932"><ele>22.0</ele><time>2026-05-02T08:19:08.999Z</time></trkpt><trkpt lat="40.78390137705485" lon="14.619602714702605"><ele>22.0</ele><time>2026-05-02T08:19:09.999Z</time></trkpt><trkpt lat="40.78367062569384" lon="14.619919212332725"><ele>22.0</ele><time>2026-05-02T08:19:10.999Z</time></trkpt><trkpt lat="40.7834470978996" lon="14.620246713345283"><ele>22.0</ele><time>2026-05-02T08:19:11.999Z</time></trkpt><trkpt lat="40.783230698826344" lon="14.620580011902199"><ele>22.0</ele><time>2026-05-02T08:19:12.999Z</time></trkpt><trkpt lat="40.78302000913771" lon="14.620920968902698"><ele>21.5</ele><time>2026-05-02T08:19:13.999Z</time></trkpt><trkpt lat="40.78281492563368" lon="14.621268977257216"><ele>21.0</ele><time>2026-05-02T08:19:14.999Z</time></trkpt><trkpt lat="40.782611807862246" lon="14.621622549755202"><ele>22.0</ele><time>2026-05-02T08:19:15.999Z</time></trkpt><trkpt lat="40.78240910392569" lon="14.621972921524021"><ele>23.0</ele><time>2026-05-02T08:19:16.999Z</time></trkpt><trkpt lat="40.78220523721678" lon="14.62232305003611"><ele>23.0</ele><time>2026-05-02T08:19:17.999Z</time></trkpt><trkpt lat="40.782002174327616" lon="14.622673934111262"><ele>23.0</ele><time>2026-05-02T08:19:18.999Z</time></trkpt><trkpt lat="40.781798965608075" lon="14.623024114973866"><ele>23.5</ele><time>2026-05-02T08:19:19.999Z</time></trkpt><trkpt lat="40.78159504827552" lon="14.623372567081148"><ele>24.0</ele><time>2026-05-02T08:19:20.999Z</time></trkpt><trkpt lat="40.78139043411525" lon="14.62371980021143"><ele>24.0</ele><time>2026-05-02T08:19:21.999Z</time></trkpt><trkpt lat="40.78118744704542" lon="14.624067026157451"><ele>24.0</ele><time>2026-05-02T08:19:22.999Z</time></trkpt><trkpt lat="40.78098433978508" lon="14.62441472701871"><ele>24.5</ele><time>2026-05-02T08:19:23.999Z</time></trkpt><trkpt lat="40.780779937139776" lon="14.624764781317829"><ele>25.0</ele><time>2026-05-02T08:19:24.999Z</time></trkpt><trkpt lat="40.78057515270859" lon="14.625114987196387"><ele>24.5</ele><time>2026-05-02T08:19:25.999Z</time></trkpt><trkpt lat="40.780369839671586" lon="14.625465271906107"><ele>24.0</ele><time>2026-05-02T08:19:26.999Z</time></trkpt><trkpt lat="40.78016408695925" lon="14.625818706916476"><ele>25.0</ele><time>2026-05-02T08:19:27.999Z</time></trkpt><trkpt lat="40.77995917229054" lon="14.62616845524852"><ele>26.0</ele><time>2026-05-02T08:19:28.999Z</time></trkpt><trkpt lat="40.779755468658" lon="14.626522937466865"><ele>26.0</ele><time>2026-05-02T08:19:29.999Z</time></trkpt><trkpt lat="40.779549859532054" lon="14.626874064785529"><ele>26.0</ele><time>2026-05-02T08:19:30.999Z</time></trkpt><trkpt lat="40.77934508010002" lon="14.62722902006784"><ele>24.0</ele><time>2026-05-02T08:19:31.999Z</time></trkpt><trkpt lat="40.77913874451334" lon="14.627580528821273"><ele>22.0</ele><time>2026-05-02T08:19:32.999Z</time></trkpt><trkpt lat="40.77893461864895" lon="14.627935279221639"><ele>22.0</ele><time>2026-05-02T08:19:33.998Z</time></trkpt><trkpt lat="40.77873272889715" lon="14.62828639695317"><ele>22.0</ele><time>2026-05-02T08:19:34.998Z</time></trkpt><trkpt lat="40.77852755542462" lon="14.628635624812318"><ele>22.5</ele><time>2026-05-02T08:19:35.998Z</time></trkpt><trkpt lat="40.7783234456152" lon="14.628984253535101"><ele>23.0</ele><time>2026-05-02T08:19:36.998Z</time></trkpt><trkpt lat="40.7781211961866" lon="14.629329637692454"><ele>23.5</ele><time>2026-05-02T08:19:37.998Z</time></trkpt><trkpt lat="40.777921647905416" lon="14.629674866516245"><ele>24.0</ele><time>2026-05-02T08:19:38.998Z</time></trkpt><trkpt lat="40.77772363994172" lon="14.630018958221946"><ele>22.5</ele><time>2026-05-02T08:19:39.998Z</time></trkpt><trkpt lat="40.77752509714616" lon="14.630360380199475"><ele>21.0</ele><time>2026-05-02T08:19:40.998Z</time></trkpt><trkpt lat="40.77732566950045" lon="14.6307047899916"><ele>21.0</ele><time>2026-05-02T08:19:41.998Z</time></trkpt><trkpt lat="40.7771283188805" lon="14.631050713890925"><ele>21.0</ele><time>2026-05-02T08:19:43Z</time></trkpt><trkpt lat="40.77693496870894" lon="14.631400660294803"><ele>22.0</ele><time>2026-05-02T08:19:44Z</time></trkpt><trkpt lat="40.77675038199482" lon="14.631760365717597"><ele>23.0</ele><time>2026-05-02T08:19:45Z</time></trkpt><trkpt lat="40.77658255449284" lon="14.632133023111264"><ele>23.0</ele><time>2026-05-02T08:19:46Z</time></trkpt><trkpt lat="40.77642463192007" lon="14.63251520828663"><ele>23.0</ele><time>2026-05-02T08:19:47Z</time></trkpt><trkpt lat="40.776276332146196" lon="14.632904886345548"><ele>22.5</ele><time>2026-05-02T08:19:48Z</time></trkpt><trkpt lat="40.77613853639357" lon="14.633300560767637"><ele>22.0</ele><time>2026-05-02T08:19:49Z</time></trkpt><trkpt lat="40.776008714033495" lon="14.633701422080096"><ele>22.0</ele><time>2026-05-02T08:19:50Z</time></trkpt><trkpt lat="40.77589215850222" lon="14.634110696867602"><ele>22.0</ele><time>2026-05-02T08:19:51Z</time></trkpt><trkpt lat="40.77578907877003" lon="14.634526360400997"><ele>22.0</ele><time>2026-05-02T08:19:52Z</time></trkpt><trkpt lat="40.775695485761474" lon="14.634946334973957"><ele>22.0</ele><time>2026-05-02T08:19:53Z</time></trkpt><trkpt lat="40.775616334085974" lon="14.635373287803628"><ele>22.0</ele><time>2026-05-02T08:19:54Z</time></trkpt><trkpt lat="40.77554426824658" lon="14.635802715602214"><ele>22.0</ele><time>2026-05-02T08:19:55Z</time></trkpt><trkpt lat="40.77548566436593" lon="14.636235850705075"><ele>22.0</ele><time>2026-05-02T08:19:56Z</time></trkpt><trkpt lat="40.77544041735657" lon="14.636656459383913"><ele>22.0</ele><time>2026-05-02T08:19:57Z</time></trkpt><trkpt lat="40.77541498709827" lon="14.637068102137373"><ele>22.0</ele><time>2026-05-02T08:19:58Z</time></trkpt><trkpt lat="40.77539824207295" lon="14.63747040690835"><ele>22.0</ele><time>2026-05-02T08:19:59Z</time></trkpt><trkpt lat="40.77538886637686" lon="14.637863676818643"><ele>23.0</ele><time>2026-05-02T08:20:00Z</time></trkpt><trkpt lat="40.77539068907634" lon="14.638264403466085"><ele>24.0</ele><time>2026-05-02T08:20:01Z</time></trkpt><trkpt lat="40.77539957503399" lon="14.638677868286893"><ele>24.0</ele><time>2026-05-02T08:20:02Z</time></trkpt><trkpt lat="40.77541938700124" lon="14.639097856018084"><ele>24.0</ele><time>2026-05-02T08:20:03Z</time></trkpt><trkpt lat="40.77544379805564" lon="14.639525109626659"><ele>23.5</ele><time>2026-05-02T08:20:04Z</time></trkpt><trkpt lat="40.77546369472771" lon="14.63995144703359"><ele>23.0</ele><time>2026-05-02T08:20:05Z</time></trkpt><trkpt lat="40.77548708120202" lon="14.64038526819517"><ele>23.0</ele><time>2026-05-02T08:20:06Z</time></trkpt><trkpt lat="40.77550721811642" lon="14.640819921271339"><ele>23.0</ele><time>2026-05-02T08:20:07Z</time></trkpt><trkpt lat="40.77552329333418" lon="14.641252462703795"><ele>22.5</ele><time>2026-05-02T08:20:08Z</time></trkpt><trkpt lat="40.775535902276154" lon="14.641687116038234"><ele>22.0</ele><time>2026-05-02T08:20:09Z</time></trkpt><trkpt lat="40.77554197318036" lon="14.642123382640266"><ele>22.5</ele><time>2026-05-02T08:20:10Z</time></trkpt><trkpt lat="40.77553553799705" lon="14.642558947081989"><ele>23.0</ele><time>2026-05-02T08:20:11Z</time></trkpt><trkpt lat="40.77552195807679" lon="14.642991658403938"><ele>23.0</ele><time>2026-05-02T08:20:12Z</time></trkpt><trkpt lat="40.77549953505434" lon="14.64342512334704"><ele>23.0</ele><time>2026-05-02T08:20:13Z</time></trkpt><trkpt lat="40.775467002506204" lon="14.643855924512376"><ele>23.5</ele><time>2026-05-02T08:20:14Z</time></trkpt><trkpt lat="40.7754246414287" lon="14.644285588241088"><ele>24.0</ele><time>2026-05-02T08:20:15Z</time></trkpt><trkpt lat="40.775376235434415" lon="14.644716416562112"><ele>25.0</ele><time>2026-05-02T08:20:16Z</time></trkpt><trkpt lat="40.77532105771638" lon="14.645144352623847"><ele>26.0</ele><time>2026-05-02T08:20:17Z</time></trkpt><trkpt lat="40.775257261912614" lon="14.645567648424251"><ele>26.0</ele><time>2026-05-02T08:20:17.999Z</time></trkpt><trkpt lat="40.77518341785107" lon="14.645988891093403"><ele>26.0</ele><time>2026-05-02T08:20:18.999Z</time></trkpt><trkpt lat="40.77510292086775" lon="14.646409810112296"><ele>28.0</ele><time>2026-05-02T08:20:19.999Z</time></trkpt><trkpt lat="40.77501785907225" lon="14.646831920991923"><ele>30.0</ele><time>2026-05-02T08:20:20.999Z</time></trkpt><trkpt lat="40.774930063801534" lon="14.647254881212138"><ele>32.0</ele><time>2026-05-02T08:20:21.999Z</time></trkpt><trkpt lat="40.774841137929435" lon="14.647682337185993"><ele>34.0</ele><time>2026-05-02T08:20:22.999Z</time></trkpt><trkpt lat="40.774751006928035" lon="14.648113253914772"><ele>35.0</ele><time>2026-05-02T08:20:23.999Z</time></trkpt><trkpt lat="40.77466139937049" lon="14.648541219483482"><ele>36.0</ele><time>2026-05-02T08:20:24.999Z</time></trkpt><trkpt lat="40.77457300533587" lon="14.648969860049196"><ele>37.0</ele><time>2026-05-02T08:20:25.999Z</time></trkpt><trkpt lat="40.77448588154059" lon="14.64939921715542"><ele>38.0</ele><time>2026-05-02T08:20:26.999Z</time></trkpt><trkpt lat="40.77440128994958" lon="14.649827862134423"><ele>41.5</ele><time>2026-05-02T08:20:27.999Z</time></trkpt><trkpt lat="40.7743193259323" lon="14.650255737050843"><ele>45.0</ele><time>2026-05-02T08:20:28.999Z</time></trkpt><trkpt lat="40.77423670492904" lon="14.650685567505361"><ele>56.0</ele><time>2026-05-02T08:20:29.999Z</time></trkpt><trkpt lat="40.77415522804059" lon="14.65111759177648"><ele>67.0</ele><time>2026-05-02T08:20:30.999Z</time></trkpt><trkpt lat="40.774075770776825" lon="14.65154978287525"><ele>97.0</ele><time>2026-05-02T08:20:31.999Z</time></trkpt><trkpt lat="40.77400083980454" lon="14.65198158574013"><ele>127.0</ele><time>2026-05-02T08:20:32.999Z</time></trkpt><trkpt lat="40.77392795304757" lon="14.652412387327761"><ele>141.5</ele><time>2026-05-02T08:20:33.999Z</time></trkpt><trkpt lat="40.77385457581232" lon="14.652841495982177"><ele>156.0</ele><time>2026-05-02T08:20:34.999Z</time></trkpt><trkpt lat="40.7737799826889" lon="14.653269329310568"><ele>167.0</ele><time>2026-05-02T08:20:35.999Z</time></trkpt><trkpt lat="40.77370374590617" lon="14.653695037509767"><ele>178.0</ele><time>2026-05-02T08:20:36.999Z</time></trkpt><trkpt lat="40.773614789032955" lon="14.654109210031972"><ele>173.0</ele><time>2026-05-02T08:20:37.999Z</time></trkpt><trkpt lat="40.773533135349226" lon="14.65452644726643"><ele>168.0</ele><time>2026-05-02T08:20:38.999Z</time></trkpt><trkpt lat="40.77345080161816" lon="14.654941784797742"><ele>164.0</ele><time>2026-05-02T08:20:39.999Z</time></trkpt><trkpt lat="40.7733723111092" lon="14.65535254013219"><ele>160.0</ele><time>2026-05-02T08:20:40.999Z</time></trkpt><trkpt lat="40.773287685831555" lon="14.655764923203641"><ele>152.0</ele><time>2026-05-02T08:20:41.999Z</time></trkpt><trkpt lat="40.77321135704056" lon="14.656168653632022"><ele>144.0</ele><time>2026-05-02T08:20:42.999Z</time></trkpt><trkpt lat="40.77313796697087" lon="14.656552547166623"><ele>144.0</ele><time>2026-05-02T08:20:43.999Z</time></trkpt><trkpt lat="40.77306508174401" lon="14.656942192990702"><ele>144.0</ele><time>2026-05-02T08:20:44.999Z</time></trkpt><trkpt lat="40.772982428103866" lon="14.65732366498023"><ele>138.5</ele><time>2026-05-02T08:20:45.999Z</time></trkpt><trkpt lat="40.7729077561647" lon="14.657711885508135"><ele>133.0</ele><time>2026-05-02T08:20:46.999Z</time></trkpt><trkpt lat="40.772833431606905" lon="14.658097625055317"><ele>124.0</ele><time>2026-05-02T08:20:47.999Z</time></trkpt><trkpt lat="40.772766180587666" lon="14.658485295536847"><ele>115.0</ele><time>2026-05-02T08:20:48.999Z</time></trkpt><trkpt lat="40.772690850121606" lon="14.658874806190065"><ele>98.0</ele><time>2026-05-02T08:20:49.999Z</time></trkpt><trkpt lat="40.77261276599907" lon="14.659264460065128"><ele>81.0</ele><time>2026-05-02T08:20:50.999Z</time></trkpt><trkpt lat="40.772535295525394" lon="14.659652842811152"><ele>78.0</ele><time>2026-05-02T08:20:51.999Z</time></trkpt><trkpt lat="40.77246265481901" lon="14.660040549487999"><ele>75.0</ele><time>2026-05-02T08:20:52.999Z</time></trkpt><trkpt lat="40.772396153791156" lon="14.660423032148262"><ele>72.0</ele><time>2026-05-02T08:20:53.999Z</time></trkpt><trkpt lat="40.772209212894985" lon="14.661243750986076"><ele>72.0</ele><time>2026-05-02T08:20:54.999Z</time></trkpt><trkpt lat="40.77216401767813" lon="14.661697847423163"><ele>72.0</ele><time>2026-05-02T08:20:55.999Z</time></trkpt><trkpt lat="40.77209853750895" lon="14.662122121934246"><ele>71.5</ele><time>2026-05-02T08:20:56.999Z</time></trkpt><trkpt lat="40.772016584677104" lon="14.662535251546208"><ele>71.0</ele><time>2026-05-02T08:20:57.999Z</time></trkpt><trkpt lat="40.77194043169562" lon="14.662953836664737"><ele>69.5</ele><time>2026-05-02T08:20:58.999Z</time></trkpt><trkpt lat="40.77186624079204" lon="14.663379013557623"><ele>68.0</ele><time>2026-05-02T08:20:59.999Z</time></trkpt><trkpt lat="40.771795232812714" lon="14.663807819096494"><ele>68.0</ele><time>2026-05-02T08:21:00.999Z</time></trkpt><trkpt lat="40.771721040880344" lon="14.664235986048489"><ele>68.0</ele><time>2026-05-02T08:21:01.999Z</time></trkpt><trkpt lat="40.771642075804586" lon="14.66466347339729"><ele>68.0</ele><time>2026-05-02T08:21:02.999Z</time></trkpt><trkpt lat="40.77156669041072" lon="14.665090728984604"><ele>68.0</ele><time>2026-05-02T08:21:03.999Z</time></trkpt><trkpt lat="40.77148637759386" lon="14.665516858692802"><ele>67.5</ele><time>2026-05-02T08:21:04.999Z</time></trkpt><trkpt lat="40.771405914744996" lon="14.66594866862271"><ele>67.0</ele><time>2026-05-02T08:21:05.999Z</time></trkpt><trkpt lat="40.771322908995096" lon="14.666372350111759"><ele>67.0</ele><time>2026-05-02T08:21:06.999Z</time></trkpt><trkpt lat="40.771236373640015" lon="14.666800246869714"><ele>67.0</ele><time>2026-05-02T08:21:07.999Z</time></trkpt><trkpt lat="40.77114555698719" lon="14.667227952683218"><ele>67.0</ele><time>2026-05-02T08:21:08.999Z</time></trkpt><trkpt lat="40.771051098587684" lon="14.667652698063394"><ele>67.0</ele><time>2026-05-02T08:21:09.999Z</time></trkpt><trkpt lat="40.77095088542088" lon="14.668073713797881"><ele>67.0</ele><time>2026-05-02T08:21:10.999Z</time></trkpt><trkpt lat="40.77084163218566" lon="14.668486559596495"><ele>67.0</ele><time>2026-05-02T08:21:11.999Z</time></trkpt><trkpt lat="40.77072414941922" lon="14.66889542501981"><ele>67.5</ele><time>2026-05-02T08:21:12.999Z</time></trkpt><trkpt lat="40.7705995274571" lon="14.669300300695959"><ele>68.0</ele><time>2026-05-02T08:21:13.999Z</time></trkpt><trkpt lat="40.77046724368445" lon="14.669699500954362"><ele>68.0</ele><time>2026-05-02T08:21:14.999Z</time></trkpt><trkpt lat="40.77032755655757" lon="14.670094838931773"><ele>68.0</ele><time>2026-05-02T08:21:15.999Z</time></trkpt><trkpt lat="40.77018115737324" lon="14.670486651573464"><ele>68.0</ele><time>2026-05-02T08:21:16.999Z</time></trkpt><trkpt lat="40.77002981598478" lon="14.67087247191232"><ele>68.0</ele><time>2026-05-02T08:21:17.999Z</time></trkpt><trkpt lat="40.76987160869562" lon="14.67125626790865"><ele>67.5</ele><time>2026-05-02T08:21:18.999Z</time></trkpt><trkpt lat="40.769705079169476" lon="14.671633145890434"><ele>67.0</ele><time>2026-05-02T08:21:19.999Z</time></trkpt><trkpt lat="40.76953133478947" lon="14.672006677173204"><ele>68.5</ele><time>2026-05-02T08:21:20.999Z</time></trkpt><trkpt lat="40.76935340260861" lon="14.672377031989994"><ele>70.0</ele><time>2026-05-02T08:21:21.999Z</time></trkpt><trkpt lat="40.76917520530378" lon="14.672748655448608"><ele>70.5</ele><time>2026-05-02T08:21:22.999Z</time></trkpt><trkpt lat="40.76899786934149" lon="14.673123464745053"><ele>71.0</ele><time>2026-05-02T08:21:23.999Z</time></trkpt><trkpt lat="40.76882501639623" lon="14.673501751520007"><ele>71.0</ele><time>2026-05-02T08:21:24.999Z</time></trkpt><trkpt lat="40.76865952954703" lon="14.673882871873591"><ele>71.0</ele><time>2026-05-02T08:21:25.999Z</time></trkpt><trkpt lat="40.768499939993255" lon="14.674272768364853"><ele>71.5</ele><time>2026-05-02T08:21:26.999Z</time></trkpt><trkpt lat="40.768349641486424" lon="14.674665977336375"><ele>72.0</ele><time>2026-05-02T08:21:27.999Z</time></trkpt><trkpt lat="40.76820880859634" lon="14.675062827439465"><ele>71.0</ele><time>2026-05-02T08:21:28.999Z</time></trkpt><trkpt lat="40.76807851773623" lon="14.675467468951814"><ele>70.0</ele><time>2026-05-02T08:21:29.999Z</time></trkpt><trkpt lat="40.76795649850257" lon="14.675879566230106"><ele>69.5</ele><time>2026-05-02T08:21:30.999Z</time></trkpt><trkpt lat="40.76784514417752" lon="14.676296250297609"><ele>69.0</ele><time>2026-05-02T08:21:31.999Z</time></trkpt><trkpt lat="40.76774152647196" lon="14.676715687519367"><ele>70.5</ele><time>2026-05-02T08:21:32.999Z</time></trkpt><trkpt lat="40.76764679315768" lon="14.67713815230601"><ele>72.0</ele><time>2026-05-02T08:21:33.998Z</time></trkpt><trkpt lat="40.76756458647212" lon="14.677563280411926"><ele>71.5</ele><time>2026-05-02T08:21:34.998Z</time></trkpt><trkpt lat="40.76749114519262" lon="14.677990041667716"><ele>71.0</ele><time>2026-05-02T08:21:35.998Z</time></trkpt><trkpt lat="40.767427937316185" lon="14.678419187555352"><ele>70.5</ele><time>2026-05-02T08:21:36.998Z</time></trkpt><trkpt lat="40.76736752038141" lon="14.678848439898948"><ele>70.0</ele><time>2026-05-02T08:21:37.998Z</time></trkpt><trkpt lat="40.767319217177" lon="14.679279858882534"><ele>70.0</ele><time>2026-05-02T08:21:38.998Z</time></trkpt><trkpt lat="40.767271323684085" lon="14.679711059662367"><ele>70.0</ele><time>2026-05-02T08:21:39.998Z</time></trkpt><trkpt lat="40.767224010563496" lon="14.680141810390932"><ele>70.0</ele><time>2026-05-02T08:21:40.998Z</time></trkpt><trkpt lat="40.767172211013275" lon="14.68057422192941"><ele>70.0</ele><time>2026-05-02T08:21:41.998Z</time></trkpt><trkpt lat="40.76712021667153" lon="14.68100518798169"><ele>70.0</ele><time>2026-05-02T08:21:42.998Z</time></trkpt><trkpt lat="40.76706953314495" lon="14.68143730063475"><ele>70.0</ele><time>2026-05-02T08:21:43.998Z</time></trkpt><trkpt lat="40.767017033573644" lon="14.681865892201206"><ele>71.0</ele><time>2026-05-02T08:21:44.998Z</time></trkpt><trkpt lat="40.76696502987328" lon="14.682297028945088"><ele>72.0</ele><time>2026-05-02T08:21:45.998Z</time></trkpt><trkpt lat="40.76691683993614" lon="14.682729108163532"><ele>72.0</ele><time>2026-05-02T08:21:46.998Z</time></trkpt><trkpt lat="40.76687376444075" lon="14.683162325272576"><ele>72.0</ele><time>2026-05-02T08:21:47.998Z</time></trkpt><trkpt lat="40.76683907673827" lon="14.683595092855395"><ele>74.0</ele><time>2026-05-02T08:21:49Z</time></trkpt><trkpt lat="40.76681752054877" lon="14.684026602340456"><ele>76.0</ele><time>2026-05-02T08:21:50Z</time></trkpt><trkpt lat="40.76680786813371" lon="14.684456681606024"><ele>76.0</ele><time>2026-05-02T08:21:51Z</time></trkpt><trkpt lat="40.76680430487057" lon="14.684890414553418"><ele>76.0</ele><time>2026-05-02T08:21:52Z</time></trkpt><trkpt lat="40.766809882523205" lon="14.685325682244681"><ele>76.0</ele><time>2026-05-02T08:21:53Z</time></trkpt><trkpt lat="40.766824013893064" lon="14.68576258596736"><ele>76.0</ele><time>2026-05-02T08:21:54Z</time></trkpt><trkpt lat="40.766848164255514" lon="14.68619872671735"><ele>75.5</ele><time>2026-05-02T08:21:55Z</time></trkpt><trkpt lat="40.7668777770493" lon="14.686636618972774"><ele>75.0</ele><time>2026-05-02T08:21:56Z</time></trkpt><trkpt lat="40.76691086003765" lon="14.687076023159644"><ele>76.0</ele><time>2026-05-02T08:21:57Z</time></trkpt><trkpt lat="40.76694440021191" lon="14.687518539892473"><ele>77.0</ele><time>2026-05-02T08:21:58Z</time></trkpt><trkpt lat="40.76697723375788" lon="14.687961321285503"><ele>77.5</ele><time>2026-05-02T08:21:59Z</time></trkpt><trkpt lat="40.76700815963668" lon="14.688404584029826"><ele>78.0</ele><time>2026-05-02T08:22:00Z</time></trkpt><trkpt lat="40.76703979910362" lon="14.688845428130874"><ele>78.5</ele><time>2026-05-02T08:22:01Z</time></trkpt><trkpt lat="40.767070004137906" lon="14.689285479159508"><ele>79.0</ele><time>2026-05-02T08:22:02Z</time></trkpt><trkpt lat="40.76710132181515" lon="14.689724405183627"><ele>79.0</ele><time>2026-05-02T08:22:03Z</time></trkpt><trkpt lat="40.76713476427025" lon="14.690161233541215"><ele>79.0</ele><time>2026-05-02T08:22:04Z</time></trkpt><trkpt lat="40.76716736316058" lon="14.690597239022608"><ele>79.5</ele><time>2026-05-02T08:22:05Z</time></trkpt><trkpt lat="40.76719941314737" lon="14.691030530284078"><ele>80.0</ele><time>2026-05-02T08:22:06Z</time></trkpt><trkpt lat="40.76723161655661" lon="14.691465598992187"><ele>80.0</ele><time>2026-05-02T08:22:07Z</time></trkpt><trkpt lat="40.767263973905614" lon="14.691900951555617"><ele>80.0</ele><time>2026-05-02T08:22:08Z</time></trkpt><trkpt lat="40.7672948669783" lon="14.692336605843762"><ele>81.5</ele><time>2026-05-02T08:22:09Z</time></trkpt><trkpt lat="40.76732753948359" lon="14.692774289820127"><ele>83.0</ele><time>2026-05-02T08:22:10Z</time></trkpt><trkpt lat="40.76736277460178" lon="14.693208595443505"><ele>83.0</ele><time>2026-05-02T08:22:11Z</time></trkpt><trkpt lat="40.76739831468599" lon="14.693639029477618"><ele>83.0</ele><time>2026-05-02T08:22:12Z</time></trkpt><trkpt lat="40.767434752507796" lon="14.694064502269388"><ele>83.5</ele><time>2026-05-02T08:22:13Z</time></trkpt><trkpt lat="40.76747070431178" lon="14.694493671442473"><ele>84.0</ele><time>2026-05-02T08:22:14Z</time></trkpt><trkpt lat="40.76750655649135" lon="14.694925251713522"><ele>84.5</ele><time>2026-05-02T08:22:15Z</time></trkpt><trkpt lat="40.767540402709486" lon="14.695355949746485"><ele>85.0</ele><time>2026-05-02T08:22:16Z</time></trkpt><trkpt lat="40.76757292115304" lon="14.695788648081418"><ele>85.5</ele><time>2026-05-02T08:22:17Z</time></trkpt><trkpt lat="40.76760597214907" lon="14.696221083441495"><ele>86.0</ele><time>2026-05-02T08:22:18Z</time></trkpt><trkpt lat="40.76763640254678" lon="14.696651143988529"><ele>87.0</ele><time>2026-05-02T08:22:19Z</time></trkpt><trkpt lat="40.76766458614112" lon="14.697081456357582"><ele>88.0</ele><time>2026-05-02T08:22:20Z</time></trkpt><trkpt lat="40.76768659048671" lon="14.697511336035484"><ele>87.5</ele><time>2026-05-02T08:22:21Z</time></trkpt><trkpt lat="40.767696162585175" lon="14.697936451672515"><ele>87.0</ele><time>2026-05-02T08:22:21.999Z</time></trkpt><trkpt lat="40.7676878208388" lon="14.69836464759278"><ele>89.5</ele><time>2026-05-02T08:22:22.999Z</time></trkpt><trkpt lat="40.76766539536151" lon="14.698791951159539"><ele>92.0</ele><time>2026-05-02T08:22:23.999Z</time></trkpt><trkpt lat="40.76762651736879" lon="14.699212989470574"><ele>94.0</ele><time>2026-05-02T08:22:24.999Z</time></trkpt><trkpt lat="40.76757356435527" lon="14.699635479546817"><ele>96.0</ele><time>2026-05-02T08:22:25.999Z</time></trkpt><trkpt lat="40.76750475692072" lon="14.700056356705245"><ele>97.5</ele><time>2026-05-02T08:22:26.999Z</time></trkpt><trkpt lat="40.767421848309404" lon="14.700476241029568"><ele>99.0</ele><time>2026-05-02T08:22:27.999Z</time></trkpt><trkpt lat="40.76733197575282" lon="14.700896596457957"><ele>100.5</ele><time>2026-05-02T08:22:28.999Z</time></trkpt><trkpt lat="40.767239880071855" lon="14.701319636191611"><ele>102.0</ele><time>2026-05-02T08:22:29.999Z</time></trkpt><trkpt lat="40.767148723754595" lon="14.701745233231433"><ele>102.5</ele><time>2026-05-02T08:22:30.999Z</time></trkpt><trkpt lat="40.76705817620255" lon="14.70217403429358"><ele>103.0</ele><time>2026-05-02T08:22:31.999Z</time></trkpt><trkpt lat="40.76697315848496" lon="14.702602829772335"><ele>104.0</ele><time>2026-05-02T08:22:32.999Z</time></trkpt><trkpt lat="40.76690200245457" lon="14.70303288134036"><ele>105.0</ele><time>2026-05-02T08:22:33.999Z</time></trkpt><trkpt lat="40.76685216688361" lon="14.70346536761797"><ele>121.0</ele><time>2026-05-02T08:22:34.999Z</time></trkpt><trkpt lat="40.76682727780638" lon="14.703898431378231"><ele>137.0</ele><time>2026-05-02T08:22:35.999Z</time></trkpt><trkpt lat="40.766829131030796" lon="14.704332281840221"><ele>144.5</ele><time>2026-05-02T08:22:36.999Z</time></trkpt><trkpt lat="40.76685798054286" lon="14.704768292288863"><ele>152.0</ele><time>2026-05-02T08:22:37.999Z</time></trkpt><trkpt lat="40.76691046640606" lon="14.705201154625465"><ele>142.0</ele><time>2026-05-02T08:22:38.999Z</time></trkpt><trkpt lat="40.76699156062752" lon="14.70562948901869"><ele>132.0</ele><time>2026-05-02T08:22:39.999Z</time></trkpt><trkpt lat="40.767095317051016" lon="14.70604983513782"><ele>145.0</ele><time>2026-05-02T08:22:40.999Z</time></trkpt><trkpt lat="40.767223105502026" lon="14.706459123710957"><ele>158.0</ele><time>2026-05-02T08:22:41.999Z</time></trkpt><trkpt lat="40.7673679155567" lon="14.706859610019903"><ele>157.0</ele><time>2026-05-02T08:22:42.999Z</time></trkpt><trkpt lat="40.76753287804612" lon="14.707250144370171"><ele>156.0</ele><time>2026-05-02T08:22:43.999Z</time></trkpt><trkpt lat="40.76772212091162" lon="14.707623325471431"><ele>163.0</ele><time>2026-05-02T08:22:44.999Z</time></trkpt><trkpt lat="40.76792930462112" lon="14.708016798187005"><ele>170.0</ele><time>2026-05-02T08:22:46.069Z</time></trkpt><trkpt lat="40.768526267550136" lon="14.711522622716288"><ele>167.5</ele><time>2026-05-02T08:22:52.999Z</time></trkpt><trkpt lat="40.76873298493182" lon="14.711869831867604"><ele>165.0</ele><time>2026-05-02T08:22:53.999Z</time></trkpt><trkpt lat="40.76891127366236" lon="14.712202313179505"><ele>124.0</ele><time>2026-05-02T08:22:54.999Z</time></trkpt><trkpt lat="40.7698202324208" lon="14.71156648491483"><ele>124.0</ele><time>2026-05-02T08:22:55.999Z</time></trkpt><trkpt lat="40.77004907820143" lon="14.711886756874117"><ele>124.0</ele><time>2026-05-02T08:22:56.999Z</time></trkpt><trkpt lat="40.77030755916941" lon="14.712184329679681"><ele>122.5</ele><time>2026-05-02T08:22:57.999Z</time></trkpt><trkpt lat="40.770509082452335" lon="14.712526617232516"><ele>121.0</ele><time>2026-05-02T08:22:58.999Z</time></trkpt><trkpt lat="40.77071050783471" lon="14.712877754126575"><ele>132.0</ele><time>2026-05-02T08:22:59.999Z</time></trkpt><trkpt lat="40.77091837692248" lon="14.713222971051088"><ele>143.0</ele><time>2026-05-02T08:23:00.999Z</time></trkpt><trkpt lat="40.771107375712106" lon="14.713584785584612"><ele>143.0</ele><time>2026-05-02T08:23:01.999Z</time></trkpt><trkpt lat="40.77128304310459" lon="14.71395646785644"><ele>143.0</ele><time>2026-05-02T08:23:02.999Z</time></trkpt><trkpt lat="40.771448532254105" lon="14.714332630673717"><ele>158.5</ele><time>2026-05-02T08:23:03.999Z</time></trkpt><trkpt lat="40.771604216003134" lon="14.714717211237721"><ele>174.0</ele><time>2026-05-02T08:23:04.999Z</time></trkpt><trkpt lat="40.77174454205811" lon="14.715111390220388"><ele>162.0</ele><time>2026-05-02T08:23:05.999Z</time></trkpt><trkpt lat="40.77187785814814" lon="14.715508805275116"><ele>150.0</ele><time>2026-05-02T08:23:06.999Z</time></trkpt><trkpt lat="40.7719947804534" lon="14.715913440572907"><ele>152.5</ele><time>2026-05-02T08:23:07.999Z</time></trkpt><trkpt lat="40.77209029733435" lon="14.71632076672626"><ele>155.0</ele><time>2026-05-02T08:23:08.999Z</time></trkpt><trkpt lat="40.77218119484893" lon="14.71672780025639"><ele>157.0</ele><time>2026-05-02T08:23:09.999Z</time></trkpt><trkpt lat="40.77226313338547" lon="14.717119579330992"><ele>159.0</ele><time>2026-05-02T08:23:10.999Z</time></trkpt><trkpt lat="40.77233578903938" lon="14.717522585681625"><ele>155.5</ele><time>2026-05-02T08:23:11.999Z</time></trkpt><trkpt lat="40.77239333919162" lon="14.717935275737497"><ele>152.0</ele><time>2026-05-02T08:23:12.999Z</time></trkpt><trkpt lat="40.77243439879813" lon="14.718353497223383"><ele>145.0</ele><time>2026-05-02T08:23:13.999Z</time></trkpt><trkpt lat="40.772462217696514" lon="14.71877000727819"><ele>138.0</ele><time>2026-05-02T08:23:14.999Z</time></trkpt><trkpt lat="40.772473111950646" lon="14.719181682335451"><ele>132.5</ele><time>2026-05-02T08:23:15.999Z</time></trkpt><trkpt lat="40.77248329952369" lon="14.719597849806073"><ele>127.0</ele><time>2026-05-02T08:23:16.999Z</time></trkpt><trkpt lat="40.772469109436365" lon="14.720121116303678"><ele>127.0</ele><time>2026-05-02T08:23:17.999Z</time></trkpt><trkpt lat="40.7724903181026" lon="14.720604267521232"><ele>127.0</ele><time>2026-05-02T08:23:18.999Z</time></trkpt><trkpt lat="40.77250129775491" lon="14.721042431419074"><ele>129.0</ele><time>2026-05-02T08:23:19.999Z</time></trkpt><trkpt lat="40.7725130734527" lon="14.721476825700057"><ele>131.0</ele><time>2026-05-02T08:23:20.999Z</time></trkpt><trkpt lat="40.772516309219895" lon="14.721910350377609"><ele>132.0</ele><time>2026-05-02T08:23:21.999Z</time></trkpt><trkpt lat="40.772520038340424" lon="14.722307706220896"><ele>133.0</ele><time>2026-05-02T08:23:22.999Z</time></trkpt><trkpt lat="40.77252028539708" lon="14.722709823135109"><ele>134.5</ele><time>2026-05-02T08:23:23.999Z</time></trkpt><trkpt lat="40.77252317421788" lon="14.723103291904174"><ele>136.0</ele><time>2026-05-02T08:23:24.999Z</time></trkpt><trkpt lat="40.77252935419336" lon="14.72348140078455"><ele>135.5</ele><time>2026-05-02T08:23:25.999Z</time></trkpt><trkpt lat="40.77253670630826" lon="14.723832393879663"><ele>135.0</ele><time>2026-05-02T08:23:26.999Z</time></trkpt><trkpt lat="40.77254341702313" lon="14.724162073336585"><ele>134.0</ele><time>2026-05-02T08:23:27.999Z</time></trkpt><trkpt lat="40.7725468234313" lon="14.724470272245323"><ele>133.0</ele><time>2026-05-02T08:23:28.999Z</time></trkpt><trkpt lat="40.77254982919202" lon="14.724762382422469"><ele>133.0</ele><time>2026-05-02T08:23:29.999Z</time></trkpt><trkpt lat="40.77255128526251" lon="14.725029377581134"><ele>133.0</ele><time>2026-05-02T08:23:30.999Z</time></trkpt><trkpt lat="40.77255558034511" lon="14.725262811275318"><ele>133.0</ele><time>2026-05-02T08:23:31.999Z</time></trkpt><trkpt lat="40.77256401558645" lon="14.725462187624426"><ele>132.75</ele><time>2026-05-02T08:23:32.999Z</time></trkpt><trkpt lat="40.77254884699462" lon="14.725639253190993"><ele>132.5</ele><time>2026-05-02T08:23:33.999Z</time></trkpt><trkpt lat="40.772546647706" lon="14.725805443380189"><ele>132.25</ele><time>2026-05-02T08:23:34.999Z</time></trkpt><trkpt lat="40.77254920152646" lon="14.725938627261524"><ele>132.0</ele><time>2026-05-02T08:23:35.999Z</time></trkpt><trkpt lat="40.772552363101916" lon="14.726055729618166"><ele>132.33333333333334</ele><time>2026-05-02T08:23:36.999Z</time></trkpt><trkpt lat="40.772555113780186" lon="14.726160968413035"><ele>132.66666666666666</ele><time>2026-05-02T08:23:37.998Z</time></trkpt><trkpt lat="40.772557582984774" lon="14.726255438332783"><ele>133.0</ele><time>2026-05-02T08:23:38.998Z</time></trkpt><trkpt lat="40.772559942551744" lon="14.726345146524507"><ele>133.33333333333331</ele><time>2026-05-02T08:23:39.998Z</time></trkpt><trkpt lat="40.772562396885945" lon="14.726433453992717"><ele>133.66666666666666</ele><time>2026-05-02T08:23:40.998Z</time></trkpt><trkpt lat="40.77256683784199" lon="14.72659324052446"><ele>134.0</ele><time>2026-05-02T08:23:42.998Z</time></trkpt><trkpt lat="40.77257045273984" lon="14.726738075982173"><ele>134.0</ele><time>2026-05-02T08:23:44.998Z</time></trkpt><trkpt lat="40.77257188195811" lon="14.726822260559157"><ele>134.0</ele><time>2026-05-02T08:23:45.998Z</time></trkpt><trkpt lat="40.77257341345436" lon="14.726912469418552"><ele>134.0</ele><time>2026-05-02T08:23:46.998Z</time></trkpt><trkpt lat="40.772574718648706" lon="14.726997439118302"><ele>134.0</ele><time>2026-05-02T08:23:47.998Z</time></trkpt><trkpt lat="40.77257613891834" lon="14.727095508811079"><ele>134.0</ele><time>2026-05-02T08:23:49.998Z</time></trkpt><trkpt lat="40.77257705401465" lon="14.72721972275795"><ele>134.0</ele><time>2026-05-02T08:23:51.998Z</time></trkpt><trkpt lat="40.7725781213464" lon="14.72732798178863"><ele>134.0</ele><time>2026-05-02T08:23:52.998Z</time></trkpt><trkpt lat="40.77257730983898" lon="14.72745644449239"><ele>134.0</ele><time>2026-05-02T08:23:53.998Z</time></trkpt><trkpt lat="40.772575872571466" lon="14.727578836727565"><ele>134.0</ele><time>2026-05-02T08:23:55Z</time></trkpt><trkpt lat="40.77257407678988" lon="14.72770002338474"><ele>134.0</ele><time>2026-05-02T08:23:56Z</time></trkpt><trkpt lat="40.77257230894287" lon="14.727838208637955"><ele>134.0</ele><time>2026-05-02T08:23:57Z</time></trkpt><trkpt lat="40.772570223459624" lon="14.728003318069312"><ele>134.0</ele><time>2026-05-02T08:23:58Z</time></trkpt><trkpt lat="40.772569726716846" lon="14.728139212209001"><ele>133.83333333333331</ele><time>2026-05-02T08:23:59Z</time></trkpt><trkpt lat="40.772542817803924" lon="14.728253450957297"><ele>133.66666666666666</ele><time>2026-05-02T08:24:00Z</time></trkpt><trkpt lat="40.77252407729336" lon="14.728352189562157"><ele>133.5</ele><time>2026-05-02T08:24:01Z</time></trkpt><trkpt lat="40.772493155687656" lon="14.728441583478828"><ele>133.33333333333334</ele><time>2026-05-02T08:24:02Z</time></trkpt><trkpt lat="40.772460866542126" lon="14.728542427378134"><ele>133.16666666666669</ele><time>2026-05-02T08:24:03Z</time></trkpt><trkpt lat="40.772433969903865" lon="14.72862615834661"><ele>133.0</ele><time>2026-05-02T08:24:04Z</time></trkpt><trkpt lat="40.77244920886901" lon="14.728728882790046"><ele>132.6</ele><time>2026-05-02T08:24:07Z</time></trkpt><trkpt lat="40.772469121512835" lon="14.728820800125227"><ele>132.20000000000002</ele><time>2026-05-02T08:26:02Z</time></trkpt><trkpt lat="40.772473564945095" lon="14.72892414557113"><ele>131.8</ele><time>2026-05-02T08:26:03Z</time></trkpt><trkpt lat="40.772477341595696" lon="14.729050959034144"><ele>131.4</ele><time>2026-05-02T08:26:04Z</time></trkpt><trkpt lat="40.772482638894616" lon="14.72919803547116"><ele>131.0</ele><time>2026-05-02T08:26:05Z</time></trkpt><trkpt lat="40.77248607479487" lon="14.729354407719798"><ele>131.0</ele><time>2026-05-02T08:26:06Z</time></trkpt><trkpt lat="40.77249124312134" lon="14.729538904624274"><ele>131.0</ele><time>2026-05-02T08:26:07Z</time></trkpt><trkpt lat="40.772492635106815" lon="14.729742808120863"><ele>131.0</ele><time>2026-05-02T08:26:08Z</time></trkpt><trkpt lat="40.77249477669622" lon="14.729967758111886"><ele>131.0</ele><time>2026-05-02T08:26:09Z</time></trkpt><trkpt lat="40.77249454761685" lon="14.730211274573302"><ele>131.0</ele><time>2026-05-02T08:26:10Z</time></trkpt><trkpt lat="40.772493873518826" lon="14.730467131433116"><ele>131.0</ele><time>2026-05-02T08:26:11Z</time></trkpt><trkpt lat="40.77249227829979" lon="14.730733956804478"><ele>130.33333333333331</ele><time>2026-05-02T08:26:12Z</time></trkpt><trkpt lat="40.77249108713777" lon="14.731014184107122"><ele>129.66666666666666</ele><time>2026-05-02T08:26:13Z</time></trkpt><trkpt lat="40.77248718310904" lon="14.7313107180983"><ele>129.0</ele><time>2026-05-02T08:26:14Z</time></trkpt><trkpt lat="40.772474542990814" lon="14.731615023710233"><ele>130.5</ele><time>2026-05-02T08:26:15Z</time></trkpt><trkpt lat="40.77245262562667" lon="14.73193354367205"><ele>132.0</ele><time>2026-05-02T08:26:16Z</time></trkpt><trkpt lat="40.77242071400794" lon="14.732257777796418"><ele>132.0</ele><time>2026-05-02T08:26:17Z</time></trkpt><trkpt lat="40.77237944220206" lon="14.732593725249755"><ele>132.0</ele><time>2026-05-02T08:26:18Z</time></trkpt><trkpt lat="40.77232791036982" lon="14.732937338292988"><ele>132.5</ele><time>2026-05-02T08:26:19Z</time></trkpt><trkpt lat="40.77226752960737" lon="14.733288808943803"><ele>133.0</ele><time>2026-05-02T08:26:20Z</time></trkpt><trkpt lat="40.77219807029205" lon="14.733643176002637"><ele>134.5</ele><time>2026-05-02T08:26:21Z</time></trkpt><trkpt lat="40.77211546038924" lon="14.733997358947978"><ele>136.0</ele><time>2026-05-02T08:26:22Z</time></trkpt><trkpt lat="40.77201873175509" lon="14.734356918190082"><ele>137.5</ele><time>2026-05-02T08:26:23Z</time></trkpt><trkpt lat="40.77191481408499" lon="14.734715791353217"><ele>139.0</ele><time>2026-05-02T08:26:24Z</time></trkpt><trkpt lat="40.77180771455175" lon="14.73507841456006"><ele>143.5</ele><time>2026-05-02T08:26:25Z</time></trkpt><trkpt lat="40.771700415405206" lon="14.73544289060116"><ele>148.0</ele><time>2026-05-02T08:26:26Z</time></trkpt><trkpt lat="40.77159097450671" lon="14.73581530925909"><ele>147.0</ele><time>2026-05-02T08:26:27Z</time></trkpt><trkpt lat="40.77147948050562" lon="14.736190084578224"><ele>146.0</ele><time>2026-05-02T08:26:27.999Z</time></trkpt><trkpt lat="40.771366960103585" lon="14.736570711277581"><ele>146.0</ele><time>2026-05-02T08:26:28.999Z</time></trkpt><trkpt lat="40.77125579064363" lon="14.73695012060697"><ele>146.0</ele><time>2026-05-02T08:26:29.999Z</time></trkpt><trkpt lat="40.771147192820344" lon="14.737335894110693"><ele>144.5</ele><time>2026-05-02T08:26:30.999Z</time></trkpt><trkpt lat="40.77104698707321" lon="14.73773244334547"><ele>143.0</ele><time>2026-05-02T08:26:31.999Z</time></trkpt><trkpt lat="40.770963340709194" lon="14.738134460142248"><ele>148.5</ele><time>2026-05-02T08:26:32.999Z</time></trkpt><trkpt lat="40.770886732443046" lon="14.738540042326939"><ele>154.0</ele><time>2026-05-02T08:26:33.999Z</time></trkpt><trkpt lat="40.77081966699685" lon="14.738951204673235"><ele>157.0</ele><time>2026-05-02T08:26:34.999Z</time></trkpt><trkpt lat="40.77076162649149" lon="14.739371664299782"><ele>160.0</ele><time>2026-05-02T08:26:35.999Z</time></trkpt><trkpt lat="40.770710315525356" lon="14.739795464516193"><ele>167.5</ele><time>2026-05-02T08:26:36.999Z</time></trkpt><trkpt lat="40.77066290232462" lon="14.74021057011046"><ele>175.0</ele><time>2026-05-02T08:26:37.999Z</time></trkpt><trkpt lat="40.7706142051878" lon="14.740626084195382"><ele>185.0</ele><time>2026-05-02T08:26:38.999Z</time></trkpt><trkpt lat="40.770565077031335" lon="14.741043560681167"><ele>195.0</ele><time>2026-05-02T08:26:39.999Z</time></trkpt><trkpt lat="40.77051379744079" lon="14.741466098898808"><ele>187.5</ele><time>2026-05-02T08:26:40.999Z</time></trkpt><trkpt lat="40.77046483676179" lon="14.741885047746722"><ele>180.0</ele><time>2026-05-02T08:26:41.999Z</time></trkpt><trkpt lat="40.770408153525956" lon="14.742317354013089"><ele>174.5</ele><time>2026-05-02T08:26:42.999Z</time></trkpt><trkpt lat="40.77035519892137" lon="14.74274110760694"><ele>169.0</ele><time>2026-05-02T08:26:43.999Z</time></trkpt><trkpt lat="40.770305700769114" lon="14.743166163133429"><ele>166.5</ele><time>2026-05-02T08:26:44.999Z</time></trkpt><trkpt lat="40.77025972980163" lon="14.743599209010679"><ele>164.0</ele><time>2026-05-02T08:26:45.999Z</time></trkpt><trkpt lat="40.770244201795336" lon="14.744047135323296"><ele>162.0</ele><time>2026-05-02T08:26:46.999Z</time></trkpt><trkpt lat="40.770237023785654" lon="14.74448449391342"><ele>160.0</ele><time>2026-05-02T08:26:47.999Z</time></trkpt><trkpt lat="40.77023519242353" lon="14.744927513240594"><ele>164.0</ele><time>2026-05-02T08:26:48.999Z</time></trkpt><trkpt lat="40.7702415459214" lon="14.745366204845157"><ele>168.0</ele><time>2026-05-02T08:26:49.999Z</time></trkpt><trkpt lat="40.77026224792434" lon="14.745801370545578"><ele>171.5</ele><time>2026-05-02T08:26:50.999Z</time></trkpt><trkpt lat="40.77029259065442" lon="14.746236398714188"><ele>175.0</ele><time>2026-05-02T08:26:51.999Z</time></trkpt><trkpt lat="40.77033205281165" lon="14.7466681509985"><ele>170.5</ele><time>2026-05-02T08:26:52.999Z</time></trkpt><trkpt lat="40.77038535615023" lon="14.747089788157238"><ele>166.0</ele><time>2026-05-02T08:26:53.999Z</time></trkpt><trkpt lat="40.770446089347004" lon="14.747514762114507"><ele>165.5</ele><time>2026-05-02T08:26:54.999Z</time></trkpt><trkpt lat="40.770514578968466" lon="14.747940493450898"><ele>165.0</ele><time>2026-05-02T08:26:55.999Z</time></trkpt><trkpt lat="40.77058968760342" lon="14.748362350925497"><ele>164.5</ele><time>2026-05-02T08:26:56.999Z</time></trkpt><trkpt lat="40.770673889541435" lon="14.74878423824704"><ele>164.0</ele><time>2026-05-02T08:26:57.999Z</time></trkpt><trkpt lat="40.770766939299364" lon="14.749202539825898"><ele>164.5</ele><time>2026-05-02T08:26:58.999Z</time></trkpt><trkpt lat="40.77086716489301" lon="14.749618198673208"><ele>165.0</ele><time>2026-05-02T08:26:59.999Z</time></trkpt><trkpt lat="40.77097682115888" lon="14.750031608926479"><ele>162.0</ele><time>2026-05-02T08:27:00.999Z</time></trkpt><trkpt lat="40.77109639148569" lon="14.750441644798732"><ele>159.0</ele><time>2026-05-02T08:27:01.999Z</time></trkpt><trkpt lat="40.77122399740054" lon="14.750846019082015"><ele>159.0</ele><time>2026-05-02T08:27:02.999Z</time></trkpt><trkpt lat="40.77136183291869" lon="14.751244767562511"><ele>159.0</ele><time>2026-05-02T08:27:03.999Z</time></trkpt><trkpt lat="40.77150656029488" lon="14.751639344875617"><ele>160.0</ele><time>2026-05-02T08:27:04.999Z</time></trkpt><trkpt lat="40.771658014178044" lon="14.75203257436983"><ele>161.0</ele><time>2026-05-02T08:27:05.999Z</time></trkpt><trkpt lat="40.77181273838438" lon="14.752423031533583"><ele>158.0</ele><time>2026-05-02T08:27:06.999Z</time></trkpt><trkpt lat="40.77196810677338" lon="14.752816871210094"><ele>155.0</ele><time>2026-05-02T08:27:07.999Z</time></trkpt><trkpt lat="40.77212109862376" lon="14.753211608610172"><ele>154.5</ele><time>2026-05-02T08:27:08.999Z</time></trkpt><trkpt lat="40.77227412544666" lon="14.753606716071241"><ele>154.0</ele><time>2026-05-02T08:27:09.999Z</time></trkpt><trkpt lat="40.772428723539996" lon="14.754001117348485"><ele>154.0</ele><time>2026-05-02T08:27:10.999Z</time></trkpt><trkpt lat="40.77258242114417" lon="14.754396032278338"><ele>154.0</ele><time>2026-05-02T08:27:11.999Z</time></trkpt><trkpt lat="40.772736258546594" lon="14.754792464992734"><ele>151.5</ele><time>2026-05-02T08:27:12.999Z</time></trkpt><trkpt lat="40.77288940279288" lon="14.75518601551963"><ele>149.0</ele><time>2026-05-02T08:27:13.999Z</time></trkpt><trkpt lat="40.77304173119901" lon="14.755578216570548"><ele>148.0</ele><time>2026-05-02T08:27:14.999Z</time></trkpt><trkpt lat="40.77319208062243" lon="14.755968870976904"><ele>147.0</ele><time>2026-05-02T08:27:15.999Z</time></trkpt><trkpt lat="40.77333861078923" lon="14.756359733303118"><ele>147.0</ele><time>2026-05-02T08:27:16.999Z</time></trkpt><trkpt lat="40.773484304909886" lon="14.756749948697745"><ele>147.0</ele><time>2026-05-02T08:27:17.999Z</time></trkpt><trkpt lat="40.773627520116605" lon="14.757143715934044"><ele>146.5</ele><time>2026-05-02T08:27:18.999Z</time></trkpt><trkpt lat="40.77376688947169" lon="14.757541305495199"><ele>146.0</ele><time>2026-05-02T08:27:19.999Z</time></trkpt><trkpt lat="40.77389074801718" lon="14.757945452920117"><ele>147.5</ele><time>2026-05-02T08:27:20.999Z</time></trkpt><trkpt lat="40.773997157601656" lon="14.758349507620846"><ele>149.0</ele><time>2026-05-02T08:27:21.999Z</time></trkpt><trkpt lat="40.77408409161804" lon="14.758751480825813"><ele>149.5</ele><time>2026-05-02T08:27:22.999Z</time></trkpt><trkpt lat="40.77415853948157" lon="14.759153816544472"><ele>150.0</ele><time>2026-05-02T08:27:23.999Z</time></trkpt><trkpt lat="40.7742175574345" lon="14.759557830130161"><ele>150.0</ele><time>2026-05-02T08:27:24.999Z</time></trkpt><trkpt lat="40.774263027639314" lon="14.759964900996088"><ele>150.0</ele><time>2026-05-02T08:27:25.999Z</time></trkpt><trkpt lat="40.77429331807245" lon="14.760375365589896"><ele>151.0</ele><time>2026-05-02T08:27:26.999Z</time></trkpt><trkpt lat="40.77430793406316" lon="14.760789745320038"><ele>152.0</ele><time>2026-05-02T08:27:27.999Z</time></trkpt><trkpt lat="40.77431057312845" lon="14.761209699076433"><ele>153.0</ele><time>2026-05-02T08:27:28.999Z</time></trkpt><trkpt lat="40.77430072963357" lon="14.761632149891067"><ele>154.0</ele><time>2026-05-02T08:27:29.999Z</time></trkpt><trkpt lat="40.77427639987506" lon="14.762056180446475"><ele>154.5</ele><time>2026-05-02T08:27:30.999Z</time></trkpt><trkpt lat="40.77423660814642" lon="14.76247628459911"><ele>155.0</ele><time>2026-05-02T08:27:31.999Z</time></trkpt><trkpt lat="40.774182843093314" lon="14.762888338537431"><ele>155.5</ele><time>2026-05-02T08:27:32.999Z</time></trkpt><trkpt lat="40.774119456760744" lon="14.763294631513729"><ele>156.0</ele><time>2026-05-02T08:27:33.999Z</time></trkpt><trkpt lat="40.774052958468324" lon="14.763694088705325"><ele>156.0</ele><time>2026-05-02T08:27:34.999Z</time></trkpt><trkpt lat="40.77398363066437" lon="14.76408906294522"><ele>156.0</ele><time>2026-05-02T08:27:35.999Z</time></trkpt><trkpt lat="40.77391081359942" lon="14.764481540508513"><ele>158.0</ele><time>2026-05-02T08:27:36.999Z</time></trkpt><trkpt lat="40.773837922641924" lon="14.764873773392557"><ele>160.0</ele><time>2026-05-02T08:27:37.999Z</time></trkpt><trkpt lat="40.7737668528407" lon="14.765263649688126"><ele>162.0</ele><time>2026-05-02T08:27:38.999Z</time></trkpt><trkpt lat="40.77369856402241" lon="14.765655863867746"><ele>164.0</ele><time>2026-05-02T08:27:39.999Z</time></trkpt><trkpt lat="40.77362981764998" lon="14.766042681051925"><ele>165.0</ele><time>2026-05-02T08:27:40.999Z</time></trkpt><trkpt lat="40.773560961120126" lon="14.766423908408628"><ele>166.0</ele><time>2026-05-02T08:27:41.999Z</time></trkpt><trkpt lat="40.77349816004681" lon="14.766806496939473"><ele>167.0</ele><time>2026-05-02T08:27:42.998Z</time></trkpt><trkpt lat="40.77343955445562" lon="14.767193566761609"><ele>168.0</ele><time>2026-05-02T08:27:43.998Z</time></trkpt><trkpt lat="40.773379907380516" lon="14.767579023897127"><ele>169.5</ele><time>2026-05-02T08:27:44.998Z</time></trkpt><trkpt lat="40.77332194666149" lon="14.767957710064426"><ele>171.0</ele><time>2026-05-02T08:27:45.998Z</time></trkpt><trkpt lat="40.77326747615229" lon="14.76834143486965"><ele>173.0</ele><time>2026-05-02T08:27:46.998Z</time></trkpt><trkpt lat="40.77321310013777" lon="14.76873310769502"><ele>175.0</ele><time>2026-05-02T08:27:47.998Z</time></trkpt><trkpt lat="40.77315915322097" lon="14.76913572946349"><ele>178.0</ele><time>2026-05-02T08:27:48.998Z</time></trkpt><trkpt lat="40.77310537123341" lon="14.769545580353473"><ele>181.0</ele><time>2026-05-02T08:27:49.998Z</time></trkpt><trkpt lat="40.77305350825426" lon="14.769965149774883"><ele>182.0</ele><time>2026-05-02T08:27:50.998Z</time></trkpt><trkpt lat="40.7730042926125" lon="14.770387436568987"><ele>183.0</ele><time>2026-05-02T08:27:51.998Z</time></trkpt><trkpt lat="40.772956454913675" lon="14.77081119976828"><ele>184.0</ele><time>2026-05-02T08:27:52.998Z</time></trkpt><trkpt lat="40.772909190812186" lon="14.77123437233265"><ele>185.0</ele><time>2026-05-02T08:27:53.998Z</time></trkpt><trkpt lat="40.77286254204416" lon="14.771657106169148"><ele>186.5</ele><time>2026-05-02T08:27:54.998Z</time></trkpt><trkpt lat="40.77281692801167" lon="14.772079965039566"><ele>188.0</ele><time>2026-05-02T08:27:55.998Z</time></trkpt><trkpt lat="40.7727717197138" lon="14.772501481262127"><ele>188.0</ele><time>2026-05-02T08:27:56.998Z</time></trkpt><trkpt lat="40.77272584656879" lon="14.772923634330414"><ele>188.0</ele><time>2026-05-02T08:27:57.998Z</time></trkpt><trkpt lat="40.77267788672286" lon="14.77334672262242"><ele>190.0</ele><time>2026-05-02T08:27:58.998Z</time></trkpt><trkpt lat="40.77262982302622" lon="14.773766235183578"><ele>192.0</ele><time>2026-05-02T08:27:59.998Z</time></trkpt><trkpt lat="40.772582695966946" lon="14.774191859486232"><ele>193.5</ele><time>2026-05-02T08:28:00.998Z</time></trkpt><trkpt lat="40.77253497024946" lon="14.774619830609556"><ele>195.0</ele><time>2026-05-02T08:28:01.998Z</time></trkpt><trkpt lat="40.77248711309376" lon="14.775049106033228"><ele>196.5</ele><time>2026-05-02T08:28:02.998Z</time></trkpt><trkpt lat="40.77243796199151" lon="14.7754781833855"><ele>198.0</ele><time>2026-05-02T08:28:03.998Z</time></trkpt><trkpt lat="40.77238811799432" lon="14.7759076914839"><ele>200.5</ele><time>2026-05-02T08:28:04.998Z</time></trkpt><trkpt lat="40.77233727633507" lon="14.77633482169589"><ele>203.0</ele><time>2026-05-02T08:28:06Z</time></trkpt><trkpt lat="40.77228883381561" lon="14.77676128440263"><ele>204.5</ele><time>2026-05-02T08:28:07Z</time></trkpt><trkpt lat="40.77224203968481" lon="14.777185607042725"><ele>206.0</ele><time>2026-05-02T08:28:08Z</time></trkpt><trkpt lat="40.77219559824209" lon="14.777611039868756"><ele>207.0</ele><time>2026-05-02T08:28:09Z</time></trkpt><trkpt lat="40.772149236780045" lon="14.77803628354124"><ele>208.0</ele><time>2026-05-02T08:28:10Z</time></trkpt><trkpt lat="40.77210346151182" lon="14.778464048699014"><ele>210.0</ele><time>2026-05-02T08:28:11Z</time></trkpt><trkpt lat="40.772056226232884" lon="14.778893591860584"><ele>212.0</ele><time>2026-05-02T08:28:12Z</time></trkpt><trkpt lat="40.77200872678805" lon="14.779320257465121"><ele>214.5</ele><time>2026-05-02T08:28:13Z</time></trkpt><trkpt lat="40.7719620748886" lon="14.779749068844012"><ele>217.0</ele><time>2026-05-02T08:28:13.999Z</time></trkpt><trkpt lat="40.77191542338373" lon="14.780176822878266"><ele>218.5</ele><time>2026-05-02T08:28:15Z</time></trkpt><trkpt lat="40.77186943991334" lon="14.780608051105789"><ele>220.0</ele><time>2026-05-02T08:28:16Z</time></trkpt><trkpt lat="40.77182337924999" lon="14.781042021207227"><ele>221.0</ele><time>2026-05-02T08:28:17Z</time></trkpt><trkpt lat="40.77177533976918" lon="14.781475452883642"><ele>222.0</ele><time>2026-05-02T08:28:18Z</time></trkpt><trkpt lat="40.77172391861853" lon="14.781907202664714"><ele>224.0</ele><time>2026-05-02T08:28:19Z</time></trkpt><trkpt lat="40.77166589550182" lon="14.782333362811997"><ele>226.0</ele><time>2026-05-02T08:28:20Z</time></trkpt><trkpt lat="40.771600897317995" lon="14.782759039552706"><ele>227.0</ele><time>2026-05-02T08:28:21Z</time></trkpt><trkpt lat="40.771528390984685" lon="14.783180605196346"><ele>228.0</ele><time>2026-05-02T08:28:22Z</time></trkpt><trkpt lat="40.7714260106718" lon="14.783588740166843"><ele>228.0</ele><time>2026-05-02T08:28:23Z</time></trkpt><trkpt lat="40.771315101014075" lon="14.783974693152112"><ele>228.0</ele><time>2026-05-02T08:28:24Z</time></trkpt><trkpt lat="40.77118980150137" lon="14.78435898269958"><ele>229.5</ele><time>2026-05-02T08:28:24.999Z</time></trkpt><trkpt lat="40.771043504531974" lon="14.784735670683892"><ele>231.0</ele><time>2026-05-02T08:28:25.999Z</time></trkpt><trkpt lat="40.77087764234903" lon="14.785103908326471"><ele>233.0</ele><time>2026-05-02T08:28:26.999Z</time></trkpt><trkpt lat="40.77069524262106" lon="14.785458022334552"><ele>235.0</ele><time>2026-05-02T08:28:27.999Z</time></trkpt><trkpt lat="40.7705034267585" lon="14.785786924209361"><ele>235.5</ele><time>2026-05-02T08:28:28.999Z</time></trkpt><trkpt lat="40.77029790666722" lon="14.786091743957973"><ele>236.0</ele><time>2026-05-02T08:28:29.999Z</time></trkpt><trkpt lat="40.77007500999093" lon="14.786391172638336"><ele>236.0</ele><time>2026-05-02T08:28:30.999Z</time></trkpt><trkpt lat="40.76983588501791" lon="14.786677789454131"><ele>236.0</ele><time>2026-05-02T08:28:31.999Z</time></trkpt><trkpt lat="40.7695804702929" lon="14.786945081797995"><ele>236.0</ele><time>2026-05-02T08:28:32.999Z</time></trkpt><trkpt lat="40.7693098351774" lon="14.787195485505205"><ele>236.0</ele><time>2026-05-02T08:28:33.999Z</time></trkpt><trkpt lat="40.76902662628941" lon="14.787427498519612"><ele>236.0</ele><time>2026-05-02T08:28:34.999Z</time></trkpt><trkpt lat="40.768730075395624" lon="14.7876369493321"><ele>236.0</ele><time>2026-05-02T08:28:35.999Z</time></trkpt><trkpt lat="40.768423518923875" lon="14.78781750968045"><ele>236.0</ele><time>2026-05-02T08:28:36.999Z</time></trkpt><trkpt lat="40.76810803433934" lon="14.787974536818695"><ele>236.0</ele><time>2026-05-02T08:28:37.999Z</time></trkpt><trkpt lat="40.767784292121085" lon="14.788112302776073"><ele>235.5</ele><time>2026-05-02T08:28:38.999Z</time></trkpt><trkpt lat="40.767454771188554" lon="14.78823437564575"><ele>235.0</ele><time>2026-05-02T08:28:39.999Z</time></trkpt><trkpt lat="40.76712469232752" lon="14.788340585838647"><ele>235.0</ele><time>2026-05-02T08:28:40.999Z</time></trkpt><trkpt lat="40.76679857058454" lon="14.788434738708242"><ele>235.0</ele><time>2026-05-02T08:28:41.999Z</time></trkpt><trkpt lat="40.7664727556455" lon="14.788519138253882"><ele>235.0</ele><time>2026-05-02T08:28:42.999Z</time></trkpt><trkpt lat="40.766142968198984" lon="14.788595517507467"><ele>235.0</ele><time>2026-05-02T08:28:43.999Z</time></trkpt><trkpt lat="40.76581858600977" lon="14.788663442230286"><ele>235.0</ele><time>2026-05-02T08:28:44.999Z</time></trkpt><trkpt lat="40.76549907955722" lon="14.7887193823008"><ele>235.0</ele><time>2026-05-02T08:28:45.999Z</time></trkpt><trkpt lat="40.765188382331026" lon="14.788765508583067"><ele>233.5</ele><time>2026-05-02T08:28:46.999Z</time></trkpt><trkpt lat="40.76488549115318" lon="14.788795756970918"><ele>232.0</ele><time>2026-05-02T08:28:47.999Z</time></trkpt><trkpt lat="40.764581466673775" lon="14.788816152441962"><ele>232.5</ele><time>2026-05-02T08:28:48.999Z</time></trkpt><trkpt lat="40.76427267626778" lon="14.788831318254408"><ele>233.0</ele><time>2026-05-02T08:28:49.999Z</time></trkpt><trkpt lat="40.76395987043212" lon="14.788838359271523"><ele>233.0</ele><time>2026-05-02T08:28:50.999Z</time></trkpt><trkpt lat="40.76364403329864" lon="14.788834946541217"><ele>233.0</ele><time>2026-05-02T08:28:51.999Z</time></trkpt><trkpt lat="40.76332785279311" lon="14.788818125453037"><ele>235.0</ele><time>2026-05-02T08:28:52.999Z</time></trkpt><trkpt lat="40.76301609726016" lon="14.788791572601342"><ele>237.0</ele><time>2026-05-02T08:28:53.999Z</time></trkpt><trkpt lat="40.76270075186908" lon="14.788761213829304"><ele>237.5</ele><time>2026-05-02T08:28:54.999Z</time></trkpt><trkpt lat="40.76238743847546" lon="14.788723907867071"><ele>238.0</ele><time>2026-05-02T08:28:55.999Z</time></trkpt><trkpt lat="40.762070864445086" lon="14.788675606959915"><ele>239.0</ele><time>2026-05-02T08:28:56.999Z</time></trkpt><trkpt lat="40.76175546140901" lon="14.788618631033497"><ele>240.0</ele><time>2026-05-02T08:28:57.999Z</time></trkpt><trkpt lat="40.76143506402023" lon="14.78855703534319"><ele>239.0</ele><time>2026-05-02T08:28:58.999Z</time></trkpt><trkpt lat="40.761116922626016" lon="14.788495094693776"><ele>238.0</ele><time>2026-05-02T08:28:59.999Z</time></trkpt><trkpt lat="40.76080727923523" lon="14.788434824949045"><ele>238.0</ele><time>2026-05-02T08:29:00.999Z</time></trkpt><trkpt lat="40.76050131153887" lon="14.788374336381736"><ele>238.0</ele><time>2026-05-02T08:29:01.999Z</time></trkpt><trkpt lat="40.76020407574827" lon="14.788315218441436"><ele>238.5</ele><time>2026-05-02T08:29:02.999Z</time></trkpt><trkpt lat="40.75991446739677" lon="14.788256417445705"><ele>239.0</ele><time>2026-05-02T08:29:03.999Z</time></trkpt><trkpt lat="40.75963127208886" lon="14.788200180570188"><ele>240.5</ele><time>2026-05-02T08:29:04.999Z</time></trkpt><trkpt lat="40.759352220506564" lon="14.788145670590076"><ele>242.0</ele><time>2026-05-02T08:29:05.999Z</time></trkpt><trkpt lat="40.75907898766403" lon="14.788093085825004"><ele>242.0</ele><time>2026-05-02T08:29:06.999Z</time></trkpt><trkpt lat="40.75880608781244" lon="14.788039834322312"><ele>242.0</ele><time>2026-05-02T08:29:07.999Z</time></trkpt><trkpt lat="40.758534770437514" lon="14.787986497664804"><ele>242.5</ele><time>2026-05-02T08:29:08.999Z</time></trkpt><trkpt lat="40.75826162357802" lon="14.787931197846623"><ele>243.0</ele><time>2026-05-02T08:29:09.999Z</time></trkpt><trkpt lat="40.75798654374039" lon="14.787875242753085"><ele>243.0</ele><time>2026-05-02T08:29:10.999Z</time></trkpt><trkpt lat="40.757711317038236" lon="14.78781764970094"><ele>243.0</ele><time>2026-05-02T08:29:11.999Z</time></trkpt><trkpt lat="40.7574351104352" lon="14.787761119427781"><ele>241.5</ele><time>2026-05-02T08:29:12.999Z</time></trkpt><trkpt lat="40.75715935168379" lon="14.787706674644472"><ele>240.0</ele><time>2026-05-02T08:29:13.999Z</time></trkpt><trkpt lat="40.75688307370608" lon="14.787651670680072"><ele>238.0</ele><time>2026-05-02T08:29:14.999Z</time></trkpt><trkpt lat="40.75660719835964" lon="14.787596849067148"><ele>236.0</ele><time>2026-05-02T08:29:15.999Z</time></trkpt><trkpt lat="40.75632934327836" lon="14.787542420397381"><ele>236.0</ele><time>2026-05-02T08:29:16.999Z</time></trkpt><trkpt lat="40.75604849981333" lon="14.787485113027179"><ele>236.0</ele><time>2026-05-02T08:29:17.999Z</time></trkpt><trkpt lat="40.75576703813256" lon="14.787429880848377"><ele>235.5</ele><time>2026-05-02T08:29:18.999Z</time></trkpt><trkpt lat="40.75548394631493" lon="14.787375126713787"><ele>235.0</ele><time>2026-05-02T08:29:19.999Z</time></trkpt><trkpt lat="40.75519975941865" lon="14.787318923994809"><ele>233.0</ele><time>2026-05-02T08:29:20.999Z</time></trkpt><trkpt lat="40.75492821603739" lon="14.787266001682328"><ele>231.0</ele><time>2026-05-02T08:29:21.999Z</time></trkpt><trkpt lat="40.754696329416916" lon="14.787218833712231"><ele>231.0</ele><time>2026-05-02T08:29:22.999Z</time></trkpt><trkpt lat="40.75448282202579" lon="14.787175829719063"><ele>231.0</ele><time>2026-05-02T08:29:23.999Z</time></trkpt><trkpt lat="40.75428340882745" lon="14.787135077709596"><ele>231.0</ele><time>2026-05-02T08:29:24.999Z</time></trkpt><trkpt lat="40.754077864625934" lon="14.787094246124543"><ele>229.66666666666669</ele><time>2026-05-02T08:29:25.999Z</time></trkpt><trkpt lat="40.75387143735137" lon="14.787052173335628"><ele>228.33333333333334</ele><time>2026-05-02T08:29:26.999Z</time></trkpt><trkpt lat="40.753660834576074" lon="14.787011312825717"><ele>227.0</ele><time>2026-05-02T08:29:27.999Z</time></trkpt><trkpt lat="40.75344677032613" lon="14.78696966871829"><ele>226.33333333333334</ele><time>2026-05-02T08:29:28.999Z</time></trkpt><trkpt lat="40.75322839346461" lon="14.786925312024996"><ele>225.66666666666669</ele><time>2026-05-02T08:29:29.999Z</time></trkpt><trkpt lat="40.75301052834012" lon="14.78688092817664"><ele>225.0</ele><time>2026-05-02T08:29:30.999Z</time></trkpt><trkpt lat="40.752790966799445" lon="14.786838694817076"><ele>223.5</ele><time>2026-05-02T08:29:31.999Z</time></trkpt><trkpt lat="40.75256832264313" lon="14.786794510874566"><ele>222.0</ele><time>2026-05-02T08:29:32.999Z</time></trkpt><trkpt lat="40.75233987546501" lon="14.786749263986879"><ele>222.0</ele><time>2026-05-02T08:29:33.999Z</time></trkpt><trkpt lat="40.75210856895855" lon="14.78670119255783"><ele>222.0</ele><time>2026-05-02T08:29:34.999Z</time></trkpt><trkpt lat="40.75186991236379" lon="14.786651073659437"><ele>222.5</ele><time>2026-05-02T08:29:35.999Z</time></trkpt><trkpt lat="40.75162799830468" lon="14.786601885921886"><ele>223.0</ele><time>2026-05-02T08:29:36.999Z</time></trkpt><trkpt lat="40.751385982532746" lon="14.786549814365125"><ele>223.0</ele><time>2026-05-02T08:29:37.999Z</time></trkpt><trkpt lat="40.75114084346548" lon="14.78649737366765"><ele>223.0</ele><time>2026-05-02T08:29:38.999Z</time></trkpt><trkpt lat="40.75089730291151" lon="14.786446357100267"><ele>223.5</ele><time>2026-05-02T08:29:39.999Z</time></trkpt><trkpt lat="40.750649943872816" lon="14.786395302911881"><ele>224.0</ele><time>2026-05-02T08:29:40.999Z</time></trkpt><trkpt lat="40.75039928732311" lon="14.786344085126226"><ele>223.5</ele><time>2026-05-02T08:29:41.999Z</time></trkpt><trkpt lat="40.75014359116407" lon="14.786292592217047"><ele>223.0</ele><time>2026-05-02T08:29:42.999Z</time></trkpt><trkpt lat="40.74988473993857" lon="14.786239993734512"><ele>223.0</ele><time>2026-05-02T08:29:43.999Z</time></trkpt><trkpt lat="40.74962516178673" lon="14.786189873962163"><ele>223.0</ele><time>2026-05-02T08:29:44.999Z</time></trkpt><trkpt lat="40.749365441751294" lon="14.786138988960348"><ele>223.5</ele><time>2026-05-02T08:29:45.998Z</time></trkpt><trkpt lat="40.74909982661526" lon="14.786086134029052"><ele>224.0</ele><time>2026-05-02T08:29:46.998Z</time></trkpt><trkpt lat="40.74883006329716" lon="14.786031845096943"><ele>223.5</ele><time>2026-05-02T08:29:47.998Z</time></trkpt><trkpt lat="40.748558680479675" lon="14.78597660278126"><ele>223.0</ele><time>2026-05-02T08:29:48.998Z</time></trkpt><trkpt lat="40.74829183926785" lon="14.785921841709879"><ele>223.0</ele><time>2026-05-02T08:29:49.998Z</time></trkpt><trkpt lat="40.74801970631033" lon="14.785866597843645"><ele>223.0</ele><time>2026-05-02T08:29:50.998Z</time></trkpt><trkpt lat="40.74773907015404" lon="14.785808625275331"><ele>224.5</ele><time>2026-05-02T08:29:51.998Z</time></trkpt><trkpt lat="40.747456551509714" lon="14.785748231900548"><ele>226.0</ele><time>2026-05-02T08:29:52.998Z</time></trkpt><trkpt lat="40.74717310388691" lon="14.7856843459398"><ele>226.0</ele><time>2026-05-02T08:29:53.998Z</time></trkpt><trkpt lat="40.74688686797609" lon="14.785613591949106"><ele>226.0</ele><time>2026-05-02T08:29:54.998Z</time></trkpt><trkpt lat="40.746597862601796" lon="14.785535770810162"><ele>226.5</ele><time>2026-05-02T08:29:55.998Z</time></trkpt><trkpt lat="40.746306147901386" lon="14.785452886786073"><ele>227.0</ele><time>2026-05-02T08:29:56.998Z</time></trkpt><trkpt lat="40.746013197966846" lon="14.78536276141038"><ele>227.0</ele><time>2026-05-02T08:29:57.998Z</time></trkpt><trkpt lat="40.74572056659138" lon="14.78526305636111"><ele>227.0</ele><time>2026-05-02T08:29:58.998Z</time></trkpt><trkpt lat="40.74542348276297" lon="14.785152269715859"><ele>223.5</ele><time>2026-05-02T08:29:59.998Z</time></trkpt><trkpt lat="40.74512544922794" lon="14.785030928424852"><ele>220.0</ele><time>2026-05-02T08:30:00.998Z</time></trkpt><trkpt lat="40.74482647905335" lon="14.784899951174493"><ele>220.0</ele><time>2026-05-02T08:30:01.998Z</time></trkpt><trkpt lat="40.744530339683216" lon="14.784759387505806"><ele>220.0</ele><time>2026-05-02T08:30:02.998Z</time></trkpt><trkpt lat="40.74423517117449" lon="14.784608970259653"><ele>219.5</ele><time>2026-05-02T08:30:03.998Z</time></trkpt><trkpt lat="40.74394150642084" lon="14.784448437082965"><ele>219.0</ele><time>2026-05-02T08:30:04.998Z</time></trkpt><trkpt lat="40.74364998200562" lon="14.784277983190657"><ele>219.0</ele><time>2026-05-02T08:30:05.998Z</time></trkpt><trkpt lat="40.74336394874381" lon="14.784108377827858"><ele>219.0</ele><time>2026-05-02T08:30:06.998Z</time></trkpt><trkpt lat="40.743077777792074" lon="14.783926757578005"><ele>219.0</ele><time>2026-05-02T08:30:07.998Z</time></trkpt><trkpt lat="40.742792827836354" lon="14.783738602865666"><ele>219.0</ele><time>2026-05-02T08:30:08.998Z</time></trkpt><trkpt lat="40.74250906958758" lon="14.78353680779876"><ele>220.5</ele><time>2026-05-02T08:30:09.998Z</time></trkpt><trkpt lat="40.742231278803864" lon="14.7833234808026"><ele>222.0</ele><time>2026-05-02T08:30:10.998Z</time></trkpt><trkpt lat="40.74195475768186" lon="14.783102885482426"><ele>221.5</ele><time>2026-05-02T08:30:12Z</time></trkpt><trkpt lat="40.7416835788107" lon="14.782874121598823"><ele>221.0</ele><time>2026-05-02T08:30:13Z</time></trkpt><trkpt lat="40.7414155994134" lon="14.782630604328139"><ele>218.5</ele><time>2026-05-02T08:30:14Z</time></trkpt><trkpt lat="40.7411469340364" lon="14.782375541209763"><ele>216.0</ele><time>2026-05-02T08:30:15Z</time></trkpt><trkpt lat="40.74088047053192" lon="14.782109383648388"><ele>213.0</ele><time>2026-05-02T08:30:16Z</time></trkpt><trkpt lat="40.74061926667668" lon="14.781830446572974"><ele>210.0</ele><time>2026-05-02T08:30:17Z</time></trkpt><trkpt lat="40.74036088255983" lon="14.7815399267285"><ele>211.0</ele><time>2026-05-02T08:30:18Z</time></trkpt><trkpt lat="40.740107849426174" lon="14.781245127038204"><ele>212.0</ele><time>2026-05-02T08:30:19Z</time></trkpt><trkpt lat="40.73985676740602" lon="14.78095284057175"><ele>210.0</ele><time>2026-05-02T08:30:20Z</time></trkpt><trkpt lat="40.739607427790574" lon="14.780662098750561"><ele>208.0</ele><time>2026-05-02T08:30:21Z</time></trkpt><trkpt lat="40.73935520369648" lon="14.780374371076535"><ele>203.0</ele><time>2026-05-02T08:30:22Z</time></trkpt><trkpt lat="40.73910007488678" lon="14.780085983846865"><ele>198.0</ele><time>2026-05-02T08:30:23Z</time></trkpt><trkpt lat="40.73884373609184" lon="14.779796361026115"><ele>198.0</ele><time>2026-05-02T08:30:24Z</time></trkpt><trkpt lat="40.73858898093865" lon="14.779508790104588"><ele>198.0</ele><time>2026-05-02T08:30:25Z</time></trkpt><trkpt lat="40.738334753301636" lon="14.779225766445887"><ele>195.0</ele><time>2026-05-02T08:30:26Z</time></trkpt><trkpt lat="40.73808090303407" lon="14.778945432404333"><ele>192.0</ele><time>2026-05-02T08:30:27Z</time></trkpt><trkpt lat="40.73782638804265" lon="14.778664430547305"><ele>189.5</ele><time>2026-05-02T08:30:28Z</time></trkpt><trkpt lat="40.737569809714586" lon="14.778381681206994"><ele>187.0</ele><time>2026-05-02T08:30:29Z</time></trkpt><trkpt lat="40.737311435650476" lon="14.778102523136017"><ele>187.0</ele><time>2026-05-02T08:30:30Z</time></trkpt><trkpt lat="40.73704886769637" lon="14.777831935270232"><ele>187.0</ele><time>2026-05-02T08:30:31Z</time></trkpt><trkpt lat="40.7367851159648" lon="14.777572662046516"><ele>184.0</ele><time>2026-05-02T08:30:32Z</time></trkpt><trkpt lat="40.73651864916087" lon="14.777322605460528"><ele>181.0</ele><time>2026-05-02T08:30:33Z</time></trkpt><trkpt lat="40.73624701529266" lon="14.777083795484806"><ele>180.5</ele><time>2026-05-02T08:30:34Z</time></trkpt><trkpt lat="40.73597097403574" lon="14.776862319888263"><ele>180.0</ele><time>2026-05-02T08:30:35Z</time></trkpt><trkpt lat="40.735691163134675" lon="14.776655872272766"><ele>178.0</ele><time>2026-05-02T08:30:35.999Z</time></trkpt><trkpt lat="40.735407317148635" lon="14.776468498272154"><ele>176.0</ele><time>2026-05-02T08:30:36.999Z</time></trkpt><trkpt lat="40.73511933340146" lon="14.776296539212193"><ele>176.0</ele><time>2026-05-02T08:30:37.999Z</time></trkpt><trkpt lat="40.734824319843064" lon="14.776133749694045"><ele>176.0</ele><time>2026-05-02T08:30:38.999Z</time></trkpt><trkpt lat="40.734526105442626" lon="14.775980676348595"><ele>173.5</ele><time>2026-05-02T08:30:39.999Z</time></trkpt><trkpt lat="40.734221820245956" lon="14.775843901465981"><ele>171.0</ele><time>2026-05-02T08:30:40.999Z</time></trkpt><trkpt lat="40.733910108766096" lon="14.775725039434398"><ele>171.0</ele><time>2026-05-02T08:30:41.999Z</time></trkpt><trkpt lat="40.733596613988006" lon="14.77562107929512"><ele>171.0</ele><time>2026-05-02T08:30:42.999Z</time></trkpt><trkpt lat="40.7332781712055" lon="14.775531009562872"><ele>171.5</ele><time>2026-05-02T08:30:43.999Z</time></trkpt><trkpt lat="40.732954586359405" lon="14.775453057226652"><ele>172.0</ele><time>2026-05-02T08:30:44.999Z</time></trkpt><trkpt lat="40.73263194597355" lon="14.77539207043959"><ele>170.0</ele><time>2026-05-02T08:30:45.999Z</time></trkpt><trkpt lat="40.73231028838113" lon="14.77534831284217"><ele>168.0</ele><time>2026-05-02T08:30:46.999Z</time></trkpt><trkpt lat="40.73198751041821" lon="14.775320041453845"><ele>168.5</ele><time>2026-05-02T08:30:47.999Z</time></trkpt><trkpt lat="40.73166749659501" lon="14.775322906922566"><ele>169.0</ele><time>2026-05-02T08:30:48.999Z</time></trkpt><trkpt lat="40.731343766906114" lon="14.775316914390839"><ele>171.0</ele><time>2026-05-02T08:30:49.999Z</time></trkpt><trkpt lat="40.73101793368741" lon="14.77532065030083"><ele>173.0</ele><time>2026-05-02T08:30:50.999Z</time></trkpt><trkpt lat="40.73069069393303" lon="14.775333687125377"><ele>173.0</ele><time>2026-05-02T08:30:51.999Z</time></trkpt><trkpt lat="40.73036130721986" lon="14.775350874408577"><ele>173.0</ele><time>2026-05-02T08:30:52.999Z</time></trkpt><trkpt lat="40.73003198108209" lon="14.775372822935948"><ele>172.5</ele><time>2026-05-02T08:30:53.999Z</time></trkpt><trkpt lat="40.72970348047753" lon="14.775395096013353"><ele>172.0</ele><time>2026-05-02T08:30:54.999Z</time></trkpt><trkpt lat="40.72937724938125" lon="14.77541828472159"><ele>169.5</ele><time>2026-05-02T08:30:55.999Z</time></trkpt><trkpt lat="40.72905408206152" lon="14.775441186260334"><ele>167.0</ele><time>2026-05-02T08:30:56.999Z</time></trkpt><trkpt lat="40.7287327525273" lon="14.775465239051206"><ele>165.0</ele><time>2026-05-02T08:30:57.999Z</time></trkpt><trkpt lat="40.72841450350476" lon="14.775489193102352"><ele>163.0</ele><time>2026-05-02T08:30:58.999Z</time></trkpt><trkpt lat="40.72809861077632" lon="14.775511835591752"><ele>163.0</ele><time>2026-05-02T08:30:59.999Z</time></trkpt><trkpt lat="40.72778183908902" lon="14.775534873424949"><ele>163.0</ele><time>2026-05-02T08:31:00.999Z</time></trkpt><trkpt lat="40.72746212649292" lon="14.775556435745683"><ele>162.0</ele><time>2026-05-02T08:31:01.999Z</time></trkpt><trkpt lat="40.727144623337516" lon="14.775579444891415"><ele>161.0</ele><time>2026-05-02T08:31:02.999Z</time></trkpt><trkpt lat="40.726826415474676" lon="14.775601492229628"><ele>159.0</ele><time>2026-05-02T08:31:03.999Z</time></trkpt><trkpt lat="40.72650716924692" lon="14.775624476701706"><ele>157.0</ele><time>2026-05-02T08:31:04.999Z</time></trkpt><trkpt lat="40.72618794140046" lon="14.775648334346036"><ele>156.0</ele><time>2026-05-02T08:31:05.999Z</time></trkpt><trkpt lat="40.72587146981617" lon="14.775671120882446"><ele>155.0</ele><time>2026-05-02T08:31:06.999Z</time></trkpt><trkpt lat="40.72555760427976" lon="14.775693726408136"><ele>155.0</ele><time>2026-05-02T08:31:07.999Z</time></trkpt><trkpt lat="40.72524764882286" lon="14.77571393981567"><ele>155.0</ele><time>2026-05-02T08:31:08.999Z</time></trkpt><trkpt lat="40.72494119630222" lon="14.775740336273174"><ele>152.0</ele><time>2026-05-02T08:31:09.999Z</time></trkpt><trkpt lat="40.724641026738986" lon="14.775777298187679"><ele>149.0</ele><time>2026-05-02T08:31:10.999Z</time></trkpt><trkpt lat="40.72434807622024" lon="14.775828312746993"><ele>146.5</ele><time>2026-05-02T08:31:11.999Z</time></trkpt><trkpt lat="40.72407201495471" lon="14.775904497218008"><ele>144.0</ele><time>2026-05-02T08:31:12.999Z</time></trkpt><trkpt lat="40.72380281430432" lon="14.776004932596965"><ele>153.0</ele><time>2026-05-02T08:31:13.999Z</time></trkpt><trkpt lat="40.723544000555485" lon="14.776120917481668"><ele>162.0</ele><time>2026-05-02T08:31:14.999Z</time></trkpt><trkpt lat="40.723293167580486" lon="14.776250058848133"><ele>162.0</ele><time>2026-05-02T08:31:15.999Z</time></trkpt><trkpt lat="40.72304993115209" lon="14.776390840273713"><ele>162.0</ele><time>2026-05-02T08:31:16.999Z</time></trkpt><trkpt lat="40.72281031983176" lon="14.776537376117075"><ele>162.5</ele><time>2026-05-02T08:31:17.999Z</time></trkpt><trkpt lat="40.72256787562889" lon="14.776687948436"><ele>163.0</ele><time>2026-05-02T08:31:18.999Z</time></trkpt><trkpt lat="40.722324602042235" lon="14.776843208658539"><ele>169.0</ele><time>2026-05-02T08:31:19.999Z</time></trkpt><trkpt lat="40.722079605167956" lon="14.777002143019054"><ele>175.0</ele><time>2026-05-02T08:31:20.999Z</time></trkpt><trkpt lat="40.72183056841635" lon="14.777165316142309"><ele>161.0</ele><time>2026-05-02T08:31:21.999Z</time></trkpt><trkpt lat="40.72158211662488" lon="14.777330960383965"><ele>147.0</ele><time>2026-05-02T08:31:22.999Z</time></trkpt><trkpt lat="40.721338692178215" lon="14.777491194300467"><ele>147.0</ele><time>2026-05-02T08:31:23.999Z</time></trkpt><trkpt lat="40.72107417752683" lon="14.77759352339229"><ele>147.0</ele><time>2026-05-02T08:31:24.999Z</time></trkpt><trkpt lat="40.72081258333351" lon="14.777729121022576"><ele>145.0</ele><time>2026-05-02T08:31:25.999Z</time></trkpt><trkpt lat="40.720542273531954" lon="14.777832500207497"><ele>143.0</ele><time>2026-05-02T08:31:26.999Z</time></trkpt><trkpt lat="40.72025866844749" lon="14.777903603879032"><ele>142.0</ele><time>2026-05-02T08:31:27.999Z</time></trkpt><trkpt lat="40.71997290631438" lon="14.77796315588483"><ele>141.0</ele><time>2026-05-02T08:31:28.999Z</time></trkpt><trkpt lat="40.71968073828387" lon="14.778012827269462"><ele>139.0</ele><time>2026-05-02T08:31:29.999Z</time></trkpt><trkpt lat="40.719391304017705" lon="14.778065340111999"><ele>137.0</ele><time>2026-05-02T08:31:30.999Z</time></trkpt><trkpt lat="40.71910038040116" lon="14.778121103737039"><ele>137.0</ele><time>2026-05-02T08:31:31.999Z</time></trkpt><trkpt lat="40.71880441375576" lon="14.778176014645886"><ele>137.0</ele><time>2026-05-02T08:31:32.999Z</time></trkpt><trkpt lat="40.718502389277816" lon="14.778230843918124"><ele>138.0</ele><time>2026-05-02T08:31:33.999Z</time></trkpt><trkpt lat="40.71819548786809" lon="14.778284893546765"><ele>139.0</ele><time>2026-05-02T08:31:34.999Z</time></trkpt><trkpt lat="40.71788457961138" lon="14.778334395601108"><ele>138.5</ele><time>2026-05-02T08:31:35.999Z</time></trkpt><trkpt lat="40.71757119643839" lon="14.778375816764962"><ele>138.0</ele><time>2026-05-02T08:31:36.999Z</time></trkpt><trkpt lat="40.71725517017107" lon="14.778414075544648"><ele>138.0</ele><time>2026-05-02T08:31:37.999Z</time></trkpt><trkpt lat="40.7169368877785" lon="14.778451886673256"><ele>138.0</ele><time>2026-05-02T08:31:38.999Z</time></trkpt><trkpt lat="40.71661925305282" lon="14.778498843942579"><ele>139.0</ele><time>2026-05-02T08:31:39.999Z</time></trkpt><trkpt lat="40.71630508621421" lon="14.778554474128198"><ele>140.0</ele><time>2026-05-02T08:31:40.999Z</time></trkpt><trkpt lat="40.715989808794994" lon="14.778613894468979"><ele>140.0</ele><time>2026-05-02T08:31:41.999Z</time></trkpt><trkpt lat="40.7156736433295" lon="14.778673699927785"><ele>140.0</ele><time>2026-05-02T08:31:42.999Z</time></trkpt><trkpt lat="40.715356623386526" lon="14.778731807572509"><ele>134.5</ele><time>2026-05-02T08:31:43.999Z</time></trkpt><trkpt lat="40.715038309354895" lon="14.778788422865958"><ele>129.0</ele><time>2026-05-02T08:31:44.999Z</time></trkpt><trkpt lat="40.7147234151654" lon="14.778842464092982"><ele>129.0</ele><time>2026-05-02T08:31:45.999Z</time></trkpt><trkpt lat="40.71440794550094" lon="14.778899300631345"><ele>129.0</ele><time>2026-05-02T08:31:46.999Z</time></trkpt><trkpt lat="40.71409016432431" lon="14.778958048593026"><ele>124.0</ele><time>2026-05-02T08:31:47.999Z</time></trkpt><trkpt lat="40.713774148942555" lon="14.779015682747987"><ele>119.0</ele><time>2026-05-02T08:31:48.999Z</time></trkpt><trkpt lat="40.71345547576495" lon="14.779074825449523"><ele>119.0</ele><time>2026-05-02T08:31:49.999Z</time></trkpt><trkpt lat="40.71313515040167" lon="14.779137194602457"><ele>119.0</ele><time>2026-05-02T08:31:50.998Z</time></trkpt><trkpt lat="40.71281808318328" lon="14.779209986853587"><ele>120.5</ele><time>2026-05-02T08:31:51.998Z</time></trkpt><trkpt lat="40.7125042515082" lon="14.779299936542335"><ele>122.0</ele><time>2026-05-02T08:31:52.998Z</time></trkpt><trkpt lat="40.71219438404882" lon="14.779408525320775"><ele>118.0</ele><time>2026-05-02T08:31:53.998Z</time></trkpt><trkpt lat="40.711892978908566" lon="14.779535759865963"><ele>114.0</ele><time>2026-05-02T08:31:54.998Z</time></trkpt><trkpt lat="40.711592893077835" lon="14.779670900087604"><ele>114.0</ele><time>2026-05-02T08:31:55.998Z</time></trkpt><trkpt lat="40.71129735271956" lon="14.779805126697115"><ele>114.0</ele><time>2026-05-02T08:31:56.998Z</time></trkpt><trkpt lat="40.711004679239" lon="14.77993622599874"><ele>112.5</ele><time>2026-05-02T08:31:57.998Z</time></trkpt><trkpt lat="40.71071496208724" lon="14.780049463400017"><ele>111.0</ele><time>2026-05-02T08:31:58.998Z</time></trkpt><trkpt lat="40.71042254276526" lon="14.780133295722845"><ele>117.0</ele><time>2026-05-02T08:31:59.998Z</time></trkpt><trkpt lat="40.710129200619086" lon="14.780192993833209"><ele>123.0</ele><time>2026-05-02T08:32:00.998Z</time></trkpt><trkpt lat="40.70983256186106" lon="14.780229161022291"><ele>123.0</ele><time>2026-05-02T08:32:01.998Z</time></trkpt><trkpt lat="40.70953054595157" lon="14.780234551215496"><ele>123.0</ele><time>2026-05-02T08:32:02.998Z</time></trkpt><trkpt lat="40.70922695686784" lon="14.780213753921077"><ele>111.0</ele><time>2026-05-02T08:32:03.998Z</time></trkpt><trkpt lat="40.70892973802699" lon="14.78017229898286"><ele>99.0</ele><time>2026-05-02T08:32:04.998Z</time></trkpt><trkpt lat="40.70863659070818" lon="14.780100457776514"><ele>101.5</ele><time>2026-05-02T08:32:05.998Z</time></trkpt><trkpt lat="40.7083414138939" lon="14.779995162172382"><ele>104.0</ele><time>2026-05-02T08:32:06.998Z</time></trkpt><trkpt lat="40.70804735741473" lon="14.779856893164673"><ele>104.0</ele><time>2026-05-02T08:32:07.998Z</time></trkpt><trkpt lat="40.70775742247246" lon="14.779695274588684"><ele>104.0</ele><time>2026-05-02T08:32:08.998Z</time></trkpt><trkpt lat="40.707468022474906" lon="14.779525904314907"><ele>104.0</ele><time>2026-05-02T08:32:09.998Z</time></trkpt><trkpt lat="40.707176244456264" lon="14.779357788101642"><ele>104.0</ele><time>2026-05-02T08:32:10.998Z</time></trkpt><trkpt lat="40.70688630575621" lon="14.779189329406057"><ele>98.0</ele><time>2026-05-02T08:32:11.998Z</time></trkpt><trkpt lat="40.70660152329857" lon="14.779023289747002"><ele>92.0</ele><time>2026-05-02T08:32:12.998Z</time></trkpt><trkpt lat="40.70632211855522" lon="14.778865140160228"><ele>91.0</ele><time>2026-05-02T08:32:13.998Z</time></trkpt><trkpt lat="40.706043348555994" lon="14.778718758358432"><ele>90.0</ele><time>2026-05-02T08:32:14.998Z</time></trkpt><trkpt lat="40.70575742169182" lon="14.778593504015284"><ele>88.0</ele><time>2026-05-02T08:32:15.998Z</time></trkpt><trkpt lat="40.70546160385558" lon="14.778490818934442"><ele>86.0</ele><time>2026-05-02T08:32:16.998Z</time></trkpt><trkpt lat="40.705162266569985" lon="14.7784148016179"><ele>85.5</ele><time>2026-05-02T08:32:18Z</time></trkpt><trkpt lat="40.704859639414714" lon="14.778372467676222"><ele>85.0</ele><time>2026-05-02T08:32:19Z</time></trkpt><trkpt lat="40.70455289087516" lon="14.778362309876282"><ele>83.0</ele><time>2026-05-02T08:32:20Z</time></trkpt><trkpt lat="40.704241405534056" lon="14.778379688208771"><ele>81.0</ele><time>2026-05-02T08:32:21Z</time></trkpt><trkpt lat="40.703923672094966" lon="14.778411684976204"><ele>81.0</ele><time>2026-05-02T08:32:22Z</time></trkpt><trkpt lat="40.70360373738229" lon="14.778443863900963"><ele>81.0</ele><time>2026-05-02T08:32:23Z</time></trkpt><trkpt lat="40.70328342722878" lon="14.778473569011927"><ele>79.5</ele><time>2026-05-02T08:32:24Z</time></trkpt><trkpt lat="40.702965710572606" lon="14.77850598327693"><ele>78.0</ele><time>2026-05-02T08:32:25Z</time></trkpt><trkpt lat="40.702642412406725" lon="14.778538238567183"><ele>81.0</ele><time>2026-05-02T08:32:26Z</time></trkpt><trkpt lat="40.7023184009259" lon="14.778572185577728"><ele>84.0</ele><time>2026-05-02T08:32:27Z</time></trkpt><trkpt lat="40.701993120832" lon="14.778605535862425"><ele>81.5</ele><time>2026-05-02T08:32:28Z</time></trkpt><trkpt lat="40.701671083612304" lon="14.778637055228664"><ele>79.0</ele><time>2026-05-02T08:32:29Z</time></trkpt><trkpt lat="40.7013481181349" lon="14.778667369633709"><ele>76.0</ele><time>2026-05-02T08:32:30Z</time></trkpt><trkpt lat="40.70102917209404" lon="14.778698345964866"><ele>73.0</ele><time>2026-05-02T08:32:31Z</time></trkpt><trkpt lat="40.70071437899652" lon="14.778732620205753"><ele>73.0</ele><time>2026-05-02T08:32:32Z</time></trkpt><trkpt lat="40.70039844067828" lon="14.778772024983306"><ele>73.0</ele><time>2026-05-02T08:32:33Z</time></trkpt><trkpt lat="40.700081714213155" lon="14.778816033333635"><ele>70.5</ele><time>2026-05-02T08:32:34Z</time></trkpt><trkpt lat="40.699766628762426" lon="14.778869832143467"><ele>68.0</ele><time>2026-05-02T08:32:35Z</time></trkpt><trkpt lat="40.699455655937236" lon="14.778936857867688"><ele>68.5</ele><time>2026-05-02T08:32:36Z</time></trkpt><trkpt lat="40.699148777679326" lon="14.77902196557665"><ele>69.0</ele><time>2026-05-02T08:32:37Z</time></trkpt><trkpt lat="40.69884887444309" lon="14.779124509264577"><ele>71.5</ele><time>2026-05-02T08:32:37.999Z</time></trkpt><trkpt lat="40.69855542774819" lon="14.77924771404533"><ele>74.0</ele><time>2026-05-02T08:32:38.999Z</time></trkpt><trkpt lat="40.69826958579532" lon="14.779399298808496"><ele>75.5</ele><time>2026-05-02T08:32:39.999Z</time></trkpt><trkpt lat="40.697997449295855" lon="14.779581800526275"><ele>77.0</ele><time>2026-05-02T08:32:40.999Z</time></trkpt><trkpt lat="40.69773797061345" lon="14.779789693978662"><ele>77.0</ele><time>2026-05-02T08:32:41.999Z</time></trkpt><trkpt lat="40.697485038382624" lon="14.780002079089147"><ele>77.0</ele><time>2026-05-02T08:32:42.999Z</time></trkpt><trkpt lat="40.697236165042455" lon="14.78022702280923"><ele>80.5</ele><time>2026-05-02T08:32:43.999Z</time></trkpt><trkpt lat="40.69699539778038" lon="14.780459317410028"><ele>84.0</ele><time>2026-05-02T08:32:44.999Z</time></trkpt><trkpt lat="40.69676437845888" lon="14.780695772883528"><ele>77.0</ele><time>2026-05-02T08:32:45.999Z</time></trkpt><trkpt lat="40.69654608137899" lon="14.780934156729856"><ele>70.0</ele><time>2026-05-02T08:32:46.999Z</time></trkpt><trkpt lat="40.696337518714415" lon="14.781178447209895"><ele>69.5</ele><time>2026-05-02T08:32:47.999Z</time></trkpt><trkpt lat="40.696145915649225" lon="14.781421851498092"><ele>69.0</ele><time>2026-05-02T08:32:48.999Z</time></trkpt><trkpt lat="40.69597182643309" lon="14.781663440480925"><ele>63.5</ele><time>2026-05-02T08:32:49.999Z</time></trkpt><trkpt lat="40.695807330611224" lon="14.781910282209095"><ele>58.0</ele><time>2026-05-02T08:32:50.999Z</time></trkpt><trkpt lat="40.69566079737894" lon="14.782165026948173"><ele>58.0</ele><time>2026-05-02T08:32:51.999Z</time></trkpt><trkpt lat="40.69554712766138" lon="14.782425097227762"><ele>58.0</ele><time>2026-05-02T08:32:52.999Z</time></trkpt><trkpt lat="40.69547726255083" lon="14.782677068005675"><ele>58.0</ele><time>2026-05-02T08:32:53.999Z</time></trkpt><trkpt lat="40.695442791552985" lon="14.782919724471197"><ele>59.33333333333333</ele><time>2026-05-02T08:32:54.999Z</time></trkpt><trkpt lat="40.695433438612326" lon="14.78318605519175"><ele>60.66666666666667</ele><time>2026-05-02T08:32:55.999Z</time></trkpt><trkpt lat="40.69545290352162" lon="14.783475157417397"><ele>62.0</ele><time>2026-05-02T08:32:56.999Z</time></trkpt><trkpt lat="40.69550479177112" lon="14.783775009118632"><ele>62.0</ele><time>2026-05-02T08:32:57.999Z</time></trkpt><trkpt lat="40.69559442050581" lon="14.784059999077474"><ele>62.0</ele><time>2026-05-02T08:32:58.999Z</time></trkpt><trkpt lat="40.69571774673191" lon="14.784332720839576"><ele>62.5</ele><time>2026-05-02T08:32:59.999Z</time></trkpt><trkpt lat="40.69587329881647" lon="14.784592172423718"><ele>63.0</ele><time>2026-05-02T08:33:00.999Z</time></trkpt><trkpt lat="40.69606008128149" lon="14.784824934967514"><ele>67.0</ele><time>2026-05-02T08:33:01.999Z</time></trkpt><trkpt lat="40.69625441471265" lon="14.785050228117449"><ele>71.0</ele><time>2026-05-02T08:33:02.999Z</time></trkpt><trkpt lat="40.696433584758566" lon="14.785283456105113"><ele>72.0</ele><time>2026-05-02T08:33:03.999Z</time></trkpt><trkpt lat="40.69658579835143" lon="14.785544542651113"><ele>73.0</ele><time>2026-05-02T08:33:04.999Z</time></trkpt><trkpt lat="40.696704875539695" lon="14.785846978347722"><ele>74.0</ele><time>2026-05-02T08:33:05.999Z</time></trkpt><trkpt lat="40.696788445176615" lon="14.78615530610841"><ele>75.0</ele><time>2026-05-02T08:33:06.999Z</time></trkpt><trkpt lat="40.69684839995208" lon="14.786474247536484"><ele>75.0</ele><time>2026-05-02T08:33:07.999Z</time></trkpt><trkpt lat="40.696910039968586" lon="14.786809014887359"><ele>75.0</ele><time>2026-05-02T08:33:08.999Z</time></trkpt><trkpt lat="40.696975029750575" lon="14.787152663940768"><ele>80.0</ele><time>2026-05-02T08:33:09.999Z</time></trkpt><trkpt lat="40.69703870057467" lon="14.78750564807992"><ele>85.0</ele><time>2026-05-02T08:33:10.999Z</time></trkpt><trkpt lat="40.697099168933825" lon="14.787869504134179"><ele>87.5</ele><time>2026-05-02T08:33:11.999Z</time></trkpt><trkpt lat="40.69715627281696" lon="14.788243663455031"><ele>90.0</ele><time>2026-05-02T08:33:12.999Z</time></trkpt><trkpt lat="40.697203717016144" lon="14.788627602952136"><ele>93.0</ele><time>2026-05-02T08:33:13.999Z</time></trkpt><trkpt lat="40.69723997636723" lon="14.789016696958276"><ele>96.0</ele><time>2026-05-02T08:33:14.999Z</time></trkpt><trkpt lat="40.69726559889328" lon="14.789416549258533"><ele>96.5</ele><time>2026-05-02T08:33:15.999Z</time></trkpt><trkpt lat="40.6972786295462" lon="14.78982589792562"><ele>97.0</ele><time>2026-05-02T08:33:16.999Z</time></trkpt><trkpt lat="40.697283318844136" lon="14.790246056681097"><ele>99.0</ele><time>2026-05-02T08:33:17.999Z</time></trkpt><trkpt lat="40.697279923845144" lon="14.790670403766486"><ele>101.0</ele><time>2026-05-02T08:33:18.999Z</time></trkpt><trkpt lat="40.69726390376992" lon="14.791103345668757"><ele>103.0</ele><time>2026-05-02T08:33:19.999Z</time></trkpt><trkpt lat="40.69723482458982" lon="14.791539393969673"><ele>105.0</ele><time>2026-05-02T08:33:20.999Z</time></trkpt><trkpt lat="40.69719879500126" lon="14.791979193830759"><ele>107.5</ele><time>2026-05-02T08:33:21.999Z</time></trkpt><trkpt lat="40.6971648578666" lon="14.79240430752738"><ele>110.0</ele><time>2026-05-02T08:33:22.999Z</time></trkpt><trkpt lat="40.69713330511797" lon="14.792830517795007"><ele>112.5</ele><time>2026-05-02T08:33:23.999Z</time></trkpt><trkpt lat="40.69710483177256" lon="14.793260474491875"><ele>115.0</ele><time>2026-05-02T08:33:24.999Z</time></trkpt><trkpt lat="40.69707675925135" lon="14.793690031573364"><ele>115.0</ele><time>2026-05-02T08:33:25.999Z</time></trkpt><trkpt lat="40.697050913526596" lon="14.794124216312131"><ele>115.0</ele><time>2026-05-02T08:33:26.999Z</time></trkpt><trkpt lat="40.697029862499726" lon="14.79455827449781"><ele>114.0</ele><time>2026-05-02T08:33:27.999Z</time></trkpt><trkpt lat="40.697015863320026" lon="14.79499381324701"><ele>113.0</ele><time>2026-05-02T08:33:28.999Z</time></trkpt><trkpt lat="40.697009209579434" lon="14.795427066309278"><ele>112.5</ele><time>2026-05-02T08:33:29.999Z</time></trkpt><trkpt lat="40.697010988949835" lon="14.795858388582959"><ele>112.0</ele><time>2026-05-02T08:33:30.999Z</time></trkpt><trkpt lat="40.69701985129865" lon="14.796288406751573"><ele>112.0</ele><time>2026-05-02T08:33:31.999Z</time></trkpt><trkpt lat="40.697034962117485" lon="14.796723133850119"><ele>112.0</ele><time>2026-05-02T08:33:32.999Z</time></trkpt><trkpt lat="40.6970606978734" lon="14.797157286683765"><ele>114.0</ele><time>2026-05-02T08:33:33.999Z</time></trkpt><trkpt lat="40.6970946203348" lon="14.797589634537132"><ele>116.0</ele><time>2026-05-02T08:33:34.999Z</time></trkpt><trkpt lat="40.697136691048925" lon="14.798021144148604"><ele>118.0</ele><time>2026-05-02T08:33:35.999Z</time></trkpt><trkpt lat="40.69718667415126" lon="14.798452464533367"><ele>120.0</ele><time>2026-05-02T08:33:36.999Z</time></trkpt><trkpt lat="40.69724332868184" lon="14.798880637051125"><ele>122.5</ele><time>2026-05-02T08:33:37.999Z</time></trkpt><trkpt lat="40.69730759690694" lon="14.799308960304462"><ele>125.0</ele><time>2026-05-02T08:33:38.999Z</time></trkpt><trkpt lat="40.69738235330112" lon="14.799730454787966"><ele>125.0</ele><time>2026-05-02T08:33:39.999Z</time></trkpt><trkpt lat="40.697465038918985" lon="14.800148155009957"><ele>125.0</ele><time>2026-05-02T08:33:40.999Z</time></trkpt><trkpt lat="40.69755165963598" lon="14.800567055175552"><ele>125.0</ele><time>2026-05-02T08:33:41.999Z</time></trkpt><trkpt lat="40.697639152913474" lon="14.800988441633436"><ele>125.0</ele><time>2026-05-02T08:33:42.999Z</time></trkpt><trkpt lat="40.69773103878856" lon="14.801413137999017"><ele>134.5</ele><time>2026-05-02T08:33:43.999Z</time></trkpt><trkpt lat="40.6978257672824" lon="14.801835857892051"><ele>144.0</ele><time>2026-05-02T08:33:44.999Z</time></trkpt><trkpt lat="40.69792205754878" lon="14.802260767174706"><ele>142.5</ele><time>2026-05-02T08:33:45.999Z</time></trkpt><trkpt lat="40.6980216165225" lon="14.80268611797788"><ele>141.0</ele><time>2026-05-02T08:33:46.998Z</time></trkpt><trkpt lat="40.69811808093554" lon="14.803111814137495"><ele>139.5</ele><time>2026-05-02T08:33:47.998Z</time></trkpt><trkpt lat="40.69821644393063" lon="14.803536054726349"><ele>138.0</ele><time>2026-05-02T08:33:48.998Z</time></trkpt><trkpt lat="40.698316210484315" lon="14.80395967830303"><ele>140.0</ele><time>2026-05-02T08:33:49.998Z</time></trkpt><trkpt lat="40.698417506393874" lon="14.80438224931698"><ele>142.0</ele><time>2026-05-02T08:33:50.998Z</time></trkpt><trkpt lat="40.698518876998975" lon="14.804805951591641"><ele>149.5</ele><time>2026-05-02T08:33:51.998Z</time></trkpt><trkpt lat="40.69861780832084" lon="14.805218998572293"><ele>157.0</ele><time>2026-05-02T08:33:52.998Z</time></trkpt><trkpt lat="40.69871098218487" lon="14.805616260971933"><ele>157.0</ele><time>2026-05-02T08:33:53.998Z</time></trkpt><trkpt lat="40.698797078493314" lon="14.80599363450517"><ele>157.0</ele><time>2026-05-02T08:33:54.998Z</time></trkpt><trkpt lat="40.69887991356007" lon="14.806367888248824"><ele>156.0</ele><time>2026-05-02T08:33:55.998Z</time></trkpt><trkpt lat="40.69896020216665" lon="14.806757755005608"><ele>155.0</ele><time>2026-05-02T08:33:56.998Z</time></trkpt><trkpt lat="40.69903506674465" lon="14.80715273092043"><ele>154.0</ele><time>2026-05-02T08:33:57.998Z</time></trkpt><trkpt lat="40.699099698564595" lon="14.807543716153774"><ele>153.0</ele><time>2026-05-02T08:33:58.998Z</time></trkpt><trkpt lat="40.69915815738765" lon="14.807920458458925"><ele>156.5</ele><time>2026-05-02T08:33:59.998Z</time></trkpt><trkpt lat="40.699210119542286" lon="14.80828194864771"><ele>160.0</ele><time>2026-05-02T08:34:00.998Z</time></trkpt><trkpt lat="40.69925549210911" lon="14.808643790407695"><ele>164.0</ele><time>2026-05-02T08:34:01.998Z</time></trkpt><trkpt lat="40.69928982298113" lon="14.809012188793906"><ele>168.0</ele><time>2026-05-02T08:34:02.998Z</time></trkpt><trkpt lat="40.699314470542795" lon="14.809388421503867"><ele>169.0</ele><time>2026-05-02T08:34:03.998Z</time></trkpt><trkpt lat="40.69932960383917" lon="14.809764773062707"><ele>170.0</ele><time>2026-05-02T08:34:04.998Z</time></trkpt><trkpt lat="40.69933909435053" lon="14.810137603063325"><ele>169.0</ele><time>2026-05-02T08:34:05.998Z</time></trkpt><trkpt lat="40.69934221454353" lon="14.810505944725117"><ele>168.0</ele><time>2026-05-02T08:34:06.998Z</time></trkpt><trkpt lat="40.699338530409314" lon="14.810868697107978"><ele>165.5</ele><time>2026-05-02T08:34:07.998Z</time></trkpt><trkpt lat="40.699326607667714" lon="14.811215416251416"><ele>163.0</ele><time>2026-05-02T08:34:08.998Z</time></trkpt><trkpt lat="40.6993066625377" lon="14.811513811624279"><ele>163.0</ele><time>2026-05-02T08:34:09.998Z</time></trkpt><trkpt lat="40.699287487832706" lon="14.811804010843856"><ele>163.0</ele><time>2026-05-02T08:34:10.998Z</time></trkpt><trkpt lat="40.69926225327031" lon="14.81209969320992"><ele>163.0</ele><time>2026-05-02T08:34:11.998Z</time></trkpt><trkpt lat="40.699240570328065" lon="14.812389680625007"><ele>168.66666666666669</ele><time>2026-05-02T08:34:12.998Z</time></trkpt><trkpt lat="40.69921827085349" lon="14.812680076872585"><ele>174.33333333333334</ele><time>2026-05-02T08:34:13.998Z</time></trkpt><trkpt lat="40.699194588485035" lon="14.812965097590132"><ele>180.0</ele><time>2026-05-02T08:34:14.998Z</time></trkpt><trkpt lat="40.69917199441269" lon="14.813253377577867"><ele>183.66666666666666</ele><time>2026-05-02T08:34:15.998Z</time></trkpt><trkpt lat="40.699153811819194" lon="14.813538796379047"><ele>187.33333333333331</ele><time>2026-05-02T08:34:16.998Z</time></trkpt><trkpt lat="40.69913247668514" lon="14.813843180766806"><ele>191.0</ele><time>2026-05-02T08:34:17.998Z</time></trkpt><trkpt lat="40.69910216407534" lon="14.814181405505478"><ele>193.5</ele><time>2026-05-02T08:34:18.998Z</time></trkpt><trkpt lat="40.69905708635774" lon="14.81456622114463"><ele>196.0</ele><time>2026-05-02T08:34:19.998Z</time></trkpt><trkpt lat="40.69900776187785" lon="14.814985210142638"><ele>195.0</ele><time>2026-05-02T08:34:20.998Z</time></trkpt><trkpt lat="40.69896812800154" lon="14.815414574569363"><ele>194.0</ele><time>2026-05-02T08:34:21.998Z</time></trkpt><trkpt lat="40.698951461319396" lon="14.81583287425885"><ele>192.5</ele><time>2026-05-02T08:34:22.998Z</time></trkpt><trkpt lat="40.69893629889888" lon="14.816235821450642"><ele>191.0</ele><time>2026-05-02T08:34:23.999Z</time></trkpt><trkpt lat="40.69875322758137" lon="14.816769035013294"><ele>189.5</ele><time>2026-05-02T08:34:25Z</time></trkpt><trkpt lat="40.698701115421194" lon="14.817163888613404"><ele>188.0</ele><time>2026-05-02T08:34:25.999Z</time></trkpt><trkpt lat="40.69865574708766" lon="14.817569978144975"><ele>187.0</ele><time>2026-05-02T08:34:27Z</time></trkpt><trkpt lat="40.698625315883035" lon="14.817972709506941"><ele>186.0</ele><time>2026-05-02T08:34:28Z</time></trkpt><trkpt lat="40.69859600031793" lon="14.818363121729144"><ele>184.0</ele><time>2026-05-02T08:34:29Z</time></trkpt><trkpt lat="40.69857294943519" lon="14.818746162659616"><ele>182.0</ele><time>2026-05-02T08:34:30Z</time></trkpt><trkpt lat="40.69853686405724" lon="14.819132713678984"><ele>181.5</ele><time>2026-05-02T08:34:31Z</time></trkpt><trkpt lat="40.698484761170796" lon="14.819503619342669"><ele>181.0</ele><time>2026-05-02T08:34:32Z</time></trkpt><trkpt lat="40.69848527644764" lon="14.819814034273469"><ele>181.0</ele><time>2026-05-02T08:34:33Z</time></trkpt><trkpt lat="40.69844521724285" lon="14.820146112038154"><ele>181.0</ele><time>2026-05-02T08:34:34Z</time></trkpt><trkpt lat="40.69842893317588" lon="14.820510085333959"><ele>180.0</ele><time>2026-05-02T08:34:35Z</time></trkpt><trkpt lat="40.69840292576805" lon="14.820883302069122"><ele>179.0</ele><time>2026-05-02T08:34:36Z</time></trkpt><trkpt lat="40.69837660860375" lon="14.821259088073399"><ele>178.0</ele><time>2026-05-02T08:34:37Z</time></trkpt><trkpt lat="40.6983382269741" lon="14.821639711828738"><ele>177.0</ele><time>2026-05-02T08:34:38Z</time></trkpt><trkpt lat="40.69829859905714" lon="14.822025360687164"><ele>177.0</ele><time>2026-05-02T08:34:39Z</time></trkpt><trkpt lat="40.69825078729928" lon="14.822411579953808"><ele>177.0</ele><time>2026-05-02T08:34:40Z</time></trkpt><trkpt lat="40.69819771510912" lon="14.822795356590353"><ele>176.5</ele><time>2026-05-02T08:34:41Z</time></trkpt><trkpt lat="40.69813996241872" lon="14.823177671784434"><ele>176.0</ele><time>2026-05-02T08:34:42Z</time></trkpt><trkpt lat="40.69807685518544" lon="14.823557673688402"><ele>175.5</ele><time>2026-05-02T08:34:43Z</time></trkpt><trkpt lat="40.69800356046023" lon="14.82394071436332"><ele>175.0</ele><time>2026-05-02T08:34:44Z</time></trkpt><trkpt lat="40.69792162748276" lon="14.824330731579735"><ele>175.0</ele><time>2026-05-02T08:34:45Z</time></trkpt><trkpt lat="40.69783643673919" lon="14.824720898447133"><ele>175.0</ele><time>2026-05-02T08:34:46Z</time></trkpt><trkpt lat="40.69774248543669" lon="14.825106159422644"><ele>174.5</ele><time>2026-05-02T08:34:46.999Z</time></trkpt><trkpt lat="40.6976392240572" lon="14.825478066588508"><ele>174.0</ele><time>2026-05-02T08:34:47.999Z</time></trkpt><trkpt lat="40.69752707230227" lon="14.825845296075327"><ele>175.0</ele><time>2026-05-02T08:34:48.999Z</time></trkpt><trkpt lat="40.697403485076464" lon="14.826220103175482"><ele>176.0</ele><time>2026-05-02T08:34:49.999Z</time></trkpt><trkpt lat="40.69726176516237" lon="14.826629278791057"><ele>177.5</ele><time>2026-05-02T08:34:50.999Z</time></trkpt><trkpt lat="40.69710513840696" lon="14.827069078587359"><ele>179.0</ele><time>2026-05-02T08:34:51.999Z</time></trkpt><trkpt lat="40.69693611127811" lon="14.827527848948362"><ele>178.0</ele><time>2026-05-02T08:34:52.999Z</time></trkpt><trkpt lat="40.69675618483711" lon="14.827993671429583"><ele>177.0</ele><time>2026-05-02T08:34:53.999Z</time></trkpt><trkpt lat="40.69657639323128" lon="14.828436801297464"><ele>178.0</ele><time>2026-05-02T08:34:54.999Z</time></trkpt><trkpt lat="40.696397137128244" lon="14.828856358848686"><ele>179.0</ele><time>2026-05-02T08:34:55.999Z</time></trkpt><trkpt lat="40.69621470024049" lon="14.829256657425125"><ele>177.0</ele><time>2026-05-02T08:34:56.999Z</time></trkpt><trkpt lat="40.69602958089076" lon="14.829630845304782"><ele>175.0</ele><time>2026-05-02T08:34:57.999Z</time></trkpt><trkpt lat="40.69584377376075" lon="14.829977738334483"><ele>174.5</ele><time>2026-05-02T08:34:58.999Z</time></trkpt><trkpt lat="40.695655762815804" lon="14.8303097595357"><ele>174.0</ele><time>2026-05-02T08:34:59.999Z</time></trkpt><trkpt lat="40.69547197903489" lon="14.83062107626838"><ele>174.0</ele><time>2026-05-02T08:35:00.999Z</time></trkpt><trkpt lat="40.69528400970215" lon="14.830927118293898"><ele>174.0</ele><time>2026-05-02T08:35:01.999Z</time></trkpt><trkpt lat="40.695088315567205" lon="14.831236404230271"><ele>170.0</ele><time>2026-05-02T08:35:02.999Z</time></trkpt><trkpt lat="40.69488040070352" lon="14.831548227450757"><ele>166.0</ele><time>2026-05-02T08:35:03.999Z</time></trkpt><trkpt lat="40.69466136559666" lon="14.831859015998807"><ele>166.0</ele><time>2026-05-02T08:35:04.999Z</time></trkpt><trkpt lat="40.69443344672437" lon="14.832167387488242"><ele>166.0</ele><time>2026-05-02T08:35:05.999Z</time></trkpt><trkpt lat="40.694201752655225" lon="14.832477553498832"><ele>165.0</ele><time>2026-05-02T08:35:06.999Z</time></trkpt><trkpt lat="40.693968046471326" lon="14.832789615909714"><ele>164.0</ele><time>2026-05-02T08:35:07.999Z</time></trkpt><trkpt lat="40.6937321821652" lon="14.833101141927546"><ele>162.0</ele><time>2026-05-02T08:35:08.999Z</time></trkpt><trkpt lat="40.69349749123705" lon="14.833409480242091"><ele>160.0</ele><time>2026-05-02T08:35:09.999Z</time></trkpt><trkpt lat="40.69326734525615" lon="14.833714635470885"><ele>159.0</ele><time>2026-05-02T08:35:10.999Z</time></trkpt><trkpt lat="40.69304064348247" lon="14.83401647655824"><ele>158.0</ele><time>2026-05-02T08:35:11.999Z</time></trkpt><trkpt lat="40.69281495834279" lon="14.834316497041439"><ele>157.0</ele><time>2026-05-02T08:35:12.999Z</time></trkpt><trkpt lat="40.69258801130698" lon="14.834615852874022"><ele>156.0</ele><time>2026-05-02T08:35:13.999Z</time></trkpt><trkpt lat="40.692359905086384" lon="14.834920381175733"><ele>155.5</ele><time>2026-05-02T08:35:14.999Z</time></trkpt><trkpt lat="40.692129677717055" lon="14.835228270987505"><ele>155.0</ele><time>2026-05-02T08:35:15.999Z</time></trkpt><trkpt lat="40.691896616277425" lon="14.835537545518754"><ele>153.5</ele><time>2026-05-02T08:35:16.999Z</time></trkpt><trkpt lat="40.69165621401025" lon="14.835860899588758"><ele>152.0</ele><time>2026-05-02T08:35:17.999Z</time></trkpt><trkpt lat="40.69141407462694" lon="14.836192959037877"><ele>151.5</ele><time>2026-05-02T08:35:18.999Z</time></trkpt><trkpt lat="40.69118093880987" lon="14.836518260276602"><ele>151.0</ele><time>2026-05-02T08:35:19.999Z</time></trkpt><trkpt lat="40.69095701074563" lon="14.836835236565971"><ele>150.5</ele><time>2026-05-02T08:35:20.999Z</time></trkpt><trkpt lat="40.69074183516559" lon="14.83714679494001"><ele>150.0</ele><time>2026-05-02T08:35:21.999Z</time></trkpt><trkpt lat="40.69053283224765" lon="14.837455544938804"><ele>148.5</ele><time>2026-05-02T08:35:22.999Z</time></trkpt><trkpt lat="40.69032326244109" lon="14.837775281022298"><ele>147.0</ele><time>2026-05-02T08:35:23.999Z</time></trkpt><trkpt lat="40.690111585642434" lon="14.838111820544515"><ele>145.0</ele><time>2026-05-02T08:35:24.999Z</time></trkpt><trkpt lat="40.68990538645127" lon="14.838457984383725"><ele>143.0</ele><time>2026-05-02T08:35:25.999Z</time></trkpt><trkpt lat="40.68970223035457" lon="14.838809269178396"><ele>142.5</ele><time>2026-05-02T08:35:26.999Z</time></trkpt><trkpt lat="40.68950514358877" lon="14.839165923176255"><ele>142.0</ele><time>2026-05-02T08:35:27.999Z</time></trkpt><trkpt lat="40.68931205101743" lon="14.839529937326013"><ele>140.0</ele><time>2026-05-02T08:35:28.999Z</time></trkpt><trkpt lat="40.68912553806646" lon="14.839900771843755"><ele>138.0</ele><time>2026-05-02T08:35:29.999Z</time></trkpt><trkpt lat="40.68894525525507" lon="14.840278216462634"><ele>137.5</ele><time>2026-05-02T08:35:30.999Z</time></trkpt><trkpt lat="40.68877957742362" lon="14.84066239498685"><ele>137.0</ele><time>2026-05-02T08:35:31.999Z</time></trkpt><trkpt lat="40.68861496067249" lon="14.841045485996283"><ele>134.0</ele><time>2026-05-02T08:35:32.999Z</time></trkpt><trkpt lat="40.68845386267945" lon="14.84143600929534"><ele>131.0</ele><time>2026-05-02T08:35:33.999Z</time></trkpt><trkpt lat="40.68829846316587" lon="14.841831284425638"><ele>130.5</ele><time>2026-05-02T08:35:34.999Z</time></trkpt><trkpt lat="40.68814717982088" lon="14.842227759099343"><ele>130.0</ele><time>2026-05-02T08:35:35.999Z</time></trkpt><trkpt lat="40.68800409583263" lon="14.842628279606865"><ele>129.5</ele><time>2026-05-02T08:35:36.999Z</time></trkpt><trkpt lat="40.687867520128314" lon="14.84303079842275"><ele>129.0</ele><time>2026-05-02T08:35:37.999Z</time></trkpt><trkpt lat="40.68773922559743" lon="14.843434585592288"><ele>128.0</ele><time>2026-05-02T08:35:38.999Z</time></trkpt><trkpt lat="40.68761794265415" lon="14.843842635130136"><ele>127.0</ele><time>2026-05-02T08:35:39.999Z</time></trkpt><trkpt lat="40.68750001289747" lon="14.844249968814323"><ele>126.5</ele><time>2026-05-02T08:35:40.999Z</time></trkpt><trkpt lat="40.68738757509377" lon="14.844662368006844"><ele>126.0</ele><time>2026-05-02T08:35:41.999Z</time></trkpt><trkpt lat="40.687276274574444" lon="14.845080103491558"><ele>125.0</ele><time>2026-05-02T08:35:42.999Z</time></trkpt><trkpt lat="40.687165545271256" lon="14.845495032123129"><ele>124.0</ele><time>2026-05-02T08:35:43.999Z</time></trkpt><trkpt lat="40.68705702015108" lon="14.845912971068124"><ele>123.0</ele><time>2026-05-02T08:35:44.999Z</time></trkpt><trkpt lat="40.68695174884692" lon="14.846329739995705"><ele>122.0</ele><time>2026-05-02T08:35:45.999Z</time></trkpt><trkpt lat="40.68684715635499" lon="14.84674739879558"><ele>120.5</ele><time>2026-05-02T08:35:46.999Z</time></trkpt><trkpt lat="40.68674284638066" lon="14.847164008763531"><ele>119.0</ele><time>2026-05-02T08:35:47.999Z</time></trkpt><trkpt lat="40.68663797657215" lon="14.84758011124379"><ele>115.5</ele><time>2026-05-02T08:35:48.999Z</time></trkpt><trkpt lat="40.68653228155888" lon="14.847996378845147"><ele>112.0</ele><time>2026-05-02T08:35:49.999Z</time></trkpt><trkpt lat="40.68642822459127" lon="14.848410910630044"><ele>111.5</ele><time>2026-05-02T08:35:50.999Z</time></trkpt><trkpt lat="40.68632435745586" lon="14.848819233784539"><ele>111.0</ele><time>2026-05-02T08:35:51.999Z</time></trkpt><trkpt lat="40.68622153921243" lon="14.84921780084379"><ele>111.5</ele><time>2026-05-02T08:35:52.999Z</time></trkpt><trkpt lat="40.68611865877296" lon="14.84960492947115"><ele>112.0</ele><time>2026-05-02T08:35:53.999Z</time></trkpt><trkpt lat="40.68601539566019" lon="14.849980993283953"><ele>110.5</ele><time>2026-05-02T08:35:54.999Z</time></trkpt><trkpt lat="40.685908618676535" lon="14.850347723826582"><ele>109.0</ele><time>2026-05-02T08:35:55.999Z</time></trkpt><trkpt lat="40.685799411319095" lon="14.850697786552846"><ele>110.5</ele><time>2026-05-02T08:35:56.999Z</time></trkpt><trkpt lat="40.68568732371219" lon="14.85103518712738"><ele>112.0</ele><time>2026-05-02T08:35:57.999Z</time></trkpt><trkpt lat="40.68557161695802" lon="14.851364184394328"><ele>112.0</ele><time>2026-05-02T08:35:58.999Z</time></trkpt><trkpt lat="40.6854485421783" lon="14.851686650403314"><ele>112.0</ele><time>2026-05-02T08:35:59.999Z</time></trkpt><trkpt lat="40.68531713945012" lon="14.85200233734506"><ele>112.5</ele><time>2026-05-02T08:36:00.999Z</time></trkpt><trkpt lat="40.685170838812176" lon="14.852323174501905"><ele>113.0</ele><time>2026-05-02T08:36:01.999Z</time></trkpt><trkpt lat="40.68500985950513" lon="14.85265476066335"><ele>114.0</ele><time>2026-05-02T08:36:02.999Z</time></trkpt><trkpt lat="40.68483224523987" lon="14.852986587251301"><ele>115.0</ele><time>2026-05-02T08:36:03.999Z</time></trkpt><trkpt lat="40.6846386470168" lon="14.853317009927082"><ele>114.0</ele><time>2026-05-02T08:36:04.999Z</time></trkpt><trkpt lat="40.68442726832158" lon="14.853646595848165"><ele>113.0</ele><time>2026-05-02T08:36:05.998Z</time></trkpt><trkpt lat="40.6842016954063" lon="14.853970109148838"><ele>113.0</ele><time>2026-05-02T08:36:06.998Z</time></trkpt><trkpt lat="40.683963130068534" lon="14.854284894783001"><ele>113.0</ele><time>2026-05-02T08:36:07.998Z</time></trkpt><trkpt lat="40.68371485123573" lon="14.854588899911187"><ele>113.0</ele><time>2026-05-02T08:36:08.998Z</time></trkpt><trkpt lat="40.68346224968265" lon="14.854872799182209"><ele>113.0</ele><time>2026-05-02T08:36:09.998Z</time></trkpt><trkpt lat="40.68320148405161" lon="14.855140980067167"><ele>113.0</ele><time>2026-05-02T08:36:10.998Z</time></trkpt><trkpt lat="40.682932471642474" lon="14.855396303929062"><ele>113.0</ele><time>2026-05-02T08:36:11.998Z</time></trkpt><trkpt lat="40.68265394465577" lon="14.855634865921242"><ele>112.0</ele><time>2026-05-02T08:36:12.998Z</time></trkpt><trkpt lat="40.682364642655635" lon="14.855853495919153"><ele>111.0</ele><time>2026-05-02T08:36:13.998Z</time></trkpt><trkpt lat="40.682074068600656" lon="14.856061272447757"><ele>113.0</ele><time>2026-05-02T08:36:14.998Z</time></trkpt><trkpt lat="40.68177423104569" lon="14.856254020609041"><ele>115.0</ele><time>2026-05-02T08:36:15.998Z</time></trkpt><trkpt lat="40.68146986834387" lon="14.856430008261377"><ele>115.0</ele><time>2026-05-02T08:36:16.998Z</time></trkpt><trkpt lat="40.68115962947175" lon="14.85658727541772"><ele>115.0</ele><time>2026-05-02T08:36:17.998Z</time></trkpt><trkpt lat="40.68084884408554" lon="14.856735008901977"><ele>114.5</ele><time>2026-05-02T08:36:18.998Z</time></trkpt><trkpt lat="40.68052962075096" lon="14.856854194323859"><ele>114.0</ele><time>2026-05-02T08:36:19.998Z</time></trkpt><trkpt lat="40.68020463135968" lon="14.856952789463463"><ele>114.0</ele><time>2026-05-02T08:36:20.998Z</time></trkpt><trkpt lat="40.679876332678624" lon="14.857034662591689"><ele>114.0</ele><time>2026-05-02T08:36:21.998Z</time></trkpt><trkpt lat="40.67954465271567" lon="14.857105549473413"><ele>114.0</ele><time>2026-05-02T08:36:22.998Z</time></trkpt><trkpt lat="40.67921036974557" lon="14.857164459591408"><ele>114.0</ele><time>2026-05-02T08:36:23.998Z</time></trkpt><trkpt lat="40.67887616201978" lon="14.85721167604813"><ele>115.5</ele><time>2026-05-02T08:36:24.998Z</time></trkpt><trkpt lat="40.67854102804647" lon="14.857250776319445"><ele>117.0</ele><time>2026-05-02T08:36:25.998Z</time></trkpt><trkpt lat="40.67820513441316" lon="14.857285771912988"><ele>117.0</ele><time>2026-05-02T08:36:26.998Z</time></trkpt><trkpt lat="40.67786983621702" lon="14.85731978282828"><ele>117.0</ele><time>2026-05-02T08:36:27.998Z</time></trkpt><trkpt lat="40.67753396631266" lon="14.85734968868255"><ele>118.0</ele><time>2026-05-02T08:36:28.998Z</time></trkpt><trkpt lat="40.67719659628135" lon="14.857378774957576"><ele>119.0</ele><time>2026-05-02T08:36:30Z</time></trkpt><trkpt lat="40.6768614761554" lon="14.857409467204763"><ele>125.0</ele><time>2026-05-02T08:36:31Z</time></trkpt><trkpt lat="40.676524395595216" lon="14.857440241519821"><ele>131.0</ele><time>2026-05-02T08:36:32Z</time></trkpt><trkpt lat="40.676187705643045" lon="14.857471537970808"><ele>148.0</ele><time>2026-05-02T08:36:33Z</time></trkpt><trkpt lat="40.67585218210413" lon="14.857503589044894"><ele>165.0</ele><time>2026-05-02T08:36:34Z</time></trkpt><trkpt lat="40.67551815003047" lon="14.857536917007215"><ele>170.5</ele><time>2026-05-02T08:36:35Z</time></trkpt><trkpt lat="40.67518384068507" lon="14.85756999781311"><ele>176.0</ele><time>2026-05-02T08:36:36Z</time></trkpt><trkpt lat="40.67485008455299" lon="14.857602338123895"><ele>189.0</ele><time>2026-05-02T08:36:37Z</time></trkpt><trkpt lat="40.67452966684266" lon="14.857651762650848"><ele>202.0</ele><time>2026-05-02T08:36:38Z</time></trkpt><trkpt lat="40.674206017772555" lon="14.857686026545592"><ele>202.0</ele><time>2026-05-02T08:36:39Z</time></trkpt><trkpt lat="40.673877384747676" lon="14.857720993010478"><ele>202.0</ele><time>2026-05-02T08:36:40Z</time></trkpt><trkpt lat="40.67354832682041" lon="14.857760084448401"><ele>203.0</ele><time>2026-05-02T08:36:41Z</time></trkpt><trkpt lat="40.673219417536835" lon="14.857793517437234"><ele>204.0</ele><time>2026-05-02T08:36:42Z</time></trkpt><trkpt lat="40.6728922238056" lon="14.85784089650117"><ele>205.5</ele><time>2026-05-02T08:36:43Z</time></trkpt><trkpt lat="40.672565662632714" lon="14.857880394124011"><ele>207.0</ele><time>2026-05-02T08:36:44Z</time></trkpt><trkpt lat="40.67223879753002" lon="14.857923276563444"><ele>195.0</ele><time>2026-05-02T08:36:45Z</time></trkpt><trkpt lat="40.671911615147664" lon="14.85796731639399"><ele>183.0</ele><time>2026-05-02T08:36:46Z</time></trkpt><trkpt lat="40.67158557840778" lon="14.85801789665919"><ele>183.0</ele><time>2026-05-02T08:36:47Z</time></trkpt><trkpt lat="40.67125754342585" lon="14.858064800843401"><ele>183.0</ele><time>2026-05-02T08:36:48Z</time></trkpt><trkpt lat="40.67093306369086" lon="14.858113789600468"><ele>161.5</ele><time>2026-05-02T08:36:49Z</time></trkpt><trkpt lat="40.67061458432613" lon="14.858164778438782"><ele>140.0</ele><time>2026-05-02T08:36:50Z</time></trkpt><trkpt lat="40.67030442950555" lon="14.858196805837396"><ele>126.0</ele><time>2026-05-02T08:36:51Z</time></trkpt><trkpt lat="40.670008912535856" lon="14.858231515671337"><ele>112.0</ele><time>2026-05-02T08:36:52Z</time></trkpt><trkpt lat="40.66952701305568" lon="14.858095314178426"><ele>115.5</ele><time>2026-05-02T08:36:53Z</time></trkpt><trkpt lat="40.669271004992915" lon="14.858108314014316"><ele>119.0</ele><time>2026-05-02T08:36:53.999Z</time></trkpt><trkpt lat="40.66899994118101" lon="14.858165277245215"><ele>119.0</ele><time>2026-05-02T08:36:54.999Z</time></trkpt><trkpt lat="40.66870651054466" lon="14.858192965785266"><ele>119.0</ele><time>2026-05-02T08:36:55.999Z</time></trkpt><trkpt lat="40.668416048282246" lon="14.858219733259599"><ele>130.0</ele><time>2026-05-02T08:36:56.999Z</time></trkpt><trkpt lat="40.66812513681731" lon="14.858245161850277"><ele>141.0</ele><time>2026-05-02T08:36:57.999Z</time></trkpt><trkpt lat="40.667834618495" lon="14.85827181164862"><ele>139.5</ele><time>2026-05-02T08:36:58.999Z</time></trkpt><trkpt lat="40.66754509901782" lon="14.858295622614106"><ele>138.0</ele><time>2026-05-02T08:36:59.999Z</time></trkpt><trkpt lat="40.667256394954464" lon="14.858319650048559"><ele>144.5</ele><time>2026-05-02T08:37:00.999Z</time></trkpt><trkpt lat="40.66693085592577" lon="14.85829560691608"><ele>151.0</ele><time>2026-05-02T08:37:01.999Z</time></trkpt><trkpt lat="40.666626641747776" lon="14.858310819803075"><ele>151.0</ele><time>2026-05-02T08:37:02.999Z</time></trkpt><trkpt lat="40.6663257705635" lon="14.858334120537318"><ele>151.0</ele><time>2026-05-02T08:37:03.999Z</time></trkpt><trkpt lat="40.66601952613973" lon="14.858351349062941"><ele>157.5</ele><time>2026-05-02T08:37:04.999Z</time></trkpt><trkpt lat="40.66570211739219" lon="14.85837478369068"><ele>164.0</ele><time>2026-05-02T08:37:05.999Z</time></trkpt><trkpt lat="40.665367001190546" lon="14.858402942392923"><ele>167.0</ele><time>2026-05-02T08:37:06.999Z</time></trkpt><trkpt lat="40.66503277875614" lon="14.858426413661016"><ele>170.0</ele><time>2026-05-02T08:37:07.999Z</time></trkpt><trkpt lat="40.66470212314611" lon="14.858451536737208"><ele>150.5</ele><time>2026-05-02T08:37:08.999Z</time></trkpt><trkpt lat="40.66437421617742" lon="14.858485018576634"><ele>131.0</ele><time>2026-05-02T08:37:09.999Z</time></trkpt><trkpt lat="40.66406986203675" lon="14.858539844910736"><ele>131.0</ele><time>2026-05-02T08:37:10.999Z</time></trkpt><trkpt lat="40.66376564441724" lon="14.858597214090773"><ele>131.0</ele><time>2026-05-02T08:37:11.999Z</time></trkpt><trkpt lat="40.66345578678157" lon="14.858662720434559"><ele>112.0</ele><time>2026-05-02T08:37:12.999Z</time></trkpt><trkpt lat="40.66315574121785" lon="14.85874308226279"><ele>93.0</ele><time>2026-05-02T08:37:13.999Z</time></trkpt><trkpt lat="40.66286661107998" lon="14.858838795972318"><ele>83.5</ele><time>2026-05-02T08:37:14.999Z</time></trkpt><trkpt lat="40.66258393990046" lon="14.858997295927598"><ele>74.0</ele><time>2026-05-02T08:37:15.999Z</time></trkpt><trkpt lat="40.66236978244592" lon="14.859163791648704"><ele>72.0</ele><time>2026-05-02T08:37:16.999Z</time></trkpt><trkpt lat="40.66209553026585" lon="14.859286618597338"><ele>70.0</ele><time>2026-05-02T08:37:17.999Z</time></trkpt><trkpt lat="40.66183458243091" lon="14.859436992727588"><ele>70.0</ele><time>2026-05-02T08:37:18.999Z</time></trkpt><trkpt lat="40.66157740113776" lon="14.859606101385408"><ele>70.0</ele><time>2026-05-02T08:37:19.999Z</time></trkpt><trkpt lat="40.66132738327999" lon="14.859785544982028"><ele>70.0</ele><time>2026-05-02T08:37:20.999Z</time></trkpt><trkpt lat="40.66107419106408" lon="14.85996951978211"><ele>70.0</ele><time>2026-05-02T08:37:21.999Z</time></trkpt><trkpt lat="40.66082116108282" lon="14.86015759231608"><ele>70.0</ele><time>2026-05-02T08:37:22.999Z</time></trkpt><trkpt lat="40.66056574598562" lon="14.86035365063341"><ele>70.0</ele><time>2026-05-02T08:37:23.999Z</time></trkpt><trkpt lat="40.66031530433734" lon="14.860551907961684"><ele>69.0</ele><time>2026-05-02T08:37:24.999Z</time></trkpt><trkpt lat="40.66006256498865" lon="14.86075429297231"><ele>68.0</ele><time>2026-05-02T08:37:25.999Z</time></trkpt><trkpt lat="40.659810646787086" lon="14.860956043318932"><ele>68.0</ele><time>2026-05-02T08:37:26.999Z</time></trkpt><trkpt lat="40.659555360275434" lon="14.861160663830983"><ele>68.0</ele><time>2026-05-02T08:37:27.999Z</time></trkpt><trkpt lat="40.65930556079852" lon="14.861368760338616"><ele>62.5</ele><time>2026-05-02T08:37:28.999Z</time></trkpt><trkpt lat="40.65905768371486" lon="14.861574928045746"><ele>57.0</ele><time>2026-05-02T08:37:29.999Z</time></trkpt><trkpt lat="40.658810909789075" lon="14.861780069693085"><ele>54.5</ele><time>2026-05-02T08:37:30.999Z</time></trkpt><trkpt lat="40.658568534180326" lon="14.861982980634316"><ele>52.0</ele><time>2026-05-02T08:37:31.999Z</time></trkpt><trkpt lat="40.65833125366661" lon="14.862187786084833"><ele>52.0</ele><time>2026-05-02T08:37:32.999Z</time></trkpt><trkpt lat="40.65809619939095" lon="14.862404142609142"><ele>52.0</ele><time>2026-05-02T08:37:33.999Z</time></trkpt><trkpt lat="40.65786799784049" lon="14.862630590420379"><ele>50.5</ele><time>2026-05-02T08:37:34.999Z</time></trkpt><trkpt lat="40.65764498313188" lon="14.862861480319003"><ele>49.0</ele><time>2026-05-02T08:37:35.999Z</time></trkpt><trkpt lat="40.657427061308944" lon="14.863107014112876"><ele>49.0</ele><time>2026-05-02T08:37:36.999Z</time></trkpt><trkpt lat="40.65721246017357" lon="14.863366898252142"><ele>49.0</ele><time>2026-05-02T08:37:37.999Z</time></trkpt><trkpt lat="40.65700400179319" lon="14.863637885363195"><ele>48.5</ele><time>2026-05-02T08:37:38.999Z</time></trkpt><trkpt lat="40.656803199025106" lon="14.863916145172473"><ele>48.0</ele><time>2026-05-02T08:37:39.999Z</time></trkpt><trkpt lat="40.65661051296619" lon="14.864200675327382"><ele>47.5</ele><time>2026-05-02T08:37:40.999Z</time></trkpt><trkpt lat="40.656422849947354" lon="14.864497587509987"><ele>47.0</ele><time>2026-05-02T08:37:41.999Z</time></trkpt><trkpt lat="40.65624042150434" lon="14.864805931957214"><ele>46.5</ele><time>2026-05-02T08:37:42.999Z</time></trkpt><trkpt lat="40.656066672540334" lon="14.865122114385084"><ele>46.0</ele><time>2026-05-02T08:37:43.999Z</time></trkpt><trkpt lat="40.65589881203587" lon="14.86544819139589"><ele>46.0</ele><time>2026-05-02T08:37:44.999Z</time></trkpt><trkpt lat="40.65573503955926" lon="14.865787123410094"><ele>46.0</ele><time>2026-05-02T08:37:45.999Z</time></trkpt><trkpt lat="40.65557511856291" lon="14.86613710419277"><ele>47.0</ele><time>2026-05-02T08:37:46.999Z</time></trkpt><trkpt lat="40.65542091780396" lon="14.866497478963277"><ele>48.0</ele><time>2026-05-02T08:37:47.999Z</time></trkpt><trkpt lat="40.655269051781865" lon="14.866868751950127"><ele>45.5</ele><time>2026-05-02T08:37:48.999Z</time></trkpt><trkpt lat="40.65511439023675" lon="14.867251697913568"><ele>43.0</ele><time>2026-05-02T08:37:49.999Z</time></trkpt><trkpt lat="40.65495968801212" lon="14.867637149678158"><ele>43.0</ele><time>2026-05-02T08:37:50.999Z</time></trkpt><trkpt lat="40.65480342959354" lon="14.868023395551704"><ele>43.0</ele><time>2026-05-02T08:37:51.999Z</time></trkpt><trkpt lat="40.654645083355014" lon="14.868407887501103"><ele>43.0</ele><time>2026-05-02T08:37:52.999Z</time></trkpt><trkpt lat="40.65448748124418" lon="14.868789151676953"><ele>43.0</ele><time>2026-05-02T08:37:53.999Z</time></trkpt><trkpt lat="40.65432996663024" lon="14.869171847395839"><ele>41.5</ele><time>2026-05-02T08:37:54.999Z</time></trkpt><trkpt lat="40.65417278498165" lon="14.869555734149051"><ele>40.0</ele><time>2026-05-02T08:37:55.999Z</time></trkpt><trkpt lat="40.65401678843222" lon="14.869938993948624"><ele>38.5</ele><time>2026-05-02T08:37:56.999Z</time></trkpt><trkpt lat="40.65385894972133" lon="14.870319402023183"><ele>37.0</ele><time>2026-05-02T08:37:57.999Z</time></trkpt><trkpt lat="40.653700060592804" lon="14.87070173807671"><ele>34.5</ele><time>2026-05-02T08:37:58.999Z</time></trkpt><trkpt lat="40.653540854562486" lon="14.871086633641173"><ele>32.0</ele><time>2026-05-02T08:37:59.999Z</time></trkpt><trkpt lat="40.65338203226812" lon="14.871471397353652"><ele>31.5</ele><time>2026-05-02T08:38:00.999Z</time></trkpt><trkpt lat="40.653225400401894" lon="14.871855354468199"><ele>31.0</ele><time>2026-05-02T08:38:01.999Z</time></trkpt><trkpt lat="40.65306848944271" lon="14.872239924492932"><ele>31.0</ele><time>2026-05-02T08:38:02.999Z</time></trkpt><trkpt lat="40.652911974466" lon="14.872625077348268"><ele>31.0</ele><time>2026-05-02T08:38:03.999Z</time></trkpt><trkpt lat="40.65275305993667" lon="14.873013473878329"><ele>31.0</ele><time>2026-05-02T08:38:04.999Z</time></trkpt><trkpt lat="40.65259503924766" lon="14.873394339991698"><ele>31.0</ele><time>2026-05-02T08:38:05.999Z</time></trkpt><trkpt lat="40.65243072820184" lon="14.873773277491338"><ele>31.0</ele><time>2026-05-02T08:38:06.998Z</time></trkpt><trkpt lat="40.652264199440076" lon="14.874146759234023"><ele>31.0</ele><time>2026-05-02T08:38:07.998Z</time></trkpt><trkpt lat="40.652094951346484" lon="14.87452104832174"><ele>31.5</ele><time>2026-05-02T08:38:08.998Z</time></trkpt><trkpt lat="40.65192803811303" lon="14.874893689997892"><ele>32.0</ele><time>2026-05-02T08:38:09.998Z</time></trkpt><trkpt lat="40.65176093982436" lon="14.875269832151387"><ele>34.0</ele><time>2026-05-02T08:38:10.998Z</time></trkpt><trkpt lat="40.65159408593807" lon="14.875646639587817"><ele>36.0</ele><time>2026-05-02T08:38:11.998Z</time></trkpt><trkpt lat="40.651424215011296" lon="14.87602447682171"><ele>36.0</ele><time>2026-05-02T08:38:12.998Z</time></trkpt><trkpt lat="40.65125485899465" lon="14.87640050833828"><ele>36.0</ele><time>2026-05-02T08:38:13.998Z</time></trkpt><trkpt lat="40.651086792426504" lon="14.876776902883872"><ele>35.5</ele><time>2026-05-02T08:38:14.998Z</time></trkpt><trkpt lat="40.650919896342394" lon="14.877156602026114"><ele>35.0</ele><time>2026-05-02T08:38:15.998Z</time></trkpt><trkpt lat="40.6507548317633" lon="14.87753243012047"><ele>35.5</ele><time>2026-05-02T08:38:16.998Z</time></trkpt><trkpt lat="40.650586361399675" lon="14.877910943989026"><ele>36.0</ele><time>2026-05-02T08:38:17.998Z</time></trkpt><trkpt lat="40.65042007928849" lon="14.878287963629294"><ele>37.0</ele><time>2026-05-02T08:38:18.998Z</time></trkpt><trkpt lat="40.65025454707522" lon="14.878664128649824"><ele>38.0</ele><time>2026-05-02T08:38:19.998Z</time></trkpt><trkpt lat="40.6500900443806" lon="14.879039634701108"><ele>38.0</ele><time>2026-05-02T08:38:20.998Z</time></trkpt><trkpt lat="40.64992354657344" lon="14.879415230478513"><ele>38.0</ele><time>2026-05-02T08:38:21.998Z</time></trkpt><trkpt lat="40.649757391637415" lon="14.879792385650116"><ele>39.0</ele><time>2026-05-02T08:38:22.998Z</time></trkpt><trkpt lat="40.649591387117354" lon="14.880171387742744"><ele>40.0</ele><time>2026-05-02T08:38:23.998Z</time></trkpt><trkpt lat="40.649427535644655" lon="14.880549487903906"><ele>40.0</ele><time>2026-05-02T08:38:24.998Z</time></trkpt><trkpt lat="40.649262994445884" lon="14.880927527472089"><ele>40.0</ele><time>2026-05-02T08:38:25.998Z</time></trkpt><trkpt lat="40.64909465532104" lon="14.881306764638"><ele>40.0</ele><time>2026-05-02T08:38:26.998Z</time></trkpt><trkpt lat="40.64892710321317" lon="14.881685804663794"><ele>40.0</ele><time>2026-05-02T08:38:27.998Z</time></trkpt><trkpt lat="40.648757684421085" lon="14.882065580937356"><ele>40.0</ele><time>2026-05-02T08:38:28.998Z</time></trkpt><trkpt lat="40.648588232474815" lon="14.882444479387019"><ele>40.0</ele><time>2026-05-02T08:38:29.998Z</time></trkpt><trkpt lat="40.64842120006187" lon="14.882824922881758"><ele>40.5</ele><time>2026-05-02T08:38:30.998Z</time></trkpt><trkpt lat="40.648251599272776" lon="14.883203165230709"><ele>41.0</ele><time>2026-05-02T08:38:31.998Z</time></trkpt><trkpt lat="40.64808319037931" lon="14.883581202801269"><ele>41.5</ele><time>2026-05-02T08:38:32.998Z</time></trkpt><trkpt lat="40.64791363051756" lon="14.883963131517062"><ele>42.0</ele><time>2026-05-02T08:38:33.998Z</time></trkpt><trkpt lat="40.647742482965356" lon="14.88433946961354"><ele>42.0</ele><time>2026-05-02T08:38:34.998Z</time></trkpt><trkpt lat="40.647573870805445" lon="14.884722259086592"><ele>42.0</ele><time>2026-05-02T08:38:36Z</time></trkpt><trkpt lat="40.647402100985744" lon="14.88510053129665"><ele>43.0</ele><time>2026-05-02T08:38:37Z</time></trkpt><trkpt lat="40.647232735340566" lon="14.885481383496229"><ele>44.0</ele><time>2026-05-02T08:38:38Z</time></trkpt><trkpt lat="40.64706452609545" lon="14.885859703504536"><ele>43.5</ele><time>2026-05-02T08:38:39Z</time></trkpt><trkpt lat="40.64689687436283" lon="14.886236869773438"><ele>43.0</ele><time>2026-05-02T08:38:40Z</time></trkpt><trkpt lat="40.64672831635622" lon="14.886616930036162"><ele>43.0</ele><time>2026-05-02T08:38:41Z</time></trkpt><trkpt lat="40.64655935990241" lon="14.88699668420266"><ele>43.0</ele><time>2026-05-02T08:38:42Z</time></trkpt><trkpt lat="40.646391076669424" lon="14.887376181825058"><ele>43.5</ele><time>2026-05-02T08:38:43Z</time></trkpt><trkpt lat="40.646222454644864" lon="14.887756313468994"><ele>44.0</ele><time>2026-05-02T08:38:44Z</time></trkpt><trkpt lat="40.64605412282398" lon="14.888134263421783"><ele>45.0</ele><time>2026-05-02T08:38:45Z</time></trkpt><trkpt lat="40.645886369924185" lon="14.888515321291862"><ele>46.0</ele><time>2026-05-02T08:38:46Z</time></trkpt><trkpt lat="40.64571800758593" lon="14.888895634142564"><ele>46.5</ele><time>2026-05-02T08:38:47Z</time></trkpt><trkpt lat="40.645547909152036" lon="14.889276758716951"><ele>47.0</ele><time>2026-05-02T08:38:48Z</time></trkpt><trkpt lat="40.645381395461236" lon="14.889654645044114"><ele>45.5</ele><time>2026-05-02T08:38:49Z</time></trkpt><trkpt lat="40.64521480542327" lon="14.89003432695786"><ele>44.0</ele><time>2026-05-02T08:38:50Z</time></trkpt><trkpt lat="40.645047871565644" lon="14.89041213106147"><ele>44.0</ele><time>2026-05-02T08:38:51Z</time></trkpt><trkpt lat="40.644881193484636" lon="14.890791954665339"><ele>44.0</ele><time>2026-05-02T08:38:51.999Z</time></trkpt><trkpt lat="40.644714726606544" lon="14.891173361632775"><ele>44.0</ele><time>2026-05-02T08:38:52.999Z</time></trkpt><trkpt lat="40.644546200610066" lon="14.891556129920628"><ele>44.0</ele><time>2026-05-02T08:38:53.999Z</time></trkpt><trkpt lat="40.644377767535325" lon="14.891930716890627"><ele>44.0</ele><time>2026-05-02T08:38:54.999Z</time></trkpt><trkpt lat="40.64420880708953" lon="14.892311171097047"><ele>44.0</ele><time>2026-05-02T08:38:55.999Z</time></trkpt><trkpt lat="40.644041380866696" lon="14.89268840172727"><ele>43.5</ele><time>2026-05-02T08:38:56.999Z</time></trkpt><trkpt lat="40.643876789273214" lon="14.893063782171838"><ele>43.0</ele><time>2026-05-02T08:38:57.999Z</time></trkpt><trkpt lat="40.643710651396944" lon="14.893435029667595"><ele>42.0</ele><time>2026-05-02T08:38:58.999Z</time></trkpt><trkpt lat="40.643543295687905" lon="14.89380291667164"><ele>41.0</ele><time>2026-05-02T08:38:59.999Z</time></trkpt><trkpt lat="40.64337725609033" lon="14.894167076247262"><ele>41.0</ele><time>2026-05-02T08:39:00.999Z</time></trkpt><trkpt lat="40.64321340107305" lon="14.894531357807118"><ele>41.0</ele><time>2026-05-02T08:39:01.999Z</time></trkpt><trkpt lat="40.64304416131851" lon="14.894904297682926"><ele>40.5</ele><time>2026-05-02T08:39:02.999Z</time></trkpt><trkpt lat="40.64287206335095" lon="14.895276248514529"><ele>40.0</ele><time>2026-05-02T08:39:03.999Z</time></trkpt><trkpt lat="40.64270186142256" lon="14.895647140795669"><ele>39.5</ele><time>2026-05-02T08:39:04.999Z</time></trkpt><trkpt lat="40.64253264160484" lon="14.896016549006942"><ele>39.0</ele><time>2026-05-02T08:39:05.999Z</time></trkpt><trkpt lat="40.642365432077824" lon="14.896383687647807"><ele>39.0</ele><time>2026-05-02T08:39:06.999Z</time></trkpt><trkpt lat="40.64219724709592" lon="14.896758813148619"><ele>39.0</ele><time>2026-05-02T08:39:07.999Z</time></trkpt><trkpt lat="40.64202437991395" lon="14.897133478018585"><ele>38.0</ele><time>2026-05-02T08:39:08.999Z</time></trkpt><trkpt lat="40.641851379613314" lon="14.897506587429062"><ele>37.0</ele><time>2026-05-02T08:39:09.999Z</time></trkpt><trkpt lat="40.64167900078883" lon="14.897879032364802"><ele>37.0</ele><time>2026-05-02T08:39:10.999Z</time></trkpt><trkpt lat="40.641510731767106" lon="14.898246244501106"><ele>37.0</ele><time>2026-05-02T08:39:11.999Z</time></trkpt><trkpt lat="40.641345458467214" lon="14.89861511390871"><ele>37.5</ele><time>2026-05-02T08:39:12.999Z</time></trkpt><trkpt lat="40.641178375638454" lon="14.898985849925394"><ele>38.0</ele><time>2026-05-02T08:39:13.999Z</time></trkpt><trkpt lat="40.64101282649044" lon="14.899353327947841"><ele>38.5</ele><time>2026-05-02T08:39:14.999Z</time></trkpt><trkpt lat="40.64085017186067" lon="14.899717535547836"><ele>39.0</ele><time>2026-05-02T08:39:15.999Z</time></trkpt><trkpt lat="40.640688011133136" lon="14.900078549773879"><ele>39.5</ele><time>2026-05-02T08:39:16.999Z</time></trkpt><trkpt lat="40.64052604295862" lon="14.900439210650383"><ele>40.0</ele><time>2026-05-02T08:39:17.999Z</time></trkpt><trkpt lat="40.64036271059789" lon="14.900797608596951"><ele>39.5</ele><time>2026-05-02T08:39:18.999Z</time></trkpt><trkpt lat="40.64020682146939" lon="14.90113480525773"><ele>39.0</ele><time>2026-05-02T08:39:19.999Z</time></trkpt><trkpt lat="40.64005989213626" lon="14.90145423815262"><ele>39.5</ele><time>2026-05-02T08:39:20.999Z</time></trkpt><trkpt lat="40.639921434923686" lon="14.901752168615893"><ele>40.0</ele><time>2026-05-02T08:39:21.999Z</time></trkpt><trkpt lat="40.63978796675368" lon="14.90204145942349"><ele>40.0</ele><time>2026-05-02T08:39:22.999Z</time></trkpt><trkpt lat="40.63965091968688" lon="14.902339324135955"><ele>40.0</ele><time>2026-05-02T08:39:23.999Z</time></trkpt><trkpt lat="40.63951232588169" lon="14.902644616081153"><ele>40.0</ele><time>2026-05-02T08:39:24.999Z</time></trkpt><trkpt lat="40.63937200741977" lon="14.902955986474003"><ele>40.0</ele><time>2026-05-02T08:39:25.999Z</time></trkpt><trkpt lat="40.63922650202364" lon="14.90327514191913"><ele>39.5</ele><time>2026-05-02T08:39:26.999Z</time></trkpt><trkpt lat="40.639076735665355" lon="14.903601998888764"><ele>39.0</ele><time>2026-05-02T08:39:27.999Z</time></trkpt><trkpt lat="40.6389242025322" lon="14.903934116894625"><ele>39.5</ele><time>2026-05-02T08:39:28.999Z</time></trkpt><trkpt lat="40.63876868911085" lon="14.904272475330165"><ele>40.0</ele><time>2026-05-02T08:39:29.999Z</time></trkpt><trkpt lat="40.638609642161704" lon="14.904617600496406"><ele>39.5</ele><time>2026-05-02T08:39:30.999Z</time></trkpt><trkpt lat="40.63844930328009" lon="14.904965134582566"><ele>39.0</ele><time>2026-05-02T08:39:31.999Z</time></trkpt><trkpt lat="40.63828910830808" lon="14.905318083656425"><ele>39.0</ele><time>2026-05-02T08:39:32.999Z</time></trkpt><trkpt lat="40.63812589616647" lon="14.905676865725159"><ele>39.0</ele><time>2026-05-02T08:39:33.999Z</time></trkpt><trkpt lat="40.63796203401511" lon="14.906039454291806"><ele>38.5</ele><time>2026-05-02T08:39:34.999Z</time></trkpt><trkpt lat="40.637799703489996" lon="14.906408213794185"><ele>38.0</ele><time>2026-05-02T08:39:35.999Z</time></trkpt><trkpt lat="40.63764024715652" lon="14.906780097135092"><ele>39.0</ele><time>2026-05-02T08:39:36.999Z</time></trkpt><trkpt lat="40.637481232453915" lon="14.907155993904192"><ele>40.0</ele><time>2026-05-02T08:39:37.999Z</time></trkpt><trkpt lat="40.637326774290834" lon="14.907536236199165"><ele>40.0</ele><time>2026-05-02T08:39:38.999Z</time></trkpt><trkpt lat="40.63717804573911" lon="14.90792266262377"><ele>40.0</ele><time>2026-05-02T08:39:39.999Z</time></trkpt><trkpt lat="40.63703371302146" lon="14.908314130418464"><ele>39.0</ele><time>2026-05-02T08:39:40.999Z</time></trkpt><trkpt lat="40.63689020714652" lon="14.908705772777333"><ele>38.0</ele><time>2026-05-02T08:39:41.999Z</time></trkpt><trkpt lat="40.636749796185725" lon="14.909102055960625"><ele>37.0</ele><time>2026-05-02T08:39:42.999Z</time></trkpt><trkpt lat="40.636611069222056" lon="14.909499414827541"><ele>36.0</ele><time>2026-05-02T08:39:43.999Z</time></trkpt><trkpt lat="40.63647392484323" lon="14.909894703312329"><ele>36.5</ele><time>2026-05-02T08:39:44.999Z</time></trkpt><trkpt lat="40.636340326195175" lon="14.910293689927823"><ele>37.0</ele><time>2026-05-02T08:39:45.999Z</time></trkpt><trkpt lat="40.63620739689534" lon="14.910694596313295"><ele>38.0</ele><time>2026-05-02T08:39:46.999Z</time></trkpt><trkpt lat="40.63607221582726" lon="14.911100552531442"><ele>39.0</ele><time>2026-05-02T08:39:47.999Z</time></trkpt><trkpt lat="40.63593612899336" lon="14.91150938842225"><ele>39.0</ele><time>2026-05-02T08:39:48.999Z</time></trkpt><trkpt lat="40.635801190637565" lon="14.911913975978258"><ele>39.0</ele><time>2026-05-02T08:39:49.999Z</time></trkpt><trkpt lat="40.635669096276466" lon="14.912313492375528"><ele>38.5</ele><time>2026-05-02T08:39:50.999Z</time></trkpt><trkpt lat="40.63553661681188" lon="14.912712470565253"><ele>38.0</ele><time>2026-05-02T08:39:51.999Z</time></trkpt><trkpt lat="40.635405282457086" lon="14.913109134637274"><ele>39.0</ele><time>2026-05-02T08:39:52.999Z</time></trkpt><trkpt lat="40.635276061783365" lon="14.913501180567707"><ele>40.0</ele><time>2026-05-02T08:39:53.999Z</time></trkpt><trkpt lat="40.63514733522708" lon="14.913891676250534"><ele>41.0</ele><time>2026-05-02T08:39:54.999Z</time></trkpt><trkpt lat="40.63501791315268" lon="14.914281108898752"><ele>42.0</ele><time>2026-05-02T08:39:55.999Z</time></trkpt><trkpt lat="40.63488958992778" lon="14.914666222180967"><ele>42.0</ele><time>2026-05-02T08:39:56.999Z</time></trkpt><trkpt lat="40.63475893612639" lon="14.915053211265038"><ele>42.0</ele><time>2026-05-02T08:39:57.999Z</time></trkpt><trkpt lat="40.63463178032792" lon="14.915438973513556"><ele>42.0</ele><time>2026-05-02T08:39:58.999Z</time></trkpt><trkpt lat="40.63450611559442" lon="14.915813844989097"><ele>42.0</ele><time>2026-05-02T08:39:59.999Z</time></trkpt><trkpt lat="40.63438128603537" lon="14.916189529581246"><ele>42.0</ele><time>2026-05-02T08:40:00.999Z</time></trkpt><trkpt lat="40.634256415000195" lon="14.916566286964011"><ele>42.0</ele><time>2026-05-02T08:40:01.999Z</time></trkpt><trkpt lat="40.63413537466127" lon="14.916932929362083"><ele>43.0</ele><time>2026-05-02T08:40:02.999Z</time></trkpt><trkpt lat="40.63401245644126" lon="14.917301328678342"><ele>44.0</ele><time>2026-05-02T08:40:03.999Z</time></trkpt><trkpt lat="40.6338869363373" lon="14.917678950766383"><ele>44.5</ele><time>2026-05-02T08:40:04.999Z</time></trkpt><trkpt lat="40.633757315053295" lon="14.918070850147826"><ele>45.0</ele><time>2026-05-02T08:40:05.999Z</time></trkpt><trkpt lat="40.633621602755234" lon="14.918478487191704"><ele>46.0</ele><time>2026-05-02T08:40:06.999Z</time></trkpt><trkpt lat="40.63348538597737" lon="14.918889673627291"><ele>47.0</ele><time>2026-05-02T08:40:07.999Z</time></trkpt><trkpt lat="40.63334982579164" lon="14.919301855357693"><ele>47.0</ele><time>2026-05-02T08:40:08.998Z</time></trkpt><trkpt lat="40.63321514983869" lon="14.919711133814495"><ele>47.0</ele><time>2026-05-02T08:40:09.998Z</time></trkpt><trkpt lat="40.63308150899909" lon="14.920115657951039"><ele>48.0</ele><time>2026-05-02T08:40:10.998Z</time></trkpt><trkpt lat="40.63294506200018" lon="14.92051801738756"><ele>49.0</ele><time>2026-05-02T08:40:11.998Z</time></trkpt><trkpt lat="40.63281021248806" lon="14.920919397438086"><ele>48.5</ele><time>2026-05-02T08:40:12.998Z</time></trkpt><trkpt lat="40.6326739024672" lon="14.9213190695174"><ele>48.0</ele><time>2026-05-02T08:40:13.998Z</time></trkpt><trkpt lat="40.63253810194679" lon="14.921720949498656"><ele>49.0</ele><time>2026-05-02T08:40:14.998Z</time></trkpt><trkpt lat="40.63240565671499" lon="14.92211998734994"><ele>50.0</ele><time>2026-05-02T08:40:15.998Z</time></trkpt><trkpt lat="40.63227374295699" lon="14.922518806818232"><ele>51.0</ele><time>2026-05-02T08:40:16.998Z</time></trkpt><trkpt lat="40.63214174253897" lon="14.922915536593445"><ele>52.0</ele><time>2026-05-02T08:40:17.998Z</time></trkpt><trkpt lat="40.632008741978915" lon="14.923311962445764"><ele>51.0</ele><time>2026-05-02T08:40:18.998Z</time></trkpt><trkpt lat="40.63187628693851" lon="14.923708080778649"><ele>50.0</ele><time>2026-05-02T08:40:19.998Z</time></trkpt><trkpt lat="40.63174700081171" lon="14.924097776962894"><ele>50.5</ele><time>2026-05-02T08:40:20.998Z</time></trkpt><trkpt lat="40.63162077874395" lon="14.924480790351378"><ele>51.0</ele><time>2026-05-02T08:40:21.998Z</time></trkpt><trkpt lat="40.631493742777515" lon="14.924862612278162"><ele>52.0</ele><time>2026-05-02T08:40:22.998Z</time></trkpt><trkpt lat="40.631368249310384" lon="14.925240812355344"><ele>53.0</ele><time>2026-05-02T08:40:23.998Z</time></trkpt><trkpt lat="40.631241947048174" lon="14.925623179553474"><ele>53.0</ele><time>2026-05-02T08:40:24.998Z</time></trkpt><trkpt lat="40.63111430603521" lon="14.926006080979374"><ele>53.0</ele><time>2026-05-02T08:40:25.998Z</time></trkpt><trkpt lat="40.63098756404471" lon="14.926387506857752"><ele>54.0</ele><time>2026-05-02T08:40:26.998Z</time></trkpt><trkpt lat="40.63085899707571" lon="14.92676905889097"><ele>55.0</ele><time>2026-05-02T08:40:27.998Z</time></trkpt><trkpt lat="40.63072947302275" lon="14.927153824490402"><ele>55.0</ele><time>2026-05-02T08:40:28.998Z</time></trkpt><trkpt lat="40.63060085208302" lon="14.927538370720312"><ele>55.0</ele><time>2026-05-02T08:40:29.998Z</time></trkpt><trkpt lat="40.63047273746734" lon="14.927927524157901"><ele>55.5</ele><time>2026-05-02T08:40:30.998Z</time></trkpt><trkpt lat="40.630341212581236" lon="14.928327916838057"><ele>56.0</ele><time>2026-05-02T08:40:31.998Z</time></trkpt><trkpt lat="40.63020678490505" lon="14.928736093952592"><ele>56.5</ele><time>2026-05-02T08:40:32.998Z</time></trkpt><trkpt lat="40.630071810297274" lon="14.929145145192338"><ele>57.0</ele><time>2026-05-02T08:40:33.998Z</time></trkpt><trkpt lat="40.629935137910294" lon="14.929555494661724"><ele>58.0</ele><time>2026-05-02T08:40:34.998Z</time></trkpt><trkpt lat="40.62980038272973" lon="14.929961478603932"><ele>59.0</ele><time>2026-05-02T08:40:35.998Z</time></trkpt><trkpt lat="40.6296674375604" lon="14.9303653425475"><ele>59.0</ele><time>2026-05-02T08:40:36.998Z</time></trkpt><trkpt lat="40.629537627351425" lon="14.930764301519936"><ele>59.0</ele><time>2026-05-02T08:40:37.998Z</time></trkpt><trkpt lat="40.62940900891359" lon="14.9311664828136"><ele>59.0</ele><time>2026-05-02T08:40:38.998Z</time></trkpt><trkpt lat="40.629285857896804" lon="14.931567912680118"><ele>59.0</ele><time>2026-05-02T08:40:39.998Z</time></trkpt><trkpt lat="40.62916744176945" lon="14.931967980008967"><ele>59.0</ele><time>2026-05-02T08:40:40.998Z</time></trkpt><trkpt lat="40.62905305894553" lon="14.932373117237622"><ele>59.0</ele><time>2026-05-02T08:40:42Z</time></trkpt><trkpt lat="40.62894657906461" lon="14.93277549908228"><ele>58.5</ele><time>2026-05-02T08:40:43Z</time></trkpt><trkpt lat="40.62884984616495" lon="14.933179333363084"><ele>58.0</ele><time>2026-05-02T08:40:44Z</time></trkpt><trkpt lat="40.62876339703071" lon="14.933584752534443"><ele>58.0</ele><time>2026-05-02T08:40:45Z</time></trkpt><trkpt lat="40.62868670623449" lon="14.93399356323931"><ele>58.0</ele><time>2026-05-02T08:40:46Z</time></trkpt><trkpt lat="40.628616171293494" lon="14.934402056573365"><ele>58.0</ele><time>2026-05-02T08:40:47Z</time></trkpt><trkpt lat="40.62855222943127" lon="14.934811421468243"><ele>58.0</ele><time>2026-05-02T08:40:48Z</time></trkpt><trkpt lat="40.62849450264803" lon="14.935226404586256"><ele>58.0</ele><time>2026-05-02T08:40:49Z</time></trkpt><trkpt lat="40.62844272007253" lon="14.935646009637724"><ele>58.0</ele><time>2026-05-02T08:40:50Z</time></trkpt><trkpt lat="40.62839960593411" lon="14.936067322604673"><ele>59.0</ele><time>2026-05-02T08:40:51Z</time></trkpt><trkpt lat="40.62836365718888" lon="14.936488915314694"><ele>60.0</ele><time>2026-05-02T08:40:52Z</time></trkpt><trkpt lat="40.628333858126865" lon="14.936913476955112"><ele>60.0</ele><time>2026-05-02T08:40:53Z</time></trkpt><trkpt lat="40.62830980870079" lon="14.937342753689311"><ele>60.0</ele><time>2026-05-02T08:40:54Z</time></trkpt><trkpt lat="40.62829009988552" lon="14.937777349659328"><ele>61.5</ele><time>2026-05-02T08:40:55Z</time></trkpt><trkpt lat="40.62827147295663" lon="14.938215340359008"><ele>63.0</ele><time>2026-05-02T08:40:56Z</time></trkpt><trkpt lat="40.62825052761759" lon="14.938656025961478"><ele>63.5</ele><time>2026-05-02T08:40:57Z</time></trkpt><trkpt lat="40.628229292892044" lon="14.939093236839554"><ele>64.0</ele><time>2026-05-02T08:40:57.999Z</time></trkpt><trkpt lat="40.62820769199745" lon="14.939532985308652"><ele>64.0</ele><time>2026-05-02T08:40:58.999Z</time></trkpt><trkpt lat="40.62818476508968" lon="14.939970438766467"><ele>64.0</ele><time>2026-05-02T08:40:59.999Z</time></trkpt><trkpt lat="40.628160392127754" lon="14.940403066201013"><ele>64.0</ele><time>2026-05-02T08:41:00.999Z</time></trkpt><trkpt lat="40.62813142772061" lon="14.940838018845069"><ele>64.0</ele><time>2026-05-02T08:41:01.999Z</time></trkpt><trkpt lat="40.628096097517016" lon="14.941275536298482"><ele>64.5</ele><time>2026-05-02T08:41:02.999Z</time></trkpt><trkpt lat="40.628054262394805" lon="14.941708928761921"><ele>65.0</ele><time>2026-05-02T08:41:03.999Z</time></trkpt><trkpt lat="40.628005479919" lon="14.942136554799841"><ele>65.0</ele><time>2026-05-02T08:41:04.999Z</time></trkpt><trkpt lat="40.627949935536876" lon="14.942558040810043"><ele>65.0</ele><time>2026-05-02T08:41:05.999Z</time></trkpt><trkpt lat="40.6278829643582" lon="14.942971178496524"><ele>64.5</ele><time>2026-05-02T08:41:06.999Z</time></trkpt><trkpt lat="40.62780836063483" lon="14.943375318842524"><ele>64.0</ele><time>2026-05-02T08:41:07.999Z</time></trkpt><trkpt lat="40.62772942609096" lon="14.94377682252881"><ele>63.5</ele><time>2026-05-02T08:41:08.999Z</time></trkpt><trkpt lat="40.62764006082103" lon="14.94417767744118"><ele>63.0</ele><time>2026-05-02T08:41:09.999Z</time></trkpt><trkpt lat="40.62754287692038" lon="14.944579349267718"><ele>63.0</ele><time>2026-05-02T08:41:10.999Z</time></trkpt><trkpt lat="40.62743345236363" lon="14.944980188917295"><ele>63.0</ele><time>2026-05-02T08:41:11.999Z</time></trkpt><trkpt lat="40.62731590007874" lon="14.945379778546972"><ele>63.0</ele><time>2026-05-02T08:41:12.999Z</time></trkpt><trkpt lat="40.62719487847593" lon="14.945772970690383"><ele>63.0</ele><time>2026-05-02T08:41:13.999Z</time></trkpt><trkpt lat="40.627067322714474" lon="14.946162940642916"><ele>62.5</ele><time>2026-05-02T08:41:14.999Z</time></trkpt><trkpt lat="40.626933786505326" lon="14.94655022499175"><ele>62.0</ele><time>2026-05-02T08:41:15.999Z</time></trkpt><trkpt lat="40.626791686095835" lon="14.946939125986221"><ele>61.5</ele><time>2026-05-02T08:41:16.999Z</time></trkpt><trkpt lat="40.62664118747411" lon="14.947335644571274"><ele>61.0</ele><time>2026-05-02T08:41:17.999Z</time></trkpt><trkpt lat="40.626481702244156" lon="14.947752737507782"><ele>61.0</ele><time>2026-05-02T08:41:18.999Z</time></trkpt><trkpt lat="40.626321188266964" lon="14.948172739005376"><ele>61.0</ele><time>2026-05-02T08:41:19.999Z</time></trkpt><trkpt lat="40.626161839818714" lon="14.948584231751365"><ele>60.5</ele><time>2026-05-02T08:41:20.999Z</time></trkpt><trkpt lat="40.62600219112839" lon="14.948980924778933"><ele>60.0</ele><time>2026-05-02T08:41:21.999Z</time></trkpt><trkpt lat="40.62584604486627" lon="14.949357032138924"><ele>60.0</ele><time>2026-05-02T08:41:22.999Z</time></trkpt><trkpt lat="40.62568791557535" lon="14.949745576679918"><ele>60.0</ele><time>2026-05-02T08:41:23.999Z</time></trkpt><trkpt lat="40.625521498723906" lon="14.95016567329067"><ele>60.0</ele><time>2026-05-02T08:41:24.999Z</time></trkpt><trkpt lat="40.62534728600627" lon="14.950609089661835"><ele>60.0</ele><time>2026-05-02T08:41:25.999Z</time></trkpt><trkpt lat="40.62517269319241" lon="14.951054272796048"><ele>61.0</ele><time>2026-05-02T08:41:26.999Z</time></trkpt><trkpt lat="40.62500330099744" lon="14.951489226018417"><ele>62.0</ele><time>2026-05-02T08:41:27.999Z</time></trkpt><trkpt lat="40.62483871305486" lon="14.951910764996857"><ele>64.0</ele><time>2026-05-02T08:41:28.999Z</time></trkpt><trkpt lat="40.624673054320894" lon="14.952326284566674"><ele>66.0</ele><time>2026-05-02T08:41:29.999Z</time></trkpt><trkpt lat="40.62450841181121" lon="14.952735996198642"><ele>66.0</ele><time>2026-05-02T08:41:30.999Z</time></trkpt><trkpt lat="40.624343965437546" lon="14.953141811944679"><ele>66.0</ele><time>2026-05-02T08:41:31.999Z</time></trkpt><trkpt lat="40.624184986994536" lon="14.953560043439523"><ele>66.0</ele><time>2026-05-02T08:41:32.999Z</time></trkpt><trkpt lat="40.62402786600762" lon="14.953970978170563"><ele>66.0</ele><time>2026-05-02T08:41:33.999Z</time></trkpt><trkpt lat="40.62387499070291" lon="14.954376691317837"><ele>65.5</ele><time>2026-05-02T08:41:34.999Z</time></trkpt><trkpt lat="40.62372477780762" lon="14.954779555831935"><ele>65.0</ele><time>2026-05-02T08:41:35.999Z</time></trkpt><trkpt lat="40.62357694478148" lon="14.955186240196538"><ele>65.0</ele><time>2026-05-02T08:41:36.999Z</time></trkpt><trkpt lat="40.623433435324245" lon="14.955596732150441"><ele>65.0</ele><time>2026-05-02T08:41:37.999Z</time></trkpt><trkpt lat="40.623291505324104" lon="14.956010798920188"><ele>65.0</ele><time>2026-05-02T08:41:38.999Z</time></trkpt><trkpt lat="40.62315312240179" lon="14.956429482732526"><ele>65.0</ele><time>2026-05-02T08:41:39.999Z</time></trkpt><trkpt lat="40.6230201159143" lon="14.956852482426582"><ele>65.0</ele><time>2026-05-02T08:41:40.999Z</time></trkpt><trkpt lat="40.622891493338585" lon="14.957277567461889"><ele>65.0</ele><time>2026-05-02T08:41:41.999Z</time></trkpt><trkpt lat="40.62276634549083" lon="14.957699134557265"><ele>63.5</ele><time>2026-05-02T08:41:42.999Z</time></trkpt><trkpt lat="40.62264379961049" lon="14.95811644526925"><ele>62.0</ele><time>2026-05-02T08:41:43.999Z</time></trkpt><trkpt lat="40.62252760458589" lon="14.958530525487355"><ele>61.5</ele><time>2026-05-02T08:41:44.999Z</time></trkpt><trkpt lat="40.622414666009384" lon="14.958943078831007"><ele>61.0</ele><time>2026-05-02T08:41:45.999Z</time></trkpt><trkpt lat="40.62230195910034" lon="14.95935367125253"><ele>61.0</ele><time>2026-05-02T08:41:46.999Z</time></trkpt><trkpt lat="40.62219120500295" lon="14.959761452602976"><ele>61.0</ele><time>2026-05-02T08:41:47.999Z</time></trkpt><trkpt lat="40.62208314840558" lon="14.960162216826959"><ele>59.5</ele><time>2026-05-02T08:41:48.999Z</time></trkpt><trkpt lat="40.62197902315421" lon="14.96055572834804"><ele>58.0</ele><time>2026-05-02T08:41:49.999Z</time></trkpt><trkpt lat="40.621874311870975" lon="14.960944893958828"><ele>58.0</ele><time>2026-05-02T08:41:50.999Z</time></trkpt><trkpt lat="40.62176908112622" lon="14.961332646059553"><ele>58.0</ele><time>2026-05-02T08:41:51.999Z</time></trkpt><trkpt lat="40.62166494953188" lon="14.961721788550545"><ele>57.5</ele><time>2026-05-02T08:41:52.999Z</time></trkpt><trkpt lat="40.621562517457306" lon="14.96210984663799"><ele>57.0</ele><time>2026-05-02T08:41:53.999Z</time></trkpt><trkpt lat="40.62146039542258" lon="14.962509463069912"><ele>58.0</ele><time>2026-05-02T08:41:54.999Z</time></trkpt><trkpt lat="40.62135438292196" lon="14.962925435572108"><ele>59.0</ele><time>2026-05-02T08:41:55.999Z</time></trkpt><trkpt lat="40.621252122980145" lon="14.96334345645856"><ele>58.5</ele><time>2026-05-02T08:41:56.999Z</time></trkpt><trkpt lat="40.621157831913166" lon="14.963755381008813"><ele>58.0</ele><time>2026-05-02T08:41:57.999Z</time></trkpt><trkpt lat="40.62106913904851" lon="14.964168317203931"><ele>58.5</ele><time>2026-05-02T08:41:58.999Z</time></trkpt><trkpt lat="40.62098481584298" lon="14.964585647915486"><ele>59.0</ele><time>2026-05-02T08:41:59.999Z</time></trkpt><trkpt lat="40.620908808852136" lon="14.965003958220416"><ele>60.0</ele><time>2026-05-02T08:42:00.999Z</time></trkpt><trkpt lat="40.620841219334125" lon="14.965427302930046"><ele>61.0</ele><time>2026-05-02T08:42:01.999Z</time></trkpt><trkpt lat="40.620781860462294" lon="14.965854151907621"><ele>62.0</ele><time>2026-05-02T08:42:02.999Z</time></trkpt><trkpt lat="40.620730936993" lon="14.966280179612264"><ele>63.0</ele><time>2026-05-02T08:42:03.999Z</time></trkpt><trkpt lat="40.62068593573911" lon="14.966712464918903"><ele>63.5</ele><time>2026-05-02T08:42:04.999Z</time></trkpt><trkpt lat="40.62064763021451" lon="14.967143178640042"><ele>64.0</ele><time>2026-05-02T08:42:05.999Z</time></trkpt><trkpt lat="40.62061693921166" lon="14.967578775421478"><ele>64.0</ele><time>2026-05-02T08:42:06.999Z</time></trkpt><trkpt lat="40.62059092678952" lon="14.968013938656929"><ele>64.0</ele><time>2026-05-02T08:42:07.999Z</time></trkpt><trkpt lat="40.62057143477437" lon="14.968448300676684"><ele>64.0</ele><time>2026-05-02T08:42:08.999Z</time></trkpt><trkpt lat="40.620554707634405" lon="14.96888292036606"><ele>64.0</ele><time>2026-05-02T08:42:09.999Z</time></trkpt><trkpt lat="40.62054120541256" lon="14.969317007511497"><ele>65.5</ele><time>2026-05-02T08:42:10.999Z</time></trkpt><trkpt lat="40.620527988031995" lon="14.969753747050888"><ele>67.0</ele><time>2026-05-02T08:42:11.998Z</time></trkpt><trkpt lat="40.62051616981251" lon="14.970191151073541"><ele>67.5</ele><time>2026-05-02T08:42:12.998Z</time></trkpt><trkpt lat="40.62050217376484" lon="14.9706302913295"><ele>68.0</ele><time>2026-05-02T08:42:13.998Z</time></trkpt><trkpt lat="40.62048388164742" lon="14.971069453892392"><ele>66.5</ele><time>2026-05-02T08:42:14.998Z</time></trkpt><trkpt lat="40.62046517672998" lon="14.971508947961388"><ele>65.0</ele><time>2026-05-02T08:42:15.998Z</time></trkpt><trkpt lat="40.6204441412148" lon="14.971949222851299"><ele>65.0</ele><time>2026-05-02T08:42:16.998Z</time></trkpt><trkpt lat="40.620422983790796" lon="14.972386755770243"><ele>65.0</ele><time>2026-05-02T08:42:17.998Z</time></trkpt><trkpt lat="40.62039749684329" lon="14.972825307007916"><ele>67.0</ele><time>2026-05-02T08:42:18.998Z</time></trkpt><trkpt lat="40.62036521387118" lon="14.973262970750671"><ele>69.0</ele><time>2026-05-02T08:42:19.998Z</time></trkpt><trkpt lat="40.62031938740444" lon="14.973700022883726"><ele>69.0</ele><time>2026-05-02T08:42:20.998Z</time></trkpt><trkpt lat="40.62025815263875" lon="14.974131332746023"><ele>69.0</ele><time>2026-05-02T08:42:21.998Z</time></trkpt><trkpt lat="40.620183215545275" lon="14.97455611540401"><ele>68.5</ele><time>2026-05-02T08:42:22.998Z</time></trkpt><trkpt lat="40.62009471383456" lon="14.974977001157654"><ele>68.0</ele><time>2026-05-02T08:42:23.998Z</time></trkpt><trkpt lat="40.619997135971744" lon="14.975395416297383"><ele>69.5</ele><time>2026-05-02T08:42:24.998Z</time></trkpt><trkpt lat="40.61988608166878" lon="14.975806831974742"><ele>71.0</ele><time>2026-05-02T08:42:25.998Z</time></trkpt><trkpt lat="40.61976791394088" lon="14.976215904459544"><ele>71.0</ele><time>2026-05-02T08:42:26.998Z</time></trkpt><trkpt lat="40.61963587565523" lon="14.976621659058079"><ele>71.0</ele><time>2026-05-02T08:42:27.998Z</time></trkpt><trkpt lat="40.619500161550604" lon="14.977026156256825"><ele>71.0</ele><time>2026-05-02T08:42:28.998Z</time></trkpt><trkpt lat="40.619353409105344" lon="14.977420381491838"><ele>71.0</ele><time>2026-05-02T08:42:29.998Z</time></trkpt><trkpt lat="40.61918709530545" lon="14.977795370547195"><ele>71.0</ele><time>2026-05-02T08:42:30.998Z</time></trkpt><trkpt lat="40.61901815973589" lon="14.978176344041515"><ele>71.0</ele><time>2026-05-02T08:42:31.998Z</time></trkpt><trkpt lat="40.61884209238985" lon="14.978550371093487"><ele>71.0</ele><time>2026-05-02T08:42:32.998Z</time></trkpt><trkpt lat="40.6186656186608" lon="14.978921852818544"><ele>71.0</ele><time>2026-05-02T08:42:33.998Z</time></trkpt><trkpt lat="40.61848976752151" lon="14.979297116712468"><ele>71.0</ele><time>2026-05-02T08:42:34.998Z</time></trkpt><trkpt lat="40.61831822909729" lon="14.979675937594996"><ele>71.0</ele><time>2026-05-02T08:42:35.998Z</time></trkpt><trkpt lat="40.61815410589754" lon="14.98006148258615"><ele>70.5</ele><time>2026-05-02T08:42:36.998Z</time></trkpt><trkpt lat="40.61800414982466" lon="14.980452527778601"><ele>70.0</ele><time>2026-05-02T08:42:37.998Z</time></trkpt><trkpt lat="40.61787508467879" lon="14.980846854061896"><ele>70.0</ele><time>2026-05-02T08:42:38.998Z</time></trkpt><trkpt lat="40.61776825726405" lon="14.98123712002703"><ele>70.0</ele><time>2026-05-02T08:42:39.998Z</time></trkpt><trkpt lat="40.617680485902476" lon="14.981629031560635"><ele>71.0</ele><time>2026-05-02T08:42:40.998Z</time></trkpt><trkpt lat="40.61760466653132" lon="14.982028582317971"><ele>72.0</ele><time>2026-05-02T08:42:41.998Z</time></trkpt><trkpt lat="40.61753907516527" lon="14.982446048418273"><ele>72.5</ele><time>2026-05-02T08:42:42.998Z</time></trkpt><trkpt lat="40.61748116295286" lon="14.982869277581544"><ele>73.0</ele><time>2026-05-02T08:42:43.998Z</time></trkpt><trkpt lat="40.61743038872055" lon="14.98329283498162"><ele>71.5</ele><time>2026-05-02T08:42:44.998Z</time></trkpt><trkpt lat="40.61738135882523" lon="14.983717331517713"><ele>70.0</ele><time>2026-05-02T08:42:45.998Z</time></trkpt><trkpt lat="40.61733294219154" lon="14.984144830466958"><ele>69.5</ele><time>2026-05-02T08:42:46.998Z</time></trkpt><trkpt lat="40.61728303749536" lon="14.984570857718797"><ele>69.0</ele><time>2026-05-02T08:42:47.999Z</time></trkpt><trkpt lat="40.6172238721886" lon="14.98498523160531"><ele>67.5</ele><time>2026-05-02T08:42:48.999Z</time></trkpt><trkpt lat="40.617155164971834" lon="14.985387757881913"><ele>66.0</ele><time>2026-05-02T08:42:49.999Z</time></trkpt><trkpt lat="40.61707797545683" lon="14.985782611792388"><ele>67.5</ele><time>2026-05-02T08:42:50.999Z</time></trkpt><trkpt lat="40.61699171318403" lon="14.986172987253116"><ele>69.0</ele><time>2026-05-02T08:42:52Z</time></trkpt><trkpt lat="40.61688919988821" lon="14.98655514832214"><ele>71.5</ele><time>2026-05-02T08:42:52.999Z</time></trkpt><trkpt lat="40.61677167087692" lon="14.986930019769305"><ele>74.0</ele><time>2026-05-02T08:42:53.999Z</time></trkpt><trkpt lat="40.61664377968615" lon="14.987292118152222"><ele>77.0</ele><time>2026-05-02T08:42:55Z</time></trkpt><trkpt lat="40.61650766696487" lon="14.987644300759714"><ele>80.0</ele><time>2026-05-02T08:42:55.999Z</time></trkpt><trkpt lat="40.61636412228332" lon="14.987983063508324"><ele>80.0</ele><time>2026-05-02T08:42:56.999Z</time></trkpt><trkpt lat="40.61621279805641" lon="14.988308661057847"><ele>80.0</ele><time>2026-05-02T08:42:58Z</time></trkpt><trkpt lat="40.6160571320755" lon="14.988617980967849"><ele>82.0</ele><time>2026-05-02T08:42:58.999Z</time></trkpt><trkpt lat="40.61589457634971" lon="14.988923323125832"><ele>84.0</ele><time>2026-05-02T08:43:00Z</time></trkpt><trkpt lat="40.615723188575316" lon="14.989237125084575"><ele>88.5</ele><time>2026-05-02T08:43:00.999Z</time></trkpt><trkpt lat="40.61554494069428" lon="14.989565121075511"><ele>93.0</ele><time>2026-05-02T08:43:01.999Z</time></trkpt><trkpt lat="40.61535748092819" lon="14.989903850765844"><ele>92.0</ele><time>2026-05-02T08:43:02.999Z</time></trkpt><trkpt lat="40.61516638436941" lon="14.990245288885856"><ele>91.0</ele><time>2026-05-02T08:43:03.999Z</time></trkpt><trkpt lat="40.6149701812457" lon="14.99059604941011"><ele>99.5</ele><time>2026-05-02T08:43:04.999Z</time></trkpt><trkpt lat="40.61477513037688" lon="14.990945214940812"><ele>108.0</ele><time>2026-05-02T08:43:05.999Z</time></trkpt><trkpt lat="40.61457530972258" lon="14.991294289239828"><ele>105.5</ele><time>2026-05-02T08:43:06.999Z</time></trkpt><trkpt lat="40.614364819433334" lon="14.991635814946168"><ele>103.0</ele><time>2026-05-02T08:43:07.999Z</time></trkpt><trkpt lat="40.6141448485706" lon="14.991967411241601"><ele>103.0</ele><time>2026-05-02T08:43:08.999Z</time></trkpt><trkpt lat="40.61391218053832" lon="14.992284174626812"><ele>103.0</ele><time>2026-05-02T08:43:09.999Z</time></trkpt><trkpt lat="40.61367175915264" lon="14.99258764555534"><ele>100.5</ele><time>2026-05-02T08:43:10.999Z</time></trkpt><trkpt lat="40.61342440910624" lon="14.992885018839493"><ele>98.0</ele><time>2026-05-02T08:43:11.999Z</time></trkpt><trkpt lat="40.61317122802748" lon="14.993175493222994"><ele>96.5</ele><time>2026-05-02T08:43:12.999Z</time></trkpt><trkpt lat="40.61291225665685" lon="14.99346438671492"><ele>95.0</ele><time>2026-05-02T08:43:13.999Z</time></trkpt><trkpt lat="40.6126535945089" lon="14.993746287766813"><ele>95.0</ele><time>2026-05-02T08:43:14.999Z</time></trkpt><trkpt lat="40.61239590932834" lon="14.99403201116746"><ele>95.0</ele><time>2026-05-02T08:43:15.999Z</time></trkpt><trkpt lat="40.6121427824411" lon="14.994321412697852"><ele>93.0</ele><time>2026-05-02T08:43:16.999Z</time></trkpt><trkpt lat="40.61188625640432" lon="14.99461147679257"><ele>91.0</ele><time>2026-05-02T08:43:17.999Z</time></trkpt><trkpt lat="40.61162952805741" lon="14.99489527254405"><ele>88.5</ele><time>2026-05-02T08:43:18.999Z</time></trkpt><trkpt lat="40.6113687141351" lon="14.995176524338092"><ele>86.0</ele><time>2026-05-02T08:43:19.999Z</time></trkpt><trkpt lat="40.611102395759666" lon="14.995446976356716"><ele>86.0</ele><time>2026-05-02T08:43:20.999Z</time></trkpt><trkpt lat="40.61082873934987" lon="14.995699114003557"><ele>86.0</ele><time>2026-05-02T08:43:21.999Z</time></trkpt><trkpt lat="40.610547888173315" lon="14.995931765417488"><ele>84.0</ele><time>2026-05-02T08:43:22.999Z</time></trkpt><trkpt lat="40.61025851487151" lon="14.996151279641142"><ele>82.0</ele><time>2026-05-02T08:43:23.999Z</time></trkpt><trkpt lat="40.60996336660058" lon="14.996356013992784"><ele>82.0</ele><time>2026-05-02T08:43:24.999Z</time></trkpt><trkpt lat="40.6096626201006" lon="14.996552064019207"><ele>82.0</ele><time>2026-05-02T08:43:25.999Z</time></trkpt><trkpt lat="40.609360214040414" lon="14.99674409686111"><ele>82.0</ele><time>2026-05-02T08:43:26.999Z</time></trkpt><trkpt lat="40.60905773964243" lon="14.996938703874196"><ele>82.0</ele><time>2026-05-02T08:43:27.999Z</time></trkpt><trkpt lat="40.608756524849525" lon="14.997134710681896"><ele>82.5</ele><time>2026-05-02T08:43:28.999Z</time></trkpt><trkpt lat="40.60845969021784" lon="14.997331519726888"><ele>83.0</ele><time>2026-05-02T08:43:29.999Z</time></trkpt><trkpt lat="40.60816765483979" lon="14.99753216586096"><ele>83.0</ele><time>2026-05-02T08:43:30.999Z</time></trkpt><trkpt lat="40.60787970818967" lon="14.997739460400718"><ele>83.0</ele><time>2026-05-02T08:43:31.999Z</time></trkpt><trkpt lat="40.607596327721055" lon="14.99795652368963"><ele>82.0</ele><time>2026-05-02T08:43:32.999Z</time></trkpt><trkpt lat="40.607320270335414" lon="14.998188390614681"><ele>81.0</ele><time>2026-05-02T08:43:33.999Z</time></trkpt><trkpt lat="40.60705021371043" lon="14.998434629152602"><ele>81.0</ele><time>2026-05-02T08:43:34.999Z</time></trkpt><trkpt lat="40.60678765215945" lon="14.998695744693121"><ele>81.0</ele><time>2026-05-02T08:43:35.999Z</time></trkpt><trkpt lat="40.60653267517043" lon="14.998967404136135"><ele>81.0</ele><time>2026-05-02T08:43:36.999Z</time></trkpt><trkpt lat="40.60628004079795" lon="14.9992466773096"><ele>81.0</ele><time>2026-05-02T08:43:37.999Z</time></trkpt><trkpt lat="40.6060268199119" lon="14.999528669930207"><ele>81.5</ele><time>2026-05-02T08:43:38.999Z</time></trkpt><trkpt lat="40.60577126020314" lon="14.999809174130542"><ele>82.0</ele><time>2026-05-02T08:43:39.999Z</time></trkpt><trkpt lat="40.605513679883046" lon="15.000089075969473"><ele>80.5</ele><time>2026-05-02T08:43:40.999Z</time></trkpt><trkpt lat="40.60525266527794" lon="15.000370319647809"><ele>79.0</ele><time>2026-05-02T08:43:41.999Z</time></trkpt><trkpt lat="40.60499133273896" lon="15.000648636627885"><ele>79.0</ele><time>2026-05-02T08:43:42.999Z</time></trkpt><trkpt lat="40.60472987892739" lon="15.000926819029686"><ele>79.0</ele><time>2026-05-02T08:43:43.999Z</time></trkpt><trkpt lat="40.60447144632958" lon="15.001208606350243"><ele>79.0</ele><time>2026-05-02T08:43:44.999Z</time></trkpt><trkpt lat="40.60421176654993" lon="15.001492931622609"><ele>79.0</ele><time>2026-05-02T08:43:45.999Z</time></trkpt><trkpt lat="40.60395184022833" lon="15.001776866500787"><ele>79.0</ele><time>2026-05-02T08:43:46.999Z</time></trkpt><trkpt lat="40.6036928225407" lon="15.002058147613916"><ele>79.0</ele><time>2026-05-02T08:43:47.999Z</time></trkpt><trkpt lat="40.603436346868094" lon="15.002344163142862"><ele>78.0</ele><time>2026-05-02T08:43:48.999Z</time></trkpt><trkpt lat="40.60318679172165" lon="15.002635076857008"><ele>77.0</ele><time>2026-05-02T08:43:49.999Z</time></trkpt><trkpt lat="40.602942433288405" lon="15.00292949068661"><ele>76.5</ele><time>2026-05-02T08:43:50.999Z</time></trkpt><trkpt lat="40.60270694505221" lon="15.003233189609816"><ele>76.0</ele><time>2026-05-02T08:43:51.999Z</time></trkpt><trkpt lat="40.60247810270609" lon="15.003546962017499"><ele>76.0</ele><time>2026-05-02T08:43:52.999Z</time></trkpt><trkpt lat="40.60225657394554" lon="15.003869097982436"><ele>76.0</ele><time>2026-05-02T08:43:53.999Z</time></trkpt><trkpt lat="40.60204669273433" lon="15.004202538626043"><ele>73.5</ele><time>2026-05-02T08:43:54.999Z</time></trkpt><trkpt lat="40.60185136980117" lon="15.00455028532827"><ele>71.0</ele><time>2026-05-02T08:43:55.999Z</time></trkpt><trkpt lat="40.601669234236674" lon="15.00491122522675"><ele>73.5</ele><time>2026-05-02T08:43:56.999Z</time></trkpt><trkpt lat="40.60150599452073" lon="15.005284175947887"><ele>76.0</ele><time>2026-05-02T08:43:57.999Z</time></trkpt><trkpt lat="40.60136374030977" lon="15.005668376211732"><ele>74.0</ele><time>2026-05-02T08:43:58.999Z</time></trkpt><trkpt lat="40.6012356874153" lon="15.006060991008905"><ele>72.0</ele><time>2026-05-02T08:43:59.998Z</time></trkpt><trkpt lat="40.6011224108045" lon="15.006460082207077"><ele>73.5</ele><time>2026-05-02T08:44:00.998Z</time></trkpt><trkpt lat="40.601033140137126" lon="15.006876078460307"><ele>75.0</ele><time>2026-05-02T08:44:01.998Z</time></trkpt><trkpt lat="40.60095199312115" lon="15.007291511290424"><ele>76.5</ele><time>2026-05-02T08:44:02.998Z</time></trkpt><trkpt lat="40.60088493408485" lon="15.0077137503038"><ele>78.0</ele><time>2026-05-02T08:44:03.998Z</time></trkpt><trkpt lat="40.60083327707573" lon="15.00814149823225"><ele>79.5</ele><time>2026-05-02T08:44:04.998Z</time></trkpt><trkpt lat="40.600796353743284" lon="15.008573160029801"><ele>81.0</ele><time>2026-05-02T08:44:05.998Z</time></trkpt><trkpt lat="40.600776485543335" lon="15.009008624986823"><ele>81.5</ele><time>2026-05-02T08:44:06.998Z</time></trkpt><trkpt lat="40.60077192864864" lon="15.009441956322007"><ele>82.0</ele><time>2026-05-02T08:44:07.998Z</time></trkpt><trkpt lat="40.600778039947045" lon="15.009876149819368"><ele>81.0</ele><time>2026-05-02T08:44:08.998Z</time></trkpt><trkpt lat="40.60079415588237" lon="15.010311243575458"><ele>80.0</ele><time>2026-05-02T08:44:09.998Z</time></trkpt><trkpt lat="40.60081614294977" lon="15.010744134761667"><ele>81.0</ele><time>2026-05-02T08:44:10.998Z</time></trkpt><trkpt lat="40.60084180062678" lon="15.011170536741506"><ele>82.0</ele><time>2026-05-02T08:44:11.998Z</time></trkpt><trkpt lat="40.60086928273" lon="15.01158243792178"><ele>84.0</ele><time>2026-05-02T08:44:12.998Z</time></trkpt><trkpt lat="40.60090506477603" lon="15.011987432686414"><ele>86.0</ele><time>2026-05-02T08:44:13.998Z</time></trkpt><trkpt lat="40.60094586153665" lon="15.012392630358725"><ele>85.0</ele><time>2026-05-02T08:44:14.998Z</time></trkpt><trkpt lat="40.60098500990559" lon="15.01281278777141"><ele>84.0</ele><time>2026-05-02T08:44:15.998Z</time></trkpt><trkpt lat="40.60102402223412" lon="15.013236724702875"><ele>83.0</ele><time>2026-05-02T08:44:16.998Z</time></trkpt><trkpt lat="40.601067649559575" lon="15.013662243954148"><ele>82.0</ele><time>2026-05-02T08:44:17.998Z</time></trkpt><trkpt lat="40.60112000739784" lon="15.01408990480168"><ele>90.0</ele><time>2026-05-02T08:44:18.998Z</time></trkpt><trkpt lat="40.60118115764923" lon="15.0145169997441"><ele>98.0</ele><time>2026-05-02T08:44:19.998Z</time></trkpt><trkpt lat="40.601249369500074" lon="15.014944112277327"><ele>98.0</ele><time>2026-05-02T08:44:20.998Z</time></trkpt><trkpt lat="40.60132010163441" lon="15.015370386597294"><ele>98.0</ele><time>2026-05-02T08:44:21.998Z</time></trkpt><trkpt lat="40.60138848504918" lon="15.015799748125898"><ele>96.0</ele><time>2026-05-02T08:44:22.998Z</time></trkpt><trkpt lat="40.601457098753215" lon="15.016231943568917"><ele>94.0</ele><time>2026-05-02T08:44:23.998Z</time></trkpt><trkpt lat="40.60152437030424" lon="15.016665955880674"><ele>93.0</ele><time>2026-05-02T08:44:24.998Z</time></trkpt><trkpt lat="40.601593723538045" lon="15.017099973353078"><ele>92.0</ele><time>2026-05-02T08:44:25.998Z</time></trkpt><trkpt lat="40.6016646848887" lon="15.01753518481124"><ele>90.5</ele><time>2026-05-02T08:44:26.998Z</time></trkpt><trkpt lat="40.6017331845535" lon="15.017969146357418"><ele>89.0</ele><time>2026-05-02T08:44:27.999Z</time></trkpt><trkpt lat="40.601801805199884" lon="15.018403383673762"><ele>86.5</ele><time>2026-05-02T08:44:28.999Z</time></trkpt><trkpt lat="40.60187335642331" lon="15.018834703289807"><ele>84.0</ele><time>2026-05-02T08:44:29.999Z</time></trkpt><trkpt lat="40.601945581764" lon="15.0192649679143"><ele>95.5</ele><time>2026-05-02T08:44:30.999Z</time></trkpt><trkpt lat="40.60201696629244" lon="15.019694249620217"><ele>107.0</ele><time>2026-05-02T08:44:31.999Z</time></trkpt><trkpt lat="40.60208789394586" lon="15.020123192156815"><ele>107.0</ele><time>2026-05-02T08:44:32.999Z</time></trkpt><trkpt lat="40.60215895274249" lon="15.020550864739455"><ele>107.0</ele><time>2026-05-02T08:44:33.999Z</time></trkpt><trkpt lat="40.60222773670613" lon="15.020978118450452"><ele>103.0</ele><time>2026-05-02T08:44:34.999Z</time></trkpt><trkpt lat="40.60229640654441" lon="15.021405681085618"><ele>99.0</ele><time>2026-05-02T08:44:35.999Z</time></trkpt><trkpt lat="40.602363886180484" lon="15.021833040053618"><ele>94.5</ele><time>2026-05-02T08:44:36.999Z</time></trkpt><trkpt lat="40.60243061240848" lon="15.022259957005318"><ele>90.0</ele><time>2026-05-02T08:44:37.999Z</time></trkpt><trkpt lat="40.60249668000969" lon="15.022686189148374"><ele>88.0</ele><time>2026-05-02T08:44:38.999Z</time></trkpt><trkpt lat="40.60256159219572" lon="15.023113872102112"><ele>86.0</ele><time>2026-05-02T08:44:39.999Z</time></trkpt><trkpt lat="40.602626062102736" lon="15.023542685413524"><ele>86.0</ele><time>2026-05-02T08:44:40.999Z</time></trkpt><trkpt lat="40.602690913109996" lon="15.023967657047592"><ele>86.0</ele><time>2026-05-02T08:44:41.999Z</time></trkpt><trkpt lat="40.6027535714202" lon="15.024392338724294"><ele>84.0</ele><time>2026-05-02T08:44:42.999Z</time></trkpt><trkpt lat="40.60281296233771" lon="15.02481767860123"><ele>82.0</ele><time>2026-05-02T08:44:43.999Z</time></trkpt><trkpt lat="40.60286604468657" lon="15.025245896837014"><ele>85.5</ele><time>2026-05-02T08:44:44.999Z</time></trkpt><trkpt lat="40.602913062541994" lon="15.025675499935332"><ele>89.0</ele><time>2026-05-02T08:44:45.999Z</time></trkpt><trkpt lat="40.60295418875697" lon="15.026108037547106"><ele>89.0</ele><time>2026-05-02T08:44:46.999Z</time></trkpt><trkpt lat="40.602989285682995" lon="15.026543769007256"><ele>89.0</ele><time>2026-05-02T08:44:47.999Z</time></trkpt><trkpt lat="40.60301924681987" lon="15.026979369852368"><ele>91.0</ele><time>2026-05-02T08:44:48.999Z</time></trkpt><trkpt lat="40.60304831735334" lon="15.027416421678488"><ele>93.0</ele><time>2026-05-02T08:44:49.999Z</time></trkpt><trkpt lat="40.60307429944277" lon="15.027851788785288"><ele>94.5</ele><time>2026-05-02T08:44:50.999Z</time></trkpt><trkpt lat="40.603099152668015" lon="15.028280867389979"><ele>96.0</ele><time>2026-05-02T08:44:51.999Z</time></trkpt><trkpt lat="40.60312127422161" lon="15.028712717333482"><ele>97.0</ele><time>2026-05-02T08:44:52.999Z</time></trkpt><trkpt lat="40.603143544221844" lon="15.02914541624102"><ele>98.0</ele><time>2026-05-02T08:44:54.001Z</time></trkpt><trkpt lat="40.603167981668726" lon="15.029579816394476"><ele>100.0</ele><time>2026-05-02T08:44:55.001Z</time></trkpt><trkpt lat="40.603193460528374" lon="15.030015103224564"><ele>102.0</ele><time>2026-05-02T08:44:56.001Z</time></trkpt><trkpt lat="40.60322229892673" lon="15.030451899775677"><ele>101.5</ele><time>2026-05-02T08:44:57.001Z</time></trkpt><trkpt lat="40.60325941775763" lon="15.030887503134915"><ele>101.0</ele><time>2026-05-02T08:44:58.001Z</time></trkpt><trkpt lat="40.60330780603542" lon="15.03132192910886"><ele>99.5</ele><time>2026-05-02T08:44:59.001Z</time></trkpt><trkpt lat="40.60336806310703" lon="15.031755368540962"><ele>98.0</ele><time>2026-05-02T08:45:00.001Z</time></trkpt><trkpt lat="40.60343913211269" lon="15.032183365485306"><ele>95.0</ele><time>2026-05-02T08:45:01.001Z</time></trkpt><trkpt lat="40.603521067704634" lon="15.032608299981023"><ele>92.0</ele><time>2026-05-02T08:45:02.001Z</time></trkpt><trkpt lat="40.60361496195249" lon="15.03302848988243"><ele>98.5</ele><time>2026-05-02T08:45:03.001Z</time></trkpt><trkpt lat="40.60371982030599" lon="15.033442999942595"><ele>105.0</ele><time>2026-05-02T08:45:04.001Z</time></trkpt><trkpt lat="40.60383521010425" lon="15.0338535504761"><ele>100.5</ele><time>2026-05-02T08:45:05.001Z</time></trkpt><trkpt lat="40.603958334973704" lon="15.03426070597581"><ele>96.0</ele><time>2026-05-02T08:45:06.001Z</time></trkpt><trkpt lat="40.60409230966778" lon="15.03466403214922"><ele>92.0</ele><time>2026-05-02T08:45:07.001Z</time></trkpt><trkpt lat="40.604235462126624" lon="15.035062278048562"><ele>88.0</ele><time>2026-05-02T08:45:08.001Z</time></trkpt><trkpt lat="40.604380519057216" lon="15.035454474006096"><ele>96.5</ele><time>2026-05-02T08:45:09Z</time></trkpt><trkpt lat="40.60453006484667" lon="15.035844812524466"><ele>105.0</ele><time>2026-05-02T08:45:10Z</time></trkpt><trkpt lat="40.60467726833043" lon="15.036241287439521"><ele>100.0</ele><time>2026-05-02T08:45:11Z</time></trkpt><trkpt lat="40.60458715742187" lon="15.036774178564912"><ele>95.0</ele><time>2026-05-02T08:45:12Z</time></trkpt><trkpt lat="40.604724454063074" lon="15.037174745416166"><ele>91.5</ele><time>2026-05-02T08:45:13Z</time></trkpt><trkpt lat="40.604861080427334" lon="15.037573356513048"><ele>88.0</ele><time>2026-05-02T08:45:14Z</time></trkpt><trkpt lat="40.60499864254563" lon="15.037974699398063"><ele>85.5</ele><time>2026-05-02T08:45:15Z</time></trkpt><trkpt lat="40.60513488328155" lon="15.038372185095886"><ele>83.0</ele><time>2026-05-02T08:45:16Z</time></trkpt><trkpt lat="40.60527240651936" lon="15.038770042076132"><ele>91.5</ele><time>2026-05-02T08:45:17Z</time></trkpt><trkpt lat="40.605412844502936" lon="15.03916959571083"><ele>100.0</ele><time>2026-05-02T08:45:18Z</time></trkpt><trkpt lat="40.60554912670972" lon="15.039560717158134"><ele>100.0</ele><time>2026-05-02T08:45:19Z</time></trkpt><trkpt lat="40.60568926552933" lon="15.039960458926172"><ele>100.0</ele><time>2026-05-02T08:45:20Z</time></trkpt><trkpt lat="40.60583074451377" lon="15.040360101655924"><ele>94.5</ele><time>2026-05-02T08:45:21Z</time></trkpt><trkpt lat="40.60597203247016" lon="15.04075772446473"><ele>89.0</ele><time>2026-05-02T08:45:22Z</time></trkpt><trkpt lat="40.606111596502785" lon="15.041150495736197"><ele>92.5</ele><time>2026-05-02T08:45:23Z</time></trkpt><trkpt lat="40.60627331928712" lon="15.04155801308823"><ele>96.0</ele><time>2026-05-02T08:45:24Z</time></trkpt><trkpt lat="40.60644071402788" lon="15.041921918312566"><ele>96.0</ele><time>2026-05-02T08:45:25Z</time></trkpt><trkpt lat="40.6066042332985" lon="15.042262213731346"><ele>96.0</ele><time>2026-05-02T08:45:26Z</time></trkpt><trkpt lat="40.60676809810259" lon="15.042590422879858"><ele>90.5</ele><time>2026-05-02T08:45:27Z</time></trkpt><trkpt lat="40.60686819614037" lon="15.042967594851584"><ele>85.0</ele><time>2026-05-02T08:45:28Z</time></trkpt><trkpt lat="40.60703143290461" lon="15.04327200744968"><ele>91.5</ele><time>2026-05-02T08:45:29Z</time></trkpt><trkpt lat="40.607199011484155" lon="15.043564271359926"><ele>98.0</ele><time>2026-05-02T08:45:30Z</time></trkpt><trkpt lat="40.60735891488179" lon="15.043855894553467"><ele>92.0</ele><time>2026-05-02T08:45:31Z</time></trkpt><trkpt lat="40.60751209410359" lon="15.044131443760346"><ele>86.0</ele><time>2026-05-02T08:45:32Z</time></trkpt><trkpt lat="40.60766799638994" lon="15.044417180592513"><ele>79.0</ele><time>2026-05-02T08:45:33Z</time></trkpt><trkpt lat="40.60719591839703" lon="15.045443842324039"><ele>78.5</ele><time>2026-05-02T08:45:34Z</time></trkpt><trkpt lat="40.607255327826685" lon="15.045845442517946"><ele>78.0</ele><time>2026-05-02T08:45:35Z</time></trkpt><trkpt lat="40.607313878220126" lon="15.046246302277929"><ele>77.5</ele><time>2026-05-02T08:45:36Z</time></trkpt><trkpt lat="40.6073727014038" lon="15.046645081209197"><ele>77.0</ele><time>2026-05-02T08:45:37Z</time></trkpt><trkpt lat="40.60743088205196" lon="15.047039054141942"><ele>77.0</ele><time>2026-05-02T08:45:38Z</time></trkpt><trkpt lat="40.607486773444336" lon="15.04742975949687"><ele>77.0</ele><time>2026-05-02T08:45:39Z</time></trkpt><trkpt lat="40.60753881483229" lon="15.047819463756898"><ele>77.0</ele><time>2026-05-02T08:45:40Z</time></trkpt><trkpt lat="40.607586995443604" lon="15.04820492860137"><ele>77.0</ele><time>2026-05-02T08:45:41Z</time></trkpt><trkpt lat="40.60762971353704" lon="15.048592138634845"><ele>77.0</ele><time>2026-05-02T08:45:42Z</time></trkpt><trkpt lat="40.607666521456046" lon="15.04899118237688"><ele>77.0</ele><time>2026-05-02T08:45:43Z</time></trkpt><trkpt lat="40.607696004072345" lon="15.049404373531898"><ele>77.5</ele><time>2026-05-02T08:45:44Z</time></trkpt><trkpt lat="40.60771875012175" lon="15.049817817485277"><ele>78.0</ele><time>2026-05-02T08:45:45Z</time></trkpt><trkpt lat="40.60773523866053" lon="15.050237869806159"><ele>77.0</ele><time>2026-05-02T08:45:46Z</time></trkpt><trkpt lat="40.60774791885709" lon="15.050664178399797"><ele>76.0</ele><time>2026-05-02T08:45:47Z</time></trkpt><trkpt lat="40.60775540255135" lon="15.051096721785262"><ele>75.5</ele><time>2026-05-02T08:45:48Z</time></trkpt><trkpt lat="40.607758426978066" lon="15.05153388242675"><ele>75.0</ele><time>2026-05-02T08:45:49Z</time></trkpt><trkpt lat="40.607758905980816" lon="15.051973594747064"><ele>77.0</ele><time>2026-05-02T08:45:50Z</time></trkpt><trkpt lat="40.607758262149225" lon="15.05241208409539"><ele>79.0</ele><time>2026-05-02T08:45:51Z</time></trkpt><trkpt lat="40.60775739081907" lon="15.05285274407583"><ele>79.5</ele><time>2026-05-02T08:45:52Z</time></trkpt><trkpt lat="40.607755572050365" lon="15.053294789890035"><ele>80.0</ele><time>2026-05-02T08:45:53Z</time></trkpt><trkpt lat="40.60775486517926" lon="15.053736603643467"><ele>80.0</ele><time>2026-05-02T08:45:54Z</time></trkpt><trkpt lat="40.607755155127194" lon="15.054176881115705"><ele>80.0</ele><time>2026-05-02T08:45:55Z</time></trkpt><trkpt lat="40.607753479991665" lon="15.05461675112687"><ele>81.0</ele><time>2026-05-02T08:45:56Z</time></trkpt><trkpt lat="40.607750365916594" lon="15.055055038506426"><ele>82.0</ele><time>2026-05-02T08:45:57Z</time></trkpt><trkpt lat="40.60774959287867" lon="15.055490464921585"><ele>81.5</ele><time>2026-05-02T08:45:58Z</time></trkpt><trkpt lat="40.60774779839502" lon="15.055922118660858"><ele>81.0</ele><time>2026-05-02T08:45:59Z</time></trkpt><trkpt lat="40.607747558686846" lon="15.056356902534063"><ele>79.5</ele><time>2026-05-02T08:46:00Z</time></trkpt><trkpt lat="40.607747691647326" lon="15.056792911467484"><ele>78.0</ele><time>2026-05-02T08:46:01Z</time></trkpt><trkpt lat="40.60774694857679" lon="15.057231760134746"><ele>77.5</ele><time>2026-05-02T08:46:02Z</time></trkpt><trkpt lat="40.60774585371105" lon="15.05766718478501"><ele>77.0</ele><time>2026-05-02T08:46:03Z</time></trkpt><trkpt lat="40.60774394330204" lon="15.058103533495363"><ele>77.0</ele><time>2026-05-02T08:46:04Z</time></trkpt><trkpt lat="40.60774243717597" lon="15.058542651457316"><ele>77.0</ele><time>2026-05-02T08:46:05Z</time></trkpt><trkpt lat="40.60774167188657" lon="15.058982969353155"><ele>77.0</ele><time>2026-05-02T08:46:06Z</time></trkpt><trkpt lat="40.60774096706931" lon="15.059424197300883"><ele>77.0</ele><time>2026-05-02T08:46:07Z</time></trkpt><trkpt lat="40.60774126889817" lon="15.059863987871465"><ele>77.0</ele><time>2026-05-02T08:46:08Z</time></trkpt><trkpt lat="40.607740970674286" lon="15.060303255289801"><ele>77.0</ele><time>2026-05-02T08:46:09Z</time></trkpt><trkpt lat="40.60773874372172" lon="15.060743246523236"><ele>77.0</ele><time>2026-05-02T08:46:10Z</time></trkpt><trkpt lat="40.60773752162311" lon="15.061182265307682"><ele>77.0</ele><time>2026-05-02T08:46:11Z</time></trkpt><trkpt lat="40.60773730118478" lon="15.061615759681743"><ele>77.0</ele><time>2026-05-02T08:46:12Z</time></trkpt><trkpt lat="40.60773729893876" lon="15.062056908437262"><ele>77.0</ele><time>2026-05-02T08:46:13Z</time></trkpt><trkpt lat="40.60773503142003" lon="15.062495266505449"><ele>76.0</ele><time>2026-05-02T08:46:14Z</time></trkpt><trkpt lat="40.60773368069531" lon="15.062934904141967"><ele>75.0</ele><time>2026-05-02T08:46:15Z</time></trkpt><trkpt lat="40.6077327223112" lon="15.063372223664413"><ele>74.5</ele><time>2026-05-02T08:46:16Z</time></trkpt><trkpt lat="40.60773256217214" lon="15.063810389683299"><ele>74.0</ele><time>2026-05-02T08:46:17Z</time></trkpt><trkpt lat="40.607731428135736" lon="15.064248486798519"><ele>72.5</ele><time>2026-05-02T08:46:18Z</time></trkpt><trkpt lat="40.607729481571496" lon="15.064685846490569"><ele>71.0</ele><time>2026-05-02T08:46:19Z</time></trkpt><trkpt lat="40.60772887593446" lon="15.06512519382627"><ele>71.0</ele><time>2026-05-02T08:46:20Z</time></trkpt><trkpt lat="40.60772863355603" lon="15.065568949544014"><ele>71.0</ele><time>2026-05-02T08:46:21Z</time></trkpt><trkpt lat="40.60772888403812" lon="15.066010504863055"><ele>70.5</ele><time>2026-05-02T08:46:22Z</time></trkpt><trkpt lat="40.60772925253417" lon="15.066451335638707"><ele>70.0</ele><time>2026-05-02T08:46:22.999Z</time></trkpt><trkpt lat="40.60772970881568" lon="15.066891734558752"><ele>69.5</ele><time>2026-05-02T08:46:23.999Z</time></trkpt><trkpt lat="40.60773333507874" lon="15.067330275475166"><ele>69.0</ele><time>2026-05-02T08:46:24.999Z</time></trkpt><trkpt lat="40.60774285350903" lon="15.067764640865997"><ele>69.0</ele><time>2026-05-02T08:46:25.999Z</time></trkpt><trkpt lat="40.607755420997535" lon="15.068198222249704"><ele>69.0</ele><time>2026-05-02T08:46:26.999Z</time></trkpt><trkpt lat="40.60777366006267" lon="15.068628638430367"><ele>68.5</ele><time>2026-05-02T08:46:27.999Z</time></trkpt><trkpt lat="40.60779738414072" lon="15.069061998194726"><ele>68.0</ele><time>2026-05-02T08:46:28.999Z</time></trkpt><trkpt lat="40.607828345710296" lon="15.069493423884783"><ele>69.5</ele><time>2026-05-02T08:46:29.999Z</time></trkpt><trkpt lat="40.60786323387054" lon="15.06992276384984"><ele>71.0</ele><time>2026-05-02T08:46:30.999Z</time></trkpt><trkpt lat="40.60790563449951" lon="15.070354706168647"><ele>72.0</ele><time>2026-05-02T08:46:31.999Z</time></trkpt><trkpt lat="40.60795513048792" lon="15.070786002459483"><ele>73.0</ele><time>2026-05-02T08:46:32.999Z</time></trkpt><trkpt lat="40.60801007781824" lon="15.071217348320657"><ele>74.5</ele><time>2026-05-02T08:46:33.999Z</time></trkpt><trkpt lat="40.608070270029415" lon="15.071646003941055"><ele>76.0</ele><time>2026-05-02T08:46:34.999Z</time></trkpt><trkpt lat="40.60813540656398" lon="15.072076427351114"><ele>76.0</ele><time>2026-05-02T08:46:35.999Z</time></trkpt><trkpt lat="40.6082069281522" lon="15.072506239330053"><ele>76.0</ele><time>2026-05-02T08:46:36.999Z</time></trkpt><trkpt lat="40.60828074154826" lon="15.072927681366057"><ele>75.5</ele><time>2026-05-02T08:46:37.999Z</time></trkpt><trkpt lat="40.60835748843036" lon="15.073350644151903"><ele>75.0</ele><time>2026-05-02T08:46:38.999Z</time></trkpt><trkpt lat="40.608437069646904" lon="15.073772196925614"><ele>77.0</ele><time>2026-05-02T08:46:39.999Z</time></trkpt><trkpt lat="40.60852122948463" lon="15.074194274457655"><ele>79.0</ele><time>2026-05-02T08:46:40.999Z</time></trkpt><trkpt lat="40.6086034380426" lon="15.074618465147202"><ele>79.5</ele><time>2026-05-02T08:46:41.999Z</time></trkpt><trkpt lat="40.60868660916681" lon="15.07504154727666"><ele>80.0</ele><time>2026-05-02T08:46:42.999Z</time></trkpt><trkpt lat="40.608768421514824" lon="15.075457343926889"><ele>80.5</ele><time>2026-05-02T08:46:43.999Z</time></trkpt><trkpt lat="40.60884945615939" lon="15.075873024880178"><ele>81.0</ele><time>2026-05-02T08:46:44.999Z</time></trkpt><trkpt lat="40.608931255305414" lon="15.076294540392473"><ele>81.0</ele><time>2026-05-02T08:46:45.999Z</time></trkpt><trkpt lat="40.60901353322002" lon="15.076716454128215"><ele>81.0</ele><time>2026-05-02T08:46:46.999Z</time></trkpt><trkpt lat="40.60909495914116" lon="15.077136469010352"><ele>81.5</ele><time>2026-05-02T08:46:47.999Z</time></trkpt><trkpt lat="40.609175614061904" lon="15.077556754298955"><ele>82.0</ele><time>2026-05-02T08:46:48.999Z</time></trkpt><trkpt lat="40.609253459897715" lon="15.077981916839262"><ele>84.0</ele><time>2026-05-02T08:46:49.999Z</time></trkpt><trkpt lat="40.60932635211426" lon="15.078409241664385"><ele>86.0</ele><time>2026-05-02T08:46:50.999Z</time></trkpt><trkpt lat="40.60939283696102" lon="15.07883684589227"><ele>86.5</ele><time>2026-05-02T08:46:51.999Z</time></trkpt><trkpt lat="40.609453894107894" lon="15.079264652327163"><ele>87.0</ele><time>2026-05-02T08:46:52.999Z</time></trkpt><trkpt lat="40.60950778544679" lon="15.079696265843314"><ele>88.0</ele><time>2026-05-02T08:46:53.999Z</time></trkpt><trkpt lat="40.60955443259294" lon="15.080130025797347"><ele>89.0</ele><time>2026-05-02T08:46:54.999Z</time></trkpt><trkpt lat="40.60959404923301" lon="15.080562605406882"><ele>89.5</ele><time>2026-05-02T08:46:55.999Z</time></trkpt><trkpt lat="40.60962670532297" lon="15.08099126990111"><ele>90.0</ele><time>2026-05-02T08:46:56.999Z</time></trkpt><trkpt lat="40.60965245865853" lon="15.081425071968681"><ele>90.5</ele><time>2026-05-02T08:46:57.999Z</time></trkpt><trkpt lat="40.6096721317554" lon="15.081861055936423"><ele>91.0</ele><time>2026-05-02T08:46:58.999Z</time></trkpt><trkpt lat="40.60968320200869" lon="15.082304364950836"><ele>91.0</ele><time>2026-05-02T08:47:00Z</time></trkpt><trkpt lat="40.609686931724724" lon="15.08274701082165"><ele>91.0</ele><time>2026-05-02T08:47:01.001Z</time></trkpt><trkpt lat="40.60968550269112" lon="15.083188752890397"><ele>90.5</ele><time>2026-05-02T08:47:02Z</time></trkpt><trkpt lat="40.60967850607466" lon="15.083632677360264"><ele>90.0</ele><time>2026-05-02T08:47:03Z</time></trkpt><trkpt lat="40.60966672402254" lon="15.084073357028894"><ele>90.0</ele><time>2026-05-02T08:47:04.001Z</time></trkpt><trkpt lat="40.609649903439106" lon="15.084511357127314"><ele>90.0</ele><time>2026-05-02T08:47:05Z</time></trkpt><trkpt lat="40.60962630447862" lon="15.084950323891222"><ele>88.5</ele><time>2026-05-02T08:47:06Z</time></trkpt><trkpt lat="40.60960047598803" lon="15.085390128662523"><ele>87.0</ele><time>2026-05-02T08:47:07.001Z</time></trkpt><trkpt lat="40.60957578740239" lon="15.085832437636514"><ele>87.0</ele><time>2026-05-02T08:47:08Z</time></trkpt><trkpt lat="40.60955159113615" lon="15.086272051000646"><ele>87.0</ele><time>2026-05-02T08:47:09Z</time></trkpt><trkpt lat="40.6095261178057" lon="15.086713236059603"><ele>87.0</ele><time>2026-05-02T08:47:10Z</time></trkpt><trkpt lat="40.609499775240984" lon="15.087154893981639"><ele>87.0</ele><time>2026-05-02T08:47:11Z</time></trkpt><trkpt lat="40.609474548741645" lon="15.08758956736436"><ele>88.5</ele><time>2026-05-02T08:47:12Z</time></trkpt><trkpt lat="40.609446671153194" lon="15.088021320437152"><ele>90.0</ele><time>2026-05-02T08:47:13Z</time></trkpt><trkpt lat="40.60941492325126" lon="15.088453439924898"><ele>90.5</ele><time>2026-05-02T08:47:14Z</time></trkpt><trkpt lat="40.60937306950353" lon="15.088886560071323"><ele>91.0</ele><time>2026-05-02T08:47:15Z</time></trkpt><trkpt lat="40.6093245684209" lon="15.089317912678695"><ele>92.5</ele><time>2026-05-02T08:47:16Z</time></trkpt><trkpt lat="40.60926567235167" lon="15.089749734621366"><ele>94.0</ele><time>2026-05-02T08:47:17Z</time></trkpt><trkpt lat="40.609188723438145" lon="15.090175316055088"><ele>95.0</ele><time>2026-05-02T08:47:18Z</time></trkpt><trkpt lat="40.609099631696964" lon="15.090597125053364"><ele>96.0</ele><time>2026-05-02T08:47:19Z</time></trkpt><trkpt lat="40.60900158364174" lon="15.091015216429884"><ele>96.0</ele><time>2026-05-02T08:47:20Z</time></trkpt><trkpt lat="40.60889129297493" lon="15.09143003569089"><ele>96.0</ele><time>2026-05-02T08:47:21Z</time></trkpt><trkpt lat="40.60877222012349" lon="15.091837560785251"><ele>96.0</ele><time>2026-05-02T08:47:22Z</time></trkpt><trkpt lat="40.60864461691596" lon="15.0922415265103"><ele>96.0</ele><time>2026-05-02T08:47:23Z</time></trkpt><trkpt lat="40.60850869065807" lon="15.092641351135603"><ele>95.5</ele><time>2026-05-02T08:47:24Z</time></trkpt><trkpt lat="40.60836751576613" lon="15.093039175425224"><ele>95.0</ele><time>2026-05-02T08:47:25Z</time></trkpt><trkpt lat="40.60822836090865" lon="15.093439469696813"><ele>95.0</ele><time>2026-05-02T08:47:26Z</time></trkpt><trkpt lat="40.60809322568389" lon="15.093841374853369"><ele>95.0</ele><time>2026-05-02T08:47:27Z</time></trkpt><trkpt lat="40.607959354969374" lon="15.094244725113453"><ele>95.5</ele><time>2026-05-02T08:47:28Z</time></trkpt><trkpt lat="40.607827539306484" lon="15.094648654002022"><ele>96.0</ele><time>2026-05-02T08:47:29Z</time></trkpt><trkpt lat="40.60769803174496" lon="15.095053584762884"><ele>96.0</ele><time>2026-05-02T08:47:30Z</time></trkpt><trkpt lat="40.60756890963533" lon="15.095460660839757"><ele>96.0</ele><time>2026-05-02T08:47:31Z</time></trkpt><trkpt lat="40.60744570000655" lon="15.095869572728471"><ele>96.0</ele><time>2026-05-02T08:47:32Z</time></trkpt><trkpt lat="40.60732579134475" lon="15.096279910768718"><ele>96.0</ele><time>2026-05-02T08:47:33Z</time></trkpt><trkpt lat="40.6072134649526" lon="15.096692423170186"><ele>96.0</ele><time>2026-05-02T08:47:34Z</time></trkpt><trkpt lat="40.607106463745495" lon="15.097106808842103"><ele>96.0</ele><time>2026-05-02T08:47:35Z</time></trkpt><trkpt lat="40.607004350821946" lon="15.097522226371641"><ele>96.0</ele><time>2026-05-02T08:47:36Z</time></trkpt><trkpt lat="40.60690868928028" lon="15.09794289897254"><ele>96.0</ele><time>2026-05-02T08:47:37Z</time></trkpt><trkpt lat="40.60682030205371" lon="15.098364925461713"><ele>96.0</ele><time>2026-05-02T08:47:38Z</time></trkpt><trkpt lat="40.60673577793267" lon="15.098788355352799"><ele>96.0</ele><time>2026-05-02T08:47:39Z</time></trkpt><trkpt lat="40.606654214928135" lon="15.09921011705809"><ele>96.0</ele><time>2026-05-02T08:47:40Z</time></trkpt><trkpt lat="40.606573543450644" lon="15.099633068579855"><ele>96.0</ele><time>2026-05-02T08:47:41Z</time></trkpt><trkpt lat="40.606496178003894" lon="15.100056480291972"><ele>96.0</ele><time>2026-05-02T08:47:42Z</time></trkpt><trkpt lat="40.606418940432306" lon="15.100481553243368"><ele>96.0</ele><time>2026-05-02T08:47:43Z</time></trkpt><trkpt lat="40.60634144869604" lon="15.100909339953196"><ele>96.0</ele><time>2026-05-02T08:47:44Z</time></trkpt><trkpt lat="40.60626723131683" lon="15.10133820926937"><ele>96.0</ele><time>2026-05-02T08:47:45Z</time></trkpt><trkpt lat="40.6061986625736" lon="15.101766859142495"><ele>96.0</ele><time>2026-05-02T08:47:46Z</time></trkpt><trkpt lat="40.606137067642265" lon="15.102196163166749"><ele>96.0</ele><time>2026-05-02T08:47:47Z</time></trkpt><trkpt lat="40.6060871031381" lon="15.102625385431445"><ele>96.0</ele><time>2026-05-02T08:47:48Z</time></trkpt><trkpt lat="40.606049760606176" lon="15.103058413971642"><ele>96.0</ele><time>2026-05-02T08:47:49Z</time></trkpt><trkpt lat="40.60602581774426" lon="15.103491335637633"><ele>97.0</ele><time>2026-05-02T08:47:50Z</time></trkpt><trkpt lat="40.606014566244774" lon="15.103924219387794"><ele>98.0</ele><time>2026-05-02T08:47:51Z</time></trkpt><trkpt lat="40.60601527582057" lon="15.104355650330797"><ele>98.5</ele><time>2026-05-02T08:47:52Z</time></trkpt><trkpt lat="40.60602568527909" lon="15.104788142478984"><ele>99.0</ele><time>2026-05-02T08:47:53Z</time></trkpt><trkpt lat="40.60604561718991" lon="15.105222520396067"><ele>99.0</ele><time>2026-05-02T08:47:54Z</time></trkpt><trkpt lat="40.60607049814319" lon="15.105656598927244"><ele>99.0</ele><time>2026-05-02T08:47:55Z</time></trkpt><trkpt lat="40.606101264044064" lon="15.106096230381208"><ele>99.0</ele><time>2026-05-02T08:47:56Z</time></trkpt><trkpt lat="40.60612686115828" lon="15.106533076579103"><ele>99.0</ele><time>2026-05-02T08:47:57Z</time></trkpt><trkpt lat="40.606152437160034" lon="15.106974790164788"><ele>98.0</ele><time>2026-05-02T08:47:58Z</time></trkpt><trkpt lat="40.60617793279875" lon="15.107415564059728"><ele>97.0</ele><time>2026-05-02T08:47:59Z</time></trkpt><trkpt lat="40.60620421069995" lon="15.107856565272856"><ele>98.5</ele><time>2026-05-02T08:48:00Z</time></trkpt><trkpt lat="40.60623166444703" lon="15.108295372516254"><ele>100.0</ele><time>2026-05-02T08:48:01Z</time></trkpt><trkpt lat="40.60625818956273" lon="15.108734395340331"><ele>102.0</ele><time>2026-05-02T08:48:02Z</time></trkpt><trkpt lat="40.60628411597266" lon="15.109172647872736"><ele>104.0</ele><time>2026-05-02T08:48:03Z</time></trkpt><trkpt lat="40.606308875096474" lon="15.109609917916908"><ele>104.5</ele><time>2026-05-02T08:48:04Z</time></trkpt><trkpt lat="40.60633464848177" lon="15.110046062915766"><ele>105.0</ele><time>2026-05-02T08:48:05Z</time></trkpt><trkpt lat="40.60635985040358" lon="15.11048466716927"><ele>104.5</ele><time>2026-05-02T08:48:06Z</time></trkpt><trkpt lat="40.606385239591575" lon="15.110919348349679"><ele>104.0</ele><time>2026-05-02T08:48:07Z</time></trkpt><trkpt lat="40.60640949019073" lon="15.111356289644865"><ele>104.5</ele><time>2026-05-02T08:48:08Z</time></trkpt><trkpt lat="40.606432397516734" lon="15.111793489836014"><ele>105.0</ele><time>2026-05-02T08:48:09Z</time></trkpt><trkpt lat="40.60645624351145" lon="15.112227972877067"><ele>106.0</ele><time>2026-05-02T08:48:10Z</time></trkpt><trkpt lat="40.6064805615624" lon="15.112662936557165"><ele>107.0</ele><time>2026-05-02T08:48:11Z</time></trkpt><trkpt lat="40.60650443078543" lon="15.113098537726223"><ele>107.0</ele><time>2026-05-02T08:48:12Z</time></trkpt><trkpt lat="40.60652898693854" lon="15.113534588256424"><ele>107.0</ele><time>2026-05-02T08:48:13Z</time></trkpt><trkpt lat="40.6065542694151" lon="15.113971998197501"><ele>107.0</ele><time>2026-05-02T08:48:14Z</time></trkpt><trkpt lat="40.606582138950714" lon="15.11440671734139"><ele>107.0</ele><time>2026-05-02T08:48:15Z</time></trkpt><trkpt lat="40.60661047671309" lon="15.114843978799632"><ele>107.5</ele><time>2026-05-02T08:48:16Z</time></trkpt><trkpt lat="40.60663716424638" lon="15.115281270935922"><ele>108.0</ele><time>2026-05-02T08:48:17Z</time></trkpt><trkpt lat="40.60666196925469" lon="15.115716553870222"><ele>106.5</ele><time>2026-05-02T08:48:18Z</time></trkpt><trkpt lat="40.60668607217807" lon="15.116153710861635"><ele>105.0</ele><time>2026-05-02T08:48:19Z</time></trkpt><trkpt lat="40.606712072044004" lon="15.116592312689956"><ele>105.0</ele><time>2026-05-02T08:48:20Z</time></trkpt><trkpt lat="40.60674448874363" lon="15.11702977204227"><ele>105.0</ele><time>2026-05-02T08:48:21Z</time></trkpt><trkpt lat="40.60678355972443" lon="15.117461388053856"><ele>106.5</ele><time>2026-05-02T08:48:22Z</time></trkpt><trkpt lat="40.60682369798836" lon="15.117892915179603"><ele>108.0</ele><time>2026-05-02T08:48:23Z</time></trkpt><trkpt lat="40.606864600718446" lon="15.118327146433582"><ele>108.0</ele><time>2026-05-02T08:48:24Z</time></trkpt><trkpt lat="40.606903703951964" lon="15.118759578642958"><ele>108.0</ele><time>2026-05-02T08:48:25Z</time></trkpt><trkpt lat="40.60694216678047" lon="15.119194785165355"><ele>107.5</ele><time>2026-05-02T08:48:26Z</time></trkpt><trkpt lat="40.60697852206562" lon="15.119625288791276"><ele>107.0</ele><time>2026-05-02T08:48:27Z</time></trkpt><trkpt lat="40.60701532050013" lon="15.120058140216669"><ele>106.5</ele><time>2026-05-02T08:48:27.999Z</time></trkpt><trkpt lat="40.60705218944271" lon="15.12049236335099"><ele>106.0</ele><time>2026-05-02T08:48:28.999Z</time></trkpt><trkpt lat="40.607088682173156" lon="15.120927547303975"><ele>106.0</ele><time>2026-05-02T08:48:29.999Z</time></trkpt><trkpt lat="40.607126269551166" lon="15.121361335620072"><ele>106.0</ele><time>2026-05-02T08:48:30.999Z</time></trkpt><trkpt lat="40.60716391653344" lon="15.121795921607808"><ele>104.5</ele><time>2026-05-02T08:48:31.999Z</time></trkpt><trkpt lat="40.60720136771517" lon="15.122229791864557"><ele>103.0</ele><time>2026-05-02T08:48:32.999Z</time></trkpt><trkpt lat="40.60723785030104" lon="15.122665700086552"><ele>96.0</ele><time>2026-05-02T08:48:33.999Z</time></trkpt><trkpt lat="40.607275202478064" lon="15.123103803233645"><ele>89.0</ele><time>2026-05-02T08:48:34.999Z</time></trkpt><trkpt lat="40.607312898239634" lon="15.123542850289837"><ele>88.5</ele><time>2026-05-02T08:48:35.999Z</time></trkpt><trkpt lat="40.60735080991779" lon="15.12398247922829"><ele>88.0</ele><time>2026-05-02T08:48:36.999Z</time></trkpt><trkpt lat="40.60738861504563" lon="15.124420914083455"><ele>93.5</ele><time>2026-05-02T08:48:37.999Z</time></trkpt><trkpt lat="40.607424912048884" lon="15.12485717036721"><ele>99.0</ele><time>2026-05-02T08:48:38.999Z</time></trkpt><trkpt lat="40.607462460815555" lon="15.125294948609481"><ele>99.5</ele><time>2026-05-02T08:48:39.999Z</time></trkpt><trkpt lat="40.60750335320969" lon="15.125729952803344"><ele>100.0</ele><time>2026-05-02T08:48:40.999Z</time></trkpt><trkpt lat="40.60754964960306" lon="15.126163981590976"><ele>100.0</ele><time>2026-05-02T08:48:41.999Z</time></trkpt><trkpt lat="40.60760323828022" lon="15.126597042220743"><ele>100.0</ele><time>2026-05-02T08:48:42.999Z</time></trkpt><trkpt lat="40.60766249566389" lon="15.127026880204822"><ele>99.5</ele><time>2026-05-02T08:48:43.999Z</time></trkpt><trkpt lat="40.60772864860029" lon="15.127451253344244"><ele>99.0</ele><time>2026-05-02T08:48:44.999Z</time></trkpt><trkpt lat="40.607802909396135" lon="15.127875746257931"><ele>89.0</ele><time>2026-05-02T08:48:45.999Z</time></trkpt><trkpt lat="40.60789564665179" lon="15.128293971190272"><ele>79.0</ele><time>2026-05-02T08:48:46.999Z</time></trkpt><trkpt lat="40.60798919644743" lon="15.12870674837924"><ele>68.5</ele><time>2026-05-02T08:48:47.999Z</time></trkpt><trkpt lat="40.608090553092495" lon="15.129124968523383"><ele>58.0</ele><time>2026-05-02T08:48:48.999Z</time></trkpt><trkpt lat="40.608198118581235" lon="15.129535496834357"><ele>57.0</ele><time>2026-05-02T08:48:49.999Z</time></trkpt><trkpt lat="40.608315708555416" lon="15.12993897711737"><ele>56.0</ele><time>2026-05-02T08:48:50.999Z</time></trkpt><trkpt lat="40.60844077385804" lon="15.130348541402414"><ele>62.0</ele><time>2026-05-02T08:48:51.999Z</time></trkpt><trkpt lat="40.608572907624946" lon="15.13075062145929"><ele>68.0</ele><time>2026-05-02T08:48:52.999Z</time></trkpt><trkpt lat="40.60871403046675" lon="15.131148078770467"><ele>70.5</ele><time>2026-05-02T08:48:53.999Z</time></trkpt><trkpt lat="40.60886211223086" lon="15.131546872462502"><ele>73.0</ele><time>2026-05-02T08:48:54.999Z</time></trkpt><trkpt lat="40.60902169371291" lon="15.131943549163934"><ele>81.5</ele><time>2026-05-02T08:48:55.999Z</time></trkpt><trkpt lat="40.609189761959634" lon="15.132330079200647"><ele>90.0</ele><time>2026-05-02T08:48:56.999Z</time></trkpt><trkpt lat="40.60935755134036" lon="15.132716398114637"><ele>95.5</ele><time>2026-05-02T08:48:57.999Z</time></trkpt><trkpt lat="40.60953187023939" lon="15.133098998709771"><ele>101.0</ele><time>2026-05-02T08:48:58.999Z</time></trkpt><trkpt lat="40.60970529059019" lon="15.133476856534868"><ele>101.0</ele><time>2026-05-02T08:48:59.999Z</time></trkpt><trkpt lat="40.60988095389462" lon="15.133853433552739"><ele>101.0</ele><time>2026-05-02T08:49:00.999Z</time></trkpt><trkpt lat="40.610058664888655" lon="15.134226119061704"><ele>94.5</ele><time>2026-05-02T08:49:01.999Z</time></trkpt><trkpt lat="40.610233860458656" lon="15.134544647511921"><ele>88.0</ele><time>2026-05-02T08:49:02.999Z</time></trkpt><trkpt lat="40.61037434854762" lon="15.134901249835613"><ele>85.5</ele><time>2026-05-02T08:49:03.999Z</time></trkpt><trkpt lat="40.610538458612396" lon="15.13538909491798"><ele>83.0</ele><time>2026-05-02T08:49:04.999Z</time></trkpt><trkpt lat="40.61070032433634" lon="15.13579169373397"><ele>78.0</ele><time>2026-05-02T08:49:06Z</time></trkpt><trkpt lat="40.61086961711077" lon="15.13617555995963"><ele>73.0</ele><time>2026-05-02T08:49:07Z</time></trkpt><trkpt lat="40.61103557029625" lon="15.136555641111173"><ele>71.0</ele><time>2026-05-02T08:49:08Z</time></trkpt><trkpt lat="40.61119945126192" lon="15.136935624391672"><ele>69.0</ele><time>2026-05-02T08:49:09Z</time></trkpt><trkpt lat="40.611364609029415" lon="15.137312325859046"><ele>68.0</ele><time>2026-05-02T08:49:10Z</time></trkpt><trkpt lat="40.611528159488266" lon="15.137685139723882"><ele>67.0</ele><time>2026-05-02T08:49:11Z</time></trkpt><trkpt lat="40.611690162112076" lon="15.138059625193597"><ele>66.5</ele><time>2026-05-02T08:49:12Z</time></trkpt><trkpt lat="40.61185205064388" lon="15.138436243443662"><ele>66.0</ele><time>2026-05-02T08:49:13Z</time></trkpt><trkpt lat="40.61201400964246" lon="15.138812720103587"><ele>69.0</ele><time>2026-05-02T08:49:14Z</time></trkpt><trkpt lat="40.61217422081285" lon="15.139191347041736"><ele>72.0</ele><time>2026-05-02T08:49:15Z</time></trkpt><trkpt lat="40.61233087847394" lon="15.139570879933821"><ele>70.5</ele><time>2026-05-02T08:49:16Z</time></trkpt><trkpt lat="40.612480531320195" lon="15.139953415801724"><ele>69.0</ele><time>2026-05-02T08:49:17Z</time></trkpt><trkpt lat="40.61262160969105" lon="15.140341675302544"><ele>66.5</ele><time>2026-05-02T08:49:18Z</time></trkpt><trkpt lat="40.61275551731394" lon="15.140736308060772"><ele>64.0</ele><time>2026-05-02T08:49:19Z</time></trkpt><trkpt lat="40.61288061861452" lon="15.141138645728299"><ele>66.0</ele><time>2026-05-02T08:49:20Z</time></trkpt><trkpt lat="40.61299474314542" lon="15.141543410931911"><ele>68.0</ele><time>2026-05-02T08:49:21Z</time></trkpt><trkpt lat="40.61309727593333" lon="15.14194530017017"><ele>68.0</ele><time>2026-05-02T08:49:22Z</time></trkpt><trkpt lat="40.61318943809892" lon="15.14234530162063"><ele>68.0</ele><time>2026-05-02T08:49:23Z</time></trkpt><trkpt lat="40.613270506281005" lon="15.142756509695452"><ele>65.0</ele><time>2026-05-02T08:49:24Z</time></trkpt><trkpt lat="40.61333791681065" lon="15.143176328442554"><ele>62.0</ele><time>2026-05-02T08:49:25Z</time></trkpt><trkpt lat="40.61338961674495" lon="15.143599718058303"><ele>60.5</ele><time>2026-05-02T08:49:26Z</time></trkpt><trkpt lat="40.613428030117305" lon="15.14402779099453"><ele>59.0</ele><time>2026-05-02T08:49:27Z</time></trkpt><trkpt lat="40.61345148481792" lon="15.14445852588223"><ele>58.0</ele><time>2026-05-02T08:49:28Z</time></trkpt><trkpt lat="40.6134648398738" lon="15.144892038730783"><ele>57.0</ele><time>2026-05-02T08:49:29Z</time></trkpt><trkpt lat="40.613467336202206" lon="15.145329747552893"><ele>58.0</ele><time>2026-05-02T08:49:30Z</time></trkpt><trkpt lat="40.613464516545" lon="15.145765909369757"><ele>59.0</ele><time>2026-05-02T08:49:31Z</time></trkpt><trkpt lat="40.61345780156386" lon="15.14620136915576"><ele>60.0</ele><time>2026-05-02T08:49:32Z</time></trkpt><trkpt lat="40.613447080055124" lon="15.146639141483124"><ele>61.0</ele><time>2026-05-02T08:49:33Z</time></trkpt><trkpt lat="40.613435081172206" lon="15.147076909315045"><ele>61.5</ele><time>2026-05-02T08:49:34Z</time></trkpt><trkpt lat="40.61342566678058" lon="15.147513762021656"><ele>62.0</ele><time>2026-05-02T08:49:35Z</time></trkpt><trkpt lat="40.61342073347279" lon="15.147949392148423"><ele>63.0</ele><time>2026-05-02T08:49:36Z</time></trkpt><trkpt lat="40.613422896723655" lon="15.148384456528351"><ele>64.0</ele><time>2026-05-02T08:49:37Z</time></trkpt><trkpt lat="40.6134362775663" lon="15.148819693883784"><ele>63.5</ele><time>2026-05-02T08:49:38Z</time></trkpt><trkpt lat="40.613462155755556" lon="15.149255716349463"><ele>63.0</ele><time>2026-05-02T08:49:39Z</time></trkpt><trkpt lat="40.61350099698665" lon="15.149689391970655"><ele>62.0</ele><time>2026-05-02T08:49:40Z</time></trkpt><trkpt lat="40.61355320168253" lon="15.150118779180996"><ele>61.0</ele><time>2026-05-02T08:49:41Z</time></trkpt><trkpt lat="40.61362068550307" lon="15.150545301805213"><ele>68.0</ele><time>2026-05-02T08:49:42Z</time></trkpt><trkpt lat="40.613700492830375" lon="15.150970201432905"><ele>75.0</ele><time>2026-05-02T08:49:43Z</time></trkpt><trkpt lat="40.613792305039034" lon="15.151390371263505"><ele>71.0</ele><time>2026-05-02T08:49:44Z</time></trkpt><trkpt lat="40.61389197599004" lon="15.151808065521116"><ele>67.0</ele><time>2026-05-02T08:49:45Z</time></trkpt><trkpt lat="40.61399495636246" lon="15.152225639325646"><ele>63.5</ele><time>2026-05-02T08:49:46Z</time></trkpt><trkpt lat="40.614102357800846" lon="15.152641340042276"><ele>60.0</ele><time>2026-05-02T08:49:47Z</time></trkpt><trkpt lat="40.61421176026281" lon="15.153057467309475"><ele>57.5</ele><time>2026-05-02T08:49:48Z</time></trkpt><trkpt lat="40.61432243347517" lon="15.153474950383528"><ele>55.0</ele><time>2026-05-02T08:49:49Z</time></trkpt><trkpt lat="40.6144333267798" lon="15.153892896068527"><ele>55.0</ele><time>2026-05-02T08:49:50Z</time></trkpt><trkpt lat="40.614546131689" lon="15.1543124470812"><ele>55.0</ele><time>2026-05-02T08:49:51Z</time></trkpt><trkpt lat="40.61465927596882" lon="15.154731755014543"><ele>53.5</ele><time>2026-05-02T08:49:52Z</time></trkpt><trkpt lat="40.61477166090396" lon="15.15515102643611"><ele>52.0</ele><time>2026-05-02T08:49:53Z</time></trkpt><trkpt lat="40.614883756019864" lon="15.15557048971344"><ele>53.0</ele><time>2026-05-02T08:49:54Z</time></trkpt><trkpt lat="40.61499566630719" lon="15.155987380280573"><ele>54.0</ele><time>2026-05-02T08:49:55Z</time></trkpt><trkpt lat="40.615108413894234" lon="15.15640330230497"><ele>53.0</ele><time>2026-05-02T08:49:56Z</time></trkpt><trkpt lat="40.615219870014656" lon="15.15681900673466"><ele>52.0</ele><time>2026-05-02T08:49:57Z</time></trkpt><trkpt lat="40.61533014516662" lon="15.157233511417225"><ele>50.5</ele><time>2026-05-02T08:49:58Z</time></trkpt><trkpt lat="40.615439469477984" lon="15.157648345418437"><ele>49.0</ele><time>2026-05-02T08:49:59Z</time></trkpt><trkpt lat="40.61554771629418" lon="15.158060636464215"><ele>49.5</ele><time>2026-05-02T08:50:00Z</time></trkpt><trkpt lat="40.61565789205089" lon="15.158470541215182"><ele>50.0</ele><time>2026-05-02T08:50:01Z</time></trkpt><trkpt lat="40.61576821807587" lon="15.158880967454845"><ele>50.5</ele><time>2026-05-02T08:50:02Z</time></trkpt><trkpt lat="40.61587785689973" lon="15.159290928964927"><ele>51.0</ele><time>2026-05-02T08:50:03Z</time></trkpt><trkpt lat="40.61598821124269" lon="15.159703034477719"><ele>51.5</ele><time>2026-05-02T08:50:04Z</time></trkpt><trkpt lat="40.61609804707947" lon="15.160115421425568"><ele>52.0</ele><time>2026-05-02T08:50:05Z</time></trkpt><trkpt lat="40.616207724538576" lon="15.160523968554072"><ele>52.5</ele><time>2026-05-02T08:50:06Z</time></trkpt><trkpt lat="40.61631709452576" lon="15.160933369451303"><ele>53.0</ele><time>2026-05-02T08:50:07Z</time></trkpt><trkpt lat="40.61642677417712" lon="15.161343341218007"><ele>52.5</ele><time>2026-05-02T08:50:08Z</time></trkpt><trkpt lat="40.6165355033598" lon="15.161753429383959"><ele>52.0</ele><time>2026-05-02T08:50:09Z</time></trkpt><trkpt lat="40.61664237861084" lon="15.162161806309054"><ele>52.5</ele><time>2026-05-02T08:50:10Z</time></trkpt><trkpt lat="40.61674764040218" lon="15.162569167447716"><ele>53.0</ele><time>2026-05-02T08:50:11Z</time></trkpt><trkpt lat="40.61685296262615" lon="15.162979614512938"><ele>53.0</ele><time>2026-05-02T08:50:12Z</time></trkpt><trkpt lat="40.61695984506012" lon="15.163390861265096"><ele>53.0</ele><time>2026-05-02T08:50:13Z</time></trkpt><trkpt lat="40.61706996892725" lon="15.163802848697195"><ele>52.0</ele><time>2026-05-02T08:50:14Z</time></trkpt><trkpt lat="40.61717952428523" lon="15.164213220638603"><ele>51.0</ele><time>2026-05-02T08:50:15Z</time></trkpt><trkpt lat="40.61728884031175" lon="15.164627192648194"><ele>51.0</ele><time>2026-05-02T08:50:16Z</time></trkpt><trkpt lat="40.61739810435965" lon="15.165040114384833"><ele>51.0</ele><time>2026-05-02T08:50:17Z</time></trkpt><trkpt lat="40.61750797570148" lon="15.165452440056423"><ele>50.5</ele><time>2026-05-02T08:50:18Z</time></trkpt><trkpt lat="40.61761904976037" lon="15.16586253230135"><ele>50.0</ele><time>2026-05-02T08:50:19Z</time></trkpt><trkpt lat="40.61772877795287" lon="15.16627365913035"><ele>51.0</ele><time>2026-05-02T08:50:20Z</time></trkpt><trkpt lat="40.617837850136326" lon="15.166685216004426"><ele>52.0</ele><time>2026-05-02T08:50:21Z</time></trkpt><trkpt lat="40.61794829691587" lon="15.167097189281918"><ele>51.5</ele><time>2026-05-02T08:50:22Z</time></trkpt><trkpt lat="40.618060550216384" lon="15.167507489419584"><ele>51.0</ele><time>2026-05-02T08:50:23Z</time></trkpt><trkpt lat="40.618172660564454" lon="15.16791617877377"><ele>51.0</ele><time>2026-05-02T08:50:24Z</time></trkpt><trkpt lat="40.61828757866777" lon="15.168325710731924"><ele>51.0</ele><time>2026-05-02T08:50:25Z</time></trkpt><trkpt lat="40.61840391193651" lon="15.16873371603341"><ele>52.0</ele><time>2026-05-02T08:50:26Z</time></trkpt><trkpt lat="40.61852316724583" lon="15.169138267433775"><ele>53.0</ele><time>2026-05-02T08:50:27Z</time></trkpt><trkpt lat="40.618645505132896" lon="15.169542586495622"><ele>55.0</ele><time>2026-05-02T08:50:28Z</time></trkpt><trkpt lat="40.61877081876825" lon="15.169943934529245"><ele>57.0</ele><time>2026-05-02T08:50:29Z</time></trkpt><trkpt lat="40.618900167915896" lon="15.170347500277943"><ele>57.5</ele><time>2026-05-02T08:50:30Z</time></trkpt><trkpt lat="40.61903785839744" lon="15.170743154436291"><ele>58.0</ele><time>2026-05-02T08:50:30.999Z</time></trkpt><trkpt lat="40.619183401393514" lon="15.171134681642823"><ele>58.0</ele><time>2026-05-02T08:50:31.999Z</time></trkpt><trkpt lat="40.61933512189087" lon="15.171523091778985"><ele>58.0</ele><time>2026-05-02T08:50:32.999Z</time></trkpt><trkpt lat="40.619493525191345" lon="15.171911059148016"><ele>66.5</ele><time>2026-05-02T08:50:33.999Z</time></trkpt><trkpt lat="40.61965537993966" lon="15.172301231269564"><ele>75.0</ele><time>2026-05-02T08:50:34.999Z</time></trkpt><trkpt lat="40.6198212922175" lon="15.172690257725506"><ele>78.0</ele><time>2026-05-02T08:50:35.999Z</time></trkpt><trkpt lat="40.61999883569527" lon="15.173073101883416"><ele>81.0</ele><time>2026-05-02T08:50:36.999Z</time></trkpt><trkpt lat="40.620181564958905" lon="15.173448996581225"><ele>89.0</ele><time>2026-05-02T08:50:37.999Z</time></trkpt><trkpt lat="40.62037010633641" lon="15.173819588279233"><ele>97.0</ele><time>2026-05-02T08:50:38.999Z</time></trkpt><trkpt lat="40.62056384277301" lon="15.174186105450458"><ele>101.0</ele><time>2026-05-02T08:50:39.999Z</time></trkpt><trkpt lat="40.6207616515865" lon="15.174546405550082"><ele>105.0</ele><time>2026-05-02T08:50:40.999Z</time></trkpt><trkpt lat="40.620963986848786" lon="15.17490158600278"><ele>113.5</ele><time>2026-05-02T08:50:41.999Z</time></trkpt><trkpt lat="40.62116818710517" lon="15.175254198580488"><ele>122.0</ele><time>2026-05-02T08:50:42.999Z</time></trkpt><trkpt lat="40.62135677729611" lon="15.175679673289793"><ele>127.5</ele><time>2026-05-02T08:50:43.999Z</time></trkpt><trkpt lat="40.621569003191944" lon="15.176031646257892"><ele>133.0</ele><time>2026-05-02T08:50:44.999Z</time></trkpt><trkpt lat="40.621784062336125" lon="15.176383620289855"><ele>133.5</ele><time>2026-05-02T08:50:45.999Z</time></trkpt><trkpt lat="40.62199980914477" lon="15.176734192930173"><ele>134.0</ele><time>2026-05-02T08:50:46.999Z</time></trkpt><trkpt lat="40.622225357896674" lon="15.177074220803185"><ele>125.0</ele><time>2026-05-02T08:50:47.999Z</time></trkpt><trkpt lat="40.622451208987265" lon="15.177415499918219"><ele>116.0</ele><time>2026-05-02T08:50:48.999Z</time></trkpt><trkpt lat="40.62268174399672" lon="15.177753886795154"><ele>115.5</ele><time>2026-05-02T08:50:49.999Z</time></trkpt><trkpt lat="40.622916049535405" lon="15.178084196499602"><ele>115.0</ele><time>2026-05-02T08:50:50.999Z</time></trkpt><trkpt lat="40.62314886498935" lon="15.178417255160541"><ele>108.0</ele><time>2026-05-02T08:50:51.999Z</time></trkpt><trkpt lat="40.62338365512978" lon="15.178751955753324"><ele>101.0</ele><time>2026-05-02T08:50:52.999Z</time></trkpt><trkpt lat="40.623615255993485" lon="15.179095067990346"><ele>94.5</ele><time>2026-05-02T08:50:53.999Z</time></trkpt><trkpt lat="40.62385453442408" lon="15.179422529086501"><ele>88.0</ele><time>2026-05-02T08:50:54.999Z</time></trkpt><trkpt lat="40.62409054449757" lon="15.179758224886157"><ele>84.0</ele><time>2026-05-02T08:50:55.999Z</time></trkpt><trkpt lat="40.62430558254529" lon="15.180103136117376"><ele>80.0</ele><time>2026-05-02T08:50:56.999Z</time></trkpt><trkpt lat="40.6245145657091" lon="15.180443245312436"><ele>75.5</ele><time>2026-05-02T08:50:57.999Z</time></trkpt><trkpt lat="40.624707125415846" lon="15.180777754402591"><ele>71.0</ele><time>2026-05-02T08:50:58.999Z</time></trkpt><trkpt lat="40.624904602548554" lon="15.181119107466612"><ele>71.0</ele><time>2026-05-02T08:50:59.999Z</time></trkpt><trkpt lat="40.62500936465386" lon="15.181281192389456"><ele>71.0</ele><time>2026-05-02T08:51:00.999Z</time></trkpt><trkpt lat="40.625199316351726" lon="15.181664826767731"><ele>68.5</ele><time>2026-05-02T08:51:01.999Z</time></trkpt><trkpt lat="40.62538634568897" lon="15.18203217351947"><ele>66.0</ele><time>2026-05-02T08:51:02.999Z</time></trkpt><trkpt lat="40.62556343562578" lon="15.182397442403486"><ele>65.5</ele><time>2026-05-02T08:51:03.999Z</time></trkpt><trkpt lat="40.62572588492603" lon="15.182768771339655"><ele>65.0</ele><time>2026-05-02T08:51:04.999Z</time></trkpt><trkpt lat="40.62587079771928" lon="15.183149721544623"><ele>65.0</ele><time>2026-05-02T08:51:05.999Z</time></trkpt><trkpt lat="40.6260119254449" lon="15.183533100453966"><ele>65.0</ele><time>2026-05-02T08:51:06.999Z</time></trkpt><trkpt lat="40.6261452963172" lon="15.183924184984251"><ele>67.0</ele><time>2026-05-02T08:51:07.999Z</time></trkpt><trkpt lat="40.62626824699312" lon="15.184320151797486"><ele>69.0</ele><time>2026-05-02T08:51:08.999Z</time></trkpt><trkpt lat="40.62638508855415" lon="15.184722140691632"><ele>67.0</ele><time>2026-05-02T08:51:09.999Z</time></trkpt><trkpt lat="40.62649422611807" lon="15.185130072020721"><ele>65.0</ele><time>2026-05-02T08:51:10.999Z</time></trkpt><trkpt lat="40.62659517552878" lon="15.185542280060364"><ele>63.0</ele><time>2026-05-02T08:51:12Z</time></trkpt><trkpt lat="40.62668487846809" lon="15.18596247323219"><ele>61.0</ele><time>2026-05-02T08:51:13Z</time></trkpt><trkpt lat="40.62676479247493" lon="15.186383563621035"><ele>61.0</ele><time>2026-05-02T08:51:14Z</time></trkpt><trkpt lat="40.62683510779193" lon="15.18680915738222"><ele>61.0</ele><time>2026-05-02T08:51:15Z</time></trkpt><trkpt lat="40.62689400689374" lon="15.187239170376213"><ele>61.0</ele><time>2026-05-02T08:51:16Z</time></trkpt><trkpt lat="40.62694336224104" lon="15.187674523165443"><ele>61.0</ele><time>2026-05-02T08:51:17Z</time></trkpt><trkpt lat="40.62698764111673" lon="15.188109968863365"><ele>62.5</ele><time>2026-05-02T08:51:18Z</time></trkpt><trkpt lat="40.62701853594203" lon="15.188548739891656"><ele>64.0</ele><time>2026-05-02T08:51:19Z</time></trkpt><trkpt lat="40.62703856023148" lon="15.188986649489902"><ele>64.0</ele><time>2026-05-02T08:51:20Z</time></trkpt><trkpt lat="40.62704572908746" lon="15.189426545209816"><ele>64.0</ele><time>2026-05-02T08:51:21Z</time></trkpt><trkpt lat="40.627042360002655" lon="15.189864220302967"><ele>66.0</ele><time>2026-05-02T08:51:22Z</time></trkpt><trkpt lat="40.62702905404512" lon="15.190300450579862"><ele>68.0</ele><time>2026-05-02T08:51:23Z</time></trkpt><trkpt lat="40.62700801741785" lon="15.190735667124772"><ele>68.5</ele><time>2026-05-02T08:51:24Z</time></trkpt><trkpt lat="40.626979836474185" lon="15.191173261892162"><ele>69.0</ele><time>2026-05-02T08:51:25Z</time></trkpt><trkpt lat="40.62694463945402" lon="15.19160768840765"><ele>67.0</ele><time>2026-05-02T08:51:26Z</time></trkpt><trkpt lat="40.62690326941017" lon="15.192042337757758"><ele>65.0</ele><time>2026-05-02T08:51:27Z</time></trkpt><trkpt lat="40.626856794605935" lon="15.192478079761926"><ele>65.0</ele><time>2026-05-02T08:51:28Z</time></trkpt><trkpt lat="40.62680625802414" lon="15.192913511265331"><ele>65.0</ele><time>2026-05-02T08:51:29Z</time></trkpt><trkpt lat="40.62675529529927" lon="15.193348084191461"><ele>67.0</ele><time>2026-05-02T08:51:30Z</time></trkpt><trkpt lat="40.62669986902434" lon="15.193784673899195"><ele>69.0</ele><time>2026-05-02T08:51:31Z</time></trkpt><trkpt lat="40.62664044807183" lon="15.194220035776244"><ele>70.5</ele><time>2026-05-02T08:51:32Z</time></trkpt><trkpt lat="40.62657737211615" lon="15.194654147289754"><ele>72.0</ele><time>2026-05-02T08:51:33Z</time></trkpt><trkpt lat="40.626514147960165" lon="15.195086372202608"><ele>73.0</ele><time>2026-05-02T08:51:34Z</time></trkpt><trkpt lat="40.626452905843905" lon="15.195519455026341"><ele>74.0</ele><time>2026-05-02T08:51:35Z</time></trkpt><trkpt lat="40.62639442554511" lon="15.195952714737048"><ele>76.0</ele><time>2026-05-02T08:51:36Z</time></trkpt><trkpt lat="40.6263386413761" lon="15.196384989139425"><ele>78.0</ele><time>2026-05-02T08:51:37Z</time></trkpt><trkpt lat="40.6262860521081" lon="15.196818545531785"><ele>79.0</ele><time>2026-05-02T08:51:38Z</time></trkpt><trkpt lat="40.62623849382807" lon="15.197251186142443"><ele>80.0</ele><time>2026-05-02T08:51:39Z</time></trkpt><trkpt lat="40.62619751608216" lon="15.197686654803565"><ele>80.0</ele><time>2026-05-02T08:51:40Z</time></trkpt><trkpt lat="40.62616515864608" lon="15.198123940575828"><ele>80.0</ele><time>2026-05-02T08:51:41Z</time></trkpt><trkpt lat="40.626143754238036" lon="15.198562898066964"><ele>76.0</ele><time>2026-05-02T08:51:42Z</time></trkpt><trkpt lat="40.62613309169725" lon="15.199001729732132"><ele>72.0</ele><time>2026-05-02T08:51:43Z</time></trkpt><trkpt lat="40.626130582584686" lon="15.199442379429273"><ele>72.5</ele><time>2026-05-02T08:51:44Z</time></trkpt><trkpt lat="40.62613651792125" lon="15.199885973429424"><ele>73.0</ele><time>2026-05-02T08:51:45Z</time></trkpt><trkpt lat="40.62614873174405" lon="15.200325805338002"><ele>81.5</ele><time>2026-05-02T08:51:46Z</time></trkpt><trkpt lat="40.62617051970115" lon="15.200765511884885"><ele>90.0</ele><time>2026-05-02T08:51:47Z</time></trkpt><trkpt lat="40.62620082637624" lon="15.201203107818168"><ele>92.5</ele><time>2026-05-02T08:51:48Z</time></trkpt><trkpt lat="40.626243050729784" lon="15.201643234399754"><ele>95.0</ele><time>2026-05-02T08:51:49Z</time></trkpt><trkpt lat="40.626293698511375" lon="15.202085353700094"><ele>96.5</ele><time>2026-05-02T08:51:50Z</time></trkpt><trkpt lat="40.626353732052465" lon="15.202524893991656"><ele>98.0</ele><time>2026-05-02T08:51:51Z</time></trkpt><trkpt lat="40.62642406871493" lon="15.202963551242314"><ele>99.0</ele><time>2026-05-02T08:51:52Z</time></trkpt><trkpt lat="40.62650415773906" lon="15.203401384437836"><ele>100.0</ele><time>2026-05-02T08:51:53Z</time></trkpt><trkpt lat="40.626589913102" lon="15.203838078673673"><ele>98.0</ele><time>2026-05-02T08:51:54Z</time></trkpt><trkpt lat="40.62667925408786" lon="15.204275999016899"><ele>96.0</ele><time>2026-05-02T08:51:55Z</time></trkpt><trkpt lat="40.62676891446078" lon="15.204713552959701"><ele>93.5</ele><time>2026-05-02T08:51:56Z</time></trkpt><trkpt lat="40.62682337114547" lon="15.205112564573366"><ele>91.0</ele><time>2026-05-02T08:51:57Z</time></trkpt><trkpt lat="40.62691177215283" lon="15.205541407672492"><ele>87.5</ele><time>2026-05-02T08:51:58Z</time></trkpt><trkpt lat="40.627004206389756" lon="15.205966887241654"><ele>84.0</ele><time>2026-05-02T08:51:59Z</time></trkpt><trkpt lat="40.627094968217214" lon="15.206393468429958"><ele>79.5</ele><time>2026-05-02T08:52:00Z</time></trkpt><trkpt lat="40.62719287867527" lon="15.206818923330493"><ele>75.0</ele><time>2026-05-02T08:52:01Z</time></trkpt><trkpt lat="40.62730215013753" lon="15.207213241426064"><ele>76.0</ele><time>2026-05-02T08:52:02Z</time></trkpt><trkpt lat="40.62738924575419" lon="15.20761636475206"><ele>77.0</ele><time>2026-05-02T08:52:03Z</time></trkpt><trkpt lat="40.62747800921874" lon="15.208029379701937"><ele>77.0</ele><time>2026-05-02T08:52:04Z</time></trkpt><trkpt lat="40.627566404562806" lon="15.208447290752154"><ele>77.0</ele><time>2026-05-02T08:52:05Z</time></trkpt><trkpt lat="40.627659587449074" lon="15.208864963374337"><ele>77.0</ele><time>2026-05-02T08:52:06Z</time></trkpt><trkpt lat="40.627749019939515" lon="15.209284636984826"><ele>77.0</ele><time>2026-05-02T08:52:07Z</time></trkpt><trkpt lat="40.62783476828046" lon="15.209709882849838"><ele>86.5</ele><time>2026-05-02T08:52:08Z</time></trkpt><trkpt lat="40.6279139980351" lon="15.210142554937576"><ele>96.0</ele><time>2026-05-02T08:52:09Z</time></trkpt><trkpt lat="40.62798785835767" lon="15.21057505632442"><ele>96.5</ele><time>2026-05-02T08:52:10Z</time></trkpt><trkpt lat="40.62806590970729" lon="15.211001973929381"><ele>97.0</ele><time>2026-05-02T08:52:11Z</time></trkpt><trkpt lat="40.62813243105781" lon="15.211436546207088"><ele>100.0</ele><time>2026-05-02T08:52:12Z</time></trkpt><trkpt lat="40.62819569301614" lon="15.211870869488555"><ele>103.0</ele><time>2026-05-02T08:52:13Z</time></trkpt><trkpt lat="40.62821917201125" lon="15.212332055405035"><ele>105.5</ele><time>2026-05-02T08:52:14Z</time></trkpt><trkpt lat="40.62825847199825" lon="15.212772527558473"><ele>108.0</ele><time>2026-05-02T08:52:15Z</time></trkpt><trkpt lat="40.628289409685785" lon="15.213211355893561"><ele>110.5</ele><time>2026-05-02T08:52:16Z</time></trkpt><trkpt lat="40.628307498480055" lon="15.213650437662238"><ele>113.0</ele><time>2026-05-02T08:52:17Z</time></trkpt><trkpt lat="40.628325729929564" lon="15.21409230732776"><ele>115.0</ele><time>2026-05-02T08:52:18Z</time></trkpt><trkpt lat="40.62833373921625" lon="15.21453428065622"><ele>117.0</ele><time>2026-05-02T08:52:19Z</time></trkpt><trkpt lat="40.62833845380681" lon="15.214976447513626"><ele>120.0</ele><time>2026-05-02T08:52:20Z</time></trkpt><trkpt lat="40.62834029098776" lon="15.215420849546694"><ele>123.0</ele><time>2026-05-02T08:52:21Z</time></trkpt><trkpt lat="40.62834639288416" lon="15.215867801893687"><ele>128.0</ele><time>2026-05-02T08:52:22Z</time></trkpt><trkpt lat="40.62835373614829" lon="15.216312889111238"><ele>133.0</ele><time>2026-05-02T08:52:23Z</time></trkpt><trkpt lat="40.628356448746665" lon="15.216758015233442"><ele>135.5</ele><time>2026-05-02T08:52:24Z</time></trkpt><trkpt lat="40.62835797355642" lon="15.217202075469077"><ele>138.0</ele><time>2026-05-02T08:52:25Z</time></trkpt><trkpt lat="40.628359462802884" lon="15.217645523541366"><ele>138.0</ele><time>2026-05-02T08:52:26Z</time></trkpt><trkpt lat="40.62835346020872" lon="15.218087707692066"><ele>138.0</ele><time>2026-05-02T08:52:27Z</time></trkpt><trkpt lat="40.62835405710787" lon="15.21853000189378"><ele>137.0</ele><time>2026-05-02T08:52:28Z</time></trkpt><trkpt lat="40.628356649376805" lon="15.218972921351092"><ele>136.0</ele><time>2026-05-02T08:52:29Z</time></trkpt><trkpt lat="40.62836321180329" lon="15.219412367315265"><ele>127.0</ele><time>2026-05-02T08:52:30Z</time></trkpt><trkpt lat="40.62836940738465" lon="15.21984978196038"><ele>118.0</ele><time>2026-05-02T08:52:31Z</time></trkpt><trkpt lat="40.62837657940958" lon="15.22028769873782"><ele>111.0</ele><time>2026-05-02T08:52:32Z</time></trkpt><trkpt lat="40.62838754246267" lon="15.22071522771711"><ele>104.0</ele><time>2026-05-02T08:52:33Z</time></trkpt><trkpt lat="40.628385793250054" lon="15.221153123978716"><ele>97.0</ele><time>2026-05-02T08:52:33.999Z</time></trkpt><trkpt lat="40.62838698999118" lon="15.221589813950509"><ele>90.0</ele><time>2026-05-02T08:52:34.999Z</time></trkpt><trkpt lat="40.62838928017685" lon="15.222028960019534"><ele>85.5</ele><time>2026-05-02T08:52:35.999Z</time></trkpt><trkpt lat="40.628386308787775" lon="15.222465353508003"><ele>81.0</ele><time>2026-05-02T08:52:36.999Z</time></trkpt><trkpt lat="40.62842056196474" lon="15.222807839636307"><ele>77.0</ele><time>2026-05-02T08:52:37.999Z</time></trkpt><trkpt lat="40.628445724448405" lon="15.223266632495223"><ele>73.0</ele><time>2026-05-02T08:52:38.999Z</time></trkpt><trkpt lat="40.628441291339016" lon="15.223700992742923"><ele>71.5</ele><time>2026-05-02T08:52:39.999Z</time></trkpt><trkpt lat="40.62844581609345" lon="15.224137715575726"><ele>70.0</ele><time>2026-05-02T08:52:40.999Z</time></trkpt><trkpt lat="40.628447835484444" lon="15.224565944596737"><ele>72.5</ele><time>2026-05-02T08:52:41.999Z</time></trkpt><trkpt lat="40.62845434004647" lon="15.22499541546306"><ele>75.0</ele><time>2026-05-02T08:52:42.999Z</time></trkpt><trkpt lat="40.628454655167104" lon="15.225422943492768"><ele>75.0</ele><time>2026-05-02T08:52:43.999Z</time></trkpt><trkpt lat="40.62845892536304" lon="15.225850684358958"><ele>75.0</ele><time>2026-05-02T08:52:44.999Z</time></trkpt><trkpt lat="40.628469075958186" lon="15.226277426151364"><ele>74.5</ele><time>2026-05-02T08:52:45.999Z</time></trkpt><trkpt lat="40.628479956445894" lon="15.226708310344241"><ele>74.0</ele><time>2026-05-02T08:52:46.999Z</time></trkpt><trkpt lat="40.62848933680075" lon="15.227134601842534"><ele>75.5</ele><time>2026-05-02T08:52:47.999Z</time></trkpt><trkpt lat="40.62849375534883" lon="15.22756927138877"><ele>77.0</ele><time>2026-05-02T08:52:48.999Z</time></trkpt><trkpt lat="40.62849815828598" lon="15.228005234724401"><ele>79.5</ele><time>2026-05-02T08:52:49.999Z</time></trkpt><trkpt lat="40.628499297754615" lon="15.228442664510895"><ele>82.0</ele><time>2026-05-02T08:52:50.999Z</time></trkpt><trkpt lat="40.62849979437658" lon="15.228877070550858"><ele>87.0</ele><time>2026-05-02T08:52:51.999Z</time></trkpt><trkpt lat="40.62849990787956" lon="15.229308353570884"><ele>92.0</ele><time>2026-05-02T08:52:52.999Z</time></trkpt><trkpt lat="40.62849503588466" lon="15.229741071025206"><ele>95.5</ele><time>2026-05-02T08:52:53.999Z</time></trkpt><trkpt lat="40.62848263080985" lon="15.230177501880467"><ele>99.0</ele><time>2026-05-02T08:52:54.999Z</time></trkpt><trkpt lat="40.628461129285725" lon="15.230609941675661"><ele>101.5</ele><time>2026-05-02T08:52:55.999Z</time></trkpt><trkpt lat="40.628433547501835" lon="15.231046117548363"><ele>104.0</ele><time>2026-05-02T08:52:56.999Z</time></trkpt><trkpt lat="40.62839777569217" lon="15.23148005802158"><ele>105.0</ele><time>2026-05-02T08:52:57.999Z</time></trkpt><trkpt lat="40.628350821365295" lon="15.231912731683066"><ele>106.0</ele><time>2026-05-02T08:52:58.999Z</time></trkpt><trkpt lat="40.628291070061124" lon="15.232340736939943"><ele>106.0</ele><time>2026-05-02T08:52:59.999Z</time></trkpt><trkpt lat="40.62821661644732" lon="15.232766580558836"><ele>106.0</ele><time>2026-05-02T08:53:00.999Z</time></trkpt><trkpt lat="40.62812905639129" lon="15.233186963736877"><ele>106.0</ele><time>2026-05-02T08:53:01.999Z</time></trkpt><trkpt lat="40.6280314051635" lon="15.233609283332697"><ele>106.0</ele><time>2026-05-02T08:53:02.999Z</time></trkpt><trkpt lat="40.6279213255721" lon="15.234022558594503"><ele>109.5</ele><time>2026-05-02T08:53:03.999Z</time></trkpt><trkpt lat="40.62779788258237" lon="15.234428540495333"><ele>113.0</ele><time>2026-05-02T08:53:04.999Z</time></trkpt><trkpt lat="40.627661394110284" lon="15.234824140893497"><ele>113.0</ele><time>2026-05-02T08:53:05.999Z</time></trkpt><trkpt lat="40.627514195001524" lon="15.235209797337994"><ele>113.0</ele><time>2026-05-02T08:53:06.999Z</time></trkpt><trkpt lat="40.6273553895856" lon="15.235591434735232"><ele>110.0</ele><time>2026-05-02T08:53:07.999Z</time></trkpt><trkpt lat="40.62718591585509" lon="15.235970351860834"><ele>107.0</ele><time>2026-05-02T08:53:08.999Z</time></trkpt><trkpt lat="40.627006060946286" lon="15.236340602466983"><ele>114.5</ele><time>2026-05-02T08:53:09.999Z</time></trkpt><trkpt lat="40.62681185477031" lon="15.236699547063195"><ele>122.0</ele><time>2026-05-02T08:53:10.999Z</time></trkpt><trkpt lat="40.626607902840426" lon="15.23704328701094"><ele>117.5</ele><time>2026-05-02T08:53:11.999Z</time></trkpt><trkpt lat="40.62639425150861" lon="15.237382487674443"><ele>113.0</ele><time>2026-05-02T08:53:12.999Z</time></trkpt><trkpt lat="40.62617172958213" lon="15.237710131343656"><ele>127.0</ele><time>2026-05-02T08:53:13.999Z</time></trkpt><trkpt lat="40.62593791339789" lon="15.238021580429104"><ele>141.0</ele><time>2026-05-02T08:53:14.999Z</time></trkpt><trkpt lat="40.62568896961227" lon="15.238318800268507"><ele>141.0</ele><time>2026-05-02T08:53:15.999Z</time></trkpt><trkpt lat="40.62543332501743" lon="15.23860537120766"><ele>141.0</ele><time>2026-05-02T08:53:17Z</time></trkpt><trkpt lat="40.625178503232135" lon="15.238886208903125"><ele>154.0</ele><time>2026-05-02T08:53:18Z</time></trkpt><trkpt lat="40.62492424752485" lon="15.2391703574794"><ele>167.0</ele><time>2026-05-02T08:53:19Z</time></trkpt><trkpt lat="40.62466858742727" lon="15.239454533859126"><ele>166.0</ele><time>2026-05-02T08:53:20Z</time></trkpt><trkpt lat="40.62439040335001" lon="15.239689299044727"><ele>165.0</ele><time>2026-05-02T08:53:21Z</time></trkpt><trkpt lat="40.62410623458808" lon="15.23991769061438"><ele>165.0</ele><time>2026-05-02T08:53:22Z</time></trkpt><trkpt lat="40.62382247887971" lon="15.240136753589091"><ele>165.0</ele><time>2026-05-02T08:53:23Z</time></trkpt><trkpt lat="40.623537975822735" lon="15.240350189371405"><ele>165.5</ele><time>2026-05-02T08:53:24Z</time></trkpt><trkpt lat="40.623254077996066" lon="15.240559387929533"><ele>166.0</ele><time>2026-05-02T08:53:25Z</time></trkpt><trkpt lat="40.622968901942826" lon="15.240763026534191"><ele>163.5</ele><time>2026-05-02T08:53:26Z</time></trkpt><trkpt lat="40.62256167773815" lon="15.24094256573268"><ele>161.0</ele><time>2026-05-02T08:53:27Z</time></trkpt><trkpt lat="40.62225932574743" lon="15.241144983802979"><ele>162.0</ele><time>2026-05-02T08:53:28Z</time></trkpt><trkpt lat="40.62195668298133" lon="15.241347018941159"><ele>163.0</ele><time>2026-05-02T08:53:29Z</time></trkpt><trkpt lat="40.62166106239462" lon="15.241565411333982"><ele>160.0</ele><time>2026-05-02T08:53:30Z</time></trkpt><trkpt lat="40.621360135889454" lon="15.241775295884217"><ele>157.0</ele><time>2026-05-02T08:53:31Z</time></trkpt><trkpt lat="40.621057785656795" lon="15.241983529997805"><ele>157.0</ele><time>2026-05-02T08:53:32Z</time></trkpt><trkpt lat="40.62076371584921" lon="15.242202114004156"><ele>157.0</ele><time>2026-05-02T08:53:33Z</time></trkpt><trkpt lat="40.6204668070939" lon="15.242417582105368"><ele>146.5</ele><time>2026-05-02T08:53:34Z</time></trkpt><trkpt lat="40.62016648583044" lon="15.242630690231056"><ele>136.0</ele><time>2026-05-02T08:53:35Z</time></trkpt><trkpt lat="40.61986435075255" lon="15.242824564750283"><ele>136.0</ele><time>2026-05-02T08:53:36Z</time></trkpt><trkpt lat="40.61956606504032" lon="15.243016097091344"><ele>136.0</ele><time>2026-05-02T08:53:37Z</time></trkpt><trkpt lat="40.61926522219943" lon="15.2432164677815"><ele>130.0</ele><time>2026-05-02T08:53:38Z</time></trkpt><trkpt lat="40.6189630276746" lon="15.243425635650166"><ele>124.0</ele><time>2026-05-02T08:53:39Z</time></trkpt><trkpt lat="40.61866324978281" lon="15.24363700381289"><ele>122.5</ele><time>2026-05-02T08:53:40Z</time></trkpt><trkpt lat="40.61836524852286" lon="15.243848314433274"><ele>121.0</ele><time>2026-05-02T08:53:41Z</time></trkpt><trkpt lat="40.618167833207636" lon="15.244025766860947"><ele>121.5</ele><time>2026-05-02T08:53:42Z</time></trkpt><trkpt lat="40.61786943890449" lon="15.244267856852307"><ele>122.0</ele><time>2026-05-02T08:53:43Z</time></trkpt><trkpt lat="40.617575582073464" lon="15.244494980783527"><ele>122.0</ele><time>2026-05-02T08:53:44Z</time></trkpt><trkpt lat="40.617300095419644" lon="15.244714967508308"><ele>122.0</ele><time>2026-05-02T08:53:45Z</time></trkpt><trkpt lat="40.61701860376694" lon="15.244946429884246"><ele>127.0</ele><time>2026-05-02T08:53:46Z</time></trkpt><trkpt lat="40.61673804069349" lon="15.245178644413702"><ele>132.0</ele><time>2026-05-02T08:53:47Z</time></trkpt><trkpt lat="40.61646149942663" lon="15.245418320342457"><ele>129.5</ele><time>2026-05-02T08:53:48Z</time></trkpt><trkpt lat="40.6161864362562" lon="15.245663230011054"><ele>127.0</ele><time>2026-05-02T08:53:49Z</time></trkpt><trkpt lat="40.615924890453435" lon="15.24593315153932"><ele>136.0</ele><time>2026-05-02T08:53:50Z</time></trkpt><trkpt lat="40.615664985742676" lon="15.24620585778542"><ele>145.0</ele><time>2026-05-02T08:53:51Z</time></trkpt><trkpt lat="40.61541747724183" lon="15.246498261678598"><ele>149.0</ele><time>2026-05-02T08:53:52Z</time></trkpt><trkpt lat="40.615164386261185" lon="15.246782732191834"><ele>153.0</ele><time>2026-05-02T08:53:53Z</time></trkpt><trkpt lat="40.61493133816505" lon="15.247089133266893"><ele>153.5</ele><time>2026-05-02T08:53:54Z</time></trkpt><trkpt lat="40.6147074782719" lon="15.247399268431835"><ele>154.0</ele><time>2026-05-02T08:53:55Z</time></trkpt><trkpt lat="40.61448988578478" lon="15.247722220108615"><ele>155.5</ele><time>2026-05-02T08:53:56Z</time></trkpt><trkpt lat="40.61428428342507" lon="15.248067274895332"><ele>157.0</ele><time>2026-05-02T08:53:57Z</time></trkpt><trkpt lat="40.61409119170168" lon="15.248418542854036"><ele>157.0</ele><time>2026-05-02T08:53:58Z</time></trkpt><trkpt lat="40.61389867976816" lon="15.248769322745991"><ele>157.0</ele><time>2026-05-02T08:53:59Z</time></trkpt><trkpt lat="40.613688196715856" lon="15.249152855663878"><ele>161.0</ele><time>2026-05-02T08:54:00Z</time></trkpt><trkpt lat="40.61348750102599" lon="15.24951855448332"><ele>165.0</ele><time>2026-05-02T08:54:01Z</time></trkpt><trkpt lat="40.6134682374023" lon="15.250045025978146"><ele>154.0</ele><time>2026-05-02T08:54:02Z</time></trkpt><trkpt lat="40.61333724152607" lon="15.250457829559059"><ele>143.0</ele><time>2026-05-02T08:54:03Z</time></trkpt><trkpt lat="40.613214846238016" lon="15.2508817698496"><ele>133.0</ele><time>2026-05-02T08:54:04Z</time></trkpt><trkpt lat="40.613106035869514" lon="15.251314229417494"><ele>123.0</ele><time>2026-05-02T08:54:05Z</time></trkpt><trkpt lat="40.613010400710905" lon="15.251747503718768"><ele>124.0</ele><time>2026-05-02T08:54:06Z</time></trkpt><trkpt lat="40.61290956035341" lon="15.252198499453465"><ele>125.0</ele><time>2026-05-02T08:54:07Z</time></trkpt><trkpt lat="40.61280989000073" lon="15.25266241297278"><ele>121.5</ele><time>2026-05-02T08:54:08Z</time></trkpt><trkpt lat="40.6127322651674" lon="15.253137220766357"><ele>118.0</ele><time>2026-05-02T08:54:09Z</time></trkpt><trkpt lat="40.612516690122625" lon="15.253228942408949"><ele>118.0</ele><time>2026-05-02T08:54:10Z</time></trkpt><trkpt lat="40.612486232213044" lon="15.253634964390791"><ele>118.0</ele><time>2026-05-02T08:54:11Z</time></trkpt><trkpt lat="40.61244823518234" lon="15.254061616039522"><ele>116.5</ele><time>2026-05-02T08:54:12Z</time></trkpt><trkpt lat="40.612433974071294" lon="15.25448427786228"><ele>115.0</ele><time>2026-05-02T08:54:13Z</time></trkpt><trkpt lat="40.6124242966244" lon="15.254912188481097"><ele>113.0</ele><time>2026-05-02T08:54:14Z</time></trkpt><trkpt lat="40.61243152173645" lon="15.255343092406179"><ele>111.0</ele><time>2026-05-02T08:54:15Z</time></trkpt><trkpt lat="40.61244481303286" lon="15.255773180824862"><ele>108.5</ele><time>2026-05-02T08:54:16Z</time></trkpt><trkpt lat="40.61247121675807" lon="15.256204457434233"><ele>106.0</ele><time>2026-05-02T08:54:17Z</time></trkpt><trkpt lat="40.612500826043174" lon="15.25663496767923"><ele>102.5</ele><time>2026-05-02T08:54:18Z</time></trkpt><trkpt lat="40.612539426698255" lon="15.257061927906467"><ele>99.0</ele><time>2026-05-02T08:54:19Z</time></trkpt><trkpt lat="40.612589320192754" lon="15.25749079144522"><ele>99.0</ele><time>2026-05-02T08:54:20Z</time></trkpt><trkpt lat="40.61263991843029" lon="15.257913148866864"><ele>99.0</ele><time>2026-05-02T08:54:21Z</time></trkpt><trkpt lat="40.61269806293066" lon="15.258334727579564"><ele>100.5</ele><time>2026-05-02T08:54:22Z</time></trkpt><trkpt lat="40.612756679035016" lon="15.25875816293771"><ele>102.0</ele><time>2026-05-02T08:54:23Z</time></trkpt><trkpt lat="40.61280979490432" lon="15.259184971939774"><ele>100.5</ele><time>2026-05-02T08:54:24Z</time></trkpt><trkpt lat="40.61286716176046" lon="15.2596222220689"><ele>99.0</ele><time>2026-05-02T08:54:25Z</time></trkpt><trkpt lat="40.61292882939863" lon="15.26005811114827"><ele>106.5</ele><time>2026-05-02T08:54:26Z</time></trkpt><trkpt lat="40.612990352034345" lon="15.260495630411178"><ele>114.0</ele><time>2026-05-02T08:54:27Z</time></trkpt><trkpt lat="40.61304899086214" lon="15.260925772377993"><ele>123.0</ele><time>2026-05-02T08:54:28Z</time></trkpt><trkpt lat="40.613110357067065" lon="15.261355120572201"><ele>132.0</ele><time>2026-05-02T08:54:29Z</time></trkpt><trkpt lat="40.61317351148574" lon="15.261789518419862"><ele>136.5</ele><time>2026-05-02T08:54:30Z</time></trkpt><trkpt lat="40.6132370062" lon="15.26221620158981"><ele>141.0</ele><time>2026-05-02T08:54:31Z</time></trkpt><trkpt lat="40.613302069744684" lon="15.26264722667375"><ele>140.5</ele><time>2026-05-02T08:54:32Z</time></trkpt><trkpt lat="40.61336478498245" lon="15.263074838934749"><ele>140.0</ele><time>2026-05-02T08:54:33Z</time></trkpt><trkpt lat="40.61342393414482" lon="15.263507584497885"><ele>140.0</ele><time>2026-05-02T08:54:34Z</time></trkpt><trkpt lat="40.61347933385795" lon="15.2639417142221"><ele>140.0</ele><time>2026-05-02T08:54:35Z</time></trkpt><trkpt lat="40.613536778408765" lon="15.264373223734248"><ele>138.5</ele><time>2026-05-02T08:54:36Z</time></trkpt><trkpt lat="40.61359706715063" lon="15.264807033082858"><ele>137.0</ele><time>2026-05-02T08:54:37Z</time></trkpt><trkpt lat="40.613658786750754" lon="15.265238828647622"><ele>150.5</ele><time>2026-05-02T08:54:38Z</time></trkpt><trkpt lat="40.61371989158002" lon="15.265667202428538"><ele>164.0</ele><time>2026-05-02T08:54:39Z</time></trkpt><trkpt lat="40.6137807922751" lon="15.266092854263048"><ele>162.0</ele><time>2026-05-02T08:54:40Z</time></trkpt><trkpt lat="40.61384002139653" lon="15.266520066036595"><ele>160.0</ele><time>2026-05-02T08:54:40.999Z</time></trkpt><trkpt lat="40.61389709423662" lon="15.266950546390827"><ele>160.5</ele><time>2026-05-02T08:54:41.999Z</time></trkpt><trkpt lat="40.613953711910156" lon="15.267382343223034"><ele>161.0</ele><time>2026-05-02T08:54:42.999Z</time></trkpt><trkpt lat="40.614011937367344" lon="15.267813678981437"><ele>162.5</ele><time>2026-05-02T08:54:43.999Z</time></trkpt><trkpt lat="40.614070540645685" lon="15.268245457026477"><ele>164.0</ele><time>2026-05-02T08:54:44.999Z</time></trkpt><trkpt lat="40.61412870117828" lon="15.26867941549135"><ele>166.0</ele><time>2026-05-02T08:54:45.999Z</time></trkpt><trkpt lat="40.61418685193881" lon="15.269115385433631"><ele>168.0</ele><time>2026-05-02T08:54:46.999Z</time></trkpt><trkpt lat="40.614242356812724" lon="15.269549484780004"><ele>170.0</ele><time>2026-05-02T08:54:47.999Z</time></trkpt><trkpt lat="40.61429455324685" lon="15.269979507050541"><ele>172.0</ele><time>2026-05-02T08:54:48.999Z</time></trkpt><trkpt lat="40.614341537483384" lon="15.270415123084582"><ele>171.5</ele><time>2026-05-02T08:54:49.999Z</time></trkpt><trkpt lat="40.61438396631922" lon="15.270849614589038"><ele>171.0</ele><time>2026-05-02T08:54:50.999Z</time></trkpt><trkpt lat="40.614418442906775" lon="15.271285053506721"><ele>169.5</ele><time>2026-05-02T08:54:51.999Z</time></trkpt><trkpt lat="40.6144466145509" lon="15.271723642246952"><ele>168.0</ele><time>2026-05-02T08:54:52.999Z</time></trkpt><trkpt lat="40.614468874169496" lon="15.272158839039427"><ele>168.0</ele><time>2026-05-02T08:54:53.999Z</time></trkpt><trkpt lat="40.61448043354238" lon="15.272595187379729"><ele>168.0</ele><time>2026-05-02T08:54:54.999Z</time></trkpt><trkpt lat="40.61448212407957" lon="15.273034972019742"><ele>168.0</ele><time>2026-05-02T08:54:55.999Z</time></trkpt><trkpt lat="40.614474993247434" lon="15.273471589507277"><ele>168.0</ele><time>2026-05-02T08:54:56.999Z</time></trkpt><trkpt lat="40.614456399643885" lon="15.273913425159998"><ele>168.0</ele><time>2026-05-02T08:54:57.999Z</time></trkpt><trkpt lat="40.614430642441114" lon="15.274347088585328"><ele>168.0</ele><time>2026-05-02T08:54:58.999Z</time></trkpt><trkpt lat="40.61439407320614" lon="15.274788098168278"><ele>168.0</ele><time>2026-05-02T08:54:59.999Z</time></trkpt><trkpt lat="40.61435032287206" lon="15.27522175554185"><ele>168.0</ele><time>2026-05-02T08:55:00.999Z</time></trkpt><trkpt lat="40.61429165957697" lon="15.275657428788413"><ele>167.5</ele><time>2026-05-02T08:55:01.999Z</time></trkpt><trkpt lat="40.61422869305876" lon="15.27608732199108"><ele>167.0</ele><time>2026-05-02T08:55:02.999Z</time></trkpt><trkpt lat="40.61415740429805" lon="15.276514262843735"><ele>166.5</ele><time>2026-05-02T08:55:03.999Z</time></trkpt><trkpt lat="40.61407360325378" lon="15.276943620091041"><ele>166.0</ele><time>2026-05-02T08:55:04.999Z</time></trkpt><trkpt lat="40.61398347324863" lon="15.277362542163688"><ele>166.0</ele><time>2026-05-02T08:55:05.999Z</time></trkpt><trkpt lat="40.61387909440731" lon="15.27778092272196"><ele>166.0</ele><time>2026-05-02T08:55:06.999Z</time></trkpt><trkpt lat="40.61376970434583" lon="15.278195804679736"><ele>164.5</ele><time>2026-05-02T08:55:07.999Z</time></trkpt><trkpt lat="40.613652414433574" lon="15.278609102645826"><ele>163.0</ele><time>2026-05-02T08:55:08.999Z</time></trkpt><trkpt lat="40.61352484437306" lon="15.27901290570345"><ele>165.0</ele><time>2026-05-02T08:55:09.999Z</time></trkpt><trkpt lat="40.613390772039054" lon="15.279412543005252"><ele>167.0</ele><time>2026-05-02T08:55:10.999Z</time></trkpt><trkpt lat="40.61324679797105" lon="15.27981101139028"><ele>167.0</ele><time>2026-05-02T08:55:11.999Z</time></trkpt><trkpt lat="40.61309468508966" lon="15.280200396215216"><ele>167.0</ele><time>2026-05-02T08:55:12.999Z</time></trkpt><trkpt lat="40.61293662541282" lon="15.280589883008028"><ele>165.0</ele><time>2026-05-02T08:55:13.999Z</time></trkpt><trkpt lat="40.61277391298694" lon="15.280972066822072"><ele>163.0</ele><time>2026-05-02T08:55:14.999Z</time></trkpt><trkpt lat="40.612599406634914" lon="15.281347765311825"><ele>163.0</ele><time>2026-05-02T08:55:15.999Z</time></trkpt><trkpt lat="40.612419690268524" lon="15.281721024021062"><ele>163.0</ele><time>2026-05-02T08:55:16.999Z</time></trkpt><trkpt lat="40.612240751352424" lon="15.282094434900047"><ele>165.0</ele><time>2026-05-02T08:55:17.999Z</time></trkpt><trkpt lat="40.61206077039617" lon="15.282469175212736"><ele>167.0</ele><time>2026-05-02T08:55:18.999Z</time></trkpt><trkpt lat="40.611882336402836" lon="15.282843090788143"><ele>164.0</ele><time>2026-05-02T08:55:19.999Z</time></trkpt><trkpt lat="40.61170587985714" lon="15.283215209869091"><ele>161.0</ele><time>2026-05-02T08:55:20.999Z</time></trkpt><trkpt lat="40.61153128823188" lon="15.28358926147995"><ele>161.5</ele><time>2026-05-02T08:55:21.999Z</time></trkpt><trkpt lat="40.61136029943049" lon="15.283966851654775"><ele>162.0</ele><time>2026-05-02T08:55:23Z</time></trkpt><trkpt lat="40.61119571488864" lon="15.284347711484777"><ele>153.5</ele><time>2026-05-02T08:55:24Z</time></trkpt><trkpt lat="40.611040463897545" lon="15.28473507491642"><ele>145.0</ele><time>2026-05-02T08:55:25Z</time></trkpt><trkpt lat="40.61089464188236" lon="15.28512421764183"><ele>144.5</ele><time>2026-05-02T08:55:26Z</time></trkpt><trkpt lat="40.610755387631535" lon="15.285517149705514"><ele>144.0</ele><time>2026-05-02T08:55:27Z</time></trkpt><trkpt lat="40.61062805579926" lon="15.285916274469693"><ele>144.0</ele><time>2026-05-02T08:55:28Z</time></trkpt><trkpt lat="40.61051158421326" lon="15.28632210486815"><ele>144.0</ele><time>2026-05-02T08:55:29Z</time></trkpt><trkpt lat="40.61041017134644" lon="15.286731918598083"><ele>152.5</ele><time>2026-05-02T08:55:30Z</time></trkpt><trkpt lat="40.61032197534857" lon="15.287149368609105"><ele>161.0</ele><time>2026-05-02T08:55:31Z</time></trkpt><trkpt lat="40.61024828587902" lon="15.287568984678927"><ele>161.5</ele><time>2026-05-02T08:55:32Z</time></trkpt><trkpt lat="40.61018341268781" lon="15.287993862890012"><ele>162.0</ele><time>2026-05-02T08:55:33Z</time></trkpt><trkpt lat="40.61012951878016" lon="15.288421374748088"><ele>162.0</ele><time>2026-05-02T08:55:34Z</time></trkpt><trkpt lat="40.61008596232504" lon="15.288849376833369"><ele>162.0</ele><time>2026-05-02T08:55:35Z</time></trkpt><trkpt lat="40.610052946633104" lon="15.289280749374083"><ele>163.0</ele><time>2026-05-02T08:55:36Z</time></trkpt><trkpt lat="40.61003003699163" lon="15.289714198552637"><ele>164.0</ele><time>2026-05-02T08:55:37Z</time></trkpt><trkpt lat="40.610015313310875" lon="15.290148328486174"><ele>165.5</ele><time>2026-05-02T08:55:38Z</time></trkpt><trkpt lat="40.61000586551655" lon="15.290585940104444"><ele>167.0</ele><time>2026-05-02T08:55:39Z</time></trkpt><trkpt lat="40.6099993426323" lon="15.291026387481896"><ele>169.0</ele><time>2026-05-02T08:55:40Z</time></trkpt><trkpt lat="40.609991016645616" lon="15.291465949083191"><ele>171.0</ele><time>2026-05-02T08:55:41Z</time></trkpt><trkpt lat="40.609975576702595" lon="15.291900503541203"><ele>171.5</ele><time>2026-05-02T08:55:42Z</time></trkpt><trkpt lat="40.60994841660541" lon="15.29231501362721"><ele>172.0</ele><time>2026-05-02T08:55:43Z</time></trkpt><trkpt lat="40.60990732740036" lon="15.29272033146264"><ele>173.0</ele><time>2026-05-02T08:55:44Z</time></trkpt><trkpt lat="40.60985406075663" lon="15.293115171117858"><ele>174.0</ele><time>2026-05-02T08:55:45Z</time></trkpt><trkpt lat="40.60978483169358" lon="15.293505149729583"><ele>174.0</ele><time>2026-05-02T08:55:46Z</time></trkpt><trkpt lat="40.60970148223759" lon="15.293889643479845"><ele>174.0</ele><time>2026-05-02T08:55:47Z</time></trkpt><trkpt lat="40.60960257102939" lon="15.294272519147853"><ele>175.0</ele><time>2026-05-02T08:55:48Z</time></trkpt><trkpt lat="40.60949424474187" lon="15.294647000774237"><ele>176.0</ele><time>2026-05-02T08:55:49Z</time></trkpt><trkpt lat="40.60937093857615" lon="15.29501199672655"><ele>175.0</ele><time>2026-05-02T08:55:50Z</time></trkpt><trkpt lat="40.60923308073631" lon="15.295371283871354"><ele>174.0</ele><time>2026-05-02T08:55:51Z</time></trkpt><trkpt lat="40.60907857022047" lon="15.295718697372337"><ele>174.0</ele><time>2026-05-02T08:55:52Z</time></trkpt><trkpt lat="40.608908675423834" lon="15.29605768980255"><ele>174.0</ele><time>2026-05-02T08:55:53Z</time></trkpt><trkpt lat="40.608728746174364" lon="15.296383657183211"><ele>163.0</ele><time>2026-05-02T08:55:54Z</time></trkpt><trkpt lat="40.608540610002834" lon="15.296702477778124"><ele>152.0</ele><time>2026-05-02T08:55:55Z</time></trkpt><trkpt lat="40.60833820495992" lon="15.297014796072611"><ele>151.0</ele><time>2026-05-02T08:55:56Z</time></trkpt><trkpt lat="40.6081212484314" lon="15.29731297336524"><ele>150.0</ele><time>2026-05-02T08:55:57Z</time></trkpt><trkpt lat="40.607884315419675" lon="15.297607690618074"><ele>151.0</ele><time>2026-05-02T08:55:58Z</time></trkpt><trkpt lat="40.60763517190037" lon="15.297885491622184"><ele>152.0</ele><time>2026-05-02T08:55:59Z</time></trkpt><trkpt lat="40.60737713760312" lon="15.298155082271775"><ele>152.0</ele><time>2026-05-02T08:56:00Z</time></trkpt><trkpt lat="40.607113377799465" lon="15.298422232461172"><ele>152.0</ele><time>2026-05-02T08:56:01Z</time></trkpt><trkpt lat="40.606849252177106" lon="15.29869128675005"><ele>163.5</ele><time>2026-05-02T08:56:02Z</time></trkpt><trkpt lat="40.606585738361375" lon="15.298960762210495"><ele>175.0</ele><time>2026-05-02T08:56:03Z</time></trkpt><trkpt lat="40.60632192662208" lon="15.299231723935268"><ele>177.0</ele><time>2026-05-02T08:56:04Z</time></trkpt><trkpt lat="40.60605854823815" lon="15.299501504794005"><ele>179.0</ele><time>2026-05-02T08:56:05Z</time></trkpt><trkpt lat="40.60580240097135" lon="15.299765163854584"><ele>179.0</ele><time>2026-05-02T08:56:06Z</time></trkpt><trkpt lat="40.605553492961974" lon="15.300022008971776"><ele>179.0</ele><time>2026-05-02T08:56:07Z</time></trkpt><trkpt lat="40.60530271540404" lon="15.300277840104265"><ele>166.5</ele><time>2026-05-02T08:56:08Z</time></trkpt><trkpt lat="40.605049596820486" lon="15.30053507224939"><ele>154.0</ele><time>2026-05-02T08:56:09Z</time></trkpt><trkpt lat="40.60479513827693" lon="15.300793290171585"><ele>154.0</ele><time>2026-05-02T08:56:10Z</time></trkpt><trkpt lat="40.6045449883882" lon="15.30105191324815"><ele>154.0</ele><time>2026-05-02T08:56:11Z</time></trkpt><trkpt lat="40.60428544725507" lon="15.301308235819787"><ele>192.5</ele><time>2026-05-02T08:56:12Z</time></trkpt><trkpt lat="40.604019644384614" lon="15.301559957753838"><ele>231.0</ele><time>2026-05-02T08:56:13Z</time></trkpt><trkpt lat="40.60375013384741" lon="15.301802635160891"><ele>232.5</ele><time>2026-05-02T08:56:14Z</time></trkpt><trkpt lat="40.60348121207951" lon="15.302044178327094"><ele>234.0</ele><time>2026-05-02T08:56:15Z</time></trkpt><trkpt lat="40.603213201389764" lon="15.302285801036406"><ele>234.0</ele><time>2026-05-02T08:56:16Z</time></trkpt><trkpt lat="40.602945185888565" lon="15.302530599207447"><ele>234.0</ele><time>2026-05-02T08:56:17Z</time></trkpt><trkpt lat="40.602672596263794" lon="15.302771396217592"><ele>232.0</ele><time>2026-05-02T08:56:18Z</time></trkpt><trkpt lat="40.602398481398666" lon="15.303007960442905"><ele>230.0</ele><time>2026-05-02T08:56:19Z</time></trkpt><trkpt lat="40.60224915341832" lon="15.303554521711725"><ele>230.0</ele><time>2026-05-02T08:56:20Z</time></trkpt><trkpt lat="40.602002271197605" lon="15.30385547562074"><ele>230.0</ele><time>2026-05-02T08:56:21Z</time></trkpt><trkpt lat="40.60177813689651" lon="15.304168049810375"><ele>248.0</ele><time>2026-05-02T08:56:22Z</time></trkpt><trkpt lat="40.60156564046727" lon="15.3044737862845"><ele>266.0</ele><time>2026-05-02T08:56:23Z</time></trkpt><trkpt lat="40.60134909910963" lon="15.304790785999135"><ele>285.0</ele><time>2026-05-02T08:56:24Z</time></trkpt><trkpt lat="40.601128309614765" lon="15.305120844296926"><ele>304.0</ele><time>2026-05-02T08:56:25Z</time></trkpt><trkpt lat="40.60093643703718" lon="15.305464416156333"><ele>298.0</ele><time>2026-05-02T08:56:26Z</time></trkpt><trkpt lat="40.600742368388744" lon="15.305809160775063"><ele>292.0</ele><time>2026-05-02T08:56:27Z</time></trkpt><trkpt lat="40.600623001182605" lon="15.306137348052745"><ele>281.0</ele><time>2026-05-02T08:56:28Z</time></trkpt><trkpt lat="40.60049494636707" lon="15.306462821970625"><ele>270.0</ele><time>2026-05-02T08:56:29Z</time></trkpt><trkpt lat="40.60034893856198" lon="15.306811119516562"><ele>277.5</ele><time>2026-05-02T08:56:30Z</time></trkpt><trkpt lat="40.60019640412106" lon="15.307179701002408"><ele>285.0</ele><time>2026-05-02T08:56:31Z</time></trkpt><trkpt lat="40.600051631253066" lon="15.307559876705055"><ele>285.0</ele><time>2026-05-02T08:56:32Z</time></trkpt><trkpt lat="40.59991458532498" lon="15.307950363846013"><ele>285.0</ele><time>2026-05-02T08:56:33Z</time></trkpt><trkpt lat="40.59977622311138" lon="15.308355365689222"><ele>274.5</ele><time>2026-05-02T08:56:34Z</time></trkpt><trkpt lat="40.59966058682289" lon="15.308756841687323"><ele>264.0</ele><time>2026-05-02T08:56:35Z</time></trkpt><trkpt lat="40.599550975508706" lon="15.309162926399033"><ele>248.5</ele><time>2026-05-02T08:56:36Z</time></trkpt><trkpt lat="40.59945459935983" lon="15.309568874623473"><ele>233.0</ele><time>2026-05-02T08:56:37Z</time></trkpt><trkpt lat="40.59937094823655" lon="15.309972108717576"><ele>234.5</ele><time>2026-05-02T08:56:38Z</time></trkpt><trkpt lat="40.59930760773227" lon="15.310360039159344"><ele>236.0</ele><time>2026-05-02T08:56:39Z</time></trkpt><trkpt lat="40.5992802912518" lon="15.310683928382705"><ele>236.0</ele><time>2026-05-02T08:56:40Z</time></trkpt><trkpt lat="40.5992180373399" lon="15.311080347105918"><ele>236.0</ele><time>2026-05-02T08:56:41Z</time></trkpt><trkpt lat="40.59915696549822" lon="15.311475612487367"><ele>235.0</ele><time>2026-05-02T08:56:41.999Z</time></trkpt><trkpt lat="40.59909688743608" lon="15.311865555638148"><ele>234.0</ele><time>2026-05-02T08:56:42.999Z</time></trkpt><trkpt lat="40.59903917386766" lon="15.31225888602358"><ele>221.0</ele><time>2026-05-02T08:56:43.999Z</time></trkpt><trkpt lat="40.59898365903804" lon="15.312658535515332"><ele>208.0</ele><time>2026-05-02T08:56:44.999Z</time></trkpt><trkpt lat="40.59893548772178" lon="15.313066388742572"><ele>171.0</ele><time>2026-05-02T08:56:45.999Z</time></trkpt><trkpt lat="40.598715487244085" lon="15.313917826162074"><ele>191.5</ele><time>2026-05-02T08:56:46.999Z</time></trkpt><trkpt lat="40.598548157371674" lon="15.314466246850186"><ele>212.0</ele><time>2026-05-02T08:56:47.999Z</time></trkpt><trkpt lat="40.59848676281388" lon="15.314905241316353"><ele>212.0</ele><time>2026-05-02T08:56:48.999Z</time></trkpt><trkpt lat="40.59841087566629" lon="15.315328574587385"><ele>212.0</ele><time>2026-05-02T08:56:49.999Z</time></trkpt><trkpt lat="40.598305802714286" lon="15.315731347571964"><ele>205.0</ele><time>2026-05-02T08:56:50.999Z</time></trkpt><trkpt lat="40.59818800816527" lon="15.31613217754128"><ele>198.0</ele><time>2026-05-02T08:56:51.999Z</time></trkpt><trkpt lat="40.598058134867905" lon="15.316522558245937"><ele>204.5</ele><time>2026-05-02T08:56:52.999Z</time></trkpt><trkpt lat="40.59791275656447" lon="15.316908584002375"><ele>211.0</ele><time>2026-05-02T08:56:53.999Z</time></trkpt><trkpt lat="40.597749705407004" lon="15.317283367938375"><ele>211.0</ele><time>2026-05-02T08:56:54.999Z</time></trkpt><trkpt lat="40.597576503061596" lon="15.317649624249759"><ele>211.0</ele><time>2026-05-02T08:56:55.999Z</time></trkpt><trkpt lat="40.59740075379707" lon="15.318016818970461"><ele>201.0</ele><time>2026-05-02T08:56:56.999Z</time></trkpt><trkpt lat="40.59722336472563" lon="15.31839590543761"><ele>191.0</ele><time>2026-05-02T08:56:57.999Z</time></trkpt><trkpt lat="40.597042594844176" lon="15.31876798090399"><ele>207.0</ele><time>2026-05-02T08:56:58.999Z</time></trkpt><trkpt lat="40.59686410325934" lon="15.319141760865072"><ele>223.0</ele><time>2026-05-02T08:56:59.999Z</time></trkpt><trkpt lat="40.59668905295481" lon="15.319519249747202"><ele>210.5</ele><time>2026-05-02T08:57:00.999Z</time></trkpt><trkpt lat="40.596508490146505" lon="15.319890327554464"><ele>198.0</ele><time>2026-05-02T08:57:01.999Z</time></trkpt><trkpt lat="40.59633127049833" lon="15.320256187850442"><ele>207.5</ele><time>2026-05-02T08:57:02.999Z</time></trkpt><trkpt lat="40.59613920096628" lon="15.320619939406582"><ele>217.0</ele><time>2026-05-02T08:57:03.999Z</time></trkpt><trkpt lat="40.59593697934507" lon="15.32095945312516"><ele>217.0</ele><time>2026-05-02T08:57:04.999Z</time></trkpt><trkpt lat="40.595725690241096" lon="15.321292385834639"><ele>217.0</ele><time>2026-05-02T08:57:05.999Z</time></trkpt><trkpt lat="40.59550328844956" lon="15.321623932740945"><ele>226.0</ele><time>2026-05-02T08:57:06.999Z</time></trkpt><trkpt lat="40.59526867902973" lon="15.321933423059889"><ele>235.0</ele><time>2026-05-02T08:57:07.999Z</time></trkpt><trkpt lat="40.59503046784667" lon="15.322230966444584"><ele>223.0</ele><time>2026-05-02T08:57:08.999Z</time></trkpt><trkpt lat="40.59478406304801" lon="15.32252661889497"><ele>211.0</ele><time>2026-05-02T08:57:09.999Z</time></trkpt><trkpt lat="40.59453223642493" lon="15.322814830039402"><ele>213.5</ele><time>2026-05-02T08:57:10.999Z</time></trkpt><trkpt lat="40.594284511436335" lon="15.323101141498189"><ele>216.0</ele><time>2026-05-02T08:57:11.999Z</time></trkpt><trkpt lat="40.59403604707134" lon="15.323390958330698"><ele>216.0</ele><time>2026-05-02T08:57:12.999Z</time></trkpt><trkpt lat="40.593787231577956" lon="15.323684740113281"><ele>216.0</ele><time>2026-05-02T08:57:13.999Z</time></trkpt><trkpt lat="40.59354126839042" lon="15.32398200450162"><ele>220.5</ele><time>2026-05-02T08:57:14.999Z</time></trkpt><trkpt lat="40.59329411830911" lon="15.324281803978149"><ele>225.0</ele><time>2026-05-02T08:57:15.999Z</time></trkpt><trkpt lat="40.593056208650154" lon="15.324594413613664"><ele>232.5</ele><time>2026-05-02T08:57:16.999Z</time></trkpt><trkpt lat="40.59283160623714" lon="15.32492621131345"><ele>240.0</ele><time>2026-05-02T08:57:17.999Z</time></trkpt><trkpt lat="40.59262323072697" lon="15.325268940092238"><ele>226.0</ele><time>2026-05-02T08:57:18.999Z</time></trkpt><trkpt lat="40.59242898261044" lon="15.325621658511231"><ele>212.0</ele><time>2026-05-02T08:57:19.999Z</time></trkpt><trkpt lat="40.59224568300707" lon="15.325986458560386"><ele>212.0</ele><time>2026-05-02T08:57:20.999Z</time></trkpt><trkpt lat="40.59207619405836" lon="15.326359565394107"><ele>212.0</ele><time>2026-05-02T08:57:21.999Z</time></trkpt><trkpt lat="40.59192255544575" lon="15.326746332755425"><ele>217.0</ele><time>2026-05-02T08:57:22.999Z</time></trkpt><trkpt lat="40.59178285358004" lon="15.327143939970128"><ele>222.0</ele><time>2026-05-02T08:57:23.999Z</time></trkpt><trkpt lat="40.59164747821962" lon="15.327540233947754"><ele>222.0</ele><time>2026-05-02T08:57:24.999Z</time></trkpt><trkpt lat="40.59151207504641" lon="15.327943605001135"><ele>222.0</ele><time>2026-05-02T08:57:25.999Z</time></trkpt><trkpt lat="40.59137161758454" lon="15.328344178935508"><ele>216.5</ele><time>2026-05-02T08:57:26.999Z</time></trkpt><trkpt lat="40.591229642822235" lon="15.32874585298838"><ele>211.0</ele><time>2026-05-02T08:57:27.999Z</time></trkpt><trkpt lat="40.59108494631198" lon="15.329143985648434"><ele>219.5</ele><time>2026-05-02T08:57:29Z</time></trkpt><trkpt lat="40.590942459869964" lon="15.329542785722571"><ele>228.0</ele><time>2026-05-02T08:57:30Z</time></trkpt><trkpt lat="40.5908011294496" lon="15.329941389384103"><ele>228.0</ele><time>2026-05-02T08:57:31Z</time></trkpt><trkpt lat="40.590658192259816" lon="15.330337420192484"><ele>228.0</ele><time>2026-05-02T08:57:32Z</time></trkpt><trkpt lat="40.590511327336316" lon="15.330728214733993"><ele>235.5</ele><time>2026-05-02T08:57:33Z</time></trkpt><trkpt lat="40.59035750884706" lon="15.331120149072412"><ele>243.0</ele><time>2026-05-02T08:57:34Z</time></trkpt><trkpt lat="40.590193016544276" lon="15.331501518135275"><ele>243.0</ele><time>2026-05-02T08:57:35Z</time></trkpt><trkpt lat="40.59001376477727" lon="15.331871668655564"><ele>243.0</ele><time>2026-05-02T08:57:36Z</time></trkpt><trkpt lat="40.589820918022255" lon="15.332228455227623"><ele>254.5</ele><time>2026-05-02T08:57:37Z</time></trkpt><trkpt lat="40.58962098625714" lon="15.332576906606908"><ele>266.0</ele><time>2026-05-02T08:57:38Z</time></trkpt><trkpt lat="40.58941415729763" lon="15.332919261189584"><ele>252.0</ele><time>2026-05-02T08:57:39Z</time></trkpt><trkpt lat="40.589200362792226" lon="15.33325247680642"><ele>238.0</ele><time>2026-05-02T08:57:40Z</time></trkpt><trkpt lat="40.58897902209583" lon="15.333576409679553"><ele>223.5</ele><time>2026-05-02T08:57:41Z</time></trkpt><trkpt lat="40.58875158897233" lon="15.333891995323878"><ele>209.0</ele><time>2026-05-02T08:57:42Z</time></trkpt><trkpt lat="40.588520371844176" lon="15.334203773283082"><ele>218.0</ele><time>2026-05-02T08:57:43Z</time></trkpt><trkpt lat="40.58828835384805" lon="15.334516733181534"><ele>227.0</ele><time>2026-05-02T08:57:44Z</time></trkpt><trkpt lat="40.58805792818521" lon="15.33483543517954"><ele>254.0</ele><time>2026-05-02T08:57:45Z</time></trkpt><trkpt lat="40.58782990604211" lon="15.33516182735461"><ele>281.0</ele><time>2026-05-02T08:57:46Z</time></trkpt><trkpt lat="40.58761067365284" lon="15.335498457483089"><ele>262.5</ele><time>2026-05-02T08:57:47Z</time></trkpt><trkpt lat="40.58740001329229" lon="15.335840279327966"><ele>244.0</ele><time>2026-05-02T08:57:48Z</time></trkpt><trkpt lat="40.58718711782251" lon="15.33618656493304"><ele>260.0</ele><time>2026-05-02T08:57:49Z</time></trkpt><trkpt lat="40.586972770056015" lon="15.336532123524076"><ele>276.0</ele><time>2026-05-02T08:57:50Z</time></trkpt><trkpt lat="40.586758014396" lon="15.336881185534631"><ele>262.5</ele><time>2026-05-02T08:57:51Z</time></trkpt><trkpt lat="40.586542350025695" lon="15.337229895991795"><ele>249.0</ele><time>2026-05-02T08:57:52Z</time></trkpt><trkpt lat="40.58632581571737" lon="15.33757818757852"><ele>256.0</ele><time>2026-05-02T08:57:53Z</time></trkpt><trkpt lat="40.5861091249167" lon="15.33792784570525"><ele>263.0</ele><time>2026-05-02T08:57:54Z</time></trkpt><trkpt lat="40.58589351847249" lon="15.338277502303223"><ele>263.0</ele><time>2026-05-02T08:57:55Z</time></trkpt><trkpt lat="40.58567987860419" lon="15.338627518724886"><ele>263.0</ele><time>2026-05-02T08:57:56Z</time></trkpt><trkpt lat="40.58546580030344" lon="15.338973589770786"><ele>270.0</ele><time>2026-05-02T08:57:57Z</time></trkpt><trkpt lat="40.58525416414272" lon="15.339310287206928"><ele>277.0</ele><time>2026-05-02T08:57:58Z</time></trkpt><trkpt lat="40.585044362056394" lon="15.339631279215467"><ele>262.5</ele><time>2026-05-02T08:57:59Z</time></trkpt><trkpt lat="40.58483703890044" lon="15.339936816711532"><ele>248.0</ele><time>2026-05-02T08:58:00Z</time></trkpt><trkpt lat="40.584630844441236" lon="15.340222420462576"><ele>254.5</ele><time>2026-05-02T08:58:01Z</time></trkpt><trkpt lat="40.58442672192745" lon="15.340487499585262"><ele>261.0</ele><time>2026-05-02T08:58:02Z</time></trkpt><trkpt lat="40.584221625068416" lon="15.340737111213992"><ele>261.0</ele><time>2026-05-02T08:58:03Z</time></trkpt><trkpt lat="40.58401432600841" lon="15.340971620372693"><ele>261.0</ele><time>2026-05-02T08:58:04Z</time></trkpt><trkpt lat="40.583805878942165" lon="15.34119929576495"><ele>259.5</ele><time>2026-05-02T08:58:05Z</time></trkpt><trkpt lat="40.58359561238033" lon="15.341420636222766"><ele>258.0</ele><time>2026-05-02T08:58:06Z</time></trkpt><trkpt lat="40.58338335092765" lon="15.341629297928229"><ele>258.0</ele><time>2026-05-02T08:58:07Z</time></trkpt><trkpt lat="40.58316836459262" lon="15.341827397964192"><ele>258.0</ele><time>2026-05-02T08:58:08Z</time></trkpt><trkpt lat="40.582948896280136" lon="15.34201853750841"><ele>271.5</ele><time>2026-05-02T08:58:09Z</time></trkpt><trkpt lat="40.58272785772776" lon="15.342201890749283"><ele>285.0</ele><time>2026-05-02T08:58:10Z</time></trkpt><trkpt lat="40.582502951851545" lon="15.342376644275639"><ele>285.0</ele><time>2026-05-02T08:58:11Z</time></trkpt><trkpt lat="40.58225944388544" lon="15.342558422575827"><ele>285.0</ele><time>2026-05-02T08:58:12Z</time></trkpt><trkpt lat="40.5820105450118" lon="15.34274589898001"><ele>315.0</ele><time>2026-05-02T08:58:13Z</time></trkpt><trkpt lat="40.581764434014765" lon="15.34293246056522"><ele>345.0</ele><time>2026-05-02T08:58:14Z</time></trkpt><trkpt lat="40.58150889092266" lon="15.343119886253161"><ele>345.0</ele><time>2026-05-02T08:58:15Z</time></trkpt><trkpt lat="40.581244140923346" lon="15.343307404181324"><ele>345.0</ele><time>2026-05-02T08:58:16Z</time></trkpt><trkpt lat="40.580986870268305" lon="15.343489938709855"><ele>395.0</ele><time>2026-05-02T08:58:17Z</time></trkpt><trkpt lat="40.580523669182085" lon="15.343518679496114"><ele>409.5</ele><time>2026-05-02T08:58:18Z</time></trkpt><trkpt lat="40.58024923597597" lon="15.343654262833057"><ele>424.0</ele><time>2026-05-02T08:58:19Z</time></trkpt><trkpt lat="40.57996478142379" lon="15.343784616068662"><ele>410.0</ele><time>2026-05-02T08:58:20Z</time></trkpt><trkpt lat="40.57966379357482" lon="15.343921947155385"><ele>396.0</ele><time>2026-05-02T08:58:21Z</time></trkpt><trkpt lat="40.57933196640476" lon="15.344082049764529"><ele>388.5</ele><time>2026-05-02T08:58:22Z</time></trkpt><trkpt lat="40.57901632195054" lon="15.34423318443999"><ele>381.0</ele><time>2026-05-02T08:58:23Z</time></trkpt><trkpt lat="40.57870441970367" lon="15.344386172330683"><ele>357.0</ele><time>2026-05-02T08:58:24Z</time></trkpt><trkpt lat="40.5783907082639" lon="15.344539011195955"><ele>333.0</ele><time>2026-05-02T08:58:25Z</time></trkpt><trkpt lat="40.57807508218296" lon="15.344683730682057"><ele>305.5</ele><time>2026-05-02T08:58:26Z</time></trkpt><trkpt lat="40.57775899394647" lon="15.344812132598008"><ele>278.0</ele><time>2026-05-02T08:58:27Z</time></trkpt><trkpt lat="40.577445083173224" lon="15.344938075668894"><ele>278.0</ele><time>2026-05-02T08:58:28Z</time></trkpt><trkpt lat="40.57713576217459" lon="15.34508532477796"><ele>278.0</ele><time>2026-05-02T08:58:29Z</time></trkpt><trkpt lat="40.57682457452682" lon="15.345223141837371"><ele>222.0</ele><time>2026-05-02T08:58:30Z</time></trkpt><trkpt lat="40.57644549173801" lon="15.345548423833135"><ele>225.0</ele><time>2026-05-02T08:58:31Z</time></trkpt><trkpt lat="40.57606760718066" lon="15.345684956259134"><ele>228.0</ele><time>2026-05-02T08:58:32Z</time></trkpt><trkpt lat="40.57574363186135" lon="15.345844860735058"><ele>228.0</ele><time>2026-05-02T08:58:33Z</time></trkpt><trkpt lat="40.57542892431709" lon="15.346006537653874"><ele>228.0</ele><time>2026-05-02T08:58:34Z</time></trkpt><trkpt lat="40.57511162088744" lon="15.346158227531776"><ele>227.5</ele><time>2026-05-02T08:58:35Z</time></trkpt><trkpt lat="40.57479886621907" lon="15.346323877132727"><ele>227.0</ele><time>2026-05-02T08:58:36Z</time></trkpt><trkpt lat="40.57449559849974" lon="15.346510615562416"><ele>233.0</ele><time>2026-05-02T08:58:37Z</time></trkpt><trkpt lat="40.57420422508863" lon="15.346726672812261"><ele>239.0</ele><time>2026-05-02T08:58:38Z</time></trkpt><trkpt lat="40.57392434752591" lon="15.346966220535391"><ele>242.5</ele><time>2026-05-02T08:58:39Z</time></trkpt><trkpt lat="40.57365845034343" lon="15.347224480380833"><ele>246.0</ele><time>2026-05-02T08:58:39.999Z</time></trkpt><trkpt lat="40.573399507598836" lon="15.347498724081486"><ele>246.0</ele><time>2026-05-02T08:58:40.999Z</time></trkpt><trkpt lat="40.57314875523032" lon="15.34778858243694"><ele>246.0</ele><time>2026-05-02T08:58:41.999Z</time></trkpt><trkpt lat="40.572898434318084" lon="15.348086149221032"><ele>244.0</ele><time>2026-05-02T08:58:42.999Z</time></trkpt><trkpt lat="40.572642501078775" lon="15.348388251250563"><ele>242.0</ele><time>2026-05-02T08:58:43.999Z</time></trkpt><trkpt lat="40.572387037437416" lon="15.348691571937087"><ele>237.0</ele><time>2026-05-02T08:58:44.999Z</time></trkpt><trkpt lat="40.572135172868784" lon="15.348989733689622"><ele>232.0</ele><time>2026-05-02T08:58:45.999Z</time></trkpt><trkpt lat="40.57188176014256" lon="15.34929094625551"><ele>231.0</ele><time>2026-05-02T08:58:46.999Z</time></trkpt><trkpt lat="40.57162625164619" lon="15.349591209167555"><ele>230.0</ele><time>2026-05-02T08:58:47.999Z</time></trkpt><trkpt lat="40.571372973512496" lon="15.349884987271919"><ele>230.5</ele><time>2026-05-02T08:58:48.999Z</time></trkpt><trkpt lat="40.5711230862125" lon="15.350174174500811"><ele>231.0</ele><time>2026-05-02T08:58:49.999Z</time></trkpt><trkpt lat="40.57087797634653" lon="15.350457563727417"><ele>238.0</ele><time>2026-05-02T08:58:50.999Z</time></trkpt><trkpt lat="40.570642835291416" lon="15.350738151135198"><ele>245.0</ele><time>2026-05-02T08:58:51.999Z</time></trkpt><trkpt lat="40.57041851637687" lon="15.351023642716582"><ele>244.5</ele><time>2026-05-02T08:58:52.999Z</time></trkpt><trkpt lat="40.57020994771252" lon="15.35131080891151"><ele>244.0</ele><time>2026-05-02T08:58:53.999Z</time></trkpt><trkpt lat="40.570016835129096" lon="15.351600363659418"><ele>247.0</ele><time>2026-05-02T08:58:54.999Z</time></trkpt><trkpt lat="40.569832291066604" lon="15.351899374681492"><ele>250.0</ele><time>2026-05-02T08:58:55.999Z</time></trkpt><trkpt lat="40.56966120606055" lon="15.352200019657516"><ele>254.5</ele><time>2026-05-02T08:58:56.999Z</time></trkpt><trkpt lat="40.569498435536296" lon="15.352507379209772"><ele>259.0</ele><time>2026-05-02T08:58:57.999Z</time></trkpt><trkpt lat="40.569338199666284" lon="15.35283489630889"><ele>264.0</ele><time>2026-05-02T08:58:58.999Z</time></trkpt><trkpt lat="40.56918011541739" lon="15.353180134939002"><ele>269.0</ele><time>2026-05-02T08:58:59.999Z</time></trkpt><trkpt lat="40.569028691678135" lon="15.353542043143626"><ele>273.5</ele><time>2026-05-02T08:59:00.999Z</time></trkpt><trkpt lat="40.5688892227249" lon="15.353918564340958"><ele>278.0</ele><time>2026-05-02T08:59:01.999Z</time></trkpt><trkpt lat="40.568758700556586" lon="15.35431126482348"><ele>290.5</ele><time>2026-05-02T08:59:02.999Z</time></trkpt><trkpt lat="40.568636994315014" lon="15.354711210671057"><ele>303.0</ele><time>2026-05-02T08:59:03.999Z</time></trkpt><trkpt lat="40.56852298782287" lon="15.355118095800398"><ele>303.0</ele><time>2026-05-02T08:59:04.999Z</time></trkpt><trkpt lat="40.56841767894432" lon="15.355526987293127"><ele>303.0</ele><time>2026-05-02T08:59:05.999Z</time></trkpt><trkpt lat="40.568314754459" lon="15.355933943284285"><ele>310.5</ele><time>2026-05-02T08:59:06.999Z</time></trkpt><trkpt lat="40.5682091345206" lon="15.356340314553162"><ele>318.0</ele><time>2026-05-02T08:59:07.999Z</time></trkpt><trkpt lat="40.56813980660047" lon="15.356756598006822"><ele>327.0</ele><time>2026-05-02T08:59:08.999Z</time></trkpt><trkpt lat="40.568079811519105" lon="15.357176863090194"><ele>336.0</ele><time>2026-05-02T08:59:09.999Z</time></trkpt><trkpt lat="40.5680207908545" lon="15.357596344421479"><ele>367.5</ele><time>2026-05-02T08:59:10.999Z</time></trkpt><trkpt lat="40.568035895225464" lon="15.358106471002856"><ele>399.0</ele><time>2026-05-02T08:59:11.999Z</time></trkpt><trkpt lat="40.567982420005855" lon="15.358538522139245"><ele>415.5</ele><time>2026-05-02T08:59:12.999Z</time></trkpt><trkpt lat="40.567931290470874" lon="15.35897054366189"><ele>432.0</ele><time>2026-05-02T08:59:13.999Z</time></trkpt><trkpt lat="40.56787823657743" lon="15.359399455984988"><ele>458.5</ele><time>2026-05-02T08:59:14.999Z</time></trkpt><trkpt lat="40.56781813483303" lon="15.359825730909446"><ele>485.0</ele><time>2026-05-02T08:59:15.999Z</time></trkpt><trkpt lat="40.56777476578768" lon="15.360251646666175"><ele>497.5</ele><time>2026-05-02T08:59:16.999Z</time></trkpt><trkpt lat="40.56773161571282" lon="15.360677195799981"><ele>510.0</ele><time>2026-05-02T08:59:17.999Z</time></trkpt><trkpt lat="40.567663057312515" lon="15.361090607421755"><ele>510.0</ele><time>2026-05-02T08:59:18.999Z</time></trkpt><trkpt lat="40.56760457449412" lon="15.361504095685747"><ele>510.0</ele><time>2026-05-02T08:59:19.999Z</time></trkpt><trkpt lat="40.56754653430501" lon="15.361914454434316"><ele>509.5</ele><time>2026-05-02T08:59:20.999Z</time></trkpt><trkpt lat="40.56748987151506" lon="15.362315074629489"><ele>509.0</ele><time>2026-05-02T08:59:21.999Z</time></trkpt><trkpt lat="40.56743256569899" lon="15.362720241173786"><ele>508.5</ele><time>2026-05-02T08:59:22.999Z</time></trkpt><trkpt lat="40.567375946128706" lon="15.36312055580555"><ele>508.0</ele><time>2026-05-02T08:59:23.999Z</time></trkpt><trkpt lat="40.56731985685539" lon="15.363517121087314"><ele>505.5</ele><time>2026-05-02T08:59:24.999Z</time></trkpt><trkpt lat="40.56726447842023" lon="15.363911691208218"><ele>503.0</ele><time>2026-05-02T08:59:25.999Z</time></trkpt><trkpt lat="40.5672102544496" lon="15.364298237762993"><ele>503.0</ele><time>2026-05-02T08:59:26.999Z</time></trkpt><trkpt lat="40.567155668122815" lon="15.364686114204922"><ele>503.0</ele><time>2026-05-02T08:59:27.999Z</time></trkpt><trkpt lat="40.567101533503994" lon="15.365070735584382"><ele>500.0</ele><time>2026-05-02T08:59:28.999Z</time></trkpt><trkpt lat="40.56704744782751" lon="15.36545500923229"><ele>497.0</ele><time>2026-05-02T08:59:29.999Z</time></trkpt><trkpt lat="40.567000029916045" lon="15.365791909025868"><ele>499.0</ele><time>2026-05-02T08:59:30.999Z</time></trkpt><trkpt lat="40.566951475716785" lon="15.366136882036056"><ele>501.0</ele><time>2026-05-02T08:59:31.999Z</time></trkpt><trkpt lat="40.56689913692662" lon="15.366508744217402"><ele>501.0</ele><time>2026-05-02T08:59:32.999Z</time></trkpt><trkpt lat="40.56684792189955" lon="15.36687262216503"><ele>501.0</ele><time>2026-05-02T08:59:33.999Z</time></trkpt><trkpt lat="40.56679438141216" lon="15.367253022292727"><ele>492.5</ele><time>2026-05-02T08:59:35Z</time></trkpt><trkpt lat="40.56674293906698" lon="15.367618515312692"><ele>484.0</ele><time>2026-05-02T08:59:36Z</time></trkpt><trkpt lat="40.566691890985304" lon="15.367981207127354"><ele>473.0</ele><time>2026-05-02T08:59:37Z</time></trkpt><trkpt lat="40.56664132212435" lon="15.368340494121902"><ele>462.0</ele><time>2026-05-02T08:59:38Z</time></trkpt><trkpt lat="40.56658957422077" lon="15.368708158106704"><ele>424.0</ele><time>2026-05-02T08:59:39.022Z</time></trkpt><trkpt lat="40.5663593" lon="15.369873"><ele>301.0</ele><time>2026-05-02T08:59:42.193Z</time></trkpt><trkpt lat="40.56539374394663" lon="15.376630815751772"><ele>318.5</ele><time>2026-05-02T08:59:55Z</time></trkpt><trkpt lat="40.565333276581086" lon="15.377058296045119"><ele>336.0</ele><time>2026-05-02T08:59:56Z</time></trkpt><trkpt lat="40.56524172287993" lon="15.377487712640377"><ele>336.0</ele><time>2026-05-02T08:59:57Z</time></trkpt><trkpt lat="40.5651372210092" lon="15.377919783380507"><ele>336.0</ele><time>2026-05-02T08:59:58Z</time></trkpt><trkpt lat="40.565027554291056" lon="15.378313500080495"><ele>331.5</ele><time>2026-05-02T08:59:59Z</time></trkpt><trkpt lat="40.564888753243466" lon="15.378691750825213"><ele>327.0</ele><time>2026-05-02T09:00:00Z</time></trkpt><trkpt lat="40.56473181348547" lon="15.379065595202706"><ele>326.5</ele><time>2026-05-02T09:00:01Z</time></trkpt><trkpt lat="40.56456054241034" lon="15.379433108744065"><ele>326.0</ele><time>2026-05-02T09:00:02Z</time></trkpt><trkpt lat="40.56436181691813" lon="15.379780346084255"><ele>326.0</ele><time>2026-05-02T09:00:03Z</time></trkpt><trkpt lat="40.56415001247251" lon="15.380108927292609"><ele>326.0</ele><time>2026-05-02T09:00:04Z</time></trkpt><trkpt lat="40.56392747553962" lon="15.380426950998054"><ele>330.5</ele><time>2026-05-02T09:00:05Z</time></trkpt><trkpt lat="40.563699325470616" lon="15.380733695819309"><ele>335.0</ele><time>2026-05-02T09:00:06Z</time></trkpt><trkpt lat="40.56345888271278" lon="15.381038151676123"><ele>335.0</ele><time>2026-05-02T09:00:07Z</time></trkpt><trkpt lat="40.56321296803374" lon="15.381332407080736"><ele>335.0</ele><time>2026-05-02T09:00:08Z</time></trkpt><trkpt lat="40.56295909429406" lon="15.381618263732152"><ele>339.0</ele><time>2026-05-02T09:00:09Z</time></trkpt><trkpt lat="40.562697665690266" lon="15.381894889273115"><ele>343.0</ele><time>2026-05-02T09:00:10Z</time></trkpt><trkpt lat="40.56242865328834" lon="15.382160888129329"><ele>344.0</ele><time>2026-05-02T09:00:11Z</time></trkpt><trkpt lat="40.562157627634996" lon="15.382421322365285"><ele>345.0</ele><time>2026-05-02T09:00:12Z</time></trkpt><trkpt lat="40.56188943150771" lon="15.382687560955608"><ele>345.0</ele><time>2026-05-02T09:00:13Z</time></trkpt><trkpt lat="40.56163157270469" lon="15.382965053324309"><ele>345.0</ele><time>2026-05-02T09:00:14Z</time></trkpt><trkpt lat="40.56138711469511" lon="15.383259447315595"><ele>348.5</ele><time>2026-05-02T09:00:15Z</time></trkpt><trkpt lat="40.56115931181946" lon="15.383571872153336"><ele>352.0</ele><time>2026-05-02T09:00:16Z</time></trkpt><trkpt lat="40.56094772519251" lon="15.38390327697949"><ele>345.0</ele><time>2026-05-02T09:00:17Z</time></trkpt><trkpt lat="40.56075394354552" lon="15.384253980954988"><ele>338.0</ele><time>2026-05-02T09:00:18Z</time></trkpt><trkpt lat="40.56057926492221" lon="15.384618247162203"><ele>334.0</ele><time>2026-05-02T09:00:19Z</time></trkpt><trkpt lat="40.56042040656545" lon="15.384996542792269"><ele>330.0</ele><time>2026-05-02T09:00:20Z</time></trkpt><trkpt lat="40.56027634628962" lon="15.385388021795837"><ele>340.5</ele><time>2026-05-02T09:00:21Z</time></trkpt><trkpt lat="40.56015104741384" lon="15.385792207580513"><ele>351.0</ele><time>2026-05-02T09:00:22Z</time></trkpt><trkpt lat="40.56003971027416" lon="15.386201373480787"><ele>347.5</ele><time>2026-05-02T09:00:23Z</time></trkpt><trkpt lat="40.55993026677215" lon="15.386613427642283"><ele>344.0</ele><time>2026-05-02T09:00:24Z</time></trkpt><trkpt lat="40.55980980629963" lon="15.387021737940035"><ele>342.0</ele><time>2026-05-02T09:00:25Z</time></trkpt><trkpt lat="40.55969016514271" lon="15.387433951593799"><ele>340.0</ele><time>2026-05-02T09:00:26Z</time></trkpt><trkpt lat="40.55957180185574" lon="15.387846997009632"><ele>343.0</ele><time>2026-05-02T09:00:27Z</time></trkpt><trkpt lat="40.55945282512156" lon="15.388260349682035"><ele>346.0</ele><time>2026-05-02T09:00:28Z</time></trkpt><trkpt lat="40.55933409178354" lon="15.388674579546366"><ele>341.0</ele><time>2026-05-02T09:00:29Z</time></trkpt><trkpt lat="40.55921536267847" lon="15.389090314120892"><ele>336.0</ele><time>2026-05-02T09:00:30Z</time></trkpt><trkpt lat="40.559094869798294" lon="15.389504121394321"><ele>332.5</ele><time>2026-05-02T09:00:31Z</time></trkpt><trkpt lat="40.5589661520663" lon="15.38991044609585"><ele>329.0</ele><time>2026-05-02T09:00:32Z</time></trkpt><trkpt lat="40.55882326871346" lon="15.390310540653955"><ele>340.0</ele><time>2026-05-02T09:00:33Z</time></trkpt><trkpt lat="40.55866672469914" lon="15.39069840737944"><ele>351.0</ele><time>2026-05-02T09:00:34Z</time></trkpt><trkpt lat="40.55849892198256" lon="15.391077078332577"><ele>347.0</ele><time>2026-05-02T09:00:35Z</time></trkpt><trkpt lat="40.55831976835884" lon="15.391448378798348"><ele>343.0</ele><time>2026-05-02T09:00:36Z</time></trkpt><trkpt lat="40.55812862218319" lon="15.391810930479911"><ele>343.0</ele><time>2026-05-02T09:00:37Z</time></trkpt><trkpt lat="40.55792760278384" lon="15.39216320498133"><ele>343.0</ele><time>2026-05-02T09:00:38Z</time></trkpt><trkpt lat="40.5577157066952" lon="15.392504943587314"><ele>342.5</ele><time>2026-05-02T09:00:39Z</time></trkpt><trkpt lat="40.55749410803032" lon="15.392836231179736"><ele>342.0</ele><time>2026-05-02T09:00:40Z</time></trkpt><trkpt lat="40.55726419706591" lon="15.39315884978857"><ele>343.0</ele><time>2026-05-02T09:00:41Z</time></trkpt><trkpt lat="40.557025087505416" lon="15.3934675300131"><ele>344.0</ele><time>2026-05-02T09:00:42Z</time></trkpt><trkpt lat="40.55677616303759" lon="15.393759165151959"><ele>339.0</ele><time>2026-05-02T09:00:42.999Z</time></trkpt><trkpt lat="40.55651822740321" lon="15.394042232845647"><ele>334.0</ele><time>2026-05-02T09:00:43.999Z</time></trkpt><trkpt lat="40.55626028480959" lon="15.394327592733683"><ele>334.0</ele><time>2026-05-02T09:00:44.999Z</time></trkpt><trkpt lat="40.55600525437063" lon="15.394618128898282"><ele>334.0</ele><time>2026-05-02T09:00:45.999Z</time></trkpt><trkpt lat="40.555755387060245" lon="15.39491343270744"><ele>334.0</ele><time>2026-05-02T09:00:46.999Z</time></trkpt><trkpt lat="40.555510261045974" lon="15.395214312496082"><ele>334.0</ele><time>2026-05-02T09:00:47.999Z</time></trkpt><trkpt lat="40.555270285745685" lon="15.395521999194646"><ele>334.5</ele><time>2026-05-02T09:00:48.999Z</time></trkpt><trkpt lat="40.55503770067393" lon="15.395839424309257"><ele>335.0</ele><time>2026-05-02T09:00:49.999Z</time></trkpt><trkpt lat="40.55481712273055" lon="15.396167294525902"><ele>334.5</ele><time>2026-05-02T09:00:50.999Z</time></trkpt><trkpt lat="40.55460840564344" lon="15.396505620398194"><ele>334.0</ele><time>2026-05-02T09:00:51.999Z</time></trkpt><trkpt lat="40.55441057885683" lon="15.396854357842782"><ele>321.0</ele><time>2026-05-02T09:00:52.999Z</time></trkpt><trkpt lat="40.55422363699413" lon="15.397210855579264"><ele>308.0</ele><time>2026-05-02T09:00:53.999Z</time></trkpt><trkpt lat="40.55404672046188" lon="15.397576691447755"><ele>308.0</ele><time>2026-05-02T09:00:54.999Z</time></trkpt><trkpt lat="40.55387916844578" lon="15.39795181967111"><ele>308.0</ele><time>2026-05-02T09:00:55.999Z</time></trkpt><trkpt lat="40.55372047806412" lon="15.398331135200717"><ele>296.0</ele><time>2026-05-02T09:00:56.999Z</time></trkpt><trkpt lat="40.55356997243576" lon="15.398708798682051"><ele>284.0</ele><time>2026-05-02T09:00:57.999Z</time></trkpt><trkpt lat="40.55343512743519" lon="15.399083471495388"><ele>284.0</ele><time>2026-05-02T09:00:58.999Z</time></trkpt><trkpt lat="40.55330618224495" lon="15.399460421133924"><ele>284.0</ele><time>2026-05-02T09:00:59.999Z</time></trkpt><trkpt lat="40.553172136741786" lon="15.399844430614738"><ele>292.5</ele><time>2026-05-02T09:01:00.999Z</time></trkpt><trkpt lat="40.55303350600918" lon="15.400229152793715"><ele>301.0</ele><time>2026-05-02T09:01:01.999Z</time></trkpt><trkpt lat="40.55289149066689" lon="15.400617429968529"><ele>320.0</ele><time>2026-05-02T09:01:02.999Z</time></trkpt><trkpt lat="40.55274706825167" lon="15.401011409688934"><ele>339.0</ele><time>2026-05-02T09:01:03.999Z</time></trkpt><trkpt lat="40.55260209783765" lon="15.401405370977397"><ele>339.0</ele><time>2026-05-02T09:01:04.999Z</time></trkpt><trkpt lat="40.55245658279525" lon="15.401797601269113"><ele>339.0</ele><time>2026-05-02T09:01:05.999Z</time></trkpt><trkpt lat="40.55231157185211" lon="15.402188890833962"><ele>335.0</ele><time>2026-05-02T09:01:06.999Z</time></trkpt><trkpt lat="40.55216332892817" lon="15.4025816698317"><ele>331.0</ele><time>2026-05-02T09:01:07.999Z</time></trkpt><trkpt lat="40.552016189910965" lon="15.402976690108764"><ele>338.0</ele><time>2026-05-02T09:01:08.999Z</time></trkpt><trkpt lat="40.55186838980814" lon="15.40337153397711"><ele>345.0</ele><time>2026-05-02T09:01:09.999Z</time></trkpt><trkpt lat="40.551721787418295" lon="15.403766732493029"><ele>340.0</ele><time>2026-05-02T09:01:10.999Z</time></trkpt><trkpt lat="40.55157482767193" lon="15.404159678495981"><ele>335.0</ele><time>2026-05-02T09:01:11.999Z</time></trkpt><trkpt lat="40.55142617376669" lon="15.404553486957164"><ele>330.5</ele><time>2026-05-02T09:01:12.999Z</time></trkpt><trkpt lat="40.55127578361715" lon="15.404945282733495"><ele>326.0</ele><time>2026-05-02T09:01:13.999Z</time></trkpt><trkpt lat="40.5511230008673" lon="15.405333975269116"><ele>335.0</ele><time>2026-05-02T09:01:14.999Z</time></trkpt><trkpt lat="40.55096670972901" lon="15.405722520890977"><ele>344.0</ele><time>2026-05-02T09:01:15.999Z</time></trkpt><trkpt lat="40.55080852062063" lon="15.406109170063978"><ele>339.0</ele><time>2026-05-02T09:01:16.999Z</time></trkpt><trkpt lat="40.55064659737144" lon="15.40649089835225"><ele>334.0</ele><time>2026-05-02T09:01:17.999Z</time></trkpt><trkpt lat="40.55047824086028" lon="15.406867017634184"><ele>342.5</ele><time>2026-05-02T09:01:18.999Z</time></trkpt><trkpt lat="40.55030587702761" lon="15.407237207581916"><ele>351.0</ele><time>2026-05-02T09:01:19.999Z</time></trkpt><trkpt lat="40.5501294463143" lon="15.407603822838407"><ele>351.0</ele><time>2026-05-02T09:01:20.999Z</time></trkpt><trkpt lat="40.54994529289026" lon="15.40796719008442"><ele>351.0</ele><time>2026-05-02T09:01:21.999Z</time></trkpt><trkpt lat="40.54975619493069" lon="15.408324153806905"><ele>348.5</ele><time>2026-05-02T09:01:22.999Z</time></trkpt><trkpt lat="40.54956040866859" lon="15.408676614864696"><ele>346.0</ele><time>2026-05-02T09:01:23.999Z</time></trkpt><trkpt lat="40.54936023368726" lon="15.409026300666472"><ele>346.0</ele><time>2026-05-02T09:01:24.999Z</time></trkpt><trkpt lat="40.54915482545196" lon="15.409371784911434"><ele>346.0</ele><time>2026-05-02T09:01:25.999Z</time></trkpt><trkpt lat="40.54894727394712" lon="15.409714828732204"><ele>349.5</ele><time>2026-05-02T09:01:26.999Z</time></trkpt><trkpt lat="40.54873986448672" lon="15.410054873594614"><ele>353.0</ele><time>2026-05-02T09:01:27.999Z</time></trkpt><trkpt lat="40.548529425853985" lon="15.410391934959327"><ele>344.0</ele><time>2026-05-02T09:01:28.999Z</time></trkpt><trkpt lat="40.54831740836286" lon="15.410726551539705"><ele>335.0</ele><time>2026-05-02T09:01:29.999Z</time></trkpt><trkpt lat="40.54810430255914" lon="15.411056327042012"><ele>341.0</ele><time>2026-05-02T09:01:30.999Z</time></trkpt><trkpt lat="40.54788842190617" lon="15.411387144135608"><ele>347.0</ele><time>2026-05-02T09:01:31.999Z</time></trkpt><trkpt lat="40.5476708091746" lon="15.411719546991714"><ele>347.0</ele><time>2026-05-02T09:01:32.999Z</time></trkpt><trkpt lat="40.54745360543209" lon="15.412052386703815"><ele>347.0</ele><time>2026-05-02T09:01:33.999Z</time></trkpt><trkpt lat="40.5472335169127" lon="15.412379665175745"><ele>345.5</ele><time>2026-05-02T09:01:34.999Z</time></trkpt><trkpt lat="40.54700779301117" lon="15.41270296897487"><ele>344.0</ele><time>2026-05-02T09:01:35.999Z</time></trkpt><trkpt lat="40.54677433041254" lon="15.413015296764065"><ele>344.0</ele><time>2026-05-02T09:01:36.999Z</time></trkpt><trkpt lat="40.54653378161429" lon="15.413313703556314"><ele>344.0</ele><time>2026-05-02T09:01:37.999Z</time></trkpt><trkpt lat="40.54628461436943" lon="15.413600872465102"><ele>349.0</ele><time>2026-05-02T09:01:38.999Z</time></trkpt><trkpt lat="40.546027103136566" lon="15.413878890881033"><ele>354.0</ele><time>2026-05-02T09:01:40Z</time></trkpt><trkpt lat="40.545761654722035" lon="15.414141071353539"><ele>354.0</ele><time>2026-05-02T09:01:41Z</time></trkpt><trkpt lat="40.54548924064419" lon="15.414388310126096"><ele>354.0</ele><time>2026-05-02T09:01:42Z</time></trkpt><trkpt lat="40.5452086073118" lon="15.414622382486634"><ele>353.5</ele><time>2026-05-02T09:01:43Z</time></trkpt><trkpt lat="40.54492078975331" lon="15.414845712563045"><ele>353.0</ele><time>2026-05-02T09:01:44Z</time></trkpt><trkpt lat="40.54462746197487" lon="15.415056585762747"><ele>358.5</ele><time>2026-05-02T09:01:45Z</time></trkpt><trkpt lat="40.544327812133396" lon="15.415256353040611"><ele>364.0</ele><time>2026-05-02T09:01:46Z</time></trkpt><trkpt lat="40.544023440944486" lon="15.4154469794694"><ele>360.5</ele><time>2026-05-02T09:01:47Z</time></trkpt><trkpt lat="40.54371578468538" lon="15.41562753048471"><ele>357.0</ele><time>2026-05-02T09:01:48Z</time></trkpt><trkpt lat="40.543406119002675" lon="15.415801640958977"><ele>357.0</ele><time>2026-05-02T09:01:49Z</time></trkpt><trkpt lat="40.54309343973761" lon="15.415970636159269"><ele>357.0</ele><time>2026-05-02T09:01:50Z</time></trkpt><trkpt lat="40.542780633160284" lon="15.416136755751182"><ele>354.5</ele><time>2026-05-02T09:01:51Z</time></trkpt><trkpt lat="40.54246710217016" lon="15.41630491020201"><ele>352.0</ele><time>2026-05-02T09:01:52Z</time></trkpt><trkpt lat="40.54215374370316" lon="15.416471288375678"><ele>357.0</ele><time>2026-05-02T09:01:53Z</time></trkpt><trkpt lat="40.541840635994106" lon="15.416640770352739"><ele>362.0</ele><time>2026-05-02T09:01:54Z</time></trkpt><trkpt lat="40.541530925773124" lon="15.416812379768443"><ele>362.0</ele><time>2026-05-02T09:01:55Z</time></trkpt><trkpt lat="40.54122234289548" lon="15.416983616742188"><ele>362.0</ele><time>2026-05-02T09:01:56Z</time></trkpt><trkpt lat="40.5409149294442" lon="15.417154053426266"><ele>360.5</ele><time>2026-05-02T09:01:57Z</time></trkpt><trkpt lat="40.540609724578914" lon="15.417327891292851"><ele>359.0</ele><time>2026-05-02T09:01:58Z</time></trkpt><trkpt lat="40.54030788533655" lon="15.417509339616737"><ele>363.5</ele><time>2026-05-02T09:01:59Z</time></trkpt><trkpt lat="40.540010732445054" lon="15.41769685469304"><ele>368.0</ele><time>2026-05-02T09:02:00Z</time></trkpt><trkpt lat="40.53971619350846" lon="15.417892560690763"><ele>368.0</ele><time>2026-05-02T09:02:01Z</time></trkpt><trkpt lat="40.539426000396126" lon="15.418099722205117"><ele>368.0</ele><time>2026-05-02T09:02:02Z</time></trkpt><trkpt lat="40.539142652823976" lon="15.418320548245696"><ele>368.0</ele><time>2026-05-02T09:02:03Z</time></trkpt><trkpt lat="40.53886459839752" lon="15.41855217924534"><ele>368.0</ele><time>2026-05-02T09:02:04Z</time></trkpt><trkpt lat="40.5385904377835" lon="15.418794061807708"><ele>369.5</ele><time>2026-05-02T09:02:05Z</time></trkpt><trkpt lat="40.53832031075345" lon="15.41904376801357"><ele>371.0</ele><time>2026-05-02T09:02:06Z</time></trkpt><trkpt lat="40.53805118300172" lon="15.419296624122914"><ele>372.5</ele><time>2026-05-02T09:02:07Z</time></trkpt><trkpt lat="40.53778313480023" lon="15.419555846014509"><ele>374.0</ele><time>2026-05-02T09:02:08Z</time></trkpt><trkpt lat="40.537516185269745" lon="15.41981633758292"><ele>374.0</ele><time>2026-05-02T09:02:09Z</time></trkpt><trkpt lat="40.53724686332415" lon="15.420080628108664"><ele>374.0</ele><time>2026-05-02T09:02:10Z</time></trkpt><trkpt lat="40.536978368719495" lon="15.420344885499807"><ele>377.5</ele><time>2026-05-02T09:02:11Z</time></trkpt><trkpt lat="40.53670718514076" lon="15.42060951545581"><ele>381.0</ele><time>2026-05-02T09:02:12Z</time></trkpt><trkpt lat="40.536436445862435" lon="15.420874425173963"><ele>396.0</ele><time>2026-05-02T09:02:13Z</time></trkpt><trkpt lat="40.536165852379796" lon="15.42113909851966"><ele>411.0</ele><time>2026-05-02T09:02:14Z</time></trkpt><trkpt lat="40.535896489394965" lon="15.42140339988618"><ele>411.0</ele><time>2026-05-02T09:02:15Z</time></trkpt><trkpt lat="40.535626372125684" lon="15.421666492896385"><ele>411.0</ele><time>2026-05-02T09:02:16Z</time></trkpt><trkpt lat="40.53535568606751" lon="15.421926700799496"><ele>425.0</ele><time>2026-05-02T09:02:17Z</time></trkpt><trkpt lat="40.53508658382681" lon="15.422186498021846"><ele>439.0</ele><time>2026-05-02T09:02:18Z</time></trkpt><trkpt lat="40.53481902277512" lon="15.42244820140285"><ele>449.0</ele><time>2026-05-02T09:02:19Z</time></trkpt><trkpt lat="40.53455162502448" lon="15.42271049524562"><ele>459.0</ele><time>2026-05-02T09:02:20Z</time></trkpt><trkpt lat="40.5342831736029" lon="15.422973666386845"><ele>449.5</ele><time>2026-05-02T09:02:21Z</time></trkpt><trkpt lat="40.534017670668376" lon="15.423241534142164"><ele>440.0</ele><time>2026-05-02T09:02:22Z</time></trkpt><trkpt lat="40.53375514565463" lon="15.423514496210428"><ele>415.5</ele><time>2026-05-02T09:02:23Z</time></trkpt><trkpt lat="40.53352169186728" lon="15.423823881962356"><ele>391.0</ele><time>2026-05-02T09:02:24Z</time></trkpt><trkpt lat="40.53328932602644" lon="15.424129587964519"><ele>391.0</ele><time>2026-05-02T09:02:25Z</time></trkpt><trkpt lat="40.53306546509003" lon="15.424443943952749"><ele>391.0</ele><time>2026-05-02T09:02:26Z</time></trkpt><trkpt lat="40.532834180324784" lon="15.424714499238434"><ele>390.0</ele><time>2026-05-02T09:02:27Z</time></trkpt><trkpt lat="40.5326068852265" lon="15.425045781330278"><ele>389.0</ele><time>2026-05-02T09:02:28Z</time></trkpt><trkpt lat="40.53240132335403" lon="15.425389216832894"><ele>383.0</ele><time>2026-05-02T09:02:29Z</time></trkpt><trkpt lat="40.53220359835012" lon="15.425738307174182"><ele>377.0</ele><time>2026-05-02T09:02:30Z</time></trkpt><trkpt lat="40.53201095776999" lon="15.426094615881942"><ele>387.0</ele><time>2026-05-02T09:02:31Z</time></trkpt><trkpt lat="40.53182264321665" lon="15.426450008112774"><ele>397.0</ele><time>2026-05-02T09:02:32Z</time></trkpt><trkpt lat="40.53163538260903" lon="15.426808224499739"><ele>387.0</ele><time>2026-05-02T09:02:33Z</time></trkpt><trkpt lat="40.53144575023567" lon="15.427168299106446"><ele>377.0</ele><time>2026-05-02T09:02:34Z</time></trkpt><trkpt lat="40.531258713881954" lon="15.427532752196615"><ele>379.5</ele><time>2026-05-02T09:02:35Z</time></trkpt><trkpt lat="40.53107423822293" lon="15.427904624977842"><ele>382.0</ele><time>2026-05-02T09:02:36Z</time></trkpt><trkpt lat="40.53089888468473" lon="15.42828021180499"><ele>382.0</ele><time>2026-05-02T09:02:37Z</time></trkpt><trkpt lat="40.530735095201976" lon="15.42866717740874"><ele>382.0</ele><time>2026-05-02T09:02:38Z</time></trkpt><trkpt lat="40.530585218987106" lon="15.429061800313319"><ele>362.5</ele><time>2026-05-02T09:02:39Z</time></trkpt><trkpt lat="40.53045354360095" lon="15.429463900218646"><ele>343.0</ele><time>2026-05-02T09:02:40Z</time></trkpt><trkpt lat="40.53033440467468" lon="15.42987171226214"><ele>339.0</ele><time>2026-05-02T09:02:41Z</time></trkpt><trkpt lat="40.53023019023688" lon="15.430284177203946"><ele>335.0</ele><time>2026-05-02T09:02:42Z</time></trkpt><trkpt lat="40.530137852544655" lon="15.430702185663979"><ele>319.0</ele><time>2026-05-02T09:02:43Z</time></trkpt><trkpt lat="40.530058276746935" lon="15.431121916399798"><ele>303.0</ele><time>2026-05-02T09:02:44Z</time></trkpt><trkpt lat="40.529989758604266" lon="15.43154459526479"><ele>301.0</ele><time>2026-05-02T09:02:45Z</time></trkpt><trkpt lat="40.529934067992414" lon="15.431971821912642"><ele>299.0</ele><time>2026-05-02T09:02:46Z</time></trkpt><trkpt lat="40.52989576744692" lon="15.432402977135618"><ele>299.0</ele><time>2026-05-02T09:02:47Z</time></trkpt><trkpt lat="40.529873555777904" lon="15.432829796093948"><ele>299.0</ele><time>2026-05-02T09:02:48Z</time></trkpt><trkpt lat="40.52986977898152" lon="15.433257819217996"><ele>312.0</ele><time>2026-05-02T09:02:49Z</time></trkpt><trkpt lat="40.529886209378844" lon="15.433689987970725"><ele>325.0</ele><time>2026-05-02T09:02:50Z</time></trkpt><trkpt lat="40.529921708176694" lon="15.434116090071003"><ele>344.0</ele><time>2026-05-02T09:02:51Z</time></trkpt><trkpt lat="40.529967899073945" lon="15.434546951233687"><ele>363.0</ele><time>2026-05-02T09:02:52Z</time></trkpt><trkpt lat="40.53002814853672" lon="15.434976459334411"><ele>376.5</ele><time>2026-05-02T09:02:53Z</time></trkpt><trkpt lat="40.53010191363028" lon="15.435402928242908"><ele>390.0</ele><time>2026-05-02T09:02:54Z</time></trkpt><trkpt lat="40.53018882703551" lon="15.435825953956344"><ele>386.5</ele><time>2026-05-02T09:02:55Z</time></trkpt><trkpt lat="40.53028699558014" lon="15.43624574764547"><ele>383.0</ele><time>2026-05-02T09:02:56Z</time></trkpt><trkpt lat="40.53039198665611" lon="15.4366603565732"><ele>383.0</ele><time>2026-05-02T09:02:57Z</time></trkpt><trkpt lat="40.53049936404386" lon="15.437071687658493"><ele>383.0</ele><time>2026-05-02T09:02:58Z</time></trkpt><trkpt lat="40.53060958208339" lon="15.437485005658136"><ele>382.0</ele><time>2026-05-02T09:02:59Z</time></trkpt><trkpt lat="40.53071858874407" lon="15.437899943382511"><ele>381.0</ele><time>2026-05-02T09:03:00Z</time></trkpt><trkpt lat="40.53082692432264" lon="15.43831658811909"><ele>388.0</ele><time>2026-05-02T09:03:00.999Z</time></trkpt><trkpt lat="40.53093128450357" lon="15.43874018131818"><ele>395.0</ele><time>2026-05-02T09:03:01.999Z</time></trkpt><trkpt lat="40.53102825429172" lon="15.43915974903643"><ele>403.5</ele><time>2026-05-02T09:03:02.999Z</time></trkpt><trkpt lat="40.531117479245715" lon="15.43958243023126"><ele>412.0</ele><time>2026-05-02T09:03:03.999Z</time></trkpt><trkpt lat="40.53119600193567" lon="15.440009640556264"><ele>411.0</ele><time>2026-05-02T09:03:04.999Z</time></trkpt><trkpt lat="40.53126227360547" lon="15.44043581130103"><ele>410.0</ele><time>2026-05-02T09:03:05.999Z</time></trkpt><trkpt lat="40.53131695347371" lon="15.440863127847278"><ele>410.0</ele><time>2026-05-02T09:03:06.999Z</time></trkpt><trkpt lat="40.53135611535681" lon="15.441291081694496"><ele>410.0</ele><time>2026-05-02T09:03:07.999Z</time></trkpt><trkpt lat="40.531381450283725" lon="15.441720823646696"><ele>404.5</ele><time>2026-05-02T09:03:08.999Z</time></trkpt><trkpt lat="40.531394451042225" lon="15.442154484058628"><ele>399.0</ele><time>2026-05-02T09:03:09.999Z</time></trkpt><trkpt lat="40.53139799159431" lon="15.442588260584694"><ele>403.5</ele><time>2026-05-02T09:03:10.999Z</time></trkpt><trkpt lat="40.53139230016173" lon="15.443024725859622"><ele>408.0</ele><time>2026-05-02T09:03:11.999Z</time></trkpt><trkpt lat="40.53138174022281" lon="15.443462090458423"><ele>411.0</ele><time>2026-05-02T09:03:12.999Z</time></trkpt><trkpt lat="40.531370588398396" lon="15.443899922033305"><ele>414.0</ele><time>2026-05-02T09:03:13.999Z</time></trkpt><trkpt lat="40.531359052456104" lon="15.444340086358975"><ele>409.5</ele><time>2026-05-02T09:03:14.999Z</time></trkpt><trkpt lat="40.53134261235383" lon="15.444779702113292"><ele>405.0</ele><time>2026-05-02T09:03:15.999Z</time></trkpt><trkpt lat="40.531325530862716" lon="15.445219394230799"><ele>396.0</ele><time>2026-05-02T09:03:16.999Z</time></trkpt><trkpt lat="40.531309322885896" lon="15.44565697031966"><ele>387.0</ele><time>2026-05-02T09:03:17.999Z</time></trkpt><trkpt lat="40.531296527332415" lon="15.446089462329292"><ele>391.5</ele><time>2026-05-02T09:03:18.999Z</time></trkpt><trkpt lat="40.53128488661642" lon="15.446531290803442"><ele>396.0</ele><time>2026-05-02T09:03:19.999Z</time></trkpt><trkpt lat="40.53127161172107" lon="15.446963616446617"><ele>403.5</ele><time>2026-05-02T09:03:20.999Z</time></trkpt><trkpt lat="40.531258654023866" lon="15.447395366758117"><ele>411.0</ele><time>2026-05-02T09:03:21.999Z</time></trkpt><trkpt lat="40.53124493114409" lon="15.447826079784546"><ele>412.5</ele><time>2026-05-02T09:03:22.999Z</time></trkpt><trkpt lat="40.53123247503755" lon="15.448251520132425"><ele>414.0</ele><time>2026-05-02T09:03:23.999Z</time></trkpt><trkpt lat="40.531218241789254" lon="15.448673741255542"><ele>435.5</ele><time>2026-05-02T09:03:24.999Z</time></trkpt><trkpt lat="40.53120427701949" lon="15.449097429668814"><ele>457.0</ele><time>2026-05-02T09:03:25.999Z</time></trkpt><trkpt lat="40.531187631506754" lon="15.449519733539347"><ele>457.5</ele><time>2026-05-02T09:03:26.999Z</time></trkpt><trkpt lat="40.53117371012553" lon="15.449944145061977"><ele>458.0</ele><time>2026-05-02T09:03:27.999Z</time></trkpt><trkpt lat="40.53116521611939" lon="15.450366537585259"><ele>456.5</ele><time>2026-05-02T09:03:28.999Z</time></trkpt><trkpt lat="40.53117030378849" lon="15.450782722856154"><ele>455.0</ele><time>2026-05-02T09:03:29.999Z</time></trkpt><trkpt lat="40.53118677638466" lon="15.451190665191627"><ele>458.5</ele><time>2026-05-02T09:03:30.999Z</time></trkpt><trkpt lat="40.53121123402602" lon="15.451602743069236"><ele>462.0</ele><time>2026-05-02T09:03:31.999Z</time></trkpt><trkpt lat="40.531247957456" lon="15.452011227052497"><ele>444.5</ele><time>2026-05-02T09:03:32.999Z</time></trkpt><trkpt lat="40.531293415890694" lon="15.452416758978952"><ele>427.0</ele><time>2026-05-02T09:03:33.999Z</time></trkpt><trkpt lat="40.53135053228941" lon="15.45282070706938"><ele>417.0</ele><time>2026-05-02T09:03:34.999Z</time></trkpt><trkpt lat="40.53141711693638" lon="15.453221824168113"><ele>407.0</ele><time>2026-05-02T09:03:35.999Z</time></trkpt><trkpt lat="40.531495781761635" lon="15.45362500847833"><ele>407.0</ele><time>2026-05-02T09:03:36.999Z</time></trkpt><trkpt lat="40.53158448967776" lon="15.454030605787702"><ele>407.0</ele><time>2026-05-02T09:03:37.999Z</time></trkpt><trkpt lat="40.531682924535545" lon="15.454435857050239"><ele>421.5</ele><time>2026-05-02T09:03:38.999Z</time></trkpt><trkpt lat="40.53179181176887" lon="15.454841189389185"><ele>436.0</ele><time>2026-05-02T09:03:39.999Z</time></trkpt><trkpt lat="40.53191326344075" lon="15.4552465766257"><ele>438.0</ele><time>2026-05-02T09:03:40.999Z</time></trkpt><trkpt lat="40.53204604956051" lon="15.45564718781674"><ele>440.0</ele><time>2026-05-02T09:03:41.999Z</time></trkpt><trkpt lat="40.53218899337505" lon="15.456040050442835"><ele>446.5</ele><time>2026-05-02T09:03:42.999Z</time></trkpt><trkpt lat="40.53233719311978" lon="15.45642202470198"><ele>453.0</ele><time>2026-05-02T09:03:43.999Z</time></trkpt><trkpt lat="40.532490459613676" lon="15.456799137168167"><ele>458.5</ele><time>2026-05-02T09:03:44.999Z</time></trkpt><trkpt lat="40.532642226113516" lon="15.4571811470627"><ele>464.0</ele><time>2026-05-02T09:03:46Z</time></trkpt><trkpt lat="40.53278888184628" lon="15.457570401655953"><ele>453.0</ele><time>2026-05-02T09:03:47Z</time></trkpt><trkpt lat="40.532923736410865" lon="15.457966099752923"><ele>442.0</ele><time>2026-05-02T09:03:48Z</time></trkpt><trkpt lat="40.53305290776475" lon="15.458365743846851"><ele>442.0</ele><time>2026-05-02T09:03:49Z</time></trkpt><trkpt lat="40.53316987863833" lon="15.458774861221142"><ele>442.0</ele><time>2026-05-02T09:03:50Z</time></trkpt><trkpt lat="40.53327085145665" lon="15.45918563633441"><ele>457.0</ele><time>2026-05-02T09:03:51Z</time></trkpt><trkpt lat="40.533355530491036" lon="15.459619839217307"><ele>472.0</ele><time>2026-05-02T09:03:52Z</time></trkpt><trkpt lat="40.53342724120106" lon="15.46005976740738"><ele>478.0</ele><time>2026-05-02T09:03:53Z</time></trkpt><trkpt lat="40.53348351312306" lon="15.460503951313942"><ele>484.0</ele><time>2026-05-02T09:03:54Z</time></trkpt><trkpt lat="40.533519708521595" lon="15.460951279301977"><ele>486.5</ele><time>2026-05-02T09:03:55Z</time></trkpt><trkpt lat="40.53353959705213" lon="15.461400431923222"><ele>489.0</ele><time>2026-05-02T09:03:56Z</time></trkpt><trkpt lat="40.53354525528776" lon="15.461851515785042"><ele>489.0</ele><time>2026-05-02T09:03:57Z</time></trkpt><trkpt lat="40.53354183890742" lon="15.462303329184314"><ele>489.0</ele><time>2026-05-02T09:03:58Z</time></trkpt><trkpt lat="40.533532815670654" lon="15.46275599505275"><ele>491.0</ele><time>2026-05-02T09:03:59Z</time></trkpt><trkpt lat="40.533521276648905" lon="15.463210953678072"><ele>493.0</ele><time>2026-05-02T09:04:00Z</time></trkpt><trkpt lat="40.53350684383916" lon="15.463668363857346"><ele>493.5</ele><time>2026-05-02T09:04:01Z</time></trkpt><trkpt lat="40.53348912949739" lon="15.464158131486624"><ele>494.0</ele><time>2026-05-02T09:04:02.067Z</time></trkpt><trkpt lat="40.53347517278902" lon="15.464615571845103"><ele>489.5</ele><time>2026-05-02T09:04:03.062Z</time></trkpt><trkpt lat="40.53346377378376" lon="15.465075846013725"><ele>485.0</ele><time>2026-05-02T09:04:04.063Z</time></trkpt><trkpt lat="40.53345254269741" lon="15.465533736848656"><ele>473.0</ele><time>2026-05-02T09:04:05.054Z</time></trkpt><trkpt lat="40.53342047990761" lon="15.466381136352805"><ele>473.0</ele><time>2026-05-02T09:04:07Z</time></trkpt><trkpt lat="40.53335676723209" lon="15.466802882658655"><ele>473.0</ele><time>2026-05-02T09:04:08Z</time></trkpt><trkpt lat="40.53333455271843" lon="15.467253447718898"><ele>472.5</ele><time>2026-05-02T09:04:09Z</time></trkpt><trkpt lat="40.53331332191508" lon="15.467705665320242"><ele>472.0</ele><time>2026-05-02T09:04:10Z</time></trkpt><trkpt lat="40.53328727578435" lon="15.468150952938826"><ele>469.0</ele><time>2026-05-02T09:04:11Z</time></trkpt><trkpt lat="40.53326494489769" lon="15.468599342922749"><ele>466.0</ele><time>2026-05-02T09:04:12Z</time></trkpt><trkpt lat="40.53324412879267" lon="15.46904364471293"><ele>465.0</ele><time>2026-05-02T09:04:13Z</time></trkpt><trkpt lat="40.53322343173215" lon="15.469488879804235"><ele>464.0</ele><time>2026-05-02T09:04:14Z</time></trkpt><trkpt lat="40.53320302953094" lon="15.469931950249318"><ele>462.5</ele><time>2026-05-02T09:04:15Z</time></trkpt><trkpt lat="40.53318101375639" lon="15.470374011491813"><ele>461.0</ele><time>2026-05-02T09:04:16Z</time></trkpt><trkpt lat="40.53315238496876" lon="15.470816021216596"><ele>460.5</ele><time>2026-05-02T09:04:17Z</time></trkpt><trkpt lat="40.53311203446076" lon="15.471254633215985"><ele>460.0</ele><time>2026-05-02T09:04:18Z</time></trkpt><trkpt lat="40.533055221063194" lon="15.471690400856103"><ele>454.5</ele><time>2026-05-02T09:04:19Z</time></trkpt><trkpt lat="40.53298245148812" lon="15.47211896140097"><ele>449.0</ele><time>2026-05-02T09:04:20Z</time></trkpt><trkpt lat="40.532900161298265" lon="15.472546577333034"><ele>470.5</ele><time>2026-05-02T09:04:21Z</time></trkpt><trkpt lat="40.53281627108401" lon="15.47297715218743"><ele>492.0</ele><time>2026-05-02T09:04:22Z</time></trkpt><trkpt lat="40.53273503898556" lon="15.473406192001361"><ele>487.5</ele><time>2026-05-02T09:04:23Z</time></trkpt><trkpt lat="40.532650862955414" lon="15.473833124400885"><ele>483.0</ele><time>2026-05-02T09:04:24Z</time></trkpt><trkpt lat="40.53256902739927" lon="15.474261569740959"><ele>475.5</ele><time>2026-05-02T09:04:25Z</time></trkpt><trkpt lat="40.53249244385635" lon="15.474684598095587"><ele>468.0</ele><time>2026-05-02T09:04:26Z</time></trkpt><trkpt lat="40.53242251260481" lon="15.475104437843171"><ele>466.0</ele><time>2026-05-02T09:04:27Z</time></trkpt><trkpt lat="40.532361938396825" lon="15.475518459409889"><ele>464.0</ele><time>2026-05-02T09:04:28Z</time></trkpt><trkpt lat="40.5323134368027" lon="15.475928464364756"><ele>463.0</ele><time>2026-05-02T09:04:29Z</time></trkpt><trkpt lat="40.53227731733728" lon="15.476339419692328"><ele>462.0</ele><time>2026-05-02T09:04:30Z</time></trkpt><trkpt lat="40.53225264865629" lon="15.476750094642222"><ele>462.5</ele><time>2026-05-02T09:04:31Z</time></trkpt><trkpt lat="40.53223744073328" lon="15.477167190522815"><ele>463.0</ele><time>2026-05-02T09:04:32Z</time></trkpt><trkpt lat="40.532228032732164" lon="15.477584494565225"><ele>457.0</ele><time>2026-05-02T09:04:33Z</time></trkpt><trkpt lat="40.53221714257231" lon="15.478001540927705"><ele>451.0</ele><time>2026-05-02T09:04:34Z</time></trkpt><trkpt lat="40.532206423547684" lon="15.478418915757942"><ele>446.5</ele><time>2026-05-02T09:04:35Z</time></trkpt><trkpt lat="40.53219643353819" lon="15.478839389713864"><ele>442.0</ele><time>2026-05-02T09:04:36Z</time></trkpt><trkpt lat="40.532187110121676" lon="15.479261123819386"><ele>442.5</ele><time>2026-05-02T09:04:37Z</time></trkpt><trkpt lat="40.53217776442768" lon="15.479688647960009"><ele>443.0</ele><time>2026-05-02T09:04:38Z</time></trkpt><trkpt lat="40.5321639040414" lon="15.480118307270859"><ele>447.0</ele><time>2026-05-02T09:04:39Z</time></trkpt><trkpt lat="40.532143502171294" lon="15.480547398139763"><ele>451.0</ele><time>2026-05-02T09:04:40Z</time></trkpt><trkpt lat="40.53211374424079" lon="15.480981288541933"><ele>449.0</ele><time>2026-05-02T09:04:41Z</time></trkpt><trkpt lat="40.532072170491254" lon="15.481416618673729"><ele>447.0</ele><time>2026-05-02T09:04:42Z</time></trkpt><trkpt lat="40.53201688304872" lon="15.481850718332401"><ele>455.5</ele><time>2026-05-02T09:04:43Z</time></trkpt><trkpt lat="40.531946548489465" lon="15.482283351086462"><ele>464.0</ele><time>2026-05-02T09:04:44Z</time></trkpt><trkpt lat="40.53185926538014" lon="15.48271198360158"><ele>468.0</ele><time>2026-05-02T09:04:45Z</time></trkpt><trkpt lat="40.531755273921796" lon="15.483134022757989"><ele>472.0</ele><time>2026-05-02T09:04:46Z</time></trkpt><trkpt lat="40.531636335974184" lon="15.483547599801364"><ele>475.0</ele><time>2026-05-02T09:04:47Z</time></trkpt><trkpt lat="40.53150471103645" lon="15.48395494343371"><ele>478.0</ele><time>2026-05-02T09:04:48Z</time></trkpt><trkpt lat="40.531360063396626" lon="15.484354097798771"><ele>477.5</ele><time>2026-05-02T09:04:49Z</time></trkpt><trkpt lat="40.53120247967242" lon="15.48473935901634"><ele>477.0</ele><time>2026-05-02T09:04:50Z</time></trkpt><trkpt lat="40.53103104475347" lon="15.485108278283453"><ele>481.0</ele><time>2026-05-02T09:04:51Z</time></trkpt><trkpt lat="40.530847086160094" lon="15.485467407509503"><ele>485.0</ele><time>2026-05-02T09:04:52Z</time></trkpt><trkpt lat="40.53064800273836" lon="15.485819720218123"><ele>485.0</ele><time>2026-05-02T09:04:53Z</time></trkpt><trkpt lat="40.53043844808704" lon="15.486160333548284"><ele>485.0</ele><time>2026-05-02T09:04:54Z</time></trkpt><trkpt lat="40.5302185180591" lon="15.486490665432814"><ele>482.5</ele><time>2026-05-02T09:04:55Z</time></trkpt><trkpt lat="40.52999460463544" lon="15.486801062846208"><ele>480.0</ele><time>2026-05-02T09:04:56Z</time></trkpt><trkpt lat="40.52976795866242" lon="15.4870906007365"><ele>477.0</ele><time>2026-05-02T09:04:57Z</time></trkpt><trkpt lat="40.52954683157778" lon="15.48736808574223"><ele>474.0</ele><time>2026-05-02T09:04:58Z</time></trkpt><trkpt lat="40.529332565599255" lon="15.48764309968196"><ele>474.0</ele><time>2026-05-02T09:04:59Z</time></trkpt><trkpt lat="40.529123143086146" lon="15.487913595619602"><ele>474.0</ele><time>2026-05-02T09:05:00Z</time></trkpt><trkpt lat="40.528914776137746" lon="15.488179208155168"><ele>476.0</ele><time>2026-05-02T09:05:01Z</time></trkpt><trkpt lat="40.528703448792044" lon="15.488442657330387"><ele>478.0</ele><time>2026-05-02T09:05:02Z</time></trkpt><trkpt lat="40.52849496830194" lon="15.488707121806561"><ele>479.0</ele><time>2026-05-02T09:05:02.999Z</time></trkpt><trkpt lat="40.528287609879555" lon="15.488975132688914"><ele>480.0</ele><time>2026-05-02T09:05:03.999Z</time></trkpt><trkpt lat="40.52807818730664" lon="15.489246662305533"><ele>482.0</ele><time>2026-05-02T09:05:04.999Z</time></trkpt><trkpt lat="40.52786924509233" lon="15.489519502316154"><ele>484.0</ele><time>2026-05-02T09:05:05.999Z</time></trkpt><trkpt lat="40.527658193683436" lon="15.489792059814127"><ele>484.5</ele><time>2026-05-02T09:05:06.999Z</time></trkpt><trkpt lat="40.52745200620186" lon="15.49006999420929"><ele>485.0</ele><time>2026-05-02T09:05:07.999Z</time></trkpt><trkpt lat="40.527248019056344" lon="15.490353417115923"><ele>488.5</ele><time>2026-05-02T09:05:08.999Z</time></trkpt><trkpt lat="40.527049258252006" lon="15.490646101884007"><ele>492.0</ele><time>2026-05-02T09:05:09.999Z</time></trkpt><trkpt lat="40.52685625313578" lon="15.490954685182494"><ele>491.5</ele><time>2026-05-02T09:05:10.999Z</time></trkpt><trkpt lat="40.52666765771228" lon="15.491281940796487"><ele>491.0</ele><time>2026-05-02T09:05:11.999Z</time></trkpt><trkpt lat="40.52648312291121" lon="15.491630386958366"><ele>491.0</ele><time>2026-05-02T09:05:12.999Z</time></trkpt><trkpt lat="40.52630494366659" lon="15.492000441999297"><ele>491.0</ele><time>2026-05-02T09:05:13.999Z</time></trkpt><trkpt lat="40.52613486958788" lon="15.49238675409249"><ele>491.5</ele><time>2026-05-02T09:05:14.999Z</time></trkpt><trkpt lat="40.52597640822062" lon="15.492782873513262"><ele>492.0</ele><time>2026-05-02T09:05:15.999Z</time></trkpt><trkpt lat="40.52582953374781" lon="15.493186365082316"><ele>492.0</ele><time>2026-05-02T09:05:16.999Z</time></trkpt><trkpt lat="40.52569244267589" lon="15.49359887066756"><ele>492.0</ele><time>2026-05-02T09:05:17.999Z</time></trkpt><trkpt lat="40.525566486557686" lon="15.494021896284538"><ele>492.0</ele><time>2026-05-02T09:05:18.999Z</time></trkpt><trkpt lat="40.52545200965245" lon="15.494443028713734"><ele>492.0</ele><time>2026-05-02T09:05:19.999Z</time></trkpt><trkpt lat="40.52534204767974" lon="15.494870512826395"><ele>490.5</ele><time>2026-05-02T09:05:20.999Z</time></trkpt><trkpt lat="40.52523143555679" lon="15.495300888868329"><ele>489.0</ele><time>2026-05-02T09:05:21.999Z</time></trkpt><trkpt lat="40.525117882491756" lon="15.495729317761999"><ele>489.0</ele><time>2026-05-02T09:05:22.999Z</time></trkpt><trkpt lat="40.52500090908469" lon="15.496158075792957"><ele>489.0</ele><time>2026-05-02T09:05:23.999Z</time></trkpt><trkpt lat="40.524881072547416" lon="15.496586128711316"><ele>488.5</ele><time>2026-05-02T09:05:24.999Z</time></trkpt><trkpt lat="40.52475979613397" lon="15.497014935782406"><ele>488.0</ele><time>2026-05-02T09:05:25.999Z</time></trkpt><trkpt lat="40.52462991896704" lon="15.497434114415986"><ele>485.0</ele><time>2026-05-02T09:05:26.999Z</time></trkpt><trkpt lat="40.52448546316566" lon="15.497845106117406"><ele>482.0</ele><time>2026-05-02T09:05:27.999Z</time></trkpt><trkpt lat="40.52432852074199" lon="15.498253676987327"><ele>482.0</ele><time>2026-05-02T09:05:28.999Z</time></trkpt><trkpt lat="40.52416261651018" lon="15.498652946072395"><ele>482.0</ele><time>2026-05-02T09:05:29.999Z</time></trkpt><trkpt lat="40.52398707517016" lon="15.499039307037101"><ele>481.5</ele><time>2026-05-02T09:05:30.999Z</time></trkpt><trkpt lat="40.52379936484549" lon="15.499411388040905"><ele>481.0</ele><time>2026-05-02T09:05:31.999Z</time></trkpt><trkpt lat="40.523601389215685" lon="15.499771187183763"><ele>481.0</ele><time>2026-05-02T09:05:32.999Z</time></trkpt><trkpt lat="40.523394069370454" lon="15.500120396499149"><ele>481.0</ele><time>2026-05-02T09:05:33.999Z</time></trkpt><trkpt lat="40.52317934042225" lon="15.50046015007112"><ele>481.0</ele><time>2026-05-02T09:05:34.999Z</time></trkpt><trkpt lat="40.522958995660396" lon="15.500792825681593"><ele>481.0</ele><time>2026-05-02T09:05:35.999Z</time></trkpt><trkpt lat="40.522734675448014" lon="15.50112182045384"><ele>479.5</ele><time>2026-05-02T09:05:36.999Z</time></trkpt><trkpt lat="40.52250834436741" lon="15.50144978568161"><ele>478.0</ele><time>2026-05-02T09:05:37.999Z</time></trkpt><trkpt lat="40.52228146360723" lon="15.50177938211185"><ele>479.5</ele><time>2026-05-02T09:05:38.999Z</time></trkpt><trkpt lat="40.522056284074075" lon="15.50211014326321"><ele>481.0</ele><time>2026-05-02T09:05:39.999Z</time></trkpt><trkpt lat="40.52183066156903" lon="15.50244274400315"><ele>481.0</ele><time>2026-05-02T09:05:40.999Z</time></trkpt><trkpt lat="40.521605214562896" lon="15.50277420690368"><ele>481.0</ele><time>2026-05-02T09:05:41.999Z</time></trkpt><trkpt lat="40.52138111893275" lon="15.503105917480585"><ele>480.5</ele><time>2026-05-02T09:05:42.999Z</time></trkpt><trkpt lat="40.52116003337783" lon="15.503441584490783"><ele>480.0</ele><time>2026-05-02T09:05:43.999Z</time></trkpt><trkpt lat="40.52094842135955" lon="15.503775247173193"><ele>480.0</ele><time>2026-05-02T09:05:44.999Z</time></trkpt><trkpt lat="40.520739354455216" lon="15.504108248925919"><ele>480.0</ele><time>2026-05-02T09:05:45.999Z</time></trkpt><trkpt lat="40.52052528555594" lon="15.504443519412268"><ele>481.5</ele><time>2026-05-02T09:05:46.999Z</time></trkpt><trkpt lat="40.52030591502658" lon="15.504775293000407"><ele>483.0</ele><time>2026-05-02T09:05:47.999Z</time></trkpt><trkpt lat="40.52008359801726" lon="15.505105759194691"><ele>484.5</ele><time>2026-05-02T09:05:48.999Z</time></trkpt><trkpt lat="40.51985822679042" lon="15.505436460840512"><ele>486.0</ele><time>2026-05-02T09:05:49.999Z</time></trkpt><trkpt lat="40.51962900736641" lon="15.505762617484775"><ele>485.0</ele><time>2026-05-02T09:05:50.999Z</time></trkpt><trkpt lat="40.51939423956241" lon="15.50608200796054"><ele>484.0</ele><time>2026-05-02T09:05:52Z</time></trkpt><trkpt lat="40.519150548489" lon="15.506393033671243"><ele>484.0</ele><time>2026-05-02T09:05:53Z</time></trkpt><trkpt lat="40.518900464623655" lon="15.506698641184776"><ele>484.0</ele><time>2026-05-02T09:05:54Z</time></trkpt><trkpt lat="40.51864511324843" lon="15.506997755057286"><ele>484.5</ele><time>2026-05-02T09:05:55Z</time></trkpt><trkpt lat="40.51838549996544" lon="15.50729291938617"><ele>485.0</ele><time>2026-05-02T09:05:56Z</time></trkpt><trkpt lat="40.51812385597603" lon="15.50758692323738"><ele>483.0</ele><time>2026-05-02T09:05:57Z</time></trkpt><trkpt lat="40.51786099621251" lon="15.507879577441868"><ele>481.0</ele><time>2026-05-02T09:05:58Z</time></trkpt><trkpt lat="40.51759908381342" lon="15.508170001926795"><ele>481.0</ele><time>2026-05-02T09:05:59Z</time></trkpt><trkpt lat="40.51733685568963" lon="15.508460475122181"><ele>481.0</ele><time>2026-05-02T09:06:00Z</time></trkpt><trkpt lat="40.517076724518645" lon="15.508751350584767"><ele>479.5</ele><time>2026-05-02T09:06:01Z</time></trkpt><trkpt lat="40.51681821426899" lon="15.509042484266754"><ele>478.0</ele><time>2026-05-02T09:06:02Z</time></trkpt><trkpt lat="40.51656046614844" lon="15.509334518847854"><ele>477.5</ele><time>2026-05-02T09:06:03Z</time></trkpt><trkpt lat="40.516304343798446" lon="15.50962776855996"><ele>477.0</ele><time>2026-05-02T09:06:04Z</time></trkpt><trkpt lat="40.51604864967751" lon="15.509921390502253"><ele>477.0</ele><time>2026-05-02T09:06:05Z</time></trkpt><trkpt lat="40.51579126605975" lon="15.510213463651906"><ele>477.0</ele><time>2026-05-02T09:06:06Z</time></trkpt><trkpt lat="40.51553308132726" lon="15.510503780429692"><ele>473.5</ele><time>2026-05-02T09:06:07Z</time></trkpt><trkpt lat="40.51527557786642" lon="15.510793208978923"><ele>470.0</ele><time>2026-05-02T09:06:08Z</time></trkpt><trkpt lat="40.51501870918502" lon="15.511083748050291"><ele>469.0</ele><time>2026-05-02T09:06:09Z</time></trkpt><trkpt lat="40.51476321065428" lon="15.511372510377253"><ele>468.0</ele><time>2026-05-02T09:06:10Z</time></trkpt><trkpt lat="40.51450747063495" lon="15.511662523623734"><ele>467.5</ele><time>2026-05-02T09:06:11Z</time></trkpt><trkpt lat="40.51425124771086" lon="15.5119538234469"><ele>467.0</ele><time>2026-05-02T09:06:12Z</time></trkpt><trkpt lat="40.51399398142678" lon="15.512244561197965"><ele>465.0</ele><time>2026-05-02T09:06:13Z</time></trkpt><trkpt lat="40.513737575165024" lon="15.512533563795557"><ele>463.0</ele><time>2026-05-02T09:06:14Z</time></trkpt><trkpt lat="40.513481431491165" lon="15.512822278218422"><ele>466.0</ele><time>2026-05-02T09:06:15Z</time></trkpt><trkpt lat="40.51322813694096" lon="15.513111383796513"><ele>469.0</ele><time>2026-05-02T09:06:16Z</time></trkpt><trkpt lat="40.51297492329683" lon="15.513399841760215"><ele>470.0</ele><time>2026-05-02T09:06:17Z</time></trkpt><trkpt lat="40.512720568117814" lon="15.513690204282753"><ele>471.0</ele><time>2026-05-02T09:06:18Z</time></trkpt><trkpt lat="40.512466137190906" lon="15.513981786461853"><ele>471.0</ele><time>2026-05-02T09:06:19Z</time></trkpt><trkpt lat="40.512211579464804" lon="15.514272713906653"><ele>471.0</ele><time>2026-05-02T09:06:20Z</time></trkpt><trkpt lat="40.51195514217318" lon="15.514561590102588"><ele>470.0</ele><time>2026-05-02T09:06:21Z</time></trkpt><trkpt lat="40.51169672514093" lon="15.514847612147516"><ele>469.0</ele><time>2026-05-02T09:06:22Z</time></trkpt><trkpt lat="40.51143761968154" lon="15.515131784449661"><ele>468.5</ele><time>2026-05-02T09:06:23Z</time></trkpt><trkpt lat="40.51117638903799" lon="15.515412895036022"><ele>468.0</ele><time>2026-05-02T09:06:24Z</time></trkpt><trkpt lat="40.51091373262453" lon="15.515693254965063"><ele>468.0</ele><time>2026-05-02T09:06:25Z</time></trkpt><trkpt lat="40.5106495248819" lon="15.51596984513878"><ele>468.0</ele><time>2026-05-02T09:06:26Z</time></trkpt><trkpt lat="40.51038253822235" lon="15.51624432609137"><ele>466.0</ele><time>2026-05-02T09:06:27Z</time></trkpt><trkpt lat="40.510112680623685" lon="15.516515495427955"><ele>464.0</ele><time>2026-05-02T09:06:28Z</time></trkpt><trkpt lat="40.50984164817124" lon="15.51678124764403"><ele>463.5</ele><time>2026-05-02T09:06:29Z</time></trkpt><trkpt lat="40.50956758966684" lon="15.517042361362773"><ele>463.0</ele><time>2026-05-02T09:06:30Z</time></trkpt><trkpt lat="40.50929207629108" lon="15.517296986373928"><ele>463.0</ele><time>2026-05-02T09:06:31Z</time></trkpt><trkpt lat="40.509014596138854" lon="15.517546540811276"><ele>463.0</ele><time>2026-05-02T09:06:32Z</time></trkpt><trkpt lat="40.508733824387384" lon="15.517789911497065"><ele>462.5</ele><time>2026-05-02T09:06:33Z</time></trkpt><trkpt lat="40.5084493909921" lon="15.518027319938877"><ele>462.0</ele><time>2026-05-02T09:06:34Z</time></trkpt><trkpt lat="40.50816071860415" lon="15.518257692800287"><ele>461.0</ele><time>2026-05-02T09:06:35Z</time></trkpt><trkpt lat="40.507870149083104" lon="15.518481122322019"><ele>460.0</ele><time>2026-05-02T09:06:36Z</time></trkpt><trkpt lat="40.50757570508787" lon="15.518698921445678"><ele>459.0</ele><time>2026-05-02T09:06:37Z</time></trkpt><trkpt lat="40.50727741483679" lon="15.518910149855799"><ele>458.0</ele><time>2026-05-02T09:06:38Z</time></trkpt><trkpt lat="40.506976719097004" lon="15.519112870473462"><ele>458.0</ele><time>2026-05-02T09:06:39Z</time></trkpt><trkpt lat="40.50667163738227" lon="15.519304846427914"><ele>458.0</ele><time>2026-05-02T09:06:40Z</time></trkpt><trkpt lat="40.506363239541244" lon="15.519489193832513"><ele>457.5</ele><time>2026-05-02T09:06:41Z</time></trkpt><trkpt lat="40.50605271888665" lon="15.519667232647615"><ele>457.0</ele><time>2026-05-02T09:06:42Z</time></trkpt><trkpt lat="40.50574053412573" lon="15.51983788339451"><ele>457.0</ele><time>2026-05-02T09:06:43Z</time></trkpt><trkpt lat="40.505426962489125" lon="15.520002966566214"><ele>457.0</ele><time>2026-05-02T09:06:44Z</time></trkpt><trkpt lat="40.50511032995398" lon="15.520161955774864"><ele>457.0</ele><time>2026-05-02T09:06:45Z</time></trkpt><trkpt lat="40.50479271863348" lon="15.520317393485472"><ele>457.0</ele><time>2026-05-02T09:06:46Z</time></trkpt><trkpt lat="40.50447584329727" lon="15.52046785934836"><ele>457.0</ele><time>2026-05-02T09:06:47Z</time></trkpt><trkpt lat="40.504156921176126" lon="15.520614565840582"><ele>457.0</ele><time>2026-05-02T09:06:48Z</time></trkpt><trkpt lat="40.503838600445356" lon="15.520756449014268"><ele>457.0</ele><time>2026-05-02T09:06:49Z</time></trkpt><trkpt lat="40.50351750064721" lon="15.520893353466269"><ele>457.0</ele><time>2026-05-02T09:06:50Z</time></trkpt><trkpt lat="40.50319518370609" lon="15.521025693469861"><ele>458.5</ele><time>2026-05-02T09:06:51Z</time></trkpt><trkpt lat="40.50287306232452" lon="15.521152520577935"><ele>460.0</ele><time>2026-05-02T09:06:52Z</time></trkpt><trkpt lat="40.502548806356934" lon="15.521276257915995"><ele>461.0</ele><time>2026-05-02T09:06:53Z</time></trkpt><trkpt lat="40.50222321807446" lon="15.521395049986442"><ele>462.0</ele><time>2026-05-02T09:06:54Z</time></trkpt><trkpt lat="40.50189561355711" lon="15.521510443468955"><ele>463.0</ele><time>2026-05-02T09:06:55Z</time></trkpt><trkpt lat="40.501565770014054" lon="15.521620647103632"><ele>464.0</ele><time>2026-05-02T09:06:56Z</time></trkpt><trkpt lat="40.501235484866804" lon="15.52172367301158"><ele>464.0</ele><time>2026-05-02T09:06:57Z</time></trkpt><trkpt lat="40.500902546786996" lon="15.521824741723655"><ele>464.0</ele><time>2026-05-02T09:06:58Z</time></trkpt><trkpt lat="40.500567478996714" lon="15.521921976218414"><ele>464.5</ele><time>2026-05-02T09:06:59Z</time></trkpt><trkpt lat="40.50022992356377" lon="15.5220134244706"><ele>465.0</ele><time>2026-05-02T09:07:00Z</time></trkpt><trkpt lat="40.49989214401784" lon="15.522098252882177"><ele>465.5</ele><time>2026-05-02T09:07:01Z</time></trkpt><trkpt lat="40.49955343749337" lon="15.522176132639192"><ele>466.0</ele><time>2026-05-02T09:07:02Z</time></trkpt><trkpt lat="40.499215146341776" lon="15.522245491609802"><ele>466.0</ele><time>2026-05-02T09:07:03Z</time></trkpt><trkpt lat="40.498876890907425" lon="15.52230483657092"><ele>466.0</ele><time>2026-05-02T09:07:04Z</time></trkpt><trkpt lat="40.498539087581726" lon="15.522353670650967"><ele>464.5</ele><time>2026-05-02T09:07:05Z</time></trkpt><trkpt lat="40.49819959240262" lon="15.522395424064548"><ele>463.0</ele><time>2026-05-02T09:07:06Z</time></trkpt><trkpt lat="40.4978596180431" lon="15.522435152924672"><ele>460.5</ele><time>2026-05-02T09:07:07Z</time></trkpt><trkpt lat="40.49751748375558" lon="15.522466827793247"><ele>458.0</ele><time>2026-05-02T09:07:08Z</time></trkpt><trkpt lat="40.49717470985555" lon="15.522494607676594"><ele>454.5</ele><time>2026-05-02T09:07:09Z</time></trkpt><trkpt lat="40.49683814996527" lon="15.52252287594214"><ele>451.0</ele><time>2026-05-02T09:07:10Z</time></trkpt><trkpt lat="40.49650863368808" lon="15.522557585268896"><ele>448.5</ele><time>2026-05-02T09:07:11Z</time></trkpt><trkpt lat="40.49617579725402" lon="15.522586583114414"><ele>446.0</ele><time>2026-05-02T09:07:12Z</time></trkpt><trkpt lat="40.495841521339585" lon="15.522619646827222"><ele>446.0</ele><time>2026-05-02T09:07:12.999Z</time></trkpt><trkpt lat="40.49550947765543" lon="15.522656459160771"><ele>446.0</ele><time>2026-05-02T09:07:13.999Z</time></trkpt><trkpt lat="40.49517802980906" lon="15.522692262858524"><ele>445.5</ele><time>2026-05-02T09:07:14.999Z</time></trkpt><trkpt lat="40.4948496701424" lon="15.52273687401756"><ele>445.0</ele><time>2026-05-02T09:07:15.999Z</time></trkpt><trkpt lat="40.494526221476086" lon="15.522785182476525"><ele>444.0</ele><time>2026-05-02T09:07:16.999Z</time></trkpt><trkpt lat="40.4942060922805" lon="15.522840837336291"><ele>443.0</ele><time>2026-05-02T09:07:17.999Z</time></trkpt><trkpt lat="40.49388859788382" lon="15.522910287036822"><ele>442.0</ele><time>2026-05-02T09:07:18.999Z</time></trkpt><trkpt lat="40.493573565472744" lon="15.5229866285716"><ele>441.0</ele><time>2026-05-02T09:07:19.999Z</time></trkpt><trkpt lat="40.49326316449528" lon="15.523078076928998"><ele>441.0</ele><time>2026-05-02T09:07:20.999Z</time></trkpt><trkpt lat="40.4929602700337" lon="15.52318922871321"><ele>441.0</ele><time>2026-05-02T09:07:21.999Z</time></trkpt><trkpt lat="40.492662959979505" lon="15.523313870959129"><ele>441.5</ele><time>2026-05-02T09:07:22.999Z</time></trkpt><trkpt lat="40.49236399159164" lon="15.523452018320612"><ele>442.0</ele><time>2026-05-02T09:07:23.999Z</time></trkpt><trkpt lat="40.492062383775284" lon="15.52361047638233"><ele>441.5</ele><time>2026-05-02T09:07:24.999Z</time></trkpt><trkpt lat="40.491762828613076" lon="15.523786014307964"><ele>441.0</ele><time>2026-05-02T09:07:25.999Z</time></trkpt><trkpt lat="40.49146892988899" lon="15.523986843832185"><ele>442.0</ele><time>2026-05-02T09:07:26.999Z</time></trkpt><trkpt lat="40.49118191961753" lon="15.524206832215237"><ele>443.0</ele><time>2026-05-02T09:07:27.999Z</time></trkpt><trkpt lat="40.49089891569165" lon="15.524440715563133"><ele>442.5</ele><time>2026-05-02T09:07:28.999Z</time></trkpt><trkpt lat="40.490622538331145" lon="15.524691473770906"><ele>442.0</ele><time>2026-05-02T09:07:29.999Z</time></trkpt><trkpt lat="40.49035804411827" lon="15.52495960816994"><ele>443.5</ele><time>2026-05-02T09:07:30.999Z</time></trkpt><trkpt lat="40.490101316356224" lon="15.525240049091924"><ele>445.0</ele><time>2026-05-02T09:07:31.999Z</time></trkpt><trkpt lat="40.4898507268554" lon="15.52553458765584"><ele>445.0</ele><time>2026-05-02T09:07:32.999Z</time></trkpt><trkpt lat="40.4896068175569" lon="15.525838174472069"><ele>445.0</ele><time>2026-05-02T09:07:33.999Z</time></trkpt><trkpt lat="40.4893670876721" lon="15.526149976685819"><ele>445.5</ele><time>2026-05-02T09:07:34.999Z</time></trkpt><trkpt lat="40.48913228229009" lon="15.52646869984049"><ele>446.0</ele><time>2026-05-02T09:07:35.999Z</time></trkpt><trkpt lat="40.48890012275295" lon="15.52679383239944"><ele>447.0</ele><time>2026-05-02T09:07:36.999Z</time></trkpt><trkpt lat="40.48867368388113" lon="15.527122292014118"><ele>448.0</ele><time>2026-05-02T09:07:37.999Z</time></trkpt><trkpt lat="40.48844979030985" lon="15.527450228196097"><ele>448.0</ele><time>2026-05-02T09:07:38.999Z</time></trkpt><trkpt lat="40.48822660207713" lon="15.527778383315956"><ele>448.0</ele><time>2026-05-02T09:07:39.999Z</time></trkpt><trkpt lat="40.48800062177794" lon="15.528106406974617"><ele>449.0</ele><time>2026-05-02T09:07:40.999Z</time></trkpt><trkpt lat="40.4877717789898" lon="15.528429629502874"><ele>450.0</ele><time>2026-05-02T09:07:41.999Z</time></trkpt><trkpt lat="40.48754210257034" lon="15.52874897214381"><ele>451.5</ele><time>2026-05-02T09:07:42.999Z</time></trkpt><trkpt lat="40.48730762436689" lon="15.529064067946193"><ele>453.0</ele><time>2026-05-02T09:07:43.999Z</time></trkpt><trkpt lat="40.48706725433653" lon="15.529373594248932"><ele>454.5</ele><time>2026-05-02T09:07:44.999Z</time></trkpt><trkpt lat="40.486822185065016" lon="15.52967563680795"><ele>456.0</ele><time>2026-05-02T09:07:45.999Z</time></trkpt><trkpt lat="40.48657087982413" lon="15.529967810886708"><ele>456.0</ele><time>2026-05-02T09:07:46.999Z</time></trkpt><trkpt lat="40.486312709434245" lon="15.530250058330381"><ele>456.0</ele><time>2026-05-02T09:07:47.999Z</time></trkpt><trkpt lat="40.48604540014917" lon="15.53051735081714"><ele>457.0</ele><time>2026-05-02T09:07:48.999Z</time></trkpt><trkpt lat="40.48576830690075" lon="15.53077119439249"><ele>458.0</ele><time>2026-05-02T09:07:49.999Z</time></trkpt><trkpt lat="40.48548254311001" lon="15.53100981232829"><ele>461.0</ele><time>2026-05-02T09:07:50.999Z</time></trkpt><trkpt lat="40.485191586832194" lon="15.531240285625692"><ele>464.0</ele><time>2026-05-02T09:07:51.999Z</time></trkpt><trkpt lat="40.48489607434579" lon="15.531458797636713"><ele>462.5</ele><time>2026-05-02T09:07:52.999Z</time></trkpt><trkpt lat="40.48459563017355" lon="15.531670863311613"><ele>461.0</ele><time>2026-05-02T09:07:53.999Z</time></trkpt><trkpt lat="40.48429334433926" lon="15.531875053092662"><ele>463.5</ele><time>2026-05-02T09:07:54.999Z</time></trkpt><trkpt lat="40.48398662463953" lon="15.532075331922668"><ele>466.0</ele><time>2026-05-02T09:07:55.999Z</time></trkpt><trkpt lat="40.483677244803566" lon="15.532272564206139"><ele>466.0</ele><time>2026-05-02T09:07:57Z</time></trkpt><trkpt lat="40.483368667852496" lon="15.532466240160401"><ele>466.0</ele><time>2026-05-02T09:07:58Z</time></trkpt><trkpt lat="40.48306122060311" lon="15.532660381083454"><ele>464.0</ele><time>2026-05-02T09:07:59Z</time></trkpt><trkpt lat="40.48275228949963" lon="15.532852589030492"><ele>462.0</ele><time>2026-05-02T09:08:00Z</time></trkpt><trkpt lat="40.48244167028298" lon="15.533043344457075"><ele>462.5</ele><time>2026-05-02T09:08:01Z</time></trkpt><trkpt lat="40.482131751647984" lon="15.533231698740847"><ele>463.0</ele><time>2026-05-02T09:08:02Z</time></trkpt><trkpt lat="40.48182206564254" lon="15.533415037333356"><ele>463.0</ele><time>2026-05-02T09:08:03Z</time></trkpt><trkpt lat="40.48151018815146" lon="15.533597550568404"><ele>463.0</ele><time>2026-05-02T09:08:04Z</time></trkpt><trkpt lat="40.481196356566706" lon="15.533778364343444"><ele>463.5</ele><time>2026-05-02T09:08:05Z</time></trkpt><trkpt lat="40.48088249070207" lon="15.5339556871918"><ele>464.0</ele><time>2026-05-02T09:08:06Z</time></trkpt><trkpt lat="40.480571298132524" lon="15.53413153282303"><ele>460.0</ele><time>2026-05-02T09:08:07Z</time></trkpt><trkpt lat="40.480257320747896" lon="15.534309037217485"><ele>456.0</ele><time>2026-05-02T09:08:08Z</time></trkpt><trkpt lat="40.47994252460635" lon="15.534487930675878"><ele>460.0</ele><time>2026-05-02T09:08:09Z</time></trkpt><trkpt lat="40.47962995123106" lon="15.534666374633273"><ele>464.0</ele><time>2026-05-02T09:08:10Z</time></trkpt><trkpt lat="40.47931811830844" lon="15.534843007373693"><ele>464.0</ele><time>2026-05-02T09:08:11Z</time></trkpt><trkpt lat="40.47900406774189" lon="15.535016921432273"><ele>464.0</ele><time>2026-05-02T09:08:12Z</time></trkpt><trkpt lat="40.47868772101076" lon="15.535188928315979"><ele>467.0</ele><time>2026-05-02T09:08:13Z</time></trkpt><trkpt lat="40.478372167187096" lon="15.535356923614934"><ele>470.0</ele><time>2026-05-02T09:08:14Z</time></trkpt><trkpt lat="40.478055987805014" lon="15.535523389071646"><ele>467.5</ele><time>2026-05-02T09:08:15Z</time></trkpt><trkpt lat="40.47774046964415" lon="15.535686100468055"><ele>465.0</ele><time>2026-05-02T09:08:16Z</time></trkpt><trkpt lat="40.4774245129344" lon="15.53584693201677"><ele>465.0</ele><time>2026-05-02T09:08:17Z</time></trkpt><trkpt lat="40.47710792315422" lon="15.536005218296367"><ele>465.0</ele><time>2026-05-02T09:08:18Z</time></trkpt><trkpt lat="40.476789874437095" lon="15.536161068850868"><ele>463.0</ele><time>2026-05-02T09:08:19Z</time></trkpt><trkpt lat="40.476474812715864" lon="15.5363159122098"><ele>461.0</ele><time>2026-05-02T09:08:20Z</time></trkpt><trkpt lat="40.476159738019604" lon="15.536470756622851"><ele>461.0</ele><time>2026-05-02T09:08:21Z</time></trkpt><trkpt lat="40.47584337601161" lon="15.536624877780588"><ele>461.0</ele><time>2026-05-02T09:08:22Z</time></trkpt><trkpt lat="40.47552789586447" lon="15.536775228044126"><ele>457.5</ele><time>2026-05-02T09:08:23Z</time></trkpt><trkpt lat="40.475210112626485" lon="15.536922265451182"><ele>454.0</ele><time>2026-05-02T09:08:24Z</time></trkpt><trkpt lat="40.474890339644006" lon="15.537065271751151"><ele>457.5</ele><time>2026-05-02T09:08:25Z</time></trkpt><trkpt lat="40.47456866732011" lon="15.537202215355109"><ele>461.0</ele><time>2026-05-02T09:08:26Z</time></trkpt><trkpt lat="40.474246188351536" lon="15.537335552350383"><ele>461.0</ele><time>2026-05-02T09:08:27Z</time></trkpt><trkpt lat="40.47391936858252" lon="15.537456432098347"><ele>461.0</ele><time>2026-05-02T09:08:28Z</time></trkpt><trkpt lat="40.47359224973639" lon="15.537564865099728"><ele>457.5</ele><time>2026-05-02T09:08:29Z</time></trkpt><trkpt lat="40.47326033436873" lon="15.537660468620262"><ele>454.0</ele><time>2026-05-02T09:08:30Z</time></trkpt><trkpt lat="40.472927837706735" lon="15.53774226067729"><ele>454.0</ele><time>2026-05-02T09:08:31Z</time></trkpt><trkpt lat="40.47259431347854" lon="15.537811777763599"><ele>454.0</ele><time>2026-05-02T09:08:32Z</time></trkpt><trkpt lat="40.472259376280384" lon="15.537873446195897"><ele>456.5</ele><time>2026-05-02T09:08:33Z</time></trkpt><trkpt lat="40.47192289588753" lon="15.537928664874114"><ele>459.0</ele><time>2026-05-02T09:08:34Z</time></trkpt><trkpt lat="40.471585493369034" lon="15.537979091909708"><ele>458.0</ele><time>2026-05-02T09:08:35Z</time></trkpt><trkpt lat="40.471248894387294" lon="15.538027981464174"><ele>457.0</ele><time>2026-05-02T09:08:36Z</time></trkpt><trkpt lat="40.47091226926176" lon="15.538077195028091"><ele>457.0</ele><time>2026-05-02T09:08:37Z</time></trkpt><trkpt lat="40.470574829451245" lon="15.538125928962518"><ele>457.0</ele><time>2026-05-02T09:08:38Z</time></trkpt><trkpt lat="40.470236159539546" lon="15.538172813366343"><ele>457.0</ele><time>2026-05-02T09:08:39Z</time></trkpt><trkpt lat="40.46989823489168" lon="15.538226084207677"><ele>457.0</ele><time>2026-05-02T09:08:40Z</time></trkpt><trkpt lat="40.469563108128135" lon="15.538290780036727"><ele>458.5</ele><time>2026-05-02T09:08:41Z</time></trkpt><trkpt lat="40.46922829752211" lon="15.538367628489043"><ele>460.0</ele><time>2026-05-02T09:08:42Z</time></trkpt><trkpt lat="40.46889374640265" lon="15.538452098299707"><ele>460.0</ele><time>2026-05-02T09:08:43Z</time></trkpt><trkpt lat="40.4685594574847" lon="15.5385436657391"><ele>460.0</ele><time>2026-05-02T09:08:44Z</time></trkpt><trkpt lat="40.468223095611066" lon="15.538642483203699"><ele>460.5</ele><time>2026-05-02T09:08:45Z</time></trkpt><trkpt lat="40.46788856483881" lon="15.538745988211904"><ele>461.0</ele><time>2026-05-02T09:08:46Z</time></trkpt><trkpt lat="40.46755693681346" lon="15.538853639489039"><ele>461.0</ele><time>2026-05-02T09:08:47Z</time></trkpt><trkpt lat="40.46722601573773" lon="15.538960865741593"><ele>461.0</ele><time>2026-05-02T09:08:48Z</time></trkpt><trkpt lat="40.466896434716205" lon="15.539062878531256"><ele>460.5</ele><time>2026-05-02T09:08:49Z</time></trkpt><trkpt lat="40.466568059738314" lon="15.539163054393034"><ele>460.0</ele><time>2026-05-02T09:08:50Z</time></trkpt><trkpt lat="40.46623635801625" lon="15.539263037537806"><ele>459.5</ele><time>2026-05-02T09:08:51Z</time></trkpt><trkpt lat="40.46590458741627" lon="15.539365597212798"><ele>459.0</ele><time>2026-05-02T09:08:52Z</time></trkpt><trkpt lat="40.465576221844145" lon="15.539468912271367"><ele>462.5</ele><time>2026-05-02T09:08:53Z</time></trkpt><trkpt lat="40.465249629268826" lon="15.539575104525372"><ele>466.0</ele><time>2026-05-02T09:08:54Z</time></trkpt><trkpt lat="40.4649251175874" lon="15.539684223773069"><ele>465.5</ele><time>2026-05-02T09:08:55Z</time></trkpt><trkpt lat="40.46460076563745" lon="15.53979744943034"><ele>465.0</ele><time>2026-05-02T09:08:56Z</time></trkpt><trkpt lat="40.46427823855637" lon="15.539916163848329"><ele>465.0</ele><time>2026-05-02T09:08:57Z</time></trkpt><trkpt lat="40.463959610985526" lon="15.5400409872244"><ele>465.0</ele><time>2026-05-02T09:08:58Z</time></trkpt><trkpt lat="40.46364073594733" lon="15.540173986028202"><ele>463.0</ele><time>2026-05-02T09:08:59Z</time></trkpt><trkpt lat="40.46332494693652" lon="15.540313645592294"><ele>461.0</ele><time>2026-05-02T09:09:00Z</time></trkpt><trkpt lat="40.46300973867882" lon="15.540460761645312"><ele>468.0</ele><time>2026-05-02T09:09:01Z</time></trkpt><trkpt lat="40.46269442934296" lon="15.540618135934974"><ele>475.0</ele><time>2026-05-02T09:09:02Z</time></trkpt><trkpt lat="40.46238016282679" lon="15.540780958667735"><ele>470.5</ele><time>2026-05-02T09:09:03Z</time></trkpt><trkpt lat="40.46207090802328" lon="15.540950689314629"><ele>466.0</ele><time>2026-05-02T09:09:04Z</time></trkpt><trkpt lat="40.46176324866987" lon="15.541122325368553"><ele>469.0</ele><time>2026-05-02T09:09:05Z</time></trkpt><trkpt lat="40.46144989994309" lon="15.541297919692857"><ele>472.0</ele><time>2026-05-02T09:09:06Z</time></trkpt><trkpt lat="40.46113882211584" lon="15.541470631237338"><ele>472.0</ele><time>2026-05-02T09:09:07Z</time></trkpt><trkpt lat="40.46082504449526" lon="15.54164198819738"><ele>472.0</ele><time>2026-05-02T09:09:08Z</time></trkpt><trkpt lat="40.46050937480812" lon="15.541813995921778"><ele>470.0</ele><time>2026-05-02T09:09:09Z</time></trkpt><trkpt lat="40.46019706632795" lon="15.541986108096793"><ele>468.0</ele><time>2026-05-02T09:09:10Z</time></trkpt><trkpt lat="40.45988480697503" lon="15.542157539838652"><ele>470.5</ele><time>2026-05-02T09:09:11Z</time></trkpt><trkpt lat="40.45957070273692" lon="15.542322400399494"><ele>473.0</ele><time>2026-05-02T09:09:12Z</time></trkpt><trkpt lat="40.45925226818114" lon="15.542476199614164"><ele>473.0</ele><time>2026-05-02T09:09:13Z</time></trkpt><trkpt lat="40.45893201669504" lon="15.542618280037711"><ele>473.0</ele><time>2026-05-02T09:09:14Z</time></trkpt><trkpt lat="40.45860869381738" lon="15.542741708226803"><ele>474.0</ele><time>2026-05-02T09:09:15Z</time></trkpt><trkpt lat="40.45828020958259" lon="15.542848644713327"><ele>475.0</ele><time>2026-05-02T09:09:15.999Z</time></trkpt><trkpt lat="40.45795028033854" lon="15.542939972553935"><ele>475.0</ele><time>2026-05-02T09:09:16.999Z</time></trkpt><trkpt lat="40.45761673885539" lon="15.543015945545852"><ele>475.0</ele><time>2026-05-02T09:09:17.999Z</time></trkpt><trkpt lat="40.45727927007827" lon="15.543077733457332"><ele>474.0</ele><time>2026-05-02T09:09:18.999Z</time></trkpt><trkpt lat="40.45694063603594" lon="15.543122252027132"><ele>473.0</ele><time>2026-05-02T09:09:19.999Z</time></trkpt><trkpt lat="40.45659978753029" lon="15.543151926169733"><ele>473.5</ele><time>2026-05-02T09:09:20.999Z</time></trkpt><trkpt lat="40.45625781622156" lon="15.543171236910782"><ele>474.0</ele><time>2026-05-02T09:09:21.999Z</time></trkpt><trkpt lat="40.45591251953783" lon="15.543182659489021"><ele>474.0</ele><time>2026-05-02T09:09:22.999Z</time></trkpt><trkpt lat="40.455565454178235" lon="15.543189889362226"><ele>474.0</ele><time>2026-05-02T09:09:23.999Z</time></trkpt><trkpt lat="40.455215719252024" lon="15.54319594287136"><ele>473.0</ele><time>2026-05-02T09:09:24.999Z</time></trkpt><trkpt lat="40.454869474709035" lon="15.54320062156416"><ele>472.0</ele><time>2026-05-02T09:09:25.999Z</time></trkpt><trkpt lat="40.45452585186276" lon="15.543210316358046"><ele>470.5</ele><time>2026-05-02T09:09:26.999Z</time></trkpt><trkpt lat="40.45418580848326" lon="15.543227011593869"><ele>469.0</ele><time>2026-05-02T09:09:27.999Z</time></trkpt><trkpt lat="40.45384721791132" lon="15.543255509684402"><ele>469.0</ele><time>2026-05-02T09:09:28.999Z</time></trkpt><trkpt lat="40.45351154393808" lon="15.543301361220735"><ele>469.0</ele><time>2026-05-02T09:09:29.999Z</time></trkpt><trkpt lat="40.45317859123872" lon="15.543363034596974"><ele>467.0</ele><time>2026-05-02T09:09:30.999Z</time></trkpt><trkpt lat="40.45285323752149" lon="15.54344698528158"><ele>465.0</ele><time>2026-05-02T09:09:31.999Z</time></trkpt><trkpt lat="40.452531221915265" lon="15.543549708890726"><ele>465.0</ele><time>2026-05-02T09:09:32.999Z</time></trkpt><trkpt lat="40.452210529521295" lon="15.54366788843316"><ele>465.0</ele><time>2026-05-02T09:09:33.999Z</time></trkpt><trkpt lat="40.45189267116902" lon="15.54380329820007"><ele>463.5</ele><time>2026-05-02T09:09:34.999Z</time></trkpt><trkpt lat="40.45157732572781" lon="15.543954705238876"><ele>462.0</ele><time>2026-05-02T09:09:35.999Z</time></trkpt><trkpt lat="40.45126562135045" lon="15.544120864747871"><ele>462.0</ele><time>2026-05-02T09:09:36.999Z</time></trkpt><trkpt lat="40.45095831434244" lon="15.544302498293638"><ele>462.0</ele><time>2026-05-02T09:09:37.999Z</time></trkpt><trkpt lat="40.45065509514892" lon="15.544498920733009"><ele>465.5</ele><time>2026-05-02T09:09:38.999Z</time></trkpt><trkpt lat="40.45035906851787" lon="15.544710037835547"><ele>469.0</ele><time>2026-05-02T09:09:39.999Z</time></trkpt><trkpt lat="40.45007161811317" lon="15.544936816316763"><ele>469.0</ele><time>2026-05-02T09:09:40.999Z</time></trkpt><trkpt lat="40.449788755085045" lon="15.545169935080624"><ele>469.0</ele><time>2026-05-02T09:09:41.999Z</time></trkpt><trkpt lat="40.44950457333958" lon="15.545409457438838"><ele>471.0</ele><time>2026-05-02T09:09:42.999Z</time></trkpt><trkpt lat="40.44921823062861" lon="15.545648501190358"><ele>473.0</ele><time>2026-05-02T09:09:43.999Z</time></trkpt><trkpt lat="40.44893022262602" lon="15.54588880217699"><ele>476.5</ele><time>2026-05-02T09:09:44.999Z</time></trkpt><trkpt lat="40.44863967051062" lon="15.5461332236029"><ele>480.0</ele><time>2026-05-02T09:09:45.999Z</time></trkpt><trkpt lat="40.44835148392481" lon="15.54637588706025"><ele>480.0</ele><time>2026-05-02T09:09:46.999Z</time></trkpt><trkpt lat="40.4480641091015" lon="15.54661678806735"><ele>480.0</ele><time>2026-05-02T09:09:47.999Z</time></trkpt><trkpt lat="40.44777560882223" lon="15.546858307263816"><ele>481.5</ele><time>2026-05-02T09:09:48.999Z</time></trkpt><trkpt lat="40.447489591254055" lon="15.547097404375519"><ele>483.0</ele><time>2026-05-02T09:09:49.999Z</time></trkpt><trkpt lat="40.44720301025673" lon="15.547339008085014"><ele>474.0</ele><time>2026-05-02T09:09:50.999Z</time></trkpt><trkpt lat="40.44691616776857" lon="15.547580251863426"><ele>465.0</ele><time>2026-05-02T09:09:51.999Z</time></trkpt><trkpt lat="40.44663110680921" lon="15.547821623784385"><ele>467.5</ele><time>2026-05-02T09:09:52.999Z</time></trkpt><trkpt lat="40.44634402792131" lon="15.548062639915067"><ele>470.0</ele><time>2026-05-02T09:09:53.999Z</time></trkpt><trkpt lat="40.44605360991467" lon="15.548300311167534"><ele>470.0</ele><time>2026-05-02T09:09:54.999Z</time></trkpt><trkpt lat="40.44576254122995" lon="15.54853230020674"><ele>470.0</ele><time>2026-05-02T09:09:55.999Z</time></trkpt><trkpt lat="40.44546952589162" lon="15.548758435762972"><ele>469.5</ele><time>2026-05-02T09:09:56.999Z</time></trkpt><trkpt lat="40.445171441032585" lon="15.54897390927389"><ele>469.0</ele><time>2026-05-02T09:09:57.999Z</time></trkpt><trkpt lat="40.44486990165637" lon="15.549169895835746"><ele>466.0</ele><time>2026-05-02T09:09:58.999Z</time></trkpt><trkpt lat="40.444567463628296" lon="15.549346848142903"><ele>463.0</ele><time>2026-05-02T09:09:59.999Z</time></trkpt><trkpt lat="40.44425864454554" lon="15.549514869367819"><ele>464.5</ele><time>2026-05-02T09:10:00.999Z</time></trkpt><trkpt lat="40.44394823689439" lon="15.549682588619351"><ele>466.0</ele><time>2026-05-02T09:10:01.999Z</time></trkpt><trkpt lat="40.44363475622974" lon="15.549851833750457"><ele>466.0</ele><time>2026-05-02T09:10:03Z</time></trkpt><trkpt lat="40.44332152346392" lon="15.550019510266923"><ele>466.0</ele><time>2026-05-02T09:10:04Z</time></trkpt><trkpt lat="40.44300594674631" lon="15.550188674112638"><ele>464.5</ele><time>2026-05-02T09:10:05Z</time></trkpt><trkpt lat="40.44269086950593" lon="15.550359114531647"><ele>463.0</ele><time>2026-05-02T09:10:06Z</time></trkpt><trkpt lat="40.44237427322703" lon="15.550532322729632"><ele>465.0</ele><time>2026-05-02T09:10:07Z</time></trkpt><trkpt lat="40.442059753294295" lon="15.550707910465993"><ele>467.0</ele><time>2026-05-02T09:10:08Z</time></trkpt><trkpt lat="40.44174628086268" lon="15.550887354238727"><ele>467.0</ele><time>2026-05-02T09:10:09Z</time></trkpt><trkpt lat="40.441435989450476" lon="15.551069189434475"><ele>467.0</ele><time>2026-05-02T09:10:10Z</time></trkpt><trkpt lat="40.441128284614585" lon="15.55125839129771"><ele>468.0</ele><time>2026-05-02T09:10:11Z</time></trkpt><trkpt lat="40.44082668397421" lon="15.551462088540317"><ele>469.0</ele><time>2026-05-02T09:10:12Z</time></trkpt><trkpt lat="40.44053559907477" lon="15.55168336945205"><ele>468.0</ele><time>2026-05-02T09:10:13Z</time></trkpt><trkpt lat="40.440252894156764" lon="15.551917118477808"><ele>467.0</ele><time>2026-05-02T09:10:14Z</time></trkpt><trkpt lat="40.439975214790024" lon="15.552160498567751"><ele>467.0</ele><time>2026-05-02T09:10:15Z</time></trkpt><trkpt lat="40.43970410232584" lon="15.55241779062582"><ele>467.0</ele><time>2026-05-02T09:10:16Z</time></trkpt><trkpt lat="40.439439345602466" lon="15.55268591881481"><ele>466.0</ele><time>2026-05-02T09:10:17Z</time></trkpt><trkpt lat="40.4391834720812" lon="15.552970582139615"><ele>465.0</ele><time>2026-05-02T09:10:18Z</time></trkpt><trkpt lat="40.43893190302634" lon="15.553266024933185"><ele>464.5</ele><time>2026-05-02T09:10:19Z</time></trkpt><trkpt lat="40.43867827798556" lon="15.553557183725772"><ele>464.0</ele><time>2026-05-02T09:10:20Z</time></trkpt><trkpt lat="40.438418819185834" lon="15.553838775323705"><ele>464.0</ele><time>2026-05-02T09:10:21Z</time></trkpt><trkpt lat="40.43815078617841" lon="15.554114339239153"><ele>464.0</ele><time>2026-05-02T09:10:22Z</time></trkpt><trkpt lat="40.437876129491215" lon="15.554380272299602"><ele>463.0</ele><time>2026-05-02T09:10:23Z</time></trkpt><trkpt lat="40.437593924272235" lon="15.554629415079912"><ele>462.0</ele><time>2026-05-02T09:10:24Z</time></trkpt><trkpt lat="40.437306290062324" lon="15.55486601693619"><ele>460.0</ele><time>2026-05-02T09:10:25Z</time></trkpt><trkpt lat="40.437014965002795" lon="15.555083165488451"><ele>458.0</ele><time>2026-05-02T09:10:26Z</time></trkpt><trkpt lat="40.4367150529759" lon="15.555291877028976"><ele>459.0</ele><time>2026-05-02T09:10:27Z</time></trkpt><trkpt lat="40.4364136886946" lon="15.55548491561512"><ele>460.0</ele><time>2026-05-02T09:10:28Z</time></trkpt><trkpt lat="40.436103847621766" lon="15.55566421786563"><ele>460.0</ele><time>2026-05-02T09:10:29Z</time></trkpt><trkpt lat="40.43579031094006" lon="15.555825959390127"><ele>460.0</ele><time>2026-05-02T09:10:30Z</time></trkpt><trkpt lat="40.43547327188536" lon="15.555977441641494"><ele>461.0</ele><time>2026-05-02T09:10:31Z</time></trkpt><trkpt lat="40.43515093769544" lon="15.55612483238156"><ele>462.0</ele><time>2026-05-02T09:10:32Z</time></trkpt><trkpt lat="40.43483128187579" lon="15.556270748190135"><ele>460.5</ele><time>2026-05-02T09:10:33Z</time></trkpt><trkpt lat="40.43450879918554" lon="15.55641793029209"><ele>459.0</ele><time>2026-05-02T09:10:34Z</time></trkpt><trkpt lat="40.43418557597754" lon="15.55656809846788"><ele>459.0</ele><time>2026-05-02T09:10:35Z</time></trkpt><trkpt lat="40.4338609254565" lon="15.556718709826132"><ele>459.0</ele><time>2026-05-02T09:10:36Z</time></trkpt><trkpt lat="40.43353781375944" lon="15.556870097988902"><ele>459.0</ele><time>2026-05-02T09:10:37Z</time></trkpt><trkpt lat="40.433218599657145" lon="15.557021283911983"><ele>459.0</ele><time>2026-05-02T09:10:38Z</time></trkpt><trkpt lat="40.432897524961106" lon="15.55717264064427"><ele>459.5</ele><time>2026-05-02T09:10:39Z</time></trkpt><trkpt lat="40.43257820813746" lon="15.557323314593207"><ele>460.0</ele><time>2026-05-02T09:10:40Z</time></trkpt><trkpt lat="40.43227075941286" lon="15.557468841033069"><ele>462.0</ele><time>2026-05-02T09:10:41Z</time></trkpt><trkpt lat="40.43196941913267" lon="15.557607133094633"><ele>464.0</ele><time>2026-05-02T09:10:42Z</time></trkpt><trkpt lat="40.43166940053713" lon="15.557747763879497"><ele>464.5</ele><time>2026-05-02T09:10:43Z</time></trkpt><trkpt lat="40.43136694840943" lon="15.557888133437253"><ele>465.0</ele><time>2026-05-02T09:10:44Z</time></trkpt><trkpt lat="40.43105522159012" lon="15.55803265193134"><ele>466.0</ele><time>2026-05-02T09:10:45Z</time></trkpt><trkpt lat="40.430739128742886" lon="15.558178469407377"><ele>467.0</ele><time>2026-05-02T09:10:46Z</time></trkpt><trkpt lat="40.43042209137176" lon="15.558322097431237"><ele>467.5</ele><time>2026-05-02T09:10:47Z</time></trkpt><trkpt lat="40.43010388059657" lon="15.558463629862759"><ele>468.0</ele><time>2026-05-02T09:10:48Z</time></trkpt><trkpt lat="40.42978457611741" lon="15.558594040247149"><ele>468.5</ele><time>2026-05-02T09:10:49Z</time></trkpt><trkpt lat="40.429461172650704" lon="15.558708552325601"><ele>469.0</ele><time>2026-05-02T09:10:50Z</time></trkpt><trkpt lat="40.42913441098075" lon="15.558801971750496"><ele>470.0</ele><time>2026-05-02T09:10:51Z</time></trkpt><trkpt lat="40.428804047614676" lon="15.558877588429338"><ele>471.0</ele><time>2026-05-02T09:10:52Z</time></trkpt><trkpt lat="40.428469836907034" lon="15.558938221439249"><ele>471.0</ele><time>2026-05-02T09:10:53Z</time></trkpt><trkpt lat="40.428136005663625" lon="15.558982406456094"><ele>471.0</ele><time>2026-05-02T09:10:54Z</time></trkpt><trkpt lat="40.42780235058197" lon="15.559013712824859"><ele>471.0</ele><time>2026-05-02T09:10:55Z</time></trkpt><trkpt lat="40.42746548177015" lon="15.559028510532722"><ele>471.0</ele><time>2026-05-02T09:10:56Z</time></trkpt><trkpt lat="40.42712907885607" lon="15.559028000968693"><ele>471.5</ele><time>2026-05-02T09:10:57Z</time></trkpt><trkpt lat="40.426791901243234" lon="15.559012107334578"><ele>472.0</ele><time>2026-05-02T09:10:58Z</time></trkpt><trkpt lat="40.426453398345515" lon="15.558989211235705"><ele>472.0</ele><time>2026-05-02T09:10:59Z</time></trkpt><trkpt lat="40.426113884477274" lon="15.558965313969706"><ele>472.0</ele><time>2026-05-02T09:11:00Z</time></trkpt><trkpt lat="40.42577130743503" lon="15.558941263846076"><ele>471.5</ele><time>2026-05-02T09:11:01Z</time></trkpt><trkpt lat="40.42542717107977" lon="15.558916071918564"><ele>471.0</ele><time>2026-05-02T09:11:02Z</time></trkpt><trkpt lat="40.42508418222219" lon="15.558888601285775"><ele>471.0</ele><time>2026-05-02T09:11:03Z</time></trkpt><trkpt lat="40.42474172471092" lon="15.558862950112093"><ele>471.0</ele><time>2026-05-02T09:11:04Z</time></trkpt><trkpt lat="40.42440016752383" lon="15.55884599485083"><ele>472.0</ele><time>2026-05-02T09:11:05Z</time></trkpt><trkpt lat="40.42406208973745" lon="15.558837368614665"><ele>473.0</ele><time>2026-05-02T09:11:06Z</time></trkpt><trkpt lat="40.42372281612123" lon="15.558835536534021"><ele>473.5</ele><time>2026-05-02T09:11:07Z</time></trkpt><trkpt lat="40.4233814791632" lon="15.558843165295722"><ele>474.0</ele><time>2026-05-02T09:11:08Z</time></trkpt><trkpt lat="40.42304121482887" lon="15.558860556016725"><ele>474.0</ele><time>2026-05-02T09:11:09Z</time></trkpt><trkpt lat="40.42270177429023" lon="15.558891347243106"><ele>474.0</ele><time>2026-05-02T09:11:10Z</time></trkpt><trkpt lat="40.42236450883628" lon="15.558940390545118"><ele>472.5</ele><time>2026-05-02T09:11:11Z</time></trkpt><trkpt lat="40.42202545285092" lon="15.558992619799378"><ele>471.0</ele><time>2026-05-02T09:11:12Z</time></trkpt><trkpt lat="40.42169176567632" lon="15.559066777399172"><ele>471.0</ele><time>2026-05-02T09:11:13Z</time></trkpt><trkpt lat="40.42135893637609" lon="15.55914559907155"><ele>471.0</ele><time>2026-05-02T09:11:14Z</time></trkpt><trkpt lat="40.42102932982544" lon="15.559239028482029"><ele>469.5</ele><time>2026-05-02T09:11:15Z</time></trkpt><trkpt lat="40.42069607089464" lon="15.559334421228147"><ele>468.0</ele><time>2026-05-02T09:11:16Z</time></trkpt><trkpt lat="40.42036557087567" lon="15.559438242455178"><ele>468.0</ele><time>2026-05-02T09:11:17Z</time></trkpt><trkpt lat="40.42003181363479" lon="15.559541600933038"><ele>468.0</ele><time>2026-05-02T09:11:18Z</time></trkpt><trkpt lat="40.4197022990498" lon="15.559652533029402"><ele>466.5</ele><time>2026-05-02T09:11:19Z</time></trkpt><trkpt lat="40.419371136118166" lon="15.55976378795662"><ele>465.0</ele><time>2026-05-02T09:11:19.999Z</time></trkpt><trkpt lat="40.41904251909883" lon="15.559876865464883"><ele>464.5</ele><time>2026-05-02T09:11:20.999Z</time></trkpt><trkpt lat="40.4187157776737" lon="15.559990662103852"><ele>464.0</ele><time>2026-05-02T09:11:21.999Z</time></trkpt><trkpt lat="40.418386665466585" lon="15.560103751945528"><ele>464.0</ele><time>2026-05-02T09:11:22.999Z</time></trkpt><trkpt lat="40.418060366988804" lon="15.56021653598489"><ele>464.0</ele><time>2026-05-02T09:11:23.999Z</time></trkpt><trkpt lat="40.41773424978399" lon="15.560328162070915"><ele>463.0</ele><time>2026-05-02T09:11:24.999Z</time></trkpt><trkpt lat="40.41740374305804" lon="15.56043962022637"><ele>462.0</ele><time>2026-05-02T09:11:25.999Z</time></trkpt><trkpt lat="40.41707928387371" lon="15.560552372050378"><ele>460.0</ele><time>2026-05-02T09:11:26.999Z</time></trkpt><trkpt lat="40.41675333036004" lon="15.560662676062467"><ele>458.0</ele><time>2026-05-02T09:11:27.999Z</time></trkpt><trkpt lat="40.41642748355859" lon="15.56077257413545"><ele>457.0</ele><time>2026-05-02T09:11:28.999Z</time></trkpt><trkpt lat="40.41609931807008" lon="15.560884074043061"><ele>456.0</ele><time>2026-05-02T09:11:29.999Z</time></trkpt><trkpt lat="40.41577346915577" lon="15.560998117938324"><ele>456.5</ele><time>2026-05-02T09:11:30.999Z</time></trkpt><trkpt lat="40.41544553254404" lon="15.561110165019866"><ele>457.0</ele><time>2026-05-02T09:11:31.999Z</time></trkpt><trkpt lat="40.415116144953764" lon="15.561219807127395"><ele>457.0</ele><time>2026-05-02T09:11:32.999Z</time></trkpt><trkpt lat="40.414786101786994" lon="15.561332968434279"><ele>457.0</ele><time>2026-05-02T09:11:33.999Z</time></trkpt><trkpt lat="40.41446192064425" lon="15.561457891494227"><ele>456.0</ele><time>2026-05-02T09:11:34.999Z</time></trkpt><trkpt lat="40.4141406682256" lon="15.561596512863504"><ele>455.0</ele><time>2026-05-02T09:11:35.999Z</time></trkpt><trkpt lat="40.41382257052073" lon="15.561751074262133"><ele>455.0</ele><time>2026-05-02T09:11:36.999Z</time></trkpt><trkpt lat="40.41350917894642" lon="15.561921408095174"><ele>455.0</ele><time>2026-05-02T09:11:37.999Z</time></trkpt><trkpt lat="40.41320360899325" lon="15.562112673076458"><ele>455.0</ele><time>2026-05-02T09:11:38.999Z</time></trkpt><trkpt lat="40.412904606088254" lon="15.562312304266825"><ele>455.0</ele><time>2026-05-02T09:11:39.999Z</time></trkpt><trkpt lat="40.4126029167321" lon="15.562512083213766"><ele>455.0</ele><time>2026-05-02T09:11:40.999Z</time></trkpt><trkpt lat="40.4122989613296" lon="15.562709575496964"><ele>455.0</ele><time>2026-05-02T09:11:41.999Z</time></trkpt><trkpt lat="40.41199779170479" lon="15.56291348831083"><ele>453.5</ele><time>2026-05-02T09:11:42.999Z</time></trkpt><trkpt lat="40.41169997105125" lon="15.563127814440213"><ele>452.0</ele><time>2026-05-02T09:11:43.999Z</time></trkpt><trkpt lat="40.41141042957642" lon="15.563358940207737"><ele>452.0</ele><time>2026-05-02T09:11:44.999Z</time></trkpt><trkpt lat="40.411134042664166" lon="15.563613488344437"><ele>452.0</ele><time>2026-05-02T09:11:45.999Z</time></trkpt><trkpt lat="40.41087025084463" lon="15.563884897114203"><ele>452.0</ele><time>2026-05-02T09:11:46.999Z</time></trkpt><trkpt lat="40.4106124798826" lon="15.564162552875196"><ele>452.0</ele><time>2026-05-02T09:11:47.999Z</time></trkpt><trkpt lat="40.41036135049365" lon="15.564456149336127"><ele>451.0</ele><time>2026-05-02T09:11:48.999Z</time></trkpt><trkpt lat="40.41012162102948" lon="15.56476843245936"><ele>450.0</ele><time>2026-05-02T09:11:49.999Z</time></trkpt><trkpt lat="40.409890131523376" lon="15.565088537727128"><ele>450.5</ele><time>2026-05-02T09:11:50.999Z</time></trkpt><trkpt lat="40.409670542158345" lon="15.565423831054646"><ele>451.0</ele><time>2026-05-02T09:11:51.999Z</time></trkpt><trkpt lat="40.40946342589889" lon="15.565770065183727"><ele>450.0</ele><time>2026-05-02T09:11:52.999Z</time></trkpt><trkpt lat="40.40926855804411" lon="15.566130519561973"><ele>449.0</ele><time>2026-05-02T09:11:53.999Z</time></trkpt><trkpt lat="40.409077966944345" lon="15.566496561234732"><ele>449.0</ele><time>2026-05-02T09:11:54.999Z</time></trkpt><trkpt lat="40.40889818758108" lon="15.566870155412122"><ele>449.0</ele><time>2026-05-02T09:11:55.999Z</time></trkpt><trkpt lat="40.40871473442893" lon="15.567247818989602"><ele>448.0</ele><time>2026-05-02T09:11:56.999Z</time></trkpt><trkpt lat="40.40853183887662" lon="15.567621988542319"><ele>447.0</ele><time>2026-05-02T09:11:57.999Z</time></trkpt><trkpt lat="40.408346078608496" lon="15.567997469324196"><ele>447.0</ele><time>2026-05-02T09:11:58.999Z</time></trkpt><trkpt lat="40.4081619271113" lon="15.568366888359002"><ele>447.0</ele><time>2026-05-02T09:11:59.999Z</time></trkpt><trkpt lat="40.4079768562608" lon="15.568740399016498"><ele>447.0</ele><time>2026-05-02T09:12:00.999Z</time></trkpt><trkpt lat="40.407789671229885" lon="15.569112547205686"><ele>447.0</ele><time>2026-05-02T09:12:01.999Z</time></trkpt><trkpt lat="40.40760153300033" lon="15.569483515300288"><ele>447.0</ele><time>2026-05-02T09:12:02.999Z</time></trkpt><trkpt lat="40.407410256926156" lon="15.569853969705385"><ele>447.0</ele><time>2026-05-02T09:12:03.999Z</time></trkpt><trkpt lat="40.40721576467316" lon="15.570222731267037"><ele>447.0</ele><time>2026-05-02T09:12:04.999Z</time></trkpt><trkpt lat="40.407018997000165" lon="15.57058783939428"><ele>447.0</ele><time>2026-05-02T09:12:05.999Z</time></trkpt><trkpt lat="40.40682031791984" lon="15.570944315761281"><ele>447.0</ele><time>2026-05-02T09:12:06.999Z</time></trkpt><trkpt lat="40.40661588005065" lon="15.57129947362831"><ele>447.0</ele><time>2026-05-02T09:12:08Z</time></trkpt><trkpt lat="40.40640297997892" lon="15.571645786676664"><ele>447.0</ele><time>2026-05-02T09:12:09Z</time></trkpt><trkpt lat="40.406184096965674" lon="15.57197942633628"><ele>447.0</ele><time>2026-05-02T09:12:10Z</time></trkpt><trkpt lat="40.40595514668105" lon="15.57230246421384"><ele>447.0</ele><time>2026-05-02T09:12:11Z</time></trkpt><trkpt lat="40.40572252141966" lon="15.572622197209485"><ele>447.0</ele><time>2026-05-02T09:12:12Z</time></trkpt><trkpt lat="40.40549074775399" lon="15.572944410853024"><ele>447.5</ele><time>2026-05-02T09:12:13Z</time></trkpt><trkpt lat="40.405259336028024" lon="15.573269339300714"><ele>448.0</ele><time>2026-05-02T09:12:14Z</time></trkpt><trkpt lat="40.40503217642606" lon="15.57359125720478"><ele>448.0</ele><time>2026-05-02T09:12:15Z</time></trkpt><trkpt lat="40.404810488363886" lon="15.57390676877597"><ele>448.0</ele><time>2026-05-02T09:12:16Z</time></trkpt><trkpt lat="40.40459420809921" lon="15.574214683456878"><ele>448.0</ele><time>2026-05-02T09:12:17Z</time></trkpt><trkpt lat="40.40438076827888" lon="15.574518400118961"><ele>448.0</ele><time>2026-05-02T09:12:18Z</time></trkpt><trkpt lat="40.40416656750503" lon="15.574817875334501"><ele>448.0</ele><time>2026-05-02T09:12:19Z</time></trkpt><trkpt lat="40.403955510026606" lon="15.575109642271423"><ele>448.0</ele><time>2026-05-02T09:12:20Z</time></trkpt><trkpt lat="40.40375114053612" lon="15.575394319245431"><ele>448.0</ele><time>2026-05-02T09:12:21Z</time></trkpt><trkpt lat="40.40354760080062" lon="15.57567632907744"><ele>448.0</ele><time>2026-05-02T09:12:22Z</time></trkpt><trkpt lat="40.40334792905722" lon="15.57595109573273"><ele>448.0</ele><time>2026-05-02T09:12:23Z</time></trkpt><trkpt lat="40.40314889606049" lon="15.576218751468817"><ele>448.0</ele><time>2026-05-02T09:12:24Z</time></trkpt><trkpt lat="40.4029494789234" lon="15.576478423462042"><ele>448.0</ele><time>2026-05-02T09:12:25Z</time></trkpt><trkpt lat="40.40274770169776" lon="15.576729956154775"><ele>448.0</ele><time>2026-05-02T09:12:26Z</time></trkpt><trkpt lat="40.402545375756915" lon="15.576974765332128"><ele>448.0</ele><time>2026-05-02T09:12:27Z</time></trkpt><trkpt lat="40.40234375916626" lon="15.577210017410877"><ele>448.0</ele><time>2026-05-02T09:12:28Z</time></trkpt><trkpt lat="40.402143695305455" lon="15.577432284473435"><ele>447.5</ele><time>2026-05-02T09:12:29Z</time></trkpt><trkpt lat="40.40194636005182" lon="15.577644319112625"><ele>447.0</ele><time>2026-05-02T09:12:30Z</time></trkpt><trkpt lat="40.40175096806375" lon="15.577846749135135"><ele>447.5</ele><time>2026-05-02T09:12:31Z</time></trkpt><trkpt lat="40.401560361389606" lon="15.578038364284216"><ele>448.0</ele><time>2026-05-02T09:12:32Z</time></trkpt><trkpt lat="40.40137602345366" lon="15.578211150700989"><ele>448.5</ele><time>2026-05-02T09:12:33Z</time></trkpt><trkpt lat="40.401182101443055" lon="15.578385400276087"><ele>449.0</ele><time>2026-05-02T09:12:34Z</time></trkpt><trkpt lat="40.40099581830152" lon="15.57854531156221"><ele>449.0</ele><time>2026-05-02T09:12:35Z</time></trkpt><trkpt lat="40.400806560723446" lon="15.578696156231455"><ele>449.0</ele><time>2026-05-02T09:12:36Z</time></trkpt><trkpt lat="40.400620746549414" lon="15.578842785058239"><ele>449.0</ele><time>2026-05-02T09:12:37Z</time></trkpt><trkpt lat="40.400441484992704" lon="15.578984319303098"><ele>449.0</ele><time>2026-05-02T09:12:38Z</time></trkpt><trkpt lat="40.40026716671691" lon="15.579119088584724"><ele>449.0</ele><time>2026-05-02T09:12:39Z</time></trkpt><trkpt lat="40.400101183860905" lon="15.579247713884746"><ele>449.0</ele><time>2026-05-02T09:12:40Z</time></trkpt><trkpt lat="40.39994578214559" lon="15.579367526748843"><ele>449.0</ele><time>2026-05-02T09:12:41Z</time></trkpt><trkpt lat="40.399799643599565" lon="15.57947822803277"><ele>449.0</ele><time>2026-05-02T09:12:42Z</time></trkpt><trkpt lat="40.39966323855983" lon="15.579582946939231"><ele>449.0</ele><time>2026-05-02T09:12:43Z</time></trkpt><trkpt lat="40.399533986800606" lon="15.579680637229018"><ele>449.25</ele><time>2026-05-02T09:12:44Z</time></trkpt><trkpt lat="40.39941435098174" lon="15.57976637702863"><ele>449.5</ele><time>2026-05-02T09:12:45Z</time></trkpt><trkpt lat="40.3993044682089" lon="15.57983441449887"><ele>449.75</ele><time>2026-05-02T09:12:46Z</time></trkpt><trkpt lat="40.39919859908762" lon="15.579884688876053"><ele>450.0</ele><time>2026-05-02T09:12:47Z</time></trkpt><trkpt lat="40.39910032349141" lon="15.579922508650988"><ele>450.0</ele><time>2026-05-02T09:12:48Z</time></trkpt><trkpt lat="40.39900877314771" lon="15.579955888225886"><ele>450.0</ele><time>2026-05-02T09:12:49Z</time></trkpt><trkpt lat="40.39892798064966" lon="15.579985982610221"><ele>450.0</ele><time>2026-05-02T09:12:50Z</time></trkpt><trkpt lat="40.39885767402377" lon="15.580013716471496"><ele>450.0</ele><time>2026-05-02T09:12:51Z</time></trkpt><trkpt lat="40.398794353424044" lon="15.580037519395658"><ele>450.0</ele><time>2026-05-02T09:12:52Z</time></trkpt><trkpt lat="40.39867860174928" lon="15.580057462685573"><ele>450.0</ele><time>2026-05-02T09:12:54Z</time></trkpt><trkpt lat="40.39857707001509" lon="15.5800365236342"><ele>450.28571428571433</ele><time>2026-05-02T09:12:56Z</time></trkpt><trkpt lat="40.39849343168588" lon="15.580006549589433"><ele>450.57142857142856</ele><time>2026-05-02T09:12:58Z</time></trkpt><trkpt lat="40.39841519422257" lon="15.580012995316002"><ele>450.8571428571429</ele><time>2026-05-02T09:13:00Z</time></trkpt><trkpt lat="40.39835217943512" lon="15.58005897666348"><ele>451.14285714285717</ele><time>2026-05-02T09:13:02Z</time></trkpt><trkpt lat="40.39829756220173" lon="15.580106994815246"><ele>451.42857142857144</ele><time>2026-05-02T09:13:05Z</time></trkpt><trkpt lat="40.398324438452384" lon="15.580024633753695"><ele>451.7142857142857</ele><time>2026-05-02T09:20:03.999Z</time></trkpt><trkpt lat="40.398273625233" lon="15.579970853776915"><ele>452.0</ele><time>2026-05-02T09:20:43Z</time></trkpt><trkpt lat="40.39826641151559" lon="15.580063594256034"><ele>451.99999999999994</ele><time>2026-05-02T09:21:18Z</time></trkpt><trkpt lat="40.39827301016344" lon="15.580160051705162"><ele>452.0</ele><time>2026-05-02T09:21:21Z</time></trkpt><trkpt lat="40.398362560668154" lon="15.580153144686303"><ele>452.0</ele><time>2026-05-02T09:23:17Z</time></trkpt><trkpt lat="40.39830327195074" lon="15.580099301253853"><ele>452.0</ele><time>2026-05-02T09:23:22Z</time></trkpt><trkpt lat="40.39824290550495" lon="15.580039813127687"><ele>451.99999999999994</ele><time>2026-05-02T09:23:36.999Z</time></trkpt><trkpt lat="40.3983033893708" lon="15.580092202344387"><ele>452.0</ele><time>2026-05-02T09:28:10.999Z</time></trkpt><trkpt lat="40.398246425051305" lon="15.580171620109995"><ele>451.99999999999994</ele><time>2026-05-02T09:34:29.999Z</time></trkpt><trkpt lat="40.39820678932166" lon="15.580240975136013"><ele>452.0</ele><time>2026-05-02T09:34:30.999Z</time></trkpt><trkpt lat="40.398148998871996" lon="15.580334979541082"><ele>452.0</ele><time>2026-05-02T09:34:32.999Z</time></trkpt><trkpt lat="40.398098068871214" lon="15.580403712702427"><ele>452.0</ele><time>2026-05-02T09:34:33.999Z</time></trkpt><trkpt lat="40.398031718900505" lon="15.580459076346369"><ele>451.99999999999994</ele><time>2026-05-02T09:34:34.999Z</time></trkpt><trkpt lat="40.397966840781535" lon="15.580526029112333"><ele>452.0</ele><time>2026-05-02T09:34:35.999Z</time></trkpt><trkpt lat="40.39790398663976" lon="15.580602174540697"><ele>451.6</ele><time>2026-05-02T09:34:36.999Z</time></trkpt><trkpt lat="40.39785629389671" lon="15.580708571076997"><ele>451.20000000000005</ele><time>2026-05-02T09:34:37.999Z</time></trkpt><trkpt lat="40.397798098486156" lon="15.580814207246403"><ele>450.8</ele><time>2026-05-02T09:34:38.999Z</time></trkpt><trkpt lat="40.39772264758969" lon="15.580902283075838"><ele>450.4</ele><time>2026-05-02T09:34:39.999Z</time></trkpt><trkpt lat="40.39764796230353" lon="15.580989745029704"><ele>450.0</ele><time>2026-05-02T09:34:40.999Z</time></trkpt><trkpt lat="40.39756408846905" lon="15.581084388083779"><ele>450.0</ele><time>2026-05-02T09:34:41.999Z</time></trkpt><trkpt lat="40.397474437650075" lon="15.58118227873915"><ele>450.0</ele><time>2026-05-02T09:34:42.999Z</time></trkpt><trkpt lat="40.3973700227177" lon="15.581276380411998"><ele>450.0</ele><time>2026-05-02T09:34:43.999Z</time></trkpt><trkpt lat="40.397267839951766" lon="15.581392624206716"><ele>450.0</ele><time>2026-05-02T09:34:44.999Z</time></trkpt><trkpt lat="40.39712222236349" lon="15.581482303898888"><ele>450.33333333333337</ele><time>2026-05-02T09:34:45.999Z</time></trkpt><trkpt lat="40.396967891207936" lon="15.581602453977995"><ele>450.6666666666667</ele><time>2026-05-02T09:34:46.999Z</time></trkpt><trkpt lat="40.39679620117671" lon="15.581735697981307"><ele>451.0</ele><time>2026-05-02T09:34:47.999Z</time></trkpt><trkpt lat="40.396617287664064" lon="15.581874676858638"><ele>450.0</ele><time>2026-05-02T09:34:48.999Z</time></trkpt><trkpt lat="40.396423141234436" lon="15.582027632611554"><ele>449.0</ele><time>2026-05-02T09:34:49.999Z</time></trkpt><trkpt lat="40.396215270308296" lon="15.582194698455202"><ele>449.0</ele><time>2026-05-02T09:34:50.999Z</time></trkpt><trkpt lat="40.39599378980411" lon="15.58236320023643"><ele>449.0</ele><time>2026-05-02T09:34:51.999Z</time></trkpt><trkpt lat="40.395764222515595" lon="15.582542177511167"><ele>449.0</ele><time>2026-05-02T09:34:52.999Z</time></trkpt><trkpt lat="40.3955197792481" lon="15.582723106940463"><ele>449.0</ele><time>2026-05-02T09:34:53.999Z</time></trkpt><trkpt lat="40.395269366217725" lon="15.582917399599097"><ele>448.5</ele><time>2026-05-02T09:34:54.999Z</time></trkpt><trkpt lat="40.39500377668879" lon="15.58311168462267"><ele>448.0</ele><time>2026-05-02T09:34:55.999Z</time></trkpt><trkpt lat="40.394740112804996" lon="15.583317182545155"><ele>448.0</ele><time>2026-05-02T09:34:56.999Z</time></trkpt><trkpt lat="40.39446315231366" lon="15.583526318230076"><ele>448.0</ele><time>2026-05-02T09:34:57.999Z</time></trkpt><trkpt lat="40.39417194282514" lon="15.583744586531523"><ele>448.0</ele><time>2026-05-02T09:34:58.999Z</time></trkpt><trkpt lat="40.393878199871" lon="15.583966737706007"><ele>448.0</ele><time>2026-05-02T09:34:59.999Z</time></trkpt><trkpt lat="40.3935796952382" lon="15.584193535501054"><ele>448.5</ele><time>2026-05-02T09:35:00.999Z</time></trkpt><trkpt lat="40.393281681180284" lon="15.584413595856477"><ele>449.0</ele><time>2026-05-02T09:35:01.999Z</time></trkpt><trkpt lat="40.3929933915689" lon="15.584632473882012"><ele>448.0</ele><time>2026-05-02T09:35:02.999Z</time></trkpt><trkpt lat="40.39270171302468" lon="15.584855542375196"><ele>447.0</ele><time>2026-05-02T09:35:03.999Z</time></trkpt><trkpt lat="40.39240751212031" lon="15.58506879969989"><ele>447.0</ele><time>2026-05-02T09:35:04.999Z</time></trkpt><trkpt lat="40.39211699268928" lon="15.585288139517134"><ele>447.0</ele><time>2026-05-02T09:35:05.999Z</time></trkpt><trkpt lat="40.3918249313216" lon="15.585509179646621"><ele>448.0</ele><time>2026-05-02T09:35:06.999Z</time></trkpt><trkpt lat="40.39153509166701" lon="15.585733974271717"><ele>449.0</ele><time>2026-05-02T09:35:07.999Z</time></trkpt><trkpt lat="40.39124846775196" lon="15.585964220842373"><ele>450.0</ele><time>2026-05-02T09:35:08.999Z</time></trkpt><trkpt lat="40.39096229391441" lon="15.586199175030304"><ele>451.0</ele><time>2026-05-02T09:35:10Z</time></trkpt><trkpt lat="40.39067742261936" lon="15.586431712118042"><ele>450.0</ele><time>2026-05-02T09:35:11Z</time></trkpt><trkpt lat="40.390391216532045" lon="15.58666659592919"><ele>449.0</ele><time>2026-05-02T09:35:12Z</time></trkpt><trkpt lat="40.39010742443982" lon="15.58690172104454"><ele>449.0</ele><time>2026-05-02T09:35:13Z</time></trkpt><trkpt lat="40.38982321271387" lon="15.587136302338374"><ele>449.0</ele><time>2026-05-02T09:35:14Z</time></trkpt><trkpt lat="40.38953672111787" lon="15.58737000254505"><ele>449.0</ele><time>2026-05-02T09:35:15Z</time></trkpt><trkpt lat="40.389250053320445" lon="15.587602431915382"><ele>449.0</ele><time>2026-05-02T09:35:16Z</time></trkpt><trkpt lat="40.38896403351334" lon="15.587837713223053"><ele>450.0</ele><time>2026-05-02T09:35:17Z</time></trkpt><trkpt lat="40.38867756086847" lon="15.588070907832739"><ele>451.0</ele><time>2026-05-02T09:35:18Z</time></trkpt><trkpt lat="40.388391090077675" lon="15.588303585357542"><ele>451.0</ele><time>2026-05-02T09:35:19Z</time></trkpt><trkpt lat="40.38810404403969" lon="15.588538332926046"><ele>451.0</ele><time>2026-05-02T09:35:20Z</time></trkpt><trkpt lat="40.387816758233136" lon="15.588769917296766"><ele>450.0</ele><time>2026-05-02T09:35:21Z</time></trkpt><trkpt lat="40.38752924255394" lon="15.589002094295255"><ele>449.0</ele><time>2026-05-02T09:35:22Z</time></trkpt><trkpt lat="40.38724321362985" lon="15.589234557753143"><ele>449.0</ele><time>2026-05-02T09:35:23Z</time></trkpt><trkpt lat="40.38695536068431" lon="15.589465476109714"><ele>449.0</ele><time>2026-05-02T09:35:24Z</time></trkpt><trkpt lat="40.38666949081044" lon="15.58970001706441"><ele>449.0</ele><time>2026-05-02T09:35:25Z</time></trkpt><trkpt lat="40.386384419833206" lon="15.589933703500236"><ele>449.0</ele><time>2026-05-02T09:35:26Z</time></trkpt><trkpt lat="40.38609879961518" lon="15.59016840687433"><ele>449.0</ele><time>2026-05-02T09:35:27Z</time></trkpt><trkpt lat="40.38581487212014" lon="15.590400719495552"><ele>449.0</ele><time>2026-05-02T09:35:28Z</time></trkpt><trkpt lat="40.3855293122946" lon="15.590634479507072"><ele>450.5</ele><time>2026-05-02T09:35:29Z</time></trkpt><trkpt lat="40.38524217683222" lon="15.590865582850453"><ele>452.0</ele><time>2026-05-02T09:35:30Z</time></trkpt><trkpt lat="40.3849533842399" lon="15.591093348898642"><ele>451.5</ele><time>2026-05-02T09:35:31Z</time></trkpt><trkpt lat="40.38466511950678" lon="15.591326119998243"><ele>451.0</ele><time>2026-05-02T09:35:32Z</time></trkpt><trkpt lat="40.38437911273615" lon="15.591558173987606"><ele>451.0</ele><time>2026-05-02T09:35:33Z</time></trkpt><trkpt lat="40.38409243281297" lon="15.591792019727343"><ele>451.0</ele><time>2026-05-02T09:35:34Z</time></trkpt><trkpt lat="40.383806177348056" lon="15.592021732162952"><ele>451.0</ele><time>2026-05-02T09:35:35Z</time></trkpt><trkpt lat="40.38352125776185" lon="15.592251790489993"><ele>451.0</ele><time>2026-05-02T09:35:36Z</time></trkpt><trkpt lat="40.383234392513124" lon="15.59248407823935"><ele>451.0</ele><time>2026-05-02T09:35:37Z</time></trkpt><trkpt lat="40.3829486344451" lon="15.59271673700992"><ele>451.0</ele><time>2026-05-02T09:35:38Z</time></trkpt><trkpt lat="40.38266165603198" lon="15.59294954285921"><ele>451.0</ele><time>2026-05-02T09:35:39Z</time></trkpt><trkpt lat="40.3823732241342" lon="15.593177479889496"><ele>451.0</ele><time>2026-05-02T09:35:40Z</time></trkpt><trkpt lat="40.38208038559422" lon="15.593396491384738"><ele>451.5</ele><time>2026-05-02T09:35:41Z</time></trkpt><trkpt lat="40.38178744861479" lon="15.593606515447876"><ele>452.0</ele><time>2026-05-02T09:35:42Z</time></trkpt><trkpt lat="40.381493920306404" lon="15.593822618501838"><ele>451.5</ele><time>2026-05-02T09:35:43Z</time></trkpt><trkpt lat="40.3812010841835" lon="15.594039039273184"><ele>451.0</ele><time>2026-05-02T09:35:44Z</time></trkpt><trkpt lat="40.38090815637186" lon="15.594254219563977"><ele>451.0</ele><time>2026-05-02T09:35:45Z</time></trkpt><trkpt lat="40.38061337798994" lon="15.594473936959094"><ele>451.0</ele><time>2026-05-02T09:35:46Z</time></trkpt><trkpt lat="40.38032076092499" lon="15.594693877942749"><ele>451.5</ele><time>2026-05-02T09:35:47Z</time></trkpt><trkpt lat="40.3800279241588" lon="15.594912823569208"><ele>452.0</ele><time>2026-05-02T09:35:48Z</time></trkpt><trkpt lat="40.37973167151652" lon="15.59513191240105"><ele>452.5</ele><time>2026-05-02T09:35:49Z</time></trkpt><trkpt lat="40.37943530887819" lon="15.59535150594125"><ele>453.0</ele><time>2026-05-02T09:35:50Z</time></trkpt><trkpt lat="40.3791397243314" lon="15.595568168864089"><ele>451.5</ele><time>2026-05-02T09:35:51Z</time></trkpt><trkpt lat="40.37884109284531" lon="15.595784778887412"><ele>450.0</ele><time>2026-05-02T09:35:52Z</time></trkpt><trkpt lat="40.37854338564299" lon="15.596002495541368"><ele>451.0</ele><time>2026-05-02T09:35:53Z</time></trkpt><trkpt lat="40.37824529959433" lon="15.596220880189568"><ele>452.0</ele><time>2026-05-02T09:35:54Z</time></trkpt><trkpt lat="40.37794871243672" lon="15.596439341527741"><ele>452.0</ele><time>2026-05-02T09:35:55Z</time></trkpt><trkpt lat="40.37765124034471" lon="15.596655053373938"><ele>452.0</ele><time>2026-05-02T09:35:56Z</time></trkpt><trkpt lat="40.377352521240525" lon="15.596873731761283"><ele>452.0</ele><time>2026-05-02T09:35:57Z</time></trkpt><trkpt lat="40.377054537196344" lon="15.597090208478694"><ele>452.0</ele><time>2026-05-02T09:35:58Z</time></trkpt><trkpt lat="40.37675621339835" lon="15.597308717828586"><ele>452.0</ele><time>2026-05-02T09:35:59Z</time></trkpt><trkpt lat="40.37645767192885" lon="15.597531301864299"><ele>452.0</ele><time>2026-05-02T09:36:00Z</time></trkpt><trkpt lat="40.37615986565777" lon="15.59775134968955"><ele>451.5</ele><time>2026-05-02T09:36:01Z</time></trkpt><trkpt lat="40.37586190805162" lon="15.597969127957219"><ele>451.0</ele><time>2026-05-02T09:36:02Z</time></trkpt><trkpt lat="40.37556400470703" lon="15.598183740960616"><ele>451.5</ele><time>2026-05-02T09:36:03Z</time></trkpt><trkpt lat="40.375263873285014" lon="15.598390561831746"><ele>452.0</ele><time>2026-05-02T09:36:03.999Z</time></trkpt><trkpt lat="40.3749630740184" lon="15.598592918432814"><ele>451.5</ele><time>2026-05-02T09:36:04.999Z</time></trkpt><trkpt lat="40.37466264629621" lon="15.598784038357197"><ele>451.0</ele><time>2026-05-02T09:36:05.999Z</time></trkpt><trkpt lat="40.374359805391336" lon="15.598969922823693"><ele>451.0</ele><time>2026-05-02T09:36:06.999Z</time></trkpt><trkpt lat="40.37405582938639" lon="15.599150199319249"><ele>451.0</ele><time>2026-05-02T09:36:07.999Z</time></trkpt><trkpt lat="40.373748324587154" lon="15.599321091240231"><ele>451.5</ele><time>2026-05-02T09:36:08.999Z</time></trkpt><trkpt lat="40.37343709306308" lon="15.599482863913575"><ele>452.0</ele><time>2026-05-02T09:36:09.999Z</time></trkpt><trkpt lat="40.37312250947041" lon="15.59963625678752"><ele>452.0</ele><time>2026-05-02T09:36:10.999Z</time></trkpt><trkpt lat="40.37280835836469" lon="15.599782849629436"><ele>452.0</ele><time>2026-05-02T09:36:11.999Z</time></trkpt><trkpt lat="40.37249085527362" lon="15.599923811651612"><ele>453.0</ele><time>2026-05-02T09:36:12.999Z</time></trkpt><trkpt lat="40.37217367243858" lon="15.600062532599921"><ele>454.0</ele><time>2026-05-02T09:36:13.999Z</time></trkpt><trkpt lat="40.37185108083646" lon="15.600201550432992"><ele>454.0</ele><time>2026-05-02T09:36:14.999Z</time></trkpt><trkpt lat="40.37152624485862" lon="15.600340951189175"><ele>454.0</ele><time>2026-05-02T09:36:15.999Z</time></trkpt><trkpt lat="40.37120553341518" lon="15.600487284442261"><ele>454.5</ele><time>2026-05-02T09:36:16.999Z</time></trkpt><trkpt lat="40.37088507933338" lon="15.600635920658226"><ele>455.0</ele><time>2026-05-02T09:36:17.999Z</time></trkpt><trkpt lat="40.370565281890414" lon="15.600789961571829"><ele>454.5</ele><time>2026-05-02T09:36:18.999Z</time></trkpt><trkpt lat="40.370249136689495" lon="15.600945948131683"><ele>454.0</ele><time>2026-05-02T09:36:19.999Z</time></trkpt><trkpt lat="40.36993392344242" lon="15.60110473646632"><ele>455.0</ele><time>2026-05-02T09:36:20.999Z</time></trkpt><trkpt lat="40.369617879653035" lon="15.601270133130916"><ele>456.0</ele><time>2026-05-02T09:36:21.999Z</time></trkpt><trkpt lat="40.369305316464455" lon="15.601443180929962"><ele>456.0</ele><time>2026-05-02T09:36:22.999Z</time></trkpt><trkpt lat="40.36899273170345" lon="15.60162229763907"><ele>456.0</ele><time>2026-05-02T09:36:23.999Z</time></trkpt><trkpt lat="40.36868389666317" lon="15.601813908912238"><ele>455.5</ele><time>2026-05-02T09:36:24.999Z</time></trkpt><trkpt lat="40.368378290381735" lon="15.60201509720648"><ele>455.0</ele><time>2026-05-02T09:36:25.999Z</time></trkpt><trkpt lat="40.36807759079634" lon="15.60222370183478"><ele>455.5</ele><time>2026-05-02T09:36:26.999Z</time></trkpt><trkpt lat="40.36778142688024" lon="15.602443885766958"><ele>456.0</ele><time>2026-05-02T09:36:27.999Z</time></trkpt><trkpt lat="40.367488542681095" lon="15.60267172636287"><ele>456.0</ele><time>2026-05-02T09:36:28.999Z</time></trkpt><trkpt lat="40.36719767958374" lon="15.602902886930593"><ele>456.0</ele><time>2026-05-02T09:36:29.999Z</time></trkpt><trkpt lat="40.36691046831544" lon="15.603139637246628"><ele>456.0</ele><time>2026-05-02T09:36:30.999Z</time></trkpt><trkpt lat="40.36662695243166" lon="15.603387279728647"><ele>456.0</ele><time>2026-05-02T09:36:31.999Z</time></trkpt><trkpt lat="40.366347166471584" lon="15.603638648259262"><ele>456.5</ele><time>2026-05-02T09:36:32.999Z</time></trkpt><trkpt lat="40.36607580342021" lon="15.603895782558807"><ele>457.0</ele><time>2026-05-02T09:36:33.999Z</time></trkpt><trkpt lat="40.365803938416406" lon="15.60416021638514"><ele>457.0</ele><time>2026-05-02T09:36:34.999Z</time></trkpt><trkpt lat="40.36553531385675" lon="15.604429231724028"><ele>457.0</ele><time>2026-05-02T09:36:35.999Z</time></trkpt><trkpt lat="40.36527095011517" lon="15.604701990324935"><ele>456.5</ele><time>2026-05-02T09:36:36.999Z</time></trkpt><trkpt lat="40.3650061416204" lon="15.60497523188334"><ele>456.0</ele><time>2026-05-02T09:36:37.999Z</time></trkpt><trkpt lat="40.36474049591114" lon="15.60525306001077"><ele>456.0</ele><time>2026-05-02T09:36:38.999Z</time></trkpt><trkpt lat="40.36447992560506" lon="15.605530807193599"><ele>456.0</ele><time>2026-05-02T09:36:39.999Z</time></trkpt><trkpt lat="40.36421858902412" lon="15.605809858147586"><ele>456.0</ele><time>2026-05-02T09:36:40.999Z</time></trkpt><trkpt lat="40.363956867375805" lon="15.606090144134395"><ele>456.0</ele><time>2026-05-02T09:36:41.999Z</time></trkpt><trkpt lat="40.36369629022309" lon="15.606371254616962"><ele>456.5</ele><time>2026-05-02T09:36:42.999Z</time></trkpt><trkpt lat="40.36343456157162" lon="15.60665282522969"><ele>457.0</ele><time>2026-05-02T09:36:43.999Z</time></trkpt><trkpt lat="40.36317467741352" lon="15.6069316513787"><ele>457.0</ele><time>2026-05-02T09:36:44.999Z</time></trkpt><trkpt lat="40.36290965866376" lon="15.607215004679079"><ele>457.0</ele><time>2026-05-02T09:36:45.999Z</time></trkpt><trkpt lat="40.36264855274972" lon="15.607494290910097"><ele>457.0</ele><time>2026-05-02T09:36:46.999Z</time></trkpt><trkpt lat="40.36238565242179" lon="15.60776919023882"><ele>457.0</ele><time>2026-05-02T09:36:47.999Z</time></trkpt><trkpt lat="40.36211769159095" lon="15.608047191992698"><ele>456.5</ele><time>2026-05-02T09:36:48.999Z</time></trkpt><trkpt lat="40.3618508454915" lon="15.608319476375579"><ele>456.0</ele><time>2026-05-02T09:36:49.999Z</time></trkpt><trkpt lat="40.361579603317544" lon="15.608589170996703"><ele>456.0</ele><time>2026-05-02T09:36:50.999Z</time></trkpt><trkpt lat="40.361309114209526" lon="15.608854624588394"><ele>456.0</ele><time>2026-05-02T09:36:51.999Z</time></trkpt><trkpt lat="40.36103249121631" lon="15.609111961984947"><ele>456.0</ele><time>2026-05-02T09:36:52.999Z</time></trkpt><trkpt lat="40.36075821588815" lon="15.609362199782693"><ele>456.0</ele><time>2026-05-02T09:36:53.999Z</time></trkpt><trkpt lat="40.36047345760458" lon="15.609606861709963"><ele>456.5</ele><time>2026-05-02T09:36:54.999Z</time></trkpt><trkpt lat="40.36018992949721" lon="15.609844138824224"><ele>457.0</ele><time>2026-05-02T09:36:55.999Z</time></trkpt><trkpt lat="40.35990090285392" lon="15.6100763368226"><ele>457.0</ele><time>2026-05-02T09:36:56.999Z</time></trkpt><trkpt lat="40.359611199627345" lon="15.61030392072044"><ele>457.0</ele><time>2026-05-02T09:36:57.999Z</time></trkpt><trkpt lat="40.35932027206667" lon="15.610530463772882"><ele>457.0</ele><time>2026-05-02T09:36:58.999Z</time></trkpt><trkpt lat="40.35902919875972" lon="15.61075459812966"><ele>457.0</ele><time>2026-05-02T09:36:59.999Z</time></trkpt><trkpt lat="40.3587362569596" lon="15.610976483897192"><ele>457.0</ele><time>2026-05-02T09:37:00.999Z</time></trkpt><trkpt lat="40.35844174803679" lon="15.611201302840731"><ele>457.0</ele><time>2026-05-02T09:37:01.999Z</time></trkpt><trkpt lat="40.3581484923616" lon="15.611423331176947"><ele>456.5</ele><time>2026-05-02T09:37:02.999Z</time></trkpt><trkpt lat="40.357853854410195" lon="15.61164700066475"><ele>456.0</ele><time>2026-05-02T09:37:03.999Z</time></trkpt><trkpt lat="40.35756427835092" lon="15.611870855429425"><ele>457.0</ele><time>2026-05-02T09:37:04.999Z</time></trkpt><trkpt lat="40.35727255164217" lon="15.612092458710698"><ele>458.0</ele><time>2026-05-02T09:37:05.999Z</time></trkpt><trkpt lat="40.35697754504101" lon="15.61231607386469"><ele>458.0</ele><time>2026-05-02T09:37:06.999Z</time></trkpt><trkpt lat="40.35668342775" lon="15.612538815302472"><ele>458.0</ele><time>2026-05-02T09:37:07.999Z</time></trkpt><trkpt lat="40.35639302050313" lon="15.612759930595297"><ele>458.0</ele><time>2026-05-02T09:37:08.999Z</time></trkpt><trkpt lat="40.35609770221298" lon="15.612983472300634"><ele>458.0</ele><time>2026-05-02T09:37:09.999Z</time></trkpt><trkpt lat="40.35580309796047" lon="15.613209555672405"><ele>459.0</ele><time>2026-05-02T09:37:10.999Z</time></trkpt><trkpt lat="40.35551062254014" lon="15.613430256253912"><ele>460.0</ele><time>2026-05-02T09:37:11.999Z</time></trkpt><trkpt lat="40.355218849557396" lon="15.613654820083864"><ele>459.5</ele><time>2026-05-02T09:37:12.999Z</time></trkpt><trkpt lat="40.35492677666505" lon="15.613876558931082"><ele>459.0</ele><time>2026-05-02T09:37:13.999Z</time></trkpt><trkpt lat="40.35462998346835" lon="15.614099640292547"><ele>458.5</ele><time>2026-05-02T09:37:14.999Z</time></trkpt><trkpt lat="40.354344029774474" lon="15.614321130687012"><ele>458.0</ele><time>2026-05-02T09:37:16Z</time></trkpt><trkpt lat="40.35404993457315" lon="15.614544113540525"><ele>458.0</ele><time>2026-05-02T09:37:17Z</time></trkpt><trkpt lat="40.35375960178854" lon="15.614768609098745"><ele>458.0</ele><time>2026-05-02T09:37:18Z</time></trkpt><trkpt lat="40.353465831763494" lon="15.614989911625669"><ele>458.0</ele><time>2026-05-02T09:37:19Z</time></trkpt><trkpt lat="40.35317418331919" lon="15.6152095856289"><ele>458.0</ele><time>2026-05-02T09:37:20Z</time></trkpt><trkpt lat="40.35287981509868" lon="15.615430021898803"><ele>459.5</ele><time>2026-05-02T09:37:21Z</time></trkpt><trkpt lat="40.35258721451834" lon="15.615648934422985"><ele>461.0</ele><time>2026-05-02T09:37:22Z</time></trkpt><trkpt lat="40.35229367408841" lon="15.615869293963794"><ele>461.0</ele><time>2026-05-02T09:37:23Z</time></trkpt><trkpt lat="40.35200094445682" lon="15.616091527061938"><ele>461.0</ele><time>2026-05-02T09:37:24Z</time></trkpt><trkpt lat="40.35170958733655" lon="15.616315581234073"><ele>461.0</ele><time>2026-05-02T09:37:25Z</time></trkpt><trkpt lat="40.35141738029193" lon="15.616540147648823"><ele>461.0</ele><time>2026-05-02T09:37:26Z</time></trkpt><trkpt lat="40.35112515379644" lon="15.616762496533735"><ele>460.5</ele><time>2026-05-02T09:37:27Z</time></trkpt><trkpt lat="40.350833112308194" lon="15.616984978462016"><ele>460.0</ele><time>2026-05-02T09:37:28Z</time></trkpt><trkpt lat="40.35053982414374" lon="15.61720800790674"><ele>461.5</ele><time>2026-05-02T09:37:29Z</time></trkpt><trkpt lat="40.350246004557434" lon="15.617433762388588"><ele>463.0</ele><time>2026-05-02T09:37:30Z</time></trkpt><trkpt lat="40.34995196785016" lon="15.617656704136918"><ele>462.5</ele><time>2026-05-02T09:37:31Z</time></trkpt><trkpt lat="40.34965764475422" lon="15.617880536265424"><ele>462.0</ele><time>2026-05-02T09:37:32Z</time></trkpt><trkpt lat="40.34936409341568" lon="15.618103111742514"><ele>462.0</ele><time>2026-05-02T09:37:33Z</time></trkpt><trkpt lat="40.349070840397395" lon="15.618326836595978"><ele>462.0</ele><time>2026-05-02T09:37:34Z</time></trkpt><trkpt lat="40.348777946372586" lon="15.618547538221488"><ele>462.0</ele><time>2026-05-02T09:37:35Z</time></trkpt><trkpt lat="40.348484050971834" lon="15.618771574061338"><ele>462.0</ele><time>2026-05-02T09:37:36Z</time></trkpt><trkpt lat="40.34819145698043" lon="15.618991478613893"><ele>463.0</ele><time>2026-05-02T09:37:37Z</time></trkpt><trkpt lat="40.34790041465713" lon="15.619212829101597"><ele>464.0</ele><time>2026-05-02T09:37:38Z</time></trkpt><trkpt lat="40.34760974367098" lon="15.619432701948995"><ele>464.0</ele><time>2026-05-02T09:37:39Z</time></trkpt><trkpt lat="40.34731932155575" lon="15.619653018713796"><ele>464.0</ele><time>2026-05-02T09:37:40Z</time></trkpt><trkpt lat="40.34702894690833" lon="15.61987315810149"><ele>464.0</ele><time>2026-05-02T09:37:41Z</time></trkpt><trkpt lat="40.34673565325312" lon="15.620093539435809"><ele>464.0</ele><time>2026-05-02T09:37:42Z</time></trkpt><trkpt lat="40.346443067515175" lon="15.620312722878365"><ele>465.5</ele><time>2026-05-02T09:37:43Z</time></trkpt><trkpt lat="40.34615025238986" lon="15.620533883732348"><ele>467.0</ele><time>2026-05-02T09:37:44Z</time></trkpt><trkpt lat="40.34585697015735" lon="15.620754911741463"><ele>467.0</ele><time>2026-05-02T09:37:45Z</time></trkpt><trkpt lat="40.3455633335201" lon="15.620972614619035"><ele>467.0</ele><time>2026-05-02T09:37:46Z</time></trkpt><trkpt lat="40.34526729579267" lon="15.621187966040866"><ele>467.5</ele><time>2026-05-02T09:37:47Z</time></trkpt><trkpt lat="40.34496785424194" lon="15.621395938137585"><ele>468.0</ele><time>2026-05-02T09:37:48Z</time></trkpt><trkpt lat="40.344665210784754" lon="15.621596387432389"><ele>468.0</ele><time>2026-05-02T09:37:49Z</time></trkpt><trkpt lat="40.34435842719597" lon="15.621787931404263"><ele>468.0</ele><time>2026-05-02T09:37:50Z</time></trkpt><trkpt lat="40.34404955299118" lon="15.621972895491695"><ele>469.0</ele><time>2026-05-02T09:37:51Z</time></trkpt><trkpt lat="40.34373926287343" lon="15.622150678179963"><ele>470.0</ele><time>2026-05-02T09:37:52Z</time></trkpt><trkpt lat="40.343426284015486" lon="15.622323321694676"><ele>470.0</ele><time>2026-05-02T09:37:53Z</time></trkpt><trkpt lat="40.343111280302445" lon="15.622495834114941"><ele>470.0</ele><time>2026-05-02T09:37:54Z</time></trkpt><trkpt lat="40.3427983910343" lon="15.622667361087517"><ele>470.5</ele><time>2026-05-02T09:37:55Z</time></trkpt><trkpt lat="40.34248598260971" lon="15.62283884627598"><ele>471.0</ele><time>2026-05-02T09:37:56Z</time></trkpt><trkpt lat="40.342172031903665" lon="15.623013397756388"><ele>472.0</ele><time>2026-05-02T09:37:57Z</time></trkpt><trkpt lat="40.34186211811019" lon="15.623189333068316"><ele>473.0</ele><time>2026-05-02T09:37:58Z</time></trkpt><trkpt lat="40.34155363268069" lon="15.623370950762604"><ele>473.0</ele><time>2026-05-02T09:37:59Z</time></trkpt><trkpt lat="40.34124714441249" lon="15.623556548334546"><ele>473.0</ele><time>2026-05-02T09:38:00Z</time></trkpt><trkpt lat="40.34094291822211" lon="15.623748728212655"><ele>473.5</ele><time>2026-05-02T09:38:01Z</time></trkpt><trkpt lat="40.34064144766897" lon="15.623946640535708"><ele>474.0</ele><time>2026-05-02T09:38:02Z</time></trkpt><trkpt lat="40.34034131901726" lon="15.624150104712037"><ele>475.0</ele><time>2026-05-02T09:38:03Z</time></trkpt><trkpt lat="40.34004469622024" lon="15.624356199355688"><ele>476.0</ele><time>2026-05-02T09:38:04Z</time></trkpt><trkpt lat="40.339745878009566" lon="15.62455796658636"><ele>476.0</ele><time>2026-05-02T09:38:05Z</time></trkpt><trkpt lat="40.33944659131916" lon="15.62475906461074"><ele>476.0</ele><time>2026-05-02T09:38:06Z</time></trkpt><trkpt lat="40.33914652047317" lon="15.624962397376155"><ele>476.0</ele><time>2026-05-02T09:38:07Z</time></trkpt><trkpt lat="40.33884432329211" lon="15.625167304591782"><ele>476.0</ele><time>2026-05-02T09:38:08Z</time></trkpt><trkpt lat="40.3385440816826" lon="15.62537334899851"><ele>477.0</ele><time>2026-05-02T09:38:08.999Z</time></trkpt><trkpt lat="40.33824620800979" lon="15.62558386136141"><ele>478.0</ele><time>2026-05-02T09:38:09.999Z</time></trkpt><trkpt lat="40.33794766846496" lon="15.625798467096182"><ele>478.5</ele><time>2026-05-02T09:38:10.999Z</time></trkpt><trkpt lat="40.337650792380714" lon="15.626016536551036"><ele>479.0</ele><time>2026-05-02T09:38:11.999Z</time></trkpt><trkpt lat="40.33735681387293" lon="15.626239140327224"><ele>478.5</ele><time>2026-05-02T09:38:12.999Z</time></trkpt><trkpt lat="40.337066423721296" lon="15.626467762245124"><ele>478.0</ele><time>2026-05-02T09:38:13.999Z</time></trkpt><trkpt lat="40.336778624004126" lon="15.626704722847556"><ele>478.0</ele><time>2026-05-02T09:38:14.999Z</time></trkpt><trkpt lat="40.33649745546742" lon="15.626951612377399"><ele>478.0</ele><time>2026-05-02T09:38:15.999Z</time></trkpt><trkpt lat="40.336220651389326" lon="15.627205520209111"><ele>479.5</ele><time>2026-05-02T09:38:16.999Z</time></trkpt><trkpt lat="40.33594631293018" lon="15.627465408520564"><ele>481.0</ele><time>2026-05-02T09:38:17.999Z</time></trkpt><trkpt lat="40.33567486565611" lon="15.627727831477177"><ele>481.0</ele><time>2026-05-02T09:38:18.999Z</time></trkpt><trkpt lat="40.33540497821134" lon="15.627994473129466"><ele>481.0</ele><time>2026-05-02T09:38:19.999Z</time></trkpt><trkpt lat="40.33513604256962" lon="15.628263763583885"><ele>481.0</ele><time>2026-05-02T09:38:20.999Z</time></trkpt><trkpt lat="40.334866951389124" lon="15.62853384221855"><ele>481.0</ele><time>2026-05-02T09:38:21.999Z</time></trkpt><trkpt lat="40.33459637133664" lon="15.628800741425732"><ele>480.5</ele><time>2026-05-02T09:38:22.999Z</time></trkpt><trkpt lat="40.33432483290255" lon="15.629064194547917"><ele>480.0</ele><time>2026-05-02T09:38:23.999Z</time></trkpt><trkpt lat="40.33405431029915" lon="15.629327380208133"><ele>481.0</ele><time>2026-05-02T09:38:24.999Z</time></trkpt><trkpt lat="40.33378382565143" lon="15.629593174957998"><ele>482.0</ele><time>2026-05-02T09:38:25.999Z</time></trkpt><trkpt lat="40.33351479551349" lon="15.629860848511209"><ele>482.0</ele><time>2026-05-02T09:38:26.999Z</time></trkpt><trkpt lat="40.33324549835348" lon="15.630131111695938"><ele>482.0</ele><time>2026-05-02T09:38:27.999Z</time></trkpt><trkpt lat="40.33297460191117" lon="15.630399987431156"><ele>483.0</ele><time>2026-05-02T09:38:28.999Z</time></trkpt><trkpt lat="40.33270424792068" lon="15.63066702588022"><ele>484.0</ele><time>2026-05-02T09:38:29.999Z</time></trkpt><trkpt lat="40.332432090114196" lon="15.630931128737387"><ele>483.5</ele><time>2026-05-02T09:38:30.999Z</time></trkpt><trkpt lat="40.332157143045656" lon="15.631193031453671"><ele>483.0</ele><time>2026-05-02T09:38:31.999Z</time></trkpt><trkpt lat="40.331879158934385" lon="15.631446845339147"><ele>483.0</ele><time>2026-05-02T09:38:32.999Z</time></trkpt><trkpt lat="40.33159778542658" lon="15.631692365655564"><ele>483.0</ele><time>2026-05-02T09:38:33.999Z</time></trkpt><trkpt lat="40.33131038597765" lon="15.631928187595634"><ele>483.5</ele><time>2026-05-02T09:38:34.999Z</time></trkpt><trkpt lat="40.33101914668357" lon="15.63215997321416"><ele>484.0</ele><time>2026-05-02T09:38:35.999Z</time></trkpt><trkpt lat="40.33072297617668" lon="15.632382128934209"><ele>484.0</ele><time>2026-05-02T09:38:36.999Z</time></trkpt><trkpt lat="40.330424141031905" lon="15.632595576039998"><ele>484.0</ele><time>2026-05-02T09:38:37.999Z</time></trkpt><trkpt lat="40.33012283068564" lon="15.632801073614106"><ele>484.5</ele><time>2026-05-02T09:38:38.999Z</time></trkpt><trkpt lat="40.329818996654225" lon="15.633001372531265"><ele>485.0</ele><time>2026-05-02T09:38:39.999Z</time></trkpt><trkpt lat="40.329514919095466" lon="15.633200866570725"><ele>485.0</ele><time>2026-05-02T09:38:40.999Z</time></trkpt><trkpt lat="40.32921102990227" lon="15.633399459806604"><ele>485.0</ele><time>2026-05-02T09:38:41.999Z</time></trkpt><trkpt lat="40.3289081437664" lon="15.633597021923713"><ele>485.0</ele><time>2026-05-02T09:38:42.999Z</time></trkpt><trkpt lat="40.32860502935844" lon="15.633794364401417"><ele>485.0</ele><time>2026-05-02T09:38:43.999Z</time></trkpt><trkpt lat="40.3283008668195" lon="15.63398845878233"><ele>484.5</ele><time>2026-05-02T09:38:44.999Z</time></trkpt><trkpt lat="40.3279970138737" lon="15.634182515770354"><ele>484.0</ele><time>2026-05-02T09:38:45.999Z</time></trkpt><trkpt lat="40.32769343098269" lon="15.634375930714613"><ele>484.0</ele><time>2026-05-02T09:38:46.999Z</time></trkpt><trkpt lat="40.32739198715112" lon="15.634569739795351"><ele>484.0</ele><time>2026-05-02T09:38:47.999Z</time></trkpt><trkpt lat="40.327089926930064" lon="15.63476374543602"><ele>484.0</ele><time>2026-05-02T09:38:48.999Z</time></trkpt><trkpt lat="40.326788430789634" lon="15.634957642519238"><ele>484.0</ele><time>2026-05-02T09:38:49.999Z</time></trkpt><trkpt lat="40.32648861139038" lon="15.635149168366471"><ele>484.5</ele><time>2026-05-02T09:38:50.999Z</time></trkpt><trkpt lat="40.32618745150894" lon="15.635341648986993"><ele>485.0</ele><time>2026-05-02T09:38:51.999Z</time></trkpt><trkpt lat="40.325884865665586" lon="15.635535924821934"><ele>485.0</ele><time>2026-05-02T09:38:52.999Z</time></trkpt><trkpt lat="40.325580880008864" lon="15.63573063637954"><ele>485.0</ele><time>2026-05-02T09:38:53.999Z</time></trkpt><trkpt lat="40.32527645912454" lon="15.63592594617345"><ele>486.0</ele><time>2026-05-02T09:38:54.999Z</time></trkpt><trkpt lat="40.32497009172985" lon="15.636120166204797"><ele>487.0</ele><time>2026-05-02T09:38:55.999Z</time></trkpt><trkpt lat="40.32466499706684" lon="15.636313821919035"><ele>487.0</ele><time>2026-05-02T09:38:56.999Z</time></trkpt><trkpt lat="40.32435908420671" lon="15.636503934297561"><ele>487.0</ele><time>2026-05-02T09:38:57.999Z</time></trkpt><trkpt lat="40.32405094555475" lon="15.63668993317712"><ele>486.0</ele><time>2026-05-02T09:38:58.999Z</time></trkpt><trkpt lat="40.32374231931471" lon="15.636867674735743"><ele>485.0</ele><time>2026-05-02T09:38:59.999Z</time></trkpt><trkpt lat="40.323432276918545" lon="15.63703800996489"><ele>485.0</ele><time>2026-05-02T09:39:00.999Z</time></trkpt><trkpt lat="40.323121102275685" lon="15.6372028853299"><ele>485.0</ele><time>2026-05-02T09:39:01.999Z</time></trkpt><trkpt lat="40.32280368279454" lon="15.63735964327867"><ele>485.0</ele><time>2026-05-02T09:39:02.999Z</time></trkpt><trkpt lat="40.32248753394582" lon="15.637507716300036"><ele>485.0</ele><time>2026-05-02T09:39:03.999Z</time></trkpt><trkpt lat="40.32217012990819" lon="15.63765225040723"><ele>485.0</ele><time>2026-05-02T09:39:04.999Z</time></trkpt><trkpt lat="40.321851888013484" lon="15.637794447824232"><ele>485.0</ele><time>2026-05-02T09:39:05.999Z</time></trkpt><trkpt lat="40.32152979981339" lon="15.637937636562036"><ele>485.5</ele><time>2026-05-02T09:39:06.999Z</time></trkpt><trkpt lat="40.321209302062435" lon="15.638078399832391"><ele>486.0</ele><time>2026-05-02T09:39:07.999Z</time></trkpt><trkpt lat="40.32088681026456" lon="15.63821888614942"><ele>485.0</ele><time>2026-05-02T09:39:08.999Z</time></trkpt><trkpt lat="40.32056581667841" lon="15.638359685723614"><ele>484.0</ele><time>2026-05-02T09:39:09.999Z</time></trkpt><trkpt lat="40.32024430217663" lon="15.638501245432726"><ele>484.5</ele><time>2026-05-02T09:39:10.999Z</time></trkpt><trkpt lat="40.31992248524938" lon="15.63864215166637"><ele>485.0</ele><time>2026-05-02T09:39:11.999Z</time></trkpt><trkpt lat="40.31959973882474" lon="15.63878161006369"><ele>485.0</ele><time>2026-05-02T09:39:12.999Z</time></trkpt><trkpt lat="40.319275225848116" lon="15.638922529523148"><ele>485.0</ele><time>2026-05-02T09:39:13.999Z</time></trkpt><trkpt lat="40.3189523901933" lon="15.63906339148465"><ele>485.0</ele><time>2026-05-02T09:39:14.999Z</time></trkpt><trkpt lat="40.31863088170084" lon="15.639204856856976"><ele>485.0</ele><time>2026-05-02T09:39:15.999Z</time></trkpt><trkpt lat="40.318308021919535" lon="15.639345206675983"><ele>484.5</ele><time>2026-05-02T09:39:16.999Z</time></trkpt><trkpt lat="40.317986123903744" lon="15.639484725193329"><ele>484.0</ele><time>2026-05-02T09:39:17.999Z</time></trkpt><trkpt lat="40.317664143933975" lon="15.63962367588462"><ele>484.0</ele><time>2026-05-02T09:39:18.999Z</time></trkpt><trkpt lat="40.31734220427547" lon="15.639764777607386"><ele>484.0</ele><time>2026-05-02T09:39:19.999Z</time></trkpt><trkpt lat="40.31702018782939" lon="15.639908204753777"><ele>483.0</ele><time>2026-05-02T09:39:20.999Z</time></trkpt><trkpt lat="40.31669741648219" lon="15.640051281954994"><ele>482.0</ele><time>2026-05-02T09:39:22Z</time></trkpt><trkpt lat="40.31637525911122" lon="15.640193731501551"><ele>483.0</ele><time>2026-05-02T09:39:23Z</time></trkpt><trkpt lat="40.31605223734817" lon="15.640336718432255"><ele>484.0</ele><time>2026-05-02T09:39:24Z</time></trkpt><trkpt lat="40.315728433198" lon="15.64047743400162"><ele>482.5</ele><time>2026-05-02T09:39:25Z</time></trkpt><trkpt lat="40.31540319197095" lon="15.64061745326922"><ele>481.0</ele><time>2026-05-02T09:39:26Z</time></trkpt><trkpt lat="40.31508127192388" lon="15.640759710945087"><ele>481.0</ele><time>2026-05-02T09:39:27Z</time></trkpt><trkpt lat="40.31476033322007" lon="15.640901506805317"><ele>481.0</ele><time>2026-05-02T09:39:28Z</time></trkpt><trkpt lat="40.31443721523539" lon="15.641042359897995"><ele>481.0</ele><time>2026-05-02T09:39:29Z</time></trkpt><trkpt lat="40.31411508224817" lon="15.64118309726318"><ele>481.0</ele><time>2026-05-02T09:39:30Z</time></trkpt><trkpt lat="40.31379380529308" lon="15.641323511658289"><ele>481.0</ele><time>2026-05-02T09:39:31Z</time></trkpt><trkpt lat="40.31347013192199" lon="15.641465404703963"><ele>481.0</ele><time>2026-05-02T09:39:32Z</time></trkpt><trkpt lat="40.3131490294426" lon="15.641605330993912"><ele>480.5</ele><time>2026-05-02T09:39:33Z</time></trkpt><trkpt lat="40.31282723911682" lon="15.641745838732309"><ele>480.0</ele><time>2026-05-02T09:39:34Z</time></trkpt><trkpt lat="40.312503858299095" lon="15.64188621277916"><ele>480.0</ele><time>2026-05-02T09:39:35Z</time></trkpt><trkpt lat="40.31218330661215" lon="15.642026529865165"><ele>480.0</ele><time>2026-05-02T09:39:36Z</time></trkpt><trkpt lat="40.31186168516538" lon="15.642165763696584"><ele>480.0</ele><time>2026-05-02T09:39:37Z</time></trkpt><trkpt lat="40.31153917051688" lon="15.642305670107499"><ele>480.0</ele><time>2026-05-02T09:39:38Z</time></trkpt><trkpt lat="40.31121583075986" lon="15.642446114332712"><ele>480.5</ele><time>2026-05-02T09:39:39Z</time></trkpt><trkpt lat="40.31089451642048" lon="15.64258880565863"><ele>481.0</ele><time>2026-05-02T09:39:40Z</time></trkpt><trkpt lat="40.31057325379468" lon="15.642729708780179"><ele>480.5</ele><time>2026-05-02T09:39:41Z</time></trkpt><trkpt lat="40.310251319934494" lon="15.642868777236293"><ele>480.0</ele><time>2026-05-02T09:39:42Z</time></trkpt><trkpt lat="40.309926418254854" lon="15.64300704145182"><ele>478.5</ele><time>2026-05-02T09:39:43Z</time></trkpt><trkpt lat="40.309602722861385" lon="15.643147060689053"><ele>477.0</ele><time>2026-05-02T09:39:44Z</time></trkpt><trkpt lat="40.30927824144028" lon="15.643286353102633"><ele>477.0</ele><time>2026-05-02T09:39:45Z</time></trkpt><trkpt lat="40.30895628764733" lon="15.643427675347539"><ele>477.0</ele><time>2026-05-02T09:39:46Z</time></trkpt><trkpt lat="40.30863530345636" lon="15.643570021791138"><ele>477.5</ele><time>2026-05-02T09:39:47Z</time></trkpt><trkpt lat="40.30831471966922" lon="15.643707340226834"><ele>478.0</ele><time>2026-05-02T09:39:48Z</time></trkpt><trkpt lat="40.307992529671274" lon="15.643841299818334"><ele>476.0</ele><time>2026-05-02T09:39:49Z</time></trkpt><trkpt lat="40.30767228036949" lon="15.643978438180811"><ele>474.0</ele><time>2026-05-02T09:39:50Z</time></trkpt><trkpt lat="40.307353180904386" lon="15.644118288626615"><ele>473.5</ele><time>2026-05-02T09:39:51Z</time></trkpt><trkpt lat="40.30703279328575" lon="15.6442544109936"><ele>473.0</ele><time>2026-05-02T09:39:52Z</time></trkpt><trkpt lat="40.30671186196188" lon="15.644385981543259"><ele>472.0</ele><time>2026-05-02T09:39:53Z</time></trkpt><trkpt lat="40.306387291895675" lon="15.644514869117819"><ele>471.0</ele><time>2026-05-02T09:39:54Z</time></trkpt><trkpt lat="40.30606375567221" lon="15.644642146359256"><ele>471.0</ele><time>2026-05-02T09:39:55Z</time></trkpt><trkpt lat="40.30574111122229" lon="15.64476785314835"><ele>471.0</ele><time>2026-05-02T09:39:56Z</time></trkpt><trkpt lat="40.30541757795249" lon="15.644892114055517"><ele>473.0</ele><time>2026-05-02T09:39:57Z</time></trkpt><trkpt lat="40.30509413745725" lon="15.645014430878115"><ele>475.0</ele><time>2026-05-02T09:39:58Z</time></trkpt><trkpt lat="40.304770065280266" lon="15.645131780052834"><ele>474.5</ele><time>2026-05-02T09:39:59Z</time></trkpt><trkpt lat="40.30444328956027" lon="15.645247567571493"><ele>474.0</ele><time>2026-05-02T09:40:00Z</time></trkpt><trkpt lat="40.30411736136958" lon="15.645363849636311"><ele>473.5</ele><time>2026-05-02T09:40:01Z</time></trkpt><trkpt lat="40.303790247814604" lon="15.645480037271492"><ele>473.0</ele><time>2026-05-02T09:40:02Z</time></trkpt><trkpt lat="40.303463355187624" lon="15.645598595136908"><ele>473.0</ele><time>2026-05-02T09:40:03Z</time></trkpt><trkpt lat="40.30313678947088" lon="15.645718076276733"><ele>473.0</ele><time>2026-05-02T09:40:04Z</time></trkpt><trkpt lat="40.30281159815579" lon="15.64583620903439"><ele>474.5</ele><time>2026-05-02T09:40:05Z</time></trkpt><trkpt lat="40.30248698320793" lon="15.64595334867031"><ele>476.0</ele><time>2026-05-02T09:40:06Z</time></trkpt><trkpt lat="40.30216144186424" lon="15.646072520002955"><ele>477.0</ele><time>2026-05-02T09:40:07Z</time></trkpt><trkpt lat="40.3018356616299" lon="15.646192359511826"><ele>478.0</ele><time>2026-05-02T09:40:08Z</time></trkpt><trkpt lat="40.30151133902516" lon="15.646310019657067"><ele>478.0</ele><time>2026-05-02T09:40:09Z</time></trkpt><trkpt lat="40.3011858950766" lon="15.646427374160567"><ele>478.0</ele><time>2026-05-02T09:40:10Z</time></trkpt><trkpt lat="40.30086010129764" lon="15.646545346116888"><ele>477.5</ele><time>2026-05-02T09:40:11Z</time></trkpt><trkpt lat="40.300534968123046" lon="15.646663053565524"><ele>477.0</ele><time>2026-05-02T09:40:12Z</time></trkpt><trkpt lat="40.300208529718795" lon="15.646781866043804"><ele>477.0</ele><time>2026-05-02T09:40:13Z</time></trkpt><trkpt lat="40.299882715831934" lon="15.646899385127313"><ele>477.0</ele><time>2026-05-02T09:40:14Z</time></trkpt><trkpt lat="40.29955507664897" lon="15.64701433856846"><ele>477.0</ele><time>2026-05-02T09:40:15Z</time></trkpt><trkpt lat="40.29922651253772" lon="15.647124041941744"><ele>477.0</ele><time>2026-05-02T09:40:16Z</time></trkpt><trkpt lat="40.2988958776653" lon="15.647226170749612"><ele>477.0</ele><time>2026-05-02T09:40:16.999Z</time></trkpt><trkpt lat="40.29856492925176" lon="15.647318719351693"><ele>477.0</ele><time>2026-05-02T09:40:17.999Z</time></trkpt><trkpt lat="40.29823273320048" lon="15.647399777057164"><ele>478.0</ele><time>2026-05-02T09:40:18.999Z</time></trkpt><trkpt lat="40.297899525190005" lon="15.647473525631165"><ele>479.0</ele><time>2026-05-02T09:40:19.999Z</time></trkpt><trkpt lat="40.29756612286754" lon="15.647542665523693"><ele>479.0</ele><time>2026-05-02T09:40:20.999Z</time></trkpt><trkpt lat="40.29722984461676" lon="15.64761376597147"><ele>479.0</ele><time>2026-05-02T09:40:21.999Z</time></trkpt><trkpt lat="40.29689426928858" lon="15.647683248917215"><ele>479.0</ele><time>2026-05-02T09:40:22.999Z</time></trkpt><trkpt lat="40.29655572554039" lon="15.647753677564054"><ele>479.0</ele><time>2026-05-02T09:40:23.999Z</time></trkpt><trkpt lat="40.296218361610336" lon="15.647824508940799"><ele>479.0</ele><time>2026-05-02T09:40:24.999Z</time></trkpt><trkpt lat="40.29588329841427" lon="15.647893898881563"><ele>479.0</ele><time>2026-05-02T09:40:25.999Z</time></trkpt><trkpt lat="40.29554884555805" lon="15.647962793932017"><ele>480.0</ele><time>2026-05-02T09:40:26.999Z</time></trkpt><trkpt lat="40.29521363564171" lon="15.648033228839944"><ele>481.0</ele><time>2026-05-02T09:40:27.999Z</time></trkpt><trkpt lat="40.29488016621587" lon="15.648102271123857"><ele>481.0</ele><time>2026-05-02T09:40:28.999Z</time></trkpt><trkpt lat="40.29454651622584" lon="15.6481734336225"><ele>481.0</ele><time>2026-05-02T09:40:29.999Z</time></trkpt><trkpt lat="40.29421302141248" lon="15.648244027670733"><ele>480.5</ele><time>2026-05-02T09:40:30.999Z</time></trkpt><trkpt lat="40.29388036498024" lon="15.648313531612828"><ele>480.0</ele><time>2026-05-02T09:40:31.999Z</time></trkpt><trkpt lat="40.29354600898315" lon="15.648382410206507"><ele>480.0</ele><time>2026-05-02T09:40:32.999Z</time></trkpt><trkpt lat="40.293211350740414" lon="15.648452172136922"><ele>480.0</ele><time>2026-05-02T09:40:33.999Z</time></trkpt><trkpt lat="40.29287449745914" lon="15.648523843364556"><ele>480.0</ele><time>2026-05-02T09:40:34.999Z</time></trkpt><trkpt lat="40.29253634227397" lon="15.64859438915819"><ele>480.0</ele><time>2026-05-02T09:40:35.999Z</time></trkpt><trkpt lat="40.2921997989024" lon="15.648664632062141"><ele>479.5</ele><time>2026-05-02T09:40:36.999Z</time></trkpt><trkpt lat="40.29186394284903" lon="15.648733648535016"><ele>479.0</ele><time>2026-05-02T09:40:37.999Z</time></trkpt><trkpt lat="40.29152768934549" lon="15.648803667785698"><ele>478.5</ele><time>2026-05-02T09:40:38.999Z</time></trkpt><trkpt lat="40.29119210745056" lon="15.648873254997197"><ele>478.0</ele><time>2026-05-02T09:40:39.999Z</time></trkpt><trkpt lat="40.290858477591634" lon="15.648948108021347"><ele>478.0</ele><time>2026-05-02T09:40:40.999Z</time></trkpt><trkpt lat="40.29052529800023" lon="15.649027228328151"><ele>478.0</ele><time>2026-05-02T09:40:41.999Z</time></trkpt><trkpt lat="40.290195638407816" lon="15.649117509478259"><ele>478.0</ele><time>2026-05-02T09:40:42.999Z</time></trkpt><trkpt lat="40.28986870297851" lon="15.64921998725574"><ele>478.0</ele><time>2026-05-02T09:40:43.999Z</time></trkpt><trkpt lat="40.28954353357843" lon="15.649336633510751"><ele>478.0</ele><time>2026-05-02T09:40:44.999Z</time></trkpt><trkpt lat="40.28921920173023" lon="15.649456749676533"><ele>478.0</ele><time>2026-05-02T09:40:45.999Z</time></trkpt><trkpt lat="40.28889644658088" lon="15.649582892917312"><ele>480.0</ele><time>2026-05-02T09:40:46.999Z</time></trkpt><trkpt lat="40.288572874239975" lon="15.649708175068906"><ele>482.0</ele><time>2026-05-02T09:40:47.999Z</time></trkpt><trkpt lat="40.28825015866831" lon="15.649833514324316"><ele>482.0</ele><time>2026-05-02T09:40:48.999Z</time></trkpt><trkpt lat="40.28792827148726" lon="15.649958834483652"><ele>482.0</ele><time>2026-05-02T09:40:49.999Z</time></trkpt><trkpt lat="40.28760505319801" lon="15.650084312681457"><ele>482.0</ele><time>2026-05-02T09:40:50.999Z</time></trkpt><trkpt lat="40.28728201633322" lon="15.65021236551264"><ele>482.0</ele><time>2026-05-02T09:40:51.999Z</time></trkpt><trkpt lat="40.286958166162115" lon="15.650343394567242"><ele>482.0</ele><time>2026-05-02T09:40:52.999Z</time></trkpt><trkpt lat="40.286632480166126" lon="15.65047201066216"><ele>482.0</ele><time>2026-05-02T09:40:53.999Z</time></trkpt><trkpt lat="40.28630704402021" lon="15.650600499787037"><ele>481.5</ele><time>2026-05-02T09:40:54.999Z</time></trkpt><trkpt lat="40.28598359455202" lon="15.650727695875714"><ele>481.0</ele><time>2026-05-02T09:40:55.999Z</time></trkpt><trkpt lat="40.28565854982541" lon="15.650855969747722"><ele>482.0</ele><time>2026-05-02T09:40:56.999Z</time></trkpt><trkpt lat="40.285335173263" lon="15.650982451973329"><ele>483.0</ele><time>2026-05-02T09:40:57.999Z</time></trkpt><trkpt lat="40.28501189022761" lon="15.651109556434383"><ele>483.5</ele><time>2026-05-02T09:40:58.999Z</time></trkpt><trkpt lat="40.28468680392418" lon="15.651235608542004"><ele>484.0</ele><time>2026-05-02T09:40:59.999Z</time></trkpt><trkpt lat="40.28436102895716" lon="15.651359364423161"><ele>484.0</ele><time>2026-05-02T09:41:00.999Z</time></trkpt><trkpt lat="40.284036256003176" lon="15.651481842364435"><ele>484.0</ele><time>2026-05-02T09:41:01.999Z</time></trkpt><trkpt lat="40.28371037530971" lon="15.651602817715322"><ele>484.0</ele><time>2026-05-02T09:41:02.999Z</time></trkpt><trkpt lat="40.28338599805714" lon="15.651726229625952"><ele>484.0</ele><time>2026-05-02T09:41:03.999Z</time></trkpt><trkpt lat="40.283061927597466" lon="15.651850407441147"><ele>485.5</ele><time>2026-05-02T09:41:04.999Z</time></trkpt><trkpt lat="40.282739889475266" lon="15.65197557271412"><ele>487.0</ele><time>2026-05-02T09:41:05.999Z</time></trkpt><trkpt lat="40.2824168419755" lon="15.652101332049224"><ele>487.5</ele><time>2026-05-02T09:41:06.999Z</time></trkpt><trkpt lat="40.282093495986565" lon="15.652226829814115"><ele>488.0</ele><time>2026-05-02T09:41:07.999Z</time></trkpt><trkpt lat="40.28176830081168" lon="15.652349617930396"><ele>488.0</ele><time>2026-05-02T09:41:08.999Z</time></trkpt><trkpt lat="40.281442510089704" lon="15.652472209122838"><ele>488.0</ele><time>2026-05-02T09:41:09.999Z</time></trkpt><trkpt lat="40.28111718213285" lon="15.652596303269993"><ele>487.0</ele><time>2026-05-02T09:41:10.999Z</time></trkpt><trkpt lat="40.280792240938304" lon="15.65272216978555"><ele>486.0</ele><time>2026-05-02T09:41:11.999Z</time></trkpt><trkpt lat="40.280467122246996" lon="15.652846717591133"><ele>489.0</ele><time>2026-05-02T09:41:12.999Z</time></trkpt><trkpt lat="40.28014195348818" lon="15.652972103476626"><ele>492.0</ele><time>2026-05-02T09:41:13.999Z</time></trkpt><trkpt lat="40.27981575016851" lon="15.653097628093617"><ele>490.5</ele><time>2026-05-02T09:41:14.999Z</time></trkpt><trkpt lat="40.27948788610365" lon="15.653223921598697"><ele>489.0</ele><time>2026-05-02T09:41:15.999Z</time></trkpt><trkpt lat="40.279160708090004" lon="15.653352030917663"><ele>489.0</ele><time>2026-05-02T09:41:16.999Z</time></trkpt><trkpt lat="40.27883338622885" lon="15.653479326455901"><ele>489.0</ele><time>2026-05-02T09:41:17.999Z</time></trkpt><trkpt lat="40.278503577983194" lon="15.653605033359208"><ele>491.5</ele><time>2026-05-02T09:41:18.999Z</time></trkpt><trkpt lat="40.278173834598164" lon="15.653728196612777"><ele>494.0</ele><time>2026-05-02T09:41:19.999Z</time></trkpt><trkpt lat="40.277844453413564" lon="15.653853135492803"><ele>494.0</ele><time>2026-05-02T09:41:20.999Z</time></trkpt><trkpt lat="40.277516321959155" lon="15.65397722270161"><ele>494.0</ele><time>2026-05-02T09:41:21.999Z</time></trkpt><trkpt lat="40.27718913738483" lon="15.65409851699108"><ele>491.5</ele><time>2026-05-02T09:41:22.999Z</time></trkpt><trkpt lat="40.276863175965744" lon="15.654221906730609"><ele>489.0</ele><time>2026-05-02T09:41:23.999Z</time></trkpt><trkpt lat="40.27653908489817" lon="15.654343802862593"><ele>490.5</ele><time>2026-05-02T09:41:24.999Z</time></trkpt><trkpt lat="40.27621552670365" lon="15.654465575699772"><ele>492.0</ele><time>2026-05-02T09:41:25.999Z</time></trkpt><trkpt lat="40.2758914142585" lon="15.654587910838078"><ele>491.5</ele><time>2026-05-02T09:41:27Z</time></trkpt><trkpt lat="40.27556772528731" lon="15.654708608365567"><ele>491.0</ele><time>2026-05-02T09:41:28Z</time></trkpt><trkpt lat="40.27524340489601" lon="15.6548284468063"><ele>491.0</ele><time>2026-05-02T09:41:29Z</time></trkpt><trkpt lat="40.27491945162829" lon="15.654948194343657"><ele>491.0</ele><time>2026-05-02T09:41:30Z</time></trkpt><trkpt lat="40.27459517583633" lon="15.655068411876915"><ele>491.0</ele><time>2026-05-02T09:41:31Z</time></trkpt><trkpt lat="40.2742731450256" lon="15.655189524799152"><ele>491.0</ele><time>2026-05-02T09:41:32Z</time></trkpt><trkpt lat="40.273949963054626" lon="15.655312375333317"><ele>494.0</ele><time>2026-05-02T09:41:33Z</time></trkpt><trkpt lat="40.27362675194266" lon="15.655437496209004"><ele>497.0</ele><time>2026-05-02T09:41:34Z</time></trkpt><trkpt lat="40.27330273708567" lon="15.655562243054963"><ele>495.5</ele><time>2026-05-02T09:41:35Z</time></trkpt><trkpt lat="40.27297828225841" lon="15.655685864604916"><ele>494.0</ele><time>2026-05-02T09:41:36Z</time></trkpt><trkpt lat="40.27265582644" lon="15.655808312241708"><ele>494.0</ele><time>2026-05-02T09:41:37Z</time></trkpt><trkpt lat="40.2723322668962" lon="15.655930305091333"><ele>494.0</ele><time>2026-05-02T09:41:38Z</time></trkpt><trkpt lat="40.27200834482643" lon="15.656052723730726"><ele>494.0</ele><time>2026-05-02T09:41:39Z</time></trkpt><trkpt lat="40.2716823152092" lon="15.656174397684412"><ele>494.0</ele><time>2026-05-02T09:41:40Z</time></trkpt><trkpt lat="40.271356033036284" lon="15.656297379497802"><ele>494.0</ele><time>2026-05-02T09:41:41Z</time></trkpt><trkpt lat="40.27103065552727" lon="15.656420119905313"><ele>494.0</ele><time>2026-05-02T09:41:42Z</time></trkpt><trkpt lat="40.270705758423375" lon="15.656543757853072"><ele>494.5</ele><time>2026-05-02T09:41:43Z</time></trkpt><trkpt lat="40.270380423623415" lon="15.656666739568795"><ele>495.0</ele><time>2026-05-02T09:41:44Z</time></trkpt><trkpt lat="40.270055913637286" lon="15.656788529333795"><ele>495.0</ele><time>2026-05-02T09:41:45Z</time></trkpt><trkpt lat="40.269732164808126" lon="15.65691143198333"><ele>495.0</ele><time>2026-05-02T09:41:46Z</time></trkpt><trkpt lat="40.26940738331242" lon="15.65703560419743"><ele>496.0</ele><time>2026-05-02T09:41:47Z</time></trkpt><trkpt lat="40.26908407139145" lon="15.657158724965589"><ele>497.0</ele><time>2026-05-02T09:41:48Z</time></trkpt><trkpt lat="40.26876094036478" lon="15.657281384754103"><ele>495.0</ele><time>2026-05-02T09:41:49Z</time></trkpt><trkpt lat="40.268436662559544" lon="15.657398199019221"><ele>493.0</ele><time>2026-05-02T09:41:50Z</time></trkpt><trkpt lat="40.26811180086735" lon="15.657508852712787"><ele>494.0</ele><time>2026-05-02T09:41:51Z</time></trkpt><trkpt lat="40.267784947641886" lon="15.657605920498142"><ele>495.0</ele><time>2026-05-02T09:41:52Z</time></trkpt><trkpt lat="40.26745572908245" lon="15.657683915211178"><ele>495.0</ele><time>2026-05-02T09:41:53Z</time></trkpt><trkpt lat="40.26712375536283" lon="15.657753578747995"><ele>495.0</ele><time>2026-05-02T09:41:54Z</time></trkpt><trkpt lat="40.26678951968958" lon="15.657817180361281"><ele>495.0</ele><time>2026-05-02T09:41:55Z</time></trkpt><trkpt lat="40.266454807386495" lon="15.657883638663678"><ele>495.0</ele><time>2026-05-02T09:41:56Z</time></trkpt><trkpt lat="40.266119442661065" lon="15.65795100990192"><ele>496.0</ele><time>2026-05-02T09:41:57Z</time></trkpt><trkpt lat="40.265783415988636" lon="15.658020226500076"><ele>497.0</ele><time>2026-05-02T09:41:58Z</time></trkpt><trkpt lat="40.26544578709492" lon="15.658089191690395"><ele>497.5</ele><time>2026-05-02T09:41:59Z</time></trkpt><trkpt lat="40.26510817865822" lon="15.658158381024407"><ele>498.0</ele><time>2026-05-02T09:42:00Z</time></trkpt><trkpt lat="40.2647719117768" lon="15.658225921388514"><ele>499.0</ele><time>2026-05-02T09:42:01Z</time></trkpt><trkpt lat="40.264435835090715" lon="15.658293646462164"><ele>500.0</ele><time>2026-05-02T09:42:02Z</time></trkpt><trkpt lat="40.26410004537039" lon="15.658361978895176"><ele>500.5</ele><time>2026-05-02T09:42:03Z</time></trkpt><trkpt lat="40.26376615344284" lon="15.658429269004218"><ele>501.0</ele><time>2026-05-02T09:42:04Z</time></trkpt><trkpt lat="40.26343178390884" lon="15.65849785623248"><ele>501.0</ele><time>2026-05-02T09:42:05Z</time></trkpt><trkpt lat="40.26309921888322" lon="15.658569360566956"><ele>501.0</ele><time>2026-05-02T09:42:06Z</time></trkpt><trkpt lat="40.26276605878237" lon="15.658639838483692"><ele>501.5</ele><time>2026-05-02T09:42:07Z</time></trkpt><trkpt lat="40.2624314356314" lon="15.658707111519336"><ele>502.0</ele><time>2026-05-02T09:42:08Z</time></trkpt><trkpt lat="40.26209697414045" lon="15.658771752801519"><ele>502.5</ele><time>2026-05-02T09:42:09Z</time></trkpt><trkpt lat="40.26176327626822" lon="15.658838512701927"><ele>503.0</ele><time>2026-05-02T09:42:10Z</time></trkpt><trkpt lat="40.2614276303051" lon="15.658905856901885"><ele>503.5</ele><time>2026-05-02T09:42:11Z</time></trkpt><trkpt lat="40.26109256451913" lon="15.658973047521679"><ele>504.0</ele><time>2026-05-02T09:42:12Z</time></trkpt><trkpt lat="40.26075904774144" lon="15.659038965169279"><ele>513.0</ele><time>2026-05-02T09:42:13Z</time></trkpt><trkpt lat="40.26042600770834" lon="15.659105404266649"><ele>522.0</ele><time>2026-05-02T09:42:14Z</time></trkpt><trkpt lat="40.26009138013102" lon="15.659173226724548"><ele>530.5</ele><time>2026-05-02T09:42:15Z</time></trkpt><trkpt lat="40.259757038674564" lon="15.659241589601606"><ele>539.0</ele><time>2026-05-02T09:42:16Z</time></trkpt><trkpt lat="40.259422650292336" lon="15.65931124607697"><ele>539.0</ele><time>2026-05-02T09:42:17Z</time></trkpt><trkpt lat="40.25908842780158" lon="15.659380046944106"><ele>539.0</ele><time>2026-05-02T09:42:18Z</time></trkpt><trkpt lat="40.25875183974045" lon="15.659447820318906"><ele>543.0</ele><time>2026-05-02T09:42:19Z</time></trkpt><trkpt lat="40.25841520770007" lon="15.659512931960561"><ele>547.0</ele><time>2026-05-02T09:42:20Z</time></trkpt><trkpt lat="40.25807857131579" lon="15.659576891248088"><ele>549.5</ele><time>2026-05-02T09:42:20.999Z</time></trkpt><trkpt lat="40.25774178626687" lon="15.659642195425562"><ele>552.0</ele><time>2026-05-02T09:42:21.999Z</time></trkpt><trkpt lat="40.25738339110291" lon="15.65970987079246"><ele>552.5</ele><time>2026-05-02T09:42:23.065Z</time></trkpt><trkpt lat="40.25704743749595" lon="15.659768483614933"><ele>553.0</ele><time>2026-05-02T09:42:24.066Z</time></trkpt><trkpt lat="40.25671281899394" lon="15.659825551477073"><ele>571.0</ele><time>2026-05-02T09:42:25.062Z</time></trkpt><trkpt lat="40.253530995603356" lon="15.66016462437996"><ele>539.0</ele><time>2026-05-02T09:42:29.159Z</time></trkpt><trkpt lat="40.24898394818306" lon="15.660391914626194"><ele>541.0</ele><time>2026-05-02T09:42:40.999Z</time></trkpt><trkpt lat="40.24864809594998" lon="15.660293142656936"><ele>543.0</ele><time>2026-05-02T09:42:41.999Z</time></trkpt><trkpt lat="40.248356401084514" lon="15.660031336126258"><ele>552.0</ele><time>2026-05-02T09:42:42.999Z</time></trkpt><trkpt lat="40.24807285383681" lon="15.660017125999317"><ele>561.0</ele><time>2026-05-02T09:42:43.999Z</time></trkpt><trkpt lat="40.247776277005585" lon="15.66000336709588"><ele>561.0</ele><time>2026-05-02T09:42:44.999Z</time></trkpt><trkpt lat="40.24746958250938" lon="15.659989138796432"><ele>561.0</ele><time>2026-05-02T09:42:45.999Z</time></trkpt><trkpt lat="40.24714390285329" lon="15.65997361776957"><ele>565.5</ele><time>2026-05-02T09:42:46.999Z</time></trkpt><trkpt lat="40.246855057695264" lon="15.659959647539987"><ele>570.0</ele><time>2026-05-02T09:42:47.999Z</time></trkpt><trkpt lat="40.24654643902457" lon="15.65994472093551"><ele>569.5</ele><time>2026-05-02T09:42:48.999Z</time></trkpt><trkpt lat="40.24623236665847" lon="15.659930176481556"><ele>569.0</ele><time>2026-05-02T09:42:49.999Z</time></trkpt><trkpt lat="40.245923574307426" lon="15.659917393524312"><ele>570.0</ele><time>2026-05-02T09:42:50.999Z</time></trkpt><trkpt lat="40.24561570602625" lon="15.6599001696457"><ele>571.0</ele><time>2026-05-02T09:42:51.999Z</time></trkpt><trkpt lat="40.24533585230667" lon="15.659885634998584"><ele>571.0</ele><time>2026-05-02T09:42:52.999Z</time></trkpt><trkpt lat="40.245042571969954" lon="15.659871971782387"><ele>571.0</ele><time>2026-05-02T09:42:53.999Z</time></trkpt><trkpt lat="40.24474090722435" lon="15.65985725760145"><ele>573.5</ele><time>2026-05-02T09:42:54.999Z</time></trkpt><trkpt lat="40.24443609066651" lon="15.659842260296845"><ele>576.0</ele><time>2026-05-02T09:42:55.999Z</time></trkpt><trkpt lat="40.24412476749592" lon="15.659826942829397"><ele>579.0</ele><time>2026-05-02T09:42:56.999Z</time></trkpt><trkpt lat="40.24387828345125" lon="15.659814815483186"><ele>582.0</ele><time>2026-05-02T09:42:57.999Z</time></trkpt><trkpt lat="40.2436511759151" lon="15.659803641342343"><ele>582.0</ele><time>2026-05-02T09:42:58.999Z</time></trkpt><trkpt lat="40.24342208364655" lon="15.659792369581869"><ele>582.0</ele><time>2026-05-02T09:42:59.999Z</time></trkpt><trkpt lat="40.24320035243913" lon="15.65978145997687"><ele>582.0</ele><time>2026-05-02T09:43:00.999Z</time></trkpt><trkpt lat="40.24377732049356" lon="15.659809846114642"><ele>582.0</ele><time>2026-05-02T09:43:01.999Z</time></trkpt><trkpt lat="40.243460849825055" lon="15.65979427573948"><ele>582.0</ele><time>2026-05-02T09:43:02.999Z</time></trkpt><trkpt lat="40.243142734362905" lon="15.659778623965758"><ele>580.5</ele><time>2026-05-02T09:43:03.999Z</time></trkpt><trkpt lat="40.24278530232865" lon="15.659760643415936"><ele>579.0</ele><time>2026-05-02T09:43:04.999Z</time></trkpt><trkpt lat="40.24242005952364" lon="15.659741980209507"><ele>580.0</ele><time>2026-05-02T09:43:05.999Z</time></trkpt><trkpt lat="40.24208310053148" lon="15.659725461637066"><ele>581.0</ele><time>2026-05-02T09:43:06.999Z</time></trkpt><trkpt lat="40.24177273822963" lon="15.659718225663243"><ele>579.5</ele><time>2026-05-02T09:43:07.999Z</time></trkpt><trkpt lat="40.241465302409864" lon="15.659672120644675"><ele>578.0</ele><time>2026-05-02T09:43:08.999Z</time></trkpt><trkpt lat="40.241106195092236" lon="15.659586809209149"><ele>578.0</ele><time>2026-05-02T09:43:10.999Z</time></trkpt><trkpt lat="40.240815506652005" lon="15.659585617427473"><ele>578.0</ele><time>2026-05-02T09:43:11.999Z</time></trkpt><trkpt lat="40.240489656033304" lon="15.659574572953785"><ele>572.5</ele><time>2026-05-02T09:43:12.999Z</time></trkpt><trkpt lat="40.24015084319736" lon="15.659596451669561"><ele>567.0</ele><time>2026-05-02T09:43:13.999Z</time></trkpt><trkpt lat="40.239846743935225" lon="15.65964160126427"><ele>566.5</ele><time>2026-05-02T09:43:14.999Z</time></trkpt><trkpt lat="40.23950983355781" lon="15.659702210869122"><ele>566.0</ele><time>2026-05-02T09:43:15.999Z</time></trkpt><trkpt lat="40.23916574675306" lon="15.659789881651458"><ele>567.5</ele><time>2026-05-02T09:43:16.999Z</time></trkpt><trkpt lat="40.23884413046326" lon="15.659899326871269"><ele>569.0</ele><time>2026-05-02T09:43:17.999Z</time></trkpt><trkpt lat="40.238529114553195" lon="15.660036597339964"><ele>569.0</ele><time>2026-05-02T09:43:18.999Z</time></trkpt><trkpt lat="40.238218487787336" lon="15.660198443446953"><ele>569.0</ele><time>2026-05-02T09:43:19.999Z</time></trkpt><trkpt lat="40.23790655578354" lon="15.66037584681728"><ele>568.5</ele><time>2026-05-02T09:43:20.999Z</time></trkpt><trkpt lat="40.23760585137303" lon="15.660583504622265"><ele>568.0</ele><time>2026-05-02T09:43:21.999Z</time></trkpt><trkpt lat="40.23727210687841" lon="15.660813872024784"><ele>568.0</ele><time>2026-05-02T09:43:22.999Z</time></trkpt><trkpt lat="40.237012875619236" lon="15.661044247096811"><ele>568.0</ele><time>2026-05-02T09:43:23.999Z</time></trkpt><trkpt lat="40.23674317813692" lon="15.661298038447178"><ele>568.0</ele><time>2026-05-02T09:43:24.999Z</time></trkpt><trkpt lat="40.23647600872128" lon="15.661559800371315"><ele>568.0</ele><time>2026-05-02T09:43:25.999Z</time></trkpt><trkpt lat="40.236211386895896" lon="15.661833015645895"><ele>570.5</ele><time>2026-05-02T09:43:26.999Z</time></trkpt><trkpt lat="40.23593994589735" lon="15.662102807445661"><ele>573.0</ele><time>2026-05-02T09:43:27.999Z</time></trkpt><trkpt lat="40.23566750686402" lon="15.662370072524093"><ele>574.0</ele><time>2026-05-02T09:43:28.999Z</time></trkpt><trkpt lat="40.23538855001484" lon="15.662632806640806"><ele>575.0</ele><time>2026-05-02T09:43:29.999Z</time></trkpt><trkpt lat="40.23511416188039" lon="15.662905162335498"><ele>567.0</ele><time>2026-05-02T09:43:30.999Z</time></trkpt><trkpt lat="40.234842092782245" lon="15.6631728817264"><ele>559.0</ele><time>2026-05-02T09:43:31.999Z</time></trkpt><trkpt lat="40.234569188161046" lon="15.663438858516695"><ele>562.5</ele><time>2026-05-02T09:43:33Z</time></trkpt><trkpt lat="40.23429851451358" lon="15.663699920200257"><ele>566.0</ele><time>2026-05-02T09:43:34Z</time></trkpt><trkpt lat="40.23402647509134" lon="15.663967937286996"><ele>573.0</ele><time>2026-05-02T09:43:35Z</time></trkpt><trkpt lat="40.233759637183766" lon="15.664227483687982"><ele>580.0</ele><time>2026-05-02T09:43:36Z</time></trkpt><trkpt lat="40.23348849385762" lon="15.66449826362524"><ele>581.0</ele><time>2026-05-02T09:43:37Z</time></trkpt><trkpt lat="40.23321967889239" lon="15.664759434135256"><ele>582.0</ele><time>2026-05-02T09:43:38Z</time></trkpt><trkpt lat="40.23295100350411" lon="15.665025449808224"><ele>596.5</ele><time>2026-05-02T09:43:39Z</time></trkpt><trkpt lat="40.2326729547462" lon="15.665289521322627"><ele>611.0</ele><time>2026-05-02T09:43:40Z</time></trkpt><trkpt lat="40.23239818593888" lon="15.665549489405498"><ele>606.0</ele><time>2026-05-02T09:43:41Z</time></trkpt><trkpt lat="40.2321235514186" lon="15.665809478538637"><ele>601.0</ele><time>2026-05-02T09:43:42Z</time></trkpt><trkpt lat="40.2318477952808" lon="15.666069764487164"><ele>593.5</ele><time>2026-05-02T09:43:43Z</time></trkpt><trkpt lat="40.231575385137816" lon="15.666327003097763"><ele>586.0</ele><time>2026-05-02T09:43:44Z</time></trkpt><trkpt lat="40.2312987795345" lon="15.666588788311588"><ele>577.0</ele><time>2026-05-02T09:43:45Z</time></trkpt><trkpt lat="40.23104946408563" lon="15.666889101098901"><ele>568.0</ele><time>2026-05-02T09:43:46Z</time></trkpt><trkpt lat="40.23077716039598" lon="15.667151528285446"><ele>560.5</ele><time>2026-05-02T09:43:47Z</time></trkpt><trkpt lat="40.230509439015925" lon="15.667416829891726"><ele>553.0</ele><time>2026-05-02T09:43:48Z</time></trkpt><trkpt lat="40.230242049098436" lon="15.66768150124417"><ele>555.5</ele><time>2026-05-02T09:43:49Z</time></trkpt><trkpt lat="40.22997035654736" lon="15.667943670848716"><ele>558.0</ele><time>2026-05-02T09:43:50Z</time></trkpt><trkpt lat="40.2297000160576" lon="15.668206299016395"><ele>564.0</ele><time>2026-05-02T09:43:51Z</time></trkpt><trkpt lat="40.22942528349405" lon="15.668464101616992"><ele>570.0</ele><time>2026-05-02T09:43:52Z</time></trkpt><trkpt lat="40.2291535294406" lon="15.668715561436672"><ele>576.0</ele><time>2026-05-02T09:43:53Z</time></trkpt><trkpt lat="40.22887266733851" lon="15.668964301355913"><ele>582.0</ele><time>2026-05-02T09:43:54Z</time></trkpt><trkpt lat="40.228591014207275" lon="15.669198471115129"><ele>582.0</ele><time>2026-05-02T09:43:55Z</time></trkpt><trkpt lat="40.228311113217025" lon="15.669424787603562"><ele>582.0</ele><time>2026-05-02T09:43:56Z</time></trkpt><trkpt lat="40.228023763140925" lon="15.669647790542959"><ele>587.0</ele><time>2026-05-02T09:43:57Z</time></trkpt><trkpt lat="40.227731241825495" lon="15.669860604616424"><ele>592.0</ele><time>2026-05-02T09:43:58Z</time></trkpt><trkpt lat="40.227435207886515" lon="15.67005891819905"><ele>597.0</ele><time>2026-05-02T09:43:59Z</time></trkpt><trkpt lat="40.227128710815045" lon="15.670261325765603"><ele>602.0</ele><time>2026-05-02T09:44:00Z</time></trkpt><trkpt lat="40.22682334369489" lon="15.670456063804425"><ele>602.0</ele><time>2026-05-02T09:44:01Z</time></trkpt><trkpt lat="40.22651596424905" lon="15.67065424785766"><ele>602.0</ele><time>2026-05-02T09:44:02Z</time></trkpt><trkpt lat="40.22620972211872" lon="15.67085349993398"><ele>609.5</ele><time>2026-05-02T09:44:03Z</time></trkpt><trkpt lat="40.225902257503726" lon="15.671052906394875"><ele>617.0</ele><time>2026-05-02T09:44:04Z</time></trkpt><trkpt lat="40.22559584867896" lon="15.671250468622356"><ele>617.0</ele><time>2026-05-02T09:44:05Z</time></trkpt><trkpt lat="40.225268620643675" lon="15.671460418142317"><ele>617.0</ele><time>2026-05-02T09:44:06.065Z</time></trkpt><trkpt lat="40.22154922265545" lon="15.671828893247408"><ele>596.0</ele><time>2026-05-02T09:44:17Z</time></trkpt><trkpt lat="40.22121716786353" lon="15.671826765158617"><ele>575.0</ele><time>2026-05-02T09:44:18Z</time></trkpt><trkpt lat="40.22087447199867" lon="15.671815821610188"><ele>577.0</ele><time>2026-05-02T09:44:19Z</time></trkpt><trkpt lat="40.2205386088386" lon="15.671787420079434"><ele>579.0</ele><time>2026-05-02T09:44:20Z</time></trkpt><trkpt lat="40.220200664315215" lon="15.671754369345214"><ele>579.0</ele><time>2026-05-02T09:44:21Z</time></trkpt><trkpt lat="40.219860560578525" lon="15.671723453521642"><ele>579.0</ele><time>2026-05-02T09:44:22Z</time></trkpt><trkpt lat="40.21951924106105" lon="15.671700870794034"><ele>580.0</ele><time>2026-05-02T09:44:23Z</time></trkpt><trkpt lat="40.21917875565441" lon="15.671687295452337"><ele>581.0</ele><time>2026-05-02T09:44:24Z</time></trkpt><trkpt lat="40.2188389196323" lon="15.671679260626034"><ele>585.0</ele><time>2026-05-02T09:44:25Z</time></trkpt><trkpt lat="40.218495913758254" lon="15.671676170406688"><ele>589.0</ele><time>2026-05-02T09:44:26Z</time></trkpt><trkpt lat="40.21815420889692" lon="15.671676020883881"><ele>592.5</ele><time>2026-05-02T09:44:27Z</time></trkpt><trkpt lat="40.217813787460464" lon="15.671690192062547"><ele>596.0</ele><time>2026-05-02T09:44:27.999Z</time></trkpt><trkpt lat="40.217475549001655" lon="15.671717773749828"><ele>601.5</ele><time>2026-05-02T09:44:28.999Z</time></trkpt><trkpt lat="40.21714179804129" lon="15.671756556260359"><ele>607.0</ele><time>2026-05-02T09:44:29.999Z</time></trkpt><trkpt lat="40.216808949437755" lon="15.671812288562732"><ele>606.0</ele><time>2026-05-02T09:44:30.999Z</time></trkpt><trkpt lat="40.21647697954534" lon="15.671880192528922"><ele>605.0</ele><time>2026-05-02T09:44:31.999Z</time></trkpt><trkpt lat="40.216146228482096" lon="15.671959223764649"><ele>600.5</ele><time>2026-05-02T09:44:32.999Z</time></trkpt><trkpt lat="40.2158148716285" lon="15.67204777118973"><ele>596.0</ele><time>2026-05-02T09:44:33.999Z</time></trkpt><trkpt lat="40.215485279365595" lon="15.672147020084076"><ele>593.0</ele><time>2026-05-02T09:44:34.999Z</time></trkpt><trkpt lat="40.2151579021937" lon="15.672259104916893"><ele>590.0</ele><time>2026-05-02T09:44:35.999Z</time></trkpt><trkpt lat="40.21483802062688" lon="15.672382440573138"><ele>586.0</ele><time>2026-05-02T09:44:36.999Z</time></trkpt><trkpt lat="40.21452156875264" lon="15.672523182412789"><ele>582.0</ele><time>2026-05-02T09:44:37.999Z</time></trkpt><trkpt lat="40.21421178133158" lon="15.672673810765307"><ele>598.0</ele><time>2026-05-02T09:44:38.999Z</time></trkpt><trkpt lat="40.21390461553328" lon="15.672834852547739"><ele>614.0</ele><time>2026-05-02T09:44:39.999Z</time></trkpt><trkpt lat="40.21359907454657" lon="15.673004051750922"><ele>614.0</ele><time>2026-05-02T09:44:40.999Z</time></trkpt><trkpt lat="40.2132941094967" lon="15.67318465413337"><ele>614.0</ele><time>2026-05-02T09:44:41.999Z</time></trkpt><trkpt lat="40.212991132949554" lon="15.673375037142872"><ele>648.0</ele><time>2026-05-02T09:44:42.999Z</time></trkpt><trkpt lat="40.212688009946696" lon="15.673579172409186"><ele>682.0</ele><time>2026-05-02T09:44:43.999Z</time></trkpt><trkpt lat="40.21238485292089" lon="15.673790579189177"><ele>707.5</ele><time>2026-05-02T09:44:44.999Z</time></trkpt><trkpt lat="40.21208168086523" lon="15.674002138339997"><ele>733.0</ele><time>2026-05-02T09:44:45.999Z</time></trkpt><trkpt lat="40.21178863596686" lon="15.674232282671069"><ele>732.0</ele><time>2026-05-02T09:44:46.999Z</time></trkpt><trkpt lat="40.21151094148091" lon="15.674487353714502"><ele>731.0</ele><time>2026-05-02T09:44:47.999Z</time></trkpt><trkpt lat="40.21121980531172" lon="15.674769513187435"><ele>731.0</ele><time>2026-05-02T09:44:49.066Z</time></trkpt><trkpt lat="40.210954123550444" lon="15.675039046912875"><ele>731.0</ele><time>2026-05-02T09:44:50.063Z</time></trkpt><trkpt lat="40.20945466601255" lon="15.676803882832777"><ele>693.0</ele><time>2026-05-02T09:44:53.159Z</time></trkpt><trkpt lat="40.20856657914656" lon="15.677793032571149"><ele>700.0</ele><time>2026-05-02T09:44:54.157Z</time></trkpt><trkpt lat="40.20767343759287" lon="15.67878627197164"><ele>703.0</ele><time>2026-05-02T09:44:55.159Z</time></trkpt><trkpt lat="40.20678276187555" lon="15.679777241237156"><ele>719.0</ele><time>2026-05-02T09:44:56.159Z</time></trkpt><trkpt lat="40.20589127939639" lon="15.680769158862208"><ele>738.0</ele><time>2026-05-02T09:44:57.16Z</time></trkpt><trkpt lat="40.20500332687941" lon="15.681758273161316"><ele>733.0</ele><time>2026-05-02T09:44:58.158Z</time></trkpt><trkpt lat="40.20411120046328" lon="15.68275019804224"><ele>685.0</ele><time>2026-05-02T09:44:59.159Z</time></trkpt><trkpt lat="40.20321996286191" lon="15.68374123397577"><ele>662.0</ele><time>2026-05-02T09:45:00.159Z</time></trkpt><trkpt lat="40.20233394278134" lon="15.684733899591215"><ele>659.0</ele><time>2026-05-02T09:45:01.157Z</time></trkpt><trkpt lat="40.20144321959645" lon="15.68572744923159"><ele>645.0</ele><time>2026-05-02T09:45:02.158Z</time></trkpt><trkpt lat="40.2006941298013" lon="15.686626518848396"><ele>647.0</ele><time>2026-05-02T09:45:29.999Z</time></trkpt><trkpt lat="40.200437231072044" lon="15.686910267584066"><ele>649.0</ele><time>2026-05-02T09:45:30.999Z</time></trkpt><trkpt lat="40.20018337253511" lon="15.687185832526453"><ele>649.0</ele><time>2026-05-02T09:45:31.999Z</time></trkpt><trkpt lat="40.19992407375887" lon="15.687466119106556"><ele>649.0</ele><time>2026-05-02T09:45:32.999Z</time></trkpt><trkpt lat="40.19967684978301" lon="15.687763812950283"><ele>651.0</ele><time>2026-05-02T09:45:33.999Z</time></trkpt><trkpt lat="40.19943671251756" lon="15.688072592901744"><ele>653.0</ele><time>2026-05-02T09:45:34.999Z</time></trkpt><trkpt lat="40.19920253892945" lon="15.688394762377607"><ele>656.0</ele><time>2026-05-02T09:45:35.999Z</time></trkpt><trkpt lat="40.198978147883466" lon="15.688731925827762"><ele>659.0</ele><time>2026-05-02T09:45:36.999Z</time></trkpt><trkpt lat="40.19876436640906" lon="15.68907811051454"><ele>656.5</ele><time>2026-05-02T09:45:37.999Z</time></trkpt><trkpt lat="40.19856149412501" lon="15.689433129664138"><ele>654.0</ele><time>2026-05-02T09:45:39Z</time></trkpt><trkpt lat="40.19836786728902" lon="15.689798954708829"><ele>654.0</ele><time>2026-05-02T09:45:40Z</time></trkpt><trkpt lat="40.198188108492616" lon="15.690168746333736"><ele>654.0</ele><time>2026-05-02T09:45:41Z</time></trkpt><trkpt lat="40.198018605294614" lon="15.690551684291615"><ele>651.0</ele><time>2026-05-02T09:45:42Z</time></trkpt><trkpt lat="40.197865856601425" lon="15.690941622299416"><ele>648.0</ele><time>2026-05-02T09:45:43Z</time></trkpt><trkpt lat="40.197722084294384" lon="15.691339594224564"><ele>644.5</ele><time>2026-05-02T09:45:44Z</time></trkpt><trkpt lat="40.19759065632169" lon="15.691744679992325"><ele>641.0</ele><time>2026-05-02T09:45:45Z</time></trkpt><trkpt lat="40.1974635165128" lon="15.692144674889429"><ele>640.5</ele><time>2026-05-02T09:45:46Z</time></trkpt><trkpt lat="40.1973471533244" lon="15.692552648979145"><ele>640.0</ele><time>2026-05-02T09:45:47Z</time></trkpt><trkpt lat="40.197228980521324" lon="15.692966914227313"><ele>639.5</ele><time>2026-05-02T09:45:48Z</time></trkpt><trkpt lat="40.19710672700266" lon="15.693382056421807"><ele>639.0</ele><time>2026-05-02T09:45:49Z</time></trkpt><trkpt lat="40.19697866024215" lon="15.69379729117264"><ele>639.0</ele><time>2026-05-02T09:45:50Z</time></trkpt><trkpt lat="40.19684559985177" lon="15.69420893496249"><ele>639.0</ele><time>2026-05-02T09:45:51Z</time></trkpt><trkpt lat="40.196709279167834" lon="15.694618808896692"><ele>637.0</ele><time>2026-05-02T09:45:52Z</time></trkpt><trkpt lat="40.19656709459963" lon="15.695027596852185"><ele>635.0</ele><time>2026-05-02T09:45:53Z</time></trkpt><trkpt lat="40.19642413524386" lon="15.695435768405535"><ele>635.0</ele><time>2026-05-02T09:45:54Z</time></trkpt><trkpt lat="40.196279458569066" lon="15.69584266454669"><ele>635.0</ele><time>2026-05-02T09:45:55Z</time></trkpt><trkpt lat="40.19613535628991" lon="15.696248915211541"><ele>635.0</ele><time>2026-05-02T09:45:56Z</time></trkpt><trkpt lat="40.195991766526056" lon="15.696655168728546"><ele>635.0</ele><time>2026-05-02T09:45:57Z</time></trkpt><trkpt lat="40.1958495731893" lon="15.697059362290686"><ele>633.5</ele><time>2026-05-02T09:45:58Z</time></trkpt><trkpt lat="40.19570886804623" lon="15.697462818536195"><ele>632.0</ele><time>2026-05-02T09:45:59Z</time></trkpt><trkpt lat="40.19556787885992" lon="15.697867027713023"><ele>632.0</ele><time>2026-05-02T09:46:00Z</time></trkpt><trkpt lat="40.19542664730326" lon="15.698268147783915"><ele>632.0</ele><time>2026-05-02T09:46:01Z</time></trkpt><trkpt lat="40.19528566830999" lon="15.698670270915136"><ele>626.5</ele><time>2026-05-02T09:46:02Z</time></trkpt><trkpt lat="40.19514357625582" lon="15.699073167624034"><ele>621.0</ele><time>2026-05-02T09:46:03Z</time></trkpt><trkpt lat="40.19499951932082" lon="15.699477463922156"><ele>619.0</ele><time>2026-05-02T09:46:04Z</time></trkpt><trkpt lat="40.19485330009521" lon="15.69987672434588"><ele>617.0</ele><time>2026-05-02T09:46:05Z</time></trkpt><trkpt lat="40.194702598844806" lon="15.700272003341498"><ele>610.0</ele><time>2026-05-02T09:46:06Z</time></trkpt><trkpt lat="40.19454731887657" lon="15.700660497427164"><ele>603.0</ele><time>2026-05-02T09:46:07Z</time></trkpt><trkpt lat="40.19438359414386" lon="15.701040232459254"><ele>607.5</ele><time>2026-05-02T09:46:08Z</time></trkpt><trkpt lat="40.19420937147733" lon="15.701409576678362"><ele>612.0</ele><time>2026-05-02T09:46:09Z</time></trkpt><trkpt lat="40.19402535361687" lon="15.701767897819257"><ele>621.5</ele><time>2026-05-02T09:46:10Z</time></trkpt><trkpt lat="40.19383115204063" lon="15.702115976945322"><ele>631.0</ele><time>2026-05-02T09:46:11Z</time></trkpt><trkpt lat="40.193626538849315" lon="15.702455437120891"><ele>633.5</ele><time>2026-05-02T09:46:12Z</time></trkpt><trkpt lat="40.19341390456806" lon="15.70278954872872"><ele>636.0</ele><time>2026-05-02T09:46:13Z</time></trkpt><trkpt lat="40.19319371263221" lon="15.703114136519357"><ele>639.0</ele><time>2026-05-02T09:46:14Z</time></trkpt><trkpt lat="40.19296333145322" lon="15.703430201830402"><ele>642.0</ele><time>2026-05-02T09:46:15Z</time></trkpt><trkpt lat="40.192721870991875" lon="15.70373462834332"><ele>643.5</ele><time>2026-05-02T09:46:16Z</time></trkpt><trkpt lat="40.192474314392605" lon="15.704030926772067"><ele>645.0</ele><time>2026-05-02T09:46:17Z</time></trkpt><trkpt lat="40.19221925874037" lon="15.704315901849588"><ele>650.0</ele><time>2026-05-02T09:46:18Z</time></trkpt><trkpt lat="40.191955032766415" lon="15.704590760084123"><ele>655.0</ele><time>2026-05-02T09:46:19Z</time></trkpt><trkpt lat="40.19168322937788" lon="15.70485381592884"><ele>660.5</ele><time>2026-05-02T09:46:20Z</time></trkpt><trkpt lat="40.19140490240757" lon="15.70510705625848"><ele>666.0</ele><time>2026-05-02T09:46:21Z</time></trkpt><trkpt lat="40.19111990718428" lon="15.705348456412159"><ele>670.0</ele><time>2026-05-02T09:46:22Z</time></trkpt><trkpt lat="40.1908265880568" lon="15.705577743161236"><ele>674.0</ele><time>2026-05-02T09:46:23Z</time></trkpt><trkpt lat="40.19052570392731" lon="15.70579160424976"><ele>681.0</ele><time>2026-05-02T09:46:24Z</time></trkpt><trkpt lat="40.19021905921424" lon="15.705993884108366"><ele>688.0</ele><time>2026-05-02T09:46:25Z</time></trkpt><trkpt lat="40.18990606220647" lon="15.706182786929048"><ele>693.5</ele><time>2026-05-02T09:46:26Z</time></trkpt><trkpt lat="40.18958851935099" lon="15.706364989724603"><ele>699.0</ele><time>2026-05-02T09:46:27Z</time></trkpt><trkpt lat="40.18924511898064" lon="15.706556807179835"><ele>685.5</ele><time>2026-05-02T09:46:28.069Z</time></trkpt><trkpt lat="40.18892135383713" lon="15.70673380520613"><ele>672.0</ele><time>2026-05-02T09:46:29.068Z</time></trkpt><trkpt lat="40.18859742905848" lon="15.706908404608154"><ele>648.0</ele><time>2026-05-02T09:46:30.064Z</time></trkpt><trkpt lat="40.18655013110865" lon="15.70838267821821"><ele>649.0</ele><time>2026-05-02T09:46:36.999Z</time></trkpt><trkpt lat="40.18626214651725" lon="15.708614263869986"><ele>650.0</ele><time>2026-05-02T09:46:37.999Z</time></trkpt><trkpt lat="40.1859701797688" lon="15.70880876033066"><ele>651.5</ele><time>2026-05-02T09:46:38.999Z</time></trkpt><trkpt lat="40.18567593064544" lon="15.709023840211396"><ele>653.0</ele><time>2026-05-02T09:46:39.999Z</time></trkpt><trkpt lat="40.18539282148776" lon="15.709247081289298"><ele>654.0</ele><time>2026-05-02T09:46:40.999Z</time></trkpt><trkpt lat="40.185104587034985" lon="15.709482813208574"><ele>655.0</ele><time>2026-05-02T09:46:41.999Z</time></trkpt><trkpt lat="40.18481808910437" lon="15.709719327920288"><ele>650.5</ele><time>2026-05-02T09:46:42.999Z</time></trkpt><trkpt lat="40.184529746549615" lon="15.709959827787687"><ele>646.0</ele><time>2026-05-02T09:46:43.999Z</time></trkpt><trkpt lat="40.18424192177032" lon="15.710196543528314"><ele>646.5</ele><time>2026-05-02T09:46:44.999Z</time></trkpt><trkpt lat="40.183957366795866" lon="15.710437158816202"><ele>647.0</ele><time>2026-05-02T09:46:45.999Z</time></trkpt><trkpt lat="40.18366841885972" lon="15.710669716973927"><ele>647.0</ele><time>2026-05-02T09:46:46.999Z</time></trkpt><trkpt lat="40.18339078055958" lon="15.710907574081364"><ele>647.0</ele><time>2026-05-02T09:46:47.999Z</time></trkpt><trkpt lat="40.18310485368465" lon="15.711149273726205"><ele>645.5</ele><time>2026-05-02T09:46:48.999Z</time></trkpt><trkpt lat="40.18282014190465" lon="15.711389922130314"><ele>644.0</ele><time>2026-05-02T09:46:49.999Z</time></trkpt><trkpt lat="40.18253494587799" lon="15.71163041272015"><ele>644.5</ele><time>2026-05-02T09:46:50.999Z</time></trkpt><trkpt lat="40.18224953744934" lon="15.711869143680696"><ele>645.0</ele><time>2026-05-02T09:46:51.999Z</time></trkpt><trkpt lat="40.18196506534006" lon="15.712106848439614"><ele>645.0</ele><time>2026-05-02T09:46:52.999Z</time></trkpt><trkpt lat="40.18168725232046" lon="15.712346080773393"><ele>645.0</ele><time>2026-05-02T09:46:53.999Z</time></trkpt><trkpt lat="40.1814169153756" lon="15.712583460936811"><ele>649.0</ele><time>2026-05-02T09:46:54.999Z</time></trkpt><trkpt lat="40.181138753418885" lon="15.712823388863182"><ele>653.0</ele><time>2026-05-02T09:46:55.999Z</time></trkpt><trkpt lat="40.180858086116075" lon="15.71306197005028"><ele>648.5</ele><time>2026-05-02T09:46:56.999Z</time></trkpt><trkpt lat="40.18057637428057" lon="15.713299277112371"><ele>644.0</ele><time>2026-05-02T09:46:57.999Z</time></trkpt><trkpt lat="40.18029376645633" lon="15.713537296196451"><ele>646.0</ele><time>2026-05-02T09:46:58.999Z</time></trkpt><trkpt lat="40.1800088078457" lon="15.713773276778634"><ele>648.0</ele><time>2026-05-02T09:46:59.999Z</time></trkpt><trkpt lat="40.17972464494711" lon="15.714012000160315"><ele>648.0</ele><time>2026-05-02T09:47:00.999Z</time></trkpt><trkpt lat="40.17944088227617" lon="15.714247816728653"><ele>648.0</ele><time>2026-05-02T09:47:01.999Z</time></trkpt><trkpt lat="40.17915757423491" lon="15.714484354082458"><ele>643.5</ele><time>2026-05-02T09:47:02.999Z</time></trkpt><trkpt lat="40.17887186724193" lon="15.714721445244805"><ele>639.0</ele><time>2026-05-02T09:47:03.999Z</time></trkpt><trkpt lat="40.17858437787474" lon="15.714957019036314"><ele>639.0</ele><time>2026-05-02T09:47:04.999Z</time></trkpt><trkpt lat="40.17829603640452" lon="15.715192183470927"><ele>639.0</ele><time>2026-05-02T09:47:05.999Z</time></trkpt><trkpt lat="40.17800697756531" lon="15.71542319028623"><ele>647.5</ele><time>2026-05-02T09:47:06.999Z</time></trkpt><trkpt lat="40.17771925938468" lon="15.715654972586364"><ele>656.0</ele><time>2026-05-02T09:47:07.999Z</time></trkpt><trkpt lat="40.17743060143831" lon="15.71588364002287"><ele>654.5</ele><time>2026-05-02T09:47:08.999Z</time></trkpt><trkpt lat="40.177142640669324" lon="15.716113799409186"><ele>653.0</ele><time>2026-05-02T09:47:09.999Z</time></trkpt><trkpt lat="40.17685748571219" lon="15.716346403567973"><ele>653.0</ele><time>2026-05-02T09:47:10.999Z</time></trkpt><trkpt lat="40.176571960637006" lon="15.716579242521918"><ele>653.0</ele><time>2026-05-02T09:47:11.999Z</time></trkpt><trkpt lat="40.17628624924976" lon="15.71681579041873"><ele>662.0</ele><time>2026-05-02T09:47:12.999Z</time></trkpt><trkpt lat="40.17600278067694" lon="15.71705275670333"><ele>671.0</ele><time>2026-05-02T09:47:13.999Z</time></trkpt><trkpt lat="40.17571809159763" lon="15.717288950491136"><ele>674.5</ele><time>2026-05-02T09:47:14.999Z</time></trkpt><trkpt lat="40.175433243551936" lon="15.717527674614894"><ele>678.0</ele><time>2026-05-02T09:47:15.999Z</time></trkpt><trkpt lat="40.17514902027052" lon="15.71776803237991"><ele>678.0</ele><time>2026-05-02T09:47:16.999Z</time></trkpt><trkpt lat="40.17486699776035" lon="15.718014039319574"><ele>678.0</ele><time>2026-05-02T09:47:17.999Z</time></trkpt><trkpt lat="40.17459208658233" lon="15.718269094641498"><ele>671.0</ele><time>2026-05-02T09:47:18.999Z</time></trkpt><trkpt lat="40.174325720447854" lon="15.718536056101856"><ele>664.0</ele><time>2026-05-02T09:47:19.999Z</time></trkpt><trkpt lat="40.17406728143825" lon="15.718815401339898"><ele>665.0</ele><time>2026-05-02T09:47:20.999Z</time></trkpt><trkpt lat="40.17381713592027" lon="15.719106131486363"><ele>666.0</ele><time>2026-05-02T09:47:21.999Z</time></trkpt><trkpt lat="40.1735769323378" lon="15.719410589608017"><ele>668.0</ele><time>2026-05-02T09:47:22.999Z</time></trkpt><trkpt lat="40.17334659264136" lon="15.71972814764343"><ele>670.0</ele><time>2026-05-02T09:47:23.999Z</time></trkpt><trkpt lat="40.1731244954843" lon="15.720054381901162"><ele>671.5</ele><time>2026-05-02T09:47:24.999Z</time></trkpt><trkpt lat="40.17290834902767" lon="15.72038841407829"><ele>673.0</ele><time>2026-05-02T09:47:25.999Z</time></trkpt><trkpt lat="40.172696739125975" lon="15.720726646267043"><ele>671.5</ele><time>2026-05-02T09:47:26.999Z</time></trkpt><trkpt lat="40.17248584089678" lon="15.721067418640278"><ele>670.0</ele><time>2026-05-02T09:47:27.999Z</time></trkpt><trkpt lat="40.17227320591862" lon="15.721408402651104"><ele>668.5</ele><time>2026-05-02T09:47:28.999Z</time></trkpt><trkpt lat="40.172060004340366" lon="15.721752418455328"><ele>667.0</ele><time>2026-05-02T09:47:29.999Z</time></trkpt><trkpt lat="40.171845712161605" lon="15.722095926128883"><ele>667.0</ele><time>2026-05-02T09:47:30.999Z</time></trkpt><trkpt lat="40.1716298952998" lon="15.722436962375912"><ele>667.0</ele><time>2026-05-02T09:47:31.999Z</time></trkpt><trkpt lat="40.171410425354786" lon="15.722780161416733"><ele>675.5</ele><time>2026-05-02T09:47:32.999Z</time></trkpt><trkpt lat="40.171191382058055" lon="15.723122130670216"><ele>684.0</ele><time>2026-05-02T09:47:33.999Z</time></trkpt><trkpt lat="40.17096807117153" lon="15.723459844352307"><ele>685.0</ele><time>2026-05-02T09:47:34.999Z</time></trkpt><trkpt lat="40.17073445695886" lon="15.723785588700236"><ele>686.0</ele><time>2026-05-02T09:47:35.999Z</time></trkpt><trkpt lat="40.17048724789301" lon="15.724084897684307"><ele>690.5</ele><time>2026-05-02T09:47:36.999Z</time></trkpt><trkpt lat="40.17022728235852" lon="15.724359586228521"><ele>695.0</ele><time>2026-05-02T09:47:37.999Z</time></trkpt><trkpt lat="40.16995587429615" lon="15.724613740013375"><ele>691.5</ele><time>2026-05-02T09:47:38.999Z</time></trkpt><trkpt lat="40.16967750688432" lon="15.724857313643207"><ele>688.0</ele><time>2026-05-02T09:47:39.999Z</time></trkpt><trkpt lat="40.169395668372566" lon="15.725098544800545"><ele>688.0</ele><time>2026-05-02T09:47:40.999Z</time></trkpt><trkpt lat="40.169113545443324" lon="15.725343253451886"><ele>688.0</ele><time>2026-05-02T09:47:41.999Z</time></trkpt><trkpt lat="40.16883304242722" lon="15.725590015120497"><ele>687.0</ele><time>2026-05-02T09:47:42.999Z</time></trkpt><trkpt lat="40.16855399095623" lon="15.725836230206156"><ele>686.0</ele><time>2026-05-02T09:47:44Z</time></trkpt><trkpt lat="40.168273834210815" lon="15.72608318304106"><ele>689.0</ele><time>2026-05-02T09:47:45Z</time></trkpt><trkpt lat="40.1679920658061" lon="15.726331649485774"><ele>692.0</ele><time>2026-05-02T09:47:46Z</time></trkpt><trkpt lat="40.167711534020455" lon="15.726581007128834"><ele>692.0</ele><time>2026-05-02T09:47:47Z</time></trkpt><trkpt lat="40.167430651828106" lon="15.726829096930201"><ele>692.0</ele><time>2026-05-02T09:47:48Z</time></trkpt><trkpt lat="40.16714978792163" lon="15.727075278793194"><ele>689.5</ele><time>2026-05-02T09:47:49Z</time></trkpt><trkpt lat="40.16687052893234" lon="15.727322556226856"><ele>687.0</ele><time>2026-05-02T09:47:50Z</time></trkpt><trkpt lat="40.16659712865458" lon="15.727573862806038"><ele>690.5</ele><time>2026-05-02T09:47:51Z</time></trkpt><trkpt lat="40.16633506876271" lon="15.727844463419103"><ele>694.0</ele><time>2026-05-02T09:47:52Z</time></trkpt><trkpt lat="40.16608515131643" lon="15.728132652543746"><ele>694.0</ele><time>2026-05-02T09:47:53Z</time></trkpt><trkpt lat="40.16584692336329" lon="15.728434126014355"><ele>694.0</ele><time>2026-05-02T09:47:54Z</time></trkpt><trkpt lat="40.165608631878854" lon="15.728740114173748"><ele>696.0</ele><time>2026-05-02T09:47:55Z</time></trkpt><trkpt lat="40.165366894448425" lon="15.729054395959613"><ele>698.0</ele><time>2026-05-02T09:47:56Z</time></trkpt><trkpt lat="40.16512705057399" lon="15.729364230188555"><ele>704.5</ele><time>2026-05-02T09:47:57Z</time></trkpt><trkpt lat="40.16488596045543" lon="15.729674310734534"><ele>711.0</ele><time>2026-05-02T09:47:58Z</time></trkpt><trkpt lat="40.16464524407609" lon="15.72998606524807"><ele>738.0</ele><time>2026-05-02T09:47:59Z</time></trkpt><trkpt lat="40.16440252829014" lon="15.730299289844302"><ele>765.0</ele><time>2026-05-02T09:48:00Z</time></trkpt><trkpt lat="40.164161373836386" lon="15.730612317407797"><ele>784.0</ele><time>2026-05-02T09:48:01Z</time></trkpt><trkpt lat="40.16392095333864" lon="15.73092414959016"><ele>803.0</ele><time>2026-05-02T09:48:02Z</time></trkpt><trkpt lat="40.163682175677515" lon="15.731234002237242"><ele>814.0</ele><time>2026-05-02T09:48:03Z</time></trkpt><trkpt lat="40.1634450832583" lon="15.731542818440216"><ele>825.0</ele><time>2026-05-02T09:48:04Z</time></trkpt><trkpt lat="40.163209905506086" lon="15.731851185628102"><ele>837.5</ele><time>2026-05-02T09:48:05Z</time></trkpt><trkpt lat="40.16296099553957" lon="15.732180957917924"><ele>850.0</ele><time>2026-05-02T09:48:06.066Z</time></trkpt><trkpt lat="40.162729435921584" lon="15.73248978053972"><ele>726.0</ele><time>2026-05-02T09:48:07.063Z</time></trkpt><trkpt lat="40.16141469075246" lon="15.734167765185388"><ele>707.0</ele><time>2026-05-02T09:48:11.156Z</time></trkpt><trkpt lat="40.160757048636576" lon="15.734964726596234"><ele>694.0</ele><time>2026-05-02T09:48:15Z</time></trkpt><trkpt lat="40.16052029503268" lon="15.735265796673096"><ele>681.0</ele><time>2026-05-02T09:48:16Z</time></trkpt><trkpt lat="40.16027750877437" lon="15.735586784421852"><ele>681.0</ele><time>2026-05-02T09:48:17Z</time></trkpt><trkpt lat="40.16003958898152" lon="15.735894839423453"><ele>681.0</ele><time>2026-05-02T09:48:18Z</time></trkpt><trkpt lat="40.159803388727084" lon="15.736201637751112"><ele>681.0</ele><time>2026-05-02T09:48:19Z</time></trkpt><trkpt lat="40.159566381986345" lon="15.73650734117609"><ele>681.0</ele><time>2026-05-02T09:48:20Z</time></trkpt><trkpt lat="40.15932621035871" lon="15.736809591820876"><ele>682.5</ele><time>2026-05-02T09:48:21Z</time></trkpt><trkpt lat="40.15908626249022" lon="15.737114626318423"><ele>684.0</ele><time>2026-05-02T09:48:22Z</time></trkpt><trkpt lat="40.15884768593117" lon="15.737419655411001"><ele>693.0</ele><time>2026-05-02T09:48:23Z</time></trkpt><trkpt lat="40.15861206809315" lon="15.737728549349987"><ele>702.0</ele><time>2026-05-02T09:48:24Z</time></trkpt><trkpt lat="40.15838180005554" lon="15.738043442143448"><ele>701.5</ele><time>2026-05-02T09:48:25Z</time></trkpt><trkpt lat="40.15815611264729" lon="15.738368175593868"><ele>701.0</ele><time>2026-05-02T09:48:26Z</time></trkpt><trkpt lat="40.15793794407309" lon="15.738703450007355"><ele>706.0</ele><time>2026-05-02T09:48:27Z</time></trkpt><trkpt lat="40.15772664888936" lon="15.739049912753146"><ele>711.0</ele><time>2026-05-02T09:48:28Z</time></trkpt><trkpt lat="40.15751880090576" lon="15.739398188393782"><ele>708.0</ele><time>2026-05-02T09:48:29Z</time></trkpt><trkpt lat="40.15732342079574" lon="15.739758262909728"><ele>705.0</ele><time>2026-05-02T09:48:30Z</time></trkpt><trkpt lat="40.1571266837026" lon="15.740123233325196"><ele>709.0</ele><time>2026-05-02T09:48:31Z</time></trkpt><trkpt lat="40.156934656947485" lon="15.7404868904775"><ele>713.0</ele><time>2026-05-02T09:48:32Z</time></trkpt><trkpt lat="40.15674472888065" lon="15.740850946437574"><ele>712.5</ele><time>2026-05-02T09:48:33Z</time></trkpt><trkpt lat="40.1565529187689" lon="15.74121735635385"><ele>712.0</ele><time>2026-05-02T09:48:33.999Z</time></trkpt><trkpt lat="40.156361737835105" lon="15.741581669067788"><ele>715.5</ele><time>2026-05-02T09:48:34.999Z</time></trkpt><trkpt lat="40.156181881050266" lon="15.7419254329356"><ele>719.0</ele><time>2026-05-02T09:48:35.999Z</time></trkpt><trkpt lat="40.15600237631332" lon="15.742265225801132"><ele>719.0</ele><time>2026-05-02T09:48:36.999Z</time></trkpt><trkpt lat="40.155822070986005" lon="15.742604931107442"><ele>719.0</ele><time>2026-05-02T09:48:37.999Z</time></trkpt><trkpt lat="40.1556448475707" lon="15.742945947525119"><ele>721.5</ele><time>2026-05-02T09:48:38.999Z</time></trkpt><trkpt lat="40.15546793810053" lon="15.74329105132898"><ele>724.0</ele><time>2026-05-02T09:48:39.999Z</time></trkpt><trkpt lat="40.15529041351506" lon="15.743634143128554"><ele>728.0</ele><time>2026-05-02T09:48:40.999Z</time></trkpt><trkpt lat="40.155112289823684" lon="15.743974945597659"><ele>732.0</ele><time>2026-05-02T09:48:41.999Z</time></trkpt><trkpt lat="40.154930879696636" lon="15.744319859870163"><ele>733.0</ele><time>2026-05-02T09:48:42.999Z</time></trkpt><trkpt lat="40.15474881422408" lon="15.744667015777333"><ele>734.0</ele><time>2026-05-02T09:48:43.999Z</time></trkpt><trkpt lat="40.15456810433412" lon="15.745012008156854"><ele>738.0</ele><time>2026-05-02T09:48:44.999Z</time></trkpt><trkpt lat="40.15438824014536" lon="15.745358556661028"><ele>742.0</ele><time>2026-05-02T09:48:45.999Z</time></trkpt><trkpt lat="40.15420677982955" lon="15.745704810087055"><ele>743.5</ele><time>2026-05-02T09:48:46.999Z</time></trkpt><trkpt lat="40.15402577577779" lon="15.746050572181572"><ele>745.0</ele><time>2026-05-02T09:48:47.999Z</time></trkpt><trkpt lat="40.153845420589526" lon="15.746394320049973"><ele>745.0</ele><time>2026-05-02T09:48:48.999Z</time></trkpt><trkpt lat="40.15366258281191" lon="15.74673927392384"><ele>745.0</ele><time>2026-05-02T09:48:49.999Z</time></trkpt><trkpt lat="40.15347547645359" lon="15.747081414977924"><ele>751.0</ele><time>2026-05-02T09:48:50.999Z</time></trkpt><trkpt lat="40.15328240279624" lon="15.747418507018097"><ele>757.0</ele><time>2026-05-02T09:48:51.999Z</time></trkpt><trkpt lat="40.15307605164668" lon="15.747742152309995"><ele>759.0</ele><time>2026-05-02T09:48:52.999Z</time></trkpt><trkpt lat="40.15285361804675" lon="15.74804730191607"><ele>761.0</ele><time>2026-05-02T09:48:53.999Z</time></trkpt><trkpt lat="40.15261748132926" lon="15.74833408281893"><ele>762.5</ele><time>2026-05-02T09:48:54.999Z</time></trkpt><trkpt lat="40.15237657806829" lon="15.748608488994794"><ele>764.0</ele><time>2026-05-02T09:48:55.999Z</time></trkpt><trkpt lat="40.1521231087887" lon="15.748868193947594"><ele>766.0</ele><time>2026-05-02T09:48:56.999Z</time></trkpt><trkpt lat="40.15185477380021" lon="15.749109408773984"><ele>768.0</ele><time>2026-05-02T09:48:57.999Z</time></trkpt><trkpt lat="40.15157311758283" lon="15.74932136511035"><ele>773.0</ele><time>2026-05-02T09:48:58.999Z</time></trkpt><trkpt lat="40.15128347169288" lon="15.749523200529278"><ele>778.0</ele><time>2026-05-02T09:48:59.999Z</time></trkpt><trkpt lat="40.15099231390667" lon="15.74971972084831"><ele>780.0</ele><time>2026-05-02T09:49:00.999Z</time></trkpt><trkpt lat="40.15069605086539" lon="15.74990744792416"><ele>782.0</ele><time>2026-05-02T09:49:01.999Z</time></trkpt><trkpt lat="40.150399021771435" lon="15.750090320352783"><ele>784.5</ele><time>2026-05-02T09:49:02.999Z</time></trkpt><trkpt lat="40.150096958398734" lon="15.750268844310781"><ele>787.0</ele><time>2026-05-02T09:49:03.999Z</time></trkpt><trkpt lat="40.149792874604486" lon="15.750443984548284"><ele>787.0</ele><time>2026-05-02T09:49:04.999Z</time></trkpt><trkpt lat="40.14948541235893" lon="15.750621430619233"><ele>787.0</ele><time>2026-05-02T09:49:05.999Z</time></trkpt><trkpt lat="40.14918091712293" lon="15.750802319233676"><ele>785.0</ele><time>2026-05-02T09:49:06.999Z</time></trkpt><trkpt lat="40.14887696116526" lon="15.750995301420668"><ele>783.0</ele><time>2026-05-02T09:49:07.999Z</time></trkpt><trkpt lat="40.148577945282995" lon="15.75119595850674"><ele>788.0</ele><time>2026-05-02T09:49:08.999Z</time></trkpt><trkpt lat="40.14827839558989" lon="15.751403370380201"><ele>793.0</ele><time>2026-05-02T09:49:09.999Z</time></trkpt><trkpt lat="40.147981184854416" lon="15.751612461647115"><ele>798.0</ele><time>2026-05-02T09:49:10.999Z</time></trkpt><trkpt lat="40.14768251367576" lon="15.751825067689346"><ele>803.0</ele><time>2026-05-02T09:49:11.999Z</time></trkpt><trkpt lat="40.147382862952256" lon="15.752038991908341"><ele>816.0</ele><time>2026-05-02T09:49:12.999Z</time></trkpt><trkpt lat="40.147078777489526" lon="15.752258059390947"><ele>829.0</ele><time>2026-05-02T09:49:13.999Z</time></trkpt><trkpt lat="40.14677359498837" lon="15.752477633552191"><ele>838.0</ele><time>2026-05-02T09:49:14.999Z</time></trkpt><trkpt lat="40.146467557475475" lon="15.752695939857016"><ele>847.0</ele><time>2026-05-02T09:49:15.999Z</time></trkpt><trkpt lat="40.14616098599601" lon="15.752914937828654"><ele>859.5</ele><time>2026-05-02T09:49:16.999Z</time></trkpt><trkpt lat="40.14585372880115" lon="15.753134410348911"><ele>872.0</ele><time>2026-05-02T09:49:17.999Z</time></trkpt><trkpt lat="40.14552572382028" lon="15.753368078064177"><ele>874.5</ele><time>2026-05-02T09:49:19.061Z</time></trkpt><trkpt lat="40.145214339389014" lon="15.7535888629889"><ele>877.0</ele><time>2026-05-02T09:49:20.067Z</time></trkpt><trkpt lat="40.144902928130534" lon="15.75380688297611"><ele>865.5</ele><time>2026-05-02T09:49:21.07Z</time></trkpt><trkpt lat="40.144593636563044" lon="15.754023346263589"><ele>854.0</ele><time>2026-05-02T09:49:22.064Z</time></trkpt><trkpt lat="40.144283897707574" lon="15.754241156977944"><ele>844.0</ele><time>2026-05-02T09:49:23.06Z</time></trkpt><trkpt lat="40.14397206106605" lon="15.754459030993196"><ele>834.0</ele><time>2026-05-02T09:49:24.061Z</time></trkpt><trkpt lat="40.14366657046276" lon="15.754669784449082"><ele>834.0</ele><time>2026-05-02T09:49:25.035Z</time></trkpt><trkpt lat="40.14335371987463" lon="15.75488319616447"><ele>834.0</ele><time>2026-05-02T09:49:26.03Z</time></trkpt><trkpt lat="40.13899968504431" lon="15.758038596030612"><ele>810.0</ele><time>2026-05-02T09:49:40.999Z</time></trkpt><trkpt lat="40.138702480097145" lon="15.758248538108901"><ele>786.0</ele><time>2026-05-02T09:49:41.999Z</time></trkpt><trkpt lat="40.13841223049111" lon="15.758462558046638"><ele>786.0</ele><time>2026-05-02T09:49:42.999Z</time></trkpt><trkpt lat="40.13811690449643" lon="15.758664788654364"><ele>786.0</ele><time>2026-05-02T09:49:43.999Z</time></trkpt><trkpt lat="40.137820639965184" lon="15.758868092302093"><ele>786.0</ele><time>2026-05-02T09:49:44.999Z</time></trkpt><trkpt lat="40.13752420542216" lon="15.759068464934206"><ele>786.0</ele><time>2026-05-02T09:49:45.999Z</time></trkpt><trkpt lat="40.1372304802994" lon="15.759262002960929"><ele>789.0</ele><time>2026-05-02T09:49:46.999Z</time></trkpt><trkpt lat="40.13694302413428" lon="15.759448699017211"><ele>792.0</ele><time>2026-05-02T09:49:47.999Z</time></trkpt><trkpt lat="40.136654778955034" lon="15.759632965442172"><ele>791.5</ele><time>2026-05-02T09:49:48.999Z</time></trkpt><trkpt lat="40.136358067232756" lon="15.759801827318858"><ele>791.0</ele><time>2026-05-02T09:49:50Z</time></trkpt><trkpt lat="40.13605266930569" lon="15.759962263612147"><ele>791.0</ele><time>2026-05-02T09:49:51Z</time></trkpt><trkpt lat="40.13574491206191" lon="15.760114191927212"><ele>791.0</ele><time>2026-05-02T09:49:52Z</time></trkpt><trkpt lat="40.1354319941269" lon="15.76025855959884"><ele>791.5</ele><time>2026-05-02T09:49:53Z</time></trkpt><trkpt lat="40.13511485983684" lon="15.760402973875792"><ele>792.0</ele><time>2026-05-02T09:49:54Z</time></trkpt><trkpt lat="40.134795540332426" lon="15.760548092265598"><ele>792.0</ele><time>2026-05-02T09:49:55Z</time></trkpt><trkpt lat="40.134476478255806" lon="15.760691576582436"><ele>792.0</ele><time>2026-05-02T09:49:56Z</time></trkpt><trkpt lat="40.134157232352976" lon="15.760833226511368"><ele>791.0</ele><time>2026-05-02T09:49:57Z</time></trkpt><trkpt lat="40.13383744999364" lon="15.76097429237796"><ele>790.0</ele><time>2026-05-02T09:49:58Z</time></trkpt><trkpt lat="40.13352250217116" lon="15.76111204177173"><ele>787.5</ele><time>2026-05-02T09:49:59Z</time></trkpt><trkpt lat="40.133211595154805" lon="15.761253042660718"><ele>785.0</ele><time>2026-05-02T09:50:00Z</time></trkpt><trkpt lat="40.132897663536994" lon="15.761400511229933"><ele>785.0</ele><time>2026-05-02T09:50:01Z</time></trkpt><trkpt lat="40.13258814451869" lon="15.761557591910899"><ele>785.0</ele><time>2026-05-02T09:50:02Z</time></trkpt><trkpt lat="40.13229136395896" lon="15.761741971806671"><ele>782.0</ele><time>2026-05-02T09:50:03Z</time></trkpt><trkpt lat="40.13200928531091" lon="15.761960415057878"><ele>779.0</ele><time>2026-05-02T09:50:04Z</time></trkpt><trkpt lat="40.13173910427819" lon="15.762208013747962"><ele>773.5</ele><time>2026-05-02T09:50:05Z</time></trkpt><trkpt lat="40.13148993992613" lon="15.762490416714682"><ele>768.0</ele><time>2026-05-02T09:50:06Z</time></trkpt><trkpt lat="40.1312575389102" lon="15.762799270559594"><ele>768.0</ele><time>2026-05-02T09:50:07Z</time></trkpt><trkpt lat="40.13104420308074" lon="15.763134898667273"><ele>768.0</ele><time>2026-05-02T09:50:08Z</time></trkpt><trkpt lat="40.13085944197307" lon="15.763500077515308"><ele>759.0</ele><time>2026-05-02T09:50:09Z</time></trkpt><trkpt lat="40.13070304898418" lon="15.763883694879947"><ele>750.0</ele><time>2026-05-02T09:50:10Z</time></trkpt><trkpt lat="40.13057405434577" lon="15.76428629846363"><ele>755.5</ele><time>2026-05-02T09:50:11Z</time></trkpt><trkpt lat="40.130465714620506" lon="15.764702195018284"><ele>761.0</ele><time>2026-05-02T09:50:12Z</time></trkpt><trkpt lat="40.130366709795425" lon="15.76512158139478"><ele>767.5</ele><time>2026-05-02T09:50:13Z</time></trkpt><trkpt lat="40.130269285783534" lon="15.765544332501605"><ele>774.0</ele><time>2026-05-02T09:50:14Z</time></trkpt><trkpt lat="40.1301705804106" lon="15.765969523303898"><ele>780.5</ele><time>2026-05-02T09:50:15Z</time></trkpt><trkpt lat="40.13007592569788" lon="15.766393107884692"><ele>787.0</ele><time>2026-05-02T09:50:16Z</time></trkpt><trkpt lat="40.12998521101447" lon="15.766819489141369"><ele>790.0</ele><time>2026-05-02T09:50:17Z</time></trkpt><trkpt lat="40.12989701975754" lon="15.767248065394782"><ele>793.0</ele><time>2026-05-02T09:50:18Z</time></trkpt><trkpt lat="40.1298085646207" lon="15.76767422629698"><ele>785.0</ele><time>2026-05-02T09:50:19Z</time></trkpt><trkpt lat="40.129718571377744" lon="15.768098405862895"><ele>777.0</ele><time>2026-05-02T09:50:20Z</time></trkpt><trkpt lat="40.12962573431435" lon="15.768520135701351"><ele>783.0</ele><time>2026-05-02T09:50:21Z</time></trkpt><trkpt lat="40.12953191645419" lon="15.768938046726927"><ele>789.0</ele><time>2026-05-02T09:50:22Z</time></trkpt><trkpt lat="40.12943882413627" lon="15.769360482739879"><ele>796.5</ele><time>2026-05-02T09:50:22.999Z</time></trkpt><trkpt lat="40.12935047977765" lon="15.769787126410481"><ele>804.0</ele><time>2026-05-02T09:50:23.999Z</time></trkpt><trkpt lat="40.129268584424" lon="15.770215272919714"><ele>808.0</ele><time>2026-05-02T09:50:24.999Z</time></trkpt><trkpt lat="40.12919180517203" lon="15.770645302554744"><ele>812.0</ele><time>2026-05-02T09:50:25.999Z</time></trkpt><trkpt lat="40.129119600976956" lon="15.771075247698482"><ele>812.5</ele><time>2026-05-02T09:50:26.999Z</time></trkpt><trkpt lat="40.129051706794236" lon="15.771504662902467"><ele>813.0</ele><time>2026-05-02T09:50:27.999Z</time></trkpt><trkpt lat="40.128981499650024" lon="15.771935384352028"><ele>808.0</ele><time>2026-05-02T09:50:28.999Z</time></trkpt><trkpt lat="40.128901978422306" lon="15.77236029825061"><ele>803.0</ele><time>2026-05-02T09:50:29.999Z</time></trkpt><trkpt lat="40.12880307012802" lon="15.772775975545207"><ele>800.5</ele><time>2026-05-02T09:50:30.999Z</time></trkpt><trkpt lat="40.1286760799387" lon="15.773180671638174"><ele>798.0</ele><time>2026-05-02T09:50:31.999Z</time></trkpt><trkpt lat="40.12851596179012" lon="15.77356892787053"><ele>798.0</ele><time>2026-05-02T09:50:32.999Z</time></trkpt><trkpt lat="40.128329548894314" lon="15.773939991525339"><ele>798.0</ele><time>2026-05-02T09:50:33.999Z</time></trkpt><trkpt lat="40.12811765726096" lon="15.774290666493016"><ele>783.0</ele><time>2026-05-02T09:50:34.999Z</time></trkpt><trkpt lat="40.12790098366486" lon="15.774638756495683"><ele>768.0</ele><time>2026-05-02T09:50:35.999Z</time></trkpt><trkpt lat="40.1276829640698" lon="15.774985025744035"><ele>763.0</ele><time>2026-05-02T09:50:36.999Z</time></trkpt><trkpt lat="40.12746571949046" lon="15.775335608888414"><ele>758.0</ele><time>2026-05-02T09:50:37.999Z</time></trkpt><trkpt lat="40.12725031388982" lon="15.775682659107769"><ele>788.0</ele><time>2026-05-02T09:50:38.999Z</time></trkpt><trkpt lat="40.12703495818594" lon="15.776028723322279"><ele>818.0</ele><time>2026-05-02T09:50:39.999Z</time></trkpt><trkpt lat="40.12681876432143" lon="15.776378247431133"><ele>818.0</ele><time>2026-05-02T09:50:40.999Z</time></trkpt><trkpt lat="40.12660314509358" lon="15.77673293473859"><ele>818.0</ele><time>2026-05-02T09:50:41.999Z</time></trkpt><trkpt lat="40.12638154151154" lon="15.77708976217449"><ele>817.0</ele><time>2026-05-02T09:50:42.999Z</time></trkpt><trkpt lat="40.12615751391252" lon="15.777447748145846"><ele>816.0</ele><time>2026-05-02T09:50:43.999Z</time></trkpt><trkpt lat="40.1259327888236" lon="15.777808255975552"><ele>797.0</ele><time>2026-05-02T09:50:44.999Z</time></trkpt><trkpt lat="40.1257070975136" lon="15.77817225022291"><ele>778.0</ele><time>2026-05-02T09:50:45.999Z</time></trkpt><trkpt lat="40.12548211067833" lon="15.778538606419822"><ele>778.0</ele><time>2026-05-02T09:50:46.999Z</time></trkpt><trkpt lat="40.125264149080905" lon="15.778871306983826"><ele>778.0</ele><time>2026-05-02T09:50:47.999Z</time></trkpt><trkpt lat="40.125032789498725" lon="15.779201797928943"><ele>774.0</ele><time>2026-05-02T09:50:48.999Z</time></trkpt><trkpt lat="40.124813430572715" lon="15.779537070908148"><ele>770.0</ele><time>2026-05-02T09:50:49.999Z</time></trkpt><trkpt lat="40.12458212429053" lon="15.779875610544824"><ele>778.5</ele><time>2026-05-02T09:50:50.999Z</time></trkpt><trkpt lat="40.12434947613307" lon="15.780218813131492"><ele>787.0</ele><time>2026-05-02T09:50:51.999Z</time></trkpt><trkpt lat="40.12411874777142" lon="15.780565959516172"><ele>790.0</ele><time>2026-05-02T09:50:52.999Z</time></trkpt><trkpt lat="40.123889759297136" lon="15.780915318772113"><ele>793.0</ele><time>2026-05-02T09:50:53.999Z</time></trkpt><trkpt lat="40.12366355174517" lon="15.781260814614862"><ele>793.0</ele><time>2026-05-02T09:50:54.999Z</time></trkpt><trkpt lat="40.12344087229496" lon="15.781593808383965"><ele>793.0</ele><time>2026-05-02T09:50:55.999Z</time></trkpt><trkpt lat="40.12321490979107" lon="15.781916979876627"><ele>797.0</ele><time>2026-05-02T09:50:56.999Z</time></trkpt><trkpt lat="40.12297618750625" lon="15.782229313342478"><ele>801.0</ele><time>2026-05-02T09:50:57.999Z</time></trkpt><trkpt lat="40.12272412240286" lon="15.78252212478425"><ele>800.5</ele><time>2026-05-02T09:50:58.999Z</time></trkpt><trkpt lat="40.122457955956364" lon="15.782793707832424"><ele>800.0</ele><time>2026-05-02T09:50:59.999Z</time></trkpt><trkpt lat="40.122179620317056" lon="15.783047342645073"><ele>800.0</ele><time>2026-05-02T09:51:00.999Z</time></trkpt><trkpt lat="40.1218905683422" lon="15.783275459443859"><ele>800.0</ele><time>2026-05-02T09:51:01.999Z</time></trkpt><trkpt lat="40.12158875690631" lon="15.78347970063484"><ele>806.0</ele><time>2026-05-02T09:51:02.999Z</time></trkpt><trkpt lat="40.12127592003927" lon="15.783655842360744"><ele>812.0</ele><time>2026-05-02T09:51:03.999Z</time></trkpt><trkpt lat="40.12095524028259" lon="15.783815098431702"><ele>812.0</ele><time>2026-05-02T09:51:04.999Z</time></trkpt><trkpt lat="40.12062680501653" lon="15.783947109289057"><ele>812.0</ele><time>2026-05-02T09:51:05.999Z</time></trkpt><trkpt lat="40.120292024288" lon="15.784053810074793"><ele>812.0</ele><time>2026-05-02T09:51:06.999Z</time></trkpt><trkpt lat="40.11995067911755" lon="15.784135249397178"><ele>812.0</ele><time>2026-05-02T09:51:07.999Z</time></trkpt><trkpt lat="40.119608352298755" lon="15.784201532843303"><ele>812.0</ele><time>2026-05-02T09:51:08.999Z</time></trkpt><trkpt lat="40.11926930297212" lon="15.784263311428564"><ele>812.0</ele><time>2026-05-02T09:51:09.999Z</time></trkpt><trkpt lat="40.11893922086185" lon="15.784323254640563"><ele>820.5</ele><time>2026-05-02T09:51:10.999Z</time></trkpt><trkpt lat="40.118611039506334" lon="15.784385148664008"><ele>829.0</ele><time>2026-05-02T09:51:11.999Z</time></trkpt><trkpt lat="40.118281113716" lon="15.784444250808916"><ele>827.0</ele><time>2026-05-02T09:51:12.999Z</time></trkpt><trkpt lat="40.11794986497912" lon="15.784506139471185"><ele>825.0</ele><time>2026-05-02T09:51:13.999Z</time></trkpt><trkpt lat="40.117620231984915" lon="15.784570229524807"><ele>828.5</ele><time>2026-05-02T09:51:14.999Z</time></trkpt><trkpt lat="40.11729101998556" lon="15.784639175731048"><ele>832.0</ele><time>2026-05-02T09:51:15.999Z</time></trkpt><trkpt lat="40.11696178164841" lon="15.784717261348689"><ele>832.0</ele><time>2026-05-02T09:51:16.999Z</time></trkpt><trkpt lat="40.11663329628765" lon="15.784807444304182"><ele>832.0</ele><time>2026-05-02T09:51:17.999Z</time></trkpt><trkpt lat="40.116304348916685" lon="15.784909666231792"><ele>831.0</ele><time>2026-05-02T09:51:18.999Z</time></trkpt><trkpt lat="40.11597809518298" lon="15.785026818765092"><ele>830.0</ele><time>2026-05-02T09:51:19.999Z</time></trkpt><trkpt lat="40.11565451412187" lon="15.785168259914274"><ele>829.5</ele><time>2026-05-02T09:51:20.999Z</time></trkpt><trkpt lat="40.115337747258884" lon="15.785328348828426"><ele>829.0</ele><time>2026-05-02T09:51:21.999Z</time></trkpt><trkpt lat="40.115025063829336" lon="15.785511867822645"><ele>830.0</ele><time>2026-05-02T09:51:22.999Z</time></trkpt><trkpt lat="40.1147179897275" lon="15.785711757798746"><ele>831.0</ele><time>2026-05-02T09:51:23.999Z</time></trkpt><trkpt lat="40.11442284919633" lon="15.785927867270415"><ele>838.5</ele><time>2026-05-02T09:51:24.999Z</time></trkpt><trkpt lat="40.11413524104832" lon="15.786162163742697"><ele>846.0</ele><time>2026-05-02T09:51:25.999Z</time></trkpt><trkpt lat="40.11385482675797" lon="15.786413850467444"><ele>846.0</ele><time>2026-05-02T09:51:26.999Z</time></trkpt><trkpt lat="40.11358429223295" lon="15.78668575429595"><ele>846.0</ele><time>2026-05-02T09:51:27.999Z</time></trkpt><trkpt lat="40.11331930324145" lon="15.786975471098215"><ele>850.5</ele><time>2026-05-02T09:51:28.999Z</time></trkpt><trkpt lat="40.1130648711769" lon="15.787278385283983"><ele>855.0</ele><time>2026-05-02T09:51:29.999Z</time></trkpt><trkpt lat="40.11282455517532" lon="15.787599945557998"><ele>855.5</ele><time>2026-05-02T09:51:30.999Z</time></trkpt><trkpt lat="40.11259639434339" lon="15.787935902795653"><ele>856.0</ele><time>2026-05-02T09:51:31.999Z</time></trkpt><trkpt lat="40.11237884082323" lon="15.788285787963183"><ele>856.5</ele><time>2026-05-02T09:51:32.998Z</time></trkpt><trkpt lat="40.112152845557176" lon="15.78866396402025"><ele>857.0</ele><time>2026-05-02T09:51:34.065Z</time></trkpt><trkpt lat="40.11194463610838" lon="15.789023551702341"><ele>854.5</ele><time>2026-05-02T09:51:35.063Z</time></trkpt><trkpt lat="40.111738331576895" lon="15.789389248635564"><ele>852.0</ele><time>2026-05-02T09:51:36.066Z</time></trkpt><trkpt lat="40.11153672578933" lon="15.789756011314454"><ele>852.0</ele><time>2026-05-02T09:51:37.064Z</time></trkpt><trkpt lat="40.11133585967412" lon="15.790127383851253"><ele>852.0</ele><time>2026-05-02T09:51:38.066Z</time></trkpt><trkpt lat="40.11113553269063" lon="15.790495534501936"><ele>863.0</ele><time>2026-05-02T09:51:39.061Z</time></trkpt><trkpt lat="40.11027274087105" lon="15.791858658681305"><ele>863.0</ele><time>2026-05-02T09:51:42.998Z</time></trkpt><trkpt lat="40.11002728542821" lon="15.792219710515042"><ele>863.0</ele><time>2026-05-02T09:51:43.998Z</time></trkpt><trkpt lat="40.10976593258971" lon="15.792512176295071"><ele>862.0</ele><time>2026-05-02T09:51:44.998Z</time></trkpt><trkpt lat="40.109506739793446" lon="15.792799286937662"><ele>861.0</ele><time>2026-05-02T09:51:45.998Z</time></trkpt><trkpt lat="40.10923255032354" lon="15.793075225472082"><ele>859.5</ele><time>2026-05-02T09:51:46.998Z</time></trkpt><trkpt lat="40.10895195019057" lon="15.793332957415927"><ele>858.0</ele><time>2026-05-02T09:51:47.998Z</time></trkpt><trkpt lat="40.10866130240197" lon="15.793568369136581"><ele>858.0</ele><time>2026-05-02T09:51:48.998Z</time></trkpt><trkpt lat="40.108364703015155" lon="15.79378853413633"><ele>858.0</ele><time>2026-05-02T09:51:49.998Z</time></trkpt><trkpt lat="40.10806135154711" lon="15.793990280921944"><ele>855.0</ele><time>2026-05-02T09:51:50.998Z</time></trkpt><trkpt lat="40.10775195467507" lon="15.79417765057964"><ele>852.0</ele><time>2026-05-02T09:51:51.998Z</time></trkpt><trkpt lat="40.10743533644935" lon="15.794351189252785"><ele>860.5</ele><time>2026-05-02T09:51:52.998Z</time></trkpt><trkpt lat="40.107112864499925" lon="15.79451502798975"><ele>869.0</ele><time>2026-05-02T09:51:53.998Z</time></trkpt><trkpt lat="40.10678820758592" lon="15.79467505632799"><ele>870.0</ele><time>2026-05-02T09:51:55Z</time></trkpt><trkpt lat="40.10646464986042" lon="15.794828728047262"><ele>871.0</ele><time>2026-05-02T09:51:56Z</time></trkpt><trkpt lat="40.10613862303178" lon="15.794981137942742"><ele>871.0</ele><time>2026-05-02T09:51:57Z</time></trkpt><trkpt lat="40.10581134712492" lon="15.795141658511548"><ele>871.0</ele><time>2026-05-02T09:51:58Z</time></trkpt><trkpt lat="40.10548474562493" lon="15.795311823522992"><ele>871.5</ele><time>2026-05-02T09:51:59Z</time></trkpt><trkpt lat="40.105162823018446" lon="15.795499287706152"><ele>872.0</ele><time>2026-05-02T09:52:00Z</time></trkpt><trkpt lat="40.10484752444286" lon="15.795701729063053"><ele>872.0</ele><time>2026-05-02T09:52:01Z</time></trkpt><trkpt lat="40.10454243222668" lon="15.79592089011666"><ele>872.0</ele><time>2026-05-02T09:52:02Z</time></trkpt><trkpt lat="40.10424912441853" lon="15.796142521930756"><ele>873.5</ele><time>2026-05-02T09:52:03Z</time></trkpt><trkpt lat="40.103960688047216" lon="15.796377432882343"><ele>875.0</ele><time>2026-05-02T09:52:04Z</time></trkpt><trkpt lat="40.10367101284008" lon="15.796636491420125"><ele>877.0</ele><time>2026-05-02T09:52:05Z</time></trkpt><trkpt lat="40.10338516831059" lon="15.796908865061647"><ele>879.0</ele><time>2026-05-02T09:52:06Z</time></trkpt><trkpt lat="40.10311040519647" lon="15.797196842445821"><ele>879.0</ele><time>2026-05-02T09:52:07Z</time></trkpt><trkpt lat="40.10284217686512" lon="15.797499691012401"><ele>879.0</ele><time>2026-05-02T09:52:08Z</time></trkpt><trkpt lat="40.102581948117496" lon="15.797817485147137"><ele>885.5</ele><time>2026-05-02T09:52:09Z</time></trkpt><trkpt lat="40.10233175773335" lon="15.798149435681276"><ele>892.0</ele><time>2026-05-02T09:52:10Z</time></trkpt><trkpt lat="40.10209477041298" lon="15.79850019243097"><ele>897.5</ele><time>2026-05-02T09:52:11Z</time></trkpt><trkpt lat="40.10187119554433" lon="15.79886092221832"><ele>903.0</ele><time>2026-05-02T09:52:12Z</time></trkpt><trkpt lat="40.101659654181915" lon="15.799226260027138"><ele>900.0</ele><time>2026-05-02T09:52:13Z</time></trkpt><trkpt lat="40.10146019094069" lon="15.799601476614445"><ele>897.0</ele><time>2026-05-02T09:52:14Z</time></trkpt><trkpt lat="40.10126377264331" lon="15.79998922754129"><ele>896.0</ele><time>2026-05-02T09:52:15Z</time></trkpt><trkpt lat="40.101075451188734" lon="15.800385168403416"><ele>895.0</ele><time>2026-05-02T09:52:16Z</time></trkpt><trkpt lat="40.10090023385047" lon="15.800783849307157"><ele>888.0</ele><time>2026-05-02T09:52:17Z</time></trkpt><trkpt lat="40.10073173860624" lon="15.80118755929803"><ele>881.0</ele><time>2026-05-02T09:52:18Z</time></trkpt><trkpt lat="40.10056245049423" lon="15.8015912647059"><ele>882.5</ele><time>2026-05-02T09:52:19Z</time></trkpt><trkpt lat="40.100390418388066" lon="15.801995969314449"><ele>884.0</ele><time>2026-05-02T09:52:20Z</time></trkpt><trkpt lat="40.10021697998812" lon="15.802397878030337"><ele>886.5</ele><time>2026-05-02T09:52:21Z</time></trkpt><trkpt lat="40.10004370340829" lon="15.80280143602583"><ele>889.0</ele><time>2026-05-02T09:52:22Z</time></trkpt><trkpt lat="40.09987263127174" lon="15.803208487703548"><ele>903.0</ele><time>2026-05-02T09:52:23Z</time></trkpt><trkpt lat="40.09970276785964" lon="15.803613336721071"><ele>917.0</ele><time>2026-05-02T09:52:24Z</time></trkpt><trkpt lat="40.09953296384208" lon="15.804019731589964"><ele>932.5</ele><time>2026-05-02T09:52:25Z</time></trkpt><trkpt lat="40.099364737474104" lon="15.804425288932366"><ele>948.0</ele><time>2026-05-02T09:52:26Z</time></trkpt><trkpt lat="40.099196070839064" lon="15.804829595726474"><ele>938.0</ele><time>2026-05-02T09:52:27Z</time></trkpt><trkpt lat="40.099026598911195" lon="15.80523424806639"><ele>928.0</ele><time>2026-05-02T09:52:28Z</time></trkpt><trkpt lat="40.09885625283613" lon="15.805637516654633"><ele>927.5</ele><time>2026-05-02T09:52:29Z</time></trkpt><trkpt lat="40.09867405079661" lon="15.806065991824541"><ele>927.0</ele><time>2026-05-02T09:52:30.067Z</time></trkpt><trkpt lat="40.0985047619052" lon="15.806467073054032"><ele>927.0</ele><time>2026-05-02T09:52:31.063Z</time></trkpt><trkpt lat="40.09833650732686" lon="15.806869604229655"><ele>927.0</ele><time>2026-05-02T09:52:32.061Z</time></trkpt><trkpt lat="40.098169055777966" lon="15.807273273847299"><ele>905.5</ele><time>2026-05-02T09:52:33.064Z</time></trkpt><trkpt lat="40.098002755557054" lon="15.807674572226093"><ele>884.0</ele><time>2026-05-02T09:52:34.062Z</time></trkpt><trkpt lat="40.09707650781583" lon="15.8097909376168"><ele>878.0</ele><time>2026-05-02T09:52:39Z</time></trkpt><trkpt lat="40.09689118164243" lon="15.810212294393981"><ele>872.0</ele><time>2026-05-02T09:52:39.999Z</time></trkpt><trkpt lat="40.0967069657151" lon="15.810657538683369"><ele>871.0</ele><time>2026-05-02T09:52:40.999Z</time></trkpt><trkpt lat="40.096535407559315" lon="15.811074500643599"><ele>870.0</ele><time>2026-05-02T09:52:41.999Z</time></trkpt><trkpt lat="40.096372112662955" lon="15.811459218382518"><ele>869.5</ele><time>2026-05-02T09:52:42.999Z</time></trkpt><trkpt lat="40.09620246529729" lon="15.811830751378801"><ele>869.0</ele><time>2026-05-02T09:52:43.999Z</time></trkpt><trkpt lat="40.09606906970188" lon="15.812182347056668"><ele>869.0</ele><time>2026-05-02T09:52:44.999Z</time></trkpt><trkpt lat="40.09591632018573" lon="15.812541471286899"><ele>869.0</ele><time>2026-05-02T09:52:45.999Z</time></trkpt><trkpt lat="40.09575906431291" lon="15.812898636655175"><ele>868.0</ele><time>2026-05-02T09:52:46.999Z</time></trkpt><trkpt lat="40.09560206285204" lon="15.813260557115978"><ele>867.0</ele><time>2026-05-02T09:52:47.999Z</time></trkpt><trkpt lat="40.09545012630584" lon="15.813625606298856"><ele>870.0</ele><time>2026-05-02T09:52:48.999Z</time></trkpt><trkpt lat="40.09529660411259" lon="15.813993832039582"><ele>873.0</ele><time>2026-05-02T09:52:49.999Z</time></trkpt><trkpt lat="40.09513874416776" lon="15.814362490559148"><ele>873.5</ele><time>2026-05-02T09:52:50.999Z</time></trkpt><trkpt lat="40.09497970498905" lon="15.814738329959836"><ele>874.0</ele><time>2026-05-02T09:52:51.999Z</time></trkpt><trkpt lat="40.09482963804138" lon="15.815119161633282"><ele>864.5</ele><time>2026-05-02T09:52:52.999Z</time></trkpt><trkpt lat="40.094689450266706" lon="15.815511762360074"><ele>855.0</ele><time>2026-05-02T09:52:53.999Z</time></trkpt><trkpt lat="40.094561614191385" lon="15.815911105828983"><ele>854.5</ele><time>2026-05-02T09:52:54.999Z</time></trkpt><trkpt lat="40.09443946727989" lon="15.816321637536479"><ele>854.0</ele><time>2026-05-02T09:52:55.999Z</time></trkpt><trkpt lat="40.09431805615697" lon="15.816735393746567"><ele>858.5</ele><time>2026-05-02T09:52:56.999Z</time></trkpt><trkpt lat="40.09419497120087" lon="15.81714482844368"><ele>863.0</ele><time>2026-05-02T09:52:57.999Z</time></trkpt><trkpt lat="40.09407173288434" lon="15.81755457192519"><ele>857.0</ele><time>2026-05-02T09:52:58.999Z</time></trkpt><trkpt lat="40.093949018426436" lon="15.817965481756534"><ele>851.0</ele><time>2026-05-02T09:52:59.999Z</time></trkpt><trkpt lat="40.093825777622946" lon="15.818379368702908"><ele>855.5</ele><time>2026-05-02T09:53:00.999Z</time></trkpt><trkpt lat="40.0937011141927" lon="15.81879238428237"><ele>860.0</ele><time>2026-05-02T09:53:01.999Z</time></trkpt><trkpt lat="40.09357611789158" lon="15.819199595457102"><ele>862.5</ele><time>2026-05-02T09:53:02.999Z</time></trkpt><trkpt lat="40.09345047266359" lon="15.819604672861713"><ele>865.0</ele><time>2026-05-02T09:53:03.999Z</time></trkpt><trkpt lat="40.09332584903006" lon="15.820006457782432"><ele>861.0</ele><time>2026-05-02T09:53:04.999Z</time></trkpt><trkpt lat="40.09320721709675" lon="15.820409459593915"><ele>857.0</ele><time>2026-05-02T09:53:05.999Z</time></trkpt><trkpt lat="40.09309591994322" lon="15.82081122116288"><ele>860.0</ele><time>2026-05-02T09:53:06.999Z</time></trkpt><trkpt lat="40.09299667722348" lon="15.821216971900096"><ele>863.0</ele><time>2026-05-02T09:53:07.999Z</time></trkpt><trkpt lat="40.09291407624081" lon="15.821629062474356"><ele>873.5</ele><time>2026-05-02T09:53:08.999Z</time></trkpt><trkpt lat="40.09285109197834" lon="15.822043961050449"><ele>884.0</ele><time>2026-05-02T09:53:09.999Z</time></trkpt><trkpt lat="40.092802727212046" lon="15.822465253939557"><ele>886.5</ele><time>2026-05-02T09:53:10.999Z</time></trkpt><trkpt lat="40.092776433631904" lon="15.822884421390503"><ele>889.0</ele><time>2026-05-02T09:53:11.999Z</time></trkpt><trkpt lat="40.09277372027151" lon="15.82330632330451"><ele>885.5</ele><time>2026-05-02T09:53:12.999Z</time></trkpt><trkpt lat="40.09279718502708" lon="15.82372443197641"><ele>882.0</ele><time>2026-05-02T09:53:13.999Z</time></trkpt><trkpt lat="40.09284335759149" lon="15.824146248111985"><ele>880.0</ele><time>2026-05-02T09:53:14.999Z</time></trkpt><trkpt lat="40.092914223105076" lon="15.824558123003923"><ele>878.0</ele><time>2026-05-02T09:53:15.999Z</time></trkpt><trkpt lat="40.093008665144225" lon="15.824965151222468"><ele>875.0</ele><time>2026-05-02T09:53:16.999Z</time></trkpt><trkpt lat="40.09311215117885" lon="15.825363399960231"><ele>872.0</ele><time>2026-05-02T09:53:17.999Z</time></trkpt><trkpt lat="40.093216804508366" lon="15.82576357012515"><ele>880.5</ele><time>2026-05-02T09:53:18.999Z</time></trkpt><trkpt lat="40.09331558384444" lon="15.82616519399298"><ele>889.0</ele><time>2026-05-02T09:53:19.999Z</time></trkpt><trkpt lat="40.093412902782184" lon="15.826574965492822"><ele>888.0</ele><time>2026-05-02T09:53:20.999Z</time></trkpt><trkpt lat="40.093505041352266" lon="15.826987317026395"><ele>887.0</ele><time>2026-05-02T09:53:21.999Z</time></trkpt><trkpt lat="40.093589776415975" lon="15.827399578839884"><ele>886.5</ele><time>2026-05-02T09:53:22.999Z</time></trkpt><trkpt lat="40.09366469814087" lon="15.82781287214935"><ele>886.0</ele><time>2026-05-02T09:53:23.999Z</time></trkpt><trkpt lat="40.0937236142404" lon="15.828227108430697"><ele>885.0</ele><time>2026-05-02T09:53:24.999Z</time></trkpt><trkpt lat="40.093762923506304" lon="15.828646290283842"><ele>884.0</ele><time>2026-05-02T09:53:25.999Z</time></trkpt><trkpt lat="40.09378188741604" lon="15.82907439210905"><ele>887.0</ele><time>2026-05-02T09:53:26.999Z</time></trkpt><trkpt lat="40.09376986271267" lon="15.82950325246326"><ele>890.0</ele><time>2026-05-02T09:53:27.999Z</time></trkpt><trkpt lat="40.09373641919575" lon="15.82992906793297"><ele>894.0</ele><time>2026-05-02T09:53:28.999Z</time></trkpt><trkpt lat="40.09368220978842" lon="15.830355292723198"><ele>898.0</ele><time>2026-05-02T09:53:29.999Z</time></trkpt><trkpt lat="40.09360806619023" lon="15.830777900760959"><ele>903.5</ele><time>2026-05-02T09:53:30.999Z</time></trkpt><trkpt lat="40.09351542410335" lon="15.831195901889936"><ele>909.0</ele><time>2026-05-02T09:53:31.999Z</time></trkpt><trkpt lat="40.09340669330906" lon="15.831607898806732"><ele>911.0</ele><time>2026-05-02T09:53:32.999Z</time></trkpt><trkpt lat="40.093280207363485" lon="15.832011276940417"><ele>913.0</ele><time>2026-05-02T09:53:33.999Z</time></trkpt><trkpt lat="40.09313129211337" lon="15.832402373091275"><ele>914.5</ele><time>2026-05-02T09:53:34.999Z</time></trkpt><trkpt lat="40.09296128046344" lon="15.8327761224396"><ele>916.0</ele><time>2026-05-02T09:53:35.999Z</time></trkpt><trkpt lat="40.09277280362423" lon="15.833131300590804"><ele>918.0</ele><time>2026-05-02T09:53:36.999Z</time></trkpt><trkpt lat="40.09257144907741" lon="15.833474213598496"><ele>920.0</ele><time>2026-05-02T09:53:37.999Z</time></trkpt><trkpt lat="40.09235937965321" lon="15.833803826111211"><ele>914.5</ele><time>2026-05-02T09:53:38.999Z</time></trkpt><trkpt lat="40.09214144267804" lon="15.834126788109602"><ele>909.0</ele><time>2026-05-02T09:53:39.999Z</time></trkpt><trkpt lat="40.091915799457226" lon="15.834439664655559"><ele>909.0</ele><time>2026-05-02T09:53:40.999Z</time></trkpt><trkpt lat="40.091683352326356" lon="15.83474735356403"><ele>909.0</ele><time>2026-05-02T09:53:41.999Z</time></trkpt><trkpt lat="40.09145094364887" lon="15.835054177790273"><ele>908.0</ele><time>2026-05-02T09:53:42.999Z</time></trkpt><trkpt lat="40.09122195115048" lon="15.835357876029603"><ele>907.0</ele><time>2026-05-02T09:53:43.999Z</time></trkpt><trkpt lat="40.090992199471735" lon="15.835663582972336"><ele>908.5</ele><time>2026-05-02T09:53:44.999Z</time></trkpt><trkpt lat="40.090759149493515" lon="15.83597148914715"><ele>910.0</ele><time>2026-05-02T09:53:45.999Z</time></trkpt><trkpt lat="40.090526545562795" lon="15.836281585931436"><ele>912.0</ele><time>2026-05-02T09:53:46.999Z</time></trkpt><trkpt lat="40.09029355149358" lon="15.836592155994056"><ele>914.0</ele><time>2026-05-02T09:53:47.999Z</time></trkpt><trkpt lat="40.09006049389461" lon="15.836906834569316"><ele>922.0</ele><time>2026-05-02T09:53:48.999Z</time></trkpt><trkpt lat="40.089829914531826" lon="15.837223856843195"><ele>930.0</ele><time>2026-05-02T09:53:49.999Z</time></trkpt><trkpt lat="40.08960442458615" lon="15.837544612165358"><ele>936.5</ele><time>2026-05-02T09:53:50.999Z</time></trkpt><trkpt lat="40.08938657342021" lon="15.837870405467058"><ele>943.0</ele><time>2026-05-02T09:53:51.999Z</time></trkpt><trkpt lat="40.089174073215325" lon="15.838201011627818"><ele>946.5</ele><time>2026-05-02T09:53:52.999Z</time></trkpt><trkpt lat="40.088966013274096" lon="15.838534645053144"><ele>950.0</ele><time>2026-05-02T09:53:53.999Z</time></trkpt><trkpt lat="40.08876271610273" lon="15.838876732721788"><ele>950.0</ele><time>2026-05-02T09:53:54.999Z</time></trkpt><trkpt lat="40.08856176219338" lon="15.839225967343829"><ele>950.0</ele><time>2026-05-02T09:53:55.999Z</time></trkpt><trkpt lat="40.088364154397475" lon="15.839582741532483"><ele>951.0</ele><time>2026-05-02T09:53:56.999Z</time></trkpt><trkpt lat="40.08817177169803" lon="15.839947198150645"><ele>952.0</ele><time>2026-05-02T09:53:57.998Z</time></trkpt><trkpt lat="40.08798693831368" lon="15.840317521939555"><ele>952.0</ele><time>2026-05-02T09:53:58.998Z</time></trkpt><trkpt lat="40.08779989441934" lon="15.840692664493307"><ele>952.0</ele><time>2026-05-02T09:53:59.998Z</time></trkpt><trkpt lat="40.08763352011606" lon="15.841076794826279"><ele>955.0</ele><time>2026-05-02T09:54:01Z</time></trkpt><trkpt lat="40.087467571821065" lon="15.841454315899153"><ele>958.0</ele><time>2026-05-02T09:54:02Z</time></trkpt><trkpt lat="40.087301045388" lon="15.841830383884627"><ele>950.0</ele><time>2026-05-02T09:54:03Z</time></trkpt><trkpt lat="40.08713567294867" lon="15.842210479880972"><ele>942.0</ele><time>2026-05-02T09:54:04Z</time></trkpt><trkpt lat="40.086976240846894" lon="15.8425952417161"><ele>946.0</ele><time>2026-05-02T09:54:05Z</time></trkpt><trkpt lat="40.0868169085296" lon="15.842985373267668"><ele>950.0</ele><time>2026-05-02T09:54:06Z</time></trkpt><trkpt lat="40.08665769604851" lon="15.843378463269916"><ele>952.0</ele><time>2026-05-02T09:54:07Z</time></trkpt><trkpt lat="40.086495494460976" lon="15.843777318103891"><ele>954.0</ele><time>2026-05-02T09:54:08Z</time></trkpt><trkpt lat="40.086331185355355" lon="15.844179126037728"><ele>952.5</ele><time>2026-05-02T09:54:09Z</time></trkpt><trkpt lat="40.08616517977461" lon="15.844581983194212"><ele>951.0</ele><time>2026-05-02T09:54:10Z</time></trkpt><trkpt lat="40.08599826446702" lon="15.844984861542848"><ele>949.0</ele><time>2026-05-02T09:54:11Z</time></trkpt><trkpt lat="40.08583033981988" lon="15.845388875968538"><ele>947.0</ele><time>2026-05-02T09:54:12Z</time></trkpt><trkpt lat="40.08566268091053" lon="15.845795261523318"><ele>937.0</ele><time>2026-05-02T09:54:13Z</time></trkpt><trkpt lat="40.08549578717777" lon="15.8462036778844"><ele>927.0</ele><time>2026-05-02T09:54:14Z</time></trkpt><trkpt lat="40.08532993743063" lon="15.846613461887035"><ele>930.5</ele><time>2026-05-02T09:54:15Z</time></trkpt><trkpt lat="40.08516559719175" lon="15.847017364861737"><ele>934.0</ele><time>2026-05-02T09:54:16Z</time></trkpt><trkpt lat="40.08500036205293" lon="15.847422927906075"><ele>932.5</ele><time>2026-05-02T09:54:17Z</time></trkpt><trkpt lat="40.08483425394392" lon="15.847830286486177"><ele>931.0</ele><time>2026-05-02T09:54:18Z</time></trkpt><trkpt lat="40.084667512774985" lon="15.848238296018218"><ele>934.0</ele><time>2026-05-02T09:54:19Z</time></trkpt><trkpt lat="40.08450198042898" lon="15.84864267878357"><ele>937.0</ele><time>2026-05-02T09:54:20Z</time></trkpt><trkpt lat="40.08433539540876" lon="15.849043247553153"><ele>936.5</ele><time>2026-05-02T09:54:21Z</time></trkpt><trkpt lat="40.084162093675644" lon="15.849447625617188"><ele>936.0</ele><time>2026-05-02T09:54:22Z</time></trkpt><trkpt lat="40.08398083205104" lon="15.849848160790932"><ele>937.5</ele><time>2026-05-02T09:54:23Z</time></trkpt><trkpt lat="40.083784928768935" lon="15.85023771393478"><ele>939.0</ele><time>2026-05-02T09:54:24Z</time></trkpt><trkpt lat="40.08358302660839" lon="15.850619697900763"><ele>936.5</ele><time>2026-05-02T09:54:25Z</time></trkpt><trkpt lat="40.08337380964976" lon="15.850989503782706"><ele>934.0</ele><time>2026-05-02T09:54:26Z</time></trkpt><trkpt lat="40.083161909760506" lon="15.851350835934133"><ele>925.0</ele><time>2026-05-02T09:54:27Z</time></trkpt><trkpt lat="40.08294464421768" lon="15.851702207853835"><ele>916.0</ele><time>2026-05-02T09:54:28Z</time></trkpt><trkpt lat="40.08272257402934" lon="15.852049059523267"><ele>914.0</ele><time>2026-05-02T09:54:29Z</time></trkpt><trkpt lat="40.08249762787864" lon="15.852394131542644"><ele>912.0</ele><time>2026-05-02T09:54:30Z</time></trkpt><trkpt lat="40.08227213189059" lon="15.852736447806382"><ele>911.0</ele><time>2026-05-02T09:54:31Z</time></trkpt><trkpt lat="40.082046095316265" lon="15.853076239433632"><ele>910.0</ele><time>2026-05-02T09:54:32Z</time></trkpt><trkpt lat="40.08181279409591" lon="15.853412743698469"><ele>900.5</ele><time>2026-05-02T09:54:33Z</time></trkpt><trkpt lat="40.081566230142194" lon="15.853739150490796"><ele>891.0</ele><time>2026-05-02T09:54:34Z</time></trkpt><trkpt lat="40.081304405715095" lon="15.854050441081577"><ele>890.5</ele><time>2026-05-02T09:54:35Z</time></trkpt><trkpt lat="40.08102910180361" lon="15.8543399898733"><ele>890.0</ele><time>2026-05-02T09:54:36Z</time></trkpt><trkpt lat="40.08073944199788" lon="15.85460440962591"><ele>890.0</ele><time>2026-05-02T09:54:36.999Z</time></trkpt><trkpt lat="40.08043652852527" lon="15.85484267790268"><ele>890.0</ele><time>2026-05-02T09:54:37.999Z</time></trkpt><trkpt lat="40.080123625754176" lon="15.855055318882322"><ele>895.5</ele><time>2026-05-02T09:54:38.999Z</time></trkpt><trkpt lat="40.07980017899399" lon="15.855245370938983"><ele>901.0</ele><time>2026-05-02T09:54:39.999Z</time></trkpt><trkpt lat="40.07946544565042" lon="15.855413791642896"><ele>901.0</ele><time>2026-05-02T09:54:40.999Z</time></trkpt><trkpt lat="40.07912766248194" lon="15.85556838239615"><ele>901.0</ele><time>2026-05-02T09:54:41.999Z</time></trkpt><trkpt lat="40.07878979279934" lon="15.855711591909012"><ele>901.0</ele><time>2026-05-02T09:54:42.999Z</time></trkpt><trkpt lat="40.07845347388546" lon="15.85585718842556"><ele>901.0</ele><time>2026-05-02T09:54:43.999Z</time></trkpt><trkpt lat="40.07811990128703" lon="15.856010630729658"><ele>901.0</ele><time>2026-05-02T09:54:44.999Z</time></trkpt><trkpt lat="40.07778849434331" lon="15.856176372519462"><ele>901.0</ele><time>2026-05-02T09:54:45.999Z</time></trkpt><trkpt lat="40.07746499657571" lon="15.856356040352562"><ele>896.5</ele><time>2026-05-02T09:54:46.999Z</time></trkpt><trkpt lat="40.077155925054534" lon="15.856553870940425"><ele>892.0</ele><time>2026-05-02T09:54:47.999Z</time></trkpt><trkpt lat="40.07685888646893" lon="15.856769144257948"><ele>888.5</ele><time>2026-05-02T09:54:48.999Z</time></trkpt><trkpt lat="40.07657401185772" lon="15.85700804429196"><ele>885.0</ele><time>2026-05-02T09:54:49.999Z</time></trkpt><trkpt lat="40.07630043649196" lon="15.857269611087206"><ele>885.0</ele><time>2026-05-02T09:54:50.999Z</time></trkpt><trkpt lat="40.07603830531691" lon="15.85755101738552"><ele>885.0</ele><time>2026-05-02T09:54:51.999Z</time></trkpt><trkpt lat="40.07578957585804" lon="15.857854634239764"><ele>877.0</ele><time>2026-05-02T09:54:52.999Z</time></trkpt><trkpt lat="40.075556779487684" lon="15.85817869488475"><ele>869.0</ele><time>2026-05-02T09:54:53.999Z</time></trkpt><trkpt lat="40.07533916554498" lon="15.858525328105456"><ele>863.0</ele><time>2026-05-02T09:54:54.999Z</time></trkpt><trkpt lat="40.07513634671748" lon="15.85889139520023"><ele>857.0</ele><time>2026-05-02T09:54:55.999Z</time></trkpt><trkpt lat="40.07494108460414" lon="15.859272910979442"><ele>851.0</ele><time>2026-05-02T09:54:56.999Z</time></trkpt><trkpt lat="40.07475035611663" lon="15.859664586147339"><ele>845.0</ele><time>2026-05-02T09:54:57.999Z</time></trkpt><trkpt lat="40.07456544200046" lon="15.860058049572192"><ele>846.0</ele><time>2026-05-02T09:54:58.999Z</time></trkpt><trkpt lat="40.07438548207377" lon="15.86045356805136"><ele>847.0</ele><time>2026-05-02T09:54:59.999Z</time></trkpt><trkpt lat="40.074205828987566" lon="15.860847924390715"><ele>849.0</ele><time>2026-05-02T09:55:00.999Z</time></trkpt><trkpt lat="40.074026032637846" lon="15.861239660121846"><ele>851.0</ele><time>2026-05-02T09:55:01.999Z</time></trkpt><trkpt lat="40.07384706446673" lon="15.861628564208615"><ele>854.0</ele><time>2026-05-02T09:55:02.999Z</time></trkpt><trkpt lat="40.073667398044975" lon="15.862017963836026"><ele>857.0</ele><time>2026-05-02T09:55:03.999Z</time></trkpt><trkpt lat="40.07348887262692" lon="15.862408750549863"><ele>859.0</ele><time>2026-05-02T09:55:04.999Z</time></trkpt><trkpt lat="40.0733111143467" lon="15.862797788056408"><ele>861.0</ele><time>2026-05-02T09:55:05.999Z</time></trkpt><trkpt lat="40.07313229495639" lon="15.863188390720834"><ele>856.5</ele><time>2026-05-02T09:55:06.999Z</time></trkpt><trkpt lat="40.07295384443584" lon="15.863575359317094"><ele>852.0</ele><time>2026-05-02T09:55:07.999Z</time></trkpt><trkpt lat="40.072776847220716" lon="15.863961201663267"><ele>854.0</ele><time>2026-05-02T09:55:08.999Z</time></trkpt><trkpt lat="40.072598526077975" lon="15.864344802931925"><ele>856.0</ele><time>2026-05-02T09:55:09.999Z</time></trkpt><trkpt lat="40.07241887127517" lon="15.864725215609896"><ele>856.0</ele><time>2026-05-02T09:55:10.999Z</time></trkpt><trkpt lat="40.07223302992445" lon="15.865103640859624"><ele>856.0</ele><time>2026-05-02T09:55:11.999Z</time></trkpt><trkpt lat="40.07204134746969" lon="15.865475181567689"><ele>859.5</ele><time>2026-05-02T09:55:12.999Z</time></trkpt><trkpt lat="40.071844095357335" lon="15.86583310614534"><ele>863.0</ele><time>2026-05-02T09:55:13.999Z</time></trkpt><trkpt lat="40.07163785708972" lon="15.866174321798203"><ele>864.5</ele><time>2026-05-02T09:55:14.999Z</time></trkpt><trkpt lat="40.07142034964179" lon="15.866508860833871"><ele>866.0</ele><time>2026-05-02T09:55:15.999Z</time></trkpt><trkpt lat="40.071191006290235" lon="15.866831841318575"><ele>866.0</ele><time>2026-05-02T09:55:16.999Z</time></trkpt><trkpt lat="40.07094761743244" lon="15.867139036741385"><ele>866.0</ele><time>2026-05-02T09:55:17.999Z</time></trkpt><trkpt lat="40.07068818270107" lon="15.867426449941677"><ele>867.5</ele><time>2026-05-02T09:55:18.999Z</time></trkpt><trkpt lat="40.07042089451168" lon="15.867699742482595"><ele>869.0</ele><time>2026-05-02T09:55:19.999Z</time></trkpt><trkpt lat="40.07013909450703" lon="15.867955522353405"><ele>870.5</ele><time>2026-05-02T09:55:20.999Z</time></trkpt><trkpt lat="40.06984739496424" lon="15.86819452743645"><ele>872.0</ele><time>2026-05-02T09:55:21.999Z</time></trkpt><trkpt lat="40.06954406087077" lon="15.868407608434392"><ele>877.5</ele><time>2026-05-02T09:55:22.999Z</time></trkpt><trkpt lat="40.0692331024537" lon="15.868602422307033"><ele>883.0</ele><time>2026-05-02T09:55:23.999Z</time></trkpt><trkpt lat="40.06891068797806" lon="15.868775528545973"><ele>883.0</ele><time>2026-05-02T09:55:24.999Z</time></trkpt><trkpt lat="40.06857670260615" lon="15.868927994822865"><ele>883.0</ele><time>2026-05-02T09:55:25.999Z</time></trkpt><trkpt lat="40.06821405364391" lon="15.869069215479929"><ele>881.5</ele><time>2026-05-02T09:55:27.058Z</time></trkpt><trkpt lat="40.06786509420963" lon="15.869191174580353"><ele>880.0</ele><time>2026-05-02T09:55:28.066Z</time></trkpt><trkpt lat="40.03709878706898" lon="15.872958290072853"><ele>799.0</ele><time>2026-05-02T09:56:57.998Z</time></trkpt><trkpt lat="40.036782290980405" lon="15.873115168976401"><ele>718.0</ele><time>2026-05-02T09:56:58.998Z</time></trkpt><trkpt lat="40.036487425038516" lon="15.873263914959688"><ele>720.5</ele><time>2026-05-02T09:56:59.998Z</time></trkpt><trkpt lat="40.036177904540516" lon="15.87340791186208"><ele>723.0</ele><time>2026-05-02T09:57:00.998Z</time></trkpt><trkpt lat="40.03587482043169" lon="15.873544109706003"><ele>729.5</ele><time>2026-05-02T09:57:01.998Z</time></trkpt><trkpt lat="40.035567160697134" lon="15.873679876264234"><ele>736.0</ele><time>2026-05-02T09:57:02.998Z</time></trkpt><trkpt lat="40.03525371151749" lon="15.873810807857904"><ele>745.5</ele><time>2026-05-02T09:57:03.998Z</time></trkpt><trkpt lat="40.03493463783096" lon="15.873936868663336"><ele>755.0</ele><time>2026-05-02T09:57:04.998Z</time></trkpt><trkpt lat="40.03460855526467" lon="15.87405038652668"><ele>755.0</ele><time>2026-05-02T09:57:05.998Z</time></trkpt><trkpt lat="40.034276022091674" lon="15.87414831967047"><ele>755.0</ele><time>2026-05-02T09:57:07Z</time></trkpt><trkpt lat="40.03393714253138" lon="15.874228300800217"><ele>774.5</ele><time>2026-05-02T09:57:08Z</time></trkpt><trkpt lat="40.0335915778532" lon="15.874295130269232"><ele>794.0</ele><time>2026-05-02T09:57:09Z</time></trkpt><trkpt lat="40.03324264686988" lon="15.874342892769459"><ele>795.0</ele><time>2026-05-02T09:57:10Z</time></trkpt><trkpt lat="40.032891145893274" lon="15.874378947259043"><ele>796.0</ele><time>2026-05-02T09:57:11Z</time></trkpt><trkpt lat="40.03253895260182" lon="15.87440830097732"><ele>790.0</ele><time>2026-05-02T09:57:12Z</time></trkpt><trkpt lat="40.032185665205795" lon="15.874433583757268"><ele>784.0</ele><time>2026-05-02T09:57:13Z</time></trkpt><trkpt lat="40.03183823906401" lon="15.874456415480703"><ele>778.5</ele><time>2026-05-02T09:57:14Z</time></trkpt><trkpt lat="40.03149644044323" lon="15.874485469941767"><ele>773.0</ele><time>2026-05-02T09:57:15Z</time></trkpt><trkpt lat="40.031158591427406" lon="15.874529894733689"><ele>773.0</ele><time>2026-05-02T09:57:16Z</time></trkpt><trkpt lat="40.03082131414284" lon="15.874593472470051"><ele>773.0</ele><time>2026-05-02T09:57:17Z</time></trkpt><trkpt lat="40.030489209071824" lon="15.874679690240042"><ele>777.0</ele><time>2026-05-02T09:57:18Z</time></trkpt><trkpt lat="40.03016112782544" lon="15.874778746698198"><ele>781.0</ele><time>2026-05-02T09:57:19Z</time></trkpt><trkpt lat="40.02984220516507" lon="15.87488818313593"><ele>775.0</ele><time>2026-05-02T09:57:20Z</time></trkpt><trkpt lat="40.029534018443854" lon="15.875011999153653"><ele>769.0</ele><time>2026-05-02T09:57:21Z</time></trkpt><trkpt lat="40.02923232829538" lon="15.875149878358156"><ele>763.0</ele><time>2026-05-02T09:57:22Z</time></trkpt><trkpt lat="40.02893657568549" lon="15.87530288385863"><ele>757.0</ele><time>2026-05-02T09:57:23Z</time></trkpt><trkpt lat="40.02864914227778" lon="15.87546573870257"><ele>757.0</ele><time>2026-05-02T09:57:24Z</time></trkpt><trkpt lat="40.028368874819726" lon="15.875649774482977"><ele>757.0</ele><time>2026-05-02T09:57:25Z</time></trkpt><trkpt lat="40.02808608134456" lon="15.875793594563596"><ele>757.0</ele><time>2026-05-02T09:57:26Z</time></trkpt><trkpt lat="40.027815998141286" lon="15.875960172017107"><ele>757.0</ele><time>2026-05-02T09:57:27Z</time></trkpt><trkpt lat="40.02754796876045" lon="15.876125118131164"><ele>750.0</ele><time>2026-05-02T09:57:28Z</time></trkpt><trkpt lat="40.027278744074245" lon="15.876291407481125"><ele>743.0</ele><time>2026-05-02T09:57:29Z</time></trkpt><trkpt lat="40.027012101623995" lon="15.876451145444362"><ele>743.0</ele><time>2026-05-02T09:57:30Z</time></trkpt><trkpt lat="40.02674700223489" lon="15.876608657366699"><ele>743.0</ele><time>2026-05-02T09:57:31Z</time></trkpt><trkpt lat="40.02648946304116" lon="15.876767772028643"><ele>742.5</ele><time>2026-05-02T09:57:32Z</time></trkpt><trkpt lat="40.02623923550256" lon="15.876925763193633"><ele>742.0</ele><time>2026-05-02T09:57:33Z</time></trkpt><trkpt lat="40.02599144704018" lon="15.877080104629453"><ele>739.5</ele><time>2026-05-02T09:57:34Z</time></trkpt><trkpt lat="40.02574449698156" lon="15.877233750599114"><ele>737.0</ele><time>2026-05-02T09:57:35Z</time></trkpt><trkpt lat="40.02550015745025" lon="15.87738655141589"><ele>737.0</ele><time>2026-05-02T09:57:36Z</time></trkpt><trkpt lat="40.02525869637261" lon="15.877538253326138"><ele>737.0</ele><time>2026-05-02T09:57:37Z</time></trkpt><trkpt lat="40.02501932333053" lon="15.87768662757785"><ele>743.5</ele><time>2026-05-02T09:57:38Z</time></trkpt><trkpt lat="40.02478198405396" lon="15.877834801150257"><ele>750.0</ele><time>2026-05-02T09:57:39Z</time></trkpt><trkpt lat="40.0245438339938" lon="15.877983039928647"><ele>750.0</ele><time>2026-05-02T09:57:40Z</time></trkpt><trkpt lat="40.024305254206965" lon="15.878132494367174"><ele>750.0</ele><time>2026-05-02T09:57:41Z</time></trkpt><trkpt lat="40.02406048522519" lon="15.878284447775066"><ele>758.5</ele><time>2026-05-02T09:57:42Z</time></trkpt><trkpt lat="40.02380670507492" lon="15.878443328132903"><ele>767.0</ele><time>2026-05-02T09:57:43Z</time></trkpt><trkpt lat="40.02354028139596" lon="15.878611191227748"><ele>770.5</ele><time>2026-05-02T09:57:44Z</time></trkpt><trkpt lat="40.02326742644374" lon="15.878779135453055"><ele>774.0</ele><time>2026-05-02T09:57:45Z</time></trkpt><trkpt lat="40.0229839189903" lon="15.878956948404618"><ele>774.0</ele><time>2026-05-02T09:57:46Z</time></trkpt><trkpt lat="40.02269594606328" lon="15.879145246627768"><ele>774.0</ele><time>2026-05-02T09:57:47Z</time></trkpt><trkpt lat="40.02240569153476" lon="15.879349581842245"><ele>763.0</ele><time>2026-05-02T09:57:48Z</time></trkpt><trkpt lat="40.022118897230264" lon="15.879568662334938"><ele>752.0</ele><time>2026-05-02T09:57:49Z</time></trkpt><trkpt lat="40.02183150271994" lon="15.879829390145268"><ele>745.5</ele><time>2026-05-02T09:57:50.062Z</time></trkpt><trkpt lat="40.02157548337872" lon="15.88010018709622"><ele>739.0</ele><time>2026-05-02T09:57:51.066Z</time></trkpt><trkpt lat="40.021117770923716" lon="15.880546567030715"><ele>741.0</ele><time>2026-05-02T09:57:52.999Z</time></trkpt><trkpt lat="40.02091104653086" lon="15.880985482179598"><ele>743.0</ele><time>2026-05-02T09:57:53.999Z</time></trkpt><trkpt lat="40.02072519520779" lon="15.881347286390008"><ele>739.0</ele><time>2026-05-02T09:57:54.999Z</time></trkpt><trkpt lat="40.02054979555434" lon="15.881717320175248"><ele>735.0</ele><time>2026-05-02T09:57:55.999Z</time></trkpt><trkpt lat="40.02037862695641" lon="15.882088707303732"><ele>735.0</ele><time>2026-05-02T09:57:56.999Z</time></trkpt><trkpt lat="40.02021582164735" lon="15.882472976509886"><ele>735.0</ele><time>2026-05-02T09:57:57.999Z</time></trkpt><trkpt lat="40.02005245113278" lon="15.882858238980777"><ele>733.5</ele><time>2026-05-02T09:57:58.999Z</time></trkpt><trkpt lat="40.01988971448343" lon="15.883241807739477"><ele>732.0</ele><time>2026-05-02T09:57:59.999Z</time></trkpt><trkpt lat="40.0197277483711" lon="15.883625009792425"><ele>732.0</ele><time>2026-05-02T09:58:00.999Z</time></trkpt><trkpt lat="40.01956602541002" lon="15.884015439838915"><ele>732.0</ele><time>2026-05-02T09:58:01.999Z</time></trkpt><trkpt lat="40.01940349882574" lon="15.88440556615521"><ele>733.0</ele><time>2026-05-02T09:58:02.999Z</time></trkpt><trkpt lat="40.019240475890584" lon="15.884794546559364"><ele>734.0</ele><time>2026-05-02T09:58:03.999Z</time></trkpt><trkpt lat="40.01907765602295" lon="15.885183737535408"><ele>731.0</ele><time>2026-05-02T09:58:04.999Z</time></trkpt><trkpt lat="40.018916727408964" lon="15.885568813813215"><ele>728.0</ele><time>2026-05-02T09:58:05.999Z</time></trkpt><trkpt lat="40.01875682344227" lon="15.885951629242081"><ele>727.0</ele><time>2026-05-02T09:58:06.999Z</time></trkpt><trkpt lat="40.0185960957491" lon="15.88633477556252"><ele>726.0</ele><time>2026-05-02T09:58:07.999Z</time></trkpt><trkpt lat="40.018435063794605" lon="15.886720306499926"><ele>725.5</ele><time>2026-05-02T09:58:08.999Z</time></trkpt><trkpt lat="40.01827870722948" lon="15.887106152992793"><ele>725.0</ele><time>2026-05-02T09:58:09.999Z</time></trkpt><trkpt lat="40.01812907264779" lon="15.887493835782665"><ele>725.5</ele><time>2026-05-02T09:58:10.999Z</time></trkpt><trkpt lat="40.01799107429997" lon="15.887882179489226"><ele>726.0</ele><time>2026-05-02T09:58:11.999Z</time></trkpt><trkpt lat="40.01786259597683" lon="15.88827571801699"><ele>725.0</ele><time>2026-05-02T09:58:12.999Z</time></trkpt><trkpt lat="40.01774323284782" lon="15.8886704974687"><ele>724.0</ele><time>2026-05-02T09:58:13.999Z</time></trkpt><trkpt lat="40.01763331187571" lon="15.889069431184465"><ele>724.0</ele><time>2026-05-02T09:58:14.999Z</time></trkpt><trkpt lat="40.017524208625495" lon="15.889471056484325"><ele>724.0</ele><time>2026-05-02T09:58:15.999Z</time></trkpt><trkpt lat="40.017412303497345" lon="15.889874256685395"><ele>724.5</ele><time>2026-05-02T09:58:16.999Z</time></trkpt><trkpt lat="40.01729405948425" lon="15.890275290382311"><ele>725.0</ele><time>2026-05-02T09:58:17.999Z</time></trkpt><trkpt lat="40.017166703693924" lon="15.890671231466824"><ele>725.5</ele><time>2026-05-02T09:58:18.999Z</time></trkpt><trkpt lat="40.01702686369473" lon="15.89105939547074"><ele>726.0</ele><time>2026-05-02T09:58:19.999Z</time></trkpt><trkpt lat="40.016875000829245" lon="15.891440303361206"><ele>727.0</ele><time>2026-05-02T09:58:20.999Z</time></trkpt><trkpt lat="40.01671296271836" lon="15.891815017892515"><ele>728.0</ele><time>2026-05-02T09:58:21.999Z</time></trkpt><trkpt lat="40.0165385456726" lon="15.892184198386072"><ele>728.0</ele><time>2026-05-02T09:58:22.999Z</time></trkpt><trkpt lat="40.016354684435974" lon="15.89254820577326"><ele>728.0</ele><time>2026-05-02T09:58:23.999Z</time></trkpt><trkpt lat="40.01616758168926" lon="15.892908135085506"><ele>727.5</ele><time>2026-05-02T09:58:24.999Z</time></trkpt><trkpt lat="40.01598213865388" lon="15.893270690339614"><ele>727.0</ele><time>2026-05-02T09:58:25.999Z</time></trkpt><trkpt lat="40.015797088612295" lon="15.893634334952578"><ele>728.5</ele><time>2026-05-02T09:58:26.999Z</time></trkpt><trkpt lat="40.0156133901079" lon="15.893998653036634"><ele>730.0</ele><time>2026-05-02T09:58:27.999Z</time></trkpt><trkpt lat="40.015428461369204" lon="15.894359379107838"><ele>730.0</ele><time>2026-05-02T09:58:28.999Z</time></trkpt><trkpt lat="40.01524362891976" lon="15.894718914854108"><ele>730.0</ele><time>2026-05-02T09:58:29.999Z</time></trkpt><trkpt lat="40.01505860536809" lon="15.895077541056223"><ele>726.5</ele><time>2026-05-02T09:58:30.999Z</time></trkpt><trkpt lat="40.014871787748135" lon="15.895433460280016"><ele>723.0</ele><time>2026-05-02T09:58:31.999Z</time></trkpt><trkpt lat="40.0146838820511" lon="15.895787453939406"><ele>723.5</ele><time>2026-05-02T09:58:32.999Z</time></trkpt><trkpt lat="40.01449278740949" lon="15.89614321043808"><ele>724.0</ele><time>2026-05-02T09:58:33.999Z</time></trkpt><trkpt lat="40.014301766223625" lon="15.896497258550621"><ele>723.5</ele><time>2026-05-02T09:58:34.999Z</time></trkpt><trkpt lat="40.01410859428805" lon="15.896850890863288"><ele>723.0</ele><time>2026-05-02T09:58:35.999Z</time></trkpt><trkpt lat="40.01391126248014" lon="15.897202635403593"><ele>723.0</ele><time>2026-05-02T09:58:36.999Z</time></trkpt><trkpt lat="40.01370862559777" lon="15.897549666868741"><ele>723.0</ele><time>2026-05-02T09:58:37.999Z</time></trkpt><trkpt lat="40.013502576487774" lon="15.897896721499839"><ele>723.5</ele><time>2026-05-02T09:58:38.999Z</time></trkpt><trkpt lat="40.01329075810291" lon="15.898239257014295"><ele>724.0</ele><time>2026-05-02T09:58:39.999Z</time></trkpt><trkpt lat="40.013071132249685" lon="15.89857735826519"><ele>724.0</ele><time>2026-05-02T09:58:40.999Z</time></trkpt><trkpt lat="40.012846240331896" lon="15.898908205103048"><ele>724.0</ele><time>2026-05-02T09:58:41.999Z</time></trkpt><trkpt lat="40.012616573867895" lon="15.899234537041416"><ele>726.5</ele><time>2026-05-02T09:58:42.999Z</time></trkpt><trkpt lat="40.012379750412315" lon="15.89955466489867"><ele>729.0</ele><time>2026-05-02T09:58:43.999Z</time></trkpt><trkpt lat="40.01213487495425" lon="15.89986949771147"><ele>730.0</ele><time>2026-05-02T09:58:44.999Z</time></trkpt><trkpt lat="40.01188470171294" lon="15.900176881837805"><ele>731.0</ele><time>2026-05-02T09:58:45.999Z</time></trkpt><trkpt lat="40.01162789983503" lon="15.900475931141775"><ele>752.5</ele><time>2026-05-02T09:58:46.999Z</time></trkpt><trkpt lat="40.0113655042063" lon="15.900768765135533"><ele>774.0</ele><time>2026-05-02T09:58:47.999Z</time></trkpt><trkpt lat="40.01109841144284" lon="15.901057761991021"><ele>774.0</ele><time>2026-05-02T09:58:48.999Z</time></trkpt><trkpt lat="40.01083211144487" lon="15.901339219720079"><ele>774.0</ele><time>2026-05-02T09:58:49.999Z</time></trkpt><trkpt lat="40.01056471165212" lon="15.901619149079298"><ele>791.5</ele><time>2026-05-02T09:58:50.999Z</time></trkpt><trkpt lat="40.01029583757477" lon="15.90190379342909"><ele>809.0</ele><time>2026-05-02T09:58:51.999Z</time></trkpt><trkpt lat="40.01002703507125" lon="15.902193260845046"><ele>808.5</ele><time>2026-05-02T09:58:52.999Z</time></trkpt><trkpt lat="40.009759128597864" lon="15.902489478580112"><ele>808.0</ele><time>2026-05-02T09:58:53.999Z</time></trkpt><trkpt lat="40.00947532289238" lon="15.902813560556682"><ele>808.0</ele><time>2026-05-02T09:58:55.067Z</time></trkpt><trkpt lat="40.00921511020071" lon="15.903125746877551"><ele>808.0</ele><time>2026-05-02T09:58:56.061Z</time></trkpt><trkpt lat="40.00895944328728" lon="15.903450136288205"><ele>791.5</ele><time>2026-05-02T09:58:57.061Z</time></trkpt><trkpt lat="40.00871382473932" lon="15.903785235110592"><ele>775.0</ele><time>2026-05-02T09:58:58.062Z</time></trkpt><trkpt lat="40.00848005173364" lon="15.904128119282378"><ele>782.5</ele><time>2026-05-02T09:58:59.062Z</time></trkpt><trkpt lat="40.008263745696276" lon="15.904464107335578"><ele>790.0</ele><time>2026-05-02T09:59:00.039Z</time></trkpt><trkpt lat="40.00805283560142" lon="15.904804703048674"><ele>789.0</ele><time>2026-05-02T09:59:01.03Z</time></trkpt><trkpt lat="40.00784538321524" lon="15.905146994683333"><ele>788.0</ele><time>2026-05-02T09:59:02.029Z</time></trkpt><trkpt lat="40.006287163737284" lon="15.908161067527239"><ele>754.5</ele><time>2026-05-02T09:59:09.998Z</time></trkpt><trkpt lat="40.00609114132524" lon="15.908514129283061"><ele>721.0</ele><time>2026-05-02T09:59:10.998Z</time></trkpt><trkpt lat="40.00588351107187" lon="15.908861380492368"><ele>722.0</ele><time>2026-05-02T09:59:11.998Z</time></trkpt><trkpt lat="40.005668115213346" lon="15.909187051657002"><ele>723.0</ele><time>2026-05-02T09:59:12.998Z</time></trkpt><trkpt lat="40.00544786491553" lon="15.90950886377152"><ele>724.0</ele><time>2026-05-02T09:59:13.998Z</time></trkpt><trkpt lat="40.00520776965073" lon="15.909825795901746"><ele>725.0</ele><time>2026-05-02T09:59:14.998Z</time></trkpt><trkpt lat="40.00496536053653" lon="15.910144384607216"><ele>727.0</ele><time>2026-05-02T09:59:16Z</time></trkpt><trkpt lat="40.00472277322218" lon="15.91045799558857"><ele>729.0</ele><time>2026-05-02T09:59:17Z</time></trkpt><trkpt lat="40.00448038095272" lon="15.910770104635032"><ele>728.0</ele><time>2026-05-02T09:59:18Z</time></trkpt><trkpt lat="40.00423528450133" lon="15.911080392230966"><ele>727.0</ele><time>2026-05-02T09:59:19Z</time></trkpt><trkpt lat="40.003990674632576" lon="15.911385080333247"><ele>730.5</ele><time>2026-05-02T09:59:20Z</time></trkpt><trkpt lat="40.003752854701276" lon="15.911698836792196"><ele>734.0</ele><time>2026-05-02T09:59:21Z</time></trkpt><trkpt lat="40.00350772971308" lon="15.912013251514777"><ele>736.0</ele><time>2026-05-02T09:59:22Z</time></trkpt><trkpt lat="40.003263650908345" lon="15.912328094512501"><ele>738.0</ele><time>2026-05-02T09:59:23Z</time></trkpt><trkpt lat="40.00301756555065" lon="15.912639944180373"><ele>738.0</ele><time>2026-05-02T09:59:24Z</time></trkpt><trkpt lat="40.0027695797888" lon="15.912953252713383"><ele>738.0</ele><time>2026-05-02T09:59:25Z</time></trkpt><trkpt lat="40.00252313080588" lon="15.913266028127875"><ele>744.5</ele><time>2026-05-02T09:59:26Z</time></trkpt><trkpt lat="40.00227509043764" lon="15.913580765933899"><ele>751.0</ele><time>2026-05-02T09:59:27Z</time></trkpt><trkpt lat="40.00203124318672" lon="15.91390057565864"><ele>751.0</ele><time>2026-05-02T09:59:28Z</time></trkpt><trkpt lat="40.001791200101614" lon="15.914226204056632"><ele>751.0</ele><time>2026-05-02T09:59:29Z</time></trkpt><trkpt lat="40.00155978287411" lon="15.914561504213124"><ele>761.5</ele><time>2026-05-02T09:59:30Z</time></trkpt><trkpt lat="40.001338404018895" lon="15.914904671011906"><ele>772.0</ele><time>2026-05-02T09:59:31Z</time></trkpt><trkpt lat="40.00111821095975" lon="15.915251801926008"><ele>782.0</ele><time>2026-05-02T09:59:32Z</time></trkpt><trkpt lat="40.00089995433713" lon="15.915602525047573"><ele>792.0</ele><time>2026-05-02T09:59:33Z</time></trkpt><trkpt lat="40.000682148546844" lon="15.915951523086605"><ele>813.0</ele><time>2026-05-02T09:59:34Z</time></trkpt><trkpt lat="40.00046647095234" lon="15.916301023678425"><ele>834.0</ele><time>2026-05-02T09:59:35Z</time></trkpt><trkpt lat="40.000255855983646" lon="15.916652758220955"><ele>847.0</ele><time>2026-05-02T09:59:36Z</time></trkpt><trkpt lat="40.000034308802356" lon="15.917030858766076"><ele>860.0</ele><time>2026-05-02T09:59:37.067Z</time></trkpt><trkpt lat="39.99983166175628" lon="15.917386549589754"><ele>867.0</ele><time>2026-05-02T09:59:38.062Z</time></trkpt><trkpt lat="39.99962636876202" lon="15.917746197500222"><ele>874.0</ele><time>2026-05-02T09:59:39.066Z</time></trkpt><trkpt lat="39.99772794401356" lon="15.920778295407175"><ele>905.0</ele><time>2026-05-02T09:59:43.145Z</time></trkpt><trkpt lat="39.99711873934238" lon="15.921794813239348"><ele>868.0</ele><time>2026-05-02T09:59:44.146Z</time></trkpt><trkpt lat="39.99650380213855" lon="15.922805759245904"><ele>855.0</ele><time>2026-05-02T09:59:45.146Z</time></trkpt><trkpt lat="39.995888466943704" lon="15.923813691459266"><ele>841.0</ele><time>2026-05-02T09:59:46.145Z</time></trkpt><trkpt lat="39.99527062272711" lon="15.924825412875972"><ele>821.0</ele><time>2026-05-02T09:59:47.148Z</time></trkpt><trkpt lat="39.99465728462028" lon="15.92583467585571"><ele>811.0</ele><time>2026-05-02T09:59:48.147Z</time></trkpt><trkpt lat="39.9944058" lon="15.9262485"><ele>801.0</ele><time>2026-05-02T09:59:49.148Z</time></trkpt><trkpt lat="39.99230697082061" lon="15.929670478746909"><ele>755.5</ele><time>2026-05-02T10:00:12.999Z</time></trkpt><trkpt lat="39.99211292248656" lon="15.93004143621161"><ele>710.0</ele><time>2026-05-02T10:00:13.999Z</time></trkpt><trkpt lat="39.99186278960284" lon="15.930403092829586"><ele>708.5</ele><time>2026-05-02T10:00:14.999Z</time></trkpt><trkpt lat="39.99165319897482" lon="15.930751411358678"><ele>707.0</ele><time>2026-05-02T10:00:15.999Z</time></trkpt><trkpt lat="39.99144158929735" lon="15.931077899985382"><ele>707.0</ele><time>2026-05-02T10:00:16.999Z</time></trkpt><trkpt lat="39.991236898310525" lon="15.931359090459466"><ele>707.0</ele><time>2026-05-02T10:00:17.999Z</time></trkpt><trkpt lat="39.99101156148806" lon="15.931648202157216"><ele>696.5</ele><time>2026-05-02T10:00:18.999Z</time></trkpt><trkpt lat="39.99077614356528" lon="15.931932391997007"><ele>686.0</ele><time>2026-05-02T10:00:19.999Z</time></trkpt><trkpt lat="39.99052864353796" lon="15.932208482735255"><ele>686.0</ele><time>2026-05-02T10:00:20.999Z</time></trkpt><trkpt lat="39.99026901584203" lon="15.932474795203719"><ele>686.0</ele><time>2026-05-02T10:00:21.999Z</time></trkpt><trkpt lat="39.98999726091693" lon="15.932723278232167"><ele>679.0</ele><time>2026-05-02T10:00:22.999Z</time></trkpt><trkpt lat="39.989713428943226" lon="15.932956322584118"><ele>672.0</ele><time>2026-05-02T10:00:23.999Z</time></trkpt><trkpt lat="39.989421492206404" lon="15.933171440312519"><ele>667.0</ele><time>2026-05-02T10:00:24.999Z</time></trkpt><trkpt lat="39.98912269251882" lon="15.93336933282762"><ele>662.0</ele><time>2026-05-02T10:00:25.999Z</time></trkpt><trkpt lat="39.988810659290905" lon="15.933546699442935"><ele>662.0</ele><time>2026-05-02T10:00:26.999Z</time></trkpt><trkpt lat="39.98849102342775" lon="15.933702878794989"><ele>662.0</ele><time>2026-05-02T10:00:27.999Z</time></trkpt><trkpt lat="39.98816817778584" lon="15.93383872432763"><ele>663.0</ele><time>2026-05-02T10:00:28.999Z</time></trkpt><trkpt lat="39.9878389839781" lon="15.93395179291921"><ele>664.0</ele><time>2026-05-02T10:00:29.999Z</time></trkpt><trkpt lat="39.987502163661404" lon="15.934046007801848"><ele>664.0</ele><time>2026-05-02T10:00:30.999Z</time></trkpt><trkpt lat="39.98715917965992" lon="15.934123772543028"><ele>664.0</ele><time>2026-05-02T10:00:31.999Z</time></trkpt><trkpt lat="39.986809904780195" lon="15.934184834492182"><ele>646.5</ele><time>2026-05-02T10:00:32.999Z</time></trkpt><trkpt lat="39.98646106104682" lon="15.934232623752193"><ele>629.0</ele><time>2026-05-02T10:00:33.999Z</time></trkpt><trkpt lat="39.986108592165294" lon="15.934263434764192"><ele>637.5</ele><time>2026-05-02T10:00:34.999Z</time></trkpt><trkpt lat="39.98575556302513" lon="15.934294987292093"><ele>646.0</ele><time>2026-05-02T10:00:35.999Z</time></trkpt><trkpt lat="39.9854032052068" lon="15.934333747654717"><ele>646.0</ele><time>2026-05-02T10:00:36.999Z</time></trkpt><trkpt lat="39.98504628246623" lon="15.934371173577276"><ele>646.0</ele><time>2026-05-02T10:00:37.999Z</time></trkpt><trkpt lat="39.98468931791089" lon="15.934406891953877"><ele>649.5</ele><time>2026-05-02T10:00:38.999Z</time></trkpt><trkpt lat="39.98432824851187" lon="15.934444306263467"><ele>653.0</ele><time>2026-05-02T10:00:39.999Z</time></trkpt><trkpt lat="39.98396746774695" lon="15.934482494845163"><ele>653.0</ele><time>2026-05-02T10:00:40.999Z</time></trkpt><trkpt lat="39.98361062381659" lon="15.934522749143325"><ele>653.0</ele><time>2026-05-02T10:00:41.999Z</time></trkpt><trkpt lat="39.9832518213407" lon="15.93456326671011"><ele>641.5</ele><time>2026-05-02T10:00:42.999Z</time></trkpt><trkpt lat="39.98289511439164" lon="15.934603792166188"><ele>630.0</ele><time>2026-05-02T10:00:43.999Z</time></trkpt><trkpt lat="39.98254262823247" lon="15.934645117214416"><ele>631.5</ele><time>2026-05-02T10:00:44.999Z</time></trkpt><trkpt lat="39.98219156432501" lon="15.9346860113357"><ele>633.0</ele><time>2026-05-02T10:00:45.999Z</time></trkpt><trkpt lat="39.98183931090031" lon="15.934731951343663"><ele>636.5</ele><time>2026-05-02T10:00:46.999Z</time></trkpt><trkpt lat="39.981488018372445" lon="15.934781183197508"><ele>640.0</ele><time>2026-05-02T10:00:47.999Z</time></trkpt><trkpt lat="39.98113525507296" lon="15.934838703308658"><ele>629.5</ele><time>2026-05-02T10:00:48.999Z</time></trkpt><trkpt lat="39.98078315881284" lon="15.934906130160137"><ele>619.0</ele><time>2026-05-02T10:00:49.999Z</time></trkpt><trkpt lat="39.9804324784375" lon="15.934979392654654"><ele>614.0</ele><time>2026-05-02T10:00:50.999Z</time></trkpt><trkpt lat="39.980081138124454" lon="15.935055973218327"><ele>609.0</ele><time>2026-05-02T10:00:51.999Z</time></trkpt><trkpt lat="39.97973252254369" lon="15.935134688278522"><ele>608.5</ele><time>2026-05-02T10:00:52.999Z</time></trkpt><trkpt lat="39.97938375712694" lon="15.935214802422184"><ele>608.0</ele><time>2026-05-02T10:00:53.999Z</time></trkpt><trkpt lat="39.979034259005545" lon="15.935291341197827"><ele>608.0</ele><time>2026-05-02T10:00:54.999Z</time></trkpt><trkpt lat="39.97868738640966" lon="15.935365692494102"><ele>608.0</ele><time>2026-05-02T10:00:55.999Z</time></trkpt><trkpt lat="39.97833956364939" lon="15.935441616155584"><ele>615.5</ele><time>2026-05-02T10:00:56.999Z</time></trkpt><trkpt lat="39.97799130478501" lon="15.935518232820876"><ele>623.0</ele><time>2026-05-02T10:00:57.999Z</time></trkpt><trkpt lat="39.97764402251568" lon="15.93559506105021"><ele>620.0</ele><time>2026-05-02T10:00:58.999Z</time></trkpt><trkpt lat="39.97729591064844" lon="15.935671139361132"><ele>617.0</ele><time>2026-05-02T10:00:59.999Z</time></trkpt><trkpt lat="39.97694748753738" lon="15.935747887340034"><ele>615.5</ele><time>2026-05-02T10:01:00.999Z</time></trkpt><trkpt lat="39.97660218210966" lon="15.93582520224293"><ele>614.0</ele><time>2026-05-02T10:01:01.999Z</time></trkpt><trkpt lat="39.97625530137723" lon="15.935903710545702"><ele>610.5</ele><time>2026-05-02T10:01:02.999Z</time></trkpt><trkpt lat="39.97590789495912" lon="15.935982481691438"><ele>607.0</ele><time>2026-05-02T10:01:03.999Z</time></trkpt><trkpt lat="39.97556068212778" lon="15.936061171709323"><ele>607.0</ele><time>2026-05-02T10:01:04.999Z</time></trkpt><trkpt lat="39.975215663305214" lon="15.93614107890095"><ele>607.0</ele><time>2026-05-02T10:01:05.999Z</time></trkpt><trkpt lat="39.97487157758561" lon="15.936214213330478"><ele>606.0</ele><time>2026-05-02T10:01:06.999Z</time></trkpt><trkpt lat="39.97452739022029" lon="15.936270501597086"><ele>605.0</ele><time>2026-05-02T10:01:07.999Z</time></trkpt><trkpt lat="39.974187927786154" lon="15.93629379829066"><ele>601.5</ele><time>2026-05-02T10:01:08.999Z</time></trkpt><trkpt lat="39.973853081537236" lon="15.936278003113042"><ele>598.0</ele><time>2026-05-02T10:01:09.999Z</time></trkpt><trkpt lat="39.97351703980142" lon="15.936221609611533"><ele>596.0</ele><time>2026-05-02T10:01:10.999Z</time></trkpt><trkpt lat="39.9731845814132" lon="15.936132462126233"><ele>594.0</ele><time>2026-05-02T10:01:11.999Z</time></trkpt><trkpt lat="39.97286297578898" lon="15.935991519171258"><ele>594.0</ele><time>2026-05-02T10:01:12.999Z</time></trkpt><trkpt lat="39.97255482732639" lon="15.935811516244982"><ele>594.0</ele><time>2026-05-02T10:01:13.999Z</time></trkpt><trkpt lat="39.97225922740671" lon="15.935598866047762"><ele>594.0</ele><time>2026-05-02T10:01:14.999Z</time></trkpt><trkpt lat="39.97197768652932" lon="15.935341132628263"><ele>594.0</ele><time>2026-05-02T10:01:15.999Z</time></trkpt><trkpt lat="39.97170923311671" lon="15.935051690765413"><ele>591.0</ele><time>2026-05-02T10:01:16.999Z</time></trkpt><trkpt lat="39.971454079717915" lon="15.934740789233064"><ele>588.0</ele><time>2026-05-02T10:01:17.999Z</time></trkpt><trkpt lat="39.97120304908905" lon="15.9344252531687"><ele>586.5</ele><time>2026-05-02T10:01:18.999Z</time></trkpt><trkpt lat="39.97095364233771" lon="15.934110812016804"><ele>585.0</ele><time>2026-05-02T10:01:19.999Z</time></trkpt><trkpt lat="39.970705403167166" lon="15.933802056951146"><ele>584.5</ele><time>2026-05-02T10:01:21Z</time></trkpt><trkpt lat="39.97045229073766" lon="15.933517606921825"><ele>584.0</ele><time>2026-05-02T10:01:22Z</time></trkpt><trkpt lat="39.97018952185285" lon="15.933259977230362"><ele>579.5</ele><time>2026-05-02T10:01:23Z</time></trkpt><trkpt lat="39.96991043495266" lon="15.933036892871186"><ele>575.0</ele><time>2026-05-02T10:01:24Z</time></trkpt><trkpt lat="39.96961442664861" lon="15.932844939835325"><ele>575.0</ele><time>2026-05-02T10:01:25Z</time></trkpt><trkpt lat="39.969298082406404" lon="15.932684902901604"><ele>575.0</ele><time>2026-05-02T10:01:26Z</time></trkpt><trkpt lat="39.96896442374554" lon="15.9325628414637"><ele>574.0</ele><time>2026-05-02T10:01:27Z</time></trkpt><trkpt lat="39.968627726151325" lon="15.93248365430121"><ele>573.0</ele><time>2026-05-02T10:01:28Z</time></trkpt><trkpt lat="39.968302035533355" lon="15.932444781850284"><ele>570.0</ele><time>2026-05-02T10:01:29Z</time></trkpt><trkpt lat="39.96798600153618" lon="15.93244653218192"><ele>567.0</ele><time>2026-05-02T10:01:30Z</time></trkpt><trkpt lat="39.967659132065684" lon="15.932468841349536"><ele>565.5</ele><time>2026-05-02T10:01:31Z</time></trkpt><trkpt lat="39.967326495326624" lon="15.932501104604553"><ele>564.0</ele><time>2026-05-02T10:01:32Z</time></trkpt><trkpt lat="39.96698533318031" lon="15.932520106006095"><ele>561.0</ele><time>2026-05-02T10:01:33Z</time></trkpt><trkpt lat="39.96663876447921" lon="15.93252725006985"><ele>558.0</ele><time>2026-05-02T10:01:34Z</time></trkpt><trkpt lat="39.966285129044564" lon="15.932536172615274"><ele>558.0</ele><time>2026-05-02T10:01:35Z</time></trkpt><trkpt lat="39.96593055932165" lon="15.932552764297222"><ele>558.0</ele><time>2026-05-02T10:01:36Z</time></trkpt><trkpt lat="39.965574394977004" lon="15.932571747163935"><ele>557.0</ele><time>2026-05-02T10:01:37Z</time></trkpt><trkpt lat="39.96521693368206" lon="15.932594255332733"><ele>556.0</ele><time>2026-05-02T10:01:38Z</time></trkpt><trkpt lat="39.96485807536741" lon="15.932616471702303"><ele>555.5</ele><time>2026-05-02T10:01:39Z</time></trkpt><trkpt lat="39.9645005062594" lon="15.932637998898848"><ele>555.0</ele><time>2026-05-02T10:01:40Z</time></trkpt><trkpt lat="39.96414387109317" lon="15.932661340159704"><ele>554.0</ele><time>2026-05-02T10:01:41Z</time></trkpt><trkpt lat="39.96378997751584" lon="15.9326981827662"><ele>553.0</ele><time>2026-05-02T10:01:42Z</time></trkpt><trkpt lat="39.96343597769249" lon="15.93275389972344"><ele>549.5</ele><time>2026-05-02T10:01:43Z</time></trkpt><trkpt lat="39.96308564317233" lon="15.932820537531468"><ele>546.0</ele><time>2026-05-02T10:01:44Z</time></trkpt><trkpt lat="39.96273716971418" lon="15.932888471550337"><ele>541.0</ele><time>2026-05-02T10:01:45Z</time></trkpt><trkpt lat="39.9623896189644" lon="15.93295494212525"><ele>536.0</ele><time>2026-05-02T10:01:46Z</time></trkpt><trkpt lat="39.96204283825639" lon="15.933017948702743"><ele>536.0</ele><time>2026-05-02T10:01:47Z</time></trkpt><trkpt lat="39.96170057380781" lon="15.933080613125986"><ele>536.0</ele><time>2026-05-02T10:01:48Z</time></trkpt><trkpt lat="39.96136335746741" lon="15.933150007377963"><ele>533.0</ele><time>2026-05-02T10:01:49Z</time></trkpt><trkpt lat="39.961027133472385" lon="15.933231484868713"><ele>530.0</ele><time>2026-05-02T10:01:50Z</time></trkpt><trkpt lat="39.960693268087375" lon="15.933324661026234"><ele>519.0</ele><time>2026-05-02T10:01:51Z</time></trkpt><trkpt lat="39.9603609684771" lon="15.93343238389298"><ele>508.0</ele><time>2026-05-02T10:01:52Z</time></trkpt><trkpt lat="39.960033225141125" lon="15.933557390010115"><ele>497.5</ele><time>2026-05-02T10:01:53Z</time></trkpt><trkpt lat="39.959706753200486" lon="15.933698225670904"><ele>487.0</ele><time>2026-05-02T10:01:54Z</time></trkpt><trkpt lat="39.95938311791556" lon="15.933854148077167"><ele>475.5</ele><time>2026-05-02T10:01:55Z</time></trkpt><trkpt lat="39.959064868517245" lon="15.934022283901493"><ele>464.0</ele><time>2026-05-02T10:01:56Z</time></trkpt><trkpt lat="39.95874811367849" lon="15.934197411295601"><ele>453.0</ele><time>2026-05-02T10:01:57Z</time></trkpt><trkpt lat="39.95843260581276" lon="15.93437445174264"><ele>442.0</ele><time>2026-05-02T10:01:58Z</time></trkpt><trkpt lat="39.958116793095385" lon="15.934554265307263"><ele>434.5</ele><time>2026-05-02T10:01:59Z</time></trkpt><trkpt lat="39.95780195831229" lon="15.934734555128896"><ele>427.0</ele><time>2026-05-02T10:02:00Z</time></trkpt><trkpt lat="39.95749058217468" lon="15.934913578980385"><ele>419.5</ele><time>2026-05-02T10:02:01Z</time></trkpt><trkpt lat="39.95718412704682" lon="15.935085172496699"><ele>412.0</ele><time>2026-05-02T10:02:02Z</time></trkpt><trkpt lat="39.956885038545465" lon="15.935253691979296"><ele>432.0</ele><time>2026-05-02T10:02:03Z</time></trkpt><trkpt lat="39.95659525779285" lon="15.935429039355585"><ele>452.0</ele><time>2026-05-02T10:02:04Z</time></trkpt><trkpt lat="39.956310452905946" lon="15.935614735327407"><ele>452.0</ele><time>2026-05-02T10:02:05Z</time></trkpt><trkpt lat="39.956027460764496" lon="15.935805924310412"><ele>452.0</ele><time>2026-05-02T10:02:05.999Z</time></trkpt><trkpt lat="39.95574621507326" lon="15.936003609375112"><ele>483.5</ele><time>2026-05-02T10:02:06.999Z</time></trkpt><trkpt lat="39.95546594586753" lon="15.93621499053428"><ele>515.0</ele><time>2026-05-02T10:02:07.999Z</time></trkpt><trkpt lat="39.95518823552545" lon="15.93644011556024"><ele>521.0</ele><time>2026-05-02T10:02:08.999Z</time></trkpt><trkpt lat="39.954912015786824" lon="15.936678061293428"><ele>527.0</ele><time>2026-05-02T10:02:09.999Z</time></trkpt><trkpt lat="39.95463905631787" lon="15.936931358952204"><ele>527.0</ele><time>2026-05-02T10:02:10.999Z</time></trkpt><trkpt lat="39.95437046312208" lon="15.93719531948072"><ele>527.0</ele><time>2026-05-02T10:02:11.999Z</time></trkpt><trkpt lat="39.954097700378504" lon="15.93747451183415"><ele>539.0</ele><time>2026-05-02T10:02:12.999Z</time></trkpt><trkpt lat="39.95382367541191" lon="15.937768499782667"><ele>551.0</ele><time>2026-05-02T10:02:13.999Z</time></trkpt><trkpt lat="39.95355059887827" lon="15.938077410930886"><ele>568.0</ele><time>2026-05-02T10:02:14.999Z</time></trkpt><trkpt lat="39.95328551399098" lon="15.93839909336365"><ele>585.0</ele><time>2026-05-02T10:02:15.999Z</time></trkpt><trkpt lat="39.953029397388114" lon="15.93873306273216"><ele>585.0</ele><time>2026-05-02T10:02:16.999Z</time></trkpt><trkpt lat="39.952781150487525" lon="15.939082926181012"><ele>585.0</ele><time>2026-05-02T10:02:17.999Z</time></trkpt><trkpt lat="39.95252097670364" lon="15.939468321071674"><ele>601.5</ele><time>2026-05-02T10:02:19.07Z</time></trkpt><trkpt lat="39.95227949962723" lon="15.93983371532963"><ele>618.0</ele><time>2026-05-02T10:02:20.071Z</time></trkpt><trkpt lat="39.94211654153907" lon="15.958851464829102"><ele>534.5</ele><time>2026-05-02T10:03:13.999Z</time></trkpt><trkpt lat="39.94178466638075" lon="15.958873544790427"><ele>451.0</ele><time>2026-05-02T10:03:14.999Z</time></trkpt><trkpt lat="39.94146447701604" lon="15.958840523766012"><ele>441.0</ele><time>2026-05-02T10:03:15.999Z</time></trkpt><trkpt lat="39.94115113147417" lon="15.958801349251813"><ele>431.0</ele><time>2026-05-02T10:03:16.999Z</time></trkpt><trkpt lat="39.940900028291246" lon="15.958735531540313"><ele>413.0</ele><time>2026-05-02T10:03:17.999Z</time></trkpt><trkpt lat="39.94062116141526" lon="15.95870012324329"><ele>395.0</ele><time>2026-05-02T10:03:18.999Z</time></trkpt><trkpt lat="39.9403609736129" lon="15.958681888156063"><ele>395.0</ele><time>2026-05-02T10:03:19.999Z</time></trkpt><trkpt lat="39.94008296432666" lon="15.958700551534967"><ele>395.0</ele><time>2026-05-02T10:03:20.999Z</time></trkpt><trkpt lat="39.939819613385644" lon="15.958754930272798"><ele>372.5</ele><time>2026-05-02T10:03:21.999Z</time></trkpt><trkpt lat="39.93953401683842" lon="15.958836591377967"><ele>350.0</ele><time>2026-05-02T10:03:22.999Z</time></trkpt><trkpt lat="39.93924554974368" lon="15.958954541445006"><ele>336.5</ele><time>2026-05-02T10:03:23.999Z</time></trkpt><trkpt lat="39.93896622727622" lon="15.959063114526842"><ele>323.0</ele><time>2026-05-02T10:03:24.999Z</time></trkpt><trkpt lat="39.9386822313883" lon="15.959152513565629"><ele>320.0</ele><time>2026-05-02T10:03:25.999Z</time></trkpt><trkpt lat="39.93840938100063" lon="15.959243782858099"><ele>317.0</ele><time>2026-05-02T10:03:27Z</time></trkpt><trkpt lat="39.9381402150418" lon="15.959335664416153"><ele>331.0</ele><time>2026-05-02T10:03:28Z</time></trkpt><trkpt lat="39.93787804976317" lon="15.959444598037841"><ele>345.0</ele><time>2026-05-02T10:03:29Z</time></trkpt><trkpt lat="39.937591442822075" lon="15.959524007202834"><ele>359.5</ele><time>2026-05-02T10:03:30Z</time></trkpt><trkpt lat="39.937476606653256" lon="15.959779432126087"><ele>374.0</ele><time>2026-05-02T10:03:31Z</time></trkpt><trkpt lat="39.937207278850735" lon="15.959886802845654"><ele>374.0</ele><time>2026-05-02T10:03:32Z</time></trkpt><trkpt lat="39.936925810510914" lon="15.959987774120593"><ele>374.0</ele><time>2026-05-02T10:03:33Z</time></trkpt><trkpt lat="39.93662730893523" lon="15.960089102392823"><ele>385.0</ele><time>2026-05-02T10:03:34Z</time></trkpt><trkpt lat="39.936321298541685" lon="15.96018024511394"><ele>396.0</ele><time>2026-05-02T10:03:35Z</time></trkpt><trkpt lat="39.93601245961806" lon="15.960268026172232"><ele>427.0</ele><time>2026-05-02T10:03:36Z</time></trkpt><trkpt lat="39.93532223351155" lon="15.960226198820301"><ele>441.5</ele><time>2026-05-02T10:03:37Z</time></trkpt><trkpt lat="39.93501436730615" lon="15.960335092072482"><ele>456.0</ele><time>2026-05-02T10:03:38Z</time></trkpt><trkpt lat="39.93476732576839" lon="15.960665787579616"><ele>456.0</ele><time>2026-05-02T10:03:39Z</time></trkpt><trkpt lat="39.934464649771556" lon="15.96082085773213"><ele>456.0</ele><time>2026-05-02T10:03:40Z</time></trkpt><trkpt lat="39.93417767815378" lon="15.960983899430968"><ele>471.5</ele><time>2026-05-02T10:03:41Z</time></trkpt><trkpt lat="39.9338941724275" lon="15.961162253892827"><ele>487.0</ele><time>2026-05-02T10:03:42Z</time></trkpt><trkpt lat="39.933613331005745" lon="15.961364978024715"><ele>487.5</ele><time>2026-05-02T10:03:43Z</time></trkpt><trkpt lat="39.93334025872723" lon="15.961576116414218"><ele>488.0</ele><time>2026-05-02T10:03:44Z</time></trkpt><trkpt lat="39.933056570723956" lon="15.961807467188159"><ele>488.0</ele><time>2026-05-02T10:03:45Z</time></trkpt><trkpt lat="39.93277681671695" lon="15.962042837589774"><ele>488.0</ele><time>2026-05-02T10:03:46Z</time></trkpt><trkpt lat="39.93250290170323" lon="15.962274671056992"><ele>488.0</ele><time>2026-05-02T10:03:47Z</time></trkpt><trkpt lat="39.93222922870832" lon="15.96250459047371"><ele>488.0</ele><time>2026-05-02T10:03:48Z</time></trkpt><trkpt lat="39.93196728311696" lon="15.962716739993635"><ele>487.5</ele><time>2026-05-02T10:03:49Z</time></trkpt><trkpt lat="39.93168398329157" lon="15.962937967433499"><ele>487.0</ele><time>2026-05-02T10:03:50Z</time></trkpt><trkpt lat="39.93140156643976" lon="15.963145434205476"><ele>487.0</ele><time>2026-05-02T10:03:51Z</time></trkpt><trkpt lat="39.931119453055956" lon="15.963342393556765"><ele>487.0</ele><time>2026-05-02T10:03:52Z</time></trkpt><trkpt lat="39.93081289956344" lon="15.96354142252397"><ele>497.5</ele><time>2026-05-02T10:03:53Z</time></trkpt><trkpt lat="39.930514781550784" lon="15.963702319913285"><ele>508.0</ele><time>2026-05-02T10:03:54Z</time></trkpt><trkpt lat="39.9302203228077" lon="15.963907394882618"><ele>511.5</ele><time>2026-05-02T10:03:55Z</time></trkpt><trkpt lat="39.92996371324227" lon="15.964102356996337"><ele>515.0</ele><time>2026-05-02T10:03:56Z</time></trkpt><trkpt lat="39.92964884314993" lon="15.964268068199933"><ele>520.0</ele><time>2026-05-02T10:03:57Z</time></trkpt><trkpt lat="39.929332896604656" lon="15.964434584261872"><ele>525.0</ele><time>2026-05-02T10:03:58Z</time></trkpt><trkpt lat="39.92893764135611" lon="15.964489994875903"><ele>531.0</ele><time>2026-05-02T10:03:59Z</time></trkpt><trkpt lat="39.928621061780035" lon="15.964625885819013"><ele>537.0</ele><time>2026-05-02T10:04:00Z</time></trkpt><trkpt lat="39.92830002267033" lon="15.964764719372061"><ele>542.0</ele><time>2026-05-02T10:04:01Z</time></trkpt><trkpt lat="39.92795429909848" lon="15.96490878701912"><ele>547.0</ele><time>2026-05-02T10:04:02.069Z</time></trkpt><trkpt lat="39.92763126449208" lon="15.9650448872761"><ele>553.0</ele><time>2026-05-02T10:04:03.068Z</time></trkpt><trkpt lat="39.92731091823987" lon="15.965185636561229"><ele>559.0</ele><time>2026-05-02T10:04:04.06Z</time></trkpt><trkpt lat="39.92699196037997" lon="15.965332035828396"><ele>558.0</ele><time>2026-05-02T10:04:05.064Z</time></trkpt><trkpt lat="39.92667223424431" lon="15.96547832687909"><ele>557.0</ele><time>2026-05-02T10:04:06.062Z</time></trkpt><trkpt lat="39.926347766495105" lon="15.965620771059873"><ele>536.0</ele><time>2026-05-02T10:04:07.064Z</time></trkpt><trkpt lat="39.92393753940533" lon="15.96656641393517"><ele>536.0</ele><time>2026-05-02T10:04:13.999Z</time></trkpt><trkpt lat="39.923597917395895" lon="15.966680218469959"><ele>536.0</ele><time>2026-05-02T10:04:14.999Z</time></trkpt><trkpt lat="39.92325537874952" lon="15.966787399838251"><ele>543.0</ele><time>2026-05-02T10:04:15.999Z</time></trkpt><trkpt lat="39.92292118390693" lon="15.966920253786316"><ele>550.0</ele><time>2026-05-02T10:04:16.999Z</time></trkpt><trkpt lat="39.9225887531401" lon="15.967042930759222"><ele>546.5</ele><time>2026-05-02T10:04:17.999Z</time></trkpt><trkpt lat="39.9222604396753" lon="15.967167588812789"><ele>543.0</ele><time>2026-05-02T10:04:18.999Z</time></trkpt><trkpt lat="39.92192668299743" lon="15.96728286428555"><ele>542.5</ele><time>2026-05-02T10:04:19.999Z</time></trkpt><trkpt lat="39.921593590087845" lon="15.967379989126725"><ele>542.0</ele><time>2026-05-02T10:04:20.999Z</time></trkpt><trkpt lat="39.92125431882967" lon="15.967456568097672"><ele>542.0</ele><time>2026-05-02T10:04:21.999Z</time></trkpt><trkpt lat="39.920906446653504" lon="15.967509042067034"><ele>542.0</ele><time>2026-05-02T10:04:22.999Z</time></trkpt><trkpt lat="39.9205778614759" lon="15.967536686911846"><ele>546.0</ele><time>2026-05-02T10:04:23.999Z</time></trkpt><trkpt lat="39.92023104139324" lon="15.967541887848066"><ele>550.0</ele><time>2026-05-02T10:04:24.999Z</time></trkpt><trkpt lat="39.919884200210156" lon="15.967522145737217"><ele>550.0</ele><time>2026-05-02T10:04:25.999Z</time></trkpt><trkpt lat="39.919538444602914" lon="15.967487017635474"><ele>550.0</ele><time>2026-05-02T10:04:26.999Z</time></trkpt><trkpt lat="39.919195209257445" lon="15.967425905598814"><ele>553.0</ele><time>2026-05-02T10:04:27.999Z</time></trkpt><trkpt lat="39.91885213356823" lon="15.96734738661716"><ele>556.0</ele><time>2026-05-02T10:04:28.999Z</time></trkpt><trkpt lat="39.91851111153134" lon="15.967249443782148"><ele>560.5</ele><time>2026-05-02T10:04:29.999Z</time></trkpt><trkpt lat="39.91817380794971" lon="15.967125719174692"><ele>565.0</ele><time>2026-05-02T10:04:30.999Z</time></trkpt><trkpt lat="39.91784104963546" lon="15.966979971415281"><ele>564.0</ele><time>2026-05-02T10:04:31.999Z</time></trkpt><trkpt lat="39.917511182309525" lon="15.966813634314548"><ele>563.0</ele><time>2026-05-02T10:04:32.999Z</time></trkpt><trkpt lat="39.91718790910001" lon="15.966629607514651"><ele>563.0</ele><time>2026-05-02T10:04:33.999Z</time></trkpt><trkpt lat="39.916866720170546" lon="15.966432476463755"><ele>563.0</ele><time>2026-05-02T10:04:34.999Z</time></trkpt><trkpt lat="39.916550427884324" lon="15.966226236745513"><ele>563.5</ele><time>2026-05-02T10:04:35.999Z</time></trkpt><trkpt lat="39.916236946842645" lon="15.966023180491502"><ele>564.0</ele><time>2026-05-02T10:04:36.999Z</time></trkpt><trkpt lat="39.915919858216995" lon="15.965822363930725"><ele>567.0</ele><time>2026-05-02T10:04:37.999Z</time></trkpt><trkpt lat="39.91560582428582" lon="15.965619895316083"><ele>570.0</ele><time>2026-05-02T10:04:38.999Z</time></trkpt><trkpt lat="39.91529037078221" lon="15.965417404686429"><ele>571.5</ele><time>2026-05-02T10:04:39.999Z</time></trkpt><trkpt lat="39.91497138223862" lon="15.9652145782604"><ele>573.0</ele><time>2026-05-02T10:04:40.999Z</time></trkpt><trkpt lat="39.91465205197435" lon="15.96501360840055"><ele>573.0</ele><time>2026-05-02T10:04:41.999Z</time></trkpt><trkpt lat="39.914333840006506" lon="15.964811934662139"><ele>573.0</ele><time>2026-05-02T10:04:42.999Z</time></trkpt><trkpt lat="39.91401706381493" lon="15.964611821653985"><ele>574.5</ele><time>2026-05-02T10:04:43.999Z</time></trkpt><trkpt lat="39.91369794464477" lon="15.96441110605094"><ele>576.0</ele><time>2026-05-02T10:04:44.999Z</time></trkpt><trkpt lat="39.913383767121154" lon="15.964213494604238"><ele>581.5</ele><time>2026-05-02T10:04:45.999Z</time></trkpt><trkpt lat="39.91306976485792" lon="15.964017430567058"><ele>587.0</ele><time>2026-05-02T10:04:46.999Z</time></trkpt><trkpt lat="39.912755551513904" lon="15.963820284547468"><ele>590.5</ele><time>2026-05-02T10:04:47.999Z</time></trkpt><trkpt lat="39.91243663697715" lon="15.963618068098855"><ele>594.0</ele><time>2026-05-02T10:04:48.999Z</time></trkpt><trkpt lat="39.91211754420027" lon="15.9634132182454"><ele>594.5</ele><time>2026-05-02T10:04:49.999Z</time></trkpt><trkpt lat="39.91180108488136" lon="15.963215042343007"><ele>595.0</ele><time>2026-05-02T10:04:50.999Z</time></trkpt><trkpt lat="39.91148488351379" lon="15.963020758662104"><ele>595.0</ele><time>2026-05-02T10:04:51.999Z</time></trkpt><trkpt lat="39.911166515618994" lon="15.962831053147317"><ele>595.0</ele><time>2026-05-02T10:04:52.999Z</time></trkpt><trkpt lat="39.910843503731755" lon="15.962655584431564"><ele>595.0</ele><time>2026-05-02T10:04:53.999Z</time></trkpt><trkpt lat="39.910514999501025" lon="15.96249732123029"><ele>595.0</ele><time>2026-05-02T10:04:54.999Z</time></trkpt><trkpt lat="39.91018416243099" lon="15.962367165654927"><ele>597.0</ele><time>2026-05-02T10:04:55.999Z</time></trkpt><trkpt lat="39.90986101452557" lon="15.962263284917858"><ele>599.0</ele><time>2026-05-02T10:04:56.999Z</time></trkpt><trkpt lat="39.90955046334498" lon="15.962188301763739"><ele>599.0</ele><time>2026-05-02T10:04:57.999Z</time></trkpt><trkpt lat="39.90925306402414" lon="15.962134165899293"><ele>599.0</ele><time>2026-05-02T10:04:58.999Z</time></trkpt><trkpt lat="39.908967782607135" lon="15.9620986824739"><ele>603.5</ele><time>2026-05-02T10:04:59.999Z</time></trkpt><trkpt lat="39.90869242964441" lon="15.962080848180186"><ele>608.0</ele><time>2026-05-02T10:05:00.999Z</time></trkpt><trkpt lat="39.908414409287175" lon="15.962082513803868"><ele>612.0</ele><time>2026-05-02T10:05:01.999Z</time></trkpt><trkpt lat="39.90813018745599" lon="15.962104621266619"><ele>616.0</ele><time>2026-05-02T10:05:02.999Z</time></trkpt><trkpt lat="39.90784959380389" lon="15.962140106281785"><ele>614.5</ele><time>2026-05-02T10:05:03.999Z</time></trkpt><trkpt lat="39.9075679595925" lon="15.962195136798531"><ele>613.0</ele><time>2026-05-02T10:05:04.999Z</time></trkpt><trkpt lat="39.907282746372616" lon="15.962270801753247"><ele>613.0</ele><time>2026-05-02T10:05:05.999Z</time></trkpt><trkpt lat="39.906990488688095" lon="15.962367783020419"><ele>613.0</ele><time>2026-05-02T10:05:06.999Z</time></trkpt><trkpt lat="39.90669872524264" lon="15.962482849341637"><ele>615.0</ele><time>2026-05-02T10:05:07.999Z</time></trkpt><trkpt lat="39.90641048902934" lon="15.962626882777151"><ele>617.0</ele><time>2026-05-02T10:05:08.999Z</time></trkpt><trkpt lat="39.90613137319634" lon="15.962789460050407"><ele>617.5</ele><time>2026-05-02T10:05:09.999Z</time></trkpt><trkpt lat="39.90586132351487" lon="15.962986559866838"><ele>618.0</ele><time>2026-05-02T10:05:10.999Z</time></trkpt><trkpt lat="39.90559904708964" lon="15.96319598262206"><ele>623.5</ele><time>2026-05-02T10:05:11.999Z</time></trkpt><trkpt lat="39.905337504637195" lon="15.963422754285718"><ele>629.0</ele><time>2026-05-02T10:05:12.999Z</time></trkpt><trkpt lat="39.90508537062595" lon="15.963669890512573"><ele>630.5</ele><time>2026-05-02T10:05:13.999Z</time></trkpt><trkpt lat="39.904845572351476" lon="15.96393986339789"><ele>632.0</ele><time>2026-05-02T10:05:14.999Z</time></trkpt><trkpt lat="39.90462187260833" lon="15.964232632506688"><ele>632.0</ele><time>2026-05-02T10:05:15.999Z</time></trkpt><trkpt lat="39.904412636193356" lon="15.964544976865705"><ele>632.0</ele><time>2026-05-02T10:05:16.999Z</time></trkpt><trkpt lat="39.904216815514175" lon="15.964870150606034"><ele>644.5</ele><time>2026-05-02T10:05:17.999Z</time></trkpt><trkpt lat="39.904032647472064" lon="15.965203991829258"><ele>657.0</ele><time>2026-05-02T10:05:18.999Z</time></trkpt><trkpt lat="39.90384499701874" lon="15.965561432895328"><ele>670.5</ele><time>2026-05-02T10:05:19.999Z</time></trkpt><trkpt lat="39.903656836945736" lon="15.965941500061332"><ele>684.0</ele><time>2026-05-02T10:05:20.999Z</time></trkpt><trkpt lat="39.90346897411756" lon="15.966329375831119"><ele>716.5</ele><time>2026-05-02T10:05:21.999Z</time></trkpt><trkpt lat="39.90328137638207" lon="15.966726823149203"><ele>749.0</ele><time>2026-05-02T10:05:22.999Z</time></trkpt><trkpt lat="39.90309340088215" lon="15.967121638556028"><ele>750.0</ele><time>2026-05-02T10:05:23.999Z</time></trkpt><trkpt lat="39.90289693349243" lon="15.967543774015061"><ele>751.0</ele><time>2026-05-02T10:05:25.067Z</time></trkpt><trkpt lat="39.90271090535" lon="15.96794188505422"><ele>756.0</ele><time>2026-05-02T10:05:26.068Z</time></trkpt><trkpt lat="39.9025208317374" lon="15.968343902566309"><ele>761.0</ele><time>2026-05-02T10:05:27.069Z</time></trkpt><trkpt lat="39.90233011199288" lon="15.968743913158402"><ele>660.0</ele><time>2026-05-02T10:05:28.069Z</time></trkpt><trkpt lat="39.90024483041517" lon="15.97412295004886"><ele>659.5</ele><time>2026-05-02T10:05:43.998Z</time></trkpt><trkpt lat="39.90018775157516" lon="15.974385894393537"><ele>659.0</ele><time>2026-05-02T10:05:44.998Z</time></trkpt><trkpt lat="39.90000560379766" lon="15.974760490364591"><ele>659.0</ele><time>2026-05-02T10:05:45.998Z</time></trkpt><trkpt lat="39.899823829116144" lon="15.975100969684712"><ele>659.0</ele><time>2026-05-02T10:05:46.998Z</time></trkpt><trkpt lat="39.89964172180389" lon="15.975467464243291"><ele>659.0</ele><time>2026-05-02T10:05:47.998Z</time></trkpt><trkpt lat="39.899453653218075" lon="15.975816200112343"><ele>659.0</ele><time>2026-05-02T10:05:48.998Z</time></trkpt><trkpt lat="39.899251285046006" lon="15.976154918659125"><ele>661.5</ele><time>2026-05-02T10:05:50Z</time></trkpt><trkpt lat="39.89903997588913" lon="15.976482623320685"><ele>664.0</ele><time>2026-05-02T10:05:51Z</time></trkpt><trkpt lat="39.898815617660894" lon="15.976795241516491"><ele>664.0</ele><time>2026-05-02T10:05:52Z</time></trkpt><trkpt lat="39.89857829482927" lon="15.977096388388805"><ele>664.0</ele><time>2026-05-02T10:05:53Z</time></trkpt><trkpt lat="39.898328897580726" lon="15.977381973241627"><ele>682.0</ele><time>2026-05-02T10:05:54Z</time></trkpt><trkpt lat="39.89806791458096" lon="15.977655372472203"><ele>700.0</ele><time>2026-05-02T10:05:55Z</time></trkpt><trkpt lat="39.897805228512105" lon="15.977922907493966"><ele>695.5</ele><time>2026-05-02T10:05:56Z</time></trkpt><trkpt lat="39.897544809301" lon="15.97820092384766"><ele>691.0</ele><time>2026-05-02T10:05:57Z</time></trkpt><trkpt lat="39.897283600901105" lon="15.978473838845899"><ele>691.0</ele><time>2026-05-02T10:05:58Z</time></trkpt><trkpt lat="39.89702283035983" lon="15.978745653184886"><ele>691.0</ele><time>2026-05-02T10:05:59Z</time></trkpt><trkpt lat="39.89674644456992" lon="15.979030265148149"><ele>679.0</ele><time>2026-05-02T10:06:00.056Z</time></trkpt><trkpt lat="39.89647460138356" lon="15.979297644059"><ele>667.0</ele><time>2026-05-02T10:06:01.051Z</time></trkpt><trkpt lat="39.89619756021521" lon="15.979564149002865"><ele>667.0</ele><time>2026-05-02T10:06:02.051Z</time></trkpt><trkpt lat="39.89593077695411" lon="15.979832545652306"><ele>667.0</ele><time>2026-05-02T10:06:03.051Z</time></trkpt><trkpt lat="39.8798352971516" lon="15.987163647485811"><ele>707.0</ele><time>2026-05-02T10:06:54.999Z</time></trkpt><trkpt lat="39.87963258287885" lon="15.98755481764843"><ele>747.0</ele><time>2026-05-02T10:06:55.999Z</time></trkpt><trkpt lat="39.87941163590772" lon="15.987942809867421"><ele>751.0</ele><time>2026-05-02T10:06:56.999Z</time></trkpt><trkpt lat="39.87919851127121" lon="15.988323528287982"><ele>755.0</ele><time>2026-05-02T10:06:57.999Z</time></trkpt><trkpt lat="39.878990940454536" lon="15.988704349046463"><ele>762.5</ele><time>2026-05-02T10:06:58.999Z</time></trkpt><trkpt lat="39.878784267850996" lon="15.989079563588172"><ele>770.0</ele><time>2026-05-02T10:06:59.999Z</time></trkpt><trkpt lat="39.87857866137247" lon="15.989453753729586"><ele>770.5</ele><time>2026-05-02T10:07:00.999Z</time></trkpt><trkpt lat="39.878373937750446" lon="15.989828171393539"><ele>771.0</ele><time>2026-05-02T10:07:01.999Z</time></trkpt><trkpt lat="39.87816963654228" lon="15.990198324586808"><ele>773.5</ele><time>2026-05-02T10:07:02.999Z</time></trkpt><trkpt lat="39.877968759866334" lon="15.99056789898647"><ele>776.0</ele><time>2026-05-02T10:07:03.999Z</time></trkpt><trkpt lat="39.87777683208385" lon="15.990939581083634"><ele>776.0</ele><time>2026-05-02T10:07:04.999Z</time></trkpt><trkpt lat="39.87759963134521" lon="15.991313111167665"><ele>776.0</ele><time>2026-05-02T10:07:05.999Z</time></trkpt><trkpt lat="39.87744313298084" lon="15.991696110912295"><ele>776.0</ele><time>2026-05-02T10:07:06.999Z</time></trkpt><trkpt lat="39.87730960515163" lon="15.992081216862255"><ele>776.0</ele><time>2026-05-02T10:07:07.999Z</time></trkpt><trkpt lat="39.8771955621726" lon="15.992470203719712"><ele>778.5</ele><time>2026-05-02T10:07:08.999Z</time></trkpt><trkpt lat="39.877101223790376" lon="15.992866678239226"><ele>781.0</ele><time>2026-05-02T10:07:09.999Z</time></trkpt><trkpt lat="39.877026513311534" lon="15.993273867991581"><ele>782.5</ele><time>2026-05-02T10:07:10.999Z</time></trkpt><trkpt lat="39.876975729482936" lon="15.993688212306678"><ele>784.0</ele><time>2026-05-02T10:07:11.999Z</time></trkpt><trkpt lat="39.87694594595211" lon="15.99410531185233"><ele>784.0</ele><time>2026-05-02T10:07:12.999Z</time></trkpt><trkpt lat="39.876941844226145" lon="15.994521112166648"><ele>784.0</ele><time>2026-05-02T10:07:13.999Z</time></trkpt><trkpt lat="39.876958077936955" lon="15.994933918276278"><ele>783.0</ele><time>2026-05-02T10:07:14.999Z</time></trkpt><trkpt lat="39.876991161788595" lon="15.99534399551181"><ele>782.0</ele><time>2026-05-02T10:07:15.999Z</time></trkpt><trkpt lat="39.87703808227724" lon="15.995751670266992"><ele>780.0</ele><time>2026-05-02T10:07:16.999Z</time></trkpt><trkpt lat="39.877091049989204" lon="15.996157933588004"><ele>778.0</ele><time>2026-05-02T10:07:17.999Z</time></trkpt><trkpt lat="39.87714988156589" lon="15.996563929639727"><ele>779.5</ele><time>2026-05-02T10:07:18.999Z</time></trkpt><trkpt lat="39.87721922950738" lon="15.996971123516703"><ele>781.0</ele><time>2026-05-02T10:07:19.999Z</time></trkpt><trkpt lat="39.87729129958665" lon="15.997381577269307"><ele>783.0</ele><time>2026-05-02T10:07:20.999Z</time></trkpt><trkpt lat="39.877364804543056" lon="15.997790117420712"><ele>785.0</ele><time>2026-05-02T10:07:21.999Z</time></trkpt><trkpt lat="39.87743700215873" lon="15.998202068930732"><ele>783.5</ele><time>2026-05-02T10:07:22.999Z</time></trkpt><trkpt lat="39.87750868814882" lon="15.998616539716712"><ele>782.0</ele><time>2026-05-02T10:07:23.999Z</time></trkpt><trkpt lat="39.87757977823031" lon="15.999033767375582"><ele>789.0</ele><time>2026-05-02T10:07:24.999Z</time></trkpt><trkpt lat="39.87765099097201" lon="15.999453264201547"><ele>796.0</ele><time>2026-05-02T10:07:25.999Z</time></trkpt><trkpt lat="39.87772500474219" lon="15.999874654777054"><ele>796.0</ele><time>2026-05-02T10:07:26.999Z</time></trkpt><trkpt lat="39.87779937842761" lon="16.000293885223115"><ele>796.0</ele><time>2026-05-02T10:07:27.999Z</time></trkpt><trkpt lat="39.877875710804155" lon="16.000713302594928"><ele>796.5</ele><time>2026-05-02T10:07:28.999Z</time></trkpt><trkpt lat="39.87795223337774" lon="16.001130000079623"><ele>797.0</ele><time>2026-05-02T10:07:29.999Z</time></trkpt><trkpt lat="39.87803024678363" lon="16.001547192872405"><ele>796.5</ele><time>2026-05-02T10:07:30.999Z</time></trkpt><trkpt lat="39.87810869267379" lon="16.001967074854086"><ele>796.0</ele><time>2026-05-02T10:07:31.999Z</time></trkpt><trkpt lat="39.87818473117382" lon="16.00238543134161"><ele>796.0</ele><time>2026-05-02T10:07:32.999Z</time></trkpt><trkpt lat="39.878259100352466" lon="16.00280261212818"><ele>796.0</ele><time>2026-05-02T10:07:33.999Z</time></trkpt><trkpt lat="39.878333381875805" lon="16.003219871284884"><ele>797.0</ele><time>2026-05-02T10:07:34.999Z</time></trkpt><trkpt lat="39.87840850111093" lon="16.003639131211404"><ele>798.0</ele><time>2026-05-02T10:07:35.999Z</time></trkpt><trkpt lat="39.87848301055272" lon="16.00405811965014"><ele>808.5</ele><time>2026-05-02T10:07:36.999Z</time></trkpt><trkpt lat="39.87855781515528" lon="16.004477743295155"><ele>819.0</ele><time>2026-05-02T10:07:37.999Z</time></trkpt><trkpt lat="39.87863278369695" lon="16.00489902041081"><ele>821.5</ele><time>2026-05-02T10:07:38.999Z</time></trkpt><trkpt lat="39.87871141891054" lon="16.00531831014824"><ele>824.0</ele><time>2026-05-02T10:07:39.999Z</time></trkpt><trkpt lat="39.878797883072465" lon="16.005735329621587"><ele>824.0</ele><time>2026-05-02T10:07:40.999Z</time></trkpt><trkpt lat="39.87889333300322" lon="16.006145785431404"><ele>824.0</ele><time>2026-05-02T10:07:41.999Z</time></trkpt><trkpt lat="39.879003016427625" lon="16.006552183890044"><ele>823.5</ele><time>2026-05-02T10:07:42.999Z</time></trkpt><trkpt lat="39.87912785096679" lon="16.00695020129373"><ele>823.0</ele><time>2026-05-02T10:07:43.999Z</time></trkpt><trkpt lat="39.879269595916384" lon="16.007337934758"><ele>829.5</ele><time>2026-05-02T10:07:44.999Z</time></trkpt><trkpt lat="39.87943269626273" lon="16.00770845895275"><ele>836.0</ele><time>2026-05-02T10:07:45.999Z</time></trkpt><trkpt lat="39.879611409011716" lon="16.00806746191583"><ele>831.0</ele><time>2026-05-02T10:07:46.999Z</time></trkpt><trkpt lat="39.87980618585268" lon="16.008415436382318"><ele>826.0</ele><time>2026-05-02T10:07:47.999Z</time></trkpt><trkpt lat="39.88001307199665" lon="16.008750175932498"><ele>828.0</ele><time>2026-05-02T10:07:48.999Z</time></trkpt><trkpt lat="39.88023389947523" lon="16.009071070206247"><ele>830.0</ele><time>2026-05-02T10:07:49.999Z</time></trkpt><trkpt lat="39.88046566879239" lon="16.009375741424332"><ele>830.0</ele><time>2026-05-02T10:07:50.999Z</time></trkpt><trkpt lat="39.880709586847786" lon="16.00967023346773"><ele>830.0</ele><time>2026-05-02T10:07:51.999Z</time></trkpt><trkpt lat="39.88096114620659" lon="16.009953535070984"><ele>831.5</ele><time>2026-05-02T10:07:52.999Z</time></trkpt><trkpt lat="39.88121776553149" lon="16.01022955452634"><ele>833.0</ele><time>2026-05-02T10:07:53.999Z</time></trkpt><trkpt lat="39.88147653042821" lon="16.01050290966578"><ele>833.0</ele><time>2026-05-02T10:07:55Z</time></trkpt><trkpt lat="39.88173353819555" lon="16.01077620520016"><ele>833.0</ele><time>2026-05-02T10:07:56Z</time></trkpt><trkpt lat="39.881988218210424" lon="16.011050189182242"><ele>836.0</ele><time>2026-05-02T10:07:57Z</time></trkpt><trkpt lat="39.88223611381017" lon="16.011331928578112"><ele>839.0</ele><time>2026-05-02T10:07:58Z</time></trkpt><trkpt lat="39.882473261435614" lon="16.01162632323797"><ele>840.5</ele><time>2026-05-02T10:07:59Z</time></trkpt><trkpt lat="39.88270300134426" lon="16.011930193199547"><ele>842.0</ele><time>2026-05-02T10:08:00Z</time></trkpt><trkpt lat="39.882921017106206" lon="16.012246474412077"><ele>841.5</ele><time>2026-05-02T10:08:01Z</time></trkpt><trkpt lat="39.88312834158067" lon="16.01257433520733"><ele>841.0</ele><time>2026-05-02T10:08:02Z</time></trkpt><trkpt lat="39.88332218620124" lon="16.012915277486904"><ele>845.5</ele><time>2026-05-02T10:08:03Z</time></trkpt><trkpt lat="39.88350170312456" lon="16.013271623126244"><ele>850.0</ele><time>2026-05-02T10:08:04Z</time></trkpt><trkpt lat="39.883667495967806" lon="16.01363929625282"><ele>856.0</ele><time>2026-05-02T10:08:05Z</time></trkpt><trkpt lat="39.88381404660937" lon="16.01402100682279"><ele>862.0</ele><time>2026-05-02T10:08:06Z</time></trkpt><trkpt lat="39.883944070616025" lon="16.014414429067113"><ele>863.0</ele><time>2026-05-02T10:08:07Z</time></trkpt><trkpt lat="39.88405710733717" lon="16.014817910858984"><ele>864.0</ele><time>2026-05-02T10:08:08Z</time></trkpt><trkpt lat="39.88415225560758" lon="16.015218614072506"><ele>862.0</ele><time>2026-05-02T10:08:09Z</time></trkpt><trkpt lat="39.8842333740878" lon="16.01561449600386"><ele>860.0</ele><time>2026-05-02T10:08:10Z</time></trkpt><trkpt lat="39.88430466114096" lon="16.016009622235845"><ele>878.5</ele><time>2026-05-02T10:08:11Z</time></trkpt><trkpt lat="39.88436984495273" lon="16.01640482615072"><ele>897.0</ele><time>2026-05-02T10:08:12Z</time></trkpt><trkpt lat="39.88443276508126" lon="16.01679699986651"><ele>897.0</ele><time>2026-05-02T10:08:13Z</time></trkpt><trkpt lat="39.88449714763386" lon="16.017193317071442"><ele>897.0</ele><time>2026-05-02T10:08:14Z</time></trkpt><trkpt lat="39.884562284940486" lon="16.017586408849066"><ele>892.5</ele><time>2026-05-02T10:08:15Z</time></trkpt><trkpt lat="39.8846278856398" lon="16.01797589048153"><ele>888.0</ele><time>2026-05-02T10:08:16Z</time></trkpt><trkpt lat="39.88469646849958" lon="16.018362758445466"><ele>884.5</ele><time>2026-05-02T10:08:17Z</time></trkpt><trkpt lat="39.88476717761338" lon="16.018748096049922"><ele>881.0</ele><time>2026-05-02T10:08:18Z</time></trkpt><trkpt lat="39.88483912833627" lon="16.019131189514486"><ele>877.5</ele><time>2026-05-02T10:08:19Z</time></trkpt><trkpt lat="39.88491183505822" lon="16.019513943117193"><ele>874.0</ele><time>2026-05-02T10:08:20Z</time></trkpt><trkpt lat="39.88498983832478" lon="16.01989608068411"><ele>869.5</ele><time>2026-05-02T10:08:21Z</time></trkpt><trkpt lat="39.885074792431034" lon="16.020270544683594"><ele>865.0</ele><time>2026-05-02T10:08:22Z</time></trkpt><trkpt lat="39.88516518682764" lon="16.020635952878546"><ele>872.0</ele><time>2026-05-02T10:08:23Z</time></trkpt><trkpt lat="39.88525839464924" lon="16.02100087920878"><ele>879.0</ele><time>2026-05-02T10:08:24Z</time></trkpt><trkpt lat="39.88535358717291" lon="16.021366006075986"><ele>878.0</ele><time>2026-05-02T10:08:25Z</time></trkpt><trkpt lat="39.88545318554343" lon="16.02172766274611"><ele>877.0</ele><time>2026-05-02T10:08:26Z</time></trkpt><trkpt lat="39.88555454025969" lon="16.02208826852821"><ele>877.0</ele><time>2026-05-02T10:08:27Z</time></trkpt><trkpt lat="39.88565596727396" lon="16.022451572341925"><ele>877.0</ele><time>2026-05-02T10:08:28Z</time></trkpt><trkpt lat="39.88575744952449" lon="16.022816198977743"><ele>880.0</ele><time>2026-05-02T10:08:29Z</time></trkpt><trkpt lat="39.88586020936004" lon="16.023183034844386"><ele>883.0</ele><time>2026-05-02T10:08:30Z</time></trkpt><trkpt lat="39.8859628229716" lon="16.023552756809945"><ele>890.5</ele><time>2026-05-02T10:08:31Z</time></trkpt><trkpt lat="39.88606782866728" lon="16.02391647751988"><ele>898.0</ele><time>2026-05-02T10:08:32Z</time></trkpt><trkpt lat="39.886180438371746" lon="16.02427930245879"><ele>898.0</ele><time>2026-05-02T10:08:33Z</time></trkpt><trkpt lat="39.88629880106939" lon="16.02464030202141"><ele>898.0</ele><time>2026-05-02T10:08:34Z</time></trkpt><trkpt lat="39.88642596103957" lon="16.02499785269835"><ele>898.0</ele><time>2026-05-02T10:08:34.999Z</time></trkpt><trkpt lat="39.88656133935612" lon="16.02535137836783"><ele>898.0</ele><time>2026-05-02T10:08:35.999Z</time></trkpt><trkpt lat="39.886707040662344" lon="16.02569701584099"><ele>902.5</ele><time>2026-05-02T10:08:36.999Z</time></trkpt><trkpt lat="39.886859774334155" lon="16.026039280929908"><ele>907.0</ele><time>2026-05-02T10:08:37.999Z</time></trkpt><trkpt lat="39.88701680638144" lon="16.02637775873155"><ele>906.0</ele><time>2026-05-02T10:08:38.999Z</time></trkpt><trkpt lat="39.88717907269827" lon="16.02671161813302"><ele>905.0</ele><time>2026-05-02T10:08:39.999Z</time></trkpt><trkpt lat="39.88734013041538" lon="16.02704754577254"><ele>905.0</ele><time>2026-05-02T10:08:40.999Z</time></trkpt><trkpt lat="39.88749547861441" lon="16.02738007331289"><ele>905.0</ele><time>2026-05-02T10:08:41.999Z</time></trkpt><trkpt lat="39.88764739031326" lon="16.027709785300214"><ele>908.0</ele><time>2026-05-02T10:08:42.999Z</time></trkpt><trkpt lat="39.88779351158729" lon="16.028052666642807"><ele>911.0</ele><time>2026-05-02T10:08:43.999Z</time></trkpt><trkpt lat="39.88792518347341" lon="16.028402608238633"><ele>913.5</ele><time>2026-05-02T10:08:44.999Z</time></trkpt><trkpt lat="39.88804728907176" lon="16.028758874135526"><ele>916.0</ele><time>2026-05-02T10:08:45.999Z</time></trkpt><trkpt lat="39.88815926241266" lon="16.029121250797854"><ele>921.0</ele><time>2026-05-02T10:08:46.999Z</time></trkpt><trkpt lat="39.88825990667941" lon="16.029487240404016"><ele>926.0</ele><time>2026-05-02T10:08:47.999Z</time></trkpt><trkpt lat="39.888345253747104" lon="16.029863615535252"><ele>927.5</ele><time>2026-05-02T10:08:48.999Z</time></trkpt><trkpt lat="39.8884204450782" lon="16.030245216780525"><ele>929.0</ele><time>2026-05-02T10:08:49.999Z</time></trkpt><trkpt lat="39.888485387401396" lon="16.030633910762866"><ele>933.5</ele><time>2026-05-02T10:08:50.999Z</time></trkpt><trkpt lat="39.88854253958982" lon="16.031026442927832"><ele>938.0</ele><time>2026-05-02T10:08:51.999Z</time></trkpt><trkpt lat="39.88858426702378" lon="16.031421089020814"><ele>939.0</ele><time>2026-05-02T10:08:52.999Z</time></trkpt><trkpt lat="39.88861914139066" lon="16.031818524965853"><ele>940.0</ele><time>2026-05-02T10:08:53.999Z</time></trkpt><trkpt lat="39.88864858611612" lon="16.03221994025157"><ele>942.5</ele><time>2026-05-02T10:08:54.999Z</time></trkpt><trkpt lat="39.88867850615693" lon="16.032626513854495"><ele>945.0</ele><time>2026-05-02T10:08:55.999Z</time></trkpt><trkpt lat="39.888709557872694" lon="16.033030551881847"><ele>952.0</ele><time>2026-05-02T10:08:56.999Z</time></trkpt><trkpt lat="39.8887382914624" lon="16.033433349262246"><ele>959.0</ele><time>2026-05-02T10:08:57.999Z</time></trkpt><trkpt lat="39.88876612557957" lon="16.033831255322795"><ele>968.5</ele><time>2026-05-02T10:08:58.999Z</time></trkpt><trkpt lat="39.88879474717344" lon="16.03422545518885"><ele>978.0</ele><time>2026-05-02T10:08:59.999Z</time></trkpt><trkpt lat="39.88882285208275" lon="16.034616308095153"><ele>981.5</ele><time>2026-05-02T10:09:00.999Z</time></trkpt><trkpt lat="39.88885051272332" lon="16.035003923144092"><ele>985.0</ele><time>2026-05-02T10:09:01.999Z</time></trkpt><trkpt lat="39.88887805917879" lon="16.0353892928374"><ele>985.0</ele><time>2026-05-02T10:09:02.999Z</time></trkpt><trkpt lat="39.88890618163901" lon="16.03579964309334"><ele>985.0</ele><time>2026-05-02T10:09:04.067Z</time></trkpt><trkpt lat="39.888932218346945" lon="16.036180640651267"><ele>988.0</ele><time>2026-05-02T10:09:05.063Z</time></trkpt><trkpt lat="39.88895783061301" lon="16.036556174411015"><ele>991.0</ele><time>2026-05-02T10:09:06.049Z</time></trkpt><trkpt lat="39.88898365559037" lon="16.036931087641165"><ele>925.0</ele><time>2026-05-02T10:09:07.034Z</time></trkpt><trkpt lat="39.88917508176029" lon="16.039388964908486"><ele>925.0</ele><time>2026-05-02T10:09:12.999Z</time></trkpt><trkpt lat="39.88920327661049" lon="16.03977895820629"><ele>925.0</ele><time>2026-05-02T10:09:13.999Z</time></trkpt><trkpt lat="39.88923912635071" lon="16.04016797433441"><ele>938.0</ele><time>2026-05-02T10:09:14.999Z</time></trkpt><trkpt lat="39.8892613351556" lon="16.040546521423263"><ele>951.0</ele><time>2026-05-02T10:09:15.999Z</time></trkpt><trkpt lat="39.88928029123527" lon="16.040937508345465"><ele>951.0</ele><time>2026-05-02T10:09:16.999Z</time></trkpt><trkpt lat="39.8892910841257" lon="16.04132903565462"><ele>951.0</ele><time>2026-05-02T10:09:17.999Z</time></trkpt><trkpt lat="39.88929841675151" lon="16.04171921381323"><ele>958.0</ele><time>2026-05-02T10:09:18.999Z</time></trkpt><trkpt lat="39.88930171402003" lon="16.04211102948286"><ele>965.0</ele><time>2026-05-02T10:09:19.999Z</time></trkpt><trkpt lat="39.889179574080096" lon="16.04369051493681"><ele>972.5</ele><time>2026-05-02T10:09:23.999Z</time></trkpt><trkpt lat="39.8891364762167" lon="16.044087524120105"><ele>980.0</ele><time>2026-05-02T10:09:24.999Z</time></trkpt><trkpt lat="39.88830455200132" lon="16.04726476799653"><ele>987.0</ele><time>2026-05-02T10:09:30.141Z</time></trkpt><trkpt lat="39.88772965256479" lon="16.048587327120053"><ele>979.0</ele><time>2026-05-02T10:09:31.14Z</time></trkpt><trkpt lat="39.88703735150503" lon="16.049812451435095"><ele>968.0</ele><time>2026-05-02T10:09:32.141Z</time></trkpt><trkpt lat="39.886238288467204" lon="16.05091824507993"><ele>957.0</ele><time>2026-05-02T10:09:33.139Z</time></trkpt><trkpt lat="39.88509672691861" lon="16.052216074413487"><ele>952.0</ele><time>2026-05-02T10:09:48.999Z</time></trkpt><trkpt lat="39.88485548660583" lon="16.05251362226971"><ele>947.0</ele><time>2026-05-02T10:09:49.999Z</time></trkpt><trkpt lat="39.8846201477441" lon="16.052766386708385"><ele>947.0</ele><time>2026-05-02T10:09:50.999Z</time></trkpt><trkpt lat="39.88438217936816" lon="16.053039593554576"><ele>947.0</ele><time>2026-05-02T10:09:51.999Z</time></trkpt><trkpt lat="39.88414911255191" lon="16.053307117497805"><ele>946.0</ele><time>2026-05-02T10:09:52.999Z</time></trkpt><trkpt lat="39.88391641175209" lon="16.053573659958886"><ele>945.0</ele><time>2026-05-02T10:09:53.998Z</time></trkpt><trkpt lat="39.88368008660225" lon="16.053839541329545"><ele>945.0</ele><time>2026-05-02T10:09:54.998Z</time></trkpt><trkpt lat="39.883448701612195" lon="16.054104776795718"><ele>945.0</ele><time>2026-05-02T10:09:55.998Z</time></trkpt><trkpt lat="39.88321666528104" lon="16.054372345178493"><ele>946.0</ele><time>2026-05-02T10:09:56.998Z</time></trkpt><trkpt lat="39.88298481552453" lon="16.054642161638572"><ele>947.0</ele><time>2026-05-02T10:09:57.998Z</time></trkpt><trkpt lat="39.88275454577512" lon="16.054909539796117"><ele>948.5</ele><time>2026-05-02T10:09:58.998Z</time></trkpt><trkpt lat="39.88252063388965" lon="16.0551776304238"><ele>950.0</ele><time>2026-05-02T10:09:59.998Z</time></trkpt><trkpt lat="39.88228851602393" lon="16.055443733189843"><ele>950.0</ele><time>2026-05-02T10:10:01Z</time></trkpt><trkpt lat="39.882057276825634" lon="16.055708777477673"><ele>950.0</ele><time>2026-05-02T10:10:02Z</time></trkpt><trkpt lat="39.88182736702072" lon="16.055973288726626"><ele>952.0</ele><time>2026-05-02T10:10:03Z</time></trkpt><trkpt lat="39.88159708963778" lon="16.05623808116489"><ele>954.0</ele><time>2026-05-02T10:10:04Z</time></trkpt><trkpt lat="39.88136387024056" lon="16.056502514504764"><ele>956.5</ele><time>2026-05-02T10:10:05Z</time></trkpt><trkpt lat="39.881132019666545" lon="16.056770079402913"><ele>959.0</ele><time>2026-05-02T10:10:06Z</time></trkpt><trkpt lat="39.88089649232111" lon="16.057036970758897"><ele>960.0</ele><time>2026-05-02T10:10:07Z</time></trkpt><trkpt lat="39.88066385860743" lon="16.05730403527018"><ele>961.0</ele><time>2026-05-02T10:10:08Z</time></trkpt><trkpt lat="39.88043056023632" lon="16.05757430257874"><ele>962.5</ele><time>2026-05-02T10:10:09Z</time></trkpt><trkpt lat="39.88019686172141" lon="16.057845628404678"><ele>964.0</ele><time>2026-05-02T10:10:10Z</time></trkpt><trkpt lat="39.879967639398416" lon="16.058125721707125"><ele>965.5</ele><time>2026-05-02T10:10:11Z</time></trkpt><trkpt lat="39.8797441611962" lon="16.05841016442806"><ele>967.0</ele><time>2026-05-02T10:10:12Z</time></trkpt><trkpt lat="39.87952528856183" lon="16.058699682924026"><ele>967.0</ele><time>2026-05-02T10:10:13Z</time></trkpt><trkpt lat="39.87931114080191" lon="16.05899747505533"><ele>967.0</ele><time>2026-05-02T10:10:14Z</time></trkpt><trkpt lat="39.8791089630594" lon="16.059312576046224"><ele>969.0</ele><time>2026-05-02T10:10:15Z</time></trkpt><trkpt lat="39.878912713801924" lon="16.05963364643803"><ele>971.0</ele><time>2026-05-02T10:10:16Z</time></trkpt><trkpt lat="39.87872331809048" lon="16.059961064927837"><ele>972.0</ele><time>2026-05-02T10:10:17Z</time></trkpt><trkpt lat="39.87854562664557" lon="16.060298449389933"><ele>973.0</ele><time>2026-05-02T10:10:18Z</time></trkpt><trkpt lat="39.878377370844944" lon="16.060645725147385"><ele>975.0</ele><time>2026-05-02T10:10:19Z</time></trkpt><trkpt lat="39.87821716246687" lon="16.061002138336953"><ele>977.0</ele><time>2026-05-02T10:10:20Z</time></trkpt><trkpt lat="39.87806732291187" lon="16.06136880386544"><ele>978.0</ele><time>2026-05-02T10:10:21Z</time></trkpt><trkpt lat="39.87792701382362" lon="16.061740023706037"><ele>979.0</ele><time>2026-05-02T10:10:22Z</time></trkpt><trkpt lat="39.87779729030767" lon="16.062117998406137"><ele>978.5</ele><time>2026-05-02T10:10:23Z</time></trkpt><trkpt lat="39.877676089687284" lon="16.062497117205876"><ele>978.0</ele><time>2026-05-02T10:10:24Z</time></trkpt><trkpt lat="39.87756721500566" lon="16.062885779534827"><ele>978.0</ele><time>2026-05-02T10:10:25Z</time></trkpt><trkpt lat="39.87746640019925" lon="16.06327564996289"><ele>978.0</ele><time>2026-05-02T10:10:26Z</time></trkpt><trkpt lat="39.87736714798685" lon="16.0636653649558"><ele>978.5</ele><time>2026-05-02T10:10:27Z</time></trkpt><trkpt lat="39.87726705538324" lon="16.06405499118713"><ele>979.0</ele><time>2026-05-02T10:10:28Z</time></trkpt><trkpt lat="39.87716564688833" lon="16.064442582967352"><ele>980.5</ele><time>2026-05-02T10:10:29Z</time></trkpt><trkpt lat="39.877059014456435" lon="16.06482574623509"><ele>982.0</ele><time>2026-05-02T10:10:30Z</time></trkpt><trkpt lat="39.87694754745659" lon="16.065202105679575"><ele>983.0</ele><time>2026-05-02T10:10:31Z</time></trkpt><trkpt lat="39.87682683045487" lon="16.065570795127474"><ele>984.0</ele><time>2026-05-02T10:10:32Z</time></trkpt><trkpt lat="39.87669558052395" lon="16.06593373498529"><ele>982.0</ele><time>2026-05-02T10:10:33Z</time></trkpt><trkpt lat="39.876554544489544" lon="16.066292422566605"><ele>980.0</ele><time>2026-05-02T10:10:34Z</time></trkpt><trkpt lat="39.87640217205313" lon="16.066643833688943"><ele>980.0</ele><time>2026-05-02T10:10:35Z</time></trkpt><trkpt lat="39.87623852311073" lon="16.066987248667644"><ele>980.0</ele><time>2026-05-02T10:10:36Z</time></trkpt><trkpt lat="39.876066780567776" lon="16.067323136567683"><ele>981.0</ele><time>2026-05-02T10:10:37Z</time></trkpt><trkpt lat="39.87588578534854" lon="16.067646359845828"><ele>982.0</ele><time>2026-05-02T10:10:38Z</time></trkpt><trkpt lat="39.87569697458377" lon="16.06796421440436"><ele>985.0</ele><time>2026-05-02T10:10:39Z</time></trkpt><trkpt lat="39.87550021208959" lon="16.06827846827452"><ele>988.0</ele><time>2026-05-02T10:10:40Z</time></trkpt><trkpt lat="39.87529715119527" lon="16.06858679443188"><ele>987.0</ele><time>2026-05-02T10:10:41Z</time></trkpt><trkpt lat="39.8750896401748" lon="16.06888955325954"><ele>986.0</ele><time>2026-05-02T10:10:42Z</time></trkpt><trkpt lat="39.874877592511226" lon="16.069193864815155"><ele>988.0</ele><time>2026-05-02T10:10:43Z</time></trkpt><trkpt lat="39.874663630925795" lon="16.069499983246153"><ele>990.0</ele><time>2026-05-02T10:10:43.999Z</time></trkpt><trkpt lat="39.87445062876902" lon="16.06980489382346"><ele>990.5</ele><time>2026-05-02T10:10:44.999Z</time></trkpt><trkpt lat="39.87423909658346" lon="16.07011174217374"><ele>991.0</ele><time>2026-05-02T10:10:45.999Z</time></trkpt><trkpt lat="39.874028547970646" lon="16.070420651103255"><ele>991.0</ele><time>2026-05-02T10:10:46.999Z</time></trkpt><trkpt lat="39.87381797458395" lon="16.07073102066598"><ele>991.0</ele><time>2026-05-02T10:10:47.999Z</time></trkpt><trkpt lat="39.873605253092485" lon="16.07103921790194"><ele>991.0</ele><time>2026-05-02T10:10:48.999Z</time></trkpt><trkpt lat="39.87339355276694" lon="16.07134373735407"><ele>991.0</ele><time>2026-05-02T10:10:49.999Z</time></trkpt><trkpt lat="39.87318131807814" lon="16.071646942423254"><ele>992.5</ele><time>2026-05-02T10:10:50.999Z</time></trkpt><trkpt lat="39.87296955358746" lon="16.071951199484026"><ele>994.0</ele><time>2026-05-02T10:10:51.999Z</time></trkpt><trkpt lat="39.87276230347375" lon="16.072259848511738"><ele>990.5</ele><time>2026-05-02T10:10:52.999Z</time></trkpt><trkpt lat="39.87256171273777" lon="16.0725741591427"><ele>987.0</ele><time>2026-05-02T10:10:53.999Z</time></trkpt><trkpt lat="39.87236733458533" lon="16.072891291764474"><ele>987.0</ele><time>2026-05-02T10:10:54.999Z</time></trkpt><trkpt lat="39.872176841641114" lon="16.073216393272595"><ele>987.0</ele><time>2026-05-02T10:10:55.999Z</time></trkpt><trkpt lat="39.87198923581566" lon="16.073545628676577"><ele>988.0</ele><time>2026-05-02T10:10:56.999Z</time></trkpt><trkpt lat="39.87180164889508" lon="16.073877600033647"><ele>989.0</ele><time>2026-05-02T10:10:57.999Z</time></trkpt><trkpt lat="39.87161177286955" lon="16.074205726466083"><ele>986.5</ele><time>2026-05-02T10:10:58.999Z</time></trkpt><trkpt lat="39.87141980754996" lon="16.074532387010972"><ele>984.0</ele><time>2026-05-02T10:10:59.999Z</time></trkpt><trkpt lat="39.87122734823603" lon="16.074857209595148"><ele>984.5</ele><time>2026-05-02T10:11:00.999Z</time></trkpt><trkpt lat="39.87103508606441" lon="16.075180434664453"><ele>985.0</ele><time>2026-05-02T10:11:01.999Z</time></trkpt><trkpt lat="39.870840954786416" lon="16.0755075170571"><ele>983.0</ele><time>2026-05-02T10:11:02.999Z</time></trkpt><trkpt lat="39.87064569397223" lon="16.075832921825704"><ele>981.0</ele><time>2026-05-02T10:11:03.999Z</time></trkpt><trkpt lat="39.870447105570506" lon="16.076154001775077"><ele>981.0</ele><time>2026-05-02T10:11:04.999Z</time></trkpt><trkpt lat="39.870243509919945" lon="16.076467810697622"><ele>981.0</ele><time>2026-05-02T10:11:05.999Z</time></trkpt><trkpt lat="39.87002976561205" lon="16.076767393196988"><ele>980.0</ele><time>2026-05-02T10:11:06.999Z</time></trkpt><trkpt lat="39.86980820984001" lon="16.07705134850195"><ele>979.0</ele><time>2026-05-02T10:11:07.999Z</time></trkpt><trkpt lat="39.86957669837906" lon="16.07732131100412"><ele>978.0</ele><time>2026-05-02T10:11:08.999Z</time></trkpt><trkpt lat="39.86933553166791" lon="16.077581382192367"><ele>977.0</ele><time>2026-05-02T10:11:09.999Z</time></trkpt><trkpt lat="39.86909112994885" lon="16.077829766008097"><ele>977.0</ele><time>2026-05-02T10:11:10.999Z</time></trkpt><trkpt lat="39.868838925508435" lon="16.078062527158067"><ele>977.0</ele><time>2026-05-02T10:11:11.999Z</time></trkpt><trkpt lat="39.86858366913704" lon="16.078286628961205"><ele>978.5</ele><time>2026-05-02T10:11:12.999Z</time></trkpt><trkpt lat="39.868322865092715" lon="16.078507604360965"><ele>980.0</ele><time>2026-05-02T10:11:13.999Z</time></trkpt><trkpt lat="39.86805949998344" lon="16.078719757518904"><ele>980.0</ele><time>2026-05-02T10:11:14.999Z</time></trkpt><trkpt lat="39.86779561466929" lon="16.078930855951775"><ele>980.0</ele><time>2026-05-02T10:11:15.999Z</time></trkpt><trkpt lat="39.86753146107624" lon="16.079143977753034"><ele>986.0</ele><time>2026-05-02T10:11:16.999Z</time></trkpt><trkpt lat="39.86726622098752" lon="16.0793562471898"><ele>992.0</ele><time>2026-05-02T10:11:17.999Z</time></trkpt><trkpt lat="39.86699981006532" lon="16.07957037143679"><ele>990.0</ele><time>2026-05-02T10:11:18.999Z</time></trkpt><trkpt lat="39.866734650753436" lon="16.079790768675707"><ele>988.0</ele><time>2026-05-02T10:11:19.999Z</time></trkpt><trkpt lat="39.86647238417906" lon="16.08002197060153"><ele>1000.5</ele><time>2026-05-02T10:11:20.999Z</time></trkpt><trkpt lat="39.86621658219075" lon="16.08026500604679"><ele>1013.0</ele><time>2026-05-02T10:11:21.999Z</time></trkpt><trkpt lat="39.86596751999694" lon="16.08052065391834"><ele>1023.5</ele><time>2026-05-02T10:11:22.999Z</time></trkpt><trkpt lat="39.865726711574744" lon="16.080790445599487"><ele>1034.0</ele><time>2026-05-02T10:11:23.999Z</time></trkpt><trkpt lat="39.865480159318516" lon="16.081092131226864"><ele>1034.0</ele><time>2026-05-02T10:11:25.067Z</time></trkpt><trkpt lat="39.865259720773764" lon="16.08138457083229"><ele>1034.0</ele><time>2026-05-02T10:11:26.062Z</time></trkpt><trkpt lat="39.86505017218517" lon="16.081691895488547"><ele>1033.5</ele><time>2026-05-02T10:11:27.061Z</time></trkpt><trkpt lat="39.864849007348475" lon="16.08200730706044"><ele>1033.0</ele><time>2026-05-02T10:11:28.058Z</time></trkpt><trkpt lat="39.86465217566303" lon="16.08232824110125"><ele>1006.0</ele><time>2026-05-02T10:11:29.057Z</time></trkpt><trkpt lat="39.86415864622872" lon="16.083284316533312"><ele>1006.0</ele><time>2026-05-02T10:11:31.999Z</time></trkpt><trkpt lat="39.864086658983666" lon="16.083727173556603"><ele>1006.0</ele><time>2026-05-02T10:11:32.999Z</time></trkpt><trkpt lat="39.86399250781973" lon="16.084118010436047"><ele>1006.0</ele><time>2026-05-02T10:11:33.999Z</time></trkpt><trkpt lat="39.863885824527344" lon="16.084495652952597"><ele>1006.0</ele><time>2026-05-02T10:11:34.999Z</time></trkpt><trkpt lat="39.86379078416775" lon="16.084877214840656"><ele>1005.5</ele><time>2026-05-02T10:11:35.999Z</time></trkpt><trkpt lat="39.86370416061556" lon="16.08526980917513"><ele>1005.0</ele><time>2026-05-02T10:11:36.999Z</time></trkpt><trkpt lat="39.863633627872" lon="16.08566594409942"><ele>1004.5</ele><time>2026-05-02T10:11:37.999Z</time></trkpt><trkpt lat="39.86357702767462" lon="16.086067865973313"><ele>1004.0</ele><time>2026-05-02T10:11:38.999Z</time></trkpt><trkpt lat="39.863536307835254" lon="16.086472576546047"><ele>1004.5</ele><time>2026-05-02T10:11:39.999Z</time></trkpt><trkpt lat="39.86351018953649" lon="16.08687904574809"><ele>1005.0</ele><time>2026-05-02T10:11:40.999Z</time></trkpt><trkpt lat="39.863498075682685" lon="16.087288752831107"><ele>1006.0</ele><time>2026-05-02T10:11:41.999Z</time></trkpt><trkpt lat="39.86349926235261" lon="16.087697458147105"><ele>1007.0</ele><time>2026-05-02T10:11:42.999Z</time></trkpt><trkpt lat="39.863516172426706" lon="16.08810536502022"><ele>1007.5</ele><time>2026-05-02T10:11:43.999Z</time></trkpt><trkpt lat="39.86354360703195" lon="16.088512014595395"><ele>1008.0</ele><time>2026-05-02T10:11:44.999Z</time></trkpt><trkpt lat="39.8635885800451" lon="16.088916915893588"><ele>1009.0</ele><time>2026-05-02T10:11:45.999Z</time></trkpt><trkpt lat="39.86364606139305" lon="16.08932012166321"><ele>1010.0</ele><time>2026-05-02T10:11:46.999Z</time></trkpt><trkpt lat="39.86371743602124" lon="16.089718034935252"><ele>1011.0</ele><time>2026-05-02T10:11:47.999Z</time></trkpt><trkpt lat="39.863804172268296" lon="16.090109901114378"><ele>1012.0</ele><time>2026-05-02T10:11:48.999Z</time></trkpt><trkpt lat="39.86390253010283" lon="16.090499080228973"><ele>1013.5</ele><time>2026-05-02T10:11:49.999Z</time></trkpt><trkpt lat="39.86401570045302" lon="16.090880623382617"><ele>1015.0</ele><time>2026-05-02T10:11:50.999Z</time></trkpt><trkpt lat="39.86414238909651" lon="16.091254322013214"><ele>1015.5</ele><time>2026-05-02T10:11:51.999Z</time></trkpt><trkpt lat="39.86427845256129" lon="16.09161681254424"><ele>1016.0</ele><time>2026-05-02T10:11:52.999Z</time></trkpt><trkpt lat="39.864420907271985" lon="16.091972444199886"><ele>1017.5</ele><time>2026-05-02T10:11:53.999Z</time></trkpt><trkpt lat="39.86456923073497" lon="16.092329549295023"><ele>1019.0</ele><time>2026-05-02T10:11:54.999Z</time></trkpt><trkpt lat="39.86472394251393" lon="16.092692411359216"><ele>1022.0</ele><time>2026-05-02T10:11:55.999Z</time></trkpt><trkpt lat="39.86487896998844" lon="16.09305660903746"><ele>1025.0</ele><time>2026-05-02T10:11:56.999Z</time></trkpt><trkpt lat="39.86503290838443" lon="16.09342351601009"><ele>1031.0</ele><time>2026-05-02T10:11:57.999Z</time></trkpt><trkpt lat="39.86518582030852" lon="16.093793538769937"><ele>1037.0</ele><time>2026-05-02T10:11:58.999Z</time></trkpt><trkpt lat="39.865335079814066" lon="16.094167183800817"><ele>1049.0</ele><time>2026-05-02T10:11:59.999Z</time></trkpt><trkpt lat="39.86547975998423" lon="16.09454444946015"><ele>1061.0</ele><time>2026-05-02T10:12:00.999Z</time></trkpt><trkpt lat="39.86563343346485" lon="16.09494804201361"><ele>1071.5</ele><time>2026-05-02T10:12:02.066Z</time></trkpt><trkpt lat="39.86578136658743" lon="16.095326625348616"><ele>1082.0</ele><time>2026-05-02T10:12:03.067Z</time></trkpt><trkpt lat="39.86593293938031" lon="16.09570120028616"><ele>1076.5</ele><time>2026-05-02T10:12:04.064Z</time></trkpt><trkpt lat="39.86608641927965" lon="16.096075756143723"><ele>1071.0</ele><time>2026-05-02T10:12:05.062Z</time></trkpt><trkpt lat="39.867072797955" lon="16.09893220345565"><ele>1033.0</ele><time>2026-05-02T10:12:12.998Z</time></trkpt><trkpt lat="39.86716919603916" lon="16.099323882411813"><ele>995.0</ele><time>2026-05-02T10:12:13.998Z</time></trkpt><trkpt lat="39.8672638454198" lon="16.099713024328576"><ele>997.5</ele><time>2026-05-02T10:12:14.998Z</time></trkpt><trkpt lat="39.86734653977676" lon="16.100118849914118"><ele>1000.0</ele><time>2026-05-02T10:12:15.998Z</time></trkpt><trkpt lat="39.867399894594236" lon="16.100527991200998"><ele>1004.0</ele><time>2026-05-02T10:12:16.998Z</time></trkpt><trkpt lat="39.867437728409826" lon="16.100932750685367"><ele>1008.0</ele><time>2026-05-02T10:12:18Z</time></trkpt><trkpt lat="39.86747982877672" lon="16.10132612087996"><ele>1007.0</ele><time>2026-05-02T10:12:19Z</time></trkpt><trkpt lat="39.8675038404452" lon="16.101728659026282"><ele>1006.0</ele><time>2026-05-02T10:12:20Z</time></trkpt><trkpt lat="39.86752327811365" lon="16.102134211347977"><ele>1002.0</ele><time>2026-05-02T10:12:21Z</time></trkpt><trkpt lat="39.8675384610052" lon="16.102541277966203"><ele>998.0</ele><time>2026-05-02T10:12:22Z</time></trkpt><trkpt lat="39.86755276416543" lon="16.102950136685273"><ele>994.0</ele><time>2026-05-02T10:12:23Z</time></trkpt><trkpt lat="39.867568872091184" lon="16.10335908748733"><ele>990.0</ele><time>2026-05-02T10:12:24Z</time></trkpt><trkpt lat="39.867581846052666" lon="16.103768655518255"><ele>986.5</ele><time>2026-05-02T10:12:25Z</time></trkpt><trkpt lat="39.8675961457717" lon="16.1041809059689"><ele>983.0</ele><time>2026-05-02T10:12:26Z</time></trkpt><trkpt lat="39.86761000213964" lon="16.104591387566437"><ele>996.0</ele><time>2026-05-02T10:12:27Z</time></trkpt><trkpt lat="39.86762479160901" lon="16.105001265387667"><ele>1009.0</ele><time>2026-05-02T10:12:28Z</time></trkpt><trkpt lat="39.867639639933984" lon="16.10541034937319"><ele>1006.5</ele><time>2026-05-02T10:12:29Z</time></trkpt><trkpt lat="39.86765829713744" lon="16.10581747807486"><ele>1004.0</ele><time>2026-05-02T10:12:30Z</time></trkpt><trkpt lat="39.86767955695209" lon="16.106222389332117"><ele>1009.0</ele><time>2026-05-02T10:12:31Z</time></trkpt><trkpt lat="39.86770732031243" lon="16.10662573142122"><ele>1014.0</ele><time>2026-05-02T10:12:32Z</time></trkpt><trkpt lat="39.86774257183999" lon="16.10702759235179"><ele>1014.0</ele><time>2026-05-02T10:12:33Z</time></trkpt><trkpt lat="39.86778127799296" lon="16.107434253564417"><ele>1014.0</ele><time>2026-05-02T10:12:34Z</time></trkpt><trkpt lat="39.86782443823104" lon="16.107841532843086"><ele>1009.5</ele><time>2026-05-02T10:12:35Z</time></trkpt><trkpt lat="39.867868622277776" lon="16.108245761090235"><ele>1005.0</ele><time>2026-05-02T10:12:36Z</time></trkpt><trkpt lat="39.8679113630127" lon="16.108649869580898"><ele>1005.0</ele><time>2026-05-02T10:12:37Z</time></trkpt><trkpt lat="39.86795411715807" lon="16.10905218818235"><ele>1005.0</ele><time>2026-05-02T10:12:38Z</time></trkpt><trkpt lat="39.86799724054709" lon="16.109456221461517"><ele>996.0</ele><time>2026-05-02T10:12:39Z</time></trkpt><trkpt lat="39.868040760023675" lon="16.109862014047316"><ele>987.0</ele><time>2026-05-02T10:12:40Z</time></trkpt><trkpt lat="39.86808598253841" lon="16.110267055730898"><ele>987.0</ele><time>2026-05-02T10:12:41Z</time></trkpt><trkpt lat="39.86813152132611" lon="16.11067382718042"><ele>987.0</ele><time>2026-05-02T10:12:42Z</time></trkpt><trkpt lat="39.86817760843909" lon="16.11108285008869"><ele>986.5</ele><time>2026-05-02T10:12:43Z</time></trkpt><trkpt lat="39.86822493816265" lon="16.11149075592561"><ele>986.0</ele><time>2026-05-02T10:12:44Z</time></trkpt><trkpt lat="39.86827304909108" lon="16.111893892492244"><ele>986.0</ele><time>2026-05-02T10:12:45Z</time></trkpt><trkpt lat="39.8683241328329" lon="16.11229721479611"><ele>986.0</ele><time>2026-05-02T10:12:46Z</time></trkpt><trkpt lat="39.86837786969565" lon="16.112700229036417"><ele>984.0</ele><time>2026-05-02T10:12:47Z</time></trkpt><trkpt lat="39.868434553110546" lon="16.113102875515125"><ele>982.0</ele><time>2026-05-02T10:12:48Z</time></trkpt><trkpt lat="39.86849480078896" lon="16.113505211434685"><ele>978.0</ele><time>2026-05-02T10:12:49Z</time></trkpt><trkpt lat="39.86856172548823" lon="16.113902931781144"><ele>974.0</ele><time>2026-05-02T10:12:50Z</time></trkpt><trkpt lat="39.86863756812462" lon="16.114299829320373"><ele>975.5</ele><time>2026-05-02T10:12:51Z</time></trkpt><trkpt lat="39.868714615325786" lon="16.11469430645153"><ele>977.0</ele><time>2026-05-02T10:12:52Z</time></trkpt><trkpt lat="39.868787065829665" lon="16.115088452482638"><ele>977.0</ele><time>2026-05-02T10:12:53Z</time></trkpt><trkpt lat="39.86885880618134" lon="16.11548709214498"><ele>977.0</ele><time>2026-05-02T10:12:54Z</time></trkpt><trkpt lat="39.86893428446622" lon="16.115883485327164"><ele>978.0</ele><time>2026-05-02T10:12:55Z</time></trkpt><trkpt lat="39.86901351115087" lon="16.116277273450724"><ele>979.0</ele><time>2026-05-02T10:12:56Z</time></trkpt><trkpt lat="39.86909271840924" lon="16.1166719351219"><ele>979.0</ele><time>2026-05-02T10:12:57Z</time></trkpt><trkpt lat="39.869168551077514" lon="16.117066333419082"><ele>979.0</ele><time>2026-05-02T10:12:58Z</time></trkpt><trkpt lat="39.86924613444239" lon="16.11745725456118"><ele>977.5</ele><time>2026-05-02T10:12:59Z</time></trkpt><trkpt lat="39.86933085233145" lon="16.117846824596775"><ele>976.0</ele><time>2026-05-02T10:13:00Z</time></trkpt><trkpt lat="39.869423628619906" lon="16.118235365425658"><ele>964.5</ele><time>2026-05-02T10:13:01Z</time></trkpt><trkpt lat="39.86952657950732" lon="16.11862302582681"><ele>953.0</ele><time>2026-05-02T10:13:02Z</time></trkpt><trkpt lat="39.86964182357839" lon="16.119003087721172"><ele>951.0</ele><time>2026-05-02T10:13:03Z</time></trkpt><trkpt lat="39.86976904159048" lon="16.11937594517439"><ele>949.0</ele><time>2026-05-02T10:13:04Z</time></trkpt><trkpt lat="39.86990798974423" lon="16.119739433163215"><ele>954.5</ele><time>2026-05-02T10:13:04.999Z</time></trkpt><trkpt lat="39.87006199176112" lon="16.120091775204674"><ele>960.0</ele><time>2026-05-02T10:13:05.999Z</time></trkpt><trkpt lat="39.87022825075356" lon="16.120437679053662"><ele>986.5</ele><time>2026-05-02T10:13:06.999Z</time></trkpt><trkpt lat="39.87040661954384" lon="16.120774071096495"><ele>1013.0</ele><time>2026-05-02T10:13:07.999Z</time></trkpt><trkpt lat="39.870597549384186" lon="16.121102785380256"><ele>1013.0</ele><time>2026-05-02T10:13:08.999Z</time></trkpt><trkpt lat="39.87079574844057" lon="16.121422915699657"><ele>1013.0</ele><time>2026-05-02T10:13:09.999Z</time></trkpt><trkpt lat="39.871002699147674" lon="16.12173383075307"><ele>1026.5</ele><time>2026-05-02T10:13:10.999Z</time></trkpt><trkpt lat="39.871222070222224" lon="16.122027720180274"><ele>1040.0</ele><time>2026-05-02T10:13:11.999Z</time></trkpt><trkpt lat="39.871465416310926" lon="16.122327588572002"><ele>1039.0</ele><time>2026-05-02T10:13:13.07Z</time></trkpt><trkpt lat="39.87169501284995" lon="16.12259917287094"><ele>1038.0</ele><time>2026-05-02T10:13:14.064Z</time></trkpt><trkpt lat="39.87193339643023" lon="16.122863474788243"><ele>1038.0</ele><time>2026-05-02T10:13:15.063Z</time></trkpt><trkpt lat="39.87218324690272" lon="16.123112996217714"><ele>1038.0</ele><time>2026-05-02T10:13:16.068Z</time></trkpt><trkpt lat="39.87243896456044" lon="16.12334404229192"><ele>1035.5</ele><time>2026-05-02T10:13:17.067Z</time></trkpt><trkpt lat="39.87269306756384" lon="16.123568291322492"><ele>1033.0</ele><time>2026-05-02T10:13:18.053Z</time></trkpt><trkpt lat="39.87734479158279" lon="16.12745222331422"><ele>908.0</ele><time>2026-05-02T10:13:35.999Z</time></trkpt><trkpt lat="39.87775297150912" lon="16.12773386272299"><ele>908.0</ele><time>2026-05-02T10:13:36.999Z</time></trkpt><trkpt lat="39.87802530026479" lon="16.127931647539565"><ele>908.0</ele><time>2026-05-02T10:13:37.999Z</time></trkpt><trkpt lat="39.878307077916986" lon="16.128151137834426"><ele>891.0</ele><time>2026-05-02T10:13:38.999Z</time></trkpt><trkpt lat="39.87856934141193" lon="16.128375155616563"><ele>874.0</ele><time>2026-05-02T10:13:39.999Z</time></trkpt><trkpt lat="39.87883470310882" lon="16.128590401001738"><ele>874.0</ele><time>2026-05-02T10:13:40.999Z</time></trkpt><trkpt lat="39.87909551644176" lon="16.12880189512786"><ele>874.0</ele><time>2026-05-02T10:13:41.999Z</time></trkpt><trkpt lat="39.87935652781255" lon="16.129018663144898"><ele>878.0</ele><time>2026-05-02T10:13:42.999Z</time></trkpt><trkpt lat="39.87962372773637" lon="16.1292366125548"><ele>882.0</ele><time>2026-05-02T10:13:43.999Z</time></trkpt><trkpt lat="39.87988578758492" lon="16.129457862338754"><ele>905.5</ele><time>2026-05-02T10:13:44.999Z</time></trkpt><trkpt lat="39.88014380158601" lon="16.129685239609604"><ele>929.0</ele><time>2026-05-02T10:13:45.999Z</time></trkpt><trkpt lat="39.880396458350035" lon="16.12992128725745"><ele>929.0</ele><time>2026-05-02T10:13:46.999Z</time></trkpt><trkpt lat="39.88063513978186" lon="16.13017526812569"><ele>929.0</ele><time>2026-05-02T10:13:47.999Z</time></trkpt><trkpt lat="39.88086396757887" lon="16.130447485349936"><ele>937.5</ele><time>2026-05-02T10:13:48.999Z</time></trkpt><trkpt lat="39.88108750487792" lon="16.130726551717277"><ele>946.0</ele><time>2026-05-02T10:13:49.999Z</time></trkpt><trkpt lat="39.88130848809327" lon="16.13101205888342"><ele>946.0</ele><time>2026-05-02T10:13:50.999Z</time></trkpt><trkpt lat="39.881534034895196" lon="16.13130096075838"><ele>946.0</ele><time>2026-05-02T10:13:51.999Z</time></trkpt><trkpt lat="39.881759985395895" lon="16.131585661285424"><ele>943.0</ele><time>2026-05-02T10:13:52.999Z</time></trkpt><trkpt lat="39.88198706404885" lon="16.131866515495584"><ele>940.0</ele><time>2026-05-02T10:13:53.999Z</time></trkpt><trkpt lat="39.88221604836983" lon="16.132143588981194"><ele>938.5</ele><time>2026-05-02T10:13:54.999Z</time></trkpt><trkpt lat="39.88244396285996" lon="16.132426098309523"><ele>937.0</ele><time>2026-05-02T10:13:55.999Z</time></trkpt><trkpt lat="39.88267297406945" lon="16.132708168054847"><ele>937.0</ele><time>2026-05-02T10:13:56.999Z</time></trkpt><trkpt lat="39.88290136875467" lon="16.132991071585344"><ele>937.0</ele><time>2026-05-02T10:13:57.999Z</time></trkpt><trkpt lat="39.88313030712459" lon="16.13327543620714"><ele>936.0</ele><time>2026-05-02T10:13:58.999Z</time></trkpt><trkpt lat="39.88335859140046" lon="16.133560516666492"><ele>935.0</ele><time>2026-05-02T10:13:59.999Z</time></trkpt><trkpt lat="39.88358518018286" lon="16.133844795594058"><ele>936.5</ele><time>2026-05-02T10:14:00.999Z</time></trkpt><trkpt lat="39.88381176017355" lon="16.13412979641608"><ele>938.0</ele><time>2026-05-02T10:14:01.999Z</time></trkpt><trkpt lat="39.88403880650327" lon="16.13441309255888"><ele>952.5</ele><time>2026-05-02T10:14:02.999Z</time></trkpt><trkpt lat="39.88426632069799" lon="16.134695616804745"><ele>967.0</ele><time>2026-05-02T10:14:03.999Z</time></trkpt><trkpt lat="39.88449480998897" lon="16.1349771561298"><ele>978.5</ele><time>2026-05-02T10:14:04.999Z</time></trkpt><trkpt lat="39.884723080519585" lon="16.13525873284644"><ele>990.0</ele><time>2026-05-02T10:14:05.999Z</time></trkpt><trkpt lat="39.88495104148443" lon="16.13554129037102"><ele>1002.0</ele><time>2026-05-02T10:14:06.999Z</time></trkpt><trkpt lat="39.885178098422145" lon="16.135825391556356"><ele>1014.0</ele><time>2026-05-02T10:14:07.999Z</time></trkpt><trkpt lat="39.8854195649648" lon="16.13612938678559"><ele>939.0</ele><time>2026-05-02T10:14:09.065Z</time></trkpt><trkpt lat="39.8876774399223" lon="16.13907680106505"><ele>926.0</ele><time>2026-05-02T10:14:13.139Z</time></trkpt><trkpt lat="39.888333142475226" lon="16.14033321006765"><ele>869.0</ele><time>2026-05-02T10:14:14.138Z</time></trkpt><trkpt lat="39.8887365065499" lon="16.141407476050073"><ele>867.5</ele><time>2026-05-02T10:14:25.998Z</time></trkpt><trkpt lat="39.88888124239207" lon="16.141780330956493"><ele>866.0</ele><time>2026-05-02T10:14:26.998Z</time></trkpt><trkpt lat="39.88898925220613" lon="16.142161739986435"><ele>871.0</ele><time>2026-05-02T10:14:27.998Z</time></trkpt><trkpt lat="39.88908829473473" lon="16.14254145822023"><ele>876.0</ele><time>2026-05-02T10:14:28.998Z</time></trkpt><trkpt lat="39.88918410186876" lon="16.142936184305636"><ele>885.5</ele><time>2026-05-02T10:14:29.998Z</time></trkpt><trkpt lat="39.88926683223053" lon="16.14333719079235"><ele>895.0</ele><time>2026-05-02T10:14:30.998Z</time></trkpt><trkpt lat="39.88934024569353" lon="16.143743040902677"><ele>895.5</ele><time>2026-05-02T10:14:32Z</time></trkpt><trkpt lat="39.8894065373566" lon="16.14414915323961"><ele>896.0</ele><time>2026-05-02T10:14:33Z</time></trkpt><trkpt lat="39.8894596020643" lon="16.14455812166367"><ele>901.5</ele><time>2026-05-02T10:14:34Z</time></trkpt><trkpt lat="39.88950176382767" lon="16.144966472177984"><ele>907.0</ele><time>2026-05-02T10:14:35Z</time></trkpt><trkpt lat="39.88953161195514" lon="16.145379626940382"><ele>904.0</ele><time>2026-05-02T10:14:36Z</time></trkpt><trkpt lat="39.8895518221538" lon="16.14579439344346"><ele>901.0</ele><time>2026-05-02T10:14:37Z</time></trkpt><trkpt lat="39.88955938466836" lon="16.14620587439954"><ele>895.5</ele><time>2026-05-02T10:14:38Z</time></trkpt><trkpt lat="39.88955276288868" lon="16.146618203860555"><ele>890.0</ele><time>2026-05-02T10:14:39Z</time></trkpt><trkpt lat="39.88953597118499" lon="16.147024361934513"><ele>891.0</ele><time>2026-05-02T10:14:40Z</time></trkpt><trkpt lat="39.889511215088426" lon="16.147430437799205"><ele>892.0</ele><time>2026-05-02T10:14:41Z</time></trkpt><trkpt lat="39.88947727492031" lon="16.147831683932004"><ele>895.5</ele><time>2026-05-02T10:14:42Z</time></trkpt><trkpt lat="39.88943196797666" lon="16.14823124070663"><ele>899.0</ele><time>2026-05-02T10:14:43Z</time></trkpt><trkpt lat="39.88937277035542" lon="16.148627062324305"><ele>899.0</ele><time>2026-05-02T10:14:44Z</time></trkpt><trkpt lat="39.8893011379638" lon="16.149018556142376"><ele>899.0</ele><time>2026-05-02T10:14:45Z</time></trkpt><trkpt lat="39.889220939811395" lon="16.149410958859242"><ele>889.0</ele><time>2026-05-02T10:14:46Z</time></trkpt><trkpt lat="39.88913231367225" lon="16.149799772222625"><ele>879.0</ele><time>2026-05-02T10:14:47Z</time></trkpt><trkpt lat="39.88903418802418" lon="16.150186187521477"><ele>878.5</ele><time>2026-05-02T10:14:48Z</time></trkpt><trkpt lat="39.88892609136222" lon="16.150568046922963"><ele>878.0</ele><time>2026-05-02T10:14:49Z</time></trkpt><trkpt lat="39.88880899258899" lon="16.150948162179002"><ele>888.0</ele><time>2026-05-02T10:14:50Z</time></trkpt><trkpt lat="39.8886825698131" lon="16.151332910270643"><ele>898.0</ele><time>2026-05-02T10:14:51Z</time></trkpt><trkpt lat="39.88855152021876" lon="16.151713695395262"><ele>891.5</ele><time>2026-05-02T10:14:52Z</time></trkpt><trkpt lat="39.88841629470506" lon="16.15210291430841"><ele>885.0</ele><time>2026-05-02T10:14:53Z</time></trkpt><trkpt lat="39.88827811989203" lon="16.15249944052703"><ele>880.0</ele><time>2026-05-02T10:14:54Z</time></trkpt><trkpt lat="39.88813495369087" lon="16.152896068048218"><ele>875.0</ele><time>2026-05-02T10:14:55Z</time></trkpt><trkpt lat="39.88797252871795" lon="16.153280464209796"><ele>875.0</ele><time>2026-05-02T10:14:56Z</time></trkpt><trkpt lat="39.88780377342747" lon="16.153666759272966"><ele>875.0</ele><time>2026-05-02T10:14:57Z</time></trkpt><trkpt lat="39.88761991021625" lon="16.154043881811866"><ele>867.0</ele><time>2026-05-02T10:14:58Z</time></trkpt><trkpt lat="39.88742068601877" lon="16.154413010217596"><ele>859.0</ele><time>2026-05-02T10:14:59Z</time></trkpt><trkpt lat="39.88720964586376" lon="16.154773498703452"><ele>867.0</ele><time>2026-05-02T10:15:00Z</time></trkpt><trkpt lat="39.88699659809213" lon="16.155131369832638"><ele>875.0</ele><time>2026-05-02T10:15:01Z</time></trkpt><trkpt lat="39.88678520670401" lon="16.155489521842895"><ele>865.5</ele><time>2026-05-02T10:15:02Z</time></trkpt><trkpt lat="39.88657230159338" lon="16.155847631181146"><ele>856.0</ele><time>2026-05-02T10:15:03Z</time></trkpt><trkpt lat="39.886358408205055" lon="16.156206273960073"><ele>856.5</ele><time>2026-05-02T10:15:04Z</time></trkpt><trkpt lat="39.8861430129074" lon="16.156564945194923"><ele>857.0</ele><time>2026-05-02T10:15:05Z</time></trkpt><trkpt lat="39.8859267249045" lon="16.156924791599863"><ele>856.5</ele><time>2026-05-02T10:15:06Z</time></trkpt><trkpt lat="39.885708397778906" lon="16.15728196971217"><ele>856.0</ele><time>2026-05-02T10:15:07Z</time></trkpt><trkpt lat="39.88548454908824" lon="16.157634390412376"><ele>856.0</ele><time>2026-05-02T10:15:08Z</time></trkpt><trkpt lat="39.88525177807944" lon="16.157978056219246"><ele>856.0</ele><time>2026-05-02T10:15:09Z</time></trkpt><trkpt lat="39.88500693632244" lon="16.158307073335504"><ele>852.0</ele><time>2026-05-02T10:15:10Z</time></trkpt><trkpt lat="39.88475108605767" lon="16.158621771318366"><ele>848.0</ele><time>2026-05-02T10:15:11Z</time></trkpt><trkpt lat="39.8844841896961" lon="16.158927277602675"><ele>846.5</ele><time>2026-05-02T10:15:12Z</time></trkpt><trkpt lat="39.88420736646323" lon="16.159222768459653"><ele>845.0</ele><time>2026-05-02T10:15:13Z</time></trkpt><trkpt lat="39.88392150115098" lon="16.159510952920915"><ele>845.0</ele><time>2026-05-02T10:15:14Z</time></trkpt><trkpt lat="39.883631884472535" lon="16.159793437579395"><ele>845.0</ele><time>2026-05-02T10:15:15Z</time></trkpt><trkpt lat="39.88333880590996" lon="16.16007241417124"><ele>845.0</ele><time>2026-05-02T10:15:16Z</time></trkpt><trkpt lat="39.883042254166995" lon="16.160349340670148"><ele>845.0</ele><time>2026-05-02T10:15:16.999Z</time></trkpt><trkpt lat="39.882742848323375" lon="16.160622271215637"><ele>842.5</ele><time>2026-05-02T10:15:17.999Z</time></trkpt><trkpt lat="39.88244295810616" lon="16.160895678083623"><ele>840.0</ele><time>2026-05-02T10:15:18.999Z</time></trkpt><trkpt lat="39.882143625312345" lon="16.161171047743196"><ele>840.0</ele><time>2026-05-02T10:15:19.999Z</time></trkpt><trkpt lat="39.881848854353436" lon="16.161439338772205"><ele>840.0</ele><time>2026-05-02T10:15:20.999Z</time></trkpt><trkpt lat="39.88155396375825" lon="16.161711938132516"><ele>837.0</ele><time>2026-05-02T10:15:21.999Z</time></trkpt><trkpt lat="39.88126014136894" lon="16.161984320505955"><ele>834.0</ele><time>2026-05-02T10:15:22.999Z</time></trkpt><trkpt lat="39.88096773840623" lon="16.162252597388434"><ele>830.0</ele><time>2026-05-02T10:15:23.999Z</time></trkpt><trkpt lat="39.880678173535195" lon="16.162522187099515"><ele>826.0</ele><time>2026-05-02T10:15:24.999Z</time></trkpt><trkpt lat="39.88038806289663" lon="16.162792415310477"><ele>826.0</ele><time>2026-05-02T10:15:25.999Z</time></trkpt><trkpt lat="39.88009818040808" lon="16.16306268445799"><ele>826.0</ele><time>2026-05-02T10:15:26.999Z</time></trkpt><trkpt lat="39.87980572531354" lon="16.16333315309804"><ele>826.0</ele><time>2026-05-02T10:15:27.999Z</time></trkpt><trkpt lat="39.8795132040258" lon="16.163605076839897"><ele>826.0</ele><time>2026-05-02T10:15:28.999Z</time></trkpt><trkpt lat="39.87922215135063" lon="16.16387695039614"><ele>824.0</ele><time>2026-05-02T10:15:29.999Z</time></trkpt><trkpt lat="39.878930645969525" lon="16.16414902369473"><ele>822.0</ele><time>2026-05-02T10:15:30.999Z</time></trkpt><trkpt lat="39.878640924183514" lon="16.164423999046537"><ele>819.0</ele><time>2026-05-02T10:15:31.999Z</time></trkpt><trkpt lat="39.878352039441744" lon="16.16469389591492"><ele>816.0</ele><time>2026-05-02T10:15:32.999Z</time></trkpt><trkpt lat="39.878061685530106" lon="16.164962038157174"><ele>816.0</ele><time>2026-05-02T10:15:33.999Z</time></trkpt><trkpt lat="39.87777250093132" lon="16.165228098258698"><ele>816.0</ele><time>2026-05-02T10:15:34.999Z</time></trkpt><trkpt lat="39.87748461867019" lon="16.165494194964797"><ele>812.5</ele><time>2026-05-02T10:15:35.999Z</time></trkpt><trkpt lat="39.87719985075876" lon="16.165757372610077"><ele>809.0</ele><time>2026-05-02T10:15:36.999Z</time></trkpt><trkpt lat="39.87691646055992" lon="16.166021836975112"><ele>809.0</ele><time>2026-05-02T10:15:37.999Z</time></trkpt><trkpt lat="39.87663501143635" lon="16.166286272206975"><ele>809.0</ele><time>2026-05-02T10:15:38.999Z</time></trkpt><trkpt lat="39.87635417822466" lon="16.16655228992305"><ele>809.0</ele><time>2026-05-02T10:15:39.999Z</time></trkpt><trkpt lat="39.87607436705564" lon="16.16682147707692"><ele>809.0</ele><time>2026-05-02T10:15:40.999Z</time></trkpt><trkpt lat="39.87579788394313" lon="16.16709712301808"><ele>807.5</ele><time>2026-05-02T10:15:41.999Z</time></trkpt><trkpt lat="39.87552348229486" lon="16.167380722267453"><ele>806.0</ele><time>2026-05-02T10:15:42.999Z</time></trkpt><trkpt lat="39.87525062182039" lon="16.16767421339186"><ele>803.5</ele><time>2026-05-02T10:15:43.999Z</time></trkpt><trkpt lat="39.87498663891986" lon="16.167976944281907"><ele>801.0</ele><time>2026-05-02T10:15:44.999Z</time></trkpt><trkpt lat="39.874739559252724" lon="16.16829337732498"><ele>801.0</ele><time>2026-05-02T10:15:45.999Z</time></trkpt><trkpt lat="39.874508517518656" lon="16.16862187349663"><ele>801.0</ele><time>2026-05-02T10:15:46.999Z</time></trkpt><trkpt lat="39.87428865104902" lon="16.168959434494408"><ele>798.5</ele><time>2026-05-02T10:15:47.999Z</time></trkpt><trkpt lat="39.87407210315844" lon="16.169302301173744"><ele>796.0</ele><time>2026-05-02T10:15:48.999Z</time></trkpt><trkpt lat="39.873855526670084" lon="16.169643064642763"><ele>797.0</ele><time>2026-05-02T10:15:49.999Z</time></trkpt><trkpt lat="39.873639395425556" lon="16.169979862694014"><ele>798.0</ele><time>2026-05-02T10:15:50.999Z</time></trkpt><trkpt lat="39.87342095520895" lon="16.170312965462955"><ele>795.0</ele><time>2026-05-02T10:15:51.999Z</time></trkpt><trkpt lat="39.873202591986555" lon="16.17064726996176"><ele>792.0</ele><time>2026-05-02T10:15:52.999Z</time></trkpt><trkpt lat="39.8729815791671" lon="16.170987225877777"><ele>792.0</ele><time>2026-05-02T10:15:53.999Z</time></trkpt><trkpt lat="39.87275579956681" lon="16.171329319985553"><ele>792.0</ele><time>2026-05-02T10:15:54.999Z</time></trkpt><trkpt lat="39.872525072827436" lon="16.171670727288532"><ele>789.0</ele><time>2026-05-02T10:15:55.999Z</time></trkpt><trkpt lat="39.87229057099074" lon="16.172014030218705"><ele>786.0</ele><time>2026-05-02T10:15:56.999Z</time></trkpt><trkpt lat="39.87205804743632" lon="16.172359909692595"><ele>786.0</ele><time>2026-05-02T10:15:57.999Z</time></trkpt><trkpt lat="39.87182762665571" lon="16.172707602474592"><ele>786.0</ele><time>2026-05-02T10:15:58.999Z</time></trkpt><trkpt lat="39.87159991431659" lon="16.173055457726782"><ele>786.0</ele><time>2026-05-02T10:15:59.999Z</time></trkpt><trkpt lat="39.87137418798876" lon="16.173402330306875"><ele>786.0</ele><time>2026-05-02T10:16:00.999Z</time></trkpt><trkpt lat="39.87114838731043" lon="16.173749516823477"><ele>781.0</ele><time>2026-05-02T10:16:01.999Z</time></trkpt><trkpt lat="39.8709208376727" lon="16.174096994358305"><ele>776.0</ele><time>2026-05-02T10:16:02.999Z</time></trkpt><trkpt lat="39.87069301975099" lon="16.174444363479033"><ele>776.0</ele><time>2026-05-02T10:16:03.999Z</time></trkpt><trkpt lat="39.87046565140174" lon="16.174791948039545"><ele>776.0</ele><time>2026-05-02T10:16:04.999Z</time></trkpt><trkpt lat="39.87023792445667" lon="16.17514160801867"><ele>771.0</ele><time>2026-05-02T10:16:05.999Z</time></trkpt><trkpt lat="39.87000860016724" lon="16.175492789685084"><ele>766.0</ele><time>2026-05-02T10:16:06.999Z</time></trkpt><trkpt lat="39.86977948045952" lon="16.175843506536243"><ele>766.0</ele><time>2026-05-02T10:16:07.999Z</time></trkpt><trkpt lat="39.86955123328254" lon="16.17619333644449"><ele>766.0</ele><time>2026-05-02T10:16:08.999Z</time></trkpt><trkpt lat="39.86932802636748" lon="16.176540648521883"><ele>761.5</ele><time>2026-05-02T10:16:09.999Z</time></trkpt><trkpt lat="39.86910744244847" lon="16.176877990768382"><ele>757.0</ele><time>2026-05-02T10:16:10.999Z</time></trkpt><trkpt lat="39.868892369287096" lon="16.177205729465896"><ele>759.5</ele><time>2026-05-02T10:16:11.999Z</time></trkpt><trkpt lat="39.868683943690804" lon="16.177527484985678"><ele>762.0</ele><time>2026-05-02T10:16:12.999Z</time></trkpt><trkpt lat="39.86847912379403" lon="16.1778470692069"><ele>763.0</ele><time>2026-05-02T10:16:13.999Z</time></trkpt><trkpt lat="39.868277311889" lon="16.178161524516497"><ele>764.0</ele><time>2026-05-02T10:16:14.999Z</time></trkpt><trkpt lat="39.86807709290563" lon="16.178468628860998"><ele>764.0</ele><time>2026-05-02T10:16:15.999Z</time></trkpt><trkpt lat="39.867879135010455" lon="16.178770453886607"><ele>764.0</ele><time>2026-05-02T10:16:16.999Z</time></trkpt><trkpt lat="39.86768641613866" lon="16.179067681508997"><ele>763.0</ele><time>2026-05-02T10:16:17.999Z</time></trkpt><trkpt lat="39.86749817771389" lon="16.17936188487645"><ele>762.0</ele><time>2026-05-02T10:16:18.999Z</time></trkpt><trkpt lat="39.86730937485478" lon="16.17965837033272"><ele>764.0</ele><time>2026-05-02T10:16:19.999Z</time></trkpt><trkpt lat="39.867119064308426" lon="16.179955850707767"><ele>766.0</ele><time>2026-05-02T10:16:20.999Z</time></trkpt><trkpt lat="39.866927586024694" lon="16.180257063363776"><ele>762.5</ele><time>2026-05-02T10:16:21.999Z</time></trkpt><trkpt lat="39.86673667192158" lon="16.18055642254279"><ele>759.0</ele><time>2026-05-02T10:16:22.999Z</time></trkpt><trkpt lat="39.8665442659235" lon="16.18085347859489"><ele>759.0</ele><time>2026-05-02T10:16:23.999Z</time></trkpt><trkpt lat="39.86635047651637" lon="16.181151534972276"><ele>759.0</ele><time>2026-05-02T10:16:24.999Z</time></trkpt><trkpt lat="39.86615783130771" lon="16.181450182302402"><ele>761.5</ele><time>2026-05-02T10:16:25.999Z</time></trkpt><trkpt lat="39.8659673461145" lon="16.18174441819891"><ele>764.0</ele><time>2026-05-02T10:16:26.999Z</time></trkpt><trkpt lat="39.86577859748789" lon="16.182036975649638"><ele>758.5</ele><time>2026-05-02T10:16:27.999Z</time></trkpt><trkpt lat="39.86559094288991" lon="16.18232757422871"><ele>753.0</ele><time>2026-05-02T10:16:28.999Z</time></trkpt><trkpt lat="39.865405467101944" lon="16.182612850032648"><ele>753.0</ele><time>2026-05-02T10:16:29.999Z</time></trkpt><trkpt lat="39.86522463558848" lon="16.182897291303068"><ele>753.0</ele><time>2026-05-02T10:16:30.999Z</time></trkpt><trkpt lat="39.865042985435196" lon="16.183181226578096"><ele>748.5</ele><time>2026-05-02T10:16:31.999Z</time></trkpt><trkpt lat="39.86486807544072" lon="16.183470258230688"><ele>744.0</ele><time>2026-05-02T10:16:32.999Z</time></trkpt><trkpt lat="39.864692633536436" lon="16.18376173617183"><ele>743.0</ele><time>2026-05-02T10:16:33.998Z</time></trkpt><trkpt lat="39.864536155393395" lon="16.18405969558675"><ele>742.0</ele><time>2026-05-02T10:16:34.998Z</time></trkpt><trkpt lat="39.864381202595126" lon="16.184359917582483"><ele>737.5</ele><time>2026-05-02T10:16:35.998Z</time></trkpt><trkpt lat="39.864228841618726" lon="16.184664792962216"><ele>733.0</ele><time>2026-05-02T10:16:37Z</time></trkpt><trkpt lat="39.864082034707174" lon="16.184974357011388"><ele>732.0</ele><time>2026-05-02T10:16:38Z</time></trkpt><trkpt lat="39.86393726707224" lon="16.185281387860368"><ele>731.0</ele><time>2026-05-02T10:16:39Z</time></trkpt><trkpt lat="39.86379225136652" lon="16.18559049499902"><ele>730.0</ele><time>2026-05-02T10:16:40Z</time></trkpt><trkpt lat="39.86364541934307" lon="16.185903236610525"><ele>729.0</ele><time>2026-05-02T10:16:41Z</time></trkpt><trkpt lat="39.86349813876889" lon="16.186216369018723"><ele>729.0</ele><time>2026-05-02T10:16:42Z</time></trkpt><trkpt lat="39.86334938432361" lon="16.186531396194404"><ele>729.0</ele><time>2026-05-02T10:16:43Z</time></trkpt><trkpt lat="39.863199473956314" lon="16.186849426834407"><ele>729.0</ele><time>2026-05-02T10:16:44Z</time></trkpt><trkpt lat="39.86304856015145" lon="16.18717077448131"><ele>729.0</ele><time>2026-05-02T10:16:45Z</time></trkpt><trkpt lat="39.86289644073748" lon="16.187489235929515"><ele>724.5</ele><time>2026-05-02T10:16:46Z</time></trkpt><trkpt lat="39.86274426145779" lon="16.18780742684039"><ele>720.0</ele><time>2026-05-02T10:16:47Z</time></trkpt><trkpt lat="39.86259053931932" lon="16.188127453360845"><ele>723.0</ele><time>2026-05-02T10:16:48Z</time></trkpt><trkpt lat="39.862432131744086" lon="16.18845893276225"><ele>726.0</ele><time>2026-05-02T10:16:49Z</time></trkpt><trkpt lat="39.862269591526164" lon="16.18880121211188"><ele>727.0</ele><time>2026-05-02T10:16:50Z</time></trkpt><trkpt lat="39.86210363132281" lon="16.18915141060444"><ele>728.0</ele><time>2026-05-02T10:16:51Z</time></trkpt><trkpt lat="39.86193412693779" lon="16.189510528150144"><ele>723.5</ele><time>2026-05-02T10:16:52Z</time></trkpt><trkpt lat="39.861760763151885" lon="16.189874035537645"><ele>719.0</ele><time>2026-05-02T10:16:53Z</time></trkpt><trkpt lat="39.86158187436524" lon="16.190241671187007"><ele>719.0</ele><time>2026-05-02T10:16:54Z</time></trkpt><trkpt lat="39.861400137789175" lon="16.19061236540143"><ele>719.0</ele><time>2026-05-02T10:16:55Z</time></trkpt><trkpt lat="39.86121402830555" lon="16.190982620211734"><ele>718.0</ele><time>2026-05-02T10:16:56Z</time></trkpt><trkpt lat="39.861019834378546" lon="16.191347726151335"><ele>717.0</ele><time>2026-05-02T10:16:57Z</time></trkpt><trkpt lat="39.860817217058795" lon="16.191703482370812"><ele>717.0</ele><time>2026-05-02T10:16:58Z</time></trkpt><trkpt lat="39.86060526976351" lon="16.192052948331206"><ele>717.0</ele><time>2026-05-02T10:16:59Z</time></trkpt><trkpt lat="39.86038590994319" lon="16.192395314656263"><ele>714.5</ele><time>2026-05-02T10:17:00Z</time></trkpt><trkpt lat="39.8601626428831" lon="16.192729735320846"><ele>712.0</ele><time>2026-05-02T10:17:01Z</time></trkpt><trkpt lat="39.85993699655474" lon="16.193058257000995"><ele>715.5</ele><time>2026-05-02T10:17:02Z</time></trkpt><trkpt lat="39.85971328103904" lon="16.19338110335716"><ele>719.0</ele><time>2026-05-02T10:17:03Z</time></trkpt><trkpt lat="39.859494938078136" lon="16.19369956594956"><ele>717.0</ele><time>2026-05-02T10:17:04Z</time></trkpt><trkpt lat="39.85927880282807" lon="16.19401917992687"><ele>715.0</ele><time>2026-05-02T10:17:05Z</time></trkpt><trkpt lat="39.859060990815806" lon="16.19434033571217"><ele>715.0</ele><time>2026-05-02T10:17:06Z</time></trkpt><trkpt lat="39.85884031124809" lon="16.194664190777925"><ele>715.0</ele><time>2026-05-02T10:17:07Z</time></trkpt><trkpt lat="39.85861733723588" lon="16.19498919739524"><ele>714.5</ele><time>2026-05-02T10:17:08Z</time></trkpt><trkpt lat="39.858393296362316" lon="16.195316566290938"><ele>714.0</ele><time>2026-05-02T10:17:09Z</time></trkpt><trkpt lat="39.85816719631029" lon="16.195647154695497"><ele>715.5</ele><time>2026-05-02T10:17:10Z</time></trkpt><trkpt lat="39.85794324591405" lon="16.19597693510808"><ele>717.0</ele><time>2026-05-02T10:17:11Z</time></trkpt><trkpt lat="39.857720440704895" lon="16.196305372599515"><ele>713.0</ele><time>2026-05-02T10:17:12Z</time></trkpt><trkpt lat="39.85749696133021" lon="16.196633748083677"><ele>709.0</ele><time>2026-05-02T10:17:13Z</time></trkpt><trkpt lat="39.85727186951396" lon="16.196963389184784"><ele>709.0</ele><time>2026-05-02T10:17:14Z</time></trkpt><trkpt lat="39.857047245847426" lon="16.197293336647878"><ele>709.0</ele><time>2026-05-02T10:17:15Z</time></trkpt><trkpt lat="39.85682255266561" lon="16.1976223791322"><ele>707.0</ele><time>2026-05-02T10:17:16Z</time></trkpt><trkpt lat="39.85659689929758" lon="16.197953088698217"><ele>705.0</ele><time>2026-05-02T10:17:17Z</time></trkpt><trkpt lat="39.85637294229856" lon="16.198282683270968"><ele>704.5</ele><time>2026-05-02T10:17:18Z</time></trkpt><trkpt lat="39.85614604572416" lon="16.198616076921173"><ele>704.0</ele><time>2026-05-02T10:17:18.999Z</time></trkpt><trkpt lat="39.8559161026428" lon="16.198952739009908"><ele>700.5</ele><time>2026-05-02T10:17:19.999Z</time></trkpt><trkpt lat="39.85568532886171" lon="16.19928981710408"><ele>697.0</ele><time>2026-05-02T10:17:20.999Z</time></trkpt><trkpt lat="39.85545321851717" lon="16.199628550430976"><ele>696.5</ele><time>2026-05-02T10:17:21.999Z</time></trkpt><trkpt lat="39.855219998269156" lon="16.199967828178742"><ele>696.0</ele><time>2026-05-02T10:17:22.999Z</time></trkpt><trkpt lat="39.85498658592426" lon="16.20030718665094"><ele>691.0</ele><time>2026-05-02T10:17:23.999Z</time></trkpt><trkpt lat="39.85475652855077" lon="16.20064498836038"><ele>686.0</ele><time>2026-05-02T10:17:24.999Z</time></trkpt><trkpt lat="39.854527391602296" lon="16.200986219230394"><ele>686.0</ele><time>2026-05-02T10:17:25.999Z</time></trkpt><trkpt lat="39.85429191840569" lon="16.201332712774793"><ele>686.0</ele><time>2026-05-02T10:17:26.999Z</time></trkpt><trkpt lat="39.85405191950793" lon="16.201680628060178"><ele>683.5</ele><time>2026-05-02T10:17:27.999Z</time></trkpt><trkpt lat="39.85381445275184" lon="16.202034047044464"><ele>681.0</ele><time>2026-05-02T10:17:28.999Z</time></trkpt><trkpt lat="39.85357630932639" lon="16.202384423372802"><ele>677.5</ele><time>2026-05-02T10:17:29.999Z</time></trkpt><trkpt lat="39.853343742728896" lon="16.202737409021378"><ele>674.0</ele><time>2026-05-02T10:17:30.999Z</time></trkpt><trkpt lat="39.85310879681997" lon="16.203083235244133"><ele>676.5</ele><time>2026-05-02T10:17:31.999Z</time></trkpt><trkpt lat="39.85287414332053" lon="16.20342756932326"><ele>679.0</ele><time>2026-05-02T10:17:32.999Z</time></trkpt><trkpt lat="39.85264216086729" lon="16.203779891985597"><ele>677.0</ele><time>2026-05-02T10:17:33.999Z</time></trkpt><trkpt lat="39.85242105403409" lon="16.20414481821809"><ele>675.0</ele><time>2026-05-02T10:17:34.999Z</time></trkpt><trkpt lat="39.85221579246754" lon="16.20453374188824"><ele>679.0</ele><time>2026-05-02T10:17:35.999Z</time></trkpt><trkpt lat="39.852021797174245" lon="16.204932483940237"><ele>683.0</ele><time>2026-05-02T10:17:36.999Z</time></trkpt><trkpt lat="39.851836290081096" lon="16.205337571544273"><ele>666.0</ele><time>2026-05-02T10:17:37.999Z</time></trkpt><trkpt lat="39.85165756709194" lon="16.205730739558035"><ele>649.0</ele><time>2026-05-02T10:17:38.999Z</time></trkpt><trkpt lat="39.851481957695945" lon="16.20611687944648"><ele>646.5</ele><time>2026-05-02T10:17:39.999Z</time></trkpt><trkpt lat="39.85131029475037" lon="16.206495848471388"><ele>644.0</ele><time>2026-05-02T10:17:40.999Z</time></trkpt><trkpt lat="39.851137225153415" lon="16.206876707128696"><ele>644.0</ele><time>2026-05-02T10:17:41.999Z</time></trkpt><trkpt lat="39.850960873736064" lon="16.20725956814096"><ele>644.0</ele><time>2026-05-02T10:17:42.999Z</time></trkpt><trkpt lat="39.85078359170799" lon="16.207643785137172"><ele>646.5</ele><time>2026-05-02T10:17:43.999Z</time></trkpt><trkpt lat="39.85060383376479" lon="16.208027181160247"><ele>649.0</ele><time>2026-05-02T10:17:44.999Z</time></trkpt><trkpt lat="39.850425471916246" lon="16.2084101623904"><ele>656.0</ele><time>2026-05-02T10:17:45.999Z</time></trkpt><trkpt lat="39.85024459736844" lon="16.208796554307686"><ele>663.0</ele><time>2026-05-02T10:17:46.999Z</time></trkpt><trkpt lat="39.850062515731906" lon="16.209188418099934"><ele>663.0</ele><time>2026-05-02T10:17:47.999Z</time></trkpt><trkpt lat="39.849883401821145" lon="16.2095862572444"><ele>663.0</ele><time>2026-05-02T10:17:48.999Z</time></trkpt><trkpt lat="39.84971797660692" lon="16.209991519611403"><ele>668.5</ele><time>2026-05-02T10:17:49.999Z</time></trkpt><trkpt lat="39.8495692117731" lon="16.210409546557237"><ele>674.0</ele><time>2026-05-02T10:17:50.999Z</time></trkpt><trkpt lat="39.84944126624913" lon="16.21083248103308"><ele>680.0</ele><time>2026-05-02T10:17:51.999Z</time></trkpt><trkpt lat="39.84933291759599" lon="16.211260304393214"><ele>686.0</ele><time>2026-05-02T10:17:52.999Z</time></trkpt><trkpt lat="39.849244793206104" lon="16.21169835363918"><ele>686.0</ele><time>2026-05-02T10:17:53.999Z</time></trkpt><trkpt lat="39.8491728000918" lon="16.2121516987524"><ele>686.0</ele><time>2026-05-02T10:17:54.999Z</time></trkpt><trkpt lat="39.84910016745285" lon="16.212646831545467"><ele>677.0</ele><time>2026-05-02T10:17:56.069Z</time></trkpt><trkpt lat="39.84903742524391" lon="16.213119030573683"><ele>668.0</ele><time>2026-05-02T10:17:57.068Z</time></trkpt><trkpt lat="39.84898263646291" lon="16.213549531588715"><ele>661.0</ele><time>2026-05-02T10:17:57.999Z</time></trkpt><trkpt lat="39.84891159553955" lon="16.213959944274666"><ele>654.0</ele><time>2026-05-02T10:17:58.999Z</time></trkpt><trkpt lat="39.84883367751114" lon="16.21440897336728"><ele>647.5</ele><time>2026-05-02T10:17:59.999Z</time></trkpt><trkpt lat="39.848762319282166" lon="16.214863959131804"><ele>641.0</ele><time>2026-05-02T10:18:00.999Z</time></trkpt><trkpt lat="39.8486998529741" lon="16.215325028592385"><ele>641.5</ele><time>2026-05-02T10:18:01.999Z</time></trkpt><trkpt lat="39.848636813812696" lon="16.215791197579815"><ele>642.0</ele><time>2026-05-02T10:18:02.999Z</time></trkpt><trkpt lat="39.84857256951565" lon="16.216258994822738"><ele>644.0</ele><time>2026-05-02T10:18:03.999Z</time></trkpt><trkpt lat="39.848505683232794" lon="16.216728050994423"><ele>646.0</ele><time>2026-05-02T10:18:04.999Z</time></trkpt><trkpt lat="39.848442391035285" lon="16.217192212265598"><ele>640.5</ele><time>2026-05-02T10:18:05.999Z</time></trkpt><trkpt lat="39.8483793534761" lon="16.217646180650945"><ele>635.0</ele><time>2026-05-02T10:18:06.999Z</time></trkpt><trkpt lat="39.84831649481618" lon="16.218102692680432"><ele>635.0</ele><time>2026-05-02T10:18:07.999Z</time></trkpt><trkpt lat="39.84825207874237" lon="16.218556858818655"><ele>635.0</ele><time>2026-05-02T10:18:08.999Z</time></trkpt><trkpt lat="39.84818689062357" lon="16.219011684513582"><ele>635.5</ele><time>2026-05-02T10:18:09.999Z</time></trkpt><trkpt lat="39.848123671136065" lon="16.219463431255665"><ele>636.0</ele><time>2026-05-02T10:18:10.999Z</time></trkpt><trkpt lat="39.848060263708014" lon="16.219917437449716"><ele>636.0</ele><time>2026-05-02T10:18:11.999Z</time></trkpt><trkpt lat="39.84800041257889" lon="16.22037224405011"><ele>636.0</ele><time>2026-05-02T10:18:12.999Z</time></trkpt><trkpt lat="39.847941022077165" lon="16.220833832642143"><ele>635.5</ele><time>2026-05-02T10:18:13.999Z</time></trkpt><trkpt lat="39.8478847733745" lon="16.221297033221738"><ele>635.0</ele><time>2026-05-02T10:18:14.999Z</time></trkpt><trkpt lat="39.84783407347244" lon="16.221758771628927"><ele>634.5</ele><time>2026-05-02T10:18:15.999Z</time></trkpt><trkpt lat="39.84779508647417" lon="16.222221539887066"><ele>634.0</ele><time>2026-05-02T10:18:16.999Z</time></trkpt><trkpt lat="39.84776408880336" lon="16.2226861554626"><ele>633.0</ele><time>2026-05-02T10:18:17.999Z</time></trkpt><trkpt lat="39.84773922843633" lon="16.223151095363985"><ele>632.0</ele><time>2026-05-02T10:18:18.999Z</time></trkpt><trkpt lat="39.84771515816369" lon="16.223618170262952"><ele>631.0</ele><time>2026-05-02T10:18:19.999Z</time></trkpt><trkpt lat="39.847690928486784" lon="16.224086460314687"><ele>630.0</ele><time>2026-05-02T10:18:20.999Z</time></trkpt><trkpt lat="39.847666708809555" lon="16.224555120745663"><ele>628.5</ele><time>2026-05-02T10:18:21.999Z</time></trkpt><trkpt lat="39.8476405761573" lon="16.22502191238771"><ele>627.0</ele><time>2026-05-02T10:18:22.999Z</time></trkpt><trkpt lat="39.84761625775956" lon="16.22549044717234"><ele>620.0</ele><time>2026-05-02T10:18:23.999Z</time></trkpt><trkpt lat="39.847592344130014" lon="16.22596040389117"><ele>613.0</ele><time>2026-05-02T10:18:24.999Z</time></trkpt><trkpt lat="39.8475695573248" lon="16.226430052973676"><ele>612.0</ele><time>2026-05-02T10:18:25.999Z</time></trkpt><trkpt lat="39.84754697145999" lon="16.22689553197324"><ele>611.0</ele><time>2026-05-02T10:18:26.999Z</time></trkpt><trkpt lat="39.84752532382685" lon="16.227362094551765"><ele>609.5</ele><time>2026-05-02T10:18:27.999Z</time></trkpt><trkpt lat="39.84750384436333" lon="16.227832734323858"><ele>608.0</ele><time>2026-05-02T10:18:28.999Z</time></trkpt><trkpt lat="39.84748219990619" lon="16.22830446086675"><ele>606.5</ele><time>2026-05-02T10:18:29.999Z</time></trkpt><trkpt lat="39.84746065380732" lon="16.22877678197714"><ele>605.0</ele><time>2026-05-02T10:18:30.999Z</time></trkpt><trkpt lat="39.84743926854431" lon="16.229247438718463"><ele>603.0</ele><time>2026-05-02T10:18:31.999Z</time></trkpt><trkpt lat="39.84741752784449" lon="16.22971881261739"><ele>601.0</ele><time>2026-05-02T10:18:32.999Z</time></trkpt><trkpt lat="39.847395481448025" lon="16.230191580188006"><ele>598.0</ele><time>2026-05-02T10:18:33.999Z</time></trkpt><trkpt lat="39.84737228734213" lon="16.230665181120614"><ele>595.0</ele><time>2026-05-02T10:18:34.999Z</time></trkpt><trkpt lat="39.84734359610545" lon="16.231139890601355"><ele>593.0</ele><time>2026-05-02T10:18:35.998Z</time></trkpt><trkpt lat="39.847300301621146" lon="16.231611980323088"><ele>591.0</ele><time>2026-05-02T10:18:36.998Z</time></trkpt><trkpt lat="39.84723884939123" lon="16.2320795150215"><ele>590.5</ele><time>2026-05-02T10:18:37.998Z</time></trkpt><trkpt lat="39.84716532642746" lon="16.232544500688693"><ele>590.0</ele><time>2026-05-02T10:18:38.998Z</time></trkpt><trkpt lat="39.84708306263043" lon="16.233006747671478"><ele>588.5</ele><time>2026-05-02T10:18:39.998Z</time></trkpt><trkpt lat="39.84698967185914" lon="16.23346883254664"><ele>587.0</ele><time>2026-05-02T10:18:40.998Z</time></trkpt><trkpt lat="39.846885079601634" lon="16.23392695570181"><ele>580.0</ele><time>2026-05-02T10:18:41.998Z</time></trkpt><trkpt lat="39.84676727669334" lon="16.234380369207756"><ele>573.0</ele><time>2026-05-02T10:18:43Z</time></trkpt><trkpt lat="39.84663900118437" lon="16.23483073438742"><ele>572.5</ele><time>2026-05-02T10:18:44Z</time></trkpt><trkpt lat="39.84649988927083" lon="16.23527361733607"><ele>572.0</ele><time>2026-05-02T10:18:45Z</time></trkpt><trkpt lat="39.846350633344834" lon="16.23570581583971"><ele>572.0</ele><time>2026-05-02T10:18:46Z</time></trkpt><trkpt lat="39.8461884630797" lon="16.236132665825547"><ele>572.0</ele><time>2026-05-02T10:18:47Z</time></trkpt><trkpt lat="39.84601858809294" lon="16.236548790721304"><ele>575.0</ele><time>2026-05-02T10:18:48Z</time></trkpt><trkpt lat="39.84583990680556" lon="16.236964686451422"><ele>578.0</ele><time>2026-05-02T10:18:49Z</time></trkpt><trkpt lat="39.8456605554928" lon="16.237377731194556"><ele>580.0</ele><time>2026-05-02T10:18:50Z</time></trkpt><trkpt lat="39.84548197076852" lon="16.237792115702828"><ele>582.0</ele><time>2026-05-02T10:18:51Z</time></trkpt><trkpt lat="39.845306767328374" lon="16.238202942746874"><ele>582.0</ele><time>2026-05-02T10:18:52Z</time></trkpt><trkpt lat="39.84513404930119" lon="16.238614223031465"><ele>582.0</ele><time>2026-05-02T10:18:53Z</time></trkpt><trkpt lat="39.84496346261663" lon="16.239018832727353"><ele>577.5</ele><time>2026-05-02T10:18:54Z</time></trkpt><trkpt lat="39.844798376495895" lon="16.239411864473638"><ele>573.0</ele><time>2026-05-02T10:18:55Z</time></trkpt><trkpt lat="39.84463972235167" lon="16.239780623055225"><ele>572.0</ele><time>2026-05-02T10:18:56Z</time></trkpt><trkpt lat="39.84448579219793" lon="16.240135416040676"><ele>571.0</ele><time>2026-05-02T10:18:57Z</time></trkpt><trkpt lat="39.844337522578726" lon="16.24047649377709"><ele>566.0</ele><time>2026-05-02T10:18:58Z</time></trkpt><trkpt lat="39.84419895886861" lon="16.240792363006353"><ele>561.0</ele><time>2026-05-02T10:18:59Z</time></trkpt><trkpt lat="39.844065349033485" lon="16.24109040315769"><ele>561.0</ele><time>2026-05-02T10:19:00Z</time></trkpt><trkpt lat="39.84393564914438" lon="16.241377765041562"><ele>561.0</ele><time>2026-05-02T10:19:01Z</time></trkpt><trkpt lat="39.843810563895104" lon="16.241658118652765"><ele>560.5</ele><time>2026-05-02T10:19:02Z</time></trkpt><trkpt lat="39.843687668419776" lon="16.241936411004872"><ele>560.0</ele><time>2026-05-02T10:19:03Z</time></trkpt><trkpt lat="39.84356673473717" lon="16.242213837132997"><ele>555.0</ele><time>2026-05-02T10:19:04Z</time></trkpt><trkpt lat="39.84344396472488" lon="16.242486992731507"><ele>550.0</ele><time>2026-05-02T10:19:05Z</time></trkpt><trkpt lat="39.843332709080094" lon="16.24273888557444"><ele>550.0</ele><time>2026-05-02T10:19:06Z</time></trkpt><trkpt lat="39.84323694154483" lon="16.24295981528028"><ele>550.0</ele><time>2026-05-02T10:19:07Z</time></trkpt><trkpt lat="39.8431473198869" lon="16.24317055995767"><ele>550.0</ele><time>2026-05-02T10:19:08Z</time></trkpt><trkpt lat="39.84306383263813" lon="16.243363162994445"><ele>550.25</ele><time>2026-05-02T10:19:09Z</time></trkpt><trkpt lat="39.84299012632977" lon="16.243535120898713"><ele>550.5</ele><time>2026-05-02T10:19:10Z</time></trkpt><trkpt lat="39.84292338240732" lon="16.24368666214506"><ele>550.75</ele><time>2026-05-02T10:19:11Z</time></trkpt><trkpt lat="39.84285966393934" lon="16.243817889914922"><ele>551.0</ele><time>2026-05-02T10:19:12Z</time></trkpt><trkpt lat="39.84279570423916" lon="16.24392779112358"><ele>551.0</ele><time>2026-05-02T10:19:13Z</time></trkpt><trkpt lat="39.84272862000037" lon="16.2440140942994"><ele>551.0</ele><time>2026-05-02T10:19:14Z</time></trkpt><trkpt lat="39.84266295121448" lon="16.244087046764385"><ele>551.0</ele><time>2026-05-02T10:19:15Z</time></trkpt><trkpt lat="39.842602348354475" lon="16.244147329258304"><ele>551.0</ele><time>2026-05-02T10:19:16Z</time></trkpt><trkpt lat="39.84254834202919" lon="16.24420126107835"><ele>551.0</ele><time>2026-05-02T10:19:17Z</time></trkpt><trkpt lat="39.8424999446404" lon="16.24425472595753"><ele>551.0</ele><time>2026-05-02T10:19:18Z</time></trkpt><trkpt lat="39.84245532648193" lon="16.244315934498694"><ele>549.8571428571428</ele><time>2026-05-02T10:19:19Z</time></trkpt><trkpt lat="39.84241029752386" lon="16.244384738813704"><ele>548.7142857142857</ele><time>2026-05-02T10:19:20Z</time></trkpt><trkpt lat="39.84236503484551" lon="16.244458083991"><ele>547.5714285714286</ele><time>2026-05-02T10:19:21Z</time></trkpt><trkpt lat="39.842316842769115" lon="16.244534220569143"><ele>546.4285714285713</ele><time>2026-05-02T10:19:21.999Z</time></trkpt><trkpt lat="39.84226625240797" lon="16.24460270529148"><ele>545.2857142857142</ele><time>2026-05-02T10:19:22.999Z</time></trkpt><trkpt lat="39.84221580413336" lon="16.24466436332226"><ele>544.1428571428571</ele><time>2026-05-02T10:19:23.999Z</time></trkpt><trkpt lat="39.842164608374404" lon="16.244718921867996"><ele>543.0</ele><time>2026-05-02T10:19:24.999Z</time></trkpt><trkpt lat="39.84208062515957" lon="16.244797461812983"><ele>543.0</ele><time>2026-05-02T10:19:26.999Z</time></trkpt><trkpt lat="39.84203525155004" lon="16.244868971902672"><ele>543.0</ele><time>2026-05-02T10:19:28.999Z</time></trkpt><trkpt lat="39.84199270929531" lon="16.244944856226496"><ele>543.0</ele><time>2026-05-02T10:28:55.999Z</time></trkpt><trkpt lat="39.84197089168835" lon="16.24506662888163"><ele>543.0</ele><time>2026-05-02T10:28:58.999Z</time></trkpt><trkpt lat="39.841918878516026" lon="16.245186708369886"><ele>543.0</ele><time>2026-05-02T10:29:01.998Z</time></trkpt><trkpt lat="39.84189179840716" lon="16.245367561027248"><ele>543.0</ele><time>2026-05-02T10:29:03.998Z</time></trkpt><trkpt lat="39.841864352282755" lon="16.24548333044422"><ele>543.0</ele><time>2026-05-02T10:29:04.998Z</time></trkpt><trkpt lat="39.84184010144765" lon="16.24559656448063"><ele>543.0</ele><time>2026-05-02T10:29:05.998Z</time></trkpt><trkpt lat="39.84181395464978" lon="16.245713147422638"><ele>543.0</ele><time>2026-05-02T10:29:06.998Z</time></trkpt><trkpt lat="39.841785886616165" lon="16.245835272394437"><ele>543.0</ele><time>2026-05-02T10:29:07.998Z</time></trkpt><trkpt lat="39.84176365766025" lon="16.24596647692941"><ele>541.5</ele><time>2026-05-02T10:29:08.998Z</time></trkpt><trkpt lat="39.84174613935433" lon="16.246105816500847"><ele>540.0</ele><time>2026-05-02T10:29:09.998Z</time></trkpt><trkpt lat="39.84173071118987" lon="16.246256187819352"><ele>538.5</ele><time>2026-05-02T10:29:10.998Z</time></trkpt><trkpt lat="39.841704188362904" lon="16.246408873805336"><ele>537.0</ele><time>2026-05-02T10:29:11.999Z</time></trkpt><trkpt lat="39.841650891686186" lon="16.246573136125317"><ele>536.6666666666666</ele><time>2026-05-02T10:29:12.999Z</time></trkpt><trkpt lat="39.841567944822444" lon="16.246743026975654"><ele>536.3333333333333</ele><time>2026-05-02T10:29:13.999Z</time></trkpt><trkpt lat="39.84146761292666" lon="16.246920205275433"><ele>536.0</ele><time>2026-05-02T10:29:14.999Z</time></trkpt><trkpt lat="39.84136055742588" lon="16.247115796038138"><ele>535.6666666666666</ele><time>2026-05-02T10:29:15.999Z</time></trkpt><trkpt lat="39.84124187257066" lon="16.24733110745844"><ele>535.3333333333334</ele><time>2026-05-02T10:29:16.999Z</time></trkpt><trkpt lat="39.841118666110354" lon="16.247561685536947"><ele>535.0</ele><time>2026-05-02T10:29:17.999Z</time></trkpt><trkpt lat="39.84098806594324" lon="16.247810048498298"><ele>530.5</ele><time>2026-05-02T10:29:18.999Z</time></trkpt><trkpt lat="39.84084801621416" lon="16.248071592478755"><ele>526.0</ele><time>2026-05-02T10:29:19.999Z</time></trkpt><trkpt lat="39.840693986150995" lon="16.248342683999503"><ele>526.0</ele><time>2026-05-02T10:29:20.999Z</time></trkpt><trkpt lat="39.84053336014222" lon="16.24862346182126"><ele>526.0</ele><time>2026-05-02T10:29:21.999Z</time></trkpt><trkpt lat="39.84037115463077" lon="16.248918078638045"><ele>526.5</ele><time>2026-05-02T10:29:22.999Z</time></trkpt><trkpt lat="39.84020271712403" lon="16.249219974712943"><ele>527.0</ele><time>2026-05-02T10:29:23.999Z</time></trkpt><trkpt lat="39.84002737090603" lon="16.249527036170466"><ele>525.0</ele><time>2026-05-02T10:29:24.999Z</time></trkpt><trkpt lat="39.8398491599821" lon="16.249844335554496"><ele>523.0</ele><time>2026-05-02T10:29:25.999Z</time></trkpt><trkpt lat="39.83966738641622" lon="16.250170742361018"><ele>523.0</ele><time>2026-05-02T10:29:26.999Z</time></trkpt><trkpt lat="39.83948142704684" lon="16.250501505617486"><ele>523.0</ele><time>2026-05-02T10:29:27.999Z</time></trkpt><trkpt lat="39.83929363315357" lon="16.25083836266693"><ele>522.0</ele><time>2026-05-02T10:29:28.999Z</time></trkpt><trkpt lat="39.83910438534618" lon="16.25117877601603"><ele>521.0</ele><time>2026-05-02T10:29:29.999Z</time></trkpt><trkpt lat="39.838912888117804" lon="16.251519099820456"><ele>521.0</ele><time>2026-05-02T10:29:30.999Z</time></trkpt><trkpt lat="39.838718610727284" lon="16.25186239453953"><ele>521.0</ele><time>2026-05-02T10:29:31.999Z</time></trkpt><trkpt lat="39.83852245140178" lon="16.252208600991356"><ele>516.5</ele><time>2026-05-02T10:29:32.999Z</time></trkpt><trkpt lat="39.83832334974748" lon="16.2525533693974"><ele>512.0</ele><time>2026-05-02T10:29:33.999Z</time></trkpt><trkpt lat="39.83811736747651" lon="16.252898274970022"><ele>511.5</ele><time>2026-05-02T10:29:34.999Z</time></trkpt><trkpt lat="39.83790116006228" lon="16.253235217664677"><ele>511.0</ele><time>2026-05-02T10:29:35.999Z</time></trkpt><trkpt lat="39.83767196628776" lon="16.253558752240764"><ele>507.5</ele><time>2026-05-02T10:29:36.999Z</time></trkpt><trkpt lat="39.837431133859724" lon="16.253868283103166"><ele>504.0</ele><time>2026-05-02T10:29:37.999Z</time></trkpt><trkpt lat="39.83718154564388" lon="16.254174046116695"><ele>503.0</ele><time>2026-05-02T10:29:38.999Z</time></trkpt><trkpt lat="39.83692012445684" lon="16.254472739654524"><ele>502.0</ele><time>2026-05-02T10:29:39.999Z</time></trkpt><trkpt lat="39.836652743170255" lon="16.25476289404561"><ele>499.5</ele><time>2026-05-02T10:29:40.999Z</time></trkpt><trkpt lat="39.83637595956002" lon="16.25503966491845"><ele>497.0</ele><time>2026-05-02T10:29:41.999Z</time></trkpt><trkpt lat="39.83608976761183" lon="16.255298170341582"><ele>494.5</ele><time>2026-05-02T10:29:42.999Z</time></trkpt><trkpt lat="39.83579609280377" lon="16.25554103438371"><ele>492.0</ele><time>2026-05-02T10:29:43.999Z</time></trkpt><trkpt lat="39.8354938009722" lon="16.25577014173703"><ele>491.5</ele><time>2026-05-02T10:29:44.999Z</time></trkpt><trkpt lat="39.83518490341346" lon="16.255984249419804"><ele>491.0</ele><time>2026-05-02T10:29:45.999Z</time></trkpt><trkpt lat="39.834867572113694" lon="16.256183319676804"><ele>488.0</ele><time>2026-05-02T10:29:46.999Z</time></trkpt><trkpt lat="39.834545100973536" lon="16.256364427250382"><ele>485.0</ele><time>2026-05-02T10:29:47.999Z</time></trkpt><trkpt lat="39.8342205374569" lon="16.256529527791823"><ele>483.5</ele><time>2026-05-02T10:29:48.999Z</time></trkpt><trkpt lat="39.83389400915431" lon="16.25668728883375"><ele>482.0</ele><time>2026-05-02T10:29:49.999Z</time></trkpt><trkpt lat="39.83356616061396" lon="16.256843324699958"><ele>479.5</ele><time>2026-05-02T10:29:50.999Z</time></trkpt><trkpt lat="39.83323687402369" lon="16.25700460790141"><ele>477.0</ele><time>2026-05-02T10:29:51.999Z</time></trkpt><trkpt lat="39.832908434842565" lon="16.257169141176224"><ele>475.0</ele><time>2026-05-02T10:29:52.999Z</time></trkpt><trkpt lat="39.832577753305635" lon="16.257332255127807"><ele>473.0</ele><time>2026-05-02T10:29:53.999Z</time></trkpt><trkpt lat="39.83224212423078" lon="16.257496495218916"><ele>473.0</ele><time>2026-05-02T10:29:54.999Z</time></trkpt><trkpt lat="39.831907597988994" lon="16.25766124039511"><ele>473.0</ele><time>2026-05-02T10:29:55.999Z</time></trkpt><trkpt lat="39.831574018611256" lon="16.25782737743938"><ele>471.5</ele><time>2026-05-02T10:29:56.999Z</time></trkpt><trkpt lat="39.83124262693987" lon="16.257991070587398"><ele>470.0</ele><time>2026-05-02T10:29:57.999Z</time></trkpt><trkpt lat="39.83091062598511" lon="16.258154762321347"><ele>469.0</ele><time>2026-05-02T10:29:58.999Z</time></trkpt><trkpt lat="39.83058040315924" lon="16.258315553194848"><ele>468.0</ele><time>2026-05-02T10:29:59.999Z</time></trkpt><trkpt lat="39.830249317900545" lon="16.25847634070547"><ele>467.0</ele><time>2026-05-02T10:30:00.999Z</time></trkpt><trkpt lat="39.82991793221948" lon="16.25863745553289"><ele>466.0</ele><time>2026-05-02T10:30:01.999Z</time></trkpt><trkpt lat="39.829587306590156" lon="16.258800745074208"><ele>466.5</ele><time>2026-05-02T10:30:02.999Z</time></trkpt><trkpt lat="39.82925798325594" lon="16.258963494551367"><ele>467.0</ele><time>2026-05-02T10:30:03.999Z</time></trkpt><trkpt lat="39.82892824375505" lon="16.259121756901603"><ele>467.0</ele><time>2026-05-02T10:30:04.999Z</time></trkpt><trkpt lat="39.8285945828172" lon="16.259262907979668"><ele>467.0</ele><time>2026-05-02T10:30:05.999Z</time></trkpt><trkpt lat="39.82824977171014" lon="16.259381009975517"><ele>466.5</ele><time>2026-05-02T10:30:06.999Z</time></trkpt><trkpt lat="39.82790083256687" lon="16.25946999285445"><ele>466.0</ele><time>2026-05-02T10:30:07.999Z</time></trkpt><trkpt lat="39.82754501509548" lon="16.259533131740366"><ele>465.5</ele><time>2026-05-02T10:30:08.999Z</time></trkpt><trkpt lat="39.82718727478167" lon="16.259574074518852"><ele>465.0</ele><time>2026-05-02T10:30:09.999Z</time></trkpt><trkpt lat="39.82682517230012" lon="16.259593208455367"><ele>465.0</ele><time>2026-05-02T10:30:10.999Z</time></trkpt><trkpt lat="39.82646323788936" lon="16.259590102356157"><ele>465.0</ele><time>2026-05-02T10:30:11.999Z</time></trkpt><trkpt lat="39.826103091940844" lon="16.259562199049792"><ele>463.5</ele><time>2026-05-02T10:30:12.999Z</time></trkpt><trkpt lat="39.82574558345739" lon="16.259506018303096"><ele>462.0</ele><time>2026-05-02T10:30:13.999Z</time></trkpt><trkpt lat="39.82539291817602" lon="16.25942325620672"><ele>461.0</ele><time>2026-05-02T10:30:14.999Z</time></trkpt><trkpt lat="39.825042494258604" lon="16.25932116164953"><ele>460.0</ele><time>2026-05-02T10:30:15.999Z</time></trkpt><trkpt lat="39.82469747042822" lon="16.25919084592582"><ele>460.0</ele><time>2026-05-02T10:30:16.999Z</time></trkpt><trkpt lat="39.824357721339084" lon="16.25903999123967"><ele>460.0</ele><time>2026-05-02T10:30:17.999Z</time></trkpt><trkpt lat="39.82402221243286" lon="16.258863941925554"><ele>459.5</ele><time>2026-05-02T10:30:18.999Z</time></trkpt><trkpt lat="39.823691035303746" lon="16.25866306805836"><ele>459.0</ele><time>2026-05-02T10:30:19.999Z</time></trkpt><trkpt lat="39.823366021502274" lon="16.258438627195606"><ele>458.0</ele><time>2026-05-02T10:30:20.999Z</time></trkpt><trkpt lat="39.82304941219312" lon="16.258191659259186"><ele>457.0</ele><time>2026-05-02T10:30:21.999Z</time></trkpt><trkpt lat="39.822739903679945" lon="16.257932882631476"><ele>454.0</ele><time>2026-05-02T10:30:22.999Z</time></trkpt><trkpt lat="39.82243630086368" lon="16.25767306123147"><ele>451.0</ele><time>2026-05-02T10:30:23.999Z</time></trkpt><trkpt lat="39.8221358882242" lon="16.257421036916096"><ele>450.0</ele><time>2026-05-02T10:30:24.999Z</time></trkpt><trkpt lat="39.82183412946956" lon="16.25717329648259"><ele>449.0</ele><time>2026-05-02T10:30:25.999Z</time></trkpt><trkpt lat="39.82152836185555" lon="16.256930763943412"><ele>446.0</ele><time>2026-05-02T10:30:26.999Z</time></trkpt><trkpt lat="39.821223035120624" lon="16.256684141012713"><ele>443.0</ele><time>2026-05-02T10:30:27.999Z</time></trkpt><trkpt lat="39.82091420693924" lon="16.256435925646088"><ele>439.0</ele><time>2026-05-02T10:30:28.999Z</time></trkpt><trkpt lat="39.82060404064983" lon="16.256196995497007"><ele>435.0</ele><time>2026-05-02T10:30:29.999Z</time></trkpt><trkpt lat="39.82029022975711" lon="16.255978153943996"><ele>431.5</ele><time>2026-05-02T10:30:30.999Z</time></trkpt><trkpt lat="39.819969248837914" lon="16.255768645861156"><ele>428.0</ele><time>2026-05-02T10:30:31.999Z</time></trkpt><trkpt lat="39.819642369806424" lon="16.25557872237283"><ele>424.5</ele><time>2026-05-02T10:30:32.999Z</time></trkpt><trkpt lat="39.81931037490247" lon="16.255399208621213"><ele>421.0</ele><time>2026-05-02T10:30:33.999Z</time></trkpt><trkpt lat="39.81897226963835" lon="16.255230196904893"><ele>421.0</ele><time>2026-05-02T10:30:34.999Z</time></trkpt><trkpt lat="39.8186280860112" lon="16.255073969879117"><ele>421.0</ele><time>2026-05-02T10:30:35.999Z</time></trkpt><trkpt lat="39.81827842907455" lon="16.254929659142835"><ele>420.0</ele><time>2026-05-02T10:30:36.999Z</time></trkpt><trkpt lat="39.81792600712325" lon="16.2547995640642"><ele>419.0</ele><time>2026-05-02T10:30:37.999Z</time></trkpt><trkpt lat="39.81757314850349" lon="16.25467480317653"><ele>417.5</ele><time>2026-05-02T10:30:38.999Z</time></trkpt><trkpt lat="39.817219430007846" lon="16.254550082120424"><ele>416.0</ele><time>2026-05-02T10:30:39.999Z</time></trkpt><trkpt lat="39.81686478308446" lon="16.25442153796704"><ele>415.0</ele><time>2026-05-02T10:30:40.999Z</time></trkpt><trkpt lat="39.816510475117866" lon="16.25429424992365"><ele>414.0</ele><time>2026-05-02T10:30:41.999Z</time></trkpt><trkpt lat="39.81615351939798" lon="16.25416457510427"><ele>413.5</ele><time>2026-05-02T10:30:42.999Z</time></trkpt><trkpt lat="39.815796775486916" lon="16.25403411509711"><ele>413.0</ele><time>2026-05-02T10:30:43.999Z</time></trkpt><trkpt lat="39.81543913486812" lon="16.253901027775612"><ele>411.0</ele><time>2026-05-02T10:30:44.999Z</time></trkpt><trkpt lat="39.8150800585352" lon="16.25376588575079"><ele>409.0</ele><time>2026-05-02T10:30:45.999Z</time></trkpt><trkpt lat="39.81471739901337" lon="16.253627854571853"><ele>409.0</ele><time>2026-05-02T10:30:46.999Z</time></trkpt><trkpt lat="39.81435413947567" lon="16.253491793152925"><ele>409.0</ele><time>2026-05-02T10:30:47.999Z</time></trkpt><trkpt lat="39.81398884151991" lon="16.253356660682062"><ele>406.5</ele><time>2026-05-02T10:30:48.999Z</time></trkpt><trkpt lat="39.81362700472439" lon="16.25322240419286"><ele>404.0</ele><time>2026-05-02T10:30:49.998Z</time></trkpt><trkpt lat="39.81326499613105" lon="16.253089340779965"><ele>396.0</ele><time>2026-05-02T10:30:50.998Z</time></trkpt><trkpt lat="39.81290392094105" lon="16.25295558558308"><ele>388.0</ele><time>2026-05-02T10:30:51.998Z</time></trkpt><trkpt lat="39.812547544544884" lon="16.25282517463037"><ele>380.5</ele><time>2026-05-02T10:30:52.998Z</time></trkpt><trkpt lat="39.812196399371444" lon="16.25269807138491"><ele>373.0</ele><time>2026-05-02T10:30:53.998Z</time></trkpt><trkpt lat="39.811851267267116" lon="16.252573210845096"><ele>369.5</ele><time>2026-05-02T10:30:54.998Z</time></trkpt><trkpt lat="39.81150495935681" lon="16.25244516113884"><ele>366.0</ele><time>2026-05-02T10:30:55.998Z</time></trkpt><trkpt lat="39.81116103454342" lon="16.25231606308962"><ele>366.0</ele><time>2026-05-02T10:30:56.998Z</time></trkpt><trkpt lat="39.810825852858514" lon="16.25218756750459"><ele>366.0</ele><time>2026-05-02T10:30:57.998Z</time></trkpt><trkpt lat="39.810495629674854" lon="16.252049828439162"><ele>366.0</ele><time>2026-05-02T10:30:58.998Z</time></trkpt><trkpt lat="39.81017512372945" lon="16.251880542901194"><ele>366.0</ele><time>2026-05-02T10:30:59.998Z</time></trkpt><trkpt lat="39.80986669268115" lon="16.25167047887512"><ele>371.5</ele><time>2026-05-02T10:31:00.998Z</time></trkpt><trkpt lat="39.80956595768546" lon="16.251426546421047"><ele>377.0</ele><time>2026-05-02T10:31:01.998Z</time></trkpt><trkpt lat="39.80927997708924" lon="16.25115753305525"><ele>381.0</ele><time>2026-05-02T10:31:02.998Z</time></trkpt><trkpt lat="39.80900293399013" lon="16.250862299741566"><ele>385.0</ele><time>2026-05-02T10:31:03.998Z</time></trkpt><trkpt lat="39.80873814251121" lon="16.250548571373653"><ele>386.0</ele><time>2026-05-02T10:31:04.998Z</time></trkpt><trkpt lat="39.80847265986082" lon="16.250219681028053"><ele>387.0</ele><time>2026-05-02T10:31:05.998Z</time></trkpt><trkpt lat="39.808202419947065" lon="16.24989056481385"><ele>386.0</ele><time>2026-05-02T10:31:06.998Z</time></trkpt><trkpt lat="39.80792863165319" lon="16.249563395988826"><ele>385.0</ele><time>2026-05-02T10:31:07.998Z</time></trkpt><trkpt lat="39.80765325966862" lon="16.249235303397292"><ele>380.0</ele><time>2026-05-02T10:31:08.998Z</time></trkpt><trkpt lat="39.80737568870661" lon="16.248905513040565"><ele>375.0</ele><time>2026-05-02T10:31:09.998Z</time></trkpt><trkpt lat="39.80710005099676" lon="16.24857635009825"><ele>376.0</ele><time>2026-05-02T10:31:10.998Z</time></trkpt><trkpt lat="39.80682071283379" lon="16.248247440173543"><ele>377.0</ele><time>2026-05-02T10:31:11.998Z</time></trkpt><trkpt lat="39.80654331418947" lon="16.247925122685032"><ele>373.5</ele><time>2026-05-02T10:31:12.998Z</time></trkpt><trkpt lat="39.80626711193132" lon="16.247607593142664"><ele>370.0</ele><time>2026-05-02T10:31:13.998Z</time></trkpt><trkpt lat="39.80599324779538" lon="16.247291061090625"><ele>370.0</ele><time>2026-05-02T10:31:14.998Z</time></trkpt><trkpt lat="39.80571958758117" lon="16.24697421260472"><ele>370.0</ele><time>2026-05-02T10:31:15.998Z</time></trkpt><trkpt lat="39.80544954307289" lon="16.246658028261468"><ele>369.0</ele><time>2026-05-02T10:31:17Z</time></trkpt><trkpt lat="39.805185466820845" lon="16.246347268815935"><ele>368.0</ele><time>2026-05-02T10:31:18Z</time></trkpt><trkpt lat="39.80492627627941" lon="16.246039621043636"><ele>368.0</ele><time>2026-05-02T10:31:19Z</time></trkpt><trkpt lat="39.80466907203281" lon="16.24573375802894"><ele>368.0</ele><time>2026-05-02T10:31:20Z</time></trkpt><trkpt lat="39.804412885191" lon="16.245428892386744"><ele>365.5</ele><time>2026-05-02T10:31:21Z</time></trkpt><trkpt lat="39.80415523997095" lon="16.245125727124147"><ele>363.0</ele><time>2026-05-02T10:31:22Z</time></trkpt><trkpt lat="39.80390093131455" lon="16.244822277130588"><ele>363.0</ele><time>2026-05-02T10:31:23Z</time></trkpt><trkpt lat="39.803646518337125" lon="16.244521637445978"><ele>363.0</ele><time>2026-05-02T10:31:24Z</time></trkpt><trkpt lat="39.80338991219087" lon="16.244215063415563"><ele>359.0</ele><time>2026-05-02T10:31:25Z</time></trkpt><trkpt lat="39.803129804858166" lon="16.24390513967703"><ele>355.0</ele><time>2026-05-02T10:31:26Z</time></trkpt><trkpt lat="39.80286718081556" lon="16.243595021749186"><ele>355.0</ele><time>2026-05-02T10:31:27Z</time></trkpt><trkpt lat="39.802603922075185" lon="16.24328535315122"><ele>355.0</ele><time>2026-05-02T10:31:28Z</time></trkpt><trkpt lat="39.80233959656197" lon="16.242973576226483"><ele>355.0</ele><time>2026-05-02T10:31:29Z</time></trkpt><trkpt lat="39.80207579240729" lon="16.24266263078355"><ele>355.0</ele><time>2026-05-02T10:31:30Z</time></trkpt><trkpt lat="39.801812550185836" lon="16.242348203810607"><ele>355.0</ele><time>2026-05-02T10:31:31Z</time></trkpt><trkpt lat="39.80154806391281" lon="16.242033817167624"><ele>355.0</ele><time>2026-05-02T10:31:32Z</time></trkpt><trkpt lat="39.801281995823615" lon="16.24171776642111"><ele>354.5</ele><time>2026-05-02T10:31:33Z</time></trkpt><trkpt lat="39.80101580026242" lon="16.241403373550494"><ele>354.0</ele><time>2026-05-02T10:31:34Z</time></trkpt><trkpt lat="39.800750552062055" lon="16.241089595334657"><ele>354.0</ele><time>2026-05-02T10:31:35Z</time></trkpt><trkpt lat="39.80048493073803" lon="16.240774163701822"><ele>354.0</ele><time>2026-05-02T10:31:36Z</time></trkpt><trkpt lat="39.800220437575746" lon="16.24045813399796"><ele>352.5</ele><time>2026-05-02T10:31:37Z</time></trkpt><trkpt lat="39.799956308573414" lon="16.240143032485438"><ele>351.0</ele><time>2026-05-02T10:31:38Z</time></trkpt><trkpt lat="39.799691438662904" lon="16.239827118448126"><ele>350.0</ele><time>2026-05-02T10:31:38.999Z</time></trkpt><trkpt lat="39.79942868443984" lon="16.239509138425756"><ele>349.0</ele><time>2026-05-02T10:31:39.999Z</time></trkpt><trkpt lat="39.79916716508976" lon="16.239191468327988"><ele>347.0</ele><time>2026-05-02T10:31:40.999Z</time></trkpt><trkpt lat="39.79890626309026" lon="16.238873332285397"><ele>345.0</ele><time>2026-05-02T10:31:41.999Z</time></trkpt><trkpt lat="39.79864782462079" lon="16.238549616986493"><ele>347.0</ele><time>2026-05-02T10:31:42.999Z</time></trkpt><trkpt lat="39.798401699774345" lon="16.238214657164043"><ele>349.0</ele><time>2026-05-02T10:31:43.999Z</time></trkpt><trkpt lat="39.7981802998092" lon="16.23785978957289"><ele>348.5</ele><time>2026-05-02T10:31:44.999Z</time></trkpt><trkpt lat="39.79797717142242" lon="16.237487073225054"><ele>348.0</ele><time>2026-05-02T10:31:45.999Z</time></trkpt><trkpt lat="39.797793422275724" lon="16.237097596561046"><ele>349.0</ele><time>2026-05-02T10:31:46.999Z</time></trkpt><trkpt lat="39.79763299286845" lon="16.23668727588061"><ele>350.0</ele><time>2026-05-02T10:31:47.999Z</time></trkpt><trkpt lat="39.79748774559778" lon="16.236264523387863"><ele>350.0</ele><time>2026-05-02T10:31:48.999Z</time></trkpt><trkpt lat="39.797359100662355" lon="16.23583255159063"><ele>350.0</ele><time>2026-05-02T10:31:49.999Z</time></trkpt><trkpt lat="39.79723801992187" lon="16.23539631993375"><ele>349.0</ele><time>2026-05-02T10:31:50.999Z</time></trkpt><trkpt lat="39.797114135392995" lon="16.2349594773886"><ele>348.0</ele><time>2026-05-02T10:31:51.999Z</time></trkpt><trkpt lat="39.79698631289004" lon="16.23452426366853"><ele>347.0</ele><time>2026-05-02T10:31:52.999Z</time></trkpt><trkpt lat="39.796849965676124" lon="16.234096042541793"><ele>346.0</ele><time>2026-05-02T10:31:53.999Z</time></trkpt><trkpt lat="39.79670208659631" lon="16.233678103301052"><ele>348.5</ele><time>2026-05-02T10:31:54.999Z</time></trkpt><trkpt lat="39.79653816382375" lon="16.233265579006734"><ele>351.0</ele><time>2026-05-02T10:31:55.999Z</time></trkpt><trkpt lat="39.79635978106629" lon="16.23286074102636"><ele>351.0</ele><time>2026-05-02T10:31:56.999Z</time></trkpt><trkpt lat="39.79616994426926" lon="16.232462405468812"><ele>351.0</ele><time>2026-05-02T10:31:57.999Z</time></trkpt><trkpt lat="39.79596667128924" lon="16.232074423853387"><ele>350.0</ele><time>2026-05-02T10:31:58.999Z</time></trkpt><trkpt lat="39.79574733452641" lon="16.231698226398276"><ele>349.0</ele><time>2026-05-02T10:31:59.999Z</time></trkpt><trkpt lat="39.795516615757705" lon="16.231334743685753"><ele>346.0</ele><time>2026-05-02T10:32:00.999Z</time></trkpt><trkpt lat="39.79527253408102" lon="16.23098107985997"><ele>343.0</ele><time>2026-05-02T10:32:01.999Z</time></trkpt><trkpt lat="39.79501709471451" lon="16.230639305498272"><ele>341.5</ele><time>2026-05-02T10:32:02.999Z</time></trkpt><trkpt lat="39.794751634489586" lon="16.23031324979921"><ele>340.0</ele><time>2026-05-02T10:32:03.999Z</time></trkpt><trkpt lat="39.79447746261049" lon="16.23000474334028"><ele>338.0</ele><time>2026-05-02T10:32:04.999Z</time></trkpt><trkpt lat="39.79419455623972" lon="16.229708934919042"><ele>336.0</ele><time>2026-05-02T10:32:05.999Z</time></trkpt><trkpt lat="39.793905593465674" lon="16.229431162996566"><ele>336.0</ele><time>2026-05-02T10:32:06.999Z</time></trkpt><trkpt lat="39.793607610086916" lon="16.22917034608882"><ele>336.0</ele><time>2026-05-02T10:32:07.999Z</time></trkpt><trkpt lat="39.79330379495264" lon="16.228930150786752"><ele>334.5</ele><time>2026-05-02T10:32:08.999Z</time></trkpt><trkpt lat="39.79299469679546" lon="16.228711576612554"><ele>333.0</ele><time>2026-05-02T10:32:09.999Z</time></trkpt><trkpt lat="39.792684725773704" lon="16.22850865132341"><ele>333.5</ele><time>2026-05-02T10:32:10.999Z</time></trkpt><trkpt lat="39.79237778971614" lon="16.228326395637065"><ele>334.0</ele><time>2026-05-02T10:32:11.999Z</time></trkpt><trkpt lat="39.7920720479582" lon="16.22816428541787"><ele>331.0</ele><time>2026-05-02T10:32:12.999Z</time></trkpt><trkpt lat="39.791766731407556" lon="16.228023675710418"><ele>328.0</ele><time>2026-05-02T10:32:13.999Z</time></trkpt><trkpt lat="39.79146629474145" lon="16.227903444153405"><ele>328.0</ele><time>2026-05-02T10:32:14.999Z</time></trkpt><trkpt lat="39.79117310157943" lon="16.22779765814387"><ele>328.0</ele><time>2026-05-02T10:32:15.999Z</time></trkpt><trkpt lat="39.79089028746001" lon="16.227699925709928"><ele>330.5</ele><time>2026-05-02T10:32:16.999Z</time></trkpt><trkpt lat="39.79061876928215" lon="16.22760157753029"><ele>333.0</ele><time>2026-05-02T10:32:17.999Z</time></trkpt><trkpt lat="39.79035663152435" lon="16.227507505016117"><ele>334.5</ele><time>2026-05-02T10:32:18.999Z</time></trkpt><trkpt lat="39.790101952409245" lon="16.22741565385734"><ele>336.0</ele><time>2026-05-02T10:32:19.999Z</time></trkpt><trkpt lat="39.78985355128095" lon="16.227325164884164"><ele>333.0</ele><time>2026-05-02T10:32:20.999Z</time></trkpt><trkpt lat="39.789611506720725" lon="16.22723509212322"><ele>330.0</ele><time>2026-05-02T10:32:21.999Z</time></trkpt><trkpt lat="39.789375190145435" lon="16.22714779658535"><ele>331.5</ele><time>2026-05-02T10:32:22.999Z</time></trkpt><trkpt lat="39.789134726752344" lon="16.227058273344877"><ele>333.0</ele><time>2026-05-02T10:32:23.999Z</time></trkpt><trkpt lat="39.78889782293993" lon="16.22697050205744"><ele>333.0</ele><time>2026-05-02T10:32:24.999Z</time></trkpt><trkpt lat="39.788664130476896" lon="16.22688409950685"><ele>333.0</ele><time>2026-05-02T10:32:25.999Z</time></trkpt><trkpt lat="39.78843259219924" lon="16.226798053657497"><ele>331.0</ele><time>2026-05-02T10:32:26.999Z</time></trkpt><trkpt lat="39.78819946475245" lon="16.22671125173912"><ele>329.0</ele><time>2026-05-02T10:32:27.999Z</time></trkpt><trkpt lat="39.7879640143742" lon="16.226624047492095"><ele>329.0</ele><time>2026-05-02T10:32:28.999Z</time></trkpt><trkpt lat="39.78772525683729" lon="16.226535622646658"><ele>329.0</ele><time>2026-05-02T10:32:29.999Z</time></trkpt><trkpt lat="39.787486346635234" lon="16.226444638073307"><ele>326.5</ele><time>2026-05-02T10:32:30.999Z</time></trkpt><trkpt lat="39.78724625194479" lon="16.226353626569214"><ele>324.0</ele><time>2026-05-02T10:32:31.999Z</time></trkpt><trkpt lat="39.7870030683976" lon="16.226264386014343"><ele>321.0</ele><time>2026-05-02T10:32:32.999Z</time></trkpt><trkpt lat="39.78676051209033" lon="16.22617514357562"><ele>318.0</ele><time>2026-05-02T10:32:33.999Z</time></trkpt><trkpt lat="39.78651615544553" lon="16.226084599173824"><ele>318.0</ele><time>2026-05-02T10:32:34.999Z</time></trkpt><trkpt lat="39.786271361921955" lon="16.225994779044367"><ele>318.0</ele><time>2026-05-02T10:32:35.999Z</time></trkpt><trkpt lat="39.78602742245627" lon="16.225906782534025"><ele>315.0</ele><time>2026-05-02T10:32:36.999Z</time></trkpt><trkpt lat="39.78579235030044" lon="16.22581893922611"><ele>312.0</ele><time>2026-05-02T10:32:37.999Z</time></trkpt><trkpt lat="39.78556787178209" lon="16.225733958919246"><ele>312.0</ele><time>2026-05-02T10:32:38.999Z</time></trkpt><trkpt lat="39.78534886811998" lon="16.22565050315135"><ele>312.0</ele><time>2026-05-02T10:32:39.999Z</time></trkpt><trkpt lat="39.7851326856471" lon="16.225567896952075"><ele>311.3333333333333</ele><time>2026-05-02T10:32:40.999Z</time></trkpt><trkpt lat="39.78492031476288" lon="16.225488734428133"><ele>310.66666666666663</ele><time>2026-05-02T10:32:41.999Z</time></trkpt><trkpt lat="39.784711084680104" lon="16.225411750198457"><ele>310.0</ele><time>2026-05-02T10:32:42.999Z</time></trkpt><trkpt lat="39.784499970153476" lon="16.225332806510142"><ele>307.0</ele><time>2026-05-02T10:32:43.999Z</time></trkpt><trkpt lat="39.78428805754603" lon="16.225252268512417"><ele>304.0</ele><time>2026-05-02T10:32:44.999Z</time></trkpt><trkpt lat="39.7840751073838" lon="16.225172408705685"><ele>301.0</ele><time>2026-05-02T10:32:45.999Z</time></trkpt><trkpt lat="39.78385980901201" lon="16.22509304914083"><ele>301.0</ele><time>2026-05-02T10:32:46.999Z</time></trkpt><trkpt lat="39.783640115805916" lon="16.225013515315545"><ele>301.0</ele><time>2026-05-02T10:32:47.999Z</time></trkpt><trkpt lat="39.783419665434266" lon="16.224931558717334"><ele>283.5</ele><time>2026-05-02T10:32:48.999Z</time></trkpt><trkpt lat="39.783200032067356" lon="16.224849288259648"><ele>266.0</ele><time>2026-05-02T10:32:49.999Z</time></trkpt><trkpt lat="39.78298088140982" lon="16.224766746821803"><ele>261.0</ele><time>2026-05-02T10:32:50.999Z</time></trkpt><trkpt lat="39.78276279291058" lon="16.224683631363227"><ele>256.0</ele><time>2026-05-02T10:32:51.999Z</time></trkpt><trkpt lat="39.78254452329604" lon="16.22460200802906"><ele>234.5</ele><time>2026-05-02T10:32:52.999Z</time></trkpt><trkpt lat="39.7823274827557" lon="16.22452202643079"><ele>213.0</ele><time>2026-05-02T10:32:53.999Z</time></trkpt><trkpt lat="39.78211060887457" lon="16.22444203762357"><ele>213.0</ele><time>2026-05-02T10:32:54.999Z</time></trkpt><trkpt lat="39.78189099048263" lon="16.224360382401642"><ele>213.0</ele><time>2026-05-02T10:32:55.999Z</time></trkpt><trkpt lat="39.7816691088392" lon="16.224276697128396"><ele>196.0</ele><time>2026-05-02T10:32:56.999Z</time></trkpt><trkpt lat="39.78144270769045" lon="16.224191612296543"><ele>179.0</ele><time>2026-05-02T10:32:57.999Z</time></trkpt><trkpt lat="39.78121433003811" lon="16.224108657252284"><ele>177.5</ele><time>2026-05-02T10:32:58.999Z</time></trkpt><trkpt lat="39.78098162722367" lon="16.224023562390848"><ele>176.0</ele><time>2026-05-02T10:32:59.999Z</time></trkpt><trkpt lat="39.78074734529887" lon="16.223935568533005"><ele>182.5</ele><time>2026-05-02T10:33:00.999Z</time></trkpt><trkpt lat="39.7805118984037" lon="16.223848092320754"><ele>189.0</ele><time>2026-05-02T10:33:01.999Z</time></trkpt><trkpt lat="39.780280522840144" lon="16.223765242838493"><ele>207.0</ele><time>2026-05-02T10:33:02.998Z</time></trkpt><trkpt lat="39.780051141824664" lon="16.22367971510983"><ele>225.0</ele><time>2026-05-02T10:33:03.998Z</time></trkpt><trkpt lat="39.77982236540505" lon="16.223597050697002"><ele>225.0</ele><time>2026-05-02T10:33:04.998Z</time></trkpt><trkpt lat="39.77959247391317" lon="16.22351229929111"><ele>225.0</ele><time>2026-05-02T10:33:05.998Z</time></trkpt><trkpt lat="39.7793633560794" lon="16.223427099342956"><ele>233.0</ele><time>2026-05-02T10:33:06.998Z</time></trkpt><trkpt lat="39.77913581262038" lon="16.223340574314303"><ele>241.0</ele><time>2026-05-02T10:33:07.998Z</time></trkpt><trkpt lat="39.77890967508575" lon="16.22325599820649"><ele>241.0</ele><time>2026-05-02T10:33:08.998Z</time></trkpt><trkpt lat="39.778687679012954" lon="16.223175702978978"><ele>241.0</ele><time>2026-05-02T10:33:09.998Z</time></trkpt><trkpt lat="39.77846069375474" lon="16.223098237086194"><ele>255.5</ele><time>2026-05-02T10:33:10.998Z</time></trkpt><trkpt lat="39.77823014078961" lon="16.223034613719626"><ele>270.0</ele><time>2026-05-02T10:33:11.998Z</time></trkpt><trkpt lat="39.777993537012435" lon="16.222980563137227"><ele>270.0</ele><time>2026-05-02T10:33:12.998Z</time></trkpt><trkpt lat="39.777749015244694" lon="16.222939146986725"><ele>270.0</ele><time>2026-05-02T10:33:13.998Z</time></trkpt><trkpt lat="39.77750556949129" lon="16.222911412096632"><ele>271.0</ele><time>2026-05-02T10:33:14.998Z</time></trkpt><trkpt lat="39.77726529072731" lon="16.222896144579586"><ele>272.0</ele><time>2026-05-02T10:33:15.998Z</time></trkpt><trkpt lat="39.7770292153319" lon="16.22289159352964"><ele>271.0</ele><time>2026-05-02T10:33:16.998Z</time></trkpt><trkpt lat="39.776791851482365" lon="16.222896617961766"><ele>270.0</ele><time>2026-05-02T10:33:17.998Z</time></trkpt><trkpt lat="39.77654256387088" lon="16.222913306308765"><ele>270.0</ele><time>2026-05-02T10:33:18.998Z</time></trkpt><trkpt lat="39.77628495540838" lon="16.222945176587466"><ele>270.0</ele><time>2026-05-02T10:33:19.998Z</time></trkpt><trkpt lat="39.776019676380905" lon="16.222993743648104"><ele>271.0</ele><time>2026-05-02T10:33:20.998Z</time></trkpt><trkpt lat="39.7757502179019" lon="16.22305542923239"><ele>272.0</ele><time>2026-05-02T10:33:21.998Z</time></trkpt><trkpt lat="39.77547279752482" lon="16.223133660976625"><ele>267.0</ele><time>2026-05-02T10:33:23Z</time></trkpt><trkpt lat="39.77519292474093" lon="16.22321863404973"><ele>262.0</ele><time>2026-05-02T10:33:24Z</time></trkpt><trkpt lat="39.7749051250537" lon="16.2233081382639"><ele>264.5</ele><time>2026-05-02T10:33:25Z</time></trkpt><trkpt lat="39.77461029770969" lon="16.22339596888612"><ele>267.0</ele><time>2026-05-02T10:33:26Z</time></trkpt><trkpt lat="39.77430955050891" lon="16.223487030535598"><ele>267.0</ele><time>2026-05-02T10:33:27Z</time></trkpt><trkpt lat="39.77400488352542" lon="16.223579293116636"><ele>267.0</ele><time>2026-05-02T10:33:28Z</time></trkpt><trkpt lat="39.773693445643104" lon="16.22367298982725"><ele>270.5</ele><time>2026-05-02T10:33:29Z</time></trkpt><trkpt lat="39.773378512575796" lon="16.223765736021846"><ele>274.0</ele><time>2026-05-02T10:33:30Z</time></trkpt><trkpt lat="39.77306121689241" lon="16.223858367204148"><ele>274.0</ele><time>2026-05-02T10:33:31Z</time></trkpt><trkpt lat="39.77274090198687" lon="16.223947267048857"><ele>274.0</ele><time>2026-05-02T10:33:32Z</time></trkpt><trkpt lat="39.77241314629777" lon="16.224023841674352"><ele>271.5</ele><time>2026-05-02T10:33:33Z</time></trkpt><trkpt lat="39.77207923424945" lon="16.224082152960715"><ele>269.0</ele><time>2026-05-02T10:33:34Z</time></trkpt><trkpt lat="39.77174284608081" lon="16.22412266855637"><ele>268.0</ele><time>2026-05-02T10:33:35Z</time></trkpt><trkpt lat="39.77140572460965" lon="16.224150030394274"><ele>267.0</ele><time>2026-05-02T10:33:36Z</time></trkpt><trkpt lat="39.77106571604586" lon="16.22416135706595"><ele>266.0</ele><time>2026-05-02T10:33:37Z</time></trkpt><trkpt lat="39.77072069749182" lon="16.22415686184273"><ele>265.0</ele><time>2026-05-02T10:33:38Z</time></trkpt><trkpt lat="39.770377301598145" lon="16.224136310546903"><ele>264.0</ele><time>2026-05-02T10:33:39Z</time></trkpt><trkpt lat="39.77003805846598" lon="16.22409430683515"><ele>263.0</ele><time>2026-05-02T10:33:40Z</time></trkpt><trkpt lat="39.7696979663182" lon="16.224036069612122"><ele>262.0</ele><time>2026-05-02T10:33:41Z</time></trkpt><trkpt lat="39.769358488986136" lon="16.223962144952214"><ele>261.0</ele><time>2026-05-02T10:33:42Z</time></trkpt><trkpt lat="39.76902156919146" lon="16.22386881398204"><ele>261.0</ele><time>2026-05-02T10:33:43Z</time></trkpt><trkpt lat="39.76868443438405" lon="16.223754824801812"><ele>261.0</ele><time>2026-05-02T10:33:44Z</time></trkpt><trkpt lat="39.768349410835235" lon="16.223622621432103"><ele>257.0</ele><time>2026-05-02T10:33:45Z</time></trkpt><trkpt lat="39.76801585056979" lon="16.223472842767332"><ele>253.0</ele><time>2026-05-02T10:33:46Z</time></trkpt><trkpt lat="39.76768336226487" lon="16.22330934264735"><ele>240.0</ele><time>2026-05-02T10:33:47Z</time></trkpt><trkpt lat="39.76734982943092" lon="16.223136772320757"><ele>227.0</ele><time>2026-05-02T10:33:48Z</time></trkpt><trkpt lat="39.76701847348707" lon="16.222963173554252"><ele>235.0</ele><time>2026-05-02T10:33:49Z</time></trkpt><trkpt lat="39.76668344443549" lon="16.222791736208983"><ele>243.0</ele><time>2026-05-02T10:33:50Z</time></trkpt><trkpt lat="39.76634865019254" lon="16.222623604275398"><ele>241.0</ele><time>2026-05-02T10:33:51Z</time></trkpt><trkpt lat="39.76601393487117" lon="16.22245576648146"><ele>239.0</ele><time>2026-05-02T10:33:52Z</time></trkpt><trkpt lat="39.76567825132994" lon="16.222287189618537"><ele>245.0</ele><time>2026-05-02T10:33:53Z</time></trkpt><trkpt lat="39.76534176861685" lon="16.22211786575104"><ele>251.0</ele><time>2026-05-02T10:33:54Z</time></trkpt><trkpt lat="39.76500382751106" lon="16.221950676431987"><ele>251.0</ele><time>2026-05-02T10:33:54.999Z</time></trkpt><trkpt lat="39.76466288383128" lon="16.22178199351145"><ele>251.0</ele><time>2026-05-02T10:33:55.999Z</time></trkpt><trkpt lat="39.76432203224234" lon="16.221613740895126"><ele>250.0</ele><time>2026-05-02T10:33:56.999Z</time></trkpt><trkpt lat="39.763983197775865" lon="16.221449369927303"><ele>249.0</ele><time>2026-05-02T10:33:57.999Z</time></trkpt><trkpt lat="39.76364981778415" lon="16.221285297356488"><ele>241.5</ele><time>2026-05-02T10:33:58.999Z</time></trkpt><trkpt lat="39.763318036756814" lon="16.22112092241984"><ele>234.0</ele><time>2026-05-02T10:33:59.999Z</time></trkpt><trkpt lat="39.7629889152365" lon="16.220956189708406"><ele>226.5</ele><time>2026-05-02T10:34:00.999Z</time></trkpt><trkpt lat="39.762662434646494" lon="16.220794797519943"><ele>219.0</ele><time>2026-05-02T10:34:01.999Z</time></trkpt><trkpt lat="39.76233423191838" lon="16.22063949701554"><ele>219.0</ele><time>2026-05-02T10:34:02.999Z</time></trkpt><trkpt lat="39.76201295684846" lon="16.220507833377905"><ele>219.0</ele><time>2026-05-02T10:34:03.999Z</time></trkpt><trkpt lat="39.76168404488127" lon="16.22040296937837"><ele>210.5</ele><time>2026-05-02T10:34:04.999Z</time></trkpt><trkpt lat="39.76134844021685" lon="16.22033367564417"><ele>202.0</ele><time>2026-05-02T10:34:05.999Z</time></trkpt><trkpt lat="39.761009496418176" lon="16.22030655334031"><ele>192.5</ele><time>2026-05-02T10:34:06.999Z</time></trkpt><trkpt lat="39.76066766967183" lon="16.220312902538176"><ele>183.0</ele><time>2026-05-02T10:34:07.999Z</time></trkpt><trkpt lat="39.76032473631923" lon="16.220337705662903"><ele>170.5</ele><time>2026-05-02T10:34:08.999Z</time></trkpt><trkpt lat="39.759979398163615" lon="16.220362707571898"><ele>158.0</ele><time>2026-05-02T10:34:09.999Z</time></trkpt><trkpt lat="39.75963488308512" lon="16.220384784704418"><ele>150.5</ele><time>2026-05-02T10:34:10.999Z</time></trkpt><trkpt lat="39.75928521249175" lon="16.22040650375909"><ele>143.0</ele><time>2026-05-02T10:34:11.999Z</time></trkpt><trkpt lat="39.75893493766031" lon="16.22042989061853"><ele>143.0</ele><time>2026-05-02T10:34:12.999Z</time></trkpt><trkpt lat="39.75858316024087" lon="16.220451281921342"><ele>143.0</ele><time>2026-05-02T10:34:13.999Z</time></trkpt><trkpt lat="39.75823332597541" lon="16.220472393660025"><ele>143.0</ele><time>2026-05-02T10:34:14.999Z</time></trkpt><trkpt lat="39.75789093435251" lon="16.22049014148136"><ele>143.0</ele><time>2026-05-02T10:34:15.999Z</time></trkpt><trkpt lat="39.75755455288292" lon="16.220506573690866"><ele>152.5</ele><time>2026-05-02T10:34:16.999Z</time></trkpt><trkpt lat="39.75722187564754" lon="16.220520002624475"><ele>162.0</ele><time>2026-05-02T10:34:17.999Z</time></trkpt><trkpt lat="39.75689372449112" lon="16.22053783829218"><ele>176.5</ele><time>2026-05-02T10:34:18.999Z</time></trkpt><trkpt lat="39.756569051580534" lon="16.220570419324254"><ele>191.0</ele><time>2026-05-02T10:34:19.999Z</time></trkpt><trkpt lat="39.75625066521259" lon="16.220628264278275"><ele>198.0</ele><time>2026-05-02T10:34:20.999Z</time></trkpt><trkpt lat="39.75593714574668" lon="16.220720773868184"><ele>205.0</ele><time>2026-05-02T10:34:21.999Z</time></trkpt><trkpt lat="39.75563157927665" lon="16.220851449785886"><ele>205.0</ele><time>2026-05-02T10:34:22.999Z</time></trkpt><trkpt lat="39.7553404990623" lon="16.221022381660035"><ele>205.0</ele><time>2026-05-02T10:34:23.999Z</time></trkpt><trkpt lat="39.75506235808454" lon="16.22123364310645"><ele>204.0</ele><time>2026-05-02T10:34:24.999Z</time></trkpt><trkpt lat="39.754803012189136" lon="16.22148087177164"><ele>203.0</ele><time>2026-05-02T10:34:25.999Z</time></trkpt><trkpt lat="39.75456281931326" lon="16.221761691484357"><ele>201.0</ele><time>2026-05-02T10:34:26.999Z</time></trkpt><trkpt lat="39.75433903871104" lon="16.222067831754146"><ele>199.0</ele><time>2026-05-02T10:34:27.999Z</time></trkpt><trkpt lat="39.7541263470258" lon="16.22238062772332"><ele>199.0</ele><time>2026-05-02T10:34:28.999Z</time></trkpt><trkpt lat="39.75391433331201" lon="16.222686164359228"><ele>199.0</ele><time>2026-05-02T10:34:29.999Z</time></trkpt><trkpt lat="39.753695089151826" lon="16.222978135662142"><ele>196.5</ele><time>2026-05-02T10:34:30.999Z</time></trkpt><trkpt lat="39.75345813857141" lon="16.22324373409306"><ele>194.0</ele><time>2026-05-02T10:34:31.999Z</time></trkpt><trkpt lat="39.75319653069801" lon="16.22347341871593"><ele>194.0</ele><time>2026-05-02T10:34:32.999Z</time></trkpt><trkpt lat="39.75291856180424" lon="16.223668548487677"><ele>194.0</ele><time>2026-05-02T10:34:33.999Z</time></trkpt><trkpt lat="39.752626001884394" lon="16.223831368783244"><ele>194.5</ele><time>2026-05-02T10:34:34.999Z</time></trkpt><trkpt lat="39.75231359691606" lon="16.22395587638486"><ele>195.0</ele><time>2026-05-02T10:34:35.999Z</time></trkpt><trkpt lat="39.75199222786273" lon="16.22405884041562"><ele>186.5</ele><time>2026-05-02T10:34:36.999Z</time></trkpt><trkpt lat="39.75166299995546" lon="16.22413953207557"><ele>178.0</ele><time>2026-05-02T10:34:37.999Z</time></trkpt><trkpt lat="39.75133297302377" lon="16.22421977502208"><ele>179.5</ele><time>2026-05-02T10:34:38.999Z</time></trkpt><trkpt lat="39.75100240163139" lon="16.22430339876832"><ele>181.0</ele><time>2026-05-02T10:34:39.999Z</time></trkpt><trkpt lat="39.75067340035882" lon="16.224389574029065"><ele>181.0</ele><time>2026-05-02T10:34:40.999Z</time></trkpt><trkpt lat="39.75033979981718" lon="16.224473870543463"><ele>181.0</ele><time>2026-05-02T10:34:41.999Z</time></trkpt><trkpt lat="39.75000315100689" lon="16.224558204625627"><ele>182.5</ele><time>2026-05-02T10:34:42.999Z</time></trkpt><trkpt lat="39.74966394004884" lon="16.2246436842705"><ele>184.0</ele><time>2026-05-02T10:34:43.999Z</time></trkpt><trkpt lat="39.74932248847768" lon="16.22473188801243"><ele>177.5</ele><time>2026-05-02T10:34:44.999Z</time></trkpt><trkpt lat="39.748978866831514" lon="16.22481961845141"><ele>171.0</ele><time>2026-05-02T10:34:45.999Z</time></trkpt><trkpt lat="39.7486347425728" lon="16.224907098420147"><ele>169.0</ele><time>2026-05-02T10:34:46.999Z</time></trkpt><trkpt lat="39.74829129411049" lon="16.224993696263983"><ele>167.0</ele><time>2026-05-02T10:34:47.999Z</time></trkpt><trkpt lat="39.74794843069016" lon="16.225080744765847"><ele>164.5</ele><time>2026-05-02T10:34:48.999Z</time></trkpt><trkpt lat="39.74760392287847" lon="16.225168347955194"><ele>162.0</ele><time>2026-05-02T10:34:49.999Z</time></trkpt><trkpt lat="39.74725732782389" lon="16.225254878173953"><ele>162.0</ele><time>2026-05-02T10:34:50.999Z</time></trkpt><trkpt lat="39.746914179086396" lon="16.225342215880985"><ele>162.0</ele><time>2026-05-02T10:34:51.999Z</time></trkpt><trkpt lat="39.74657641932997" lon="16.225436317339717"><ele>158.0</ele><time>2026-05-02T10:34:52.999Z</time></trkpt><trkpt lat="39.74624023119629" lon="16.225540307816114"><ele>154.0</ele><time>2026-05-02T10:34:53.999Z</time></trkpt><trkpt lat="39.745904591231756" lon="16.225658206014753"><ele>154.0</ele><time>2026-05-02T10:34:54.999Z</time></trkpt><trkpt lat="39.74557132385689" lon="16.225789842027922"><ele>154.0</ele><time>2026-05-02T10:34:55.999Z</time></trkpt><trkpt lat="39.74524303369563" lon="16.2259347748424"><ele>152.0</ele><time>2026-05-02T10:34:56.999Z</time></trkpt><trkpt lat="39.744918956999584" lon="16.226098846815194"><ele>150.0</ele><time>2026-05-02T10:34:57.999Z</time></trkpt><trkpt lat="39.744598593042596" lon="16.22628143568358"><ele>146.0</ele><time>2026-05-02T10:34:58.999Z</time></trkpt><trkpt lat="39.74428366918765" lon="16.226481572857445"><ele>142.0</ele><time>2026-05-02T10:34:59.999Z</time></trkpt><trkpt lat="39.743976629591074" lon="16.226699853966196"><ele>142.0</ele><time>2026-05-02T10:35:00.999Z</time></trkpt><trkpt lat="39.743677228778765" lon="16.22693497784055"><ele>142.0</ele><time>2026-05-02T10:35:01.999Z</time></trkpt><trkpt lat="39.74338657161691" lon="16.227180861918168"><ele>138.0</ele><time>2026-05-02T10:35:02.999Z</time></trkpt><trkpt lat="39.743101024239124" lon="16.227432680065256"><ele>134.0</ele><time>2026-05-02T10:35:03.999Z</time></trkpt><trkpt lat="39.74281740046823" lon="16.22768747324096"><ele>132.0</ele><time>2026-05-02T10:35:04.999Z</time></trkpt><trkpt lat="39.742534281385936" lon="16.227941797215724"><ele>130.0</ele><time>2026-05-02T10:35:05.999Z</time></trkpt><trkpt lat="39.742246851805746" lon="16.228192671000105"><ele>127.5</ele><time>2026-05-02T10:35:06.999Z</time></trkpt><trkpt lat="39.741958586581056" lon="16.228441807179284"><ele>125.0</ele><time>2026-05-02T10:35:07.999Z</time></trkpt><trkpt lat="39.74167076108224" lon="16.228691043766915"><ele>125.0</ele><time>2026-05-02T10:35:08.999Z</time></trkpt><trkpt lat="39.74138504455059" lon="16.228939575105635"><ele>125.0</ele><time>2026-05-02T10:35:09.999Z</time></trkpt><trkpt lat="39.74110096087038" lon="16.229186758092354"><ele>127.5</ele><time>2026-05-02T10:35:10.999Z</time></trkpt><trkpt lat="39.740820926438765" lon="16.229431144959122"><ele>130.0</ele><time>2026-05-02T10:35:11.999Z</time></trkpt><trkpt lat="39.7405487665324" lon="16.229670690165715"><ele>128.5</ele><time>2026-05-02T10:35:12.999Z</time></trkpt><trkpt lat="39.74027477339415" lon="16.229909189946383"><ele>127.0</ele><time>2026-05-02T10:35:13.999Z</time></trkpt><trkpt lat="39.73999417947147" lon="16.230147053140218"><ele>127.0</ele><time>2026-05-02T10:35:14.998Z</time></trkpt><trkpt lat="39.739709319040486" lon="16.230380050738216"><ele>127.0</ele><time>2026-05-02T10:35:15.998Z</time></trkpt><trkpt lat="39.739417096637695" lon="16.23060320110772"><ele>124.0</ele><time>2026-05-02T10:35:16.998Z</time></trkpt><trkpt lat="39.73911639544561" lon="16.230809153523015"><ele>121.0</ele><time>2026-05-02T10:35:17.998Z</time></trkpt><trkpt lat="39.7388063589938" lon="16.230998957375714"><ele>121.0</ele><time>2026-05-02T10:35:18.998Z</time></trkpt><trkpt lat="39.73849138250746" lon="16.231174885113997"><ele>121.0</ele><time>2026-05-02T10:35:19.998Z</time></trkpt><trkpt lat="39.738171352916304" lon="16.231336359264084"><ele>116.0</ele><time>2026-05-02T10:35:20.998Z</time></trkpt><trkpt lat="39.73784561781647" lon="16.23148168547482"><ele>111.0</ele><time>2026-05-02T10:35:21.998Z</time></trkpt><trkpt lat="39.73751500259955" lon="16.231611218060564"><ele>111.0</ele><time>2026-05-02T10:35:22.998Z</time></trkpt><trkpt lat="39.73718008859551" lon="16.231723233657227"><ele>111.0</ele><time>2026-05-02T10:35:23.998Z</time></trkpt><trkpt lat="39.73683988073207" lon="16.231821520914686"><ele>111.0</ele><time>2026-05-02T10:35:24.998Z</time></trkpt><trkpt lat="39.736497202061706" lon="16.231908400856327"><ele>111.0</ele><time>2026-05-02T10:35:25.998Z</time></trkpt><trkpt lat="39.73615311047378" lon="16.23198982611748"><ele>111.5</ele><time>2026-05-02T10:35:26.998Z</time></trkpt><trkpt lat="39.73580956264813" lon="16.232072720000463"><ele>112.0</ele><time>2026-05-02T10:35:27.998Z</time></trkpt><trkpt lat="39.73546700395826" lon="16.232161507558835"><ele>111.0</ele><time>2026-05-02T10:35:29Z</time></trkpt><trkpt lat="39.735127121736646" lon="16.232250452079477"><ele>110.0</ele><time>2026-05-02T10:35:30Z</time></trkpt><trkpt lat="39.73478703585324" lon="16.232336911131778"><ele>107.5</ele><time>2026-05-02T10:35:31Z</time></trkpt><trkpt lat="39.73444487026687" lon="16.232424842373486"><ele>105.0</ele><time>2026-05-02T10:35:32Z</time></trkpt><trkpt lat="39.73410121851292" lon="16.232520917778388"><ele>105.0</ele><time>2026-05-02T10:35:33Z</time></trkpt><trkpt lat="39.73375938888561" lon="16.232632203664725"><ele>105.0</ele><time>2026-05-02T10:35:34Z</time></trkpt><trkpt lat="39.733421849179045" lon="16.232762355230737"><ele>104.0</ele><time>2026-05-02T10:35:35Z</time></trkpt><trkpt lat="39.733092343964586" lon="16.23291112100547"><ele>103.0</ele><time>2026-05-02T10:35:36Z</time></trkpt><trkpt lat="39.73276476414717" lon="16.233074001601466"><ele>102.0</ele><time>2026-05-02T10:35:37Z</time></trkpt><trkpt lat="39.73244105715325" lon="16.23324884259639"><ele>101.0</ele><time>2026-05-02T10:35:38Z</time></trkpt><trkpt lat="39.732119009502746" lon="16.23342899707561"><ele>101.0</ele><time>2026-05-02T10:35:39Z</time></trkpt><trkpt lat="39.731797679995275" lon="16.23360925512695"><ele>101.0</ele><time>2026-05-02T10:35:40Z</time></trkpt><trkpt lat="39.731475154468946" lon="16.23378697397726"><ele>101.0</ele><time>2026-05-02T10:35:41Z</time></trkpt><trkpt lat="39.73114998897613" lon="16.233963420214316"><ele>101.0</ele><time>2026-05-02T10:35:42Z</time></trkpt><trkpt lat="39.730821431371595" lon="16.234141798266737"><ele>99.5</ele><time>2026-05-02T10:35:43Z</time></trkpt><trkpt lat="39.730492826669646" lon="16.234322006397065"><ele>98.0</ele><time>2026-05-02T10:35:44Z</time></trkpt><trkpt lat="39.730166966707856" lon="16.234505702253124"><ele>98.0</ele><time>2026-05-02T10:35:45Z</time></trkpt><trkpt lat="39.72984185642473" lon="16.234693232732038"><ele>98.0</ele><time>2026-05-02T10:35:46Z</time></trkpt><trkpt lat="39.72951757343982" lon="16.234880155455564"><ele>100.0</ele><time>2026-05-02T10:35:47Z</time></trkpt><trkpt lat="39.72919143678018" lon="16.235059670744036"><ele>102.0</ele><time>2026-05-02T10:35:48Z</time></trkpt><trkpt lat="39.72886166031167" lon="16.235232178138393"><ele>102.0</ele><time>2026-05-02T10:35:49Z</time></trkpt><trkpt lat="39.72853020365528" lon="16.23539843906804"><ele>102.0</ele><time>2026-05-02T10:35:50Z</time></trkpt><trkpt lat="39.7281981936957" lon="16.235563135834706"><ele>102.0</ele><time>2026-05-02T10:35:51Z</time></trkpt><trkpt lat="39.7278671679463" lon="16.23572536760906"><ele>102.0</ele><time>2026-05-02T10:35:52Z</time></trkpt><trkpt lat="39.72753580935361" lon="16.235887250910775"><ele>102.0</ele><time>2026-05-02T10:35:53Z</time></trkpt><trkpt lat="39.72720518597345" lon="16.23605112932435"><ele>102.0</ele><time>2026-05-02T10:35:54Z</time></trkpt><trkpt lat="39.72687513133856" lon="16.23621687314361"><ele>102.0</ele><time>2026-05-02T10:35:55Z</time></trkpt><trkpt lat="39.72654184217374" lon="16.23638974653158"><ele>102.0</ele><time>2026-05-02T10:35:56Z</time></trkpt><trkpt lat="39.72620754488658" lon="16.23656814279987"><ele>103.0</ele><time>2026-05-02T10:35:57Z</time></trkpt><trkpt lat="39.72587119842485" lon="16.23675154086754"><ele>104.0</ele><time>2026-05-02T10:35:58Z</time></trkpt><trkpt lat="39.72553603289249" lon="16.23693536388419"><ele>105.0</ele><time>2026-05-02T10:35:59Z</time></trkpt><trkpt lat="39.72520117844646" lon="16.237117527227642"><ele>106.0</ele><time>2026-05-02T10:36:00Z</time></trkpt><trkpt lat="39.724862191689716" lon="16.237297710580336"><ele>105.5</ele><time>2026-05-02T10:36:01Z</time></trkpt><trkpt lat="39.72452198567518" lon="16.23747510532928"><ele>105.0</ele><time>2026-05-02T10:36:02Z</time></trkpt><trkpt lat="39.72418271314307" lon="16.237650651139507"><ele>105.0</ele><time>2026-05-02T10:36:03Z</time></trkpt><trkpt lat="39.72384306799663" lon="16.237827442661338"><ele>105.0</ele><time>2026-05-02T10:36:04Z</time></trkpt><trkpt lat="39.723504498075755" lon="16.23800516344142"><ele>107.0</ele><time>2026-05-02T10:36:05Z</time></trkpt><trkpt lat="39.723165731675074" lon="16.238182391644532"><ele>109.0</ele><time>2026-05-02T10:36:05.999Z</time></trkpt><trkpt lat="39.722825860953485" lon="16.238358149234784"><ele>108.0</ele><time>2026-05-02T10:36:06.999Z</time></trkpt><trkpt lat="39.7224853118882" lon="16.238534781917153"><ele>107.0</ele><time>2026-05-02T10:36:07.999Z</time></trkpt><trkpt lat="39.72214272287436" lon="16.23871163874735"><ele>107.0</ele><time>2026-05-02T10:36:08.999Z</time></trkpt><trkpt lat="39.721802192698235" lon="16.238888676441608"><ele>107.0</ele><time>2026-05-02T10:36:09.999Z</time></trkpt><trkpt lat="39.721463765578065" lon="16.239064131059806"><ele>107.0</ele><time>2026-05-02T10:36:10.999Z</time></trkpt><trkpt lat="39.72112742621208" lon="16.239237543541403"><ele>107.0</ele><time>2026-05-02T10:36:11.999Z</time></trkpt><trkpt lat="39.720788022640974" lon="16.239418721683297"><ele>107.5</ele><time>2026-05-02T10:36:12.999Z</time></trkpt><trkpt lat="39.72045550241953" lon="16.239596448357485"><ele>108.0</ele><time>2026-05-02T10:36:13.999Z</time></trkpt><trkpt lat="39.720111513716155" lon="16.239769327161422"><ele>108.0</ele><time>2026-05-02T10:36:14.999Z</time></trkpt><trkpt lat="39.71977402264217" lon="16.239944163122367"><ele>108.0</ele><time>2026-05-02T10:36:15.999Z</time></trkpt><trkpt lat="39.719438890187256" lon="16.24011815898315"><ele>107.5</ele><time>2026-05-02T10:36:16.999Z</time></trkpt><trkpt lat="39.71910495809183" lon="16.24029518370395"><ele>107.0</ele><time>2026-05-02T10:36:17.999Z</time></trkpt><trkpt lat="39.718770784956504" lon="16.24047296936338"><ele>107.0</ele><time>2026-05-02T10:36:18.999Z</time></trkpt><trkpt lat="39.71843164070079" lon="16.24064859045915"><ele>107.0</ele><time>2026-05-02T10:36:19.999Z</time></trkpt><trkpt lat="39.71809381995036" lon="16.24082081618316"><ele>107.0</ele><time>2026-05-02T10:36:20.999Z</time></trkpt><trkpt lat="39.717755469062915" lon="16.240989709528673"><ele>107.0</ele><time>2026-05-02T10:36:21.999Z</time></trkpt><trkpt lat="39.71742011494562" lon="16.2411603191722"><ele>108.5</ele><time>2026-05-02T10:36:22.999Z</time></trkpt><trkpt lat="39.71708575935202" lon="16.241336235359128"><ele>110.0</ele><time>2026-05-02T10:36:23.999Z</time></trkpt><trkpt lat="39.71675191379254" lon="16.241512947456318"><ele>110.0</ele><time>2026-05-02T10:36:24.999Z</time></trkpt><trkpt lat="39.71641735232503" lon="16.241690287388984"><ele>110.0</ele><time>2026-05-02T10:36:25.999Z</time></trkpt><trkpt lat="39.71607998919532" lon="16.241867664794754"><ele>110.5</ele><time>2026-05-02T10:36:26.999Z</time></trkpt><trkpt lat="39.715742353457415" lon="16.242043383519434"><ele>111.0</ele><time>2026-05-02T10:36:27.999Z</time></trkpt><trkpt lat="39.71540547523151" lon="16.242217981454562"><ele>108.5</ele><time>2026-05-02T10:36:28.999Z</time></trkpt><trkpt lat="39.7150671423127" lon="16.242394515101985"><ele>106.0</ele><time>2026-05-02T10:36:29.999Z</time></trkpt><trkpt lat="39.7147291413907" lon="16.24257118436687"><ele>103.5</ele><time>2026-05-02T10:36:30.999Z</time></trkpt><trkpt lat="39.714391445459924" lon="16.24274752527684"><ele>101.0</ele><time>2026-05-02T10:36:31.999Z</time></trkpt><trkpt lat="39.71405154889255" lon="16.2429200124432"><ele>101.0</ele><time>2026-05-02T10:36:32.999Z</time></trkpt><trkpt lat="39.713708719565666" lon="16.243086237509573"><ele>101.0</ele><time>2026-05-02T10:36:33.999Z</time></trkpt><trkpt lat="39.71336147281377" lon="16.243241710453248"><ele>96.5</ele><time>2026-05-02T10:36:34.999Z</time></trkpt><trkpt lat="39.71301329885199" lon="16.243386989642257"><ele>92.0</ele><time>2026-05-02T10:36:35.999Z</time></trkpt><trkpt lat="39.71266349799943" lon="16.243521415486722"><ele>90.0</ele><time>2026-05-02T10:36:36.999Z</time></trkpt><trkpt lat="39.71230986390167" lon="16.24364239331332"><ele>88.0</ele><time>2026-05-02T10:36:37.999Z</time></trkpt><trkpt lat="39.711949494208525" lon="16.24374766365894"><ele>94.5</ele><time>2026-05-02T10:36:38.999Z</time></trkpt><trkpt lat="39.711588857961765" lon="16.24383424570458"><ele>101.0</ele><time>2026-05-02T10:36:39.999Z</time></trkpt><trkpt lat="39.71122469576173" lon="16.24390698587479"><ele>100.0</ele><time>2026-05-02T10:36:40.999Z</time></trkpt><trkpt lat="39.71085899098252" lon="16.243961300391053"><ele>99.0</ele><time>2026-05-02T10:36:41.999Z</time></trkpt><trkpt lat="39.7104894776073" lon="16.243995707801794"><ele>97.5</ele><time>2026-05-02T10:36:42.999Z</time></trkpt><trkpt lat="39.71012042525113" lon="16.24401467564767"><ele>96.0</ele><time>2026-05-02T10:36:43.999Z</time></trkpt><trkpt lat="39.709751266750175" lon="16.244019491125936"><ele>96.5</ele><time>2026-05-02T10:36:44.999Z</time></trkpt><trkpt lat="39.70938412859453" lon="16.24401258311271"><ele>97.0</ele><time>2026-05-02T10:36:45.999Z</time></trkpt><trkpt lat="39.70901848311284" lon="16.243993970648997"><ele>99.5</ele><time>2026-05-02T10:36:46.999Z</time></trkpt><trkpt lat="39.70865437181324" lon="16.24395785053303"><ele>102.0</ele><time>2026-05-02T10:36:47.999Z</time></trkpt><trkpt lat="39.70829051337614" lon="16.243905224842763"><ele>101.0</ele><time>2026-05-02T10:36:48.999Z</time></trkpt><trkpt lat="39.70792741027857" lon="16.243827558672024"><ele>100.0</ele><time>2026-05-02T10:36:49.999Z</time></trkpt><trkpt lat="39.7075634320242" lon="16.24373069409412"><ele>100.0</ele><time>2026-05-02T10:36:50.999Z</time></trkpt><trkpt lat="39.70720079488136" lon="16.24362308421759"><ele>100.0</ele><time>2026-05-02T10:36:51.999Z</time></trkpt><trkpt lat="39.70684109260862" lon="16.243503681351584"><ele>99.0</ele><time>2026-05-02T10:36:52.999Z</time></trkpt><trkpt lat="39.70648094765803" lon="16.243370946438127"><ele>98.0</ele><time>2026-05-02T10:36:53.999Z</time></trkpt><trkpt lat="39.70612342568307" lon="16.24322592813218"><ele>99.0</ele><time>2026-05-02T10:36:54.999Z</time></trkpt><trkpt lat="39.70577084962436" lon="16.243071699324528"><ele>100.0</ele><time>2026-05-02T10:36:55.999Z</time></trkpt><trkpt lat="39.705425595493004" lon="16.24290227928917"><ele>96.0</ele><time>2026-05-02T10:36:56.999Z</time></trkpt><trkpt lat="39.705080731591266" lon="16.242719300676608"><ele>92.0</ele><time>2026-05-02T10:36:57.999Z</time></trkpt><trkpt lat="39.704738350469704" lon="16.242525739298344"><ele>92.0</ele><time>2026-05-02T10:36:58.999Z</time></trkpt><trkpt lat="39.70439762281609" lon="16.24232726733143"><ele>92.0</ele><time>2026-05-02T10:36:59.999Z</time></trkpt><trkpt lat="39.70405988646621" lon="16.242128085238377"><ele>92.0</ele><time>2026-05-02T10:37:00.999Z</time></trkpt><trkpt lat="39.703723026340924" lon="16.241928511045405"><ele>92.0</ele><time>2026-05-02T10:37:01.999Z</time></trkpt><trkpt lat="39.70338179588329" lon="16.241728600832428"><ele>91.0</ele><time>2026-05-02T10:37:02.999Z</time></trkpt><trkpt lat="39.70303930486329" lon="16.241526685574566"><ele>90.0</ele><time>2026-05-02T10:37:03.999Z</time></trkpt><trkpt lat="39.702693652973714" lon="16.241321452568016"><ele>90.0</ele><time>2026-05-02T10:37:04.999Z</time></trkpt><trkpt lat="39.702350983670875" lon="16.241113051212302"><ele>90.0</ele><time>2026-05-02T10:37:05.999Z</time></trkpt><trkpt lat="39.70200903124328" lon="16.24090383710794"><ele>89.5</ele><time>2026-05-02T10:37:06.999Z</time></trkpt><trkpt lat="39.701667362606194" lon="16.240695982334852"><ele>89.0</ele><time>2026-05-02T10:37:07.999Z</time></trkpt><trkpt lat="39.70132895088933" lon="16.24049308673867"><ele>89.0</ele><time>2026-05-02T10:37:08.999Z</time></trkpt><trkpt lat="39.70099354468385" lon="16.240294052748432"><ele>89.0</ele><time>2026-05-02T10:37:09.999Z</time></trkpt><trkpt lat="39.700654366312534" lon="16.240090869031725"><ele>89.0</ele><time>2026-05-02T10:37:10.999Z</time></trkpt><trkpt lat="39.700314597368816" lon="16.239886544958903"><ele>89.0</ele><time>2026-05-02T10:37:11.999Z</time></trkpt><trkpt lat="39.69997685650306" lon="16.23968210768467"><ele>89.0</ele><time>2026-05-02T10:37:12.999Z</time></trkpt><trkpt lat="39.699639772165085" lon="16.23947582181757"><ele>89.0</ele><time>2026-05-02T10:37:13.999Z</time></trkpt><trkpt lat="39.69929987989565" lon="16.239270598783023"><ele>88.5</ele><time>2026-05-02T10:37:14.999Z</time></trkpt><trkpt lat="39.69896097383311" lon="16.239066084727842"><ele>88.0</ele><time>2026-05-02T10:37:15.999Z</time></trkpt><trkpt lat="39.69862302268322" lon="16.238857354753815"><ele>88.0</ele><time>2026-05-02T10:37:16.999Z</time></trkpt><trkpt lat="39.69828439420996" lon="16.238646197435642"><ele>88.0</ele><time>2026-05-02T10:37:17.999Z</time></trkpt><trkpt lat="39.697946454411024" lon="16.23843349526197"><ele>87.5</ele><time>2026-05-02T10:37:18.999Z</time></trkpt><trkpt lat="39.697618762027915" lon="16.238227718547417"><ele>87.0</ele><time>2026-05-02T10:37:19.999Z</time></trkpt><trkpt lat="39.69729780134174" lon="16.23802739504833"><ele>87.0</ele><time>2026-05-02T10:37:20.999Z</time></trkpt><trkpt lat="39.69697464317107" lon="16.237828816656283"><ele>87.0</ele><time>2026-05-02T10:37:21.999Z</time></trkpt><trkpt lat="39.69664603610078" lon="16.23762964251608"><ele>88.5</ele><time>2026-05-02T10:37:22.999Z</time></trkpt><trkpt lat="39.696317744132976" lon="16.2374323851957"><ele>90.0</ele><time>2026-05-02T10:37:23.999Z</time></trkpt><trkpt lat="39.69599197225664" lon="16.237228946944015"><ele>90.5</ele><time>2026-05-02T10:37:24.998Z</time></trkpt><trkpt lat="39.6956683541496" lon="16.2370120229123"><ele>91.0</ele><time>2026-05-02T10:37:25.998Z</time></trkpt><trkpt lat="39.695344288645245" lon="16.23678231264313"><ele>90.5</ele><time>2026-05-02T10:37:26.998Z</time></trkpt><trkpt lat="39.69502103974694" lon="16.23654448881073"><ele>90.0</ele><time>2026-05-02T10:37:27.998Z</time></trkpt><trkpt lat="39.694705821795715" lon="16.236294554376954"><ele>91.5</ele><time>2026-05-02T10:37:28.998Z</time></trkpt><trkpt lat="39.69440077424592" lon="16.23602966500308"><ele>93.0</ele><time>2026-05-02T10:37:29.998Z</time></trkpt><trkpt lat="39.694102844474656" lon="16.23574607335663"><ele>93.5</ele><time>2026-05-02T10:37:30.998Z</time></trkpt><trkpt lat="39.69381037063078" lon="16.235448262942892"><ele>94.0</ele><time>2026-05-02T10:37:31.998Z</time></trkpt><trkpt lat="39.69352517616388" lon="16.235142574493118"><ele>94.0</ele><time>2026-05-02T10:37:32.998Z</time></trkpt><trkpt lat="39.693246561245516" lon="16.234825938882935"><ele>94.0</ele><time>2026-05-02T10:37:34Z</time></trkpt><trkpt lat="39.69297457621054" lon="16.23449906054866"><ele>94.0</ele><time>2026-05-02T10:37:35Z</time></trkpt><trkpt lat="39.692709407547284" lon="16.23416221975125"><ele>94.0</ele><time>2026-05-02T10:37:36Z</time></trkpt><trkpt lat="39.69245432216969" lon="16.23382174129813"><ele>93.0</ele><time>2026-05-02T10:37:37Z</time></trkpt><trkpt lat="39.69220640201838" lon="16.23347977463591"><ele>92.0</ele><time>2026-05-02T10:37:38Z</time></trkpt><trkpt lat="39.69196505061158" lon="16.233139861923622"><ele>93.0</ele><time>2026-05-02T10:37:39Z</time></trkpt><trkpt lat="39.69172341516738" lon="16.232797741818832"><ele>94.0</ele><time>2026-05-02T10:37:40Z</time></trkpt><trkpt lat="39.69147866666148" lon="16.232454936555627"><ele>94.0</ele><time>2026-05-02T10:37:41Z</time></trkpt><trkpt lat="39.691236417463294" lon="16.232112189417"><ele>94.0</ele><time>2026-05-02T10:37:42Z</time></trkpt><trkpt lat="39.690993074066064" lon="16.2317656535104"><ele>95.5</ele><time>2026-05-02T10:37:43Z</time></trkpt><trkpt lat="39.69074815512298" lon="16.231417721689382"><ele>97.0</ele><time>2026-05-02T10:37:44Z</time></trkpt><trkpt lat="39.690501354746075" lon="16.231076271348048"><ele>98.0</ele><time>2026-05-02T10:37:45Z</time></trkpt><trkpt lat="39.69025486397881" lon="16.230736378557026"><ele>99.0</ele><time>2026-05-02T10:37:46Z</time></trkpt><trkpt lat="39.690008875743764" lon="16.23039337285636"><ele>99.0</ele><time>2026-05-02T10:37:47Z</time></trkpt><trkpt lat="39.689763415763935" lon="16.230047336441224"><ele>99.0</ele><time>2026-05-02T10:37:48Z</time></trkpt><trkpt lat="39.68951771408777" lon="16.22970235634214"><ele>99.0</ele><time>2026-05-02T10:37:49Z</time></trkpt><trkpt lat="39.68927179091524" lon="16.229355769137015"><ele>99.0</ele><time>2026-05-02T10:37:50Z</time></trkpt><trkpt lat="39.689026608049055" lon="16.229008020627354"><ele>99.0</ele><time>2026-05-02T10:37:51Z</time></trkpt><trkpt lat="39.68878097086711" lon="16.228659838240723"><ele>99.0</ele><time>2026-05-02T10:37:52Z</time></trkpt><trkpt lat="39.688534798761154" lon="16.2283135166027"><ele>98.0</ele><time>2026-05-02T10:37:53Z</time></trkpt><trkpt lat="39.68828786607413" lon="16.227965647479166"><ele>97.0</ele><time>2026-05-02T10:37:54Z</time></trkpt><trkpt lat="39.68804185670059" lon="16.227618053092367"><ele>96.5</ele><time>2026-05-02T10:37:55Z</time></trkpt><trkpt lat="39.68779490983324" lon="16.2272715183789"><ele>96.0</ele><time>2026-05-02T10:37:56Z</time></trkpt><trkpt lat="39.687546243787956" lon="16.226928084237166"><ele>95.5</ele><time>2026-05-02T10:37:57Z</time></trkpt><trkpt lat="39.68729003100722" lon="16.22658819240386"><ele>95.0</ele><time>2026-05-02T10:37:58Z</time></trkpt><trkpt lat="39.6870286311266" lon="16.226260239484546"><ele>95.0</ele><time>2026-05-02T10:37:59Z</time></trkpt><trkpt lat="39.6867649282273" lon="16.225939742623783"><ele>95.0</ele><time>2026-05-02T10:38:00Z</time></trkpt><trkpt lat="39.68650035242835" lon="16.225622237195665"><ele>94.0</ele><time>2026-05-02T10:38:01Z</time></trkpt><trkpt lat="39.68623531278139" lon="16.225301209484538"><ele>93.0</ele><time>2026-05-02T10:38:02Z</time></trkpt><trkpt lat="39.68597357887121" lon="16.224979440104573"><ele>92.0</ele><time>2026-05-02T10:38:03Z</time></trkpt><trkpt lat="39.68571010260041" lon="16.22465657609511"><ele>91.0</ele><time>2026-05-02T10:38:04Z</time></trkpt><trkpt lat="39.685446689227845" lon="16.22433167169286"><ele>90.5</ele><time>2026-05-02T10:38:05Z</time></trkpt><trkpt lat="39.68518524368045" lon="16.224008804126303"><ele>90.0</ele><time>2026-05-02T10:38:06Z</time></trkpt><trkpt lat="39.6849244685464" lon="16.223687128596087"><ele>90.0</ele><time>2026-05-02T10:38:07Z</time></trkpt><trkpt lat="39.68466482573684" lon="16.223363227451742"><ele>90.0</ele><time>2026-05-02T10:38:08Z</time></trkpt><trkpt lat="39.684405311047314" lon="16.223036555761823"><ele>89.5</ele><time>2026-05-02T10:38:09Z</time></trkpt><trkpt lat="39.68414306148415" lon="16.222713950950478"><ele>89.0</ele><time>2026-05-02T10:38:09.999Z</time></trkpt><trkpt lat="39.68388125257902" lon="16.222392779037037"><ele>88.5</ele><time>2026-05-02T10:38:10.999Z</time></trkpt><trkpt lat="39.68361623505989" lon="16.222077429729033"><ele>88.0</ele><time>2026-05-02T10:38:11.999Z</time></trkpt><trkpt lat="39.68334778904076" lon="16.221764478622042"><ele>88.5</ele><time>2026-05-02T10:38:12.999Z</time></trkpt><trkpt lat="39.683073727498815" lon="16.22145844821438"><ele>89.0</ele><time>2026-05-02T10:38:13.999Z</time></trkpt><trkpt lat="39.68279130836189" lon="16.221160254320004"><ele>89.5</ele><time>2026-05-02T10:38:14.999Z</time></trkpt><trkpt lat="39.68250232240866" lon="16.220876018979983"><ele>90.0</ele><time>2026-05-02T10:38:15.999Z</time></trkpt><trkpt lat="39.682205239443775" lon="16.22060634135653"><ele>90.0</ele><time>2026-05-02T10:38:16.999Z</time></trkpt><trkpt lat="39.68190299822683" lon="16.22034978717689"><ele>90.0</ele><time>2026-05-02T10:38:17.999Z</time></trkpt><trkpt lat="39.68159331321148" lon="16.220107599083747"><ele>90.0</ele><time>2026-05-02T10:38:18.999Z</time></trkpt><trkpt lat="39.681277223746534" lon="16.21987954041818"><ele>90.0</ele><time>2026-05-02T10:38:19.999Z</time></trkpt><trkpt lat="39.68095678518143" lon="16.219666398470704"><ele>90.5</ele><time>2026-05-02T10:38:20.999Z</time></trkpt><trkpt lat="39.68063362810477" lon="16.219467950586196"><ele>91.0</ele><time>2026-05-02T10:38:21.999Z</time></trkpt><trkpt lat="39.680303491453174" lon="16.219277670644676"><ele>91.5</ele><time>2026-05-02T10:38:22.999Z</time></trkpt><trkpt lat="39.67996848023358" lon="16.219103113882387"><ele>92.0</ele><time>2026-05-02T10:38:23.999Z</time></trkpt><trkpt lat="39.67963216731836" lon="16.218942138996674"><ele>92.0</ele><time>2026-05-02T10:38:24.999Z</time></trkpt><trkpt lat="39.67929088847876" lon="16.218790762357916"><ele>92.0</ele><time>2026-05-02T10:38:25.999Z</time></trkpt><trkpt lat="39.67894769900625" lon="16.218653369352314"><ele>92.5</ele><time>2026-05-02T10:38:26.999Z</time></trkpt><trkpt lat="39.67860024786693" lon="16.218522896324306"><ele>93.0</ele><time>2026-05-02T10:38:27.999Z</time></trkpt><trkpt lat="39.67825246874797" lon="16.21839793473312"><ele>93.0</ele><time>2026-05-02T10:38:28.999Z</time></trkpt><trkpt lat="39.67790174523162" lon="16.218277409718077"><ele>93.0</ele><time>2026-05-02T10:38:29.999Z</time></trkpt><trkpt lat="39.67754702424837" lon="16.218159304039627"><ele>93.5</ele><time>2026-05-02T10:38:30.999Z</time></trkpt><trkpt lat="39.67719295830816" lon="16.218041885882325"><ele>94.0</ele><time>2026-05-02T10:38:31.999Z</time></trkpt><trkpt lat="39.67683866800466" lon="16.217925700630573"><ele>94.0</ele><time>2026-05-02T10:38:32.999Z</time></trkpt><trkpt lat="39.67648411390235" lon="16.217808685336795"><ele>94.0</ele><time>2026-05-02T10:38:33.999Z</time></trkpt><trkpt lat="39.67612788808697" lon="16.21769007720921"><ele>94.0</ele><time>2026-05-02T10:38:34.999Z</time></trkpt><trkpt lat="39.675773283261925" lon="16.217573253274203"><ele>94.0</ele><time>2026-05-02T10:38:35.999Z</time></trkpt><trkpt lat="39.67541708213597" lon="16.217456742033633"><ele>93.0</ele><time>2026-05-02T10:38:36.999Z</time></trkpt><trkpt lat="39.67506347500079" lon="16.217339350533763"><ele>92.0</ele><time>2026-05-02T10:38:37.999Z</time></trkpt><trkpt lat="39.674712167384435" lon="16.21722292783096"><ele>92.0</ele><time>2026-05-02T10:38:38.999Z</time></trkpt><trkpt lat="39.67435950594828" lon="16.217107998133923"><ele>92.0</ele><time>2026-05-02T10:38:39.999Z</time></trkpt><trkpt lat="39.67400662047983" lon="16.2169934076791"><ele>92.0</ele><time>2026-05-02T10:38:40.999Z</time></trkpt><trkpt lat="39.67365342534037" lon="16.21687816319828"><ele>92.0</ele><time>2026-05-02T10:38:41.999Z</time></trkpt><trkpt lat="39.673302377948325" lon="16.21676258554192"><ele>92.0</ele><time>2026-05-02T10:38:42.999Z</time></trkpt><trkpt lat="39.67295140178945" lon="16.216646354591965"><ele>92.0</ele><time>2026-05-02T10:38:43.999Z</time></trkpt><trkpt lat="39.672597118382406" lon="16.216530773489215"><ele>91.0</ele><time>2026-05-02T10:38:44.999Z</time></trkpt><trkpt lat="39.67224352155832" lon="16.216413420733453"><ele>90.0</ele><time>2026-05-02T10:38:45.999Z</time></trkpt><trkpt lat="39.67189048792487" lon="16.21629608841841"><ele>90.0</ele><time>2026-05-02T10:38:46.999Z</time></trkpt><trkpt lat="39.67153701461197" lon="16.216180827865823"><ele>90.0</ele><time>2026-05-02T10:38:47.999Z</time></trkpt><trkpt lat="39.6711835517659" lon="16.216065625389767"><ele>89.0</ele><time>2026-05-02T10:38:48.999Z</time></trkpt><trkpt lat="39.67082988584711" lon="16.215952265949042"><ele>88.0</ele><time>2026-05-02T10:38:49.999Z</time></trkpt><trkpt lat="39.67047516519542" lon="16.215842184476216"><ele>87.5</ele><time>2026-05-02T10:38:50.999Z</time></trkpt><trkpt lat="39.670118286731096" lon="16.21573538504746"><ele>87.0</ele><time>2026-05-02T10:38:51.999Z</time></trkpt><trkpt lat="39.669761842095696" lon="16.215625755064366"><ele>86.5</ele><time>2026-05-02T10:38:52.999Z</time></trkpt><trkpt lat="39.669406315280966" lon="16.215512904460503"><ele>86.0</ele><time>2026-05-02T10:38:53.999Z</time></trkpt><trkpt lat="39.669052126152685" lon="16.215396033228163"><ele>86.0</ele><time>2026-05-02T10:38:54.999Z</time></trkpt><trkpt lat="39.66870145577404" lon="16.215279915067068"><ele>86.0</ele><time>2026-05-02T10:38:55.999Z</time></trkpt><trkpt lat="39.66835087400236" lon="16.21516325941923"><ele>86.0</ele><time>2026-05-02T10:38:56.999Z</time></trkpt><trkpt lat="39.66800222433194" lon="16.215046501875683"><ele>86.0</ele><time>2026-05-02T10:38:57.999Z</time></trkpt><trkpt lat="39.6676538983591" lon="16.21492600644582"><ele>86.5</ele><time>2026-05-02T10:38:58.999Z</time></trkpt><trkpt lat="39.66730569800109" lon="16.214800646207635"><ele>87.0</ele><time>2026-05-02T10:38:59.999Z</time></trkpt><trkpt lat="39.66695699975559" lon="16.214675420363193"><ele>86.0</ele><time>2026-05-02T10:39:00.999Z</time></trkpt><trkpt lat="39.666609215803476" lon="16.214550043659365"><ele>85.0</ele><time>2026-05-02T10:39:01.999Z</time></trkpt><trkpt lat="39.66626071432408" lon="16.214429942724365"><ele>84.5</ele><time>2026-05-02T10:39:02.999Z</time></trkpt><trkpt lat="39.66590958623153" lon="16.21431644019414"><ele>84.0</ele><time>2026-05-02T10:39:03.999Z</time></trkpt><trkpt lat="39.66555797039111" lon="16.214214888295636"><ele>84.0</ele><time>2026-05-02T10:39:04.999Z</time></trkpt><trkpt lat="39.66520596548895" lon="16.214125785529667"><ele>84.0</ele><time>2026-05-02T10:39:05.999Z</time></trkpt><trkpt lat="39.664850967993566" lon="16.214050275752026"><ele>84.0</ele><time>2026-05-02T10:39:06.999Z</time></trkpt><trkpt lat="39.66449352625233" lon="16.213992470664465"><ele>84.0</ele><time>2026-05-02T10:39:07.999Z</time></trkpt><trkpt lat="39.66413527868745" lon="16.2139500740962"><ele>83.5</ele><time>2026-05-02T10:39:08.999Z</time></trkpt><trkpt lat="39.66377730043502" lon="16.213921873552707"><ele>83.0</ele><time>2026-05-02T10:39:09.999Z</time></trkpt><trkpt lat="39.66341682298068" lon="16.213906473613616"><ele>83.0</ele><time>2026-05-02T10:39:10.999Z</time></trkpt><trkpt lat="39.663058436819696" lon="16.213905260214254"><ele>83.0</ele><time>2026-05-02T10:39:11.999Z</time></trkpt><trkpt lat="39.662696652400896" lon="16.21391662573275"><ele>83.0</ele><time>2026-05-02T10:39:12.999Z</time></trkpt><trkpt lat="39.662335384657" lon="16.21394209596659"><ele>83.0</ele><time>2026-05-02T10:39:13.999Z</time></trkpt><trkpt lat="39.66197374993342" lon="16.2139824808822"><ele>82.5</ele><time>2026-05-02T10:39:14.999Z</time></trkpt><trkpt lat="39.66161480189002" lon="16.214033695537733"><ele>82.0</ele><time>2026-05-02T10:39:15.999Z</time></trkpt><trkpt lat="39.66125516780666" lon="16.214096459262915"><ele>82.5</ele><time>2026-05-02T10:39:16.999Z</time></trkpt><trkpt lat="39.66089551687511" lon="16.214168428720416"><ele>83.0</ele><time>2026-05-02T10:39:17.999Z</time></trkpt><trkpt lat="39.660537744536896" lon="16.21424967443772"><ele>83.0</ele><time>2026-05-02T10:39:18.999Z</time></trkpt><trkpt lat="39.660180017002965" lon="16.21433317104924"><ele>83.0</ele><time>2026-05-02T10:39:19.999Z</time></trkpt><trkpt lat="39.65982141753483" lon="16.214418501870988"><ele>83.0</ele><time>2026-05-02T10:39:20.999Z</time></trkpt><trkpt lat="39.65946374636256" lon="16.214504804098453"><ele>83.0</ele><time>2026-05-02T10:39:21.999Z</time></trkpt><trkpt lat="39.6591079916696" lon="16.214589391592906"><ele>83.0</ele><time>2026-05-02T10:39:22.999Z</time></trkpt><trkpt lat="39.658752221190085" lon="16.21467215138511"><ele>83.0</ele><time>2026-05-02T10:39:23.999Z</time></trkpt><trkpt lat="39.65839365761367" lon="16.214753791568015"><ele>83.0</ele><time>2026-05-02T10:39:24.999Z</time></trkpt><trkpt lat="39.65803550811293" lon="16.214834812171375"><ele>83.0</ele><time>2026-05-02T10:39:25.998Z</time></trkpt><trkpt lat="39.65767669968244" lon="16.214914821742397"><ele>83.0</ele><time>2026-05-02T10:39:26.998Z</time></trkpt><trkpt lat="39.657315735492794" lon="16.214993490257193"><ele>83.0</ele><time>2026-05-02T10:39:27.998Z</time></trkpt><trkpt lat="39.65695761436221" lon="16.215076292366202"><ele>83.0</ele><time>2026-05-02T10:39:28.998Z</time></trkpt><trkpt lat="39.65659990992003" lon="16.215158666264365"><ele>83.0</ele><time>2026-05-02T10:39:29.998Z</time></trkpt><trkpt lat="39.656242974615544" lon="16.21524353276283"><ele>82.5</ele><time>2026-05-02T10:39:30.998Z</time></trkpt><trkpt lat="39.655885978175384" lon="16.21532733596835"><ele>82.0</ele><time>2026-05-02T10:39:31.998Z</time></trkpt><trkpt lat="39.65552863119102" lon="16.2154093113025"><ele>82.5</ele><time>2026-05-02T10:39:32.998Z</time></trkpt><trkpt lat="39.65517044525692" lon="16.21549092075845"><ele>83.0</ele><time>2026-05-02T10:39:33.998Z</time></trkpt><trkpt lat="39.65481197304951" lon="16.21557194872017"><ele>83.0</ele><time>2026-05-02T10:39:34.998Z</time></trkpt><trkpt lat="39.654452687197754" lon="16.215650848480486"><ele>83.0</ele><time>2026-05-02T10:39:35.998Z</time></trkpt><trkpt lat="39.65409797952394" lon="16.215729248755455"><ele>83.5</ele><time>2026-05-02T10:39:36.998Z</time></trkpt><trkpt lat="39.65374201095499" lon="16.215806396147446"><ele>84.0</ele><time>2026-05-02T10:39:37.998Z</time></trkpt><trkpt lat="39.65338334224885" lon="16.215885452839903"><ele>84.0</ele><time>2026-05-02T10:39:38.998Z</time></trkpt><trkpt lat="39.653027371357304" lon="16.21596741838849"><ele>84.0</ele><time>2026-05-02T10:39:40Z</time></trkpt><trkpt lat="39.65267063687572" lon="16.216051770329965"><ele>83.5</ele><time>2026-05-02T10:39:41Z</time></trkpt><trkpt lat="39.65231564545466" lon="16.21613881547346"><ele>83.0</ele><time>2026-05-02T10:39:42Z</time></trkpt><trkpt lat="39.65196196680193" lon="16.216230537510686"><ele>83.5</ele><time>2026-05-02T10:39:43Z</time></trkpt><trkpt lat="39.65161160436108" lon="16.216336555556186"><ele>84.0</ele><time>2026-05-02T10:39:44Z</time></trkpt><trkpt lat="39.65126570971633" lon="16.216460551081244"><ele>84.5</ele><time>2026-05-02T10:39:45Z</time></trkpt><trkpt lat="39.6509267899024" lon="16.21660569520872"><ele>85.0</ele><time>2026-05-02T10:39:46Z</time></trkpt><trkpt lat="39.650593161513235" lon="16.21676982326846"><ele>89.0</ele><time>2026-05-02T10:39:47Z</time></trkpt><trkpt lat="39.65026615451944" lon="16.216955159030388"><ele>93.0</ele><time>2026-05-02T10:39:48Z</time></trkpt><trkpt lat="39.64994531507285" lon="16.217159974664188"><ele>93.5</ele><time>2026-05-02T10:39:49Z</time></trkpt><trkpt lat="39.64963018228233" lon="16.21737990931229"><ele>94.0</ele><time>2026-05-02T10:39:50Z</time></trkpt><trkpt lat="39.64932099939871" lon="16.217615409998466"><ele>92.5</ele><time>2026-05-02T10:39:51Z</time></trkpt><trkpt lat="39.649019221705714" lon="16.21787011218071"><ele>91.0</ele><time>2026-05-02T10:39:52Z</time></trkpt><trkpt lat="39.648729599417585" lon="16.21814341180137"><ele>90.5</ele><time>2026-05-02T10:39:53Z</time></trkpt><trkpt lat="39.64844793071274" lon="16.218433058539148"><ele>90.0</ele><time>2026-05-02T10:39:54Z</time></trkpt><trkpt lat="39.64817533113866" lon="16.21873623590208"><ele>89.0</ele><time>2026-05-02T10:39:55Z</time></trkpt><trkpt lat="39.647912561215584" lon="16.219054403012386"><ele>88.0</ele><time>2026-05-02T10:39:56Z</time></trkpt><trkpt lat="39.64765782320869" lon="16.219386673993238"><ele>88.0</ele><time>2026-05-02T10:39:57Z</time></trkpt><trkpt lat="39.64741430438965" lon="16.219732213466553"><ele>88.0</ele><time>2026-05-02T10:39:58Z</time></trkpt><trkpt lat="39.64718344189809" lon="16.220092139095318"><ele>88.0</ele><time>2026-05-02T10:39:59Z</time></trkpt><trkpt lat="39.646969982505546" lon="16.220467300381248"><ele>88.0</ele><time>2026-05-02T10:40:00Z</time></trkpt><trkpt lat="39.64677060225495" lon="16.220855398930095"><ele>91.5</ele><time>2026-05-02T10:40:01Z</time></trkpt><trkpt lat="39.64658568789235" lon="16.221251018621075"><ele>95.0</ele><time>2026-05-02T10:40:02Z</time></trkpt><trkpt lat="39.64641063863672" lon="16.221659362586525"><ele>95.0</ele><time>2026-05-02T10:40:03Z</time></trkpt><trkpt lat="39.646241296600664" lon="16.22207528572103"><ele>95.0</ele><time>2026-05-02T10:40:04Z</time></trkpt><trkpt lat="39.64607388811417" lon="16.22249553503139"><ele>98.5</ele><time>2026-05-02T10:40:05Z</time></trkpt><trkpt lat="39.64590782900111" lon="16.222916671964654"><ele>102.0</ele><time>2026-05-02T10:40:06Z</time></trkpt><trkpt lat="39.64574420896641" lon="16.223340415793587"><ele>102.0</ele><time>2026-05-02T10:40:07Z</time></trkpt><trkpt lat="39.64558117844583" lon="16.22376139927125"><ele>102.0</ele><time>2026-05-02T10:40:08Z</time></trkpt><trkpt lat="39.64541594155841" lon="16.22418081271123"><ele>100.0</ele><time>2026-05-02T10:40:09Z</time></trkpt><trkpt lat="39.645244763195635" lon="16.224595928244955"><ele>98.0</ele><time>2026-05-02T10:40:10Z</time></trkpt><trkpt lat="39.645066831998385" lon="16.225011148019206"><ele>92.0</ele><time>2026-05-02T10:40:11Z</time></trkpt><trkpt lat="39.6448810480712" lon="16.22542120978709"><ele>86.0</ele><time>2026-05-02T10:40:12Z</time></trkpt><trkpt lat="39.644688091707714" lon="16.225819043804165"><ele>84.5</ele><time>2026-05-02T10:40:12.999Z</time></trkpt><trkpt lat="39.64448113007092" lon="16.2262024809621"><ele>83.0</ele><time>2026-05-02T10:40:13.999Z</time></trkpt><trkpt lat="39.64425942562978" lon="16.22657194153137"><ele>83.0</ele><time>2026-05-02T10:40:14.999Z</time></trkpt><trkpt lat="39.64402650288273" lon="16.22692807023767"><ele>83.0</ele><time>2026-05-02T10:40:15.999Z</time></trkpt><trkpt lat="39.64378094614468" lon="16.227270657173"><ele>83.0</ele><time>2026-05-02T10:40:16.999Z</time></trkpt><trkpt lat="39.64352089832951" lon="16.227600888567878"><ele>83.0</ele><time>2026-05-02T10:40:17.999Z</time></trkpt><trkpt lat="39.64325097230964" lon="16.227917982454827"><ele>83.0</ele><time>2026-05-02T10:40:18.999Z</time></trkpt><trkpt lat="39.64297236534274" lon="16.228220165580034"><ele>83.0</ele><time>2026-05-02T10:40:19.999Z</time></trkpt><trkpt lat="39.642683003150616" lon="16.228505481811887"><ele>82.5</ele><time>2026-05-02T10:40:20.999Z</time></trkpt><trkpt lat="39.64238564593043" lon="16.228773022585006"><ele>82.0</ele><time>2026-05-02T10:40:21.999Z</time></trkpt><trkpt lat="39.64208110870641" lon="16.229020970965195"><ele>81.5</ele><time>2026-05-02T10:40:22.999Z</time></trkpt><trkpt lat="39.641769306987726" lon="16.229248753830298"><ele>81.0</ele><time>2026-05-02T10:40:23.999Z</time></trkpt><trkpt lat="39.6414502057563" lon="16.229455920177564"><ele>81.0</ele><time>2026-05-02T10:40:24.999Z</time></trkpt><trkpt lat="39.64112212595312" lon="16.229646997199417"><ele>81.0</ele><time>2026-05-02T10:40:25.999Z</time></trkpt><trkpt lat="39.64078931989445" lon="16.22981782925586"><ele>81.0</ele><time>2026-05-02T10:40:26.999Z</time></trkpt><trkpt lat="39.64045070549766" lon="16.229973030395808"><ele>81.0</ele><time>2026-05-02T10:40:27.999Z</time></trkpt><trkpt lat="39.640110089491806" lon="16.230120407008826"><ele>82.5</ele><time>2026-05-02T10:40:28.999Z</time></trkpt><trkpt lat="39.63976796266278" lon="16.230262441935643"><ele>84.0</ele><time>2026-05-02T10:40:29.999Z</time></trkpt><trkpt lat="39.639431644223905" lon="16.23040387530576"><ele>85.5</ele><time>2026-05-02T10:40:30.999Z</time></trkpt><trkpt lat="39.63910645435066" lon="16.230549379832013"><ele>87.0</ele><time>2026-05-02T10:40:31.999Z</time></trkpt><trkpt lat="39.638776741803845" lon="16.230697656636096"><ele>87.5</ele><time>2026-05-02T10:40:32.999Z</time></trkpt><trkpt lat="39.63843920826236" lon="16.230843308883895"><ele>88.0</ele><time>2026-05-02T10:40:33.999Z</time></trkpt><trkpt lat="39.63809841935292" lon="16.230984231914295"><ele>89.0</ele><time>2026-05-02T10:40:34.999Z</time></trkpt><trkpt lat="39.6377571644362" lon="16.231125584821783"><ele>90.0</ele><time>2026-05-02T10:40:35.999Z</time></trkpt><trkpt lat="39.63741110710831" lon="16.231264315806175"><ele>90.0</ele><time>2026-05-02T10:40:36.999Z</time></trkpt><trkpt lat="39.637063948783826" lon="16.2313962532899"><ele>90.0</ele><time>2026-05-02T10:40:37.999Z</time></trkpt><trkpt lat="39.636714508107694" lon="16.231518132796445"><ele>91.0</ele><time>2026-05-02T10:40:38.999Z</time></trkpt><trkpt lat="39.63636081551185" lon="16.231625548556185"><ele>92.0</ele><time>2026-05-02T10:40:39.999Z</time></trkpt><trkpt lat="39.63600426642095" lon="16.23171202104905"><ele>93.5</ele><time>2026-05-02T10:40:40.999Z</time></trkpt><trkpt lat="39.63564634176018" lon="16.231773850556348"><ele>95.0</ele><time>2026-05-02T10:40:41.999Z</time></trkpt><trkpt lat="39.63528796087839" lon="16.231817279996463"><ele>97.5</ele><time>2026-05-02T10:40:42.999Z</time></trkpt><trkpt lat="39.63492532919325" lon="16.231842618134635"><ele>100.0</ele><time>2026-05-02T10:40:43.999Z</time></trkpt><trkpt lat="39.63456031029195" lon="16.23184768036206"><ele>101.0</ele><time>2026-05-02T10:40:44.999Z</time></trkpt><trkpt lat="39.63419575712667" lon="16.231827485358146"><ele>102.0</ele><time>2026-05-02T10:40:45.999Z</time></trkpt><trkpt lat="39.63383465939327" lon="16.23178231165788"><ele>103.0</ele><time>2026-05-02T10:40:46.999Z</time></trkpt><trkpt lat="39.63347562436339" lon="16.231712964962913"><ele>104.0</ele><time>2026-05-02T10:40:47.999Z</time></trkpt><trkpt lat="39.63311940563215" lon="16.231621331606632"><ele>104.5</ele><time>2026-05-02T10:40:48.999Z</time></trkpt><trkpt lat="39.63276510726107" lon="16.231508822750385"><ele>105.0</ele><time>2026-05-02T10:40:49.999Z</time></trkpt><trkpt lat="39.6324148123678" lon="16.23137699018893"><ele>105.0</ele><time>2026-05-02T10:40:50.999Z</time></trkpt><trkpt lat="39.63206964358689" lon="16.231228932334695"><ele>105.0</ele><time>2026-05-02T10:40:51.999Z</time></trkpt><trkpt lat="39.63172966941617" lon="16.231061705736064"><ele>107.5</ele><time>2026-05-02T10:40:52.999Z</time></trkpt><trkpt lat="39.63139088785676" lon="16.23088565700711"><ele>110.0</ele><time>2026-05-02T10:40:53.999Z</time></trkpt><trkpt lat="39.631055023796456" lon="16.230702591544222"><ele>110.0</ele><time>2026-05-02T10:40:54.999Z</time></trkpt><trkpt lat="39.63072241830226" lon="16.23051447790508"><ele>110.0</ele><time>2026-05-02T10:40:55.999Z</time></trkpt><trkpt lat="39.63038667565445" lon="16.230330860121008"><ele>115.0</ele><time>2026-05-02T10:40:56.999Z</time></trkpt><trkpt lat="39.63004899632808" lon="16.23015311317702"><ele>120.0</ele><time>2026-05-02T10:40:57.999Z</time></trkpt><trkpt lat="39.62970837979605" lon="16.229985348412566"><ele>122.0</ele><time>2026-05-02T10:40:58.999Z</time></trkpt><trkpt lat="39.62936500896257" lon="16.229831316369786"><ele>124.0</ele><time>2026-05-02T10:40:59.999Z</time></trkpt><trkpt lat="39.6290175141107" lon="16.229690836853887"><ele>122.5</ele><time>2026-05-02T10:41:00.999Z</time></trkpt><trkpt lat="39.62866798522313" lon="16.229564455660167"><ele>121.0</ele><time>2026-05-02T10:41:01.999Z</time></trkpt><trkpt lat="39.62831711395231" lon="16.229450295946034"><ele>121.0</ele><time>2026-05-02T10:41:02.999Z</time></trkpt><trkpt lat="39.62796395380531" lon="16.22934966312873"><ele>121.0</ele><time>2026-05-02T10:41:03.999Z</time></trkpt><trkpt lat="39.627611389806546" lon="16.229258064192845"><ele>122.0</ele><time>2026-05-02T10:41:04.999Z</time></trkpt><trkpt lat="39.627256796156885" lon="16.229168470421325"><ele>123.0</ele><time>2026-05-02T10:41:05.999Z</time></trkpt><trkpt lat="39.62690153847149" lon="16.229081860610616"><ele>123.0</ele><time>2026-05-02T10:41:06.999Z</time></trkpt><trkpt lat="39.62654474041433" lon="16.22899921714595"><ele>123.0</ele><time>2026-05-02T10:41:07.999Z</time></trkpt><trkpt lat="39.62618740404138" lon="16.228921429042966"><ele>124.0</ele><time>2026-05-02T10:41:08.999Z</time></trkpt><trkpt lat="39.625826134408356" lon="16.228856498477604"><ele>125.0</ele><time>2026-05-02T10:41:09.999Z</time></trkpt><trkpt lat="39.62546559467188" lon="16.2288073631162"><ele>126.5</ele><time>2026-05-02T10:41:10.999Z</time></trkpt><trkpt lat="39.625105671174225" lon="16.228774449745472"><ele>128.0</ele><time>2026-05-02T10:41:11.999Z</time></trkpt><trkpt lat="39.62474723677722" lon="16.228761986179293"><ele>128.5</ele><time>2026-05-02T10:41:12.999Z</time></trkpt><trkpt lat="39.624390467299904" lon="16.228768141310958"><ele>129.0</ele><time>2026-05-02T10:41:13.999Z</time></trkpt><trkpt lat="39.624038689840376" lon="16.228799709830444"><ele>129.0</ele><time>2026-05-02T10:41:14.999Z</time></trkpt><trkpt lat="39.62368330965395" lon="16.228849587483715"><ele>129.0</ele><time>2026-05-02T10:41:15.999Z</time></trkpt><trkpt lat="39.623332558693" lon="16.22891631559231"><ele>131.5</ele><time>2026-05-02T10:41:16.999Z</time></trkpt><trkpt lat="39.62298254394359" lon="16.228999695695272"><ele>134.0</ele><time>2026-05-02T10:41:17.999Z</time></trkpt><trkpt lat="39.62263120793311" lon="16.22909281749943"><ele>136.5</ele><time>2026-05-02T10:41:18.999Z</time></trkpt><trkpt lat="39.62227604815334" lon="16.229192351099556"><ele>139.0</ele><time>2026-05-02T10:41:19.999Z</time></trkpt><trkpt lat="39.6219199634495" lon="16.229292687568392"><ele>142.0</ele><time>2026-05-02T10:41:20.999Z</time></trkpt><trkpt lat="39.62156392199744" lon="16.229389490436322"><ele>145.0</ele><time>2026-05-02T10:41:21.999Z</time></trkpt><trkpt lat="39.62120906020332" lon="16.229483052951508"><ele>145.0</ele><time>2026-05-02T10:41:22.999Z</time></trkpt><trkpt lat="39.62085212673714" lon="16.229576868666726"><ele>145.0</ele><time>2026-05-02T10:41:23.999Z</time></trkpt><trkpt lat="39.620493261425665" lon="16.229669503586837"><ele>145.5</ele><time>2026-05-02T10:41:24.999Z</time></trkpt><trkpt lat="39.62013599760546" lon="16.229758817901207"><ele>146.0</ele><time>2026-05-02T10:41:25.999Z</time></trkpt><trkpt lat="39.619776660115555" lon="16.229840927472733"><ele>147.5</ele><time>2026-05-02T10:41:26.998Z</time></trkpt><trkpt lat="39.61941725175324" lon="16.229911867690554"><ele>149.0</ele><time>2026-05-02T10:41:27.998Z</time></trkpt><trkpt lat="39.61905854403923" lon="16.229967923437233"><ele>149.0</ele><time>2026-05-02T10:41:28.998Z</time></trkpt><trkpt lat="39.618702435851354" lon="16.229999063132052"><ele>149.0</ele><time>2026-05-02T10:41:29.998Z</time></trkpt><trkpt lat="39.61835550076672" lon="16.230013233665538"><ele>150.5</ele><time>2026-05-02T10:41:30.998Z</time></trkpt><trkpt lat="39.61802177358647" lon="16.230014632755864"><ele>152.0</ele><time>2026-05-02T10:41:31.998Z</time></trkpt><trkpt lat="39.61768419337012" lon="16.230003872832118"><ele>152.0</ele><time>2026-05-02T10:41:32.998Z</time></trkpt><trkpt lat="39.617338054490425" lon="16.229978193927945"><ele>152.0</ele><time>2026-05-02T10:41:33.998Z</time></trkpt><trkpt lat="39.61698339979186" lon="16.229948262367632"><ele>156.5</ele><time>2026-05-02T10:41:34.998Z</time></trkpt><trkpt lat="39.616623723061274" lon="16.229924163388727"><ele>161.0</ele><time>2026-05-02T10:41:35.998Z</time></trkpt><trkpt lat="39.61626430884" lon="16.229911081493647"><ele>162.0</ele><time>2026-05-02T10:41:36.998Z</time></trkpt><trkpt lat="39.615906829550944" lon="16.229915035790626"><ele>163.0</ele><time>2026-05-02T10:41:37.998Z</time></trkpt><trkpt lat="39.61554992813844" lon="16.229936709261356"><ele>161.5</ele><time>2026-05-02T10:41:38.998Z</time></trkpt><trkpt lat="39.61519124633603" lon="16.229981963080768"><ele>160.0</ele><time>2026-05-02T10:41:39.998Z</time></trkpt><trkpt lat="39.614836330500815" lon="16.230049030364306"><ele>161.0</ele><time>2026-05-02T10:41:40.998Z</time></trkpt><trkpt lat="39.61448331145641" lon="16.23013384191257"><ele>162.0</ele><time>2026-05-02T10:41:41.998Z</time></trkpt><trkpt lat="39.61412980360509" lon="16.230232652534394"><ele>162.0</ele><time>2026-05-02T10:41:42.998Z</time></trkpt><trkpt lat="39.61377885679164" lon="16.23033713289242"><ele>162.0</ele><time>2026-05-02T10:41:43.998Z</time></trkpt><trkpt lat="39.613426755220004" lon="16.23044685658537"><ele>164.0</ele><time>2026-05-02T10:41:44.998Z</time></trkpt><trkpt lat="39.61307405358513" lon="16.230559510888877"><ele>166.0</ele><time>2026-05-02T10:41:46Z</time></trkpt><trkpt lat="39.61272074416597" lon="16.230672657105107"><ele>169.0</ele><time>2026-05-02T10:41:47Z</time></trkpt><trkpt lat="39.61236563242751" lon="16.23078726627819"><ele>172.0</ele><time>2026-05-02T10:41:48Z</time></trkpt><trkpt lat="39.61201101090162" lon="16.23090086866952"><ele>172.0</ele><time>2026-05-02T10:41:49Z</time></trkpt><trkpt lat="39.611664994733566" lon="16.231009364759494"><ele>172.0</ele><time>2026-05-02T10:41:50Z</time></trkpt><trkpt lat="39.61132497485745" lon="16.23111483691039"><ele>175.0</ele><time>2026-05-02T10:41:51Z</time></trkpt><trkpt lat="39.61099686076321" lon="16.23121872974471"><ele>178.0</ele><time>2026-05-02T10:41:52Z</time></trkpt><trkpt lat="39.61068228461439" lon="16.231319258719743"><ele>178.0</ele><time>2026-05-02T10:41:53Z</time></trkpt><trkpt lat="39.61038436825699" lon="16.231413243920233"><ele>178.0</ele><time>2026-05-02T10:41:54Z</time></trkpt><trkpt lat="39.61009169281029" lon="16.23150439698363"><ele>185.5</ele><time>2026-05-02T10:41:55Z</time></trkpt><trkpt lat="39.60978938348149" lon="16.231599812516755"><ele>193.0</ele><time>2026-05-02T10:41:56Z</time></trkpt><trkpt lat="39.60948046630337" lon="16.23169648249229"><ele>204.0</ele><time>2026-05-02T10:41:57Z</time></trkpt><trkpt lat="39.60917447836459" lon="16.23179317844402"><ele>215.0</ele><time>2026-05-02T10:41:58Z</time></trkpt><trkpt lat="39.60886876976496" lon="16.231889941812604"><ele>225.5</ele><time>2026-05-02T10:41:59Z</time></trkpt><trkpt lat="39.60854138046099" lon="16.231997436391328"><ele>236.0</ele><time>2026-05-02T10:42:00.071Z</time></trkpt><trkpt lat="39.6082303239879" lon="16.232104675786175"><ele>236.0</ele><time>2026-05-02T10:42:01.071Z</time></trkpt><trkpt lat="39.60791776560291" lon="16.232208253995662"><ele>236.0</ele><time>2026-05-02T10:42:02.07Z</time></trkpt><trkpt lat="39.601006175715185" lon="16.237010015071935"><ele>187.5</ele><time>2026-05-02T10:42:22.999Z</time></trkpt><trkpt lat="39.60075067559833" lon="16.2373604664701"><ele>139.0</ele><time>2026-05-02T10:42:23.999Z</time></trkpt><trkpt lat="39.60050126911997" lon="16.237729589758317"><ele>133.5</ele><time>2026-05-02T10:42:24.999Z</time></trkpt><trkpt lat="39.60028085098025" lon="16.238099867790908"><ele>128.0</ele><time>2026-05-02T10:42:25.999Z</time></trkpt><trkpt lat="39.60005240330914" lon="16.238456491031286"><ele>128.0</ele><time>2026-05-02T10:42:26.999Z</time></trkpt><trkpt lat="39.59984264549326" lon="16.238819975333236"><ele>128.0</ele><time>2026-05-02T10:42:27.999Z</time></trkpt><trkpt lat="39.59963810557369" lon="16.239185540458053"><ele>122.0</ele><time>2026-05-02T10:42:28.999Z</time></trkpt><trkpt lat="39.599435374423265" lon="16.239553461906834"><ele>116.0</ele><time>2026-05-02T10:42:29.999Z</time></trkpt><trkpt lat="39.59922700170068" lon="16.239920380213256"><ele>116.0</ele><time>2026-05-02T10:42:30.999Z</time></trkpt><trkpt lat="39.59901329643225" lon="16.240283865075924"><ele>116.0</ele><time>2026-05-02T10:42:31.999Z</time></trkpt><trkpt lat="39.598801991504175" lon="16.24064615839924"><ele>112.0</ele><time>2026-05-02T10:42:32.999Z</time></trkpt><trkpt lat="39.59858235849656" lon="16.241007751045764"><ele>108.0</ele><time>2026-05-02T10:42:33.999Z</time></trkpt><trkpt lat="39.59835835656835" lon="16.241356450024806"><ele>108.5</ele><time>2026-05-02T10:42:34.999Z</time></trkpt><trkpt lat="39.59812370636878" lon="16.24170211015566"><ele>109.0</ele><time>2026-05-02T10:42:35.999Z</time></trkpt><trkpt lat="39.59787695607832" lon="16.242039260104917"><ele>109.0</ele><time>2026-05-02T10:42:36.999Z</time></trkpt><trkpt lat="39.597618987255345" lon="16.242366620761022"><ele>109.0</ele><time>2026-05-02T10:42:37.999Z</time></trkpt><trkpt lat="39.59735116648651" lon="16.242677790803047"><ele>109.0</ele><time>2026-05-02T10:42:38.999Z</time></trkpt><trkpt lat="39.59707565902179" lon="16.242979468758392"><ele>109.0</ele><time>2026-05-02T10:42:39.999Z</time></trkpt><trkpt lat="39.59679239536664" lon="16.24326709425978"><ele>108.5</ele><time>2026-05-02T10:42:40.999Z</time></trkpt><trkpt lat="39.596502714798966" lon="16.243541569938245"><ele>108.0</ele><time>2026-05-02T10:42:41.999Z</time></trkpt><trkpt lat="39.59620642558724" lon="16.243799885300888"><ele>103.0</ele><time>2026-05-02T10:42:42.999Z</time></trkpt><trkpt lat="39.59590131358788" lon="16.244042363122826"><ele>98.0</ele><time>2026-05-02T10:42:43.999Z</time></trkpt><trkpt lat="39.595585855131745" lon="16.244272800240548"><ele>98.0</ele><time>2026-05-02T10:42:44.999Z</time></trkpt><trkpt lat="39.595261930660534" lon="16.244488263089956"><ele>98.0</ele><time>2026-05-02T10:42:45.999Z</time></trkpt><trkpt lat="39.59493409808421" lon="16.24469266915401"><ele>94.0</ele><time>2026-05-02T10:42:46.999Z</time></trkpt><trkpt lat="39.59460122481725" lon="16.244879905966503"><ele>90.0</ele><time>2026-05-02T10:42:47.999Z</time></trkpt><trkpt lat="39.59426486958944" lon="16.24505074722301"><ele>88.0</ele><time>2026-05-02T10:42:48.999Z</time></trkpt><trkpt lat="39.5939234519522" lon="16.24520676034102"><ele>86.0</ele><time>2026-05-02T10:42:49.999Z</time></trkpt><trkpt lat="39.5935773847545" lon="16.245348256792905"><ele>77.5</ele><time>2026-05-02T10:42:50.999Z</time></trkpt><trkpt lat="39.593230890495896" lon="16.24547636142916"><ele>69.0</ele><time>2026-05-02T10:42:51.999Z</time></trkpt><trkpt lat="39.592885704805475" lon="16.245584886510677"><ele>70.0</ele><time>2026-05-02T10:42:52.999Z</time></trkpt><trkpt lat="39.59253652183096" lon="16.24567441083"><ele>71.0</ele><time>2026-05-02T10:42:53.999Z</time></trkpt><trkpt lat="39.59218209389113" lon="16.245754697825227"><ele>75.0</ele><time>2026-05-02T10:42:54.999Z</time></trkpt><trkpt lat="39.591822416174395" lon="16.24581319877844"><ele>79.0</ele><time>2026-05-02T10:42:55.999Z</time></trkpt><trkpt lat="39.59145908384564" lon="16.24585118965735"><ele>76.5</ele><time>2026-05-02T10:42:56.999Z</time></trkpt><trkpt lat="39.59109183616034" lon="16.245873908150227"><ele>74.0</ele><time>2026-05-02T10:42:57.999Z</time></trkpt><trkpt lat="39.59072344791496" lon="16.24587981165775"><ele>74.0</ele><time>2026-05-02T10:42:58.999Z</time></trkpt><trkpt lat="39.59035473072163" lon="16.245873955282644"><ele>74.0</ele><time>2026-05-02T10:42:59.999Z</time></trkpt><trkpt lat="39.58998503974462" lon="16.24586425632886"><ele>73.5</ele><time>2026-05-02T10:43:00.999Z</time></trkpt><trkpt lat="39.58961454156844" lon="16.24584643165661"><ele>73.0</ele><time>2026-05-02T10:43:01.999Z</time></trkpt><trkpt lat="39.58924292251282" lon="16.24582622789355"><ele>71.0</ele><time>2026-05-02T10:43:02.999Z</time></trkpt><trkpt lat="39.5888720777794" lon="16.245804255086913"><ele>69.0</ele><time>2026-05-02T10:43:03.999Z</time></trkpt><trkpt lat="39.58849837667001" lon="16.24578223553815"><ele>66.5</ele><time>2026-05-02T10:43:04.999Z</time></trkpt><trkpt lat="39.588122208054095" lon="16.245760171439024"><ele>64.0</ele><time>2026-05-02T10:43:05.999Z</time></trkpt><trkpt lat="39.58774451296515" lon="16.24574000660898"><ele>62.5</ele><time>2026-05-02T10:43:06.999Z</time></trkpt><trkpt lat="39.58736683487523" lon="16.245721924321984"><ele>61.0</ele><time>2026-05-02T10:43:07.999Z</time></trkpt><trkpt lat="39.586997320288916" lon="16.245707302462925"><ele>60.5</ele><time>2026-05-02T10:43:08.999Z</time></trkpt><trkpt lat="39.5866372215322" lon="16.245695676848985"><ele>60.0</ele><time>2026-05-02T10:43:09.999Z</time></trkpt><trkpt lat="39.5862764145614" lon="16.24568775237246"><ele>60.0</ele><time>2026-05-02T10:43:10.999Z</time></trkpt><trkpt lat="39.585914515290376" lon="16.245677580691332"><ele>60.0</ele><time>2026-05-02T10:43:11.999Z</time></trkpt><trkpt lat="39.585550576102996" lon="16.24566248459039"><ele>60.0</ele><time>2026-05-02T10:43:12.999Z</time></trkpt><trkpt lat="39.58518693852637" lon="16.245638608605404"><ele>60.0</ele><time>2026-05-02T10:43:13.999Z</time></trkpt><trkpt lat="39.58482588702383" lon="16.245606638403295"><ele>60.0</ele><time>2026-05-02T10:43:14.999Z</time></trkpt><trkpt lat="39.58446579815483" lon="16.24556979429225"><ele>60.0</ele><time>2026-05-02T10:43:15.999Z</time></trkpt><trkpt lat="39.584101335488064" lon="16.24552506727688"><ele>60.0</ele><time>2026-05-02T10:43:16.999Z</time></trkpt><trkpt lat="39.58373639015009" lon="16.245475051880366"><ele>60.0</ele><time>2026-05-02T10:43:17.999Z</time></trkpt><trkpt lat="39.58337405493893" lon="16.245414412067326"><ele>60.5</ele><time>2026-05-02T10:43:18.999Z</time></trkpt><trkpt lat="39.58301590205783" lon="16.245340551964446"><ele>61.0</ele><time>2026-05-02T10:43:19.999Z</time></trkpt><trkpt lat="39.582661339946995" lon="16.245249514193592"><ele>61.5</ele><time>2026-05-02T10:43:20.999Z</time></trkpt><trkpt lat="39.58231184469386" lon="16.245146935855978"><ele>62.0</ele><time>2026-05-02T10:43:21.999Z</time></trkpt><trkpt lat="39.58196240448204" lon="16.24502779327398"><ele>61.0</ele><time>2026-05-02T10:43:22.999Z</time></trkpt><trkpt lat="39.58161498635331" lon="16.244896966277945"><ele>60.0</ele><time>2026-05-02T10:43:23.999Z</time></trkpt><trkpt lat="39.58127023385242" lon="16.244757195257726"><ele>59.5</ele><time>2026-05-02T10:43:24.999Z</time></trkpt><trkpt lat="39.58092860118497" lon="16.24460915709829"><ele>59.0</ele><time>2026-05-02T10:43:25.999Z</time></trkpt><trkpt lat="39.580589929319274" lon="16.244451997712627"><ele>60.5</ele><time>2026-05-02T10:43:26.999Z</time></trkpt><trkpt lat="39.58025626111306" lon="16.244282313747064"><ele>62.0</ele><time>2026-05-02T10:43:27.999Z</time></trkpt><trkpt lat="39.57992439830375" lon="16.2440988105048"><ele>62.0</ele><time>2026-05-02T10:43:28.998Z</time></trkpt><trkpt lat="39.57959370937008" lon="16.24390063715385"><ele>62.0</ele><time>2026-05-02T10:43:29.998Z</time></trkpt><trkpt lat="39.57926560140528" lon="16.243687915982687"><ele>62.0</ele><time>2026-05-02T10:43:30.998Z</time></trkpt><trkpt lat="39.5789446957554" lon="16.243461484952146"><ele>62.0</ele><time>2026-05-02T10:43:31.998Z</time></trkpt><trkpt lat="39.57862813844615" lon="16.24322882251928"><ele>62.5</ele><time>2026-05-02T10:43:32.998Z</time></trkpt><trkpt lat="39.57831564023119" lon="16.24298661261084"><ele>63.0</ele><time>2026-05-02T10:43:33.998Z</time></trkpt><trkpt lat="39.57800690898031" lon="16.24273329744095"><ele>62.0</ele><time>2026-05-02T10:43:34.998Z</time></trkpt><trkpt lat="39.57769938795057" lon="16.242471350813034"><ele>61.0</ele><time>2026-05-02T10:43:35.998Z</time></trkpt><trkpt lat="39.577395652589196" lon="16.242203734957073"><ele>60.5</ele><time>2026-05-02T10:43:36.998Z</time></trkpt><trkpt lat="39.57709351015339" lon="16.24192993120161"><ele>60.0</ele><time>2026-05-02T10:43:37.998Z</time></trkpt><trkpt lat="39.576791735091966" lon="16.24165616995135"><ele>63.5</ele><time>2026-05-02T10:43:38.998Z</time></trkpt><trkpt lat="39.57649214092659" lon="16.241379375078193"><ele>67.0</ele><time>2026-05-02T10:43:39.998Z</time></trkpt><trkpt lat="39.57619383997345" lon="16.24109835343875"><ele>67.5</ele><time>2026-05-02T10:43:40.998Z</time></trkpt><trkpt lat="39.575895915332644" lon="16.24081781580098"><ele>68.0</ele><time>2026-05-02T10:43:41.998Z</time></trkpt><trkpt lat="39.5755987542661" lon="16.24054106094357"><ele>65.5</ele><time>2026-05-02T10:43:42.998Z</time></trkpt><trkpt lat="39.57529990977507" lon="16.240265600758484"><ele>63.0</ele><time>2026-05-02T10:43:43.998Z</time></trkpt><trkpt lat="39.574997135272184" lon="16.239995782600253"><ele>63.0</ele><time>2026-05-02T10:43:44.998Z</time></trkpt><trkpt lat="39.57468899755794" lon="16.23973297069775"><ele>63.0</ele><time>2026-05-02T10:43:45.998Z</time></trkpt><trkpt lat="39.574374408914345" lon="16.239478593481145"><ele>63.0</ele><time>2026-05-02T10:43:46.998Z</time></trkpt><trkpt lat="39.57405540704874" lon="16.23923717403547"><ele>63.0</ele><time>2026-05-02T10:43:47.998Z</time></trkpt><trkpt lat="39.57372953504152" lon="16.23901710255054"><ele>65.0</ele><time>2026-05-02T10:43:48.998Z</time></trkpt><trkpt lat="39.57339530215797" lon="16.238817950113315"><ele>67.0</ele><time>2026-05-02T10:43:49.998Z</time></trkpt><trkpt lat="39.573055217900844" lon="16.238635684887168"><ele>65.5</ele><time>2026-05-02T10:43:51Z</time></trkpt><trkpt lat="39.57271092863665" lon="16.238468492644415"><ele>64.0</ele><time>2026-05-02T10:43:52Z</time></trkpt><trkpt lat="39.57236158274367" lon="16.238313539335056"><ele>64.0</ele><time>2026-05-02T10:43:53Z</time></trkpt><trkpt lat="39.572009291957" lon="16.238174465119744"><ele>64.0</ele><time>2026-05-02T10:43:54Z</time></trkpt><trkpt lat="39.57165126731351" lon="16.2380488164651"><ele>64.5</ele><time>2026-05-02T10:43:55Z</time></trkpt><trkpt lat="39.57129078762372" lon="16.237937071102024"><ele>65.0</ele><time>2026-05-02T10:43:56Z</time></trkpt><trkpt lat="39.57092226363138" lon="16.237829373745804"><ele>65.0</ele><time>2026-05-02T10:43:57Z</time></trkpt><trkpt lat="39.570554527465" lon="16.237722058822"><ele>65.0</ele><time>2026-05-02T10:43:58Z</time></trkpt><trkpt lat="39.570189680800446" lon="16.237614303464692"><ele>64.0</ele><time>2026-05-02T10:43:59Z</time></trkpt><trkpt lat="39.56982509246314" lon="16.237506137448356"><ele>63.0</ele><time>2026-05-02T10:44:00Z</time></trkpt><trkpt lat="39.56945978922153" lon="16.237398510406766"><ele>64.0</ele><time>2026-05-02T10:44:01Z</time></trkpt><trkpt lat="39.569096673023616" lon="16.23729058565376"><ele>65.0</ele><time>2026-05-02T10:44:02Z</time></trkpt><trkpt lat="39.5687323355574" lon="16.237184513929733"><ele>65.0</ele><time>2026-05-02T10:44:03Z</time></trkpt><trkpt lat="39.56836741810087" lon="16.237079131594236"><ele>65.0</ele><time>2026-05-02T10:44:04Z</time></trkpt><trkpt lat="39.56800360504672" lon="16.236974502322333"><ele>64.0</ele><time>2026-05-02T10:44:05Z</time></trkpt><trkpt lat="39.56764221051342" lon="16.236868233552258"><ele>63.0</ele><time>2026-05-02T10:44:06Z</time></trkpt><trkpt lat="39.567280686481276" lon="16.236759787923276"><ele>63.0</ele><time>2026-05-02T10:44:07Z</time></trkpt><trkpt lat="39.56692002424105" lon="16.23665263914551"><ele>63.0</ele><time>2026-05-02T10:44:08Z</time></trkpt><trkpt lat="39.566559478049804" lon="16.236546202611876"><ele>64.0</ele><time>2026-05-02T10:44:09Z</time></trkpt><trkpt lat="39.5661990700815" lon="16.236438080875278"><ele>65.0</ele><time>2026-05-02T10:44:10Z</time></trkpt><trkpt lat="39.56583936953624" lon="16.236332763024006"><ele>65.0</ele><time>2026-05-02T10:44:11Z</time></trkpt><trkpt lat="39.565480387175604" lon="16.236227758067635"><ele>65.0</ele><time>2026-05-02T10:44:12Z</time></trkpt><trkpt lat="39.565122272263295" lon="16.23612388042948"><ele>65.0</ele><time>2026-05-02T10:44:13Z</time></trkpt><trkpt lat="39.56476582313367" lon="16.23601943722925"><ele>65.0</ele><time>2026-05-02T10:44:14Z</time></trkpt><trkpt lat="39.56440983360468" lon="16.235910183780963"><ele>64.5</ele><time>2026-05-02T10:44:15Z</time></trkpt><trkpt lat="39.56405517639798" lon="16.235801553528635"><ele>64.0</ele><time>2026-05-02T10:44:16Z</time></trkpt><trkpt lat="39.56369783451584" lon="16.235689988075073"><ele>64.5</ele><time>2026-05-02T10:44:17Z</time></trkpt><trkpt lat="39.56334142513351" lon="16.235577960924275"><ele>65.0</ele><time>2026-05-02T10:44:18Z</time></trkpt><trkpt lat="39.56298744813227" lon="16.23546458951063"><ele>65.0</ele><time>2026-05-02T10:44:18.999Z</time></trkpt><trkpt lat="39.56263548228502" lon="16.235348948686177"><ele>65.0</ele><time>2026-05-02T10:44:19.999Z</time></trkpt><trkpt lat="39.5622846685774" lon="16.23522807611495"><ele>65.5</ele><time>2026-05-02T10:44:20.999Z</time></trkpt><trkpt lat="39.5619333237752" lon="16.23510136472881"><ele>66.0</ele><time>2026-05-02T10:44:21.999Z</time></trkpt><trkpt lat="39.561582542786844" lon="16.234967476873884"><ele>66.0</ele><time>2026-05-02T10:44:22.999Z</time></trkpt><trkpt lat="39.561233508830995" lon="16.234831147009018"><ele>66.0</ele><time>2026-05-02T10:44:23.999Z</time></trkpt><trkpt lat="39.56088641570159" lon="16.234691117860695"><ele>66.5</ele><time>2026-05-02T10:44:24.999Z</time></trkpt><trkpt lat="39.560539287240225" lon="16.234547932145894"><ele>67.0</ele><time>2026-05-02T10:44:25.999Z</time></trkpt><trkpt lat="39.56019285992442" lon="16.234398531810015"><ele>67.0</ele><time>2026-05-02T10:44:26.999Z</time></trkpt><trkpt lat="39.559844854369246" lon="16.23424210160873"><ele>67.0</ele><time>2026-05-02T10:44:27.999Z</time></trkpt><trkpt lat="39.559499227817106" lon="16.234084684118848"><ele>68.0</ele><time>2026-05-02T10:44:28.999Z</time></trkpt><trkpt lat="39.55915233946386" lon="16.233924168384835"><ele>69.0</ele><time>2026-05-02T10:44:29.999Z</time></trkpt><trkpt lat="39.558806055277984" lon="16.233763001510038"><ele>69.5</ele><time>2026-05-02T10:44:30.999Z</time></trkpt><trkpt lat="39.55845748754842" lon="16.233602361293705"><ele>70.0</ele><time>2026-05-02T10:44:31.999Z</time></trkpt><trkpt lat="39.558108802492896" lon="16.233438925151116"><ele>70.0</ele><time>2026-05-02T10:44:32.999Z</time></trkpt><trkpt lat="39.557760872166114" lon="16.23327733256243"><ele>70.0</ele><time>2026-05-02T10:44:33.999Z</time></trkpt><trkpt lat="39.55741236915394" lon="16.233115516272807"><ele>69.5</ele><time>2026-05-02T10:44:34.999Z</time></trkpt><trkpt lat="39.557060710380284" lon="16.232954869135344"><ele>69.0</ele><time>2026-05-02T10:44:35.999Z</time></trkpt><trkpt lat="39.55670818948933" lon="16.232792361494187"><ele>69.0</ele><time>2026-05-02T10:44:36.999Z</time></trkpt><trkpt lat="39.556358230014375" lon="16.23262579838292"><ele>69.0</ele><time>2026-05-02T10:44:37.999Z</time></trkpt><trkpt lat="39.55600777740982" lon="16.232454493379212"><ele>70.5</ele><time>2026-05-02T10:44:38.999Z</time></trkpt><trkpt lat="39.55565771443519" lon="16.23228291376992"><ele>72.0</ele><time>2026-05-02T10:44:39.999Z</time></trkpt><trkpt lat="39.555311006474874" lon="16.232111589157626"><ele>72.5</ele><time>2026-05-02T10:44:40.999Z</time></trkpt><trkpt lat="39.554965990077164" lon="16.2319374862286"><ele>73.0</ele><time>2026-05-02T10:44:41.999Z</time></trkpt><trkpt lat="39.554620928602006" lon="16.23176182033004"><ele>72.5</ele><time>2026-05-02T10:44:42.999Z</time></trkpt><trkpt lat="39.55427746556068" lon="16.23158966599275"><ele>72.0</ele><time>2026-05-02T10:44:43.999Z</time></trkpt><trkpt lat="39.553934637071485" lon="16.231421211302774"><ele>72.0</ele><time>2026-05-02T10:44:44.999Z</time></trkpt><trkpt lat="39.55359357163145" lon="16.2312548661206"><ele>72.0</ele><time>2026-05-02T10:44:45.999Z</time></trkpt><trkpt lat="39.553252949177164" lon="16.231088725472603"><ele>72.0</ele><time>2026-05-02T10:44:46.999Z</time></trkpt><trkpt lat="39.5529147999585" lon="16.230926173502198"><ele>72.0</ele><time>2026-05-02T10:44:47.999Z</time></trkpt><trkpt lat="39.5525767621226" lon="16.230763150426004"><ele>71.5</ele><time>2026-05-02T10:44:48.999Z</time></trkpt><trkpt lat="39.55223938116707" lon="16.23059974673705"><ele>71.0</ele><time>2026-05-02T10:44:49.999Z</time></trkpt><trkpt lat="39.55190286201439" lon="16.230435837824007"><ele>72.0</ele><time>2026-05-02T10:44:50.999Z</time></trkpt><trkpt lat="39.551561812226765" lon="16.230268006588652"><ele>73.0</ele><time>2026-05-02T10:44:51.999Z</time></trkpt><trkpt lat="39.551225408522676" lon="16.23010199836712"><ele>72.5</ele><time>2026-05-02T10:44:52.999Z</time></trkpt><trkpt lat="39.55088413413414" lon="16.229936579157542"><ele>72.0</ele><time>2026-05-02T10:44:53.999Z</time></trkpt><trkpt lat="39.55054133797375" lon="16.22977219585456"><ele>72.0</ele><time>2026-05-02T10:44:54.999Z</time></trkpt><trkpt lat="39.550197335612104" lon="16.229607045843956"><ele>72.0</ele><time>2026-05-02T10:44:55.999Z</time></trkpt><trkpt lat="39.549852453570196" lon="16.22944262290868"><ele>72.0</ele><time>2026-05-02T10:44:56.999Z</time></trkpt><trkpt lat="39.54950818225826" lon="16.229277193672303"><ele>72.0</ele><time>2026-05-02T10:44:57.999Z</time></trkpt><trkpt lat="39.54916589282996" lon="16.229114289158705"><ele>71.5</ele><time>2026-05-02T10:44:58.999Z</time></trkpt><trkpt lat="39.54882035293825" lon="16.228949875334656"><ele>71.0</ele><time>2026-05-02T10:44:59.999Z</time></trkpt><trkpt lat="39.54847382167129" lon="16.22878415058519"><ele>71.0</ele><time>2026-05-02T10:45:00.999Z</time></trkpt><trkpt lat="39.54812396204802" lon="16.22861833135053"><ele>71.0</ele><time>2026-05-02T10:45:01.999Z</time></trkpt><trkpt lat="39.54777586191586" lon="16.22844979374968"><ele>71.0</ele><time>2026-05-02T10:45:02.999Z</time></trkpt><trkpt lat="39.54742869138772" lon="16.228280887096822"><ele>71.0</ele><time>2026-05-02T10:45:03.999Z</time></trkpt><trkpt lat="39.54708041522754" lon="16.22811269222167"><ele>71.0</ele><time>2026-05-02T10:45:04.999Z</time></trkpt><trkpt lat="39.54673102352006" lon="16.227943796914793"><ele>71.0</ele><time>2026-05-02T10:45:05.999Z</time></trkpt><trkpt lat="39.54638376098318" lon="16.227777751368023"><ele>70.5</ele><time>2026-05-02T10:45:06.999Z</time></trkpt><trkpt lat="39.54603584377706" lon="16.22761260187477"><ele>70.0</ele><time>2026-05-02T10:45:07.999Z</time></trkpt><trkpt lat="39.54568848190876" lon="16.227450181353127"><ele>71.5</ele><time>2026-05-02T10:45:08.999Z</time></trkpt><trkpt lat="39.54534119088899" lon="16.227287768237787"><ele>73.0</ele><time>2026-05-02T10:45:09.999Z</time></trkpt><trkpt lat="39.54499237104804" lon="16.227121665767445"><ele>73.0</ele><time>2026-05-02T10:45:10.999Z</time></trkpt><trkpt lat="39.544644223843655" lon="16.226953546741328"><ele>73.0</ele><time>2026-05-02T10:45:11.999Z</time></trkpt><trkpt lat="39.54429746741114" lon="16.22678647786584"><ele>73.0</ele><time>2026-05-02T10:45:12.999Z</time></trkpt><trkpt lat="39.543951353018834" lon="16.226618934526392"><ele>73.0</ele><time>2026-05-02T10:45:13.999Z</time></trkpt><trkpt lat="39.54360641658514" lon="16.22645368493246"><ele>73.0</ele><time>2026-05-02T10:45:14.999Z</time></trkpt><trkpt lat="39.54326167411518" lon="16.226290831417625"><ele>73.0</ele><time>2026-05-02T10:45:15.999Z</time></trkpt><trkpt lat="39.54291670166569" lon="16.226128336930223"><ele>73.0</ele><time>2026-05-02T10:45:16.999Z</time></trkpt><trkpt lat="39.542570090740234" lon="16.225964620220232"><ele>73.0</ele><time>2026-05-02T10:45:17.999Z</time></trkpt><trkpt lat="39.54222439881736" lon="16.22579998614145"><ele>73.5</ele><time>2026-05-02T10:45:18.999Z</time></trkpt><trkpt lat="39.54187823056798" lon="16.225635105977137"><ele>74.0</ele><time>2026-05-02T10:45:19.999Z</time></trkpt><trkpt lat="39.54153201427644" lon="16.2254696479092"><ele>75.5</ele><time>2026-05-02T10:45:20.999Z</time></trkpt><trkpt lat="39.54118784704191" lon="16.225302815695066"><ele>77.0</ele><time>2026-05-02T10:45:21.999Z</time></trkpt><trkpt lat="39.54084311139837" lon="16.225136118393184"><ele>77.0</ele><time>2026-05-02T10:45:22.999Z</time></trkpt><trkpt lat="39.54049856435462" lon="16.224970944910194"><ele>77.0</ele><time>2026-05-02T10:45:23.999Z</time></trkpt><trkpt lat="39.54015254355416" lon="16.224807476246426"><ele>77.5</ele><time>2026-05-02T10:45:24.999Z</time></trkpt><trkpt lat="39.539806162689764" lon="16.224643187368237"><ele>78.0</ele><time>2026-05-02T10:45:25.999Z</time></trkpt><trkpt lat="39.539461321091004" lon="16.224477088732023"><ele>76.5</ele><time>2026-05-02T10:45:26.999Z</time></trkpt><trkpt lat="39.539115680963896" lon="16.22430815417795"><ele>75.0</ele><time>2026-05-02T10:45:27.999Z</time></trkpt><trkpt lat="39.53877177231336" lon="16.224139883965425"><ele>75.5</ele><time>2026-05-02T10:45:28.999Z</time></trkpt><trkpt lat="39.53842689151194" lon="16.223973441886805"><ele>76.0</ele><time>2026-05-02T10:45:29.999Z</time></trkpt><trkpt lat="39.53808094542067" lon="16.223808721860806"><ele>75.0</ele><time>2026-05-02T10:45:30.999Z</time></trkpt><trkpt lat="39.53773876887155" lon="16.223647003690793"><ele>74.0</ele><time>2026-05-02T10:45:31.998Z</time></trkpt><trkpt lat="39.53739318767441" lon="16.22348484236216"><ele>75.0</ele><time>2026-05-02T10:45:32.998Z</time></trkpt><trkpt lat="39.53704804382254" lon="16.223321926114792"><ele>76.0</ele><time>2026-05-02T10:45:33.998Z</time></trkpt><trkpt lat="39.53670189248167" lon="16.22315717335638"><ele>76.5</ele><time>2026-05-02T10:45:34.998Z</time></trkpt><trkpt lat="39.536357240460255" lon="16.222990753391166"><ele>77.0</ele><time>2026-05-02T10:45:35.998Z</time></trkpt><trkpt lat="39.53601428496988" lon="16.222822872130735"><ele>77.0</ele><time>2026-05-02T10:45:36.998Z</time></trkpt><trkpt lat="39.53567138338985" lon="16.222654718533175"><ele>77.0</ele><time>2026-05-02T10:45:37.998Z</time></trkpt><trkpt lat="39.53533042523653" lon="16.222484144467547"><ele>76.5</ele><time>2026-05-02T10:45:38.998Z</time></trkpt><trkpt lat="39.534992640107426" lon="16.222307583839044"><ele>76.0</ele><time>2026-05-02T10:45:39.998Z</time></trkpt><trkpt lat="39.53465570289656" lon="16.22212249389564"><ele>76.5</ele><time>2026-05-02T10:45:40.998Z</time></trkpt><trkpt lat="39.53432266367407" lon="16.221931594634636"><ele>77.0</ele><time>2026-05-02T10:45:41.998Z</time></trkpt><trkpt lat="39.53399276333963" lon="16.221738965702478"><ele>77.5</ele><time>2026-05-02T10:45:42.998Z</time></trkpt><trkpt lat="39.53366638945817" lon="16.22154754406644"><ele>78.0</ele><time>2026-05-02T10:45:43.998Z</time></trkpt><trkpt lat="39.53334417000677" lon="16.221362525995787"><ele>78.0</ele><time>2026-05-02T10:45:44.998Z</time></trkpt><trkpt lat="39.533020128057025" lon="16.22117929213015"><ele>78.0</ele><time>2026-05-02T10:45:45.998Z</time></trkpt><trkpt lat="39.5326932420489" lon="16.22099239023695"><ele>78.5</ele><time>2026-05-02T10:45:46.998Z</time></trkpt><trkpt lat="39.53236252651087" lon="16.220802962596995"><ele>79.0</ele><time>2026-05-02T10:45:47.998Z</time></trkpt><trkpt lat="39.53203657005565" lon="16.220614240939053"><ele>79.0</ele><time>2026-05-02T10:45:48.998Z</time></trkpt><trkpt lat="39.53170646320471" lon="16.220420549843848"><ele>79.0</ele><time>2026-05-02T10:45:49.998Z</time></trkpt><trkpt lat="39.531373960538566" lon="16.220227003513006"><ele>78.5</ele><time>2026-05-02T10:45:50.998Z</time></trkpt><trkpt lat="39.53104065217588" lon="16.220031137739706"><ele>78.0</ele><time>2026-05-02T10:45:51.998Z</time></trkpt><trkpt lat="39.53070703397858" lon="16.21983561122212"><ele>77.5</ele><time>2026-05-02T10:45:52.998Z</time></trkpt><trkpt lat="39.530375389152375" lon="16.219643092335787"><ele>77.0</ele><time>2026-05-02T10:45:53.998Z</time></trkpt><trkpt lat="39.53004525452573" lon="16.219452457056562"><ele>77.0</ele><time>2026-05-02T10:45:54.998Z</time></trkpt><trkpt lat="39.52971539474316" lon="16.219261995010665"><ele>77.0</ele><time>2026-05-02T10:45:55.998Z</time></trkpt><trkpt lat="39.52938480906353" lon="16.219069776879312"><ele>77.5</ele><time>2026-05-02T10:45:57Z</time></trkpt><trkpt lat="39.529054344670364" lon="16.218878411463812"><ele>78.0</ele><time>2026-05-02T10:45:58Z</time></trkpt><trkpt lat="39.52872732382189" lon="16.218690043390325"><ele>78.0</ele><time>2026-05-02T10:45:59Z</time></trkpt><trkpt lat="39.52840072261762" lon="16.21849468792998"><ele>78.0</ele><time>2026-05-02T10:46:00Z</time></trkpt><trkpt lat="39.52807520538684" lon="16.21829030654543"><ele>77.5</ele><time>2026-05-02T10:46:01Z</time></trkpt><trkpt lat="39.52775251681751" lon="16.218080142647146"><ele>77.0</ele><time>2026-05-02T10:46:02Z</time></trkpt><trkpt lat="39.527432420999155" lon="16.21786267689968"><ele>77.0</ele><time>2026-05-02T10:46:03Z</time></trkpt><trkpt lat="39.527116555997786" lon="16.21763281991708"><ele>77.0</ele><time>2026-05-02T10:46:04Z</time></trkpt><trkpt lat="39.52680366683855" lon="16.21738959343388"><ele>76.5</ele><time>2026-05-02T10:46:05Z</time></trkpt><trkpt lat="39.52649365469165" lon="16.21713604474817"><ele>76.0</ele><time>2026-05-02T10:46:06Z</time></trkpt><trkpt lat="39.52618873934708" lon="16.21687511762828"><ele>76.5</ele><time>2026-05-02T10:46:07Z</time></trkpt><trkpt lat="39.525885757667055" lon="16.216607208344424"><ele>77.0</ele><time>2026-05-02T10:46:08Z</time></trkpt><trkpt lat="39.52558411591348" lon="16.216334041789324"><ele>76.0</ele><time>2026-05-02T10:46:09Z</time></trkpt><trkpt lat="39.525279954868985" lon="16.216057485547047"><ele>75.0</ele><time>2026-05-02T10:46:10Z</time></trkpt><trkpt lat="39.524972399886686" lon="16.215783326964694"><ele>76.0</ele><time>2026-05-02T10:46:11Z</time></trkpt><trkpt lat="39.52466958640367" lon="16.215511186106966"><ele>77.0</ele><time>2026-05-02T10:46:12Z</time></trkpt><trkpt lat="39.524366164648384" lon="16.215241012465068"><ele>77.0</ele><time>2026-05-02T10:46:12.999Z</time></trkpt><trkpt lat="39.52406219857613" lon="16.21497642826658"><ele>77.0</ele><time>2026-05-02T10:46:13.999Z</time></trkpt><trkpt lat="39.52375574769758" lon="16.2147176960873"><ele>78.0</ele><time>2026-05-02T10:46:14.999Z</time></trkpt><trkpt lat="39.52344571096044" lon="16.214460147852716"><ele>79.0</ele><time>2026-05-02T10:46:15.999Z</time></trkpt><trkpt lat="39.52312974130903" lon="16.214217653194165"><ele>78.5</ele><time>2026-05-02T10:46:16.999Z</time></trkpt><trkpt lat="39.52280574592025" lon="16.213998306118516"><ele>78.0</ele><time>2026-05-02T10:46:17.999Z</time></trkpt><trkpt lat="39.522475645097146" lon="16.213793310670948"><ele>80.5</ele><time>2026-05-02T10:46:18.999Z</time></trkpt><trkpt lat="39.52213837788031" lon="16.213603580950323"><ele>83.0</ele><time>2026-05-02T10:46:19.999Z</time></trkpt><trkpt lat="39.52179261502886" lon="16.213430657920696"><ele>83.0</ele><time>2026-05-02T10:46:20.999Z</time></trkpt><trkpt lat="39.52144293981674" lon="16.213271327694628"><ele>83.0</ele><time>2026-05-02T10:46:21.999Z</time></trkpt><trkpt lat="39.521087529311615" lon="16.213125122172148"><ele>83.0</ele><time>2026-05-02T10:46:22.999Z</time></trkpt><trkpt lat="39.52073300130402" lon="16.212980910547373"><ele>83.0</ele><time>2026-05-02T10:46:23.999Z</time></trkpt><trkpt lat="39.52038024826507" lon="16.212841819933647"><ele>83.0</ele><time>2026-05-02T10:46:24.999Z</time></trkpt><trkpt lat="39.5200283569486" lon="16.212702601778293"><ele>83.0</ele><time>2026-05-02T10:46:25.999Z</time></trkpt><trkpt lat="39.51967605680787" lon="16.21256689447893"><ele>83.5</ele><time>2026-05-02T10:46:26.999Z</time></trkpt><trkpt lat="39.51932429734834" lon="16.212427645743738"><ele>84.0</ele><time>2026-05-02T10:46:27.999Z</time></trkpt><trkpt lat="39.51897166202332" lon="16.212285929340315"><ele>85.0</ele><time>2026-05-02T10:46:28.999Z</time></trkpt><trkpt lat="39.51861934654672" lon="16.21214824720599"><ele>86.0</ele><time>2026-05-02T10:46:29.999Z</time></trkpt><trkpt lat="39.518265621583055" lon="16.212013401190788"><ele>86.0</ele><time>2026-05-02T10:46:30.999Z</time></trkpt><trkpt lat="39.51791054135083" lon="16.211878139085485"><ele>86.0</ele><time>2026-05-02T10:46:31.999Z</time></trkpt><trkpt lat="39.517556342306555" lon="16.21174318881068"><ele>86.0</ele><time>2026-05-02T10:46:32.999Z</time></trkpt><trkpt lat="39.517200243679845" lon="16.211607764850733"><ele>86.0</ele><time>2026-05-02T10:46:33.999Z</time></trkpt><trkpt lat="39.51684463000622" lon="16.211471958545914"><ele>88.0</ele><time>2026-05-02T10:46:34.999Z</time></trkpt><trkpt lat="39.51649036109787" lon="16.21133500976939"><ele>90.0</ele><time>2026-05-02T10:46:35.999Z</time></trkpt><trkpt lat="39.5161382418866" lon="16.211199976732946"><ele>90.0</ele><time>2026-05-02T10:46:36.999Z</time></trkpt><trkpt lat="39.51578634652212" lon="16.211064846717093"><ele>90.0</ele><time>2026-05-02T10:46:37.999Z</time></trkpt><trkpt lat="39.51543473995071" lon="16.210927705535216"><ele>90.5</ele><time>2026-05-02T10:46:38.999Z</time></trkpt><trkpt lat="39.515083369900225" lon="16.210789707195907"><ele>91.0</ele><time>2026-05-02T10:46:39.999Z</time></trkpt><trkpt lat="39.51473454286072" lon="16.210653802968455"><ele>90.5</ele><time>2026-05-02T10:46:40.999Z</time></trkpt><trkpt lat="39.51438353555403" lon="16.21052117465695"><ele>90.0</ele><time>2026-05-02T10:46:41.999Z</time></trkpt><trkpt lat="39.51402995692845" lon="16.21039467178593"><ele>90.0</ele><time>2026-05-02T10:46:42.999Z</time></trkpt><trkpt lat="39.513674572525396" lon="16.210278827694562"><ele>90.0</ele><time>2026-05-02T10:46:43.999Z</time></trkpt><trkpt lat="39.513319319399436" lon="16.2101751777441"><ele>90.0</ele><time>2026-05-02T10:46:44.999Z</time></trkpt><trkpt lat="39.51295727814994" lon="16.210088524333194"><ele>90.0</ele><time>2026-05-02T10:46:45.999Z</time></trkpt><trkpt lat="39.5125947230281" lon="16.210023951540766"><ele>90.5</ele><time>2026-05-02T10:46:46.999Z</time></trkpt><trkpt lat="39.51223074633896" lon="16.20997984189603"><ele>91.0</ele><time>2026-05-02T10:46:47.999Z</time></trkpt><trkpt lat="39.511863807407074" lon="16.209952143780345"><ele>91.0</ele><time>2026-05-02T10:46:48.999Z</time></trkpt><trkpt lat="39.51149676425567" lon="16.209933422071806"><ele>91.0</ele><time>2026-05-02T10:46:49.999Z</time></trkpt><trkpt lat="39.511130944850066" lon="16.209922572892623"><ele>91.0</ele><time>2026-05-02T10:46:50.999Z</time></trkpt><trkpt lat="39.51076553721855" lon="16.2099119842276"><ele>91.0</ele><time>2026-05-02T10:46:51.999Z</time></trkpt><trkpt lat="39.5103987714035" lon="16.209901550542114"><ele>91.0</ele><time>2026-05-02T10:46:52.999Z</time></trkpt><trkpt lat="39.51003478709341" lon="16.209889585696466"><ele>91.0</ele><time>2026-05-02T10:46:53.999Z</time></trkpt><trkpt lat="39.5096695558335" lon="16.209878974847282"><ele>90.5</ele><time>2026-05-02T10:46:54.999Z</time></trkpt><trkpt lat="39.50930327940393" lon="16.209869374004366"><ele>90.0</ele><time>2026-05-02T10:46:55.999Z</time></trkpt><trkpt lat="39.508936377842666" lon="16.209860785708795"><ele>89.5</ele><time>2026-05-02T10:46:56.999Z</time></trkpt><trkpt lat="39.508571549458104" lon="16.209852871489684"><ele>89.0</ele><time>2026-05-02T10:46:57.999Z</time></trkpt><trkpt lat="39.50820814624679" lon="16.209844198942246"><ele>88.5</ele><time>2026-05-02T10:46:58.999Z</time></trkpt><trkpt lat="39.50784345085209" lon="16.20983627445006"><ele>88.0</ele><time>2026-05-02T10:46:59.999Z</time></trkpt><trkpt lat="39.50747777902769" lon="16.20982829679963"><ele>86.5</ele><time>2026-05-02T10:47:00.999Z</time></trkpt><trkpt lat="39.50711027931737" lon="16.209817416229757"><ele>85.0</ele><time>2026-05-02T10:47:01.999Z</time></trkpt><trkpt lat="39.506742946596376" lon="16.20980593034616"><ele>85.0</ele><time>2026-05-02T10:47:02.999Z</time></trkpt><trkpt lat="39.50637706595785" lon="16.20979503938402"><ele>85.0</ele><time>2026-05-02T10:47:03.999Z</time></trkpt><trkpt lat="39.50601259817422" lon="16.20978511867166"><ele>84.0</ele><time>2026-05-02T10:47:04.999Z</time></trkpt><trkpt lat="39.5056504605577" lon="16.209778773786944"><ele>83.0</ele><time>2026-05-02T10:47:05.999Z</time></trkpt><trkpt lat="39.50528908289962" lon="16.209771702095107"><ele>83.0</ele><time>2026-05-02T10:47:06.999Z</time></trkpt><trkpt lat="39.50492787818734" lon="16.209763326787215"><ele>83.0</ele><time>2026-05-02T10:47:07.999Z</time></trkpt><trkpt lat="39.504570170504145" lon="16.20975473442643"><ele>82.0</ele><time>2026-05-02T10:47:08.999Z</time></trkpt><trkpt lat="39.50420838331357" lon="16.209748544760664"><ele>81.0</ele><time>2026-05-02T10:47:09.999Z</time></trkpt><trkpt lat="39.50384399743897" lon="16.209749684391618"><ele>81.5</ele><time>2026-05-02T10:47:10.999Z</time></trkpt><trkpt lat="39.503481988447476" lon="16.20976267613694"><ele>82.0</ele><time>2026-05-02T10:47:11.999Z</time></trkpt><trkpt lat="39.50311887237765" lon="16.20978851088801"><ele>83.0</ele><time>2026-05-02T10:47:12.999Z</time></trkpt><trkpt lat="39.50275596032545" lon="16.20982700627926"><ele>84.0</ele><time>2026-05-02T10:47:13.999Z</time></trkpt><trkpt lat="39.50239377178837" lon="16.2098735856366"><ele>84.5</ele><time>2026-05-02T10:47:14.999Z</time></trkpt><trkpt lat="39.50203188887399" lon="16.20993103554306"><ele>85.0</ele><time>2026-05-02T10:47:15.999Z</time></trkpt><trkpt lat="39.50166812489958" lon="16.209999184822102"><ele>85.0</ele><time>2026-05-02T10:47:16.999Z</time></trkpt><trkpt lat="39.50130662139364" lon="16.210077150448427"><ele>85.0</ele><time>2026-05-02T10:47:17.999Z</time></trkpt><trkpt lat="39.500944823170194" lon="16.210162554192156"><ele>85.0</ele><time>2026-05-02T10:47:18.999Z</time></trkpt><trkpt lat="39.50058277832844" lon="16.21024964368055"><ele>85.0</ele><time>2026-05-02T10:47:19.999Z</time></trkpt><trkpt lat="39.500219975713" lon="16.210339393753166"><ele>85.5</ele><time>2026-05-02T10:47:20.999Z</time></trkpt><trkpt lat="39.49985582816349" lon="16.210431849308694"><ele>86.0</ele><time>2026-05-02T10:47:21.999Z</time></trkpt><trkpt lat="39.49949228493382" lon="16.210526477506015"><ele>86.0</ele><time>2026-05-02T10:47:22.999Z</time></trkpt><trkpt lat="39.49912782592481" lon="16.21062027644375"><ele>86.0</ele><time>2026-05-02T10:47:23.999Z</time></trkpt><trkpt lat="39.498765516032336" lon="16.21071179783978"><ele>87.5</ele><time>2026-05-02T10:47:24.999Z</time></trkpt><trkpt lat="39.49840329287128" lon="16.2108043598655"><ele>89.0</ele><time>2026-05-02T10:47:25.999Z</time></trkpt><trkpt lat="39.498040864202245" lon="16.21089922787967"><ele>88.5</ele><time>2026-05-02T10:47:26.999Z</time></trkpt><trkpt lat="39.4976781221426" lon="16.21099424699883"><ele>88.0</ele><time>2026-05-02T10:47:27.999Z</time></trkpt><trkpt lat="39.49731481499618" lon="16.21108729327491"><ele>88.5</ele><time>2026-05-02T10:47:28.999Z</time></trkpt><trkpt lat="39.49694970464922" lon="16.2111826016854"><ele>89.0</ele><time>2026-05-02T10:47:29.999Z</time></trkpt><trkpt lat="39.496592453393845" lon="16.21127553236792"><ele>90.0</ele><time>2026-05-02T10:47:30.999Z</time></trkpt><trkpt lat="39.49623634639525" lon="16.21136969235592"><ele>91.0</ele><time>2026-05-02T10:47:31.999Z</time></trkpt><trkpt lat="39.49587695625437" lon="16.2114582796162"><ele>90.0</ele><time>2026-05-02T10:47:32.999Z</time></trkpt><trkpt lat="39.495519081975196" lon="16.21153746240433"><ele>89.0</ele><time>2026-05-02T10:47:33.999Z</time></trkpt><trkpt lat="39.49515938875108" lon="16.211607080246118"><ele>89.0</ele><time>2026-05-02T10:47:34.999Z</time></trkpt><trkpt lat="39.49479694645331" lon="16.211664588852617"><ele>89.0</ele><time>2026-05-02T10:47:35.998Z</time></trkpt><trkpt lat="39.49443373374115" lon="16.21171174439958"><ele>88.5</ele><time>2026-05-02T10:47:36.998Z</time></trkpt><trkpt lat="39.494068259289435" lon="16.21175701422888"><ele>88.0</ele><time>2026-05-02T10:47:37.998Z</time></trkpt><trkpt lat="39.4937066341287" lon="16.211803944938296"><ele>88.0</ele><time>2026-05-02T10:47:38.998Z</time></trkpt><trkpt lat="39.493346622877915" lon="16.211860298411185"><ele>88.0</ele><time>2026-05-02T10:47:39.998Z</time></trkpt><trkpt lat="39.4929853912862" lon="16.21192156669458"><ele>88.5</ele><time>2026-05-02T10:47:40.998Z</time></trkpt><trkpt lat="39.49262519994086" lon="16.211994790312414"><ele>89.0</ele><time>2026-05-02T10:47:41.998Z</time></trkpt><trkpt lat="39.49226596012342" lon="16.212079634260764"><ele>89.0</ele><time>2026-05-02T10:47:42.998Z</time></trkpt><trkpt lat="39.49190827392081" lon="16.21217016948734"><ele>89.0</ele><time>2026-05-02T10:47:43.998Z</time></trkpt><trkpt lat="39.49154841463275" lon="16.212262029966364"><ele>89.0</ele><time>2026-05-02T10:47:44.998Z</time></trkpt><trkpt lat="39.49118854549284" lon="16.212350283985128"><ele>89.0</ele><time>2026-05-02T10:47:45.998Z</time></trkpt><trkpt lat="39.490825316230534" lon="16.21243918334519"><ele>89.0</ele><time>2026-05-02T10:47:46.998Z</time></trkpt><trkpt lat="39.49046044389181" lon="16.212530260150423"><ele>89.0</ele><time>2026-05-02T10:47:47.998Z</time></trkpt><trkpt lat="39.49009516060504" lon="16.212623236143763"><ele>89.0</ele><time>2026-05-02T10:47:48.998Z</time></trkpt><trkpt lat="39.48973052955745" lon="16.212715418736472"><ele>89.0</ele><time>2026-05-02T10:47:49.998Z</time></trkpt><trkpt lat="39.48936717367568" lon="16.21280573229718"><ele>89.0</ele><time>2026-05-02T10:47:50.998Z</time></trkpt><trkpt lat="39.48900465691502" lon="16.212893983898994"><ele>89.0</ele><time>2026-05-02T10:47:51.998Z</time></trkpt><trkpt lat="39.48864433333133" lon="16.212981470687016"><ele>89.0</ele><time>2026-05-02T10:47:52.998Z</time></trkpt><trkpt lat="39.48828581424657" lon="16.213068534688723"><ele>89.0</ele><time>2026-05-02T10:47:53.998Z</time></trkpt><trkpt lat="39.48792758403914" lon="16.213157161847565"><ele>89.0</ele><time>2026-05-02T10:47:54.998Z</time></trkpt><trkpt lat="39.487571045064094" lon="16.213247185945942"><ele>89.0</ele><time>2026-05-02T10:47:55.998Z</time></trkpt><trkpt lat="39.48721821547808" lon="16.213337192352192"><ele>89.5</ele><time>2026-05-02T10:47:56.998Z</time></trkpt><trkpt lat="39.48686244956304" lon="16.21342945408506"><ele>90.0</ele><time>2026-05-02T10:47:57.998Z</time></trkpt><trkpt lat="39.48650429207996" lon="16.213523820750336"><ele>90.0</ele><time>2026-05-02T10:47:58.998Z</time></trkpt><trkpt lat="39.486149127789986" lon="16.21361929978174"><ele>90.0</ele><time>2026-05-02T10:47:59.998Z</time></trkpt><trkpt lat="39.4857960694317" lon="16.213710224649414"><ele>90.0</ele><time>2026-05-02T10:48:00.998Z</time></trkpt><trkpt lat="39.48544105219601" lon="16.213798579117427"><ele>90.0</ele><time>2026-05-02T10:48:01.998Z</time></trkpt><trkpt lat="39.48508511538432" lon="16.213883538562115"><ele>90.5</ele><time>2026-05-02T10:48:03Z</time></trkpt><trkpt lat="39.484732112218715" lon="16.213970496643594"><ele>91.0</ele><time>2026-05-02T10:48:04Z</time></trkpt><trkpt lat="39.484380614257944" lon="16.214057056936756"><ele>91.5</ele><time>2026-05-02T10:48:05Z</time></trkpt><trkpt lat="39.48402829491006" lon="16.214146580303417"><ele>92.0</ele><time>2026-05-02T10:48:06Z</time></trkpt><trkpt lat="39.48367028250097" lon="16.214235698537774"><ele>92.5</ele><time>2026-05-02T10:48:07Z</time></trkpt><trkpt lat="39.483309385406386" lon="16.214323545219557"><ele>93.0</ele><time>2026-05-02T10:48:08Z</time></trkpt><trkpt lat="39.482946060338925" lon="16.21441321927767"><ele>93.5</ele><time>2026-05-02T10:48:09Z</time></trkpt><trkpt lat="39.48258708265336" lon="16.214502458925093"><ele>94.0</ele><time>2026-05-02T10:48:10Z</time></trkpt><trkpt lat="39.4822292755861" lon="16.214592544137037"><ele>94.5</ele><time>2026-05-02T10:48:11Z</time></trkpt><trkpt lat="39.48187138529348" lon="16.2146819659694"><ele>95.0</ele><time>2026-05-02T10:48:12Z</time></trkpt><trkpt lat="39.481514062373364" lon="16.214772223935217"><ele>95.5</ele><time>2026-05-02T10:48:13Z</time></trkpt><trkpt lat="39.48115236506144" lon="16.214860670091266"><ele>96.0</ele><time>2026-05-02T10:48:14Z</time></trkpt><trkpt lat="39.48078953521987" lon="16.214949638409347"><ele>96.0</ele><time>2026-05-02T10:48:15Z</time></trkpt><trkpt lat="39.48042716624403" lon="16.215039203445865"><ele>96.0</ele><time>2026-05-02T10:48:16Z</time></trkpt><trkpt lat="39.48006396148693" lon="16.215131014862962"><ele>96.0</ele><time>2026-05-02T10:48:17Z</time></trkpt><trkpt lat="39.47970057736556" lon="16.215224382440994"><ele>96.0</ele><time>2026-05-02T10:48:18Z</time></trkpt><trkpt lat="39.47933736957468" lon="16.215318909930613"><ele>95.5</ele><time>2026-05-02T10:48:19Z</time></trkpt><trkpt lat="39.47897451970759" lon="16.215412959593138"><ele>95.0</ele><time>2026-05-02T10:48:20Z</time></trkpt><trkpt lat="39.47860897722442" lon="16.21550686150178"><ele>95.0</ele><time>2026-05-02T10:48:21Z</time></trkpt><trkpt lat="39.478244141481134" lon="16.21559879239278"><ele>95.0</ele><time>2026-05-02T10:48:22Z</time></trkpt><trkpt lat="39.4778767259025" lon="16.215688904338833"><ele>95.0</ele><time>2026-05-02T10:48:23Z</time></trkpt><trkpt lat="39.47751017211339" lon="16.215775819439564"><ele>95.0</ele><time>2026-05-02T10:48:24Z</time></trkpt><trkpt lat="39.47714658835362" lon="16.215863544836182"><ele>94.0</ele><time>2026-05-02T10:48:24.999Z</time></trkpt><trkpt lat="39.4767843723708" lon="16.215956709627633"><ele>93.0</ele><time>2026-05-02T10:48:25.999Z</time></trkpt><trkpt lat="39.47642578106549" lon="16.21605482994782"><ele>93.0</ele><time>2026-05-02T10:48:26.999Z</time></trkpt><trkpt lat="39.47606855953321" lon="16.216156179569147"><ele>93.0</ele><time>2026-05-02T10:48:27.999Z</time></trkpt><trkpt lat="39.47571419825787" lon="16.21626521035339"><ele>92.5</ele><time>2026-05-02T10:48:28.999Z</time></trkpt><trkpt lat="39.47535779900928" lon="16.216382764448348"><ele>92.0</ele><time>2026-05-02T10:48:29.999Z</time></trkpt><trkpt lat="39.47500507322075" lon="16.21651308775636"><ele>92.5</ele><time>2026-05-02T10:48:30.999Z</time></trkpt><trkpt lat="39.47465286276381" lon="16.216651267903117"><ele>93.0</ele><time>2026-05-02T10:48:31.999Z</time></trkpt><trkpt lat="39.474299197587406" lon="16.21679188939052"><ele>93.0</ele><time>2026-05-02T10:48:32.999Z</time></trkpt><trkpt lat="39.47394451798819" lon="16.216935559023067"><ele>93.0</ele><time>2026-05-02T10:48:33.999Z</time></trkpt><trkpt lat="39.47358876489578" lon="16.21708276838293"><ele>93.0</ele><time>2026-05-02T10:48:34.999Z</time></trkpt><trkpt lat="39.47323221385126" lon="16.217233263433954"><ele>93.0</ele><time>2026-05-02T10:48:35.999Z</time></trkpt><trkpt lat="39.47287536489165" lon="16.217380955493894"><ele>93.0</ele><time>2026-05-02T10:48:36.999Z</time></trkpt><trkpt lat="39.472514928881914" lon="16.217530741253746"><ele>93.0</ele><time>2026-05-02T10:48:37.999Z</time></trkpt><trkpt lat="39.47215412128192" lon="16.21768123201718"><ele>93.0</ele><time>2026-05-02T10:48:38.999Z</time></trkpt><trkpt lat="39.47179432572521" lon="16.217832442062306"><ele>93.0</ele><time>2026-05-02T10:48:39.999Z</time></trkpt><trkpt lat="39.47143486336438" lon="16.21798561622488"><ele>94.0</ele><time>2026-05-02T10:48:40.999Z</time></trkpt><trkpt lat="39.47107968141445" lon="16.218137171891"><ele>95.0</ele><time>2026-05-02T10:48:41.999Z</time></trkpt><trkpt lat="39.47072104339906" lon="16.218290992176836"><ele>95.5</ele><time>2026-05-02T10:48:42.999Z</time></trkpt><trkpt lat="39.47036010152222" lon="16.218444710909477"><ele>96.0</ele><time>2026-05-02T10:48:43.999Z</time></trkpt><trkpt lat="39.470000069527025" lon="16.218597252430296"><ele>96.0</ele><time>2026-05-02T10:48:44.999Z</time></trkpt><trkpt lat="39.46964180043944" lon="16.218747582704122"><ele>96.0</ele><time>2026-05-02T10:48:45.999Z</time></trkpt><trkpt lat="39.4692831264591" lon="16.218901324563003"><ele>96.5</ele><time>2026-05-02T10:48:46.999Z</time></trkpt><trkpt lat="39.468925155056645" lon="16.219055467364093"><ele>97.0</ele><time>2026-05-02T10:48:47.999Z</time></trkpt><trkpt lat="39.4685682588124" lon="16.219210720470226"><ele>97.0</ele><time>2026-05-02T10:48:48.999Z</time></trkpt><trkpt lat="39.46820874841094" lon="16.21936633055847"><ele>97.0</ele><time>2026-05-02T10:48:49.999Z</time></trkpt><trkpt lat="39.467849841859405" lon="16.219520276821626"><ele>97.0</ele><time>2026-05-02T10:48:50.999Z</time></trkpt><trkpt lat="39.46749516623245" lon="16.21967319451304"><ele>97.0</ele><time>2026-05-02T10:48:51.999Z</time></trkpt><trkpt lat="39.46714635074206" lon="16.219828729259255"><ele>97.0</ele><time>2026-05-02T10:48:52.999Z</time></trkpt><trkpt lat="39.46679899480064" lon="16.219991439192285"><ele>97.0</ele><time>2026-05-02T10:48:53.999Z</time></trkpt><trkpt lat="39.466458175782655" lon="16.22015887643361"><ele>97.5</ele><time>2026-05-02T10:48:54.999Z</time></trkpt><trkpt lat="39.46612483387188" lon="16.220329758918293"><ele>98.0</ele><time>2026-05-02T10:48:55.999Z</time></trkpt><trkpt lat="39.4657981487363" lon="16.220504798345058"><ele>98.0</ele><time>2026-05-02T10:48:56.999Z</time></trkpt><trkpt lat="39.465478516697885" lon="16.220683415821266"><ele>98.0</ele><time>2026-05-02T10:48:57.999Z</time></trkpt><trkpt lat="39.46516431779429" lon="16.220871832128914"><ele>99.0</ele><time>2026-05-02T10:48:58.999Z</time></trkpt><trkpt lat="39.46485383999839" lon="16.221071654244977"><ele>100.0</ele><time>2026-05-02T10:48:59.999Z</time></trkpt><trkpt lat="39.464548789551564" lon="16.2212775834111"><ele>98.5</ele><time>2026-05-02T10:49:00.999Z</time></trkpt><trkpt lat="39.46425050276281" lon="16.221487820652552"><ele>97.0</ele><time>2026-05-02T10:49:01.999Z</time></trkpt><trkpt lat="39.46395793615459" lon="16.221703598291604"><ele>97.5</ele><time>2026-05-02T10:49:02.999Z</time></trkpt><trkpt lat="39.46366748724062" lon="16.221929318430657"><ele>98.0</ele><time>2026-05-02T10:49:03.999Z</time></trkpt><trkpt lat="39.463382660465584" lon="16.222161516066787"><ele>98.5</ele><time>2026-05-02T10:49:04.999Z</time></trkpt><trkpt lat="39.46310315973255" lon="16.22239851608981"><ele>99.0</ele><time>2026-05-02T10:49:05.999Z</time></trkpt><trkpt lat="39.4628296428173" lon="16.222639622016228"><ele>99.0</ele><time>2026-05-02T10:49:06.999Z</time></trkpt><trkpt lat="39.462563850441775" lon="16.222884597044864"><ele>99.0</ele><time>2026-05-02T10:49:07.999Z</time></trkpt><trkpt lat="39.4622997623418" lon="16.223138090358507"><ele>99.5</ele><time>2026-05-02T10:49:08.999Z</time></trkpt><trkpt lat="39.46204099230033" lon="16.22340422969489"><ele>100.0</ele><time>2026-05-02T10:49:09.999Z</time></trkpt><trkpt lat="39.461779069378146" lon="16.22368458130647"><ele>100.0</ele><time>2026-05-02T10:49:10.999Z</time></trkpt><trkpt lat="39.4615176119843" lon="16.223974826464964"><ele>100.0</ele><time>2026-05-02T10:49:11.999Z</time></trkpt><trkpt lat="39.46125831907241" lon="16.224271004812593"><ele>100.0</ele><time>2026-05-02T10:49:12.999Z</time></trkpt><trkpt lat="39.46100074933837" lon="16.224579492067875"><ele>100.0</ele><time>2026-05-02T10:49:13.999Z</time></trkpt><trkpt lat="39.46074446032036" lon="16.22489336329326"><ele>100.0</ele><time>2026-05-02T10:49:14.999Z</time></trkpt><trkpt lat="39.460487959821364" lon="16.225211886691987"><ele>100.0</ele><time>2026-05-02T10:49:15.999Z</time></trkpt><trkpt lat="39.46023845531946" lon="16.225534657350224"><ele>100.0</ele><time>2026-05-02T10:49:16.999Z</time></trkpt><trkpt lat="39.45999602199935" lon="16.225863892583085"><ele>100.0</ele><time>2026-05-02T10:49:17.999Z</time></trkpt><trkpt lat="39.45975593440358" lon="16.22619958579103"><ele>101.5</ele><time>2026-05-02T10:49:18.999Z</time></trkpt><trkpt lat="39.459522986687034" lon="16.22653477161487"><ele>103.0</ele><time>2026-05-02T10:49:19.999Z</time></trkpt><trkpt lat="39.45929277244299" lon="16.22687123050615"><ele>103.0</ele><time>2026-05-02T10:49:20.999Z</time></trkpt><trkpt lat="39.45906450537428" lon="16.22720560411975"><ele>103.0</ele><time>2026-05-02T10:49:21.999Z</time></trkpt><trkpt lat="39.458832987028295" lon="16.227539587050966"><ele>103.5</ele><time>2026-05-02T10:49:22.999Z</time></trkpt><trkpt lat="39.458601625596714" lon="16.227871845294537"><ele>104.0</ele><time>2026-05-02T10:49:23.999Z</time></trkpt><trkpt lat="39.45836566596232" lon="16.228205530770644"><ele>104.0</ele><time>2026-05-02T10:49:24.999Z</time></trkpt><trkpt lat="39.45813117365853" lon="16.228540040701343"><ele>104.0</ele><time>2026-05-02T10:49:25.999Z</time></trkpt><trkpt lat="39.45789654403851" lon="16.228872254571417"><ele>103.5</ele><time>2026-05-02T10:49:26.999Z</time></trkpt><trkpt lat="39.457663328593966" lon="16.229208920898614"><ele>103.0</ele><time>2026-05-02T10:49:27.999Z</time></trkpt><trkpt lat="39.457429874325385" lon="16.229546623800356"><ele>102.5</ele><time>2026-05-02T10:49:28.999Z</time></trkpt><trkpt lat="39.4571958018435" lon="16.22988553771946"><ele>102.0</ele><time>2026-05-02T10:49:29.999Z</time></trkpt><trkpt lat="39.456959494199566" lon="16.23022661150987"><ele>102.0</ele><time>2026-05-02T10:49:30.999Z</time></trkpt><trkpt lat="39.456719701221424" lon="16.23057006103327"><ele>102.0</ele><time>2026-05-02T10:49:31.999Z</time></trkpt><trkpt lat="39.45648209174217" lon="16.23091438221367"><ele>102.0</ele><time>2026-05-02T10:49:32.999Z</time></trkpt><trkpt lat="39.456240615572696" lon="16.231260673314342"><ele>102.0</ele><time>2026-05-02T10:49:33.999Z</time></trkpt><trkpt lat="39.45600156041961" lon="16.2316098668402"><ele>102.5</ele><time>2026-05-02T10:49:34.999Z</time></trkpt><trkpt lat="39.45576347171159" lon="16.231960256224824"><ele>103.0</ele><time>2026-05-02T10:49:35.999Z</time></trkpt><trkpt lat="39.455525671064066" lon="16.232308524757446"><ele>103.5</ele><time>2026-05-02T10:49:36.999Z</time></trkpt><trkpt lat="39.45528898381283" lon="16.232653523619497"><ele>104.0</ele><time>2026-05-02T10:49:37.998Z</time></trkpt><trkpt lat="39.455055923820304" lon="16.232995308631388"><ele>104.0</ele><time>2026-05-02T10:49:38.998Z</time></trkpt><trkpt lat="39.45481971463952" lon="16.233336460623807"><ele>104.0</ele><time>2026-05-02T10:49:39.998Z</time></trkpt><trkpt lat="39.454583220445194" lon="16.23366699100741"><ele>104.0</ele><time>2026-05-02T10:49:40.998Z</time></trkpt><trkpt lat="39.454337221145956" lon="16.2339917932993"><ele>104.0</ele><time>2026-05-02T10:49:41.998Z</time></trkpt><trkpt lat="39.45407888620213" lon="16.23430642831336"><ele>104.0</ele><time>2026-05-02T10:49:42.998Z</time></trkpt><trkpt lat="39.45380753043987" lon="16.234606361464472"><ele>104.0</ele><time>2026-05-02T10:49:43.998Z</time></trkpt><trkpt lat="39.45352805163589" lon="16.23489430580175"><ele>104.0</ele><time>2026-05-02T10:49:44.998Z</time></trkpt><trkpt lat="39.45324117860752" lon="16.235173509960283"><ele>104.0</ele><time>2026-05-02T10:49:45.998Z</time></trkpt><trkpt lat="39.45295060298644" lon="16.235446872320992"><ele>105.0</ele><time>2026-05-02T10:49:46.998Z</time></trkpt><trkpt lat="39.452656661229874" lon="16.2357051470422"><ele>106.0</ele><time>2026-05-02T10:49:47.998Z</time></trkpt><trkpt lat="39.45234880090877" lon="16.235949192317136"><ele>106.5</ele><time>2026-05-02T10:49:48.998Z</time></trkpt><trkpt lat="39.4520374699197" lon="16.23617733482685"><ele>107.0</ele><time>2026-05-02T10:49:49.998Z</time></trkpt><trkpt lat="39.451717451526555" lon="16.23639040153041"><ele>109.0</ele><time>2026-05-02T10:49:50.998Z</time></trkpt><trkpt lat="39.45138998587974" lon="16.23659405956571"><ele>111.0</ele><time>2026-05-02T10:49:51.998Z</time></trkpt><trkpt lat="39.45106036767735" lon="16.236785618406"><ele>111.0</ele><time>2026-05-02T10:49:52.998Z</time></trkpt><trkpt lat="39.45072699112952" lon="16.23695804325439"><ele>111.0</ele><time>2026-05-02T10:49:53.998Z</time></trkpt><trkpt lat="39.450386875081996" lon="16.23711399480583"><ele>111.0</ele><time>2026-05-02T10:49:54.998Z</time></trkpt><trkpt lat="39.450043906693374" lon="16.237258269334962"><ele>111.0</ele><time>2026-05-02T10:49:55.998Z</time></trkpt><trkpt lat="39.4496981813504" lon="16.23739060005517"><ele>111.5</ele><time>2026-05-02T10:49:56.998Z</time></trkpt><trkpt lat="39.449345132494166" lon="16.237501798395574"><ele>112.0</ele><time>2026-05-02T10:49:57.998Z</time></trkpt><trkpt lat="39.44898668638288" lon="16.237585332375847"><ele>113.0</ele><time>2026-05-02T10:49:58.998Z</time></trkpt><trkpt lat="39.448623983433244" lon="16.237646423714743"><ele>114.0</ele><time>2026-05-02T10:49:59.998Z</time></trkpt><trkpt lat="39.448259908875684" lon="16.237699574532048"><ele>116.5</ele><time>2026-05-02T10:50:00.998Z</time></trkpt><trkpt lat="39.44789470740627" lon="16.23774930291218"><ele>119.0</ele><time>2026-05-02T10:50:01.998Z</time></trkpt><trkpt lat="39.44752882466851" lon="16.237792390063227"><ele>119.0</ele><time>2026-05-02T10:50:02.998Z</time></trkpt><trkpt lat="39.44715844845433" lon="16.237817413595856"><ele>119.0</ele><time>2026-05-02T10:50:03.998Z</time></trkpt><trkpt lat="39.44678524258281" lon="16.237823461336678"><ele>120.5</ele><time>2026-05-02T10:50:04.998Z</time></trkpt><trkpt lat="39.446411918773165" lon="16.237813056483862"><ele>122.0</ele><time>2026-05-02T10:50:05.998Z</time></trkpt><trkpt lat="39.44603860033114" lon="16.237787933658765"><ele>122.5</ele><time>2026-05-02T10:50:06.998Z</time></trkpt><trkpt lat="39.44566913463637" lon="16.237757619096293"><ele>123.0</ele><time>2026-05-02T10:50:07.998Z</time></trkpt><trkpt lat="39.4452964122003" lon="16.237723462183535"><ele>123.0</ele><time>2026-05-02T10:50:09Z</time></trkpt><trkpt lat="39.444923976570784" lon="16.237699078996567"><ele>123.0</ele><time>2026-05-02T10:50:10Z</time></trkpt><trkpt lat="39.44455383572888" lon="16.237683998454422"><ele>123.0</ele><time>2026-05-02T10:50:11Z</time></trkpt><trkpt lat="39.444180837593024" lon="16.23767699348935"><ele>123.0</ele><time>2026-05-02T10:50:12Z</time></trkpt><trkpt lat="39.44380235031111" lon="16.237679674305873"><ele>124.0</ele><time>2026-05-02T10:50:13Z</time></trkpt><trkpt lat="39.44342672237705" lon="16.237701957043473"><ele>125.0</ele><time>2026-05-02T10:50:14Z</time></trkpt><trkpt lat="39.44305830022935" lon="16.23774656598997"><ele>123.0</ele><time>2026-05-02T10:50:15Z</time></trkpt><trkpt lat="39.44269017667284" lon="16.23780785505289"><ele>121.0</ele><time>2026-05-02T10:50:16Z</time></trkpt><trkpt lat="39.44232485040798" lon="16.237891546935657"><ele>120.5</ele><time>2026-05-02T10:50:17Z</time></trkpt><trkpt lat="39.44196187691723" lon="16.23799708473485"><ele>120.0</ele><time>2026-05-02T10:50:18Z</time></trkpt><trkpt lat="39.441607294517446" lon="16.238117569445766"><ele>119.5</ele><time>2026-05-02T10:50:19Z</time></trkpt><trkpt lat="39.441258792511086" lon="16.238255718711287"><ele>119.0</ele><time>2026-05-02T10:50:20Z</time></trkpt><trkpt lat="39.44091312568331" lon="16.238409456256196"><ele>119.0</ele><time>2026-05-02T10:50:21Z</time></trkpt><trkpt lat="39.44057121959194" lon="16.238576793353722"><ele>119.0</ele><time>2026-05-02T10:50:22Z</time></trkpt><trkpt lat="39.440230330750666" lon="16.23875423561154"><ele>119.0</ele><time>2026-05-02T10:50:23Z</time></trkpt><trkpt lat="39.43988797928853" lon="16.238932981144096"><ele>119.0</ele><time>2026-05-02T10:50:24Z</time></trkpt><trkpt lat="39.439543547693795" lon="16.239106181693437"><ele>121.0</ele><time>2026-05-02T10:50:25Z</time></trkpt><trkpt lat="39.43919891144793" lon="16.23927614803147"><ele>123.0</ele><time>2026-05-02T10:50:25.999Z</time></trkpt><trkpt lat="39.4388535144711" lon="16.239450003851992"><ele>125.0</ele><time>2026-05-02T10:50:26.999Z</time></trkpt><trkpt lat="39.43850828470603" lon="16.23962598995185"><ele>127.0</ele><time>2026-05-02T10:50:27.999Z</time></trkpt><trkpt lat="39.438163368510814" lon="16.239797435589598"><ele>126.5</ele><time>2026-05-02T10:50:28.999Z</time></trkpt><trkpt lat="39.437820102875484" lon="16.23996111325036"><ele>126.0</ele><time>2026-05-02T10:50:29.999Z</time></trkpt><trkpt lat="39.43746768735861" lon="16.240120972333703"><ele>126.5</ele><time>2026-05-02T10:50:30.999Z</time></trkpt><trkpt lat="39.437119164482915" lon="16.24027230893503"><ele>127.0</ele><time>2026-05-02T10:50:31.999Z</time></trkpt><trkpt lat="39.43677134404044" lon="16.240412496460234"><ele>127.0</ele><time>2026-05-02T10:50:32.999Z</time></trkpt><trkpt lat="39.43642077594358" lon="16.240539384583123"><ele>127.0</ele><time>2026-05-02T10:50:33.999Z</time></trkpt><trkpt lat="39.43606552978335" lon="16.240646932821257"><ele>127.0</ele><time>2026-05-02T10:50:34.999Z</time></trkpt><trkpt lat="39.435705216745795" lon="16.24073583880639"><ele>127.0</ele><time>2026-05-02T10:50:35.999Z</time></trkpt><trkpt lat="39.435340755824754" lon="16.24080238552171"><ele>127.0</ele><time>2026-05-02T10:50:36.999Z</time></trkpt><trkpt lat="39.43497406802538" lon="16.240849862434207"><ele>127.0</ele><time>2026-05-02T10:50:37.999Z</time></trkpt><trkpt lat="39.434604343072415" lon="16.240881912521754"><ele>128.0</ele><time>2026-05-02T10:50:38.999Z</time></trkpt><trkpt lat="39.4342317766137" lon="16.240900134786333"><ele>129.0</ele><time>2026-05-02T10:50:39.999Z</time></trkpt><trkpt lat="39.43386302060696" lon="16.24091100811271"><ele>129.5</ele><time>2026-05-02T10:50:40.999Z</time></trkpt><trkpt lat="39.433491843628815" lon="16.240919411042313"><ele>130.0</ele><time>2026-05-02T10:50:41.999Z</time></trkpt><trkpt lat="39.43311904374841" lon="16.24092454087703"><ele>131.0</ele><time>2026-05-02T10:50:42.999Z</time></trkpt><trkpt lat="39.43274680613758" lon="16.240928067593426"><ele>132.0</ele><time>2026-05-02T10:50:43.999Z</time></trkpt><trkpt lat="39.43237467783734" lon="16.240933365503324"><ele>132.0</ele><time>2026-05-02T10:50:44.999Z</time></trkpt><trkpt lat="39.43200413857804" lon="16.240941215105266"><ele>132.0</ele><time>2026-05-02T10:50:45.999Z</time></trkpt><trkpt lat="39.43163115485033" lon="16.240946591485308"><ele>132.5</ele><time>2026-05-02T10:50:46.999Z</time></trkpt><trkpt lat="39.43125961800316" lon="16.240946960967136"><ele>133.0</ele><time>2026-05-02T10:50:47.999Z</time></trkpt><trkpt lat="39.43089021957291" lon="16.24094482521329"><ele>133.0</ele><time>2026-05-02T10:50:48.999Z</time></trkpt><trkpt lat="39.43051928195167" lon="16.240945177575835"><ele>133.0</ele><time>2026-05-02T10:50:49.999Z</time></trkpt><trkpt lat="39.43014851059205" lon="16.240953742114854"><ele>133.5</ele><time>2026-05-02T10:50:50.999Z</time></trkpt><trkpt lat="39.42977975314407" lon="16.240974458505733"><ele>134.0</ele><time>2026-05-02T10:50:51.999Z</time></trkpt><trkpt lat="39.4294114545332" lon="16.241011484309865"><ele>134.5</ele><time>2026-05-02T10:50:52.999Z</time></trkpt><trkpt lat="39.429044721316046" lon="16.241062962624053"><ele>135.0</ele><time>2026-05-02T10:50:53.999Z</time></trkpt><trkpt lat="39.42867796598113" lon="16.241124399696016"><ele>138.0</ele><time>2026-05-02T10:50:54.999Z</time></trkpt><trkpt lat="39.42831023344763" lon="16.241191791904015"><ele>141.0</ele><time>2026-05-02T10:50:55.999Z</time></trkpt><trkpt lat="39.427943536870224" lon="16.241261971036472"><ele>141.0</ele><time>2026-05-02T10:50:56.999Z</time></trkpt><trkpt lat="39.427576422687736" lon="16.241332910784674"><ele>141.0</ele><time>2026-05-02T10:50:57.999Z</time></trkpt><trkpt lat="39.42721012749091" lon="16.24140109328327"><ele>140.5</ele><time>2026-05-02T10:50:58.999Z</time></trkpt><trkpt lat="39.4268494110167" lon="16.24146744115509"><ele>140.0</ele><time>2026-05-02T10:50:59.999Z</time></trkpt><trkpt lat="39.42647978019729" lon="16.241539703296176"><ele>140.0</ele><time>2026-05-02T10:51:00.999Z</time></trkpt><trkpt lat="39.426110932268635" lon="16.241609861689394"><ele>140.0</ele><time>2026-05-02T10:51:01.999Z</time></trkpt><trkpt lat="39.4257427217684" lon="16.241678753406298"><ele>140.5</ele><time>2026-05-02T10:51:02.999Z</time></trkpt><trkpt lat="39.42537589367433" lon="16.24174892972753"><ele>141.0</ele><time>2026-05-02T10:51:03.999Z</time></trkpt><trkpt lat="39.42500953259609" lon="16.241820912016426"><ele>142.0</ele><time>2026-05-02T10:51:04.999Z</time></trkpt><trkpt lat="39.42464446015354" lon="16.241890142259734"><ele>143.0</ele><time>2026-05-02T10:51:05.999Z</time></trkpt><trkpt lat="39.42428042033946" lon="16.24196273777998"><ele>143.0</ele><time>2026-05-02T10:51:06.999Z</time></trkpt><trkpt lat="39.423916597394935" lon="16.242037144251732"><ele>143.0</ele><time>2026-05-02T10:51:07.999Z</time></trkpt><trkpt lat="39.42354757936936" lon="16.24211474223201"><ele>142.5</ele><time>2026-05-02T10:51:08.999Z</time></trkpt><trkpt lat="39.42317782163398" lon="16.24218834144756"><ele>142.0</ele><time>2026-05-02T10:51:09.999Z</time></trkpt><trkpt lat="39.422810031141" lon="16.242261535010684"><ele>142.0</ele><time>2026-05-02T10:51:10.999Z</time></trkpt><trkpt lat="39.42244098369653" lon="16.24233308961584"><ele>142.0</ele><time>2026-05-02T10:51:11.999Z</time></trkpt><trkpt lat="39.422075929831244" lon="16.242402348861294"><ele>142.5</ele><time>2026-05-02T10:51:12.999Z</time></trkpt><trkpt lat="39.42171175440674" lon="16.24247268675417"><ele>143.0</ele><time>2026-05-02T10:51:13.999Z</time></trkpt><trkpt lat="39.42134889549024" lon="16.24253947767039"><ele>143.0</ele><time>2026-05-02T10:51:14.999Z</time></trkpt><trkpt lat="39.420988991446855" lon="16.242608149971897"><ele>143.0</ele><time>2026-05-02T10:51:15.999Z</time></trkpt><trkpt lat="39.42062498509533" lon="16.242682133137205"><ele>143.5</ele><time>2026-05-02T10:51:16.999Z</time></trkpt><trkpt lat="39.42026994937006" lon="16.242760875453584"><ele>144.0</ele><time>2026-05-02T10:51:17.999Z</time></trkpt><trkpt lat="39.419927878801396" lon="16.242840236810288"><ele>143.5</ele><time>2026-05-02T10:51:18.999Z</time></trkpt><trkpt lat="39.41960499982593" lon="16.24292062314464"><ele>143.0</ele><time>2026-05-02T10:51:19.999Z</time></trkpt><trkpt lat="39.41930060334466" lon="16.242999581756607"><ele>143.0</ele><time>2026-05-02T10:51:20.999Z</time></trkpt><trkpt lat="39.41900837949769" lon="16.243081308308398"><ele>143.0</ele><time>2026-05-02T10:51:21.999Z</time></trkpt><trkpt lat="39.418713024335844" lon="16.243175265204286"><ele>142.5</ele><time>2026-05-02T10:51:22.999Z</time></trkpt><trkpt lat="39.418418004741184" lon="16.24327798585618"><ele>142.0</ele><time>2026-05-02T10:51:23.999Z</time></trkpt><trkpt lat="39.41812261180714" lon="16.24338399552624"><ele>142.0</ele><time>2026-05-02T10:51:24.999Z</time></trkpt><trkpt lat="39.417827376200286" lon="16.24349145777094"><ele>142.0</ele><time>2026-05-02T10:51:25.999Z</time></trkpt><trkpt lat="39.417532311124965" lon="16.24360090470228"><ele>142.0</ele><time>2026-05-02T10:51:26.999Z</time></trkpt><trkpt lat="39.41724024182055" lon="16.24371267581919"><ele>142.0</ele><time>2026-05-02T10:51:27.999Z</time></trkpt><trkpt lat="39.41694490956753" lon="16.24382760068353"><ele>139.0</ele><time>2026-05-02T10:51:28.999Z</time></trkpt><trkpt lat="39.41665049810114" lon="16.2439424658273"><ele>136.0</ele><time>2026-05-02T10:51:29.999Z</time></trkpt><trkpt lat="39.41635185473867" lon="16.244054608895787"><ele>133.5</ele><time>2026-05-02T10:51:30.999Z</time></trkpt><trkpt lat="39.41604626699717" lon="16.244164615738935"><ele>131.0</ele><time>2026-05-02T10:51:31.999Z</time></trkpt><trkpt lat="39.41573566995055" lon="16.24427294206035"><ele>133.5</ele><time>2026-05-02T10:51:32.999Z</time></trkpt><trkpt lat="39.415419951093135" lon="16.244374596471932"><ele>136.0</ele><time>2026-05-02T10:51:33.999Z</time></trkpt><trkpt lat="39.415100754091455" lon="16.24447123673394"><ele>136.0</ele><time>2026-05-02T10:51:34.999Z</time></trkpt><trkpt lat="39.414777878715164" lon="16.24456050205442"><ele>136.0</ele><time>2026-05-02T10:51:35.999Z</time></trkpt><trkpt lat="39.4144515682419" lon="16.24463943204895"><ele>141.0</ele><time>2026-05-02T10:51:36.999Z</time></trkpt><trkpt lat="39.414123425701305" lon="16.244707232251965"><ele>146.0</ele><time>2026-05-02T10:51:37.999Z</time></trkpt><trkpt lat="39.41379069278349" lon="16.244761470517787"><ele>142.0</ele><time>2026-05-02T10:51:38.999Z</time></trkpt><trkpt lat="39.41345642344337" lon="16.244800138830357"><ele>138.0</ele><time>2026-05-02T10:51:39.999Z</time></trkpt><trkpt lat="39.413113664110874" lon="16.24481719515684"><ele>140.0</ele><time>2026-05-02T10:51:40.998Z</time></trkpt><trkpt lat="39.41276751906846" lon="16.24483127812873"><ele>142.0</ele><time>2026-05-02T10:51:41.998Z</time></trkpt><trkpt lat="39.412420392748345" lon="16.244833383859465"><ele>143.0</ele><time>2026-05-02T10:51:42.998Z</time></trkpt><trkpt lat="39.41206977022372" lon="16.244819401746867"><ele>144.0</ele><time>2026-05-02T10:51:43.998Z</time></trkpt><trkpt lat="39.41171424408599" lon="16.244792894451283"><ele>145.0</ele><time>2026-05-02T10:51:44.998Z</time></trkpt><trkpt lat="39.41136100136736" lon="16.244761302286047"><ele>146.0</ele><time>2026-05-02T10:51:45.998Z</time></trkpt><trkpt lat="39.41099893934023" lon="16.244717832208863"><ele>146.5</ele><time>2026-05-02T10:51:46.998Z</time></trkpt><trkpt lat="39.410639061133814" lon="16.244673350489542"><ele>147.0</ele><time>2026-05-02T10:51:47.998Z</time></trkpt><trkpt lat="39.41028116123092" lon="16.24462895288676"><ele>147.5</ele><time>2026-05-02T10:51:48.998Z</time></trkpt><trkpt lat="39.409922865650636" lon="16.244583867188314"><ele>148.0</ele><time>2026-05-02T10:51:49.998Z</time></trkpt><trkpt lat="39.40956530268583" lon="16.244541051465667"><ele>148.5</ele><time>2026-05-02T10:51:50.998Z</time></trkpt><trkpt lat="39.4092037266532" lon="16.244501338014313"><ele>149.0</ele><time>2026-05-02T10:51:51.998Z</time></trkpt><trkpt lat="39.40884208141456" lon="16.24446063114092"><ele>149.5</ele><time>2026-05-02T10:51:52.998Z</time></trkpt><trkpt lat="39.40848150666492" lon="16.244417248624448"><ele>150.0</ele><time>2026-05-02T10:51:53.998Z</time></trkpt><trkpt lat="39.408119827149235" lon="16.244371801082163"><ele>149.0</ele><time>2026-05-02T10:51:54.998Z</time></trkpt><trkpt lat="39.40775764014418" lon="16.244328788943797"><ele>148.0</ele><time>2026-05-02T10:51:55.998Z</time></trkpt><trkpt lat="39.407397116600116" lon="16.244287999056315"><ele>149.5</ele><time>2026-05-02T10:51:56.998Z</time></trkpt><trkpt lat="39.407035782767785" lon="16.24424626114804"><ele>151.0</ele><time>2026-05-02T10:51:57.998Z</time></trkpt><trkpt lat="39.40667229803904" lon="16.24420616208435"><ele>151.0</ele><time>2026-05-02T10:51:58.998Z</time></trkpt><trkpt lat="39.406309449587475" lon="16.244162795528702"><ele>151.0</ele><time>2026-05-02T10:51:59.998Z</time></trkpt><trkpt lat="39.40594913850862" lon="16.24411766193934"><ele>151.0</ele><time>2026-05-02T10:52:00.998Z</time></trkpt><trkpt lat="39.40558701644883" lon="16.244072934571886"><ele>151.0</ele><time>2026-05-02T10:52:01.998Z</time></trkpt><trkpt lat="39.405224700493825" lon="16.244030054233153"><ele>150.5</ele><time>2026-05-02T10:52:02.998Z</time></trkpt><trkpt lat="39.40486276107079" lon="16.243984345028654"><ele>150.0</ele><time>2026-05-02T10:52:03.998Z</time></trkpt><trkpt lat="39.40449893038599" lon="16.243936571594578"><ele>151.0</ele><time>2026-05-02T10:52:04.998Z</time></trkpt><trkpt lat="39.40413982680201" lon="16.24388640304447"><ele>152.0</ele><time>2026-05-02T10:52:05.998Z</time></trkpt><trkpt lat="39.40378209131097" lon="16.243830275235663"><ele>150.0</ele><time>2026-05-02T10:52:06.998Z</time></trkpt><trkpt lat="39.403422946417116" lon="16.2437713480749"><ele>148.0</ele><time>2026-05-02T10:52:07.998Z</time></trkpt><trkpt lat="39.40306151628125" lon="16.24371327951447"><ele>146.0</ele><time>2026-05-02T10:52:08.998Z</time></trkpt><trkpt lat="39.40270151472218" lon="16.243660693576945"><ele>144.0</ele><time>2026-05-02T10:52:09.998Z</time></trkpt><trkpt lat="39.40234109362486" lon="16.243613336096907"><ele>143.5</ele><time>2026-05-02T10:52:10.998Z</time></trkpt><trkpt lat="39.401981323652414" lon="16.243568389810914"><ele>143.0</ele><time>2026-05-02T10:52:11.998Z</time></trkpt><trkpt lat="39.401619835297765" lon="16.243522921684463"><ele>144.0</ele><time>2026-05-02T10:52:12.998Z</time></trkpt><trkpt lat="39.40125665578651" lon="16.24347732356901"><ele>145.0</ele><time>2026-05-02T10:52:13.998Z</time></trkpt><trkpt lat="39.40089257287197" lon="16.24343110902843"><ele>145.0</ele><time>2026-05-02T10:52:14.999Z</time></trkpt><trkpt lat="39.400527810358135" lon="16.243385044087226"><ele>145.0</ele><time>2026-05-02T10:52:15.999Z</time></trkpt><trkpt lat="39.400162806004786" lon="16.243337568125646"><ele>144.5</ele><time>2026-05-02T10:52:16.999Z</time></trkpt><trkpt lat="39.39979731677378" lon="16.243290295528194"><ele>144.0</ele><time>2026-05-02T10:52:17.999Z</time></trkpt><trkpt lat="39.39943235862778" lon="16.243244773183577"><ele>144.0</ele><time>2026-05-02T10:52:18.999Z</time></trkpt><trkpt lat="39.3990704063795" lon="16.24319877940795"><ele>144.0</ele><time>2026-05-02T10:52:19.999Z</time></trkpt><trkpt lat="39.39870709188951" lon="16.24315332192441"><ele>145.0</ele><time>2026-05-02T10:52:20.999Z</time></trkpt><trkpt lat="39.39834220797413" lon="16.24310914959631"><ele>146.0</ele><time>2026-05-02T10:52:21.999Z</time></trkpt><trkpt lat="39.39797673951621" lon="16.24306397746886"><ele>146.0</ele><time>2026-05-02T10:52:22.999Z</time></trkpt><trkpt lat="39.39761013532286" lon="16.243016420300645"><ele>146.0</ele><time>2026-05-02T10:52:23.999Z</time></trkpt><trkpt lat="39.39724695695238" lon="16.24296952637901"><ele>147.0</ele><time>2026-05-02T10:52:24.999Z</time></trkpt><trkpt lat="39.39688283758876" lon="16.24292157634371"><ele>148.0</ele><time>2026-05-02T10:52:25.999Z</time></trkpt><trkpt lat="39.39652065152986" lon="16.242873201563526"><ele>150.0</ele><time>2026-05-02T10:52:26.999Z</time></trkpt><trkpt lat="39.396158630963804" lon="16.24282671980789"><ele>152.0</ele><time>2026-05-02T10:52:27.999Z</time></trkpt><trkpt lat="39.39579596354377" lon="16.242781943080548"><ele>154.0</ele><time>2026-05-02T10:52:28.999Z</time></trkpt><trkpt lat="39.3954328468777" lon="16.242736123398124"><ele>156.0</ele><time>2026-05-02T10:52:29.999Z</time></trkpt><trkpt lat="39.39507124815628" lon="16.242689764998293"><ele>156.0</ele><time>2026-05-02T10:52:30.999Z</time></trkpt><trkpt lat="39.394710189818895" lon="16.24264238592743"><ele>156.0</ele><time>2026-05-02T10:52:31.999Z</time></trkpt><trkpt lat="39.3943461869975" lon="16.242594037214175"><ele>156.5</ele><time>2026-05-02T10:52:32.999Z</time></trkpt><trkpt lat="39.39398168494234" lon="16.242539781124787"><ele>157.0</ele><time>2026-05-02T10:52:33.999Z</time></trkpt><trkpt lat="39.39361727866304" lon="16.24247531096868"><ele>158.5</ele><time>2026-05-02T10:52:34.999Z</time></trkpt><trkpt lat="39.393255823595815" lon="16.24239863877863"><ele>160.0</ele><time>2026-05-02T10:52:35.999Z</time></trkpt><trkpt lat="39.39289616087239" lon="16.24230695847252"><ele>162.0</ele><time>2026-05-02T10:52:36.999Z</time></trkpt><trkpt lat="39.39253731026385" lon="16.242197473937185"><ele>164.0</ele><time>2026-05-02T10:52:37.999Z</time></trkpt><trkpt lat="39.39218238607445" lon="16.24206898924435"><ele>164.0</ele><time>2026-05-02T10:52:38.999Z</time></trkpt><trkpt lat="39.39183382309047" lon="16.241920574647917"><ele>164.0</ele><time>2026-05-02T10:52:39.999Z</time></trkpt><trkpt lat="39.391491339358026" lon="16.2417518460885"><ele>164.0</ele><time>2026-05-02T10:52:40.999Z</time></trkpt><trkpt lat="39.391152896568265" lon="16.241571062362212"><ele>164.0</ele><time>2026-05-02T10:52:41.999Z</time></trkpt><trkpt lat="39.39081871122274" lon="16.241377487973804"><ele>165.0</ele><time>2026-05-02T10:52:42.999Z</time></trkpt><trkpt lat="39.390489960646704" lon="16.241162174800298"><ele>166.0</ele><time>2026-05-02T10:52:43.999Z</time></trkpt><trkpt lat="39.39016686368374" lon="16.240925704178327"><ele>166.0</ele><time>2026-05-02T10:52:44.999Z</time></trkpt><trkpt lat="39.38985323797969" lon="16.240672732790035"><ele>166.0</ele><time>2026-05-02T10:52:45.999Z</time></trkpt><trkpt lat="39.38954603173497" lon="16.24041070263093"><ele>165.5</ele><time>2026-05-02T10:52:46.999Z</time></trkpt><trkpt lat="39.38924583120423" lon="16.240138218447655"><ele>165.0</ele><time>2026-05-02T10:52:47.999Z</time></trkpt><trkpt lat="39.388949138335676" lon="16.239858317223945"><ele>164.0</ele><time>2026-05-02T10:52:48.999Z</time></trkpt><trkpt lat="39.38865633267718" lon="16.2395714363355"><ele>163.0</ele><time>2026-05-02T10:52:49.999Z</time></trkpt><trkpt lat="39.38836611911104" lon="16.239279707416056"><ele>163.0</ele><time>2026-05-02T10:52:50.999Z</time></trkpt><trkpt lat="39.388072427073745" lon="16.2389874406542"><ele>163.0</ele><time>2026-05-02T10:52:51.999Z</time></trkpt><trkpt lat="39.38777537568266" lon="16.238701435752844"><ele>161.5</ele><time>2026-05-02T10:52:52.999Z</time></trkpt><trkpt lat="39.38747219192274" lon="16.238425584997955"><ele>160.0</ele><time>2026-05-02T10:52:53.999Z</time></trkpt><trkpt lat="39.387160479516766" lon="16.23815781262456"><ele>162.5</ele><time>2026-05-02T10:52:54.999Z</time></trkpt><trkpt lat="39.38684159776572" lon="16.237901425673417"><ele>165.0</ele><time>2026-05-02T10:52:55.999Z</time></trkpt><trkpt lat="39.38651743597955" lon="16.23765992878235"><ele>166.0</ele><time>2026-05-02T10:52:56.999Z</time></trkpt><trkpt lat="39.38618322276525" lon="16.23743112183888"><ele>167.0</ele><time>2026-05-02T10:52:57.999Z</time></trkpt><trkpt lat="39.38584128833544" lon="16.237223067487758"><ele>163.0</ele><time>2026-05-02T10:52:58.999Z</time></trkpt><trkpt lat="39.38549158208181" lon="16.2370344951989"><ele>159.0</ele><time>2026-05-02T10:52:59.999Z</time></trkpt><trkpt lat="39.38513855542045" lon="16.236869674969718"><ele>159.0</ele><time>2026-05-02T10:53:00.999Z</time></trkpt><trkpt lat="39.38478144101992" lon="16.236725064708846"><ele>159.0</ele><time>2026-05-02T10:53:01.999Z</time></trkpt><trkpt lat="39.384418589347526" lon="16.23660164120021"><ele>159.0</ele><time>2026-05-02T10:53:02.999Z</time></trkpt><trkpt lat="39.38405205245303" lon="16.236496304303692"><ele>159.0</ele><time>2026-05-02T10:53:03.999Z</time></trkpt><trkpt lat="39.383681290339595" lon="16.236413304357296"><ele>159.0</ele><time>2026-05-02T10:53:04.999Z</time></trkpt><trkpt lat="39.38331459880416" lon="16.236351909478994"><ele>159.0</ele><time>2026-05-02T10:53:05.999Z</time></trkpt><trkpt lat="39.38294567796158" lon="16.23630890278563"><ele>159.0</ele><time>2026-05-02T10:53:06.999Z</time></trkpt><trkpt lat="39.38257758592435" lon="16.236285513058352"><ele>159.0</ele><time>2026-05-02T10:53:07.999Z</time></trkpt><trkpt lat="39.38220901955976" lon="16.236272277965906"><ele>160.0</ele><time>2026-05-02T10:53:08.999Z</time></trkpt><trkpt lat="39.38183637369856" lon="16.236267219039373"><ele>161.0</ele><time>2026-05-02T10:53:09.999Z</time></trkpt><trkpt lat="39.381464706010625" lon="16.23626840147132"><ele>161.0</ele><time>2026-05-02T10:53:10.999Z</time></trkpt><trkpt lat="39.38109569444837" lon="16.236273274485207"><ele>161.0</ele><time>2026-05-02T10:53:11.999Z</time></trkpt><trkpt lat="39.38072628580714" lon="16.236279103562815"><ele>161.5</ele><time>2026-05-02T10:53:12.999Z</time></trkpt><trkpt lat="39.38035956571027" lon="16.236286016530364"><ele>162.0</ele><time>2026-05-02T10:53:13.999Z</time></trkpt><trkpt lat="39.37999355346742" lon="16.23629456096534"><ele>163.0</ele><time>2026-05-02T10:53:14.999Z</time></trkpt><trkpt lat="39.37962787103765" lon="16.236308011739492"><ele>164.0</ele><time>2026-05-02T10:53:15.999Z</time></trkpt><trkpt lat="39.37926208144413" lon="16.23632165899974"><ele>164.0</ele><time>2026-05-02T10:53:16.999Z</time></trkpt><trkpt lat="39.37889954598969" lon="16.236332326439747"><ele>164.0</ele><time>2026-05-02T10:53:17.999Z</time></trkpt><trkpt lat="39.3785366974419" lon="16.236338966275763"><ele>166.5</ele><time>2026-05-02T10:53:18.999Z</time></trkpt><trkpt lat="39.378171300016795" lon="16.236340970246555"><ele>169.0</ele><time>2026-05-02T10:53:19.999Z</time></trkpt><trkpt lat="39.377807396119984" lon="16.23634335524636"><ele>171.0</ele><time>2026-05-02T10:53:20.999Z</time></trkpt><trkpt lat="39.37744195372909" lon="16.236346441807157"><ele>173.0</ele><time>2026-05-02T10:53:21.999Z</time></trkpt><trkpt lat="39.37707312660257" lon="16.236351275465122"><ele>173.5</ele><time>2026-05-02T10:53:22.999Z</time></trkpt><trkpt lat="39.37670223092147" lon="16.236353257123607"><ele>174.0</ele><time>2026-05-02T10:53:23.999Z</time></trkpt><trkpt lat="39.37633156505977" lon="16.236357468881145"><ele>173.0</ele><time>2026-05-02T10:53:24.999Z</time></trkpt><trkpt lat="39.37596186374172" lon="16.236360010561413"><ele>172.0</ele><time>2026-05-02T10:53:25.999Z</time></trkpt><trkpt lat="39.37558882224081" lon="16.2363645343092"><ele>171.0</ele><time>2026-05-02T10:53:26.999Z</time></trkpt><trkpt lat="39.3752159154548" lon="16.236368507980455"><ele>170.0</ele><time>2026-05-02T10:53:27.999Z</time></trkpt><trkpt lat="39.37484264265085" lon="16.236371449790298"><ele>171.0</ele><time>2026-05-02T10:53:28.999Z</time></trkpt><trkpt lat="39.374468020017936" lon="16.23637528769964"><ele>172.0</ele><time>2026-05-02T10:53:29.999Z</time></trkpt><trkpt lat="39.3740940388039" lon="16.236379548203086"><ele>175.5</ele><time>2026-05-02T10:53:30.999Z</time></trkpt><trkpt lat="39.3737173626414" lon="16.23638321102587"><ele>179.0</ele><time>2026-05-02T10:53:31.999Z</time></trkpt><trkpt lat="39.37334138643335" lon="16.236386601367165"><ele>182.5</ele><time>2026-05-02T10:53:32.999Z</time></trkpt><trkpt lat="39.37296327619125" lon="16.236391567284485"><ele>186.0</ele><time>2026-05-02T10:53:33.999Z</time></trkpt><trkpt lat="39.37258286458678" lon="16.23639715704009"><ele>186.0</ele><time>2026-05-02T10:53:34.999Z</time></trkpt><trkpt lat="39.372202258846436" lon="16.23640375115176"><ele>186.0</ele><time>2026-05-02T10:53:35.999Z</time></trkpt><trkpt lat="39.37182025983585" lon="16.236409413577768"><ele>182.5</ele><time>2026-05-02T10:53:36.998Z</time></trkpt><trkpt lat="39.37143851440389" lon="16.236414566199674"><ele>179.0</ele><time>2026-05-02T10:53:37.998Z</time></trkpt><trkpt lat="39.3710578210108" lon="16.236421256550482"><ele>176.5</ele><time>2026-05-02T10:53:38.998Z</time></trkpt><trkpt lat="39.37067784856557" lon="16.23642609148955"><ele>174.0</ele><time>2026-05-02T10:53:39.998Z</time></trkpt><trkpt lat="39.37029840312761" lon="16.236429564724588"><ele>174.0</ele><time>2026-05-02T10:53:40.998Z</time></trkpt><trkpt lat="39.36992379757184" lon="16.236430629617395"><ele>174.0</ele><time>2026-05-02T10:53:41.998Z</time></trkpt><trkpt lat="39.36955863015767" lon="16.236430066768083"><ele>174.5</ele><time>2026-05-02T10:53:42.998Z</time></trkpt><trkpt lat="39.369201072031046" lon="16.236427031109304"><ele>175.0</ele><time>2026-05-02T10:53:43.998Z</time></trkpt><trkpt lat="39.36884734045953" lon="16.236422596906483"><ele>177.5</ele><time>2026-05-02T10:53:44.998Z</time></trkpt><trkpt lat="39.36849165542762" lon="16.236410857828428"><ele>180.0</ele><time>2026-05-02T10:53:45.998Z</time></trkpt><trkpt lat="39.36813708632554" lon="16.236388373671648"><ele>182.0</ele><time>2026-05-02T10:53:46.998Z</time></trkpt><trkpt lat="39.367784347361166" lon="16.23634719322726"><ele>184.0</ele><time>2026-05-02T10:53:47.998Z</time></trkpt><trkpt lat="39.36743470741961" lon="16.23628793841339"><ele>182.5</ele><time>2026-05-02T10:53:48.998Z</time></trkpt><trkpt lat="39.367084633558356" lon="16.23620848059695"><ele>181.0</ele><time>2026-05-02T10:53:49.998Z</time></trkpt><trkpt lat="39.366737279013016" lon="16.236110416390858"><ele>181.0</ele><time>2026-05-02T10:53:50.998Z</time></trkpt><trkpt lat="39.36639143856899" lon="16.235995267525396"><ele>181.0</ele><time>2026-05-02T10:53:51.998Z</time></trkpt><trkpt lat="39.366042367398926" lon="16.235864489189986"><ele>181.0</ele><time>2026-05-02T10:53:52.998Z</time></trkpt><trkpt lat="39.365690440409736" lon="16.235724290382084"><ele>181.0</ele><time>2026-05-02T10:53:53.998Z</time></trkpt><trkpt lat="39.365333545506495" lon="16.235579259695125"><ele>180.5</ele><time>2026-05-02T10:53:54.998Z</time></trkpt><trkpt lat="39.36497833889857" lon="16.235435434343046"><ele>180.0</ele><time>2026-05-02T10:53:55.998Z</time></trkpt><trkpt lat="39.36462043401284" lon="16.235289047330152"><ele>180.0</ele><time>2026-05-02T10:53:56.998Z</time></trkpt><trkpt lat="39.36426165841039" lon="16.235140555466"><ele>180.0</ele><time>2026-05-02T10:53:57.998Z</time></trkpt><trkpt lat="39.3639039314737" lon="16.234992404001588"><ele>180.5</ele><time>2026-05-02T10:53:58.998Z</time></trkpt><trkpt lat="39.36354575643479" lon="16.234843954331684"><ele>181.0</ele><time>2026-05-02T10:53:59.998Z</time></trkpt><trkpt lat="39.36318890353573" lon="16.234695825607595"><ele>182.5</ele><time>2026-05-02T10:54:00.998Z</time></trkpt><trkpt lat="39.362837304112" lon="16.234550290459715"><ele>184.0</ele><time>2026-05-02T10:54:01.998Z</time></trkpt><trkpt lat="39.362491094417614" lon="16.23440822878395"><ele>183.5</ele><time>2026-05-02T10:54:02.998Z</time></trkpt><trkpt lat="39.3621462804679" lon="16.234272303430092"><ele>183.0</ele><time>2026-05-02T10:54:03.998Z</time></trkpt><trkpt lat="39.361799040169295" lon="16.23414430679769"><ele>183.0</ele><time>2026-05-02T10:54:04.998Z</time></trkpt><trkpt lat="39.36145356806554" lon="16.234024450437328"><ele>183.0</ele><time>2026-05-02T10:54:05.998Z</time></trkpt><trkpt lat="39.36110875440049" lon="16.233913048768663"><ele>185.0</ele><time>2026-05-02T10:54:06.998Z</time></trkpt><trkpt lat="39.36076115001335" lon="16.233811698832618"><ele>187.0</ele><time>2026-05-02T10:54:07.998Z</time></trkpt><trkpt lat="39.36040957056341" lon="16.233723579843087"><ele>187.0</ele><time>2026-05-02T10:54:08.998Z</time></trkpt><trkpt lat="39.360058170504914" lon="16.233651217969356"><ele>187.0</ele><time>2026-05-02T10:54:09.998Z</time></trkpt><trkpt lat="39.35971101667797" lon="16.23359519941879"><ele>187.0</ele><time>2026-05-02T10:54:10.998Z</time></trkpt><trkpt lat="39.359366696285555" lon="16.233553703941247"><ele>187.0</ele><time>2026-05-02T10:54:11.998Z</time></trkpt><trkpt lat="39.35901766229913" lon="16.233526870493233"><ele>190.5</ele><time>2026-05-02T10:54:12.998Z</time></trkpt><trkpt lat="39.358662707678725" lon="16.233508726085418"><ele>194.0</ele><time>2026-05-02T10:54:13.998Z</time></trkpt><trkpt lat="39.358306071500564" lon="16.233497272185485"><ele>195.5</ele><time>2026-05-02T10:54:14.998Z</time></trkpt><trkpt lat="39.35794569906611" lon="16.233491294315026"><ele>197.0</ele><time>2026-05-02T10:54:15.998Z</time></trkpt><trkpt lat="39.3575822760784" lon="16.233492682599408"><ele>197.0</ele><time>2026-05-02T10:54:16.998Z</time></trkpt><trkpt lat="39.35721648744702" lon="16.23350021997238"><ele>197.0</ele><time>2026-05-02T10:54:17.998Z</time></trkpt><trkpt lat="39.35684556328234" lon="16.233508795439217"><ele>199.0</ele><time>2026-05-02T10:54:18.998Z</time></trkpt><trkpt lat="39.3564736699142" lon="16.23351799042325"><ele>201.0</ele><time>2026-05-02T10:54:19.998Z</time></trkpt><trkpt lat="39.356102524707204" lon="16.23352793421508"><ele>201.0</ele><time>2026-05-02T10:54:20.999Z</time></trkpt><trkpt lat="39.35573389243582" lon="16.233538478210733"><ele>201.0</ele><time>2026-05-02T10:54:21.999Z</time></trkpt><trkpt lat="39.35536608886543" lon="16.233547530556777"><ele>198.5</ele><time>2026-05-02T10:54:22.999Z</time></trkpt><trkpt lat="39.35499805190719" lon="16.23355357972512"><ele>196.0</ele><time>2026-05-02T10:54:23.999Z</time></trkpt><trkpt lat="39.3546309281062" lon="16.23356159055385"><ele>196.0</ele><time>2026-05-02T10:54:24.999Z</time></trkpt><trkpt lat="39.35426418800594" lon="16.23357465653931"><ele>196.0</ele><time>2026-05-02T10:54:25.999Z</time></trkpt><trkpt lat="39.35389795115414" lon="16.23359229504036"><ele>196.0</ele><time>2026-05-02T10:54:26.999Z</time></trkpt><trkpt lat="39.35353393073879" lon="16.23362170729488"><ele>196.0</ele><time>2026-05-02T10:54:27.999Z</time></trkpt><trkpt lat="39.353171394260606" lon="16.233659102758025"><ele>196.0</ele><time>2026-05-02T10:54:28.999Z</time></trkpt><trkpt lat="39.35280937489353" lon="16.233704016921955"><ele>196.0</ele><time>2026-05-02T10:54:29.999Z</time></trkpt><trkpt lat="39.35244756656344" lon="16.233757640321148"><ele>196.0</ele><time>2026-05-02T10:54:30.999Z</time></trkpt><trkpt lat="39.35208713925776" lon="16.23382211030881"><ele>196.0</ele><time>2026-05-02T10:54:31.999Z</time></trkpt><trkpt lat="39.351727528024064" lon="16.233895336000707"><ele>196.0</ele><time>2026-05-02T10:54:32.999Z</time></trkpt><trkpt lat="39.35136977008088" lon="16.23397291205693"><ele>196.0</ele><time>2026-05-02T10:54:33.999Z</time></trkpt><trkpt lat="39.35101212237714" lon="16.234054103493143"><ele>196.0</ele><time>2026-05-02T10:54:34.999Z</time></trkpt><trkpt lat="39.35064996802101" lon="16.234138766645735"><ele>196.0</ele><time>2026-05-02T10:54:35.999Z</time></trkpt><trkpt lat="39.350289887127545" lon="16.234225276011056"><ele>196.0</ele><time>2026-05-02T10:54:36.999Z</time></trkpt><trkpt lat="39.34993785406934" lon="16.234313096105755"><ele>196.0</ele><time>2026-05-02T10:54:37.999Z</time></trkpt><trkpt lat="39.34959368840983" lon="16.23440031850466"><ele>196.5</ele><time>2026-05-02T10:54:38.999Z</time></trkpt><trkpt lat="39.349256846504645" lon="16.234488679345134"><ele>197.0</ele><time>2026-05-02T10:54:39.999Z</time></trkpt><trkpt lat="39.34892810023051" lon="16.23457868232045"><ele>197.0</ele><time>2026-05-02T10:54:40.999Z</time></trkpt><trkpt lat="39.34861275139815" lon="16.23465969485207"><ele>197.0</ele><time>2026-05-02T10:54:41.999Z</time></trkpt><trkpt lat="39.34830928369924" lon="16.234720569732474"><ele>196.0</ele><time>2026-05-02T10:54:42.999Z</time></trkpt><trkpt lat="39.34800149400881" lon="16.234766965603956"><ele>195.0</ele><time>2026-05-02T10:54:43.999Z</time></trkpt><trkpt lat="39.34770064054632" lon="16.23480537707699"><ele>195.0</ele><time>2026-05-02T10:54:44.999Z</time></trkpt><trkpt lat="39.34741889912489" lon="16.23483916599618"><ele>195.0</ele><time>2026-05-02T10:54:45.999Z</time></trkpt><trkpt lat="39.3471529375661" lon="16.23487242333134"><ele>194.0</ele><time>2026-05-02T10:54:46.999Z</time></trkpt><trkpt lat="39.34690242026133" lon="16.234903004151043"><ele>193.0</ele><time>2026-05-02T10:54:47.999Z</time></trkpt><trkpt lat="39.34667049105016" lon="16.23492347173702"><ele>193.0</ele><time>2026-05-02T10:54:48.999Z</time></trkpt><trkpt lat="39.346459053899274" lon="16.234921527759145"><ele>193.0</ele><time>2026-05-02T10:54:49.999Z</time></trkpt><trkpt lat="39.34626458744633" lon="16.234906977815754"><ele>193.0</ele><time>2026-05-02T10:54:50.999Z</time></trkpt><trkpt lat="39.346099734107284" lon="16.234877049999085"><ele>194.0</ele><time>2026-05-02T10:54:51.999Z</time></trkpt><trkpt lat="39.34595975378596" lon="16.234836062828116"><ele>195.0</ele><time>2026-05-02T10:54:52.999Z</time></trkpt><trkpt lat="39.34585050604788" lon="16.23478641691599"><ele>196.0</ele><time>2026-05-02T10:54:53.999Z</time></trkpt><trkpt lat="39.34576847003029" lon="16.23469559529071"><ele>197.0</ele><time>2026-05-02T10:54:54.999Z</time></trkpt><trkpt lat="39.3456884082579" lon="16.23458291427128"><ele>198.00000000000003</ele><time>2026-05-02T10:54:55.999Z</time></trkpt><trkpt lat="39.345594788424734" lon="16.23455057654982"><ele>199.0</ele><time>2026-05-02T10:54:56.999Z</time></trkpt><trkpt lat="39.34551651114165" lon="16.2345473814943"><ele>200.0</ele><time>2026-05-02T10:54:57.999Z</time></trkpt><trkpt lat="39.345453609585604" lon="16.234558169265302"><ele>201.0</ele><time>2026-05-02T10:54:58.999Z</time></trkpt><trkpt lat="39.34534899214768" lon="16.23455276819093"><ele>202.00000000000003</ele><time>2026-05-02T10:55:00.999Z</time></trkpt><trkpt lat="39.34526027881111" lon="16.23454577934165"><ele>203.0</ele><time>2026-05-02T10:55:02.999Z</time></trkpt><trkpt lat="39.34519023536032" lon="16.23450943492101"><ele>203.00000000000003</ele><time>2026-05-02T10:55:04.999Z</time></trkpt><trkpt lat="39.34510908452198" lon="16.234462756886487"><ele>203.0</ele><time>2026-05-02T11:00:09.999Z</time></trkpt><trkpt lat="39.345033543737486" lon="16.234484707506315"><ele>203.0</ele><time>2026-05-02T11:00:11.999Z</time></trkpt><trkpt lat="39.34498275372351" lon="16.234547337348047"><ele>203.0</ele><time>2026-05-02T11:00:12.999Z</time></trkpt><trkpt lat="39.34491657092617" lon="16.234556391234747"><ele>203.00000000000003</ele><time>2026-05-02T11:00:13.999Z</time></trkpt><trkpt lat="39.344835108230626" lon="16.234558194291868"><ele>203.0</ele><time>2026-05-02T11:00:14.999Z</time></trkpt><trkpt lat="39.34474861658853" lon="16.234600358510484"><ele>203.4</ele><time>2026-05-02T11:00:15.999Z</time></trkpt><trkpt lat="39.34465968324011" lon="16.23465296030942"><ele>203.8</ele><time>2026-05-02T11:00:16.999Z</time></trkpt><trkpt lat="39.34457257395146" lon="16.234713223962444"><ele>204.2</ele><time>2026-05-02T11:00:17.999Z</time></trkpt><trkpt lat="39.34448408133863" lon="16.23478345481109"><ele>204.6</ele><time>2026-05-02T11:00:18.999Z</time></trkpt><trkpt lat="39.34436549717792" lon="16.234790741521458"><ele>205.0</ele><time>2026-05-02T11:00:19.999Z</time></trkpt><trkpt lat="39.344251278294024" lon="16.234795730602297"><ele>205.0</ele><time>2026-05-02T11:00:20.999Z</time></trkpt><trkpt lat="39.3441089642703" lon="16.234814799706555"><ele>205.0</ele><time>2026-05-02T11:00:21.999Z</time></trkpt><trkpt lat="39.343950630510825" lon="16.234761950755047"><ele>205.0</ele><time>2026-05-02T11:00:22.999Z</time></trkpt><trkpt lat="39.34378711026779" lon="16.23474187723652"><ele>204.66666666666666</ele><time>2026-05-02T11:00:23.999Z</time></trkpt><trkpt lat="39.34360491338228" lon="16.23472314230355"><ele>204.33333333333331</ele><time>2026-05-02T11:00:24.999Z</time></trkpt><trkpt lat="39.34340427005639" lon="16.234699463572174"><ele>204.0</ele><time>2026-05-02T11:00:25.999Z</time></trkpt><trkpt lat="39.34317519257917" lon="16.234664365503775"><ele>203.0</ele><time>2026-05-02T11:00:26.999Z</time></trkpt><trkpt lat="39.34293648669805" lon="16.234625617585568"><ele>202.0</ele><time>2026-05-02T11:00:27.999Z</time></trkpt><trkpt lat="39.3426861221767" lon="16.23458419560475"><ele>202.0</ele><time>2026-05-02T11:00:28.999Z</time></trkpt><trkpt lat="39.34242316830357" lon="16.234542832630424"><ele>202.0</ele><time>2026-05-02T11:00:29.999Z</time></trkpt><trkpt lat="39.34213956856208" lon="16.234515335989467"><ele>201.5</ele><time>2026-05-02T11:00:30.999Z</time></trkpt><trkpt lat="39.34183901615642" lon="16.23449626808387"><ele>201.0</ele><time>2026-05-02T11:00:31.999Z</time></trkpt><trkpt lat="39.34153073531394" lon="16.23448477039712"><ele>199.5</ele><time>2026-05-02T11:00:32.999Z</time></trkpt><trkpt lat="39.341210889718646" lon="16.234490094032445"><ele>198.0</ele><time>2026-05-02T11:00:33.999Z</time></trkpt><trkpt lat="39.34088031165323" lon="16.234513083145817"><ele>197.5</ele><time>2026-05-02T11:00:34.999Z</time></trkpt><trkpt lat="39.34054363361651" lon="16.234554251181518"><ele>197.0</ele><time>2026-05-02T11:00:35.999Z</time></trkpt><trkpt lat="39.34020603363382" lon="16.23460300962613"><ele>197.0</ele><time>2026-05-02T11:00:36.999Z</time></trkpt><trkpt lat="39.339860715068205" lon="16.234677120562978"><ele>197.0</ele><time>2026-05-02T11:00:38Z</time></trkpt><trkpt lat="39.339514262229" lon="16.23476658014917"><ele>195.0</ele><time>2026-05-02T11:00:39Z</time></trkpt><trkpt lat="39.33916655873873" lon="16.234879649542748"><ele>193.0</ele><time>2026-05-02T11:00:40Z</time></trkpt><trkpt lat="39.33882088751907" lon="16.235016828381656"><ele>192.5</ele><time>2026-05-02T11:00:41Z</time></trkpt><trkpt lat="39.338476479450755" lon="16.235162380577414"><ele>192.0</ele><time>2026-05-02T11:00:42Z</time></trkpt><trkpt lat="39.33812833550483" lon="16.23530758970179"><ele>193.5</ele><time>2026-05-02T11:00:43Z</time></trkpt><trkpt lat="39.337779287380634" lon="16.235456401872334"><ele>195.0</ele><time>2026-05-02T11:00:44Z</time></trkpt><trkpt lat="39.337430336459995" lon="16.235608169585458"><ele>194.5</ele><time>2026-05-02T11:00:45Z</time></trkpt><trkpt lat="39.33708038014962" lon="16.235760326725405"><ele>194.0</ele><time>2026-05-02T11:00:46Z</time></trkpt><trkpt lat="39.33672897298335" lon="16.235908930098216"><ele>195.5</ele><time>2026-05-02T11:00:47Z</time></trkpt><trkpt lat="39.33637851853794" lon="16.23605600088336"><ele>197.0</ele><time>2026-05-02T11:00:48Z</time></trkpt><trkpt lat="39.33602898558863" lon="16.23620474823762"><ele>197.0</ele><time>2026-05-02T11:00:49Z</time></trkpt><trkpt lat="39.33568039415091" lon="16.23635507355595"><ele>197.0</ele><time>2026-05-02T11:00:50Z</time></trkpt><trkpt lat="39.33533338669647" lon="16.236507347064364"><ele>198.0</ele><time>2026-05-02T11:00:51Z</time></trkpt><trkpt lat="39.33498678272523" lon="16.236658918063807"><ele>199.0</ele><time>2026-05-02T11:00:52Z</time></trkpt><trkpt lat="39.3346397202411" lon="16.2368065047043"><ele>200.0</ele><time>2026-05-02T11:00:53Z</time></trkpt><trkpt lat="39.334294061742845" lon="16.236952568788087"><ele>201.0</ele><time>2026-05-02T11:00:54Z</time></trkpt><trkpt lat="39.333948564236806" lon="16.237097004961505"><ele>203.0</ele><time>2026-05-02T11:00:55Z</time></trkpt><trkpt lat="39.33360224882978" lon="16.23723972515411"><ele>205.0</ele><time>2026-05-02T11:00:56Z</time></trkpt><trkpt lat="39.333255502403055" lon="16.237383486313654"><ele>206.0</ele><time>2026-05-02T11:00:57Z</time></trkpt><trkpt lat="39.33290523655333" lon="16.237528657460743"><ele>207.0</ele><time>2026-05-02T11:00:58Z</time></trkpt><trkpt lat="39.33255502771076" lon="16.23767459270107"><ele>208.5</ele><time>2026-05-02T11:00:59Z</time></trkpt><trkpt lat="39.33220418322384" lon="16.237822384454528"><ele>210.0</ele><time>2026-05-02T11:01:00Z</time></trkpt><trkpt lat="39.331852754018115" lon="16.237968918728637"><ele>210.0</ele><time>2026-05-02T11:01:01Z</time></trkpt><trkpt lat="39.331506541253965" lon="16.2381136387526"><ele>210.0</ele><time>2026-05-02T11:01:02Z</time></trkpt><trkpt lat="39.33115969938565" lon="16.238256775815703"><ele>211.5</ele><time>2026-05-02T11:01:03Z</time></trkpt><trkpt lat="39.330813995096634" lon="16.2383995788291"><ele>213.0</ele><time>2026-05-02T11:01:04Z</time></trkpt><trkpt lat="39.33046936813859" lon="16.238540448391984"><ele>214.0</ele><time>2026-05-02T11:01:05Z</time></trkpt><trkpt lat="39.33012488177583" lon="16.238681504158855"><ele>215.0</ele><time>2026-05-02T11:01:06Z</time></trkpt><trkpt lat="39.32978201938354" lon="16.23882277132597"><ele>215.5</ele><time>2026-05-02T11:01:07Z</time></trkpt><trkpt lat="39.32944021730236" lon="16.238967014800668"><ele>216.0</ele><time>2026-05-02T11:01:08Z</time></trkpt><trkpt lat="39.329094905401185" lon="16.239113194012727"><ele>216.5</ele><time>2026-05-02T11:01:09Z</time></trkpt><trkpt lat="39.328745580778524" lon="16.239249961359302"><ele>217.0</ele><time>2026-05-02T11:01:10Z</time></trkpt><trkpt lat="39.328397184003656" lon="16.239367760539203"><ele>218.0</ele><time>2026-05-02T11:01:11Z</time></trkpt><trkpt lat="39.328048943998006" lon="16.239467621577347"><ele>219.0</ele><time>2026-05-02T11:01:12Z</time></trkpt><trkpt lat="39.327697137181666" lon="16.239551653618875"><ele>219.0</ele><time>2026-05-02T11:01:13Z</time></trkpt><trkpt lat="39.32733944574343" lon="16.23961428588919"><ele>219.0</ele><time>2026-05-02T11:01:14Z</time></trkpt><trkpt lat="39.32697702489375" lon="16.239656294880795"><ele>220.5</ele><time>2026-05-02T11:01:15Z</time></trkpt><trkpt lat="39.3266134897297" lon="16.23967894818807"><ele>222.0</ele><time>2026-05-02T11:01:16Z</time></trkpt><trkpt lat="39.32624778828654" lon="16.239686604528945"><ele>222.5</ele><time>2026-05-02T11:01:17Z</time></trkpt><trkpt lat="39.32587999021361" lon="16.23968215378465"><ele>223.0</ele><time>2026-05-02T11:01:18Z</time></trkpt><trkpt lat="39.32551308369329" lon="16.239667386142767"><ele>223.0</ele><time>2026-05-02T11:01:19Z</time></trkpt><trkpt lat="39.325148680994815" lon="16.239644427670243"><ele>223.0</ele><time>2026-05-02T11:01:20Z</time></trkpt><trkpt lat="39.324779493547716" lon="16.23962597396286"><ele>223.5</ele><time>2026-05-02T11:01:21Z</time></trkpt><trkpt lat="39.32441186624102" lon="16.239615954540525"><ele>224.0</ele><time>2026-05-02T11:01:22Z</time></trkpt><trkpt lat="39.324042011530125" lon="16.23961605216347"><ele>222.5</ele><time>2026-05-02T11:01:23Z</time></trkpt><trkpt lat="39.32367011338419" lon="16.23962408762025"><ele>221.0</ele><time>2026-05-02T11:01:24Z</time></trkpt><trkpt lat="39.32329958930464" lon="16.239643824689544"><ele>220.0</ele><time>2026-05-02T11:01:25Z</time></trkpt><trkpt lat="39.32292832203862" lon="16.23967885593667"><ele>219.0</ele><time>2026-05-02T11:01:26Z</time></trkpt><trkpt lat="39.3225555764898" lon="16.23973414476545"><ele>217.0</ele><time>2026-05-02T11:01:27Z</time></trkpt><trkpt lat="39.322185741566415" lon="16.23980956973159"><ele>215.0</ele><time>2026-05-02T11:01:28Z</time></trkpt><trkpt lat="39.321819414706695" lon="16.239902111107966"><ele>215.0</ele><time>2026-05-02T11:01:29Z</time></trkpt><trkpt lat="39.32145457787309" lon="16.240009306421804"><ele>215.0</ele><time>2026-05-02T11:01:30Z</time></trkpt><trkpt lat="39.321093722649614" lon="16.240129167378367"><ele>214.0</ele><time>2026-05-02T11:01:31Z</time></trkpt><trkpt lat="39.320735649521936" lon="16.240263544073784"><ele>213.0</ele><time>2026-05-02T11:01:32Z</time></trkpt><trkpt lat="39.32037735532551" lon="16.24040949737387"><ele>212.5</ele><time>2026-05-02T11:01:33Z</time></trkpt><trkpt lat="39.320020662226035" lon="16.24056111837346"><ele>212.0</ele><time>2026-05-02T11:01:34Z</time></trkpt><trkpt lat="39.31966265199877" lon="16.240712966626326"><ele>212.0</ele><time>2026-05-02T11:01:35Z</time></trkpt><trkpt lat="39.31930250792619" lon="16.240861543404478"><ele>212.0</ele><time>2026-05-02T11:01:36Z</time></trkpt><trkpt lat="39.31894020967931" lon="16.24100331829741"><ele>210.5</ele><time>2026-05-02T11:01:37Z</time></trkpt><trkpt lat="39.31857556903033" lon="16.241131989791683"><ele>209.0</ele><time>2026-05-02T11:01:38Z</time></trkpt><trkpt lat="39.31821017638571" lon="16.241239291942527"><ele>209.5</ele><time>2026-05-02T11:01:39Z</time></trkpt><trkpt lat="39.31784210958269" lon="16.2413192505426"><ele>210.0</ele><time>2026-05-02T11:01:40Z</time></trkpt><trkpt lat="39.31747561325046" lon="16.24137197996344"><ele>211.0</ele><time>2026-05-02T11:01:41Z</time></trkpt><trkpt lat="39.31711218379869" lon="16.241401156743766"><ele>212.0</ele><time>2026-05-02T11:01:42Z</time></trkpt><trkpt lat="39.31674807602952" lon="16.241402115294335"><ele>212.5</ele><time>2026-05-02T11:01:43Z</time></trkpt><trkpt lat="39.3163852214127" lon="16.241370700152448"><ele>213.0</ele><time>2026-05-02T11:01:44Z</time></trkpt><trkpt lat="39.31602394907421" lon="16.241310433458608"><ele>213.0</ele><time>2026-05-02T11:01:45Z</time></trkpt><trkpt lat="39.31566322937726" lon="16.2412248036073"><ele>213.0</ele><time>2026-05-02T11:01:46Z</time></trkpt><trkpt lat="39.31530419206698" lon="16.241114657921333"><ele>215.5</ele><time>2026-05-02T11:01:47Z</time></trkpt><trkpt lat="39.31495154930562" lon="16.240982783636"><ele>218.0</ele><time>2026-05-02T11:01:48Z</time></trkpt><trkpt lat="39.31459909703732" lon="16.240831287467984"><ele>220.0</ele><time>2026-05-02T11:01:49Z</time></trkpt><trkpt lat="39.31424841170075" lon="16.240652933277048"><ele>222.0</ele><time>2026-05-02T11:01:50Z</time></trkpt><trkpt lat="39.31390606189351" lon="16.24044892446143"><ele>227.5</ele><time>2026-05-02T11:01:51Z</time></trkpt><trkpt lat="39.313573060276596" lon="16.240224617301283"><ele>233.0</ele><time>2026-05-02T11:01:52Z</time></trkpt><trkpt lat="39.313239084798475" lon="16.239985512098222"><ele>232.5</ele><time>2026-05-02T11:01:53Z</time></trkpt><trkpt lat="39.31290843011832" lon="16.23974482178941"><ele>232.0</ele><time>2026-05-02T11:01:54Z</time></trkpt><trkpt lat="39.31257496442954" lon="16.239509005730618"><ele>240.0</ele><time>2026-05-02T11:01:55Z</time></trkpt><trkpt lat="39.31223854825616" lon="16.239282136974563"><ele>248.0</ele><time>2026-05-02T11:01:56Z</time></trkpt><trkpt lat="39.31190074182333" lon="16.2390742174606"><ele>247.0</ele><time>2026-05-02T11:01:57Z</time></trkpt><trkpt lat="39.31155373025853" lon="16.238883535886885"><ele>246.0</ele><time>2026-05-02T11:01:58Z</time></trkpt><trkpt lat="39.31119923535847" lon="16.23871689680698"><ele>246.0</ele><time>2026-05-02T11:01:59Z</time></trkpt><trkpt lat="39.31083779865608" lon="16.238571235065013"><ele>246.0</ele><time>2026-05-02T11:02:00Z</time></trkpt><trkpt lat="39.31047300393978" lon="16.238438016555296"><ele>251.0</ele><time>2026-05-02T11:02:01Z</time></trkpt><trkpt lat="39.31010751843152" lon="16.238316278650636"><ele>256.0</ele><time>2026-05-02T11:02:02Z</time></trkpt><trkpt lat="39.309737671296375" lon="16.23820053819752"><ele>258.0</ele><time>2026-05-02T11:02:03Z</time></trkpt><trkpt lat="39.309365430264826" lon="16.238083495113766"><ele>260.0</ele><time>2026-05-02T11:02:04Z</time></trkpt><trkpt lat="39.30899389530465" lon="16.237964681948135"><ele>267.0</ele><time>2026-05-02T11:02:05Z</time></trkpt><trkpt lat="39.30862357330541" lon="16.237846900179967"><ele>274.0</ele><time>2026-05-02T11:02:06Z</time></trkpt><trkpt lat="39.30825442871559" lon="16.237727730831953"><ele>281.0</ele><time>2026-05-02T11:02:07Z</time></trkpt><trkpt lat="39.307885337234374" lon="16.237605291132475"><ele>288.0</ele><time>2026-05-02T11:02:08Z</time></trkpt><trkpt lat="39.30753328985511" lon="16.237480832198667"><ele>295.0</ele><time>2026-05-02T11:02:09Z</time></trkpt><trkpt lat="39.30719343125772" lon="16.23735252327105"><ele>302.0</ele><time>2026-05-02T11:02:10Z</time></trkpt><trkpt lat="39.30686522098251" lon="16.237222401187374"><ele>302.0</ele><time>2026-05-02T11:02:10.999Z</time></trkpt><trkpt lat="39.30650981498119" lon="16.23707622653268"><ele>302.0</ele><time>2026-05-02T11:02:11.999Z</time></trkpt><trkpt lat="39.30615186833551" lon="16.236964680785388"><ele>301.5</ele><time>2026-05-02T11:02:12.999Z</time></trkpt><trkpt lat="39.305780055772026" lon="16.236824820735865"><ele>301.0</ele><time>2026-05-02T11:02:14.076Z</time></trkpt><trkpt lat="39.30543903134199" lon="16.236693137922206"><ele>301.0</ele><time>2026-05-02T11:02:15.069Z</time></trkpt><trkpt lat="39.30508885278861" lon="16.236585033910277"><ele>301.0</ele><time>2026-05-02T11:02:16.069Z</time></trkpt><trkpt lat="39.30473594935523" lon="16.236470617117238"><ele>300.5</ele><time>2026-05-02T11:02:17.066Z</time></trkpt><trkpt lat="39.30438954248958" lon="16.236357924186503"><ele>300.0</ele><time>2026-05-02T11:02:18.066Z</time></trkpt><trkpt lat="39.30405712203443" lon="16.23625034201324"><ele>295.5</ele><time>2026-05-02T11:02:19.064Z</time></trkpt><trkpt lat="39.30373499502363" lon="16.236149068380215"><ele>291.0</ele><time>2026-05-02T11:02:20.03Z</time></trkpt><trkpt lat="39.30339038592642" lon="16.23604582937307"><ele>276.0</ele><time>2026-05-02T11:02:21.032Z</time></trkpt><trkpt lat="39.302612492779474" lon="16.235898882358878"><ele>276.0</ele><time>2026-05-02T11:02:22.999Z</time></trkpt><trkpt lat="39.30228316829999" lon="16.235831940061196"><ele>276.0</ele><time>2026-05-02T11:02:23.999Z</time></trkpt><trkpt lat="39.30196020898202" lon="16.235781350702005"><ele>273.0</ele><time>2026-05-02T11:02:24.999Z</time></trkpt><trkpt lat="39.3016326622355" lon="16.235758041267992"><ele>270.0</ele><time>2026-05-02T11:02:25.999Z</time></trkpt><trkpt lat="39.3013373398184" lon="16.235749823528327"><ele>269.0</ele><time>2026-05-02T11:02:26.999Z</time></trkpt><trkpt lat="39.30104609494671" lon="16.235746039925388"><ele>268.0</ele><time>2026-05-02T11:02:27.999Z</time></trkpt><trkpt lat="39.30078927781909" lon="16.23576238835637"><ele>269.0</ele><time>2026-05-02T11:02:28.999Z</time></trkpt><trkpt lat="39.30052519652998" lon="16.235795396476956"><ele>270.0</ele><time>2026-05-02T11:02:29.999Z</time></trkpt><trkpt lat="39.30027465971725" lon="16.235835978321937"><ele>270.0</ele><time>2026-05-02T11:02:30.999Z</time></trkpt><trkpt lat="39.30003988041921" lon="16.235883239464876"><ele>270.0</ele><time>2026-05-02T11:02:31.999Z</time></trkpt><trkpt lat="39.29982155008745" lon="16.23592156912158"><ele>272.3333333333333</ele><time>2026-05-02T11:02:32.999Z</time></trkpt><trkpt lat="39.29963287388526" lon="16.235943505992093"><ele>274.66666666666663</ele><time>2026-05-02T11:02:33.999Z</time></trkpt><trkpt lat="39.2994589105386" lon="16.235943501435212"><ele>277.0</ele><time>2026-05-02T11:02:34.999Z</time></trkpt><trkpt lat="39.29929528983318" lon="16.235918651064463"><ele>277.0</ele><time>2026-05-02T11:02:35.999Z</time></trkpt><trkpt lat="39.299161704263824" lon="16.2358545705387"><ele>277.0</ele><time>2026-05-02T11:02:36.999Z</time></trkpt><trkpt lat="39.29904992056045" lon="16.235746256224694"><ele>277.0</ele><time>2026-05-02T11:02:37.999Z</time></trkpt><trkpt lat="39.29896192864423" lon="16.235603554605376"><ele>277.0</ele><time>2026-05-02T11:02:38.999Z</time></trkpt><trkpt lat="39.29890884098367" lon="16.235420706464353"><ele>276.5</ele><time>2026-05-02T11:02:39.999Z</time></trkpt><trkpt lat="39.29887251118594" lon="16.235239668247853"><ele>276.0</ele><time>2026-05-02T11:02:40.999Z</time></trkpt><trkpt lat="39.29887776440767" lon="16.235052927936557"><ele>275.5</ele><time>2026-05-02T11:02:41.999Z</time></trkpt><trkpt lat="39.29891825623521" lon="16.23487575366121"><ele>275.0</ele><time>2026-05-02T11:02:43.001Z</time></trkpt><trkpt lat="39.29898832588091" lon="16.23470832315131"><ele>276.6666666666667</ele><time>2026-05-02T11:02:44.001Z</time></trkpt><trkpt lat="39.29909070762171" lon="16.234570479220277"><ele>278.3333333333333</ele><time>2026-05-02T11:02:45.001Z</time></trkpt><trkpt lat="39.299223326344936" lon="16.234474021023914"><ele>280.0</ele><time>2026-05-02T11:02:46.001Z</time></trkpt><trkpt lat="39.29937446688557" lon="16.23441987370208"><ele>280.0</ele><time>2026-05-02T11:02:47.001Z</time></trkpt><trkpt lat="39.299535314866475" lon="16.234421180906743"><ele>280.0</ele><time>2026-05-02T11:02:48.001Z</time></trkpt><trkpt lat="39.299689084274604" lon="16.234480603954736"><ele>280.0</ele><time>2026-05-02T11:02:49.001Z</time></trkpt><trkpt lat="39.29982800048194" lon="16.23460266173296"><ele>277.3333333333333</ele><time>2026-05-02T11:02:50.001Z</time></trkpt><trkpt lat="39.299945829863624" lon="16.23476364126474"><ele>274.6666666666667</ele><time>2026-05-02T11:02:51.001Z</time></trkpt><trkpt lat="39.300040480355335" lon="16.2349666553208"><ele>272.0</ele><time>2026-05-02T11:02:52.001Z</time></trkpt><trkpt lat="39.30012666426509" lon="16.23519691913503"><ele>272.0</ele><time>2026-05-02T11:02:53.001Z</time></trkpt><trkpt lat="39.300219879506784" lon="16.23543382421222"><ele>272.0</ele><time>2026-05-02T11:02:54.001Z</time></trkpt><trkpt lat="39.300316238499285" lon="16.235673855511628"><ele>272.0</ele><time>2026-05-02T11:02:55.001Z</time></trkpt><trkpt lat="39.300412378209934" lon="16.23591422665063"><ele>271.33333333333337</ele><time>2026-05-02T11:02:56.001Z</time></trkpt><trkpt lat="39.300514460790474" lon="16.236156257370613"><ele>270.6666666666667</ele><time>2026-05-02T11:02:57.001Z</time></trkpt><trkpt lat="39.30062630671748" lon="16.236386600987124"><ele>270.0</ele><time>2026-05-02T11:02:58.001Z</time></trkpt><trkpt lat="39.30075558903976" lon="16.2366074684247"><ele>269.3333333333333</ele><time>2026-05-02T11:02:59Z</time></trkpt><trkpt lat="39.30090090905112" lon="16.236820080249437"><ele>268.66666666666663</ele><time>2026-05-02T11:03:00Z</time></trkpt><trkpt lat="39.30106462935704" lon="16.237011976792978"><ele>268.0</ele><time>2026-05-02T11:03:01Z</time></trkpt><trkpt lat="39.30124199803306" lon="16.237183380746632"><ele>268.0</ele><time>2026-05-02T11:03:02Z</time></trkpt><trkpt lat="39.301430743956146" lon="16.237342402557882"><ele>268.0</ele><time>2026-05-02T11:03:03Z</time></trkpt><trkpt lat="39.30162606352945" lon="16.237500300658915"><ele>268.0</ele><time>2026-05-02T11:03:04Z</time></trkpt><trkpt lat="39.30182016028539" lon="16.23766378755997"><ele>268.0</ele><time>2026-05-02T11:03:05Z</time></trkpt><trkpt lat="39.30200574668514" lon="16.237835738175047"><ele>268.0</ele><time>2026-05-02T11:03:06Z</time></trkpt><trkpt lat="39.302181735186416" lon="16.23802058766004"><ele>268.0</ele><time>2026-05-02T11:03:07Z</time></trkpt><trkpt lat="39.302350440623286" lon="16.238223239076213"><ele>266.5</ele><time>2026-05-02T11:03:08Z</time></trkpt><trkpt lat="39.30251197094998" lon="16.238437775159788"><ele>265.0</ele><time>2026-05-02T11:03:09Z</time></trkpt><trkpt lat="39.30267117965722" lon="16.238665575700594"><ele>265.0</ele><time>2026-05-02T11:03:10Z</time></trkpt><trkpt lat="39.30282950156012" lon="16.238901643141105"><ele>265.0</ele><time>2026-05-02T11:03:11Z</time></trkpt><trkpt lat="39.30298543940875" lon="16.23914023161994"><ele>262.5</ele><time>2026-05-02T11:03:12Z</time></trkpt><trkpt lat="39.303142785845715" lon="16.239379571331064"><ele>260.0</ele><time>2026-05-02T11:03:13Z</time></trkpt><trkpt lat="39.30330451791228" lon="16.239617940779134"><ele>261.5</ele><time>2026-05-02T11:03:14Z</time></trkpt><trkpt lat="39.30346894933878" lon="16.239856755617623"><ele>263.0</ele><time>2026-05-02T11:03:15Z</time></trkpt><trkpt lat="39.30363592194386" lon="16.240097083463567"><ele>263.0</ele><time>2026-05-02T11:03:16Z</time></trkpt><trkpt lat="39.30380909156409" lon="16.240342175345926"><ele>263.0</ele><time>2026-05-02T11:03:17Z</time></trkpt><trkpt lat="39.30398241594421" lon="16.240591624631534"><ele>260.5</ele><time>2026-05-02T11:03:18Z</time></trkpt><trkpt lat="39.304151817838715" lon="16.240848362555916"><ele>258.0</ele><time>2026-05-02T11:03:19Z</time></trkpt><trkpt lat="39.30430785857705" lon="16.241110026223662"><ele>258.0</ele><time>2026-05-02T11:03:20Z</time></trkpt><trkpt lat="39.30444157320495" lon="16.24138311346736"><ele>258.0</ele><time>2026-05-02T11:03:21Z</time></trkpt><trkpt lat="39.304549115236306" lon="16.241668892624823"><ele>259.5</ele><time>2026-05-02T11:03:22Z</time></trkpt><trkpt lat="39.30463779834369" lon="16.24196259482361"><ele>261.0</ele><time>2026-05-02T11:03:23Z</time></trkpt><trkpt lat="39.30471751642121" lon="16.242254567724487"><ele>257.5</ele><time>2026-05-02T11:03:24Z</time></trkpt><trkpt lat="39.30479857969974" lon="16.242540955891627"><ele>254.0</ele><time>2026-05-02T11:03:25Z</time></trkpt><trkpt lat="39.30487942553116" lon="16.242813550445096"><ele>254.0</ele><time>2026-05-02T11:03:26Z</time></trkpt><trkpt lat="39.30495738174907" lon="16.243071128029616"><ele>254.0</ele><time>2026-05-02T11:03:27Z</time></trkpt><trkpt lat="39.30503363105497" lon="16.243314387079135"><ele>254.0</ele><time>2026-05-02T11:03:28Z</time></trkpt><trkpt lat="39.30510529580784" lon="16.243540174905625"><ele>253.66666666666669</ele><time>2026-05-02T11:03:29Z</time></trkpt><trkpt lat="39.30516774779138" lon="16.24375193438019"><ele>253.33333333333331</ele><time>2026-05-02T11:03:30Z</time></trkpt><trkpt lat="39.305214173505775" lon="16.243946862032974"><ele>253.0</ele><time>2026-05-02T11:03:31Z</time></trkpt><trkpt lat="39.30523375805717" lon="16.24413375255153"><ele>253.75</ele><time>2026-05-02T11:03:32Z</time></trkpt><trkpt lat="39.305226392355515" lon="16.244316334830543"><ele>254.5</ele><time>2026-05-02T11:03:33Z</time></trkpt><trkpt lat="39.30521404426391" lon="16.244495441623357"><ele>255.25</ele><time>2026-05-02T11:03:34Z</time></trkpt><trkpt lat="39.30520337375318" lon="16.24466092745046"><ele>256.0</ele><time>2026-05-02T11:03:35Z</time></trkpt><trkpt lat="39.305191257100766" lon="16.24481998851364"><ele>256.0</ele><time>2026-05-02T11:03:36Z</time></trkpt><trkpt lat="39.305181443525356" lon="16.244978807454384"><ele>256.0</ele><time>2026-05-02T11:03:37Z</time></trkpt><trkpt lat="39.305167105099" lon="16.245136636720964"><ele>256.0</ele><time>2026-05-02T11:03:38Z</time></trkpt><trkpt lat="39.305131798130354" lon="16.245296919713052"><ele>256.0</ele><time>2026-05-02T11:03:39Z</time></trkpt><trkpt lat="39.30507271633214" lon="16.245456464346365"><ele>256.0</ele><time>2026-05-02T11:03:40Z</time></trkpt><trkpt lat="39.304992813587724" lon="16.245606169106487"><ele>256.0</ele><time>2026-05-02T11:03:41Z</time></trkpt><trkpt lat="39.304896189799145" lon="16.245739584322806"><ele>256.0</ele><time>2026-05-02T11:03:42Z</time></trkpt><trkpt lat="39.304783807272116" lon="16.245861737829443"><ele>256.0</ele><time>2026-05-02T11:03:43Z</time></trkpt><trkpt lat="39.304666095277405" lon="16.245976317262347"><ele>257.5</ele><time>2026-05-02T11:03:44Z</time></trkpt><trkpt lat="39.30455408447509" lon="16.246092081794554"><ele>259.0</ele><time>2026-05-02T11:03:45Z</time></trkpt><trkpt lat="39.3044490844009" lon="16.246216378123357"><ele>260.5</ele><time>2026-05-02T11:03:46Z</time></trkpt><trkpt lat="39.30435482346271" lon="16.246332004485332"><ele>262.0</ele><time>2026-05-02T11:03:47Z</time></trkpt><trkpt lat="39.30426574279364" lon="16.246429077398936"><ele>261.2</ele><time>2026-05-02T11:03:48Z</time></trkpt><trkpt lat="39.30418696281351" lon="16.246512412640623"><ele>260.4</ele><time>2026-05-02T11:03:49Z</time></trkpt><trkpt lat="39.30411811027671" lon="16.24658814799547"><ele>259.6</ele><time>2026-05-02T11:03:50Z</time></trkpt><trkpt lat="39.30404010246615" lon="16.246669252945022"><ele>258.8</ele><time>2026-05-02T11:03:51Z</time></trkpt><trkpt lat="39.30395127303192" lon="16.246761974872292"><ele>258.0</ele><time>2026-05-02T11:03:52Z</time></trkpt><trkpt lat="39.30385110541976" lon="16.246864099201392"><ele>260.0</ele><time>2026-05-02T11:03:53Z</time></trkpt><trkpt lat="39.303748495622564" lon="16.24697372214218"><ele>262.0</ele><time>2026-05-02T11:03:54Z</time></trkpt><trkpt lat="39.3036486191041" lon="16.247076013187"><ele>264.0</ele><time>2026-05-02T11:03:55Z</time></trkpt><trkpt lat="39.30356318139383" lon="16.247168840470007"><ele>266.0</ele><time>2026-05-02T11:03:56Z</time></trkpt><trkpt lat="39.303489706772595" lon="16.2472481565483"><ele>265.0</ele><time>2026-05-02T11:03:57Z</time></trkpt><trkpt lat="39.30342044976931" lon="16.24732375360955"><ele>264.0</ele><time>2026-05-02T11:03:58Z</time></trkpt><trkpt lat="39.303357989170195" lon="16.247386058386915"><ele>263.0</ele><time>2026-05-02T11:03:59Z</time></trkpt><trkpt lat="39.30329665150346" lon="16.24745104797173"><ele>262.0</ele><time>2026-05-02T11:04:00Z</time></trkpt><trkpt lat="39.303231873699836" lon="16.247520137283036"><ele>261.0</ele><time>2026-05-02T11:04:01Z</time></trkpt><trkpt lat="39.30316390157456" lon="16.247587171602106"><ele>260.0</ele><time>2026-05-02T11:04:02Z</time></trkpt><trkpt lat="39.30309834705434" lon="16.247654925762077"><ele>261.5</ele><time>2026-05-02T11:04:03Z</time></trkpt><trkpt lat="39.30304099428653" lon="16.247709912878474"><ele>263.0</ele><time>2026-05-02T11:04:04Z</time></trkpt><trkpt lat="39.30298690419706" lon="16.247759507994807"><ele>264.5</ele><time>2026-05-02T11:04:05Z</time></trkpt><trkpt lat="39.30293135771154" lon="16.247800588807273"><ele>266.0</ele><time>2026-05-02T11:04:06Z</time></trkpt><trkpt lat="39.30285210162431" lon="16.247840156366333"><ele>267.5</ele><time>2026-05-02T11:04:08Z</time></trkpt><trkpt lat="39.3027852565856" lon="16.24787912476785"><ele>269.0</ele><time>2026-05-02T11:04:10Z</time></trkpt><trkpt lat="39.3026676401874" lon="16.247932106620322"><ele>269.0</ele><time>2026-05-02T11:04:12Z</time></trkpt><trkpt lat="39.302566129125175" lon="16.247938974354785"><ele>269.0</ele><time>2026-05-02T11:04:13Z</time></trkpt><trkpt lat="39.30244971756426" lon="16.247928029525312"><ele>269.0</ele><time>2026-05-02T11:04:14Z</time></trkpt><trkpt lat="39.302336615930734" lon="16.247912979444806"><ele>269.0</ele><time>2026-05-02T11:04:15Z</time></trkpt><trkpt lat="39.302229739705886" lon="16.24789474491974"><ele>269.0</ele><time>2026-05-02T11:04:15.999Z</time></trkpt><trkpt lat="39.30212649521943" lon="16.247878928010106"><ele>269.75</ele><time>2026-05-02T11:04:16.999Z</time></trkpt><trkpt lat="39.30202294322188" lon="16.24787032096915"><ele>270.5</ele><time>2026-05-02T11:04:17.999Z</time></trkpt><trkpt lat="39.30191200213071" lon="16.247856409164342"><ele>271.25</ele><time>2026-05-02T11:04:18.999Z</time></trkpt><trkpt lat="39.30179310300932" lon="16.24783998009711"><ele>272.0</ele><time>2026-05-02T11:04:19.999Z</time></trkpt><trkpt lat="39.30167203925118" lon="16.247824946816944"><ele>272.0</ele><time>2026-05-02T11:04:20.999Z</time></trkpt><trkpt lat="39.30155309374717" lon="16.24780496370916"><ele>272.0</ele><time>2026-05-02T11:04:21.999Z</time></trkpt><trkpt lat="39.30143828330287" lon="16.247783682550864"><ele>272.0</ele><time>2026-05-02T11:04:22.999Z</time></trkpt><trkpt lat="39.301321274646156" lon="16.24775692272232"><ele>272.0</ele><time>2026-05-02T11:04:23.999Z</time></trkpt><trkpt lat="39.30120155633271" lon="16.24773685540084"><ele>271.25</ele><time>2026-05-02T11:04:24.999Z</time></trkpt><trkpt lat="39.30107697405162" lon="16.24771542604632"><ele>270.5</ele><time>2026-05-02T11:04:25.999Z</time></trkpt><trkpt lat="39.30095711906367" lon="16.247685941370026"><ele>269.75</ele><time>2026-05-02T11:04:26.999Z</time></trkpt><trkpt lat="39.30083899681915" lon="16.247663147089707"><ele>269.0</ele><time>2026-05-02T11:04:27.999Z</time></trkpt><trkpt lat="39.30074187247089" lon="16.247639874688083"><ele>269.0</ele><time>2026-05-02T11:04:28.999Z</time></trkpt><trkpt lat="39.30065979735401" lon="16.24762094316544"><ele>269.0</ele><time>2026-05-02T11:04:29.999Z</time></trkpt><trkpt lat="39.300589848774656" lon="16.247603541067207"><ele>269.0</ele><time>2026-05-02T11:04:30.999Z</time></trkpt><trkpt lat="39.30052289854862" lon="16.247576871411642"><ele>269.0</ele><time>2026-05-02T11:04:31.999Z</time></trkpt><trkpt lat="39.30044854322889" lon="16.247547528026583"><ele>269.0</ele><time>2026-05-02T11:04:32.999Z</time></trkpt><trkpt lat="39.30036225351676" lon="16.247515134049852"><ele>269.0</ele><time>2026-05-02T11:04:33.999Z</time></trkpt><trkpt lat="39.300265085005904" lon="16.24748861828231"><ele>268.6666666666667</ele><time>2026-05-02T11:04:34.999Z</time></trkpt><trkpt lat="39.300167968098876" lon="16.247474442092635"><ele>268.33333333333337</ele><time>2026-05-02T11:04:35.999Z</time></trkpt><trkpt lat="39.30008459795751" lon="16.247461376093543"><ele>268.0</ele><time>2026-05-02T11:04:36.999Z</time></trkpt><trkpt lat="39.3000101659363" lon="16.247451301974554"><ele>267.6666666666667</ele><time>2026-05-02T11:04:37.999Z</time></trkpt><trkpt lat="39.299942048094785" lon="16.24744059874022"><ele>267.3333333333333</ele><time>2026-05-02T11:04:38.999Z</time></trkpt><trkpt lat="39.2998687958783" lon="16.24742856983276"><ele>267.0</ele><time>2026-05-02T11:04:39.999Z</time></trkpt><trkpt lat="39.29979393580993" lon="16.247418496724"><ele>266.6666666666667</ele><time>2026-05-02T11:04:40.999Z</time></trkpt><trkpt lat="39.29971897519782" lon="16.247409105387497"><ele>266.3333333333333</ele><time>2026-05-02T11:04:41.999Z</time></trkpt><trkpt lat="39.29964511755251" lon="16.247404051796234"><ele>266.0</ele><time>2026-05-02T11:04:42.999Z</time></trkpt><trkpt lat="39.299565941195624" lon="16.24740038871454"><ele>265.66666666666663</ele><time>2026-05-02T11:04:43.999Z</time></trkpt><trkpt lat="39.29948635906495" lon="16.247399044544395"><ele>265.3333333333333</ele><time>2026-05-02T11:04:44.999Z</time></trkpt><trkpt lat="39.29940698560612" lon="16.247399188809926"><ele>265.0</ele><time>2026-05-02T11:04:45.999Z</time></trkpt><trkpt lat="39.29932859135149" lon="16.24739921648456"><ele>265.0</ele><time>2026-05-02T11:04:46.999Z</time></trkpt><trkpt lat="39.29925637235158" lon="16.247399232208085"><ele>265.0</ele><time>2026-05-02T11:04:47.999Z</time></trkpt><trkpt lat="39.29917942384348" lon="16.247396333290002"><ele>265.0</ele><time>2026-05-02T11:04:49.001Z</time></trkpt><trkpt lat="39.29909855482063" lon="16.247388632026247"><ele>265.0</ele><time>2026-05-02T11:04:50.001Z</time></trkpt><trkpt lat="39.29901811926486" lon="16.247377543343593"><ele>265.0</ele><time>2026-05-02T11:04:51.001Z</time></trkpt><trkpt lat="39.29893663588174" lon="16.247375374850847"><ele>265.0</ele><time>2026-05-02T11:04:52.001Z</time></trkpt><trkpt lat="39.29885321325166" lon="16.247379736363467"><ele>264.6</ele><time>2026-05-02T11:04:53.001Z</time></trkpt><trkpt lat="39.29876684800434" lon="16.247382203606954"><ele>264.2</ele><time>2026-05-02T11:04:54.001Z</time></trkpt><trkpt lat="39.29867828233992" lon="16.24738600620636"><ele>263.8</ele><time>2026-05-02T11:04:55.001Z</time></trkpt><trkpt lat="39.29858398786931" lon="16.247383054081716"><ele>263.4</ele><time>2026-05-02T11:04:56.001Z</time></trkpt><trkpt lat="39.29847664472202" lon="16.247383296879832"><ele>263.0</ele><time>2026-05-02T11:04:57.001Z</time></trkpt><trkpt lat="39.29835115326725" lon="16.247380282649832"><ele>263.0</ele><time>2026-05-02T11:04:58.001Z</time></trkpt><trkpt lat="39.29822435305969" lon="16.24737449340648"><ele>263.0</ele><time>2026-05-02T11:04:59.001Z</time></trkpt><trkpt lat="39.29810485887287" lon="16.247363141266195"><ele>263.0</ele><time>2026-05-02T11:05:00Z</time></trkpt><trkpt lat="39.29799582665355" lon="16.24735750304891"><ele>263.0</ele><time>2026-05-02T11:05:01.001Z</time></trkpt><trkpt lat="39.29788665791732" lon="16.24737208826333"><ele>263.75</ele><time>2026-05-02T11:05:02.001Z</time></trkpt><trkpt lat="39.29776190569808" lon="16.247387507172935"><ele>264.5</ele><time>2026-05-02T11:05:03Z</time></trkpt><trkpt lat="39.29762279217569" lon="16.247391797899603"><ele>265.25</ele><time>2026-05-02T11:05:04Z</time></trkpt><trkpt lat="39.29748811105624" lon="16.247384233785162"><ele>266.0</ele><time>2026-05-02T11:05:05Z</time></trkpt><trkpt lat="39.29735707539677" lon="16.24737854422366"><ele>266.75</ele><time>2026-05-02T11:05:06Z</time></trkpt><trkpt lat="39.29722226510282" lon="16.247374967497095"><ele>267.5</ele><time>2026-05-02T11:05:07Z</time></trkpt><trkpt lat="39.29709184333528" lon="16.247373498905983"><ele>268.25</ele><time>2026-05-02T11:05:08Z</time></trkpt><trkpt lat="39.2969712083541" lon="16.247372130944733"><ele>269.0</ele><time>2026-05-02T11:05:09Z</time></trkpt><trkpt lat="39.296856970836785" lon="16.247377799679"><ele>269.0</ele><time>2026-05-02T11:05:10Z</time></trkpt><trkpt lat="39.29673448112827" lon="16.24738008104131"><ele>269.0</ele><time>2026-05-02T11:05:11Z</time></trkpt><trkpt lat="39.29660879804895" lon="16.247376875058187"><ele>269.0</ele><time>2026-05-02T11:05:12Z</time></trkpt><trkpt lat="39.296482750410405" lon="16.247374550760338"><ele>269.0</ele><time>2026-05-02T11:05:13Z</time></trkpt><trkpt lat="39.29636789506296" lon="16.247372399700126"><ele>269.8</ele><time>2026-05-02T11:05:14Z</time></trkpt><trkpt lat="39.29626249939228" lon="16.247372042918105"><ele>270.59999999999997</ele><time>2026-05-02T11:05:15Z</time></trkpt><trkpt lat="39.296164165973174" lon="16.247369513629103"><ele>271.4</ele><time>2026-05-02T11:05:16Z</time></trkpt><trkpt lat="39.29606432735114" lon="16.247369794338027"><ele>272.2</ele><time>2026-05-02T11:05:17Z</time></trkpt><trkpt lat="39.29596974948303" lon="16.247370897693404"><ele>273.0</ele><time>2026-05-02T11:05:18Z</time></trkpt><trkpt lat="39.29588115325363" lon="16.247370068008163"><ele>273.0</ele><time>2026-05-02T11:05:19Z</time></trkpt><trkpt lat="39.29579805258671" lon="16.247371054161555"><ele>273.0</ele><time>2026-05-02T11:05:20Z</time></trkpt><trkpt lat="39.29571635625639" lon="16.247375385175893"><ele>273.0</ele><time>2026-05-02T11:05:21Z</time></trkpt><trkpt lat="39.29565042736796" lon="16.247379240976205"><ele>273.0</ele><time>2026-05-02T11:05:22Z</time></trkpt><trkpt lat="39.295542610634705" lon="16.24737799768678"><ele>273.0</ele><time>2026-05-02T11:05:24Z</time></trkpt><trkpt lat="39.29546924316788" lon="16.24738455583371"><ele>273.0</ele><time>2026-05-02T11:05:25Z</time></trkpt><trkpt lat="39.29537285266804" lon="16.24740215357211"><ele>272.25</ele><time>2026-05-02T11:05:26Z</time></trkpt><trkpt lat="39.29525934502553" lon="16.247419222019833"><ele>271.5</ele><time>2026-05-02T11:05:27Z</time></trkpt><trkpt lat="39.295135663572275" lon="16.247435639856718"><ele>270.75</ele><time>2026-05-02T11:05:28Z</time></trkpt><trkpt lat="39.29500735322376" lon="16.24744518617758"><ele>270.0</ele><time>2026-05-02T11:05:29Z</time></trkpt><trkpt lat="39.294881905413014" lon="16.247452559327762"><ele>270.0</ele><time>2026-05-02T11:05:30Z</time></trkpt><trkpt lat="39.29476876383415" lon="16.247459589722894"><ele>270.0</ele><time>2026-05-02T11:05:31Z</time></trkpt><trkpt lat="39.294661114346844" lon="16.24746708158896"><ele>270.0</ele><time>2026-05-02T11:05:32Z</time></trkpt><trkpt lat="39.29456297037455" lon="16.24747997977495"><ele>270.0</ele><time>2026-05-02T11:05:33Z</time></trkpt><trkpt lat="39.294475260107326" lon="16.247491025653304"><ele>270.0</ele><time>2026-05-02T11:05:34Z</time></trkpt><trkpt lat="39.29439380241263" lon="16.247501080300907"><ele>270.2</ele><time>2026-05-02T11:05:35Z</time></trkpt><trkpt lat="39.29431756455277" lon="16.24750963413446"><ele>270.4</ele><time>2026-05-02T11:05:36Z</time></trkpt><trkpt lat="39.29421345556909" lon="16.247532112205512"><ele>270.6</ele><time>2026-05-02T11:05:38Z</time></trkpt><trkpt lat="39.2940789301325" lon="16.247546039496463"><ele>270.8</ele><time>2026-05-02T11:05:40Z</time></trkpt><trkpt lat="39.29398638148786" lon="16.247552838780216"><ele>271.0</ele><time>2026-05-02T11:05:41Z</time></trkpt><trkpt lat="39.2938790365213" lon="16.247557819801443"><ele>270.0</ele><time>2026-05-02T11:05:42Z</time></trkpt><trkpt lat="39.29375776282653" lon="16.247568504249905"><ele>269.0</ele><time>2026-05-02T11:05:43Z</time></trkpt><trkpt lat="39.293635941860195" lon="16.24758088567771"><ele>268.0</ele><time>2026-05-02T11:05:44Z</time></trkpt><trkpt lat="39.29352041945322" lon="16.24759050920075"><ele>267.0</ele><time>2026-05-02T11:05:45Z</time></trkpt><trkpt lat="39.293411482757286" lon="16.247599113317946"><ele>267.0</ele><time>2026-05-02T11:05:46Z</time></trkpt><trkpt lat="39.2932946145327" lon="16.24761464044735"><ele>267.0</ele><time>2026-05-02T11:05:47Z</time></trkpt><trkpt lat="39.29317208813479" lon="16.24762530894364"><ele>267.0</ele><time>2026-05-02T11:05:48Z</time></trkpt><trkpt lat="39.293062490361585" lon="16.247628478141472"><ele>267.0</ele><time>2026-05-02T11:05:49Z</time></trkpt><trkpt lat="39.29296832420417" lon="16.247629857129333"><ele>267.0</ele><time>2026-05-02T11:05:50Z</time></trkpt><trkpt lat="39.29289100674347" lon="16.247628893927118"><ele>267.1666666666667</ele><time>2026-05-02T11:05:51Z</time></trkpt><trkpt lat="39.292821730969386" lon="16.247625568075335"><ele>267.3333333333333</ele><time>2026-05-02T11:05:52Z</time></trkpt><trkpt lat="39.29275533776923" lon="16.24762426151679"><ele>267.5</ele><time>2026-05-02T11:05:53Z</time></trkpt><trkpt lat="39.29265581610937" lon="16.247618946129446"><ele>267.66666666666663</ele><time>2026-05-02T11:05:55Z</time></trkpt><trkpt lat="39.29257598231545" lon="16.247599133652262"><ele>267.8333333333333</ele><time>2026-05-02T11:05:57Z</time></trkpt><trkpt lat="39.29249802028485" lon="16.2475783186871"><ele>268.0</ele><time>2026-05-02T11:05:59Z</time></trkpt><trkpt lat="39.29242612761846" lon="16.247623531637817"><ele>268.0</ele><time>2026-05-02T11:06:01Z</time></trkpt><trkpt lat="39.2923824704707" lon="16.247686482288124"><ele>268.0</ele><time>2026-05-02T11:06:02Z</time></trkpt><trkpt lat="39.292325238923745" lon="16.247761716427057"><ele>268.0</ele><time>2026-05-02T11:06:03Z</time></trkpt><trkpt lat="39.29224112816522" lon="16.24782807348432"><ele>268.0</ele><time>2026-05-02T11:06:04Z</time></trkpt><trkpt lat="39.29214092665872" lon="16.24788656276489"><ele>268.0</ele><time>2026-05-02T11:06:05Z</time></trkpt><trkpt lat="39.29202789819547" lon="16.24794640384603"><ele>268.25</ele><time>2026-05-02T11:06:06Z</time></trkpt><trkpt lat="39.29190262460386" lon="16.248011193434582"><ele>268.5</ele><time>2026-05-02T11:06:07Z</time></trkpt><trkpt lat="39.291768065078045" lon="16.248083703968934"><ele>268.75</ele><time>2026-05-02T11:06:08Z</time></trkpt><trkpt lat="39.29162810724464" lon="16.248156497264766"><ele>269.0</ele><time>2026-05-02T11:06:09Z</time></trkpt><trkpt lat="39.29147373481082" lon="16.24823180836339"><ele>269.0</ele><time>2026-05-02T11:06:10Z</time></trkpt><trkpt lat="39.291316041978654" lon="16.24831492426468"><ele>269.0</ele><time>2026-05-02T11:06:11Z</time></trkpt><trkpt lat="39.2911549168896" lon="16.24839992549758"><ele>269.0</ele><time>2026-05-02T11:06:12Z</time></trkpt><trkpt lat="39.29099556126649" lon="16.248485451387804"><ele>269.0</ele><time>2026-05-02T11:06:13Z</time></trkpt><trkpt lat="39.29083834850908" lon="16.2485781876591"><ele>269.0</ele><time>2026-05-02T11:06:14Z</time></trkpt><trkpt lat="39.290691623811824" lon="16.248696974893885"><ele>269.0</ele><time>2026-05-02T11:06:15Z</time></trkpt><trkpt lat="39.2905548319988" lon="16.248854402961797"><ele>263.6666666666667</ele><time>2026-05-02T11:06:16Z</time></trkpt><trkpt lat="39.29043075260309" lon="16.249034182325513"><ele>258.3333333333333</ele><time>2026-05-02T11:06:17Z</time></trkpt><trkpt lat="39.290303894814144" lon="16.24922728156946"><ele>253.0</ele><time>2026-05-02T11:06:18Z</time></trkpt><trkpt lat="39.290169883912746" lon="16.249430399328027"><ele>253.0</ele><time>2026-05-02T11:06:19Z</time></trkpt><trkpt lat="39.29003606344767" lon="16.249633263632198"><ele>253.0</ele><time>2026-05-02T11:06:20Z</time></trkpt><trkpt lat="39.28989267970798" lon="16.2498495672724"><ele>253.0</ele><time>2026-05-02T11:06:20.999Z</time></trkpt><trkpt lat="39.28974354655106" lon="16.250071921120995"><ele>249.5</ele><time>2026-05-02T11:06:21.999Z</time></trkpt><trkpt lat="39.28959290850011" lon="16.25029777977736"><ele>246.0</ele><time>2026-05-02T11:06:22.999Z</time></trkpt><trkpt lat="39.28943853378115" lon="16.25053004883886"><ele>245.0</ele><time>2026-05-02T11:06:23.999Z</time></trkpt><trkpt lat="39.289282582434595" lon="16.25076432652297"><ele>244.0</ele><time>2026-05-02T11:06:24.999Z</time></trkpt><trkpt lat="39.28912654711548" lon="16.250999177375803"><ele>244.0</ele><time>2026-05-02T11:06:25.999Z</time></trkpt><trkpt lat="39.28897137787294" lon="16.25123367419947"><ele>244.0</ele><time>2026-05-02T11:06:26.999Z</time></trkpt><trkpt lat="39.288820411358316" lon="16.25145820292968"><ele>245.0</ele><time>2026-05-02T11:06:27.999Z</time></trkpt><trkpt lat="39.28867463484029" lon="16.25167485662961"><ele>246.0</ele><time>2026-05-02T11:06:28.999Z</time></trkpt><trkpt lat="39.28853545968753" lon="16.25187856294569"><ele>247.0</ele><time>2026-05-02T11:06:29.999Z</time></trkpt><trkpt lat="39.288406370037556" lon="16.252067305685372"><ele>247.0</ele><time>2026-05-02T11:06:30.999Z</time></trkpt><trkpt lat="39.288290381214765" lon="16.252239242683974"><ele>247.0</ele><time>2026-05-02T11:06:31.999Z</time></trkpt><trkpt lat="39.28818329437722" lon="16.252399781163536"><ele>247.0</ele><time>2026-05-02T11:06:32.999Z</time></trkpt><trkpt lat="39.28808203532758" lon="16.2525524686069"><ele>253.0</ele><time>2026-05-02T11:06:33.999Z</time></trkpt><trkpt lat="39.287978319982294" lon="16.252708180567815"><ele>259.0</ele><time>2026-05-02T11:06:34.999Z</time></trkpt><trkpt lat="39.2878787834524" lon="16.252882322302693"><ele>265.0</ele><time>2026-05-02T11:06:35.999Z</time></trkpt><trkpt lat="39.28779766954734" lon="16.253082727354908"><ele>266.0</ele><time>2026-05-02T11:06:36.999Z</time></trkpt><trkpt lat="39.28774493271148" lon="16.25329493722232"><ele>267.0</ele><time>2026-05-02T11:06:37.999Z</time></trkpt><trkpt lat="39.28769815504251" lon="16.253511483071932"><ele>268.0</ele><time>2026-05-02T11:06:38.999Z</time></trkpt><trkpt lat="39.287641938189125" lon="16.253711773393015"><ele>268.0</ele><time>2026-05-02T11:06:39.999Z</time></trkpt><trkpt lat="39.28756372952503" lon="16.253895845802955"><ele>268.0</ele><time>2026-05-02T11:06:40.999Z</time></trkpt><trkpt lat="39.28748605069137" lon="16.25406651792882"><ele>268.0</ele><time>2026-05-02T11:06:41.999Z</time></trkpt><trkpt lat="39.28740915738648" lon="16.254233562090004"><ele>269.0</ele><time>2026-05-02T11:06:42.999Z</time></trkpt><trkpt lat="39.28732771784015" lon="16.254393215744244"><ele>270.0</ele><time>2026-05-02T11:06:43.999Z</time></trkpt><trkpt lat="39.28720629801437" lon="16.254538835737392"><ele>271.0</ele><time>2026-05-02T11:06:44.999Z</time></trkpt><trkpt lat="39.28707696746059" lon="16.254693670254994"><ele>273.3333333333333</ele><time>2026-05-02T11:06:45.999Z</time></trkpt><trkpt lat="39.28693702114745" lon="16.254844634190682"><ele>275.6666666666667</ele><time>2026-05-02T11:06:46.999Z</time></trkpt><trkpt lat="39.286792548360914" lon="16.254996633795617"><ele>278.0</ele><time>2026-05-02T11:06:47.999Z</time></trkpt><trkpt lat="39.28663943988632" lon="16.255170285912516"><ele>278.0</ele><time>2026-05-02T11:06:48.999Z</time></trkpt><trkpt lat="39.28648662443394" lon="16.25531512349019"><ele>278.0</ele><time>2026-05-02T11:06:49.999Z</time></trkpt><trkpt lat="39.28634447841814" lon="16.255454305825182"><ele>278.0</ele><time>2026-05-02T11:06:50.999Z</time></trkpt><trkpt lat="39.28621717606478" lon="16.255579408183436"><ele>281.25</ele><time>2026-05-02T11:06:51.999Z</time></trkpt><trkpt lat="39.286104609163495" lon="16.255685700833233"><ele>284.5</ele><time>2026-05-02T11:06:52.999Z</time></trkpt><trkpt lat="39.286002462574565" lon="16.255776677794305"><ele>287.75</ele><time>2026-05-02T11:06:54.001Z</time></trkpt><trkpt lat="39.28590797507001" lon="16.255849489582648"><ele>291.0</ele><time>2026-05-02T11:06:55.001Z</time></trkpt><trkpt lat="39.28581438835504" lon="16.255918286982364"><ele>291.0</ele><time>2026-05-02T11:06:56.001Z</time></trkpt><trkpt lat="39.285684980171446" lon="16.25598023002094"><ele>291.0</ele><time>2026-05-02T11:06:57.001Z</time></trkpt><trkpt lat="39.285542507736565" lon="16.2560921129738"><ele>291.0</ele><time>2026-05-02T11:06:58.001Z</time></trkpt><trkpt lat="39.285430525307916" lon="16.256263330810242"><ele>291.25</ele><time>2026-05-02T11:06:59.001Z</time></trkpt><trkpt lat="39.28532242225814" lon="16.256394752668612"><ele>291.5</ele><time>2026-05-02T11:07:00.001Z</time></trkpt><trkpt lat="39.28522142748631" lon="16.256485158980986"><ele>291.75</ele><time>2026-05-02T11:07:01.001Z</time></trkpt><trkpt lat="39.28513935703053" lon="16.256589225651112"><ele>292.0</ele><time>2026-05-02T11:07:02.001Z</time></trkpt><trkpt lat="39.28504416812088" lon="16.256676007218527"><ele>292.0</ele><time>2026-05-02T11:07:03.001Z</time></trkpt><trkpt lat="39.28495008582033" lon="16.256765257375204"><ele>292.0</ele><time>2026-05-02T11:07:04.001Z</time></trkpt><trkpt lat="39.284849242669175" lon="16.256858074986123"><ele>292.0</ele><time>2026-05-02T11:07:05Z</time></trkpt><trkpt lat="39.2847525876558" lon="16.256950190351574"><ele>292.0</ele><time>2026-05-02T11:07:06Z</time></trkpt><trkpt lat="39.28467079055598" lon="16.257047583195472"><ele>292.25</ele><time>2026-05-02T11:07:07Z</time></trkpt><trkpt lat="39.284609689500144" lon="16.257164780443226"><ele>292.5</ele><time>2026-05-02T11:07:08Z</time></trkpt><trkpt lat="39.28457303648332" lon="16.257304879342456"><ele>292.75</ele><time>2026-05-02T11:07:09Z</time></trkpt><trkpt lat="39.28455158759311" lon="16.257449642235702"><ele>293.0</ele><time>2026-05-02T11:07:10Z</time></trkpt><trkpt lat="39.284516448645796" lon="16.25758670538003"><ele>293.4</ele><time>2026-05-02T11:07:11Z</time></trkpt><trkpt lat="39.28446371292394" lon="16.257710443150795"><ele>293.8</ele><time>2026-05-02T11:07:12Z</time></trkpt><trkpt lat="39.28439001492762" lon="16.25780703987693"><ele>294.2</ele><time>2026-05-02T11:07:13Z</time></trkpt><trkpt lat="39.284294194176276" lon="16.257876402074782"><ele>294.6</ele><time>2026-05-02T11:07:14Z</time></trkpt><trkpt lat="39.284181363655435" lon="16.257923939057676"><ele>295.0</ele><time>2026-05-02T11:07:15Z</time></trkpt><trkpt lat="39.2840676482715" lon="16.25797935258712"><ele>295.0</ele><time>2026-05-02T11:07:16Z</time></trkpt><trkpt lat="39.28396627212177" lon="16.258070294065185"><ele>295.0</ele><time>2026-05-02T11:07:17Z</time></trkpt><trkpt lat="39.28387750861142" lon="16.258190323510753"><ele>295.0</ele><time>2026-05-02T11:07:18Z</time></trkpt><trkpt lat="39.2837914217579" lon="16.258317571459926"><ele>295.0</ele><time>2026-05-02T11:07:19Z</time></trkpt><trkpt lat="39.28370309383123" lon="16.258440428716845"><ele>296.5</ele><time>2026-05-02T11:07:20Z</time></trkpt><trkpt lat="39.28361534963255" lon="16.25856478037696"><ele>298.0</ele><time>2026-05-02T11:07:21Z</time></trkpt><trkpt lat="39.28352628834783" lon="16.258690418793236"><ele>299.5</ele><time>2026-05-02T11:07:22Z</time></trkpt><trkpt lat="39.28342465530963" lon="16.258799082278568"><ele>301.0</ele><time>2026-05-02T11:07:23Z</time></trkpt><trkpt lat="39.28334416810253" lon="16.258929443994187"><ele>303.5</ele><time>2026-05-02T11:07:24Z</time></trkpt><trkpt lat="39.28323901119402" lon="16.259023640407143"><ele>306.0</ele><time>2026-05-02T11:07:25Z</time></trkpt><trkpt lat="39.28312176059716" lon="16.25908861812958"><ele>308.5</ele><time>2026-05-02T11:07:26Z</time></trkpt><trkpt lat="39.28299982291466" lon="16.259131432062237"><ele>311.0</ele><time>2026-05-02T11:07:27Z</time></trkpt><trkpt lat="39.28287884875901" lon="16.259174031101363"><ele>311.0</ele><time>2026-05-02T11:07:28Z</time></trkpt><trkpt lat="39.28276297273787" lon="16.259226361632944"><ele>311.0</ele><time>2026-05-02T11:07:29Z</time></trkpt><trkpt lat="39.282651636966385" lon="16.259291928214335"><ele>311.0</ele><time>2026-05-02T11:07:30Z</time></trkpt><trkpt lat="39.28254581452828" lon="16.259369889732728"><ele>311.0</ele><time>2026-05-02T11:07:31Z</time></trkpt><trkpt lat="39.282445586139545" lon="16.25945454476209"><ele>311.0</ele><time>2026-05-02T11:07:32Z</time></trkpt><trkpt lat="39.28234953118637" lon="16.259534178154894"><ele>311.0</ele><time>2026-05-02T11:07:33Z</time></trkpt><trkpt lat="39.28225891858045" lon="16.259586875518078"><ele>311.0</ele><time>2026-05-02T11:07:34Z</time></trkpt><trkpt lat="39.28216557156672" lon="16.259619360676826"><ele>311.0</ele><time>2026-05-02T11:07:35Z</time></trkpt><trkpt lat="39.28208076199026" lon="16.259632849582133"><ele>311.0</ele><time>2026-05-02T11:07:36Z</time></trkpt><trkpt lat="39.2820036074898" lon="16.259631609544865"><ele>310.8</ele><time>2026-05-02T11:07:37Z</time></trkpt><trkpt lat="39.281938889225344" lon="16.259631651360152"><ele>310.6</ele><time>2026-05-02T11:07:38Z</time></trkpt><trkpt lat="39.28184594536186" lon="16.259677580675913"><ele>310.4</ele><time>2026-05-02T11:07:40Z</time></trkpt><trkpt lat="39.281836613462815" lon="16.259823072390883"><ele>310.2</ele><time>2026-05-02T11:07:42Z</time></trkpt><trkpt lat="39.281970760704894" lon="16.259885568386327"><ele>310.0</ele><time>2026-05-02T11:07:44Z</time></trkpt><trkpt lat="39.28207172439346" lon="16.259864008248147"><ele>315.0</ele><time>2026-05-02T11:07:45Z</time></trkpt><trkpt lat="39.28218252764898" lon="16.259837010957977"><ele>320.0</ele><time>2026-05-02T11:07:46Z</time></trkpt><trkpt lat="39.2823162919713" lon="16.259837994139037"><ele>325.0</ele><time>2026-05-02T11:07:47Z</time></trkpt><trkpt lat="39.2824709980935" lon="16.259815126924035"><ele>330.0</ele><time>2026-05-02T11:07:48Z</time></trkpt><trkpt lat="39.28263372182391" lon="16.259786849722065"><ele>325.25</ele><time>2026-05-02T11:07:49Z</time></trkpt><trkpt lat="39.28278241584297" lon="16.25975637085131"><ele>320.5</ele><time>2026-05-02T11:07:50Z</time></trkpt><trkpt lat="39.28290786116964" lon="16.2597042145899"><ele>315.75</ele><time>2026-05-02T11:07:51Z</time></trkpt><trkpt lat="39.28300574101407" lon="16.259663092561286"><ele>311.0</ele><time>2026-05-02T11:07:52Z</time></trkpt><trkpt lat="39.283072610114246" lon="16.259613406134992"><ele>313.8</ele><time>2026-05-02T11:07:53Z</time></trkpt><trkpt lat="39.283169211452744" lon="16.25962632856911"><ele>316.6</ele><time>2026-05-02T11:07:55Z</time></trkpt><trkpt lat="39.283164625305645" lon="16.259777918672423"><ele>319.4</ele><time>2026-05-02T11:07:57Z</time></trkpt><trkpt lat="39.28311849904057" lon="16.259855985162304"><ele>322.2</ele><time>2026-05-02T11:07:58Z</time></trkpt><trkpt lat="39.283025663398156" lon="16.2599392467033"><ele>325.0</ele><time>2026-05-02T11:07:59Z</time></trkpt><trkpt lat="39.282921718615796" lon="16.259999436607384"><ele>328.5</ele><time>2026-05-02T11:08:00Z</time></trkpt><trkpt lat="39.282828326491966" lon="16.260092638362384"><ele>332.0</ele><time>2026-05-02T11:08:01Z</time></trkpt><trkpt lat="39.28272907480276" lon="16.260183946317483"><ele>335.5</ele><time>2026-05-02T11:08:02Z</time></trkpt><trkpt lat="39.28259764113021" lon="16.260257354421306"><ele>339.0</ele><time>2026-05-02T11:08:03Z</time></trkpt><trkpt lat="39.282452770801704" lon="16.26032593805837"><ele>339.0</ele><time>2026-05-02T11:08:04Z</time></trkpt><trkpt lat="39.282309199344986" lon="16.260415388547433"><ele>339.0</ele><time>2026-05-02T11:08:05Z</time></trkpt><trkpt lat="39.28216504857602" lon="16.260481116288453"><ele>339.0</ele><time>2026-05-02T11:08:06Z</time></trkpt><trkpt lat="39.282007927256444" lon="16.26052218083839"><ele>336.0</ele><time>2026-05-02T11:08:07Z</time></trkpt><trkpt lat="39.28184909322817" lon="16.26060363032807"><ele>333.0</ele><time>2026-05-02T11:08:08Z</time></trkpt><trkpt lat="39.28168628686021" lon="16.260684152379834"><ele>330.0</ele><time>2026-05-02T11:08:09Z</time></trkpt><trkpt lat="39.28153779694972" lon="16.260800483094567"><ele>334.0</ele><time>2026-05-02T11:08:10Z</time></trkpt><trkpt lat="39.28140537965857" lon="16.2609475781621"><ele>338.0</ele><time>2026-05-02T11:08:11Z</time></trkpt><trkpt lat="39.28126948336305" lon="16.26105718155706"><ele>342.0</ele><time>2026-05-02T11:08:12Z</time></trkpt><trkpt lat="39.28112476176964" lon="16.261117374666945"><ele>342.0</ele><time>2026-05-02T11:08:13Z</time></trkpt><trkpt lat="39.280968875502865" lon="16.261128644854242"><ele>342.0</ele><time>2026-05-02T11:08:14Z</time></trkpt><trkpt lat="39.280812577574466" lon="16.26110500747377"><ele>342.0</ele><time>2026-05-02T11:08:15Z</time></trkpt><trkpt lat="39.28066103777308" lon="16.261107722614287"><ele>345.3333333333333</ele><time>2026-05-02T11:08:16Z</time></trkpt><trkpt lat="39.280525074355225" lon="16.261167099124002"><ele>348.66666666666663</ele><time>2026-05-02T11:08:17Z</time></trkpt><trkpt lat="39.28040035131507" lon="16.26129880967691"><ele>352.0</ele><time>2026-05-02T11:08:18Z</time></trkpt><trkpt lat="39.28028077776124" lon="16.26147721910428"><ele>352.0</ele><time>2026-05-02T11:08:19Z</time></trkpt><trkpt lat="39.28015413088503" lon="16.261660081310747"><ele>352.0</ele><time>2026-05-02T11:08:20Z</time></trkpt><trkpt lat="39.280036845857616" lon="16.26184833193719"><ele>352.0</ele><time>2026-05-02T11:08:21Z</time></trkpt><trkpt lat="39.27995087092852" lon="16.262058180229385"><ele>352.0</ele><time>2026-05-02T11:08:21.999Z</time></trkpt><trkpt lat="39.27988187577594" lon="16.262262687456282"><ele>352.0</ele><time>2026-05-02T11:08:22.999Z</time></trkpt><trkpt lat="39.27982308686139" lon="16.262443007087803"><ele>352.0</ele><time>2026-05-02T11:08:23.999Z</time></trkpt><trkpt lat="39.27976525781911" lon="16.26259456819051"><ele>355.40000000000003</ele><time>2026-05-02T11:08:24.999Z</time></trkpt><trkpt lat="39.279704731944044" lon="16.262717140285567"><ele>358.8</ele><time>2026-05-02T11:08:25.999Z</time></trkpt><trkpt lat="39.279607210252856" lon="16.26276265304187"><ele>362.2</ele><time>2026-05-02T11:08:26.999Z</time></trkpt><trkpt lat="39.279500556774444" lon="16.262762051068613"><ele>365.6</ele><time>2026-05-02T11:08:27.999Z</time></trkpt><trkpt lat="39.27940094711628" lon="16.26272115903754"><ele>369.0</ele><time>2026-05-02T11:08:28.999Z</time></trkpt><trkpt lat="39.27929073193855" lon="16.262654836112013"><ele>369.0</ele><time>2026-05-02T11:08:29.999Z</time></trkpt><trkpt lat="39.27916270610635" lon="16.26258134981283"><ele>369.0</ele><time>2026-05-02T11:08:30.999Z</time></trkpt><trkpt lat="39.27899986216277" lon="16.262556380767617"><ele>369.0</ele><time>2026-05-02T11:08:31.999Z</time></trkpt><trkpt lat="39.278822895197024" lon="16.262571545894684"><ele>369.6666666666667</ele><time>2026-05-02T11:08:32.999Z</time></trkpt><trkpt lat="39.27863441492008" lon="16.262599557877707"><ele>370.33333333333337</ele><time>2026-05-02T11:08:33.999Z</time></trkpt><trkpt lat="39.27844131768918" lon="16.262638596536235"><ele>371.0</ele><time>2026-05-02T11:08:34.999Z</time></trkpt><trkpt lat="39.278259503459886" lon="16.262711946618044"><ele>365.0</ele><time>2026-05-02T11:08:35.999Z</time></trkpt><trkpt lat="39.27808833784962" lon="16.262831833099487"><ele>359.0</ele><time>2026-05-02T11:08:36.999Z</time></trkpt><trkpt lat="39.27790748804394" lon="16.262945932186355"><ele>353.0</ele><time>2026-05-02T11:08:37.999Z</time></trkpt><trkpt lat="39.277716761785534" lon="16.263015620609057"><ele>353.0</ele><time>2026-05-02T11:08:38.999Z</time></trkpt><trkpt lat="39.277541616146095" lon="16.26308950907937"><ele>353.0</ele><time>2026-05-02T11:08:39.999Z</time></trkpt><trkpt lat="39.2773904563638" lon="16.26323621527201"><ele>353.0</ele><time>2026-05-02T11:08:40.999Z</time></trkpt><trkpt lat="39.27725618484778" lon="16.263480562265435"><ele>366.0</ele><time>2026-05-02T11:08:41.999Z</time></trkpt><trkpt lat="39.277117414450885" lon="16.263722098363736"><ele>379.0</ele><time>2026-05-02T11:08:42.999Z</time></trkpt><trkpt lat="39.276995680974366" lon="16.263958398656346"><ele>385.3333333333333</ele><time>2026-05-02T11:08:43.999Z</time></trkpt><trkpt lat="39.27688487405916" lon="16.264152280026114"><ele>391.66666666666663</ele><time>2026-05-02T11:08:44.999Z</time></trkpt><trkpt lat="39.27678245690061" lon="16.264287563557588"><ele>398.0</ele><time>2026-05-02T11:08:45.999Z</time></trkpt><trkpt lat="39.276672785356084" lon="16.26437860957736"><ele>398.0</ele><time>2026-05-02T11:08:46.999Z</time></trkpt><trkpt lat="39.2765552726776" lon="16.264409937578826"><ele>398.0</ele><time>2026-05-02T11:08:47.999Z</time></trkpt><trkpt lat="39.27645857279616" lon="16.264376718797017"><ele>398.0</ele><time>2026-05-02T11:08:48.999Z</time></trkpt><trkpt lat="39.276386918181196" lon="16.26428058053819"><ele>398.0</ele><time>2026-05-02T11:08:49.999Z</time></trkpt><trkpt lat="39.27634606818323" lon="16.2641274355992"><ele>398.0</ele><time>2026-05-02T11:08:50.999Z</time></trkpt><trkpt lat="39.27633831072422" lon="16.263954323106287"><ele>396.25</ele><time>2026-05-02T11:08:51.999Z</time></trkpt><trkpt lat="39.27630730928084" lon="16.26379972726292"><ele>394.5</ele><time>2026-05-02T11:08:52.999Z</time></trkpt><trkpt lat="39.27622731298228" lon="16.26368525256521"><ele>392.75</ele><time>2026-05-02T11:08:53.999Z</time></trkpt><trkpt lat="39.276094664641704" lon="16.263606461242393"><ele>391.0</ele><time>2026-05-02T11:08:54.999Z</time></trkpt><trkpt lat="39.27591884809148" lon="16.263554005090786"><ele>391.0</ele><time>2026-05-02T11:08:55.999Z</time></trkpt><trkpt lat="39.27573665798509" lon="16.263503323087555"><ele>391.0</ele><time>2026-05-02T11:08:56.999Z</time></trkpt><trkpt lat="39.275532650581376" lon="16.263493713590872"><ele>391.0</ele><time>2026-05-02T11:08:57.999Z</time></trkpt><trkpt lat="39.27532025707113" lon="16.26353665492676"><ele>392.33333333333337</ele><time>2026-05-02T11:08:58.999Z</time></trkpt><trkpt lat="39.2751158801493" lon="16.26356584940785"><ele>393.66666666666663</ele><time>2026-05-02T11:09:00Z</time></trkpt><trkpt lat="39.274921191923355" lon="16.263551929432307"><ele>395.0</ele><time>2026-05-02T11:09:01.001Z</time></trkpt><trkpt lat="39.274733422511105" lon="16.263571046103248"><ele>391.3333333333333</ele><time>2026-05-02T11:09:02Z</time></trkpt><trkpt lat="39.274556041940336" lon="16.263659760252164"><ele>387.66666666666663</ele><time>2026-05-02T11:09:03Z</time></trkpt><trkpt lat="39.27438080483608" lon="16.26378283625799"><ele>384.0</ele><time>2026-05-02T11:09:04.001Z</time></trkpt><trkpt lat="39.27419563335814" lon="16.26385201280701"><ele>384.0</ele><time>2026-05-02T11:09:05Z</time></trkpt><trkpt lat="39.27400038310985" lon="16.26387797938724"><ele>384.0</ele><time>2026-05-02T11:09:06Z</time></trkpt><trkpt lat="39.27380864975659" lon="16.26394523534673"><ele>384.0</ele><time>2026-05-02T11:09:07Z</time></trkpt><trkpt lat="39.27363376226002" lon="16.264068459077667"><ele>391.33333333333337</ele><time>2026-05-02T11:09:08Z</time></trkpt><trkpt lat="39.273485328758234" lon="16.26421526480532"><ele>398.6666666666667</ele><time>2026-05-02T11:09:09Z</time></trkpt><trkpt lat="39.27337049494355" lon="16.264387443145925"><ele>406.0</ele><time>2026-05-02T11:09:10Z</time></trkpt><trkpt lat="39.2733032027134" lon="16.26457392422808"><ele>406.0</ele><time>2026-05-02T11:09:11Z</time></trkpt><trkpt lat="39.27326188844851" lon="16.26475740434346"><ele>406.0</ele><time>2026-05-02T11:09:12Z</time></trkpt><trkpt lat="39.273207878192316" lon="16.264907187473515"><ele>406.0</ele><time>2026-05-02T11:09:13Z</time></trkpt><trkpt lat="39.273115671776694" lon="16.26499844195395"><ele>406.0</ele><time>2026-05-02T11:09:14Z</time></trkpt><trkpt lat="39.27300387438874" lon="16.26502773723161"><ele>408.0</ele><time>2026-05-02T11:09:15Z</time></trkpt><trkpt lat="39.27287616278193" lon="16.265008236743714"><ele>410.0</ele><time>2026-05-02T11:09:16Z</time></trkpt><trkpt lat="39.272742230146875" lon="16.26499091131037"><ele>412.0</ele><time>2026-05-02T11:09:17Z</time></trkpt><trkpt lat="39.27261679014568" lon="16.2650151526714"><ele>414.0</ele><time>2026-05-02T11:09:18Z</time></trkpt><trkpt lat="39.272511072241706" lon="16.26509872735269"><ele>414.0</ele><time>2026-05-02T11:09:19Z</time></trkpt><trkpt lat="39.2724387932755" lon="16.265236272993334"><ele>414.0</ele><time>2026-05-02T11:09:20Z</time></trkpt><trkpt lat="39.272409384395026" lon="16.265407760693154"><ele>414.0</ele><time>2026-05-02T11:09:21Z</time></trkpt><trkpt lat="39.27242514987923" lon="16.265604619992743"><ele>414.0</ele><time>2026-05-02T11:09:22Z</time></trkpt><trkpt lat="39.272482872973065" lon="16.265798735829513"><ele>419.0</ele><time>2026-05-02T11:09:23Z</time></trkpt><trkpt lat="39.272572483573704" lon="16.26597062277605"><ele>424.0</ele><time>2026-05-02T11:09:24Z</time></trkpt><trkpt lat="39.27267528253085" lon="16.26612454892505"><ele>429.0</ele><time>2026-05-02T11:09:25Z</time></trkpt><trkpt lat="39.27274930361915" lon="16.266284972224206"><ele>429.0</ele><time>2026-05-02T11:09:26Z</time></trkpt><trkpt lat="39.27282497945251" lon="16.266422757170897"><ele>429.0</ele><time>2026-05-02T11:09:27Z</time></trkpt><trkpt lat="39.27288919195836" lon="16.266546459052876"><ele>429.0</ele><time>2026-05-02T11:09:28Z</time></trkpt><trkpt lat="39.2729397410994" lon="16.2666765791744"><ele>429.0</ele><time>2026-05-02T11:09:29Z</time></trkpt><trkpt lat="39.27296451914497" lon="16.266812682993056"><ele>429.0</ele><time>2026-05-02T11:09:30Z</time></trkpt><trkpt lat="39.27295590713364" lon="16.266948875516647"><ele>429.0</ele><time>2026-05-02T11:09:31Z</time></trkpt><trkpt lat="39.272917424114574" lon="16.267077277241075"><ele>429.0</ele><time>2026-05-02T11:09:32Z</time></trkpt><trkpt lat="39.27286105058198" lon="16.267206377435954"><ele>429.0</ele><time>2026-05-02T11:09:33Z</time></trkpt><trkpt lat="39.272793077237935" lon="16.267336684623587"><ele>429.0</ele><time>2026-05-02T11:09:34Z</time></trkpt><trkpt lat="39.272715986558204" lon="16.267464895982787"><ele>433.0</ele><time>2026-05-02T11:09:35Z</time></trkpt><trkpt lat="39.27263008740165" lon="16.267597088214256"><ele>437.0</ele><time>2026-05-02T11:09:36Z</time></trkpt><trkpt lat="39.272533696587665" lon="16.267742920218993"><ele>441.0</ele><time>2026-05-02T11:09:37Z</time></trkpt><trkpt lat="39.272443204230406" lon="16.267933344144932"><ele>438.33333333333337</ele><time>2026-05-02T11:09:38Z</time></trkpt><trkpt lat="39.272315999686576" lon="16.26812196684278"><ele>435.6666666666667</ele><time>2026-05-02T11:09:39Z</time></trkpt><trkpt lat="39.27217221330918" lon="16.268321704965572"><ele>433.0</ele><time>2026-05-02T11:09:40Z</time></trkpt><trkpt lat="39.27203012390521" lon="16.268522640308216"><ele>434.0</ele><time>2026-05-02T11:09:41Z</time></trkpt><trkpt lat="39.271870070546605" lon="16.268719531730095"><ele>435.0</ele><time>2026-05-02T11:09:42Z</time></trkpt><trkpt lat="39.27172072388801" lon="16.26893901621409"><ele>436.0</ele><time>2026-05-02T11:09:43Z</time></trkpt><trkpt lat="39.27157959076933" lon="16.269176958894185"><ele>429.5</ele><time>2026-05-02T11:09:44Z</time></trkpt><trkpt lat="39.27142278483074" lon="16.269400515265744"><ele>423.0</ele><time>2026-05-02T11:09:45Z</time></trkpt><trkpt lat="39.271268788289774" lon="16.269625438176348"><ele>427.0</ele><time>2026-05-02T11:09:46Z</time></trkpt><trkpt lat="39.271116960130946" lon="16.26984431235162"><ele>431.0</ele><time>2026-05-02T11:09:47Z</time></trkpt><trkpt lat="39.27095985839075" lon="16.27004796665083"><ele>431.0</ele><time>2026-05-02T11:09:48Z</time></trkpt><trkpt lat="39.27079211053029" lon="16.270232482736365"><ele>431.0</ele><time>2026-05-02T11:09:49Z</time></trkpt><trkpt lat="39.270608666383794" lon="16.27039224487254"><ele>431.0</ele><time>2026-05-02T11:09:50Z</time></trkpt><trkpt lat="39.27041568973987" lon="16.27054307284589"><ele>432.3333333333333</ele><time>2026-05-02T11:09:51Z</time></trkpt><trkpt lat="39.27021999873624" lon="16.270689735572844"><ele>433.66666666666663</ele><time>2026-05-02T11:09:52Z</time></trkpt><trkpt lat="39.27003044227975" lon="16.270835567984708"><ele>435.0</ele><time>2026-05-02T11:09:53Z</time></trkpt><trkpt lat="39.269856558301946" lon="16.270977651336754"><ele>436.33333333333337</ele><time>2026-05-02T11:09:54Z</time></trkpt><trkpt lat="39.26971473643362" lon="16.271133579187456"><ele>437.6666666666667</ele><time>2026-05-02T11:09:55Z</time></trkpt><trkpt lat="39.26960393049992" lon="16.2713254478772"><ele>439.0</ele><time>2026-05-02T11:09:56Z</time></trkpt><trkpt lat="39.26952121491123" lon="16.271556924367506"><ele>439.0</ele><time>2026-05-02T11:09:57Z</time></trkpt><trkpt lat="39.26945431890276" lon="16.271809731959937"><ele>439.0</ele><time>2026-05-02T11:09:58Z</time></trkpt><trkpt lat="39.26937605940992" lon="16.272062890259118"><ele>439.0</ele><time>2026-05-02T11:09:59Z</time></trkpt><trkpt lat="39.269282015067894" lon="16.272312317889757"><ele>438.0</ele><time>2026-05-02T11:10:00Z</time></trkpt><trkpt lat="39.269171475689504" lon="16.272557855489474"><ele>437.0</ele><time>2026-05-02T11:10:01Z</time></trkpt><trkpt lat="39.26904445605811" lon="16.272796959617757"><ele>436.0</ele><time>2026-05-02T11:10:02Z</time></trkpt><trkpt lat="39.26890506454233" lon="16.273024986719175"><ele>435.33333333333337</ele><time>2026-05-02T11:10:03Z</time></trkpt><trkpt lat="39.2687548353528" lon="16.273224111668828"><ele>434.66666666666663</ele><time>2026-05-02T11:10:04Z</time></trkpt><trkpt lat="39.26858867468229" lon="16.273390988564255"><ele>434.0</ele><time>2026-05-02T11:10:05Z</time></trkpt><trkpt lat="39.26841170015074" lon="16.27354553608524"><ele>434.0</ele><time>2026-05-02T11:10:06Z</time></trkpt><trkpt lat="39.2682308881494" lon="16.273699626348968"><ele>434.0</ele><time>2026-05-02T11:10:07Z</time></trkpt><trkpt lat="39.26804734692437" lon="16.27384980333799"><ele>434.0</ele><time>2026-05-02T11:10:08Z</time></trkpt><trkpt lat="39.267858664600524" lon="16.27398151773333"><ele>435.3333333333333</ele><time>2026-05-02T11:10:09Z</time></trkpt><trkpt lat="39.26766218648493" lon="16.27407911281507"><ele>436.66666666666663</ele><time>2026-05-02T11:10:10Z</time></trkpt><trkpt lat="39.26746301573069" lon="16.274145352243906"><ele>438.0</ele><time>2026-05-02T11:10:11Z</time></trkpt><trkpt lat="39.26727586976863" lon="16.274209112711976"><ele>439.33333333333337</ele><time>2026-05-02T11:10:12Z</time></trkpt><trkpt lat="39.26711534302574" lon="16.274302460042225"><ele>440.6666666666667</ele><time>2026-05-02T11:10:13Z</time></trkpt><trkpt lat="39.266990783114515" lon="16.274444568604686"><ele>442.0</ele><time>2026-05-02T11:10:14Z</time></trkpt><trkpt lat="39.26689421516632" lon="16.274622448708573"><ele>444.6666666666667</ele><time>2026-05-02T11:10:15Z</time></trkpt><trkpt lat="39.26681758324956" lon="16.274835147970478"><ele>447.33333333333337</ele><time>2026-05-02T11:10:16Z</time></trkpt><trkpt lat="39.26674856357473" lon="16.275071969344445"><ele>450.0</ele><time>2026-05-02T11:10:17Z</time></trkpt><trkpt lat="39.26668538568805" lon="16.275306943010555"><ele>450.0</ele><time>2026-05-02T11:10:18Z</time></trkpt><trkpt lat="39.26662076178445" lon="16.27553881050553"><ele>450.0</ele><time>2026-05-02T11:10:19Z</time></trkpt><trkpt lat="39.26655116076541" lon="16.27576447518605"><ele>450.0</ele><time>2026-05-02T11:10:20Z</time></trkpt><trkpt lat="39.266476001256905" lon="16.27598376826009"><ele>448.0</ele><time>2026-05-02T11:10:21Z</time></trkpt><trkpt lat="39.266384507878726" lon="16.276186083215464"><ele>446.0</ele><time>2026-05-02T11:10:22Z</time></trkpt><trkpt lat="39.26626096301502" lon="16.27636054529567"><ele>444.0</ele><time>2026-05-02T11:10:22.999Z</time></trkpt><trkpt lat="39.26611111241992" lon="16.276511081474634"><ele>444.0</ele><time>2026-05-02T11:10:23.999Z</time></trkpt><trkpt lat="39.265945384750815" lon="16.276645478876457"><ele>444.0</ele><time>2026-05-02T11:10:24.999Z</time></trkpt><trkpt lat="39.26576233133378" lon="16.276761243778882"><ele>444.0</ele><time>2026-05-02T11:10:25.999Z</time></trkpt><trkpt lat="39.265566299215784" lon="16.276862999944047"><ele>442.66666666666663</ele><time>2026-05-02T11:10:26.999Z</time></trkpt><trkpt lat="39.26536164077426" lon="16.27696355274357"><ele>441.3333333333333</ele><time>2026-05-02T11:10:27.999Z</time></trkpt><trkpt lat="39.26515591453638" lon="16.277065284641477"><ele>440.0</ele><time>2026-05-02T11:10:28.999Z</time></trkpt><trkpt lat="39.26495478191633" lon="16.277162103307067"><ele>439.66666666666663</ele><time>2026-05-02T11:10:29.999Z</time></trkpt><trkpt lat="39.26476018614526" lon="16.2772456266026"><ele>439.33333333333337</ele><time>2026-05-02T11:10:30.999Z</time></trkpt><trkpt lat="39.264579331938606" lon="16.277318956515153"><ele>439.0</ele><time>2026-05-02T11:10:31.999Z</time></trkpt><trkpt lat="39.26441736152362" lon="16.27740282060275"><ele>439.0</ele><time>2026-05-02T11:10:32.999Z</time></trkpt><trkpt lat="39.26428672320888" lon="16.277520760851814"><ele>439.0</ele><time>2026-05-02T11:10:33.999Z</time></trkpt><trkpt lat="39.26417722025258" lon="16.277679574909588"><ele>439.0</ele><time>2026-05-02T11:10:34.999Z</time></trkpt><trkpt lat="39.264075826780704" lon="16.2778477804967"><ele>435.6666666666667</ele><time>2026-05-02T11:10:35.999Z</time></trkpt><trkpt lat="39.26394229288415" lon="16.277971460748397"><ele>432.33333333333337</ele><time>2026-05-02T11:10:36.999Z</time></trkpt><trkpt lat="39.26378812316929" lon="16.278037411526917"><ele>429.0</ele><time>2026-05-02T11:10:37.999Z</time></trkpt><trkpt lat="39.26363843564541" lon="16.278126148167367"><ele>428.66666666666663</ele><time>2026-05-02T11:10:38.999Z</time></trkpt><trkpt lat="39.26350711497615" lon="16.27826015486209"><ele>428.3333333333333</ele><time>2026-05-02T11:10:39.999Z</time></trkpt><trkpt lat="39.26339606707497" lon="16.278424182494753"><ele>428.0</ele><time>2026-05-02T11:10:40.999Z</time></trkpt><trkpt lat="39.26332021486357" lon="16.278624797659"><ele>428.0</ele><time>2026-05-02T11:10:41.999Z</time></trkpt><trkpt lat="39.26327885972663" lon="16.27885712703563"><ele>428.0</ele><time>2026-05-02T11:10:42.999Z</time></trkpt><trkpt lat="39.26325770461017" lon="16.27909767426255"><ele>428.0</ele><time>2026-05-02T11:10:43.999Z</time></trkpt><trkpt lat="39.26322899880491" lon="16.279325029843406"><ele>427.0</ele><time>2026-05-02T11:10:44.999Z</time></trkpt><trkpt lat="39.26315911592338" lon="16.279529242236162"><ele>426.0</ele><time>2026-05-02T11:10:45.999Z</time></trkpt><trkpt lat="39.26304175237584" lon="16.279706958419016"><ele>425.0</ele><time>2026-05-02T11:10:46.999Z</time></trkpt><trkpt lat="39.26288100225378" lon="16.27985884083826"><ele>429.0</ele><time>2026-05-02T11:10:47.999Z</time></trkpt><trkpt lat="39.26268856403096" lon="16.279994011047318"><ele>433.0</ele><time>2026-05-02T11:10:48.999Z</time></trkpt><trkpt lat="39.26248610537708" lon="16.28014433307627"><ele>433.0</ele><time>2026-05-02T11:10:49.999Z</time></trkpt><trkpt lat="39.26228390399124" lon="16.28031574978131"><ele>433.0</ele><time>2026-05-02T11:10:50.999Z</time></trkpt><trkpt lat="39.26207895002559" lon="16.280510665601128"><ele>437.0</ele><time>2026-05-02T11:10:51.999Z</time></trkpt><trkpt lat="39.261872803172295" lon="16.28070394094086"><ele>441.0</ele><time>2026-05-02T11:10:52.999Z</time></trkpt><trkpt lat="39.261652288925916" lon="16.280868150745885"><ele>443.0</ele><time>2026-05-02T11:10:53.999Z</time></trkpt><trkpt lat="39.261427386209064" lon="16.28100720963794"><ele>445.0</ele><time>2026-05-02T11:10:54.999Z</time></trkpt><trkpt lat="39.26121521483505" lon="16.281166083201875"><ele>445.0</ele><time>2026-05-02T11:10:55.999Z</time></trkpt><trkpt lat="39.2610265556537" lon="16.281346880648766"><ele>445.0</ele><time>2026-05-02T11:10:56.999Z</time></trkpt><trkpt lat="39.26086164337544" lon="16.281549467263385"><ele>449.0</ele><time>2026-05-02T11:10:57.999Z</time></trkpt><trkpt lat="39.26072105840749" lon="16.281790341224564"><ele>453.0</ele><time>2026-05-02T11:10:58.999Z</time></trkpt><trkpt lat="39.260586236040886" lon="16.28206041009351"><ele>453.0</ele><time>2026-05-02T11:10:59.999Z</time></trkpt><trkpt lat="39.26045701059184" lon="16.282329887038454"><ele>453.0</ele><time>2026-05-02T11:11:00.999Z</time></trkpt><trkpt lat="39.260339455425814" lon="16.282592753957616"><ele>453.0</ele><time>2026-05-02T11:11:01.999Z</time></trkpt><trkpt lat="39.26024332599633" lon="16.282842434529712"><ele>453.0</ele><time>2026-05-02T11:11:02.999Z</time></trkpt><trkpt lat="39.26016596966511" lon="16.283064641753977"><ele>453.0</ele><time>2026-05-02T11:11:03.999Z</time></trkpt><trkpt lat="39.26009479356825" lon="16.283262963324056"><ele>454.25</ele><time>2026-05-02T11:11:04.999Z</time></trkpt><trkpt lat="39.260029377667834" lon="16.283443900876517"><ele>455.5</ele><time>2026-05-02T11:11:06Z</time></trkpt><trkpt lat="39.25997200150679" lon="16.283610855977336"><ele>456.75</ele><time>2026-05-02T11:11:07Z</time></trkpt><trkpt lat="39.259915311821175" lon="16.283782451242256"><ele>458.0</ele><time>2026-05-02T11:11:08Z</time></trkpt><trkpt lat="39.259857319553724" lon="16.283948145134588"><ele>460.25</ele><time>2026-05-02T11:11:09Z</time></trkpt><trkpt lat="39.259800363460364" lon="16.284110001258313"><ele>462.5</ele><time>2026-05-02T11:11:10Z</time></trkpt><trkpt lat="39.25974545668741" lon="16.284268282201865"><ele>464.75</ele><time>2026-05-02T11:11:11Z</time></trkpt><trkpt lat="39.25968999692543" lon="16.28442513957499"><ele>467.0</ele><time>2026-05-02T11:11:12Z</time></trkpt><trkpt lat="39.25963343571325" lon="16.284578372594105"><ele>467.75</ele><time>2026-05-02T11:11:13Z</time></trkpt><trkpt lat="39.25958012740505" lon="16.284719946539532"><ele>468.5</ele><time>2026-05-02T11:11:14Z</time></trkpt><trkpt lat="39.259532327343024" lon="16.28484070132011"><ele>469.25</ele><time>2026-05-02T11:11:15Z</time></trkpt><trkpt lat="39.25947089207846" lon="16.28495830025478"><ele>470.0</ele><time>2026-05-02T11:11:16Z</time></trkpt><trkpt lat="39.25938825628698" lon="16.285065058516864"><ele>470.25</ele><time>2026-05-02T11:11:17Z</time></trkpt><trkpt lat="39.25928775938162" lon="16.285159774920857"><ele>470.5</ele><time>2026-05-02T11:11:18Z</time></trkpt><trkpt lat="39.259180698497175" lon="16.285246114764867"><ele>470.75</ele><time>2026-05-02T11:11:19Z</time></trkpt><trkpt lat="39.259068255285314" lon="16.285334953127737"><ele>471.0</ele><time>2026-05-02T11:11:20Z</time></trkpt><trkpt lat="39.258949531946506" lon="16.285424677578387"><ele>473.33333333333337</ele><time>2026-05-02T11:11:21Z</time></trkpt><trkpt lat="39.25881651651633" lon="16.2855074431765"><ele>475.6666666666667</ele><time>2026-05-02T11:11:22Z</time></trkpt><trkpt lat="39.25866961273523" lon="16.285584801656142"><ele>478.0</ele><time>2026-05-02T11:11:23Z</time></trkpt><trkpt lat="39.25850087614154" lon="16.28565532149236"><ele>478.0</ele><time>2026-05-02T11:11:24Z</time></trkpt><trkpt lat="39.258319887085264" lon="16.28571713014877"><ele>478.0</ele><time>2026-05-02T11:11:25Z</time></trkpt><trkpt lat="39.25812451561771" lon="16.285774875158825"><ele>478.0</ele><time>2026-05-02T11:11:26Z</time></trkpt><trkpt lat="39.25792253866432" lon="16.285832577371"><ele>480.0</ele><time>2026-05-02T11:11:27Z</time></trkpt><trkpt lat="39.2577264684277" lon="16.285891367085878"><ele>482.0</ele><time>2026-05-02T11:11:28Z</time></trkpt><trkpt lat="39.25753523715952" lon="16.28594839551942"><ele>484.0</ele><time>2026-05-02T11:11:29Z</time></trkpt><trkpt lat="39.25735338173149" lon="16.286000211587567"><ele>484.6666666666667</ele><time>2026-05-02T11:11:30Z</time></trkpt><trkpt lat="39.257184717631375" lon="16.28605099835958"><ele>485.33333333333337</ele><time>2026-05-02T11:11:31Z</time></trkpt><trkpt lat="39.257032487245446" lon="16.286100036655174"><ele>486.0</ele><time>2026-05-02T11:11:32Z</time></trkpt><trkpt lat="39.25689124254787" lon="16.286138435001725"><ele>486.0</ele><time>2026-05-02T11:11:33Z</time></trkpt><trkpt lat="39.256759262248394" lon="16.28615871343548"><ele>486.0</ele><time>2026-05-02T11:11:34Z</time></trkpt><trkpt lat="39.25663417459506" lon="16.286159697927474"><ele>486.0</ele><time>2026-05-02T11:11:35Z</time></trkpt><trkpt lat="39.256524106585374" lon="16.286146707697988"><ele>486.0</ele><time>2026-05-02T11:11:36Z</time></trkpt><trkpt lat="39.25642559607845" lon="16.286131431274775"><ele>485.4</ele><time>2026-05-02T11:11:37Z</time></trkpt><trkpt lat="39.25633634282923" lon="16.28611308802623"><ele>484.8</ele><time>2026-05-02T11:11:38Z</time></trkpt><trkpt lat="39.25623999281582" lon="16.2860900445129"><ele>484.19999999999993</ele><time>2026-05-02T11:11:39Z</time></trkpt><trkpt lat="39.25614374101239" lon="16.2860713481942"><ele>483.59999999999997</ele><time>2026-05-02T11:11:40Z</time></trkpt><trkpt lat="39.256050616904574" lon="16.28605295447448"><ele>483.0</ele><time>2026-05-02T11:11:41Z</time></trkpt><trkpt lat="39.25596598861709" lon="16.28603193782705"><ele>483.0</ele><time>2026-05-02T11:11:42Z</time></trkpt><trkpt lat="39.25588304887893" lon="16.286007130753376"><ele>483.0</ele><time>2026-05-02T11:11:43Z</time></trkpt><trkpt lat="39.2557998643504" lon="16.285982580974466"><ele>483.0</ele><time>2026-05-02T11:11:44Z</time></trkpt><trkpt lat="39.25572722418513" lon="16.285956692731396"><ele>483.0</ele><time>2026-05-02T11:11:45Z</time></trkpt><trkpt lat="39.25564906481849" lon="16.285909199300704"><ele>483.0</ele><time>2026-05-02T11:11:47Z</time></trkpt><trkpt lat="39.25557610099544" lon="16.285856028380177"><ele>483.0</ele><time>2026-05-02T11:11:49Z</time></trkpt><trkpt lat="39.25547625937731" lon="16.285827383852336"><ele>481.59999999999997</ele><time>2026-05-02T11:11:51Z</time></trkpt><trkpt lat="39.25535665255356" lon="16.28583688485235"><ele>480.19999999999993</ele><time>2026-05-02T11:11:53Z</time></trkpt><trkpt lat="39.255270015460724" lon="16.285851956912534"><ele>478.8</ele><time>2026-05-02T11:11:55Z</time></trkpt><trkpt lat="39.255167868595045" lon="16.285867853185103"><ele>477.4</ele><time>2026-05-02T11:11:58Z</time></trkpt><trkpt lat="39.255060490724" lon="16.285883195825335"><ele>476.0</ele><time>2026-05-02T11:12:00Z</time></trkpt><trkpt lat="39.25493478898758" lon="16.28589609460531"><ele>475.99999999999994</ele><time>2026-05-02T11:12:02Z</time></trkpt><trkpt lat="39.25486309699504" lon="16.285906898656606"><ele>476.0</ele><time>2026-05-02T11:12:03Z</time></trkpt><trkpt lat="39.25478791387747" lon="16.285921679115287"><ele>476.0</ele><time>2026-05-02T11:12:04Z</time></trkpt><trkpt lat="39.25471421446358" lon="16.28593634263505"><ele>476.0</ele><time>2026-05-02T11:12:05Z</time></trkpt><trkpt lat="39.254643732933005" lon="16.28595540240575"><ele>475.99999999999994</ele><time>2026-05-02T11:12:06Z</time></trkpt><trkpt lat="39.254576367039846" lon="16.28598231482919"><ele>476.0</ele><time>2026-05-02T11:12:07Z</time></trkpt><trkpt lat="39.25449236479992" lon="16.286022417676527"><ele>476.4</ele><time>2026-05-02T11:12:08Z</time></trkpt><trkpt lat="39.254392921325774" lon="16.286068013152047"><ele>476.8</ele><time>2026-05-02T11:12:09Z</time></trkpt><trkpt lat="39.25428876890298" lon="16.286107939949662"><ele>477.19999999999993</ele><time>2026-05-02T11:12:10Z</time></trkpt><trkpt lat="39.25418812435162" lon="16.286149487956116"><ele>477.59999999999997</ele><time>2026-05-02T11:12:11Z</time></trkpt><trkpt lat="39.254080854052724" lon="16.286194359724238"><ele>478.0</ele><time>2026-05-02T11:12:12Z</time></trkpt><trkpt lat="39.25397028570176" lon="16.28625815406515"><ele>473.25</ele><time>2026-05-02T11:12:13Z</time></trkpt><trkpt lat="39.25386295303285" lon="16.286334819027722"><ele>468.5</ele><time>2026-05-02T11:12:14Z</time></trkpt><trkpt lat="39.25376143900145" lon="16.28642548502502"><ele>463.75</ele><time>2026-05-02T11:12:15Z</time></trkpt><trkpt lat="39.253669808349386" lon="16.286519719898823"><ele>459.0</ele><time>2026-05-02T11:12:16Z</time></trkpt><trkpt lat="39.25358402900371" lon="16.286618193627955"><ele>459.0</ele><time>2026-05-02T11:12:17Z</time></trkpt><trkpt lat="39.25350824271159" lon="16.28673573200117"><ele>459.0</ele><time>2026-05-02T11:12:18Z</time></trkpt><trkpt lat="39.253450976792735" lon="16.28686897711437"><ele>459.0</ele><time>2026-05-02T11:12:19Z</time></trkpt><trkpt lat="39.25342179180373" lon="16.28701889114146"><ele>459.0</ele><time>2026-05-02T11:12:20Z</time></trkpt><trkpt lat="39.25339804544098" lon="16.287158994649843"><ele>459.79999999999995</ele><time>2026-05-02T11:12:21Z</time></trkpt><trkpt lat="39.253359744004314" lon="16.28728465475032"><ele>460.59999999999997</ele><time>2026-05-02T11:12:22Z</time></trkpt><trkpt lat="39.25330005275597" lon="16.28739525975122"><ele>461.4</ele><time>2026-05-02T11:12:23Z</time></trkpt><trkpt lat="39.25322545701042" lon="16.28748705149427"><ele>462.2</ele><time>2026-05-02T11:12:24Z</time></trkpt><trkpt lat="39.25314495959874" lon="16.287566310200305"><ele>463.0</ele><time>2026-05-02T11:12:25Z</time></trkpt><trkpt lat="39.25305894161211" lon="16.287639783234216"><ele>464.2</ele><time>2026-05-02T11:12:25.999Z</time></trkpt><trkpt lat="39.252974449025594" lon="16.28772769992748"><ele>465.4</ele><time>2026-05-02T11:12:26.999Z</time></trkpt><trkpt lat="39.252904043637365" lon="16.287838544753477"><ele>466.59999999999997</ele><time>2026-05-02T11:12:27.999Z</time></trkpt><trkpt lat="39.252854903626215" lon="16.28796896410251"><ele>467.79999999999995</ele><time>2026-05-02T11:12:28.999Z</time></trkpt><trkpt lat="39.252826044373776" lon="16.288111282143287"><ele>469.0</ele><time>2026-05-02T11:12:29.999Z</time></trkpt><trkpt lat="39.25280571065875" lon="16.28825345515954"><ele>471.6</ele><time>2026-05-02T11:12:30.999Z</time></trkpt><trkpt lat="39.25279187309107" lon="16.2883891029287"><ele>474.2</ele><time>2026-05-02T11:12:31.999Z</time></trkpt><trkpt lat="39.252778605037285" lon="16.288520850072434"><ele>476.80000000000007</ele><time>2026-05-02T11:12:32.999Z</time></trkpt><trkpt lat="39.252761055244974" lon="16.288653918055804"><ele>479.40000000000003</ele><time>2026-05-02T11:12:33.999Z</time></trkpt><trkpt lat="39.252738286076266" lon="16.2887840032682"><ele>482.0</ele><time>2026-05-02T11:12:34.999Z</time></trkpt><trkpt lat="39.25270343232121" lon="16.288907766637834"><ele>481.5</ele><time>2026-05-02T11:12:35.999Z</time></trkpt><trkpt lat="39.252644050040175" lon="16.289023571334592"><ele>481.0</ele><time>2026-05-02T11:12:36.999Z</time></trkpt><trkpt lat="39.25255828673397" lon="16.289123565076554"><ele>480.5</ele><time>2026-05-02T11:12:37.999Z</time></trkpt><trkpt lat="39.252455933721514" lon="16.289206129940105"><ele>480.0</ele><time>2026-05-02T11:12:38.999Z</time></trkpt><trkpt lat="39.25233818261027" lon="16.289258671278347"><ele>478.66666666666663</ele><time>2026-05-02T11:12:39.999Z</time></trkpt><trkpt lat="39.25221651055934" lon="16.289326639795526"><ele>477.3333333333333</ele><time>2026-05-02T11:12:40.999Z</time></trkpt><trkpt lat="39.25207393367164" lon="16.28940628618921"><ele>476.0</ele><time>2026-05-02T11:12:41.999Z</time></trkpt><trkpt lat="39.251918475699505" lon="16.28949252610687"><ele>476.0</ele><time>2026-05-02T11:12:42.999Z</time></trkpt><trkpt lat="39.251764707061696" lon="16.289587948304057"><ele>476.0</ele><time>2026-05-02T11:12:43.999Z</time></trkpt><trkpt lat="39.25162031170657" lon="16.28970115219335"><ele>476.0</ele><time>2026-05-02T11:12:44.999Z</time></trkpt><trkpt lat="39.25148130978422" lon="16.289787842001555"><ele>476.0</ele><time>2026-05-02T11:12:45.999Z</time></trkpt><trkpt lat="39.25135039325538" lon="16.289861623037257"><ele>476.0</ele><time>2026-05-02T11:12:46.999Z</time></trkpt><trkpt lat="39.251230508045445" lon="16.289922078541654"><ele>476.0</ele><time>2026-05-02T11:12:47.999Z</time></trkpt><trkpt lat="39.25112384186715" lon="16.289980035738726"><ele>476.0</ele><time>2026-05-02T11:12:48.999Z</time></trkpt><trkpt lat="39.25101875865899" lon="16.2900564717081"><ele>476.0</ele><time>2026-05-02T11:12:49.999Z</time></trkpt><trkpt lat="39.2508935997209" lon="16.29013353248634"><ele>476.0</ele><time>2026-05-02T11:12:50.999Z</time></trkpt><trkpt lat="39.250786745694015" lon="16.290271327603048"><ele>476.0</ele><time>2026-05-02T11:12:51.999Z</time></trkpt><trkpt lat="39.250673450503534" lon="16.290401512369865"><ele>476.0</ele><time>2026-05-02T11:12:52.999Z</time></trkpt><trkpt lat="39.25057229583069" lon="16.290534617178558"><ele>479.5</ele><time>2026-05-02T11:12:53.999Z</time></trkpt><trkpt lat="39.25046131177632" lon="16.290646565048345"><ele>483.0</ele><time>2026-05-02T11:12:54.999Z</time></trkpt><trkpt lat="39.25033513702332" lon="16.290717182789013"><ele>486.5</ele><time>2026-05-02T11:12:55.999Z</time></trkpt><trkpt lat="39.25020064074067" lon="16.29073384914087"><ele>490.0</ele><time>2026-05-02T11:12:56.999Z</time></trkpt><trkpt lat="39.25006074246986" lon="16.290716797463375"><ele>490.0</ele><time>2026-05-02T11:12:57.999Z</time></trkpt><trkpt lat="39.249927782739604" lon="16.290656611729464"><ele>490.0</ele><time>2026-05-02T11:12:58.999Z</time></trkpt><trkpt lat="39.24981338123926" lon="16.290594523420747"><ele>490.0</ele><time>2026-05-02T11:12:59.999Z</time></trkpt><trkpt lat="39.24971295636723" lon="16.290565757988574"><ele>490.0</ele><time>2026-05-02T11:13:00.999Z</time></trkpt><trkpt lat="39.24962439185778" lon="16.29059369396775"><ele>487.0</ele><time>2026-05-02T11:13:01.999Z</time></trkpt><trkpt lat="39.249552412434575" lon="16.29066616830837"><ele>484.0</ele><time>2026-05-02T11:13:02.999Z</time></trkpt><trkpt lat="39.24951223137871" lon="16.290776147396063"><ele>481.0</ele><time>2026-05-02T11:13:03.999Z</time></trkpt><trkpt lat="39.249514275353455" lon="16.29090360670494"><ele>478.0</ele><time>2026-05-02T11:13:04.999Z</time></trkpt><trkpt lat="39.249556122146025" lon="16.29102625510239"><ele>475.0</ele><time>2026-05-02T11:13:05.999Z</time></trkpt><trkpt lat="39.249631562551045" lon="16.291144999388898"><ele>475.0</ele><time>2026-05-02T11:13:06.999Z</time></trkpt><trkpt lat="39.24971950795921" lon="16.291266029234215"><ele>475.0</ele><time>2026-05-02T11:13:07.999Z</time></trkpt><trkpt lat="39.2498086941058" lon="16.291395036314714"><ele>475.0</ele><time>2026-05-02T11:13:08.999Z</time></trkpt><trkpt lat="39.24988887543704" lon="16.291537874159687"><ele>475.0</ele><time>2026-05-02T11:13:09.999Z</time></trkpt><trkpt lat="39.24995794640234" lon="16.291687694803038"><ele>477.25</ele><time>2026-05-02T11:13:10.999Z</time></trkpt><trkpt lat="39.24999625972358" lon="16.291855535799243"><ele>479.5</ele><time>2026-05-02T11:13:12Z</time></trkpt><trkpt lat="39.25005037199093" lon="16.29200727920413"><ele>481.75</ele><time>2026-05-02T11:13:13Z</time></trkpt><trkpt lat="39.250088041458866" lon="16.29214481730924"><ele>484.0</ele><time>2026-05-02T11:13:14Z</time></trkpt><trkpt lat="39.250117936134885" lon="16.292262269610735"><ele>484.0</ele><time>2026-05-02T11:13:15Z</time></trkpt><trkpt lat="39.25015835059671" lon="16.29237573302413"><ele>484.0</ele><time>2026-05-02T11:13:16Z</time></trkpt><trkpt lat="39.250168570518056" lon="16.2925103947471"><ele>484.0</ele><time>2026-05-02T11:13:17Z</time></trkpt><trkpt lat="39.25014200964573" lon="16.292659400793102"><ele>484.0</ele><time>2026-05-02T11:13:18Z</time></trkpt><trkpt lat="39.25011510801548" lon="16.292825439649313"><ele>484.0</ele><time>2026-05-02T11:13:19Z</time></trkpt><trkpt lat="39.25007691887297" lon="16.293006896153376"><ele>484.0</ele><time>2026-05-02T11:13:20Z</time></trkpt><trkpt lat="39.2500369772668" lon="16.293193415742813"><ele>484.0</ele><time>2026-05-02T11:13:21Z</time></trkpt><trkpt lat="39.2500011169798" lon="16.293398176897654"><ele>486.0</ele><time>2026-05-02T11:13:22Z</time></trkpt><trkpt lat="39.24998388827586" lon="16.2936191970063"><ele>488.0</ele><time>2026-05-02T11:13:23Z</time></trkpt><trkpt lat="39.24995259810644" lon="16.293850189789868"><ele>490.0</ele><time>2026-05-02T11:13:24Z</time></trkpt><trkpt lat="39.24992401385312" lon="16.294079871006154"><ele>493.6666666666667</ele><time>2026-05-02T11:13:25Z</time></trkpt><trkpt lat="39.24989323767691" lon="16.29431020966028"><ele>497.33333333333337</ele><time>2026-05-02T11:13:26Z</time></trkpt><trkpt lat="39.2498581181243" lon="16.294535718703536"><ele>501.0</ele><time>2026-05-02T11:13:27Z</time></trkpt><trkpt lat="39.24982188990519" lon="16.294745247311358"><ele>504.5</ele><time>2026-05-02T11:13:28Z</time></trkpt><trkpt lat="39.24976376415853" lon="16.294931098704836"><ele>508.0</ele><time>2026-05-02T11:13:29Z</time></trkpt><trkpt lat="39.24973992904933" lon="16.295097744394898"><ele>511.5</ele><time>2026-05-02T11:13:30Z</time></trkpt><trkpt lat="39.24968050476117" lon="16.295229043027888"><ele>515.0</ele><time>2026-05-02T11:13:31Z</time></trkpt><trkpt lat="39.249644914621136" lon="16.295374079263183"><ele>515.0</ele><time>2026-05-02T11:13:32Z</time></trkpt><trkpt lat="39.249588085340974" lon="16.295510821837567"><ele>515.0</ele><time>2026-05-02T11:13:33Z</time></trkpt><trkpt lat="39.24952581871986" lon="16.295645572626306"><ele>515.0</ele><time>2026-05-02T11:13:34Z</time></trkpt><trkpt lat="39.24945125918235" lon="16.295769773246054"><ele>515.0</ele><time>2026-05-02T11:13:35Z</time></trkpt><trkpt lat="39.249346901036944" lon="16.295864316185263"><ele>513.0</ele><time>2026-05-02T11:13:36Z</time></trkpt><trkpt lat="39.24925834139042" lon="16.29598086283757"><ele>511.0</ele><time>2026-05-02T11:13:37Z</time></trkpt><trkpt lat="39.249143576592566" lon="16.296046324658143"><ele>509.0</ele><time>2026-05-02T11:13:38Z</time></trkpt><trkpt lat="39.24903699737526" lon="16.296121661580077"><ele>507.0</ele><time>2026-05-02T11:13:39Z</time></trkpt><trkpt lat="39.248934799845166" lon="16.29621065518474"><ele>505.5</ele><time>2026-05-02T11:13:40Z</time></trkpt><trkpt lat="39.24881673260488" lon="16.296268138932543"><ele>504.0</ele><time>2026-05-02T11:13:41Z</time></trkpt><trkpt lat="39.248692176951266" lon="16.296311383986904"><ele>502.5</ele><time>2026-05-02T11:13:42Z</time></trkpt><trkpt lat="39.24856177471926" lon="16.296347987318754"><ele>501.0</ele><time>2026-05-02T11:13:43Z</time></trkpt><trkpt lat="39.248430219295024" lon="16.29638810118494"><ele>500.5</ele><time>2026-05-02T11:13:44Z</time></trkpt><trkpt lat="39.24830143049419" lon="16.296439097795545"><ele>500.0</ele><time>2026-05-02T11:13:45Z</time></trkpt><trkpt lat="39.24817789963459" lon="16.296504155786327"><ele>499.5</ele><time>2026-05-02T11:13:46Z</time></trkpt><trkpt lat="39.24806615961424" lon="16.296584166565893"><ele>499.0</ele><time>2026-05-02T11:13:47Z</time></trkpt><trkpt lat="39.247960414437664" lon="16.29666513492269"><ele>499.0</ele><time>2026-05-02T11:13:48Z</time></trkpt><trkpt lat="39.247862331934016" lon="16.296757805217325"><ele>499.0</ele><time>2026-05-02T11:13:49Z</time></trkpt><trkpt lat="39.24777704780165" lon="16.29686930284267"><ele>499.0</ele><time>2026-05-02T11:13:50Z</time></trkpt><trkpt lat="39.24771594827279" lon="16.297002507033227"><ele>499.0</ele><time>2026-05-02T11:13:51Z</time></trkpt><trkpt lat="39.247664592342424" lon="16.29714513548334"><ele>502.6</ele><time>2026-05-02T11:13:52Z</time></trkpt><trkpt lat="39.247623632938016" lon="16.297280004927106"><ele>506.2</ele><time>2026-05-02T11:13:53Z</time></trkpt><trkpt lat="39.247598104908" lon="16.297416697784833"><ele>509.80000000000007</ele><time>2026-05-02T11:13:54Z</time></trkpt><trkpt lat="39.24759609626505" lon="16.297549102255843"><ele>513.4</ele><time>2026-05-02T11:13:55Z</time></trkpt><trkpt lat="39.24760983937985" lon="16.297665293671166"><ele>517.0</ele><time>2026-05-02T11:13:56Z</time></trkpt><trkpt lat="39.247614872393626" lon="16.2977785266117"><ele>517.0</ele><time>2026-05-02T11:13:57Z</time></trkpt><trkpt lat="39.24759805989792" lon="16.297879021816836"><ele>517.0</ele><time>2026-05-02T11:13:58Z</time></trkpt><trkpt lat="39.247567319615115" lon="16.297967020781144"><ele>517.0</ele><time>2026-05-02T11:13:59Z</time></trkpt><trkpt lat="39.247544038534365" lon="16.298045574145565"><ele>517.0</ele><time>2026-05-02T11:14:00Z</time></trkpt><trkpt lat="39.24754852413286" lon="16.298164997975324"><ele>517.0</ele><time>2026-05-02T11:14:02Z</time></trkpt><trkpt lat="39.24766839344191" lon="16.298211241716032"><ele>517.0</ele><time>2026-05-02T11:14:04Z</time></trkpt><trkpt lat="39.24773807966588" lon="16.298167230752433"><ele>517.0</ele><time>2026-05-02T11:14:05Z</time></trkpt><trkpt lat="39.247784112628615" lon="16.298098277682577"><ele>517.0</ele><time>2026-05-02T11:14:06Z</time></trkpt><trkpt lat="39.24782568802253" lon="16.298031512016127"><ele>517.0</ele><time>2026-05-02T11:14:07Z</time></trkpt><trkpt lat="39.247903829778295" lon="16.297942990654505"><ele>517.0</ele><time>2026-05-02T11:14:09Z</time></trkpt><trkpt lat="39.24798334922023" lon="16.29797608364198"><ele>517.0</ele><time>2026-05-02T11:14:11Z</time></trkpt><trkpt lat="39.247964969808486" lon="16.29811580264661"><ele>517.0</ele><time>2026-05-02T11:14:13Z</time></trkpt><trkpt lat="39.24790923126757" lon="16.298181750389038"><ele>520.0</ele><time>2026-05-02T11:14:14Z</time></trkpt><trkpt lat="39.24785191627251" lon="16.29823728478682"><ele>523.0</ele><time>2026-05-02T11:14:15Z</time></trkpt><trkpt lat="39.247796425387534" lon="16.298302880757948"><ele>526.0</ele><time>2026-05-02T11:14:16Z</time></trkpt><trkpt lat="39.24774037672686" lon="16.2983850929732"><ele>529.0</ele><time>2026-05-02T11:14:17Z</time></trkpt><trkpt lat="39.24765157840667" lon="16.298489664078414"><ele>532.0</ele><time>2026-05-02T11:14:18Z</time></trkpt><trkpt lat="39.247566223169656" lon="16.29865574035737"><ele>532.0</ele><time>2026-05-02T11:14:19Z</time></trkpt><trkpt lat="39.24748304096114" lon="16.29884304759261"><ele>532.0</ele><time>2026-05-02T11:14:20Z</time></trkpt><trkpt lat="39.24739000266034" lon="16.299064616151504"><ele>532.0</ele><time>2026-05-02T11:14:21Z</time></trkpt><trkpt lat="39.247265583344024" lon="16.299288402501933"><ele>534.0</ele><time>2026-05-02T11:14:22Z</time></trkpt><trkpt lat="39.24714653247849" lon="16.29951725298723"><ele>536.0</ele><time>2026-05-02T11:14:23Z</time></trkpt><trkpt lat="39.24706066471524" lon="16.29977052077726"><ele>538.0</ele><time>2026-05-02T11:14:24Z</time></trkpt><trkpt lat="39.246986141148604" lon="16.30005764379589"><ele>538.0</ele><time>2026-05-02T11:14:25Z</time></trkpt><trkpt lat="39.24689499193783" lon="16.300357767930816"><ele>538.0</ele><time>2026-05-02T11:14:26Z</time></trkpt><trkpt lat="39.24675686152016" lon="16.300631983221948"><ele>542.5</ele><time>2026-05-02T11:14:27Z</time></trkpt><trkpt lat="39.24663536893545" lon="16.30091158801962"><ele>547.0</ele><time>2026-05-02T11:14:27.999Z</time></trkpt><trkpt lat="39.24650864041528" lon="16.301160527031307"><ele>546.0</ele><time>2026-05-02T11:14:28.999Z</time></trkpt><trkpt lat="39.246406724982165" lon="16.30139829210048"><ele>545.0</ele><time>2026-05-02T11:14:29.999Z</time></trkpt><trkpt lat="39.24632780963285" lon="16.301624657265403"><ele>544.0</ele><time>2026-05-02T11:14:30.999Z</time></trkpt><trkpt lat="39.24626026367647" lon="16.301851168613343"><ele>548.0</ele><time>2026-05-02T11:14:31.999Z</time></trkpt><trkpt lat="39.24619109560668" lon="16.30209382269932"><ele>552.0</ele><time>2026-05-02T11:14:32.999Z</time></trkpt><trkpt lat="39.24611326002961" lon="16.30234113528171"><ele>556.0</ele><time>2026-05-02T11:14:33.999Z</time></trkpt><trkpt lat="39.24602074401696" lon="16.302584323805707"><ele>556.0</ele><time>2026-05-02T11:14:34.999Z</time></trkpt><trkpt lat="39.24591595874367" lon="16.302820548798536"><ele>556.0</ele><time>2026-05-02T11:14:35.999Z</time></trkpt><trkpt lat="39.2458182488091" lon="16.303038025760195"><ele>556.0</ele><time>2026-05-02T11:14:36.999Z</time></trkpt><trkpt lat="39.24573881124167" lon="16.303252508126008"><ele>556.0</ele><time>2026-05-02T11:14:37.999Z</time></trkpt><trkpt lat="39.245682979627865" lon="16.303487387106458"><ele>556.0</ele><time>2026-05-02T11:14:38.999Z</time></trkpt><trkpt lat="39.245651854567676" lon="16.303741099876405"><ele>556.0</ele><time>2026-05-02T11:14:39.999Z</time></trkpt><trkpt lat="39.24563597262104" lon="16.30399911470237"><ele>556.0</ele><time>2026-05-02T11:14:40.999Z</time></trkpt><trkpt lat="39.24562257217906" lon="16.304249768620597"><ele>556.0</ele><time>2026-05-02T11:14:41.999Z</time></trkpt><trkpt lat="39.24562276512776" lon="16.304492774383373"><ele>556.0</ele><time>2026-05-02T11:14:42.999Z</time></trkpt><trkpt lat="39.245648984805115" lon="16.30473043744408"><ele>556.0</ele><time>2026-05-02T11:14:43.999Z</time></trkpt><trkpt lat="39.245696790849614" lon="16.30496819353745"><ele>556.0</ele><time>2026-05-02T11:14:44.999Z</time></trkpt><trkpt lat="39.24573590126595" lon="16.305206530931358"><ele>556.0</ele><time>2026-05-02T11:14:45.999Z</time></trkpt><trkpt lat="39.24571241455113" lon="16.305452075183734"><ele>556.3333333333334</ele><time>2026-05-02T11:14:46.999Z</time></trkpt><trkpt lat="39.245681986331086" lon="16.305711398799122"><ele>556.6666666666666</ele><time>2026-05-02T11:14:47.999Z</time></trkpt><trkpt lat="39.24563475657323" lon="16.305975554971923"><ele>557.0</ele><time>2026-05-02T11:14:48.999Z</time></trkpt><trkpt lat="39.24559986742209" lon="16.306255890956997"><ele>554.3333333333333</ele><time>2026-05-02T11:14:49.999Z</time></trkpt><trkpt lat="39.24558235332113" lon="16.30654748854813"><ele>551.6666666666666</ele><time>2026-05-02T11:14:50.999Z</time></trkpt><trkpt lat="39.245575060205084" lon="16.306835247792083"><ele>549.0</ele><time>2026-05-02T11:14:51.999Z</time></trkpt><trkpt lat="39.24556934597642" lon="16.307112576208194"><ele>548.0</ele><time>2026-05-02T11:14:52.999Z</time></trkpt><trkpt lat="39.24556149644138" lon="16.307384067738955"><ele>547.0</ele><time>2026-05-02T11:14:53.999Z</time></trkpt><trkpt lat="39.24554949056862" lon="16.307642903647885"><ele>546.0</ele><time>2026-05-02T11:14:54.999Z</time></trkpt><trkpt lat="39.24552364316875" lon="16.307890080674138"><ele>548.6666666666666</ele><time>2026-05-02T11:14:55.999Z</time></trkpt><trkpt lat="39.24546111015916" lon="16.308120245700934"><ele>551.3333333333333</ele><time>2026-05-02T11:14:56.999Z</time></trkpt><trkpt lat="39.24534167789565" lon="16.308308464854665"><ele>554.0</ele><time>2026-05-02T11:14:57.999Z</time></trkpt><trkpt lat="39.24521981329219" lon="16.30851876069079"><ele>554.0</ele><time>2026-05-02T11:14:58.999Z</time></trkpt><trkpt lat="39.24507128022454" lon="16.308725760213587"><ele>554.0</ele><time>2026-05-02T11:14:59.999Z</time></trkpt><trkpt lat="39.24492794180462" lon="16.308955187742736"><ele>554.0</ele><time>2026-05-02T11:15:00.999Z</time></trkpt><trkpt lat="39.244794480190976" lon="16.309205357009567"><ele>548.0</ele><time>2026-05-02T11:15:01.999Z</time></trkpt><trkpt lat="39.24467074027718" lon="16.309464083827816"><ele>542.0</ele><time>2026-05-02T11:15:02.999Z</time></trkpt><trkpt lat="39.24455446957076" lon="16.309723654899212"><ele>546.0</ele><time>2026-05-02T11:15:03.999Z</time></trkpt><trkpt lat="39.244434072351574" lon="16.309988907426273"><ele>550.0</ele><time>2026-05-02T11:15:04.999Z</time></trkpt><trkpt lat="39.24431254795262" lon="16.310254403711884"><ele>550.0</ele><time>2026-05-02T11:15:05.999Z</time></trkpt><trkpt lat="39.24419124447328" lon="16.310521940900685"><ele>550.0</ele><time>2026-05-02T11:15:06.999Z</time></trkpt><trkpt lat="39.24407150201911" lon="16.310791305263542"><ele>549.6666666666667</ele><time>2026-05-02T11:15:07.999Z</time></trkpt><trkpt lat="39.24395670163267" lon="16.31104962107006"><ele>549.3333333333334</ele><time>2026-05-02T11:15:08.999Z</time></trkpt><trkpt lat="39.2438496315714" lon="16.311284353654194"><ele>549.0</ele><time>2026-05-02T11:15:09.999Z</time></trkpt><trkpt lat="39.24373874945258" lon="16.3114909454907"><ele>549.0</ele><time>2026-05-02T11:15:10.999Z</time></trkpt><trkpt lat="39.2436026339546" lon="16.311656969082325"><ele>549.0</ele><time>2026-05-02T11:15:11.999Z</time></trkpt><trkpt lat="39.24343449920958" lon="16.31178745983755"><ele>549.0</ele><time>2026-05-02T11:15:12.999Z</time></trkpt><trkpt lat="39.243254156191874" lon="16.311886723642985"><ele>549.3333333333334</ele><time>2026-05-02T11:15:13.999Z</time></trkpt><trkpt lat="39.2430805470875" lon="16.31200340273838"><ele>549.6666666666667</ele><time>2026-05-02T11:15:14.999Z</time></trkpt><trkpt lat="39.24289445097289" lon="16.31210275852303"><ele>550.0</ele><time>2026-05-02T11:15:15.999Z</time></trkpt><trkpt lat="39.24270414984655" lon="16.312218647516872"><ele>553.0</ele><time>2026-05-02T11:15:16.999Z</time></trkpt><trkpt lat="39.24259255568732" lon="16.312579077357377"><ele>556.0</ele><time>2026-05-02T11:15:18Z</time></trkpt><trkpt lat="39.24242095406358" lon="16.312805590008615"><ele>557.5</ele><time>2026-05-02T11:15:19Z</time></trkpt><trkpt lat="39.242242594137686" lon="16.313025070969378"><ele>559.0</ele><time>2026-05-02T11:15:20Z</time></trkpt><trkpt lat="39.24206131625753" lon="16.313214013809574"><ele>559.0</ele><time>2026-05-02T11:15:21Z</time></trkpt><trkpt lat="39.24187261065706" lon="16.313384070650546"><ele>559.0</ele><time>2026-05-02T11:15:22Z</time></trkpt><trkpt lat="39.24167644668006" lon="16.313536298707696"><ele>559.0</ele><time>2026-05-02T11:15:23Z</time></trkpt><trkpt lat="39.24147744242841" lon="16.313675229516708"><ele>559.0</ele><time>2026-05-02T11:15:24Z</time></trkpt><trkpt lat="39.241284515432426" lon="16.31379595116842"><ele>559.0</ele><time>2026-05-02T11:15:25Z</time></trkpt><trkpt lat="39.241108763221014" lon="16.31390646789453"><ele>560.3333333333334</ele><time>2026-05-02T11:15:26Z</time></trkpt><trkpt lat="39.24095713373991" lon="16.314047147237044"><ele>561.6666666666666</ele><time>2026-05-02T11:15:27Z</time></trkpt><trkpt lat="39.24083273002629" lon="16.314237591860508"><ele>563.0</ele><time>2026-05-02T11:15:28Z</time></trkpt><trkpt lat="39.240719547642975" lon="16.31445737559747"><ele>563.3333333333333</ele><time>2026-05-02T11:15:29Z</time></trkpt><trkpt lat="39.24060905402795" lon="16.314702355088034"><ele>563.6666666666666</ele><time>2026-05-02T11:15:30Z</time></trkpt><trkpt lat="39.24048881251381" lon="16.314949142253763"><ele>564.0</ele><time>2026-05-02T11:15:31Z</time></trkpt><trkpt lat="39.240359411335724" lon="16.31520066794245"><ele>564.0</ele><time>2026-05-02T11:15:32Z</time></trkpt><trkpt lat="39.24022466393807" lon="16.315449612774668"><ele>564.0</ele><time>2026-05-02T11:15:33Z</time></trkpt><trkpt lat="39.24007972708961" lon="16.315690472555715"><ele>566.0</ele><time>2026-05-02T11:15:34Z</time></trkpt><trkpt lat="39.23992495169112" lon="16.31592141124437"><ele>568.0</ele><time>2026-05-02T11:15:35Z</time></trkpt><trkpt lat="39.23977466259199" lon="16.3161458982504"><ele>567.6666666666667</ele><time>2026-05-02T11:15:36Z</time></trkpt><trkpt lat="39.23964308128607" lon="16.316365043909368"><ele>567.3333333333334</ele><time>2026-05-02T11:15:37Z</time></trkpt><trkpt lat="39.23953302496523" lon="16.316576657505752"><ele>567.0</ele><time>2026-05-02T11:15:38Z</time></trkpt><trkpt lat="39.23943439498494" lon="16.31678473252638"><ele>567.0</ele><time>2026-05-02T11:15:39Z</time></trkpt><trkpt lat="39.239355719109284" lon="16.316986928275053"><ele>567.0</ele><time>2026-05-02T11:15:40Z</time></trkpt><trkpt lat="39.239289356542756" lon="16.317156137497744"><ele>567.0</ele><time>2026-05-02T11:15:41Z</time></trkpt><trkpt lat="39.23922131551758" lon="16.317304175384795"><ele>566.8000000000001</ele><time>2026-05-02T11:15:42Z</time></trkpt><trkpt lat="39.239149113842906" lon="16.317426407237736"><ele>566.6</ele><time>2026-05-02T11:15:43Z</time></trkpt><trkpt lat="39.2390785082883" lon="16.317535951383586"><ele>566.4000000000001</ele><time>2026-05-02T11:15:44Z</time></trkpt><trkpt lat="39.239021271727616" lon="16.317630798926565"><ele>566.2</ele><time>2026-05-02T11:15:45Z</time></trkpt><trkpt lat="39.23895918185219" lon="16.317734859801856"><ele>566.0</ele><time>2026-05-02T11:15:46Z</time></trkpt><trkpt lat="39.2388688442566" lon="16.3178490710038"><ele>566.0</ele><time>2026-05-02T11:15:47Z</time></trkpt><trkpt lat="39.238751510948234" lon="16.31796487751042"><ele>566.0</ele><time>2026-05-02T11:15:48Z</time></trkpt><trkpt lat="39.23862112621922" lon="16.318081912201077"><ele>566.0</ele><time>2026-05-02T11:15:49Z</time></trkpt><trkpt lat="39.23848616676892" lon="16.318190345208272"><ele>566.3333333333333</ele><time>2026-05-02T11:15:50Z</time></trkpt><trkpt lat="39.238337147552386" lon="16.31829663474709"><ele>566.6666666666666</ele><time>2026-05-02T11:15:51Z</time></trkpt><trkpt lat="39.23818896783391" lon="16.318396143643888"><ele>567.0</ele><time>2026-05-02T11:15:52Z</time></trkpt><trkpt lat="39.23804668752477" lon="16.318478375932735"><ele>567.0</ele><time>2026-05-02T11:15:53Z</time></trkpt><trkpt lat="39.237910467770675" lon="16.31854070572649"><ele>567.0</ele><time>2026-05-02T11:15:54Z</time></trkpt><trkpt lat="39.23779885820618" lon="16.31860034025864"><ele>567.0</ele><time>2026-05-02T11:15:55Z</time></trkpt><trkpt lat="39.23771237711161" lon="16.31867522177651"><ele>567.0</ele><time>2026-05-02T11:15:56Z</time></trkpt><trkpt lat="39.237654741169294" lon="16.31875733762235"><ele>567.0</ele><time>2026-05-02T11:15:57Z</time></trkpt><trkpt lat="39.23762430280142" lon="16.31883640391057"><ele>567.0</ele><time>2026-05-02T11:15:58Z</time></trkpt><trkpt lat="39.23757317550034" lon="16.318940656546797"><ele>567.0</ele><time>2026-05-02T11:16:00Z</time></trkpt><trkpt lat="39.23750670654536" lon="16.318976922498717"><ele>567.0</ele><time>2026-05-02T11:17:05.999Z</time></trkpt><trkpt lat="39.237430811646774" lon="16.31895108400832"><ele>567.0</ele><time>2026-05-02T11:21:33.999Z</time></trkpt><trkpt lat="39.23733276582385" lon="16.318925020167864"><ele>567.0</ele><time>2026-05-02T11:21:36Z</time></trkpt><trkpt lat="39.237234880396244" lon="16.31888942097656"><ele>568.0</ele><time>2026-05-02T11:21:46Z</time></trkpt><trkpt lat="39.23716378636907" lon="16.318913039068576"><ele>569.0</ele><time>2026-05-02T11:21:47Z</time></trkpt><trkpt lat="39.23708831794402" lon="16.31897285580281"><ele>570.0</ele><time>2026-05-02T11:21:48Z</time></trkpt><trkpt lat="39.23701176149964" lon="16.31905510057782"><ele>571.0</ele><time>2026-05-02T11:21:49Z</time></trkpt><trkpt lat="39.23693296521248" lon="16.319150949079265"><ele>572.0</ele><time>2026-05-02T11:21:50Z</time></trkpt><trkpt lat="39.23684774721421" lon="16.319254544495994"><ele>572.0</ele><time>2026-05-02T11:21:51Z</time></trkpt><trkpt lat="39.23675277931857" lon="16.319361090407995"><ele>572.0</ele><time>2026-05-02T11:21:52Z</time></trkpt><trkpt lat="39.23664928827695" lon="16.31947967768635"><ele>572.0</ele><time>2026-05-02T11:21:53Z</time></trkpt><trkpt lat="39.236540038458145" lon="16.31960364434952"><ele>572.0</ele><time>2026-05-02T11:21:54Z</time></trkpt><trkpt lat="39.23642578398555" lon="16.31973443668749"><ele>573.3333333333333</ele><time>2026-05-02T11:21:55Z</time></trkpt><trkpt lat="39.236312399221546" lon="16.319865795606912"><ele>574.6666666666666</ele><time>2026-05-02T11:21:56Z</time></trkpt><trkpt lat="39.236201822161014" lon="16.320000816580233"><ele>576.0</ele><time>2026-05-02T11:21:57Z</time></trkpt><trkpt lat="39.23609363032082" lon="16.320133922597723"><ele>576.0</ele><time>2026-05-02T11:21:58Z</time></trkpt><trkpt lat="39.235995447310444" lon="16.320254316688345"><ele>576.0</ele><time>2026-05-02T11:21:59Z</time></trkpt><trkpt lat="39.23590540782369" lon="16.32036176077239"><ele>576.0</ele><time>2026-05-02T11:22:00Z</time></trkpt><trkpt lat="39.23582158371513" lon="16.32044885324888"><ele>576.0</ele><time>2026-05-02T11:22:01Z</time></trkpt><trkpt lat="39.23574689119279" lon="16.320513794586937"><ele>576.0</ele><time>2026-05-02T11:22:02Z</time></trkpt><trkpt lat="39.23568015960643" lon="16.320560721515253"><ele>576.0</ele><time>2026-05-02T11:22:03Z</time></trkpt><trkpt lat="39.23557931378378" lon="16.320630375942468"><ele>576.0</ele><time>2026-05-02T11:22:05Z</time></trkpt><trkpt lat="39.235552753261686" lon="16.320752576085106"><ele>576.0</ele><time>2026-05-02T11:22:07Z</time></trkpt><trkpt lat="39.23563437738609" lon="16.32083077094559"><ele>576.0</ele><time>2026-05-02T11:22:08Z</time></trkpt><trkpt lat="39.23563018782203" lon="16.320993185590538"><ele>576.8</ele><time>2026-05-02T11:22:10Z</time></trkpt><trkpt lat="39.23558888516205" lon="16.321092523943925"><ele>577.6</ele><time>2026-05-02T11:22:11Z</time></trkpt><trkpt lat="39.235512591899194" lon="16.321193318723594"><ele>578.4</ele><time>2026-05-02T11:22:12Z</time></trkpt><trkpt lat="39.23545151728757" lon="16.321324743449814"><ele>579.2</ele><time>2026-05-02T11:22:13Z</time></trkpt><trkpt lat="39.235382622519644" lon="16.321472473361478"><ele>580.0</ele><time>2026-05-02T11:22:14Z</time></trkpt><trkpt lat="39.235308434103295" lon="16.321625911673735"><ele>581.25</ele><time>2026-05-02T11:22:15Z</time></trkpt><trkpt lat="39.23522853111224" lon="16.321786507417876"><ele>582.5</ele><time>2026-05-02T11:22:16Z</time></trkpt><trkpt lat="39.23514931317447" lon="16.321934884480896"><ele>583.75</ele><time>2026-05-02T11:22:17Z</time></trkpt><trkpt lat="39.235073200480834" lon="16.322070258203137"><ele>585.0</ele><time>2026-05-02T11:22:18Z</time></trkpt><trkpt lat="39.234966109576895" lon="16.322159098262503"><ele>585.0</ele><time>2026-05-02T11:22:19Z</time></trkpt><trkpt lat="39.23485708320835" lon="16.322227813374568"><ele>585.0</ele><time>2026-05-02T11:22:20Z</time></trkpt><trkpt lat="39.234762583081974" lon="16.32231729630932"><ele>585.0</ele><time>2026-05-02T11:22:21Z</time></trkpt><trkpt lat="39.23467779442978" lon="16.32241736998574"><ele>585.0</ele><time>2026-05-02T11:22:22Z</time></trkpt><trkpt lat="39.23464184338531" lon="16.322568972180548"><ele>585.5</ele><time>2026-05-02T11:22:23Z</time></trkpt><trkpt lat="39.23460091110685" lon="16.32272352834093"><ele>586.0</ele><time>2026-05-02T11:22:24Z</time></trkpt><trkpt lat="39.23455694336957" lon="16.32288691857316"><ele>586.5</ele><time>2026-05-02T11:22:25Z</time></trkpt><trkpt lat="39.23453511977625" lon="16.32305963543628"><ele>587.0</ele><time>2026-05-02T11:22:26Z</time></trkpt><trkpt lat="39.234513512811176" lon="16.323230637858327"><ele>588.0</ele><time>2026-05-02T11:22:27Z</time></trkpt><trkpt lat="39.23449425806525" lon="16.323400798535495"><ele>589.0</ele><time>2026-05-02T11:22:28Z</time></trkpt><trkpt lat="39.23447678998482" lon="16.32356159329357"><ele>590.0</ele><time>2026-05-02T11:22:29Z</time></trkpt><trkpt lat="39.234461910167745" lon="16.323707867122245"><ele>591.0</ele><time>2026-05-02T11:22:30Z</time></trkpt><trkpt lat="39.234450189635155" lon="16.32383080714755"><ele>591.4</ele><time>2026-05-02T11:22:31Z</time></trkpt><trkpt lat="39.2344386671727" lon="16.32395166952567"><ele>591.8</ele><time>2026-05-02T11:22:32Z</time></trkpt><trkpt lat="39.23443021296534" lon="16.324075763219753"><ele>592.1999999999999</ele><time>2026-05-02T11:22:33Z</time></trkpt><trkpt lat="39.23445349613531" lon="16.32421538725593"><ele>592.6</ele><time>2026-05-02T11:22:34Z</time></trkpt><trkpt lat="39.234462411715626" lon="16.32436272130484"><ele>593.0</ele><time>2026-05-02T11:22:35Z</time></trkpt><trkpt lat="39.23446914726815" lon="16.324512878903658"><ele>593.0</ele><time>2026-05-02T11:22:36Z</time></trkpt><trkpt lat="39.23445476470733" lon="16.324673796782843"><ele>593.0</ele><time>2026-05-02T11:22:37Z</time></trkpt><trkpt lat="39.2344246067466" lon="16.324830940740256"><ele>593.0</ele><time>2026-05-02T11:22:38Z</time></trkpt><trkpt lat="39.23438401119959" lon="16.32498129387555"><ele>593.0</ele><time>2026-05-02T11:22:39Z</time></trkpt><trkpt lat="39.234348238550076" lon="16.325117839856308"><ele>593.4</ele><time>2026-05-02T11:22:40Z</time></trkpt><trkpt lat="39.23431438116393" lon="16.325233394892308"><ele>593.8</ele><time>2026-05-02T11:22:41Z</time></trkpt><trkpt lat="39.23426177909208" lon="16.325333179162325"><ele>594.2</ele><time>2026-05-02T11:22:42Z</time></trkpt><trkpt lat="39.23421949787512" lon="16.325422087311146"><ele>594.6</ele><time>2026-05-02T11:22:43Z</time></trkpt><trkpt lat="39.23416769948367" lon="16.325559788409645"><ele>595.0</ele><time>2026-05-02T11:22:44.999Z</time></trkpt><trkpt lat="39.23411855716162" lon="16.325683726421982"><ele>595.2</ele><time>2026-05-02T11:22:46.999Z</time></trkpt><trkpt lat="39.23407129625738" lon="16.32578993678313"><ele>595.4</ele><time>2026-05-02T11:22:48.999Z</time></trkpt><trkpt lat="39.23404706286189" lon="16.32588777793284"><ele>595.6</ele><time>2026-05-02T11:22:50.999Z</time></trkpt><trkpt lat="39.23401787250419" lon="16.326011641834675"><ele>595.8</ele><time>2026-05-02T11:22:52.999Z</time></trkpt><trkpt lat="39.233984223334296" lon="16.326154425878663"><ele>596.0</ele><time>2026-05-02T11:22:54.999Z</time></trkpt><trkpt lat="39.23396247285986" lon="16.32629314548475"><ele>597.0</ele><time>2026-05-02T11:22:56.999Z</time></trkpt><trkpt lat="39.23392921494824" lon="16.326430415122058"><ele>598.0</ele><time>2026-05-02T11:22:58.999Z</time></trkpt><trkpt lat="39.233897696013535" lon="16.326584041077002"><ele>599.0</ele><time>2026-05-02T11:23:00.999Z</time></trkpt><trkpt lat="39.23386184155971" lon="16.326725752332248"><ele>600.0</ele><time>2026-05-02T11:23:02.999Z</time></trkpt><trkpt lat="39.23382490797532" lon="16.326857297137142"><ele>600.0</ele><time>2026-05-02T11:23:04.999Z</time></trkpt><trkpt lat="39.23379102572248" lon="16.32698551972213"><ele>600.0</ele><time>2026-05-02T11:23:06.999Z</time></trkpt><trkpt lat="39.233762431804735" lon="16.327090983366954"><ele>600.0</ele><time>2026-05-02T11:23:08.999Z</time></trkpt><trkpt lat="39.23372921514853" lon="16.327161116446927"><ele>600.0</ele><time>2026-05-02T11:23:11.999Z</time></trkpt><trkpt lat="39.23359011899968" lon="16.327135673919468"><ele>600.0</ele><time>2026-05-02T11:26:56.999Z</time></trkpt><trkpt lat="39.23348704179999" lon="16.327150392546507"><ele>600.0</ele><time>2026-05-02T11:27:59Z</time></trkpt><trkpt lat="39.233389115039444" lon="16.32717996779421"><ele>600.0</ele><time>2026-05-02T11:28:00Z</time></trkpt><trkpt lat="39.2335049997181" lon="16.327155359605676"><ele>600.0</ele><time>2026-05-02T11:28:05.039Z</time></trkpt><trkpt lat="39.233603971952306" lon="16.327086623754507"><ele>600.0</ele><time>2026-05-02T11:28:23.249Z</time></trkpt></trkseg></trk></gpx>